<?xml version="1.0" encoding="UTF-8"?>
<TrainingCenterDatabase xmlns="http://www.garmin.com/xmlschemas/TrainingCenterDatabase/v2" xmlns:xsi="http://www.w3.org/2001/XMLSchema-instance" xsi:schemaLocation="http://www.garmin.com/xmlschemas/TrainingCenterDatabase/v2 http://www.garmin.com/xmlschemas/TrainingCenterDatabasev2.xsd">
  <Activities>
    <Activity Sport="Other">
      <Id>2022-09-18T10:59:21.000Z</Id>
      <Lap StartTime="2022-09-18T10:59:21.000Z">
        <TotalTimeSeconds>116561</TotalTimeSeconds>
        <DistanceMeters>267870</DistanceMeters>
        <Track>
          <Trackpoint>
            <Time>2022-09-18T10:59:21.000Z</Time>
            <Position>
              <LatitudeDegrees>49.32122991420328617095947265625</LatitudeDegrees>
              <LongitudeDegrees>19.9589926935732364654541015625</LongitudeDegrees>
            </Position>
            <AltitudeMeters>1008.4000244140625</AltitudeMeters>
            <DistanceMeters>0</DistanceMeters>
          </Trackpoint>
          <Trackpoint>
            <Time>2022-09-18T10:59:26.000Z</Time>
            <Position>
              <LatitudeDegrees>49.3212350271642208099365234375</LatitudeDegrees>
              <LongitudeDegrees>19.9590347707271575927734375</LongitudeDegrees>
            </Position>
            <AltitudeMeters>1008.20001220703125</AltitudeMeters>
            <DistanceMeters>3.1054986140946</DistanceMeters>
          </Trackpoint>
          <Trackpoint>
            <Time>2022-09-18T10:59:28.000Z</Time>
            <Position>
              <LatitudeDegrees>49.32121432386338710784912109375</LatitudeDegrees>
              <LongitudeDegrees>19.958991520106792449951171875</LongitudeDegrees>
            </Position>
            <AltitudeMeters>1008.20001220703125</AltitudeMeters>
            <DistanceMeters>6.9981157636427</DistanceMeters>
          </Trackpoint>
          <Trackpoint>
            <Time>2022-09-18T10:59:30.000Z</Time>
            <Position>
              <LatitudeDegrees>49.32119353674352169036865234375</LatitudeDegrees>
              <LongitudeDegrees>19.95895874686539173126220703125</LongitudeDegrees>
            </Position>
            <AltitudeMeters>1008.20001220703125</AltitudeMeters>
            <DistanceMeters>10.317256203821</DistanceMeters>
          </Trackpoint>
          <Trackpoint>
            <Time>2022-09-18T10:59:31.000Z</Time>
            <Position>
              <LatitudeDegrees>49.32119035162031650543212890625</LatitudeDegrees>
              <LongitudeDegrees>19.95894734747707843780517578125</LongitudeDegrees>
            </Position>
            <AltitudeMeters>1008.20001220703125</AltitudeMeters>
            <DistanceMeters>11.218758771735</DistanceMeters>
          </Trackpoint>
          <Trackpoint>
            <Time>2022-09-18T10:59:35.000Z</Time>
            <Position>
              <LatitudeDegrees>49.3211736716330051422119140625</LatitudeDegrees>
              <LongitudeDegrees>19.95889864861965179443359375</LongitudeDegrees>
            </Position>
            <AltitudeMeters>1008.20001220703125</AltitudeMeters>
            <DistanceMeters>15.209880775274</DistanceMeters>
          </Trackpoint>
          <Trackpoint>
            <Time>2022-09-18T10:59:37.000Z</Time>
            <Position>
              <LatitudeDegrees>49.321164786815643310546875</LatitudeDegrees>
              <LongitudeDegrees>19.95886512100696563720703125</LongitudeDegrees>
            </Position>
            <AltitudeMeters>1008.4000244140625</AltitudeMeters>
            <DistanceMeters>17.834751881964</DistanceMeters>
          </Trackpoint>
          <Trackpoint>
            <Time>2022-09-18T10:59:42.000Z</Time>
            <Position>
              <LatitudeDegrees>49.32114106602966785430908203125</LatitudeDegrees>
              <LongitudeDegrees>19.95878054760396480560302734375</LongitudeDegrees>
            </Position>
            <AltitudeMeters>1008.5999755859375</AltitudeMeters>
            <DistanceMeters>24.51439316796</DistanceMeters>
          </Trackpoint>
          <Trackpoint>
            <Time>2022-09-18T10:59:46.000Z</Time>
            <Position>
              <LatitudeDegrees>49.32113436050713062286376953125</LatitudeDegrees>
              <LongitudeDegrees>19.9587063677608966827392578125</LongitudeDegrees>
            </Position>
            <AltitudeMeters>1009.20001220703125</AltitudeMeters>
            <DistanceMeters>29.946730585578</DistanceMeters>
          </Trackpoint>
          <Trackpoint>
            <Time>2022-09-18T10:59:49.000Z</Time>
            <Position>
              <LatitudeDegrees>49.3211290799081325531005859375</LatitudeDegrees>
              <LongitudeDegrees>19.95864727534353733062744140625</LongitudeDegrees>
            </Position>
            <AltitudeMeters>1009.4000244140625</AltitudeMeters>
            <DistanceMeters>34.27436025374</DistanceMeters>
          </Trackpoint>
          <Trackpoint>
            <Time>2022-09-18T10:59:53.000Z</Time>
            <Position>
              <LatitudeDegrees>49.32113419286906719207763671875</LatitudeDegrees>
              <LongitudeDegrees>19.9585809744894504547119140625</LongitudeDegrees>
            </Position>
            <AltitudeMeters>1009.5999755859375</AltitudeMeters>
            <DistanceMeters>39.117926976868</DistanceMeters>
          </Trackpoint>
          <Trackpoint>
            <Time>2022-09-18T10:59:54.000Z</Time>
            <Position>
              <LatitudeDegrees>49.32113385759294033050537109375</LatitudeDegrees>
              <LongitudeDegrees>19.95856496505439281463623046875</LongitudeDegrees>
            </Position>
            <AltitudeMeters>1009.5999755859375</AltitudeMeters>
            <DistanceMeters>40.281761787567</DistanceMeters>
          </Trackpoint>
          <Trackpoint>
            <Time>2022-09-18T10:59:55.000Z</Time>
            <Position>
              <LatitudeDegrees>49.32113368995487689971923828125</LatitudeDegrees>
              <LongitudeDegrees>19.95854736305773258209228515625</LongitudeDegrees>
            </Position>
            <AltitudeMeters>1009.5999755859375</AltitudeMeters>
            <DistanceMeters>41.556678945625</DistanceMeters>
          </Trackpoint>
          <Trackpoint>
            <Time>2022-09-18T10:59:56.000Z</Time>
            <Position>
              <LatitudeDegrees>49.32113704271614551544189453125</LatitudeDegrees>
              <LongitudeDegrees>19.9585358798503875732421875</LongitudeDegrees>
            </Position>
            <AltitudeMeters>1010</AltitudeMeters>
            <DistanceMeters>42.46814317029</DistanceMeters>
          </Trackpoint>
          <Trackpoint>
            <Time>2022-09-18T11:00:04.000Z</Time>
            <Position>
              <LatitudeDegrees>49.32116336189210414886474609375</LatitudeDegrees>
              <LongitudeDegrees>19.95847561396658420562744140625</LongitudeDegrees>
            </Position>
            <AltitudeMeters>1010.20001220703125</AltitudeMeters>
            <DistanceMeters>47.73077031399</DistanceMeters>
          </Trackpoint>
          <Trackpoint>
            <Time>2022-09-18T11:00:05.000Z</Time>
            <Position>
              <LatitudeDegrees>49.32116621173918247222900390625</LatitudeDegrees>
              <LongitudeDegrees>19.95846354402601718902587890625</LongitudeDegrees>
            </Position>
            <AltitudeMeters>1010.4000244140625</AltitudeMeters>
            <DistanceMeters>48.661838162549</DistanceMeters>
          </Trackpoint>
          <Trackpoint>
            <Time>2022-09-18T11:00:09.000Z</Time>
            <Position>
              <LatitudeDegrees>49.3211756832897663116455078125</LatitudeDegrees>
              <LongitudeDegrees>19.95839841663837432861328125</LongitudeDegrees>
            </Position>
            <AltitudeMeters>1011</AltitudeMeters>
            <DistanceMeters>53.503540182346</DistanceMeters>
          </Trackpoint>
          <Trackpoint>
            <Time>2022-09-18T11:00:13.000Z</Time>
            <Position>
              <LatitudeDegrees>49.32118096388876438140869140625</LatitudeDegrees>
              <LongitudeDegrees>19.95833270251750946044921875</LongitudeDegrees>
            </Position>
            <AltitudeMeters>1011.4000244140625</AltitudeMeters>
            <DistanceMeters>58.307796148752</DistanceMeters>
          </Trackpoint>
          <Trackpoint>
            <Time>2022-09-18T11:00:20.000Z</Time>
            <Position>
              <LatitudeDegrees>49.32119898498058319091796875</LatitudeDegrees>
              <LongitudeDegrees>19.95822952128946781158447265625</LongitudeDegrees>
            </Position>
            <AltitudeMeters>1012</AltitudeMeters>
            <DistanceMeters>66.057572818356</DistanceMeters>
          </Trackpoint>
          <Trackpoint>
            <Time>2022-09-18T11:00:23.000Z</Time>
            <Position>
              <LatitudeDegrees>49.321196973323822021484375</LatitudeDegrees>
              <LongitudeDegrees>19.95818811468780040740966796875</LongitudeDegrees>
            </Position>
            <AltitudeMeters>1012</AltitudeMeters>
            <DistanceMeters>69.070084532221</DistanceMeters>
          </Trackpoint>
          <Trackpoint>
            <Time>2022-09-18T11:00:24.000Z</Time>
            <Position>
              <LatitudeDegrees>49.3211957998573780059814453125</LatitudeDegrees>
              <LongitudeDegrees>19.9581709317862987518310546875</LongitudeDegrees>
            </Position>
            <AltitudeMeters>1012</AltitudeMeters>
            <DistanceMeters>70.323572985</DistanceMeters>
          </Trackpoint>
          <Trackpoint>
            <Time>2022-09-18T11:00:25.000Z</Time>
            <Position>
              <LatitudeDegrees>49.32119496166706085205078125</LatitudeDegrees>
              <LongitudeDegrees>19.95815676636993885040283203125</LongitudeDegrees>
            </Position>
            <AltitudeMeters>1012</AltitudeMeters>
            <DistanceMeters>71.360192055261</DistanceMeters>
          </Trackpoint>
          <Trackpoint>
            <Time>2022-09-18T11:00:31.000Z</Time>
            <Position>
              <LatitudeDegrees>49.321187920868396759033203125</LatitudeDegrees>
              <LongitudeDegrees>19.9581241607666015625</LongitudeDegrees>
            </Position>
            <AltitudeMeters>1012.20001220703125</AltitudeMeters>
            <DistanceMeters>73.852719405852</DistanceMeters>
          </Trackpoint>
          <Trackpoint>
            <Time>2022-09-18T11:00:34.000Z</Time>
            <Position>
              <LatitudeDegrees>49.32118616066873073577880859375</LatitudeDegrees>
              <LongitudeDegrees>19.95812927372753620147705078125</LongitudeDegrees>
            </Position>
            <AltitudeMeters>1012.5999755859375</AltitudeMeters>
            <DistanceMeters>74.277691791871</DistanceMeters>
          </Trackpoint>
          <Trackpoint>
            <Time>2022-09-18T11:00:39.000Z</Time>
            <Position>
              <LatitudeDegrees>49.32118616066873073577880859375</LatitudeDegrees>
              <LongitudeDegrees>19.9581134319305419921875</LongitudeDegrees>
            </Position>
            <AltitudeMeters>1012.79998779296875</AltitudeMeters>
            <DistanceMeters>75.425903950323</DistanceMeters>
          </Trackpoint>
          <Trackpoint>
            <Time>2022-09-18T11:00:47.000Z</Time>
            <Position>
              <LatitudeDegrees>49.32118129916489124298095703125</LatitudeDegrees>
              <LongitudeDegrees>19.95795107446610927581787109375</LongitudeDegrees>
            </Position>
            <AltitudeMeters>1012.5999755859375</AltitudeMeters>
            <DistanceMeters>87.217643308198</DistanceMeters>
          </Trackpoint>
          <Trackpoint>
            <Time>2022-09-18T11:00:51.000Z</Time>
            <Position>
              <LatitudeDegrees>49.32118314318358898162841796875</LatitudeDegrees>
              <LongitudeDegrees>19.95785837061703205108642578125</LongitudeDegrees>
            </Position>
            <AltitudeMeters>1012.79998779296875</AltitudeMeters>
            <DistanceMeters>93.946447309652</DistanceMeters>
          </Trackpoint>
          <Trackpoint>
            <Time>2022-09-18T11:00:53.000Z</Time>
            <Position>
              <LatitudeDegrees>49.321184568107128143310546875</LatitudeDegrees>
              <LongitudeDegrees>19.95782702229917049407958984375</LongitudeDegrees>
            </Position>
            <AltitudeMeters>1013.20001220703125</AltitudeMeters>
            <DistanceMeters>96.2231255651</DistanceMeters>
          </Trackpoint>
          <Trackpoint>
            <Time>2022-09-18T11:00:59.000Z</Time>
            <Position>
              <LatitudeDegrees>49.3211897648870944976806640625</LatitudeDegrees>
              <LongitudeDegrees>19.95770229957997798919677734375</LongitudeDegrees>
            </Position>
            <AltitudeMeters>1013.5999755859375</AltitudeMeters>
            <DistanceMeters>105.29008844943</DistanceMeters>
          </Trackpoint>
          <Trackpoint>
            <Time>2022-09-18T11:01:04.000Z</Time>
            <Position>
              <LatitudeDegrees>49.32119638659060001373291015625</LatitudeDegrees>
              <LongitudeDegrees>19.95758377946913242340087890625</LongitudeDegrees>
            </Position>
            <AltitudeMeters>1014</AltitudeMeters>
            <DistanceMeters>113.92027213865</DistanceMeters>
          </Trackpoint>
          <Trackpoint>
            <Time>2022-09-18T11:01:08.000Z</Time>
            <Position>
              <LatitudeDegrees>49.32120661251246929168701171875</LatitudeDegrees>
              <LongitudeDegrees>19.95748621411621570587158203125</LongitudeDegrees>
            </Position>
            <AltitudeMeters>1014.5999755859375</AltitudeMeters>
            <DistanceMeters>121.08959533676</DistanceMeters>
          </Trackpoint>
          <Trackpoint>
            <Time>2022-09-18T11:01:09.000Z</Time>
            <Position>
              <LatitudeDegrees>49.3212078697979450225830078125</LatitudeDegrees>
              <LongitudeDegrees>19.95746039785444736480712890625</LongitudeDegrees>
            </Position>
            <AltitudeMeters>1014.79998779296875</AltitudeMeters>
            <DistanceMeters>122.96622258082</DistanceMeters>
          </Trackpoint>
          <Trackpoint>
            <Time>2022-09-18T11:01:12.000Z</Time>
            <Position>
              <LatitudeDegrees>49.321204684674739837646484375</LatitudeDegrees>
              <LongitudeDegrees>19.9573706276714801788330078125</LongitudeDegrees>
            </Position>
            <AltitudeMeters>1015.20001220703125</AltitudeMeters>
            <DistanceMeters>129.48923723694</DistanceMeters>
          </Trackpoint>
          <Trackpoint>
            <Time>2022-09-18T11:01:14.000Z</Time>
            <Position>
              <LatitudeDegrees>49.321195296943187713623046875</LatitudeDegrees>
              <LongitudeDegrees>19.9573074281215667724609375</LongitudeDegrees>
            </Position>
            <AltitudeMeters>1015.4000244140625</AltitudeMeters>
            <DistanceMeters>134.19185961294</DistanceMeters>
          </Trackpoint>
          <Trackpoint>
            <Time>2022-09-18T11:01:16.000Z</Time>
            <Position>
              <LatitudeDegrees>49.32119621895253658294677734375</LatitudeDegrees>
              <LongitudeDegrees>19.957248084247112274169921875</LongitudeDegrees>
            </Position>
            <AltitudeMeters>1015.5999755859375</AltitudeMeters>
            <DistanceMeters>138.49857263053</DistanceMeters>
          </Trackpoint>
          <Trackpoint>
            <Time>2022-09-18T11:01:17.000Z</Time>
            <Position>
              <LatitudeDegrees>49.32119923643767833709716796875</LatitudeDegrees>
              <LongitudeDegrees>19.95722168125212192535400390625</LongitudeDegrees>
            </Position>
            <AltitudeMeters>1015.79998779296875</AltitudeMeters>
            <DistanceMeters>140.44139839564</DistanceMeters>
          </Trackpoint>
          <Trackpoint>
            <Time>2022-09-18T11:01:22.000Z</Time>
            <Position>
              <LatitudeDegrees>49.3212185986340045928955078125</LatitudeDegrees>
              <LongitudeDegrees>19.95709578506648540496826171875</LongitudeDegrees>
            </Position>
            <AltitudeMeters>1016.79998779296875</AltitudeMeters>
            <DistanceMeters>149.82549693953</DistanceMeters>
          </Trackpoint>
          <Trackpoint>
            <Time>2022-09-18T11:01:27.000Z</Time>
            <Position>
              <LatitudeDegrees>49.3212410621345043182373046875</LatitudeDegrees>
              <LongitudeDegrees>19.956950359046459197998046875</LongitudeDegrees>
            </Position>
            <AltitudeMeters>1017.20001220703125</AltitudeMeters>
            <DistanceMeters>160.66812416838</DistanceMeters>
          </Trackpoint>
          <Trackpoint>
            <Time>2022-09-18T11:01:34.000Z</Time>
            <Position>
              <LatitudeDegrees>49.32127785868942737579345703125</LatitudeDegrees>
              <LongitudeDegrees>19.95672245509922504425048828125</LongitudeDegrees>
            </Position>
            <AltitudeMeters>1016.4000244140625</AltitudeMeters>
            <DistanceMeters>177.70204374954</DistanceMeters>
          </Trackpoint>
          <Trackpoint>
            <Time>2022-09-18T11:01:37.000Z</Time>
            <Position>
              <LatitudeDegrees>49.32131809182465076446533203125</LatitudeDegrees>
              <LongitudeDegrees>19.9566266499459743499755859375</LongitudeDegrees>
            </Position>
            <AltitudeMeters>1016.20001220703125</AltitudeMeters>
            <DistanceMeters>185.96991401223</DistanceMeters>
          </Trackpoint>
          <Trackpoint>
            <Time>2022-09-18T11:01:45.000Z</Time>
            <Position>
              <LatitudeDegrees>49.3214133940637111663818359375</LatitudeDegrees>
              <LongitudeDegrees>19.9564060382544994354248046875</LongitudeDegrees>
            </Position>
            <AltitudeMeters>1016</AltitudeMeters>
            <DistanceMeters>205.17071948955</DistanceMeters>
          </Trackpoint>
          <Trackpoint>
            <Time>2022-09-18T11:01:46.000Z</Time>
            <Position>
              <LatitudeDegrees>49.32142236270010471343994140625</LatitudeDegrees>
              <LongitudeDegrees>19.9563795514404773712158203125</LongitudeDegrees>
            </Position>
            <AltitudeMeters>1016.20001220703125</AltitudeMeters>
            <DistanceMeters>207.33557737736</DistanceMeters>
          </Trackpoint>
          <Trackpoint>
            <Time>2022-09-18T11:01:53.000Z</Time>
            <Position>
              <LatitudeDegrees>49.3214931897819042205810546875</LatitudeDegrees>
              <LongitudeDegrees>19.9561666510999202728271484375</LongitudeDegrees>
            </Position>
            <AltitudeMeters>1016.4000244140625</AltitudeMeters>
            <DistanceMeters>224.67684623914</DistanceMeters>
          </Trackpoint>
          <Trackpoint>
            <Time>2022-09-18T11:01:57.000Z</Time>
            <Position>
              <LatitudeDegrees>49.32152688503265380859375</LatitudeDegrees>
              <LongitudeDegrees>19.95603832416236400604248046875</LongitudeDegrees>
            </Position>
            <AltitudeMeters>1016.5999755859375</AltitudeMeters>
            <DistanceMeters>234.71375476761</DistanceMeters>
          </Trackpoint>
          <Trackpoint>
            <Time>2022-09-18T11:01:58.000Z</Time>
            <Position>
              <LatitudeDegrees>49.32153652422130107879638671875</LatitudeDegrees>
              <LongitudeDegrees>19.956004209816455841064453125</LongitudeDegrees>
            </Position>
            <AltitudeMeters>1016.5999755859375</AltitudeMeters>
            <DistanceMeters>237.41157640994</DistanceMeters>
          </Trackpoint>
          <Trackpoint>
            <Time>2022-09-18T11:02:04.000Z</Time>
            <Position>
              <LatitudeDegrees>49.3215770088136196136474609375</LatitudeDegrees>
              <LongitudeDegrees>19.9558189697563648223876953125</LongitudeDegrees>
            </Position>
            <AltitudeMeters>1016.79998779296875</AltitudeMeters>
            <DistanceMeters>251.5858549031</DistanceMeters>
          </Trackpoint>
          <Trackpoint>
            <Time>2022-09-18T11:02:07.000Z</Time>
            <Position>
              <LatitudeDegrees>49.32159595191478729248046875</LatitudeDegrees>
              <LongitudeDegrees>19.9557307921350002288818359375</LongitudeDegrees>
            </Position>
            <AltitudeMeters>1016.79998779296875</AltitudeMeters>
            <DistanceMeters>258.3213655782</DistanceMeters>
          </Trackpoint>
          <Trackpoint>
            <Time>2022-09-18T11:02:11.000Z</Time>
            <Position>
              <LatitudeDegrees>49.32160760276019573211669921875</LatitudeDegrees>
              <LongitudeDegrees>19.95559626258909702301025390625</LongitudeDegrees>
            </Position>
            <AltitudeMeters>1016.5999755859375</AltitudeMeters>
            <DistanceMeters>268.16706873368</DistanceMeters>
          </Trackpoint>
          <Trackpoint>
            <Time>2022-09-18T11:02:18.000Z</Time>
            <Position>
              <LatitudeDegrees>49.321659319102764129638671875</LatitudeDegrees>
              <LongitudeDegrees>19.9553784169256687164306640625</LongitudeDegrees>
            </Position>
            <AltitudeMeters>1017.79998779296875</AltitudeMeters>
            <DistanceMeters>284.98706561208</DistanceMeters>
          </Trackpoint>
          <Trackpoint>
            <Time>2022-09-18T11:02:24.000Z</Time>
            <Position>
              <LatitudeDegrees>49.32171170599758625030517578125</LatitudeDegrees>
              <LongitudeDegrees>19.95521320961415767669677734375</LongitudeDegrees>
            </Position>
            <AltitudeMeters>1017</AltitudeMeters>
            <DistanceMeters>298.31589616687</DistanceMeters>
          </Trackpoint>
          <Trackpoint>
            <Time>2022-09-18T11:02:26.000Z</Time>
            <Position>
              <LatitudeDegrees>49.32173048146069049835205078125</LatitudeDegrees>
              <LongitudeDegrees>19.95516358874738216400146484375</LongitudeDegrees>
            </Position>
            <AltitudeMeters>1017.20001220703125</AltitudeMeters>
            <DistanceMeters>302.47867368867</DistanceMeters>
          </Trackpoint>
          <Trackpoint>
            <Time>2022-09-18T11:02:29.000Z</Time>
            <Position>
              <LatitudeDegrees>49.3217583931982517242431640625</LatitudeDegrees>
              <LongitudeDegrees>19.95508010499179363250732421875</LongitudeDegrees>
            </Position>
            <AltitudeMeters>1017.79998779296875</AltitudeMeters>
            <DistanceMeters>309.28486881939</DistanceMeters>
          </Trackpoint>
          <Trackpoint>
            <Time>2022-09-18T11:02:32.000Z</Time>
            <Position>
              <LatitudeDegrees>49.3217830359935760498046875</LatitudeDegrees>
              <LongitudeDegrees>19.95499561540782451629638671875</LongitudeDegrees>
            </Position>
            <AltitudeMeters>1018.4000244140625</AltitudeMeters>
            <DistanceMeters>315.99956700208</DistanceMeters>
          </Trackpoint>
          <Trackpoint>
            <Time>2022-09-18T11:02:35.000Z</Time>
            <Position>
              <LatitudeDegrees>49.32181145064532756805419921875</LatitudeDegrees>
              <LongitudeDegrees>19.9549197591841220855712890625</LongitudeDegrees>
            </Position>
            <AltitudeMeters>1019</AltitudeMeters>
            <DistanceMeters>322.34718081303</DistanceMeters>
          </Trackpoint>
          <Trackpoint>
            <Time>2022-09-18T11:02:36.000Z</Time>
            <Position>
              <LatitudeDegrees>49.321820922195911407470703125</LatitudeDegrees>
              <LongitudeDegrees>19.95489570312201976776123046875</LongitudeDegrees>
            </Position>
            <AltitudeMeters>1019.20001220703125</AltitudeMeters>
            <DistanceMeters>324.38749089747</DistanceMeters>
          </Trackpoint>
          <Trackpoint>
            <Time>2022-09-18T11:02:39.000Z</Time>
            <Position>
              <LatitudeDegrees>49.3218499235808849334716796875</LatitudeDegrees>
              <LongitudeDegrees>19.95481976307928562164306640625</LongitudeDegrees>
            </Position>
            <AltitudeMeters>1019.20001220703125</AltitudeMeters>
            <DistanceMeters>330.77339922917</DistanceMeters>
          </Trackpoint>
          <Trackpoint>
            <Time>2022-09-18T11:02:42.000Z</Time>
            <Position>
              <LatitudeDegrees>49.3218849599361419677734375</LatitudeDegrees>
              <LongitudeDegrees>19.95474248193204402923583984375</LongitudeDegrees>
            </Position>
            <AltitudeMeters>1019</AltitudeMeters>
            <DistanceMeters>337.60277290712</DistanceMeters>
          </Trackpoint>
          <Trackpoint>
            <Time>2022-09-18T11:02:50.000Z</Time>
            <Position>
              <LatitudeDegrees>49.321963079273700714111328125</LatitudeDegrees>
              <LongitudeDegrees>19.95454718358814716339111328125</LongitudeDegrees>
            </Position>
            <AltitudeMeters>1019.20001220703125</AltitudeMeters>
            <DistanceMeters>354.22620213631</DistanceMeters>
          </Trackpoint>
          <Trackpoint>
            <Time>2022-09-18T11:02:57.000Z</Time>
            <Position>
              <LatitudeDegrees>49.3220463953912258148193359375</LatitudeDegrees>
              <LongitudeDegrees>19.95437133125960826873779296875</LongitudeDegrees>
            </Position>
            <AltitudeMeters>1020.20001220703125</AltitudeMeters>
            <DistanceMeters>369.99777421158</DistanceMeters>
          </Trackpoint>
          <Trackpoint>
            <Time>2022-09-18T11:02:58.000Z</Time>
            <Position>
              <LatitudeDegrees>49.32205972261726856231689453125</LatitudeDegrees>
              <LongitudeDegrees>19.9543457664549350738525390625</LongitudeDegrees>
            </Position>
            <AltitudeMeters>1020.4000244140625</AltitudeMeters>
            <DistanceMeters>372.37154077572</DistanceMeters>
          </Trackpoint>
          <Trackpoint>
            <Time>2022-09-18T11:03:05.000Z</Time>
            <Position>
              <LatitudeDegrees>49.32214722968637943267822265625</LatitudeDegrees>
              <LongitudeDegrees>19.95418860577046871185302734375</LongitudeDegrees>
            </Position>
            <AltitudeMeters>1020.79998779296875</AltitudeMeters>
            <DistanceMeters>387.3671055736</DistanceMeters>
          </Trackpoint>
          <Trackpoint>
            <Time>2022-09-18T11:03:07.000Z</Time>
            <Position>
              <LatitudeDegrees>49.32216969318687915802001953125</LatitudeDegrees>
              <LongitudeDegrees>19.954134710133075714111328125</LongitudeDegrees>
            </Position>
            <AltitudeMeters>1021.20001220703125</AltitudeMeters>
            <DistanceMeters>392.00884688428</DistanceMeters>
          </Trackpoint>
          <Trackpoint>
            <Time>2022-09-18T11:03:12.000Z</Time>
            <Position>
              <LatitudeDegrees>49.3222364969551563262939453125</LatitudeDegrees>
              <LongitudeDegrees>19.95402867905795574188232421875</LongitudeDegrees>
            </Position>
            <AltitudeMeters>1021.79998779296875</AltitudeMeters>
            <DistanceMeters>402.70684617624</DistanceMeters>
          </Trackpoint>
          <Trackpoint>
            <Time>2022-09-18T11:03:13.000Z</Time>
            <Position>
              <LatitudeDegrees>49.32224982418119907379150390625</LatitudeDegrees>
              <LongitudeDegrees>19.9540061317384243011474609375</LongitudeDegrees>
            </Position>
            <AltitudeMeters>1021.79998779296875</AltitudeMeters>
            <DistanceMeters>404.91506746943</DistanceMeters>
          </Trackpoint>
          <Trackpoint>
            <Time>2022-09-18T11:03:19.000Z</Time>
            <Position>
              <LatitudeDegrees>49.32232324965298175811767578125</LatitudeDegrees>
              <LongitudeDegrees>19.95389758609235286712646484375</LongitudeDegrees>
            </Position>
            <AltitudeMeters>1022.20001220703125</AltitudeMeters>
            <DistanceMeters>416.26389914147</DistanceMeters>
          </Trackpoint>
          <Trackpoint>
            <Time>2022-09-18T11:03:20.000Z</Time>
            <Position>
              <LatitudeDegrees>49.32233515195548534393310546875</LatitudeDegrees>
              <LongitudeDegrees>19.9538777209818363189697265625</LongitudeDegrees>
            </Position>
            <AltitudeMeters>1022.4000244140625</AltitudeMeters>
            <DistanceMeters>418.22292504448</DistanceMeters>
          </Trackpoint>
          <Trackpoint>
            <Time>2022-09-18T11:03:28.000Z</Time>
            <Position>
              <LatitudeDegrees>49.3224453739821910858154296875</LatitudeDegrees>
              <LongitudeDegrees>19.9537117592990398406982421875</LongitudeDegrees>
            </Position>
            <AltitudeMeters>1023</AltitudeMeters>
            <DistanceMeters>435.41173161067</DistanceMeters>
          </Trackpoint>
          <Trackpoint>
            <Time>2022-09-18T11:03:32.000Z</Time>
            <Position>
              <LatitudeDegrees>49.32249625213444232940673828125</LatitudeDegrees>
              <LongitudeDegrees>19.9536328017711639404296875</LongitudeDegrees>
            </Position>
            <AltitudeMeters>1023.20001220703125</AltitudeMeters>
            <DistanceMeters>443.46661207222</DistanceMeters>
          </Trackpoint>
          <Trackpoint>
            <Time>2022-09-18T11:03:35.000Z</Time>
            <Position>
              <LatitudeDegrees>49.32253749109804630279541015625</LatitudeDegrees>
              <LongitudeDegrees>19.95359282009303569793701171875</LongitudeDegrees>
            </Position>
            <AltitudeMeters>1023</AltitudeMeters>
            <DistanceMeters>448.89645549441</DistanceMeters>
          </Trackpoint>
          <Trackpoint>
            <Time>2022-09-18T11:03:37.000Z</Time>
            <Position>
              <LatitudeDegrees>49.32256347499787807464599609375</LatitudeDegrees>
              <LongitudeDegrees>19.95355904102325439453125</LongitudeDegrees>
            </Position>
            <AltitudeMeters>1023.20001220703125</AltitudeMeters>
            <DistanceMeters>452.68800948965</DistanceMeters>
          </Trackpoint>
          <Trackpoint>
            <Time>2022-09-18T11:03:40.000Z</Time>
            <Position>
              <LatitudeDegrees>49.32260471396148204803466796875</LatitudeDegrees>
              <LongitudeDegrees>19.953482933342456817626953125</LongitudeDegrees>
            </Position>
            <AltitudeMeters>1023.4000244140625</AltitudeMeters>
            <DistanceMeters>459.86740196687</DistanceMeters>
          </Trackpoint>
          <Trackpoint>
            <Time>2022-09-18T11:03:45.000Z</Time>
            <Position>
              <LatitudeDegrees>49.32269699871540069580078125</LatitudeDegrees>
              <LongitudeDegrees>19.95338109321892261505126953125</LongitudeDegrees>
            </Position>
            <AltitudeMeters>1023.79998779296875</AltitudeMeters>
            <DistanceMeters>472.51987979529</DistanceMeters>
          </Trackpoint>
          <Trackpoint>
            <Time>2022-09-18T11:03:49.000Z</Time>
            <Position>
              <LatitudeDegrees>49.32275877334177494049072265625</LatitudeDegrees>
              <LongitudeDegrees>19.9532960169017314910888671875</LongitudeDegrees>
            </Position>
            <AltitudeMeters>1023.4000244140625</AltitudeMeters>
            <DistanceMeters>481.75948707597</DistanceMeters>
          </Trackpoint>
          <Trackpoint>
            <Time>2022-09-18T11:03:51.000Z</Time>
            <Position>
              <LatitudeDegrees>49.32279079221189022064208984375</LatitudeDegrees>
              <LongitudeDegrees>19.95326056145131587982177734375</LongitudeDegrees>
            </Position>
            <AltitudeMeters>1023.4000244140625</AltitudeMeters>
            <DistanceMeters>486.15543561867</DistanceMeters>
          </Trackpoint>
          <Trackpoint>
            <Time>2022-09-18T11:03:52.000Z</Time>
            <Position>
              <LatitudeDegrees>49.32280965149402618408203125</LatitudeDegrees>
              <LongitudeDegrees>19.95324413292109966278076171875</LongitudeDegrees>
            </Position>
            <AltitudeMeters>1024</AltitudeMeters>
            <DistanceMeters>488.56881484837</DistanceMeters>
          </Trackpoint>
          <Trackpoint>
            <Time>2022-09-18T11:03:54.000Z</Time>
            <Position>
              <LatitudeDegrees>49.32283806614577770233154296875</LatitudeDegrees>
              <LongitudeDegrees>19.95321513153612613677978515625</LongitudeDegrees>
            </Position>
            <AltitudeMeters>1024.800048828125</AltitudeMeters>
            <DistanceMeters>492.36750701245</DistanceMeters>
          </Trackpoint>
          <Trackpoint>
            <Time>2022-09-18T11:03:58.000Z</Time>
            <Position>
              <LatitudeDegrees>49.322901852428913116455078125</LatitudeDegrees>
              <LongitudeDegrees>19.95315645821392536163330078125</LongitudeDegrees>
            </Position>
            <AltitudeMeters>1025.199951171875</AltitudeMeters>
            <DistanceMeters>500.64520113924</DistanceMeters>
          </Trackpoint>
          <Trackpoint>
            <Time>2022-09-18T11:04:05.000Z</Time>
            <Position>
              <LatitudeDegrees>49.32302883826196193695068359375</LatitudeDegrees>
              <LongitudeDegrees>19.9530534446239471435546875</LongitudeDegrees>
            </Position>
            <AltitudeMeters>1024.800048828125</AltitudeMeters>
            <DistanceMeters>516.63342818215</DistanceMeters>
          </Trackpoint>
          <Trackpoint>
            <Time>2022-09-18T11:04:12.000Z</Time>
            <Position>
              <LatitudeDegrees>49.32318381965160369873046875</LatitudeDegrees>
              <LongitudeDegrees>19.95297121815383434295654296875</LongitudeDegrees>
            </Position>
            <AltitudeMeters>1024.5999755859375</AltitudeMeters>
            <DistanceMeters>534.88597979345</DistanceMeters>
          </Trackpoint>
          <Trackpoint>
            <Time>2022-09-18T11:04:15.000Z</Time>
            <Position>
              <LatitudeDegrees>49.32325867004692554473876953125</LatitudeDegrees>
              <LongitudeDegrees>19.9529563821852207183837890625</LongitudeDegrees>
            </Position>
            <AltitudeMeters>1024.5999755859375</AltitudeMeters>
            <DistanceMeters>543.28657783226</DistanceMeters>
          </Trackpoint>
          <Trackpoint>
            <Time>2022-09-18T11:04:20.000Z</Time>
            <Position>
              <LatitudeDegrees>49.323314242064952850341796875</LatitudeDegrees>
              <LongitudeDegrees>19.95300994254648685455322265625</LongitudeDegrees>
            </Position>
            <AltitudeMeters>1024.800048828125</AltitudeMeters>
            <DistanceMeters>550.59066515586</DistanceMeters>
          </Trackpoint>
          <Trackpoint>
            <Time>2022-09-18T11:04:26.000Z</Time>
            <Position>
              <LatitudeDegrees>49.32332371361553668975830078125</LatitudeDegrees>
              <LongitudeDegrees>19.95302486233413219451904296875</LongitudeDegrees>
            </Position>
            <AltitudeMeters>1024.800048828125</AltitudeMeters>
            <DistanceMeters>552.09916748065</DistanceMeters>
          </Trackpoint>
          <Trackpoint>
            <Time>2022-09-18T11:04:34.000Z</Time>
            <Position>
              <LatitudeDegrees>49.32331616990268230438232421875</LatitudeDegrees>
              <LongitudeDegrees>19.95303860865533351898193359375</LongitudeDegrees>
            </Position>
            <AltitudeMeters>1024.5999755859375</AltitudeMeters>
            <DistanceMeters>553.40210814371</DistanceMeters>
          </Trackpoint>
          <Trackpoint>
            <Time>2022-09-18T11:04:41.000Z</Time>
            <Position>
              <LatitudeDegrees>49.32331767864525318145751953125</LatitudeDegrees>
              <LongitudeDegrees>19.95303860865533351898193359375</LongitudeDegrees>
            </Position>
            <AltitudeMeters>1024.5999755859375</AltitudeMeters>
            <DistanceMeters>553.56669924108</DistanceMeters>
          </Trackpoint>
          <Trackpoint>
            <Time>2022-09-18T11:04:45.000Z</Time>
            <Position>
              <LatitudeDegrees>49.3233204446732997894287109375</LatitudeDegrees>
              <LongitudeDegrees>19.95303860865533351898193359375</LongitudeDegrees>
            </Position>
            <AltitudeMeters>1024.5999755859375</AltitudeMeters>
            <DistanceMeters>553.86720009705</DistanceMeters>
          </Trackpoint>
          <Trackpoint>
            <Time>2022-09-18T11:04:46.000Z</Time>
            <Position>
              <LatitudeDegrees>49.3233207799494266510009765625</LatitudeDegrees>
              <LongitudeDegrees>19.95303860865533351898193359375</LongitudeDegrees>
            </Position>
            <AltitudeMeters>1024.5999755859375</AltitudeMeters>
            <DistanceMeters>553.86720009705</DistanceMeters>
          </Trackpoint>
          <Trackpoint>
            <Time>2022-09-18T11:04:50.000Z</Time>
            <Position>
              <LatitudeDegrees>49.32332371361553668975830078125</LatitudeDegrees>
              <LongitudeDegrees>19.95304380543529987335205078125</LongitudeDegrees>
            </Position>
            <AltitudeMeters>1024.5999755859375</AltitudeMeters>
            <DistanceMeters>554.36097338914</DistanceMeters>
          </Trackpoint>
          <Trackpoint>
            <Time>2022-09-18T11:05:01.000Z</Time>
            <Position>
              <LatitudeDegrees>49.32332639582455158233642578125</LatitudeDegrees>
              <LongitudeDegrees>19.95304967276751995086669921875</LongitudeDegrees>
            </Position>
            <AltitudeMeters>1024.5999755859375</AltitudeMeters>
            <DistanceMeters>554.8814561394</DistanceMeters>
          </Trackpoint>
          <Trackpoint>
            <Time>2022-09-18T11:05:05.000Z</Time>
            <Position>
              <LatitudeDegrees>49.32332773692905902862548828125</LatitudeDegrees>
              <LongitudeDegrees>19.95304967276751995086669921875</LongitudeDegrees>
            </Position>
            <AltitudeMeters>1024</AltitudeMeters>
            <DistanceMeters>555.01584420765</DistanceMeters>
          </Trackpoint>
          <Trackpoint>
            <Time>2022-09-18T11:05:10.000Z</Time>
            <Position>
              <LatitudeDegrees>49.32332907803356647491455078125</LatitudeDegrees>
              <LongitudeDegrees>19.9530465714633464813232421875</LongitudeDegrees>
            </Position>
            <AltitudeMeters>1024</AltitudeMeters>
            <DistanceMeters>555.28462034415</DistanceMeters>
          </Trackpoint>
          <Trackpoint>
            <Time>2022-09-18T11:05:12.000Z</Time>
            <Position>
              <LatitudeDegrees>49.32333000004291534423828125</LatitudeDegrees>
              <LongitudeDegrees>19.95304430834949016571044921875</LongitudeDegrees>
            </Position>
            <AltitudeMeters>1023.5999755859375</AltitudeMeters>
            <DistanceMeters>555.47467377289</DistanceMeters>
          </Trackpoint>
          <Trackpoint>
            <Time>2022-09-18T11:05:17.000Z</Time>
            <Position>
              <LatitudeDegrees>49.32333226315677165985107421875</LatitudeDegrees>
              <LongitudeDegrees>19.95303492061793804168701171875</LongitudeDegrees>
            </Position>
            <AltitudeMeters>1024.199951171875</AltitudeMeters>
            <DistanceMeters>556.20458781591</DistanceMeters>
          </Trackpoint>
          <Trackpoint>
            <Time>2022-09-18T11:05:21.000Z</Time>
            <Position>
              <LatitudeDegrees>49.32333276607096195220947265625</LatitudeDegrees>
              <LongitudeDegrees>19.9530237726867198944091796875</LongitudeDegrees>
            </Position>
            <AltitudeMeters>1024.800048828125</AltitudeMeters>
            <DistanceMeters>557.01091622541</DistanceMeters>
          </Trackpoint>
          <Trackpoint>
            <Time>2022-09-18T11:05:28.000Z</Time>
            <Position>
              <LatitudeDegrees>49.32333326898515224456787109375</LatitudeDegrees>
              <LongitudeDegrees>19.9530204199254512786865234375</LongitudeDegrees>
            </Position>
            <AltitudeMeters>1024.800048828125</AltitudeMeters>
            <DistanceMeters>557.24368318755</DistanceMeters>
          </Trackpoint>
          <Trackpoint>
            <Time>2022-09-18T11:05:31.000Z</Time>
            <Position>
              <LatitudeDegrees>49.32337559759616851806640625</LatitudeDegrees>
              <LongitudeDegrees>19.953012876212596893310546875</LongitudeDegrees>
            </Position>
            <AltitudeMeters>1024.800048828125</AltitudeMeters>
            <DistanceMeters>561.98550671289</DistanceMeters>
          </Trackpoint>
          <Trackpoint>
            <Time>2022-09-18T11:05:37.000Z</Time>
            <Position>
              <LatitudeDegrees>49.32350409217178821563720703125</LatitudeDegrees>
              <LongitudeDegrees>19.95293132029473781585693359375</LongitudeDegrees>
            </Position>
            <AltitudeMeters>1024.800048828125</AltitudeMeters>
            <DistanceMeters>577.46290532846</DistanceMeters>
          </Trackpoint>
          <Trackpoint>
            <Time>2022-09-18T11:05:42.000Z</Time>
            <Position>
              <LatitudeDegrees>49.323593191802501678466796875</LatitudeDegrees>
              <LongitudeDegrees>19.95289829559624195098876953125</LongitudeDegrees>
            </Position>
            <AltitudeMeters>1024.5999755859375</AltitudeMeters>
            <DistanceMeters>587.66489832459</DistanceMeters>
          </Trackpoint>
          <Trackpoint>
            <Time>2022-09-18T11:05:49.000Z</Time>
            <Position>
              <LatitudeDegrees>49.32373291812837123870849609375</LatitudeDegrees>
              <LongitudeDegrees>19.95291405357420444488525390625</LongitudeDegrees>
            </Position>
            <AltitudeMeters>1025</AltitudeMeters>
            <DistanceMeters>603.25854762431</DistanceMeters>
          </Trackpoint>
          <Trackpoint>
            <Time>2022-09-18T11:05:54.000Z</Time>
            <Position>
              <LatitudeDegrees>49.32385831139981746673583984375</LatitudeDegrees>
              <LongitudeDegrees>19.9529208429157733917236328125</LongitudeDegrees>
            </Position>
            <AltitudeMeters>1025</AltitudeMeters>
            <DistanceMeters>617.22391876283</DistanceMeters>
          </Trackpoint>
          <Trackpoint>
            <Time>2022-09-18T11:05:56.000Z</Time>
            <Position>
              <LatitudeDegrees>49.32389862835407257080078125</LatitudeDegrees>
              <LongitudeDegrees>19.95292536914348602294921875</LongitudeDegrees>
            </Position>
            <AltitudeMeters>1025</AltitudeMeters>
            <DistanceMeters>621.72341111057</DistanceMeters>
          </Trackpoint>
          <Trackpoint>
            <Time>2022-09-18T11:06:05.000Z</Time>
            <Position>
              <LatitudeDegrees>49.32413809932768344879150390625</LatitudeDegrees>
              <LongitudeDegrees>19.95294808410108089447021484375</LongitudeDegrees>
            </Position>
            <AltitudeMeters>1025.199951171875</AltitudeMeters>
            <DistanceMeters>648.42777773727</DistanceMeters>
          </Trackpoint>
          <Trackpoint>
            <Time>2022-09-18T11:06:11.000Z</Time>
            <Position>
              <LatitudeDegrees>49.32434245012700557708740234375</LatitudeDegrees>
              <LongitudeDegrees>19.9529649317264556884765625</LongitudeDegrees>
            </Position>
            <AltitudeMeters>1025.5999755859375</AltitudeMeters>
            <DistanceMeters>671.20487043714</DistanceMeters>
          </Trackpoint>
          <Trackpoint>
            <Time>2022-09-18T11:06:16.000Z</Time>
            <Position>
              <LatitudeDegrees>49.3245291151106357574462890625</LatitudeDegrees>
              <LongitudeDegrees>19.95296417735517024993896484375</LongitudeDegrees>
            </Position>
            <AltitudeMeters>1025.800048828125</AltitudeMeters>
            <DistanceMeters>691.98119624741</DistanceMeters>
          </Trackpoint>
          <Trackpoint>
            <Time>2022-09-18T11:06:19.000Z</Time>
            <Position>
              <LatitudeDegrees>49.32463430799543857574462890625</LatitudeDegrees>
              <LongitudeDegrees>19.9529664404690265655517578125</LongitudeDegrees>
            </Position>
            <AltitudeMeters>1026.199951171875</AltitudeMeters>
            <DistanceMeters>703.68993745097</DistanceMeters>
          </Trackpoint>
          <Trackpoint>
            <Time>2022-09-18T11:06:25.000Z</Time>
            <Position>
              <LatitudeDegrees>49.3248717673122882843017578125</LatitudeDegrees>
              <LongitudeDegrees>19.952972643077373504638671875</LongitudeDegrees>
            </Position>
            <AltitudeMeters>1024.800048828125</AltitudeMeters>
            <DistanceMeters>730.12342483121</DistanceMeters>
          </Trackpoint>
          <Trackpoint>
            <Time>2022-09-18T11:06:26.000Z</Time>
            <Position>
              <LatitudeDegrees>49.32491275481879711151123046875</LatitudeDegrees>
              <LongitudeDegrees>19.9529741518199443817138671875</LongitudeDegrees>
            </Position>
            <AltitudeMeters>1024.199951171875</AltitudeMeters>
            <DistanceMeters>734.68668641475</DistanceMeters>
          </Trackpoint>
          <Trackpoint>
            <Time>2022-09-18T11:06:32.000Z</Time>
            <Position>
              <LatitudeDegrees>49.32514853775501251220703125</LatitudeDegrees>
              <LongitudeDegrees>19.95298462919890880584716796875</LongitudeDegrees>
            </Position>
            <AltitudeMeters>1024</AltitudeMeters>
            <DistanceMeters>760.94072924713</DistanceMeters>
          </Trackpoint>
          <Trackpoint>
            <Time>2022-09-18T11:06:33.000Z</Time>
            <Position>
              <LatitudeDegrees>49.32518885470926761627197265625</LatitudeDegrees>
              <LongitudeDegrees>19.95298278518021106719970703125</LongitudeDegrees>
            </Position>
            <AltitudeMeters>1024.4000244140625</AltitudeMeters>
            <DistanceMeters>765.43017583027</DistanceMeters>
          </Trackpoint>
          <Trackpoint>
            <Time>2022-09-18T11:06:34.000Z</Time>
            <Position>
              <LatitudeDegrees>49.325237385928630828857421875</LatitudeDegrees>
              <LongitudeDegrees>19.95298781432211399078369140625</LongitudeDegrees>
            </Position>
            <AltitudeMeters>1025.199951171875</AltitudeMeters>
            <DistanceMeters>770.84419726882</DistanceMeters>
          </Trackpoint>
          <Trackpoint>
            <Time>2022-09-18T11:06:37.000Z</Time>
            <Position>
              <LatitudeDegrees>49.32535548694431781768798828125</LatitudeDegrees>
              <LongitudeDegrees>19.952975995838642120361328125</LongitudeDegrees>
            </Position>
            <AltitudeMeters>1026.4000244140625</AltitudeMeters>
            <DistanceMeters>784.01697028543</DistanceMeters>
          </Trackpoint>
          <Trackpoint>
            <Time>2022-09-18T11:06:40.000Z</Time>
            <Position>
              <LatitudeDegrees>49.32546503841876983642578125</LatitudeDegrees>
              <LongitudeDegrees>19.95296702720224857330322265625</LongitudeDegrees>
            </Position>
            <AltitudeMeters>1026.5999755859375</AltitudeMeters>
            <DistanceMeters>796.22781064319</DistanceMeters>
          </Trackpoint>
          <Trackpoint>
            <Time>2022-09-18T11:06:47.000Z</Time>
            <Position>
              <LatitudeDegrees>49.3257129751145839691162109375</LatitudeDegrees>
              <LongitudeDegrees>19.952961243689060211181640625</LongitudeDegrees>
            </Position>
            <AltitudeMeters>1027.4000244140625</AltitudeMeters>
            <DistanceMeters>823.82714158353</DistanceMeters>
          </Trackpoint>
          <Trackpoint>
            <Time>2022-09-18T11:06:48.000Z</Time>
            <Position>
              <LatitudeDegrees>49.325745664536952972412109375</LatitudeDegrees>
              <LongitudeDegrees>19.952955879271030426025390625</LongitudeDegrees>
            </Position>
            <AltitudeMeters>1027.5999755859375</AltitudeMeters>
            <DistanceMeters>827.4865955546</DistanceMeters>
          </Trackpoint>
          <Trackpoint>
            <Time>2022-09-18T11:06:49.000Z</Time>
            <Position>
              <LatitudeDegrees>49.32577860541641712188720703125</LatitudeDegrees>
              <LongitudeDegrees>19.95294749736785888671875</LongitudeDegrees>
            </Position>
            <AltitudeMeters>1027.800048828125</AltitudeMeters>
            <DistanceMeters>831.20358586388</DistanceMeters>
          </Trackpoint>
          <Trackpoint>
            <Time>2022-09-18T11:06:54.000Z</Time>
            <Position>
              <LatitudeDegrees>49.32594289071857929229736328125</LatitudeDegrees>
              <LongitudeDegrees>19.9528618343174457550048828125</LongitudeDegrees>
            </Position>
            <AltitudeMeters>1028.4000244140625</AltitudeMeters>
            <DistanceMeters>850.51623139579</DistanceMeters>
          </Trackpoint>
          <Trackpoint>
            <Time>2022-09-18T11:06:55.000Z</Time>
            <Position>
              <LatitudeDegrees>49.325970970094203948974609375</LatitudeDegrees>
              <LongitudeDegrees>19.9528356827795505523681640625</LongitudeDegrees>
            </Position>
            <AltitudeMeters>1028.4000244140625</AltitudeMeters>
            <DistanceMeters>854.1732169322</DistanceMeters>
          </Trackpoint>
          <Trackpoint>
            <Time>2022-09-18T11:07:01.000Z</Time>
            <Position>
              <LatitudeDegrees>49.32614053599536418914794921875</LatitudeDegrees>
              <LongitudeDegrees>19.95274624787271022796630859375</LongitudeDegrees>
            </Position>
            <AltitudeMeters>1028.5999755859375</AltitudeMeters>
            <DistanceMeters>874.13018442822</DistanceMeters>
          </Trackpoint>
          <Trackpoint>
            <Time>2022-09-18T11:07:03.000Z</Time>
            <Position>
              <LatitudeDegrees>49.326190240681171417236328125</LatitudeDegrees>
              <LongitudeDegrees>19.95270031504333019256591796875</LongitudeDegrees>
            </Position>
            <AltitudeMeters>1028.5999755859375</AltitudeMeters>
            <DistanceMeters>880.58780728948</DistanceMeters>
          </Trackpoint>
          <Trackpoint>
            <Time>2022-09-18T11:07:07.000Z</Time>
            <Position>
              <LatitudeDegrees>49.32630264200270175933837890625</LatitudeDegrees>
              <LongitudeDegrees>19.952587075531482696533203125</LongitudeDegrees>
            </Position>
            <AltitudeMeters>1028.199951171875</AltitudeMeters>
            <DistanceMeters>895.55383602511</DistanceMeters>
          </Trackpoint>
          <Trackpoint>
            <Time>2022-09-18T11:07:14.000Z</Time>
            <Position>
              <LatitudeDegrees>49.3265055678784847259521484375</LatitudeDegrees>
              <LongitudeDegrees>19.9523579142987728118896484375</LongitudeDegrees>
            </Position>
            <AltitudeMeters>1028.5999755859375</AltitudeMeters>
            <DistanceMeters>923.597827856</DistanceMeters>
          </Trackpoint>
          <Trackpoint>
            <Time>2022-09-18T11:07:18.000Z</Time>
            <Position>
              <LatitudeDegrees>49.32661838829517364501953125</LatitudeDegrees>
              <LongitudeDegrees>19.95223042555153369903564453125</LongitudeDegrees>
            </Position>
            <AltitudeMeters>1028</AltitudeMeters>
            <DistanceMeters>939.19292480553</DistanceMeters>
          </Trackpoint>
          <Trackpoint>
            <Time>2022-09-18T11:07:20.000Z</Time>
            <Position>
              <LatitudeDegrees>49.32666943408548831939697265625</LatitudeDegrees>
              <LongitudeDegrees>19.9521533958613872528076171875</LongitudeDegrees>
            </Position>
            <AltitudeMeters>1027.4000244140625</AltitudeMeters>
            <DistanceMeters>947.16158200445</DistanceMeters>
          </Trackpoint>
          <Trackpoint>
            <Time>2022-09-18T11:07:22.000Z</Time>
            <Position>
              <LatitudeDegrees>49.32672542519867420196533203125</LatitudeDegrees>
              <LongitudeDegrees>19.9520803056657314300537109375</LongitudeDegrees>
            </Position>
            <AltitudeMeters>1027.199951171875</AltitudeMeters>
            <DistanceMeters>955.34381805308</DistanceMeters>
          </Trackpoint>
          <Trackpoint>
            <Time>2022-09-18T11:07:27.000Z</Time>
            <Position>
              <LatitudeDegrees>49.32687210850417613983154296875</LatitudeDegrees>
              <LongitudeDegrees>19.95190923102200031280517578125</LongitudeDegrees>
            </Position>
            <AltitudeMeters>1026</AltitudeMeters>
            <DistanceMeters>975.85110261609</DistanceMeters>
          </Trackpoint>
          <Trackpoint>
            <Time>2022-09-18T11:07:30.000Z</Time>
            <Position>
              <LatitudeDegrees>49.326961040496826171875</LatitudeDegrees>
              <LongitudeDegrees>19.95182239450514316558837890625</LongitudeDegrees>
            </Position>
            <AltitudeMeters>1025.5999755859375</AltitudeMeters>
            <DistanceMeters>987.58372744226</DistanceMeters>
          </Trackpoint>
          <Trackpoint>
            <Time>2022-09-18T11:07:34.000Z</Time>
            <Position>
              <LatitudeDegrees>49.32708467356860637664794921875</LatitudeDegrees>
              <LongitudeDegrees>19.9517115019261837005615234375</LongitudeDegrees>
            </Position>
            <AltitudeMeters>1025.5999755859375</AltitudeMeters>
            <DistanceMeters>1003.5230248154</DistanceMeters>
          </Trackpoint>
          <Trackpoint>
            <Time>2022-09-18T11:07:38.000Z</Time>
            <Position>
              <LatitudeDegrees>49.327200092375278472900390625</LatitudeDegrees>
              <LongitudeDegrees>19.95159004814922809600830078125</LongitudeDegrees>
            </Position>
            <AltitudeMeters>1025.800048828125</AltitudeMeters>
            <DistanceMeters>1019.0998715454</DistanceMeters>
          </Trackpoint>
          <Trackpoint>
            <Time>2022-09-18T11:07:46.000Z</Time>
            <Position>
              <LatitudeDegrees>49.32741844095289707183837890625</LatitudeDegrees>
              <LongitudeDegrees>19.95137111283838748931884765625</LongitudeDegrees>
            </Position>
            <AltitudeMeters>1026.199951171875</AltitudeMeters>
            <DistanceMeters>1048.1317380911</DistanceMeters>
          </Trackpoint>
          <Trackpoint>
            <Time>2022-09-18T11:07:54.000Z</Time>
            <Position>
              <LatitudeDegrees>49.32766336016356945037841796875</LatitudeDegrees>
              <LongitudeDegrees>19.951131977140903472900390625</LongitudeDegrees>
            </Position>
            <AltitudeMeters>1026.4000244140625</AltitudeMeters>
            <DistanceMeters>1080.4430568223</DistanceMeters>
          </Trackpoint>
          <Trackpoint>
            <Time>2022-09-18T11:07:58.000Z</Time>
            <Position>
              <LatitudeDegrees>49.32777316309511661529541015625</LatitudeDegrees>
              <LongitudeDegrees>19.95104438625276088714599609375</LongitudeDegrees>
            </Position>
            <AltitudeMeters>1026</AltitudeMeters>
            <DistanceMeters>1094.2173421454</DistanceMeters>
          </Trackpoint>
          <Trackpoint>
            <Time>2022-09-18T11:08:01.000Z</Time>
            <Position>
              <LatitudeDegrees>49.3278624303638935089111328125</LatitudeDegrees>
              <LongitudeDegrees>19.95096073485910892486572265625</LongitudeDegrees>
            </Position>
            <AltitudeMeters>1025.5999755859375</AltitudeMeters>
            <DistanceMeters>1105.8595690554</DistanceMeters>
          </Trackpoint>
          <Trackpoint>
            <Time>2022-09-18T11:08:10.000Z</Time>
            <Position>
              <LatitudeDegrees>49.32810491882264614105224609375</LatitudeDegrees>
              <LongitudeDegrees>19.95074448175728321075439453125</LongitudeDegrees>
            </Position>
            <AltitudeMeters>1025.800048828125</AltitudeMeters>
            <DistanceMeters>1137.0765317457</DistanceMeters>
          </Trackpoint>
          <Trackpoint>
            <Time>2022-09-18T11:08:13.000Z</Time>
            <Position>
              <LatitudeDegrees>49.32819150388240814208984375</LatitudeDegrees>
              <LongitudeDegrees>19.95068077929317951202392578125</LongitudeDegrees>
            </Position>
            <AltitudeMeters>1025</AltitudeMeters>
            <DistanceMeters>1147.7639747018</DistanceMeters>
          </Trackpoint>
          <Trackpoint>
            <Time>2022-09-18T11:08:16.000Z</Time>
            <Position>
              <LatitudeDegrees>49.32826685719192028045654296875</LatitudeDegrees>
              <LongitudeDegrees>19.95062696747481822967529296875</LongitudeDegrees>
            </Position>
            <AltitudeMeters>1024</AltitudeMeters>
            <DistanceMeters>1157.0148143642</DistanceMeters>
          </Trackpoint>
          <Trackpoint>
            <Time>2022-09-18T11:08:24.000Z</Time>
            <Position>
              <LatitudeDegrees>49.3284380994737148284912109375</LatitudeDegrees>
              <LongitudeDegrees>19.950506351888179779052734375</LongitudeDegrees>
            </Position>
            <AltitudeMeters>1023.5999755859375</AltitudeMeters>
            <DistanceMeters>1177.9866741596</DistanceMeters>
          </Trackpoint>
          <Trackpoint>
            <Time>2022-09-18T11:08:29.000Z</Time>
            <Position>
              <LatitudeDegrees>49.32856709696352481842041015625</LatitudeDegrees>
              <LongitudeDegrees>19.95040317066013813018798828125</LongitudeDegrees>
            </Position>
            <AltitudeMeters>1022.79998779296875</AltitudeMeters>
            <DistanceMeters>1194.1780662962</DistanceMeters>
          </Trackpoint>
          <Trackpoint>
            <Time>2022-09-18T11:08:33.000Z</Time>
            <Position>
              <LatitudeDegrees>49.32867488823831081390380859375</LatitudeDegrees>
              <LongitudeDegrees>19.950319267809391021728515625</LongitudeDegrees>
            </Position>
            <AltitudeMeters>1021.79998779296875</AltitudeMeters>
            <DistanceMeters>1207.6306408458</DistanceMeters>
          </Trackpoint>
          <Trackpoint>
            <Time>2022-09-18T11:08:34.000Z</Time>
            <Position>
              <LatitudeDegrees>49.3287006206810474395751953125</LatitudeDegrees>
              <LongitudeDegrees>19.95029705576598644256591796875</LongitudeDegrees>
            </Position>
            <AltitudeMeters>1021.4000244140625</AltitudeMeters>
            <DistanceMeters>1210.9169718436</DistanceMeters>
          </Trackpoint>
          <Trackpoint>
            <Time>2022-09-18T11:08:39.000Z</Time>
            <Position>
              <LatitudeDegrees>49.328792653977870941162109375</LatitudeDegrees>
              <LongitudeDegrees>19.95022974908351898193359375</LongitudeDegrees>
            </Position>
            <AltitudeMeters>1021</AltitudeMeters>
            <DistanceMeters>1222.2646099278</DistanceMeters>
          </Trackpoint>
          <Trackpoint>
            <Time>2022-09-18T11:08:40.000Z</Time>
            <Position>
              <LatitudeDegrees>49.3287894688546657562255859375</LatitudeDegrees>
              <LongitudeDegrees>19.950220026075839996337890625</LongitudeDegrees>
            </Position>
            <AltitudeMeters>1021</AltitudeMeters>
            <DistanceMeters>1223.0596604615</DistanceMeters>
          </Trackpoint>
          <Trackpoint>
            <Time>2022-09-18T11:08:45.000Z</Time>
            <Position>
              <LatitudeDegrees>49.3287894688546657562255859375</LatitudeDegrees>
              <LongitudeDegrees>19.95023603551089763641357421875</LongitudeDegrees>
            </Position>
            <AltitudeMeters>1020.5999755859375</AltitudeMeters>
            <DistanceMeters>1224.2234952722</DistanceMeters>
          </Trackpoint>
          <Trackpoint>
            <Time>2022-09-18T11:08:49.000Z</Time>
            <Position>
              <LatitudeDegrees>49.32880329899489879608154296875</LatitudeDegrees>
              <LongitudeDegrees>19.950230084359645843505859375</LongitudeDegrees>
            </Position>
            <AltitudeMeters>1020.5999755859375</AltitudeMeters>
            <DistanceMeters>1225.8249139277</DistanceMeters>
          </Trackpoint>
          <Trackpoint>
            <Time>2022-09-18T11:08:50.000Z</Time>
            <Position>
              <LatitudeDegrees>49.3288213200867176055908203125</LatitudeDegrees>
              <LongitudeDegrees>19.9502215348184108734130859375</LongitudeDegrees>
            </Position>
            <AltitudeMeters>1020.4000244140625</AltitudeMeters>
            <DistanceMeters>1227.9241226607</DistanceMeters>
          </Trackpoint>
          <Trackpoint>
            <Time>2022-09-18T11:08:55.000Z</Time>
            <Position>
              <LatitudeDegrees>49.328974373638629913330078125</LatitudeDegrees>
              <LongitudeDegrees>19.95010829530656337738037109375</LongitudeDegrees>
            </Position>
            <AltitudeMeters>1019.79998779296875</AltitudeMeters>
            <DistanceMeters>1246.8363488086</DistanceMeters>
          </Trackpoint>
          <Trackpoint>
            <Time>2022-09-18T11:08:56.000Z</Time>
            <Position>
              <LatitudeDegrees>49.32900530286133289337158203125</LatitudeDegrees>
              <LongitudeDegrees>19.950084574520587921142578125</LongitudeDegrees>
            </Position>
            <AltitudeMeters>1019.4000244140625</AltitudeMeters>
            <DistanceMeters>1250.684637437</DistanceMeters>
          </Trackpoint>
          <Trackpoint>
            <Time>2022-09-18T11:08:57.000Z</Time>
            <Position>
              <LatitudeDegrees>49.32905106805264949798583984375</LatitudeDegrees>
              <LongitudeDegrees>19.95005280710756778717041015625</LongitudeDegrees>
            </Position>
            <AltitudeMeters>1019</AltitudeMeters>
            <DistanceMeters>1256.2758917372</DistanceMeters>
          </Trackpoint>
          <Trackpoint>
            <Time>2022-09-18T11:08:59.000Z</Time>
            <Position>
              <LatitudeDegrees>49.3291334621608257293701171875</LatitudeDegrees>
              <LongitudeDegrees>19.95001207105815410614013671875</LongitudeDegrees>
            </Position>
            <AltitudeMeters>1018</AltitudeMeters>
            <DistanceMeters>1265.9106821264</DistanceMeters>
          </Trackpoint>
          <Trackpoint>
            <Time>2022-09-18T11:09:01.000Z</Time>
            <Position>
              <LatitudeDegrees>49.32919825427234172821044921875</LatitudeDegrees>
              <LongitudeDegrees>19.9499704129993915557861328125</LongitudeDegrees>
            </Position>
            <AltitudeMeters>1016.79998779296875</AltitudeMeters>
            <DistanceMeters>1273.7300585467</DistanceMeters>
          </Trackpoint>
          <Trackpoint>
            <Time>2022-09-18T11:09:03.000Z</Time>
            <Position>
              <LatitudeDegrees>49.32926497422158718109130859375</LatitudeDegrees>
              <LongitudeDegrees>19.9499305151402950286865234375</LongitudeDegrees>
            </Position>
            <AltitudeMeters>1015.5999755859375</AltitudeMeters>
            <DistanceMeters>1281.7004153632</DistanceMeters>
          </Trackpoint>
          <Trackpoint>
            <Time>2022-09-18T11:09:06.000Z</Time>
            <Position>
              <LatitudeDegrees>49.32935298420488834381103515625</LatitudeDegrees>
              <LongitudeDegrees>19.949888102710247039794921875</LongitudeDegrees>
            </Position>
            <AltitudeMeters>1014.79998779296875</AltitudeMeters>
            <DistanceMeters>1291.9676989576</DistanceMeters>
          </Trackpoint>
          <Trackpoint>
            <Time>2022-09-18T11:09:07.000Z</Time>
            <Position>
              <LatitudeDegrees>49.3293805606663227081298828125</LatitudeDegrees>
              <LongitudeDegrees>19.94987209327518939971923828125</LongitudeDegrees>
            </Position>
            <AltitudeMeters>1014.5999755859375</AltitudeMeters>
            <DistanceMeters>1295.2485298159</DistanceMeters>
          </Trackpoint>
          <Trackpoint>
            <Time>2022-09-18T11:09:12.000Z</Time>
            <Position>
              <LatitudeDegrees>49.329506121575832366943359375</LatitudeDegrees>
              <LongitudeDegrees>19.949805624783039093017578125</LongitudeDegrees>
            </Position>
            <AltitudeMeters>1013.79998779296875</AltitudeMeters>
            <DistanceMeters>1310.0324389826</DistanceMeters>
          </Trackpoint>
          <Trackpoint>
            <Time>2022-09-18T11:09:13.000Z</Time>
            <Position>
              <LatitudeDegrees>49.32953319512307643890380859375</LatitudeDegrees>
              <LongitudeDegrees>19.9497907049953937530517578125</LongitudeDegrees>
            </Position>
            <AltitudeMeters>1013.4000244140625</AltitudeMeters>
            <DistanceMeters>1313.2352762936</DistanceMeters>
          </Trackpoint>
          <Trackpoint>
            <Time>2022-09-18T11:09:16.000Z</Time>
            <Position>
              <LatitudeDegrees>49.32962858118116855621337890625</LatitudeDegrees>
              <LongitudeDegrees>19.9497454427182674407958984375</LongitudeDegrees>
            </Position>
            <AltitudeMeters>1012.20001220703125</AltitudeMeters>
            <DistanceMeters>1324.348121359</DistanceMeters>
          </Trackpoint>
          <Trackpoint>
            <Time>2022-09-18T11:09:20.000Z</Time>
            <Position>
              <LatitudeDegrees>49.3297419883310794830322265625</LatitudeDegrees>
              <LongitudeDegrees>19.949702359735965728759765625</LongitudeDegrees>
            </Position>
            <AltitudeMeters>1011.20001220703125</AltitudeMeters>
            <DistanceMeters>1337.3518597249</DistanceMeters>
          </Trackpoint>
          <Trackpoint>
            <Time>2022-09-18T11:09:23.000Z</Time>
            <Position>
              <LatitudeDegrees>49.329821951687335968017578125</LatitudeDegrees>
              <LongitudeDegrees>19.94968400336802005767822265625</LongitudeDegrees>
            </Position>
            <AltitudeMeters>1010.20001220703125</AltitudeMeters>
            <DistanceMeters>1346.3508444204</DistanceMeters>
          </Trackpoint>
          <Trackpoint>
            <Time>2022-09-18T11:09:26.000Z</Time>
            <Position>
              <LatitudeDegrees>49.32991557754576206207275390625</LatitudeDegrees>
              <LongitudeDegrees>19.94966321624815464019775390625</LongitudeDegrees>
            </Position>
            <AltitudeMeters>1009.79998779296875</AltitudeMeters>
            <DistanceMeters>1356.8803875529</DistanceMeters>
          </Trackpoint>
          <Trackpoint>
            <Time>2022-09-18T11:09:27.000Z</Time>
            <Position>
              <LatitudeDegrees>49.32995229028165340423583984375</LatitudeDegrees>
              <LongitudeDegrees>19.94965634308755397796630859375</LongitudeDegrees>
            </Position>
            <AltitudeMeters>1009.79998779296875</AltitudeMeters>
            <DistanceMeters>1360.9973589501</DistanceMeters>
          </Trackpoint>
          <Trackpoint>
            <Time>2022-09-18T11:09:28.000Z</Time>
            <Position>
              <LatitudeDegrees>49.329993613064289093017578125</LatitudeDegrees>
              <LongitudeDegrees>19.94965282268822193145751953125</LongitudeDegrees>
            </Position>
            <AltitudeMeters>1009.20001220703125</AltitudeMeters>
            <DistanceMeters>1365.601989173</DistanceMeters>
          </Trackpoint>
          <Trackpoint>
            <Time>2022-09-18T11:09:31.000Z</Time>
            <Position>
              <LatitudeDegrees>49.3301309086382389068603515625</LatitudeDegrees>
              <LongitudeDegrees>19.94964913465082645416259765625</LongitudeDegrees>
            </Position>
            <AltitudeMeters>1008.20001220703125</AltitudeMeters>
            <DistanceMeters>1380.8856411402</DistanceMeters>
          </Trackpoint>
          <Trackpoint>
            <Time>2022-09-18T11:09:33.000Z</Time>
            <Position>
              <LatitudeDegrees>49.33024113066494464874267578125</LatitudeDegrees>
              <LongitudeDegrees>19.9496458657085895538330078125</LongitudeDegrees>
            </Position>
            <AltitudeMeters>1007.5999755859375</AltitudeMeters>
            <DistanceMeters>1393.1562358538</DistanceMeters>
          </Trackpoint>
          <Trackpoint>
            <Time>2022-09-18T11:09:35.000Z</Time>
            <Position>
              <LatitudeDegrees>49.33035428635776042938232421875</LatitudeDegrees>
              <LongitudeDegrees>19.94963522069156169891357421875</LongitudeDegrees>
            </Position>
            <AltitudeMeters>1006.5999755859375</AltitudeMeters>
            <DistanceMeters>1405.7744095672</DistanceMeters>
          </Trackpoint>
          <Trackpoint>
            <Time>2022-09-18T11:09:36.000Z</Time>
            <Position>
              <LatitudeDegrees>49.33040994219481945037841796875</LatitudeDegrees>
              <LongitudeDegrees>19.949628598988056182861328125</LongitudeDegrees>
            </Position>
            <AltitudeMeters>1005.5999755859375</AltitudeMeters>
            <DistanceMeters>1411.9875872403</DistanceMeters>
          </Trackpoint>
          <Trackpoint>
            <Time>2022-09-18T11:09:38.000Z</Time>
            <Position>
              <LatitudeDegrees>49.3305329047143459320068359375</LatitudeDegrees>
              <LongitudeDegrees>19.949637316167354583740234375</LongitudeDegrees>
            </Position>
            <AltitudeMeters>1004.4000244140625</AltitudeMeters>
            <DistanceMeters>1425.6879218699</DistanceMeters>
          </Trackpoint>
          <Trackpoint>
            <Time>2022-09-18T11:09:40.000Z</Time>
            <Position>
              <LatitudeDegrees>49.3306495808064937591552734375</LatitudeDegrees>
              <LongitudeDegrees>19.9496498890221118927001953125</LongitudeDegrees>
            </Position>
            <AltitudeMeters>1004</AltitudeMeters>
            <DistanceMeters>1438.7058880945</DistanceMeters>
          </Trackpoint>
          <Trackpoint>
            <Time>2022-09-18T11:09:42.000Z</Time>
            <Position>
              <LatitudeDegrees>49.33075091801583766937255859375</LatitudeDegrees>
              <LongitudeDegrees>19.94966522790491580963134765625</LongitudeDegrees>
            </Position>
            <AltitudeMeters>1003.4000244140625</AltitudeMeters>
            <DistanceMeters>1450.0395916999</DistanceMeters>
          </Trackpoint>
          <Trackpoint>
            <Time>2022-09-18T11:09:43.000Z</Time>
            <Position>
              <LatitudeDegrees>49.33079349808394908905029296875</LatitudeDegrees>
              <LongitudeDegrees>19.9496703408658504486083984375</LongitudeDegrees>
            </Position>
            <AltitudeMeters>1003.4000244140625</AltitudeMeters>
            <DistanceMeters>1454.7928275727</DistanceMeters>
          </Trackpoint>
          <Trackpoint>
            <Time>2022-09-18T11:09:45.000Z</Time>
            <Position>
              <LatitudeDegrees>49.3308745510876178741455078125</LatitudeDegrees>
              <LongitudeDegrees>19.94966388680040836334228515625</LongitudeDegrees>
            </Position>
            <AltitudeMeters>1002</AltitudeMeters>
            <DistanceMeters>1463.8258653091</DistanceMeters>
          </Trackpoint>
          <Trackpoint>
            <Time>2022-09-18T11:09:50.000Z</Time>
            <Position>
              <LatitudeDegrees>49.3311198055744171142578125</LatitudeDegrees>
              <LongitudeDegrees>19.94965919293463230133056640625</LongitudeDegrees>
            </Position>
            <AltitudeMeters>1000.79998779296875</AltitudeMeters>
            <DistanceMeters>1491.1251731561</DistanceMeters>
          </Trackpoint>
          <Trackpoint>
            <Time>2022-09-18T11:09:55.000Z</Time>
            <Position>
              <LatitudeDegrees>49.33144770562648773193359375</LatitudeDegrees>
              <LongitudeDegrees>19.94967377744615077972412109375</LongitudeDegrees>
            </Position>
            <AltitudeMeters>1000.4000244140625</AltitudeMeters>
            <DistanceMeters>1527.6364599742</DistanceMeters>
          </Trackpoint>
          <Trackpoint>
            <Time>2022-09-18T11:09:59.000Z</Time>
            <Position>
              <LatitudeDegrees>49.33173981495201587677001953125</LatitudeDegrees>
              <LongitudeDegrees>19.94968618266284465789794921875</LongitudeDegrees>
            </Position>
            <AltitudeMeters>999.79998779296875</AltitudeMeters>
            <DistanceMeters>1560.1611489852</DistanceMeters>
          </Trackpoint>
          <Trackpoint>
            <Time>2022-09-18T11:10:01.000Z</Time>
            <Position>
              <LatitudeDegrees>49.331881217658519744873046875</LatitudeDegrees>
              <LongitudeDegrees>19.94968584738671779632568359375</LongitudeDegrees>
            </Position>
            <AltitudeMeters>999</AltitudeMeters>
            <DistanceMeters>1575.8994778945</DistanceMeters>
          </Trackpoint>
          <Trackpoint>
            <Time>2022-09-18T11:10:02.000Z</Time>
            <Position>
              <LatitudeDegrees>49.3319517932832241058349609375</LatitudeDegrees>
              <LongitudeDegrees>19.949692972004413604736328125</LongitudeDegrees>
            </Position>
            <AltitudeMeters>998.79998779296875</AltitudeMeters>
            <DistanceMeters>1583.7717974151</DistanceMeters>
          </Trackpoint>
          <Trackpoint>
            <Time>2022-09-18T11:10:04.000Z</Time>
            <Position>
              <LatitudeDegrees>49.3320875801146030426025390625</LatitudeDegrees>
              <LongitudeDegrees>19.94969070889055728912353515625</LongitudeDegrees>
            </Position>
            <AltitudeMeters>998</AltitudeMeters>
            <DistanceMeters>1598.8861241907</DistanceMeters>
          </Trackpoint>
          <Trackpoint>
            <Time>2022-09-18T11:10:07.000Z</Time>
            <Position>
              <LatitudeDegrees>49.33228991925716400146484375</LatitudeDegrees>
              <LongitudeDegrees>19.94967495091259479522705078125</LongitudeDegrees>
            </Position>
            <AltitudeMeters>997.5999755859375</AltitudeMeters>
            <DistanceMeters>1621.4359054454</DistanceMeters>
          </Trackpoint>
          <Trackpoint>
            <Time>2022-09-18T11:10:08.000Z</Time>
            <Position>
              <LatitudeDegrees>49.33235487900674343109130859375</LatitudeDegrees>
              <LongitudeDegrees>19.9496679939329624176025390625</LongitudeDegrees>
            </Position>
            <AltitudeMeters>997.4000244140625</AltitudeMeters>
            <DistanceMeters>1628.6835226176</DistanceMeters>
          </Trackpoint>
          <Trackpoint>
            <Time>2022-09-18T11:10:15.000Z</Time>
            <Position>
              <LatitudeDegrees>49.33275335468351840972900390625</LatitudeDegrees>
              <LongitudeDegrees>19.9496250785887241363525390625</LongitudeDegrees>
            </Position>
            <AltitudeMeters>997</AltitudeMeters>
            <DistanceMeters>1673.143637257</DistanceMeters>
          </Trackpoint>
          <Trackpoint>
            <Time>2022-09-18T11:10:18.000Z</Time>
            <Position>
              <LatitudeDegrees>49.33290540240705013275146484375</LatitudeDegrees>
              <LongitudeDegrees>19.94962583296000957489013671875</LongitudeDegrees>
            </Position>
            <AltitudeMeters>997</AltitudeMeters>
            <DistanceMeters>1690.0669319863</DistanceMeters>
          </Trackpoint>
          <Trackpoint>
            <Time>2022-09-18T11:10:20.000Z</Time>
            <Position>
              <LatitudeDegrees>49.333012104034423828125</LatitudeDegrees>
              <LongitudeDegrees>19.94961610995233058929443359375</LongitudeDegrees>
            </Position>
            <AltitudeMeters>997.4000244140625</AltitudeMeters>
            <DistanceMeters>1701.9638819392</DistanceMeters>
          </Trackpoint>
          <Trackpoint>
            <Time>2022-09-18T11:10:29.000Z</Time>
            <Position>
              <LatitudeDegrees>49.3334836699068546295166015625</LatitudeDegrees>
              <LongitudeDegrees>19.94952860288321971893310546875</LongitudeDegrees>
            </Position>
            <AltitudeMeters>997.79998779296875</AltitudeMeters>
            <DistanceMeters>1754.8323939451</DistanceMeters>
          </Trackpoint>
          <Trackpoint>
            <Time>2022-09-18T11:10:38.000Z</Time>
            <Position>
              <LatitudeDegrees>49.333919696509838104248046875</LatitudeDegrees>
              <LongitudeDegrees>19.949462972581386566162109375</LongitudeDegrees>
            </Position>
            <AltitudeMeters>997.20001220703125</AltitudeMeters>
            <DistanceMeters>1803.5960077365</DistanceMeters>
          </Trackpoint>
          <Trackpoint>
            <Time>2022-09-18T11:10:45.000Z</Time>
            <Position>
              <LatitudeDegrees>49.334238879382610321044921875</LatitudeDegrees>
              <LongitudeDegrees>19.949424751102924346923828125</LongitudeDegrees>
            </Position>
            <AltitudeMeters>996.4000244140625</AltitudeMeters>
            <DistanceMeters>1839.2296318729</DistanceMeters>
          </Trackpoint>
          <Trackpoint>
            <Time>2022-09-18T11:10:46.000Z</Time>
            <Position>
              <LatitudeDegrees>49.334283135831356048583984375</LatitudeDegrees>
              <LongitudeDegrees>19.94941896758973598480224609375</LongitudeDegrees>
            </Position>
            <AltitudeMeters>996.4000244140625</AltitudeMeters>
            <DistanceMeters>1844.1728481192</DistanceMeters>
          </Trackpoint>
          <Trackpoint>
            <Time>2022-09-18T11:10:51.000Z</Time>
            <Position>
              <LatitudeDegrees>49.33450768701732158660888671875</LatitudeDegrees>
              <LongitudeDegrees>19.94937437586486339569091796875</LongitudeDegrees>
            </Position>
            <AltitudeMeters>996.4000244140625</AltitudeMeters>
            <DistanceMeters>1869.3742839222</DistanceMeters>
          </Trackpoint>
          <Trackpoint>
            <Time>2022-09-18T11:10:54.000Z</Time>
            <Position>
              <LatitudeDegrees>49.33464850299060344696044921875</LatitudeDegrees>
              <LongitudeDegrees>19.94936532340943813323974609375</LongitudeDegrees>
            </Position>
            <AltitudeMeters>996.79998779296875</AltitudeMeters>
            <DistanceMeters>1885.0611769598</DistanceMeters>
          </Trackpoint>
          <Trackpoint>
            <Time>2022-09-18T11:10:57.000Z</Time>
            <Position>
              <LatitudeDegrees>49.33477909304201602935791015625</LatitudeDegrees>
              <LongitudeDegrees>19.94934369809925556182861328125</LongitudeDegrees>
            </Position>
            <AltitudeMeters>997.4000244140625</AltitudeMeters>
            <DistanceMeters>1899.6807829515</DistanceMeters>
          </Trackpoint>
          <Trackpoint>
            <Time>2022-09-18T11:10:59.000Z</Time>
            <Position>
              <LatitudeDegrees>49.3348650075495243072509765625</LatitudeDegrees>
              <LongitudeDegrees>19.9493280239403247833251953125</LongitudeDegrees>
            </Position>
            <AltitudeMeters>997.5999755859375</AltitudeMeters>
            <DistanceMeters>1909.3099482802</DistanceMeters>
          </Trackpoint>
          <Trackpoint>
            <Time>2022-09-18T11:11:02.000Z</Time>
            <Position>
              <LatitudeDegrees>49.33499157428741455078125</LatitudeDegrees>
              <LongitudeDegrees>19.94929927401244640350341796875</LongitudeDegrees>
            </Position>
            <AltitudeMeters>997.20001220703125</AltitudeMeters>
            <DistanceMeters>1923.5506454814</DistanceMeters>
          </Trackpoint>
          <Trackpoint>
            <Time>2022-09-18T11:11:04.000Z</Time>
            <Position>
              <LatitudeDegrees>49.33507497422397136688232421875</LatitudeDegrees>
              <LongitudeDegrees>19.94926943443715572357177734375</LongitudeDegrees>
            </Position>
            <AltitudeMeters>997</AltitudeMeters>
            <DistanceMeters>1933.0822560013</DistanceMeters>
          </Trackpoint>
          <Trackpoint>
            <Time>2022-09-18T11:11:07.000Z</Time>
            <Position>
              <LatitudeDegrees>49.3352043069899082183837890625</LatitudeDegrees>
              <LongitudeDegrees>19.94923196732997894287109375</LongitudeDegrees>
            </Position>
            <AltitudeMeters>998.20001220703125</AltitudeMeters>
            <DistanceMeters>1947.7317883067</DistanceMeters>
          </Trackpoint>
          <Trackpoint>
            <Time>2022-09-18T11:11:08.000Z</Time>
            <Position>
              <LatitudeDegrees>49.3352452106773853302001953125</LatitudeDegrees>
              <LongitudeDegrees>19.9492147006094455718994140625</LongitudeDegrees>
            </Position>
            <AltitudeMeters>998.4000244140625</AltitudeMeters>
            <DistanceMeters>1952.4545299698</DistanceMeters>
          </Trackpoint>
          <Trackpoint>
            <Time>2022-09-18T11:11:10.000Z</Time>
            <Position>
              <LatitudeDegrees>49.33532559312880039215087890625</LatitudeDegrees>
              <LongitudeDegrees>19.9491845257580280303955078125</LongitudeDegrees>
            </Position>
            <AltitudeMeters>998.5999755859375</AltitudeMeters>
            <DistanceMeters>1961.6647709067</DistanceMeters>
          </Trackpoint>
          <Trackpoint>
            <Time>2022-09-18T11:11:11.000Z</Time>
            <Position>
              <LatitudeDegrees>49.335364736616611480712890625</LatitudeDegrees>
              <LongitudeDegrees>19.94916734285652637481689453125</LongitudeDegrees>
            </Position>
            <AltitudeMeters>998.79998779296875</AltitudeMeters>
            <DistanceMeters>1966.1962600475</DistanceMeters>
          </Trackpoint>
          <Trackpoint>
            <Time>2022-09-18T11:11:13.000Z</Time>
            <Position>
              <LatitudeDegrees>49.33544042520225048065185546875</LatitudeDegrees>
              <LongitudeDegrees>19.94913197122514247894287109375</LongitudeDegrees>
            </Position>
            <AltitudeMeters>998.5999755859375</AltitudeMeters>
            <DistanceMeters>1975.0025246643</DistanceMeters>
          </Trackpoint>
          <Trackpoint>
            <Time>2022-09-18T11:11:16.000Z</Time>
            <Position>
              <LatitudeDegrees>49.335536062717437744140625</LatitudeDegrees>
              <LongitudeDegrees>19.9490705318748950958251953125</LongitudeDegrees>
            </Position>
            <AltitudeMeters>999.20001220703125</AltitudeMeters>
            <DistanceMeters>1986.5419140434</DistanceMeters>
          </Trackpoint>
          <Trackpoint>
            <Time>2022-09-18T11:11:17.000Z</Time>
            <Position>
              <LatitudeDegrees>49.33556414209306240081787109375</LatitudeDegrees>
              <LongitudeDegrees>19.949049241840839385986328125</LongitudeDegrees>
            </Position>
            <AltitudeMeters>999.20001220703125</AltitudeMeters>
            <DistanceMeters>1990.0282420391</DistanceMeters>
          </Trackpoint>
          <Trackpoint>
            <Time>2022-09-18T11:11:22.000Z</Time>
            <Position>
              <LatitudeDegrees>49.3356964923441410064697265625</LatitudeDegrees>
              <LongitudeDegrees>19.948919825255870819091796875</LongitudeDegrees>
            </Position>
            <AltitudeMeters>999.79998779296875</AltitudeMeters>
            <DistanceMeters>2007.4955893731</DistanceMeters>
          </Trackpoint>
          <Trackpoint>
            <Time>2022-09-18T11:11:25.000Z</Time>
            <Position>
              <LatitudeDegrees>49.33578349649906158447265625</LatitudeDegrees>
              <LongitudeDegrees>19.94884799234569072723388671875</LongitudeDegrees>
            </Position>
            <AltitudeMeters>1000.79998779296875</AltitudeMeters>
            <DistanceMeters>2018.4924427293</DistanceMeters>
          </Trackpoint>
          <Trackpoint>
            <Time>2022-09-18T11:11:26.000Z</Time>
            <Position>
              <LatitudeDegrees>49.33581174351274967193603515625</LatitudeDegrees>
              <LongitudeDegrees>19.9488274566829204559326171875</LongitudeDegrees>
            </Position>
            <AltitudeMeters>1000.79998779296875</AltitudeMeters>
            <DistanceMeters>2021.9722893511</DistanceMeters>
          </Trackpoint>
          <Trackpoint>
            <Time>2022-09-18T11:11:33.000Z</Time>
            <Position>
              <LatitudeDegrees>49.3360062874853610992431640625</LatitudeDegrees>
              <LongitudeDegrees>19.9486430548131465911865234375</LongitudeDegrees>
            </Position>
            <AltitudeMeters>1000</AltitudeMeters>
            <DistanceMeters>2047.4227782133</DistanceMeters>
          </Trackpoint>
          <Trackpoint>
            <Time>2022-09-18T11:11:34.000Z</Time>
            <Position>
              <LatitudeDegrees>49.33603218756616115570068359375</LatitudeDegrees>
              <LongitudeDegrees>19.94862101040780544281005859375</LongitudeDegrees>
            </Position>
            <AltitudeMeters>999.79998779296875</AltitudeMeters>
            <DistanceMeters>2050.7187123696</DistanceMeters>
          </Trackpoint>
          <Trackpoint>
            <Time>2022-09-18T11:11:37.000Z</Time>
            <Position>
              <LatitudeDegrees>49.33611265383660793304443359375</LatitudeDegrees>
              <LongitudeDegrees>19.94854842312633991241455078125</LongitudeDegrees>
            </Position>
            <AltitudeMeters>998.5999755859375</AltitudeMeters>
            <DistanceMeters>2061.1066579559</DistanceMeters>
          </Trackpoint>
          <Trackpoint>
            <Time>2022-09-18T11:11:43.000Z</Time>
            <Position>
              <LatitudeDegrees>49.336286075413227081298828125</LatitudeDegrees>
              <LongitudeDegrees>19.948389418423175811767578125</LongitudeDegrees>
            </Position>
            <AltitudeMeters>999.79998779296875</AltitudeMeters>
            <DistanceMeters>2083.5912718017</DistanceMeters>
          </Trackpoint>
          <Trackpoint>
            <Time>2022-09-18T11:11:49.000Z</Time>
            <Position>
              <LatitudeDegrees>49.33645983226597309112548828125</LatitudeDegrees>
              <LongitudeDegrees>19.9482346884906291961669921875</LongitudeDegrees>
            </Position>
            <AltitudeMeters>999.20001220703125</AltitudeMeters>
            <DistanceMeters>2105.9508375917</DistanceMeters>
          </Trackpoint>
          <Trackpoint>
            <Time>2022-09-18T11:11:51.000Z</Time>
            <Position>
              <LatitudeDegrees>49.33651582337915897369384765625</LatitudeDegrees>
              <LongitudeDegrees>19.9481823854148387908935546875</LongitudeDegrees>
            </Position>
            <AltitudeMeters>999.4000244140625</AltitudeMeters>
            <DistanceMeters>2113.2462656505</DistanceMeters>
          </Trackpoint>
          <Trackpoint>
            <Time>2022-09-18T11:11:58.000Z</Time>
            <Position>
              <LatitudeDegrees>49.3367041647434234619140625</LatitudeDegrees>
              <LongitudeDegrees>19.9479986540973186492919921875</LongitudeDegrees>
            </Position>
            <AltitudeMeters>1000</AltitudeMeters>
            <DistanceMeters>2138.085892525</DistanceMeters>
          </Trackpoint>
          <Trackpoint>
            <Time>2022-09-18T11:12:03.000Z</Time>
            <Position>
              <LatitudeDegrees>49.33683215640485286712646484375</LatitudeDegrees>
              <LongitudeDegrees>19.9478876776993274688720703125</LongitudeDegrees>
            </Position>
            <AltitudeMeters>1000.79998779296875</AltitudeMeters>
            <DistanceMeters>2154.4484331739</DistanceMeters>
          </Trackpoint>
          <Trackpoint>
            <Time>2022-09-18T11:12:05.000Z</Time>
            <Position>
              <LatitudeDegrees>49.33688211254775524139404296875</LatitudeDegrees>
              <LongitudeDegrees>19.9478474445641040802001953125</LongitudeDegrees>
            </Position>
            <AltitudeMeters>1001</AltitudeMeters>
            <DistanceMeters>2160.7288291731</DistanceMeters>
          </Trackpoint>
          <Trackpoint>
            <Time>2022-09-18T11:12:11.000Z</Time>
            <Position>
              <LatitudeDegrees>49.33700314722955226898193359375</LatitudeDegrees>
              <LongitudeDegrees>19.94775733910501003265380859375</LongitudeDegrees>
            </Position>
            <AltitudeMeters>1001</AltitudeMeters>
            <DistanceMeters>2175.7014935251</DistanceMeters>
          </Trackpoint>
          <Trackpoint>
            <Time>2022-09-18T11:12:18.000Z</Time>
            <Position>
              <LatitudeDegrees>49.33712954632937908172607421875</LatitudeDegrees>
              <LongitudeDegrees>19.947687685489654541015625</LongitudeDegrees>
            </Position>
            <AltitudeMeters>1001</AltitudeMeters>
            <DistanceMeters>2190.6491080991</DistanceMeters>
          </Trackpoint>
          <Trackpoint>
            <Time>2022-09-18T11:12:25.000Z</Time>
            <Position>
              <LatitudeDegrees>49.33730539865791797637939453125</LatitudeDegrees>
              <LongitudeDegrees>19.94761534966528415679931640625</LongitudeDegrees>
            </Position>
            <AltitudeMeters>1000.5999755859375</AltitudeMeters>
            <DistanceMeters>2210.9123155428</DistanceMeters>
          </Trackpoint>
          <Trackpoint>
            <Time>2022-09-18T11:12:30.000Z</Time>
            <Position>
              <LatitudeDegrees>49.33743380941450595855712890625</LatitudeDegrees>
              <LongitudeDegrees>19.94759422726929187774658203125</LongitudeDegrees>
            </Position>
            <AltitudeMeters>999.79998779296875</AltitudeMeters>
            <DistanceMeters>2225.2861858997</DistanceMeters>
          </Trackpoint>
          <Trackpoint>
            <Time>2022-09-18T11:12:33.000Z</Time>
            <Position>
              <LatitudeDegrees>49.33750254102051258087158203125</LatitudeDegrees>
              <LongitudeDegrees>19.94758886285126209259033203125</LongitudeDegrees>
            </Position>
            <AltitudeMeters>999.20001220703125</AltitudeMeters>
            <DistanceMeters>2232.9457163459</DistanceMeters>
          </Trackpoint>
          <Trackpoint>
            <Time>2022-09-18T11:12:39.000Z</Time>
            <Position>
              <LatitudeDegrees>49.33764754794538021087646484375</LatitudeDegrees>
              <LongitudeDegrees>19.9476016871631145477294921875</LongitudeDegrees>
            </Position>
            <AltitudeMeters>998.79998779296875</AltitudeMeters>
            <DistanceMeters>2249.1119921212</DistanceMeters>
          </Trackpoint>
          <Trackpoint>
            <Time>2022-09-18T11:12:43.000Z</Time>
            <Position>
              <LatitudeDegrees>49.3377366475760936737060546875</LatitudeDegrees>
              <LongitudeDegrees>19.94761367328464984893798828125</LongitudeDegrees>
            </Position>
            <AltitudeMeters>998.4000244140625</AltitudeMeters>
            <DistanceMeters>2259.066692463</DistanceMeters>
          </Trackpoint>
          <Trackpoint>
            <Time>2022-09-18T11:12:45.000Z</Time>
            <Position>
              <LatitudeDegrees>49.33776439167559146881103515625</LatitudeDegrees>
              <LongitudeDegrees>19.94761233218014240264892578125</LongitudeDegrees>
            </Position>
            <AltitudeMeters>998.4000244140625</AltitudeMeters>
            <DistanceMeters>2262.1546951711</DistanceMeters>
          </Trackpoint>
          <Trackpoint>
            <Time>2022-09-18T11:12:48.000Z</Time>
            <Position>
              <LatitudeDegrees>49.3378016911447048187255859375</LatitudeDegrees>
              <LongitudeDegrees>19.94761568494141101837158203125</LongitudeDegrees>
            </Position>
            <AltitudeMeters>998.20001220703125</AltitudeMeters>
            <DistanceMeters>2266.3131319435</DistanceMeters>
          </Trackpoint>
          <Trackpoint>
            <Time>2022-09-18T11:12:50.000Z</Time>
            <Position>
              <LatitudeDegrees>49.33783044107258319854736328125</LatitudeDegrees>
              <LongitudeDegrees>19.94763010181486606597900390625</LongitudeDegrees>
            </Position>
            <AltitudeMeters>998</AltitudeMeters>
            <DistanceMeters>2269.6795463471</DistanceMeters>
          </Trackpoint>
          <Trackpoint>
            <Time>2022-09-18T11:12:51.000Z</Time>
            <Position>
              <LatitudeDegrees>49.337842427194118499755859375</LatitudeDegrees>
              <LongitudeDegrees>19.9476528167724609375</LongitudeDegrees>
            </Position>
            <AltitudeMeters>998.20001220703125</AltitudeMeters>
            <DistanceMeters>2271.7980241008</DistanceMeters>
          </Trackpoint>
          <Trackpoint>
            <Time>2022-09-18T11:12:55.000Z</Time>
            <Position>
              <LatitudeDegrees>49.3378751166164875030517578125</LatitudeDegrees>
              <LongitudeDegrees>19.9477948062121868133544921875</LongitudeDegrees>
            </Position>
            <AltitudeMeters>998.20001220703125</AltitudeMeters>
            <DistanceMeters>2282.7190702811</DistanceMeters>
          </Trackpoint>
          <Trackpoint>
            <Time>2022-09-18T11:12:56.000Z</Time>
            <Position>
              <LatitudeDegrees>49.33787771500647068023681640625</LatitudeDegrees>
              <LongitudeDegrees>19.9478343687951564788818359375</LongitudeDegrees>
            </Position>
            <AltitudeMeters>998</AltitudeMeters>
            <DistanceMeters>2285.6029392803</DistanceMeters>
          </Trackpoint>
          <Trackpoint>
            <Time>2022-09-18T11:13:03.000Z</Time>
            <Position>
              <LatitudeDegrees>49.3378945626318454742431640625</LatitudeDegrees>
              <LongitudeDegrees>19.94812295772135257720947265625</LongitudeDegrees>
            </Position>
            <AltitudeMeters>997.79998779296875</AltitudeMeters>
            <DistanceMeters>2306.6165238891</DistanceMeters>
          </Trackpoint>
          <Trackpoint>
            <Time>2022-09-18T11:13:10.000Z</Time>
            <Position>
              <LatitudeDegrees>49.3379354663193225860595703125</LatitudeDegrees>
              <LongitudeDegrees>19.9484127201139926910400390625</LongitudeDegrees>
            </Position>
            <AltitudeMeters>997.5999755859375</AltitudeMeters>
            <DistanceMeters>2328.1190347677</DistanceMeters>
          </Trackpoint>
          <Trackpoint>
            <Time>2022-09-18T11:13:11.000Z</Time>
            <Position>
              <LatitudeDegrees>49.3379411660134792327880859375</LatitudeDegrees>
              <LongitudeDegrees>19.9484546296298503875732421875</LongitudeDegrees>
            </Position>
            <AltitudeMeters>997.5999755859375</AltitudeMeters>
            <DistanceMeters>2331.2245333818</DistanceMeters>
          </Trackpoint>
          <Trackpoint>
            <Time>2022-09-18T11:13:18.000Z</Time>
            <Position>
              <LatitudeDegrees>49.33798156678676605224609375</LatitudeDegrees>
              <LongitudeDegrees>19.9488133750855922698974609375</LongitudeDegrees>
            </Position>
            <AltitudeMeters>997</AltitudeMeters>
            <DistanceMeters>2357.6279415259</DistanceMeters>
          </Trackpoint>
          <Trackpoint>
            <Time>2022-09-18T11:13:21.000Z</Time>
            <Position>
              <LatitudeDegrees>49.3379984982311725616455078125</LatitudeDegrees>
              <LongitudeDegrees>19.94892829097807407379150390625</LongitudeDegrees>
            </Position>
            <AltitudeMeters>996.5999755859375</AltitudeMeters>
            <DistanceMeters>2366.1729516562</DistanceMeters>
          </Trackpoint>
          <Trackpoint>
            <Time>2022-09-18T11:13:24.000Z</Time>
            <Position>
              <LatitudeDegrees>49.338014423847198486328125</LatitudeDegrees>
              <LongitudeDegrees>19.949044547975063323974609375</LongitudeDegrees>
            </Position>
            <AltitudeMeters>996</AltitudeMeters>
            <DistanceMeters>2374.7889982232</DistanceMeters>
          </Trackpoint>
          <Trackpoint>
            <Time>2022-09-18T11:13:29.000Z</Time>
            <Position>
              <LatitudeDegrees>49.3380102328956127166748046875</LatitudeDegrees>
              <LongitudeDegrees>19.94922668673098087310791015625</LongitudeDegrees>
            </Position>
            <AltitudeMeters>995.5999755859375</AltitudeMeters>
            <DistanceMeters>2388.0069375118</DistanceMeters>
          </Trackpoint>
          <Trackpoint>
            <Time>2022-09-18T11:13:30.000Z</Time>
            <Position>
              <LatitudeDegrees>49.338017441332340240478515625</LatitudeDegrees>
              <LongitudeDegrees>19.94925887323915958404541015625</LongitudeDegrees>
            </Position>
            <AltitudeMeters>995.5999755859375</AltitudeMeters>
            <DistanceMeters>2390.4758039723</DistanceMeters>
          </Trackpoint>
          <Trackpoint>
            <Time>2022-09-18T11:13:33.000Z</Time>
            <Position>
              <LatitudeDegrees>49.33803118765354156494140625</LatitudeDegrees>
              <LongitudeDegrees>19.94934151880443096160888671875</LongitudeDegrees>
            </Position>
            <AltitudeMeters>995</AltitudeMeters>
            <DistanceMeters>2396.6620357793</DistanceMeters>
          </Trackpoint>
          <Trackpoint>
            <Time>2022-09-18T11:13:34.000Z</Time>
            <Position>
              <LatitudeDegrees>49.33803311549127101898193359375</LatitudeDegrees>
              <LongitudeDegrees>19.94935828261077404022216796875</LongitudeDegrees>
            </Position>
            <AltitudeMeters>994.79998779296875</AltitudeMeters>
            <DistanceMeters>2397.901032549</DistanceMeters>
          </Trackpoint>
          <Trackpoint>
            <Time>2022-09-18T11:13:35.000Z</Time>
            <Position>
              <LatitudeDegrees>49.33803177438676357269287109375</LatitudeDegrees>
              <LongitudeDegrees>19.94936414994299411773681640625</LongitudeDegrees>
            </Position>
            <AltitudeMeters>994.5999755859375</AltitudeMeters>
            <DistanceMeters>2398.3467473477</DistanceMeters>
          </Trackpoint>
          <Trackpoint>
            <Time>2022-09-18T11:13:39.000Z</Time>
            <Position>
              <LatitudeDegrees>49.3380303494632244110107421875</LatitudeDegrees>
              <LongitudeDegrees>19.94936934672296047210693359375</LongitudeDegrees>
            </Position>
            <AltitudeMeters>994.5999755859375</AltitudeMeters>
            <DistanceMeters>2398.7499115525</DistanceMeters>
          </Trackpoint>
          <Trackpoint>
            <Time>2022-09-18T11:13:40.000Z</Time>
            <Position>
              <LatitudeDegrees>49.33802925981581211090087890625</LatitudeDegrees>
              <LongitudeDegrees>19.94937320239841938018798828125</LongitudeDegrees>
            </Position>
            <AltitudeMeters>994.5999755859375</AltitudeMeters>
            <DistanceMeters>2399.0504124084</DistanceMeters>
          </Trackpoint>
          <Trackpoint>
            <Time>2022-09-18T11:13:43.000Z</Time>
            <Position>
              <LatitudeDegrees>49.3380280025303363800048828125</LatitudeDegrees>
              <LongitudeDegrees>19.94938778690993785858154296875</LongitudeDegrees>
            </Position>
            <AltitudeMeters>994.4000244140625</AltitudeMeters>
            <DistanceMeters>2400.1255169544</DistanceMeters>
          </Trackpoint>
          <Trackpoint>
            <Time>2022-09-18T11:13:47.000Z</Time>
            <Position>
              <LatitudeDegrees>49.3380461074411869049072265625</LatitudeDegrees>
              <LongitudeDegrees>19.9494068138301372528076171875</LongitudeDegrees>
            </Position>
            <AltitudeMeters>994.20001220703125</AltitudeMeters>
            <DistanceMeters>2402.5686462039</DistanceMeters>
          </Trackpoint>
          <Trackpoint>
            <Time>2022-09-18T11:13:57.000Z</Time>
            <Position>
              <LatitudeDegrees>49.338050298392772674560546875</LatitudeDegrees>
              <LongitudeDegrees>19.94940103031694889068603515625</LongitudeDegrees>
            </Position>
            <AltitudeMeters>993.79998779296875</AltitudeMeters>
            <DistanceMeters>2403.1989821171</DistanceMeters>
          </Trackpoint>
          <Trackpoint>
            <Time>2022-09-18T11:14:06.000Z</Time>
            <Position>
              <LatitudeDegrees>49.33805054984986782073974609375</LatitudeDegrees>
              <LongitudeDegrees>19.94940203614532947540283203125</LongitudeDegrees>
            </Position>
            <AltitudeMeters>994</AltitudeMeters>
            <DistanceMeters>2403.1989821171</DistanceMeters>
          </Trackpoint>
          <Trackpoint>
            <Time>2022-09-18T11:14:17.000Z</Time>
            <Position>
              <LatitudeDegrees>49.33805323205888271331787109375</LatitudeDegrees>
              <LongitudeDegrees>19.94941033422946929931640625</LongitudeDegrees>
            </Position>
            <AltitudeMeters>993.5999755859375</AltitudeMeters>
            <DistanceMeters>2403.8709224584</DistanceMeters>
          </Trackpoint>
          <Trackpoint>
            <Time>2022-09-18T11:14:27.000Z</Time>
            <Position>
              <LatitudeDegrees>49.3380803056061267852783203125</LatitudeDegrees>
              <LongitudeDegrees>19.9494105018675327301025390625</LongitudeDegrees>
            </Position>
            <AltitudeMeters>994</AltitudeMeters>
            <DistanceMeters>2406.8849325616</DistanceMeters>
          </Trackpoint>
          <Trackpoint>
            <Time>2022-09-18T11:14:33.000Z</Time>
            <Position>
              <LatitudeDegrees>49.3380699120461940765380859375</LatitudeDegrees>
              <LongitudeDegrees>19.94936607778072357177734375</LongitudeDegrees>
            </Position>
            <AltitudeMeters>993.79998779296875</AltitudeMeters>
            <DistanceMeters>2410.3085328923</DistanceMeters>
          </Trackpoint>
          <Trackpoint>
            <Time>2022-09-18T11:14:35.000Z</Time>
            <Position>
              <LatitudeDegrees>49.33805935084819793701171875</LatitudeDegrees>
              <LongitudeDegrees>19.94932022877037525177001953125</LongitudeDegrees>
            </Position>
            <AltitudeMeters>993.79998779296875</AltitudeMeters>
            <DistanceMeters>2413.8360596945</DistanceMeters>
          </Trackpoint>
          <Trackpoint>
            <Time>2022-09-18T11:14:40.000Z</Time>
            <Position>
              <LatitudeDegrees>49.33803965337574481964111328125</LatitudeDegrees>
              <LongitudeDegrees>19.94921780191361904144287109375</LongitudeDegrees>
            </Position>
            <AltitudeMeters>994</AltitudeMeters>
            <DistanceMeters>2421.5817570739</DistanceMeters>
          </Trackpoint>
          <Trackpoint>
            <Time>2022-09-18T11:14:42.000Z</Time>
            <Position>
              <LatitudeDegrees>49.338032193481922149658203125</LatitudeDegrees>
              <LongitudeDegrees>19.94917991571128368377685546875</LongitudeDegrees>
            </Position>
            <AltitudeMeters>994.20001220703125</AltitudeMeters>
            <DistanceMeters>2424.453073809</DistanceMeters>
          </Trackpoint>
          <Trackpoint>
            <Time>2022-09-18T11:14:45.000Z</Time>
            <Position>
              <LatitudeDegrees>49.33802406303584575653076171875</LatitudeDegrees>
              <LongitudeDegrees>19.94913515634834766387939453125</LongitudeDegrees>
            </Position>
            <AltitudeMeters>994.20001220703125</AltitudeMeters>
            <DistanceMeters>2427.8221695467</DistanceMeters>
          </Trackpoint>
          <Trackpoint>
            <Time>2022-09-18T11:14:46.000Z</Time>
            <Position>
              <LatitudeDegrees>49.3380236439406871795654296875</LatitudeDegrees>
              <LongitudeDegrees>19.9491288699209690093994140625</LongitudeDegrees>
            </Position>
            <AltitudeMeters>994.20001220703125</AltitudeMeters>
            <DistanceMeters>2428.2779016591</DistanceMeters>
          </Trackpoint>
          <Trackpoint>
            <Time>2022-09-18T11:14:48.000Z</Time>
            <Position>
              <LatitudeDegrees>49.338021464645862579345703125</LatitudeDegrees>
              <LongitudeDegrees>19.9491013772785663604736328125</LongitudeDegrees>
            </Position>
            <AltitudeMeters>994.4000244140625</AltitudeMeters>
            <DistanceMeters>2430.2847434799</DistanceMeters>
          </Trackpoint>
          <Trackpoint>
            <Time>2022-09-18T11:14:53.000Z</Time>
            <Position>
              <LatitudeDegrees>49.3379795551300048828125</LatitudeDegrees>
              <LongitudeDegrees>19.94900666177272796630859375</LongitudeDegrees>
            </Position>
            <AltitudeMeters>994.5999755859375</AltitudeMeters>
            <DistanceMeters>2438.5885777585</DistanceMeters>
          </Trackpoint>
          <Trackpoint>
            <Time>2022-09-18T11:14:55.000Z</Time>
            <Position>
              <LatitudeDegrees>49.3379743583500385284423828125</LatitudeDegrees>
              <LongitudeDegrees>19.94897858239710330963134765625</LongitudeDegrees>
            </Position>
            <AltitudeMeters>994</AltitudeMeters>
            <DistanceMeters>2440.7070555122</DistanceMeters>
          </Trackpoint>
          <Trackpoint>
            <Time>2022-09-18T11:15:01.000Z</Time>
            <Position>
              <LatitudeDegrees>49.337987937033176422119140625</LatitudeDegrees>
              <LongitudeDegrees>19.94894572533667087554931640625</LongitudeDegrees>
            </Position>
            <AltitudeMeters>994.79998779296875</AltitudeMeters>
            <DistanceMeters>2443.5292049454</DistanceMeters>
          </Trackpoint>
          <Trackpoint>
            <Time>2022-09-18T11:15:02.000Z</Time>
            <Position>
              <LatitudeDegrees>49.3379884399473667144775390625</LatitudeDegrees>
              <LongitudeDegrees>19.9489308893680572509765625</LongitudeDegrees>
            </Position>
            <AltitudeMeters>994.79998779296875</AltitudeMeters>
            <DistanceMeters>2444.608500948</DistanceMeters>
          </Trackpoint>
          <Trackpoint>
            <Time>2022-09-18T11:15:08.000Z</Time>
            <Position>
              <LatitudeDegrees>49.33797963894903659820556640625</LatitudeDegrees>
              <LongitudeDegrees>19.9488437175750732421875</LongitudeDegrees>
            </Position>
            <AltitudeMeters>994.5999755859375</AltitudeMeters>
            <DistanceMeters>2451.0057117812</DistanceMeters>
          </Trackpoint>
          <Trackpoint>
            <Time>2022-09-18T11:15:09.000Z</Time>
            <Position>
              <LatitudeDegrees>49.33797846548259258270263671875</LatitudeDegrees>
              <LongitudeDegrees>19.948830641806125640869140625</LongitudeDegrees>
            </Position>
            <AltitudeMeters>995</AltitudeMeters>
            <DistanceMeters>2451.9654345522</DistanceMeters>
          </Trackpoint>
          <Trackpoint>
            <Time>2022-09-18T11:15:15.000Z</Time>
            <Position>
              <LatitudeDegrees>49.3379622884094715118408203125</LatitudeDegrees>
              <LongitudeDegrees>19.94873173534870147705078125</LongitudeDegrees>
            </Position>
            <AltitudeMeters>997.20001220703125</AltitudeMeters>
            <DistanceMeters>2459.3616635304</DistanceMeters>
          </Trackpoint>
          <Trackpoint>
            <Time>2022-09-18T11:15:18.000Z</Time>
            <Position>
              <LatitudeDegrees>49.3379653058946132659912109375</LatitudeDegrees>
              <LongitudeDegrees>19.9486852996051311492919921875</LongitudeDegrees>
            </Position>
            <AltitudeMeters>997.20001220703125</AltitudeMeters>
            <DistanceMeters>2462.7454686269</DistanceMeters>
          </Trackpoint>
          <Trackpoint>
            <Time>2022-09-18T11:15:26.000Z</Time>
            <Position>
              <LatitudeDegrees>49.33795466087758541107177734375</LatitudeDegrees>
              <LongitudeDegrees>19.9485753290355205535888671875</LongitudeDegrees>
            </Position>
            <AltitudeMeters>997.4000244140625</AltitudeMeters>
            <DistanceMeters>2470.8081927521</DistanceMeters>
          </Trackpoint>
          <Trackpoint>
            <Time>2022-09-18T11:15:35.000Z</Time>
            <Position>
              <LatitudeDegrees>49.33795784600079059600830078125</LatitudeDegrees>
              <LongitudeDegrees>19.94844515807926654815673828125</LongitudeDegrees>
            </Position>
            <AltitudeMeters>997.79998779296875</AltitudeMeters>
            <DistanceMeters>2480.2555879261</DistanceMeters>
          </Trackpoint>
          <Trackpoint>
            <Time>2022-09-18T11:15:40.000Z</Time>
            <Position>
              <LatitudeDegrees>49.33794359676539897918701171875</LatitudeDegrees>
              <LongitudeDegrees>19.94839704595506191253662109375</LongitudeDegrees>
            </Position>
            <AltitudeMeters>997.4000244140625</AltitudeMeters>
            <DistanceMeters>2484.088593845</DistanceMeters>
          </Trackpoint>
          <Trackpoint>
            <Time>2022-09-18T11:15:45.000Z</Time>
            <Position>
              <LatitudeDegrees>49.33793270029127597808837890625</LatitudeDegrees>
              <LongitudeDegrees>19.94831808842718601226806640625</LongitudeDegrees>
            </Position>
            <AltitudeMeters>997.5999755859375</AltitudeMeters>
            <DistanceMeters>2489.9418074946</DistanceMeters>
          </Trackpoint>
          <Trackpoint>
            <Time>2022-09-18T11:15:53.000Z</Time>
            <Position>
              <LatitudeDegrees>49.33786313049495220184326171875</LatitudeDegrees>
              <LongitudeDegrees>19.94818179868161678314208984375</LongitudeDegrees>
            </Position>
            <AltitudeMeters>997.5999755859375</AltitudeMeters>
            <DistanceMeters>2502.497566116</DistanceMeters>
          </Trackpoint>
          <Trackpoint>
            <Time>2022-09-18T11:15:59.000Z</Time>
            <Position>
              <LatitudeDegrees>49.33783865533769130706787109375</LatitudeDegrees>
              <LongitudeDegrees>19.94810284115374088287353515625</LongitudeDegrees>
            </Position>
            <AltitudeMeters>997.4000244140625</AltitudeMeters>
            <DistanceMeters>2508.8380629679</DistanceMeters>
          </Trackpoint>
          <Trackpoint>
            <Time>2022-09-18T11:16:05.000Z</Time>
            <Position>
              <LatitudeDegrees>49.3378345482051372528076171875</LatitudeDegrees>
              <LongitudeDegrees>19.94803377427160739898681640625</LongitudeDegrees>
            </Position>
            <AltitudeMeters>997.79998779296875</AltitudeMeters>
            <DistanceMeters>2513.868199566</DistanceMeters>
          </Trackpoint>
          <Trackpoint>
            <Time>2022-09-18T11:16:07.000Z</Time>
            <Position>
              <LatitudeDegrees>49.337830357253551483154296875</LatitudeDegrees>
              <LongitudeDegrees>19.94800242595374584197998046875</LongitudeDegrees>
            </Position>
            <AltitudeMeters>998.5999755859375</AltitudeMeters>
            <DistanceMeters>2516.1880973139</DistanceMeters>
          </Trackpoint>
          <Trackpoint>
            <Time>2022-09-18T11:16:10.000Z</Time>
            <Position>
              <LatitudeDegrees>49.3378405831754207611083984375</LatitudeDegrees>
              <LongitudeDegrees>19.94797593913972377777099609375</LongitudeDegrees>
            </Position>
            <AltitudeMeters>999.5999755859375</AltitudeMeters>
            <DistanceMeters>2518.4207195831</DistanceMeters>
          </Trackpoint>
          <Trackpoint>
            <Time>2022-09-18T11:16:12.000Z</Time>
            <Position>
              <LatitudeDegrees>49.33783412910997867584228515625</LatitudeDegrees>
              <LongitudeDegrees>19.947948195040225982666015625</LongitudeDegrees>
            </Position>
            <AltitudeMeters>998.5999755859375</AltitudeMeters>
            <DistanceMeters>2520.558292665</DistanceMeters>
          </Trackpoint>
          <Trackpoint>
            <Time>2022-09-18T11:16:14.000Z</Time>
            <Position>
              <LatitudeDegrees>49.33783949352800846099853515625</LatitudeDegrees>
              <LongitudeDegrees>19.9479356221854686737060546875</LongitudeDegrees>
            </Position>
            <AltitudeMeters>997.5999755859375</AltitudeMeters>
            <DistanceMeters>2521.6500664926</DistanceMeters>
          </Trackpoint>
          <Trackpoint>
            <Time>2022-09-18T11:16:15.000Z</Time>
            <Position>
              <LatitudeDegrees>49.33784083463251590728759765625</LatitudeDegrees>
              <LongitudeDegrees>19.94792497716844081878662109375</LongitudeDegrees>
            </Position>
            <AltitudeMeters>997.4000244140625</AltitudeMeters>
            <DistanceMeters>2522.4451170263</DistanceMeters>
          </Trackpoint>
          <Trackpoint>
            <Time>2022-09-18T11:16:24.000Z</Time>
            <Position>
              <LatitudeDegrees>49.33791928924620151519775390625</LatitudeDegrees>
              <LongitudeDegrees>19.94783663190901279449462890625</LongitudeDegrees>
            </Position>
            <AltitudeMeters>998.4000244140625</AltitudeMeters>
            <DistanceMeters>2533.2760783448</DistanceMeters>
          </Trackpoint>
          <Trackpoint>
            <Time>2022-09-18T11:16:26.000Z</Time>
            <Position>
              <LatitudeDegrees>49.33793865144252777099609375</LatitudeDegrees>
              <LongitudeDegrees>19.9478313513100147247314453125</LongitudeDegrees>
            </Position>
            <AltitudeMeters>998.5999755859375</AltitudeMeters>
            <DistanceMeters>2535.4637575981</DistanceMeters>
          </Trackpoint>
          <Trackpoint>
            <Time>2022-09-18T11:16:31.000Z</Time>
            <Position>
              <LatitudeDegrees>49.3379810638725757598876953125</LatitudeDegrees>
              <LongitudeDegrees>19.94786328636109828948974609375</LongitudeDegrees>
            </Position>
            <AltitudeMeters>999.20001220703125</AltitudeMeters>
            <DistanceMeters>2540.7220932732</DistanceMeters>
          </Trackpoint>
          <Trackpoint>
            <Time>2022-09-18T11:16:38.000Z</Time>
            <Position>
              <LatitudeDegrees>49.33798315934836864471435546875</LatitudeDegrees>
              <LongitudeDegrees>19.94786479510366916656494140625</LongitudeDegrees>
            </Position>
            <AltitudeMeters>999</AltitudeMeters>
            <DistanceMeters>2540.9908694097</DistanceMeters>
          </Trackpoint>
          <Trackpoint>
            <Time>2022-09-18T11:16:39.000Z</Time>
            <Position>
              <LatitudeDegrees>49.33798315934836864471435546875</LatitudeDegrees>
              <LongitudeDegrees>19.94786479510366916656494140625</LongitudeDegrees>
            </Position>
            <AltitudeMeters>999</AltitudeMeters>
            <DistanceMeters>2540.9908694097</DistanceMeters>
          </Trackpoint>
          <Trackpoint>
            <Time>2022-09-18T11:16:46.000Z</Time>
            <Position>
              <LatitudeDegrees>49.337987601757049560546875</LatitudeDegrees>
              <LongitudeDegrees>19.94788994081318378448486328125</LongitudeDegrees>
            </Position>
            <AltitudeMeters>999</AltitudeMeters>
            <DistanceMeters>2542.8794880041</DistanceMeters>
          </Trackpoint>
          <Trackpoint>
            <Time>2022-09-18T11:16:49.000Z</Time>
            <Position>
              <LatitudeDegrees>49.337987601757049560546875</LatitudeDegrees>
              <LongitudeDegrees>19.94788994081318378448486328125</LongitudeDegrees>
            </Position>
            <AltitudeMeters>999</AltitudeMeters>
            <DistanceMeters>2542.8794880041</DistanceMeters>
          </Trackpoint>
          <Trackpoint>
            <Time>2022-09-18T11:16:55.000Z</Time>
            <Position>
              <LatitudeDegrees>49.338014759123325347900390625</LatitudeDegrees>
              <LongitudeDegrees>19.94789949618279933929443359375</LongitudeDegrees>
            </Position>
            <AltitudeMeters>999</AltitudeMeters>
            <DistanceMeters>2545.9791656223</DistanceMeters>
          </Trackpoint>
          <Trackpoint>
            <Time>2022-09-18T11:16:56.000Z</Time>
            <Position>
              <LatitudeDegrees>49.338014759123325347900390625</LatitudeDegrees>
              <LongitudeDegrees>19.94789949618279933929443359375</LongitudeDegrees>
            </Position>
            <AltitudeMeters>999</AltitudeMeters>
            <DistanceMeters>2545.9791656223</DistanceMeters>
          </Trackpoint>
          <Trackpoint>
            <Time>2022-09-18T11:17:03.000Z</Time>
            <Position>
              <LatitudeDegrees>49.33809732086956501007080078125</LatitudeDegrees>
              <LongitudeDegrees>19.94799806736409664154052734375</LongitudeDegrees>
            </Position>
            <AltitudeMeters>998.79998779296875</AltitudeMeters>
            <DistanceMeters>2557.6213925322</DistanceMeters>
          </Trackpoint>
          <Trackpoint>
            <Time>2022-09-18T11:17:12.000Z</Time>
            <Position>
              <LatitudeDegrees>49.3381391465663909912109375</LatitudeDegrees>
              <LongitudeDegrees>19.94805305264890193939208984375</LongitudeDegrees>
            </Position>
            <AltitudeMeters>998.79998779296875</AltitudeMeters>
            <DistanceMeters>2563.750431446</DistanceMeters>
          </Trackpoint>
          <Trackpoint>
            <Time>2022-09-18T11:17:19.000Z</Time>
            <Position>
              <LatitudeDegrees>49.3381391465663909912109375</LatitudeDegrees>
              <LongitudeDegrees>19.94805305264890193939208984375</LongitudeDegrees>
            </Position>
            <AltitudeMeters>999</AltitudeMeters>
            <DistanceMeters>2563.750431446</DistanceMeters>
          </Trackpoint>
          <Trackpoint>
            <Time>2022-09-18T11:17:26.000Z</Time>
            <Position>
              <LatitudeDegrees>49.3381391465663909912109375</LatitudeDegrees>
              <LongitudeDegrees>19.94805305264890193939208984375</LongitudeDegrees>
            </Position>
            <AltitudeMeters>998.79998779296875</AltitudeMeters>
            <DistanceMeters>2563.750431446</DistanceMeters>
          </Trackpoint>
          <Trackpoint>
            <Time>2022-09-18T11:17:33.000Z</Time>
            <Position>
              <LatitudeDegrees>49.3381391465663909912109375</LatitudeDegrees>
              <LongitudeDegrees>19.94805305264890193939208984375</LongitudeDegrees>
            </Position>
            <AltitudeMeters>998.5999755859375</AltitudeMeters>
            <DistanceMeters>2563.750431446</DistanceMeters>
          </Trackpoint>
          <Trackpoint>
            <Time>2022-09-18T11:17:37.000Z</Time>
            <Position>
              <LatitudeDegrees>49.3381391465663909912109375</LatitudeDegrees>
              <LongitudeDegrees>19.94805305264890193939208984375</LongitudeDegrees>
            </Position>
            <AltitudeMeters>999.20001220703125</AltitudeMeters>
            <DistanceMeters>2563.750431446</DistanceMeters>
          </Trackpoint>
          <Trackpoint>
            <Time>2022-09-18T11:17:42.000Z</Time>
            <Position>
              <LatitudeDegrees>49.3381391465663909912109375</LatitudeDegrees>
              <LongitudeDegrees>19.94805305264890193939208984375</LongitudeDegrees>
            </Position>
            <AltitudeMeters>999.20001220703125</AltitudeMeters>
            <DistanceMeters>2563.750431446</DistanceMeters>
          </Trackpoint>
          <Trackpoint>
            <Time>2022-09-18T11:17:48.000Z</Time>
            <Position>
              <LatitudeDegrees>49.33813923038542270660400390625</LatitudeDegrees>
              <LongitudeDegrees>19.94805305264890193939208984375</LongitudeDegrees>
            </Position>
            <AltitudeMeters>999.20001220703125</AltitudeMeters>
            <DistanceMeters>2563.750431446</DistanceMeters>
          </Trackpoint>
          <Trackpoint>
            <Time>2022-09-18T11:17:54.000Z</Time>
            <Position>
              <LatitudeDegrees>49.33813923038542270660400390625</LatitudeDegrees>
              <LongitudeDegrees>19.94805305264890193939208984375</LongitudeDegrees>
            </Position>
            <AltitudeMeters>999.20001220703125</AltitudeMeters>
            <DistanceMeters>2563.750431446</DistanceMeters>
          </Trackpoint>
          <Trackpoint>
            <Time>2022-09-18T11:18:03.000Z</Time>
            <Position>
              <LatitudeDegrees>49.33813923038542270660400390625</LatitudeDegrees>
              <LongitudeDegrees>19.94805305264890193939208984375</LongitudeDegrees>
            </Position>
            <AltitudeMeters>999.20001220703125</AltitudeMeters>
            <DistanceMeters>2563.750431446</DistanceMeters>
          </Trackpoint>
          <Trackpoint>
            <Time>2022-09-18T11:18:04.000Z</Time>
            <Position>
              <LatitudeDegrees>49.338142834603786468505859375</LatitudeDegrees>
              <LongitudeDegrees>19.948054812848567962646484375</LongitudeDegrees>
            </Position>
            <AltitudeMeters>999.20001220703125</AltitudeMeters>
            <DistanceMeters>2564.1646432909</DistanceMeters>
          </Trackpoint>
          <Trackpoint>
            <Time>2022-09-18T11:18:07.000Z</Time>
            <Position>
              <LatitudeDegrees>49.33819656260311603546142578125</LatitudeDegrees>
              <LongitudeDegrees>19.94808959774672985076904296875</LongitudeDegrees>
            </Position>
            <AltitudeMeters>999.20001220703125</AltitudeMeters>
            <DistanceMeters>2570.6550444042</DistanceMeters>
          </Trackpoint>
          <Trackpoint>
            <Time>2022-09-18T11:18:10.000Z</Time>
            <Position>
              <LatitudeDegrees>49.33825255371630191802978515625</LatitudeDegrees>
              <LongitudeDegrees>19.94811885058879852294921875</LongitudeDegrees>
            </Position>
            <AltitudeMeters>999.4000244140625</AltitudeMeters>
            <DistanceMeters>2577.2386882988</DistanceMeters>
          </Trackpoint>
          <Trackpoint>
            <Time>2022-09-18T11:18:12.000Z</Time>
            <Position>
              <LatitudeDegrees>49.33829328976571559906005859375</LatitudeDegrees>
              <LongitudeDegrees>19.9481595866382122039794921875</LongitudeDegrees>
            </Position>
            <AltitudeMeters>999.5999755859375</AltitudeMeters>
            <DistanceMeters>2582.6510415748</DistanceMeters>
          </Trackpoint>
          <Trackpoint>
            <Time>2022-09-18T11:18:13.000Z</Time>
            <Position>
              <LatitudeDegrees>49.3383160047233104705810546875</LatitudeDegrees>
              <LongitudeDegrees>19.9481813795864582061767578125</LongitudeDegrees>
            </Position>
            <AltitudeMeters>999.5999755859375</AltitudeMeters>
            <DistanceMeters>2585.634940932</DistanceMeters>
          </Trackpoint>
          <Trackpoint>
            <Time>2022-09-18T11:18:19.000Z</Time>
            <Position>
              <LatitudeDegrees>49.3384028412401676177978515625</LatitudeDegrees>
              <LongitudeDegrees>19.9482588283717632293701171875</LongitudeDegrees>
            </Position>
            <AltitudeMeters>999.5999755859375</AltitudeMeters>
            <DistanceMeters>2596.8134112133</DistanceMeters>
          </Trackpoint>
          <Trackpoint>
            <Time>2022-09-18T11:18:21.000Z</Time>
            <Position>
              <LatitudeDegrees>49.33843393810093402862548828125</LatitudeDegrees>
              <LongitudeDegrees>19.948268719017505645751953125</LongitudeDegrees>
            </Position>
            <AltitudeMeters>999.5999755859375</AltitudeMeters>
            <DistanceMeters>2600.3486093405</DistanceMeters>
          </Trackpoint>
          <Trackpoint>
            <Time>2022-09-18T11:18:28.000Z</Time>
            <Position>
              <LatitudeDegrees>49.3385429866611957550048828125</LatitudeDegrees>
              <LongitudeDegrees>19.94833569042384624481201171875</LongitudeDegrees>
            </Position>
            <AltitudeMeters>999.5999755859375</AltitudeMeters>
            <DistanceMeters>2613.4222961553</DistanceMeters>
          </Trackpoint>
          <Trackpoint>
            <Time>2022-09-18T11:18:30.000Z</Time>
            <Position>
              <LatitudeDegrees>49.33857969939708709716796875</LatitudeDegrees>
              <LongitudeDegrees>19.94835681281983852386474609375</LongitudeDegrees>
            </Position>
            <AltitudeMeters>999.5999755859375</AltitudeMeters>
            <DistanceMeters>2617.7852539988</DistanceMeters>
          </Trackpoint>
          <Trackpoint>
            <Time>2022-09-18T11:18:38.000Z</Time>
            <Position>
              <LatitudeDegrees>49.3387418054044246673583984375</LatitudeDegrees>
              <LongitudeDegrees>19.94845856912434101104736328125</LongitudeDegrees>
            </Position>
            <AltitudeMeters>999.20001220703125</AltitudeMeters>
            <DistanceMeters>2637.2787053822</DistanceMeters>
          </Trackpoint>
          <Trackpoint>
            <Time>2022-09-18T11:18:44.000Z</Time>
            <Position>
              <LatitudeDegrees>49.338875077664852142333984375</LatitudeDegrees>
              <LongitudeDegrees>19.94857440702617168426513671875</LongitudeDegrees>
            </Position>
            <AltitudeMeters>999.4000244140625</AltitudeMeters>
            <DistanceMeters>2654.3258728924</DistanceMeters>
          </Trackpoint>
          <Trackpoint>
            <Time>2022-09-18T11:18:46.000Z</Time>
            <Position>
              <LatitudeDegrees>49.338919334113597869873046875</LatitudeDegrees>
              <LongitudeDegrees>19.94862335734069347381591796875</LongitudeDegrees>
            </Position>
            <AltitudeMeters>999</AltitudeMeters>
            <DistanceMeters>2660.3971801687</DistanceMeters>
          </Trackpoint>
          <Trackpoint>
            <Time>2022-09-18T11:18:50.000Z</Time>
            <Position>
              <LatitudeDegrees>49.33901111595332622528076171875</LatitudeDegrees>
              <LongitudeDegrees>19.94869887828826904296875</LongitudeDegrees>
            </Position>
            <AltitudeMeters>998.5999755859375</AltitudeMeters>
            <DistanceMeters>2671.9881023639</DistanceMeters>
          </Trackpoint>
          <Trackpoint>
            <Time>2022-09-18T11:18:52.000Z</Time>
            <Position>
              <LatitudeDegrees>49.33905780315399169921875</LatitudeDegrees>
              <LongitudeDegrees>19.94874757714569568634033203125</LongitudeDegrees>
            </Position>
            <AltitudeMeters>998.4000244140625</AltitudeMeters>
            <DistanceMeters>2678.2699360181</DistanceMeters>
          </Trackpoint>
          <Trackpoint>
            <Time>2022-09-18T11:18:59.000Z</Time>
            <Position>
              <LatitudeDegrees>49.3392178975045680999755859375</LatitudeDegrees>
              <LongitudeDegrees>19.94891010224819183349609375</LongitudeDegrees>
            </Position>
            <AltitudeMeters>998</AltitudeMeters>
            <DistanceMeters>2699.6342577705</DistanceMeters>
          </Trackpoint>
          <Trackpoint>
            <Time>2022-09-18T11:19:08.000Z</Time>
            <Position>
              <LatitudeDegrees>49.33946843259036540985107421875</LatitudeDegrees>
              <LongitudeDegrees>19.94914337061345577239990234375</LongitudeDegrees>
            </Position>
            <AltitudeMeters>998.20001220703125</AltitudeMeters>
            <DistanceMeters>2732.2494694849</DistanceMeters>
          </Trackpoint>
          <Trackpoint>
            <Time>2022-09-18T11:19:14.000Z</Time>
            <Position>
              <LatitudeDegrees>49.339636154472827911376953125</LatitudeDegrees>
              <LongitudeDegrees>19.94930229149758815765380859375</LongitudeDegrees>
            </Position>
            <AltitudeMeters>999</AltitudeMeters>
            <DistanceMeters>2754.1885017018</DistanceMeters>
          </Trackpoint>
          <Trackpoint>
            <Time>2022-09-18T11:19:19.000Z</Time>
            <Position>
              <LatitudeDegrees>49.3397630564868450164794921875</LatitudeDegrees>
              <LongitudeDegrees>19.94942097924649715423583984375</LongitudeDegrees>
            </Position>
            <AltitudeMeters>999.20001220703125</AltitudeMeters>
            <DistanceMeters>2770.7291563472</DistanceMeters>
          </Trackpoint>
          <Trackpoint>
            <Time>2022-09-18T11:19:22.000Z</Time>
            <Position>
              <LatitudeDegrees>49.33984360657632350921630859375</LatitudeDegrees>
              <LongitudeDegrees>19.949493817985057830810546875</LongitudeDegrees>
            </Position>
            <AltitudeMeters>999.5999755859375</AltitudeMeters>
            <DistanceMeters>2781.1344730922</DistanceMeters>
          </Trackpoint>
          <Trackpoint>
            <Time>2022-09-18T11:19:26.000Z</Time>
            <Position>
              <LatitudeDegrees>49.33989440090954303741455078125</LatitudeDegrees>
              <LongitudeDegrees>19.94956850074231624603271484375</LongitudeDegrees>
            </Position>
            <AltitudeMeters>999.5999755859375</AltitudeMeters>
            <DistanceMeters>2788.9636594421</DistanceMeters>
          </Trackpoint>
          <Trackpoint>
            <Time>2022-09-18T11:19:31.000Z</Time>
            <Position>
              <LatitudeDegrees>49.33989725075662136077880859375</LatitudeDegrees>
              <LongitudeDegrees>19.9495781399309635162353515625</LongitudeDegrees>
            </Position>
            <AltitudeMeters>1000</AltitudeMeters>
            <DistanceMeters>2789.7297893063</DistanceMeters>
          </Trackpoint>
          <Trackpoint>
            <Time>2022-09-18T11:19:37.000Z</Time>
            <Position>
              <LatitudeDegrees>49.33989725075662136077880859375</LatitudeDegrees>
              <LongitudeDegrees>19.9495781399309635162353515625</LongitudeDegrees>
            </Position>
            <AltitudeMeters>1000.20001220703125</AltitudeMeters>
            <DistanceMeters>2789.7297893063</DistanceMeters>
          </Trackpoint>
          <Trackpoint>
            <Time>2022-09-18T11:19:44.000Z</Time>
            <Position>
              <LatitudeDegrees>49.33989725075662136077880859375</LatitudeDegrees>
              <LongitudeDegrees>19.9495781399309635162353515625</LongitudeDegrees>
            </Position>
            <AltitudeMeters>1000</AltitudeMeters>
            <DistanceMeters>2789.7297893063</DistanceMeters>
          </Trackpoint>
          <Trackpoint>
            <Time>2022-09-18T11:19:50.000Z</Time>
            <Position>
              <LatitudeDegrees>49.33989725075662136077880859375</LatitudeDegrees>
              <LongitudeDegrees>19.9495781399309635162353515625</LongitudeDegrees>
            </Position>
            <AltitudeMeters>1000</AltitudeMeters>
            <DistanceMeters>2789.7297893063</DistanceMeters>
          </Trackpoint>
          <Trackpoint>
            <Time>2022-09-18T11:19:55.000Z</Time>
            <Position>
              <LatitudeDegrees>49.33989725075662136077880859375</LatitudeDegrees>
              <LongitudeDegrees>19.9495781399309635162353515625</LongitudeDegrees>
            </Position>
            <AltitudeMeters>1000</AltitudeMeters>
            <DistanceMeters>2789.7297893063</DistanceMeters>
          </Trackpoint>
          <Trackpoint>
            <Time>2022-09-18T11:20:15.000Z</Time>
            <Position>
              <LatitudeDegrees>49.33989725075662136077880859375</LatitudeDegrees>
              <LongitudeDegrees>19.9495781399309635162353515625</LongitudeDegrees>
            </Position>
            <AltitudeMeters>1000.20001220703125</AltitudeMeters>
            <DistanceMeters>2789.7297893063</DistanceMeters>
          </Trackpoint>
          <Trackpoint>
            <Time>2022-09-18T11:20:26.000Z</Time>
            <Position>
              <LatitudeDegrees>49.33989725075662136077880859375</LatitudeDegrees>
              <LongitudeDegrees>19.9495781399309635162353515625</LongitudeDegrees>
            </Position>
            <AltitudeMeters>1000</AltitudeMeters>
            <DistanceMeters>2789.7297893063</DistanceMeters>
          </Trackpoint>
          <Trackpoint>
            <Time>2022-09-18T11:20:40.000Z</Time>
            <Position>
              <LatitudeDegrees>49.33989976532757282257080078125</LatitudeDegrees>
              <LongitudeDegrees>19.94957990013062953948974609375</LongitudeDegrees>
            </Position>
            <AltitudeMeters>1000.20001220703125</AltitudeMeters>
            <DistanceMeters>2790.0302901623</DistanceMeters>
          </Trackpoint>
          <Trackpoint>
            <Time>2022-09-18T11:20:43.000Z</Time>
            <Position>
              <LatitudeDegrees>49.3399491347372531890869140625</LatitudeDegrees>
              <LongitudeDegrees>19.9496022798120975494384765625</LongitudeDegrees>
            </Position>
            <AltitudeMeters>1000.20001220703125</AltitudeMeters>
            <DistanceMeters>2795.7603301229</DistanceMeters>
          </Trackpoint>
          <Trackpoint>
            <Time>2022-09-18T11:20:47.000Z</Time>
            <Position>
              <LatitudeDegrees>49.34003002010285854339599609375</LatitudeDegrees>
              <LongitudeDegrees>19.94967109523713588714599609375</LongitudeDegrees>
            </Position>
            <AltitudeMeters>1000.5999755859375</AltitudeMeters>
            <DistanceMeters>2806.0539649034</DistanceMeters>
          </Trackpoint>
          <Trackpoint>
            <Time>2022-09-18T11:20:49.000Z</Time>
            <Position>
              <LatitudeDegrees>49.340078718960285186767578125</LatitudeDegrees>
              <LongitudeDegrees>19.9497194588184356689453125</LongitudeDegrees>
            </Position>
            <AltitudeMeters>1000.79998779296875</AltitudeMeters>
            <DistanceMeters>2812.510189254</DistanceMeters>
          </Trackpoint>
          <Trackpoint>
            <Time>2022-09-18T11:20:54.000Z</Time>
            <Position>
              <LatitudeDegrees>49.34020453132688999176025390625</LatitudeDegrees>
              <LongitudeDegrees>19.9498332850635051727294921875</LongitudeDegrees>
            </Position>
            <AltitudeMeters>1000.4000244140625</AltitudeMeters>
            <DistanceMeters>2828.7650358159</DistanceMeters>
          </Trackpoint>
          <Trackpoint>
            <Time>2022-09-18T11:20:56.000Z</Time>
            <Position>
              <LatitudeDegrees>49.34026001952588558197021484375</LatitudeDegrees>
              <LongitudeDegrees>19.94988106191158294677734375</LongitudeDegrees>
            </Position>
            <AltitudeMeters>1000.4000244140625</AltitudeMeters>
            <DistanceMeters>2835.846279668</DistanceMeters>
          </Trackpoint>
          <Trackpoint>
            <Time>2022-09-18T11:21:00.000Z</Time>
            <Position>
              <LatitudeDegrees>49.34036965481936931610107421875</LatitudeDegrees>
              <LongitudeDegrees>19.94998843409121036529541015625</LongitudeDegrees>
            </Position>
            <AltitudeMeters>1001.5999755859375</AltitudeMeters>
            <DistanceMeters>2850.3215652889</DistanceMeters>
          </Trackpoint>
          <Trackpoint>
            <Time>2022-09-18T11:21:01.000Z</Time>
            <Position>
              <LatitudeDegrees>49.3403997458517551422119140625</LatitudeDegrees>
              <LongitudeDegrees>19.9500171840190887451171875</LongitudeDegrees>
            </Position>
            <AltitudeMeters>1001.79998779296875</AltitudeMeters>
            <DistanceMeters>2854.2671770018</DistanceMeters>
          </Trackpoint>
          <Trackpoint>
            <Time>2022-09-18T11:21:03.000Z</Time>
            <Position>
              <LatitudeDegrees>49.3404631130397319793701171875</LatitudeDegrees>
              <LongitudeDegrees>19.95006269775331020355224609375</LongitudeDegrees>
            </Position>
            <AltitudeMeters>1002</AltitudeMeters>
            <DistanceMeters>2862.0547307511</DistanceMeters>
          </Trackpoint>
          <Trackpoint>
            <Time>2022-09-18T11:21:09.000Z</Time>
            <Position>
              <LatitudeDegrees>49.340624548494815826416015625</LatitudeDegrees>
              <LongitudeDegrees>19.9502141587436199188232421875</LongitudeDegrees>
            </Position>
            <AltitudeMeters>1002.20001220703125</AltitudeMeters>
            <DistanceMeters>2883.1140314135</DistanceMeters>
          </Trackpoint>
          <Trackpoint>
            <Time>2022-09-18T11:21:12.000Z</Time>
            <Position>
              <LatitudeDegrees>49.34070426039397716522216796875</LatitudeDegrees>
              <LongitudeDegrees>19.950285069644451141357421875</LongitudeDegrees>
            </Position>
            <AltitudeMeters>1002</AltitudeMeters>
            <DistanceMeters>2893.3685543273</DistanceMeters>
          </Trackpoint>
          <Trackpoint>
            <Time>2022-09-18T11:21:13.000Z</Time>
            <Position>
              <LatitudeDegrees>49.3407303281128406524658203125</LatitudeDegrees>
              <LongitudeDegrees>19.95030862279236316680908203125</LongitudeDegrees>
            </Position>
            <AltitudeMeters>1002</AltitudeMeters>
            <DistanceMeters>2896.734968731</DistanceMeters>
          </Trackpoint>
          <Trackpoint>
            <Time>2022-09-18T11:21:15.000Z</Time>
            <Position>
              <LatitudeDegrees>49.34078288264572620391845703125</LatitudeDegrees>
              <LongitudeDegrees>19.9503524601459503173828125</LongitudeDegrees>
            </Position>
            <AltitudeMeters>1002.5999755859375</AltitudeMeters>
            <DistanceMeters>2903.3922666203</DistanceMeters>
          </Trackpoint>
          <Trackpoint>
            <Time>2022-09-18T11:21:16.000Z</Time>
            <Position>
              <LatitudeDegrees>49.3408106267452239990234375</LatitudeDegrees>
              <LongitudeDegrees>19.95038087479770183563232421875</LongitudeDegrees>
            </Position>
            <AltitudeMeters>1003.20001220703125</AltitudeMeters>
            <DistanceMeters>2907.1043949389</DistanceMeters>
          </Trackpoint>
          <Trackpoint>
            <Time>2022-09-18T11:21:18.000Z</Time>
            <Position>
              <LatitudeDegrees>49.34085446409881114959716796875</LatitudeDegrees>
              <LongitudeDegrees>19.950440637767314910888671875</LongitudeDegrees>
            </Position>
            <AltitudeMeters>1004.20001220703125</AltitudeMeters>
            <DistanceMeters>2913.6308695298</DistanceMeters>
          </Trackpoint>
          <Trackpoint>
            <Time>2022-09-18T11:21:19.000Z</Time>
            <Position>
              <LatitudeDegrees>49.34087726287543773651123046875</LatitudeDegrees>
              <LongitudeDegrees>19.95046821422874927520751953125</LongitudeDegrees>
            </Position>
            <AltitudeMeters>1004.4000244140625</AltitudeMeters>
            <DistanceMeters>2916.8617778184</DistanceMeters>
          </Trackpoint>
          <Trackpoint>
            <Time>2022-09-18T11:21:24.000Z</Time>
            <Position>
              <LatitudeDegrees>49.34097432531416416168212890625</LatitudeDegrees>
              <LongitudeDegrees>19.95061456225812435150146484375</LongitudeDegrees>
            </Position>
            <AltitudeMeters>1005.4000244140625</AltitudeMeters>
            <DistanceMeters>2932.005947704</DistanceMeters>
          </Trackpoint>
          <Trackpoint>
            <Time>2022-09-18T11:21:26.000Z</Time>
            <Position>
              <LatitudeDegrees>49.3410092778503894805908203125</LatitudeDegrees>
              <LongitudeDegrees>19.95067122392356395721435546875</LongitudeDegrees>
            </Position>
            <AltitudeMeters>1006</AltitudeMeters>
            <DistanceMeters>2937.6646269731</DistanceMeters>
          </Trackpoint>
          <Trackpoint>
            <Time>2022-09-18T11:21:29.000Z</Time>
            <Position>
              <LatitudeDegrees>49.3410558812320232391357421875</LatitudeDegrees>
              <LongitudeDegrees>19.95078630745410919189453125</LongitudeDegrees>
            </Position>
            <AltitudeMeters>1006.5999755859375</AltitudeMeters>
            <DistanceMeters>2947.4910509114</DistanceMeters>
          </Trackpoint>
          <Trackpoint>
            <Time>2022-09-18T11:21:32.000Z</Time>
            <Position>
              <LatitudeDegrees>49.34110592119395732879638671875</LatitudeDegrees>
              <LongitudeDegrees>19.95089770294725894927978515625</LongitudeDegrees>
            </Position>
            <AltitudeMeters>1006.79998779296875</AltitudeMeters>
            <DistanceMeters>2957.3036807893</DistanceMeters>
          </Trackpoint>
          <Trackpoint>
            <Time>2022-09-18T11:21:34.000Z</Time>
            <Position>
              <LatitudeDegrees>49.3411370180547237396240234375</LatitudeDegrees>
              <LongitudeDegrees>19.9509640038013458251953125</LongitudeDegrees>
            </Position>
            <AltitudeMeters>1007</AltitudeMeters>
            <DistanceMeters>2963.2289602945</DistanceMeters>
          </Trackpoint>
          <Trackpoint>
            <Time>2022-09-18T11:21:38.000Z</Time>
            <Position>
              <LatitudeDegrees>49.34121429920196533203125</LatitudeDegrees>
              <LongitudeDegrees>19.9511244334280490875244140625</LongitudeDegrees>
            </Position>
            <AltitudeMeters>1007.5999755859375</AltitudeMeters>
            <DistanceMeters>2977.6973821892</DistanceMeters>
          </Trackpoint>
          <Trackpoint>
            <Time>2022-09-18T11:21:39.000Z</Time>
            <Position>
              <LatitudeDegrees>49.3412344157695770263671875</LatitudeDegrees>
              <LongitudeDegrees>19.95116072706878185272216796875</LongitudeDegrees>
            </Position>
            <AltitudeMeters>1007.5999755859375</AltitudeMeters>
            <DistanceMeters>2981.1524887084</DistanceMeters>
          </Trackpoint>
          <Trackpoint>
            <Time>2022-09-18T11:21:40.000Z</Time>
            <Position>
              <LatitudeDegrees>49.34125293977558612823486328125</LatitudeDegrees>
              <LongitudeDegrees>19.9511919915676116943359375</LongitudeDegrees>
            </Position>
            <AltitudeMeters>1007.79998779296875</AltitudeMeters>
            <DistanceMeters>2984.2170081653</DistanceMeters>
          </Trackpoint>
          <Trackpoint>
            <Time>2022-09-18T11:21:43.000Z</Time>
            <Position>
              <LatitudeDegrees>49.3413281254470348358154296875</LatitudeDegrees>
              <LongitudeDegrees>19.95128377340734004974365234375</LongitudeDegrees>
            </Position>
            <AltitudeMeters>1008.20001220703125</AltitudeMeters>
            <DistanceMeters>2994.9095194632</DistanceMeters>
          </Trackpoint>
          <Trackpoint>
            <Time>2022-09-18T11:21:45.000Z</Time>
            <Position>
              <LatitudeDegrees>49.34138487093150615692138671875</LatitudeDegrees>
              <LongitudeDegrees>19.95132484473288059234619140625</LongitudeDegrees>
            </Position>
            <AltitudeMeters>1008.5999755859375</AltitudeMeters>
            <DistanceMeters>3001.8925283274</DistanceMeters>
          </Trackpoint>
          <Trackpoint>
            <Time>2022-09-18T11:21:51.000Z</Time>
            <Position>
              <LatitudeDegrees>49.34156977571547031402587890625</LatitudeDegrees>
              <LongitudeDegrees>19.95137178339064121246337890625</LongitudeDegrees>
            </Position>
            <AltitudeMeters>1009.20001220703125</AltitudeMeters>
            <DistanceMeters>3022.7525696429</DistanceMeters>
          </Trackpoint>
          <Trackpoint>
            <Time>2022-09-18T11:21:52.000Z</Time>
            <Position>
              <LatitudeDegrees>49.341603554785251617431640625</LatitudeDegrees>
              <LongitudeDegrees>19.9513805843889713287353515625</LongitudeDegrees>
            </Position>
            <AltitudeMeters>1009.4000244140625</AltitudeMeters>
            <DistanceMeters>3026.5654980548</DistanceMeters>
          </Trackpoint>
          <Trackpoint>
            <Time>2022-09-18T11:21:56.000Z</Time>
            <Position>
              <LatitudeDegrees>49.34172324836254119873046875</LatitudeDegrees>
              <LongitudeDegrees>19.9514107592403888702392578125</LongitudeDegrees>
            </Position>
            <AltitudeMeters>1009.5999755859375</AltitudeMeters>
            <DistanceMeters>3040.0659818589</DistanceMeters>
          </Trackpoint>
          <Trackpoint>
            <Time>2022-09-18T11:21:58.000Z</Time>
            <Position>
              <LatitudeDegrees>49.34178091585636138916015625</LatitudeDegrees>
              <LongitudeDegrees>19.95141704566776752471923828125</LongitudeDegrees>
            </Position>
            <AltitudeMeters>1009.79998779296875</AltitudeMeters>
            <DistanceMeters>3046.4997886962</DistanceMeters>
          </Trackpoint>
          <Trackpoint>
            <Time>2022-09-18T11:21:59.000Z</Time>
            <Position>
              <LatitudeDegrees>49.34180773794651031494140625</LatitudeDegrees>
              <LongitudeDegrees>19.95142224244773387908935546875</LongitudeDegrees>
            </Position>
            <AltitudeMeters>1010</AltitudeMeters>
            <DistanceMeters>3049.5078007634</DistanceMeters>
          </Trackpoint>
          <Trackpoint>
            <Time>2022-09-18T11:22:01.000Z</Time>
            <Position>
              <LatitudeDegrees>49.34184872545301914215087890625</LatitudeDegrees>
              <LongitudeDegrees>19.9514258466660976409912109375</LongitudeDegrees>
            </Position>
            <AltitudeMeters>1010.20001220703125</AltitudeMeters>
            <DistanceMeters>3054.0769950839</DistanceMeters>
          </Trackpoint>
          <Trackpoint>
            <Time>2022-09-18T11:22:05.000Z</Time>
            <Position>
              <LatitudeDegrees>49.34194444678723812103271484375</LatitudeDegrees>
              <LongitudeDegrees>19.95142291299998760223388671875</LongitudeDegrees>
            </Position>
            <AltitudeMeters>1009.5999755859375</AltitudeMeters>
            <DistanceMeters>3064.7331299969</DistanceMeters>
          </Trackpoint>
          <Trackpoint>
            <Time>2022-09-18T11:22:07.000Z</Time>
            <Position>
              <LatitudeDegrees>49.34198853559792041778564453125</LatitudeDegrees>
              <LongitudeDegrees>19.9514258466660976409912109375</LongitudeDegrees>
            </Position>
            <AltitudeMeters>1010.20001220703125</AltitudeMeters>
            <DistanceMeters>3069.6451931335</DistanceMeters>
          </Trackpoint>
          <Trackpoint>
            <Time>2022-09-18T11:22:09.000Z</Time>
            <Position>
              <LatitudeDegrees>49.34204335324466228485107421875</LatitudeDegrees>
              <LongitudeDegrees>19.95142224244773387908935546875</LongitudeDegrees>
            </Position>
            <AltitudeMeters>1010.20001220703125</AltitudeMeters>
            <DistanceMeters>3075.7520921595</DistanceMeters>
          </Trackpoint>
          <Trackpoint>
            <Time>2022-09-18T11:22:10.000Z</Time>
            <Position>
              <LatitudeDegrees>49.34206933714449405670166015625</LatitudeDegrees>
              <LongitudeDegrees>19.95141939260065555572509765625</LongitudeDegrees>
            </Position>
            <AltitudeMeters>1010.4000244140625</AltitudeMeters>
            <DistanceMeters>3078.6531318431</DistanceMeters>
          </Trackpoint>
          <Trackpoint>
            <Time>2022-09-18T11:22:12.000Z</Time>
            <Position>
              <LatitudeDegrees>49.3421200476586818695068359375</LatitudeDegrees>
              <LongitudeDegrees>19.9514191411435604095458984375</LongitudeDegrees>
            </Position>
            <AltitudeMeters>1011.20001220703125</AltitudeMeters>
            <DistanceMeters>3084.2974307096</DistanceMeters>
          </Trackpoint>
          <Trackpoint>
            <Time>2022-09-18T11:22:15.000Z</Time>
            <Position>
              <LatitudeDegrees>49.34218953363597393035888671875</LatitudeDegrees>
              <LongitudeDegrees>19.95141620747745037078857421875</LongitudeDegrees>
            </Position>
            <AltitudeMeters>1012.4000244140625</AltitudeMeters>
            <DistanceMeters>3092.0343795104</DistanceMeters>
          </Trackpoint>
          <Trackpoint>
            <Time>2022-09-18T11:22:17.000Z</Time>
            <Position>
              <LatitudeDegrees>49.34223731048405170440673828125</LatitudeDegrees>
              <LongitudeDegrees>19.95140464045107364654541015625</LongitudeDegrees>
            </Position>
            <AltitudeMeters>1012.5999755859375</AltitudeMeters>
            <DistanceMeters>3097.418294943</DistanceMeters>
          </Trackpoint>
          <Trackpoint>
            <Time>2022-09-18T11:22:22.000Z</Time>
            <Position>
              <LatitudeDegrees>49.3423580937087535858154296875</LatitudeDegrees>
              <LongitudeDegrees>19.9513675086200237274169921875</LongitudeDegrees>
            </Position>
            <AltitudeMeters>1013.20001220703125</AltitudeMeters>
            <DistanceMeters>3111.1285127114</DistanceMeters>
          </Trackpoint>
          <Trackpoint>
            <Time>2022-09-18T11:22:29.000Z</Time>
            <Position>
              <LatitudeDegrees>49.34252011589705944061279296875</LatitudeDegrees>
              <LongitudeDegrees>19.95131428353488445281982421875</LongitudeDegrees>
            </Position>
            <AltitudeMeters>1013</AltitudeMeters>
            <DistanceMeters>3129.5703067974</DistanceMeters>
          </Trackpoint>
          <Trackpoint>
            <Time>2022-09-18T11:22:34.000Z</Time>
            <Position>
              <LatitudeDegrees>49.34263796545565128326416015625</LatitudeDegrees>
              <LongitudeDegrees>19.9512776546180248260498046875</LongitudeDegrees>
            </Position>
            <AltitudeMeters>1012.5999755859375</AltitudeMeters>
            <DistanceMeters>3142.9535637353</DistanceMeters>
          </Trackpoint>
          <Trackpoint>
            <Time>2022-09-18T11:22:36.000Z</Time>
            <Position>
              <LatitudeDegrees>49.34269194491207599639892578125</LatitudeDegrees>
              <LongitudeDegrees>19.951261393725872039794921875</LongitudeDegrees>
            </Position>
            <AltitudeMeters>1012.5999755859375</AltitudeMeters>
            <DistanceMeters>3149.0752315834</DistanceMeters>
          </Trackpoint>
          <Trackpoint>
            <Time>2022-09-18T11:22:37.000Z</Time>
            <Position>
              <LatitudeDegrees>49.3427171744406223297119140625</LatitudeDegrees>
              <LongitudeDegrees>19.95125225745141506195068359375</LongitudeDegrees>
            </Position>
            <AltitudeMeters>1012.79998779296875</AltitudeMeters>
            <DistanceMeters>3151.9606657762</DistanceMeters>
          </Trackpoint>
          <Trackpoint>
            <Time>2022-09-18T11:22:45.000Z</Time>
            <Position>
              <LatitudeDegrees>49.34294658713042736053466796875</LatitudeDegrees>
              <LongitudeDegrees>19.95117254555225372314453125</LongitudeDegrees>
            </Position>
            <AltitudeMeters>1013.20001220703125</AltitudeMeters>
            <DistanceMeters>3178.1408273924</DistanceMeters>
          </Trackpoint>
          <Trackpoint>
            <Time>2022-09-18T11:22:48.000Z</Time>
            <Position>
              <LatitudeDegrees>49.34304616414010524749755859375</LatitudeDegrees>
              <LongitudeDegrees>19.951147735118865966796875</LongitudeDegrees>
            </Position>
            <AltitudeMeters>1012.79998779296875</AltitudeMeters>
            <DistanceMeters>3189.3692701745</DistanceMeters>
          </Trackpoint>
          <Trackpoint>
            <Time>2022-09-18T11:22:51.000Z</Time>
            <Position>
              <LatitudeDegrees>49.343136437237262725830078125</LatitudeDegrees>
              <LongitudeDegrees>19.95112300850450992584228515625</LongitudeDegrees>
            </Position>
            <AltitudeMeters>1011.20001220703125</AltitudeMeters>
            <DistanceMeters>3199.5756878545</DistanceMeters>
          </Trackpoint>
          <Trackpoint>
            <Time>2022-09-18T11:22:53.000Z</Time>
            <Position>
              <LatitudeDegrees>49.34319670312106609344482421875</LatitudeDegrees>
              <LongitudeDegrees>19.951107166707515716552734375</LongitudeDegrees>
            </Position>
            <AltitudeMeters>1011.20001220703125</AltitudeMeters>
            <DistanceMeters>3206.381219581</DistanceMeters>
          </Trackpoint>
          <Trackpoint>
            <Time>2022-09-18T11:22:56.000Z</Time>
            <Position>
              <LatitudeDegrees>49.34329829178750514984130859375</LatitudeDegrees>
              <LongitudeDegrees>19.9510821886360645294189453125</LongitudeDegrees>
            </Position>
            <AltitudeMeters>1011.4000244140625</AltitudeMeters>
            <DistanceMeters>3217.8326286698</DistanceMeters>
          </Trackpoint>
          <Trackpoint>
            <Time>2022-09-18T11:23:00.000Z</Time>
            <Position>
              <LatitudeDegrees>49.34342586435377597808837890625</LatitudeDegrees>
              <LongitudeDegrees>19.9510456435382366180419921875</LongitudeDegrees>
            </Position>
            <AltitudeMeters>1011.4000244140625</AltitudeMeters>
            <DistanceMeters>3232.276689254</DistanceMeters>
          </Trackpoint>
          <Trackpoint>
            <Time>2022-09-18T11:23:01.000Z</Time>
            <Position>
              <LatitudeDegrees>49.34345193207263946533203125</LatitudeDegrees>
              <LongitudeDegrees>19.951034076511859893798828125</LongitudeDegrees>
            </Position>
            <AltitudeMeters>1011.20001220703125</AltitudeMeters>
            <DistanceMeters>3235.2966854806</DistanceMeters>
          </Trackpoint>
          <Trackpoint>
            <Time>2022-09-18T11:23:04.000Z</Time>
            <Position>
              <LatitudeDegrees>49.343559555709362030029296875</LatitudeDegrees>
              <LongitudeDegrees>19.95098738931119441986083984375</LongitudeDegrees>
            </Position>
            <AltitudeMeters>1010.79998779296875</AltitudeMeters>
            <DistanceMeters>3247.7444596472</DistanceMeters>
          </Trackpoint>
          <Trackpoint>
            <Time>2022-09-18T11:23:06.000Z</Time>
            <Position>
              <LatitudeDegrees>49.3436287902295589447021484375</LatitudeDegrees>
              <LongitudeDegrees>19.95096324943006038665771484375</LongitudeDegrees>
            </Position>
            <AltitudeMeters>1011.20001220703125</AltitudeMeters>
            <DistanceMeters>3255.6459752318</DistanceMeters>
          </Trackpoint>
          <Trackpoint>
            <Time>2022-09-18T11:23:11.000Z</Time>
            <Position>
              <LatitudeDegrees>49.34377622790634632110595703125</LatitudeDegrees>
              <LongitudeDegrees>19.95089493691921234130859375</LongitudeDegrees>
            </Position>
            <AltitudeMeters>1010.79998779296875</AltitudeMeters>
            <DistanceMeters>3272.78717202</DistanceMeters>
          </Trackpoint>
          <Trackpoint>
            <Time>2022-09-18T11:23:16.000Z</Time>
            <Position>
              <LatitudeDegrees>49.34391654096543788909912109375</LatitudeDegrees>
              <LongitudeDegrees>19.95080751366913318634033203125</LongitudeDegrees>
            </Position>
            <AltitudeMeters>1011.20001220703125</AltitudeMeters>
            <DistanceMeters>3289.642029033</DistanceMeters>
          </Trackpoint>
          <Trackpoint>
            <Time>2022-09-18T11:23:18.000Z</Time>
            <Position>
              <LatitudeDegrees>49.34398041106760501861572265625</LatitudeDegrees>
              <LongitudeDegrees>19.9507764168083667755126953125</LongitudeDegrees>
            </Position>
            <AltitudeMeters>1011.20001220703125</AltitudeMeters>
            <DistanceMeters>3297.1002641388</DistanceMeters>
          </Trackpoint>
          <Trackpoint>
            <Time>2022-09-18T11:23:21.000Z</Time>
            <Position>
              <LatitudeDegrees>49.344073869287967681884765625</LatitudeDegrees>
              <LongitudeDegrees>19.95072620920836925506591796875</LongitudeDegrees>
            </Position>
            <AltitudeMeters>1010</AltitudeMeters>
            <DistanceMeters>3308.1209051443</DistanceMeters>
          </Trackpoint>
          <Trackpoint>
            <Time>2022-09-18T11:23:26.000Z</Time>
            <Position>
              <LatitudeDegrees>49.34424854815006256103515625</LatitudeDegrees>
              <LongitudeDegrees>19.95065697468817234039306640625</LongitudeDegrees>
            </Position>
            <AltitudeMeters>1009.4000244140625</AltitudeMeters>
            <DistanceMeters>3328.2005693154</DistanceMeters>
          </Trackpoint>
          <Trackpoint>
            <Time>2022-09-18T11:23:31.000Z</Time>
            <Position>
              <LatitudeDegrees>49.344403110444545745849609375</LatitudeDegrees>
              <LongitudeDegrees>19.9505876563489437103271484375</LongitudeDegrees>
            </Position>
            <AltitudeMeters>1009.5999755859375</AltitudeMeters>
            <DistanceMeters>3346.1228696473</DistanceMeters>
          </Trackpoint>
          <Trackpoint>
            <Time>2022-09-18T11:23:33.000Z</Time>
            <Position>
              <LatitudeDegrees>49.344470165669918060302734375</LatitudeDegrees>
              <LongitudeDegrees>19.9505547992885112762451171875</LongitudeDegrees>
            </Position>
            <AltitudeMeters>1008.5999755859375</AltitudeMeters>
            <DistanceMeters>3353.9578208064</DistanceMeters>
          </Trackpoint>
          <Trackpoint>
            <Time>2022-09-18T11:23:34.000Z</Time>
            <Position>
              <LatitudeDegrees>49.34450662694871425628662109375</LatitudeDegrees>
              <LongitudeDegrees>19.95053610764443874359130859375</LongitudeDegrees>
            </Position>
            <AltitudeMeters>1007.79998779296875</AltitudeMeters>
            <DistanceMeters>3358.2371893379</DistanceMeters>
          </Trackpoint>
          <Trackpoint>
            <Time>2022-09-18T11:23:35.000Z</Time>
            <Position>
              <LatitudeDegrees>49.34455155394971370697021484375</LatitudeDegrees>
              <LongitudeDegrees>19.95051448233425617218017578125</LongitudeDegrees>
            </Position>
            <AltitudeMeters>1007.20001220703125</AltitudeMeters>
            <DistanceMeters>3363.4783239997</DistanceMeters>
          </Trackpoint>
          <Trackpoint>
            <Time>2022-09-18T11:23:42.000Z</Time>
            <Position>
              <LatitudeDegrees>49.34478339739143848419189453125</LatitudeDegrees>
              <LongitudeDegrees>19.95043627917766571044921875</LongitudeDegrees>
            </Position>
            <AltitudeMeters>1006</AltitudeMeters>
            <DistanceMeters>3389.8986559279</DistanceMeters>
          </Trackpoint>
          <Trackpoint>
            <Time>2022-09-18T11:23:46.000Z</Time>
            <Position>
              <LatitudeDegrees>49.344985485076904296875</LatitudeDegrees>
              <LongitudeDegrees>19.950403757393360137939453125</LongitudeDegrees>
            </Position>
            <AltitudeMeters>1004.79998779296875</AltitudeMeters>
            <DistanceMeters>3412.5148143111</DistanceMeters>
          </Trackpoint>
          <Trackpoint>
            <Time>2022-09-18T11:23:47.000Z</Time>
            <Position>
              <LatitudeDegrees>49.3450463376939296722412109375</LatitudeDegrees>
              <LongitudeDegrees>19.9503928609192371368408203125</LongitudeDegrees>
            </Position>
            <AltitudeMeters>1004.79998779296875</AltitudeMeters>
            <DistanceMeters>3419.3342639726</DistanceMeters>
          </Trackpoint>
          <Trackpoint>
            <Time>2022-09-18T11:23:48.000Z</Time>
            <Position>
              <LatitudeDegrees>49.34510886669158935546875</LatitudeDegrees>
              <LongitudeDegrees>19.95037953369319438934326171875</LongitudeDegrees>
            </Position>
            <AltitudeMeters>1002.5999755859375</AltitudeMeters>
            <DistanceMeters>3426.3611023795</DistanceMeters>
          </Trackpoint>
          <Trackpoint>
            <Time>2022-09-18T11:23:49.000Z</Time>
            <Position>
              <LatitudeDegrees>49.345160834491252899169921875</LatitudeDegrees>
              <LongitudeDegrees>19.95036981068551540374755859375</LongitudeDegrees>
            </Position>
            <AltitudeMeters>1001.20001220703125</AltitudeMeters>
            <DistanceMeters>3432.188030166</DistanceMeters>
          </Trackpoint>
          <Trackpoint>
            <Time>2022-09-18T11:23:51.000Z</Time>
            <Position>
              <LatitudeDegrees>49.34531564824283123016357421875</LatitudeDegrees>
              <LongitudeDegrees>19.950351454317569732666015625</LongitudeDegrees>
            </Position>
            <AltitudeMeters>999.20001220703125</AltitudeMeters>
            <DistanceMeters>3449.4703566431</DistanceMeters>
          </Trackpoint>
          <Trackpoint>
            <Time>2022-09-18T11:23:52.000Z</Time>
            <Position>
              <LatitudeDegrees>49.3453906662762165069580078125</LatitudeDegrees>
              <LongitudeDegrees>19.95033661834895610809326171875</LongitudeDegrees>
            </Position>
            <AltitudeMeters>998</AltitudeMeters>
            <DistanceMeters>3457.8886723851</DistanceMeters>
          </Trackpoint>
          <Trackpoint>
            <Time>2022-09-18T11:23:53.000Z</Time>
            <Position>
              <LatitudeDegrees>49.345451854169368743896484375</LatitudeDegrees>
              <LongitudeDegrees>19.95032102800905704498291015625</LongitudeDegrees>
            </Position>
            <AltitudeMeters>996.4000244140625</AltitudeMeters>
            <DistanceMeters>3464.7923484689</DistanceMeters>
          </Trackpoint>
          <Trackpoint>
            <Time>2022-09-18T11:23:55.000Z</Time>
            <Position>
              <LatitudeDegrees>49.3456253595650196075439453125</LatitudeDegrees>
              <LongitudeDegrees>19.95028867386281490325927734375</LongitudeDegrees>
            </Position>
            <AltitudeMeters>994.79998779296875</AltitudeMeters>
            <DistanceMeters>3484.2459207293</DistanceMeters>
          </Trackpoint>
          <Trackpoint>
            <Time>2022-09-18T11:23:58.000Z</Time>
            <Position>
              <LatitudeDegrees>49.3458741344511508941650390625</LatitudeDegrees>
              <LongitudeDegrees>19.95024860836565494537353515625</LongitudeDegrees>
            </Position>
            <AltitudeMeters>993</AltitudeMeters>
            <DistanceMeters>3512.0871263762</DistanceMeters>
          </Trackpoint>
          <Trackpoint>
            <Time>2022-09-18T11:23:59.000Z</Time>
            <Position>
              <LatitudeDegrees>49.34594571590423583984375</LatitudeDegrees>
              <LongitudeDegrees>19.9502336047589778900146484375</LongitudeDegrees>
            </Position>
            <AltitudeMeters>992.20001220703125</AltitudeMeters>
            <DistanceMeters>3520.1279812648</DistanceMeters>
          </Trackpoint>
          <Trackpoint>
            <Time>2022-09-18T11:24:00.000Z</Time>
            <Position>
              <LatitudeDegrees>49.346034564077854156494140625</LatitudeDegrees>
              <LongitudeDegrees>19.9502170085906982421875</LongitudeDegrees>
            </Position>
            <AltitudeMeters>992</AltitudeMeters>
            <DistanceMeters>3530.0899358983</DistanceMeters>
          </Trackpoint>
          <Trackpoint>
            <Time>2022-09-18T11:24:03.000Z</Time>
            <Position>
              <LatitudeDegrees>49.34633840806782245635986328125</LatitudeDegrees>
              <LongitudeDegrees>19.950167052447795867919921875</LongitudeDegrees>
            </Position>
            <AltitudeMeters>991</AltitudeMeters>
            <DistanceMeters>3564.1018010769</DistanceMeters>
          </Trackpoint>
          <Trackpoint>
            <Time>2022-09-18T11:24:04.000Z</Time>
            <Position>
              <LatitudeDegrees>49.34643530286848545074462890625</LatitudeDegrees>
              <LongitudeDegrees>19.950148276984691619873046875</LongitudeDegrees>
            </Position>
            <AltitudeMeters>990.5999755859375</AltitudeMeters>
            <DistanceMeters>3574.9722923421</DistanceMeters>
          </Trackpoint>
          <Trackpoint>
            <Time>2022-09-18T11:24:05.000Z</Time>
            <Position>
              <LatitudeDegrees>49.34652901254594326019287109375</LatitudeDegrees>
              <LongitudeDegrees>19.95012690313160419464111328125</LongitudeDegrees>
            </Position>
            <AltitudeMeters>990.20001220703125</AltitudeMeters>
            <DistanceMeters>3585.516832695</DistanceMeters>
          </Trackpoint>
          <Trackpoint>
            <Time>2022-09-18T11:24:08.000Z</Time>
            <Position>
              <LatitudeDegrees>49.3467807210981845855712890625</LatitudeDegrees>
              <LongitudeDegrees>19.950079880654811859130859375</LongitudeDegrees>
            </Position>
            <AltitudeMeters>989.5999755859375</AltitudeMeters>
            <DistanceMeters>3613.7392869259</DistanceMeters>
          </Trackpoint>
          <Trackpoint>
            <Time>2022-09-18T11:24:10.000Z</Time>
            <Position>
              <LatitudeDegrees>49.346962273120880126953125</LatitudeDegrees>
              <LongitudeDegrees>19.9500374682247638702392578125</LongitudeDegrees>
            </Position>
            <AltitudeMeters>988.4000244140625</AltitudeMeters>
            <DistanceMeters>3634.1793100872</DistanceMeters>
          </Trackpoint>
          <Trackpoint>
            <Time>2022-09-18T11:24:11.000Z</Time>
            <Position>
              <LatitudeDegrees>49.34705690480768680572509765625</LatitudeDegrees>
              <LongitudeDegrees>19.9500190280377864837646484375</LongitudeDegrees>
            </Position>
            <AltitudeMeters>987.79998779296875</AltitudeMeters>
            <DistanceMeters>3644.7968180022</DistanceMeters>
          </Trackpoint>
          <Trackpoint>
            <Time>2022-09-18T11:24:12.000Z</Time>
            <Position>
              <LatitudeDegrees>49.347168467938899993896484375</LatitudeDegrees>
              <LongitudeDegrees>19.949993379414081573486328125</LongitudeDegrees>
            </Position>
            <AltitudeMeters>987</AltitudeMeters>
            <DistanceMeters>3657.3522170195</DistanceMeters>
          </Trackpoint>
          <Trackpoint>
            <Time>2022-09-18T11:24:15.000Z</Time>
            <Position>
              <LatitudeDegrees>49.3474492616951465606689453125</LatitudeDegrees>
              <LongitudeDegrees>19.9499340355396270751953125</LongitudeDegrees>
            </Position>
            <AltitudeMeters>985.79998779296875</AltitudeMeters>
            <DistanceMeters>3688.8999412694</DistanceMeters>
          </Trackpoint>
          <Trackpoint>
            <Time>2022-09-18T11:24:18.000Z</Time>
            <Position>
              <LatitudeDegrees>49.34772829525172710418701171875</LatitudeDegrees>
              <LongitudeDegrees>19.94988634251058101654052734375</LongitudeDegrees>
            </Position>
            <AltitudeMeters>984.5999755859375</AltitudeMeters>
            <DistanceMeters>3720.1488517544</DistanceMeters>
          </Trackpoint>
          <Trackpoint>
            <Time>2022-09-18T11:24:21.000Z</Time>
            <Position>
              <LatitudeDegrees>49.348005987703800201416015625</LatitudeDegrees>
              <LongitudeDegrees>19.9498366378247737884521484375</LongitudeDegrees>
            </Position>
            <AltitudeMeters>984</AltitudeMeters>
            <DistanceMeters>3751.2660019602</DistanceMeters>
          </Trackpoint>
          <Trackpoint>
            <Time>2022-09-18T11:24:22.000Z</Time>
            <Position>
              <LatitudeDegrees>49.348099865019321441650390625</LatitudeDegrees>
              <LongitudeDegrees>19.9498213827610015869140625</LongitudeDegrees>
            </Position>
            <AltitudeMeters>983</AltitudeMeters>
            <DistanceMeters>3761.7732239815</DistanceMeters>
          </Trackpoint>
          <Trackpoint>
            <Time>2022-09-18T11:24:25.000Z</Time>
            <Position>
              <LatitudeDegrees>49.348364733159542083740234375</LatitudeDegrees>
              <LongitudeDegrees>19.94977838359773159027099609375</LongitudeDegrees>
            </Position>
            <AltitudeMeters>982</AltitudeMeters>
            <DistanceMeters>3791.4180560708</DistanceMeters>
          </Trackpoint>
          <Trackpoint>
            <Time>2022-09-18T11:24:26.000Z</Time>
            <Position>
              <LatitudeDegrees>49.348449893295764923095703125</LatitudeDegrees>
              <LongitudeDegrees>19.94977100752294063568115234375</LongitudeDegrees>
            </Position>
            <AltitudeMeters>981.5999755859375</AltitudeMeters>
            <DistanceMeters>3800.9116956778</DistanceMeters>
          </Trackpoint>
          <Trackpoint>
            <Time>2022-09-18T11:24:28.000Z</Time>
            <Position>
              <LatitudeDegrees>49.34860805980861186981201171875</LatitudeDegrees>
              <LongitudeDegrees>19.94978039525449275970458984375</LongitudeDegrees>
            </Position>
            <AltitudeMeters>981</AltitudeMeters>
            <DistanceMeters>3818.5288386748</DistanceMeters>
          </Trackpoint>
          <Trackpoint>
            <Time>2022-09-18T11:24:30.000Z</Time>
            <Position>
              <LatitudeDegrees>49.3487524800002574920654296875</LatitudeDegrees>
              <LongitudeDegrees>19.94981308467686176300048828125</LongitudeDegrees>
            </Position>
            <AltitudeMeters>982</AltitudeMeters>
            <DistanceMeters>3834.7770174933</DistanceMeters>
          </Trackpoint>
          <Trackpoint>
            <Time>2022-09-18T11:24:34.000Z</Time>
            <Position>
              <LatitudeDegrees>49.34901391156017780303955078125</LatitudeDegrees>
              <LongitudeDegrees>19.9499063752591609954833984375</LongitudeDegrees>
            </Position>
            <AltitudeMeters>983.20001220703125</AltitudeMeters>
            <DistanceMeters>3864.6507928649</DistanceMeters>
          </Trackpoint>
          <Trackpoint>
            <Time>2022-09-18T11:24:36.000Z</Time>
            <Position>
              <LatitudeDegrees>49.34913310222327709197998046875</LatitudeDegrees>
              <LongitudeDegrees>19.9499492906033992767333984375</LongitudeDegrees>
            </Position>
            <AltitudeMeters>984.4000244140625</AltitudeMeters>
            <DistanceMeters>3878.2771068141</DistanceMeters>
          </Trackpoint>
          <Trackpoint>
            <Time>2022-09-18T11:24:42.000Z</Time>
            <Position>
              <LatitudeDegrees>49.34942697174847126007080078125</LatitudeDegrees>
              <LongitudeDegrees>19.95006655342876911163330078125</LongitudeDegrees>
            </Position>
            <AltitudeMeters>985.4000244140625</AltitudeMeters>
            <DistanceMeters>3912.07243295</DistanceMeters>
          </Trackpoint>
          <Trackpoint>
            <Time>2022-09-18T11:24:45.000Z</Time>
            <Position>
              <LatitudeDegrees>49.34953384101390838623046875</LatitudeDegrees>
              <LongitudeDegrees>19.95010259561240673065185546875</LongitudeDegrees>
            </Position>
            <AltitudeMeters>986.5999755859375</AltitudeMeters>
            <DistanceMeters>3924.2506912621</DistanceMeters>
          </Trackpoint>
          <Trackpoint>
            <Time>2022-09-18T11:24:48.000Z</Time>
            <Position>
              <LatitudeDegrees>49.34962159954011440277099609375</LatitudeDegrees>
              <LongitudeDegrees>19.95013293810188770294189453125</LongitudeDegrees>
            </Position>
            <AltitudeMeters>987.4000244140625</AltitudeMeters>
            <DistanceMeters>3934.2632787739</DistanceMeters>
          </Trackpoint>
          <Trackpoint>
            <Time>2022-09-18T11:24:52.000Z</Time>
            <Position>
              <LatitudeDegrees>49.34971866197884082794189453125</LatitudeDegrees>
              <LongitudeDegrees>19.95017065666615962982177734375</LongitudeDegrees>
            </Position>
            <AltitudeMeters>987.79998779296875</AltitudeMeters>
            <DistanceMeters>3945.4073642605</DistanceMeters>
          </Trackpoint>
          <Trackpoint>
            <Time>2022-09-18T11:24:54.000Z</Time>
            <Position>
              <LatitudeDegrees>49.34976995922625064849853515625</LatitudeDegrees>
              <LongitudeDegrees>19.95018172077834606170654296875</LongitudeDegrees>
            </Position>
            <AltitudeMeters>988.4000244140625</AltitudeMeters>
            <DistanceMeters>3951.1727533532</DistanceMeters>
          </Trackpoint>
          <Trackpoint>
            <Time>2022-09-18T11:25:03.000Z</Time>
            <Position>
              <LatitudeDegrees>49.35001890175044536590576171875</LatitudeDegrees>
              <LongitudeDegrees>19.95024424977600574493408203125</LongitudeDegrees>
            </Position>
            <AltitudeMeters>988.20001220703125</AltitudeMeters>
            <DistanceMeters>3979.249087216</DistanceMeters>
          </Trackpoint>
          <Trackpoint>
            <Time>2022-09-18T11:25:14.000Z</Time>
            <Position>
              <LatitudeDegrees>49.35031277127563953399658203125</LatitudeDegrees>
              <LongitudeDegrees>19.950347431004047393798828125</LongitudeDegrees>
            </Position>
            <AltitudeMeters>988.5999755859375</AltitudeMeters>
            <DistanceMeters>4012.8019960381</DistanceMeters>
          </Trackpoint>
          <Trackpoint>
            <Time>2022-09-18T11:25:16.000Z</Time>
            <Position>
              <LatitudeDegrees>49.350365661084651947021484375</LatitudeDegrees>
              <LongitudeDegrees>19.95036251842975616455078125</LongitudeDegrees>
            </Position>
            <AltitudeMeters>988.79998779296875</AltitudeMeters>
            <DistanceMeters>4018.7894331762</DistanceMeters>
          </Trackpoint>
          <Trackpoint>
            <Time>2022-09-18T11:25:19.000Z</Time>
            <Position>
              <LatitudeDegrees>49.3504429422318935394287109375</LatitudeDegrees>
              <LongitudeDegrees>19.9503955431282520294189453125</LongitudeDegrees>
            </Position>
            <AltitudeMeters>990</AltitudeMeters>
            <DistanceMeters>4027.7178997213</DistanceMeters>
          </Trackpoint>
          <Trackpoint>
            <Time>2022-09-18T11:25:22.000Z</Time>
            <Position>
              <LatitudeDegrees>49.3505291081964969635009765625</LatitudeDegrees>
              <LongitudeDegrees>19.9504304118454456329345703125</LongitudeDegrees>
            </Position>
            <AltitudeMeters>991.20001220703125</AltitudeMeters>
            <DistanceMeters>4037.6357937873</DistanceMeters>
          </Trackpoint>
          <Trackpoint>
            <Time>2022-09-18T11:25:23.000Z</Time>
            <Position>
              <LatitudeDegrees>49.35055601410567760467529296875</LatitudeDegrees>
              <LongitudeDegrees>19.95043569244444370269775390625</LongitudeDegrees>
            </Position>
            <AltitudeMeters>991.20001220703125</AltitudeMeters>
            <DistanceMeters>4040.654294596</DistanceMeters>
          </Trackpoint>
          <Trackpoint>
            <Time>2022-09-18T11:25:30.000Z</Time>
            <Position>
              <LatitudeDegrees>49.350735135376453399658203125</LatitudeDegrees>
              <LongitudeDegrees>19.95050677098333835601806640625</LongitudeDegrees>
            </Position>
            <AltitudeMeters>992.20001220703125</AltitudeMeters>
            <DistanceMeters>4061.2459499326</DistanceMeters>
          </Trackpoint>
          <Trackpoint>
            <Time>2022-09-18T11:25:31.000Z</Time>
            <Position>
              <LatitudeDegrees>49.3507577665150165557861328125</LatitudeDegrees>
              <LongitudeDegrees>19.95050895027816295623779296875</LongitudeDegrees>
            </Position>
            <AltitudeMeters>992.4000244140625</AltitudeMeters>
            <DistanceMeters>4063.7708724996</DistanceMeters>
          </Trackpoint>
          <Trackpoint>
            <Time>2022-09-18T11:25:34.000Z</Time>
            <Position>
              <LatitudeDegrees>49.35082825832068920135498046875</LatitudeDegrees>
              <LongitudeDegrees>19.9505293183028697967529296875</LongitudeDegrees>
            </Position>
            <AltitudeMeters>992.79998779296875</AltitudeMeters>
            <DistanceMeters>4071.7542476969</DistanceMeters>
          </Trackpoint>
          <Trackpoint>
            <Time>2022-09-18T11:25:40.000Z</Time>
            <Position>
              <LatitudeDegrees>49.3509609438478946685791015625</LatitudeDegrees>
              <LongitudeDegrees>19.9505896680057048797607421875</LongitudeDegrees>
            </Position>
            <AltitudeMeters>993.20001220703125</AltitudeMeters>
            <DistanceMeters>4087.157078554</DistanceMeters>
          </Trackpoint>
          <Trackpoint>
            <Time>2022-09-18T11:25:44.000Z</Time>
            <Position>
              <LatitudeDegrees>49.35104568488895893096923828125</LatitudeDegrees>
              <LongitudeDegrees>19.9506583996117115020751953125</LongitudeDegrees>
            </Position>
            <AltitudeMeters>994.4000244140625</AltitudeMeters>
            <DistanceMeters>4097.8246473186</DistanceMeters>
          </Trackpoint>
          <Trackpoint>
            <Time>2022-09-18T11:25:46.000Z</Time>
            <Position>
              <LatitudeDegrees>49.3510829843580722808837890625</LatitudeDegrees>
              <LongitudeDegrees>19.9506811983883380889892578125</LongitudeDegrees>
            </Position>
            <AltitudeMeters>994.79998779296875</AltitudeMeters>
            <DistanceMeters>4102.2939346325</DistanceMeters>
          </Trackpoint>
          <Trackpoint>
            <Time>2022-09-18T11:25:49.000Z</Time>
            <Position>
              <LatitudeDegrees>49.3511275760829448699951171875</LatitudeDegrees>
              <LongitudeDegrees>19.95071950368583202362060546875</LongitudeDegrees>
            </Position>
            <AltitudeMeters>995.20001220703125</AltitudeMeters>
            <DistanceMeters>4107.9812656253</DistanceMeters>
          </Trackpoint>
          <Trackpoint>
            <Time>2022-09-18T11:25:52.000Z</Time>
            <Position>
              <LatitudeDegrees>49.35117526911199092864990234375</LatitudeDegrees>
              <LongitudeDegrees>19.95075680315494537353515625</LongitudeDegrees>
            </Position>
            <AltitudeMeters>995.5999755859375</AltitudeMeters>
            <DistanceMeters>4113.9384629886</DistanceMeters>
          </Trackpoint>
          <Trackpoint>
            <Time>2022-09-18T11:25:55.000Z</Time>
            <Position>
              <LatitudeDegrees>49.35121826827526092529296875</LatitudeDegrees>
              <LongitudeDegrees>19.9508030712604522705078125</LongitudeDegrees>
            </Position>
            <AltitudeMeters>996</AltitudeMeters>
            <DistanceMeters>4119.7831853248</DistanceMeters>
          </Trackpoint>
          <Trackpoint>
            <Time>2022-09-18T11:25:58.000Z</Time>
            <Position>
              <LatitudeDegrees>49.35126445256173610687255859375</LatitudeDegrees>
              <LongitudeDegrees>19.9508485011756420135498046875</LongitudeDegrees>
            </Position>
            <AltitudeMeters>996.4000244140625</AltitudeMeters>
            <DistanceMeters>4125.8886055037</DistanceMeters>
          </Trackpoint>
          <Trackpoint>
            <Time>2022-09-18T11:25:59.000Z</Time>
            <Position>
              <LatitudeDegrees>49.35127870179712772369384765625</LatitudeDegrees>
              <LongitudeDegrees>19.95086300186812877655029296875</LongitudeDegrees>
            </Position>
            <AltitudeMeters>996.5999755859375</AltitudeMeters>
            <DistanceMeters>4127.791513976</DistanceMeters>
          </Trackpoint>
          <Trackpoint>
            <Time>2022-09-18T11:26:01.000Z</Time>
            <Position>
              <LatitudeDegrees>49.3513082899153232574462890625</LatitudeDegrees>
              <LongitudeDegrees>19.950889907777309417724609375</LongitudeDegrees>
            </Position>
            <AltitudeMeters>996.79998779296875</AltitudeMeters>
            <DistanceMeters>4131.6186256796</DistanceMeters>
          </Trackpoint>
          <Trackpoint>
            <Time>2022-09-18T11:26:03.000Z</Time>
            <Position>
              <LatitudeDegrees>49.35134273953735828399658203125</LatitudeDegrees>
              <LongitudeDegrees>19.95091371238231658935546875</LongitudeDegrees>
            </Position>
            <AltitudeMeters>997</AltitudeMeters>
            <DistanceMeters>4135.8234906807</DistanceMeters>
          </Trackpoint>
          <Trackpoint>
            <Time>2022-09-18T11:26:05.000Z</Time>
            <Position>
              <LatitudeDegrees>49.3513750098645687103271484375</LatitudeDegrees>
              <LongitudeDegrees>19.95094363577663898468017578125</LongitudeDegrees>
            </Position>
            <AltitudeMeters>997</AltitudeMeters>
            <DistanceMeters>4140.0197567669</DistanceMeters>
          </Trackpoint>
          <Trackpoint>
            <Time>2022-09-18T11:26:09.000Z</Time>
            <Position>
              <LatitudeDegrees>49.3514403887093067169189453125</LatitudeDegrees>
              <LongitudeDegrees>19.95099912397563457489013671875</LongitudeDegrees>
            </Position>
            <AltitudeMeters>997.4000244140625</AltitudeMeters>
            <DistanceMeters>4148.3344585207</DistanceMeters>
          </Trackpoint>
          <Trackpoint>
            <Time>2022-09-18T11:26:10.000Z</Time>
            <Position>
              <LatitudeDegrees>49.35145623050630092620849609375</LatitudeDegrees>
              <LongitudeDegrees>19.95100951753556728363037109375</LongitudeDegrees>
            </Position>
            <AltitudeMeters>997.79998779296875</AltitudeMeters>
            <DistanceMeters>4150.251550358</DistanceMeters>
          </Trackpoint>
          <Trackpoint>
            <Time>2022-09-18T11:26:13.000Z</Time>
            <Position>
              <LatitudeDegrees>49.35149428434669971466064453125</LatitudeDegrees>
              <LongitudeDegrees>19.9510449729859828948974609375</LongitudeDegrees>
            </Position>
            <AltitudeMeters>998.20001220703125</AltitudeMeters>
            <DistanceMeters>4155.2066263262</DistanceMeters>
          </Trackpoint>
          <Trackpoint>
            <Time>2022-09-18T11:26:17.000Z</Time>
            <Position>
              <LatitudeDegrees>49.3515537120401859283447265625</LatitudeDegrees>
              <LongitudeDegrees>19.95109417475759983062744140625</LongitudeDegrees>
            </Position>
            <AltitudeMeters>998.4000244140625</AltitudeMeters>
            <DistanceMeters>4162.7215513478</DistanceMeters>
          </Trackpoint>
          <Trackpoint>
            <Time>2022-09-18T11:26:23.000Z</Time>
            <Position>
              <LatitudeDegrees>49.35165571980178356170654296875</LatitudeDegrees>
              <LongitudeDegrees>19.95116206817328929901123046875</LongitudeDegrees>
            </Position>
            <AltitudeMeters>998.5999755859375</AltitudeMeters>
            <DistanceMeters>4175.0969340284</DistanceMeters>
          </Trackpoint>
          <Trackpoint>
            <Time>2022-09-18T11:26:33.000Z</Time>
            <Position>
              <LatitudeDegrees>49.35181598179042339324951171875</LatitudeDegrees>
              <LongitudeDegrees>19.95130606926977634429931640625</LongitudeDegrees>
            </Position>
            <AltitudeMeters>998.5999755859375</AltitudeMeters>
            <DistanceMeters>4195.7656266917</DistanceMeters>
          </Trackpoint>
          <Trackpoint>
            <Time>2022-09-18T11:26:34.000Z</Time>
            <Position>
              <LatitudeDegrees>49.35183006338775157928466796875</LatitudeDegrees>
              <LongitudeDegrees>19.9513198994100093841552734375</LongitudeDegrees>
            </Position>
            <AltitudeMeters>998.79998779296875</AltitudeMeters>
            <DistanceMeters>4197.6253361524</DistanceMeters>
          </Trackpoint>
          <Trackpoint>
            <Time>2022-09-18T11:26:40.000Z</Time>
            <Position>
              <LatitudeDegrees>49.35193131677806377410888671875</LatitudeDegrees>
              <LongitudeDegrees>19.95138444006443023681640625</LongitudeDegrees>
            </Position>
            <AltitudeMeters>1000</AltitudeMeters>
            <DistanceMeters>4209.8280391546</DistanceMeters>
          </Trackpoint>
          <Trackpoint>
            <Time>2022-09-18T11:26:48.000Z</Time>
            <Position>
              <LatitudeDegrees>49.35208017937839031219482421875</LatitudeDegrees>
              <LongitudeDegrees>19.951480664312839508056640625</LongitudeDegrees>
            </Position>
            <AltitudeMeters>1000.79998779296875</AltitudeMeters>
            <DistanceMeters>4227.8056770975</DistanceMeters>
          </Trackpoint>
          <Trackpoint>
            <Time>2022-09-18T11:26:50.000Z</Time>
            <Position>
              <LatitudeDegrees>49.35211412608623504638671875</LatitudeDegrees>
              <LongitudeDegrees>19.95151293464004993438720703125</LongitudeDegrees>
            </Position>
            <AltitudeMeters>1001</AltitudeMeters>
            <DistanceMeters>4232.2506526047</DistanceMeters>
          </Trackpoint>
          <Trackpoint>
            <Time>2022-09-18T11:26:56.000Z</Time>
            <Position>
              <LatitudeDegrees>49.3522024713456630706787109375</LatitudeDegrees>
              <LongitudeDegrees>19.9515780620276927947998046875</LongitudeDegrees>
            </Position>
            <AltitudeMeters>1002</AltitudeMeters>
            <DistanceMeters>4243.1588750676</DistanceMeters>
          </Trackpoint>
          <Trackpoint>
            <Time>2022-09-18T11:26:57.000Z</Time>
            <Position>
              <LatitudeDegrees>49.3522158823907375335693359375</LatitudeDegrees>
              <LongitudeDegrees>19.95158753357827663421630859375</LongitudeDegrees>
            </Position>
            <AltitudeMeters>1002</AltitudeMeters>
            <DistanceMeters>4244.8020405665</DistanceMeters>
          </Trackpoint>
          <Trackpoint>
            <Time>2022-09-18T11:27:03.000Z</Time>
            <Position>
              <LatitudeDegrees>49.35230062343180179595947265625</LatitudeDegrees>
              <LongitudeDegrees>19.9516280181705951690673828125</LongitudeDegrees>
            </Position>
            <AltitudeMeters>1002.5999755859375</AltitudeMeters>
            <DistanceMeters>4254.6802492125</DistanceMeters>
          </Trackpoint>
          <Trackpoint>
            <Time>2022-09-18T11:27:10.000Z</Time>
            <Position>
              <LatitudeDegrees>49.35241109691560268402099609375</LatitudeDegrees>
              <LongitudeDegrees>19.95169230736792087554931640625</LongitudeDegrees>
            </Position>
            <AltitudeMeters>1002.4000244140625</AltitudeMeters>
            <DistanceMeters>4267.8303809191</DistanceMeters>
          </Trackpoint>
          <Trackpoint>
            <Time>2022-09-18T11:27:17.000Z</Time>
            <Position>
              <LatitudeDegrees>49.352526850998401641845703125</LatitudeDegrees>
              <LongitudeDegrees>19.95172818191349506378173828125</LongitudeDegrees>
            </Position>
            <AltitudeMeters>1003</AltitudeMeters>
            <DistanceMeters>4280.9739874428</DistanceMeters>
          </Trackpoint>
          <Trackpoint>
            <Time>2022-09-18T11:27:18.000Z</Time>
            <Position>
              <LatitudeDegrees>49.35254185460507869720458984375</LatitudeDegrees>
              <LongitudeDegrees>19.9517322890460491180419921875</LongitudeDegrees>
            </Position>
            <AltitudeMeters>1003.20001220703125</AltitudeMeters>
            <DistanceMeters>4282.6685565058</DistanceMeters>
          </Trackpoint>
          <Trackpoint>
            <Time>2022-09-18T11:27:20.000Z</Time>
            <Position>
              <LatitudeDegrees>49.35257068835198879241943359375</LatitudeDegrees>
              <LongitudeDegrees>19.951753914356231689453125</LongitudeDegrees>
            </Position>
            <AltitudeMeters>1004</AltitudeMeters>
            <DistanceMeters>4286.24186423</DistanceMeters>
          </Trackpoint>
          <Trackpoint>
            <Time>2022-09-18T11:27:23.000Z</Time>
            <Position>
              <LatitudeDegrees>49.3526151962578296661376953125</LatitudeDegrees>
              <LongitudeDegrees>19.9517644755542278289794921875</LongitudeDegrees>
            </Position>
            <AltitudeMeters>1004.20001220703125</AltitudeMeters>
            <DistanceMeters>4291.2549174656</DistanceMeters>
          </Trackpoint>
          <Trackpoint>
            <Time>2022-09-18T11:27:26.000Z</Time>
            <Position>
              <LatitudeDegrees>49.3526445329189300537109375</LatitudeDegrees>
              <LongitudeDegrees>19.9517812393605709075927734375</LongitudeDegrees>
            </Position>
            <AltitudeMeters>1004.4000244140625</AltitudeMeters>
            <DistanceMeters>4294.7386543588</DistanceMeters>
          </Trackpoint>
          <Trackpoint>
            <Time>2022-09-18T11:27:29.000Z</Time>
            <Position>
              <LatitudeDegrees>49.35268803499639034271240234375</LatitudeDegrees>
              <LongitudeDegrees>19.9517946504056453704833984375</LongitudeDegrees>
            </Position>
            <AltitudeMeters>1004.79998779296875</AltitudeMeters>
            <DistanceMeters>4299.6773015901</DistanceMeters>
          </Trackpoint>
          <Trackpoint>
            <Time>2022-09-18T11:27:31.000Z</Time>
            <Position>
              <LatitudeDegrees>49.35272206552326679229736328125</LatitudeDegrees>
              <LongitudeDegrees>19.9517943151295185089111328125</LongitudeDegrees>
            </Position>
            <AltitudeMeters>1005</AltitudeMeters>
            <DistanceMeters>4303.4640893308</DistanceMeters>
          </Trackpoint>
          <Trackpoint>
            <Time>2022-09-18T11:27:32.000Z</Time>
            <Position>
              <LatitudeDegrees>49.3527357280254364013671875</LatitudeDegrees>
              <LongitudeDegrees>19.95178819634020328521728515625</LongitudeDegrees>
            </Position>
            <AltitudeMeters>1005.20001220703125</AltitudeMeters>
            <DistanceMeters>4305.0485012884</DistanceMeters>
          </Trackpoint>
          <Trackpoint>
            <Time>2022-09-18T11:27:35.000Z</Time>
            <Position>
              <LatitudeDegrees>49.3527915515005588531494140625</LatitudeDegrees>
              <LongitudeDegrees>19.95178014971315860748291015625</LongitudeDegrees>
            </Position>
            <AltitudeMeters>1005.5999755859375</AltitudeMeters>
            <DistanceMeters>4311.289231991</DistanceMeters>
          </Trackpoint>
          <Trackpoint>
            <Time>2022-09-18T11:27:36.000Z</Time>
            <Position>
              <LatitudeDegrees>49.352807141840457916259765625</LatitudeDegrees>
              <LongitudeDegrees>19.951787777245044708251953125</LongitudeDegrees>
            </Position>
            <AltitudeMeters>1005.79998779296875</AltitudeMeters>
            <DistanceMeters>4313.1096819505</DistanceMeters>
          </Trackpoint>
          <Trackpoint>
            <Time>2022-09-18T11:27:43.000Z</Time>
            <Position>
              <LatitudeDegrees>49.352905713021755218505859375</LatitudeDegrees>
              <LongitudeDegrees>19.9517963267862796783447265625</LongitudeDegrees>
            </Position>
            <AltitudeMeters>1006.5999755859375</AltitudeMeters>
            <DistanceMeters>4324.0987316039</DistanceMeters>
          </Trackpoint>
          <Trackpoint>
            <Time>2022-09-18T11:27:44.000Z</Time>
            <Position>
              <LatitudeDegrees>49.35291878879070281982421875</LatitudeDegrees>
              <LongitudeDegrees>19.95179976336658000946044921875</LongitudeDegrees>
            </Position>
            <AltitudeMeters>1006.79998779296875</AltitudeMeters>
            <DistanceMeters>4325.5770003546</DistanceMeters>
          </Trackpoint>
          <Trackpoint>
            <Time>2022-09-18T11:27:45.000Z</Time>
            <Position>
              <LatitudeDegrees>49.352931864559650421142578125</LatitudeDegrees>
              <LongitudeDegrees>19.95179607532918453216552734375</LongitudeDegrees>
            </Position>
            <AltitudeMeters>1007.20001220703125</AltitudeMeters>
            <DistanceMeters>4327.0613650848</DistanceMeters>
          </Trackpoint>
          <Trackpoint>
            <Time>2022-09-18T11:27:48.000Z</Time>
            <Position>
              <LatitudeDegrees>49.3529759533703327178955078125</LatitudeDegrees>
              <LongitudeDegrees>19.95179657824337482452392578125</LongitudeDegrees>
            </Position>
            <AltitudeMeters>1007.5999755859375</AltitudeMeters>
            <DistanceMeters>4331.968830202</DistanceMeters>
          </Trackpoint>
          <Trackpoint>
            <Time>2022-09-18T11:27:50.000Z</Time>
            <Position>
              <LatitudeDegrees>49.3530061282217502593994140625</LatitudeDegrees>
              <LongitudeDegrees>19.9518070556223392486572265625</LongitudeDegrees>
            </Position>
            <AltitudeMeters>1007.79998779296875</AltitudeMeters>
            <DistanceMeters>4335.4121556834</DistanceMeters>
          </Trackpoint>
          <Trackpoint>
            <Time>2022-09-18T11:27:53.000Z</Time>
            <Position>
              <LatitudeDegrees>49.35304376296699047088623046875</LatitudeDegrees>
              <LongitudeDegrees>19.95182591490447521209716796875</LongitudeDegrees>
            </Position>
            <AltitudeMeters>1008</AltitudeMeters>
            <DistanceMeters>4339.8183631631</DistanceMeters>
          </Trackpoint>
          <Trackpoint>
            <Time>2022-09-18T11:27:56.000Z</Time>
            <Position>
              <LatitudeDegrees>49.3530798889696598052978515625</LatitudeDegrees>
              <LongitudeDegrees>19.95182038284838199615478515625</LongitudeDegrees>
            </Position>
            <AltitudeMeters>1008.5999755859375</AltitudeMeters>
            <DistanceMeters>4343.8589544826</DistanceMeters>
          </Trackpoint>
          <Trackpoint>
            <Time>2022-09-18T11:27:57.000Z</Time>
            <Position>
              <LatitudeDegrees>49.353097490966320037841796875</LatitudeDegrees>
              <LongitudeDegrees>19.95181987993419170379638671875</LongitudeDegrees>
            </Position>
            <AltitudeMeters>1008.79998779296875</AltitudeMeters>
            <DistanceMeters>4345.8202837678</DistanceMeters>
          </Trackpoint>
          <Trackpoint>
            <Time>2022-09-18T11:28:05.000Z</Time>
            <Position>
              <LatitudeDegrees>49.353230260312557220458984375</LatitudeDegrees>
              <LongitudeDegrees>19.9518402479588985443115234375</LongitudeDegrees>
            </Position>
            <AltitudeMeters>1008.79998779296875</AltitudeMeters>
            <DistanceMeters>4360.6715334507</DistanceMeters>
          </Trackpoint>
          <Trackpoint>
            <Time>2022-09-18T11:28:14.000Z</Time>
            <Position>
              <LatitudeDegrees>49.3533658795058727264404296875</LatitudeDegrees>
              <LongitudeDegrees>19.95188274420797824859619140625</LongitudeDegrees>
            </Position>
            <AltitudeMeters>1009.79998779296875</AltitudeMeters>
            <DistanceMeters>4376.0775884049</DistanceMeters>
          </Trackpoint>
          <Trackpoint>
            <Time>2022-09-18T11:28:19.000Z</Time>
            <Position>
              <LatitudeDegrees>49.3534574098885059356689453125</LatitudeDegrees>
              <LongitudeDegrees>19.951905123889446258544921875</LongitudeDegrees>
            </Position>
            <AltitudeMeters>1010</AltitudeMeters>
            <DistanceMeters>4386.3931310865</DistanceMeters>
          </Trackpoint>
          <Trackpoint>
            <Time>2022-09-18T11:28:26.000Z</Time>
            <Position>
              <LatitudeDegrees>49.35355790890753269195556640625</LatitudeDegrees>
              <LongitudeDegrees>19.95192490518093109130859375</LongitudeDegrees>
            </Position>
            <AltitudeMeters>1010.5999755859375</AltitudeMeters>
            <DistanceMeters>4397.670924608</DistanceMeters>
          </Trackpoint>
          <Trackpoint>
            <Time>2022-09-18T11:28:27.000Z</Time>
            <Position>
              <LatitudeDegrees>49.353572912514209747314453125</LatitudeDegrees>
              <LongitudeDegrees>19.95193135924637317657470703125</LongitudeDegrees>
            </Position>
            <AltitudeMeters>1011</AltitudeMeters>
            <DistanceMeters>4399.4076011848</DistanceMeters>
          </Trackpoint>
          <Trackpoint>
            <Time>2022-09-18T11:28:30.000Z</Time>
            <Position>
              <LatitudeDegrees>49.35361725278198719024658203125</LatitudeDegrees>
              <LongitudeDegrees>19.95194124989211559295654296875</LongitudeDegrees>
            </Position>
            <AltitudeMeters>1012.20001220703125</AltitudeMeters>
            <DistanceMeters>4404.3953722905</DistanceMeters>
          </Trackpoint>
          <Trackpoint>
            <Time>2022-09-18T11:28:32.000Z</Time>
            <Position>
              <LatitudeDegrees>49.3536538816988468170166015625</LatitudeDegrees>
              <LongitudeDegrees>19.9519475363194942474365234375</LongitudeDegrees>
            </Position>
            <AltitudeMeters>1012.5999755859375</AltitudeMeters>
            <DistanceMeters>4408.498061956</DistanceMeters>
          </Trackpoint>
          <Trackpoint>
            <Time>2022-09-18T11:28:35.000Z</Time>
            <Position>
              <LatitudeDegrees>49.35369218699634075164794921875</LatitudeDegrees>
              <LongitudeDegrees>19.95195440948009490966796875</LongitudeDegrees>
            </Position>
            <AltitudeMeters>1013</AltitudeMeters>
            <DistanceMeters>4412.7900726673</DistanceMeters>
          </Trackpoint>
          <Trackpoint>
            <Time>2022-09-18T11:28:36.000Z</Time>
            <Position>
              <LatitudeDegrees>49.353710711002349853515625</LatitudeDegrees>
              <LongitudeDegrees>19.9519591033458709716796875</LongitudeDegrees>
            </Position>
            <AltitudeMeters>1013.20001220703125</AltitudeMeters>
            <DistanceMeters>4414.8806603834</DistanceMeters>
          </Trackpoint>
          <Trackpoint>
            <Time>2022-09-18T11:28:41.000Z</Time>
            <Position>
              <LatitudeDegrees>49.3537832982838153839111328125</LatitudeDegrees>
              <LongitudeDegrees>19.9519867636263370513916015625</LongitudeDegrees>
            </Position>
            <AltitudeMeters>1013.5999755859375</AltitudeMeters>
            <DistanceMeters>4423.2051307348</DistanceMeters>
          </Trackpoint>
          <Trackpoint>
            <Time>2022-09-18T11:28:49.000Z</Time>
            <Position>
              <LatitudeDegrees>49.353900812566280364990234375</LatitudeDegrees>
              <LongitudeDegrees>19.952000677585601806640625</LongitudeDegrees>
            </Position>
            <AltitudeMeters>1014.4000244140625</AltitudeMeters>
            <DistanceMeters>4436.323636628</DistanceMeters>
          </Trackpoint>
          <Trackpoint>
            <Time>2022-09-18T11:28:51.000Z</Time>
            <Position>
              <LatitudeDegrees>49.3539271317422389984130859375</LatitudeDegrees>
              <LongitudeDegrees>19.9520169384777545928955078125</LongitudeDegrees>
            </Position>
            <AltitudeMeters>1014.5999755859375</AltitudeMeters>
            <DistanceMeters>4439.4810413208</DistanceMeters>
          </Trackpoint>
          <Trackpoint>
            <Time>2022-09-18T11:28:55.000Z</Time>
            <Position>
              <LatitudeDegrees>49.35397935099899768829345703125</LatitudeDegrees>
              <LongitudeDegrees>19.95203294791281223297119140625</LongitudeDegrees>
            </Position>
            <AltitudeMeters>1015.20001220703125</AltitudeMeters>
            <DistanceMeters>4445.4078446216</DistanceMeters>
          </Trackpoint>
          <Trackpoint>
            <Time>2022-09-18T11:28:57.000Z</Time>
            <Position>
              <LatitudeDegrees>49.35400466434657573699951171875</LatitudeDegrees>
              <LongitudeDegrees>19.95204158127307891845703125</LongitudeDegrees>
            </Position>
            <AltitudeMeters>1015.4000244140625</AltitudeMeters>
            <DistanceMeters>4448.2932788145</DistanceMeters>
          </Trackpoint>
          <Trackpoint>
            <Time>2022-09-18T11:29:00.000Z</Time>
            <Position>
              <LatitudeDegrees>49.3540481664240360260009765625</LatitudeDegrees>
              <LongitudeDegrees>19.95204350911080837249755859375</LongitudeDegrees>
            </Position>
            <AltitudeMeters>1015.5999755859375</AltitudeMeters>
            <DistanceMeters>4453.1368455376</DistanceMeters>
          </Trackpoint>
          <Trackpoint>
            <Time>2022-09-18T11:29:02.000Z</Time>
            <Position>
              <LatitudeDegrees>49.35407255776226520538330078125</LatitudeDegrees>
              <LongitudeDegrees>19.95206027291715145111083984375</LongitudeDegrees>
            </Position>
            <AltitudeMeters>1015.79998779296875</AltitudeMeters>
            <DistanceMeters>4456.1116522397</DistanceMeters>
          </Trackpoint>
          <Trackpoint>
            <Time>2022-09-18T11:29:08.000Z</Time>
            <Position>
              <LatitudeDegrees>49.3541578017175197601318359375</LatitudeDegrees>
              <LongitudeDegrees>19.95209229178726673126220703125</LongitudeDegrees>
            </Position>
            <AltitudeMeters>1016</AltitudeMeters>
            <DistanceMeters>4465.8795480063</DistanceMeters>
          </Trackpoint>
          <Trackpoint>
            <Time>2022-09-18T11:29:14.000Z</Time>
            <Position>
              <LatitudeDegrees>49.35423441231250762939453125</LatitudeDegrees>
              <LongitudeDegrees>19.952119700610637664794921875</LongitudeDegrees>
            </Position>
            <AltitudeMeters>1016.5999755859375</AltitudeMeters>
            <DistanceMeters>4474.6343917432</DistanceMeters>
          </Trackpoint>
          <Trackpoint>
            <Time>2022-09-18T11:29:17.000Z</Time>
            <Position>
              <LatitudeDegrees>49.3542768247425556182861328125</LatitudeDegrees>
              <LongitudeDegrees>19.95213604532182216644287109375</LongitudeDegrees>
            </Position>
            <AltitudeMeters>1016.5999755859375</AltitudeMeters>
            <DistanceMeters>4479.5002791685</DistanceMeters>
          </Trackpoint>
          <Trackpoint>
            <Time>2022-09-18T11:29:26.000Z</Time>
            <Position>
              <LatitudeDegrees>49.354424178600311279296875</LatitudeDegrees>
              <LongitudeDegrees>19.95221994817256927490234375</LongitudeDegrees>
            </Position>
            <AltitudeMeters>1017.4000244140625</AltitudeMeters>
            <DistanceMeters>4496.9929396402</DistanceMeters>
          </Trackpoint>
          <Trackpoint>
            <Time>2022-09-18T11:29:29.000Z</Time>
            <Position>
              <LatitudeDegrees>49.354472123086452484130859375</LatitudeDegrees>
              <LongitudeDegrees>19.95224274694919586181640625</LongitudeDegrees>
            </Position>
            <AltitudeMeters>1017.5999755859375</AltitudeMeters>
            <DistanceMeters>4502.5793467316</DistanceMeters>
          </Trackpoint>
          <Trackpoint>
            <Time>2022-09-18T11:29:34.000Z</Time>
            <Position>
              <LatitudeDegrees>49.35456021688878536224365234375</LatitudeDegrees>
              <LongitudeDegrees>19.9522891826927661895751953125</LongitudeDegrees>
            </Position>
            <AltitudeMeters>1018</AltitudeMeters>
            <DistanceMeters>4512.9464085061</DistanceMeters>
          </Trackpoint>
          <Trackpoint>
            <Time>2022-09-18T11:29:43.000Z</Time>
            <Position>
              <LatitudeDegrees>49.3547096662223339080810546875</LatitudeDegrees>
              <LongitudeDegrees>19.95237023569643497467041015625</LongitudeDegrees>
            </Position>
            <AltitudeMeters>1018.79998779296875</AltitudeMeters>
            <DistanceMeters>4530.5876259971</DistanceMeters>
          </Trackpoint>
          <Trackpoint>
            <Time>2022-09-18T11:29:44.000Z</Time>
            <Position>
              <LatitudeDegrees>49.3547297827899456024169921875</LatitudeDegrees>
              <LongitudeDegrees>19.95237886905670166015625</LongitudeDegrees>
            </Position>
            <AltitudeMeters>1019.20001220703125</AltitudeMeters>
            <DistanceMeters>4532.9114129308</DistanceMeters>
          </Trackpoint>
          <Trackpoint>
            <Time>2022-09-18T11:29:47.000Z</Time>
            <Position>
              <LatitudeDegrees>49.3547903001308441162109375</LatitudeDegrees>
              <LongitudeDegrees>19.95240099728107452392578125</LongitudeDegrees>
            </Position>
            <AltitudeMeters>1019.79998779296875</AltitudeMeters>
            <DistanceMeters>4539.8359855471</DistanceMeters>
          </Trackpoint>
          <Trackpoint>
            <Time>2022-09-18T11:29:52.000Z</Time>
            <Position>
              <LatitudeDegrees>49.35488292016088962554931640625</LatitudeDegrees>
              <LongitudeDegrees>19.95244600810110569000244140625</LongitudeDegrees>
            </Position>
            <AltitudeMeters>1020.4000244140625</AltitudeMeters>
            <DistanceMeters>4550.6490068545</DistanceMeters>
          </Trackpoint>
          <Trackpoint>
            <Time>2022-09-18T11:29:57.000Z</Time>
            <Position>
              <LatitudeDegrees>49.35497679747641086578369140625</LatitudeDegrees>
              <LongitudeDegrees>19.95248674415051937103271484375</LongitudeDegrees>
            </Position>
            <AltitudeMeters>1021</AltitudeMeters>
            <DistanceMeters>4561.5070305261</DistanceMeters>
          </Trackpoint>
          <Trackpoint>
            <Time>2022-09-18T11:29:58.000Z</Time>
            <Position>
              <LatitudeDegrees>49.35499607585370540618896484375</LatitudeDegrees>
              <LongitudeDegrees>19.95249277912080287933349609375</LongitudeDegrees>
            </Position>
            <AltitudeMeters>1021</AltitudeMeters>
            <DistanceMeters>4563.6988335894</DistanceMeters>
          </Trackpoint>
          <Trackpoint>
            <Time>2022-09-18T11:30:06.000Z</Time>
            <Position>
              <LatitudeDegrees>49.35515566729009151458740234375</LatitudeDegrees>
              <LongitudeDegrees>19.952555559575557708740234375</LongitudeDegrees>
            </Position>
            <AltitudeMeters>1022</AltitudeMeters>
            <DistanceMeters>4582.0355425741</DistanceMeters>
          </Trackpoint>
          <Trackpoint>
            <Time>2022-09-18T11:30:07.000Z</Time>
            <Position>
              <LatitudeDegrees>49.35517209582030773162841796875</LatitudeDegrees>
              <LongitudeDegrees>19.9525644443929195404052734375</LongitudeDegrees>
            </Position>
            <AltitudeMeters>1022</AltitudeMeters>
            <DistanceMeters>4583.9737148577</DistanceMeters>
          </Trackpoint>
          <Trackpoint>
            <Time>2022-09-18T11:30:13.000Z</Time>
            <Position>
              <LatitudeDegrees>49.355297572910785675048828125</LatitudeDegrees>
              <LongitudeDegrees>19.9526113830506801605224609375</LongitudeDegrees>
            </Position>
            <AltitudeMeters>1022.20001220703125</AltitudeMeters>
            <DistanceMeters>4598.3482134295</DistanceMeters>
          </Trackpoint>
          <Trackpoint>
            <Time>2022-09-18T11:30:21.000Z</Time>
            <Position>
              <LatitudeDegrees>49.3554536439478397369384765625</LatitudeDegrees>
              <LongitudeDegrees>19.95268757455050945281982421875</LongitudeDegrees>
            </Position>
            <AltitudeMeters>1022.4000244140625</AltitudeMeters>
            <DistanceMeters>4616.5760117792</DistanceMeters>
          </Trackpoint>
          <Trackpoint>
            <Time>2022-09-18T11:30:26.000Z</Time>
            <Position>
              <LatitudeDegrees>49.35555598698556423187255859375</LatitudeDegrees>
              <LongitudeDegrees>19.9527267180383205413818359375</LongitudeDegrees>
            </Position>
            <AltitudeMeters>1022.79998779296875</AltitudeMeters>
            <DistanceMeters>4628.3147922327</DistanceMeters>
          </Trackpoint>
          <Trackpoint>
            <Time>2022-09-18T11:30:33.000Z</Time>
            <Position>
              <LatitudeDegrees>49.35571893118321895599365234375</LatitudeDegrees>
              <LongitudeDegrees>19.95277172885835170745849609375</LongitudeDegrees>
            </Position>
            <AltitudeMeters>1023</AltitudeMeters>
            <DistanceMeters>4646.741890879</DistanceMeters>
          </Trackpoint>
          <Trackpoint>
            <Time>2022-09-18T11:30:34.000Z</Time>
            <Position>
              <LatitudeDegrees>49.35573737137019634246826171875</LatitudeDegrees>
              <LongitudeDegrees>19.95278363116085529327392578125</LongitudeDegrees>
            </Position>
            <AltitudeMeters>1023.4000244140625</AltitudeMeters>
            <DistanceMeters>4648.9684379744</DistanceMeters>
          </Trackpoint>
          <Trackpoint>
            <Time>2022-09-18T11:30:39.000Z</Time>
            <Position>
              <LatitudeDegrees>49.35584935359656810760498046875</LatitudeDegrees>
              <LongitudeDegrees>19.95283392257988452911376953125</LongitudeDegrees>
            </Position>
            <AltitudeMeters>1024</AltitudeMeters>
            <DistanceMeters>4661.954804197</DistanceMeters>
          </Trackpoint>
          <Trackpoint>
            <Time>2022-09-18T11:30:42.000Z</Time>
            <Position>
              <LatitudeDegrees>49.35592018067836761474609375</LatitudeDegrees>
              <LongitudeDegrees>19.95285236276686191558837890625</LongitudeDegrees>
            </Position>
            <AltitudeMeters>1023.79998779296875</AltitudeMeters>
            <DistanceMeters>4669.9494824938</DistanceMeters>
          </Trackpoint>
          <Trackpoint>
            <Time>2022-09-18T11:30:46.000Z</Time>
            <Position>
              <LatitudeDegrees>49.35598430223762989044189453125</LatitudeDegrees>
              <LongitudeDegrees>19.95289427228271961212158203125</LongitudeDegrees>
            </Position>
            <AltitudeMeters>1023.79998779296875</AltitudeMeters>
            <DistanceMeters>4677.7056651419</DistanceMeters>
          </Trackpoint>
          <Trackpoint>
            <Time>2022-09-18T11:30:48.000Z</Time>
            <Position>
              <LatitudeDegrees>49.3560212664306163787841796875</LatitudeDegrees>
              <LongitudeDegrees>19.95290969498455524444580078125</LongitudeDegrees>
            </Position>
            <AltitudeMeters>1023.79998779296875</AltitudeMeters>
            <DistanceMeters>4681.968119107</DistanceMeters>
          </Trackpoint>
          <Trackpoint>
            <Time>2022-09-18T11:30:54.000Z</Time>
            <Position>
              <LatitudeDegrees>49.35614422895014286041259765625</LatitudeDegrees>
              <LongitudeDegrees>19.9529676139354705810546875</LongitudeDegrees>
            </Position>
            <AltitudeMeters>1024</AltitudeMeters>
            <DistanceMeters>4696.2837603744</DistanceMeters>
          </Trackpoint>
          <Trackpoint>
            <Time>2022-09-18T11:30:55.000Z</Time>
            <Position>
              <LatitudeDegrees>49.356167279183864593505859375</LatitudeDegrees>
              <LongitudeDegrees>19.95297339744865894317626953125</LongitudeDegrees>
            </Position>
            <AltitudeMeters>1024</AltitudeMeters>
            <DistanceMeters>4698.8827019243</DistanceMeters>
          </Trackpoint>
          <Trackpoint>
            <Time>2022-09-18T11:31:00.000Z</Time>
            <Position>
              <LatitudeDegrees>49.35628001578152179718017578125</LatitudeDegrees>
              <LongitudeDegrees>19.95302922092378139495849609375</LongitudeDegrees>
            </Position>
            <AltitudeMeters>1024.199951171875</AltitudeMeters>
            <DistanceMeters>4712.067123472</DistanceMeters>
          </Trackpoint>
          <Trackpoint>
            <Time>2022-09-18T11:31:03.000Z</Time>
            <Position>
              <LatitudeDegrees>49.35633986257016658782958984375</LatitudeDegrees>
              <LongitudeDegrees>19.95305218733847141265869140625</LongitudeDegrees>
            </Position>
            <AltitudeMeters>1024.199951171875</AltitudeMeters>
            <DistanceMeters>4718.9334200803</DistanceMeters>
          </Trackpoint>
          <Trackpoint>
            <Time>2022-09-18T11:31:09.000Z</Time>
            <Position>
              <LatitudeDegrees>49.35647414065897464752197265625</LatitudeDegrees>
              <LongitudeDegrees>19.9531236849725246429443359375</LongitudeDegrees>
            </Position>
            <AltitudeMeters>1025</AltitudeMeters>
            <DistanceMeters>4734.7524427561</DistanceMeters>
          </Trackpoint>
          <Trackpoint>
            <Time>2022-09-18T11:31:10.000Z</Time>
            <Position>
              <LatitudeDegrees>49.35649291612207889556884765625</LatitudeDegrees>
              <LongitudeDegrees>19.9531337432563304901123046875</LongitudeDegrees>
            </Position>
            <AltitudeMeters>1025</AltitudeMeters>
            <DistanceMeters>4736.9688275569</DistanceMeters>
          </Trackpoint>
          <Trackpoint>
            <Time>2022-09-18T11:31:21.000Z</Time>
            <Position>
              <LatitudeDegrees>49.3567488156259059906005859375</LatitudeDegrees>
              <LongitudeDegrees>19.95325050316751003265380859375</LongitudeDegrees>
            </Position>
            <AltitudeMeters>1025.5999755859375</AltitudeMeters>
            <DistanceMeters>4766.6822695332</DistanceMeters>
          </Trackpoint>
          <Trackpoint>
            <Time>2022-09-18T11:31:25.000Z</Time>
            <Position>
              <LatitudeDegrees>49.3568282760679721832275390625</LatitudeDegrees>
              <LongitudeDegrees>19.9532913230359554290771484375</LongitudeDegrees>
            </Position>
            <AltitudeMeters>1026.199951171875</AltitudeMeters>
            <DistanceMeters>4776.0084529063</DistanceMeters>
          </Trackpoint>
          <Trackpoint>
            <Time>2022-09-18T11:31:28.000Z</Time>
            <Position>
              <LatitudeDegrees>49.35688921250402927398681640625</LatitudeDegrees>
              <LongitudeDegrees>19.95332174934446811676025390625</LongitudeDegrees>
            </Position>
            <AltitudeMeters>1026.5999755859375</AltitudeMeters>
            <DistanceMeters>4783.1398896853</DistanceMeters>
          </Trackpoint>
          <Trackpoint>
            <Time>2022-09-18T11:31:35.000Z</Time>
            <Position>
              <LatitudeDegrees>49.35703463852405548095703125</LatitudeDegrees>
              <LongitudeDegrees>19.95339115150272846221923828125</LongitudeDegrees>
            </Position>
            <AltitudeMeters>1027</AltitudeMeters>
            <DistanceMeters>4800.0898428457</DistanceMeters>
          </Trackpoint>
          <Trackpoint>
            <Time>2022-09-18T11:31:36.000Z</Time>
            <Position>
              <LatitudeDegrees>49.357055760920047760009765625</LatitudeDegrees>
              <LongitudeDegrees>19.9534009583294391632080078125</LongitudeDegrees>
            </Position>
            <AltitudeMeters>1027.199951171875</AltitudeMeters>
            <DistanceMeters>4802.545874414</DistanceMeters>
          </Trackpoint>
          <Trackpoint>
            <Time>2022-09-18T11:31:43.000Z</Time>
            <Position>
              <LatitudeDegrees>49.35720956884324550628662109375</LatitudeDegrees>
              <LongitudeDegrees>19.95345653034746646881103515625</LongitudeDegrees>
            </Position>
            <AltitudeMeters>1026.800048828125</AltitudeMeters>
            <DistanceMeters>4820.1327495873</DistanceMeters>
          </Trackpoint>
          <Trackpoint>
            <Time>2022-09-18T11:31:52.000Z</Time>
            <Position>
              <LatitudeDegrees>49.35740889050066471099853515625</LatitudeDegrees>
              <LongitudeDegrees>19.95356767438352108001708984375</LongitudeDegrees>
            </Position>
            <AltitudeMeters>1026.800048828125</AltitudeMeters>
            <DistanceMeters>4843.735556752</DistanceMeters>
          </Trackpoint>
          <Trackpoint>
            <Time>2022-09-18T11:32:03.000Z</Time>
            <Position>
              <LatitudeDegrees>49.35766353271901607513427734375</LatitudeDegrees>
              <LongitudeDegrees>19.95365216396749019622802734375</LongitudeDegrees>
            </Position>
            <AltitudeMeters>1027.800048828125</AltitudeMeters>
            <DistanceMeters>4872.7320987489</DistanceMeters>
          </Trackpoint>
          <Trackpoint>
            <Time>2022-09-18T11:32:07.000Z</Time>
            <Position>
              <LatitudeDegrees>49.3577921949326992034912109375</LatitudeDegrees>
              <LongitudeDegrees>19.95367831550538539886474609375</LongitudeDegrees>
            </Position>
            <AltitudeMeters>1027.199951171875</AltitudeMeters>
            <DistanceMeters>4887.1774096305</DistanceMeters>
          </Trackpoint>
          <Trackpoint>
            <Time>2022-09-18T11:32:08.000Z</Time>
            <Position>
              <LatitudeDegrees>49.3578267283737659454345703125</LatitudeDegrees>
              <LongitudeDegrees>19.95368083007633686065673828125</LongitudeDegrees>
            </Position>
            <AltitudeMeters>1027</AltitudeMeters>
            <DistanceMeters>4891.025698259</DistanceMeters>
          </Trackpoint>
          <Trackpoint>
            <Time>2022-09-18T11:32:12.000Z</Time>
            <Position>
              <LatitudeDegrees>49.3579901754856109619140625</LatitudeDegrees>
              <LongitudeDegrees>19.95371636934578418731689453125</LongitudeDegrees>
            </Position>
            <AltitudeMeters>1026.5999755859375</AltitudeMeters>
            <DistanceMeters>4909.3995502757</DistanceMeters>
          </Trackpoint>
          <Trackpoint>
            <Time>2022-09-18T11:32:13.000Z</Time>
            <Position>
              <LatitudeDegrees>49.35803216882050037384033203125</LatitudeDegrees>
              <LongitudeDegrees>19.9537238292396068572998046875</LongitudeDegrees>
            </Position>
            <AltitudeMeters>1026.4000244140625</AltitudeMeters>
            <DistanceMeters>4914.1050521024</DistanceMeters>
          </Trackpoint>
          <Trackpoint>
            <Time>2022-09-18T11:32:14.000Z</Time>
            <Position>
              <LatitudeDegrees>49.35807910747826099395751953125</LatitudeDegrees>
              <LongitudeDegrees>19.95373531244695186614990234375</LongitudeDegrees>
            </Position>
            <AltitudeMeters>1025.800048828125</AltitudeMeters>
            <DistanceMeters>4919.3959156403</DistanceMeters>
          </Trackpoint>
          <Trackpoint>
            <Time>2022-09-18T11:32:18.000Z</Time>
            <Position>
              <LatitudeDegrees>49.358279518783092498779296875</LatitudeDegrees>
              <LongitudeDegrees>19.953771941363811492919921875</LongitudeDegrees>
            </Position>
            <AltitudeMeters>1024.5999755859375</AltitudeMeters>
            <DistanceMeters>4941.8596359876</DistanceMeters>
          </Trackpoint>
          <Trackpoint>
            <Time>2022-09-18T11:32:19.000Z</Time>
            <Position>
              <LatitudeDegrees>49.35832285322248935699462890625</LatitudeDegrees>
              <LongitudeDegrees>19.95377428829669952392578125</LongitudeDegrees>
            </Position>
            <AltitudeMeters>1024.199951171875</AltitudeMeters>
            <DistanceMeters>4946.686394447</DistanceMeters>
          </Trackpoint>
          <Trackpoint>
            <Time>2022-09-18T11:32:20.000Z</Time>
            <Position>
              <LatitudeDegrees>49.35837398283183574676513671875</LatitudeDegrees>
              <LongitudeDegrees>19.9537865258753299713134765625</LongitudeDegrees>
            </Position>
            <AltitudeMeters>1023.4000244140625</AltitudeMeters>
            <DistanceMeters>4952.4462990343</DistanceMeters>
          </Trackpoint>
          <Trackpoint>
            <Time>2022-09-18T11:32:25.000Z</Time>
            <Position>
              <LatitudeDegrees>49.3586312234401702880859375</LatitudeDegrees>
              <LongitudeDegrees>19.953811503946781158447265625</LongitudeDegrees>
            </Position>
            <AltitudeMeters>1022.4000244140625</AltitudeMeters>
            <DistanceMeters>4981.1349254812</DistanceMeters>
          </Trackpoint>
          <Trackpoint>
            <Time>2022-09-18T11:32:27.000Z</Time>
            <Position>
              <LatitudeDegrees>49.3587319739162921905517578125</LatitudeDegrees>
              <LongitudeDegrees>19.953835308551788330078125</LongitudeDegrees>
            </Position>
            <AltitudeMeters>1022.79998779296875</AltitudeMeters>
            <DistanceMeters>4992.4801760131</DistanceMeters>
          </Trackpoint>
          <Trackpoint>
            <Time>2022-09-18T11:32:29.000Z</Time>
            <Position>
              <LatitudeDegrees>49.358830712735652923583984375</LatitudeDegrees>
              <LongitudeDegrees>19.95384494774043560028076171875</LongitudeDegrees>
            </Position>
            <AltitudeMeters>1023</AltitudeMeters>
            <DistanceMeters>5003.4926201851</DistanceMeters>
          </Trackpoint>
          <Trackpoint>
            <Time>2022-09-18T11:32:33.000Z</Time>
            <Position>
              <LatitudeDegrees>49.35901335440576076507568359375</LatitudeDegrees>
              <LongitudeDegrees>19.95386992581188678741455078125</LongitudeDegrees>
            </Position>
            <AltitudeMeters>1023.4000244140625</AltitudeMeters>
            <DistanceMeters>5023.9014738044</DistanceMeters>
          </Trackpoint>
          <Trackpoint>
            <Time>2022-09-18T11:32:34.000Z</Time>
            <Position>
              <LatitudeDegrees>49.35905409045517444610595703125</LatitudeDegrees>
              <LongitudeDegrees>19.95387847535312175750732421875</LongitudeDegrees>
            </Position>
            <AltitudeMeters>1023.5999755859375</AltitudeMeters>
            <DistanceMeters>5028.4775799301</DistanceMeters>
          </Trackpoint>
          <Trackpoint>
            <Time>2022-09-18T11:32:36.000Z</Time>
            <Position>
              <LatitudeDegrees>49.359131790697574615478515625</LatitudeDegrees>
              <LongitudeDegrees>19.95388065464794635772705078125</LongitudeDegrees>
            </Position>
            <AltitudeMeters>1024</AltitudeMeters>
            <DistanceMeters>5037.1276211679</DistanceMeters>
          </Trackpoint>
          <Trackpoint>
            <Time>2022-09-18T11:32:39.000Z</Time>
            <Position>
              <LatitudeDegrees>49.35923807322978973388671875</LatitudeDegrees>
              <LongitudeDegrees>19.95389121584594249725341796875</LongitudeDegrees>
            </Position>
            <AltitudeMeters>1024</AltitudeMeters>
            <DistanceMeters>5048.981989545</DistanceMeters>
          </Trackpoint>
          <Trackpoint>
            <Time>2022-09-18T11:32:44.000Z</Time>
            <Position>
              <LatitudeDegrees>49.35938618145883083343505859375</LatitudeDegrees>
              <LongitudeDegrees>19.95392709039151668548583984375</LongitudeDegrees>
            </Position>
            <AltitudeMeters>1023.4000244140625</AltitudeMeters>
            <DistanceMeters>5065.6707476702</DistanceMeters>
          </Trackpoint>
          <Trackpoint>
            <Time>2022-09-18T11:32:50.000Z</Time>
            <Position>
              <LatitudeDegrees>49.359526075422763824462890625</LatitudeDegrees>
              <LongitudeDegrees>19.953971095383167266845703125</LongitudeDegrees>
            </Position>
            <AltitudeMeters>1024.199951171875</AltitudeMeters>
            <DistanceMeters>5081.5649421637</DistanceMeters>
          </Trackpoint>
          <Trackpoint>
            <Time>2022-09-18T11:32:51.000Z</Time>
            <Position>
              <LatitudeDegrees>49.35954459942877292633056640625</LatitudeDegrees>
              <LongitudeDegrees>19.953977130353450775146484375</LongitudeDegrees>
            </Position>
            <AltitudeMeters>1024.4000244140625</AltitudeMeters>
            <DistanceMeters>5083.6727366533</DistanceMeters>
          </Trackpoint>
          <Trackpoint>
            <Time>2022-09-18T11:32:57.000Z</Time>
            <Position>
              <LatitudeDegrees>49.35969631187617778778076171875</LatitudeDegrees>
              <LongitudeDegrees>19.954056926071643829345703125</LongitudeDegrees>
            </Position>
            <AltitudeMeters>1024.800048828125</AltitudeMeters>
            <DistanceMeters>5101.5220827784</DistanceMeters>
          </Trackpoint>
          <Trackpoint>
            <Time>2022-09-18T11:33:05.000Z</Time>
            <Position>
              <LatitudeDegrees>49.35992782004177570343017578125</LatitudeDegrees>
              <LongitudeDegrees>19.95419799350202083587646484375</LongitudeDegrees>
            </Position>
            <AltitudeMeters>1024.5999755859375</AltitudeMeters>
            <DistanceMeters>5129.2443250383</DistanceMeters>
          </Trackpoint>
          <Trackpoint>
            <Time>2022-09-18T11:33:13.000Z</Time>
            <Position>
              <LatitudeDegrees>49.36018095351755619049072265625</LatitudeDegrees>
              <LongitudeDegrees>19.9543608538806438446044921875</LongitudeDegrees>
            </Position>
            <AltitudeMeters>1024.4000244140625</AltitudeMeters>
            <DistanceMeters>5159.7921252819</DistanceMeters>
          </Trackpoint>
          <Trackpoint>
            <Time>2022-09-18T11:33:20.000Z</Time>
            <Position>
              <LatitudeDegrees>49.3603865616023540496826171875</LatitudeDegrees>
              <LongitudeDegrees>19.95447811670601367950439453125</LongitudeDegrees>
            </Position>
            <AltitudeMeters>1024.4000244140625</AltitudeMeters>
            <DistanceMeters>5184.2045603335</DistanceMeters>
          </Trackpoint>
          <Trackpoint>
            <Time>2022-09-18T11:33:29.000Z</Time>
            <Position>
              <LatitudeDegrees>49.36063843779265880584716796875</LatitudeDegrees>
              <LongitudeDegrees>19.95463787578046321868896484375</LongitudeDegrees>
            </Position>
            <AltitudeMeters>1023.20001220703125</AltitudeMeters>
            <DistanceMeters>5214.5366945903</DistanceMeters>
          </Trackpoint>
          <Trackpoint>
            <Time>2022-09-18T11:33:30.000Z</Time>
            <Position>
              <LatitudeDegrees>49.36066567897796630859375</LatitudeDegrees>
              <LongitudeDegrees>19.95465799234807491302490234375</LongitudeDegrees>
            </Position>
            <AltitudeMeters>1022.79998779296875</AltitudeMeters>
            <DistanceMeters>5217.9017675257</DistanceMeters>
          </Trackpoint>
          <Trackpoint>
            <Time>2022-09-18T11:33:33.000Z</Time>
            <Position>
              <LatitudeDegrees>49.3607580475509166717529296875</LatitudeDegrees>
              <LongitudeDegrees>19.95472110807895660400390625</LongitudeDegrees>
            </Position>
            <AltitudeMeters>1022</AltitudeMeters>
            <DistanceMeters>5229.1543108781</DistanceMeters>
          </Trackpoint>
          <Trackpoint>
            <Time>2022-09-18T11:33:40.000Z</Time>
            <Position>
              <LatitudeDegrees>49.36097203753888607025146484375</LatitudeDegrees>
              <LongitudeDegrees>19.95489184744656085968017578125</LongitudeDegrees>
            </Position>
            <AltitudeMeters>1021.79998779296875</AltitudeMeters>
            <DistanceMeters>5255.9957834361</DistanceMeters>
          </Trackpoint>
          <Trackpoint>
            <Time>2022-09-18T11:33:47.000Z</Time>
            <Position>
              <LatitudeDegrees>49.3612458743155002593994140625</LatitudeDegrees>
              <LongitudeDegrees>19.95512234978377819061279296875</LongitudeDegrees>
            </Position>
            <AltitudeMeters>1021.79998779296875</AltitudeMeters>
            <DistanceMeters>5290.7540044412</DistanceMeters>
          </Trackpoint>
          <Trackpoint>
            <Time>2022-09-18T11:33:52.000Z</Time>
            <Position>
              <LatitudeDegrees>49.3614748679101467132568359375</LatitudeDegrees>
              <LongitudeDegrees>19.9552996270358562469482421875</LongitudeDegrees>
            </Position>
            <AltitudeMeters>1021</AltitudeMeters>
            <DistanceMeters>5319.2977897058</DistanceMeters>
          </Trackpoint>
          <Trackpoint>
            <Time>2022-09-18T11:33:54.000Z</Time>
            <Position>
              <LatitudeDegrees>49.36155357398092746734619140625</LatitudeDegrees>
              <LongitudeDegrees>19.95535436086356639862060546875</LongitudeDegrees>
            </Position>
            <AltitudeMeters>1020.79998779296875</AltitudeMeters>
            <DistanceMeters>5328.914286618</DistanceMeters>
          </Trackpoint>
          <Trackpoint>
            <Time>2022-09-18T11:33:58.000Z</Time>
            <Position>
              <LatitudeDegrees>49.36171769164502620697021484375</LatitudeDegrees>
              <LongitudeDegrees>19.95547640137374401092529296875</LongitudeDegrees>
            </Position>
            <AltitudeMeters>1022</AltitudeMeters>
            <DistanceMeters>5349.2104445604</DistanceMeters>
          </Trackpoint>
          <Trackpoint>
            <Time>2022-09-18T11:33:59.000Z</Time>
            <Position>
              <LatitudeDegrees>49.36175507493317127227783203125</LatitudeDegrees>
              <LongitudeDegrees>19.95550431311130523681640625</LongitudeDegrees>
            </Position>
            <AltitudeMeters>1022</AltitudeMeters>
            <DistanceMeters>5353.8365964355</DistanceMeters>
          </Trackpoint>
          <Trackpoint>
            <Time>2022-09-18T11:34:01.000Z</Time>
            <Position>
              <LatitudeDegrees>49.36182447709143161773681640625</LatitudeDegrees>
              <LongitudeDegrees>19.95554588735103607177734375</LongitudeDegrees>
            </Position>
            <AltitudeMeters>1020.5999755859375</AltitudeMeters>
            <DistanceMeters>5362.1273709404</DistanceMeters>
          </Trackpoint>
          <Trackpoint>
            <Time>2022-09-18T11:34:03.000Z</Time>
            <Position>
              <LatitudeDegrees>49.36190024949610233306884765625</LatitudeDegrees>
              <LongitudeDegrees>19.95560011826455593109130859375</LongitudeDegrees>
            </Position>
            <AltitudeMeters>1019</AltitudeMeters>
            <DistanceMeters>5371.4322284324</DistanceMeters>
          </Trackpoint>
          <Trackpoint>
            <Time>2022-09-18T11:34:07.000Z</Time>
            <Position>
              <LatitudeDegrees>49.362022541463375091552734375</LatitudeDegrees>
              <LongitudeDegrees>19.955699108541011810302734375</LongitudeDegrees>
            </Position>
            <AltitudeMeters>1019.20001220703125</AltitudeMeters>
            <DistanceMeters>5386.8192221051</DistanceMeters>
          </Trackpoint>
          <Trackpoint>
            <Time>2022-09-18T11:34:09.000Z</Time>
            <Position>
              <LatitudeDegrees>49.36209437437355518341064453125</LatitudeDegrees>
              <LongitudeDegrees>19.9557542614638805389404296875</LongitudeDegrees>
            </Position>
            <AltitudeMeters>1020</AltitudeMeters>
            <DistanceMeters>5395.7577967328</DistanceMeters>
          </Trackpoint>
          <Trackpoint>
            <Time>2022-09-18T11:34:11.000Z</Time>
            <Position>
              <LatitudeDegrees>49.36215874738991260528564453125</LatitudeDegrees>
              <LongitudeDegrees>19.9557998590171337127685546875</LongitudeDegrees>
            </Position>
            <AltitudeMeters>1020.4000244140625</AltitudeMeters>
            <DistanceMeters>5403.6478757568</DistanceMeters>
          </Trackpoint>
          <Trackpoint>
            <Time>2022-09-18T11:34:15.000Z</Time>
            <Position>
              <LatitudeDegrees>49.36228548176586627960205078125</LatitudeDegrees>
              <LongitudeDegrees>19.955870769917964935302734375</LongitudeDegrees>
            </Position>
            <AltitudeMeters>1021.20001220703125</AltitudeMeters>
            <DistanceMeters>5418.6608937093</DistanceMeters>
          </Trackpoint>
          <Trackpoint>
            <Time>2022-09-18T11:34:17.000Z</Time>
            <Position>
              <LatitudeDegrees>49.36234985478222370147705078125</LatitudeDegrees>
              <LongitudeDegrees>19.95591871440410614013671875</LongitudeDegrees>
            </Position>
            <AltitudeMeters>1021.4000244140625</AltitudeMeters>
            <DistanceMeters>5426.6244498788</DistanceMeters>
          </Trackpoint>
          <Trackpoint>
            <Time>2022-09-18T11:34:25.000Z</Time>
            <Position>
              <LatitudeDegrees>49.36258790083229541778564453125</LatitudeDegrees>
              <LongitudeDegrees>19.9561146833002567291259765625</LongitudeDegrees>
            </Position>
            <AltitudeMeters>1020.4000244140625</AltitudeMeters>
            <DistanceMeters>5456.6874542359</DistanceMeters>
          </Trackpoint>
          <Trackpoint>
            <Time>2022-09-18T11:34:33.000Z</Time>
            <Position>
              <LatitudeDegrees>49.36287020333111286163330078125</LatitudeDegrees>
              <LongitudeDegrees>19.956325404345989227294921875</LongitudeDegrees>
            </Position>
            <AltitudeMeters>1020.20001220703125</AltitudeMeters>
            <DistanceMeters>5491.6242167187</DistanceMeters>
          </Trackpoint>
          <Trackpoint>
            <Time>2022-09-18T11:34:34.000Z</Time>
            <Position>
              <LatitudeDegrees>49.36289920471608638763427734375</LatitudeDegrees>
              <LongitudeDegrees>19.956346862018108367919921875</LongitudeDegrees>
            </Position>
            <AltitudeMeters>1020.20001220703125</AltitudeMeters>
            <DistanceMeters>5495.2076185526</DistanceMeters>
          </Trackpoint>
          <Trackpoint>
            <Time>2022-09-18T11:34:39.000Z</Time>
            <Position>
              <LatitudeDegrees>49.3630905635654926300048828125</LatitudeDegrees>
              <LongitudeDegrees>19.95649513788521289825439453125</LongitudeDegrees>
            </Position>
            <AltitudeMeters>1019</AltitudeMeters>
            <DistanceMeters>5519.0646235655</DistanceMeters>
          </Trackpoint>
          <Trackpoint>
            <Time>2022-09-18T11:34:41.000Z</Time>
            <Position>
              <LatitudeDegrees>49.363163821399211883544921875</LatitudeDegrees>
              <LongitudeDegrees>19.95655666105449199676513671875</LongitudeDegrees>
            </Position>
            <AltitudeMeters>1018.4000244140625</AltitudeMeters>
            <DistanceMeters>5528.3587997669</DistanceMeters>
          </Trackpoint>
          <Trackpoint>
            <Time>2022-09-18T11:34:43.000Z</Time>
            <Position>
              <LatitudeDegrees>49.36323045752942562103271484375</LatitudeDegrees>
              <LongitudeDegrees>19.95661147870123386383056640625</LongitudeDegrees>
            </Position>
            <AltitudeMeters>1018</AltitudeMeters>
            <DistanceMeters>5536.7728237341</DistanceMeters>
          </Trackpoint>
          <Trackpoint>
            <Time>2022-09-18T11:34:50.000Z</Time>
            <Position>
              <LatitudeDegrees>49.3634752929210662841796875</LatitudeDegrees>
              <LongitudeDegrees>19.95677794329822063446044921875</LongitudeDegrees>
            </Position>
            <AltitudeMeters>1017.5999755859375</AltitudeMeters>
            <DistanceMeters>5566.5754799753</DistanceMeters>
          </Trackpoint>
          <Trackpoint>
            <Time>2022-09-18T11:34:57.000Z</Time>
            <Position>
              <LatitudeDegrees>49.3637366406619548797607421875</LatitudeDegrees>
              <LongitudeDegrees>19.95684801600873470306396484375</LongitudeDegrees>
            </Position>
            <AltitudeMeters>1018</AltitudeMeters>
            <DistanceMeters>5596.104180953</DistanceMeters>
          </Trackpoint>
          <Trackpoint>
            <Time>2022-09-18T11:35:04.000Z</Time>
            <Position>
              <LatitudeDegrees>49.36406143940985202789306640625</LatitudeDegrees>
              <LongitudeDegrees>19.9569118022918701171875</LongitudeDegrees>
            </Position>
            <AltitudeMeters>1016.79998779296875</AltitudeMeters>
            <DistanceMeters>5632.5494966242</DistanceMeters>
          </Trackpoint>
          <Trackpoint>
            <Time>2022-09-18T11:35:05.000Z</Time>
            <Position>
              <LatitudeDegrees>49.36411474831402301788330078125</LatitudeDegrees>
              <LongitudeDegrees>19.9569210223853588104248046875</LongitudeDegrees>
            </Position>
            <AltitudeMeters>1015.5999755859375</AltitudeMeters>
            <DistanceMeters>5638.5203208387</DistanceMeters>
          </Trackpoint>
          <Trackpoint>
            <Time>2022-09-18T11:35:06.000Z</Time>
            <Position>
              <LatitudeDegrees>49.36416772194206714630126953125</LatitudeDegrees>
              <LongitudeDegrees>19.9569361098110675811767578125</LongitudeDegrees>
            </Position>
            <AltitudeMeters>1014.5999755859375</AltitudeMeters>
            <DistanceMeters>5644.5168001724</DistanceMeters>
          </Trackpoint>
          <Trackpoint>
            <Time>2022-09-18T11:35:08.000Z</Time>
            <Position>
              <LatitudeDegrees>49.36428523622453212738037109375</LatitudeDegrees>
              <LongitudeDegrees>19.95695748366415500640869140625</LongitudeDegrees>
            </Position>
            <AltitudeMeters>1013</AltitudeMeters>
            <DistanceMeters>5657.6882020964</DistanceMeters>
          </Trackpoint>
          <Trackpoint>
            <Time>2022-09-18T11:35:12.000Z</Time>
            <Position>
              <LatitudeDegrees>49.3645439855754375457763671875</LatitudeDegrees>
              <LongitudeDegrees>19.9570148997008800506591796875</LongitudeDegrees>
            </Position>
            <AltitudeMeters>1012</AltitudeMeters>
            <DistanceMeters>5686.7865551055</DistanceMeters>
          </Trackpoint>
          <Trackpoint>
            <Time>2022-09-18T11:35:14.000Z</Time>
            <Position>
              <LatitudeDegrees>49.36467566527426242828369140625</LatitudeDegrees>
              <LongitudeDegrees>19.9570490978658199310302734375</LongitudeDegrees>
            </Position>
            <AltitudeMeters>1010.4000244140625</AltitudeMeters>
            <DistanceMeters>5701.6508717878</DistanceMeters>
          </Trackpoint>
          <Trackpoint>
            <Time>2022-09-18T11:35:15.000Z</Time>
            <Position>
              <LatitudeDegrees>49.36473785899579524993896484375</LatitudeDegrees>
              <LongitudeDegrees>19.9570633471012115478515625</LongitudeDegrees>
            </Position>
            <AltitudeMeters>1009.4000244140625</AltitudeMeters>
            <DistanceMeters>5708.6506714124</DistanceMeters>
          </Trackpoint>
          <Trackpoint>
            <Time>2022-09-18T11:35:19.000Z</Time>
            <Position>
              <LatitudeDegrees>49.3649563752114772796630859375</LatitudeDegrees>
              <LongitudeDegrees>19.95710953138768672943115234375</LongitudeDegrees>
            </Position>
            <AltitudeMeters>1008.4000244140625</AltitudeMeters>
            <DistanceMeters>5733.2012419232</DistanceMeters>
          </Trackpoint>
          <Trackpoint>
            <Time>2022-09-18T11:35:26.000Z</Time>
            <Position>
              <LatitudeDegrees>49.3653600476682186126708984375</LatitudeDegrees>
              <LongitudeDegrees>19.9572033248841762542724609375</LongitudeDegrees>
            </Position>
            <AltitudeMeters>1008.5999755859375</AltitudeMeters>
            <DistanceMeters>5778.6422973719</DistanceMeters>
          </Trackpoint>
          <Trackpoint>
            <Time>2022-09-18T11:35:29.000Z</Time>
            <Position>
              <LatitudeDegrees>49.36553279869258403778076171875</LatitudeDegrees>
              <LongitudeDegrees>19.95726057328283786773681640625</LongitudeDegrees>
            </Position>
            <AltitudeMeters>1008.5999755859375</AltitudeMeters>
            <DistanceMeters>5798.3125977121</DistanceMeters>
          </Trackpoint>
          <Trackpoint>
            <Time>2022-09-18T11:35:32.000Z</Time>
            <Position>
              <LatitudeDegrees>49.36571736820042133331298828125</LatitudeDegrees>
              <LongitudeDegrees>19.957349002361297607421875</LongitudeDegrees>
            </Position>
            <AltitudeMeters>1008</AltitudeMeters>
            <DistanceMeters>5819.8321100271</DistanceMeters>
          </Trackpoint>
          <Trackpoint>
            <Time>2022-09-18T11:35:39.000Z</Time>
            <Position>
              <LatitudeDegrees>49.36608600430190563201904296875</LatitudeDegrees>
              <LongitudeDegrees>19.95759249664843082427978515625</LongitudeDegrees>
            </Position>
            <AltitudeMeters>1007</AltitudeMeters>
            <DistanceMeters>5864.4968897552</DistanceMeters>
          </Trackpoint>
          <Trackpoint>
            <Time>2022-09-18T11:35:40.000Z</Time>
            <Position>
              <LatitudeDegrees>49.366135708987712860107421875</LatitudeDegrees>
              <LongitudeDegrees>19.95762535370886325836181640625</LongitudeDegrees>
            </Position>
            <AltitudeMeters>1006.79998779296875</AltitudeMeters>
            <DistanceMeters>5870.5196646202</DistanceMeters>
          </Trackpoint>
          <Trackpoint>
            <Time>2022-09-18T11:35:46.000Z</Time>
            <Position>
              <LatitudeDegrees>49.36639462597668170928955078125</LatitudeDegrees>
              <LongitudeDegrees>19.95780623517930507659912109375</LongitudeDegrees>
            </Position>
            <AltitudeMeters>1006</AltitudeMeters>
            <DistanceMeters>5902.1796795513</DistanceMeters>
          </Trackpoint>
          <Trackpoint>
            <Time>2022-09-18T11:35:51.000Z</Time>
            <Position>
              <LatitudeDegrees>49.36658062040805816650390625</LatitudeDegrees>
              <LongitudeDegrees>19.957920648157596588134765625</LongitudeDegrees>
            </Position>
            <AltitudeMeters>1004.79998779296875</AltitudeMeters>
            <DistanceMeters>5924.4804066712</DistanceMeters>
          </Trackpoint>
          <Trackpoint>
            <Time>2022-09-18T11:35:52.000Z</Time>
            <Position>
              <LatitudeDegrees>49.36660819686949253082275390625</LatitudeDegrees>
              <LongitudeDegrees>19.95793632231652736663818359375</LongitudeDegrees>
            </Position>
            <AltitudeMeters>1004.5999755859375</AltitudeMeters>
            <DistanceMeters>5927.752969988</DistanceMeters>
          </Trackpoint>
          <Trackpoint>
            <Time>2022-09-18T11:35:56.000Z</Time>
            <Position>
              <LatitudeDegrees>49.36672135256230831146240234375</LatitudeDegrees>
              <LongitudeDegrees>19.9579940736293792724609375</LongitudeDegrees>
            </Position>
            <AltitudeMeters>1003.4000244140625</AltitudeMeters>
            <DistanceMeters>5941.0247698326</DistanceMeters>
          </Trackpoint>
          <Trackpoint>
            <Time>2022-09-18T11:35:59.000Z</Time>
            <Position>
              <LatitudeDegrees>49.366777427494525909423828125</LatitudeDegrees>
              <LongitudeDegrees>19.9580341391265392303466796875</LongitudeDegrees>
            </Position>
            <AltitudeMeters>1003</AltitudeMeters>
            <DistanceMeters>5947.9087978088</DistanceMeters>
          </Trackpoint>
          <Trackpoint>
            <Time>2022-09-18T11:36:03.000Z</Time>
            <Position>
              <LatitudeDegrees>49.36683836393058300018310546875</LatitudeDegrees>
              <LongitudeDegrees>19.95808518491685390472412109375</LongitudeDegrees>
            </Position>
            <AltitudeMeters>1002.4000244140625</AltitudeMeters>
            <DistanceMeters>5955.6346508552</DistanceMeters>
          </Trackpoint>
          <Trackpoint>
            <Time>2022-09-18T11:36:07.000Z</Time>
            <Position>
              <LatitudeDegrees>49.36689938418567180633544921875</LatitudeDegrees>
              <LongitudeDegrees>19.9581293575465679168701171875</LongitudeDegrees>
            </Position>
            <AltitudeMeters>1001.5999755859375</AltitudeMeters>
            <DistanceMeters>5963.1435653784</DistanceMeters>
          </Trackpoint>
          <Trackpoint>
            <Time>2022-09-18T11:36:08.000Z</Time>
            <Position>
              <LatitudeDegrees>49.3669117055833339691162109375</LatitudeDegrees>
              <LongitudeDegrees>19.9581374041736125946044921875</LongitudeDegrees>
            </Position>
            <AltitudeMeters>1001.4000244140625</AltitudeMeters>
            <DistanceMeters>5964.6340011554</DistanceMeters>
          </Trackpoint>
          <Trackpoint>
            <Time>2022-09-18T11:36:11.000Z</Time>
            <Position>
              <LatitudeDegrees>49.366965182125568389892578125</LatitudeDegrees>
              <LongitudeDegrees>19.95817017741501331329345703125</LongitudeDegrees>
            </Position>
            <AltitudeMeters>1000.20001220703125</AltitudeMeters>
            <DistanceMeters>5971.0431990571</DistanceMeters>
          </Trackpoint>
          <Trackpoint>
            <Time>2022-09-18T11:36:12.000Z</Time>
            <Position>
              <LatitudeDegrees>49.36698320321738719940185546875</LatitudeDegrees>
              <LongitudeDegrees>19.9581796489655971527099609375</LongitudeDegrees>
            </Position>
            <AltitudeMeters>1000</AltitudeMeters>
            <DistanceMeters>5973.1638070051</DistanceMeters>
          </Trackpoint>
          <Trackpoint>
            <Time>2022-09-18T11:36:16.000Z</Time>
            <Position>
              <LatitudeDegrees>49.36705595813691616058349609375</LatitudeDegrees>
              <LongitudeDegrees>19.95823220349848270416259765625</LongitudeDegrees>
            </Position>
            <AltitudeMeters>999.20001220703125</AltitudeMeters>
            <DistanceMeters>5982.1134873378</DistanceMeters>
          </Trackpoint>
          <Trackpoint>
            <Time>2022-09-18T11:36:17.000Z</Time>
            <Position>
              <LatitudeDegrees>49.36707473360002040863037109375</LatitudeDegrees>
              <LongitudeDegrees>19.95824377052485942840576171875</LongitudeDegrees>
            </Position>
            <AltitudeMeters>999.20001220703125</AltitudeMeters>
            <DistanceMeters>5984.3662418654</DistanceMeters>
          </Trackpoint>
          <Trackpoint>
            <Time>2022-09-18T11:36:24.000Z</Time>
            <Position>
              <LatitudeDegrees>49.36721772886812686920166015625</LatitudeDegrees>
              <LongitudeDegrees>19.95832943357527256011962890625</LongitudeDegrees>
            </Position>
            <AltitudeMeters>998.20001220703125</AltitudeMeters>
            <DistanceMeters>6001.4501846405</DistanceMeters>
          </Trackpoint>
          <Trackpoint>
            <Time>2022-09-18T11:36:25.000Z</Time>
            <Position>
              <LatitudeDegrees>49.36723868362605571746826171875</LatitudeDegrees>
              <LongitudeDegrees>19.95834653265774250030517578125</LongitudeDegrees>
            </Position>
            <AltitudeMeters>998</AltitudeMeters>
            <DistanceMeters>6004.0904912543</DistanceMeters>
          </Trackpoint>
          <Trackpoint>
            <Time>2022-09-18T11:36:28.000Z</Time>
            <Position>
              <LatitudeDegrees>49.36729802750051021575927734375</LatitudeDegrees>
              <LongitudeDegrees>19.9583885259926319122314453125</LongitudeDegrees>
            </Position>
            <AltitudeMeters>996.79998779296875</AltitudeMeters>
            <DistanceMeters>6011.3636052922</DistanceMeters>
          </Trackpoint>
          <Trackpoint>
            <Time>2022-09-18T11:36:32.000Z</Time>
            <Position>
              <LatitudeDegrees>49.3673582933843135833740234375</LatitudeDegrees>
              <LongitudeDegrees>19.95843571610748767852783203125</LongitudeDegrees>
            </Position>
            <AltitudeMeters>996.20001220703125</AltitudeMeters>
            <DistanceMeters>6018.8929359341</DistanceMeters>
          </Trackpoint>
          <Trackpoint>
            <Time>2022-09-18T11:36:33.000Z</Time>
            <Position>
              <LatitudeDegrees>49.36737530864775180816650390625</LatitudeDegrees>
              <LongitudeDegrees>19.9584482051432132720947265625</LongitudeDegrees>
            </Position>
            <AltitudeMeters>995.79998779296875</AltitudeMeters>
            <DistanceMeters>6020.9921446671</DistanceMeters>
          </Trackpoint>
          <Trackpoint>
            <Time>2022-09-18T11:36:34.000Z</Time>
            <Position>
              <LatitudeDegrees>49.3673864565789699554443359375</LatitudeDegrees>
              <LongitudeDegrees>19.958455078303813934326171875</LongitudeDegrees>
            </Position>
            <AltitudeMeters>995.5999755859375</AltitudeMeters>
            <DistanceMeters>6022.3292890632</DistanceMeters>
          </Trackpoint>
          <Trackpoint>
            <Time>2022-09-18T11:36:38.000Z</Time>
            <Position>
              <LatitudeDegrees>49.36743951402604579925537109375</LatitudeDegrees>
              <LongitudeDegrees>19.95850729756057262420654296875</LongitudeDegrees>
            </Position>
            <AltitudeMeters>994.79998779296875</AltitudeMeters>
            <DistanceMeters>6029.3445521815</DistanceMeters>
          </Trackpoint>
          <Trackpoint>
            <Time>2022-09-18T11:36:39.000Z</Time>
            <Position>
              <LatitudeDegrees>49.36744839884340763092041015625</LatitudeDegrees>
              <LongitudeDegrees>19.9585119076073169708251953125</LongitudeDegrees>
            </Position>
            <AltitudeMeters>994.5999755859375</AltitudeMeters>
            <DistanceMeters>6030.3898460396</DistanceMeters>
          </Trackpoint>
          <Trackpoint>
            <Time>2022-09-18T11:36:40.000Z</Time>
            <Position>
              <LatitudeDegrees>49.367450661957263946533203125</LatitudeDegrees>
              <LongitudeDegrees>19.9585112370550632476806640625</LongitudeDegrees>
            </Position>
            <AltitudeMeters>994.4000244140625</AltitudeMeters>
            <DistanceMeters>6030.6586221761</DistanceMeters>
          </Trackpoint>
          <Trackpoint>
            <Time>2022-09-18T11:36:47.000Z</Time>
            <Position>
              <LatitudeDegrees>49.36744940467178821563720703125</LatitudeDegrees>
              <LongitudeDegrees>19.95851777493953704833984375</LongitudeDegrees>
            </Position>
            <AltitudeMeters>994.5999755859375</AltitudeMeters>
            <DistanceMeters>6031.1523954682</DistanceMeters>
          </Trackpoint>
          <Trackpoint>
            <Time>2022-09-18T11:36:50.000Z</Time>
            <Position>
              <LatitudeDegrees>49.36744940467178821563720703125</LatitudeDegrees>
              <LongitudeDegrees>19.95851777493953704833984375</LongitudeDegrees>
            </Position>
            <AltitudeMeters>994.20001220703125</AltitudeMeters>
            <DistanceMeters>6031.1523954682</DistanceMeters>
          </Trackpoint>
          <Trackpoint>
            <Time>2022-09-18T11:36:58.000Z</Time>
            <Position>
              <LatitudeDegrees>49.36744940467178821563720703125</LatitudeDegrees>
              <LongitudeDegrees>19.95851777493953704833984375</LongitudeDegrees>
            </Position>
            <AltitudeMeters>994.20001220703125</AltitudeMeters>
            <DistanceMeters>6031.1523954682</DistanceMeters>
          </Trackpoint>
          <Trackpoint>
            <Time>2022-09-18T11:37:03.000Z</Time>
            <Position>
              <LatitudeDegrees>49.36744940467178821563720703125</LatitudeDegrees>
              <LongitudeDegrees>19.95851777493953704833984375</LongitudeDegrees>
            </Position>
            <AltitudeMeters>994</AltitudeMeters>
            <DistanceMeters>6031.1523954682</DistanceMeters>
          </Trackpoint>
          <Trackpoint>
            <Time>2022-09-18T11:37:05.000Z</Time>
            <Position>
              <LatitudeDegrees>49.3674491532146930694580078125</LatitudeDegrees>
              <LongitudeDegrees>19.95851836167275905609130859375</LongitudeDegrees>
            </Position>
            <AltitudeMeters>993.79998779296875</AltitudeMeters>
            <DistanceMeters>6031.1523954682</DistanceMeters>
          </Trackpoint>
          <Trackpoint>
            <Time>2022-09-18T11:37:10.000Z</Time>
            <Position>
              <LatitudeDegrees>49.3674491532146930694580078125</LatitudeDegrees>
              <LongitudeDegrees>19.95851836167275905609130859375</LongitudeDegrees>
            </Position>
            <AltitudeMeters>993.79998779296875</AltitudeMeters>
            <DistanceMeters>6031.2474221826</DistanceMeters>
          </Trackpoint>
          <Trackpoint>
            <Time>2022-09-18T11:37:14.000Z</Time>
            <Position>
              <LatitudeDegrees>49.3674491532146930694580078125</LatitudeDegrees>
              <LongitudeDegrees>19.95851836167275905609130859375</LongitudeDegrees>
            </Position>
            <AltitudeMeters>993.79998779296875</AltitudeMeters>
            <DistanceMeters>6031.3424488969</DistanceMeters>
          </Trackpoint>
          <Trackpoint>
            <Time>2022-09-18T11:37:24.000Z</Time>
            <Position>
              <LatitudeDegrees>49.3674468062818050384521484375</LatitudeDegrees>
              <LongitudeDegrees>19.958523809909820556640625</LongitudeDegrees>
            </Position>
            <AltitudeMeters>993.4000244140625</AltitudeMeters>
            <DistanceMeters>6031.8175824688</DistanceMeters>
          </Trackpoint>
          <Trackpoint>
            <Time>2022-09-18T11:37:25.000Z</Time>
            <Position>
              <LatitudeDegrees>49.3674468062818050384521484375</LatitudeDegrees>
              <LongitudeDegrees>19.958523809909820556640625</LongitudeDegrees>
            </Position>
            <AltitudeMeters>993.4000244140625</AltitudeMeters>
            <DistanceMeters>6031.8175824688</DistanceMeters>
          </Trackpoint>
          <Trackpoint>
            <Time>2022-09-18T11:37:32.000Z</Time>
            <Position>
              <LatitudeDegrees>49.3674468062818050384521484375</LatitudeDegrees>
              <LongitudeDegrees>19.958523809909820556640625</LongitudeDegrees>
            </Position>
            <AltitudeMeters>993.20001220703125</AltitudeMeters>
            <DistanceMeters>6031.8175824688</DistanceMeters>
          </Trackpoint>
          <Trackpoint>
            <Time>2022-09-18T11:37:48.000Z</Time>
            <Position>
              <LatitudeDegrees>49.3674468062818050384521484375</LatitudeDegrees>
              <LongitudeDegrees>19.958523809909820556640625</LongitudeDegrees>
            </Position>
            <AltitudeMeters>993.20001220703125</AltitudeMeters>
            <DistanceMeters>6031.8175824688</DistanceMeters>
          </Trackpoint>
          <Trackpoint>
            <Time>2022-09-18T11:38:13.000Z</Time>
            <Position>
              <LatitudeDegrees>49.3674468062818050384521484375</LatitudeDegrees>
              <LongitudeDegrees>19.958523809909820556640625</LongitudeDegrees>
            </Position>
            <AltitudeMeters>993</AltitudeMeters>
            <DistanceMeters>6031.8175824688</DistanceMeters>
          </Trackpoint>
          <Trackpoint>
            <Time>2022-09-18T11:38:20.000Z</Time>
            <Position>
              <LatitudeDegrees>49.3674468062818050384521484375</LatitudeDegrees>
              <LongitudeDegrees>19.958523809909820556640625</LongitudeDegrees>
            </Position>
            <AltitudeMeters>993</AltitudeMeters>
            <DistanceMeters>6031.8175824688</DistanceMeters>
          </Trackpoint>
          <Trackpoint>
            <Time>2022-09-18T11:38:23.000Z</Time>
            <Position>
              <LatitudeDegrees>49.3674468062818050384521484375</LatitudeDegrees>
              <LongitudeDegrees>19.958523809909820556640625</LongitudeDegrees>
            </Position>
            <AltitudeMeters>993.20001220703125</AltitudeMeters>
            <DistanceMeters>6031.8175824688</DistanceMeters>
          </Trackpoint>
          <Trackpoint>
            <Time>2022-09-18T11:38:38.000Z</Time>
            <Position>
              <LatitudeDegrees>49.36747513711452484130859375</LatitudeDegrees>
              <LongitudeDegrees>19.9585300125181674957275390625</LongitudeDegrees>
            </Position>
            <AltitudeMeters>993</AltitudeMeters>
            <DistanceMeters>6035.0034584744</DistanceMeters>
          </Trackpoint>
          <Trackpoint>
            <Time>2022-09-18T11:38:39.000Z</Time>
            <Position>
              <LatitudeDegrees>49.367511011660099029541015625</LatitudeDegrees>
              <LongitudeDegrees>19.95853881351649761199951171875</LongitudeDegrees>
            </Position>
            <AltitudeMeters>992.79998779296875</AltitudeMeters>
            <DistanceMeters>6039.0474006649</DistanceMeters>
          </Trackpoint>
          <Trackpoint>
            <Time>2022-09-18T11:38:41.000Z</Time>
            <Position>
              <LatitudeDegrees>49.36759985983371734619140625</LatitudeDegrees>
              <LongitudeDegrees>19.958567731082439422607421875</LongitudeDegrees>
            </Position>
            <AltitudeMeters>992.4000244140625</AltitudeMeters>
            <DistanceMeters>6049.1560279228</DistanceMeters>
          </Trackpoint>
          <Trackpoint>
            <Time>2022-09-18T11:38:43.000Z</Time>
            <Position>
              <LatitudeDegrees>49.3676841817796230316162109375</LatitudeDegrees>
              <LongitudeDegrees>19.9585893563926219940185546875</LongitudeDegrees>
            </Position>
            <AltitudeMeters>991.4000244140625</AltitudeMeters>
            <DistanceMeters>6058.6710448133</DistanceMeters>
          </Trackpoint>
          <Trackpoint>
            <Time>2022-09-18T11:38:44.000Z</Time>
            <Position>
              <LatitudeDegrees>49.3677398376166820526123046875</LatitudeDegrees>
              <LongitudeDegrees>19.95859061367809772491455078125</LongitudeDegrees>
            </Position>
            <AltitudeMeters>990.79998779296875</AltitudeMeters>
            <DistanceMeters>6064.8660286621</DistanceMeters>
          </Trackpoint>
          <Trackpoint>
            <Time>2022-09-18T11:38:46.000Z</Time>
            <Position>
              <LatitudeDegrees>49.36783430166542530059814453125</LatitudeDegrees>
              <LongitudeDegrees>19.95857686735689640045166015625</LongitudeDegrees>
            </Position>
            <AltitudeMeters>990.20001220703125</AltitudeMeters>
            <DistanceMeters>6075.4268275978</DistanceMeters>
          </Trackpoint>
          <Trackpoint>
            <Time>2022-09-18T11:38:47.000Z</Time>
            <Position>
              <LatitudeDegrees>49.36787721700966358184814453125</LatitudeDegrees>
              <LongitudeDegrees>19.95856228284537792205810546875</LongitudeDegrees>
            </Position>
            <AltitudeMeters>989.20001220703125</AltitudeMeters>
            <DistanceMeters>6080.3195500151</DistanceMeters>
          </Trackpoint>
          <Trackpoint>
            <Time>2022-09-18T11:38:48.000Z</Time>
            <Position>
              <LatitudeDegrees>49.367918036878108978271484375</LatitudeDegrees>
              <LongitudeDegrees>19.95854585431516170501708984375</LongitudeDegrees>
            </Position>
            <AltitudeMeters>987.79998779296875</AltitudeMeters>
            <DistanceMeters>6085.0154468066</DistanceMeters>
          </Trackpoint>
          <Trackpoint>
            <Time>2022-09-18T11:38:49.000Z</Time>
            <Position>
              <LatitudeDegrees>49.367958270013332366943359375</LatitudeDegrees>
              <LongitudeDegrees>19.9585296772420406341552734375</LongitudeDegrees>
            </Position>
            <AltitudeMeters>987.20001220703125</AltitudeMeters>
            <DistanceMeters>6089.6445257</DistanceMeters>
          </Trackpoint>
          <Trackpoint>
            <Time>2022-09-18T11:38:50.000Z</Time>
            <Position>
              <LatitudeDegrees>49.367995820939540863037109375</LatitudeDegrees>
              <LongitudeDegrees>19.95851065032184123992919921875</LongitudeDegrees>
            </Position>
            <AltitudeMeters>986.79998779296875</AltitudeMeters>
            <DistanceMeters>6094.0466324739</DistanceMeters>
          </Trackpoint>
          <Trackpoint>
            <Time>2022-09-18T11:38:53.000Z</Time>
            <Position>
              <LatitudeDegrees>49.36811258085072040557861328125</LatitudeDegrees>
              <LongitudeDegrees>19.95844158343970775604248046875</LongitudeDegrees>
            </Position>
            <AltitudeMeters>985.79998779296875</AltitudeMeters>
            <DistanceMeters>6107.9728290755</DistanceMeters>
          </Trackpoint>
          <Trackpoint>
            <Time>2022-09-18T11:38:54.000Z</Time>
            <Position>
              <LatitudeDegrees>49.36814996413886547088623046875</LatitudeDegrees>
              <LongitudeDegrees>19.95841920375823974609375</LongitudeDegrees>
            </Position>
            <AltitudeMeters>985.4000244140625</AltitudeMeters>
            <DistanceMeters>6112.438073614</DistanceMeters>
          </Trackpoint>
          <Trackpoint>
            <Time>2022-09-18T11:38:55.000Z</Time>
            <Position>
              <LatitudeDegrees>49.36819019727408885955810546875</LatitudeDegrees>
              <LongitudeDegrees>19.95839565061032772064208984375</LongitudeDegrees>
            </Position>
            <AltitudeMeters>984.5999755859375</AltitudeMeters>
            <DistanceMeters>6117.2300966102</DistanceMeters>
          </Trackpoint>
          <Trackpoint>
            <Time>2022-09-18T11:38:56.000Z</Time>
            <Position>
              <LatitudeDegrees>49.36822213232517242431640625</LatitudeDegrees>
              <LongitudeDegrees>19.9583704210817813873291015625</LongitudeDegrees>
            </Position>
            <AltitudeMeters>984.20001220703125</AltitudeMeters>
            <DistanceMeters>6121.2268709633</DistanceMeters>
          </Trackpoint>
          <Trackpoint>
            <Time>2022-09-18T11:38:57.000Z</Time>
            <Position>
              <LatitudeDegrees>49.36826462857425212860107421875</LatitudeDegrees>
              <LongitudeDegrees>19.95834083296358585357666015625</LongitudeDegrees>
            </Position>
            <AltitudeMeters>983.4000244140625</AltitudeMeters>
            <DistanceMeters>6126.4195396666</DistanceMeters>
          </Trackpoint>
          <Trackpoint>
            <Time>2022-09-18T11:38:58.000Z</Time>
            <Position>
              <LatitudeDegrees>49.36832061968743801116943359375</LatitudeDegrees>
              <LongitudeDegrees>19.95830479077994823455810546875</LongitudeDegrees>
            </Position>
            <AltitudeMeters>982.79998779296875</AltitudeMeters>
            <DistanceMeters>6133.1764669638</DistanceMeters>
          </Trackpoint>
          <Trackpoint>
            <Time>2022-09-18T11:39:01.000Z</Time>
            <Position>
              <LatitudeDegrees>49.36848498880863189697265625</LatitudeDegrees>
              <LongitudeDegrees>19.9582235701382160186767578125</LongitudeDegrees>
            </Position>
            <AltitudeMeters>982.20001220703125</AltitudeMeters>
            <DistanceMeters>6152.3949004773</DistanceMeters>
          </Trackpoint>
          <Trackpoint>
            <Time>2022-09-18T11:39:02.000Z</Time>
            <Position>
              <LatitudeDegrees>49.36854776926338672637939453125</LatitudeDegrees>
              <LongitudeDegrees>19.9581977538764476776123046875</LongitudeDegrees>
            </Position>
            <AltitudeMeters>982</AltitudeMeters>
            <DistanceMeters>6159.6281751794</DistanceMeters>
          </Trackpoint>
          <Trackpoint>
            <Time>2022-09-18T11:39:03.000Z</Time>
            <Position>
              <LatitudeDegrees>49.3686118908226490020751953125</LatitudeDegrees>
              <LongitudeDegrees>19.958172105252742767333984375</LongitudeDegrees>
            </Position>
            <AltitudeMeters>981.20001220703125</AltitudeMeters>
            <DistanceMeters>6167.0030074095</DistanceMeters>
          </Trackpoint>
          <Trackpoint>
            <Time>2022-09-18T11:39:04.000Z</Time>
            <Position>
              <LatitudeDegrees>49.3686772696673870086669921875</LatitudeDegrees>
              <LongitudeDegrees>19.9581563472747802734375</LongitudeDegrees>
            </Position>
            <AltitudeMeters>980.79998779296875</AltitudeMeters>
            <DistanceMeters>6174.3686505773</DistanceMeters>
          </Trackpoint>
          <Trackpoint>
            <Time>2022-09-18T11:39:05.000Z</Time>
            <Position>
              <LatitudeDegrees>49.368741475045680999755859375</LatitudeDegrees>
              <LongitudeDegrees>19.9581484682857990264892578125</LongitudeDegrees>
            </Position>
            <AltitudeMeters>979.79998779296875</AltitudeMeters>
            <DistanceMeters>6181.5379737754</DistanceMeters>
          </Trackpoint>
          <Trackpoint>
            <Time>2022-09-18T11:39:07.000Z</Time>
            <Position>
              <LatitudeDegrees>49.36886142008006572723388671875</LatitudeDegrees>
              <LongitudeDegrees>19.95813949964940547943115234375</LongitudeDegrees>
            </Position>
            <AltitudeMeters>979.20001220703125</AltitudeMeters>
            <DistanceMeters>6194.9040140405</DistanceMeters>
          </Trackpoint>
          <Trackpoint>
            <Time>2022-09-18T11:39:09.000Z</Time>
            <Position>
              <LatitudeDegrees>49.36897424049675464630126953125</LatitudeDegrees>
              <LongitudeDegrees>19.9581380747258663177490234375</LongitudeDegrees>
            </Position>
            <AltitudeMeters>978.79998779296875</AltitudeMeters>
            <DistanceMeters>6207.4619300705</DistanceMeters>
          </Trackpoint>
          <Trackpoint>
            <Time>2022-09-18T11:39:12.000Z</Time>
            <Position>
              <LatitudeDegrees>49.36911807395517826080322265625</LatitudeDegrees>
              <LongitudeDegrees>19.95814017020165920257568359375</LongitudeDegrees>
            </Position>
            <AltitudeMeters>978.4000244140625</AltitudeMeters>
            <DistanceMeters>6223.4716049512</DistanceMeters>
          </Trackpoint>
          <Trackpoint>
            <Time>2022-09-18T11:39:17.000Z</Time>
            <Position>
              <LatitudeDegrees>49.3693823553621768951416015625</LatitudeDegrees>
              <LongitudeDegrees>19.95814519934356212615966796875</LongitudeDegrees>
            </Position>
            <AltitudeMeters>977.79998779296875</AltitudeMeters>
            <DistanceMeters>6252.8887816644</DistanceMeters>
          </Trackpoint>
          <Trackpoint>
            <Time>2022-09-18T11:39:19.000Z</Time>
            <Position>
              <LatitudeDegrees>49.36948955990374088287353515625</LatitudeDegrees>
              <LongitudeDegrees>19.95813899673521518707275390625</LongitudeDegrees>
            </Position>
            <AltitudeMeters>977.4000244140625</AltitudeMeters>
            <DistanceMeters>6264.8292957645</DistanceMeters>
          </Trackpoint>
          <Trackpoint>
            <Time>2022-09-18T11:39:23.000Z</Time>
            <Position>
              <LatitudeDegrees>49.3697248399257659912109375</LatitudeDegrees>
              <LongitudeDegrees>19.95812457986176013946533203125</LongitudeDegrees>
            </Position>
            <AltitudeMeters>976.4000244140625</AltitudeMeters>
            <DistanceMeters>6291.0373810557</DistanceMeters>
          </Trackpoint>
          <Trackpoint>
            <Time>2022-09-18T11:39:25.000Z</Time>
            <Position>
              <LatitudeDegrees>49.3698534183204174041748046875</LatitudeDegrees>
              <LongitudeDegrees>19.9581293575465679168701171875</LongitudeDegrees>
            </Position>
            <AltitudeMeters>975.20001220703125</AltitudeMeters>
            <DistanceMeters>6305.3520761159</DistanceMeters>
          </Trackpoint>
          <Trackpoint>
            <Time>2022-09-18T11:39:29.000Z</Time>
            <Position>
              <LatitudeDegrees>49.37001896090805530548095703125</LatitudeDegrees>
              <LongitudeDegrees>19.95812424458563327789306640625</LongitudeDegrees>
            </Position>
            <AltitudeMeters>974.5999755859375</AltitudeMeters>
            <DistanceMeters>6323.7808898341</DistanceMeters>
          </Trackpoint>
          <Trackpoint>
            <Time>2022-09-18T11:39:33.000Z</Time>
            <Position>
              <LatitudeDegrees>49.37010680325329303741455078125</LatitudeDegrees>
              <LongitudeDegrees>19.958123154938220977783203125</LongitudeDegrees>
            </Position>
            <AltitudeMeters>974.5999755859375</AltitudeMeters>
            <DistanceMeters>6333.5584876634</DistanceMeters>
          </Trackpoint>
          <Trackpoint>
            <Time>2022-09-18T11:39:34.000Z</Time>
            <Position>
              <LatitudeDegrees>49.37012247741222381591796875</LatitudeDegrees>
              <LongitudeDegrees>19.958116449415683746337890625</LongitudeDegrees>
            </Position>
            <AltitudeMeters>974.5999755859375</AltitudeMeters>
            <DistanceMeters>6335.3714818238</DistanceMeters>
          </Trackpoint>
          <Trackpoint>
            <Time>2022-09-18T11:39:38.000Z</Time>
            <Position>
              <LatitudeDegrees>49.37012507580220699310302734375</LatitudeDegrees>
              <LongitudeDegrees>19.9580750428140163421630859375</LongitudeDegrees>
            </Position>
            <AltitudeMeters>974.79998779296875</AltitudeMeters>
            <DistanceMeters>6338.385491927</DistanceMeters>
          </Trackpoint>
          <Trackpoint>
            <Time>2022-09-18T11:39:41.000Z</Time>
            <Position>
              <LatitudeDegrees>49.3700923025608062744140625</LatitudeDegrees>
              <LongitudeDegrees>19.95807697065174579620361328125</LongitudeDegrees>
            </Position>
            <AltitudeMeters>975.20001220703125</AltitudeMeters>
            <DistanceMeters>6342.036299075</DistanceMeters>
          </Trackpoint>
          <Trackpoint>
            <Time>2022-09-18T11:39:44.000Z</Time>
            <Position>
              <LatitudeDegrees>49.37003455124795436859130859375</LatitudeDegrees>
              <LongitudeDegrees>19.95810211636126041412353515625</LongitudeDegrees>
            </Position>
            <AltitudeMeters>975</AltitudeMeters>
            <DistanceMeters>6348.7172921046</DistanceMeters>
          </Trackpoint>
          <Trackpoint>
            <Time>2022-09-18T11:39:49.000Z</Time>
            <Position>
              <LatitudeDegrees>49.36986498534679412841796875</LatitudeDegrees>
              <LongitudeDegrees>19.9581166170537471771240234375</LongitudeDegrees>
            </Position>
            <AltitudeMeters>974.79998779296875</AltitudeMeters>
            <DistanceMeters>6367.6197275227</DistanceMeters>
          </Trackpoint>
          <Trackpoint>
            <Time>2022-09-18T11:39:55.000Z</Time>
            <Position>
              <LatitudeDegrees>49.36959668062627315521240234375</LatitudeDegrees>
              <LongitudeDegrees>19.9581442773342132568359375</LongitudeDegrees>
            </Position>
            <AltitudeMeters>976.20001220703125</AltitudeMeters>
            <DistanceMeters>6397.5499748245</DistanceMeters>
          </Trackpoint>
          <Trackpoint>
            <Time>2022-09-18T11:39:56.000Z</Time>
            <Position>
              <LatitudeDegrees>49.36955309472978115081787109375</LatitudeDegrees>
              <LongitudeDegrees>19.95813866145908832550048828125</LongitudeDegrees>
            </Position>
            <AltitudeMeters>976.4000244140625</AltitudeMeters>
            <DistanceMeters>6402.4177176884</DistanceMeters>
          </Trackpoint>
          <Trackpoint>
            <Time>2022-09-18T11:39:59.000Z</Time>
            <Position>
              <LatitudeDegrees>49.36941479332745075225830078125</LatitudeDegrees>
              <LongitudeDegrees>19.95814536698162555694580078125</LongitudeDegrees>
            </Position>
            <AltitudeMeters>976.79998779296875</AltitudeMeters>
            <DistanceMeters>6417.8184964959</DistanceMeters>
          </Trackpoint>
          <Trackpoint>
            <Time>2022-09-18T11:40:02.000Z</Time>
            <Position>
              <LatitudeDegrees>49.36927749775350093841552734375</LatitudeDegrees>
              <LongitudeDegrees>19.958146624267101287841796875</LongitudeDegrees>
            </Position>
            <AltitudeMeters>977.5999755859375</AltitudeMeters>
            <DistanceMeters>6433.0997849508</DistanceMeters>
          </Trackpoint>
          <Trackpoint>
            <Time>2022-09-18T11:40:03.000Z</Time>
            <Position>
              <LatitudeDegrees>49.36923273839056491851806640625</LatitudeDegrees>
              <LongitudeDegrees>19.95814922265708446502685546875</LongitudeDegrees>
            </Position>
            <AltitudeMeters>977.79998779296875</AltitudeMeters>
            <DistanceMeters>6438.0857452846</DistanceMeters>
          </Trackpoint>
          <Trackpoint>
            <Time>2022-09-18T11:40:04.000Z</Time>
            <Position>
              <LatitudeDegrees>49.36918915249407291412353515625</LatitudeDegrees>
              <LongitudeDegrees>19.9581551738083362579345703125</LongitudeDegrees>
            </Position>
            <AltitudeMeters>977.79998779296875</AltitudeMeters>
            <DistanceMeters>6442.9571969054</DistanceMeters>
          </Trackpoint>
          <Trackpoint>
            <Time>2022-09-18T11:40:05.000Z</Time>
            <Position>
              <LatitudeDegrees>49.3691463209688663482666015625</LatitudeDegrees>
              <LongitudeDegrees>19.95815609581768512725830078125</LongitudeDegrees>
            </Position>
            <AltitudeMeters>978</AltitudeMeters>
            <DistanceMeters>6447.7256067542</DistanceMeters>
          </Trackpoint>
          <Trackpoint>
            <Time>2022-09-18T11:40:06.000Z</Time>
            <Position>
              <LatitudeDegrees>49.36910600401461124420166015625</LatitudeDegrees>
              <LongitudeDegrees>19.958151988685131072998046875</LongitudeDegrees>
            </Position>
            <AltitudeMeters>978.79998779296875</AltitudeMeters>
            <DistanceMeters>6452.2230917441</DistanceMeters>
          </Trackpoint>
          <Trackpoint>
            <Time>2022-09-18T11:40:07.000Z</Time>
            <Position>
              <LatitudeDegrees>49.3690698780119419097900390625</LatitudeDegrees>
              <LongitudeDegrees>19.95814469642937183380126953125</LongitudeDegrees>
            </Position>
            <AltitudeMeters>979.20001220703125</AltitudeMeters>
            <DistanceMeters>6456.2792967785</DistanceMeters>
          </Trackpoint>
          <Trackpoint>
            <Time>2022-09-18T11:40:09.000Z</Time>
            <Position>
              <LatitudeDegrees>49.36900475062429904937744140625</LatitudeDegrees>
              <LongitudeDegrees>19.9581464566290378570556640625</LongitudeDegrees>
            </Position>
            <AltitudeMeters>979.4000244140625</AltitudeMeters>
            <DistanceMeters>6463.5287826157</DistanceMeters>
          </Trackpoint>
          <Trackpoint>
            <Time>2022-09-18T11:40:11.000Z</Time>
            <Position>
              <LatitudeDegrees>49.368947334587574005126953125</LatitudeDegrees>
              <LongitudeDegrees>19.95815659873187541961669921875</LongitudeDegrees>
            </Position>
            <AltitudeMeters>979.5999755859375</AltitudeMeters>
            <DistanceMeters>6469.9611857643</DistanceMeters>
          </Trackpoint>
          <Trackpoint>
            <Time>2022-09-18T11:40:13.000Z</Time>
            <Position>
              <LatitudeDegrees>49.36888790689408779144287109375</LatitudeDegrees>
              <LongitudeDegrees>19.958150647580623626708984375</LongitudeDegrees>
            </Position>
            <AltitudeMeters>979.79998779296875</AltitudeMeters>
            <DistanceMeters>6476.5899376812</DistanceMeters>
          </Trackpoint>
          <Trackpoint>
            <Time>2022-09-18T11:40:14.000Z</Time>
            <Position>
              <LatitudeDegrees>49.36885873787105083465576171875</LatitudeDegrees>
              <LongitudeDegrees>19.9581454508006572723388671875</LongitudeDegrees>
            </Position>
            <AltitudeMeters>979.79998779296875</AltitudeMeters>
            <DistanceMeters>6479.8569776805</DistanceMeters>
          </Trackpoint>
          <Trackpoint>
            <Time>2022-09-18T11:40:15.000Z</Time>
            <Position>
              <LatitudeDegrees>49.36882990412414073944091796875</LatitudeDegrees>
              <LongitudeDegrees>19.9581420980393886566162109375</LongitudeDegrees>
            </Position>
            <AltitudeMeters>979.79998779296875</AltitudeMeters>
            <DistanceMeters>6483.0738810991</DistanceMeters>
          </Trackpoint>
          <Trackpoint>
            <Time>2022-09-18T11:40:19.000Z</Time>
            <Position>
              <LatitudeDegrees>49.36869797296822071075439453125</LatitudeDegrees>
              <LongitudeDegrees>19.95815441943705081939697265625</LongitudeDegrees>
            </Position>
            <AltitudeMeters>980.5999755859375</AltitudeMeters>
            <DistanceMeters>6497.7849249797</DistanceMeters>
          </Trackpoint>
          <Trackpoint>
            <Time>2022-09-18T11:40:20.000Z</Time>
            <Position>
              <LatitudeDegrees>49.368669055402278900146484375</LatitudeDegrees>
              <LongitudeDegrees>19.95815609581768512725830078125</LongitudeDegrees>
            </Position>
            <AltitudeMeters>980.79998779296875</AltitudeMeters>
            <DistanceMeters>6501.0060362529</DistanceMeters>
          </Trackpoint>
          <Trackpoint>
            <Time>2022-09-18T11:40:21.000Z</Time>
            <Position>
              <LatitudeDegrees>49.36863678507506847381591796875</LatitudeDegrees>
              <LongitudeDegrees>19.95816380716860294342041015625</LongitudeDegrees>
            </Position>
            <AltitudeMeters>981.20001220703125</AltitudeMeters>
            <DistanceMeters>6504.6407304405</DistanceMeters>
          </Trackpoint>
          <Trackpoint>
            <Time>2022-09-18T11:40:23.000Z</Time>
            <Position>
              <LatitudeDegrees>49.36857677064836025238037109375</LatitudeDegrees>
              <LongitudeDegrees>19.95818694122135639190673828125</LongitudeDegrees>
            </Position>
            <AltitudeMeters>981.5999755859375</AltitudeMeters>
            <DistanceMeters>6511.5273814033</DistanceMeters>
          </Trackpoint>
          <Trackpoint>
            <Time>2022-09-18T11:40:24.000Z</Time>
            <Position>
              <LatitudeDegrees>49.36854827217757701873779296875</LatitudeDegrees>
              <LongitudeDegrees>19.95819632895290851593017578125</LongitudeDegrees>
            </Position>
            <AltitudeMeters>981.79998779296875</AltitudeMeters>
            <DistanceMeters>6514.772234117</DistanceMeters>
          </Trackpoint>
          <Trackpoint>
            <Time>2022-09-18T11:40:28.000Z</Time>
            <Position>
              <LatitudeDegrees>49.3684546463191509246826171875</LatitudeDegrees>
              <LongitudeDegrees>19.95821460150182247161865234375</LongitudeDegrees>
            </Position>
            <AltitudeMeters>982.20001220703125</AltitudeMeters>
            <DistanceMeters>6525.2768775734</DistanceMeters>
          </Trackpoint>
          <Trackpoint>
            <Time>2022-09-18T11:40:31.000Z</Time>
            <Position>
              <LatitudeDegrees>49.36839588917791843414306640625</LatitudeDegrees>
              <LongitudeDegrees>19.9582627974450588226318359375</LongitudeDegrees>
            </Position>
            <AltitudeMeters>983</AltitudeMeters>
            <DistanceMeters>6532.6913974763</DistanceMeters>
          </Trackpoint>
          <Trackpoint>
            <Time>2022-09-18T11:40:33.000Z</Time>
            <Position>
              <LatitudeDegrees>49.36836026608943939208984375</LatitudeDegrees>
              <LongitudeDegrees>19.95831015519797801971435546875</LongitudeDegrees>
            </Position>
            <AltitudeMeters>983.20001220703125</AltitudeMeters>
            <DistanceMeters>6537.9359768539</DistanceMeters>
          </Trackpoint>
          <Trackpoint>
            <Time>2022-09-18T11:40:34.000Z</Time>
            <Position>
              <LatitudeDegrees>49.36836026608943939208984375</LatitudeDegrees>
              <LongitudeDegrees>19.95831015519797801971435546875</LongitudeDegrees>
            </Position>
            <AltitudeMeters>983.4000244140625</AltitudeMeters>
            <DistanceMeters>6537.9359768539</DistanceMeters>
          </Trackpoint>
          <Trackpoint>
            <Time>2022-09-18T11:40:41.000Z</Time>
            <Position>
              <LatitudeDegrees>49.36836001463234424591064453125</LatitudeDegrees>
              <LongitudeDegrees>19.9585122428834438323974609375</LongitudeDegrees>
            </Position>
            <AltitudeMeters>983.4000244140625</AltitudeMeters>
            <DistanceMeters>6552.5830433232</DistanceMeters>
          </Trackpoint>
          <Trackpoint>
            <Time>2022-09-18T11:40:44.000Z</Time>
            <Position>
              <LatitudeDegrees>49.36835347674787044525146484375</LatitudeDegrees>
              <LongitudeDegrees>19.9586091376841068267822265625</LongitudeDegrees>
            </Position>
            <AltitudeMeters>983.20001220703125</AltitudeMeters>
            <DistanceMeters>6559.6438543281</DistanceMeters>
          </Trackpoint>
          <Trackpoint>
            <Time>2022-09-18T11:40:48.000Z</Time>
            <Position>
              <LatitudeDegrees>49.36834752559661865234375</LatitudeDegrees>
              <LongitudeDegrees>19.95877258479595184326171875</LongitudeDegrees>
            </Position>
            <AltitudeMeters>982.20001220703125</AltitudeMeters>
            <DistanceMeters>6571.5088824259</DistanceMeters>
          </Trackpoint>
          <Trackpoint>
            <Time>2022-09-18T11:40:50.000Z</Time>
            <Position>
              <LatitudeDegrees>49.36834392137825489044189453125</LatitudeDegrees>
              <LongitudeDegrees>19.95885749347507953643798828125</LongitudeDegrees>
            </Position>
            <AltitudeMeters>981.79998779296875</AltitudeMeters>
            <DistanceMeters>6577.6761088675</DistanceMeters>
          </Trackpoint>
          <Trackpoint>
            <Time>2022-09-18T11:40:52.000Z</Time>
            <Position>
              <LatitudeDegrees>49.36833746731281280517578125</LatitudeDegrees>
              <LongitudeDegrees>19.95894483290612697601318359375</LongitudeDegrees>
            </Position>
            <AltitudeMeters>980.79998779296875</AltitudeMeters>
            <DistanceMeters>6584.0464435164</DistanceMeters>
          </Trackpoint>
          <Trackpoint>
            <Time>2022-09-18T11:40:54.000Z</Time>
            <Position>
              <LatitudeDegrees>49.36833746731281280517578125</LatitudeDegrees>
              <LongitudeDegrees>19.95903401635587215423583984375</LongitudeDegrees>
            </Position>
            <AltitudeMeters>980</AltitudeMeters>
            <DistanceMeters>6590.5103559312</DistanceMeters>
          </Trackpoint>
          <Trackpoint>
            <Time>2022-09-18T11:40:55.000Z</Time>
            <Position>
              <LatitudeDegrees>49.368339143693447113037109375</LatitudeDegrees>
              <LongitudeDegrees>19.95907978154718875885009765625</LongitudeDegrees>
            </Position>
            <AltitudeMeters>979.5999755859375</AltitudeMeters>
            <DistanceMeters>6593.8322158642</DistanceMeters>
          </Trackpoint>
          <Trackpoint>
            <Time>2022-09-18T11:41:00.000Z</Time>
            <Position>
              <LatitudeDegrees>49.36835112981498241424560546875</LatitudeDegrees>
              <LongitudeDegrees>19.959296286106109619140625</LongitudeDegrees>
            </Position>
            <AltitudeMeters>978.4000244140625</AltitudeMeters>
            <DistanceMeters>6609.5808691276</DistanceMeters>
          </Trackpoint>
          <Trackpoint>
            <Time>2022-09-18T11:41:02.000Z</Time>
            <Position>
              <LatitudeDegrees>49.3683537282049655914306640625</LatitudeDegrees>
              <LongitudeDegrees>19.95938437990844249725341796875</LongitudeDegrees>
            </Position>
            <AltitudeMeters>977.5999755859375</AltitudeMeters>
            <DistanceMeters>6615.9724312084</DistanceMeters>
          </Trackpoint>
          <Trackpoint>
            <Time>2022-09-18T11:41:03.000Z</Time>
            <Position>
              <LatitudeDegrees>49.3683580867946147918701171875</LatitudeDegrees>
              <LongitudeDegrees>19.95942561887204647064208984375</LongitudeDegrees>
            </Position>
            <AltitudeMeters>977.20001220703125</AltitudeMeters>
            <DistanceMeters>6619.0013844379</DistanceMeters>
          </Trackpoint>
          <Trackpoint>
            <Time>2022-09-18T11:41:05.000Z</Time>
            <Position>
              <LatitudeDegrees>49.36834149062633514404296875</LatitudeDegrees>
              <LongitudeDegrees>19.95950273238122463226318359375</LongitudeDegrees>
            </Position>
            <AltitudeMeters>976.20001220703125</AltitudeMeters>
            <DistanceMeters>6624.8876738732</DistanceMeters>
          </Trackpoint>
          <Trackpoint>
            <Time>2022-09-18T11:41:06.000Z</Time>
            <Position>
              <LatitudeDegrees>49.36832673847675323486328125</LatitudeDegrees>
              <LongitudeDegrees>19.959543384611606597900390625</LongitudeDegrees>
            </Position>
            <AltitudeMeters>975.79998779296875</AltitudeMeters>
            <DistanceMeters>6628.2607876156</DistanceMeters>
          </Trackpoint>
          <Trackpoint>
            <Time>2022-09-18T11:41:09.000Z</Time>
            <Position>
              <LatitudeDegrees>49.3683225475251674652099609375</LatitudeDegrees>
              <LongitudeDegrees>19.95964924804866313934326171875</LongitudeDegrees>
            </Position>
            <AltitudeMeters>974.79998779296875</AltitudeMeters>
            <DistanceMeters>6635.9479730726</DistanceMeters>
          </Trackpoint>
          <Trackpoint>
            <Time>2022-09-18T11:41:10.000Z</Time>
            <Position>
              <LatitudeDegrees>49.368319027125835418701171875</LatitudeDegrees>
              <LongitudeDegrees>19.959687888622283935546875</LongitudeDegrees>
            </Position>
            <AltitudeMeters>974.4000244140625</AltitudeMeters>
            <DistanceMeters>6638.7765146984</DistanceMeters>
          </Trackpoint>
          <Trackpoint>
            <Time>2022-09-18T11:41:14.000Z</Time>
            <Position>
              <LatitudeDegrees>49.36830838210880756378173828125</LatitudeDegrees>
              <LongitudeDegrees>19.95982292108237743377685546875</LongitudeDegrees>
            </Position>
            <AltitudeMeters>973.5999755859375</AltitudeMeters>
            <DistanceMeters>6648.6350497197</DistanceMeters>
          </Trackpoint>
          <Trackpoint>
            <Time>2022-09-18T11:41:16.000Z</Time>
            <Position>
              <LatitudeDegrees>49.36830150894820690155029296875</LatitudeDegrees>
              <LongitudeDegrees>19.9598744697868824005126953125</LongitudeDegrees>
            </Position>
            <AltitudeMeters>973.20001220703125</AltitudeMeters>
            <DistanceMeters>6652.4491620871</DistanceMeters>
          </Trackpoint>
          <Trackpoint>
            <Time>2022-09-18T11:41:19.000Z</Time>
            <Position>
              <LatitudeDegrees>49.36830368824303150177001953125</LatitudeDegrees>
              <LongitudeDegrees>19.959902800619602203369140625</LongitudeDegrees>
            </Position>
            <AltitudeMeters>972.5999755859375</AltitudeMeters>
            <DistanceMeters>6654.5180401006</DistanceMeters>
          </Trackpoint>
          <Trackpoint>
            <Time>2022-09-18T11:41:21.000Z</Time>
            <Position>
              <LatitudeDegrees>49.36830368824303150177001953125</LatitudeDegrees>
              <LongitudeDegrees>19.959902800619602203369140625</LongitudeDegrees>
            </Position>
            <AltitudeMeters>972</AltitudeMeters>
            <DistanceMeters>6654.5180401006</DistanceMeters>
          </Trackpoint>
          <Trackpoint>
            <Time>2022-09-18T11:41:23.000Z</Time>
            <Position>
              <LatitudeDegrees>49.36830368824303150177001953125</LatitudeDegrees>
              <LongitudeDegrees>19.959902800619602203369140625</LongitudeDegrees>
            </Position>
            <AltitudeMeters>971.79998779296875</AltitudeMeters>
            <DistanceMeters>6654.5180401006</DistanceMeters>
          </Trackpoint>
          <Trackpoint>
            <Time>2022-09-18T11:41:25.000Z</Time>
            <Position>
              <LatitudeDegrees>49.36830368824303150177001953125</LatitudeDegrees>
              <LongitudeDegrees>19.959902800619602203369140625</LongitudeDegrees>
            </Position>
            <AltitudeMeters>971.79998779296875</AltitudeMeters>
            <DistanceMeters>6654.5180401006</DistanceMeters>
          </Trackpoint>
          <Trackpoint>
            <Time>2022-09-18T11:41:28.000Z</Time>
            <Position>
              <LatitudeDegrees>49.36830368824303150177001953125</LatitudeDegrees>
              <LongitudeDegrees>19.959902800619602203369140625</LongitudeDegrees>
            </Position>
            <AltitudeMeters>972.20001220703125</AltitudeMeters>
            <DistanceMeters>6654.5180401006</DistanceMeters>
          </Trackpoint>
          <Trackpoint>
            <Time>2022-09-18T11:41:29.000Z</Time>
            <Position>
              <LatitudeDegrees>49.36830368824303150177001953125</LatitudeDegrees>
              <LongitudeDegrees>19.959902800619602203369140625</LongitudeDegrees>
            </Position>
            <AltitudeMeters>972.4000244140625</AltitudeMeters>
            <DistanceMeters>6654.5180401006</DistanceMeters>
          </Trackpoint>
          <Trackpoint>
            <Time>2022-09-18T11:41:37.000Z</Time>
            <Position>
              <LatitudeDegrees>49.36830368824303150177001953125</LatitudeDegrees>
              <LongitudeDegrees>19.959902800619602203369140625</LongitudeDegrees>
            </Position>
            <AltitudeMeters>971.79998779296875</AltitudeMeters>
            <DistanceMeters>6654.5180401006</DistanceMeters>
          </Trackpoint>
          <Trackpoint>
            <Time>2022-09-18T11:41:40.000Z</Time>
            <Position>
              <LatitudeDegrees>49.36830368824303150177001953125</LatitudeDegrees>
              <LongitudeDegrees>19.959902800619602203369140625</LongitudeDegrees>
            </Position>
            <AltitudeMeters>971.5999755859375</AltitudeMeters>
            <DistanceMeters>6654.5180401006</DistanceMeters>
          </Trackpoint>
          <Trackpoint>
            <Time>2022-09-18T11:41:43.000Z</Time>
            <Position>
              <LatitudeDegrees>49.36830368824303150177001953125</LatitudeDegrees>
              <LongitudeDegrees>19.959902800619602203369140625</LongitudeDegrees>
            </Position>
            <AltitudeMeters>971.5999755859375</AltitudeMeters>
            <DistanceMeters>6654.5180401006</DistanceMeters>
          </Trackpoint>
          <Trackpoint>
            <Time>2022-09-18T11:41:54.000Z</Time>
            <Position>
              <LatitudeDegrees>49.36829798854887485504150390625</LatitudeDegrees>
              <LongitudeDegrees>19.959915541112422943115234375</LongitudeDegrees>
            </Position>
            <AltitudeMeters>971.5999755859375</AltitudeMeters>
            <DistanceMeters>6655.6343512352</DistanceMeters>
          </Trackpoint>
          <Trackpoint>
            <Time>2022-09-18T11:42:00.000Z</Time>
            <Position>
              <LatitudeDegrees>49.36829798854887485504150390625</LatitudeDegrees>
              <LongitudeDegrees>19.959915541112422943115234375</LongitudeDegrees>
            </Position>
            <AltitudeMeters>971.5999755859375</AltitudeMeters>
            <DistanceMeters>6655.6343512352</DistanceMeters>
          </Trackpoint>
          <Trackpoint>
            <Time>2022-09-18T11:42:14.000Z</Time>
            <Position>
              <LatitudeDegrees>49.3682979047298431396484375</LatitudeDegrees>
              <LongitudeDegrees>19.9599116854369640350341796875</LongitudeDegrees>
            </Position>
            <AltitudeMeters>971</AltitudeMeters>
            <DistanceMeters>6655.9031273717</DistanceMeters>
          </Trackpoint>
          <Trackpoint>
            <Time>2022-09-18T11:42:17.000Z</Time>
            <Position>
              <LatitudeDegrees>49.3682979047298431396484375</LatitudeDegrees>
              <LongitudeDegrees>19.95991160161793231964111328125</LongitudeDegrees>
            </Position>
            <AltitudeMeters>970.5999755859375</AltitudeMeters>
            <DistanceMeters>6655.9031273717</DistanceMeters>
          </Trackpoint>
          <Trackpoint>
            <Time>2022-09-18T11:42:19.000Z</Time>
            <Position>
              <LatitudeDegrees>49.3682979047298431396484375</LatitudeDegrees>
              <LongitudeDegrees>19.95991160161793231964111328125</LongitudeDegrees>
            </Position>
            <AltitudeMeters>970.5999755859375</AltitudeMeters>
            <DistanceMeters>6655.9031273717</DistanceMeters>
          </Trackpoint>
          <Trackpoint>
            <Time>2022-09-18T11:42:27.000Z</Time>
            <Position>
              <LatitudeDegrees>49.3682979047298431396484375</LatitudeDegrees>
              <LongitudeDegrees>19.95991160161793231964111328125</LongitudeDegrees>
            </Position>
            <AltitudeMeters>971.5999755859375</AltitudeMeters>
            <DistanceMeters>6655.9031273717</DistanceMeters>
          </Trackpoint>
          <Trackpoint>
            <Time>2022-09-18T11:42:36.000Z</Time>
            <Position>
              <LatitudeDegrees>49.3682979047298431396484375</LatitudeDegrees>
              <LongitudeDegrees>19.95991160161793231964111328125</LongitudeDegrees>
            </Position>
            <AltitudeMeters>971.5999755859375</AltitudeMeters>
            <DistanceMeters>6655.9031273717</DistanceMeters>
          </Trackpoint>
          <Trackpoint>
            <Time>2022-09-18T11:42:39.000Z</Time>
            <Position>
              <LatitudeDegrees>49.3682979047298431396484375</LatitudeDegrees>
              <LongitudeDegrees>19.95991160161793231964111328125</LongitudeDegrees>
            </Position>
            <AltitudeMeters>971.5999755859375</AltitudeMeters>
            <DistanceMeters>6655.9031273717</DistanceMeters>
          </Trackpoint>
          <Trackpoint>
            <Time>2022-09-18T11:42:53.000Z</Time>
            <Position>
              <LatitudeDegrees>49.3682979047298431396484375</LatitudeDegrees>
              <LongitudeDegrees>19.95991160161793231964111328125</LongitudeDegrees>
            </Position>
            <AltitudeMeters>971.5999755859375</AltitudeMeters>
            <DistanceMeters>6655.9031273717</DistanceMeters>
          </Trackpoint>
          <Trackpoint>
            <Time>2022-09-18T11:42:58.000Z</Time>
            <Position>
              <LatitudeDegrees>49.3682979047298431396484375</LatitudeDegrees>
              <LongitudeDegrees>19.95991160161793231964111328125</LongitudeDegrees>
            </Position>
            <AltitudeMeters>971.5999755859375</AltitudeMeters>
            <DistanceMeters>6655.9031273717</DistanceMeters>
          </Trackpoint>
          <Trackpoint>
            <Time>2022-09-18T11:43:01.000Z</Time>
            <Position>
              <LatitudeDegrees>49.3682979047298431396484375</LatitudeDegrees>
              <LongitudeDegrees>19.95991160161793231964111328125</LongitudeDegrees>
            </Position>
            <AltitudeMeters>971.5999755859375</AltitudeMeters>
            <DistanceMeters>6655.9031273717</DistanceMeters>
          </Trackpoint>
          <Trackpoint>
            <Time>2022-09-18T11:43:02.000Z</Time>
            <Position>
              <LatitudeDegrees>49.3682979047298431396484375</LatitudeDegrees>
              <LongitudeDegrees>19.95991160161793231964111328125</LongitudeDegrees>
            </Position>
            <AltitudeMeters>971.5999755859375</AltitudeMeters>
            <DistanceMeters>6655.9031273717</DistanceMeters>
          </Trackpoint>
          <Trackpoint>
            <Time>2022-09-18T11:43:10.000Z</Time>
            <Position>
              <LatitudeDegrees>49.36830536462366580963134765625</LatitudeDegrees>
              <LongitudeDegrees>19.96001235209405422210693359375</LongitudeDegrees>
            </Position>
            <AltitudeMeters>971.5999755859375</AltitudeMeters>
            <DistanceMeters>6663.2528156159</DistanceMeters>
          </Trackpoint>
          <Trackpoint>
            <Time>2022-09-18T11:43:19.000Z</Time>
            <Position>
              <LatitudeDegrees>49.36830000020563602447509765625</LatitudeDegrees>
              <LongitudeDegrees>19.96036606840789318084716796875</LongitudeDegrees>
            </Position>
            <AltitudeMeters>970.79998779296875</AltitudeMeters>
            <DistanceMeters>6688.8970030101</DistanceMeters>
          </Trackpoint>
          <Trackpoint>
            <Time>2022-09-18T11:43:21.000Z</Time>
            <Position>
              <LatitudeDegrees>49.36829832382500171661376953125</LatitudeDegrees>
              <LongitudeDegrees>19.96047972701489925384521484375</LongitudeDegrees>
            </Position>
            <AltitudeMeters>970.4000244140625</AltitudeMeters>
            <DistanceMeters>6697.1375233128</DistanceMeters>
          </Trackpoint>
          <Trackpoint>
            <Time>2022-09-18T11:43:23.000Z</Time>
            <Position>
              <LatitudeDegrees>49.368297569453716278076171875</LatitudeDegrees>
              <LongitudeDegrees>19.960612915456295013427734375</LongitudeDegrees>
            </Position>
            <AltitudeMeters>969.20001220703125</AltitudeMeters>
            <DistanceMeters>6706.7915079294</DistanceMeters>
          </Trackpoint>
          <Trackpoint>
            <Time>2022-09-18T11:43:24.000Z</Time>
            <Position>
              <LatitudeDegrees>49.36829279176890850067138671875</LatitudeDegrees>
              <LongitudeDegrees>19.960683993995189666748046875</LongitudeDegrees>
            </Position>
            <AltitudeMeters>968.5999755859375</AltitudeMeters>
            <DistanceMeters>6711.9702459068</DistanceMeters>
          </Trackpoint>
          <Trackpoint>
            <Time>2022-09-18T11:43:25.000Z</Time>
            <Position>
              <LatitudeDegrees>49.3682829849421977996826171875</LatitudeDegrees>
              <LongitudeDegrees>19.960759766399860382080078125</LongitudeDegrees>
            </Position>
            <AltitudeMeters>967.79998779296875</AltitudeMeters>
            <DistanceMeters>6717.5703758598</DistanceMeters>
          </Trackpoint>
          <Trackpoint>
            <Time>2022-09-18T11:43:27.000Z</Time>
            <Position>
              <LatitudeDegrees>49.36826580204069614410400390625</LatitudeDegrees>
              <LongitudeDegrees>19.96091038919985294342041015625</LongitudeDegrees>
            </Position>
            <AltitudeMeters>967</AltitudeMeters>
            <DistanceMeters>6728.653929439</DistanceMeters>
          </Trackpoint>
          <Trackpoint>
            <Time>2022-09-18T11:43:28.000Z</Time>
            <Position>
              <LatitudeDegrees>49.3682561628520488739013671875</LatitudeDegrees>
              <LongitudeDegrees>19.96098733507096767425537109375</LongitudeDegrees>
            </Position>
            <AltitudeMeters>966.4000244140625</AltitudeMeters>
            <DistanceMeters>6734.3333161187</DistanceMeters>
          </Trackpoint>
          <Trackpoint>
            <Time>2022-09-18T11:43:30.000Z</Time>
            <Position>
              <LatitudeDegrees>49.368237555027008056640625</LatitudeDegrees>
              <LongitudeDegrees>19.9611371196806430816650390625</LongitudeDegrees>
            </Position>
            <AltitudeMeters>965.5999755859375</AltitudeMeters>
            <DistanceMeters>6745.3854581761</DistanceMeters>
          </Trackpoint>
          <Trackpoint>
            <Time>2022-09-18T11:43:31.000Z</Time>
            <Position>
              <LatitudeDegrees>49.36822414398193359375</LatitudeDegrees>
              <LongitudeDegrees>19.96121297590434551239013671875</LongitudeDegrees>
            </Position>
            <AltitudeMeters>965</AltitudeMeters>
            <DistanceMeters>6751.0831002161</DistanceMeters>
          </Trackpoint>
          <Trackpoint>
            <Time>2022-09-18T11:43:35.000Z</Time>
            <Position>
              <LatitudeDegrees>49.36814527027308940887451171875</LatitudeDegrees>
              <LongitudeDegrees>19.9615077674388885498046875</LongitudeDegrees>
            </Position>
            <AltitudeMeters>964</AltitudeMeters>
            <DistanceMeters>6774.1828025335</DistanceMeters>
          </Trackpoint>
          <Trackpoint>
            <Time>2022-09-18T11:43:36.000Z</Time>
            <Position>
              <LatitudeDegrees>49.36811610125005245208740234375</LatitudeDegrees>
              <LongitudeDegrees>19.9616004712879657745361328125</LongitudeDegrees>
            </Position>
            <AltitudeMeters>963.79998779296875</AltitudeMeters>
            <DistanceMeters>6781.6452740698</DistanceMeters>
          </Trackpoint>
          <Trackpoint>
            <Time>2022-09-18T11:43:40.000Z</Time>
            <Position>
              <LatitudeDegrees>49.3680204637348651885986328125</LatitudeDegrees>
              <LongitudeDegrees>19.96191403828561305999755859375</LongitudeDegrees>
            </Position>
            <AltitudeMeters>963</AltitudeMeters>
            <DistanceMeters>6806.7416836101</DistanceMeters>
          </Trackpoint>
          <Trackpoint>
            <Time>2022-09-18T11:43:43.000Z</Time>
            <Position>
              <LatitudeDegrees>49.36794963665306568145751953125</LatitudeDegrees>
              <LongitudeDegrees>19.9621513299643993377685546875</LongitudeDegrees>
            </Position>
            <AltitudeMeters>961.79998779296875</AltitudeMeters>
            <DistanceMeters>6825.6613091412</DistanceMeters>
          </Trackpoint>
          <Trackpoint>
            <Time>2022-09-18T11:43:46.000Z</Time>
            <Position>
              <LatitudeDegrees>49.367873109877109527587890625</LatitudeDegrees>
              <LongitudeDegrees>19.96239415369927883148193359375</LongitudeDegrees>
            </Position>
            <AltitudeMeters>960.4000244140625</AltitudeMeters>
            <DistanceMeters>6845.2137339609</DistanceMeters>
          </Trackpoint>
          <Trackpoint>
            <Time>2022-09-18T11:43:48.000Z</Time>
            <Position>
              <LatitudeDegrees>49.3678112514317035675048828125</LatitudeDegrees>
              <LongitudeDegrees>19.96256983838975429534912109375</LongitudeDegrees>
            </Position>
            <AltitudeMeters>959.4000244140625</AltitudeMeters>
            <DistanceMeters>6859.6890195818</DistanceMeters>
          </Trackpoint>
          <Trackpoint>
            <Time>2022-09-18T11:43:51.000Z</Time>
            <Position>
              <LatitudeDegrees>49.36772164888679981231689453125</LatitudeDegrees>
              <LongitudeDegrees>19.96283705346286296844482421875</LongitudeDegrees>
            </Position>
            <AltitudeMeters>958</AltitudeMeters>
            <DistanceMeters>6881.4735700118</DistanceMeters>
          </Trackpoint>
          <Trackpoint>
            <Time>2022-09-18T11:43:52.000Z</Time>
            <Position>
              <LatitudeDegrees>49.36769298277795314788818359375</LatitudeDegrees>
              <LongitudeDegrees>19.96292087249457836151123046875</LongitudeDegrees>
            </Position>
            <AltitudeMeters>957.79998779296875</AltitudeMeters>
            <DistanceMeters>6888.3359200943</DistanceMeters>
          </Trackpoint>
          <Trackpoint>
            <Time>2022-09-18T11:43:56.000Z</Time>
            <Position>
              <LatitudeDegrees>49.3676027096807956695556640625</LatitudeDegrees>
              <LongitudeDegrees>19.9632010795176029205322265625</LongitudeDegrees>
            </Position>
            <AltitudeMeters>957</AltitudeMeters>
            <DistanceMeters>6910.9949599339</DistanceMeters>
          </Trackpoint>
          <Trackpoint>
            <Time>2022-09-18T11:43:57.000Z</Time>
            <Position>
              <LatitudeDegrees>49.36758066527545452117919921875</LatitudeDegrees>
              <LongitudeDegrees>19.963264279067516326904296875</LongitudeDegrees>
            </Position>
            <AltitudeMeters>956.79998779296875</AltitudeMeters>
            <DistanceMeters>6916.191974331</DistanceMeters>
          </Trackpoint>
          <Trackpoint>
            <Time>2022-09-18T11:44:00.000Z</Time>
            <Position>
              <LatitudeDegrees>49.36750556342303752899169921875</LatitudeDegrees>
              <LongitudeDegrees>19.9634451605379581451416015625</LongitudeDegrees>
            </Position>
            <AltitudeMeters>955.79998779296875</AltitudeMeters>
            <DistanceMeters>6931.7403892521</DistanceMeters>
          </Trackpoint>
          <Trackpoint>
            <Time>2022-09-18T11:44:01.000Z</Time>
            <Position>
              <LatitudeDegrees>49.367484189569950103759765625</LatitudeDegrees>
              <LongitudeDegrees>19.963512383401393890380859375</LongitudeDegrees>
            </Position>
            <AltitudeMeters>955.5999755859375</AltitudeMeters>
            <DistanceMeters>6937.1627438053</DistanceMeters>
          </Trackpoint>
          <Trackpoint>
            <Time>2022-09-18T11:44:03.000Z</Time>
            <Position>
              <LatitudeDegrees>49.36745393089950084686279296875</LatitudeDegrees>
              <LongitudeDegrees>19.96365160681307315826416015625</LongitudeDegrees>
            </Position>
            <AltitudeMeters>955</AltitudeMeters>
            <DistanceMeters>6947.8006438799</DistanceMeters>
          </Trackpoint>
          <Trackpoint>
            <Time>2022-09-18T11:44:04.000Z</Time>
            <Position>
              <LatitudeDegrees>49.3674395978450775146484375</LatitudeDegrees>
              <LongitudeDegrees>19.963716231286525726318359375</LongitudeDegrees>
            </Position>
            <AltitudeMeters>954.4000244140625</AltitudeMeters>
            <DistanceMeters>6952.7493373757</DistanceMeters>
          </Trackpoint>
          <Trackpoint>
            <Time>2022-09-18T11:44:09.000Z</Time>
            <Position>
              <LatitudeDegrees>49.36736248433589935302734375</LatitudeDegrees>
              <LongitudeDegrees>19.9640064127743244171142578125</LongitudeDegrees>
            </Position>
            <AltitudeMeters>953.4000244140625</AltitudeMeters>
            <DistanceMeters>6975.4656915829</DistanceMeters>
          </Trackpoint>
          <Trackpoint>
            <Time>2022-09-18T11:44:12.000Z</Time>
            <Position>
              <LatitudeDegrees>49.36731998808681964874267578125</LatitudeDegrees>
              <LongitudeDegrees>19.96419240720570087432861328125</LongitudeDegrees>
            </Position>
            <AltitudeMeters>953.4000244140625</AltitudeMeters>
            <DistanceMeters>6989.7526033535</DistanceMeters>
          </Trackpoint>
          <Trackpoint>
            <Time>2022-09-18T11:44:15.000Z</Time>
            <Position>
              <LatitudeDegrees>49.36729182489216327667236328125</LatitudeDegrees>
              <LongitudeDegrees>19.9643323011696338653564453125</LongitudeDegrees>
            </Position>
            <AltitudeMeters>953.5999755859375</AltitudeMeters>
            <DistanceMeters>7000.3654325467</DistanceMeters>
          </Trackpoint>
          <Trackpoint>
            <Time>2022-09-18T11:44:18.000Z</Time>
            <Position>
              <LatitudeDegrees>49.367256872355937957763671875</LatitudeDegrees>
              <LongitudeDegrees>19.964433722198009490966796875</LongitudeDegrees>
            </Position>
            <AltitudeMeters>953.5999755859375</AltitudeMeters>
            <DistanceMeters>7008.681763197</DistanceMeters>
          </Trackpoint>
          <Trackpoint>
            <Time>2022-09-18T11:44:20.000Z</Time>
            <Position>
              <LatitudeDegrees>49.3672342412173748016357421875</LatitudeDegrees>
              <LongitudeDegrees>19.96449348516762256622314453125</LongitudeDegrees>
            </Position>
            <AltitudeMeters>953.4000244140625</AltitudeMeters>
            <DistanceMeters>7013.692113735</DistanceMeters>
          </Trackpoint>
          <Trackpoint>
            <Time>2022-09-18T11:44:21.000Z</Time>
            <Position>
              <LatitudeDegrees>49.36722426675260066986083984375</LatitudeDegrees>
              <LongitudeDegrees>19.9645281024277210235595703125</LongitudeDegrees>
            </Position>
            <AltitudeMeters>953.4000244140625</AltitudeMeters>
            <DistanceMeters>7016.4363957457</DistanceMeters>
          </Trackpoint>
          <Trackpoint>
            <Time>2022-09-18T11:44:27.000Z</Time>
            <Position>
              <LatitudeDegrees>49.36712837778031826019287109375</LatitudeDegrees>
              <LongitudeDegrees>19.96477444656193256378173828125</LongitudeDegrees>
            </Position>
            <AltitudeMeters>952.5999755859375</AltitudeMeters>
            <DistanceMeters>7037.2383490962</DistanceMeters>
          </Trackpoint>
          <Trackpoint>
            <Time>2022-09-18T11:44:29.000Z</Time>
            <Position>
              <LatitudeDegrees>49.36710256151854991912841796875</LatitudeDegrees>
              <LongitudeDegrees>19.96482691727578639984130859375</LongitudeDegrees>
            </Position>
            <AltitudeMeters>952.20001220703125</AltitudeMeters>
            <DistanceMeters>7042.0048648397</DistanceMeters>
          </Trackpoint>
          <Trackpoint>
            <Time>2022-09-18T11:44:32.000Z</Time>
            <Position>
              <LatitudeDegrees>49.36709024012088775634765625</LatitudeDegrees>
              <LongitudeDegrees>19.964902102947235107421875</LongitudeDegrees>
            </Position>
            <AltitudeMeters>951.5999755859375</AltitudeMeters>
            <DistanceMeters>7047.6251146029</DistanceMeters>
          </Trackpoint>
          <Trackpoint>
            <Time>2022-09-18T11:44:34.000Z</Time>
            <Position>
              <LatitudeDegrees>49.36708143912255764007568359375</LatitudeDegrees>
              <LongitudeDegrees>19.964970834553241729736328125</LongitudeDegrees>
            </Position>
            <AltitudeMeters>951.20001220703125</AltitudeMeters>
            <DistanceMeters>7052.7026010133</DistanceMeters>
          </Trackpoint>
          <Trackpoint>
            <Time>2022-09-18T11:44:37.000Z</Time>
            <Position>
              <LatitudeDegrees>49.36709652654826641082763671875</LatitudeDegrees>
              <LongitudeDegrees>19.96508357115089893341064453125</LongitudeDegrees>
            </Position>
            <AltitudeMeters>950.20001220703125</AltitudeMeters>
            <DistanceMeters>7061.0449507514</DistanceMeters>
          </Trackpoint>
          <Trackpoint>
            <Time>2022-09-18T11:44:38.000Z</Time>
            <Position>
              <LatitudeDegrees>49.36710759066045284271240234375</LatitudeDegrees>
              <LongitudeDegrees>19.96511399745941162109375</LongitudeDegrees>
            </Position>
            <AltitudeMeters>950</AltitudeMeters>
            <DistanceMeters>7063.5698733184</DistanceMeters>
          </Trackpoint>
          <Trackpoint>
            <Time>2022-09-18T11:44:42.000Z</Time>
            <Position>
              <LatitudeDegrees>49.3671648390591144561767578125</LatitudeDegrees>
              <LongitudeDegrees>19.96524685062468051910400390625</LongitudeDegrees>
            </Position>
            <AltitudeMeters>949.20001220703125</AltitudeMeters>
            <DistanceMeters>7075.1163034429</DistanceMeters>
          </Trackpoint>
          <Trackpoint>
            <Time>2022-09-18T11:44:43.000Z</Time>
            <Position>
              <LatitudeDegrees>49.3671732209622859954833984375</LatitudeDegrees>
              <LongitudeDegrees>19.96527828276157379150390625</LongitudeDegrees>
            </Position>
            <AltitudeMeters>949</AltitudeMeters>
            <DistanceMeters>7077.577843874</DistanceMeters>
          </Trackpoint>
          <Trackpoint>
            <Time>2022-09-18T11:44:47.000Z</Time>
            <Position>
              <LatitudeDegrees>49.36721722595393657684326171875</LatitudeDegrees>
              <LongitudeDegrees>19.965360425412654876708984375</LongitudeDegrees>
            </Position>
            <AltitudeMeters>948.79998779296875</AltitudeMeters>
            <DistanceMeters>7085.2873161746</DistanceMeters>
          </Trackpoint>
          <Trackpoint>
            <Time>2022-09-18T11:44:48.000Z</Time>
            <Position>
              <LatitudeDegrees>49.36723046936094760894775390625</LatitudeDegrees>
              <LongitudeDegrees>19.96537710539996623992919921875</LongitudeDegrees>
            </Position>
            <AltitudeMeters>948.79998779296875</AltitudeMeters>
            <DistanceMeters>7087.1949641523</DistanceMeters>
          </Trackpoint>
          <Trackpoint>
            <Time>2022-09-18T11:44:50.000Z</Time>
            <Position>
              <LatitudeDegrees>49.367248825728893280029296875</LatitudeDegrees>
              <LongitudeDegrees>19.96542052365839481353759765625</LongitudeDegrees>
            </Position>
            <AltitudeMeters>948.5999755859375</AltitudeMeters>
            <DistanceMeters>7090.9458119364</DistanceMeters>
          </Trackpoint>
          <Trackpoint>
            <Time>2022-09-18T11:44:53.000Z</Time>
            <Position>
              <LatitudeDegrees>49.36726165004074573516845703125</LatitudeDegrees>
              <LongitudeDegrees>19.965524040162563323974609375</LongitudeDegrees>
            </Position>
            <AltitudeMeters>948.20001220703125</AltitudeMeters>
            <DistanceMeters>7098.5835009736</DistanceMeters>
          </Trackpoint>
          <Trackpoint>
            <Time>2022-09-18T11:44:54.000Z</Time>
            <Position>
              <LatitudeDegrees>49.36726517044007778167724609375</LatitudeDegrees>
              <LongitudeDegrees>19.9655632674694061279296875</LongitudeDegrees>
            </Position>
            <AltitudeMeters>948</AltitudeMeters>
            <DistanceMeters>7101.4532448153</DistanceMeters>
          </Trackpoint>
          <Trackpoint>
            <Time>2022-09-18T11:45:00.000Z</Time>
            <Position>
              <LatitudeDegrees>49.36727338470518589019775390625</LatitudeDegrees>
              <LongitudeDegrees>19.96575294993817806243896484375</LongitudeDegrees>
            </Position>
            <AltitudeMeters>946.79998779296875</AltitudeMeters>
            <DistanceMeters>7115.2317907167</DistanceMeters>
          </Trackpoint>
          <Trackpoint>
            <Time>2022-09-18T11:45:01.000Z</Time>
            <Position>
              <LatitudeDegrees>49.36727120541036128997802734375</LatitudeDegrees>
              <LongitudeDegrees>19.9657853879034519195556640625</LongitudeDegrees>
            </Position>
            <AltitudeMeters>946.79998779296875</AltitudeMeters>
            <DistanceMeters>7117.5979368228</DistanceMeters>
          </Trackpoint>
          <Trackpoint>
            <Time>2022-09-18T11:45:08.000Z</Time>
            <Position>
              <LatitudeDegrees>49.36721202917397022247314453125</LatitudeDegrees>
              <LongitudeDegrees>19.96602569706737995147705078125</LongitudeDegrees>
            </Position>
            <AltitudeMeters>945.5999755859375</AltitudeMeters>
            <DistanceMeters>7136.2195362579</DistanceMeters>
          </Trackpoint>
          <Trackpoint>
            <Time>2022-09-18T11:45:13.000Z</Time>
            <Position>
              <LatitudeDegrees>49.36718814074993133544921875</LatitudeDegrees>
              <LongitudeDegrees>19.9662091769278049468994140625</LongitudeDegrees>
            </Position>
            <AltitudeMeters>944.4000244140625</AltitudeMeters>
            <DistanceMeters>7149.7817494655</DistanceMeters>
          </Trackpoint>
          <Trackpoint>
            <Time>2022-09-18T11:45:15.000Z</Time>
            <Position>
              <LatitudeDegrees>49.36720532365143299102783203125</LatitudeDegrees>
              <LongitudeDegrees>19.96633331291377544403076171875</LongitudeDegrees>
            </Position>
            <AltitudeMeters>944.20001220703125</AltitudeMeters>
            <DistanceMeters>7158.980217614</DistanceMeters>
          </Trackpoint>
          <Trackpoint>
            <Time>2022-09-18T11:45:16.000Z</Time>
            <Position>
              <LatitudeDegrees>49.367223680019378662109375</LatitudeDegrees>
              <LongitudeDegrees>19.96640271507203578948974609375</LongitudeDegrees>
            </Position>
            <AltitudeMeters>943.5999755859375</AltitudeMeters>
            <DistanceMeters>7164.4100610362</DistanceMeters>
          </Trackpoint>
          <Trackpoint>
            <Time>2022-09-18T11:45:17.000Z</Time>
            <Position>
              <LatitudeDegrees>49.36724958010017871856689453125</LatitudeDegrees>
              <LongitudeDegrees>19.966473877429962158203125</LongitudeDegrees>
            </Position>
            <AltitudeMeters>943</AltitudeMeters>
            <DistanceMeters>7170.3185528516</DistanceMeters>
          </Trackpoint>
          <Trackpoint>
            <Time>2022-09-18T11:45:19.000Z</Time>
            <Position>
              <LatitudeDegrees>49.36731060035526752471923828125</LatitudeDegrees>
              <LongitudeDegrees>19.9666148610413074493408203125</LongitudeDegrees>
            </Position>
            <AltitudeMeters>941.20001220703125</AltitudeMeters>
            <DistanceMeters>7182.5884116313</DistanceMeters>
          </Trackpoint>
          <Trackpoint>
            <Time>2022-09-18T11:45:21.000Z</Time>
            <Position>
              <LatitudeDegrees>49.36738930642604827880859375</LatitudeDegrees>
              <LongitudeDegrees>19.96673949994146823883056640625</LongitudeDegrees>
            </Position>
            <AltitudeMeters>940.20001220703125</AltitudeMeters>
            <DistanceMeters>7195.1721877149</DistanceMeters>
          </Trackpoint>
          <Trackpoint>
            <Time>2022-09-18T11:45:25.000Z</Time>
            <Position>
              <LatitudeDegrees>49.3675467185676097869873046875</LatitudeDegrees>
              <LongitudeDegrees>19.96695726178586483001708984375</LongitudeDegrees>
            </Position>
            <AltitudeMeters>939.4000244140625</AltitudeMeters>
            <DistanceMeters>7218.7533689283</DistanceMeters>
          </Trackpoint>
          <Trackpoint>
            <Time>2022-09-18T11:45:31.000Z</Time>
            <Position>
              <LatitudeDegrees>49.36770848929882049560546875</LatitudeDegrees>
              <LongitudeDegrees>19.9672435037791728973388671875</LongitudeDegrees>
            </Position>
            <AltitudeMeters>939.4000244140625</AltitudeMeters>
            <DistanceMeters>7246.2238153802</DistanceMeters>
          </Trackpoint>
          <Trackpoint>
            <Time>2022-09-18T11:45:32.000Z</Time>
            <Position>
              <LatitudeDegrees>49.367732964456081390380859375</LatitudeDegrees>
              <LongitudeDegrees>19.96729589067399501800537109375</LongitudeDegrees>
            </Position>
            <AltitudeMeters>939.20001220703125</AltitudeMeters>
            <DistanceMeters>7250.8965795345</DistanceMeters>
          </Trackpoint>
          <Trackpoint>
            <Time>2022-09-18T11:45:33.000Z</Time>
            <Position>
              <LatitudeDegrees>49.36775936745107173919677734375</LatitudeDegrees>
              <LongitudeDegrees>19.9673534743487834930419921875</LongitudeDegrees>
            </Position>
            <AltitudeMeters>938.79998779296875</AltitudeMeters>
            <DistanceMeters>7256.0015575577</DistanceMeters>
          </Trackpoint>
          <Trackpoint>
            <Time>2022-09-18T11:45:35.000Z</Time>
            <Position>
              <LatitudeDegrees>49.36780882067978382110595703125</LatitudeDegrees>
              <LongitudeDegrees>19.96747978962957859039306640625</LongitudeDegrees>
            </Position>
            <AltitudeMeters>937.20001220703125</AltitudeMeters>
            <DistanceMeters>7266.6839297672</DistanceMeters>
          </Trackpoint>
          <Trackpoint>
            <Time>2022-09-18T11:45:36.000Z</Time>
            <Position>
              <LatitudeDegrees>49.3678367324173450469970703125</LatitudeDegrees>
              <LongitudeDegrees>19.967545755207538604736328125</LongitudeDegrees>
            </Position>
            <AltitudeMeters>936.79998779296875</AltitudeMeters>
            <DistanceMeters>7272.3855326294</DistanceMeters>
          </Trackpoint>
          <Trackpoint>
            <Time>2022-09-18T11:45:38.000Z</Time>
            <Position>
              <LatitudeDegrees>49.3678933940827846527099609375</LatitudeDegrees>
              <LongitudeDegrees>19.9676810391247272491455078125</LongitudeDegrees>
            </Position>
            <AltitudeMeters>936.20001220703125</AltitudeMeters>
            <DistanceMeters>7284.0440364199</DistanceMeters>
          </Trackpoint>
          <Trackpoint>
            <Time>2022-09-18T11:45:42.000Z</Time>
            <Position>
              <LatitudeDegrees>49.36801887117326259613037109375</LatitudeDegrees>
              <LongitudeDegrees>19.9679692089557647705078125</LongitudeDegrees>
            </Position>
            <AltitudeMeters>935.5999755859375</AltitudeMeters>
            <DistanceMeters>7309.1695741097</DistanceMeters>
          </Trackpoint>
          <Trackpoint>
            <Time>2022-09-18T11:45:43.000Z</Time>
            <Position>
              <LatitudeDegrees>49.36805105768144130706787109375</LatitudeDegrees>
              <LongitudeDegrees>19.96804221533238887786865234375</LongitudeDegrees>
            </Position>
            <AltitudeMeters>935.20001220703125</AltitudeMeters>
            <DistanceMeters>7315.5597232221</DistanceMeters>
          </Trackpoint>
          <Trackpoint>
            <Time>2022-09-18T11:45:46.000Z</Time>
            <Position>
              <LatitudeDegrees>49.36813722364604473114013671875</LatitudeDegrees>
              <LongitudeDegrees>19.96825427748262882232666015625</LongitudeDegrees>
            </Position>
            <AltitudeMeters>934.5999755859375</AltitudeMeters>
            <DistanceMeters>7333.6767102394</DistanceMeters>
          </Trackpoint>
          <Trackpoint>
            <Time>2022-09-18T11:45:48.000Z</Time>
            <Position>
              <LatitudeDegrees>49.368189610540866851806640625</LatitudeDegrees>
              <LongitudeDegrees>19.9683834426105022430419921875</LongitudeDegrees>
            </Position>
            <AltitudeMeters>934.20001220703125</AltitudeMeters>
            <DistanceMeters>7344.7059513637</DistanceMeters>
          </Trackpoint>
          <Trackpoint>
            <Time>2022-09-18T11:45:49.000Z</Time>
            <Position>
              <LatitudeDegrees>49.36821517534554004669189453125</LatitudeDegrees>
              <LongitudeDegrees>19.9684412777423858642578125</LongitudeDegrees>
            </Position>
            <AltitudeMeters>934.20001220703125</AltitudeMeters>
            <DistanceMeters>7349.7718646331</DistanceMeters>
          </Trackpoint>
          <Trackpoint>
            <Time>2022-09-18T11:45:53.000Z</Time>
            <Position>
              <LatitudeDegrees>49.368296228349208831787109375</LatitudeDegrees>
              <LongitudeDegrees>19.968639425933361053466796875</LongitudeDegrees>
            </Position>
            <AltitudeMeters>934.20001220703125</AltitudeMeters>
            <DistanceMeters>7366.7319370105</DistanceMeters>
          </Trackpoint>
          <Trackpoint>
            <Time>2022-09-18T11:45:55.000Z</Time>
            <Position>
              <LatitudeDegrees>49.36833453364670276641845703125</LatitudeDegrees>
              <LongitudeDegrees>19.96873774565756320953369140625</LongitudeDegrees>
            </Position>
            <AltitudeMeters>934</AltitudeMeters>
            <DistanceMeters>7375.0357712891</DistanceMeters>
          </Trackpoint>
          <Trackpoint>
            <Time>2022-09-18T11:46:01.000Z</Time>
            <Position>
              <LatitudeDegrees>49.36843729577958583831787109375</LatitudeDegrees>
              <LongitudeDegrees>19.96901585720479488372802734375</LongitudeDegrees>
            </Position>
            <AltitudeMeters>933</AltitudeMeters>
            <DistanceMeters>7398.2119667732</DistanceMeters>
          </Trackpoint>
          <Trackpoint>
            <Time>2022-09-18T11:46:02.000Z</Time>
            <Position>
              <LatitudeDegrees>49.3684546463191509246826171875</LatitudeDegrees>
              <LongitudeDegrees>19.9690617062151432037353515625</LongitudeDegrees>
            </Position>
            <AltitudeMeters>932.5999755859375</AltitudeMeters>
            <DistanceMeters>7402.0555595016</DistanceMeters>
          </Trackpoint>
          <Trackpoint>
            <Time>2022-09-18T11:46:07.000Z</Time>
            <Position>
              <LatitudeDegrees>49.3685337714850902557373046875</LatitudeDegrees>
              <LongitudeDegrees>19.96929396875202655792236328125</LongitudeDegrees>
            </Position>
            <AltitudeMeters>931.79998779296875</AltitudeMeters>
            <DistanceMeters>7421.0542493411</DistanceMeters>
          </Trackpoint>
          <Trackpoint>
            <Time>2022-09-18T11:46:09.000Z</Time>
            <Position>
              <LatitudeDegrees>49.36856537126004695892333984375</LatitudeDegrees>
              <LongitudeDegrees>19.969423301517963409423828125</LongitudeDegrees>
            </Position>
            <AltitudeMeters>931</AltitudeMeters>
            <DistanceMeters>7431.0659349399</DistanceMeters>
          </Trackpoint>
          <Trackpoint>
            <Time>2022-09-18T11:46:11.000Z</Time>
            <Position>
              <LatitudeDegrees>49.3685964681208133697509765625</LatitudeDegrees>
              <LongitudeDegrees>19.96954207308590412139892578125</LongitudeDegrees>
            </Position>
            <AltitudeMeters>930.4000244140625</AltitudeMeters>
            <DistanceMeters>7440.3440661494</DistanceMeters>
          </Trackpoint>
          <Trackpoint>
            <Time>2022-09-18T11:46:14.000Z</Time>
            <Position>
              <LatitudeDegrees>49.3686439096927642822265625</LatitudeDegrees>
              <LongitudeDegrees>19.96970350854098796844482421875</LongitudeDegrees>
            </Position>
            <AltitudeMeters>929.4000244140625</AltitudeMeters>
            <DistanceMeters>7453.1811166293</DistanceMeters>
          </Trackpoint>
          <Trackpoint>
            <Time>2022-09-18T11:46:15.000Z</Time>
            <Position>
              <LatitudeDegrees>49.3686638586223125457763671875</LatitudeDegrees>
              <LongitudeDegrees>19.969758577644824981689453125</LongitudeDegrees>
            </Position>
            <AltitudeMeters>929.20001220703125</AltitudeMeters>
            <DistanceMeters>7457.7493226954</DistanceMeters>
          </Trackpoint>
          <Trackpoint>
            <Time>2022-09-18T11:46:17.000Z</Time>
            <Position>
              <LatitudeDegrees>49.36870803125202655792236328125</LatitudeDegrees>
              <LongitudeDegrees>19.9698747508227825164794921875</LongitudeDegrees>
            </Position>
            <AltitudeMeters>928.20001220703125</AltitudeMeters>
            <DistanceMeters>7467.4996378084</DistanceMeters>
          </Trackpoint>
          <Trackpoint>
            <Time>2022-09-18T11:46:21.000Z</Time>
            <Position>
              <LatitudeDegrees>49.3688090331852436065673828125</LatitudeDegrees>
              <LongitudeDegrees>19.9700893275439739227294921875</LongitudeDegrees>
            </Position>
            <AltitudeMeters>926.79998779296875</AltitudeMeters>
            <DistanceMeters>7486.6893881294</DistanceMeters>
          </Trackpoint>
          <Trackpoint>
            <Time>2022-09-18T11:46:23.000Z</Time>
            <Position>
              <LatitudeDegrees>49.36886225827038288116455078125</LatitudeDegrees>
              <LongitudeDegrees>19.970189072191715240478515625</LongitudeDegrees>
            </Position>
            <AltitudeMeters>925.4000244140625</AltitudeMeters>
            <DistanceMeters>7496.0358826337</DistanceMeters>
          </Trackpoint>
          <Trackpoint>
            <Time>2022-09-18T11:46:26.000Z</Time>
            <Position>
              <LatitudeDegrees>49.368928559124469757080078125</LatitudeDegrees>
              <LongitudeDegrees>19.97032712213695049285888671875</LongitudeDegrees>
            </Position>
            <AltitudeMeters>924.79998779296875</AltitudeMeters>
            <DistanceMeters>7508.4687764468</DistanceMeters>
          </Trackpoint>
          <Trackpoint>
            <Time>2022-09-18T11:46:28.000Z</Time>
            <Position>
              <LatitudeDegrees>49.36897139064967632293701171875</LatitudeDegrees>
              <LongitudeDegrees>19.97040624730288982391357421875</LongitudeDegrees>
            </Position>
            <AltitudeMeters>924.5999755859375</AltitudeMeters>
            <DistanceMeters>7515.9264061519</DistanceMeters>
          </Trackpoint>
          <Trackpoint>
            <Time>2022-09-18T11:46:36.000Z</Time>
            <Position>
              <LatitudeDegrees>49.36911941505968570709228515625</LatitudeDegrees>
              <LongitudeDegrees>19.9707305431365966796875</LongitudeDegrees>
            </Position>
            <AltitudeMeters>924.79998779296875</AltitudeMeters>
            <DistanceMeters>7544.6298225791</DistanceMeters>
          </Trackpoint>
          <Trackpoint>
            <Time>2022-09-18T11:46:37.000Z</Time>
            <Position>
              <LatitudeDegrees>49.36913467012345790863037109375</LatitudeDegrees>
              <LongitudeDegrees>19.9707789905369281768798828125</LongitudeDegrees>
            </Position>
            <AltitudeMeters>924.4000244140625</AltitudeMeters>
            <DistanceMeters>7548.5293929057</DistanceMeters>
          </Trackpoint>
          <Trackpoint>
            <Time>2022-09-18T11:46:42.000Z</Time>
            <Position>
              <LatitudeDegrees>49.3692083470523357391357421875</LatitudeDegrees>
              <LongitudeDegrees>19.971022568643093109130859375</LongitudeDegrees>
            </Position>
            <AltitudeMeters>923.4000244140625</AltitudeMeters>
            <DistanceMeters>7567.9950302614</DistanceMeters>
          </Trackpoint>
          <Trackpoint>
            <Time>2022-09-18T11:46:43.000Z</Time>
            <Position>
              <LatitudeDegrees>49.3692257814109325408935546875</LatitudeDegrees>
              <LongitudeDegrees>19.9710736982524394989013671875</LongitudeDegrees>
            </Position>
            <AltitudeMeters>923.20001220703125</AltitudeMeters>
            <DistanceMeters>7572.1783648343</DistanceMeters>
          </Trackpoint>
          <Trackpoint>
            <Time>2022-09-18T11:46:48.000Z</Time>
            <Position>
              <LatitudeDegrees>49.3693085946142673492431640625</LatitudeDegrees>
              <LongitudeDegrees>19.97135373763740062713623046875</LongitudeDegrees>
            </Position>
            <AltitudeMeters>922.20001220703125</AltitudeMeters>
            <DistanceMeters>7594.4697767805</DistanceMeters>
          </Trackpoint>
          <Trackpoint>
            <Time>2022-09-18T11:46:52.000Z</Time>
            <Position>
              <LatitudeDegrees>49.3693763203918933868408203125</LatitudeDegrees>
              <LongitudeDegrees>19.97158675454556941986083984375</LongitudeDegrees>
            </Position>
            <AltitudeMeters>921.4000244140625</AltitudeMeters>
            <DistanceMeters>7612.9643777662</DistanceMeters>
          </Trackpoint>
          <Trackpoint>
            <Time>2022-09-18T11:46:54.000Z</Time>
            <Position>
              <LatitudeDegrees>49.3694145418703556060791015625</LatitudeDegrees>
              <LongitudeDegrees>19.97170795686542987823486328125</LongitudeDegrees>
            </Position>
            <AltitudeMeters>921</AltitudeMeters>
            <DistanceMeters>7622.724875012</DistanceMeters>
          </Trackpoint>
          <Trackpoint>
            <Time>2022-09-18T11:46:57.000Z</Time>
            <Position>
              <LatitudeDegrees>49.36948201619088649749755859375</LatitudeDegrees>
              <LongitudeDegrees>19.9718870781362056732177734375</LongitudeDegrees>
            </Position>
            <AltitudeMeters>919.79998779296875</AltitudeMeters>
            <DistanceMeters>7637.722848349</DistanceMeters>
          </Trackpoint>
          <Trackpoint>
            <Time>2022-09-18T11:46:58.000Z</Time>
            <Position>
              <LatitudeDegrees>49.3695037253201007843017578125</LatitudeDegrees>
              <LongitudeDegrees>19.97194767929613590240478515625</LongitudeDegrees>
            </Position>
            <AltitudeMeters>919.4000244140625</AltitudeMeters>
            <DistanceMeters>7642.7359015847</DistanceMeters>
          </Trackpoint>
          <Trackpoint>
            <Time>2022-09-18T11:47:00.000Z</Time>
            <Position>
              <LatitudeDegrees>49.36954689212143421173095703125</LatitudeDegrees>
              <LongitudeDegrees>19.972061254084110260009765625</LongitudeDegrees>
            </Position>
            <AltitudeMeters>918.5999755859375</AltitudeMeters>
            <DistanceMeters>7652.2670384018</DistanceMeters>
          </Trackpoint>
          <Trackpoint>
            <Time>2022-09-18T11:47:01.000Z</Time>
            <Position>
              <LatitudeDegrees>49.369566254317760467529296875</LatitudeDegrees>
              <LongitudeDegrees>19.97211900539696216583251953125</LongitudeDegrees>
            </Position>
            <AltitudeMeters>918</AltitudeMeters>
            <DistanceMeters>7656.9734996538</DistanceMeters>
          </Trackpoint>
          <Trackpoint>
            <Time>2022-09-18T11:47:02.000Z</Time>
            <Position>
              <LatitudeDegrees>49.369585029780864715576171875</LatitudeDegrees>
              <LongitudeDegrees>19.97217784635722637176513671875</LongitudeDegrees>
            </Position>
            <AltitudeMeters>917.4000244140625</AltitudeMeters>
            <DistanceMeters>7661.7210327821</DistanceMeters>
          </Trackpoint>
          <Trackpoint>
            <Time>2022-09-18T11:47:05.000Z</Time>
            <Position>
              <LatitudeDegrees>49.36964504420757293701171875</LatitudeDegrees>
              <LongitudeDegrees>19.97233944945037364959716796875</LongitudeDegrees>
            </Position>
            <AltitudeMeters>916.4000244140625</AltitudeMeters>
            <DistanceMeters>7675.2044495986</DistanceMeters>
          </Trackpoint>
          <Trackpoint>
            <Time>2022-09-18T11:47:09.000Z</Time>
            <Position>
              <LatitudeDegrees>49.3697154521942138671875</LatitudeDegrees>
              <LongitudeDegrees>19.9725237675011157989501953125</LongitudeDegrees>
            </Position>
            <AltitudeMeters>915.5999755859375</AltitudeMeters>
            <DistanceMeters>7690.6923465073</DistanceMeters>
          </Trackpoint>
          <Trackpoint>
            <Time>2022-09-18T11:47:10.000Z</Time>
            <Position>
              <LatitudeDegrees>49.36973481439054012298583984375</LatitudeDegrees>
              <LongitudeDegrees>19.972572885453701019287109375</LongitudeDegrees>
            </Position>
            <AltitudeMeters>915</AltitudeMeters>
            <DistanceMeters>7694.8529542205</DistanceMeters>
          </Trackpoint>
          <Trackpoint>
            <Time>2022-09-18T11:47:16.000Z</Time>
            <Position>
              <LatitudeDegrees>49.3698428571224212646484375</LatitudeDegrees>
              <LongitudeDegrees>19.97287991456687450408935546875</LongitudeDegrees>
            </Position>
            <AltitudeMeters>914</AltitudeMeters>
            <DistanceMeters>7720.1468451046</DistanceMeters>
          </Trackpoint>
          <Trackpoint>
            <Time>2022-09-18T11:47:17.000Z</Time>
            <Position>
              <LatitudeDegrees>49.36986272223293781280517578125</LatitudeDegrees>
              <LongitudeDegrees>19.9729317985475063323974609375</LongitudeDegrees>
            </Position>
            <AltitudeMeters>913.79998779296875</AltitudeMeters>
            <DistanceMeters>7724.5098029481</DistanceMeters>
          </Trackpoint>
          <Trackpoint>
            <Time>2022-09-18T11:47:21.000Z</Time>
            <Position>
              <LatitudeDegrees>49.36994201503694057464599609375</LatitudeDegrees>
              <LongitudeDegrees>19.97312382794916629791259765625</LongitudeDegrees>
            </Position>
            <AltitudeMeters>912.79998779296875</AltitudeMeters>
            <DistanceMeters>7740.9897477031</DistanceMeters>
          </Trackpoint>
          <Trackpoint>
            <Time>2022-09-18T11:47:24.000Z</Time>
            <Position>
              <LatitudeDegrees>49.3699848465621471405029296875</LatitudeDegrees>
              <LongitudeDegrees>19.97323681600391864776611328125</LongitudeDegrees>
            </Position>
            <AltitudeMeters>911.5999755859375</AltitudeMeters>
            <DistanceMeters>7750.4652978234</DistanceMeters>
          </Trackpoint>
          <Trackpoint>
            <Time>2022-09-18T11:47:27.000Z</Time>
            <Position>
              <LatitudeDegrees>49.3700337968766689300537109375</LatitudeDegrees>
              <LongitudeDegrees>19.97334041632711887359619140625</LongitudeDegrees>
            </Position>
            <AltitudeMeters>910.79998779296875</AltitudeMeters>
            <DistanceMeters>7759.7419690211</DistanceMeters>
          </Trackpoint>
          <Trackpoint>
            <Time>2022-09-18T11:47:28.000Z</Time>
            <Position>
              <LatitudeDegrees>49.37004812993109226226806640625</LatitudeDegrees>
              <LongitudeDegrees>19.97337025590240955352783203125</LongitudeDegrees>
            </Position>
            <AltitudeMeters>910.5999755859375</AltitudeMeters>
            <DistanceMeters>7762.4314097123</DistanceMeters>
          </Trackpoint>
          <Trackpoint>
            <Time>2022-09-18T11:47:30.000Z</Time>
            <Position>
              <LatitudeDegrees>49.3700690008699893951416015625</LatitudeDegrees>
              <LongitudeDegrees>19.9734387360513210296630859375</LongitudeDegrees>
            </Position>
            <AltitudeMeters>910.4000244140625</AltitudeMeters>
            <DistanceMeters>7767.9117412947</DistanceMeters>
          </Trackpoint>
          <Trackpoint>
            <Time>2022-09-18T11:47:34.000Z</Time>
            <Position>
              <LatitudeDegrees>49.37011979520320892333984375</LatitudeDegrees>
              <LongitudeDegrees>19.9735969863831996917724609375</LongitudeDegrees>
            </Position>
            <AltitudeMeters>909.4000244140625</AltitudeMeters>
            <DistanceMeters>7780.6983969988</DistanceMeters>
          </Trackpoint>
          <Trackpoint>
            <Time>2022-09-18T11:47:38.000Z</Time>
            <Position>
              <LatitudeDegrees>49.37017771415412425994873046875</LatitudeDegrees>
              <LongitudeDegrees>19.97377024032175540924072265625</LongitudeDegrees>
            </Position>
            <AltitudeMeters>908.20001220703125</AltitudeMeters>
            <DistanceMeters>7794.8133031828</DistanceMeters>
          </Trackpoint>
          <Trackpoint>
            <Time>2022-09-18T11:47:41.000Z</Time>
            <Position>
              <LatitudeDegrees>49.3702024407684803009033203125</LatitudeDegrees>
              <LongitudeDegrees>19.97386864386498928070068359375</LongitudeDegrees>
            </Position>
            <AltitudeMeters>907</AltitudeMeters>
            <DistanceMeters>7802.4580827574</DistanceMeters>
          </Trackpoint>
          <Trackpoint>
            <Time>2022-09-18T11:47:46.000Z</Time>
            <Position>
              <LatitudeDegrees>49.370253570377826690673828125</LatitudeDegrees>
              <LongitudeDegrees>19.9741002358496189117431640625</LongitudeDegrees>
            </Position>
            <AltitudeMeters>905.79998779296875</AltitudeMeters>
            <DistanceMeters>7820.1815203241</DistanceMeters>
          </Trackpoint>
          <Trackpoint>
            <Time>2022-09-18T11:47:51.000Z</Time>
            <Position>
              <LatitudeDegrees>49.37030084431171417236328125</LatitudeDegrees>
              <LongitudeDegrees>19.9742789380252361297607421875</LongitudeDegrees>
            </Position>
            <AltitudeMeters>905.20001220703125</AltitudeMeters>
            <DistanceMeters>7834.1611095312</DistanceMeters>
          </Trackpoint>
          <Trackpoint>
            <Time>2022-09-18T11:47:55.000Z</Time>
            <Position>
              <LatitudeDegrees>49.37033780850470066070556640625</LatitudeDegrees>
              <LongitudeDegrees>19.97443961910903453826904296875</LongitudeDegrees>
            </Position>
            <AltitudeMeters>904.79998779296875</AltitudeMeters>
            <DistanceMeters>7846.5123892805</DistanceMeters>
          </Trackpoint>
          <Trackpoint>
            <Time>2022-09-18T11:47:57.000Z</Time>
            <Position>
              <LatitudeDegrees>49.370350800454616546630859375</LatitudeDegrees>
              <LongitudeDegrees>19.9745297245681285858154296875</LongitudeDegrees>
            </Position>
            <AltitudeMeters>903.5999755859375</AltitudeMeters>
            <DistanceMeters>7853.2008120171</DistanceMeters>
          </Trackpoint>
          <Trackpoint>
            <Time>2022-09-18T11:47:59.000Z</Time>
            <Position>
              <LatitudeDegrees>49.37036077491939067840576171875</LatitudeDegrees>
              <LongitudeDegrees>19.97462184168398380279541015625</LongitudeDegrees>
            </Position>
            <AltitudeMeters>903</AltitudeMeters>
            <DistanceMeters>7859.9690893311</DistanceMeters>
          </Trackpoint>
          <Trackpoint>
            <Time>2022-09-18T11:48:01.000Z</Time>
            <Position>
              <LatitudeDegrees>49.37037083320319652557373046875</LatitudeDegrees>
              <LongitudeDegrees>19.974715970456600189208984375</LongitudeDegrees>
            </Position>
            <AltitudeMeters>902.4000244140625</AltitudeMeters>
            <DistanceMeters>7866.8825685289</DistanceMeters>
          </Trackpoint>
          <Trackpoint>
            <Time>2022-09-18T11:48:05.000Z</Time>
            <Position>
              <LatitudeDegrees>49.3703873455524444580078125</LatitudeDegrees>
              <LongitudeDegrees>19.97490699402987957000732421875</LongitudeDegrees>
            </Position>
            <AltitudeMeters>901.4000244140625</AltitudeMeters>
            <DistanceMeters>7880.848909541</DistanceMeters>
          </Trackpoint>
          <Trackpoint>
            <Time>2022-09-18T11:48:07.000Z</Time>
            <Position>
              <LatitudeDegrees>49.370394051074981689453125</LatitudeDegrees>
              <LongitudeDegrees>19.974998943507671356201171875</LongitudeDegrees>
            </Position>
            <AltitudeMeters>900.79998779296875</AltitudeMeters>
            <DistanceMeters>7887.5548606809</DistanceMeters>
          </Trackpoint>
          <Trackpoint>
            <Time>2022-09-18T11:48:08.000Z</Time>
            <Position>
              <LatitudeDegrees>49.3703979067504405975341796875</LatitudeDegrees>
              <LongitudeDegrees>19.9750463850796222686767578125</LongitudeDegrees>
            </Position>
            <AltitudeMeters>900.5999755859375</AltitudeMeters>
            <DistanceMeters>7891.0204056121</DistanceMeters>
          </Trackpoint>
          <Trackpoint>
            <Time>2022-09-18T11:48:09.000Z</Time>
            <Position>
              <LatitudeDegrees>49.37040369026362895965576171875</LatitudeDegrees>
              <LongitudeDegrees>19.9750906415283679962158203125</LongitudeDegrees>
            </Position>
            <AltitudeMeters>900.20001220703125</AltitudeMeters>
            <DistanceMeters>7894.292968929</DistanceMeters>
          </Trackpoint>
          <Trackpoint>
            <Time>2022-09-18T11:48:13.000Z</Time>
            <Position>
              <LatitudeDegrees>49.37044861726462841033935546875</LatitudeDegrees>
              <LongitudeDegrees>19.97530781663954257965087890625</LongitudeDegrees>
            </Position>
            <AltitudeMeters>899</AltitudeMeters>
            <DistanceMeters>7910.808491599</DistanceMeters>
          </Trackpoint>
          <Trackpoint>
            <Time>2022-09-18T11:48:14.000Z</Time>
            <Position>
              <LatitudeDegrees>49.37046177685260772705078125</LatitudeDegrees>
              <LongitudeDegrees>19.97535877861082553863525390625</LongitudeDegrees>
            </Position>
            <AltitudeMeters>898.79998779296875</AltitudeMeters>
            <DistanceMeters>7914.7826083186</DistanceMeters>
          </Trackpoint>
          <Trackpoint>
            <Time>2022-09-18T11:48:15.000Z</Time>
            <Position>
              <LatitudeDegrees>49.3704847432672977447509765625</LatitudeDegrees>
              <LongitudeDegrees>19.97543857432901859283447265625</LongitudeDegrees>
            </Position>
            <AltitudeMeters>898.5999755859375</AltitudeMeters>
            <DistanceMeters>7921.1059917874</DistanceMeters>
          </Trackpoint>
          <Trackpoint>
            <Time>2022-09-18T11:48:18.000Z</Time>
            <Position>
              <LatitudeDegrees>49.37056328170001506805419921875</LatitudeDegrees>
              <LongitudeDegrees>19.97566572390496730804443359375</LongitudeDegrees>
            </Position>
            <AltitudeMeters>897.79998779296875</AltitudeMeters>
            <DistanceMeters>7939.7457670344</DistanceMeters>
          </Trackpoint>
          <Trackpoint>
            <Time>2022-09-18T11:48:19.000Z</Time>
            <Position>
              <LatitudeDegrees>49.37059345655143260955810546875</LatitudeDegrees>
              <LongitudeDegrees>19.97574434615671634674072265625</LongitudeDegrees>
            </Position>
            <AltitudeMeters>897.5999755859375</AltitudeMeters>
            <DistanceMeters>7946.3601997667</DistanceMeters>
          </Trackpoint>
          <Trackpoint>
            <Time>2022-09-18T11:48:21.000Z</Time>
            <Position>
              <LatitudeDegrees>49.37063989229500293731689453125</LatitudeDegrees>
              <LongitudeDegrees>19.97588583268225193023681640625</LongitudeDegrees>
            </Position>
            <AltitudeMeters>896.79998779296875</AltitudeMeters>
            <DistanceMeters>7957.843107771</DistanceMeters>
          </Trackpoint>
          <Trackpoint>
            <Time>2022-09-18T11:48:24.000Z</Time>
            <Position>
              <LatitudeDegrees>49.37072890810668468475341796875</LatitudeDegrees>
              <LongitudeDegrees>19.97615187428891658782958984375</LongitudeDegrees>
            </Position>
            <AltitudeMeters>895.5999755859375</AltitudeMeters>
            <DistanceMeters>7979.5210737323</DistanceMeters>
          </Trackpoint>
          <Trackpoint>
            <Time>2022-09-18T11:48:25.000Z</Time>
            <Position>
              <LatitudeDegrees>49.370752461254596710205078125</LatitudeDegrees>
              <LongitudeDegrees>19.9762143194675445556640625</LongitudeDegrees>
            </Position>
            <AltitudeMeters>895.20001220703125</AltitudeMeters>
            <DistanceMeters>7984.7518606354</DistanceMeters>
          </Trackpoint>
          <Trackpoint>
            <Time>2022-09-18T11:48:27.000Z</Time>
            <Position>
              <LatitudeDegrees>49.3708149902522563934326171875</LatitudeDegrees>
              <LongitudeDegrees>19.976373575627803802490234375</LongitudeDegrees>
            </Position>
            <AltitudeMeters>894.79998779296875</AltitudeMeters>
            <DistanceMeters>7998.2295836533</DistanceMeters>
          </Trackpoint>
          <Trackpoint>
            <Time>2022-09-18T11:48:28.000Z</Time>
            <Position>
              <LatitudeDegrees>49.37083552591502666473388671875</LatitudeDegrees>
              <LongitudeDegrees>19.97644792310893535614013671875</LongitudeDegrees>
            </Position>
            <AltitudeMeters>894.4000244140625</AltitudeMeters>
            <DistanceMeters>8004.0827973029</DistanceMeters>
          </Trackpoint>
          <Trackpoint>
            <Time>2022-09-18T11:48:31.000Z</Time>
            <Position>
              <LatitudeDegrees>49.370893947780132293701171875</LatitudeDegrees>
              <LongitudeDegrees>19.97667104937136173248291015625</LongitudeDegrees>
            </Position>
            <AltitudeMeters>893.79998779296875</AltitudeMeters>
            <DistanceMeters>8021.5123650465</DistanceMeters>
          </Trackpoint>
          <Trackpoint>
            <Time>2022-09-18T11:48:33.000Z</Time>
            <Position>
              <LatitudeDegrees>49.37093518674373626708984375</LatitudeDegrees>
              <LongitudeDegrees>19.97681823559105396270751953125</LongitudeDegrees>
            </Position>
            <AltitudeMeters>893</AltitudeMeters>
            <DistanceMeters>8033.1250805607</DistanceMeters>
          </Trackpoint>
          <Trackpoint>
            <Time>2022-09-18T11:48:36.000Z</Time>
            <Position>
              <LatitudeDegrees>49.3710081093013286590576171875</LatitudeDegrees>
              <LongitudeDegrees>19.977039434015750885009765625</LongitudeDegrees>
            </Position>
            <AltitudeMeters>891.79998779296875</AltitudeMeters>
            <DistanceMeters>8051.0939261922</DistanceMeters>
          </Trackpoint>
          <Trackpoint>
            <Time>2022-09-18T11:48:39.000Z</Time>
            <Position>
              <LatitudeDegrees>49.37107608653604984283447265625</LatitudeDegrees>
              <LongitudeDegrees>19.97724319808185100555419921875</LongitudeDegrees>
            </Position>
            <AltitudeMeters>890.4000244140625</AltitudeMeters>
            <DistanceMeters>8067.6871796663</DistanceMeters>
          </Trackpoint>
          <Trackpoint>
            <Time>2022-09-18T11:48:46.000Z</Time>
            <Position>
              <LatitudeDegrees>49.37125646509230136871337890625</LatitudeDegrees>
              <LongitudeDegrees>19.97773940674960613250732421875</LongitudeDegrees>
            </Position>
            <AltitudeMeters>889.5999755859375</AltitudeMeters>
            <DistanceMeters>8108.8742176833</DistanceMeters>
          </Trackpoint>
          <Trackpoint>
            <Time>2022-09-18T11:48:47.000Z</Time>
            <Position>
              <LatitudeDegrees>49.37127716839313507080078125</LatitudeDegrees>
              <LongitudeDegrees>19.97779355384409427642822265625</LongitudeDegrees>
            </Position>
            <AltitudeMeters>889.20001220703125</AltitudeMeters>
            <DistanceMeters>8113.424598468</DistanceMeters>
          </Trackpoint>
          <Trackpoint>
            <Time>2022-09-18T11:48:53.000Z</Time>
            <Position>
              <LatitudeDegrees>49.37142427079379558563232421875</LatitudeDegrees>
              <LongitudeDegrees>19.9782348610460758209228515625</LongitudeDegrees>
            </Position>
            <AltitudeMeters>888.20001220703125</AltitudeMeters>
            <DistanceMeters>8149.3552534723</DistanceMeters>
          </Trackpoint>
          <Trackpoint>
            <Time>2022-09-18T11:48:54.000Z</Time>
            <Position>
              <LatitudeDegrees>49.37144706957042217254638671875</LatitudeDegrees>
              <LongitudeDegrees>19.97829713858664035797119140625</LongitudeDegrees>
            </Position>
            <AltitudeMeters>888</AltitudeMeters>
            <DistanceMeters>8154.5339914497</DistanceMeters>
          </Trackpoint>
          <Trackpoint>
            <Time>2022-09-18T11:49:00.000Z</Time>
            <Position>
              <LatitudeDegrees>49.3715599738061428070068359375</LatitudeDegrees>
              <LongitudeDegrees>19.97866929508745670318603515625</LongitudeDegrees>
            </Position>
            <AltitudeMeters>887.79998779296875</AltitudeMeters>
            <DistanceMeters>8184.289646296</DistanceMeters>
          </Trackpoint>
          <Trackpoint>
            <Time>2022-09-18T11:49:02.000Z</Time>
            <Position>
              <LatitudeDegrees>49.3715951777994632720947265625</LatitudeDegrees>
              <LongitudeDegrees>19.9788051657378673553466796875</LongitudeDegrees>
            </Position>
            <AltitudeMeters>887</AltitudeMeters>
            <DistanceMeters>8194.8875749054</DistanceMeters>
          </Trackpoint>
          <Trackpoint>
            <Time>2022-09-18T11:49:03.000Z</Time>
            <Position>
              <LatitudeDegrees>49.37161504290997982025146484375</LatitudeDegrees>
              <LongitudeDegrees>19.97887666337192058563232421875</LongitudeDegrees>
            </Position>
            <AltitudeMeters>886.79998779296875</AltitudeMeters>
            <DistanceMeters>8200.520663634</DistanceMeters>
          </Trackpoint>
          <Trackpoint>
            <Time>2022-09-18T11:49:08.000Z</Time>
            <Position>
              <LatitudeDegrees>49.37171394936740398406982421875</LatitudeDegrees>
              <LongitudeDegrees>19.97923457063734531402587890625</LongitudeDegrees>
            </Position>
            <AltitudeMeters>885.5999755859375</AltitudeMeters>
            <DistanceMeters>8228.6989286927</DistanceMeters>
          </Trackpoint>
          <Trackpoint>
            <Time>2022-09-18T11:49:11.000Z</Time>
            <Position>
              <LatitudeDegrees>49.37177069485187530517578125</LatitudeDegrees>
              <LongitudeDegrees>19.9794576130807399749755859375</LongitudeDegrees>
            </Position>
            <AltitudeMeters>884.4000244140625</AltitudeMeters>
            <DistanceMeters>8246.0537311898</DistanceMeters>
          </Trackpoint>
          <Trackpoint>
            <Time>2022-09-18T11:49:14.000Z</Time>
            <Position>
              <LatitudeDegrees>49.3718214891850948333740234375</LatitudeDegrees>
              <LongitudeDegrees>19.97965282760560512542724609375</LongitudeDegrees>
            </Position>
            <AltitudeMeters>883.20001220703125</AltitudeMeters>
            <DistanceMeters>8261.2894505712</DistanceMeters>
          </Trackpoint>
          <Trackpoint>
            <Time>2022-09-18T11:49:16.000Z</Time>
            <Position>
              <LatitudeDegrees>49.3718553520739078521728515625</LatitudeDegrees>
              <LongitudeDegrees>19.979807473719120025634765625</LongitudeDegrees>
            </Position>
            <AltitudeMeters>882.79998779296875</AltitudeMeters>
            <DistanceMeters>8273.1140733414</DistanceMeters>
          </Trackpoint>
          <Trackpoint>
            <Time>2022-09-18T11:49:21.000Z</Time>
            <Position>
              <LatitudeDegrees>49.37191394157707691192626953125</LatitudeDegrees>
              <LongitudeDegrees>19.98017728328704833984375</LongitudeDegrees>
            </Position>
            <AltitudeMeters>882.20001220703125</AltitudeMeters>
            <DistanceMeters>8300.6973675765</DistanceMeters>
          </Trackpoint>
          <Trackpoint>
            <Time>2022-09-18T11:49:25.000Z</Time>
            <Position>
              <LatitudeDegrees>49.3719505704939365386962890625</LatitudeDegrees>
              <LongitudeDegrees>19.980488754808902740478515625</LongitudeDegrees>
            </Position>
            <AltitudeMeters>881.20001220703125</AltitudeMeters>
            <DistanceMeters>8323.6360369885</DistanceMeters>
          </Trackpoint>
          <Trackpoint>
            <Time>2022-09-18T11:49:26.000Z</Time>
            <Position>
              <LatitudeDegrees>49.3719566054642200469970703125</LatitudeDegrees>
              <LongitudeDegrees>19.980567209422588348388671875</LongitudeDegrees>
            </Position>
            <AltitudeMeters>880.5999755859375</AltitudeMeters>
            <DistanceMeters>8329.3613472413</DistanceMeters>
          </Trackpoint>
          <Trackpoint>
            <Time>2022-09-18T11:49:29.000Z</Time>
            <Position>
              <LatitudeDegrees>49.37197814695537090301513671875</LatitudeDegrees>
              <LongitudeDegrees>19.98076845891773700714111328125</LongitudeDegrees>
            </Position>
            <AltitudeMeters>880</AltitudeMeters>
            <DistanceMeters>8344.1422020706</DistanceMeters>
          </Trackpoint>
          <Trackpoint>
            <Time>2022-09-18T11:49:31.000Z</Time>
            <Position>
              <LatitudeDegrees>49.3719864450395107269287109375</LatitudeDegrees>
              <LongitudeDegrees>19.98087708838284015655517578125</LongitudeDegrees>
            </Position>
            <AltitudeMeters>879.79998779296875</AltitudeMeters>
            <DistanceMeters>8352.0688200062</DistanceMeters>
          </Trackpoint>
          <Trackpoint>
            <Time>2022-09-18T11:49:34.000Z</Time>
            <Position>
              <LatitudeDegrees>49.37200094573199748992919921875</LatitudeDegrees>
              <LongitudeDegrees>19.9810096062719821929931640625</LongitudeDegrees>
            </Position>
            <AltitudeMeters>879.4000244140625</AltitudeMeters>
            <DistanceMeters>8361.8070879639</DistanceMeters>
          </Trackpoint>
          <Trackpoint>
            <Time>2022-09-18T11:49:38.000Z</Time>
            <Position>
              <LatitudeDegrees>49.372005723416805267333984375</LatitudeDegrees>
              <LongitudeDegrees>19.98122259043157100677490234375</LongitudeDegrees>
            </Position>
            <AltitudeMeters>878.5999755859375</AltitudeMeters>
            <DistanceMeters>8377.2517795873</DistanceMeters>
          </Trackpoint>
          <Trackpoint>
            <Time>2022-09-18T11:49:39.000Z</Time>
            <Position>
              <LatitudeDegrees>49.37200614251196384429931640625</LatitudeDegrees>
              <LongitudeDegrees>19.98127522878348827362060546875</LongitudeDegrees>
            </Position>
            <AltitudeMeters>878.4000244140625</AltitudeMeters>
            <DistanceMeters>8381.0670755428</DistanceMeters>
          </Trackpoint>
          <Trackpoint>
            <Time>2022-09-18T11:49:45.000Z</Time>
            <Position>
              <LatitudeDegrees>49.37203221023082733154296875</LatitudeDegrees>
              <LongitudeDegrees>19.9816097505390644073486328125</LongitudeDegrees>
            </Position>
            <AltitudeMeters>877.20001220703125</AltitudeMeters>
            <DistanceMeters>8405.4841338639</DistanceMeters>
          </Trackpoint>
          <Trackpoint>
            <Time>2022-09-18T11:49:51.000Z</Time>
            <Position>
              <LatitudeDegrees>49.37208442948758602142333984375</LatitudeDegrees>
              <LongitudeDegrees>19.98202331364154815673828125</LongitudeDegrees>
            </Position>
            <AltitudeMeters>876</AltitudeMeters>
            <DistanceMeters>8436.0150799843</DistanceMeters>
          </Trackpoint>
          <Trackpoint>
            <Time>2022-09-18T11:49:53.000Z</Time>
            <Position>
              <LatitudeDegrees>49.37210521660745143890380859375</LatitudeDegrees>
              <LongitudeDegrees>19.98215247876942157745361328125</LongitudeDegrees>
            </Position>
            <AltitudeMeters>875.20001220703125</AltitudeMeters>
            <DistanceMeters>8445.6573653497</DistanceMeters>
          </Trackpoint>
          <Trackpoint>
            <Time>2022-09-18T11:49:54.000Z</Time>
            <Position>
              <LatitudeDegrees>49.37211276032030582427978515625</LatitudeDegrees>
              <LongitudeDegrees>19.98220595531165599822998046875</LongitudeDegrees>
            </Position>
            <AltitudeMeters>874.79998779296875</AltitudeMeters>
            <DistanceMeters>8449.6212438812</DistanceMeters>
          </Trackpoint>
          <Trackpoint>
            <Time>2022-09-18T11:50:00.000Z</Time>
            <Position>
              <LatitudeDegrees>49.37218467704951763153076171875</LatitudeDegrees>
              <LongitudeDegrees>19.982611052691936492919921875</LongitudeDegrees>
            </Position>
            <AltitudeMeters>873.79998779296875</AltitudeMeters>
            <DistanceMeters>8480.0517594729</DistanceMeters>
          </Trackpoint>
          <Trackpoint>
            <Time>2022-09-18T11:50:01.000Z</Time>
            <Position>
              <LatitudeDegrees>49.3721951544284820556640625</LatitudeDegrees>
              <LongitudeDegrees>19.9826611764729022979736328125</LongitudeDegrees>
            </Position>
            <AltitudeMeters>873.5999755859375</AltitudeMeters>
            <DistanceMeters>8483.8670554283</DistanceMeters>
          </Trackpoint>
          <Trackpoint>
            <Time>2022-09-18T11:50:07.000Z</Time>
            <Position>
              <LatitudeDegrees>49.37227201648056507110595703125</LatitudeDegrees>
              <LongitudeDegrees>19.98300357721745967864990234375</LongitudeDegrees>
            </Position>
            <AltitudeMeters>872.79998779296875</AltitudeMeters>
            <DistanceMeters>8510.1150784466</DistanceMeters>
          </Trackpoint>
          <Trackpoint>
            <Time>2022-09-18T11:50:08.000Z</Time>
            <Position>
              <LatitudeDegrees>49.372280649840831756591796875</LatitudeDegrees>
              <LongitudeDegrees>19.9830487556755542755126953125</LongitudeDegrees>
            </Position>
            <AltitudeMeters>872.5999755859375</AltitudeMeters>
            <DistanceMeters>8513.5267889467</DistanceMeters>
          </Trackpoint>
          <Trackpoint>
            <Time>2022-09-18T11:50:09.000Z</Time>
            <Position>
              <LatitudeDegrees>49.3722905404865741729736328125</LatitudeDegrees>
              <LongitudeDegrees>19.9831208400428295135498046875</LongitudeDegrees>
            </Position>
            <AltitudeMeters>872.20001220703125</AltitudeMeters>
            <DistanceMeters>8518.8660727314</DistanceMeters>
          </Trackpoint>
          <Trackpoint>
            <Time>2022-09-18T11:50:11.000Z</Time>
            <Position>
              <LatitudeDegrees>49.3723096512258052825927734375</LatitudeDegrees>
              <LongitudeDegrees>19.98326106928288936614990234375</LongitudeDegrees>
            </Position>
            <AltitudeMeters>871.5999755859375</AltitudeMeters>
            <DistanceMeters>8529.2496709873</DistanceMeters>
          </Trackpoint>
          <Trackpoint>
            <Time>2022-09-18T11:50:14.000Z</Time>
            <Position>
              <LatitudeDegrees>49.3723207153379917144775390625</LatitudeDegrees>
              <LongitudeDegrees>19.9834916554391384124755859375</LongitudeDegrees>
            </Position>
            <AltitudeMeters>870.4000244140625</AltitudeMeters>
            <DistanceMeters>8546.0061979828</DistanceMeters>
          </Trackpoint>
          <Trackpoint>
            <Time>2022-09-18T11:50:18.000Z</Time>
            <Position>
              <LatitudeDegrees>49.372330270707607269287109375</LatitudeDegrees>
              <LongitudeDegrees>19.9837354011833667755126953125</LongitudeDegrees>
            </Position>
            <AltitudeMeters>869.20001220703125</AltitudeMeters>
            <DistanceMeters>8563.7033768909</DistanceMeters>
          </Trackpoint>
          <Trackpoint>
            <Time>2022-09-18T11:50:20.000Z</Time>
            <Position>
              <LatitudeDegrees>49.37233806587755680084228515625</LatitudeDegrees>
              <LongitudeDegrees>19.98385316692292690277099609375</LongitudeDegrees>
            </Position>
            <AltitudeMeters>868.79998779296875</AltitudeMeters>
            <DistanceMeters>8572.2821368839</DistanceMeters>
          </Trackpoint>
          <Trackpoint>
            <Time>2022-09-18T11:50:22.000Z</Time>
            <Position>
              <LatitudeDegrees>49.37234912998974323272705078125</LatitudeDegrees>
              <LongitudeDegrees>19.98394788242876529693603515625</LongitudeDegrees>
            </Position>
            <AltitudeMeters>868.20001220703125</AltitudeMeters>
            <DistanceMeters>8579.2560878249</DistanceMeters>
          </Trackpoint>
          <Trackpoint>
            <Time>2022-09-18T11:50:27.000Z</Time>
            <Position>
              <LatitudeDegrees>49.37237821519374847412109375</LatitudeDegrees>
              <LongitudeDegrees>19.9842631258070468902587890625</LongitudeDegrees>
            </Position>
            <AltitudeMeters>867.4000244140625</AltitudeMeters>
            <DistanceMeters>8602.3309535329</DistanceMeters>
          </Trackpoint>
          <Trackpoint>
            <Time>2022-09-18T11:50:29.000Z</Time>
            <Position>
              <LatitudeDegrees>49.37239455990493297576904296875</LatitudeDegrees>
              <LongitudeDegrees>19.98443193733692169189453125</LongitudeDegrees>
            </Position>
            <AltitudeMeters>867</AltitudeMeters>
            <DistanceMeters>8614.6997673448</DistanceMeters>
          </Trackpoint>
          <Trackpoint>
            <Time>2022-09-18T11:50:31.000Z</Time>
            <Position>
              <LatitudeDegrees>49.3724092282354831695556640625</LatitudeDegrees>
              <LongitudeDegrees>19.98462178744375705718994140625</LongitudeDegrees>
            </Position>
            <AltitudeMeters>865.5999755859375</AltitudeMeters>
            <DistanceMeters>8628.5554313562</DistanceMeters>
          </Trackpoint>
          <Trackpoint>
            <Time>2022-09-18T11:50:32.000Z</Time>
            <Position>
              <LatitudeDegrees>49.3724199570715427398681640625</LatitudeDegrees>
              <LongitudeDegrees>19.98471583239734172821044921875</LongitudeDegrees>
            </Position>
            <AltitudeMeters>865</AltitudeMeters>
            <DistanceMeters>8635.4747857557</DistanceMeters>
          </Trackpoint>
          <Trackpoint>
            <Time>2022-09-18T11:50:34.000Z</Time>
            <Position>
              <LatitudeDegrees>49.37243814580142498016357421875</LatitudeDegrees>
              <LongitudeDegrees>19.98490056954324245452880859375</LongitudeDegrees>
            </Position>
            <AltitudeMeters>864</AltitudeMeters>
            <DistanceMeters>8649.0153423218</DistanceMeters>
          </Trackpoint>
          <Trackpoint>
            <Time>2022-09-18T11:50:36.000Z</Time>
            <Position>
              <LatitudeDegrees>49.37246295623481273651123046875</LatitudeDegrees>
              <LongitudeDegrees>19.985069297254085540771484375</LongitudeDegrees>
            </Position>
            <AltitudeMeters>862.79998779296875</AltitudeMeters>
            <DistanceMeters>8661.5513073965</DistanceMeters>
          </Trackpoint>
          <Trackpoint>
            <Time>2022-09-18T11:50:38.000Z</Time>
            <Position>
              <LatitudeDegrees>49.37248642556369304656982421875</LatitudeDegrees>
              <LongitudeDegrees>19.9852236919105052947998046875</LongitudeDegrees>
            </Position>
            <AltitudeMeters>862</AltitudeMeters>
            <DistanceMeters>8673.041683704</DistanceMeters>
          </Trackpoint>
          <Trackpoint>
            <Time>2022-09-18T11:50:41.000Z</Time>
            <Position>
              <LatitudeDegrees>49.37251693569123744964599609375</LatitudeDegrees>
              <LongitudeDegrees>19.98543013818562030792236328125</LongitudeDegrees>
            </Position>
            <AltitudeMeters>861.5999755859375</AltitudeMeters>
            <DistanceMeters>8688.3843051469</DistanceMeters>
          </Trackpoint>
          <Trackpoint>
            <Time>2022-09-18T11:50:44.000Z</Time>
            <Position>
              <LatitudeDegrees>49.372534118592739105224609375</LatitudeDegrees>
              <LongitudeDegrees>19.98560464940965175628662109375</LongitudeDegrees>
            </Position>
            <AltitudeMeters>861.20001220703125</AltitudeMeters>
            <DistanceMeters>8701.1751974149</DistanceMeters>
          </Trackpoint>
          <Trackpoint>
            <Time>2022-09-18T11:50:46.000Z</Time>
            <Position>
              <LatitudeDegrees>49.37254241667687892913818359375</LatitudeDegrees>
              <LongitudeDegrees>19.98573088087141513824462890625</LongitudeDegrees>
            </Position>
            <AltitudeMeters>860.5999755859375</AltitudeMeters>
            <DistanceMeters>8710.3697379509</DistanceMeters>
          </Trackpoint>
          <Trackpoint>
            <Time>2022-09-18T11:50:50.000Z</Time>
            <Position>
              <LatitudeDegrees>49.3725768662989139556884765625</LatitudeDegrees>
              <LongitudeDegrees>19.98599298298358917236328125</LongitudeDegrees>
            </Position>
            <AltitudeMeters>859.4000244140625</AltitudeMeters>
            <DistanceMeters>8729.7479661703</DistanceMeters>
          </Trackpoint>
          <Trackpoint>
            <Time>2022-09-18T11:50:53.000Z</Time>
            <Position>
              <LatitudeDegrees>49.37260762788355350494384765625</LatitudeDegrees>
              <LongitudeDegrees>19.98624435625970363616943359375</LongitudeDegrees>
            </Position>
            <AltitudeMeters>858.4000244140625</AltitudeMeters>
            <DistanceMeters>8748.2847530775</DistanceMeters>
          </Trackpoint>
          <Trackpoint>
            <Time>2022-09-18T11:50:55.000Z</Time>
            <Position>
              <LatitudeDegrees>49.3726378865540027618408203125</LatitudeDegrees>
              <LongitudeDegrees>19.9864254891872406005859375</LongitudeDegrees>
            </Position>
            <AltitudeMeters>857.5999755859375</AltitudeMeters>
            <DistanceMeters>8761.8373083669</DistanceMeters>
          </Trackpoint>
          <Trackpoint>
            <Time>2022-09-18T11:50:57.000Z</Time>
            <Position>
              <LatitudeDegrees>49.37266697175800800323486328125</LatitudeDegrees>
              <LongitudeDegrees>19.98659036122262477874755859375</LongitudeDegrees>
            </Position>
            <AltitudeMeters>857.4000244140625</AltitudeMeters>
            <DistanceMeters>8774.2163389127</DistanceMeters>
          </Trackpoint>
          <Trackpoint>
            <Time>2022-09-18T11:51:01.000Z</Time>
            <Position>
              <LatitudeDegrees>49.372719861567020416259765625</LatitudeDegrees>
              <LongitudeDegrees>19.98686847276985645294189453125</LongitudeDegrees>
            </Position>
            <AltitudeMeters>856.20001220703125</AltitudeMeters>
            <DistanceMeters>8795.2138026256</DistanceMeters>
          </Trackpoint>
          <Trackpoint>
            <Time>2022-09-18T11:51:05.000Z</Time>
            <Position>
              <LatitudeDegrees>49.372787587344646453857421875</LatitudeDegrees>
              <LongitudeDegrees>19.98718514107167720794677734375</LongitudeDegrees>
            </Position>
            <AltitudeMeters>855.20001220703125</AltitudeMeters>
            <DistanceMeters>8819.3696607072</DistanceMeters>
          </Trackpoint>
          <Trackpoint>
            <Time>2022-09-18T11:51:08.000Z</Time>
            <Position>
              <LatitudeDegrees>49.372850619256496429443359375</LatitudeDegrees>
              <LongitudeDegrees>19.98742436058819293975830078125</LongitudeDegrees>
            </Position>
            <AltitudeMeters>854.20001220703125</AltitudeMeters>
            <DistanceMeters>8838.0720672651</DistanceMeters>
          </Trackpoint>
          <Trackpoint>
            <Time>2022-09-18T11:51:09.000Z</Time>
            <Position>
              <LatitudeDegrees>49.37287400476634502410888671875</LatitudeDegrees>
              <LongitudeDegrees>19.9875025637447834014892578125</LongitudeDegrees>
            </Position>
            <AltitudeMeters>853.79998779296875</AltitudeMeters>
            <DistanceMeters>8844.3077315575</DistanceMeters>
          </Trackpoint>
          <Trackpoint>
            <Time>2022-09-18T11:51:12.000Z</Time>
            <Position>
              <LatitudeDegrees>49.37293946743011474609375</LatitudeDegrees>
              <LongitudeDegrees>19.98774446547031402587890625</LongitudeDegrees>
            </Position>
            <AltitudeMeters>852.79998779296875</AltitudeMeters>
            <DistanceMeters>8863.2926326945</DistanceMeters>
          </Trackpoint>
          <Trackpoint>
            <Time>2022-09-18T11:51:13.000Z</Time>
            <Position>
              <LatitudeDegrees>49.37295950017869472503662109375</LatitudeDegrees>
              <LongitudeDegrees>19.98782987706363201141357421875</LongitudeDegrees>
            </Position>
            <AltitudeMeters>852.4000244140625</AltitudeMeters>
            <DistanceMeters>8869.871474264</DistanceMeters>
          </Trackpoint>
          <Trackpoint>
            <Time>2022-09-18T11:51:15.000Z</Time>
            <Position>
              <LatitudeDegrees>49.3729929439723491668701171875</LatitudeDegrees>
              <LongitudeDegrees>19.98796985484659671783447265625</LongitudeDegrees>
            </Position>
            <AltitudeMeters>851.79998779296875</AltitudeMeters>
            <DistanceMeters>8880.6769769557</DistanceMeters>
          </Trackpoint>
          <Trackpoint>
            <Time>2022-09-18T11:51:16.000Z</Time>
            <Position>
              <LatitudeDegrees>49.37301456928253173828125</LatitudeDegrees>
              <LongitudeDegrees>19.9880562722682952880859375</LongitudeDegrees>
            </Position>
            <AltitudeMeters>851.20001220703125</AltitudeMeters>
            <DistanceMeters>8887.3856207081</DistanceMeters>
          </Trackpoint>
          <Trackpoint>
            <Time>2022-09-18T11:51:18.000Z</Time>
            <Position>
              <LatitudeDegrees>49.3730442412197589874267578125</LatitudeDegrees>
              <LongitudeDegrees>19.988175295293331146240234375</LongitudeDegrees>
            </Position>
            <AltitudeMeters>850.5999755859375</AltitudeMeters>
            <DistanceMeters>8896.6222955558</DistanceMeters>
          </Trackpoint>
          <Trackpoint>
            <Time>2022-09-18T11:51:20.000Z</Time>
            <Position>
              <LatitudeDegrees>49.37306427396833896636962890625</LatitudeDegrees>
              <LongitudeDegrees>19.9883125908672809600830078125</LongitudeDegrees>
            </Position>
            <AltitudeMeters>850.20001220703125</AltitudeMeters>
            <DistanceMeters>8906.8189763969</DistanceMeters>
          </Trackpoint>
          <Trackpoint>
            <Time>2022-09-18T11:51:21.000Z</Time>
            <Position>
              <LatitudeDegrees>49.37307215295732021331787109375</LatitudeDegrees>
              <LongitudeDegrees>19.9883786402642726898193359375</LongitudeDegrees>
            </Position>
            <AltitudeMeters>850</AltitudeMeters>
            <DistanceMeters>8911.6848638223</DistanceMeters>
          </Trackpoint>
          <Trackpoint>
            <Time>2022-09-18T11:51:26.000Z</Time>
            <Position>
              <LatitudeDegrees>49.37311674468219280242919921875</LatitudeDegrees>
              <LongitudeDegrees>19.98874367214739322662353515625</LongitudeDegrees>
            </Position>
            <AltitudeMeters>848.79998779296875</AltitudeMeters>
            <DistanceMeters>8938.6010863117</DistanceMeters>
          </Trackpoint>
          <Trackpoint>
            <Time>2022-09-18T11:51:28.000Z</Time>
            <Position>
              <LatitudeDegrees>49.373138286173343658447265625</LatitudeDegrees>
              <LongitudeDegrees>19.98889370821416378021240234375</LongitudeDegrees>
            </Position>
            <AltitudeMeters>848.20001220703125</AltitudeMeters>
            <DistanceMeters>8949.7354439267</DistanceMeters>
          </Trackpoint>
          <Trackpoint>
            <Time>2022-09-18T11:51:31.000Z</Time>
            <Position>
              <LatitudeDegrees>49.37316410243511199951171875</LatitudeDegrees>
              <LongitudeDegrees>19.9891058541834354400634765625</LongitudeDegrees>
            </Position>
            <AltitudeMeters>847.79998779296875</AltitudeMeters>
            <DistanceMeters>8965.3759289213</DistanceMeters>
          </Trackpoint>
          <Trackpoint>
            <Time>2022-09-18T11:51:35.000Z</Time>
            <Position>
              <LatitudeDegrees>49.3732008151710033416748046875</LatitudeDegrees>
              <LongitudeDegrees>19.98943383805453777313232421875</LongitudeDegrees>
            </Position>
            <AltitudeMeters>846.79998779296875</AltitudeMeters>
            <DistanceMeters>8989.4940010709</DistanceMeters>
          </Trackpoint>
          <Trackpoint>
            <Time>2022-09-18T11:51:38.000Z</Time>
            <Position>
              <LatitudeDegrees>49.37322621233761310577392578125</LatitudeDegrees>
              <LongitudeDegrees>19.989653863012790679931640625</LongitudeDegrees>
            </Position>
            <AltitudeMeters>845.5999755859375</AltitudeMeters>
            <DistanceMeters>9005.6881815098</DistanceMeters>
          </Trackpoint>
          <Trackpoint>
            <Time>2022-09-18T11:51:43.000Z</Time>
            <Position>
              <LatitudeDegrees>49.37326594255864620208740234375</LatitudeDegrees>
              <LongitudeDegrees>19.98995351605117321014404296875</LongitudeDegrees>
            </Position>
            <AltitudeMeters>844.79998779296875</AltitudeMeters>
            <DistanceMeters>9027.8503997638</DistanceMeters>
          </Trackpoint>
          <Trackpoint>
            <Time>2022-09-18T11:51:44.000Z</Time>
            <Position>
              <LatitudeDegrees>49.3732692115008831024169921875</LatitudeDegrees>
              <LongitudeDegrees>19.990004561841487884521484375</LongitudeDegrees>
            </Position>
            <AltitudeMeters>844.5999755859375</AltitudeMeters>
            <DistanceMeters>9031.5673900731</DistanceMeters>
          </Trackpoint>
          <Trackpoint>
            <Time>2022-09-18T11:51:50.000Z</Time>
            <Position>
              <LatitudeDegrees>49.3732936866581439971923828125</LatitudeDegrees>
              <LongitudeDegrees>19.990357272326946258544921875</LongitudeDegrees>
            </Position>
            <AltitudeMeters>843.4000244140625</AltitudeMeters>
            <DistanceMeters>9057.2738288418</DistanceMeters>
          </Trackpoint>
          <Trackpoint>
            <Time>2022-09-18T11:51:56.000Z</Time>
            <Position>
              <LatitudeDegrees>49.37335495837032794952392578125</LatitudeDegrees>
              <LongitudeDegrees>19.99070671387016773223876953125</LongitudeDegrees>
            </Position>
            <AltitudeMeters>842.4000244140625</AltitudeMeters>
            <DistanceMeters>9083.5005133995</DistanceMeters>
          </Trackpoint>
          <Trackpoint>
            <Time>2022-09-18T11:51:58.000Z</Time>
            <Position>
              <LatitudeDegrees>49.37336803413927555084228515625</LatitudeDegrees>
              <LongitudeDegrees>19.99083076603710651397705078125</LongitudeDegrees>
            </Position>
            <AltitudeMeters>842.20001220703125</AltitudeMeters>
            <DistanceMeters>9092.6077222001</DistanceMeters>
          </Trackpoint>
          <Trackpoint>
            <Time>2022-09-18T11:52:03.000Z</Time>
            <Position>
              <LatitudeDegrees>49.37341220676898956298828125</LatitudeDegrees>
              <LongitudeDegrees>19.991119019687175750732421875</LongitudeDegrees>
            </Position>
            <AltitudeMeters>841.20001220703125</AltitudeMeters>
            <DistanceMeters>9114.0686173107</DistanceMeters>
          </Trackpoint>
          <Trackpoint>
            <Time>2022-09-18T11:52:07.000Z</Time>
            <Position>
              <LatitudeDegrees>49.37344615347683429718017578125</LatitudeDegrees>
              <LongitudeDegrees>19.99135195277631282806396484375</LongitudeDegrees>
            </Position>
            <AltitudeMeters>840.79998779296875</AltitudeMeters>
            <DistanceMeters>9131.3673948189</DistanceMeters>
          </Trackpoint>
          <Trackpoint>
            <Time>2022-09-18T11:52:11.000Z</Time>
            <Position>
              <LatitudeDegrees>49.37347683124244213104248046875</LatitudeDegrees>
              <LongitudeDegrees>19.9915376119315624237060546875</LongitudeDegrees>
            </Position>
            <AltitudeMeters>840.20001220703125</AltitudeMeters>
            <DistanceMeters>9145.2491033345</DistanceMeters>
          </Trackpoint>
          <Trackpoint>
            <Time>2022-09-18T11:52:15.000Z</Time>
            <Position>
              <LatitudeDegrees>49.373516142368316650390625</LatitudeDegrees>
              <LongitudeDegrees>19.991745315492153167724609375</LongitudeDegrees>
            </Position>
            <AltitudeMeters>839.20001220703125</AltitudeMeters>
            <DistanceMeters>9160.924767282</DistanceMeters>
          </Trackpoint>
          <Trackpoint>
            <Time>2022-09-18T11:52:16.000Z</Time>
            <Position>
              <LatitudeDegrees>49.37352527864277362823486328125</LatitudeDegrees>
              <LongitudeDegrees>19.99180189333856105804443359375</LongitudeDegrees>
            </Position>
            <AltitudeMeters>838.79998779296875</AltitudeMeters>
            <DistanceMeters>9165.1478468428</DistanceMeters>
          </Trackpoint>
          <Trackpoint>
            <Time>2022-09-18T11:52:20.000Z</Time>
            <Position>
              <LatitudeDegrees>49.37355704605579376220703125</LatitudeDegrees>
              <LongitudeDegrees>19.9920314736664295196533203125</LongitudeDegrees>
            </Position>
            <AltitudeMeters>838</AltitudeMeters>
            <DistanceMeters>9182.1573632752</DistanceMeters>
          </Trackpoint>
          <Trackpoint>
            <Time>2022-09-18T11:52:23.000Z</Time>
            <Position>
              <LatitudeDegrees>49.37357179820537567138671875</LatitudeDegrees>
              <LongitudeDegrees>19.9922044761478900909423828125</LongitudeDegrees>
            </Position>
            <AltitudeMeters>837.4000244140625</AltitudeMeters>
            <DistanceMeters>9194.8019879638</DistanceMeters>
          </Trackpoint>
          <Trackpoint>
            <Time>2022-09-18T11:52:24.000Z</Time>
            <Position>
              <LatitudeDegrees>49.3735763244330883026123046875</LatitudeDegrees>
              <LongitudeDegrees>19.9922587908804416656494140625</LongitudeDegrees>
            </Position>
            <AltitudeMeters>837</AltitudeMeters>
            <DistanceMeters>9198.770420062</DistanceMeters>
          </Trackpoint>
          <Trackpoint>
            <Time>2022-09-18T11:52:27.000Z</Time>
            <Position>
              <LatitudeDegrees>49.37359702773392200469970703125</LatitudeDegrees>
              <LongitudeDegrees>19.99239264987409114837646484375</LongitudeDegrees>
            </Position>
            <AltitudeMeters>836.4000244140625</AltitudeMeters>
            <DistanceMeters>9208.7414351382</DistanceMeters>
          </Trackpoint>
          <Trackpoint>
            <Time>2022-09-18T11:52:29.000Z</Time>
            <Position>
              <LatitudeDegrees>49.37361337244510650634765625</LatitudeDegrees>
              <LongitudeDegrees>19.9925006926059722900390625</LongitudeDegrees>
            </Position>
            <AltitudeMeters>836</AltitudeMeters>
            <DistanceMeters>9216.7800436641</DistanceMeters>
          </Trackpoint>
          <Trackpoint>
            <Time>2022-09-18T11:52:34.000Z</Time>
            <Position>
              <LatitudeDegrees>49.3736591376364231109619140625</LatitudeDegrees>
              <LongitudeDegrees>19.99271401204168796539306640625</LongitudeDegrees>
            </Position>
            <AltitudeMeters>834.79998779296875</AltitudeMeters>
            <DistanceMeters>9233.0570963108</DistanceMeters>
          </Trackpoint>
          <Trackpoint>
            <Time>2022-09-18T11:52:35.000Z</Time>
            <Position>
              <LatitudeDegrees>49.37367062084376811981201171875</LatitudeDegrees>
              <LongitudeDegrees>19.992753826081752777099609375</LongitudeDegrees>
            </Position>
            <AltitudeMeters>834.5999755859375</AltitudeMeters>
            <DistanceMeters>9236.2145010036</DistanceMeters>
          </Trackpoint>
          <Trackpoint>
            <Time>2022-09-18T11:52:40.000Z</Time>
            <Position>
              <LatitudeDegrees>49.3737191520631313323974609375</LatitudeDegrees>
              <LongitudeDegrees>19.9929541535675525665283203125</LongitudeDegrees>
            </Position>
            <AltitudeMeters>833.79998779296875</AltitudeMeters>
            <DistanceMeters>9251.705021374</DistanceMeters>
          </Trackpoint>
          <Trackpoint>
            <Time>2022-09-18T11:52:43.000Z</Time>
            <Position>
              <LatitudeDegrees>49.3737473152577877044677734375</LatitudeDegrees>
              <LongitudeDegrees>19.9930986575782299041748046875</LongitudeDegrees>
            </Position>
            <AltitudeMeters>833</AltitudeMeters>
            <DistanceMeters>9262.6368113308</DistanceMeters>
          </Trackpoint>
          <Trackpoint>
            <Time>2022-09-18T11:52:44.000Z</Time>
            <Position>
              <LatitudeDegrees>49.37375846318900585174560546875</LatitudeDegrees>
              <LongitudeDegrees>19.9931529723107814788818359375</LongitudeDegrees>
            </Position>
            <AltitudeMeters>832.5999755859375</AltitudeMeters>
            <DistanceMeters>9266.7636411278</DistanceMeters>
          </Trackpoint>
          <Trackpoint>
            <Time>2022-09-18T11:52:45.000Z</Time>
            <Position>
              <LatitudeDegrees>49.3737670965492725372314453125</LatitudeDegrees>
              <LongitudeDegrees>19.99320452101528644561767578125</LongitudeDegrees>
            </Position>
            <AltitudeMeters>832.20001220703125</AltitudeMeters>
            <DistanceMeters>9270.6201338224</DistanceMeters>
          </Trackpoint>
          <Trackpoint>
            <Time>2022-09-18T11:52:49.000Z</Time>
            <Position>
              <LatitudeDegrees>49.37378696165978908538818359375</LatitudeDegrees>
              <LongitudeDegrees>19.99341054819524288177490234375</LongitudeDegrees>
            </Position>
            <AltitudeMeters>831.4000244140625</AltitudeMeters>
            <DistanceMeters>9285.7141335799</DistanceMeters>
          </Trackpoint>
          <Trackpoint>
            <Time>2022-09-18T11:52:51.000Z</Time>
            <Position>
              <LatitudeDegrees>49.3737895600497722625732421875</LatitudeDegrees>
              <LongitudeDegrees>19.99350626952946186065673828125</LongitudeDegrees>
            </Position>
            <AltitudeMeters>830.79998779296875</AltitudeMeters>
            <DistanceMeters>9292.6582395851</DistanceMeters>
          </Trackpoint>
          <Trackpoint>
            <Time>2022-09-18T11:52:54.000Z</Time>
            <Position>
              <LatitudeDegrees>49.37379316426813602447509765625</LatitudeDegrees>
              <LongitudeDegrees>19.99363996088504791259765625</LongitudeDegrees>
            </Position>
            <AltitudeMeters>830.20001220703125</AltitudeMeters>
            <DistanceMeters>9302.3556215043</DistanceMeters>
          </Trackpoint>
          <Trackpoint>
            <Time>2022-09-18T11:52:57.000Z</Time>
            <Position>
              <LatitudeDegrees>49.373812191188335418701171875</LatitudeDegrees>
              <LongitudeDegrees>19.99378303997218608856201171875</LongitudeDegrees>
            </Position>
            <AltitudeMeters>829.4000244140625</AltitudeMeters>
            <DistanceMeters>9312.9390551726</DistanceMeters>
          </Trackpoint>
          <Trackpoint>
            <Time>2022-09-18T11:52:58.000Z</Time>
            <Position>
              <LatitudeDegrees>49.37381780706346035003662109375</LatitudeDegrees>
              <LongitudeDegrees>19.99384573660790920257568359375</LongitudeDegrees>
            </Position>
            <AltitudeMeters>829</AltitudeMeters>
            <DistanceMeters>9317.5260016639</DistanceMeters>
          </Trackpoint>
          <Trackpoint>
            <Time>2022-09-18T11:53:01.000Z</Time>
            <Position>
              <LatitudeDegrees>49.37381512485444545745849609375</LatitudeDegrees>
              <LongitudeDegrees>19.99402821063995361328125</LongitudeDegrees>
            </Position>
            <AltitudeMeters>827.79998779296875</AltitudeMeters>
            <DistanceMeters>9330.7535018502</DistanceMeters>
          </Trackpoint>
          <Trackpoint>
            <Time>2022-09-18T11:53:05.000Z</Time>
            <Position>
              <LatitudeDegrees>49.373837001621723175048828125</LatitudeDegrees>
              <LongitudeDegrees>19.99425410293042659759521484375</LongitudeDegrees>
            </Position>
            <AltitudeMeters>827.20001220703125</AltitudeMeters>
            <DistanceMeters>9347.3039803584</DistanceMeters>
          </Trackpoint>
          <Trackpoint>
            <Time>2022-09-18T11:53:07.000Z</Time>
            <Position>
              <LatitudeDegrees>49.373841024935245513916015625</LatitudeDegrees>
              <LongitudeDegrees>19.99433641321957111358642578125</LongitudeDegrees>
            </Position>
            <AltitudeMeters>826.79998779296875</AltitudeMeters>
            <DistanceMeters>9353.285381772</DistanceMeters>
          </Trackpoint>
          <Trackpoint>
            <Time>2022-09-18T11:53:11.000Z</Time>
            <Position>
              <LatitudeDegrees>49.373844377696514129638671875</LatitudeDegrees>
              <LongitudeDegrees>19.99455057084560394287109375</LongitudeDegrees>
            </Position>
            <AltitudeMeters>826</AltitudeMeters>
            <DistanceMeters>9368.8099668</DistanceMeters>
          </Trackpoint>
          <Trackpoint>
            <Time>2022-09-18T11:53:13.000Z</Time>
            <Position>
              <LatitudeDegrees>49.3738447129726409912109375</LatitudeDegrees>
              <LongitudeDegrees>19.99466246925294399261474609375</LongitudeDegrees>
            </Position>
            <AltitudeMeters>825.5999755859375</AltitudeMeters>
            <DistanceMeters>9376.9201503255</DistanceMeters>
          </Trackpoint>
          <Trackpoint>
            <Time>2022-09-18T11:53:17.000Z</Time>
            <Position>
              <LatitudeDegrees>49.37384647317230701446533203125</LatitudeDegrees>
              <LongitudeDegrees>19.994894564151763916015625</LongitudeDegrees>
            </Position>
            <AltitudeMeters>824.79998779296875</AltitudeMeters>
            <DistanceMeters>9393.7417577234</DistanceMeters>
          </Trackpoint>
          <Trackpoint>
            <Time>2022-09-18T11:53:18.000Z</Time>
            <Position>
              <LatitudeDegrees>49.3738462217152118682861328125</LatitudeDegrees>
              <LongitudeDegrees>19.9949522316455841064453125</LongitudeDegrees>
            </Position>
            <AltitudeMeters>824.5999755859375</AltitudeMeters>
            <DistanceMeters>9397.9207728995</DistanceMeters>
          </Trackpoint>
          <Trackpoint>
            <Time>2022-09-18T11:53:22.000Z</Time>
            <Position>
              <LatitudeDegrees>49.3738421984016895294189453125</LatitudeDegrees>
              <LongitudeDegrees>19.9951686523854732513427734375</LongitudeDegrees>
            </Position>
            <AltitudeMeters>823.5999755859375</AltitudeMeters>
            <DistanceMeters>9413.6114071814</DistanceMeters>
          </Trackpoint>
          <Trackpoint>
            <Time>2022-09-18T11:53:29.000Z</Time>
            <Position>
              <LatitudeDegrees>49.3738465569913387298583984375</LatitudeDegrees>
              <LongitudeDegrees>19.9955465085804462432861328125</LongitudeDegrees>
            </Position>
            <AltitudeMeters>822.4000244140625</AltitudeMeters>
            <DistanceMeters>9440.9993855656</DistanceMeters>
          </Trackpoint>
          <Trackpoint>
            <Time>2022-09-18T11:53:30.000Z</Time>
            <Position>
              <LatitudeDegrees>49.37384806573390960693359375</LatitudeDegrees>
              <LongitudeDegrees>19.9956212751567363739013671875</LongitudeDegrees>
            </Position>
            <AltitudeMeters>822.20001220703125</AltitudeMeters>
            <DistanceMeters>9446.4200745207</DistanceMeters>
          </Trackpoint>
          <Trackpoint>
            <Time>2022-09-18T11:53:34.000Z</Time>
            <Position>
              <LatitudeDegrees>49.37384764663875102996826171875</LatitudeDegrees>
              <LongitudeDegrees>19.9959002248942852020263671875</LongitudeDegrees>
            </Position>
            <AltitudeMeters>821.20001220703125</AltitudeMeters>
            <DistanceMeters>9466.6357656943</DistanceMeters>
          </Trackpoint>
          <Trackpoint>
            <Time>2022-09-18T11:53:36.000Z</Time>
            <Position>
              <LatitudeDegrees>49.37385602854192256927490234375</LatitudeDegrees>
              <LongitudeDegrees>19.99605537392199039459228515625</LongitudeDegrees>
            </Position>
            <AltitudeMeters>820.5999755859375</AltitudeMeters>
            <DistanceMeters>9477.9183623648</DistanceMeters>
          </Trackpoint>
          <Trackpoint>
            <Time>2022-09-18T11:53:37.000Z</Time>
            <Position>
              <LatitudeDegrees>49.373859800398349761962890625</LatitudeDegrees>
              <LongitudeDegrees>19.9961329065263271331787109375</LongitudeDegrees>
            </Position>
            <AltitudeMeters>820.4000244140625</AltitudeMeters>
            <DistanceMeters>9483.5538551431</DistanceMeters>
          </Trackpoint>
          <Trackpoint>
            <Time>2022-09-18T11:53:39.000Z</Time>
            <Position>
              <LatitudeDegrees>49.37386323697865009307861328125</LatitudeDegrees>
              <LongitudeDegrees>19.9962827749550342559814453125</LongitudeDegrees>
            </Position>
            <AltitudeMeters>820</AltitudeMeters>
            <DistanceMeters>9494.4218540337</DistanceMeters>
          </Trackpoint>
          <Trackpoint>
            <Time>2022-09-18T11:53:42.000Z</Time>
            <Position>
              <LatitudeDegrees>49.37387765385210514068603515625</LatitudeDegrees>
              <LongitudeDegrees>19.99646835029125213623046875</LongitudeDegrees>
            </Position>
            <AltitudeMeters>819.20001220703125</AltitudeMeters>
            <DistanceMeters>9507.9660780041</DistanceMeters>
          </Trackpoint>
          <Trackpoint>
            <Time>2022-09-18T11:53:43.000Z</Time>
            <Position>
              <LatitudeDegrees>49.37388360500335693359375</LatitudeDegrees>
              <LongitudeDegrees>19.99651621095836162567138671875</LongitudeDegrees>
            </Position>
            <AltitudeMeters>818.79998779296875</AltitudeMeters>
            <DistanceMeters>9511.4974425518</DistanceMeters>
          </Trackpoint>
          <Trackpoint>
            <Time>2022-09-18T11:53:47.000Z</Time>
            <Position>
              <LatitudeDegrees>49.37390631996095180511474609375</LatitudeDegrees>
              <LongitudeDegrees>19.9967501498758792877197265625</LongitudeDegrees>
            </Position>
            <AltitudeMeters>817.79998779296875</AltitudeMeters>
            <DistanceMeters>9528.6386393401</DistanceMeters>
          </Trackpoint>
          <Trackpoint>
            <Time>2022-09-18T11:53:49.000Z</Time>
            <Position>
              <LatitudeDegrees>49.37391570769250392913818359375</LatitudeDegrees>
              <LongitudeDegrees>19.996838159859180450439453125</LongitudeDegrees>
            </Position>
            <AltitudeMeters>817.4000244140625</AltitudeMeters>
            <DistanceMeters>9535.1018532178</DistanceMeters>
          </Trackpoint>
          <Trackpoint>
            <Time>2022-09-18T11:53:51.000Z</Time>
            <Position>
              <LatitudeDegrees>49.37392962165176868438720703125</LatitudeDegrees>
              <LongitudeDegrees>19.9969311989843845367431640625</LongitudeDegrees>
            </Position>
            <AltitudeMeters>816.79998779296875</AltitudeMeters>
            <DistanceMeters>9542.0205550635</DistanceMeters>
          </Trackpoint>
          <Trackpoint>
            <Time>2022-09-18T11:53:55.000Z</Time>
            <Position>
              <LatitudeDegrees>49.373948313295841217041015625</LatitudeDegrees>
              <LongitudeDegrees>19.99713546596467494964599609375</LongitudeDegrees>
            </Position>
            <AltitudeMeters>816</AltitudeMeters>
            <DistanceMeters>9556.9693778184</DistanceMeters>
          </Trackpoint>
          <Trackpoint>
            <Time>2022-09-18T11:53:57.000Z</Time>
            <Position>
              <LatitudeDegrees>49.37395040877163410186767578125</LatitudeDegrees>
              <LongitudeDegrees>19.99728080816566944122314453125</LongitudeDegrees>
            </Position>
            <AltitudeMeters>815.5999755859375</AltitudeMeters>
            <DistanceMeters>9567.5053509451</DistanceMeters>
          </Trackpoint>
          <Trackpoint>
            <Time>2022-09-18T11:54:00.000Z</Time>
            <Position>
              <LatitudeDegrees>49.3739551864564418792724609375</LatitudeDegrees>
              <LongitudeDegrees>19.99746613204479217529296875</LongitudeDegrees>
            </Position>
            <AltitudeMeters>815</AltitudeMeters>
            <DistanceMeters>9580.9468452627</DistanceMeters>
          </Trackpoint>
          <Trackpoint>
            <Time>2022-09-18T11:54:01.000Z</Time>
            <Position>
              <LatitudeDegrees>49.373960383236408233642578125</LatitudeDegrees>
              <LongitudeDegrees>19.99753243289887905120849609375</LongitudeDegrees>
            </Position>
            <AltitudeMeters>814.79998779296875</AltitudeMeters>
            <DistanceMeters>9585.7866818607</DistanceMeters>
          </Trackpoint>
          <Trackpoint>
            <Time>2022-09-18T11:54:02.000Z</Time>
            <Position>
              <LatitudeDegrees>49.37396608293056488037109375</LatitudeDegrees>
              <LongitudeDegrees>19.99760921113193035125732421875</LongitudeDegrees>
            </Position>
            <AltitudeMeters>814.5999755859375</AltitudeMeters>
            <DistanceMeters>9591.3860055175</DistanceMeters>
          </Trackpoint>
          <Trackpoint>
            <Time>2022-09-18T11:54:07.000Z</Time>
            <Position>
              <LatitudeDegrees>49.3739746324717998504638671875</LatitudeDegrees>
              <LongitudeDegrees>19.997895620763301849365234375</LongitudeDegrees>
            </Position>
            <AltitudeMeters>814</AltitudeMeters>
            <DistanceMeters>9612.1642870842</DistanceMeters>
          </Trackpoint>
          <Trackpoint>
            <Time>2022-09-18T11:54:09.000Z</Time>
            <Position>
              <LatitudeDegrees>49.37397815287113189697265625</LatitudeDegrees>
              <LongitudeDegrees>19.99800869263708591461181640625</LongitudeDegrees>
            </Position>
            <AltitudeMeters>813.5999755859375</AltitudeMeters>
            <DistanceMeters>9620.3674651061</DistanceMeters>
          </Trackpoint>
          <Trackpoint>
            <Time>2022-09-18T11:54:10.000Z</Time>
            <Position>
              <LatitudeDegrees>49.37398008070886135101318359375</LatitudeDegrees>
              <LongitudeDegrees>19.99804657883942127227783203125</LongitudeDegrees>
            </Position>
            <AltitudeMeters>813.4000244140625</AltitudeMeters>
            <DistanceMeters>9623.1216009439</DistanceMeters>
          </Trackpoint>
          <Trackpoint>
            <Time>2022-09-18T11:54:17.000Z</Time>
            <Position>
              <LatitudeDegrees>49.37398008070886135101318359375</LatitudeDegrees>
              <LongitudeDegrees>19.99837280251085758209228515625</LongitudeDegrees>
            </Position>
            <AltitudeMeters>812.79998779296875</AltitudeMeters>
            <DistanceMeters>9646.7633995568</DistanceMeters>
          </Trackpoint>
          <Trackpoint>
            <Time>2022-09-18T11:54:21.000Z</Time>
            <Position>
              <LatitudeDegrees>49.3739974312484264373779296875</LatitudeDegrees>
              <LongitudeDegrees>19.99862107448279857635498046875</LongitudeDegrees>
            </Position>
            <AltitudeMeters>812.4000244140625</AltitudeMeters>
            <DistanceMeters>9664.8591908379</DistanceMeters>
          </Trackpoint>
          <Trackpoint>
            <Time>2022-09-18T11:54:23.000Z</Time>
            <Position>
              <LatitudeDegrees>49.3739991076290607452392578125</LatitudeDegrees>
              <LongitudeDegrees>19.9987487308681011199951171875</LongitudeDegrees>
            </Position>
            <AltitudeMeters>812</AltitudeMeters>
            <DistanceMeters>9674.1124705181</DistanceMeters>
          </Trackpoint>
          <Trackpoint>
            <Time>2022-09-18T11:54:28.000Z</Time>
            <Position>
              <LatitudeDegrees>49.3740131892263889312744140625</LatitudeDegrees>
              <LongitudeDegrees>19.99900680966675281524658203125</LongitudeDegrees>
            </Position>
            <AltitudeMeters>811.4000244140625</AltitudeMeters>
            <DistanceMeters>9692.8806676059</DistanceMeters>
          </Trackpoint>
          <Trackpoint>
            <Time>2022-09-18T11:54:30.000Z</Time>
            <Position>
              <LatitudeDegrees>49.37402098439633846282958984375</LatitudeDegrees>
              <LongitudeDegrees>19.9990850128233432769775390625</LongitudeDegrees>
            </Position>
            <AltitudeMeters>811</AltitudeMeters>
            <DistanceMeters>9698.6138585373</DistanceMeters>
          </Trackpoint>
          <Trackpoint>
            <Time>2022-09-18T11:54:36.000Z</Time>
            <Position>
              <LatitudeDegrees>49.37402701936662197113037109375</LatitudeDegrees>
              <LongitudeDegrees>19.99939036555588245391845703125</LongitudeDegrees>
            </Position>
            <AltitudeMeters>810.4000244140625</AltitudeMeters>
            <DistanceMeters>9720.7532476296</DistanceMeters>
          </Trackpoint>
          <Trackpoint>
            <Time>2022-09-18T11:54:37.000Z</Time>
            <Position>
              <LatitudeDegrees>49.37402701936662197113037109375</LatitudeDegrees>
              <LongitudeDegrees>19.99944250099360942840576171875</LongitudeDegrees>
            </Position>
            <AltitudeMeters>810.20001220703125</AltitudeMeters>
            <DistanceMeters>9724.5304848185</DistanceMeters>
          </Trackpoint>
          <Trackpoint>
            <Time>2022-09-18T11:54:42.000Z</Time>
            <Position>
              <LatitudeDegrees>49.37403338961303234100341796875</LatitudeDegrees>
              <LongitudeDegrees>19.99968825839459896087646484375</LongitudeDegrees>
            </Position>
            <AltitudeMeters>809.79998779296875</AltitudeMeters>
            <DistanceMeters>9742.3547710463</DistanceMeters>
          </Trackpoint>
          <Trackpoint>
            <Time>2022-09-18T11:54:45.000Z</Time>
            <Position>
              <LatitudeDegrees>49.3740351498126983642578125</LatitudeDegrees>
              <LongitudeDegrees>19.99981298111379146575927734375</LongitudeDegrees>
            </Position>
            <AltitudeMeters>809.20001220703125</AltitudeMeters>
            <DistanceMeters>9751.3958026229</DistanceMeters>
          </Trackpoint>
          <Trackpoint>
            <Time>2022-09-18T11:54:52.000Z</Time>
            <Position>
              <LatitudeDegrees>49.37406658194959163665771484375</LatitudeDegrees>
              <LongitudeDegrees>20.00015513040125370025634765625</LongitudeDegrees>
            </Position>
            <AltitudeMeters>808</AltitudeMeters>
            <DistanceMeters>9776.4370998821</DistanceMeters>
          </Trackpoint>
          <Trackpoint>
            <Time>2022-09-18T11:54:53.000Z</Time>
            <Position>
              <LatitudeDegrees>49.37406507320702075958251953125</LatitudeDegrees>
              <LongitudeDegrees>20.00019787810742855072021484375</LongitudeDegrees>
            </Position>
            <AltitudeMeters>807.79998779296875</AltitudeMeters>
            <DistanceMeters>9779.5396893634</DistanceMeters>
          </Trackpoint>
          <Trackpoint>
            <Time>2022-09-18T11:54:56.000Z</Time>
            <Position>
              <LatitudeDegrees>49.37407965771853923797607421875</LatitudeDegrees>
              <LongitudeDegrees>20.00030768103897571563720703125</LongitudeDegrees>
            </Position>
            <AltitudeMeters>807.5999755859375</AltitudeMeters>
            <DistanceMeters>9787.6609995007</DistanceMeters>
          </Trackpoint>
          <Trackpoint>
            <Time>2022-09-18T11:55:02.000Z</Time>
            <Position>
              <LatitudeDegrees>49.3741102516651153564453125</LatitudeDegrees>
              <LongitudeDegrees>20.00053650699555873870849609375</LongitudeDegrees>
            </Position>
            <AltitudeMeters>807.20001220703125</AltitudeMeters>
            <DistanceMeters>9804.5901626867</DistanceMeters>
          </Trackpoint>
          <Trackpoint>
            <Time>2022-09-18T11:55:03.000Z</Time>
            <Position>
              <LatitudeDegrees>49.3741156160831451416015625</LatitudeDegrees>
              <LongitudeDegrees>20.00057104043662548065185546875</LongitudeDegrees>
            </Position>
            <AltitudeMeters>806.79998779296875</AltitudeMeters>
            <DistanceMeters>9807.1629133613</DistanceMeters>
          </Trackpoint>
          <Trackpoint>
            <Time>2022-09-18T11:55:08.000Z</Time>
            <Position>
              <LatitudeDegrees>49.37414939515292644500732421875</LatitudeDegrees>
              <LongitudeDegrees>20.00075544230639934539794921875</LongitudeDegrees>
            </Position>
            <AltitudeMeters>806.20001220703125</AltitudeMeters>
            <DistanceMeters>9821.0459228196</DistanceMeters>
          </Trackpoint>
          <Trackpoint>
            <Time>2022-09-18T11:55:10.000Z</Time>
            <Position>
              <LatitudeDegrees>49.374165572226047515869140625</LatitudeDegrees>
              <LongitudeDegrees>20.000815205276012420654296875</LongitudeDegrees>
            </Position>
            <AltitudeMeters>806</AltitudeMeters>
            <DistanceMeters>9825.7370097186</DistanceMeters>
          </Trackpoint>
          <Trackpoint>
            <Time>2022-09-18T11:55:13.000Z</Time>
            <Position>
              <LatitudeDegrees>49.374190382659435272216796875</LatitudeDegrees>
              <LongitudeDegrees>20.00089508481323719024658203125</LongitudeDegrees>
            </Position>
            <AltitudeMeters>805.79998779296875</AltitudeMeters>
            <DistanceMeters>9832.1511369607</DistanceMeters>
          </Trackpoint>
          <Trackpoint>
            <Time>2022-09-18T11:55:19.000Z</Time>
            <Position>
              <LatitudeDegrees>49.374259449541568756103515625</LatitudeDegrees>
              <LongitudeDegrees>20.0010809116065502166748046875</LongitudeDegrees>
            </Position>
            <AltitudeMeters>805.20001220703125</AltitudeMeters>
            <DistanceMeters>9847.6576799523</DistanceMeters>
          </Trackpoint>
          <Trackpoint>
            <Time>2022-09-18T11:55:21.000Z</Time>
            <Position>
              <LatitudeDegrees>49.3742938153445720672607421875</LatitudeDegrees>
              <LongitudeDegrees>20.00115257687866687774658203125</LongitudeDegrees>
            </Position>
            <AltitudeMeters>804.79998779296875</AltitudeMeters>
            <DistanceMeters>9854.1069072007</DistanceMeters>
          </Trackpoint>
          <Trackpoint>
            <Time>2022-09-18T11:55:27.000Z</Time>
            <Position>
              <LatitudeDegrees>49.37438718974590301513671875</LatitudeDegrees>
              <LongitudeDegrees>20.00132004730403423309326171875</LongitudeDegrees>
            </Position>
            <AltitudeMeters>803.79998779296875</AltitudeMeters>
            <DistanceMeters>9870.0852472678</DistanceMeters>
          </Trackpoint>
          <Trackpoint>
            <Time>2022-09-18T11:55:28.000Z</Time>
            <Position>
              <LatitudeDegrees>49.37439666129648685455322265625</LatitudeDegrees>
              <LongitudeDegrees>20.0013385713100433349609375</LongitudeDegrees>
            </Position>
            <AltitudeMeters>803.5999755859375</AltitudeMeters>
            <DistanceMeters>9871.7904406923</DistanceMeters>
          </Trackpoint>
          <Trackpoint>
            <Time>2022-09-18T11:55:36.000Z</Time>
            <Position>
              <LatitudeDegrees>49.37450797297060489654541015625</LatitudeDegrees>
              <LongitudeDegrees>20.00154317356646060943603515625</LongitudeDegrees>
            </Position>
            <AltitudeMeters>802.79998779296875</AltitudeMeters>
            <DistanceMeters>9891.1126690983</DistanceMeters>
          </Trackpoint>
          <Trackpoint>
            <Time>2022-09-18T11:55:37.000Z</Time>
            <Position>
              <LatitudeDegrees>49.3745191209018230438232421875</LatitudeDegrees>
              <LongitudeDegrees>20.0015660561621189117431640625</LongitudeDegrees>
            </Position>
            <AltitudeMeters>802.5999755859375</AltitudeMeters>
            <DistanceMeters>9893.1815471117</DistanceMeters>
          </Trackpoint>
          <Trackpoint>
            <Time>2022-09-18T11:55:41.000Z</Time>
            <Position>
              <LatitudeDegrees>49.3745724298059940338134765625</LatitudeDegrees>
              <LongitudeDegrees>20.00165850855410099029541015625</LongitudeDegrees>
            </Position>
            <AltitudeMeters>802</AltitudeMeters>
            <DistanceMeters>9902.1312274445</DistanceMeters>
          </Trackpoint>
          <Trackpoint>
            <Time>2022-09-18T11:55:45.000Z</Time>
            <Position>
              <LatitudeDegrees>49.374623559415340423583984375</LatitudeDegrees>
              <LongitudeDegrees>20.001747943460941314697265625</LongitudeDegrees>
            </Position>
            <AltitudeMeters>801.5999755859375</AltitudeMeters>
            <DistanceMeters>9910.7567013342</DistanceMeters>
          </Trackpoint>
          <Trackpoint>
            <Time>2022-09-18T11:55:47.000Z</Time>
            <Position>
              <LatitudeDegrees>49.3746522255241870880126953125</LatitudeDegrees>
              <LongitudeDegrees>20.001799575984477996826171875</LongitudeDegrees>
            </Position>
            <AltitudeMeters>801</AltitudeMeters>
            <DistanceMeters>9915.6742764192</DistanceMeters>
          </Trackpoint>
          <Trackpoint>
            <Time>2022-09-18T11:55:49.000Z</Time>
            <Position>
              <LatitudeDegrees>49.37468080781400203704833984375</LatitudeDegrees>
              <LongitudeDegrees>20.001855902373790740966796875</LongitudeDegrees>
            </Position>
            <AltitudeMeters>800.20001220703125</AltitudeMeters>
            <DistanceMeters>9920.849525856</DistanceMeters>
          </Trackpoint>
          <Trackpoint>
            <Time>2022-09-18T11:55:53.000Z</Time>
            <Position>
              <LatitudeDegrees>49.37473311088979244232177734375</LatitudeDegrees>
              <LongitudeDegrees>20.001977272331714630126953125</LongitudeDegrees>
            </Position>
            <AltitudeMeters>799</AltitudeMeters>
            <DistanceMeters>9931.397491151</DistanceMeters>
          </Trackpoint>
          <Trackpoint>
            <Time>2022-09-18T11:55:54.000Z</Time>
            <Position>
              <LatitudeDegrees>49.3747474439442157745361328125</LatitudeDegrees>
              <LongitudeDegrees>20.00200803391635417938232421875</LongitudeDegrees>
            </Position>
            <AltitudeMeters>798.79998779296875</AltitudeMeters>
            <DistanceMeters>9934.1401274152</DistanceMeters>
          </Trackpoint>
          <Trackpoint>
            <Time>2022-09-18T11:55:57.000Z</Time>
            <Position>
              <LatitudeDegrees>49.37478658743202686309814453125</LatitudeDegrees>
              <LongitudeDegrees>20.0020951218903064727783203125</LongitudeDegrees>
            </Position>
            <AltitudeMeters>797.79998779296875</AltitudeMeters>
            <DistanceMeters>9941.8090835293</DistanceMeters>
          </Trackpoint>
          <Trackpoint>
            <Time>2022-09-18T11:56:02.000Z</Time>
            <Position>
              <LatitudeDegrees>49.37484844587743282318115234375</LatitudeDegrees>
              <LongitudeDegrees>20.00229972414672374725341796875</LongitudeDegrees>
            </Position>
            <AltitudeMeters>796.5999755859375</AltitudeMeters>
            <DistanceMeters>9958.1569929503</DistanceMeters>
          </Trackpoint>
          <Trackpoint>
            <Time>2022-09-18T11:56:05.000Z</Time>
            <Position>
              <LatitudeDegrees>49.37489337287843227386474609375</LatitudeDegrees>
              <LongitudeDegrees>20.0024384446442127227783203125</LongitudeDegrees>
            </Position>
            <AltitudeMeters>795.4000244140625</AltitudeMeters>
            <DistanceMeters>9969.384631489</DistanceMeters>
          </Trackpoint>
          <Trackpoint>
            <Time>2022-09-18T11:56:08.000Z</Time>
            <Position>
              <LatitudeDegrees>49.3749496154487133026123046875</LatitudeDegrees>
              <LongitudeDegrees>20.002614967525005340576171875</LongitudeDegrees>
            </Position>
            <AltitudeMeters>794.20001220703125</AltitudeMeters>
            <DistanceMeters>9983.6262798139</DistanceMeters>
          </Trackpoint>
          <Trackpoint>
            <Time>2022-09-18T11:56:09.000Z</Time>
            <Position>
              <LatitudeDegrees>49.374969899654388427734375</LatitudeDegrees>
              <LongitudeDegrees>20.00267540104687213897705078125</LongitudeDegrees>
            </Position>
            <AltitudeMeters>793.79998779296875</AltitudeMeters>
            <DistanceMeters>9988.5530277759</DistanceMeters>
          </Trackpoint>
          <Trackpoint>
            <Time>2022-09-18T11:56:11.000Z</Time>
            <Position>
              <LatitudeDegrees>49.37500770203769207000732421875</LatitudeDegrees>
              <LongitudeDegrees>20.00279157422482967376708984375</LongitudeDegrees>
            </Position>
            <AltitudeMeters>793</AltitudeMeters>
            <DistanceMeters>9997.9649909035</DistanceMeters>
          </Trackpoint>
          <Trackpoint>
            <Time>2022-09-18T11:56:14.000Z</Time>
            <Position>
              <LatitudeDegrees>49.37506654299795627593994140625</LatitudeDegrees>
              <LongitudeDegrees>20.0029264390468597412109375</LongitudeDegrees>
            </Position>
            <AltitudeMeters>791.79998779296875</AltitudeMeters>
            <DistanceMeters>10009.729896842</DistanceMeters>
          </Trackpoint>
          <Trackpoint>
            <Time>2022-09-18T11:56:16.000Z</Time>
            <Position>
              <LatitudeDegrees>49.37510509975254535675048828125</LatitudeDegrees>
              <LongitudeDegrees>20.00300883315503597259521484375</LongitudeDegrees>
            </Position>
            <AltitudeMeters>791.20001220703125</AltitudeMeters>
            <DistanceMeters>10017.082041943</DistanceMeters>
          </Trackpoint>
          <Trackpoint>
            <Time>2022-09-18T11:56:18.000Z</Time>
            <Position>
              <LatitudeDegrees>49.37515120021998882293701171875</LatitudeDegrees>
              <LongitudeDegrees>20.00308695249259471893310546875</LongitudeDegrees>
            </Position>
            <AltitudeMeters>790.4000244140625</AltitudeMeters>
            <DistanceMeters>10024.722095224</DistanceMeters>
          </Trackpoint>
          <Trackpoint>
            <Time>2022-09-18T11:56:22.000Z</Time>
            <Position>
              <LatitudeDegrees>49.3752369470894336700439453125</LatitudeDegrees>
              <LongitudeDegrees>20.0032022036612033843994140625</LongitudeDegrees>
            </Position>
            <AltitudeMeters>789.20001220703125</AltitudeMeters>
            <DistanceMeters>10037.404513038</DistanceMeters>
          </Trackpoint>
          <Trackpoint>
            <Time>2022-09-18T11:56:23.000Z</Time>
            <Position>
              <LatitudeDegrees>49.3752582371234893798828125</LatitudeDegrees>
              <LongitudeDegrees>20.0032290257513523101806640625</LongitudeDegrees>
            </Position>
            <AltitudeMeters>788.79998779296875</AltitudeMeters>
            <DistanceMeters>10040.469032495</DistanceMeters>
          </Trackpoint>
          <Trackpoint>
            <Time>2022-09-18T11:56:26.000Z</Time>
            <Position>
              <LatitudeDegrees>49.3753164075314998626708984375</LatitudeDegrees>
              <LongitudeDegrees>20.00332030467689037322998046875</LongitudeDegrees>
            </Position>
            <AltitudeMeters>787.79998779296875</AltitudeMeters>
            <DistanceMeters>10049.725239348</DistanceMeters>
          </Trackpoint>
          <Trackpoint>
            <Time>2022-09-18T11:56:30.000Z</Time>
            <Position>
              <LatitudeDegrees>49.37539435923099517822265625</LatitudeDegrees>
              <LongitudeDegrees>20.0034248270094394683837890625</LongitudeDegrees>
            </Position>
            <AltitudeMeters>786.79998779296875</AltitudeMeters>
            <DistanceMeters>10061.242696661</DistanceMeters>
          </Trackpoint>
          <Trackpoint>
            <Time>2022-09-18T11:56:34.000Z</Time>
            <Position>
              <LatitudeDegrees>49.37547893263399600982666015625</LatitudeDegrees>
              <LongitudeDegrees>20.0035401619970798492431640625</LongitudeDegrees>
            </Position>
            <AltitudeMeters>785.4000244140625</AltitudeMeters>
            <DistanceMeters>10073.830777589</DistanceMeters>
          </Trackpoint>
          <Trackpoint>
            <Time>2022-09-18T11:56:38.000Z</Time>
            <Position>
              <LatitudeDegrees>49.3755661882460117340087890625</LatitudeDegrees>
              <LongitudeDegrees>20.00366605818271636962890625</LongitudeDegrees>
            </Position>
            <AltitudeMeters>784.20001220703125</AltitudeMeters>
            <DistanceMeters>10087.155542616</DistanceMeters>
          </Trackpoint>
          <Trackpoint>
            <Time>2022-09-18T11:56:41.000Z</Time>
            <Position>
              <LatitudeDegrees>49.37561606056988239288330078125</LatitudeDegrees>
              <LongitudeDegrees>20.00373923219740390777587890625</LongitudeDegrees>
            </Position>
            <AltitudeMeters>783</AltitudeMeters>
            <DistanceMeters>10094.832148564</DistanceMeters>
          </Trackpoint>
          <Trackpoint>
            <Time>2022-09-18T11:56:44.000Z</Time>
            <Position>
              <LatitudeDegrees>49.3756929226219654083251953125</LatitudeDegrees>
              <LongitudeDegrees>20.00387795269489288330078125</LongitudeDegrees>
            </Position>
            <AltitudeMeters>782</AltitudeMeters>
            <DistanceMeters>10108.032313527</DistanceMeters>
          </Trackpoint>
          <Trackpoint>
            <Time>2022-09-18T11:56:46.000Z</Time>
            <Position>
              <LatitudeDegrees>49.37574480660259723663330078125</LatitudeDegrees>
              <LongitudeDegrees>20.00397526659071445465087890625</LongitudeDegrees>
            </Position>
            <AltitudeMeters>780.5999755859375</AltitudeMeters>
            <DistanceMeters>10117.146955774</DistanceMeters>
          </Trackpoint>
          <Trackpoint>
            <Time>2022-09-18T11:56:48.000Z</Time>
            <Position>
              <LatitudeDegrees>49.3758008815348148345947265625</LatitudeDegrees>
              <LongitudeDegrees>20.00408087857067584991455078125</LongitudeDegrees>
            </Position>
            <AltitudeMeters>779.4000244140625</AltitudeMeters>
            <DistanceMeters>10127.022421616</DistanceMeters>
          </Trackpoint>
          <Trackpoint>
            <Time>2022-09-18T11:56:51.000Z</Time>
            <Position>
              <LatitudeDegrees>49.3758471496403217315673828125</LatitudeDegrees>
              <LongitudeDegrees>20.00417693518102169036865234375</LongitudeDegrees>
            </Position>
            <AltitudeMeters>778.20001220703125</AltitudeMeters>
            <DistanceMeters>10135.680810302</DistanceMeters>
          </Trackpoint>
          <Trackpoint>
            <Time>2022-09-18T11:56:55.000Z</Time>
            <Position>
              <LatitudeDegrees>49.37591294758021831512451171875</LatitudeDegrees>
              <LongitudeDegrees>20.004306770861148834228515625</LongitudeDegrees>
            </Position>
            <AltitudeMeters>777.20001220703125</AltitudeMeters>
            <DistanceMeters>10147.604296517</DistanceMeters>
          </Trackpoint>
          <Trackpoint>
            <Time>2022-09-18T11:56:58.000Z</Time>
            <Position>
              <LatitudeDegrees>49.37597346492111682891845703125</LatitudeDegrees>
              <LongitudeDegrees>20.0044159032404422760009765625</LongitudeDegrees>
            </Position>
            <AltitudeMeters>776</AltitudeMeters>
            <DistanceMeters>10157.992242104</DistanceMeters>
          </Trackpoint>
          <Trackpoint>
            <Time>2022-09-18T11:56:59.000Z</Time>
            <Position>
              <LatitudeDegrees>49.37598553486168384552001953125</LatitudeDegrees>
              <LongitudeDegrees>20.00443794764578342437744140625</LongitudeDegrees>
            </Position>
            <AltitudeMeters>775.79998779296875</AltitudeMeters>
            <DistanceMeters>10160.08282982</DistanceMeters>
          </Trackpoint>
          <Trackpoint>
            <Time>2022-09-18T11:57:02.000Z</Time>
            <Position>
              <LatitudeDegrees>49.37602601945400238037109375</LatitudeDegrees>
              <LongitudeDegrees>20.00449595041573047637939453125</LongitudeDegrees>
            </Position>
            <AltitudeMeters>775</AltitudeMeters>
            <DistanceMeters>10166.244929417</DistanceMeters>
          </Trackpoint>
          <Trackpoint>
            <Time>2022-09-18T11:57:05.000Z</Time>
            <Position>
              <LatitudeDegrees>49.3760763108730316162109375</LatitudeDegrees>
              <LongitudeDegrees>20.00456032343208789825439453125</LongitudeDegrees>
            </Position>
            <AltitudeMeters>774.4000244140625</AltitudeMeters>
            <DistanceMeters>10173.531068272</DistanceMeters>
          </Trackpoint>
          <Trackpoint>
            <Time>2022-09-18T11:57:07.000Z</Time>
            <Position>
              <LatitudeDegrees>49.3761083297431468963623046875</LatitudeDegrees>
              <LongitudeDegrees>20.00461421906948089599609375</LongitudeDegrees>
            </Position>
            <AltitudeMeters>773.79998779296875</AltitudeMeters>
            <DistanceMeters>10178.818517248</DistanceMeters>
          </Trackpoint>
          <Trackpoint>
            <Time>2022-09-18T11:57:11.000Z</Time>
            <Position>
              <LatitudeDegrees>49.3761737085878849029541015625</LatitudeDegrees>
              <LongitudeDegrees>20.00472008250653743743896484375</LongitudeDegrees>
            </Position>
            <AltitudeMeters>772.5999755859375</AltitudeMeters>
            <DistanceMeters>10189.392561249</DistanceMeters>
          </Trackpoint>
          <Trackpoint>
            <Time>2022-09-18T11:57:12.000Z</Time>
            <Position>
              <LatitudeDegrees>49.3761978484690189361572265625</LatitudeDegrees>
              <LongitudeDegrees>20.004760064184665679931640625</LongitudeDegrees>
            </Position>
            <AltitudeMeters>772.20001220703125</AltitudeMeters>
            <DistanceMeters>10193.343890414</DistanceMeters>
          </Trackpoint>
          <Trackpoint>
            <Time>2022-09-18T11:57:14.000Z</Time>
            <Position>
              <LatitudeDegrees>49.37624185346066951751708984375</LatitudeDegrees>
              <LongitudeDegrees>20.004831813275814056396484375</LongitudeDegrees>
            </Position>
            <AltitudeMeters>771.4000244140625</AltitudeMeters>
            <DistanceMeters>10200.486714219</DistanceMeters>
          </Trackpoint>
          <Trackpoint>
            <Time>2022-09-18T11:57:17.000Z</Time>
            <Position>
              <LatitudeDegrees>49.3762927316129207611083984375</LatitudeDegrees>
              <LongitudeDegrees>20.004911608994007110595703125</LongitudeDegrees>
            </Position>
            <AltitudeMeters>770.20001220703125</AltitudeMeters>
            <DistanceMeters>10208.580179146</DistanceMeters>
          </Trackpoint>
          <Trackpoint>
            <Time>2022-09-18T11:57:20.000Z</Time>
            <Position>
              <LatitudeDegrees>49.37634092755615711212158203125</LatitudeDegrees>
              <LongitudeDegrees>20.00499484129250049591064453125</LongitudeDegrees>
            </Position>
            <AltitudeMeters>769.20001220703125</AltitudeMeters>
            <DistanceMeters>10216.652417473</DistanceMeters>
          </Trackpoint>
          <Trackpoint>
            <Time>2022-09-18T11:57:23.000Z</Time>
            <Position>
              <LatitudeDegrees>49.3763923086225986480712890625</LatitudeDegrees>
              <LongitudeDegrees>20.00507363118231296539306640625</LongitudeDegrees>
            </Position>
            <AltitudeMeters>768.20001220703125</AltitudeMeters>
            <DistanceMeters>10224.733600112</DistanceMeters>
          </Trackpoint>
          <Trackpoint>
            <Time>2022-09-18T11:57:24.000Z</Time>
            <Position>
              <LatitudeDegrees>49.37640362419188022613525390625</LatitudeDegrees>
              <LongitudeDegrees>20.00509492121636867523193359375</LongitudeDegrees>
            </Position>
            <AltitudeMeters>768</AltitudeMeters>
            <DistanceMeters>10226.726897289</DistanceMeters>
          </Trackpoint>
          <Trackpoint>
            <Time>2022-09-18T11:57:27.000Z</Time>
            <Position>
              <LatitudeDegrees>49.376444108784198760986328125</LatitudeDegrees>
              <LongitudeDegrees>20.00515309162437915802001953125</LongitudeDegrees>
            </Position>
            <AltitudeMeters>767</AltitudeMeters>
            <DistanceMeters>10232.897051443</DistanceMeters>
          </Trackpoint>
          <Trackpoint>
            <Time>2022-09-18T11:57:32.000Z</Time>
            <Position>
              <LatitudeDegrees>49.37650823034346103668212890625</LatitudeDegrees>
              <LongitudeDegrees>20.00524319708347320556640625</LongitudeDegrees>
            </Position>
            <AltitudeMeters>765.79998779296875</AltitudeMeters>
            <DistanceMeters>10242.570192201</DistanceMeters>
          </Trackpoint>
          <Trackpoint>
            <Time>2022-09-18T11:57:35.000Z</Time>
            <Position>
              <LatitudeDegrees>49.37655449844896793365478515625</LatitudeDegrees>
              <LongitudeDegrees>20.00530228950083255767822265625</LongitudeDegrees>
            </Position>
            <AltitudeMeters>764.79998779296875</AltitudeMeters>
            <DistanceMeters>10249.268059009</DistanceMeters>
          </Trackpoint>
          <Trackpoint>
            <Time>2022-09-18T11:57:36.000Z</Time>
            <Position>
              <LatitudeDegrees>49.37657243572175502777099609375</LatitudeDegrees>
              <LongitudeDegrees>20.0053204782307147979736328125</LongitudeDegrees>
            </Position>
            <AltitudeMeters>764.5999755859375</AltitudeMeters>
            <DistanceMeters>10251.660770539</DistanceMeters>
          </Trackpoint>
          <Trackpoint>
            <Time>2022-09-18T11:57:39.000Z</Time>
            <Position>
              <LatitudeDegrees>49.37660914845764636993408203125</LatitudeDegrees>
              <LongitudeDegrees>20.0053672492504119873046875</LongitudeDegrees>
            </Position>
            <AltitudeMeters>764</AltitudeMeters>
            <DistanceMeters>10256.970374917</DistanceMeters>
          </Trackpoint>
          <Trackpoint>
            <Time>2022-09-18T11:57:40.000Z</Time>
            <Position>
              <LatitudeDegrees>49.3766102381050586700439453125</LatitudeDegrees>
              <LongitudeDegrees>20.0053707696497440338134765625</LongitudeDegrees>
            </Position>
            <AltitudeMeters>764</AltitudeMeters>
            <DistanceMeters>10257.25545506</DistanceMeters>
          </Trackpoint>
          <Trackpoint>
            <Time>2022-09-18T11:57:48.000Z</Time>
            <Position>
              <LatitudeDegrees>49.3766102381050586700439453125</LatitudeDegrees>
              <LongitudeDegrees>20.0053707696497440338134765625</LongitudeDegrees>
            </Position>
            <AltitudeMeters>763.79998779296875</AltitudeMeters>
            <DistanceMeters>10257.25545506</DistanceMeters>
          </Trackpoint>
          <Trackpoint>
            <Time>2022-09-18T11:57:49.000Z</Time>
            <Position>
              <LatitudeDegrees>49.3766102381050586700439453125</LatitudeDegrees>
              <LongitudeDegrees>20.0053707696497440338134765625</LongitudeDegrees>
            </Position>
            <AltitudeMeters>763.79998779296875</AltitudeMeters>
            <DistanceMeters>10257.25545506</DistanceMeters>
          </Trackpoint>
          <Trackpoint>
            <Time>2022-09-18T11:57:51.000Z</Time>
            <Position>
              <LatitudeDegrees>49.3766102381050586700439453125</LatitudeDegrees>
              <LongitudeDegrees>20.0053707696497440338134765625</LongitudeDegrees>
            </Position>
            <AltitudeMeters>763.79998779296875</AltitudeMeters>
            <DistanceMeters>10257.25545506</DistanceMeters>
          </Trackpoint>
          <Trackpoint>
            <Time>2022-09-18T11:57:53.000Z</Time>
            <Position>
              <LatitudeDegrees>49.3766102381050586700439453125</LatitudeDegrees>
              <LongitudeDegrees>20.0053707696497440338134765625</LongitudeDegrees>
            </Position>
            <AltitudeMeters>763.79998779296875</AltitudeMeters>
            <DistanceMeters>10257.25545506</DistanceMeters>
          </Trackpoint>
          <Trackpoint>
            <Time>2022-09-18T11:57:58.000Z</Time>
            <Position>
              <LatitudeDegrees>49.3766102381050586700439453125</LatitudeDegrees>
              <LongitudeDegrees>20.0053707696497440338134765625</LongitudeDegrees>
            </Position>
            <AltitudeMeters>763.5999755859375</AltitudeMeters>
            <DistanceMeters>10257.25545506</DistanceMeters>
          </Trackpoint>
          <Trackpoint>
            <Time>2022-09-18T11:57:59.000Z</Time>
            <Position>
              <LatitudeDegrees>49.3766102381050586700439453125</LatitudeDegrees>
              <LongitudeDegrees>20.0053707696497440338134765625</LongitudeDegrees>
            </Position>
            <AltitudeMeters>763.5999755859375</AltitudeMeters>
            <DistanceMeters>10257.25545506</DistanceMeters>
          </Trackpoint>
          <Trackpoint>
            <Time>2022-09-18T11:58:02.000Z</Time>
            <Position>
              <LatitudeDegrees>49.37663295306265354156494140625</LatitudeDegrees>
              <LongitudeDegrees>20.00540035776793956756591796875</LongitudeDegrees>
            </Position>
            <AltitudeMeters>763.4000244140625</AltitudeMeters>
            <DistanceMeters>10260.569149819</DistanceMeters>
          </Trackpoint>
          <Trackpoint>
            <Time>2022-09-18T11:58:05.000Z</Time>
            <Position>
              <LatitudeDegrees>49.37672817148268222808837890625</LatitudeDegrees>
              <LongitudeDegrees>20.0054959952831268310546875</LongitudeDegrees>
            </Position>
            <AltitudeMeters>762.4000244140625</AltitudeMeters>
            <DistanceMeters>10273.231615509</DistanceMeters>
          </Trackpoint>
          <Trackpoint>
            <Time>2022-09-18T11:58:07.000Z</Time>
            <Position>
              <LatitudeDegrees>49.37678969465196132659912109375</LatitudeDegrees>
              <LongitudeDegrees>20.00553849153220653533935546875</LongitudeDegrees>
            </Position>
            <AltitudeMeters>761</AltitudeMeters>
            <DistanceMeters>10280.740530032</DistanceMeters>
          </Trackpoint>
          <Trackpoint>
            <Time>2022-09-18T11:58:08.000Z</Time>
            <Position>
              <LatitudeDegrees>49.376821629703044891357421875</LatitudeDegrees>
              <LongitudeDegrees>20.00555911101400852203369140625</LongitudeDegrees>
            </Position>
            <AltitudeMeters>760.5999755859375</AltitudeMeters>
            <DistanceMeters>10284.595851786</DistanceMeters>
          </Trackpoint>
          <Trackpoint>
            <Time>2022-09-18T11:58:10.000Z</Time>
            <Position>
              <LatitudeDegrees>49.37688826583325862884521484375</LatitudeDegrees>
              <LongitudeDegrees>20.00559884123504161834716796875</LongitudeDegrees>
            </Position>
            <AltitudeMeters>759.4000244140625</AltitudeMeters>
            <DistanceMeters>10292.552034028</DistanceMeters>
          </Trackpoint>
          <Trackpoint>
            <Time>2022-09-18T11:58:12.000Z</Time>
            <Position>
              <LatitudeDegrees>49.37693788670003414154052734375</LatitudeDegrees>
              <LongitudeDegrees>20.0056158564984798431396484375</LongitudeDegrees>
            </Position>
            <AltitudeMeters>758.20001220703125</AltitudeMeters>
            <DistanceMeters>10298.210713297</DistanceMeters>
          </Trackpoint>
          <Trackpoint>
            <Time>2022-09-18T11:58:14.000Z</Time>
            <Position>
              <LatitudeDegrees>49.37698918394744396209716796875</LatitudeDegrees>
              <LongitudeDegrees>20.00563303939998149871826171875</LongitudeDegrees>
            </Position>
            <AltitudeMeters>757.20001220703125</AltitudeMeters>
            <DistanceMeters>10304.054663084</DistanceMeters>
          </Trackpoint>
          <Trackpoint>
            <Time>2022-09-18T11:58:15.000Z</Time>
            <Position>
              <LatitudeDegrees>49.37701550312340259552001953125</LatitudeDegrees>
              <LongitudeDegrees>20.00564527697861194610595703125</LongitudeDegrees>
            </Position>
            <AltitudeMeters>756.5999755859375</AltitudeMeters>
            <DistanceMeters>10307.11623447</DistanceMeters>
          </Trackpoint>
          <Trackpoint>
            <Time>2022-09-18T11:58:18.000Z</Time>
            <Position>
              <LatitudeDegrees>49.377091862261295318603515625</LatitudeDegrees>
              <LongitudeDegrees>20.0056979991495609283447265625</LongitudeDegrees>
            </Position>
            <AltitudeMeters>755.4000244140625</AltitudeMeters>
            <DistanceMeters>10316.434184084</DistanceMeters>
          </Trackpoint>
          <Trackpoint>
            <Time>2022-09-18T11:58:20.000Z</Time>
            <Position>
              <LatitudeDegrees>49.37714508734643459320068359375</LatitudeDegrees>
              <LongitudeDegrees>20.00572063028812408447265625</LongitudeDegrees>
            </Position>
            <AltitudeMeters>754.4000244140625</AltitudeMeters>
            <DistanceMeters>10322.580877491</DistanceMeters>
          </Trackpoint>
          <Trackpoint>
            <Time>2022-09-18T11:58:21.000Z</Time>
            <Position>
              <LatitudeDegrees>49.377171657979488372802734375</LatitudeDegrees>
              <LongitudeDegrees>20.0057293474674224853515625</LongitudeDegrees>
            </Position>
            <AltitudeMeters>753.79998779296875</AltitudeMeters>
            <DistanceMeters>10325.605355535</DistanceMeters>
          </Trackpoint>
          <Trackpoint>
            <Time>2022-09-18T11:58:22.000Z</Time>
            <Position>
              <LatitudeDegrees>49.37719336710870265960693359375</LatitudeDegrees>
              <LongitudeDegrees>20.0057405792176723480224609375</LongitudeDegrees>
            </Position>
            <AltitudeMeters>753.20001220703125</AltitudeMeters>
            <DistanceMeters>10328.155189851</DistanceMeters>
          </Trackpoint>
          <Trackpoint>
            <Time>2022-09-18T11:58:25.000Z</Time>
            <Position>
              <LatitudeDegrees>49.3772486038506031036376953125</LatitudeDegrees>
              <LongitudeDegrees>20.0057697482407093048095703125</LongitudeDegrees>
            </Position>
            <AltitudeMeters>752</AltitudeMeters>
            <DistanceMeters>10334.656017318</DistanceMeters>
          </Trackpoint>
          <Trackpoint>
            <Time>2022-09-18T11:58:28.000Z</Time>
            <Position>
              <LatitudeDegrees>49.377297721803188323974609375</LatitudeDegrees>
              <LongitudeDegrees>20.00581408850848674774169921875</LongitudeDegrees>
            </Position>
            <AltitudeMeters>751.20001220703125</AltitudeMeters>
            <DistanceMeters>10340.997938201</DistanceMeters>
          </Trackpoint>
          <Trackpoint>
            <Time>2022-09-18T11:58:29.000Z</Time>
            <Position>
              <LatitudeDegrees>49.37731406651437282562255859375</LatitudeDegrees>
              <LongitudeDegrees>20.0058321096003055572509765625</LongitudeDegrees>
            </Position>
            <AltitudeMeters>750.79998779296875</AltitudeMeters>
            <DistanceMeters>10343.238635079</DistanceMeters>
          </Trackpoint>
          <Trackpoint>
            <Time>2022-09-18T11:58:33.000Z</Time>
            <Position>
              <LatitudeDegrees>49.3773934431374073028564453125</LatitudeDegrees>
              <LongitudeDegrees>20.00590545125305652618408203125</LongitudeDegrees>
            </Position>
            <AltitudeMeters>749.4000244140625</AltitudeMeters>
            <DistanceMeters>10353.54892411</DistanceMeters>
          </Trackpoint>
          <Trackpoint>
            <Time>2022-09-18T11:58:36.000Z</Time>
            <Position>
              <LatitudeDegrees>49.37745119445025920867919921875</LatitudeDegrees>
              <LongitudeDegrees>20.0059732608497142791748046875</LongitudeDegrees>
            </Position>
            <AltitudeMeters>748.20001220703125</AltitudeMeters>
            <DistanceMeters>10361.640157281</DistanceMeters>
          </Trackpoint>
          <Trackpoint>
            <Time>2022-09-18T11:58:37.000Z</Time>
            <Position>
              <LatitudeDegrees>49.3774661980569362640380859375</LatitudeDegrees>
              <LongitudeDegrees>20.00599245540797710418701171875</LongitudeDegrees>
            </Position>
            <AltitudeMeters>747.79998779296875</AltitudeMeters>
            <DistanceMeters>10363.811262968</DistanceMeters>
          </Trackpoint>
          <Trackpoint>
            <Time>2022-09-18T11:58:39.000Z</Time>
            <Position>
              <LatitudeDegrees>49.3775010667741298675537109375</LatitudeDegrees>
              <LongitudeDegrees>20.00605029053986072540283203125</LongitudeDegrees>
            </Position>
            <AltitudeMeters>747</AltitudeMeters>
            <DistanceMeters>10369.523941522</DistanceMeters>
          </Trackpoint>
          <Trackpoint>
            <Time>2022-09-18T11:58:42.000Z</Time>
            <Position>
              <LatitudeDegrees>49.37753685750067234039306640625</LatitudeDegrees>
              <LongitudeDegrees>20.0061201117932796478271484375</LongitudeDegrees>
            </Position>
            <AltitudeMeters>745.5999755859375</AltitudeMeters>
            <DistanceMeters>10375.963360054</DistanceMeters>
          </Trackpoint>
          <Trackpoint>
            <Time>2022-09-18T11:58:45.000Z</Time>
            <Position>
              <LatitudeDegrees>49.3775835447013378143310546875</LatitudeDegrees>
              <LongitudeDegrees>20.00619546510279178619384765625</LongitudeDegrees>
            </Position>
            <AltitudeMeters>744.4000244140625</AltitudeMeters>
            <DistanceMeters>10383.501081261</DistanceMeters>
          </Trackpoint>
          <Trackpoint>
            <Time>2022-09-18T11:58:48.000Z</Time>
            <Position>
              <LatitudeDegrees>49.37762637622654438018798828125</LatitudeDegrees>
              <LongitudeDegrees>20.00626503489911556243896484375</LongitudeDegrees>
            </Position>
            <AltitudeMeters>742.79998779296875</AltitudeMeters>
            <DistanceMeters>10390.439333023</DistanceMeters>
          </Trackpoint>
          <Trackpoint>
            <Time>2022-09-18T11:58:51.000Z</Time>
            <Position>
              <LatitudeDegrees>49.37767717055976390838623046875</LatitudeDegrees>
              <LongitudeDegrees>20.0063423998653888702392578125</LongitudeDegrees>
            </Position>
            <AltitudeMeters>741.5999755859375</AltitudeMeters>
            <DistanceMeters>10398.401188124</DistanceMeters>
          </Trackpoint>
          <Trackpoint>
            <Time>2022-09-18T11:58:54.000Z</Time>
            <Position>
              <LatitudeDegrees>49.37772528268396854400634765625</LatitudeDegrees>
              <LongitudeDegrees>20.00641088001430034637451171875</LongitudeDegrees>
            </Position>
            <AltitudeMeters>740.5999755859375</AltitudeMeters>
            <DistanceMeters>10405.702184032</DistanceMeters>
          </Trackpoint>
          <Trackpoint>
            <Time>2022-09-18T11:58:56.000Z</Time>
            <Position>
              <LatitudeDegrees>49.37775545753538608551025390625</LatitudeDegrees>
              <LongitudeDegrees>20.00646628439426422119140625</LongitudeDegrees>
            </Position>
            <AltitudeMeters>739.79998779296875</AltitudeMeters>
            <DistanceMeters>10410.93642246</DistanceMeters>
          </Trackpoint>
          <Trackpoint>
            <Time>2022-09-18T11:58:58.000Z</Time>
            <Position>
              <LatitudeDegrees>49.37778144143521785736083984375</LatitudeDegrees>
              <LongitudeDegrees>20.006521604955196380615234375</LongitudeDegrees>
            </Position>
            <AltitudeMeters>739.4000244140625</AltitudeMeters>
            <DistanceMeters>10415.879638707</DistanceMeters>
          </Trackpoint>
          <Trackpoint>
            <Time>2022-09-18T11:58:59.000Z</Time>
            <Position>
              <LatitudeDegrees>49.37779133208096027374267578125</LatitudeDegrees>
              <LongitudeDegrees>20.0065418891608715057373046875</LongitudeDegrees>
            </Position>
            <AltitudeMeters>739.20001220703125</AltitudeMeters>
            <DistanceMeters>10417.717367901</DistanceMeters>
          </Trackpoint>
          <Trackpoint>
            <Time>2022-09-18T11:59:01.000Z</Time>
            <Position>
              <LatitudeDegrees>49.3778229318559169769287109375</LatitudeDegrees>
              <LongitudeDegrees>20.006591342389583587646484375</LongitudeDegrees>
            </Position>
            <AltitudeMeters>738.4000244140625</AltitudeMeters>
            <DistanceMeters>10422.738520501</DistanceMeters>
          </Trackpoint>
          <Trackpoint>
            <Time>2022-09-18T11:59:03.000Z</Time>
            <Position>
              <LatitudeDegrees>49.377856291830539703369140625</LatitudeDegrees>
              <LongitudeDegrees>20.0066320784389972686767578125</LongitudeDegrees>
            </Position>
            <AltitudeMeters>737.5999755859375</AltitudeMeters>
            <DistanceMeters>10427.481296104</DistanceMeters>
          </Trackpoint>
          <Trackpoint>
            <Time>2022-09-18T11:59:05.000Z</Time>
            <Position>
              <LatitudeDegrees>49.37789610587060451507568359375</LatitudeDegrees>
              <LongitudeDegrees>20.00666870735585689544677734375</LongitudeDegrees>
            </Position>
            <AltitudeMeters>737</AltitudeMeters>
            <DistanceMeters>10432.646065781</DistanceMeters>
          </Trackpoint>
          <Trackpoint>
            <Time>2022-09-18T11:59:08.000Z</Time>
            <Position>
              <LatitudeDegrees>49.3779396079480648040771484375</LatitudeDegrees>
              <LongitudeDegrees>20.00672620721161365509033203125</LongitudeDegrees>
            </Position>
            <AltitudeMeters>736</AltitudeMeters>
            <DistanceMeters>10439.033388019</DistanceMeters>
          </Trackpoint>
          <Trackpoint>
            <Time>2022-09-18T11:59:11.000Z</Time>
            <Position>
              <LatitudeDegrees>49.377989731729030609130859375</LatitudeDegrees>
              <LongitudeDegrees>20.0067995488643646240234375</LongitudeDegrees>
            </Position>
            <AltitudeMeters>734.79998779296875</AltitudeMeters>
            <DistanceMeters>10446.739345629</DistanceMeters>
          </Trackpoint>
          <Trackpoint>
            <Time>2022-09-18T11:59:12.000Z</Time>
            <Position>
              <LatitudeDegrees>49.37801420688629150390625</LatitudeDegrees>
              <LongitudeDegrees>20.006828717887401580810546875</LongitudeDegrees>
            </Position>
            <AltitudeMeters>734.20001220703125</AltitudeMeters>
            <DistanceMeters>10450.189221098</DistanceMeters>
          </Trackpoint>
          <Trackpoint>
            <Time>2022-09-18T11:59:14.000Z</Time>
            <Position>
              <LatitudeDegrees>49.37804345972836017608642578125</LatitudeDegrees>
              <LongitudeDegrees>20.00686987303197383880615234375</LongitudeDegrees>
            </Position>
            <AltitudeMeters>733.4000244140625</AltitudeMeters>
            <DistanceMeters>10454.604641242</DistanceMeters>
          </Trackpoint>
          <Trackpoint>
            <Time>2022-09-18T11:59:17.000Z</Time>
            <Position>
              <LatitudeDegrees>49.3780857883393764495849609375</LatitudeDegrees>
              <LongitudeDegrees>20.0069358386099338531494140625</LongitudeDegrees>
            </Position>
            <AltitudeMeters>731.79998779296875</AltitudeMeters>
            <DistanceMeters>10461.315976526</DistanceMeters>
          </Trackpoint>
          <Trackpoint>
            <Time>2022-09-18T11:59:20.000Z</Time>
            <Position>
              <LatitudeDegrees>49.37814471311867237091064453125</LatitudeDegrees>
              <LongitudeDegrees>20.007015801966190338134765625</LongitudeDegrees>
            </Position>
            <AltitudeMeters>730.79998779296875</AltitudeMeters>
            <DistanceMeters>10470.067725403</DistanceMeters>
          </Trackpoint>
          <Trackpoint>
            <Time>2022-09-18T11:59:21.000Z</Time>
            <Position>
              <LatitudeDegrees>49.378161393105983734130859375</LatitudeDegrees>
              <LongitudeDegrees>20.0070444680750370025634765625</LongitudeDegrees>
            </Position>
            <AltitudeMeters>730.4000244140625</AltitudeMeters>
            <DistanceMeters>10472.854455699</DistanceMeters>
          </Trackpoint>
          <Trackpoint>
            <Time>2022-09-18T11:59:23.000Z</Time>
            <Position>
              <LatitudeDegrees>49.378192909061908721923828125</LatitudeDegrees>
              <LongitudeDegrees>20.0070920772850513458251953125</LongitudeDegrees>
            </Position>
            <AltitudeMeters>729.4000244140625</AltitudeMeters>
            <DistanceMeters>10477.775701986</DistanceMeters>
          </Trackpoint>
          <Trackpoint>
            <Time>2022-09-18T11:59:26.000Z</Time>
            <Position>
              <LatitudeDegrees>49.378253929316997528076171875</LatitudeDegrees>
              <LongitudeDegrees>20.0071695260703563690185546875</LongitudeDegrees>
            </Position>
            <AltitudeMeters>728.20001220703125</AltitudeMeters>
            <DistanceMeters>10486.586067309</DistanceMeters>
          </Trackpoint>
          <Trackpoint>
            <Time>2022-09-18T11:59:29.000Z</Time>
            <Position>
              <LatitudeDegrees>49.378306232392787933349609375</LatitudeDegrees>
              <LongitudeDegrees>20.00724454410374164581298828125</LongitudeDegrees>
            </Position>
            <AltitudeMeters>726.5999755859375</AltitudeMeters>
            <DistanceMeters>10494.550757323</DistanceMeters>
          </Trackpoint>
          <Trackpoint>
            <Time>2022-09-18T11:59:30.000Z</Time>
            <Position>
              <LatitudeDegrees>49.37832157127559185028076171875</LatitudeDegrees>
              <LongitudeDegrees>20.00727756880223751068115234375</LongitudeDegrees>
            </Position>
            <AltitudeMeters>726.20001220703125</AltitudeMeters>
            <DistanceMeters>10497.488912029</DistanceMeters>
          </Trackpoint>
          <Trackpoint>
            <Time>2022-09-18T11:59:31.000Z</Time>
            <Position>
              <LatitudeDegrees>49.3783352337777614593505859375</LatitudeDegrees>
              <LongitudeDegrees>20.0073049776256084442138671875</LongitudeDegrees>
            </Position>
            <AltitudeMeters>725.5999755859375</AltitudeMeters>
            <DistanceMeters>10499.992284365</DistanceMeters>
          </Trackpoint>
          <Trackpoint>
            <Time>2022-09-18T11:59:33.000Z</Time>
            <Position>
              <LatitudeDegrees>49.37836892902851104736328125</LatitudeDegrees>
              <LongitudeDegrees>20.007361806929111480712890625</LongitudeDegrees>
            </Position>
            <AltitudeMeters>724.4000244140625</AltitudeMeters>
            <DistanceMeters>10505.56250363</DistanceMeters>
          </Trackpoint>
          <Trackpoint>
            <Time>2022-09-18T11:59:36.000Z</Time>
            <Position>
              <LatitudeDegrees>49.3784151971340179443359375</LatitudeDegrees>
              <LongitudeDegrees>20.007429532706737518310546875</LongitudeDegrees>
            </Position>
            <AltitudeMeters>723</AltitudeMeters>
            <DistanceMeters>10512.675556302</DistanceMeters>
          </Trackpoint>
          <Trackpoint>
            <Time>2022-09-18T11:59:39.000Z</Time>
            <Position>
              <LatitudeDegrees>49.378459453582763671875</LatitudeDegrees>
              <LongitudeDegrees>20.007505975663661956787109375</LongitudeDegrees>
            </Position>
            <AltitudeMeters>721.79998779296875</AltitudeMeters>
            <DistanceMeters>10520.088249144</DistanceMeters>
          </Trackpoint>
          <Trackpoint>
            <Time>2022-09-18T11:59:41.000Z</Time>
            <Position>
              <LatitudeDegrees>49.378493316471576690673828125</LatitudeDegrees>
              <LongitudeDegrees>20.00755182467401027679443359375</LongitudeDegrees>
            </Position>
            <AltitudeMeters>720.5999755859375</AltitudeMeters>
            <DistanceMeters>10525.112997271</DistanceMeters>
          </Trackpoint>
          <Trackpoint>
            <Time>2022-09-18T11:59:45.000Z</Time>
            <Position>
              <LatitudeDegrees>49.37854654155671596527099609375</LatitudeDegrees>
              <LongitudeDegrees>20.00764335505664348602294921875</LongitudeDegrees>
            </Position>
            <AltitudeMeters>719.4000244140625</AltitudeMeters>
            <DistanceMeters>10534.00599505</DistanceMeters>
          </Trackpoint>
          <Trackpoint>
            <Time>2022-09-18T11:59:48.000Z</Time>
            <Position>
              <LatitudeDegrees>49.378579147160053253173828125</LatitudeDegrees>
              <LongitudeDegrees>20.00771753489971160888671875</LongitudeDegrees>
            </Position>
            <AltitudeMeters>718.20001220703125</AltitudeMeters>
            <DistanceMeters>10540.491524795</DistanceMeters>
          </Trackpoint>
          <Trackpoint>
            <Time>2022-09-18T11:59:51.000Z</Time>
            <Position>
              <LatitudeDegrees>49.37862030230462551116943359375</LatitudeDegrees>
              <LongitudeDegrees>20.00780261121690273284912109375</LongitudeDegrees>
            </Position>
            <AltitudeMeters>717.20001220703125</AltitudeMeters>
            <DistanceMeters>10548.171658865</DistanceMeters>
          </Trackpoint>
          <Trackpoint>
            <Time>2022-09-18T11:59:54.000Z</Time>
            <Position>
              <LatitudeDegrees>49.3786503933370113372802734375</LatitudeDegrees>
              <LongitudeDegrees>20.00787519849836826324462890625</LongitudeDegrees>
            </Position>
            <AltitudeMeters>716</AltitudeMeters>
            <DistanceMeters>10554.407323157</DistanceMeters>
          </Trackpoint>
          <Trackpoint>
            <Time>2022-09-18T11:59:58.000Z</Time>
            <Position>
              <LatitudeDegrees>49.37869138084352016448974609375</LatitudeDegrees>
              <LongitudeDegrees>20.0079627893865108489990234375</LongitudeDegrees>
            </Position>
            <AltitudeMeters>714.79998779296875</AltitudeMeters>
            <DistanceMeters>10562.223811961</DistanceMeters>
          </Trackpoint>
          <Trackpoint>
            <Time>2022-09-18T12:00:02.000Z</Time>
            <Position>
              <LatitudeDegrees>49.378738068044185638427734375</LatitudeDegrees>
              <LongitudeDegrees>20.00809933058917522430419921875</LongitudeDegrees>
            </Position>
            <AltitudeMeters>713.5999755859375</AltitudeMeters>
            <DistanceMeters>10573.39985855</DistanceMeters>
          </Trackpoint>
          <Trackpoint>
            <Time>2022-09-18T12:00:05.000Z</Time>
            <Position>
              <LatitudeDegrees>49.3787612020969390869140625</LatitudeDegrees>
              <LongitudeDegrees>20.0082796253263950347900390625</LongitudeDegrees>
            </Position>
            <AltitudeMeters>712</AltitudeMeters>
            <DistanceMeters>10586.715810678</DistanceMeters>
          </Trackpoint>
          <Trackpoint>
            <Time>2022-09-18T12:00:06.000Z</Time>
            <Position>
              <LatitudeDegrees>49.37876229174435138702392578125</LatitudeDegrees>
              <LongitudeDegrees>20.00834919512271881103515625</LongitudeDegrees>
            </Position>
            <AltitudeMeters>711.4000244140625</AltitudeMeters>
            <DistanceMeters>10591.758497984</DistanceMeters>
          </Trackpoint>
          <Trackpoint>
            <Time>2022-09-18T12:00:07.000Z</Time>
            <Position>
              <LatitudeDegrees>49.378756172955036163330078125</LatitudeDegrees>
              <LongitudeDegrees>20.0084160827100276947021484375</LongitudeDegrees>
            </Position>
            <AltitudeMeters>710.79998779296875</AltitudeMeters>
            <DistanceMeters>10596.653065667</DistanceMeters>
          </Trackpoint>
          <Trackpoint>
            <Time>2022-09-18T12:00:11.000Z</Time>
            <Position>
              <LatitudeDegrees>49.37873329035937786102294921875</LatitudeDegrees>
              <LongitudeDegrees>20.0086122192442417144775390625</LongitudeDegrees>
            </Position>
            <AltitudeMeters>709.5999755859375</AltitudeMeters>
            <DistanceMeters>10611.092123979</DistanceMeters>
          </Trackpoint>
          <Trackpoint>
            <Time>2022-09-18T12:00:18.000Z</Time>
            <Position>
              <LatitudeDegrees>49.37868140637874603271484375</LatitudeDegrees>
              <LongitudeDegrees>20.00886728055775165557861328125</LongitudeDegrees>
            </Position>
            <AltitudeMeters>708.5999755859375</AltitudeMeters>
            <DistanceMeters>10630.456134262</DistanceMeters>
          </Trackpoint>
          <Trackpoint>
            <Time>2022-09-18T12:00:20.000Z</Time>
            <Position>
              <LatitudeDegrees>49.37866791151463985443115234375</LatitudeDegrees>
              <LongitudeDegrees>20.00893064774572849273681640625</LongitudeDegrees>
            </Position>
            <AltitudeMeters>708.5999755859375</AltitudeMeters>
            <DistanceMeters>10635.286632946</DistanceMeters>
          </Trackpoint>
          <Trackpoint>
            <Time>2022-09-18T12:00:24.000Z</Time>
            <Position>
              <LatitudeDegrees>49.378644526004791259765625</LatitudeDegrees>
              <LongitudeDegrees>20.00901916064321994781494140625</LongitudeDegrees>
            </Position>
            <AltitudeMeters>708.4000244140625</AltitudeMeters>
            <DistanceMeters>10642.208596945</DistanceMeters>
          </Trackpoint>
          <Trackpoint>
            <Time>2022-09-18T12:00:29.000Z</Time>
            <Position>
              <LatitudeDegrees>49.37859549187123775482177734375</LatitudeDegrees>
              <LongitudeDegrees>20.00915192998945713043212890625</LongitudeDegrees>
            </Position>
            <AltitudeMeters>708.4000244140625</AltitudeMeters>
            <DistanceMeters>10653.269314628</DistanceMeters>
          </Trackpoint>
          <Trackpoint>
            <Time>2022-09-18T12:00:30.000Z</Time>
            <Position>
              <LatitudeDegrees>49.37859331257641315460205078125</LatitudeDegrees>
              <LongitudeDegrees>20.0091697834432125091552734375</LongitudeDegrees>
            </Position>
            <AltitudeMeters>708.4000244140625</AltitudeMeters>
            <DistanceMeters>10654.58260995</DistanceMeters>
          </Trackpoint>
          <Trackpoint>
            <Time>2022-09-18T12:00:37.000Z</Time>
            <Position>
              <LatitudeDegrees>49.3785722739994525909423828125</LatitudeDegrees>
              <LongitudeDegrees>20.00923709012567996978759765625</LongitudeDegrees>
            </Position>
            <AltitudeMeters>708</AltitudeMeters>
            <DistanceMeters>10659.993294549</DistanceMeters>
          </Trackpoint>
          <Trackpoint>
            <Time>2022-09-18T12:00:46.000Z</Time>
            <Position>
              <LatitudeDegrees>49.3785722739994525909423828125</LatitudeDegrees>
              <LongitudeDegrees>20.00923709012567996978759765625</LongitudeDegrees>
            </Position>
            <AltitudeMeters>707.5999755859375</AltitudeMeters>
            <DistanceMeters>10659.993294549</DistanceMeters>
          </Trackpoint>
          <Trackpoint>
            <Time>2022-09-18T12:00:47.000Z</Time>
            <Position>
              <LatitudeDegrees>49.3785722739994525909423828125</LatitudeDegrees>
              <LongitudeDegrees>20.00923709012567996978759765625</LongitudeDegrees>
            </Position>
            <AltitudeMeters>707.5999755859375</AltitudeMeters>
            <DistanceMeters>10659.993294549</DistanceMeters>
          </Trackpoint>
          <Trackpoint>
            <Time>2022-09-18T12:00:58.000Z</Time>
            <Position>
              <LatitudeDegrees>49.37856699340045452117919921875</LatitudeDegrees>
              <LongitudeDegrees>20.0092650018632411956787109375</LongitudeDegrees>
            </Position>
            <AltitudeMeters>707.20001220703125</AltitudeMeters>
            <DistanceMeters>10662.101089038</DistanceMeters>
          </Trackpoint>
          <Trackpoint>
            <Time>2022-09-18T12:01:00.000Z</Time>
            <Position>
              <LatitudeDegrees>49.378564395010471343994140625</LatitudeDegrees>
              <LongitudeDegrees>20.00931403599679470062255859375</LongitudeDegrees>
            </Position>
            <AltitudeMeters>707.20001220703125</AltitudeMeters>
            <DistanceMeters>10665.666807428</DistanceMeters>
          </Trackpoint>
          <Trackpoint>
            <Time>2022-09-18T12:01:03.000Z</Time>
            <Position>
              <LatitudeDegrees>49.378548301756381988525390625</LatitudeDegrees>
              <LongitudeDegrees>20.00937648117542266845703125</LongitudeDegrees>
            </Position>
            <AltitudeMeters>707.4000244140625</AltitudeMeters>
            <DistanceMeters>10670.532694853</DistanceMeters>
          </Trackpoint>
          <Trackpoint>
            <Time>2022-09-18T12:01:06.000Z</Time>
            <Position>
              <LatitudeDegrees>49.3785305321216583251953125</LatitudeDegrees>
              <LongitudeDegrees>20.0094058178365230560302734375</LongitudeDegrees>
            </Position>
            <AltitudeMeters>707.4000244140625</AltitudeMeters>
            <DistanceMeters>10673.436845572</DistanceMeters>
          </Trackpoint>
          <Trackpoint>
            <Time>2022-09-18T12:01:09.000Z</Time>
            <Position>
              <LatitudeDegrees>49.3785219825804233551025390625</LatitudeDegrees>
              <LongitudeDegrees>20.0094413571059703826904296875</LongitudeDegrees>
            </Position>
            <AltitudeMeters>707.4000244140625</AltitudeMeters>
            <DistanceMeters>10676.181127583</DistanceMeters>
          </Trackpoint>
          <Trackpoint>
            <Time>2022-09-18T12:01:12.000Z</Time>
            <Position>
              <LatitudeDegrees>49.37850496731698513031005859375</LatitudeDegrees>
              <LongitudeDegrees>20.0094919838011264801025390625</LongitudeDegrees>
            </Position>
            <AltitudeMeters>707.5999755859375</AltitudeMeters>
            <DistanceMeters>10680.310144939</DistanceMeters>
          </Trackpoint>
          <Trackpoint>
            <Time>2022-09-18T12:01:13.000Z</Time>
            <Position>
              <LatitudeDegrees>49.37849633395671844482421875</LatitudeDegrees>
              <LongitudeDegrees>20.00951050780713558197021484375</LongitudeDegrees>
            </Position>
            <AltitudeMeters>707.5999755859375</AltitudeMeters>
            <DistanceMeters>10681.961533169</DistanceMeters>
          </Trackpoint>
          <Trackpoint>
            <Time>2022-09-18T12:01:17.000Z</Time>
            <Position>
              <LatitudeDegrees>49.378467500209808349609375</LatitudeDegrees>
              <LongitudeDegrees>20.0095741264522075653076171875</LongitudeDegrees>
            </Position>
            <AltitudeMeters>707.4000244140625</AltitudeMeters>
            <DistanceMeters>10687.578568605</DistanceMeters>
          </Trackpoint>
          <Trackpoint>
            <Time>2022-09-18T12:01:25.000Z</Time>
            <Position>
              <LatitudeDegrees>49.37843841500580310821533203125</LatitudeDegrees>
              <LongitudeDegrees>20.00970245338976383209228515625</LongitudeDegrees>
            </Position>
            <AltitudeMeters>707</AltitudeMeters>
            <DistanceMeters>10697.425188877</DistanceMeters>
          </Trackpoint>
          <Trackpoint>
            <Time>2022-09-18T12:01:30.000Z</Time>
            <Position>
              <LatitudeDegrees>49.37843221239745616912841796875</LatitudeDegrees>
              <LongitudeDegrees>20.00971737317740917205810546875</LongitudeDegrees>
            </Position>
            <AltitudeMeters>706.5999755859375</AltitudeMeters>
            <DistanceMeters>10698.707169342</DistanceMeters>
          </Trackpoint>
          <Trackpoint>
            <Time>2022-09-18T12:01:31.000Z</Time>
            <Position>
              <LatitudeDegrees>49.37843221239745616912841796875</LatitudeDegrees>
              <LongitudeDegrees>20.00971737317740917205810546875</LongitudeDegrees>
            </Position>
            <AltitudeMeters>706.4000244140625</AltitudeMeters>
            <DistanceMeters>10698.707169342</DistanceMeters>
          </Trackpoint>
          <Trackpoint>
            <Time>2022-09-18T12:01:41.000Z</Time>
            <Position>
              <LatitudeDegrees>49.37843221239745616912841796875</LatitudeDegrees>
              <LongitudeDegrees>20.00971737317740917205810546875</LongitudeDegrees>
            </Position>
            <AltitudeMeters>706.5999755859375</AltitudeMeters>
            <DistanceMeters>10698.707169342</DistanceMeters>
          </Trackpoint>
          <Trackpoint>
            <Time>2022-09-18T12:01:48.000Z</Time>
            <Position>
              <LatitudeDegrees>49.37843221239745616912841796875</LatitudeDegrees>
              <LongitudeDegrees>20.00971737317740917205810546875</LongitudeDegrees>
            </Position>
            <AltitudeMeters>706.4000244140625</AltitudeMeters>
            <DistanceMeters>10698.707169342</DistanceMeters>
          </Trackpoint>
          <Trackpoint>
            <Time>2022-09-18T12:01:57.000Z</Time>
            <Position>
              <LatitudeDegrees>49.37843221239745616912841796875</LatitudeDegrees>
              <LongitudeDegrees>20.00971737317740917205810546875</LongitudeDegrees>
            </Position>
            <AltitudeMeters>706.20001220703125</AltitudeMeters>
            <DistanceMeters>10698.707169342</DistanceMeters>
          </Trackpoint>
          <Trackpoint>
            <Time>2022-09-18T12:02:00.000Z</Time>
            <Position>
              <LatitudeDegrees>49.37843221239745616912841796875</LatitudeDegrees>
              <LongitudeDegrees>20.00971737317740917205810546875</LongitudeDegrees>
            </Position>
            <AltitudeMeters>706.20001220703125</AltitudeMeters>
            <DistanceMeters>10698.707169342</DistanceMeters>
          </Trackpoint>
          <Trackpoint>
            <Time>2022-09-18T12:02:03.000Z</Time>
            <Position>
              <LatitudeDegrees>49.37842567451298236846923828125</LatitudeDegrees>
              <LongitudeDegrees>20.00978141091763973236083984375</LongitudeDegrees>
            </Position>
            <AltitudeMeters>706.4000244140625</AltitudeMeters>
            <DistanceMeters>10703.403066134</DistanceMeters>
          </Trackpoint>
          <Trackpoint>
            <Time>2022-09-18T12:02:04.000Z</Time>
            <Position>
              <LatitudeDegrees>49.378429614007472991943359375</LatitudeDegrees>
              <LongitudeDegrees>20.00981980003416538238525390625</LongitudeDegrees>
            </Position>
            <AltitudeMeters>706.4000244140625</AltitudeMeters>
            <DistanceMeters>10706.218808863</DistanceMeters>
          </Trackpoint>
          <Trackpoint>
            <Time>2022-09-18T12:02:10.000Z</Time>
            <Position>
              <LatitudeDegrees>49.37844612635672092437744140625</LatitudeDegrees>
              <LongitudeDegrees>20.01006991602480411529541015625</LongitudeDegrees>
            </Position>
            <AltitudeMeters>706.20001220703125</AltitudeMeters>
            <DistanceMeters>10724.436200813</DistanceMeters>
          </Trackpoint>
          <Trackpoint>
            <Time>2022-09-18T12:02:14.000Z</Time>
            <Position>
              <LatitudeDegrees>49.37844646163284778594970703125</LatitudeDegrees>
              <LongitudeDegrees>20.01020737923681735992431640625</LongitudeDegrees>
            </Position>
            <AltitudeMeters>706.20001220703125</AltitudeMeters>
            <DistanceMeters>10734.397248949</DistanceMeters>
          </Trackpoint>
          <Trackpoint>
            <Time>2022-09-18T12:02:16.000Z</Time>
            <Position>
              <LatitudeDegrees>49.37844595871865749359130859375</LatitudeDegrees>
              <LongitudeDegrees>20.01028231345117092132568359375</LongitudeDegrees>
            </Position>
            <AltitudeMeters>706.20001220703125</AltitudeMeters>
            <DistanceMeters>10739.827092372</DistanceMeters>
          </Trackpoint>
          <Trackpoint>
            <Time>2022-09-18T12:02:18.000Z</Time>
            <Position>
              <LatitudeDegrees>49.3784405104815959930419921875</LatitudeDegrees>
              <LongitudeDegrees>20.01035557128489017486572265625</LongitudeDegrees>
            </Position>
            <AltitudeMeters>706</AltitudeMeters>
            <DistanceMeters>10745.16975759</DistanceMeters>
          </Trackpoint>
          <Trackpoint>
            <Time>2022-09-18T12:02:23.000Z</Time>
            <Position>
              <LatitudeDegrees>49.37842433340847492218017578125</LatitudeDegrees>
              <LongitudeDegrees>20.01052287407219409942626953125</LongitudeDegrees>
            </Position>
            <AltitudeMeters>705.79998779296875</AltitudeMeters>
            <DistanceMeters>10757.426362003</DistanceMeters>
          </Trackpoint>
          <Trackpoint>
            <Time>2022-09-18T12:02:29.000Z</Time>
            <Position>
              <LatitudeDegrees>49.37837739475071430206298828125</LatitudeDegrees>
              <LongitudeDegrees>20.01073694787919521331787109375</LongitudeDegrees>
            </Position>
            <AltitudeMeters>705.4000244140625</AltitudeMeters>
            <DistanceMeters>10773.795523811</DistanceMeters>
          </Trackpoint>
          <Trackpoint>
            <Time>2022-09-18T12:02:30.000Z</Time>
            <Position>
              <LatitudeDegrees>49.37837027013301849365234375</LatitudeDegrees>
              <LongitudeDegrees>20.0107713975012302398681640625</LongitudeDegrees>
            </Position>
            <AltitudeMeters>705.4000244140625</AltitudeMeters>
            <DistanceMeters>10776.415229539</DistanceMeters>
          </Trackpoint>
          <Trackpoint>
            <Time>2022-09-18T12:02:36.000Z</Time>
            <Position>
              <LatitudeDegrees>49.378308914601802825927734375</LatitudeDegrees>
              <LongitudeDegrees>20.01095973886549472808837890625</LongitudeDegrees>
            </Position>
            <AltitudeMeters>705</AltitudeMeters>
            <DistanceMeters>10791.67641336</DistanceMeters>
          </Trackpoint>
          <Trackpoint>
            <Time>2022-09-18T12:02:43.000Z</Time>
            <Position>
              <LatitudeDegrees>49.378253929316997528076171875</LatitudeDegrees>
              <LongitudeDegrees>20.01113056205213069915771484375</LongitudeDegrees>
            </Position>
            <AltitudeMeters>705</AltitudeMeters>
            <DistanceMeters>10805.485400444</DistanceMeters>
          </Trackpoint>
          <Trackpoint>
            <Time>2022-09-18T12:02:48.000Z</Time>
            <Position>
              <LatitudeDegrees>49.378210008144378662109375</LatitudeDegrees>
              <LongitudeDegrees>20.01125947572290897369384765625</LongitudeDegrees>
            </Position>
            <AltitudeMeters>705</AltitudeMeters>
            <DistanceMeters>10816.028656157</DistanceMeters>
          </Trackpoint>
          <Trackpoint>
            <Time>2022-09-18T12:02:49.000Z</Time>
            <Position>
              <LatitudeDegrees>49.37818913720548152923583984375</LatitudeDegrees>
              <LongitudeDegrees>20.011271126568317413330078125</LongitudeDegrees>
            </Position>
            <AltitudeMeters>705</AltitudeMeters>
            <DistanceMeters>10818.49935073</DistanceMeters>
          </Trackpoint>
          <Trackpoint>
            <Time>2022-09-18T12:02:54.000Z</Time>
            <Position>
              <LatitudeDegrees>49.37807883135974407196044921875</LatitudeDegrees>
              <LongitudeDegrees>20.01124707050621509552001953125</LongitudeDegrees>
            </Position>
            <AltitudeMeters>704.4000244140625</AltitudeMeters>
            <DistanceMeters>10830.899517733</DistanceMeters>
          </Trackpoint>
          <Trackpoint>
            <Time>2022-09-18T12:02:55.000Z</Time>
            <Position>
              <LatitudeDegrees>49.37805645167827606201171875</LatitudeDegrees>
              <LongitudeDegrees>20.01123164780437946319580078125</LongitudeDegrees>
            </Position>
            <AltitudeMeters>704.20001220703125</AltitudeMeters>
            <DistanceMeters>10833.628952302</DistanceMeters>
          </Trackpoint>
          <Trackpoint>
            <Time>2022-09-18T12:03:01.000Z</Time>
            <Position>
              <LatitudeDegrees>49.3779312260448932647705078125</LatitudeDegrees>
              <LongitudeDegrees>20.01112259924411773681640625</LongitudeDegrees>
            </Position>
            <AltitudeMeters>704</AltitudeMeters>
            <DistanceMeters>10849.651031229</DistanceMeters>
          </Trackpoint>
          <Trackpoint>
            <Time>2022-09-18T12:03:09.000Z</Time>
            <Position>
              <LatitudeDegrees>49.37777481973171234130859375</LatitudeDegrees>
              <LongitudeDegrees>20.01100282184779644012451171875</LongitudeDegrees>
            </Position>
            <AltitudeMeters>704</AltitudeMeters>
            <DistanceMeters>10869.10297877</DistanceMeters>
          </Trackpoint>
          <Trackpoint>
            <Time>2022-09-18T12:03:16.000Z</Time>
            <Position>
              <LatitudeDegrees>49.3776033259928226470947265625</LatitudeDegrees>
              <LongitudeDegrees>20.01089729368686676025390625</LongitudeDegrees>
            </Position>
            <AltitudeMeters>704</AltitudeMeters>
            <DistanceMeters>10889.665231547</DistanceMeters>
          </Trackpoint>
          <Trackpoint>
            <Time>2022-09-18T12:03:21.000Z</Time>
            <Position>
              <LatitudeDegrees>49.37750634737312793731689453125</LatitudeDegrees>
              <LongitudeDegrees>20.01085278578102588653564453125</LongitudeDegrees>
            </Position>
            <AltitudeMeters>703.5999755859375</AltitudeMeters>
            <DistanceMeters>10900.930607455</DistanceMeters>
          </Trackpoint>
          <Trackpoint>
            <Time>2022-09-18T12:03:23.000Z</Time>
            <Position>
              <LatitudeDegrees>49.3774752505123615264892578125</LatitudeDegrees>
              <LongitudeDegrees>20.0108347646892070770263671875</LongitudeDegrees>
            </Position>
            <AltitudeMeters>703.5999755859375</AltitudeMeters>
            <DistanceMeters>10904.629332345</DistanceMeters>
          </Trackpoint>
          <Trackpoint>
            <Time>2022-09-18T12:03:25.000Z</Time>
            <Position>
              <LatitudeDegrees>49.3774474225938320159912109375</LatitudeDegrees>
              <LongitudeDegrees>20.0108335912227630615234375</LongitudeDegrees>
            </Position>
            <AltitudeMeters>703.5999755859375</AltitudeMeters>
            <DistanceMeters>10907.727553005</DistanceMeters>
          </Trackpoint>
          <Trackpoint>
            <Time>2022-09-18T12:03:28.000Z</Time>
            <Position>
              <LatitudeDegrees>49.37739436514675617218017578125</LatitudeDegrees>
              <LongitudeDegrees>20.01081456430256366729736328125</LongitudeDegrees>
            </Position>
            <AltitudeMeters>703.20001220703125</AltitudeMeters>
            <DistanceMeters>10913.791419039</DistanceMeters>
          </Trackpoint>
          <Trackpoint>
            <Time>2022-09-18T12:03:31.000Z</Time>
            <Position>
              <LatitudeDegrees>49.37734826467931270599365234375</LatitudeDegrees>
              <LongitudeDegrees>20.01079059205949306488037109375</LongitudeDegrees>
            </Position>
            <AltitudeMeters>703.20001220703125</AltitudeMeters>
            <DistanceMeters>10919.207941758</DistanceMeters>
          </Trackpoint>
          <Trackpoint>
            <Time>2022-09-18T12:03:40.000Z</Time>
            <Position>
              <LatitudeDegrees>49.37719001434743404388427734375</LatitudeDegrees>
              <LongitudeDegrees>20.01073778606951236724853515625</LongitudeDegrees>
            </Position>
            <AltitudeMeters>704</AltitudeMeters>
            <DistanceMeters>10937.232232597</DistanceMeters>
          </Trackpoint>
          <Trackpoint>
            <Time>2022-09-18T12:03:43.000Z</Time>
            <Position>
              <LatitudeDegrees>49.37713938765227794647216796875</LatitudeDegrees>
              <LongitudeDegrees>20.0107201002538204193115234375</LongitudeDegrees>
            </Position>
            <AltitudeMeters>704.20001220703125</AltitudeMeters>
            <DistanceMeters>10943.010919531</DistanceMeters>
          </Trackpoint>
          <Trackpoint>
            <Time>2022-09-18T12:03:46.000Z</Time>
            <Position>
              <LatitudeDegrees>49.37706512399017810821533203125</LatitudeDegrees>
              <LongitudeDegrees>20.0106815434992313385009765625</LongitudeDegrees>
            </Position>
            <AltitudeMeters>704.20001220703125</AltitudeMeters>
            <DistanceMeters>10951.7358003</DistanceMeters>
          </Trackpoint>
          <Trackpoint>
            <Time>2022-09-18T12:03:47.000Z</Time>
            <Position>
              <LatitudeDegrees>49.37704123556613922119140625</LatitudeDegrees>
              <LongitudeDegrees>20.0106644444167613983154296875</LongitudeDegrees>
            </Position>
            <AltitudeMeters>704.4000244140625</AltitudeMeters>
            <DistanceMeters>10954.670880014</DistanceMeters>
          </Trackpoint>
          <Trackpoint>
            <Time>2022-09-18T12:03:55.000Z</Time>
            <Position>
              <LatitudeDegrees>49.37683026306331157684326171875</LatitudeDegrees>
              <LongitudeDegrees>20.0106309168040752410888671875</LongitudeDegrees>
            </Position>
            <AltitudeMeters>704.4000244140625</AltitudeMeters>
            <DistanceMeters>10978.277895237</DistanceMeters>
          </Trackpoint>
          <Trackpoint>
            <Time>2022-09-18T12:04:02.000Z</Time>
            <Position>
              <LatitudeDegrees>49.3766677379608154296875</LatitudeDegrees>
              <LongitudeDegrees>20.0105702318251132965087890625</LongitudeDegrees>
            </Position>
            <AltitudeMeters>704.79998779296875</AltitudeMeters>
            <DistanceMeters>10996.893917201</DistanceMeters>
          </Trackpoint>
          <Trackpoint>
            <Time>2022-09-18T12:04:03.000Z</Time>
            <Position>
              <LatitudeDegrees>49.37664158642292022705078125</LatitudeDegrees>
              <LongitudeDegrees>20.010561682283878326416015625</LongitudeDegrees>
            </Position>
            <AltitudeMeters>704.79998779296875</AltitudeMeters>
            <DistanceMeters>10999.870241275</DistanceMeters>
          </Trackpoint>
          <Trackpoint>
            <Time>2022-09-18T12:04:09.000Z</Time>
            <Position>
              <LatitudeDegrees>49.37647302635014057159423828125</LatitudeDegrees>
              <LongitudeDegrees>20.010549612343311309814453125</LongitudeDegrees>
            </Position>
            <AltitudeMeters>704.5999755859375</AltitudeMeters>
            <DistanceMeters>11018.651664973</DistanceMeters>
          </Trackpoint>
          <Trackpoint>
            <Time>2022-09-18T12:04:16.000Z</Time>
            <Position>
              <LatitudeDegrees>49.376306645572185516357421875</LatitudeDegrees>
              <LongitudeDegrees>20.0105259753763675689697265625</LongitudeDegrees>
            </Position>
            <AltitudeMeters>705.20001220703125</AltitudeMeters>
            <DistanceMeters>11037.24900236</DistanceMeters>
          </Trackpoint>
          <Trackpoint>
            <Time>2022-09-18T12:04:17.000Z</Time>
            <Position>
              <LatitudeDegrees>49.3762820027768611907958984375</LatitudeDegrees>
              <LongitudeDegrees>20.0105202756822109222412109375</LongitudeDegrees>
            </Position>
            <AltitudeMeters>705.4000244140625</AltitudeMeters>
            <DistanceMeters>11040.024368139</DistanceMeters>
          </Trackpoint>
          <Trackpoint>
            <Time>2022-09-18T12:04:23.000Z</Time>
            <Position>
              <LatitudeDegrees>49.3761606328189373016357421875</LatitudeDegrees>
              <LongitudeDegrees>20.01052178442478179931640625</LongitudeDegrees>
            </Position>
            <AltitudeMeters>705.5999755859375</AltitudeMeters>
            <DistanceMeters>11053.533544462</DistanceMeters>
          </Trackpoint>
          <Trackpoint>
            <Time>2022-09-18T12:04:30.000Z</Time>
            <Position>
              <LatitudeDegrees>49.37604236416518688201904296875</LatitudeDegrees>
              <LongitudeDegrees>20.01048062928020954132080078125</LongitudeDegrees>
            </Position>
            <AltitudeMeters>705.4000244140625</AltitudeMeters>
            <DistanceMeters>11067.030683499</DistanceMeters>
          </Trackpoint>
          <Trackpoint>
            <Time>2022-09-18T12:04:34.000Z</Time>
            <Position>
              <LatitudeDegrees>49.3760067410767078399658203125</LatitudeDegrees>
              <LongitudeDegrees>20.0105209462344646453857421875</LongitudeDegrees>
            </Position>
            <AltitudeMeters>705.5999755859375</AltitudeMeters>
            <DistanceMeters>11071.955598252</DistanceMeters>
          </Trackpoint>
          <Trackpoint>
            <Time>2022-09-18T12:04:35.000Z</Time>
            <Position>
              <LatitudeDegrees>49.37600397504866123199462890625</LatitudeDegrees>
              <LongitudeDegrees>20.010524131357669830322265625</LongitudeDegrees>
            </Position>
            <AltitudeMeters>705.5999755859375</AltitudeMeters>
            <DistanceMeters>11072.33570511</DistanceMeters>
          </Trackpoint>
          <Trackpoint>
            <Time>2022-09-18T12:04:43.000Z</Time>
            <Position>
              <LatitudeDegrees>49.37600112520158290863037109375</LatitudeDegrees>
              <LongitudeDegrees>20.01052773557603359222412109375</LongitudeDegrees>
            </Position>
            <AltitudeMeters>705.20001220703125</AltitudeMeters>
            <DistanceMeters>11072.738869314</DistanceMeters>
          </Trackpoint>
          <Trackpoint>
            <Time>2022-09-18T12:04:45.000Z</Time>
            <Position>
              <LatitudeDegrees>49.37600112520158290863037109375</LatitudeDegrees>
              <LongitudeDegrees>20.01052773557603359222412109375</LongitudeDegrees>
            </Position>
            <AltitudeMeters>705.20001220703125</AltitudeMeters>
            <DistanceMeters>11072.738869314</DistanceMeters>
          </Trackpoint>
          <Trackpoint>
            <Time>2022-09-18T12:04:46.000Z</Time>
            <Position>
              <LatitudeDegrees>49.37600112520158290863037109375</LatitudeDegrees>
              <LongitudeDegrees>20.01052773557603359222412109375</LongitudeDegrees>
            </Position>
            <AltitudeMeters>705.20001220703125</AltitudeMeters>
            <DistanceMeters>11072.738869314</DistanceMeters>
          </Trackpoint>
          <Trackpoint>
            <Time>2022-09-18T12:04:53.000Z</Time>
            <Position>
              <LatitudeDegrees>49.37600112520158290863037109375</LatitudeDegrees>
              <LongitudeDegrees>20.01052773557603359222412109375</LongitudeDegrees>
            </Position>
            <AltitudeMeters>705.4000244140625</AltitudeMeters>
            <DistanceMeters>11072.738869314</DistanceMeters>
          </Trackpoint>
          <Trackpoint>
            <Time>2022-09-18T12:04:59.000Z</Time>
            <Position>
              <LatitudeDegrees>49.37600112520158290863037109375</LatitudeDegrees>
              <LongitudeDegrees>20.01052773557603359222412109375</LongitudeDegrees>
            </Position>
            <AltitudeMeters>705.4000244140625</AltitudeMeters>
            <DistanceMeters>11072.738869314</DistanceMeters>
          </Trackpoint>
          <Trackpoint>
            <Time>2022-09-18T12:05:06.000Z</Time>
            <Position>
              <LatitudeDegrees>49.3760020472109317779541015625</LatitudeDegrees>
              <LongitudeDegrees>20.010527484118938446044921875</LongitudeDegrees>
            </Position>
            <AltitudeMeters>706.20001220703125</AltitudeMeters>
            <DistanceMeters>11072.738869314</DistanceMeters>
          </Trackpoint>
          <Trackpoint>
            <Time>2022-09-18T12:05:10.000Z</Time>
            <Position>
              <LatitudeDegrees>49.3760020472109317779541015625</LatitudeDegrees>
              <LongitudeDegrees>20.010527484118938446044921875</LongitudeDegrees>
            </Position>
            <AltitudeMeters>705.79998779296875</AltitudeMeters>
            <DistanceMeters>11072.738869314</DistanceMeters>
          </Trackpoint>
          <Trackpoint>
            <Time>2022-09-18T12:05:19.000Z</Time>
            <Position>
              <LatitudeDegrees>49.3760050646960735321044921875</LatitudeDegrees>
              <LongitudeDegrees>20.0105253048241138458251953125</LongitudeDegrees>
            </Position>
            <AltitudeMeters>705.4000244140625</AltitudeMeters>
            <DistanceMeters>11073.118976172</DistanceMeters>
          </Trackpoint>
          <Trackpoint>
            <Time>2022-09-18T12:05:54.000Z</Time>
            <Position>
              <LatitudeDegrees>49.3760050646960735321044921875</LatitudeDegrees>
              <LongitudeDegrees>20.0105224549770355224609375</LongitudeDegrees>
            </Position>
            <AltitudeMeters>705.20001220703125</AltitudeMeters>
            <DistanceMeters>11073.3090296</DistanceMeters>
          </Trackpoint>
          <Trackpoint>
            <Time>2022-09-18T12:06:26.000Z</Time>
            <Position>
              <LatitudeDegrees>49.3760050646960735321044921875</LatitudeDegrees>
              <LongitudeDegrees>20.0105224549770355224609375</LongitudeDegrees>
            </Position>
            <AltitudeMeters>704.79998779296875</AltitudeMeters>
            <DistanceMeters>11073.3090296</DistanceMeters>
          </Trackpoint>
          <Trackpoint>
            <Time>2022-09-18T12:06:44.000Z</Time>
            <Position>
              <LatitudeDegrees>49.3760050646960735321044921875</LatitudeDegrees>
              <LongitudeDegrees>20.0105224549770355224609375</LongitudeDegrees>
            </Position>
            <AltitudeMeters>705.5999755859375</AltitudeMeters>
            <DistanceMeters>11073.3090296</DistanceMeters>
          </Trackpoint>
          <Trackpoint>
            <Time>2022-09-18T12:06:52.000Z</Time>
            <Position>
              <LatitudeDegrees>49.3760050646960735321044921875</LatitudeDegrees>
              <LongitudeDegrees>20.0105224549770355224609375</LongitudeDegrees>
            </Position>
            <AltitudeMeters>705.20001220703125</AltitudeMeters>
            <DistanceMeters>11073.3090296</DistanceMeters>
          </Trackpoint>
          <Trackpoint>
            <Time>2022-09-18T12:06:55.000Z</Time>
            <Position>
              <LatitudeDegrees>49.3760050646960735321044921875</LatitudeDegrees>
              <LongitudeDegrees>20.0105224549770355224609375</LongitudeDegrees>
            </Position>
            <AltitudeMeters>705.20001220703125</AltitudeMeters>
            <DistanceMeters>11073.3090296</DistanceMeters>
          </Trackpoint>
          <Trackpoint>
            <Time>2022-09-18T12:07:00.000Z</Time>
            <Position>
              <LatitudeDegrees>49.3760050646960735321044921875</LatitudeDegrees>
              <LongitudeDegrees>20.0105224549770355224609375</LongitudeDegrees>
            </Position>
            <AltitudeMeters>705.20001220703125</AltitudeMeters>
            <DistanceMeters>11073.3090296</DistanceMeters>
          </Trackpoint>
          <Trackpoint>
            <Time>2022-09-18T12:07:01.000Z</Time>
            <Position>
              <LatitudeDegrees>49.3760050646960735321044921875</LatitudeDegrees>
              <LongitudeDegrees>20.0105224549770355224609375</LongitudeDegrees>
            </Position>
            <AltitudeMeters>705</AltitudeMeters>
            <DistanceMeters>11073.3090296</DistanceMeters>
          </Trackpoint>
          <Trackpoint>
            <Time>2022-09-18T12:07:03.000Z</Time>
            <Position>
              <LatitudeDegrees>49.3760050646960735321044921875</LatitudeDegrees>
              <LongitudeDegrees>20.0105224549770355224609375</LongitudeDegrees>
            </Position>
            <AltitudeMeters>705</AltitudeMeters>
            <DistanceMeters>11073.3090296</DistanceMeters>
          </Trackpoint>
          <Trackpoint>
            <Time>2022-09-18T12:07:09.000Z</Time>
            <Position>
              <LatitudeDegrees>49.3760050646960735321044921875</LatitudeDegrees>
              <LongitudeDegrees>20.0105224549770355224609375</LongitudeDegrees>
            </Position>
            <AltitudeMeters>705.20001220703125</AltitudeMeters>
            <DistanceMeters>11073.3090296</DistanceMeters>
          </Trackpoint>
          <Trackpoint>
            <Time>2022-09-18T12:07:20.000Z</Time>
            <Position>
              <LatitudeDegrees>49.3760050646960735321044921875</LatitudeDegrees>
              <LongitudeDegrees>20.0105224549770355224609375</LongitudeDegrees>
            </Position>
            <AltitudeMeters>705</AltitudeMeters>
            <DistanceMeters>11073.3090296</DistanceMeters>
          </Trackpoint>
          <Trackpoint>
            <Time>2022-09-18T12:07:25.000Z</Time>
            <Position>
              <LatitudeDegrees>49.37599056400358676910400390625</LatitudeDegrees>
              <LongitudeDegrees>20.0104844011366367340087890625</LongitudeDegrees>
            </Position>
            <AltitudeMeters>705</AltitudeMeters>
            <DistanceMeters>11076.506223141</DistanceMeters>
          </Trackpoint>
          <Trackpoint>
            <Time>2022-09-18T12:07:26.000Z</Time>
            <Position>
              <LatitudeDegrees>49.37597262673079967498779296875</LatitudeDegrees>
              <LongitudeDegrees>20.0104709900915622711181640625</LongitudeDegrees>
            </Position>
            <AltitudeMeters>705.20001220703125</AltitudeMeters>
            <DistanceMeters>11078.726678441</DistanceMeters>
          </Trackpoint>
          <Trackpoint>
            <Time>2022-09-18T12:07:27.000Z</Time>
            <Position>
              <LatitudeDegrees>49.375935830175876617431640625</LatitudeDegrees>
              <LongitudeDegrees>20.0104458443820476531982421875</LongitudeDegrees>
            </Position>
            <AltitudeMeters>705.20001220703125</AltitudeMeters>
            <DistanceMeters>11083.208072198</DistanceMeters>
          </Trackpoint>
          <Trackpoint>
            <Time>2022-09-18T12:07:31.000Z</Time>
            <Position>
              <LatitudeDegrees>49.3758531846106052398681640625</LatitudeDegrees>
              <LongitudeDegrees>20.01042514108121395111083984375</LongitudeDegrees>
            </Position>
            <AltitudeMeters>705.5999755859375</AltitudeMeters>
            <DistanceMeters>11092.528444261</DistanceMeters>
          </Trackpoint>
          <Trackpoint>
            <Time>2022-09-18T12:07:34.000Z</Time>
            <Position>
              <LatitudeDegrees>49.3757673539221286773681640625</LatitudeDegrees>
              <LongitudeDegrees>20.010401420295238494873046875</LongitudeDegrees>
            </Position>
            <AltitudeMeters>706</AltitudeMeters>
            <DistanceMeters>11102.235133584</DistanceMeters>
          </Trackpoint>
          <Trackpoint>
            <Time>2022-09-18T12:07:36.000Z</Time>
            <Position>
              <LatitudeDegrees>49.37570356763899326324462890625</LatitudeDegrees>
              <LongitudeDegrees>20.0103749334812164306640625</LongitudeDegrees>
            </Position>
            <AltitudeMeters>706.20001220703125</AltitudeMeters>
            <DistanceMeters>11109.589734722</DistanceMeters>
          </Trackpoint>
          <Trackpoint>
            <Time>2022-09-18T12:07:43.000Z</Time>
            <Position>
              <LatitudeDegrees>49.3754431419074535369873046875</LatitudeDegrees>
              <LongitudeDegrees>20.01030444167554378509521484375</LongitudeDegrees>
            </Position>
            <AltitudeMeters>706.20001220703125</AltitudeMeters>
            <DistanceMeters>11139.02225574</DistanceMeters>
          </Trackpoint>
          <Trackpoint>
            <Time>2022-09-18T12:07:44.000Z</Time>
            <Position>
              <LatitudeDegrees>49.3754139728844165802001953125</LatitudeDegrees>
              <LongitudeDegrees>20.01030075363814830780029296875</LongitudeDegrees>
            </Position>
            <AltitudeMeters>706.20001220703125</AltitudeMeters>
            <DistanceMeters>11142.279607397</DistanceMeters>
          </Trackpoint>
          <Trackpoint>
            <Time>2022-09-18T12:07:47.000Z</Time>
            <Position>
              <LatitudeDegrees>49.37531280331313610076904296875</LatitudeDegrees>
              <LongitudeDegrees>20.01027292571961879730224609375</LongitudeDegrees>
            </Position>
            <AltitudeMeters>706.20001220703125</AltitudeMeters>
            <DistanceMeters>11153.719182032</DistanceMeters>
          </Trackpoint>
          <Trackpoint>
            <Time>2022-09-18T12:07:51.000Z</Time>
            <Position>
              <LatitudeDegrees>49.3752258829772472381591796875</LatitudeDegrees>
              <LongitudeDegrees>20.0102493725717067718505859375</LongitudeDegrees>
            </Position>
            <AltitudeMeters>706.20001220703125</AltitudeMeters>
            <DistanceMeters>11163.542848708</DistanceMeters>
          </Trackpoint>
          <Trackpoint>
            <Time>2022-09-18T12:07:54.000Z</Time>
            <Position>
              <LatitudeDegrees>49.375153966248035430908203125</LatitudeDegrees>
              <LongitudeDegrees>20.0102235563099384307861328125</LongitudeDegrees>
            </Position>
            <AltitudeMeters>706.20001220703125</AltitudeMeters>
            <DistanceMeters>11171.763071456</DistanceMeters>
          </Trackpoint>
          <Trackpoint>
            <Time>2022-09-18T12:07:57.000Z</Time>
            <Position>
              <LatitudeDegrees>49.37508448027074337005615234375</LatitudeDegrees>
              <LongitudeDegrees>20.01020570285618305206298828125</LongitudeDegrees>
            </Position>
            <AltitudeMeters>706.20001220703125</AltitudeMeters>
            <DistanceMeters>11179.604934792</DistanceMeters>
          </Trackpoint>
          <Trackpoint>
            <Time>2022-09-18T12:07:58.000Z</Time>
            <Position>
              <LatitudeDegrees>49.37506419606506824493408203125</LatitudeDegrees>
              <LongitudeDegrees>20.01018927432596683502197265625</LongitudeDegrees>
            </Position>
            <AltitudeMeters>706.20001220703125</AltitudeMeters>
            <DistanceMeters>11182.158308089</DistanceMeters>
          </Trackpoint>
          <Trackpoint>
            <Time>2022-09-18T12:08:01.000Z</Time>
            <Position>
              <LatitudeDegrees>49.37504475004971027374267578125</LatitudeDegrees>
              <LongitudeDegrees>20.01012657769024372100830078125</LongitudeDegrees>
            </Position>
            <AltitudeMeters>706.4000244140625</AltitudeMeters>
            <DistanceMeters>11187.192033797</DistanceMeters>
          </Trackpoint>
          <Trackpoint>
            <Time>2022-09-18T12:08:06.000Z</Time>
            <Position>
              <LatitudeDegrees>49.37502781860530376434326171875</LatitudeDegrees>
              <LongitudeDegrees>20.0100958161056041717529296875</LongitudeDegrees>
            </Position>
            <AltitudeMeters>707</AltitudeMeters>
            <DistanceMeters>11190.111689969</DistanceMeters>
          </Trackpoint>
          <Trackpoint>
            <Time>2022-09-18T12:08:07.000Z</Time>
            <Position>
              <LatitudeDegrees>49.37502781860530376434326171875</LatitudeDegrees>
              <LongitudeDegrees>20.0100958161056041717529296875</LongitudeDegrees>
            </Position>
            <AltitudeMeters>707</AltitudeMeters>
            <DistanceMeters>11190.111689969</DistanceMeters>
          </Trackpoint>
          <Trackpoint>
            <Time>2022-09-18T12:08:09.000Z</Time>
            <Position>
              <LatitudeDegrees>49.37502781860530376434326171875</LatitudeDegrees>
              <LongitudeDegrees>20.0100958161056041717529296875</LongitudeDegrees>
            </Position>
            <AltitudeMeters>707</AltitudeMeters>
            <DistanceMeters>11190.111689969</DistanceMeters>
          </Trackpoint>
          <Trackpoint>
            <Time>2022-09-18T12:08:19.000Z</Time>
            <Position>
              <LatitudeDegrees>49.37502781860530376434326171875</LatitudeDegrees>
              <LongitudeDegrees>20.0100958161056041717529296875</LongitudeDegrees>
            </Position>
            <AltitudeMeters>707</AltitudeMeters>
            <DistanceMeters>11190.111689969</DistanceMeters>
          </Trackpoint>
          <Trackpoint>
            <Time>2022-09-18T12:08:29.000Z</Time>
            <Position>
              <LatitudeDegrees>49.37502781860530376434326171875</LatitudeDegrees>
              <LongitudeDegrees>20.0100958161056041717529296875</LongitudeDegrees>
            </Position>
            <AltitudeMeters>707.20001220703125</AltitudeMeters>
            <DistanceMeters>11190.111689969</DistanceMeters>
          </Trackpoint>
          <Trackpoint>
            <Time>2022-09-18T12:08:31.000Z</Time>
            <Position>
              <LatitudeDegrees>49.37502781860530376434326171875</LatitudeDegrees>
              <LongitudeDegrees>20.0100958161056041717529296875</LongitudeDegrees>
            </Position>
            <AltitudeMeters>707</AltitudeMeters>
            <DistanceMeters>11190.111689969</DistanceMeters>
          </Trackpoint>
          <Trackpoint>
            <Time>2022-09-18T12:08:37.000Z</Time>
            <Position>
              <LatitudeDegrees>49.37502781860530376434326171875</LatitudeDegrees>
              <LongitudeDegrees>20.0100958161056041717529296875</LongitudeDegrees>
            </Position>
            <AltitudeMeters>707</AltitudeMeters>
            <DistanceMeters>11190.111689969</DistanceMeters>
          </Trackpoint>
          <Trackpoint>
            <Time>2022-09-18T12:08:52.000Z</Time>
            <Position>
              <LatitudeDegrees>49.37502781860530376434326171875</LatitudeDegrees>
              <LongitudeDegrees>20.0100958161056041717529296875</LongitudeDegrees>
            </Position>
            <AltitudeMeters>707.20001220703125</AltitudeMeters>
            <DistanceMeters>11190.111689969</DistanceMeters>
          </Trackpoint>
          <Trackpoint>
            <Time>2022-09-18T12:09:02.000Z</Time>
            <Position>
              <LatitudeDegrees>49.3750485219061374664306640625</LatitudeDegrees>
              <LongitudeDegrees>20.01015356741845607757568359375</LongitudeDegrees>
            </Position>
            <AltitudeMeters>706.79998779296875</AltitudeMeters>
            <DistanceMeters>11194.889559081</DistanceMeters>
          </Trackpoint>
          <Trackpoint>
            <Time>2022-09-18T12:09:03.000Z</Time>
            <Position>
              <LatitudeDegrees>49.37505966983735561370849609375</LatitudeDegrees>
              <LongitudeDegrees>20.0101722590625286102294921875</LongitudeDegrees>
            </Position>
            <AltitudeMeters>706.79998779296875</AltitudeMeters>
            <DistanceMeters>11196.727288275</DistanceMeters>
          </Trackpoint>
          <Trackpoint>
            <Time>2022-09-18T12:09:05.000Z</Time>
            <Position>
              <LatitudeDegrees>49.37509135343134403228759765625</LatitudeDegrees>
              <LongitudeDegrees>20.010198242962360382080078125</LongitudeDegrees>
            </Position>
            <AltitudeMeters>706.5999755859375</AltitudeMeters>
            <DistanceMeters>11200.725192139</DistanceMeters>
          </Trackpoint>
          <Trackpoint>
            <Time>2022-09-18T12:09:07.000Z</Time>
            <Position>
              <LatitudeDegrees>49.37513611279428005218505859375</LatitudeDegrees>
              <LongitudeDegrees>20.0102138333022594451904296875</LongitudeDegrees>
            </Position>
            <AltitudeMeters>706.5999755859375</AltitudeMeters>
            <DistanceMeters>11205.831938732</DistanceMeters>
          </Trackpoint>
          <Trackpoint>
            <Time>2022-09-18T12:09:08.000Z</Time>
            <Position>
              <LatitudeDegrees>49.375166706740856170654296875</LatitudeDegrees>
              <LongitudeDegrees>20.010229758918285369873046875</LongitudeDegrees>
            </Position>
            <AltitudeMeters>706.5999755859375</AltitudeMeters>
            <DistanceMeters>11209.426662559</DistanceMeters>
          </Trackpoint>
          <Trackpoint>
            <Time>2022-09-18T12:09:13.000Z</Time>
            <Position>
              <LatitudeDegrees>49.375322274863719940185546875</LatitudeDegrees>
              <LongitudeDegrees>20.01026001758873462677001953125</LongitudeDegrees>
            </Position>
            <AltitudeMeters>706.4000244140625</AltitudeMeters>
            <DistanceMeters>11226.879787456</DistanceMeters>
          </Trackpoint>
          <Trackpoint>
            <Time>2022-09-18T12:09:14.000Z</Time>
            <Position>
              <LatitudeDegrees>49.3753556348383426666259765625</LatitudeDegrees>
              <LongitudeDegrees>20.01026286743581295013427734375</LongitudeDegrees>
            </Position>
            <AltitudeMeters>706.4000244140625</AltitudeMeters>
            <DistanceMeters>11230.596777766</DistanceMeters>
          </Trackpoint>
          <Trackpoint>
            <Time>2022-09-18T12:09:21.000Z</Time>
            <Position>
              <LatitudeDegrees>49.37558236531913280487060546875</LatitudeDegrees>
              <LongitudeDegrees>20.01031433232128620147705078125</LongitudeDegrees>
            </Position>
            <AltitudeMeters>706.20001220703125</AltitudeMeters>
            <DistanceMeters>11256.106451006</DistanceMeters>
          </Trackpoint>
          <Trackpoint>
            <Time>2022-09-18T12:09:26.000Z</Time>
            <Position>
              <LatitudeDegrees>49.37573022209107875823974609375</LatitudeDegrees>
              <LongitudeDegrees>20.010326318442821502685546875</LongitudeDegrees>
            </Position>
            <AltitudeMeters>706.20001220703125</AltitudeMeters>
            <DistanceMeters>11272.585847809</DistanceMeters>
          </Trackpoint>
          <Trackpoint>
            <Time>2022-09-18T12:09:31.000Z</Time>
            <Position>
              <LatitudeDegrees>49.3758966028690338134765625</LatitudeDegrees>
              <LongitudeDegrees>20.0103663839399814605712890625</LongitudeDegrees>
            </Position>
            <AltitudeMeters>706</AltitudeMeters>
            <DistanceMeters>11291.330936088</DistanceMeters>
          </Trackpoint>
          <Trackpoint>
            <Time>2022-09-18T12:09:38.000Z</Time>
            <Position>
              <LatitudeDegrees>49.37603473663330078125</LatitudeDegrees>
              <LongitudeDegrees>20.01039848662912845611572265625</LongitudeDegrees>
            </Position>
            <AltitudeMeters>706</AltitudeMeters>
            <DistanceMeters>11306.880512509</DistanceMeters>
          </Trackpoint>
          <Trackpoint>
            <Time>2022-09-18T12:09:43.000Z</Time>
            <Position>
              <LatitudeDegrees>49.37607522122561931610107421875</LatitudeDegrees>
              <LongitudeDegrees>20.01042581163346767425537109375</LongitudeDegrees>
            </Position>
            <AltitudeMeters>706</AltitudeMeters>
            <DistanceMeters>11311.801758796</DistanceMeters>
          </Trackpoint>
          <Trackpoint>
            <Time>2022-09-18T12:09:44.000Z</Time>
            <Position>
              <LatitudeDegrees>49.3760784901678562164306640625</LatitudeDegrees>
              <LongitudeDegrees>20.01044576056301593780517578125</LongitudeDegrees>
            </Position>
            <AltitudeMeters>706</AltitudeMeters>
            <DistanceMeters>11313.295220842</DistanceMeters>
          </Trackpoint>
          <Trackpoint>
            <Time>2022-09-18T12:09:46.000Z</Time>
            <Position>
              <LatitudeDegrees>49.37607823871076107025146484375</LatitudeDegrees>
              <LongitudeDegrees>20.01049823127686977386474609375</LongitudeDegrees>
            </Position>
            <AltitudeMeters>705.79998779296875</AltitudeMeters>
            <DistanceMeters>11317.098664343</DistanceMeters>
          </Trackpoint>
          <Trackpoint>
            <Time>2022-09-18T12:09:49.000Z</Time>
            <Position>
              <LatitudeDegrees>49.37603951431810855865478515625</LatitudeDegrees>
              <LongitudeDegrees>20.01058238558471202850341796875</LongitudeDegrees>
            </Position>
            <AltitudeMeters>705.79998779296875</AltitudeMeters>
            <DistanceMeters>11324.566579187</DistanceMeters>
          </Trackpoint>
          <Trackpoint>
            <Time>2022-09-18T12:09:50.000Z</Time>
            <Position>
              <LatitudeDegrees>49.3760292045772075653076171875</LatitudeDegrees>
              <LongitudeDegrees>20.0106228701770305633544921875</LongitudeDegrees>
            </Position>
            <AltitudeMeters>705.79998779296875</AltitudeMeters>
            <DistanceMeters>11327.716825846</DistanceMeters>
          </Trackpoint>
          <Trackpoint>
            <Time>2022-09-18T12:09:52.000Z</Time>
            <Position>
              <LatitudeDegrees>49.37601855956017971038818359375</LatitudeDegrees>
              <LongitudeDegrees>20.01072152517735958099365234375</LongitudeDegrees>
            </Position>
            <AltitudeMeters>705.20001220703125</AltitudeMeters>
            <DistanceMeters>11334.962573871</DistanceMeters>
          </Trackpoint>
          <Trackpoint>
            <Time>2022-09-18T12:09:54.000Z</Time>
            <Position>
              <LatitudeDegrees>49.3760038912296295166015625</LatitudeDegrees>
              <LongitudeDegrees>20.01082613132894039154052734375</LongitudeDegrees>
            </Position>
            <AltitudeMeters>704.79998779296875</AltitudeMeters>
            <DistanceMeters>11342.716427684</DistanceMeters>
          </Trackpoint>
          <Trackpoint>
            <Time>2022-09-18T12:10:01.000Z</Time>
            <Position>
              <LatitudeDegrees>49.3759919889271259307861328125</LatitudeDegrees>
              <LongitudeDegrees>20.011212788522243499755859375</LongitudeDegrees>
            </Position>
            <AltitudeMeters>704.20001220703125</AltitudeMeters>
            <DistanceMeters>11370.767824465</DistanceMeters>
          </Trackpoint>
          <Trackpoint>
            <Time>2022-09-18T12:10:02.000Z</Time>
            <Position>
              <LatitudeDegrees>49.3759879656136035919189453125</LatitudeDegrees>
              <LongitudeDegrees>20.011271126568317413330078125</LongitudeDegrees>
            </Position>
            <AltitudeMeters>704.20001220703125</AltitudeMeters>
            <DistanceMeters>11375.019672656</DistanceMeters>
          </Trackpoint>
          <Trackpoint>
            <Time>2022-09-18T12:10:06.000Z</Time>
            <Position>
              <LatitudeDegrees>49.37597681768238544464111328125</LatitudeDegrees>
              <LongitudeDegrees>20.01149567775428295135498046875</LongitudeDegrees>
            </Position>
            <AltitudeMeters>704.20001220703125</AltitudeMeters>
            <DistanceMeters>11391.339663609</DistanceMeters>
          </Trackpoint>
          <Trackpoint>
            <Time>2022-09-18T12:10:09.000Z</Time>
            <Position>
              <LatitudeDegrees>49.37596759758889675140380859375</LatitudeDegrees>
              <LongitudeDegrees>20.01166566275060176849365234375</LongitudeDegrees>
            </Position>
            <AltitudeMeters>704</AltitudeMeters>
            <DistanceMeters>11403.700809329</DistanceMeters>
          </Trackpoint>
          <Trackpoint>
            <Time>2022-09-18T12:10:15.000Z</Time>
            <Position>
              <LatitudeDegrees>49.3759564496576786041259765625</LatitudeDegrees>
              <LongitudeDegrees>20.01194226555526256561279296875</LongitudeDegrees>
            </Position>
            <AltitudeMeters>703.5999755859375</AltitudeMeters>
            <DistanceMeters>11423.784070878</DistanceMeters>
          </Trackpoint>
          <Trackpoint>
            <Time>2022-09-18T12:10:20.000Z</Time>
            <Position>
              <LatitudeDegrees>49.37591361813247203826904296875</LatitudeDegrees>
              <LongitudeDegrees>20.01205123029649257659912109375</LongitudeDegrees>
            </Position>
            <AltitudeMeters>703.20001220703125</AltitudeMeters>
            <DistanceMeters>11433.008517221</DistanceMeters>
          </Trackpoint>
          <Trackpoint>
            <Time>2022-09-18T12:10:21.000Z</Time>
            <Position>
              <LatitudeDegrees>49.37591127119958400726318359375</LatitudeDegrees>
              <LongitudeDegrees>20.01205642707645893096923828125</LongitudeDegrees>
            </Position>
            <AltitudeMeters>703.20001220703125</AltitudeMeters>
            <DistanceMeters>11433.464249333</DistanceMeters>
          </Trackpoint>
          <Trackpoint>
            <Time>2022-09-18T12:10:24.000Z</Time>
            <Position>
              <LatitudeDegrees>49.37591127119958400726318359375</LatitudeDegrees>
              <LongitudeDegrees>20.01205642707645893096923828125</LongitudeDegrees>
            </Position>
            <AltitudeMeters>703.20001220703125</AltitudeMeters>
            <DistanceMeters>11433.464249333</DistanceMeters>
          </Trackpoint>
          <Trackpoint>
            <Time>2022-09-18T12:10:25.000Z</Time>
            <Position>
              <LatitudeDegrees>49.37591127119958400726318359375</LatitudeDegrees>
              <LongitudeDegrees>20.01205642707645893096923828125</LongitudeDegrees>
            </Position>
            <AltitudeMeters>703.20001220703125</AltitudeMeters>
            <DistanceMeters>11433.464249333</DistanceMeters>
          </Trackpoint>
          <Trackpoint>
            <Time>2022-09-18T12:10:32.000Z</Time>
            <Position>
              <LatitudeDegrees>49.37591127119958400726318359375</LatitudeDegrees>
              <LongitudeDegrees>20.01205642707645893096923828125</LongitudeDegrees>
            </Position>
            <AltitudeMeters>703.20001220703125</AltitudeMeters>
            <DistanceMeters>11433.464249333</DistanceMeters>
          </Trackpoint>
          <Trackpoint>
            <Time>2022-09-18T12:10:36.000Z</Time>
            <Position>
              <LatitudeDegrees>49.37591127119958400726318359375</LatitudeDegrees>
              <LongitudeDegrees>20.01205642707645893096923828125</LongitudeDegrees>
            </Position>
            <AltitudeMeters>703.4000244140625</AltitudeMeters>
            <DistanceMeters>11433.464249333</DistanceMeters>
          </Trackpoint>
          <Trackpoint>
            <Time>2022-09-18T12:10:46.000Z</Time>
            <Position>
              <LatitudeDegrees>49.37591127119958400726318359375</LatitudeDegrees>
              <LongitudeDegrees>20.01205642707645893096923828125</LongitudeDegrees>
            </Position>
            <AltitudeMeters>703.20001220703125</AltitudeMeters>
            <DistanceMeters>11433.464249333</DistanceMeters>
          </Trackpoint>
          <Trackpoint>
            <Time>2022-09-18T12:10:49.000Z</Time>
            <Position>
              <LatitudeDegrees>49.3759048171341419219970703125</LatitudeDegrees>
              <LongitudeDegrees>20.012082494795322418212890625</LongitudeDegrees>
            </Position>
            <AltitudeMeters>703.4000244140625</AltitudeMeters>
            <DistanceMeters>11435.484544993</DistanceMeters>
          </Trackpoint>
          <Trackpoint>
            <Time>2022-09-18T12:10:50.000Z</Time>
            <Position>
              <LatitudeDegrees>49.37589333392679691314697265625</LatitudeDegrees>
              <LongitudeDegrees>20.01209984533488750457763671875</LongitudeDegrees>
            </Position>
            <AltitudeMeters>703.4000244140625</AltitudeMeters>
            <DistanceMeters>11437.277505454</DistanceMeters>
          </Trackpoint>
          <Trackpoint>
            <Time>2022-09-18T12:10:53.000Z</Time>
            <Position>
              <LatitudeDegrees>49.37582091428339481353759765625</LatitudeDegrees>
              <LongitudeDegrees>20.01214996911585330963134765625</LongitudeDegrees>
            </Position>
            <AltitudeMeters>703.4000244140625</AltitudeMeters>
            <DistanceMeters>11446.119076116</DistanceMeters>
          </Trackpoint>
          <Trackpoint>
            <Time>2022-09-18T12:10:59.000Z</Time>
            <Position>
              <LatitudeDegrees>49.37564388848841190338134765625</LatitudeDegrees>
              <LongitudeDegrees>20.01221920363605022430419921875</LongitudeDegrees>
            </Position>
            <AltitudeMeters>703.20001220703125</AltitudeMeters>
            <DistanceMeters>11466.45124028</DistanceMeters>
          </Trackpoint>
          <Trackpoint>
            <Time>2022-09-18T12:11:05.000Z</Time>
            <Position>
              <LatitudeDegrees>49.375470466911792755126953125</LatitudeDegrees>
              <LongitudeDegrees>20.0122560001909732818603515625</LongitudeDegrees>
            </Position>
            <AltitudeMeters>702.4000244140625</AltitudeMeters>
            <DistanceMeters>11485.93658334</DistanceMeters>
          </Trackpoint>
          <Trackpoint>
            <Time>2022-09-18T12:11:11.000Z</Time>
            <Position>
              <LatitudeDegrees>49.37524289824068546295166015625</LatitudeDegrees>
              <LongitudeDegrees>20.01217268407344818115234375</LongitudeDegrees>
            </Position>
            <AltitudeMeters>702.79998779296875</AltitudeMeters>
            <DistanceMeters>11511.975116894</DistanceMeters>
          </Trackpoint>
          <Trackpoint>
            <Time>2022-09-18T12:11:17.000Z</Time>
            <Position>
              <LatitudeDegrees>49.37508297152817249298095703125</LatitudeDegrees>
              <LongitudeDegrees>20.0120498053729534149169921875</LongitudeDegrees>
            </Position>
            <AltitudeMeters>703.20001220703125</AltitudeMeters>
            <DistanceMeters>11531.878393597</DistanceMeters>
          </Trackpoint>
          <Trackpoint>
            <Time>2022-09-18T12:11:22.000Z</Time>
            <Position>
              <LatitudeDegrees>49.37497383914887905120849609375</LatitudeDegrees>
              <LongitudeDegrees>20.011962465941905975341796875</LongitudeDegrees>
            </Position>
            <AltitudeMeters>703.5999755859375</AltitudeMeters>
            <DistanceMeters>11545.574772975</DistanceMeters>
          </Trackpoint>
          <Trackpoint>
            <Time>2022-09-18T12:11:27.000Z</Time>
            <Position>
              <LatitudeDegrees>49.374937713146209716796875</LatitudeDegrees>
              <LongitudeDegrees>20.011936314404010772705078125</LongitudeDegrees>
            </Position>
            <AltitudeMeters>703.79998779296875</AltitudeMeters>
            <DistanceMeters>11550.019748482</DistanceMeters>
          </Trackpoint>
          <Trackpoint>
            <Time>2022-09-18T12:11:33.000Z</Time>
            <Position>
              <LatitudeDegrees>49.3749207817018032073974609375</LatitudeDegrees>
              <LongitudeDegrees>20.01192080788314342498779296875</LongitudeDegrees>
            </Position>
            <AltitudeMeters>703.79998779296875</AltitudeMeters>
            <DistanceMeters>11552.213610543</DistanceMeters>
          </Trackpoint>
          <Trackpoint>
            <Time>2022-09-18T12:11:39.000Z</Time>
            <Position>
              <LatitudeDegrees>49.3748104758560657501220703125</LatitudeDegrees>
              <LongitudeDegrees>20.01188459806144237518310546875</LongitudeDegrees>
            </Position>
            <AltitudeMeters>703.79998779296875</AltitudeMeters>
            <DistanceMeters>11564.768649946</DistanceMeters>
          </Trackpoint>
          <Trackpoint>
            <Time>2022-09-18T12:11:40.000Z</Time>
            <Position>
              <LatitudeDegrees>49.374785833060741424560546875</LatitudeDegrees>
              <LongitudeDegrees>20.01188845373690128326416015625</LongitudeDegrees>
            </Position>
            <AltitudeMeters>703.79998779296875</AltitudeMeters>
            <DistanceMeters>11567.526062568</DistanceMeters>
          </Trackpoint>
          <Trackpoint>
            <Time>2022-09-18T12:11:43.000Z</Time>
            <Position>
              <LatitudeDegrees>49.3747155927121639251708984375</LatitudeDegrees>
              <LongitudeDegrees>20.01191946677863597869873046875</LongitudeDegrees>
            </Position>
            <AltitudeMeters>704.4000244140625</AltitudeMeters>
            <DistanceMeters>11575.66070455</DistanceMeters>
          </Trackpoint>
          <Trackpoint>
            <Time>2022-09-18T12:11:45.000Z</Time>
            <Position>
              <LatitudeDegrees>49.37468734569847583770751953125</LatitudeDegrees>
              <LongitudeDegrees>20.01195282675325870513916015625</LongitudeDegrees>
            </Position>
            <AltitudeMeters>704.79998779296875</AltitudeMeters>
            <DistanceMeters>11579.626860518</DistanceMeters>
          </Trackpoint>
          <Trackpoint>
            <Time>2022-09-18T12:11:46.000Z</Time>
            <Position>
              <LatitudeDegrees>49.37467862851917743682861328125</LatitudeDegrees>
              <LongitudeDegrees>20.01197998411953449249267578125</LongitudeDegrees>
            </Position>
            <AltitudeMeters>704.79998779296875</AltitudeMeters>
            <DistanceMeters>11581.82072258</DistanceMeters>
          </Trackpoint>
          <Trackpoint>
            <Time>2022-09-18T12:11:48.000Z</Time>
            <Position>
              <LatitudeDegrees>49.37466077506542205810546875</LatitudeDegrees>
              <LongitudeDegrees>20.01201988197863101959228515625</LongitudeDegrees>
            </Position>
            <AltitudeMeters>705.4000244140625</AltitudeMeters>
            <DistanceMeters>11585.330284414</DistanceMeters>
          </Trackpoint>
          <Trackpoint>
            <Time>2022-09-18T12:11:51.000Z</Time>
            <Position>
              <LatitudeDegrees>49.374645017087459564208984375</LatitudeDegrees>
              <LongitudeDegrees>20.0120876915752887725830078125</LongitudeDegrees>
            </Position>
            <AltitudeMeters>706.20001220703125</AltitudeMeters>
            <DistanceMeters>11590.547242379</DistanceMeters>
          </Trackpoint>
          <Trackpoint>
            <Time>2022-09-18T12:11:52.000Z</Time>
            <Position>
              <LatitudeDegrees>49.3746368028223514556884765625</LatitudeDegrees>
              <LongitudeDegrees>20.0121121667325496673583984375</LongitudeDegrees>
            </Position>
            <AltitudeMeters>706.4000244140625</AltitudeMeters>
            <DistanceMeters>11592.54280338</DistanceMeters>
          </Trackpoint>
          <Trackpoint>
            <Time>2022-09-18T12:11:53.000Z</Time>
            <Position>
              <LatitudeDegrees>49.37463018111884593963623046875</LatitudeDegrees>
              <LongitudeDegrees>20.01212968491017818450927734375</LongitudeDegrees>
            </Position>
            <AltitudeMeters>706.4000244140625</AltitudeMeters>
            <DistanceMeters>11594.011880734</DistanceMeters>
          </Trackpoint>
          <Trackpoint>
            <Time>2022-09-18T12:11:54.000Z</Time>
            <Position>
              <LatitudeDegrees>49.37461928464472293853759765625</LatitudeDegrees>
              <LongitudeDegrees>20.01215550117194652557373046875</LongitudeDegrees>
            </Position>
            <AltitudeMeters>706.5999755859375</AltitudeMeters>
            <DistanceMeters>11596.240454727</DistanceMeters>
          </Trackpoint>
          <Trackpoint>
            <Time>2022-09-18T12:12:00.000Z</Time>
            <Position>
              <LatitudeDegrees>49.3745389021933078765869140625</LatitudeDegrees>
              <LongitudeDegrees>20.01234970986843109130859375</LongitudeDegrees>
            </Position>
            <AltitudeMeters>706.79998779296875</AltitudeMeters>
            <DistanceMeters>11612.917575416</DistanceMeters>
          </Trackpoint>
          <Trackpoint>
            <Time>2022-09-18T12:12:08.000Z</Time>
            <Position>
              <LatitudeDegrees>49.3744497187435626983642578125</LatitudeDegrees>
              <LongitudeDegrees>20.01257074065506458282470703125</LongitudeDegrees>
            </Position>
            <AltitudeMeters>706.4000244140625</AltitudeMeters>
            <DistanceMeters>11631.761638834</DistanceMeters>
          </Trackpoint>
          <Trackpoint>
            <Time>2022-09-18T12:12:14.000Z</Time>
            <Position>
              <LatitudeDegrees>49.374377466738224029541015625</LatitudeDegrees>
              <LongitudeDegrees>20.0126536376774311065673828125</LongitudeDegrees>
            </Position>
            <AltitudeMeters>706</AltitudeMeters>
            <DistanceMeters>11641.799447009</DistanceMeters>
          </Trackpoint>
          <Trackpoint>
            <Time>2022-09-18T12:12:20.000Z</Time>
            <Position>
              <LatitudeDegrees>49.37425752170383930206298828125</LatitudeDegrees>
              <LongitudeDegrees>20.0126253068447113037109375</LongitudeDegrees>
            </Position>
            <AltitudeMeters>705.4000244140625</AltitudeMeters>
            <DistanceMeters>11655.306617863</DistanceMeters>
          </Trackpoint>
          <Trackpoint>
            <Time>2022-09-18T12:12:21.000Z</Time>
            <Position>
              <LatitudeDegrees>49.374237991869449615478515625</LatitudeDegrees>
              <LongitudeDegrees>20.0126070342957973480224609375</LongitudeDegrees>
            </Position>
            <AltitudeMeters>705.20001220703125</AltitudeMeters>
            <DistanceMeters>11657.852908279</DistanceMeters>
          </Trackpoint>
          <Trackpoint>
            <Time>2022-09-18T12:12:27.000Z</Time>
            <Position>
              <LatitudeDegrees>49.37413095496594905853271484375</LatitudeDegrees>
              <LongitudeDegrees>20.0124645419418811798095703125</LongitudeDegrees>
            </Position>
            <AltitudeMeters>704.4000244140625</AltitudeMeters>
            <DistanceMeters>11673.619040154</DistanceMeters>
          </Trackpoint>
          <Trackpoint>
            <Time>2022-09-18T12:12:33.000Z</Time>
            <Position>
              <LatitudeDegrees>49.374063648283481597900390625</LatitudeDegrees>
              <LongitudeDegrees>20.0122469477355480194091796875</LongitudeDegrees>
            </Position>
            <AltitudeMeters>703.4000244140625</AltitudeMeters>
            <DistanceMeters>11691.077338187</DistanceMeters>
          </Trackpoint>
          <Trackpoint>
            <Time>2022-09-18T12:12:40.000Z</Time>
            <Position>
              <LatitudeDegrees>49.373931549489498138427734375</LatitudeDegrees>
              <LongitudeDegrees>20.01193438656628131866455078125</LongitudeDegrees>
            </Position>
            <AltitudeMeters>703.4000244140625</AltitudeMeters>
            <DistanceMeters>11718.08231872</DistanceMeters>
          </Trackpoint>
          <Trackpoint>
            <Time>2022-09-18T12:12:44.000Z</Time>
            <Position>
              <LatitudeDegrees>49.37385435216128826141357421875</LatitudeDegrees>
              <LongitudeDegrees>20.0118005275726318359375</LongitudeDegrees>
            </Position>
            <AltitudeMeters>703.79998779296875</AltitudeMeters>
            <DistanceMeters>11731.041537898</DistanceMeters>
          </Trackpoint>
          <Trackpoint>
            <Time>2022-09-18T12:12:46.000Z</Time>
            <Position>
              <LatitudeDegrees>49.37381847761571407318115234375</LatitudeDegrees>
              <LongitudeDegrees>20.0117450393736362457275390625</LongitudeDegrees>
            </Position>
            <AltitudeMeters>704</AltitudeMeters>
            <DistanceMeters>11736.708190511</DistanceMeters>
          </Trackpoint>
          <Trackpoint>
            <Time>2022-09-18T12:12:51.000Z</Time>
            <Position>
              <LatitudeDegrees>49.37372007407248020172119140625</LatitudeDegrees>
              <LongitudeDegrees>20.011595003306865692138671875</LongitudeDegrees>
            </Position>
            <AltitudeMeters>704.5999755859375</AltitudeMeters>
            <DistanceMeters>11752.141184267</DistanceMeters>
          </Trackpoint>
          <Trackpoint>
            <Time>2022-09-18T12:12:52.000Z</Time>
            <Position>
              <LatitudeDegrees>49.3737043999135494232177734375</LatitudeDegrees>
              <LongitudeDegrees>20.0115685164928436279296875</LongitudeDegrees>
            </Position>
            <AltitudeMeters>704.5999755859375</AltitudeMeters>
            <DistanceMeters>11754.7349088</DistanceMeters>
          </Trackpoint>
          <Trackpoint>
            <Time>2022-09-18T12:12:56.000Z</Time>
            <Position>
              <LatitudeDegrees>49.37363960780203342437744140625</LatitudeDegrees>
              <LongitudeDegrees>20.01145795919001102447509765625</LongitudeDegrees>
            </Position>
            <AltitudeMeters>704.79998779296875</AltitudeMeters>
            <DistanceMeters>11765.514473897</DistanceMeters>
          </Trackpoint>
          <Trackpoint>
            <Time>2022-09-18T12:12:58.000Z</Time>
            <Position>
              <LatitudeDegrees>49.37361613847315311431884765625</LatitudeDegrees>
              <LongitudeDegrees>20.0113909877836704254150390625</LongitudeDegrees>
            </Position>
            <AltitudeMeters>704.79998779296875</AltitudeMeters>
            <DistanceMeters>11771.026023331</DistanceMeters>
          </Trackpoint>
          <Trackpoint>
            <Time>2022-09-18T12:13:01.000Z</Time>
            <Position>
              <LatitudeDegrees>49.373568110167980194091796875</LatitudeDegrees>
              <LongitudeDegrees>20.011284537613391876220703125</LongitudeDegrees>
            </Position>
            <AltitudeMeters>704.79998779296875</AltitudeMeters>
            <DistanceMeters>11780.411565175</DistanceMeters>
          </Trackpoint>
          <Trackpoint>
            <Time>2022-09-18T12:13:05.000Z</Time>
            <Position>
              <LatitudeDegrees>49.37350415624678134918212890625</LatitudeDegrees>
              <LongitudeDegrees>20.01114615239202976226806640625</LongitudeDegrees>
            </Position>
            <AltitudeMeters>704.79998779296875</AltitudeMeters>
            <DistanceMeters>11792.710092747</DistanceMeters>
          </Trackpoint>
          <Trackpoint>
            <Time>2022-09-18T12:13:09.000Z</Time>
            <Position>
              <LatitudeDegrees>49.373428635299205780029296875</LatitudeDegrees>
              <LongitudeDegrees>20.01099779270589351654052734375</LongitudeDegrees>
            </Position>
            <AltitudeMeters>705.20001220703125</AltitudeMeters>
            <DistanceMeters>11806.357927257</DistanceMeters>
          </Trackpoint>
          <Trackpoint>
            <Time>2022-09-18T12:13:12.000Z</Time>
            <Position>
              <LatitudeDegrees>49.3733818642795085906982421875</LatitudeDegrees>
              <LongitudeDegrees>20.010893605649471282958984375</LongitudeDegrees>
            </Position>
            <AltitudeMeters>705.20001220703125</AltitudeMeters>
            <DistanceMeters>11815.528866794</DistanceMeters>
          </Trackpoint>
          <Trackpoint>
            <Time>2022-09-18T12:13:18.000Z</Time>
            <Position>
              <LatitudeDegrees>49.37326929531991481781005859375</LatitudeDegrees>
              <LongitudeDegrees>20.01078221015632152557373046875</LongitudeDegrees>
            </Position>
            <AltitudeMeters>705.20001220703125</AltitudeMeters>
            <DistanceMeters>11830.433527495</DistanceMeters>
          </Trackpoint>
          <Trackpoint>
            <Time>2022-09-18T12:13:24.000Z</Time>
            <Position>
              <LatitudeDegrees>49.37320542521774768829345703125</LatitudeDegrees>
              <LongitudeDegrees>20.010642148554325103759765625</LongitudeDegrees>
            </Position>
            <AltitudeMeters>705.20001220703125</AltitudeMeters>
            <DistanceMeters>11842.825681464</DistanceMeters>
          </Trackpoint>
          <Trackpoint>
            <Time>2022-09-18T12:13:25.000Z</Time>
            <Position>
              <LatitudeDegrees>49.373188577592372894287109375</LatitudeDegrees>
              <LongitudeDegrees>20.01063200645148754119873046875</LongitudeDegrees>
            </Position>
            <AltitudeMeters>705.4000244140625</AltitudeMeters>
            <DistanceMeters>11844.837017897</DistanceMeters>
          </Trackpoint>
          <Trackpoint>
            <Time>2022-09-18T12:13:26.000Z</Time>
            <Position>
              <LatitudeDegrees>49.373171813786029815673828125</LatitudeDegrees>
              <LongitudeDegrees>20.0106225349009037017822265625</LongitudeDegrees>
            </Position>
            <AltitudeMeters>705.4000244140625</AltitudeMeters>
            <DistanceMeters>11846.825779693</DistanceMeters>
          </Trackpoint>
          <Trackpoint>
            <Time>2022-09-18T12:13:28.000Z</Time>
            <Position>
              <LatitudeDegrees>49.37314038164913654327392578125</LatitudeDegrees>
              <LongitudeDegrees>20.0105869956314563751220703125</LongitudeDegrees>
            </Position>
            <AltitudeMeters>705.4000244140625</AltitudeMeters>
            <DistanceMeters>11851.169030744</DistanceMeters>
          </Trackpoint>
          <Trackpoint>
            <Time>2022-09-18T12:13:32.000Z</Time>
            <Position>
              <LatitudeDegrees>49.37308573164045810699462890625</LatitudeDegrees>
              <LongitudeDegrees>20.01048289239406585693359375</LongitudeDegrees>
            </Position>
            <AltitudeMeters>704.79998779296875</AltitudeMeters>
            <DistanceMeters>11860.859892162</DistanceMeters>
          </Trackpoint>
          <Trackpoint>
            <Time>2022-09-18T12:13:35.000Z</Time>
            <Position>
              <LatitudeDegrees>49.37304742634296417236328125</LatitudeDegrees>
              <LongitudeDegrees>20.01039261929690837860107421875</LongitudeDegrees>
            </Position>
            <AltitudeMeters>704.4000244140625</AltitudeMeters>
            <DistanceMeters>11868.668289959</DistanceMeters>
          </Trackpoint>
          <Trackpoint>
            <Time>2022-09-18T12:13:39.000Z</Time>
            <Position>
              <LatitudeDegrees>49.37299269251525402069091796875</LatitudeDegrees>
              <LongitudeDegrees>20.01030963845551013946533203125</LongitudeDegrees>
            </Position>
            <AltitudeMeters>705.4000244140625</AltitudeMeters>
            <DistanceMeters>11877.228082028</DistanceMeters>
          </Trackpoint>
          <Trackpoint>
            <Time>2022-09-18T12:13:40.000Z</Time>
            <Position>
              <LatitudeDegrees>49.3729768507182598114013671875</LatitudeDegrees>
              <LongitudeDegrees>20.010304860770702362060546875</LongitudeDegrees>
            </Position>
            <AltitudeMeters>705.5999755859375</AltitudeMeters>
            <DistanceMeters>11879.023558926</DistanceMeters>
          </Trackpoint>
          <Trackpoint>
            <Time>2022-09-18T12:13:43.000Z</Time>
            <Position>
              <LatitudeDegrees>49.3729275651276111602783203125</LatitudeDegrees>
              <LongitudeDegrees>20.01025850884616374969482421875</LongitudeDegrees>
            </Position>
            <AltitudeMeters>706</AltitudeMeters>
            <DistanceMeters>11885.455962074</DistanceMeters>
          </Trackpoint>
          <Trackpoint>
            <Time>2022-09-18T12:13:47.000Z</Time>
            <Position>
              <LatitudeDegrees>49.37282471917569637298583984375</LatitudeDegrees>
              <LongitudeDegrees>20.01015876419842243194580078125</LongitudeDegrees>
            </Position>
            <AltitudeMeters>705.79998779296875</AltitudeMeters>
            <DistanceMeters>11898.994517819</DistanceMeters>
          </Trackpoint>
          <Trackpoint>
            <Time>2022-09-18T12:13:53.000Z</Time>
            <Position>
              <LatitudeDegrees>49.3727250583469867706298828125</LatitudeDegrees>
              <LongitudeDegrees>20.01002683304250240325927734375</LongitudeDegrees>
            </Position>
            <AltitudeMeters>705.5999755859375</AltitudeMeters>
            <DistanceMeters>11913.639118037</DistanceMeters>
          </Trackpoint>
          <Trackpoint>
            <Time>2022-09-18T12:13:56.000Z</Time>
            <Position>
              <LatitudeDegrees>49.37267619185149669647216796875</LatitudeDegrees>
              <LongitudeDegrees>20.0100220553576946258544921875</LongitudeDegrees>
            </Position>
            <AltitudeMeters>706.20001220703125</AltitudeMeters>
            <DistanceMeters>11919.089709886</DistanceMeters>
          </Trackpoint>
          <Trackpoint>
            <Time>2022-09-18T12:13:57.000Z</Time>
            <Position>
              <LatitudeDegrees>49.37266412191092967987060546875</LatitudeDegrees>
              <LongitudeDegrees>20.01001560129225254058837890625</LongitudeDegrees>
            </Position>
            <AltitudeMeters>706.4000244140625</AltitudeMeters>
            <DistanceMeters>11920.511939517</DistanceMeters>
          </Trackpoint>
          <Trackpoint>
            <Time>2022-09-18T12:13:58.000Z</Time>
            <Position>
              <LatitudeDegrees>49.372642077505588531494140625</LatitudeDegrees>
              <LongitudeDegrees>20.0100069679319858551025390625</LongitudeDegrees>
            </Position>
            <AltitudeMeters>706.4000244140625</AltitudeMeters>
            <DistanceMeters>11923.044004736</DistanceMeters>
          </Trackpoint>
          <Trackpoint>
            <Time>2022-09-18T12:14:04.000Z</Time>
            <Position>
              <LatitudeDegrees>49.372487179934978485107421875</LatitudeDegrees>
              <LongitudeDegrees>20.0099734403192996978759765625</LongitudeDegrees>
            </Position>
            <AltitudeMeters>706.5999755859375</AltitudeMeters>
            <DistanceMeters>11940.454911267</DistanceMeters>
          </Trackpoint>
          <Trackpoint>
            <Time>2022-09-18T12:14:09.000Z</Time>
            <Position>
              <LatitudeDegrees>49.3723599426448345184326171875</LatitudeDegrees>
              <LongitudeDegrees>20.00991082750260829925537109375</LongitudeDegrees>
            </Position>
            <AltitudeMeters>707.20001220703125</AltitudeMeters>
            <DistanceMeters>11955.325908951</DistanceMeters>
          </Trackpoint>
          <Trackpoint>
            <Time>2022-09-18T12:14:10.000Z</Time>
            <Position>
              <LatitudeDegrees>49.37234125100076198577880859375</LatitudeDegrees>
              <LongitudeDegrees>20.00992231070995330810546875</LongitudeDegrees>
            </Position>
            <AltitudeMeters>707.20001220703125</AltitudeMeters>
            <DistanceMeters>11957.56660583</DistanceMeters>
          </Trackpoint>
          <Trackpoint>
            <Time>2022-09-18T12:14:12.000Z</Time>
            <Position>
              <LatitudeDegrees>49.3723016045987606048583984375</LatitudeDegrees>
              <LongitudeDegrees>20.009945444762706756591796875</LongitudeDegrees>
            </Position>
            <AltitudeMeters>707</AltitudeMeters>
            <DistanceMeters>11962.287435064</DistanceMeters>
          </Trackpoint>
          <Trackpoint>
            <Time>2022-09-18T12:14:14.000Z</Time>
            <Position>
              <LatitudeDegrees>49.37225575558841228485107421875</LatitudeDegrees>
              <LongitudeDegrees>20.009964220225811004638671875</LongitudeDegrees>
            </Position>
            <AltitudeMeters>707.20001220703125</AltitudeMeters>
            <DistanceMeters>11967.568903244</DistanceMeters>
          </Trackpoint>
          <Trackpoint>
            <Time>2022-09-18T12:14:17.000Z</Time>
            <Position>
              <LatitudeDegrees>49.3721949867904186248779296875</LatitudeDegrees>
              <LongitudeDegrees>20.01002163626253604888916015625</LongitudeDegrees>
            </Position>
            <AltitudeMeters>707.4000244140625</AltitudeMeters>
            <DistanceMeters>11975.510317091</DistanceMeters>
          </Trackpoint>
          <Trackpoint>
            <Time>2022-09-18T12:14:20.000Z</Time>
            <Position>
              <LatitudeDegrees>49.37212332151830196380615234375</LatitudeDegrees>
              <LongitudeDegrees>20.01007310114800930023193359375</LongitudeDegrees>
            </Position>
            <AltitudeMeters>707.4000244140625</AltitudeMeters>
            <DistanceMeters>11984.316068985</DistanceMeters>
          </Trackpoint>
          <Trackpoint>
            <Time>2022-09-18T12:14:28.000Z</Time>
            <Position>
              <LatitudeDegrees>49.37190438620746135711669921875</LatitudeDegrees>
              <LongitudeDegrees>20.01016865484416484832763671875</LongitudeDegrees>
            </Position>
            <AltitudeMeters>707.4000244140625</AltitudeMeters>
            <DistanceMeters>12009.64884366</DistanceMeters>
          </Trackpoint>
          <Trackpoint>
            <Time>2022-09-18T12:14:32.000Z</Time>
            <Position>
              <LatitudeDegrees>49.37179349362850189208984375</LatitudeDegrees>
              <LongitudeDegrees>20.01017175614833831787109375</LongitudeDegrees>
            </Position>
            <AltitudeMeters>707</AltitudeMeters>
            <DistanceMeters>12021.993175962</DistanceMeters>
          </Trackpoint>
          <Trackpoint>
            <Time>2022-09-18T12:14:35.000Z</Time>
            <Position>
              <LatitudeDegrees>49.3717150390148162841796875</LatitudeDegrees>
              <LongitudeDegrees>20.010184831917285919189453125</LongitudeDegrees>
            </Position>
            <AltitudeMeters>707.4000244140625</AltitudeMeters>
            <DistanceMeters>12030.776852478</DistanceMeters>
          </Trackpoint>
          <Trackpoint>
            <Time>2022-09-18T12:14:41.000Z</Time>
            <Position>
              <LatitudeDegrees>49.3715700320899486541748046875</LatitudeDegrees>
              <LongitudeDegrees>20.01026605255901813507080078125</LongitudeDegrees>
            </Position>
            <AltitudeMeters>707.4000244140625</AltitudeMeters>
            <DistanceMeters>12047.956463024</DistanceMeters>
          </Trackpoint>
          <Trackpoint>
            <Time>2022-09-18T12:14:42.000Z</Time>
            <Position>
              <LatitudeDegrees>49.37154949642717838287353515625</LatitudeDegrees>
              <LongitudeDegrees>20.01026722602546215057373046875</LongitudeDegrees>
            </Position>
            <AltitudeMeters>707.4000244140625</AltitudeMeters>
            <DistanceMeters>12050.245009361</DistanceMeters>
          </Trackpoint>
          <Trackpoint>
            <Time>2022-09-18T12:14:49.000Z</Time>
            <Position>
              <LatitudeDegrees>49.3714012205600738525390625</LatitudeDegrees>
              <LongitudeDegrees>20.010321624577045440673828125</LongitudeDegrees>
            </Position>
            <AltitudeMeters>707.79998779296875</AltitudeMeters>
            <DistanceMeters>12067.213066331</DistanceMeters>
          </Trackpoint>
          <Trackpoint>
            <Time>2022-09-18T12:14:54.000Z</Time>
            <Position>
              <LatitudeDegrees>49.371343888342380523681640625</LatitudeDegrees>
              <LongitudeDegrees>20.01035825349390506744384765625</LongitudeDegrees>
            </Position>
            <AltitudeMeters>708.20001220703125</AltitudeMeters>
            <DistanceMeters>12074.124586018</DistanceMeters>
          </Trackpoint>
          <Trackpoint>
            <Time>2022-09-18T12:15:01.000Z</Time>
            <Position>
              <LatitudeDegrees>49.37123433686792850494384765625</LatitudeDegrees>
              <LongitudeDegrees>20.01038608141243457794189453125</LongitudeDegrees>
            </Position>
            <AltitudeMeters>708</AltitudeMeters>
            <DistanceMeters>12086.48317465</DistanceMeters>
          </Trackpoint>
          <Trackpoint>
            <Time>2022-09-18T12:15:07.000Z</Time>
            <Position>
              <LatitudeDegrees>49.37118194997310638427734375</LatitudeDegrees>
              <LongitudeDegrees>20.01039044000208377838134765625</LongitudeDegrees>
            </Position>
            <AltitudeMeters>708.4000244140625</AltitudeMeters>
            <DistanceMeters>12092.322486995</DistanceMeters>
          </Trackpoint>
          <Trackpoint>
            <Time>2022-09-18T12:15:08.000Z</Time>
            <Position>
              <LatitudeDegrees>49.3711606599390506744384765625</LatitudeDegrees>
              <LongitudeDegrees>20.0104042701423168182373046875</LongitudeDegrees>
            </Position>
            <AltitudeMeters>708.5999755859375</AltitudeMeters>
            <DistanceMeters>12094.893482124</DistanceMeters>
          </Trackpoint>
          <Trackpoint>
            <Time>2022-09-18T12:15:12.000Z</Time>
            <Position>
              <LatitudeDegrees>49.3711096979677677154541015625</LatitudeDegrees>
              <LongitudeDegrees>20.01045095734298229217529296875</LongitudeDegrees>
            </Position>
            <AltitudeMeters>709.4000244140625</AltitudeMeters>
            <DistanceMeters>12101.497667859</DistanceMeters>
          </Trackpoint>
          <Trackpoint>
            <Time>2022-09-18T12:15:13.000Z</Time>
            <Position>
              <LatitudeDegrees>49.371096789836883544921875</LatitudeDegrees>
              <LongitudeDegrees>20.01047308556735515594482421875</LongitudeDegrees>
            </Position>
            <AltitudeMeters>709.5999755859375</AltitudeMeters>
            <DistanceMeters>12103.652072485</DistanceMeters>
          </Trackpoint>
          <Trackpoint>
            <Time>2022-09-18T12:15:14.000Z</Time>
            <Position>
              <LatitudeDegrees>49.37108731828629970550537109375</LatitudeDegrees>
              <LongitudeDegrees>20.01049764454364776611328125</LongitudeDegrees>
            </Position>
            <AltitudeMeters>709.79998779296875</AltitudeMeters>
            <DistanceMeters>12105.718766986</DistanceMeters>
          </Trackpoint>
          <Trackpoint>
            <Time>2022-09-18T12:15:15.000Z</Time>
            <Position>
              <LatitudeDegrees>49.371077008545398712158203125</LatitudeDegrees>
              <LongitudeDegrees>20.010508708655834197998046875</LongitudeDegrees>
            </Position>
            <AltitudeMeters>710</AltitudeMeters>
            <DistanceMeters>12107.115368759</DistanceMeters>
          </Trackpoint>
          <Trackpoint>
            <Time>2022-09-18T12:15:18.000Z</Time>
            <Position>
              <LatitudeDegrees>49.37103685922920703887939453125</LatitudeDegrees>
              <LongitudeDegrees>20.01053930260241031646728515625</LongitudeDegrees>
            </Position>
            <AltitudeMeters>710.79998779296875</AltitudeMeters>
            <DistanceMeters>12112.104045004</DistanceMeters>
          </Trackpoint>
          <Trackpoint>
            <Time>2022-09-18T12:15:19.000Z</Time>
            <Position>
              <LatitudeDegrees>49.37099645845592021942138671875</LatitudeDegrees>
              <LongitudeDegrees>20.0105487741529941558837890625</LongitudeDegrees>
            </Position>
            <AltitudeMeters>710.79998779296875</AltitudeMeters>
            <DistanceMeters>12116.652440889</DistanceMeters>
          </Trackpoint>
          <Trackpoint>
            <Time>2022-09-18T12:15:20.000Z</Time>
            <Position>
              <LatitudeDegrees>49.37095387838780879974365234375</LatitudeDegrees>
              <LongitudeDegrees>20.01056092791259288787841796875</LongitudeDegrees>
            </Position>
            <AltitudeMeters>711</AltitudeMeters>
            <DistanceMeters>12121.473583572</DistanceMeters>
          </Trackpoint>
          <Trackpoint>
            <Time>2022-09-18T12:15:25.000Z</Time>
            <Position>
              <LatitudeDegrees>49.3708620965480804443359375</LatitudeDegrees>
              <LongitudeDegrees>20.01054801978170871734619140625</LongitudeDegrees>
            </Position>
            <AltitudeMeters>711.79998779296875</AltitudeMeters>
            <DistanceMeters>12131.731628259</DistanceMeters>
          </Trackpoint>
          <Trackpoint>
            <Time>2022-09-18T12:15:26.000Z</Time>
            <Position>
              <LatitudeDegrees>49.3708371184766292572021484375</LatitudeDegrees>
              <LongitudeDegrees>20.0105427391827106475830078125</LongitudeDegrees>
            </Position>
            <AltitudeMeters>712</AltitudeMeters>
            <DistanceMeters>12134.53612404</DistanceMeters>
          </Trackpoint>
          <Trackpoint>
            <Time>2022-09-18T12:15:27.000Z</Time>
            <Position>
              <LatitudeDegrees>49.37082110904157161712646484375</LatitudeDegrees>
              <LongitudeDegrees>20.01053729094564914703369140625</LongitudeDegrees>
            </Position>
            <AltitudeMeters>712.20001220703125</AltitudeMeters>
            <DistanceMeters>12136.359052489</DistanceMeters>
          </Trackpoint>
          <Trackpoint>
            <Time>2022-09-18T12:15:30.000Z</Time>
            <Position>
              <LatitudeDegrees>49.37077702023088932037353515625</LatitudeDegrees>
              <LongitudeDegrees>20.0105345249176025390625</LongitudeDegrees>
            </Position>
            <AltitudeMeters>712.5999755859375</AltitudeMeters>
            <DistanceMeters>12141.269276934</DistanceMeters>
          </Trackpoint>
          <Trackpoint>
            <Time>2022-09-18T12:15:34.000Z</Time>
            <Position>
              <LatitudeDegrees>49.37071532942354679107666015625</LatitudeDegrees>
              <LongitudeDegrees>20.0105501152575016021728515625</LongitudeDegrees>
            </Position>
            <AltitudeMeters>713</AltitudeMeters>
            <DistanceMeters>12148.227672575</DistanceMeters>
          </Trackpoint>
          <Trackpoint>
            <Time>2022-09-18T12:15:37.000Z</Time>
            <Position>
              <LatitudeDegrees>49.3706671334803104400634765625</LatitudeDegrees>
              <LongitudeDegrees>20.0105866603553295135498046875</LongitudeDegrees>
            </Position>
            <AltitudeMeters>713</AltitudeMeters>
            <DistanceMeters>12154.209073989</DistanceMeters>
          </Trackpoint>
          <Trackpoint>
            <Time>2022-09-18T12:15:40.000Z</Time>
            <Position>
              <LatitudeDegrees>49.370602257549762725830078125</LatitudeDegrees>
              <LongitudeDegrees>20.01063033007085323333740234375</LongitudeDegrees>
            </Position>
            <AltitudeMeters>713.5999755859375</AltitudeMeters>
            <DistanceMeters>12162.092855833</DistanceMeters>
          </Trackpoint>
          <Trackpoint>
            <Time>2022-09-18T12:15:43.000Z</Time>
            <Position>
              <LatitudeDegrees>49.3705648742616176605224609375</LatitudeDegrees>
              <LongitudeDegrees>20.01068531535565853118896484375</LongitudeDegrees>
            </Position>
            <AltitudeMeters>714.20001220703125</AltitudeMeters>
            <DistanceMeters>12167.854327954</DistanceMeters>
          </Trackpoint>
          <Trackpoint>
            <Time>2022-09-18T12:15:44.000Z</Time>
            <Position>
              <LatitudeDegrees>49.37054567970335483551025390625</LatitudeDegrees>
              <LongitudeDegrees>20.010706521570682525634765625</LongitudeDegrees>
            </Position>
            <AltitudeMeters>714.4000244140625</AltitudeMeters>
            <DistanceMeters>12170.484354296</DistanceMeters>
          </Trackpoint>
          <Trackpoint>
            <Time>2022-09-18T12:15:47.000Z</Time>
            <Position>
              <LatitudeDegrees>49.370539225637912750244140625</LatitudeDegrees>
              <LongitudeDegrees>20.010746084153652191162109375</LongitudeDegrees>
            </Position>
            <AltitudeMeters>715</AltitudeMeters>
            <DistanceMeters>12173.440891797</DistanceMeters>
          </Trackpoint>
          <Trackpoint>
            <Time>2022-09-18T12:15:48.000Z</Time>
            <Position>
              <LatitudeDegrees>49.37054769136011600494384765625</LatitudeDegrees>
              <LongitudeDegrees>20.0107499398291110992431640625</LongitudeDegrees>
            </Position>
            <AltitudeMeters>715.20001220703125</AltitudeMeters>
            <DistanceMeters>12174.423855774</DistanceMeters>
          </Trackpoint>
          <Trackpoint>
            <Time>2022-09-18T12:15:49.000Z</Time>
            <Position>
              <LatitudeDegrees>49.37054350040853023529052734375</LatitudeDegrees>
              <LongitudeDegrees>20.01075102947652339935302734375</LongitudeDegrees>
            </Position>
            <AltitudeMeters>715.20001220703125</AltitudeMeters>
            <DistanceMeters>12174.898989346</DistanceMeters>
          </Trackpoint>
          <Trackpoint>
            <Time>2022-09-18T12:15:51.000Z</Time>
            <Position>
              <LatitudeDegrees>49.370511732995510101318359375</LatitudeDegrees>
              <LongitudeDegrees>20.01076846383512020111083984375</LongitudeDegrees>
            </Position>
            <AltitudeMeters>715.5999755859375</AltitudeMeters>
            <DistanceMeters>12178.654648996</DistanceMeters>
          </Trackpoint>
          <Trackpoint>
            <Time>2022-09-18T12:15:52.000Z</Time>
            <Position>
              <LatitudeDegrees>49.3705053627490997314453125</LatitudeDegrees>
              <LongitudeDegrees>20.0107757560908794403076171875</LongitudeDegrees>
            </Position>
            <AltitudeMeters>715.5999755859375</AltitudeMeters>
            <DistanceMeters>12179.535890492</DistanceMeters>
          </Trackpoint>
          <Trackpoint>
            <Time>2022-09-18T12:15:57.000Z</Time>
            <Position>
              <LatitudeDegrees>49.37045381404459476470947265625</LatitudeDegrees>
              <LongitudeDegrees>20.01087591983377933502197265625</LongitudeDegrees>
            </Position>
            <AltitudeMeters>716</AltitudeMeters>
            <DistanceMeters>12188.789170172</DistanceMeters>
          </Trackpoint>
          <Trackpoint>
            <Time>2022-09-18T12:15:59.000Z</Time>
            <Position>
              <LatitudeDegrees>49.3704307638108730316162109375</LatitudeDegrees>
              <LongitudeDegrees>20.01088782213628292083740234375</LongitudeDegrees>
            </Position>
            <AltitudeMeters>716.20001220703125</AltitudeMeters>
            <DistanceMeters>12191.49534681</DistanceMeters>
          </Trackpoint>
          <Trackpoint>
            <Time>2022-09-18T12:16:00.000Z</Time>
            <Position>
              <LatitudeDegrees>49.37041609548032283782958984375</LatitudeDegrees>
              <LongitudeDegrees>20.01089234836399555206298828125</LongitudeDegrees>
            </Position>
            <AltitudeMeters>716.20001220703125</AltitudeMeters>
            <DistanceMeters>12193.163058879</DistanceMeters>
          </Trackpoint>
          <Trackpoint>
            <Time>2022-09-18T12:16:04.000Z</Time>
            <Position>
              <LatitudeDegrees>49.3703761138021945953369140625</LatitudeDegrees>
              <LongitudeDegrees>20.01088145188987255096435546875</LongitudeDegrees>
            </Position>
            <AltitudeMeters>716.4000244140625</AltitudeMeters>
            <DistanceMeters>12197.682575768</DistanceMeters>
          </Trackpoint>
          <Trackpoint>
            <Time>2022-09-18T12:16:07.000Z</Time>
            <Position>
              <LatitudeDegrees>49.3703234754502773284912109375</LatitudeDegrees>
              <LongitudeDegrees>20.01090324483811855316162109375</LongitudeDegrees>
            </Position>
            <AltitudeMeters>716.4000244140625</AltitudeMeters>
            <DistanceMeters>12203.750907643</DistanceMeters>
          </Trackpoint>
          <Trackpoint>
            <Time>2022-09-18T12:16:10.000Z</Time>
            <Position>
              <LatitudeDegrees>49.37028399668633937835693359375</LatitudeDegrees>
              <LongitudeDegrees>20.010919086635112762451171875</LongitudeDegrees>
            </Position>
            <AltitudeMeters>716.5999755859375</AltitudeMeters>
            <DistanceMeters>12208.29234955</DistanceMeters>
          </Trackpoint>
          <Trackpoint>
            <Time>2022-09-18T12:16:12.000Z</Time>
            <Position>
              <LatitudeDegrees>49.37024661339819431304931640625</LatitudeDegrees>
              <LongitudeDegrees>20.0109422206878662109375</LongitudeDegrees>
            </Position>
            <AltitudeMeters>716.5999755859375</AltitudeMeters>
            <DistanceMeters>12212.777771528</DistanceMeters>
          </Trackpoint>
          <Trackpoint>
            <Time>2022-09-18T12:16:13.000Z</Time>
            <Position>
              <LatitudeDegrees>49.37023387290537357330322265625</LatitudeDegrees>
              <LongitudeDegrees>20.01095219515264034271240234375</LongitudeDegrees>
            </Position>
            <AltitudeMeters>716.79998779296875</AltitudeMeters>
            <DistanceMeters>12214.367872595</DistanceMeters>
          </Trackpoint>
          <Trackpoint>
            <Time>2022-09-18T12:16:16.000Z</Time>
            <Position>
              <LatitudeDegrees>49.3701863475143909454345703125</LatitudeDegrees>
              <LongitudeDegrees>20.01099511049687862396240234375</LongitudeDegrees>
            </Position>
            <AltitudeMeters>717.20001220703125</AltitudeMeters>
            <DistanceMeters>12220.504273721</DistanceMeters>
          </Trackpoint>
          <Trackpoint>
            <Time>2022-09-18T12:16:18.000Z</Time>
            <Position>
              <LatitudeDegrees>49.37015466392040252685546875</LatitudeDegrees>
              <LongitudeDegrees>20.01103282906115055084228515625</LongitudeDegrees>
            </Position>
            <AltitudeMeters>717.4000244140625</AltitudeMeters>
            <DistanceMeters>12224.96547182</DistanceMeters>
          </Trackpoint>
          <Trackpoint>
            <Time>2022-09-18T12:16:21.000Z</Time>
            <Position>
              <LatitudeDegrees>49.3701202981173992156982421875</LatitudeDegrees>
              <LongitudeDegrees>20.01108429394662380218505859375</LongitudeDegrees>
            </Position>
            <AltitudeMeters>717.79998779296875</AltitudeMeters>
            <DistanceMeters>12230.308137039</DistanceMeters>
          </Trackpoint>
          <Trackpoint>
            <Time>2022-09-18T12:16:22.000Z</Time>
            <Position>
              <LatitudeDegrees>49.370114766061305999755859375</LatitudeDegrees>
              <LongitudeDegrees>20.0111083500087261199951171875</LongitudeDegrees>
            </Position>
            <AltitudeMeters>718</AltitudeMeters>
            <DistanceMeters>12232.155667524</DistanceMeters>
          </Trackpoint>
          <Trackpoint>
            <Time>2022-09-18T12:16:23.000Z</Time>
            <Position>
              <LatitudeDegrees>49.37009825371205806732177734375</LatitudeDegrees>
              <LongitudeDegrees>20.0111301429569721221923828125</LongitudeDegrees>
            </Position>
            <AltitudeMeters>718.20001220703125</AltitudeMeters>
            <DistanceMeters>12234.578382879</DistanceMeters>
          </Trackpoint>
          <Trackpoint>
            <Time>2022-09-18T12:16:24.000Z</Time>
            <Position>
              <LatitudeDegrees>49.37008936889469623565673828125</LatitudeDegrees>
              <LongitudeDegrees>20.01114070415496826171875</LongitudeDegrees>
            </Position>
            <AltitudeMeters>718.4000244140625</AltitudeMeters>
            <DistanceMeters>12235.831871332</DistanceMeters>
          </Trackpoint>
          <Trackpoint>
            <Time>2022-09-18T12:16:27.000Z</Time>
            <Position>
              <LatitudeDegrees>49.3700860999524593353271484375</LatitudeDegrees>
              <LongitudeDegrees>20.01114481128752231597900390625</LongitudeDegrees>
            </Position>
            <AltitudeMeters>719</AltitudeMeters>
            <DistanceMeters>12236.307004904</DistanceMeters>
          </Trackpoint>
          <Trackpoint>
            <Time>2022-09-18T12:16:31.000Z</Time>
            <Position>
              <LatitudeDegrees>49.37007729895412921905517578125</LatitudeDegrees>
              <LongitudeDegrees>20.01113760285079479217529296875</LongitudeDegrees>
            </Position>
            <AltitudeMeters>719.4000244140625</AltitudeMeters>
            <DistanceMeters>12237.415197304</DistanceMeters>
          </Trackpoint>
          <Trackpoint>
            <Time>2022-09-18T12:16:33.000Z</Time>
            <Position>
              <LatitudeDegrees>49.3700733594596385955810546875</LatitudeDegrees>
              <LongitudeDegrees>20.01113064587116241455078125</LongitudeDegrees>
            </Position>
            <AltitudeMeters>719.5999755859375</AltitudeMeters>
            <DistanceMeters>12238.087137645</DistanceMeters>
          </Trackpoint>
          <Trackpoint>
            <Time>2022-09-18T12:16:36.000Z</Time>
            <Position>
              <LatitudeDegrees>49.3700804002583026885986328125</LatitudeDegrees>
              <LongitudeDegrees>20.01115168444812297821044921875</LongitudeDegrees>
            </Position>
            <AltitudeMeters>719.79998779296875</AltitudeMeters>
            <DistanceMeters>12239.797618504</DistanceMeters>
          </Trackpoint>
          <Trackpoint>
            <Time>2022-09-18T12:16:37.000Z</Time>
            <Position>
              <LatitudeDegrees>49.37008752487599849700927734375</LatitudeDegrees>
              <LongitudeDegrees>20.01115654595196247100830078125</LongitudeDegrees>
            </Position>
            <AltitudeMeters>719.79998779296875</AltitudeMeters>
            <DistanceMeters>12240.663353073</DistanceMeters>
          </Trackpoint>
          <Trackpoint>
            <Time>2022-09-18T12:16:38.000Z</Time>
            <Position>
              <LatitudeDegrees>49.37008752487599849700927734375</LatitudeDegrees>
              <LongitudeDegrees>20.01115654595196247100830078125</LongitudeDegrees>
            </Position>
            <AltitudeMeters>719.79998779296875</AltitudeMeters>
            <DistanceMeters>12240.758379788</DistanceMeters>
          </Trackpoint>
          <Trackpoint>
            <Time>2022-09-18T12:16:40.000Z</Time>
            <Position>
              <LatitudeDegrees>49.37008752487599849700927734375</LatitudeDegrees>
              <LongitudeDegrees>20.01115654595196247100830078125</LongitudeDegrees>
            </Position>
            <AltitudeMeters>720</AltitudeMeters>
            <DistanceMeters>12240.853406502</DistanceMeters>
          </Trackpoint>
          <Trackpoint>
            <Time>2022-09-18T12:16:47.000Z</Time>
            <Position>
              <LatitudeDegrees>49.37008802779018878936767578125</LatitudeDegrees>
              <LongitudeDegrees>20.01115637831389904022216796875</LongitudeDegrees>
            </Position>
            <AltitudeMeters>720.20001220703125</AltitudeMeters>
            <DistanceMeters>12240.948433216</DistanceMeters>
          </Trackpoint>
          <Trackpoint>
            <Time>2022-09-18T12:16:56.000Z</Time>
            <Position>
              <LatitudeDegrees>49.37008802779018878936767578125</LatitudeDegrees>
              <LongitudeDegrees>20.01115637831389904022216796875</LongitudeDegrees>
            </Position>
            <AltitudeMeters>720</AltitudeMeters>
            <DistanceMeters>12240.948433216</DistanceMeters>
          </Trackpoint>
          <Trackpoint>
            <Time>2022-09-18T12:17:06.000Z</Time>
            <Position>
              <LatitudeDegrees>49.37008760869503021240234375</LatitudeDegrees>
              <LongitudeDegrees>20.01115570776164531707763671875</LongitudeDegrees>
            </Position>
            <AltitudeMeters>720</AltitudeMeters>
            <DistanceMeters>12240.948433216</DistanceMeters>
          </Trackpoint>
          <Trackpoint>
            <Time>2022-09-18T12:17:08.000Z</Time>
            <Position>
              <LatitudeDegrees>49.370083920657634735107421875</LatitudeDegrees>
              <LongitudeDegrees>20.0111500918865203857421875</LongitudeDegrees>
            </Position>
            <AltitudeMeters>720</AltitudeMeters>
            <DistanceMeters>12241.518593503</DistanceMeters>
          </Trackpoint>
          <Trackpoint>
            <Time>2022-09-18T12:17:10.000Z</Time>
            <Position>
              <LatitudeDegrees>49.3700842559337615966796875</LatitudeDegrees>
              <LongitudeDegrees>20.0111502595245838165283203125</LongitudeDegrees>
            </Position>
            <AltitudeMeters>720</AltitudeMeters>
            <DistanceMeters>12241.518593503</DistanceMeters>
          </Trackpoint>
          <Trackpoint>
            <Time>2022-09-18T12:17:11.000Z</Time>
            <Position>
              <LatitudeDegrees>49.3700842559337615966796875</LatitudeDegrees>
              <LongitudeDegrees>20.0111502595245838165283203125</LongitudeDegrees>
            </Position>
            <AltitudeMeters>720</AltitudeMeters>
            <DistanceMeters>12241.518593503</DistanceMeters>
          </Trackpoint>
          <Trackpoint>
            <Time>2022-09-18T12:17:12.000Z</Time>
            <Position>
              <LatitudeDegrees>49.3700842559337615966796875</LatitudeDegrees>
              <LongitudeDegrees>20.0111502595245838165283203125</LongitudeDegrees>
            </Position>
            <AltitudeMeters>720</AltitudeMeters>
            <DistanceMeters>12241.518593503</DistanceMeters>
          </Trackpoint>
          <Trackpoint>
            <Time>2022-09-18T12:17:13.000Z</Time>
            <Position>
              <LatitudeDegrees>49.37008366920053958892822265625</LatitudeDegrees>
              <LongitudeDegrees>20.01114984042942523956298828125</LongitudeDegrees>
            </Position>
            <AltitudeMeters>720</AltitudeMeters>
            <DistanceMeters>12241.613620217</DistanceMeters>
          </Trackpoint>
          <Trackpoint>
            <Time>2022-09-18T12:17:19.000Z</Time>
            <Position>
              <LatitudeDegrees>49.370077550411224365234375</LatitudeDegrees>
              <LongitudeDegrees>20.01114782877266407012939453125</LongitudeDegrees>
            </Position>
            <AltitudeMeters>720</AltitudeMeters>
            <DistanceMeters>12242.311921103</DistanceMeters>
          </Trackpoint>
          <Trackpoint>
            <Time>2022-09-18T12:17:25.000Z</Time>
            <Position>
              <LatitudeDegrees>49.37009406276047229766845703125</LatitudeDegrees>
              <LongitudeDegrees>20.0111554563045501708984375</LongitudeDegrees>
            </Position>
            <AltitudeMeters>720</AltitudeMeters>
            <DistanceMeters>12244.231366646</DistanceMeters>
          </Trackpoint>
          <Trackpoint>
            <Time>2022-09-18T12:17:30.000Z</Time>
            <Position>
              <LatitudeDegrees>49.3700958229601383209228515625</LatitudeDegrees>
              <LongitudeDegrees>20.01115604303777217864990234375</LongitudeDegrees>
            </Position>
            <AltitudeMeters>720</AltitudeMeters>
            <DistanceMeters>12244.421420074</DistanceMeters>
          </Trackpoint>
          <Trackpoint>
            <Time>2022-09-18T12:17:38.000Z</Time>
            <Position>
              <LatitudeDegrees>49.3701350502669811248779296875</LatitudeDegrees>
              <LongitudeDegrees>20.01116341911256313323974609375</LongitudeDegrees>
            </Position>
            <AltitudeMeters>720</AltitudeMeters>
            <DistanceMeters>12248.82044881</DistanceMeters>
          </Trackpoint>
          <Trackpoint>
            <Time>2022-09-18T12:17:44.000Z</Time>
            <Position>
              <LatitudeDegrees>49.37014133669435977935791015625</LatitudeDegrees>
              <LongitudeDegrees>20.01116551458835601806640625</LongitudeDegrees>
            </Position>
            <AltitudeMeters>720</AltitudeMeters>
            <DistanceMeters>12249.531563626</DistanceMeters>
          </Trackpoint>
          <Trackpoint>
            <Time>2022-09-18T12:17:58.000Z</Time>
            <Position>
              <LatitudeDegrees>49.37014452181756496429443359375</LatitudeDegrees>
              <LongitudeDegrees>20.011166520416736602783203125</LongitudeDegrees>
            </Position>
            <AltitudeMeters>720</AltitudeMeters>
            <DistanceMeters>12249.887121034</DistanceMeters>
          </Trackpoint>
          <Trackpoint>
            <Time>2022-09-18T12:18:03.000Z</Time>
            <Position>
              <LatitudeDegrees>49.37013446353375911712646484375</LatitudeDegrees>
              <LongitudeDegrees>20.01116174273192882537841796875</LongitudeDegrees>
            </Position>
            <AltitudeMeters>720</AltitudeMeters>
            <DistanceMeters>12251.058689051</DistanceMeters>
          </Trackpoint>
          <Trackpoint>
            <Time>2022-09-18T12:18:11.000Z</Time>
            <Position>
              <LatitudeDegrees>49.37012943439185619354248046875</LatitudeDegrees>
              <LongitudeDegrees>20.01116140745580196380615234375</LongitudeDegrees>
            </Position>
            <AltitudeMeters>719.79998779296875</AltitudeMeters>
            <DistanceMeters>12251.628849337</DistanceMeters>
          </Trackpoint>
          <Trackpoint>
            <Time>2022-09-18T12:18:18.000Z</Time>
            <Position>
              <LatitudeDegrees>49.37012608163058757781982421875</LatitudeDegrees>
              <LongitudeDegrees>20.01116283237934112548828125</LongitudeDegrees>
            </Position>
            <AltitudeMeters>719.79998779296875</AltitudeMeters>
            <DistanceMeters>12252.008956195</DistanceMeters>
          </Trackpoint>
          <Trackpoint>
            <Time>2022-09-18T12:18:25.000Z</Time>
            <Position>
              <LatitudeDegrees>49.37012256123125553131103515625</LatitudeDegrees>
              <LongitudeDegrees>20.011169202625751495361328125</LongitudeDegrees>
            </Position>
            <AltitudeMeters>720.20001220703125</AltitudeMeters>
            <DistanceMeters>12252.609957907</DistanceMeters>
          </Trackpoint>
          <Trackpoint>
            <Time>2022-09-18T12:18:27.000Z</Time>
            <Position>
              <LatitudeDegrees>49.370119459927082061767578125</LatitudeDegrees>
              <LongitudeDegrees>20.01117029227316379547119140625</LongitudeDegrees>
            </Position>
            <AltitudeMeters>720.4000244140625</AltitudeMeters>
            <DistanceMeters>12252.965515314</DistanceMeters>
          </Trackpoint>
          <Trackpoint>
            <Time>2022-09-18T12:18:28.000Z</Time>
            <Position>
              <LatitudeDegrees>49.370119459927082061767578125</LatitudeDegrees>
              <LongitudeDegrees>20.01117029227316379547119140625</LongitudeDegrees>
            </Position>
            <AltitudeMeters>720.5999755859375</AltitudeMeters>
            <DistanceMeters>12252.965515314</DistanceMeters>
          </Trackpoint>
          <Trackpoint>
            <Time>2022-09-18T12:18:30.000Z</Time>
            <Position>
              <LatitudeDegrees>49.3701142631471157073974609375</LatitudeDegrees>
              <LongitudeDegrees>20.0111730583012104034423828125</LongitudeDegrees>
            </Position>
            <AltitudeMeters>720.79998779296875</AltitudeMeters>
            <DistanceMeters>12253.58135881</DistanceMeters>
          </Trackpoint>
          <Trackpoint>
            <Time>2022-09-18T12:18:34.000Z</Time>
            <Position>
              <LatitudeDegrees>49.37010680325329303741455078125</LatitudeDegrees>
              <LongitudeDegrees>20.01117817126214504241943359375</LongitudeDegrees>
            </Position>
            <AltitudeMeters>721</AltitudeMeters>
            <DistanceMeters>12254.492823034</DistanceMeters>
          </Trackpoint>
          <Trackpoint>
            <Time>2022-09-18T12:18:35.000Z</Time>
            <Position>
              <LatitudeDegrees>49.37009355984628200531005859375</LatitudeDegrees>
              <LongitudeDegrees>20.01118957065045833587646484375</LongitudeDegrees>
            </Position>
            <AltitudeMeters>721.20001220703125</AltitudeMeters>
            <DistanceMeters>12256.182054859</DistanceMeters>
          </Trackpoint>
          <Trackpoint>
            <Time>2022-09-18T12:18:38.000Z</Time>
            <Position>
              <LatitudeDegrees>49.36999029479920864105224609375</LatitudeDegrees>
              <LongitudeDegrees>20.011212788522243499755859375</LongitudeDegrees>
            </Position>
            <AltitudeMeters>721.5999755859375</AltitudeMeters>
            <DistanceMeters>12267.798269057</DistanceMeters>
          </Trackpoint>
          <Trackpoint>
            <Time>2022-09-18T12:18:39.000Z</Time>
            <Position>
              <LatitudeDegrees>49.36996481381356716156005859375</LatitudeDegrees>
              <LongitudeDegrees>20.01120868138968944549560546875</LongitudeDegrees>
            </Position>
            <AltitudeMeters>721.5999755859375</AltitudeMeters>
            <DistanceMeters>12270.649070488</DistanceMeters>
          </Trackpoint>
          <Trackpoint>
            <Time>2022-09-18T12:18:40.000Z</Time>
            <Position>
              <LatitudeDegrees>49.369943439960479736328125</LatitudeDegrees>
              <LongitudeDegrees>20.01120038330554962158203125</LongitudeDegrees>
            </Position>
            <AltitudeMeters>721.79998779296875</AltitudeMeters>
            <DistanceMeters>12273.101422606</DistanceMeters>
          </Trackpoint>
          <Trackpoint>
            <Time>2022-09-18T12:18:47.000Z</Time>
            <Position>
              <LatitudeDegrees>49.36983958818018436431884765625</LatitudeDegrees>
              <LongitudeDegrees>20.0110563822090625762939453125</LongitudeDegrees>
            </Position>
            <AltitudeMeters>721.4000244140625</AltitudeMeters>
            <DistanceMeters>12288.674790679</DistanceMeters>
          </Trackpoint>
          <Trackpoint>
            <Time>2022-09-18T12:18:50.000Z</Time>
            <Position>
              <LatitudeDegrees>49.369798600673675537109375</LatitudeDegrees>
              <LongitudeDegrees>20.0109812803566455841064453125</LongitudeDegrees>
            </Position>
            <AltitudeMeters>721.5999755859375</AltitudeMeters>
            <DistanceMeters>12295.777044337</DistanceMeters>
          </Trackpoint>
          <Trackpoint>
            <Time>2022-09-18T12:18:53.000Z</Time>
            <Position>
              <LatitudeDegrees>49.369783513247966766357421875</LatitudeDegrees>
              <LongitudeDegrees>20.0109058432281017303466796875</LongitudeDegrees>
            </Position>
            <AltitudeMeters>721.5999755859375</AltitudeMeters>
            <DistanceMeters>12301.496831654</DistanceMeters>
          </Trackpoint>
          <Trackpoint>
            <Time>2022-09-18T12:19:01.000Z</Time>
            <Position>
              <LatitudeDegrees>49.36967991292476654052734375</LatitudeDegrees>
              <LongitudeDegrees>20.01067475415766239166259765625</LongitudeDegrees>
            </Position>
            <AltitudeMeters>722.5999755859375</AltitudeMeters>
            <DistanceMeters>12321.830994295</DistanceMeters>
          </Trackpoint>
          <Trackpoint>
            <Time>2022-09-18T12:19:02.000Z</Time>
            <Position>
              <LatitudeDegrees>49.36966625042259693145751953125</LatitudeDegrees>
              <LongitudeDegrees>20.010655224323272705078125</LongitudeDegrees>
            </Position>
            <AltitudeMeters>722.79998779296875</AltitudeMeters>
            <DistanceMeters>12323.908583412</DistanceMeters>
          </Trackpoint>
          <Trackpoint>
            <Time>2022-09-18T12:19:05.000Z</Time>
            <Position>
              <LatitudeDegrees>49.36962534673511981964111328125</LatitudeDegrees>
              <LongitudeDegrees>20.010618679225444793701171875</LongitudeDegrees>
            </Position>
            <AltitudeMeters>723.5999755859375</AltitudeMeters>
            <DistanceMeters>12329.175498528</DistanceMeters>
          </Trackpoint>
          <Trackpoint>
            <Time>2022-09-18T12:19:06.000Z</Time>
            <Position>
              <LatitudeDegrees>49.369605816900730133056640625</LatitudeDegrees>
              <LongitudeDegrees>20.01060501672327518463134765625</LongitudeDegrees>
            </Position>
            <AltitudeMeters>723.5999755859375</AltitudeMeters>
            <DistanceMeters>12331.562542355</DistanceMeters>
          </Trackpoint>
          <Trackpoint>
            <Time>2022-09-18T12:19:12.000Z</Time>
            <Position>
              <LatitudeDegrees>49.369456283748149871826171875</LatitudeDegrees>
              <LongitudeDegrees>20.0104917772114276885986328125</LongitudeDegrees>
            </Position>
            <AltitudeMeters>723.4000244140625</AltitudeMeters>
            <DistanceMeters>12350.1192914</DistanceMeters>
          </Trackpoint>
          <Trackpoint>
            <Time>2022-09-18T12:19:16.000Z</Time>
            <Position>
              <LatitudeDegrees>49.36932326294481754302978515625</LatitudeDegrees>
              <LongitudeDegrees>20.01039731316268444061279296875</LongitudeDegrees>
            </Position>
            <AltitudeMeters>721.5999755859375</AltitudeMeters>
            <DistanceMeters>12366.430980535</DistanceMeters>
          </Trackpoint>
          <Trackpoint>
            <Time>2022-09-18T12:19:19.000Z</Time>
            <Position>
              <LatitudeDegrees>49.36923240311443805694580078125</LatitudeDegrees>
              <LongitudeDegrees>20.01031919382512569427490234375</LongitudeDegrees>
            </Position>
            <AltitudeMeters>720.4000244140625</AltitudeMeters>
            <DistanceMeters>12378.021123639</DistanceMeters>
          </Trackpoint>
          <Trackpoint>
            <Time>2022-09-18T12:19:21.000Z</Time>
            <Position>
              <LatitudeDegrees>49.3691805191338062286376953125</LatitudeDegrees>
              <LongitudeDegrees>20.0102607719600200653076171875</LongitudeDegrees>
            </Position>
            <AltitudeMeters>719.4000244140625</AltitudeMeters>
            <DistanceMeters>12385.181624603</DistanceMeters>
          </Trackpoint>
          <Trackpoint>
            <Time>2022-09-18T12:19:24.000Z</Time>
            <Position>
              <LatitudeDegrees>49.3691148050129413604736328125</LatitudeDegrees>
              <LongitudeDegrees>20.01017041504383087158203125</LongitudeDegrees>
            </Position>
            <AltitudeMeters>718.4000244140625</AltitudeMeters>
            <DistanceMeters>12394.998394734</DistanceMeters>
          </Trackpoint>
          <Trackpoint>
            <Time>2022-09-18T12:19:25.000Z</Time>
            <Position>
              <LatitudeDegrees>49.36909921467304229736328125</LatitudeDegrees>
              <LongitudeDegrees>20.01013529486954212188720703125</LongitudeDegrees>
            </Position>
            <AltitudeMeters>718</AltitudeMeters>
            <DistanceMeters>12398.079078155</DistanceMeters>
          </Trackpoint>
          <Trackpoint>
            <Time>2022-09-18T12:19:27.000Z</Time>
            <Position>
              <LatitudeDegrees>49.3690648488700389862060546875</LatitudeDegrees>
              <LongitudeDegrees>20.01003622077405452728271484375</LongitudeDegrees>
            </Position>
            <AltitudeMeters>717.5999755859375</AltitudeMeters>
            <DistanceMeters>12406.214830139</DistanceMeters>
          </Trackpoint>
          <Trackpoint>
            <Time>2022-09-18T12:19:28.000Z</Time>
            <Position>
              <LatitudeDegrees>49.3690435588359832763671875</LatitudeDegrees>
              <LongitudeDegrees>20.00998090021312236785888671875</LongitudeDegrees>
            </Position>
            <AltitudeMeters>716.79998779296875</AltitudeMeters>
            <DistanceMeters>12410.871139143</DistanceMeters>
          </Trackpoint>
          <Trackpoint>
            <Time>2022-09-18T12:19:31.000Z</Time>
            <Position>
              <LatitudeDegrees>49.3689501844346523284912109375</LatitudeDegrees>
              <LongitudeDegrees>20.00983941368758678436279296875</LongitudeDegrees>
            </Position>
            <AltitudeMeters>716.20001220703125</AltitudeMeters>
            <DistanceMeters>12425.471584842</DistanceMeters>
          </Trackpoint>
          <Trackpoint>
            <Time>2022-09-18T12:19:34.000Z</Time>
            <Position>
              <LatitudeDegrees>49.368897043168544769287109375</LatitudeDegrees>
              <LongitudeDegrees>20.0097431056201457977294921875</LongitudeDegrees>
            </Position>
            <AltitudeMeters>716.20001220703125</AltitudeMeters>
            <DistanceMeters>12434.620836649</DistanceMeters>
          </Trackpoint>
          <Trackpoint>
            <Time>2022-09-18T12:19:38.000Z</Time>
            <Position>
              <LatitudeDegrees>49.36883945949375629425048828125</LatitudeDegrees>
              <LongitudeDegrees>20.00969071872532367706298828125</LongitudeDegrees>
            </Position>
            <AltitudeMeters>716.20001220703125</AltitudeMeters>
            <DistanceMeters>12442.070591667</DistanceMeters>
          </Trackpoint>
          <Trackpoint>
            <Time>2022-09-18T12:19:39.000Z</Time>
            <Position>
              <LatitudeDegrees>49.36881892383098602294921875</LatitudeDegrees>
              <LongitudeDegrees>20.00968183390796184539794921875</LongitudeDegrees>
            </Position>
            <AltitudeMeters>716</AltitudeMeters>
            <DistanceMeters>12444.448159301</DistanceMeters>
          </Trackpoint>
          <Trackpoint>
            <Time>2022-09-18T12:19:43.000Z</Time>
            <Position>
              <LatitudeDegrees>49.3687319196760654449462890625</LatitudeDegrees>
              <LongitudeDegrees>20.00960170291364192962646484375</LongitudeDegrees>
            </Position>
            <AltitudeMeters>715.79998779296875</AltitudeMeters>
            <DistanceMeters>12455.739956297</DistanceMeters>
          </Trackpoint>
          <Trackpoint>
            <Time>2022-09-18T12:19:44.000Z</Time>
            <Position>
              <LatitudeDegrees>49.368708617985248565673828125</LatitudeDegrees>
              <LongitudeDegrees>20.00957689248025417327880859375</LongitudeDegrees>
            </Position>
            <AltitudeMeters>715.4000244140625</AltitudeMeters>
            <DistanceMeters>12458.894499725</DistanceMeters>
          </Trackpoint>
          <Trackpoint>
            <Time>2022-09-18T12:19:52.000Z</Time>
            <Position>
              <LatitudeDegrees>49.3684982322156429290771484375</LatitudeDegrees>
              <LongitudeDegrees>20.00940305180847644805908203125</LongitudeDegrees>
            </Position>
            <AltitudeMeters>715</AltitudeMeters>
            <DistanceMeters>12485.485344873</DistanceMeters>
          </Trackpoint>
          <Trackpoint>
            <Time>2022-09-18T12:19:59.000Z</Time>
            <Position>
              <LatitudeDegrees>49.36834358610212802886962890625</LatitudeDegrees>
              <LongitudeDegrees>20.0092546083033084869384765625</LongitudeDegrees>
            </Position>
            <AltitudeMeters>714.79998779296875</AltitudeMeters>
            <DistanceMeters>12505.783504837</DistanceMeters>
          </Trackpoint>
          <Trackpoint>
            <Time>2022-09-18T12:20:06.000Z</Time>
            <Position>
              <LatitudeDegrees>49.36820964328944683074951171875</LatitudeDegrees>
              <LongitudeDegrees>20.00914639793336391448974609375</LongitudeDegrees>
            </Position>
            <AltitudeMeters>715.79998779296875</AltitudeMeters>
            <DistanceMeters>12522.628715497</DistanceMeters>
          </Trackpoint>
          <Trackpoint>
            <Time>2022-09-18T12:20:09.000Z</Time>
            <Position>
              <LatitudeDegrees>49.3681559152901172637939453125</LatitudeDegrees>
              <LongitudeDegrees>20.00909878872334957122802734375</LongitudeDegrees>
            </Position>
            <AltitudeMeters>715.79998779296875</AltitudeMeters>
            <DistanceMeters>12529.533699467</DistanceMeters>
          </Trackpoint>
          <Trackpoint>
            <Time>2022-09-18T12:20:11.000Z</Time>
            <Position>
              <LatitudeDegrees>49.36813940294086933135986328125</LatitudeDegrees>
              <LongitudeDegrees>20.00902838073670864105224609375</LongitudeDegrees>
            </Position>
            <AltitudeMeters>715.5999755859375</AltitudeMeters>
            <DistanceMeters>12534.957719107</DistanceMeters>
          </Trackpoint>
          <Trackpoint>
            <Time>2022-09-18T12:20:16.000Z</Time>
            <Position>
              <LatitudeDegrees>49.36811341904103755950927734375</LatitudeDegrees>
              <LongitudeDegrees>20.0088381953537464141845703125</LongitudeDegrees>
            </Position>
            <AltitudeMeters>715.79998779296875</AltitudeMeters>
            <DistanceMeters>12549.042204164</DistanceMeters>
          </Trackpoint>
          <Trackpoint>
            <Time>2022-09-18T12:20:18.000Z</Time>
            <Position>
              <LatitudeDegrees>49.36807486228644847869873046875</LatitudeDegrees>
              <LongitudeDegrees>20.00876334495842456817626953125</LongitudeDegrees>
            </Position>
            <AltitudeMeters>715.5999755859375</AltitudeMeters>
            <DistanceMeters>12555.959600717</DistanceMeters>
          </Trackpoint>
          <Trackpoint>
            <Time>2022-09-18T12:20:26.000Z</Time>
            <Position>
              <LatitudeDegrees>49.367887862026691436767578125</LatitudeDegrees>
              <LongitudeDegrees>20.00853552483022212982177734375</LongitudeDegrees>
            </Position>
            <AltitudeMeters>716</AltitudeMeters>
            <DistanceMeters>12582.527683363</DistanceMeters>
          </Trackpoint>
          <Trackpoint>
            <Time>2022-09-18T12:20:32.000Z</Time>
            <Position>
              <LatitudeDegrees>49.3678018637001514434814453125</LatitudeDegrees>
              <LongitudeDegrees>20.00836989842355251312255859375</LongitudeDegrees>
            </Position>
            <AltitudeMeters>715.79998779296875</AltitudeMeters>
            <DistanceMeters>12597.880895258</DistanceMeters>
          </Trackpoint>
          <Trackpoint>
            <Time>2022-09-18T12:20:37.000Z</Time>
            <Position>
              <LatitudeDegrees>49.36773505993187427520751953125</LatitudeDegrees>
              <LongitudeDegrees>20.0082665495574474334716796875</LongitudeDegrees>
            </Position>
            <AltitudeMeters>716</AltitudeMeters>
            <DistanceMeters>12608.435279324</DistanceMeters>
          </Trackpoint>
          <Trackpoint>
            <Time>2022-09-18T12:20:42.000Z</Time>
            <Position>
              <LatitudeDegrees>49.36765342019498348236083984375</LatitudeDegrees>
              <LongitudeDegrees>20.00813034363090991973876953125</LongitudeDegrees>
            </Position>
            <AltitudeMeters>716.20001220703125</AltitudeMeters>
            <DistanceMeters>12621.852566829</DistanceMeters>
          </Trackpoint>
          <Trackpoint>
            <Time>2022-09-18T12:20:45.000Z</Time>
            <Position>
              <LatitudeDegrees>49.367604553699493408203125</LatitudeDegrees>
              <LongitudeDegrees>20.0080710835754871368408203125</LongitudeDegrees>
            </Position>
            <AltitudeMeters>716</AltitudeMeters>
            <DistanceMeters>12628.782353732</DistanceMeters>
          </Trackpoint>
          <Trackpoint>
            <Time>2022-09-18T12:20:49.000Z</Time>
            <Position>
              <LatitudeDegrees>49.36753104440867900848388671875</LatitudeDegrees>
              <LongitudeDegrees>20.00800629146397113800048828125</LongitudeDegrees>
            </Position>
            <AltitudeMeters>716.20001220703125</AltitudeMeters>
            <DistanceMeters>12638.215879232</DistanceMeters>
          </Trackpoint>
          <Trackpoint>
            <Time>2022-09-18T12:20:52.000Z</Time>
            <Position>
              <LatitudeDegrees>49.367467425763607025146484375</LatitudeDegrees>
              <LongitudeDegrees>20.00797527842223644256591796875</LongitudeDegrees>
            </Position>
            <AltitudeMeters>716.4000244140625</AltitudeMeters>
            <DistanceMeters>12645.644999451</DistanceMeters>
          </Trackpoint>
          <Trackpoint>
            <Time>2022-09-18T12:20:54.000Z</Time>
            <Position>
              <LatitudeDegrees>49.3674313835799694061279296875</LatitudeDegrees>
              <LongitudeDegrees>20.00796438194811344146728515625</LongitudeDegrees>
            </Position>
            <AltitudeMeters>716.79998779296875</AltitudeMeters>
            <DistanceMeters>12649.732252981</DistanceMeters>
          </Trackpoint>
          <Trackpoint>
            <Time>2022-09-18T12:21:00.000Z</Time>
            <Position>
              <LatitudeDegrees>49.367303811013698577880859375</LatitudeDegrees>
              <LongitudeDegrees>20.0078809820115566253662109375</LongitudeDegrees>
            </Position>
            <AltitudeMeters>717.4000244140625</AltitudeMeters>
            <DistanceMeters>12665.164661612</DistanceMeters>
          </Trackpoint>
          <Trackpoint>
            <Time>2022-09-18T12:21:04.000Z</Time>
            <Position>
              <LatitudeDegrees>49.367236085236072540283203125</LatitudeDegrees>
              <LongitudeDegrees>20.00784351490437984466552734375</LongitudeDegrees>
            </Position>
            <AltitudeMeters>717.5999755859375</AltitudeMeters>
            <DistanceMeters>12673.177391703</DistanceMeters>
          </Trackpoint>
          <Trackpoint>
            <Time>2022-09-18T12:21:06.000Z</Time>
            <Position>
              <LatitudeDegrees>49.3671987019479274749755859375</LatitudeDegrees>
              <LongitudeDegrees>20.0078268349170684814453125</LongitudeDegrees>
            </Position>
            <AltitudeMeters>717.79998779296875</AltitudeMeters>
            <DistanceMeters>12677.509192581</DistanceMeters>
          </Trackpoint>
          <Trackpoint>
            <Time>2022-09-18T12:21:08.000Z</Time>
            <Position>
              <LatitudeDegrees>49.36715058982372283935546875</LatitudeDegrees>
              <LongitudeDegrees>20.007799006998538970947265625</LongitudeDegrees>
            </Position>
            <AltitudeMeters>718</AltitudeMeters>
            <DistanceMeters>12683.231347524</DistanceMeters>
          </Trackpoint>
          <Trackpoint>
            <Time>2022-09-18T12:21:09.000Z</Time>
            <Position>
              <LatitudeDegrees>49.36712519265711307525634765625</LatitudeDegrees>
              <LongitudeDegrees>20.00778266228735446929931640625</LongitudeDegrees>
            </Position>
            <AltitudeMeters>718</AltitudeMeters>
            <DistanceMeters>12686.295866981</DistanceMeters>
          </Trackpoint>
          <Trackpoint>
            <Time>2022-09-18T12:21:13.000Z</Time>
            <Position>
              <LatitudeDegrees>49.36703869141638278961181640625</LatitudeDegrees>
              <LongitudeDegrees>20.00773496925830841064453125</LongitudeDegrees>
            </Position>
            <AltitudeMeters>718.20001220703125</AltitudeMeters>
            <DistanceMeters>12696.525262165</DistanceMeters>
          </Trackpoint>
          <Trackpoint>
            <Time>2022-09-18T12:21:14.000Z</Time>
            <Position>
              <LatitudeDegrees>49.3670236878097057342529296875</LatitudeDegrees>
              <LongitudeDegrees>20.00771887600421905517578125</LongitudeDegrees>
            </Position>
            <AltitudeMeters>718.4000244140625</AltitudeMeters>
            <DistanceMeters>12698.55892266</DistanceMeters>
          </Trackpoint>
          <Trackpoint>
            <Time>2022-09-18T12:21:15.000Z</Time>
            <Position>
              <LatitudeDegrees>49.36701186932623386383056640625</LatitudeDegrees>
              <LongitudeDegrees>20.00770286656916141510009765625</LongitudeDegrees>
            </Position>
            <AltitudeMeters>718.4000244140625</AltitudeMeters>
            <DistanceMeters>12700.311128696</DistanceMeters>
          </Trackpoint>
          <Trackpoint>
            <Time>2022-09-18T12:21:18.000Z</Time>
            <Position>
              <LatitudeDegrees>49.36694330535829067230224609375</LatitudeDegrees>
              <LongitudeDegrees>20.0076580233871936798095703125</LongitudeDegrees>
            </Position>
            <AltitudeMeters>718.79998779296875</AltitudeMeters>
            <DistanceMeters>12708.606258743</DistanceMeters>
          </Trackpoint>
          <Trackpoint>
            <Time>2022-09-18T12:21:22.000Z</Time>
            <Position>
              <LatitudeDegrees>49.3668480031192302703857421875</LatitudeDegrees>
              <LongitudeDegrees>20.00761569477617740631103515625</LongitudeDegrees>
            </Position>
            <AltitudeMeters>719</AltitudeMeters>
            <DistanceMeters>12719.648591931</DistanceMeters>
          </Trackpoint>
          <Trackpoint>
            <Time>2022-09-18T12:21:28.000Z</Time>
            <Position>
              <LatitudeDegrees>49.3667269684374332427978515625</LatitudeDegrees>
              <LongitudeDegrees>20.00754109583795070648193359375</LongitudeDegrees>
            </Position>
            <AltitudeMeters>718.4000244140625</AltitudeMeters>
            <DistanceMeters>12734.164369683</DistanceMeters>
          </Trackpoint>
          <Trackpoint>
            <Time>2022-09-18T12:21:36.000Z</Time>
            <Position>
              <LatitudeDegrees>49.36658070422708988189697265625</LatitudeDegrees>
              <LongitudeDegrees>20.00741151161491870880126953125</LongitudeDegrees>
            </Position>
            <AltitudeMeters>718.5999755859375</AltitudeMeters>
            <DistanceMeters>12752.959010683</DistanceMeters>
          </Trackpoint>
          <Trackpoint>
            <Time>2022-09-18T12:21:40.000Z</Time>
            <Position>
              <LatitudeDegrees>49.366503842175006866455078125</LatitudeDegrees>
              <LongitudeDegrees>20.00734780915081501007080078125</LongitudeDegrees>
            </Position>
            <AltitudeMeters>718.5999755859375</AltitudeMeters>
            <DistanceMeters>12762.679644403</DistanceMeters>
          </Trackpoint>
          <Trackpoint>
            <Time>2022-09-18T12:21:43.000Z</Time>
            <Position>
              <LatitudeDegrees>49.3664453364908695220947265625</LatitudeDegrees>
              <LongitudeDegrees>20.0073304586112499237060546875</LongitudeDegrees>
            </Position>
            <AltitudeMeters>719</AltitudeMeters>
            <DistanceMeters>12769.311120278</DistanceMeters>
          </Trackpoint>
          <Trackpoint>
            <Time>2022-09-18T12:21:49.000Z</Time>
            <Position>
              <LatitudeDegrees>49.366319440305233001708984375</LatitudeDegrees>
              <LongitudeDegrees>20.00726181082427501678466796875</LongitudeDegrees>
            </Position>
            <AltitudeMeters>719.4000244140625</AltitudeMeters>
            <DistanceMeters>12784.180903457</DistanceMeters>
          </Trackpoint>
          <Trackpoint>
            <Time>2022-09-18T12:21:55.000Z</Time>
            <Position>
              <LatitudeDegrees>49.36620921827852725982666015625</LatitudeDegrees>
              <LongitudeDegrees>20.00721235759556293487548828125</LongitudeDegrees>
            </Position>
            <AltitudeMeters>719</AltitudeMeters>
            <DistanceMeters>12796.961908225</DistanceMeters>
          </Trackpoint>
          <Trackpoint>
            <Time>2022-09-18T12:22:02.000Z</Time>
            <Position>
              <LatitudeDegrees>49.366059601306915283203125</LatitudeDegrees>
              <LongitudeDegrees>20.0071651674807071685791015625</LongitudeDegrees>
            </Position>
            <AltitudeMeters>719.4000244140625</AltitudeMeters>
            <DistanceMeters>12813.961866064</DistanceMeters>
          </Trackpoint>
          <Trackpoint>
            <Time>2022-09-18T12:22:06.000Z</Time>
            <Position>
              <LatitudeDegrees>49.365982823073863983154296875</LatitudeDegrees>
              <LongitudeDegrees>20.00711294822394847869873046875</LongitudeDegrees>
            </Position>
            <AltitudeMeters>719.5999755859375</AltitudeMeters>
            <DistanceMeters>12823.308360568</DistanceMeters>
          </Trackpoint>
          <Trackpoint>
            <Time>2022-09-18T12:22:11.000Z</Time>
            <Position>
              <LatitudeDegrees>49.3658938072621822357177734375</LatitudeDegrees>
              <LongitudeDegrees>20.00702979974448680877685546875</LongitudeDegrees>
            </Position>
            <AltitudeMeters>719.4000244140625</AltitudeMeters>
            <DistanceMeters>12834.905513604</DistanceMeters>
          </Trackpoint>
          <Trackpoint>
            <Time>2022-09-18T12:22:12.000Z</Time>
            <Position>
              <LatitudeDegrees>49.3658740259706974029541015625</LatitudeDegrees>
              <LongitudeDegrees>20.00701236538589000701904296875</LongitudeDegrees>
            </Position>
            <AltitudeMeters>719.20001220703125</AltitudeMeters>
            <DistanceMeters>12837.444701384</DistanceMeters>
          </Trackpoint>
          <Trackpoint>
            <Time>2022-09-18T12:22:17.000Z</Time>
            <Position>
              <LatitudeDegrees>49.3657999299466609954833984375</LatitudeDegrees>
              <LongitudeDegrees>20.006905160844326019287109375</LongitudeDegrees>
            </Position>
            <AltitudeMeters>719</AltitudeMeters>
            <DistanceMeters>12848.775616038</DistanceMeters>
          </Trackpoint>
          <Trackpoint>
            <Time>2022-09-18T12:22:28.000Z</Time>
            <Position>
              <LatitudeDegrees>49.3656208924949169158935546875</LatitudeDegrees>
              <LongitudeDegrees>20.00674230046570301055908203125</LongitudeDegrees>
            </Position>
            <AltitudeMeters>719.5999755859375</AltitudeMeters>
            <DistanceMeters>12871.936806016</DistanceMeters>
          </Trackpoint>
          <Trackpoint>
            <Time>2022-09-18T12:22:36.000Z</Time>
            <Position>
              <LatitudeDegrees>49.365532211959362030029296875</LatitudeDegrees>
              <LongitudeDegrees>20.0066723115742206573486328125</LongitudeDegrees>
            </Position>
            <AltitudeMeters>719.20001220703125</AltitudeMeters>
            <DistanceMeters>12883.035015002</DistanceMeters>
          </Trackpoint>
          <Trackpoint>
            <Time>2022-09-18T12:22:43.000Z</Time>
            <Position>
              <LatitudeDegrees>49.3655038811266422271728515625</LatitudeDegrees>
              <LongitudeDegrees>20.0066394545137882232666015625</LongitudeDegrees>
            </Position>
            <AltitudeMeters>719.79998779296875</AltitudeMeters>
            <DistanceMeters>12886.987486665</DistanceMeters>
          </Trackpoint>
          <Trackpoint>
            <Time>2022-09-18T12:22:47.000Z</Time>
            <Position>
              <LatitudeDegrees>49.36543238349258899688720703125</LatitudeDegrees>
              <LongitudeDegrees>20.0066223554313182830810546875</LongitudeDegrees>
            </Position>
            <AltitudeMeters>719.79998779296875</AltitudeMeters>
            <DistanceMeters>12895.041806573</DistanceMeters>
          </Trackpoint>
          <Trackpoint>
            <Time>2022-09-18T12:22:48.000Z</Time>
            <Position>
              <LatitudeDegrees>49.36540841124951839447021484375</LatitudeDegrees>
              <LongitudeDegrees>20.006605423986911773681640625</LongitudeDegrees>
            </Position>
            <AltitudeMeters>719.79998779296875</AltitudeMeters>
            <DistanceMeters>12897.978424186</DistanceMeters>
          </Trackpoint>
          <Trackpoint>
            <Time>2022-09-18T12:22:50.000Z</Time>
            <Position>
              <LatitudeDegrees>49.36535459943115711212158203125</LatitudeDegrees>
              <LongitudeDegrees>20.0065868161618709564208984375</LongitudeDegrees>
            </Position>
            <AltitudeMeters>719.79998779296875</AltitudeMeters>
            <DistanceMeters>12904.117767724</DistanceMeters>
          </Trackpoint>
          <Trackpoint>
            <Time>2022-09-18T12:22:54.000Z</Time>
            <Position>
              <LatitudeDegrees>49.3652785755693912506103515625</LatitudeDegrees>
              <LongitudeDegrees>20.00658170320093631744384765625</LongitudeDegrees>
            </Position>
            <AltitudeMeters>719.79998779296875</AltitudeMeters>
            <DistanceMeters>12912.587415135</DistanceMeters>
          </Trackpoint>
          <Trackpoint>
            <Time>2022-09-18T12:22:58.000Z</Time>
            <Position>
              <LatitudeDegrees>49.36518478207290172576904296875</LatitudeDegrees>
              <LongitudeDegrees>20.0065435655415058135986328125</LongitudeDegrees>
            </Position>
            <AltitudeMeters>719.79998779296875</AltitudeMeters>
            <DistanceMeters>12923.386648315</DistanceMeters>
          </Trackpoint>
          <Trackpoint>
            <Time>2022-09-18T12:23:00.000Z</Time>
            <Position>
              <LatitudeDegrees>49.36513918451964855194091796875</LatitudeDegrees>
              <LongitudeDegrees>20.006505511701107025146484375</LongitudeDegrees>
            </Position>
            <AltitudeMeters>719.79998779296875</AltitudeMeters>
            <DistanceMeters>12929.162990796</DistanceMeters>
          </Trackpoint>
          <Trackpoint>
            <Time>2022-09-18T12:23:04.000Z</Time>
            <Position>
              <LatitudeDegrees>49.36505821533501148223876953125</LatitudeDegrees>
              <LongitudeDegrees>20.0064674578607082366943359375</LongitudeDegrees>
            </Position>
            <AltitudeMeters>720</AltitudeMeters>
            <DistanceMeters>12938.587418201</DistanceMeters>
          </Trackpoint>
          <Trackpoint>
            <Time>2022-09-18T12:23:06.000Z</Time>
            <Position>
              <LatitudeDegrees>49.36502133496105670928955078125</LatitudeDegrees>
              <LongitudeDegrees>20.006439797580242156982421875</LongitudeDegrees>
            </Position>
            <AltitudeMeters>720</AltitudeMeters>
            <DistanceMeters>12943.156612521</DistanceMeters>
          </Trackpoint>
          <Trackpoint>
            <Time>2022-09-18T12:23:11.000Z</Time>
            <Position>
              <LatitudeDegrees>49.364883787930011749267578125</LatitudeDegrees>
              <LongitudeDegrees>20.00636829994618892669677734375</LongitudeDegrees>
            </Position>
            <AltitudeMeters>720</AltitudeMeters>
            <DistanceMeters>12959.319536499</DistanceMeters>
          </Trackpoint>
          <Trackpoint>
            <Time>2022-09-18T12:23:18.000Z</Time>
            <Position>
              <LatitudeDegrees>49.3646777607500553131103515625</LatitudeDegrees>
              <LongitudeDegrees>20.00622329302132129669189453125</LongitudeDegrees>
            </Position>
            <AltitudeMeters>719.4000244140625</AltitudeMeters>
            <DistanceMeters>12984.544968047</DistanceMeters>
          </Trackpoint>
          <Trackpoint>
            <Time>2022-09-18T12:23:25.000Z</Time>
            <Position>
              <LatitudeDegrees>49.36456720344722270965576171875</LatitudeDegrees>
              <LongitudeDegrees>20.006099827587604522705078125</LongitudeDegrees>
            </Position>
            <AltitudeMeters>720.20001220703125</AltitudeMeters>
            <DistanceMeters>12999.760522584</DistanceMeters>
          </Trackpoint>
          <Trackpoint>
            <Time>2022-09-18T12:23:33.000Z</Time>
            <Position>
              <LatitudeDegrees>49.364411719143390655517578125</LatitudeDegrees>
              <LongitudeDegrees>20.00597250647842884063720703125</LongitudeDegrees>
            </Position>
            <AltitudeMeters>720.5999755859375</AltitudeMeters>
            <DistanceMeters>13019.373124815</DistanceMeters>
          </Trackpoint>
          <Trackpoint>
            <Time>2022-09-18T12:23:39.000Z</Time>
            <Position>
              <LatitudeDegrees>49.3642807938158512115478515625</LatitudeDegrees>
              <LongitudeDegrees>20.00583856366574764251708984375</LongitudeDegrees>
            </Position>
            <AltitudeMeters>720.79998779296875</AltitudeMeters>
            <DistanceMeters>13036.88358585</DistanceMeters>
          </Trackpoint>
          <Trackpoint>
            <Time>2022-09-18T12:23:41.000Z</Time>
            <Position>
              <LatitudeDegrees>49.364245422184467315673828125</LatitudeDegrees>
              <LongitudeDegrees>20.00580855645239353179931640625</LongitudeDegrees>
            </Position>
            <AltitudeMeters>721</AltitudeMeters>
            <DistanceMeters>13041.38107084</DistanceMeters>
          </Trackpoint>
          <Trackpoint>
            <Time>2022-09-18T12:23:46.000Z</Time>
            <Position>
              <LatitudeDegrees>49.36418280936777591705322265625</LatitudeDegrees>
              <LongitudeDegrees>20.00575692392885684967041015625</LongitudeDegrees>
            </Position>
            <AltitudeMeters>721.4000244140625</AltitudeMeters>
            <DistanceMeters>13049.290582178</DistanceMeters>
          </Trackpoint>
          <Trackpoint>
            <Time>2022-09-18T12:23:54.000Z</Time>
            <Position>
              <LatitudeDegrees>49.36404232867062091827392578125</LatitudeDegrees>
              <LongitudeDegrees>20.00564041547477245330810546875</LongitudeDegrees>
            </Position>
            <AltitudeMeters>721.20001220703125</AltitudeMeters>
            <DistanceMeters>13067.061085922</DistanceMeters>
          </Trackpoint>
          <Trackpoint>
            <Time>2022-09-18T12:24:01.000Z</Time>
            <Position>
              <LatitudeDegrees>49.3639036081731319427490234375</LatitudeDegrees>
              <LongitudeDegrees>20.00552407465875148773193359375</LongitudeDegrees>
            </Position>
            <AltitudeMeters>720.79998779296875</AltitudeMeters>
            <DistanceMeters>13084.653608199</DistanceMeters>
          </Trackpoint>
          <Trackpoint>
            <Time>2022-09-18T12:24:04.000Z</Time>
            <Position>
              <LatitudeDegrees>49.36385524459183216094970703125</LatitudeDegrees>
              <LongitudeDegrees>20.00548459589481353759765625</LongitudeDegrees>
            </Position>
            <AltitudeMeters>721</AltitudeMeters>
            <DistanceMeters>13090.750147762</DistanceMeters>
          </Trackpoint>
          <Trackpoint>
            <Time>2022-09-18T12:24:06.000Z</Time>
            <Position>
              <LatitudeDegrees>49.3638212978839874267578125</LatitudeDegrees>
              <LongitudeDegrees>20.0054638087749481201171875</LongitudeDegrees>
            </Position>
            <AltitudeMeters>721</AltitudeMeters>
            <DistanceMeters>13094.817468753</DistanceMeters>
          </Trackpoint>
          <Trackpoint>
            <Time>2022-09-18T12:24:07.000Z</Time>
            <Position>
              <LatitudeDegrees>49.3637990020215511322021484375</LatitudeDegrees>
              <LongitudeDegrees>20.00545852817595005035400390625</LongitudeDegrees>
            </Position>
            <AltitudeMeters>721</AltitudeMeters>
            <DistanceMeters>13097.328045053</DistanceMeters>
          </Trackpoint>
          <Trackpoint>
            <Time>2022-09-18T12:24:16.000Z</Time>
            <Position>
              <LatitudeDegrees>49.36361384578049182891845703125</LatitudeDegrees>
              <LongitudeDegrees>20.005366243422031402587890625</LongitudeDegrees>
            </Position>
            <AltitudeMeters>721.5999755859375</AltitudeMeters>
            <DistanceMeters>13118.994761096</DistanceMeters>
          </Trackpoint>
          <Trackpoint>
            <Time>2022-09-18T12:24:21.000Z</Time>
            <Position>
              <LatitudeDegrees>49.363498426973819732666015625</LatitudeDegrees>
              <LongitudeDegrees>20.00532441772520542144775390625</LongitudeDegrees>
            </Position>
            <AltitudeMeters>722</AltitudeMeters>
            <DistanceMeters>13132.193899887</DistanceMeters>
          </Trackpoint>
          <Trackpoint>
            <Time>2022-09-18T12:24:23.000Z</Time>
            <Position>
              <LatitudeDegrees>49.3634493090212345123291015625</LatitudeDegrees>
              <LongitudeDegrees>20.00531033612787723541259765625</LongitudeDegrees>
            </Position>
            <AltitudeMeters>722.20001220703125</AltitudeMeters>
            <DistanceMeters>13137.756007572</DistanceMeters>
          </Trackpoint>
          <Trackpoint>
            <Time>2022-09-18T12:24:29.000Z</Time>
            <Position>
              <LatitudeDegrees>49.3633143603801727294921875</LatitudeDegrees>
              <LongitudeDegrees>20.00528871081769466400146484375</LongitudeDegrees>
            </Position>
            <AltitudeMeters>722.20001220703125</AltitudeMeters>
            <DistanceMeters>13152.857782655</DistanceMeters>
          </Trackpoint>
          <Trackpoint>
            <Time>2022-09-18T12:24:34.000Z</Time>
            <Position>
              <LatitudeDegrees>49.363195337355136871337890625</LatitudeDegrees>
              <LongitudeDegrees>20.0052799098193645477294921875</LongitudeDegrees>
            </Position>
            <AltitudeMeters>722.4000244140625</AltitudeMeters>
            <DistanceMeters>13166.120734406</DistanceMeters>
          </Trackpoint>
          <Trackpoint>
            <Time>2022-09-18T12:24:39.000Z</Time>
            <Position>
              <LatitudeDegrees>49.36309550888836383819580078125</LatitudeDegrees>
              <LongitudeDegrees>20.0052584521472454071044921875</LongitudeDegrees>
            </Position>
            <AltitudeMeters>722.4000244140625</AltitudeMeters>
            <DistanceMeters>13177.340327341</DistanceMeters>
          </Trackpoint>
          <Trackpoint>
            <Time>2022-09-18T12:24:45.000Z</Time>
            <Position>
              <LatitudeDegrees>49.36297883279621601104736328125</LatitudeDegrees>
              <LongitudeDegrees>20.0052329711616039276123046875</LongitudeDegrees>
            </Position>
            <AltitudeMeters>722.20001220703125</AltitudeMeters>
            <DistanceMeters>13190.457112255</DistanceMeters>
          </Trackpoint>
          <Trackpoint>
            <Time>2022-09-18T12:24:46.000Z</Time>
            <Position>
              <LatitudeDegrees>49.36295201070606708526611328125</LatitudeDegrees>
              <LongitudeDegrees>20.005224756896495819091796875</LongitudeDegrees>
            </Position>
            <AltitudeMeters>722.20001220703125</AltitudeMeters>
            <DistanceMeters>13193.500935251</DistanceMeters>
          </Trackpoint>
          <Trackpoint>
            <Time>2022-09-18T12:24:54.000Z</Time>
            <Position>
              <LatitudeDegrees>49.36277381144464015960693359375</LatitudeDegrees>
              <LongitudeDegrees>20.005192570388317108154296875</LongitudeDegrees>
            </Position>
            <AltitudeMeters>722</AltitudeMeters>
            <DistanceMeters>13213.471698539</DistanceMeters>
          </Trackpoint>
          <Trackpoint>
            <Time>2022-09-18T12:25:01.000Z</Time>
            <Position>
              <LatitudeDegrees>49.362603910267353057861328125</LatitudeDegrees>
              <LongitudeDegrees>20.00510908663272857666015625</LongitudeDegrees>
            </Position>
            <AltitudeMeters>721.79998779296875</AltitudeMeters>
            <DistanceMeters>13233.326597613</DistanceMeters>
          </Trackpoint>
          <Trackpoint>
            <Time>2022-09-18T12:25:04.000Z</Time>
            <Position>
              <LatitudeDegrees>49.36253308318555355072021484375</LatitudeDegrees>
              <LongitudeDegrees>20.00507111661136150360107421875</LongitudeDegrees>
            </Position>
            <AltitudeMeters>722</AltitudeMeters>
            <DistanceMeters>13241.676520979</DistanceMeters>
          </Trackpoint>
          <Trackpoint>
            <Time>2022-09-18T12:25:06.000Z</Time>
            <Position>
              <LatitudeDegrees>49.3624810315668582916259765625</LatitudeDegrees>
              <LongitudeDegrees>20.00504672527313232421875</LongitudeDegrees>
            </Position>
            <AltitudeMeters>722.20001220703125</AltitudeMeters>
            <DistanceMeters>13247.732936628</DistanceMeters>
          </Trackpoint>
          <Trackpoint>
            <Time>2022-09-18T12:25:12.000Z</Time>
            <Position>
              <LatitudeDegrees>49.3623392097651958465576171875</LatitudeDegrees>
              <LongitudeDegrees>20.0049600563943386077880859375</LongitudeDegrees>
            </Position>
            <AltitudeMeters>723</AltitudeMeters>
            <DistanceMeters>13264.7222675</DistanceMeters>
          </Trackpoint>
          <Trackpoint>
            <Time>2022-09-18T12:25:14.000Z</Time>
            <Position>
              <LatitudeDegrees>49.3622882477939128875732421875</LatitudeDegrees>
              <LongitudeDegrees>20.00493348576128482818603515625</LongitudeDegrees>
            </Position>
            <AltitudeMeters>722.79998779296875</AltitudeMeters>
            <DistanceMeters>13270.712720219</DistanceMeters>
          </Trackpoint>
          <Trackpoint>
            <Time>2022-09-18T12:25:22.000Z</Time>
            <Position>
              <LatitudeDegrees>49.362109042704105377197265625</LatitudeDegrees>
              <LongitudeDegrees>20.00490062870085239410400390625</LongitudeDegrees>
            </Position>
            <AltitudeMeters>722.4000244140625</AltitudeMeters>
            <DistanceMeters>13290.800028049</DistanceMeters>
          </Trackpoint>
          <Trackpoint>
            <Time>2022-09-18T12:25:30.000Z</Time>
            <Position>
              <LatitudeDegrees>49.3619328550994396209716796875</LatitudeDegrees>
              <LongitudeDegrees>20.004939101636409759521484375</LongitudeDegrees>
            </Position>
            <AltitudeMeters>722</AltitudeMeters>
            <DistanceMeters>13310.607343143</DistanceMeters>
          </Trackpoint>
          <Trackpoint>
            <Time>2022-09-18T12:25:31.000Z</Time>
            <Position>
              <LatitudeDegrees>49.36190075241029262542724609375</LatitudeDegrees>
              <LongitudeDegrees>20.00494974665343761444091796875</LongitudeDegrees>
            </Position>
            <AltitudeMeters>721.79998779296875</AltitudeMeters>
            <DistanceMeters>13314.263093837</DistanceMeters>
          </Trackpoint>
          <Trackpoint>
            <Time>2022-09-18T12:25:37.000Z</Time>
            <Position>
              <LatitudeDegrees>49.36178751289844512939453125</LatitudeDegrees>
              <LongitudeDegrees>20.00496500171720981597900390625</LongitudeDegrees>
            </Position>
            <AltitudeMeters>721.79998779296875</AltitudeMeters>
            <DistanceMeters>13326.915571666</DistanceMeters>
          </Trackpoint>
          <Trackpoint>
            <Time>2022-09-18T12:25:43.000Z</Time>
            <Position>
              <LatitudeDegrees>49.361640326678752899169921875</LatitudeDegrees>
              <LongitudeDegrees>20.00496692955493927001953125</LongitudeDegrees>
            </Position>
            <AltitudeMeters>722</AltitudeMeters>
            <DistanceMeters>13343.298243367</DistanceMeters>
          </Trackpoint>
          <Trackpoint>
            <Time>2022-09-18T12:25:49.000Z</Time>
            <Position>
              <LatitudeDegrees>49.3615586869418621063232421875</LatitudeDegrees>
              <LongitudeDegrees>20.00494237057864665985107421875</LongitudeDegrees>
            </Position>
            <AltitudeMeters>722.20001220703125</AltitudeMeters>
            <DistanceMeters>13352.557376467</DistanceMeters>
          </Trackpoint>
          <Trackpoint>
            <Time>2022-09-18T12:25:57.000Z</Time>
            <Position>
              <LatitudeDegrees>49.36150831170380115509033203125</LatitudeDegrees>
              <LongitudeDegrees>20.0049010477960109710693359375</LongitudeDegrees>
            </Position>
            <AltitudeMeters>722.20001220703125</AltitudeMeters>
            <DistanceMeters>13358.91352011</DistanceMeters>
          </Trackpoint>
          <Trackpoint>
            <Time>2022-09-18T12:26:06.000Z</Time>
            <Position>
              <LatitudeDegrees>49.36150831170380115509033203125</LatitudeDegrees>
              <LongitudeDegrees>20.0049010477960109710693359375</LongitudeDegrees>
            </Position>
            <AltitudeMeters>722.79998779296875</AltitudeMeters>
            <DistanceMeters>13358.91352011</DistanceMeters>
          </Trackpoint>
          <Trackpoint>
            <Time>2022-09-18T12:26:14.000Z</Time>
            <Position>
              <LatitudeDegrees>49.36150831170380115509033203125</LatitudeDegrees>
              <LongitudeDegrees>20.0049010477960109710693359375</LongitudeDegrees>
            </Position>
            <AltitudeMeters>723</AltitudeMeters>
            <DistanceMeters>13358.91352011</DistanceMeters>
          </Trackpoint>
          <Trackpoint>
            <Time>2022-09-18T12:26:31.000Z</Time>
            <Position>
              <LatitudeDegrees>49.361467994749546051025390625</LatitudeDegrees>
              <LongitudeDegrees>20.004877410829067230224609375</LongitudeDegrees>
            </Position>
            <AltitudeMeters>722.5999755859375</AltitudeMeters>
            <DistanceMeters>13363.716836184</DistanceMeters>
          </Trackpoint>
          <Trackpoint>
            <Time>2022-09-18T12:26:32.000Z</Time>
            <Position>
              <LatitudeDegrees>49.36144963838160037994384765625</LatitudeDegrees>
              <LongitudeDegrees>20.00486827455461025238037109375</LongitudeDegrees>
            </Position>
            <AltitudeMeters>722.5999755859375</AltitudeMeters>
            <DistanceMeters>13365.867045276</DistanceMeters>
          </Trackpoint>
          <Trackpoint>
            <Time>2022-09-18T12:26:33.000Z</Time>
            <Position>
              <LatitudeDegrees>49.36142667196691036224365234375</LatitudeDegrees>
              <LongitudeDegrees>20.0048683583736419677734375</LongitudeDegrees>
            </Position>
            <AltitudeMeters>722.5999755859375</AltitudeMeters>
            <DistanceMeters>13368.423952655</DistanceMeters>
          </Trackpoint>
          <Trackpoint>
            <Time>2022-09-18T12:26:36.000Z</Time>
            <Position>
              <LatitudeDegrees>49.36137042939662933349609375</LatitudeDegrees>
              <LongitudeDegrees>20.00490884296596050262451171875</LongitudeDegrees>
            </Position>
            <AltitudeMeters>722.5999755859375</AltitudeMeters>
            <DistanceMeters>13375.337431853</DistanceMeters>
          </Trackpoint>
          <Trackpoint>
            <Time>2022-09-18T12:26:40.000Z</Time>
            <Position>
              <LatitudeDegrees>49.3612931482493877410888671875</LatitudeDegrees>
              <LongitudeDegrees>20.0049622356891632080078125</LongitudeDegrees>
            </Position>
            <AltitudeMeters>722.5999755859375</AltitudeMeters>
            <DistanceMeters>13384.769521395</DistanceMeters>
          </Trackpoint>
          <Trackpoint>
            <Time>2022-09-18T12:26:43.000Z</Time>
            <Position>
              <LatitudeDegrees>49.3612244166433811187744140625</LatitudeDegrees>
              <LongitudeDegrees>20.00499098561704158782958984375</LongitudeDegrees>
            </Position>
            <AltitudeMeters>722.20001220703125</AltitudeMeters>
            <DistanceMeters>13392.698417422</DistanceMeters>
          </Trackpoint>
          <Trackpoint>
            <Time>2022-09-18T12:26:49.000Z</Time>
            <Position>
              <LatitudeDegrees>49.36108686961233615875244140625</LatitudeDegrees>
              <LongitudeDegrees>20.0050217472016811370849609375</LongitudeDegrees>
            </Position>
            <AltitudeMeters>722.20001220703125</AltitudeMeters>
            <DistanceMeters>13408.169396907</DistanceMeters>
          </Trackpoint>
          <Trackpoint>
            <Time>2022-09-18T12:26:56.000Z</Time>
            <Position>
              <LatitudeDegrees>49.360939599573612213134765625</LatitudeDegrees>
              <LongitudeDegrees>20.005050413310527801513671875</LongitudeDegrees>
            </Position>
            <AltitudeMeters>722.5999755859375</AltitudeMeters>
            <DistanceMeters>13424.692025967</DistanceMeters>
          </Trackpoint>
          <Trackpoint>
            <Time>2022-09-18T12:27:01.000Z</Time>
            <Position>
              <LatitudeDegrees>49.3608264438807964324951171875</LatitudeDegrees>
              <LongitudeDegrees>20.00509927980601787567138671875</LongitudeDegrees>
            </Position>
            <AltitudeMeters>722.5999755859375</AltitudeMeters>
            <DistanceMeters>13437.775379095</DistanceMeters>
          </Trackpoint>
          <Trackpoint>
            <Time>2022-09-18T12:27:06.000Z</Time>
            <Position>
              <LatitudeDegrees>49.3607211671769618988037109375</LatitudeDegrees>
              <LongitudeDegrees>20.005118139088153839111328125</LongitudeDegrees>
            </Position>
            <AltitudeMeters>722.4000244140625</AltitudeMeters>
            <DistanceMeters>13449.572477812</DistanceMeters>
          </Trackpoint>
          <Trackpoint>
            <Time>2022-09-18T12:27:07.000Z</Time>
            <Position>
              <LatitudeDegrees>49.36069593764841556549072265625</LatitudeDegrees>
              <LongitudeDegrees>20.00512383878231048583984375</LongitudeDegrees>
            </Position>
            <AltitudeMeters>722.20001220703125</AltitudeMeters>
            <DistanceMeters>13452.412171152</DistanceMeters>
          </Trackpoint>
          <Trackpoint>
            <Time>2022-09-18T12:27:16.000Z</Time>
            <Position>
              <LatitudeDegrees>49.36047716997563838958740234375</LatitudeDegrees>
              <LongitudeDegrees>20.00515962950885295867919921875</LongitudeDegrees>
            </Position>
            <AltitudeMeters>722.79998779296875</AltitudeMeters>
            <DistanceMeters>13476.899395701</DistanceMeters>
          </Trackpoint>
          <Trackpoint>
            <Time>2022-09-18T12:27:25.000Z</Time>
            <Position>
              <LatitudeDegrees>49.36028824187815189361572265625</LatitudeDegrees>
              <LongitudeDegrees>20.00519223511219024658203125</LongitudeDegrees>
            </Position>
            <AltitudeMeters>723.5999755859375</AltitudeMeters>
            <DistanceMeters>13498.059862864</DistanceMeters>
          </Trackpoint>
          <Trackpoint>
            <Time>2022-09-18T12:27:30.000Z</Time>
            <Position>
              <LatitudeDegrees>49.36017139814794063568115234375</LatitudeDegrees>
              <LongitudeDegrees>20.005224086344242095947265625</LongitudeDegrees>
            </Position>
            <AltitudeMeters>722.5999755859375</AltitudeMeters>
            <DistanceMeters>13511.268234334</DistanceMeters>
          </Trackpoint>
          <Trackpoint>
            <Time>2022-09-18T12:27:35.000Z</Time>
            <Position>
              <LatitudeDegrees>49.3600635230541229248046875</LatitudeDegrees>
              <LongitudeDegrees>20.0052385032176971435546875</LongitudeDegrees>
            </Position>
            <AltitudeMeters>722.5999755859375</AltitudeMeters>
            <DistanceMeters>13523.320529123</DistanceMeters>
          </Trackpoint>
          <Trackpoint>
            <Time>2022-09-18T12:27:37.000Z</Time>
            <Position>
              <LatitudeDegrees>49.3600120581686496734619140625</LatitudeDegrees>
              <LongitudeDegrees>20.00525250099599361419677734375</LongitudeDegrees>
            </Position>
            <AltitudeMeters>722.79998779296875</AltitudeMeters>
            <DistanceMeters>13529.13815119</DistanceMeters>
          </Trackpoint>
          <Trackpoint>
            <Time>2022-09-18T12:27:42.000Z</Time>
            <Position>
              <LatitudeDegrees>49.3599168397486209869384765625</LatitudeDegrees>
              <LongitudeDegrees>20.0052789039909839630126953125</LongitudeDegrees>
            </Position>
            <AltitudeMeters>723.4000244140625</AltitudeMeters>
            <DistanceMeters>13539.907659157</DistanceMeters>
          </Trackpoint>
          <Trackpoint>
            <Time>2022-09-18T12:27:44.000Z</Time>
            <Position>
              <LatitudeDegrees>49.35988607816398143768310546875</LatitudeDegrees>
              <LongitudeDegrees>20.00528938136994838714599609375</LongitudeDegrees>
            </Position>
            <AltitudeMeters>723.5999755859375</AltitudeMeters>
            <DistanceMeters>13543.414647055</DistanceMeters>
          </Trackpoint>
          <Trackpoint>
            <Time>2022-09-18T12:27:48.000Z</Time>
            <Position>
              <LatitudeDegrees>49.35983075760304927825927734375</LatitudeDegrees>
              <LongitudeDegrees>20.0053017027676105499267578125</LongitudeDegrees>
            </Position>
            <AltitudeMeters>723.5999755859375</AltitudeMeters>
            <DistanceMeters>13549.635813154</DistanceMeters>
          </Trackpoint>
          <Trackpoint>
            <Time>2022-09-18T12:27:50.000Z</Time>
            <Position>
              <LatitudeDegrees>49.3598139099776744842529296875</LatitudeDegrees>
              <LongitudeDegrees>20.00532307662069797515869140625</LongitudeDegrees>
            </Position>
            <AltitudeMeters>724</AltitudeMeters>
            <DistanceMeters>13552.069684586</DistanceMeters>
          </Trackpoint>
          <Trackpoint>
            <Time>2022-09-18T12:27:52.000Z</Time>
            <Position>
              <LatitudeDegrees>49.35979823581874370574951171875</LatitudeDegrees>
              <LongitudeDegrees>20.00534419901669025421142578125</LongitudeDegrees>
            </Position>
            <AltitudeMeters>724.20001220703125</AltitudeMeters>
            <DistanceMeters>13554.389582334</DistanceMeters>
          </Trackpoint>
          <Trackpoint>
            <Time>2022-09-18T12:27:55.000Z</Time>
            <Position>
              <LatitudeDegrees>49.35979220084846019744873046875</LatitudeDegrees>
              <LongitudeDegrees>20.00534914433956146240234375</LongitudeDegrees>
            </Position>
            <AltitudeMeters>724.4000244140625</AltitudeMeters>
            <DistanceMeters>13555.149796049</DistanceMeters>
          </Trackpoint>
          <Trackpoint>
            <Time>2022-09-18T12:28:06.000Z</Time>
            <Position>
              <LatitudeDegrees>49.35979220084846019744873046875</LatitudeDegrees>
              <LongitudeDegrees>20.00534914433956146240234375</LongitudeDegrees>
            </Position>
            <AltitudeMeters>723.5999755859375</AltitudeMeters>
            <DistanceMeters>13555.149796049</DistanceMeters>
          </Trackpoint>
          <Trackpoint>
            <Time>2022-09-18T12:28:13.000Z</Time>
            <Position>
              <LatitudeDegrees>49.35979220084846019744873046875</LatitudeDegrees>
              <LongitudeDegrees>20.00534914433956146240234375</LongitudeDegrees>
            </Position>
            <AltitudeMeters>723.5999755859375</AltitudeMeters>
            <DistanceMeters>13555.149796049</DistanceMeters>
          </Trackpoint>
          <Trackpoint>
            <Time>2022-09-18T12:28:14.000Z</Time>
            <Position>
              <LatitudeDegrees>49.35979220084846019744873046875</LatitudeDegrees>
              <LongitudeDegrees>20.00534914433956146240234375</LongitudeDegrees>
            </Position>
            <AltitudeMeters>723.5999755859375</AltitudeMeters>
            <DistanceMeters>13555.149796049</DistanceMeters>
          </Trackpoint>
          <Trackpoint>
            <Time>2022-09-18T12:28:22.000Z</Time>
            <Position>
              <LatitudeDegrees>49.35979220084846019744873046875</LatitudeDegrees>
              <LongitudeDegrees>20.00534914433956146240234375</LongitudeDegrees>
            </Position>
            <AltitudeMeters>723.5999755859375</AltitudeMeters>
            <DistanceMeters>13555.149796049</DistanceMeters>
          </Trackpoint>
          <Trackpoint>
            <Time>2022-09-18T12:28:51.000Z</Time>
            <Position>
              <LatitudeDegrees>49.359792955219745635986328125</LatitudeDegrees>
              <LongitudeDegrees>20.00535182654857635498046875</LongitudeDegrees>
            </Position>
            <AltitudeMeters>723.5999755859375</AltitudeMeters>
            <DistanceMeters>13555.339849478</DistanceMeters>
          </Trackpoint>
          <Trackpoint>
            <Time>2022-09-18T12:28:52.000Z</Time>
            <Position>
              <LatitudeDegrees>49.359792955219745635986328125</LatitudeDegrees>
              <LongitudeDegrees>20.00535182654857635498046875</LongitudeDegrees>
            </Position>
            <AltitudeMeters>723.5999755859375</AltitudeMeters>
            <DistanceMeters>13555.339849478</DistanceMeters>
          </Trackpoint>
          <Trackpoint>
            <Time>2022-09-18T12:28:53.000Z</Time>
            <Position>
              <LatitudeDegrees>49.359792955219745635986328125</LatitudeDegrees>
              <LongitudeDegrees>20.00535191036760807037353515625</LongitudeDegrees>
            </Position>
            <AltitudeMeters>723.5999755859375</AltitudeMeters>
            <DistanceMeters>13555.339849478</DistanceMeters>
          </Trackpoint>
          <Trackpoint>
            <Time>2022-09-18T12:28:54.000Z</Time>
            <Position>
              <LatitudeDegrees>49.359792955219745635986328125</LatitudeDegrees>
              <LongitudeDegrees>20.00535191036760807037353515625</LongitudeDegrees>
            </Position>
            <AltitudeMeters>723.5999755859375</AltitudeMeters>
            <DistanceMeters>13555.339849478</DistanceMeters>
          </Trackpoint>
          <Trackpoint>
            <Time>2022-09-18T12:28:55.000Z</Time>
            <Position>
              <LatitudeDegrees>49.359792955219745635986328125</LatitudeDegrees>
              <LongitudeDegrees>20.00535191036760807037353515625</LongitudeDegrees>
            </Position>
            <AltitudeMeters>723.5999755859375</AltitudeMeters>
            <DistanceMeters>13555.339849478</DistanceMeters>
          </Trackpoint>
          <Trackpoint>
            <Time>2022-09-18T12:28:59.000Z</Time>
            <Position>
              <LatitudeDegrees>49.359792955219745635986328125</LatitudeDegrees>
              <LongitudeDegrees>20.00535191036760807037353515625</LongitudeDegrees>
            </Position>
            <AltitudeMeters>723.5999755859375</AltitudeMeters>
            <DistanceMeters>13555.339849478</DistanceMeters>
          </Trackpoint>
          <Trackpoint>
            <Time>2022-09-18T12:29:10.000Z</Time>
            <Position>
              <LatitudeDegrees>49.359792955219745635986328125</LatitudeDegrees>
              <LongitudeDegrees>20.00535191036760807037353515625</LongitudeDegrees>
            </Position>
            <AltitudeMeters>723.5999755859375</AltitudeMeters>
            <DistanceMeters>13555.339849478</DistanceMeters>
          </Trackpoint>
          <Trackpoint>
            <Time>2022-09-18T12:29:12.000Z</Time>
            <Position>
              <LatitudeDegrees>49.35977661050856113433837890625</LatitudeDegrees>
              <LongitudeDegrees>20.00535610131919384002685546875</LongitudeDegrees>
            </Position>
            <AltitudeMeters>723.5999755859375</AltitudeMeters>
            <DistanceMeters>13557.182485835</DistanceMeters>
          </Trackpoint>
          <Trackpoint>
            <Time>2022-09-18T12:29:14.000Z</Time>
            <Position>
              <LatitudeDegrees>49.35974241234362125396728515625</LatitudeDegrees>
              <LongitudeDegrees>20.0053469650447368621826171875</LongitudeDegrees>
            </Position>
            <AltitudeMeters>723.5999755859375</AltitudeMeters>
            <DistanceMeters>13561.04599672</DistanceMeters>
          </Trackpoint>
          <Trackpoint>
            <Time>2022-09-18T12:29:19.000Z</Time>
            <Position>
              <LatitudeDegrees>49.3596182763576507568359375</LatitudeDegrees>
              <LongitudeDegrees>20.0053191371262073516845703125</LongitudeDegrees>
            </Position>
            <AltitudeMeters>723.4000244140625</AltitudeMeters>
            <DistanceMeters>13575.009104558</DistanceMeters>
          </Trackpoint>
          <Trackpoint>
            <Time>2022-09-18T12:29:26.000Z</Time>
            <Position>
              <LatitudeDegrees>49.3594712577760219573974609375</LatitudeDegrees>
              <LongitudeDegrees>20.00531955622136592864990234375</LongitudeDegrees>
            </Position>
            <AltitudeMeters>723.4000244140625</AltitudeMeters>
            <DistanceMeters>13591.372472999</DistanceMeters>
          </Trackpoint>
          <Trackpoint>
            <Time>2022-09-18T12:29:31.000Z</Time>
            <Position>
              <LatitudeDegrees>49.35935332439839839935302734375</LatitudeDegrees>
              <LongitudeDegrees>20.005303211510181427001953125</LongitudeDegrees>
            </Position>
            <AltitudeMeters>723.4000244140625</AltitudeMeters>
            <DistanceMeters>13604.552099339</DistanceMeters>
          </Trackpoint>
          <Trackpoint>
            <Time>2022-09-18T12:29:37.000Z</Time>
            <Position>
              <LatitudeDegrees>49.359153248369693756103515625</LatitudeDegrees>
              <LongitudeDegrees>20.00528887845575809478759765625</LongitudeDegrees>
            </Position>
            <AltitudeMeters>723.4000244140625</AltitudeMeters>
            <DistanceMeters>13626.845131595</DistanceMeters>
          </Trackpoint>
          <Trackpoint>
            <Time>2022-09-18T12:29:44.000Z</Time>
            <Position>
              <LatitudeDegrees>49.3589237518608570098876953125</LatitudeDegrees>
              <LongitudeDegrees>20.00526775605976581573486328125</LongitudeDegrees>
            </Position>
            <AltitudeMeters>723.5999755859375</AltitudeMeters>
            <DistanceMeters>13652.434327817</DistanceMeters>
          </Trackpoint>
          <Trackpoint>
            <Time>2022-09-18T12:29:47.000Z</Time>
            <Position>
              <LatitudeDegrees>49.35881520621478557586669921875</LatitudeDegrees>
              <LongitudeDegrees>20.00524948351085186004638671875</LongitudeDegrees>
            </Position>
            <AltitudeMeters>723.79998779296875</AltitudeMeters>
            <DistanceMeters>13664.588092273</DistanceMeters>
          </Trackpoint>
          <Trackpoint>
            <Time>2022-09-18T12:29:51.000Z</Time>
            <Position>
              <LatitudeDegrees>49.35867724008858203887939453125</LatitudeDegrees>
              <LongitudeDegrees>20.00521612353622913360595703125</LongitudeDegrees>
            </Position>
            <AltitudeMeters>724</AltitudeMeters>
            <DistanceMeters>13680.133312623</DistanceMeters>
          </Trackpoint>
          <Trackpoint>
            <Time>2022-09-18T12:29:57.000Z</Time>
            <Position>
              <LatitudeDegrees>49.358510188758373260498046875</LatitudeDegrees>
              <LongitudeDegrees>20.00521813519299030303955078125</LongitudeDegrees>
            </Position>
            <AltitudeMeters>724</AltitudeMeters>
            <DistanceMeters>13698.727007972</DistanceMeters>
          </Trackpoint>
          <Trackpoint>
            <Time>2022-09-18T12:30:04.000Z</Time>
            <Position>
              <LatitudeDegrees>49.35833492316305637359619140625</LatitudeDegrees>
              <LongitudeDegrees>20.0051850266754627227783203125</LongitudeDegrees>
            </Position>
            <AltitudeMeters>724</AltitudeMeters>
            <DistanceMeters>13718.38146396</DistanceMeters>
          </Trackpoint>
          <Trackpoint>
            <Time>2022-09-18T12:30:09.000Z</Time>
            <Position>
              <LatitudeDegrees>49.35819804668426513671875</LatitudeDegrees>
              <LongitudeDegrees>20.00515158288180828094482421875</LongitudeDegrees>
            </Position>
            <AltitudeMeters>725</AltitudeMeters>
            <DistanceMeters>13733.808020109</DistanceMeters>
          </Trackpoint>
          <Trackpoint>
            <Time>2022-09-18T12:30:11.000Z</Time>
            <Position>
              <LatitudeDegrees>49.358141720294952392578125</LatitudeDegrees>
              <LongitudeDegrees>20.00514672137796878814697265625</LongitudeDegrees>
            </Position>
            <AltitudeMeters>725.20001220703125</AltitudeMeters>
            <DistanceMeters>13740.086978124</DistanceMeters>
          </Trackpoint>
          <Trackpoint>
            <Time>2022-09-18T12:30:20.000Z</Time>
            <Position>
              <LatitudeDegrees>49.35787106864154338836669921875</LatitudeDegrees>
              <LongitudeDegrees>20.00513884238898754119873046875</LongitudeDegrees>
            </Position>
            <AltitudeMeters>725.20001220703125</AltitudeMeters>
            <DistanceMeters>13770.216291504</DistanceMeters>
          </Trackpoint>
          <Trackpoint>
            <Time>2022-09-18T12:30:29.000Z</Time>
            <Position>
              <LatitudeDegrees>49.35765414498746395111083984375</LatitudeDegrees>
              <LongitudeDegrees>20.00515200197696685791015625</LongitudeDegrees>
            </Position>
            <AltitudeMeters>725.5999755859375</AltitudeMeters>
            <DistanceMeters>13794.379251227</DistanceMeters>
          </Trackpoint>
          <Trackpoint>
            <Time>2022-09-18T12:30:36.000Z</Time>
            <Position>
              <LatitudeDegrees>49.3574522249400615692138671875</LatitudeDegrees>
              <LongitudeDegrees>20.00520187430083751678466796875</LongitudeDegrees>
            </Position>
            <AltitudeMeters>725.4000244140625</AltitudeMeters>
            <DistanceMeters>13817.142463797</DistanceMeters>
          </Trackpoint>
          <Trackpoint>
            <Time>2022-09-18T12:30:39.000Z</Time>
            <Position>
              <LatitudeDegrees>49.35737737454473972320556640625</LatitudeDegrees>
              <LongitudeDegrees>20.00521863810718059539794921875</LongitudeDegrees>
            </Position>
            <AltitudeMeters>725.4000244140625</AltitudeMeters>
            <DistanceMeters>13825.561852141</DistanceMeters>
          </Trackpoint>
          <Trackpoint>
            <Time>2022-09-18T12:30:41.000Z</Time>
            <Position>
              <LatitudeDegrees>49.35733236372470855712890625</LatitudeDegrees>
              <LongitudeDegrees>20.00523984432220458984375</LongitudeDegrees>
            </Position>
            <AltitudeMeters>725.5999755859375</AltitudeMeters>
            <DistanceMeters>13830.80212527</DistanceMeters>
          </Trackpoint>
          <Trackpoint>
            <Time>2022-09-18T12:30:43.000Z</Time>
            <Position>
              <LatitudeDegrees>49.3572788871824741363525390625</LatitudeDegrees>
              <LongitudeDegrees>20.00525032170116901397705078125</LongitudeDegrees>
            </Position>
            <AltitudeMeters>725.5999755859375</AltitudeMeters>
            <DistanceMeters>13836.802368163</DistanceMeters>
          </Trackpoint>
          <Trackpoint>
            <Time>2022-09-18T12:30:47.000Z</Time>
            <Position>
              <LatitudeDegrees>49.35717252083122730255126953125</LatitudeDegrees>
              <LongitudeDegrees>20.00528871081769466400146484375</LongitudeDegrees>
            </Position>
            <AltitudeMeters>726.20001220703125</AltitudeMeters>
            <DistanceMeters>13848.96356021</DistanceMeters>
          </Trackpoint>
          <Trackpoint>
            <Time>2022-09-18T12:30:51.000Z</Time>
            <Position>
              <LatitudeDegrees>49.357054419815540313720703125</LatitudeDegrees>
              <LongitudeDegrees>20.00529809854924678802490234375</LongitudeDegrees>
            </Position>
            <AltitudeMeters>726.5999755859375</AltitudeMeters>
            <DistanceMeters>13862.125703522</DistanceMeters>
          </Trackpoint>
          <Trackpoint>
            <Time>2022-09-18T12:30:57.000Z</Time>
            <Position>
              <LatitudeDegrees>49.35690329410135746002197265625</LatitudeDegrees>
              <LongitudeDegrees>20.0053412653505802154541015625</LongitudeDegrees>
            </Position>
            <AltitudeMeters>726.5999755859375</AltitudeMeters>
            <DistanceMeters>13879.234734997</DistanceMeters>
          </Trackpoint>
          <Trackpoint>
            <Time>2022-09-18T12:31:04.000Z</Time>
            <Position>
              <LatitudeDegrees>49.35671503655612468719482421875</LatitudeDegrees>
              <LongitudeDegrees>20.0053992681205272674560546875</LongitudeDegrees>
            </Position>
            <AltitudeMeters>726</AltitudeMeters>
            <DistanceMeters>13900.605818413</DistanceMeters>
          </Trackpoint>
          <Trackpoint>
            <Time>2022-09-18T12:31:11.000Z</Time>
            <Position>
              <LatitudeDegrees>49.35649626888334751129150390625</LatitudeDegrees>
              <LongitudeDegrees>20.0054646469652652740478515625</LongitudeDegrees>
            </Position>
            <AltitudeMeters>726.4000244140625</AltitudeMeters>
            <DistanceMeters>13925.412159524</DistanceMeters>
          </Trackpoint>
          <Trackpoint>
            <Time>2022-09-18T12:31:16.000Z</Time>
            <Position>
              <LatitudeDegrees>49.35632527805864810943603515625</LatitudeDegrees>
              <LongitudeDegrees>20.0054906308650970458984375</LongitudeDegrees>
            </Position>
            <AltitudeMeters>726.79998779296875</AltitudeMeters>
            <DistanceMeters>13944.536861254</DistanceMeters>
          </Trackpoint>
          <Trackpoint>
            <Time>2022-09-18T12:31:24.000Z</Time>
            <Position>
              <LatitudeDegrees>49.35606946237385272979736328125</LatitudeDegrees>
              <LongitudeDegrees>20.00552348792552947998046875</LongitudeDegrees>
            </Position>
            <AltitudeMeters>726.79998779296875</AltitudeMeters>
            <DistanceMeters>13973.109104621</DistanceMeters>
          </Trackpoint>
          <Trackpoint>
            <Time>2022-09-18T12:31:29.000Z</Time>
            <Position>
              <LatitudeDegrees>49.355937279760837554931640625</LatitudeDegrees>
              <LongitudeDegrees>20.005480907857418060302734375</LongitudeDegrees>
            </Position>
            <AltitudeMeters>727.4000244140625</AltitudeMeters>
            <DistanceMeters>13988.141958411</DistanceMeters>
          </Trackpoint>
          <Trackpoint>
            <Time>2022-09-18T12:31:30.000Z</Time>
            <Position>
              <LatitudeDegrees>49.35590098612010478973388671875</LatitudeDegrees>
              <LongitudeDegrees>20.00546716153621673583984375</LongitudeDegrees>
            </Position>
            <AltitudeMeters>727.4000244140625</AltitudeMeters>
            <DistanceMeters>13992.302566124</DistanceMeters>
          </Trackpoint>
          <Trackpoint>
            <Time>2022-09-18T12:31:38.000Z</Time>
            <Position>
              <LatitudeDegrees>49.355653636157512664794921875</LatitudeDegrees>
              <LongitudeDegrees>20.005414187908172607421875</LongitudeDegrees>
            </Position>
            <AltitudeMeters>727.5999755859375</AltitudeMeters>
            <DistanceMeters>14020.09962624</DistanceMeters>
          </Trackpoint>
          <Trackpoint>
            <Time>2022-09-18T12:31:43.000Z</Time>
            <Position>
              <LatitudeDegrees>49.3554647080600261688232421875</LatitudeDegrees>
              <LongitudeDegrees>20.00536791980266571044921875</LongitudeDegrees>
            </Position>
            <AltitudeMeters>727.5999755859375</AltitudeMeters>
            <DistanceMeters>14041.393457001</DistanceMeters>
          </Trackpoint>
          <Trackpoint>
            <Time>2022-09-18T12:31:44.000Z</Time>
            <Position>
              <LatitudeDegrees>49.355422295629978179931640625</LatitudeDegrees>
              <LongitudeDegrees>20.00535207800567150115966796875</LongitudeDegrees>
            </Position>
            <AltitudeMeters>727.4000244140625</AltitudeMeters>
            <DistanceMeters>14046.251915586</DistanceMeters>
          </Trackpoint>
          <Trackpoint>
            <Time>2022-09-18T12:31:49.000Z</Time>
            <Position>
              <LatitudeDegrees>49.3552202917635440826416015625</LatitudeDegrees>
              <LongitudeDegrees>20.00529005192220211029052734375</LongitudeDegrees>
            </Position>
            <AltitudeMeters>727.5999755859375</AltitudeMeters>
            <DistanceMeters>14069.180741343</DistanceMeters>
          </Trackpoint>
          <Trackpoint>
            <Time>2022-09-18T12:31:50.000Z</Time>
            <Position>
              <LatitudeDegrees>49.35518181882798671722412109375</LatitudeDegrees>
              <LongitudeDegrees>20.005280077457427978515625</LongitudeDegrees>
            </Position>
            <AltitudeMeters>727.79998779296875</AltitudeMeters>
            <DistanceMeters>14073.522952717</DistanceMeters>
          </Trackpoint>
          <Trackpoint>
            <Time>2022-09-18T12:31:52.000Z</Time>
            <Position>
              <LatitudeDegrees>49.35510881245136260986328125</LatitudeDegrees>
              <LongitudeDegrees>20.0052594579756259918212890625</LongitudeDegrees>
            </Position>
            <AltitudeMeters>727.79998779296875</AltitudeMeters>
            <DistanceMeters>14081.78536023</DistanceMeters>
          </Trackpoint>
          <Trackpoint>
            <Time>2022-09-18T12:31:54.000Z</Time>
            <Position>
              <LatitudeDegrees>49.35504016466438770294189453125</LatitudeDegrees>
              <LongitudeDegrees>20.0052333064377307891845703125</LongitudeDegrees>
            </Position>
            <AltitudeMeters>727.79998779296875</AltitudeMeters>
            <DistanceMeters>14089.657679751</DistanceMeters>
          </Trackpoint>
          <Trackpoint>
            <Time>2022-09-18T12:31:56.000Z</Time>
            <Position>
              <LatitudeDegrees>49.35497629456222057342529296875</LatitudeDegrees>
              <LongitudeDegrees>20.00522165559232234954833984375</LongitudeDegrees>
            </Position>
            <AltitudeMeters>727.5999755859375</AltitudeMeters>
            <DistanceMeters>14096.816919508</DistanceMeters>
          </Trackpoint>
          <Trackpoint>
            <Time>2022-09-18T12:31:58.000Z</Time>
            <Position>
              <LatitudeDegrees>49.354911334812641143798828125</LatitudeDegrees>
              <LongitudeDegrees>20.00520187430083751678466796875</LongitudeDegrees>
            </Position>
            <AltitudeMeters>727.79998779296875</AltitudeMeters>
            <DistanceMeters>14104.18868999</DistanceMeters>
          </Trackpoint>
          <Trackpoint>
            <Time>2022-09-18T12:32:08.000Z</Time>
            <Position>
              <LatitudeDegrees>49.3545557744801044464111328125</LatitudeDegrees>
              <LongitudeDegrees>20.00509559176862239837646484375</LongitudeDegrees>
            </Position>
            <AltitudeMeters>727.5999755859375</AltitudeMeters>
            <DistanceMeters>14144.506454323</DistanceMeters>
          </Trackpoint>
          <Trackpoint>
            <Time>2022-09-18T12:32:11.000Z</Time>
            <Position>
              <LatitudeDegrees>49.354451000690460205078125</LatitudeDegrees>
              <LongitudeDegrees>20.00505234114825725555419921875</LongitudeDegrees>
            </Position>
            <AltitudeMeters>727.79998779296875</AltitudeMeters>
            <DistanceMeters>14156.581953253</DistanceMeters>
          </Trackpoint>
          <Trackpoint>
            <Time>2022-09-18T12:32:17.000Z</Time>
            <Position>
              <LatitudeDegrees>49.35424824245274066925048828125</LatitudeDegrees>
              <LongitudeDegrees>20.00497472472488880157470703125</LongitudeDegrees>
            </Position>
            <AltitudeMeters>728</AltitudeMeters>
            <DistanceMeters>14179.840408908</DistanceMeters>
          </Trackpoint>
          <Trackpoint>
            <Time>2022-09-18T12:32:18.000Z</Time>
            <Position>
              <LatitudeDegrees>49.3542151339352130889892578125</LatitudeDegrees>
              <LongitudeDegrees>20.00497153960168361663818359375</LongitudeDegrees>
            </Position>
            <AltitudeMeters>728.20001220703125</AltitudeMeters>
            <DistanceMeters>14183.533025248</DistanceMeters>
          </Trackpoint>
          <Trackpoint>
            <Time>2022-09-18T12:32:19.000Z</Time>
            <Position>
              <LatitudeDegrees>49.35418705455958843231201171875</LatitudeDegrees>
              <LongitudeDegrees>20.004963912069797515869140625</LongitudeDegrees>
            </Position>
            <AltitudeMeters>728.5999755859375</AltitudeMeters>
            <DistanceMeters>14186.70754337</DistanceMeters>
          </Trackpoint>
          <Trackpoint>
            <Time>2022-09-18T12:32:21.000Z</Time>
            <Position>
              <LatitudeDegrees>49.35413760133087635040283203125</LatitudeDegrees>
              <LongitudeDegrees>20.00494237057864665985107421875</LongitudeDegrees>
            </Position>
            <AltitudeMeters>729</AltitudeMeters>
            <DistanceMeters>14192.429698313</DistanceMeters>
          </Trackpoint>
          <Trackpoint>
            <Time>2022-09-18T12:32:23.000Z</Time>
            <Position>
              <LatitudeDegrees>49.35408798046410083770751953125</LatitudeDegrees>
              <LongitudeDegrees>20.00493097119033336639404296875</LongitudeDegrees>
            </Position>
            <AltitudeMeters>729</AltitudeMeters>
            <DistanceMeters>14198.014488733</DistanceMeters>
          </Trackpoint>
          <Trackpoint>
            <Time>2022-09-18T12:32:28.000Z</Time>
            <Position>
              <LatitudeDegrees>49.3539770878851413726806640625</LatitudeDegrees>
              <LongitudeDegrees>20.0049127824604511260986328125</LongitudeDegrees>
            </Position>
            <AltitudeMeters>729</AltitudeMeters>
            <DistanceMeters>14210.427393081</DistanceMeters>
          </Trackpoint>
          <Trackpoint>
            <Time>2022-09-18T12:32:34.000Z</Time>
            <Position>
              <LatitudeDegrees>49.35383970849215984344482421875</LatitudeDegrees>
              <LongitudeDegrees>20.00487615354359149932861328125</LongitudeDegrees>
            </Position>
            <AltitudeMeters>728.79998779296875</AltitudeMeters>
            <DistanceMeters>14225.94674226</DistanceMeters>
          </Trackpoint>
          <Trackpoint>
            <Time>2022-09-18T12:32:37.000Z</Time>
            <Position>
              <LatitudeDegrees>49.35375454835593700408935546875</LatitudeDegrees>
              <LongitudeDegrees>20.00484061427414417266845703125</LongitudeDegrees>
            </Position>
            <AltitudeMeters>729</AltitudeMeters>
            <DistanceMeters>14235.769030014</DistanceMeters>
          </Trackpoint>
          <Trackpoint>
            <Time>2022-09-18T12:32:39.000Z</Time>
            <Position>
              <LatitudeDegrees>49.35367777012288570404052734375</LatitudeDegrees>
              <LongitudeDegrees>20.0048286281526088714599609375</LongitudeDegrees>
            </Position>
            <AltitudeMeters>729</AltitudeMeters>
            <DistanceMeters>14244.358835287</DistanceMeters>
          </Trackpoint>
          <Trackpoint>
            <Time>2022-09-18T12:32:42.000Z</Time>
            <Position>
              <LatitudeDegrees>49.3535804562270641326904296875</LatitudeDegrees>
              <LongitudeDegrees>20.0048041529953479766845703125</LongitudeDegrees>
            </Position>
            <AltitudeMeters>729</AltitudeMeters>
            <DistanceMeters>14255.334317953</DistanceMeters>
          </Trackpoint>
          <Trackpoint>
            <Time>2022-09-18T12:32:46.000Z</Time>
            <Position>
              <LatitudeDegrees>49.35346621088683605194091796875</LatitudeDegrees>
              <LongitudeDegrees>20.00477758236229419708251953125</LongitudeDegrees>
            </Position>
            <AltitudeMeters>729.79998779296875</AltitudeMeters>
            <DistanceMeters>14268.194912035</DistanceMeters>
          </Trackpoint>
          <Trackpoint>
            <Time>2022-09-18T12:32:53.000Z</Time>
            <Position>
              <LatitudeDegrees>49.3532927893102169036865234375</LatitudeDegrees>
              <LongitudeDegrees>20.00472955405712127685546875</LongitudeDegrees>
            </Position>
            <AltitudeMeters>730.5999755859375</AltitudeMeters>
            <DistanceMeters>14287.808665288</DistanceMeters>
          </Trackpoint>
          <Trackpoint>
            <Time>2022-09-18T12:33:01.000Z</Time>
            <Position>
              <LatitudeDegrees>49.35306941159069538116455078125</LatitudeDegrees>
              <LongitudeDegrees>20.0046472437679767608642578125</LongitudeDegrees>
            </Position>
            <AltitudeMeters>730.79998779296875</AltitudeMeters>
            <DistanceMeters>14313.377385913</DistanceMeters>
          </Trackpoint>
          <Trackpoint>
            <Time>2022-09-18T12:33:02.000Z</Time>
            <Position>
              <LatitudeDegrees>49.3530430085957050323486328125</LatitudeDegrees>
              <LongitudeDegrees>20.00463567674160003662109375</LongitudeDegrees>
            </Position>
            <AltitudeMeters>731</AltitudeMeters>
            <DistanceMeters>14316.433052623</DistanceMeters>
          </Trackpoint>
          <Trackpoint>
            <Time>2022-09-18T12:33:10.000Z</Time>
            <Position>
              <LatitudeDegrees>49.35281577520072460174560546875</LatitudeDegrees>
              <LongitudeDegrees>20.0045547075569629669189453125</LongitudeDegrees>
            </Position>
            <AltitudeMeters>731.20001220703125</AltitudeMeters>
            <DistanceMeters>14342.396917835</DistanceMeters>
          </Trackpoint>
          <Trackpoint>
            <Time>2022-09-18T12:33:17.000Z</Time>
            <Position>
              <LatitudeDegrees>49.35263019986450672149658203125</LatitudeDegrees>
              <LongitudeDegrees>20.004521347582340240478515625</LongitudeDegrees>
            </Position>
            <AltitudeMeters>731.4000244140625</AltitudeMeters>
            <DistanceMeters>14363.193010044</DistanceMeters>
          </Trackpoint>
          <Trackpoint>
            <Time>2022-09-18T12:33:21.000Z</Time>
            <Position>
              <LatitudeDegrees>49.35255124233663082122802734375</LatitudeDegrees>
              <LongitudeDegrees>20.00452947802841663360595703125</LongitudeDegrees>
            </Position>
            <AltitudeMeters>731.79998779296875</AltitudeMeters>
            <DistanceMeters>14372.001325252</DistanceMeters>
          </Trackpoint>
          <Trackpoint>
            <Time>2022-09-18T12:33:23.000Z</Time>
            <Position>
              <LatitudeDegrees>49.35252391733229160308837890625</LatitudeDegrees>
              <LongitudeDegrees>20.0045466609299182891845703125</LongitudeDegrees>
            </Position>
            <AltitudeMeters>731.79998779296875</AltitudeMeters>
            <DistanceMeters>14375.28765625</DistanceMeters>
          </Trackpoint>
          <Trackpoint>
            <Time>2022-09-18T12:33:26.000Z</Time>
            <Position>
              <LatitudeDegrees>49.352465160191059112548828125</LatitudeDegrees>
              <LongitudeDegrees>20.00458043999969959259033203125</LongitudeDegrees>
            </Position>
            <AltitudeMeters>732</AltitudeMeters>
            <DistanceMeters>14382.271311659</DistanceMeters>
          </Trackpoint>
          <Trackpoint>
            <Time>2022-09-18T12:33:27.000Z</Time>
            <Position>
              <LatitudeDegrees>49.352458454668521881103515625</LatitudeDegrees>
              <LongitudeDegrees>20.00460525043308734893798828125</LongitudeDegrees>
            </Position>
            <AltitudeMeters>732</AltitudeMeters>
            <DistanceMeters>14384.218779786</DistanceMeters>
          </Trackpoint>
          <Trackpoint>
            <Time>2022-09-18T12:33:28.000Z</Time>
            <Position>
              <LatitudeDegrees>49.35245384462177753448486328125</LatitudeDegrees>
              <LongitudeDegrees>20.00463374890387058258056640625</LongitudeDegrees>
            </Position>
            <AltitudeMeters>732</AltitudeMeters>
            <DistanceMeters>14386.347887199</DistanceMeters>
          </Trackpoint>
          <Trackpoint>
            <Time>2022-09-18T12:33:31.000Z</Time>
            <Position>
              <LatitudeDegrees>49.35243255458772182464599609375</LatitudeDegrees>
              <LongitudeDegrees>20.00474908389151096343994140625</LongitudeDegrees>
            </Position>
            <AltitudeMeters>732.20001220703125</AltitudeMeters>
            <DistanceMeters>14395.03958551</DistanceMeters>
          </Trackpoint>
          <Trackpoint>
            <Time>2022-09-18T12:33:33.000Z</Time>
            <Position>
              <LatitudeDegrees>49.35242048464715480804443359375</LatitudeDegrees>
              <LongitudeDegrees>20.00483608804643154144287109375</LongitudeDegrees>
            </Position>
            <AltitudeMeters>732.20001220703125</AltitudeMeters>
            <DistanceMeters>14401.48951281</DistanceMeters>
          </Trackpoint>
          <Trackpoint>
            <Time>2022-09-18T12:33:39.000Z</Time>
            <Position>
              <LatitudeDegrees>49.352385364472866058349609375</LatitudeDegrees>
              <LongitudeDegrees>20.0050361640751361846923828125</LongitudeDegrees>
            </Position>
            <AltitudeMeters>732.4000244140625</AltitudeMeters>
            <DistanceMeters>14416.513053029</DistanceMeters>
          </Trackpoint>
          <Trackpoint>
            <Time>2022-09-18T12:33:45.000Z</Time>
            <Position>
              <LatitudeDegrees>49.3523533456027507781982421875</LatitudeDegrees>
              <LongitudeDegrees>20.0052108429372310638427734375</LongitudeDegrees>
            </Position>
            <AltitudeMeters>732.5999755859375</AltitudeMeters>
            <DistanceMeters>14429.669363503</DistanceMeters>
          </Trackpoint>
          <Trackpoint>
            <Time>2022-09-18T12:33:47.000Z</Time>
            <Position>
              <LatitudeDegrees>49.35234605334699153900146484375</LatitudeDegrees>
              <LongitudeDegrees>20.0052819214761257171630859375</LongitudeDegrees>
            </Position>
            <AltitudeMeters>732.79998779296875</AltitudeMeters>
            <DistanceMeters>14434.886321467</DistanceMeters>
          </Trackpoint>
          <Trackpoint>
            <Time>2022-09-18T12:33:53.000Z</Time>
            <Position>
              <LatitudeDegrees>49.352328367531299591064453125</LatitudeDegrees>
              <LongitudeDegrees>20.0054492242634296417236328125</LongitudeDegrees>
            </Position>
            <AltitudeMeters>733.5999755859375</AltitudeMeters>
            <DistanceMeters>14447.175300206</DistanceMeters>
          </Trackpoint>
          <Trackpoint>
            <Time>2022-09-18T12:33:54.000Z</Time>
            <Position>
              <LatitudeDegrees>49.35232643969357013702392578125</LatitudeDegrees>
              <LongitudeDegrees>20.00547411851584911346435546875</LongitudeDegrees>
            </Position>
            <AltitudeMeters>733.79998779296875</AltitudeMeters>
            <DistanceMeters>14448.993268297</DistanceMeters>
          </Trackpoint>
          <Trackpoint>
            <Time>2022-09-18T12:33:55.000Z</Time>
            <Position>
              <LatitudeDegrees>49.3523181416094303131103515625</LatitudeDegrees>
              <LongitudeDegrees>20.00549289397895336151123046875</LongitudeDegrees>
            </Position>
            <AltitudeMeters>733.79998779296875</AltitudeMeters>
            <DistanceMeters>14450.63917927</DistanceMeters>
          </Trackpoint>
          <Trackpoint>
            <Time>2022-09-18T12:33:56.000Z</Time>
            <Position>
              <LatitudeDegrees>49.35231286101043224334716796875</LatitudeDegrees>
              <LongitudeDegrees>20.00550337135791778564453125</LongitudeDegrees>
            </Position>
            <AltitudeMeters>733.79998779296875</AltitudeMeters>
            <DistanceMeters>14451.598902041</DistanceMeters>
          </Trackpoint>
          <Trackpoint>
            <Time>2022-09-18T12:33:58.000Z</Time>
            <Position>
              <LatitudeDegrees>49.35231286101043224334716796875</LatitudeDegrees>
              <LongitudeDegrees>20.00550337135791778564453125</LongitudeDegrees>
            </Position>
            <AltitudeMeters>734</AltitudeMeters>
            <DistanceMeters>14451.598902041</DistanceMeters>
          </Trackpoint>
          <Trackpoint>
            <Time>2022-09-18T12:34:00.000Z</Time>
            <Position>
              <LatitudeDegrees>49.35231286101043224334716796875</LatitudeDegrees>
              <LongitudeDegrees>20.00550337135791778564453125</LongitudeDegrees>
            </Position>
            <AltitudeMeters>734</AltitudeMeters>
            <DistanceMeters>14451.598902041</DistanceMeters>
          </Trackpoint>
          <Trackpoint>
            <Time>2022-09-18T12:34:04.000Z</Time>
            <Position>
              <LatitudeDegrees>49.35231286101043224334716796875</LatitudeDegrees>
              <LongitudeDegrees>20.00550337135791778564453125</LongitudeDegrees>
            </Position>
            <AltitudeMeters>734</AltitudeMeters>
            <DistanceMeters>14451.598902041</DistanceMeters>
          </Trackpoint>
          <Trackpoint>
            <Time>2022-09-18T12:34:13.000Z</Time>
            <Position>
              <LatitudeDegrees>49.35231286101043224334716796875</LatitudeDegrees>
              <LongitudeDegrees>20.00550337135791778564453125</LongitudeDegrees>
            </Position>
            <AltitudeMeters>733.79998779296875</AltitudeMeters>
            <DistanceMeters>14451.598902041</DistanceMeters>
          </Trackpoint>
          <Trackpoint>
            <Time>2022-09-18T12:34:18.000Z</Time>
            <Position>
              <LatitudeDegrees>49.35231286101043224334716796875</LatitudeDegrees>
              <LongitudeDegrees>20.00550337135791778564453125</LongitudeDegrees>
            </Position>
            <AltitudeMeters>734</AltitudeMeters>
            <DistanceMeters>14451.598902041</DistanceMeters>
          </Trackpoint>
          <Trackpoint>
            <Time>2022-09-18T12:34:22.000Z</Time>
            <Position>
              <LatitudeDegrees>49.35231286101043224334716796875</LatitudeDegrees>
              <LongitudeDegrees>20.00550337135791778564453125</LongitudeDegrees>
            </Position>
            <AltitudeMeters>734</AltitudeMeters>
            <DistanceMeters>14451.598902041</DistanceMeters>
          </Trackpoint>
          <Trackpoint>
            <Time>2022-09-18T12:34:24.000Z</Time>
            <Position>
              <LatitudeDegrees>49.35231286101043224334716796875</LatitudeDegrees>
              <LongitudeDegrees>20.00550337135791778564453125</LongitudeDegrees>
            </Position>
            <AltitudeMeters>733.79998779296875</AltitudeMeters>
            <DistanceMeters>14451.598902041</DistanceMeters>
          </Trackpoint>
          <Trackpoint>
            <Time>2022-09-18T12:34:27.000Z</Time>
            <Position>
              <LatitudeDegrees>49.35231286101043224334716796875</LatitudeDegrees>
              <LongitudeDegrees>20.00550337135791778564453125</LongitudeDegrees>
            </Position>
            <AltitudeMeters>733.79998779296875</AltitudeMeters>
            <DistanceMeters>14451.598902041</DistanceMeters>
          </Trackpoint>
          <Trackpoint>
            <Time>2022-09-18T12:34:40.000Z</Time>
            <Position>
              <LatitudeDegrees>49.35231286101043224334716796875</LatitudeDegrees>
              <LongitudeDegrees>20.00550337135791778564453125</LongitudeDegrees>
            </Position>
            <AltitudeMeters>733.5999755859375</AltitudeMeters>
            <DistanceMeters>14451.598902041</DistanceMeters>
          </Trackpoint>
          <Trackpoint>
            <Time>2022-09-18T12:34:48.000Z</Time>
            <Position>
              <LatitudeDegrees>49.35230582021176815032958984375</LatitudeDegrees>
              <LongitudeDegrees>20.00552156008780002593994140625</LongitudeDegrees>
            </Position>
            <AltitudeMeters>733.5999755859375</AltitudeMeters>
            <DistanceMeters>14453.13116177</DistanceMeters>
          </Trackpoint>
          <Trackpoint>
            <Time>2022-09-18T12:34:55.000Z</Time>
            <Position>
              <LatitudeDegrees>49.35225636698305606842041015625</LatitudeDegrees>
              <LongitudeDegrees>20.00557905994355678558349609375</LongitudeDegrees>
            </Position>
            <AltitudeMeters>734.20001220703125</AltitudeMeters>
            <DistanceMeters>14460.03614574</DistanceMeters>
          </Trackpoint>
          <Trackpoint>
            <Time>2022-09-18T12:34:56.000Z</Time>
            <Position>
              <LatitudeDegrees>49.352248571813106536865234375</LatitudeDegrees>
              <LongitudeDegrees>20.005578137934207916259765625</LongitudeDegrees>
            </Position>
            <AltitudeMeters>734.20001220703125</AltitudeMeters>
            <DistanceMeters>14460.901880309</DistanceMeters>
          </Trackpoint>
          <Trackpoint>
            <Time>2022-09-18T12:35:00.000Z</Time>
            <Position>
              <LatitudeDegrees>49.3522234261035919189453125</LatitudeDegrees>
              <LongitudeDegrees>20.005576796829700469970703125</LongitudeDegrees>
            </Position>
            <AltitudeMeters>734.4000244140625</AltitudeMeters>
            <DistanceMeters>14463.703154382</DistanceMeters>
          </Trackpoint>
          <Trackpoint>
            <Time>2022-09-18T12:35:03.000Z</Time>
            <Position>
              <LatitudeDegrees>49.35220322571694850921630859375</LatitudeDegrees>
              <LongitudeDegrees>20.00560672022402286529541015625</LongitudeDegrees>
            </Position>
            <AltitudeMeters>734.4000244140625</AltitudeMeters>
            <DistanceMeters>14466.828941117</DistanceMeters>
          </Trackpoint>
          <Trackpoint>
            <Time>2022-09-18T12:35:05.000Z</Time>
            <Position>
              <LatitudeDegrees>49.3521870486438274383544921875</LatitudeDegrees>
              <LongitudeDegrees>20.0056376494467258453369140625</LongitudeDegrees>
            </Position>
            <AltitudeMeters>734.4000244140625</AltitudeMeters>
            <DistanceMeters>14469.703401057</DistanceMeters>
          </Trackpoint>
          <Trackpoint>
            <Time>2022-09-18T12:35:06.000Z</Time>
            <Position>
              <LatitudeDegrees>49.35218797065317630767822265625</LatitudeDegrees>
              <LongitudeDegrees>20.0056587718427181243896484375</LongitudeDegrees>
            </Position>
            <AltitudeMeters>734.4000244140625</AltitudeMeters>
            <DistanceMeters>14471.235660785</DistanceMeters>
          </Trackpoint>
          <Trackpoint>
            <Time>2022-09-18T12:35:08.000Z</Time>
            <Position>
              <LatitudeDegrees>49.35218478552997112274169921875</LatitudeDegrees>
              <LongitudeDegrees>20.0056852586567401885986328125</LongitudeDegrees>
            </Position>
            <AltitudeMeters>734.5999755859375</AltitudeMeters>
            <DistanceMeters>14473.187760234</DistanceMeters>
          </Trackpoint>
          <Trackpoint>
            <Time>2022-09-18T12:35:10.000Z</Time>
            <Position>
              <LatitudeDegrees>49.35218025930225849151611328125</LatitudeDegrees>
              <LongitudeDegrees>20.00570495612919330596923828125</LongitudeDegrees>
            </Position>
            <AltitudeMeters>734.5999755859375</AltitudeMeters>
            <DistanceMeters>14474.702236849</DistanceMeters>
          </Trackpoint>
          <Trackpoint>
            <Time>2022-09-18T12:35:19.000Z</Time>
            <Position>
              <LatitudeDegrees>49.3521565385162830352783203125</LatitudeDegrees>
              <LongitudeDegrees>20.005835629999637603759765625</LongitudeDegrees>
            </Position>
            <AltitudeMeters>734.5999755859375</AltitudeMeters>
            <DistanceMeters>14484.537387019</DistanceMeters>
          </Trackpoint>
          <Trackpoint>
            <Time>2022-09-18T12:35:22.000Z</Time>
            <Position>
              <LatitudeDegrees>49.35214421711862087249755859375</LatitudeDegrees>
              <LongitudeDegrees>20.005859769880771636962890625</LongitudeDegrees>
            </Position>
            <AltitudeMeters>734.5999755859375</AltitudeMeters>
            <DistanceMeters>14486.757842319</DistanceMeters>
          </Trackpoint>
          <Trackpoint>
            <Time>2022-09-18T12:35:24.000Z</Time>
            <Position>
              <LatitudeDegrees>49.35214002616703510284423828125</LatitudeDegrees>
              <LongitudeDegrees>20.00585683621466159820556640625</LongitudeDegrees>
            </Position>
            <AltitudeMeters>734.4000244140625</AltitudeMeters>
            <DistanceMeters>14487.269576837</DistanceMeters>
          </Trackpoint>
          <Trackpoint>
            <Time>2022-09-18T12:35:26.000Z</Time>
            <Position>
              <LatitudeDegrees>49.35214002616703510284423828125</LatitudeDegrees>
              <LongitudeDegrees>20.00585683621466159820556640625</LongitudeDegrees>
            </Position>
            <AltitudeMeters>733.79998779296875</AltitudeMeters>
            <DistanceMeters>14487.269576837</DistanceMeters>
          </Trackpoint>
          <Trackpoint>
            <Time>2022-09-18T12:35:32.000Z</Time>
            <Position>
              <LatitudeDegrees>49.35213625431060791015625</LatitudeDegrees>
              <LongitudeDegrees>20.00585851259529590606689453125</LongitudeDegrees>
            </Position>
            <AltitudeMeters>733.79998779296875</AltitudeMeters>
            <DistanceMeters>14487.694549223</DistanceMeters>
          </Trackpoint>
          <Trackpoint>
            <Time>2022-09-18T12:35:33.000Z</Time>
            <Position>
              <LatitudeDegrees>49.35213625431060791015625</LatitudeDegrees>
              <LongitudeDegrees>20.00585851259529590606689453125</LongitudeDegrees>
            </Position>
            <AltitudeMeters>733.79998779296875</AltitudeMeters>
            <DistanceMeters>14487.694549223</DistanceMeters>
          </Trackpoint>
          <Trackpoint>
            <Time>2022-09-18T12:35:39.000Z</Time>
            <Position>
              <LatitudeDegrees>49.35213298536837100982666015625</LatitudeDegrees>
              <LongitudeDegrees>20.00586010515689849853515625</LongitudeDegrees>
            </Position>
            <AltitudeMeters>733.79998779296875</AltitudeMeters>
            <DistanceMeters>14488.07465608</DistanceMeters>
          </Trackpoint>
          <Trackpoint>
            <Time>2022-09-18T12:35:41.000Z</Time>
            <Position>
              <LatitudeDegrees>49.352090321481227874755859375</LatitudeDegrees>
              <LongitudeDegrees>20.00589086674153804779052734375</LongitudeDegrees>
            </Position>
            <AltitudeMeters>733.79998779296875</AltitudeMeters>
            <DistanceMeters>14493.320956968</DistanceMeters>
          </Trackpoint>
          <Trackpoint>
            <Time>2022-09-18T12:35:42.000Z</Time>
            <Position>
              <LatitudeDegrees>49.35206743888556957244873046875</LatitudeDegrees>
              <LongitudeDegrees>20.00590545125305652618408203125</LongitudeDegrees>
            </Position>
            <AltitudeMeters>733.79998779296875</AltitudeMeters>
            <DistanceMeters>14496.078369589</DistanceMeters>
          </Trackpoint>
          <Trackpoint>
            <Time>2022-09-18T12:35:44.000Z</Time>
            <Position>
              <LatitudeDegrees>49.35201899148523807525634765625</LatitudeDegrees>
              <LongitudeDegrees>20.00592372380197048187255859375</LongitudeDegrees>
            </Position>
            <AltitudeMeters>733.79998779296875</AltitudeMeters>
            <DistanceMeters>14501.630727735</DistanceMeters>
          </Trackpoint>
          <Trackpoint>
            <Time>2022-09-18T12:35:47.000Z</Time>
            <Position>
              <LatitudeDegrees>49.35193114914000034332275390625</LatitudeDegrees>
              <LongitudeDegrees>20.00592623837292194366455078125</LongitudeDegrees>
            </Position>
            <AltitudeMeters>733.79998779296875</AltitudeMeters>
            <DistanceMeters>14511.409710788</DistanceMeters>
          </Trackpoint>
          <Trackpoint>
            <Time>2022-09-18T12:35:52.000Z</Time>
            <Position>
              <LatitudeDegrees>49.35176954604685306549072265625</LatitudeDegrees>
              <LongitudeDegrees>20.00592489726841449737548828125</LongitudeDegrees>
            </Position>
            <AltitudeMeters>733.5999755859375</AltitudeMeters>
            <DistanceMeters>14529.396638787</DistanceMeters>
          </Trackpoint>
          <Trackpoint>
            <Time>2022-09-18T12:35:53.000Z</Time>
            <Position>
              <LatitudeDegrees>49.35174087993800640106201171875</LatitudeDegrees>
              <LongitudeDegrees>20.005924142897129058837890625</LongitudeDegrees>
            </Position>
            <AltitudeMeters>733.5999755859375</AltitudeMeters>
            <DistanceMeters>14532.586763573</DistanceMeters>
          </Trackpoint>
          <Trackpoint>
            <Time>2022-09-18T12:35:59.000Z</Time>
            <Position>
              <LatitudeDegrees>49.351576678454875946044921875</LatitudeDegrees>
              <LongitudeDegrees>20.0059211254119873046875</LongitudeDegrees>
            </Position>
            <AltitudeMeters>733.4000244140625</AltitudeMeters>
            <DistanceMeters>14550.864034922</DistanceMeters>
          </Trackpoint>
          <Trackpoint>
            <Time>2022-09-18T12:36:08.000Z</Time>
            <Position>
              <LatitudeDegrees>49.351265542209148406982421875</LatitudeDegrees>
              <LongitudeDegrees>20.00591115094721317291259765625</LongitudeDegrees>
            </Position>
            <AltitudeMeters>733</AltitudeMeters>
            <DistanceMeters>14585.501630776</DistanceMeters>
          </Trackpoint>
          <Trackpoint>
            <Time>2022-09-18T12:36:11.000Z</Time>
            <Position>
              <LatitudeDegrees>49.3511567451059818267822265625</LatitudeDegrees>
              <LongitudeDegrees>20.005885921418666839599609375</LongitudeDegrees>
            </Position>
            <AltitudeMeters>732.79998779296875</AltitudeMeters>
            <DistanceMeters>14597.747916319</DistanceMeters>
          </Trackpoint>
          <Trackpoint>
            <Time>2022-09-18T12:36:17.000Z</Time>
            <Position>
              <LatitudeDegrees>49.35094275511801242828369140625</LatitudeDegrees>
              <LongitudeDegrees>20.0058703310787677764892578125</LongitudeDegrees>
            </Position>
            <AltitudeMeters>732.20001220703125</AltitudeMeters>
            <DistanceMeters>14621.592237929</DistanceMeters>
          </Trackpoint>
          <Trackpoint>
            <Time>2022-09-18T12:36:22.000Z</Time>
            <Position>
              <LatitudeDegrees>49.35076790861785411834716796875</LatitudeDegrees>
              <LongitudeDegrees>20.0058612786233425140380859375</LongitudeDegrees>
            </Position>
            <AltitudeMeters>732.20001220703125</AltitudeMeters>
            <DistanceMeters>14641.064136905</DistanceMeters>
          </Trackpoint>
          <Trackpoint>
            <Time>2022-09-18T12:36:28.000Z</Time>
            <Position>
              <LatitudeDegrees>49.35049935244023799896240234375</LatitudeDegrees>
              <LongitudeDegrees>20.00580310821533203125</LongitudeDegrees>
            </Position>
            <AltitudeMeters>732.4000244140625</AltitudeMeters>
            <DistanceMeters>14671.251239023</DistanceMeters>
          </Trackpoint>
          <Trackpoint>
            <Time>2022-09-18T12:36:34.000Z</Time>
            <Position>
              <LatitudeDegrees>49.35028829611837863922119140625</LatitudeDegrees>
              <LongitudeDegrees>20.0057422555983066558837890625</LongitudeDegrees>
            </Position>
            <AltitudeMeters>732</AltitudeMeters>
            <DistanceMeters>14695.153055194</DistanceMeters>
          </Trackpoint>
          <Trackpoint>
            <Time>2022-09-18T12:36:35.000Z</Time>
            <Position>
              <LatitudeDegrees>49.3502605520188808441162109375</LatitudeDegrees>
              <LongitudeDegrees>20.00573479570448398590087890625</LongitudeDegrees>
            </Position>
            <AltitudeMeters>732.20001220703125</AltitudeMeters>
            <DistanceMeters>14698.287496639</DistanceMeters>
          </Trackpoint>
          <Trackpoint>
            <Time>2022-09-18T12:36:40.000Z</Time>
            <Position>
              <LatitudeDegrees>49.35009500943124294281005859375</LatitudeDegrees>
              <LongitudeDegrees>20.00570680014789104461669921875</LongitudeDegrees>
            </Position>
            <AltitudeMeters>732.79998779296875</AltitudeMeters>
            <DistanceMeters>14716.824283547</DistanceMeters>
          </Trackpoint>
          <Trackpoint>
            <Time>2022-09-18T12:36:46.000Z</Time>
            <Position>
              <LatitudeDegrees>49.34983433224260807037353515625</LatitudeDegrees>
              <LongitudeDegrees>20.00567905604839324951171875</LongitudeDegrees>
            </Position>
            <AltitudeMeters>733.20001220703125</AltitudeMeters>
            <DistanceMeters>14745.907736927</DistanceMeters>
          </Trackpoint>
          <Trackpoint>
            <Time>2022-09-18T12:36:50.000Z</Time>
            <Position>
              <LatitudeDegrees>49.34964473359286785125732421875</LatitudeDegrees>
              <LongitudeDegrees>20.00562583096325397491455078125</LongitudeDegrees>
            </Position>
            <AltitudeMeters>733.5999755859375</AltitudeMeters>
            <DistanceMeters>14767.360425475</DistanceMeters>
          </Trackpoint>
          <Trackpoint>
            <Time>2022-09-18T12:36:54.000Z</Time>
            <Position>
              <LatitudeDegrees>49.3494833819568157196044921875</LatitudeDegrees>
              <LongitudeDegrees>20.00560621730983257293701171875</LongitudeDegrees>
            </Position>
            <AltitudeMeters>733.79998779296875</AltitudeMeters>
            <DistanceMeters>14785.375445525</DistanceMeters>
          </Trackpoint>
          <Trackpoint>
            <Time>2022-09-18T12:36:59.000Z</Time>
            <Position>
              <LatitudeDegrees>49.34931926429271697998046875</LatitudeDegrees>
              <LongitudeDegrees>20.0055866874754428863525390625</LongitudeDegrees>
            </Position>
            <AltitudeMeters>733.79998779296875</AltitudeMeters>
            <DistanceMeters>14803.696635486</DistanceMeters>
          </Trackpoint>
          <Trackpoint>
            <Time>2022-09-18T12:37:05.000Z</Time>
            <Position>
              <LatitudeDegrees>49.3491175957024097442626953125</LatitudeDegrees>
              <LongitudeDegrees>20.00553295947611331939697265625</LongitudeDegrees>
            </Position>
            <AltitudeMeters>735</AltitudeMeters>
            <DistanceMeters>14826.478088766</DistanceMeters>
          </Trackpoint>
          <Trackpoint>
            <Time>2022-09-18T12:37:06.000Z</Time>
            <Position>
              <LatitudeDegrees>49.349084235727787017822265625</LatitudeDegrees>
              <LongitudeDegrees>20.0055256672203540802001953125</LongitudeDegrees>
            </Position>
            <AltitudeMeters>735.20001220703125</AltitudeMeters>
            <DistanceMeters>14830.22893655</DistanceMeters>
          </Trackpoint>
          <Trackpoint>
            <Time>2022-09-18T12:37:09.000Z</Time>
            <Position>
              <LatitudeDegrees>49.348975606262683868408203125</LatitudeDegrees>
              <LongitudeDegrees>20.005505383014678955078125</LongitudeDegrees>
            </Position>
            <AltitudeMeters>735.5999755859375</AltitudeMeters>
            <DistanceMeters>14842.408677755</DistanceMeters>
          </Trackpoint>
          <Trackpoint>
            <Time>2022-09-18T12:37:14.000Z</Time>
            <Position>
              <LatitudeDegrees>49.34881500899791717529296875</LatitudeDegrees>
              <LongitudeDegrees>20.00544461421668529510498046875</LongitudeDegrees>
            </Position>
            <AltitudeMeters>736</AltitudeMeters>
            <DistanceMeters>14860.818616896</DistanceMeters>
          </Trackpoint>
          <Trackpoint>
            <Time>2022-09-18T12:37:15.000Z</Time>
            <Position>
              <LatitudeDegrees>49.34878324158489704132080078125</LatitudeDegrees>
              <LongitudeDegrees>20.00543296337127685546875</LongitudeDegrees>
            </Position>
            <AltitudeMeters>736.20001220703125</AltitudeMeters>
            <DistanceMeters>14864.454553077</DistanceMeters>
          </Trackpoint>
          <Trackpoint>
            <Time>2022-09-18T12:37:23.000Z</Time>
            <Position>
              <LatitudeDegrees>49.34855793602764606475830078125</LatitudeDegrees>
              <LongitudeDegrees>20.00539013184607028961181640625</LongitudeDegrees>
            </Position>
            <AltitudeMeters>736.5999755859375</AltitudeMeters>
            <DistanceMeters>14889.722726439</DistanceMeters>
          </Trackpoint>
          <Trackpoint>
            <Time>2022-09-18T12:37:28.000Z</Time>
            <Position>
              <LatitudeDegrees>49.3484151922166347503662109375</LatitudeDegrees>
              <LongitudeDegrees>20.00534788705408573150634765625</LongitudeDegrees>
            </Position>
            <AltitudeMeters>737</AltitudeMeters>
            <DistanceMeters>14905.902681512</DistanceMeters>
          </Trackpoint>
          <Trackpoint>
            <Time>2022-09-18T12:37:30.000Z</Time>
            <Position>
              <LatitudeDegrees>49.34835274703800678253173828125</LatitudeDegrees>
              <LongitudeDegrees>20.00532642938196659088134765625</LongitudeDegrees>
            </Position>
            <AltitudeMeters>737.20001220703125</AltitudeMeters>
            <DistanceMeters>14913.024615195</DistanceMeters>
          </Trackpoint>
          <Trackpoint>
            <Time>2022-09-18T12:37:35.000Z</Time>
            <Position>
              <LatitudeDegrees>49.34822232462465763092041015625</LatitudeDegrees>
              <LongitudeDegrees>20.0052742101252079010009765625</LongitudeDegrees>
            </Position>
            <AltitudeMeters>737.5999755859375</AltitudeMeters>
            <DistanceMeters>14928.026200616</DistanceMeters>
          </Trackpoint>
          <Trackpoint>
            <Time>2022-09-18T12:37:39.000Z</Time>
            <Position>
              <LatitudeDegrees>49.3481245078146457672119140625</LatitudeDegrees>
              <LongitudeDegrees>20.005244873464107513427734375</LongitudeDegrees>
            </Position>
            <AltitudeMeters>738</AltitudeMeters>
            <DistanceMeters>14939.118712578</DistanceMeters>
          </Trackpoint>
          <Trackpoint>
            <Time>2022-09-18T12:37:42.000Z</Time>
            <Position>
              <LatitudeDegrees>49.34804747812449932098388671875</LatitudeDegrees>
              <LongitudeDegrees>20.00523121096193790435791015625</LongitudeDegrees>
            </Position>
            <AltitudeMeters>738.20001220703125</AltitudeMeters>
            <DistanceMeters>14947.748896267</DistanceMeters>
          </Trackpoint>
          <Trackpoint>
            <Time>2022-09-18T12:37:48.000Z</Time>
            <Position>
              <LatitudeDegrees>49.3478834442794322967529296875</LatitudeDegrees>
              <LongitudeDegrees>20.00520237721502780914306640625</LongitudeDegrees>
            </Position>
            <AltitudeMeters>738.20001220703125</AltitudeMeters>
            <DistanceMeters>14966.125451134</DistanceMeters>
          </Trackpoint>
          <Trackpoint>
            <Time>2022-09-18T12:37:54.000Z</Time>
            <Position>
              <LatitudeDegrees>49.34772980399429798126220703125</LatitudeDegrees>
              <LongitudeDegrees>20.0051840208470821380615234375</LongitudeDegrees>
            </Position>
            <AltitudeMeters>738.4000244140625</AltitudeMeters>
            <DistanceMeters>14983.27770727</DistanceMeters>
          </Trackpoint>
          <Trackpoint>
            <Time>2022-09-18T12:38:00.000Z</Time>
            <Position>
              <LatitudeDegrees>49.3475505150854587554931640625</LatitudeDegrees>
              <LongitudeDegrees>20.0051823444664478302001953125</LongitudeDegrees>
            </Position>
            <AltitudeMeters>738.4000244140625</AltitudeMeters>
            <DistanceMeters>15003.233317288</DistanceMeters>
          </Trackpoint>
          <Trackpoint>
            <Time>2022-09-18T12:38:07.000Z</Time>
            <Position>
              <LatitudeDegrees>49.3473490141332149505615234375</LatitudeDegrees>
              <LongitudeDegrees>20.00516700558364391326904296875</LongitudeDegrees>
            </Position>
            <AltitudeMeters>737.79998779296875</AltitudeMeters>
            <DistanceMeters>15025.688192226</DistanceMeters>
          </Trackpoint>
          <Trackpoint>
            <Time>2022-09-18T12:38:14.000Z</Time>
            <Position>
              <LatitudeDegrees>49.34713460505008697509765625</LatitudeDegrees>
              <LongitudeDegrees>20.005133561789989471435546875</LongitudeDegrees>
            </Position>
            <AltitudeMeters>738</AltitudeMeters>
            <DistanceMeters>15049.675238956</DistanceMeters>
          </Trackpoint>
          <Trackpoint>
            <Time>2022-09-18T12:38:21.000Z</Time>
            <Position>
              <LatitudeDegrees>49.34694592840969562530517578125</LatitudeDegrees>
              <LongitudeDegrees>20.0051012076437473297119140625</LongitudeDegrees>
            </Position>
            <AltitudeMeters>738</AltitudeMeters>
            <DistanceMeters>15070.80581301</DistanceMeters>
          </Trackpoint>
          <Trackpoint>
            <Time>2022-09-18T12:38:27.000Z</Time>
            <Position>
              <LatitudeDegrees>49.34676990844309329986572265625</LatitudeDegrees>
              <LongitudeDegrees>20.00507614575326442718505859375</LongitudeDegrees>
            </Position>
            <AltitudeMeters>738</AltitudeMeters>
            <DistanceMeters>15090.48116249</DistanceMeters>
          </Trackpoint>
          <Trackpoint>
            <Time>2022-09-18T12:38:36.000Z</Time>
            <Position>
              <LatitudeDegrees>49.3464756198227405548095703125</LatitudeDegrees>
              <LongitudeDegrees>20.00499819405376911163330078125</LongitudeDegrees>
            </Position>
            <AltitudeMeters>738</AltitudeMeters>
            <DistanceMeters>15123.720143415</DistanceMeters>
          </Trackpoint>
          <Trackpoint>
            <Time>2022-09-18T12:38:41.000Z</Time>
            <Position>
              <LatitudeDegrees>49.3463374860584735870361328125</LatitudeDegrees>
              <LongitudeDegrees>20.0049402751028537750244140625</LongitudeDegrees>
            </Position>
            <AltitudeMeters>738.4000244140625</AltitudeMeters>
            <DistanceMeters>15139.658024402</DistanceMeters>
          </Trackpoint>
          <Trackpoint>
            <Time>2022-09-18T12:38:44.000Z</Time>
            <Position>
              <LatitudeDegrees>49.3462402559816837310791015625</LatitudeDegrees>
              <LongitudeDegrees>20.004897527396678924560546875</LongitudeDegrees>
            </Position>
            <AltitudeMeters>738.79998779296875</AltitudeMeters>
            <DistanceMeters>15150.914980595</DistanceMeters>
          </Trackpoint>
          <Trackpoint>
            <Time>2022-09-18T12:38:45.000Z</Time>
            <Position>
              <LatitudeDegrees>49.34620798565447330474853515625</LatitudeDegrees>
              <LongitudeDegrees>20.00487598590552806854248046875</LongitudeDegrees>
            </Position>
            <AltitudeMeters>739.20001220703125</AltitudeMeters>
            <DistanceMeters>15154.833032401</DistanceMeters>
          </Trackpoint>
          <Trackpoint>
            <Time>2022-09-18T12:38:52.000Z</Time>
            <Position>
              <LatitudeDegrees>49.34595711529254913330078125</LatitudeDegrees>
              <LongitudeDegrees>20.00477691181004047393798828125</LongitudeDegrees>
            </Position>
            <AltitudeMeters>739.5999755859375</AltitudeMeters>
            <DistanceMeters>15183.66483285</DistanceMeters>
          </Trackpoint>
          <Trackpoint>
            <Time>2022-09-18T12:38:56.000Z</Time>
            <Position>
              <LatitudeDegrees>49.345821328461170196533203125</LatitudeDegrees>
              <LongitudeDegrees>20.00475478358566761016845703125</LongitudeDegrees>
            </Position>
            <AltitudeMeters>740.20001220703125</AltitudeMeters>
            <DistanceMeters>15198.863166819</DistanceMeters>
          </Trackpoint>
          <Trackpoint>
            <Time>2022-09-18T12:38:59.000Z</Time>
            <Position>
              <LatitudeDegrees>49.345738850533962249755859375</LatitudeDegrees>
              <LongitudeDegrees>20.004754699766635894775390625</LongitudeDegrees>
            </Position>
            <AltitudeMeters>740.4000244140625</AltitudeMeters>
            <DistanceMeters>15208.042963842</DistanceMeters>
          </Trackpoint>
          <Trackpoint>
            <Time>2022-09-18T12:39:04.000Z</Time>
            <Position>
              <LatitudeDegrees>49.3455640040338039398193359375</LatitudeDegrees>
              <LongitudeDegrees>20.00476215966045856475830078125</LongitudeDegrees>
            </Position>
            <AltitudeMeters>740.5999755859375</AltitudeMeters>
            <DistanceMeters>15227.511152471</DistanceMeters>
          </Trackpoint>
          <Trackpoint>
            <Time>2022-09-18T12:39:06.000Z</Time>
            <Position>
              <LatitudeDegrees>49.34549468569457530975341796875</LatitudeDegrees>
              <LongitudeDegrees>20.0047578848898410797119140625</LongitudeDegrees>
            </Position>
            <AltitudeMeters>740.79998779296875</AltitudeMeters>
            <DistanceMeters>15235.232328851</DistanceMeters>
          </Trackpoint>
          <Trackpoint>
            <Time>2022-09-18T12:39:12.000Z</Time>
            <Position>
              <LatitudeDegrees>49.3453329987823963165283203125</LatitudeDegrees>
              <LongitudeDegrees>20.004736594855785369873046875</LongitudeDegrees>
            </Position>
            <AltitudeMeters>741</AltitudeMeters>
            <DistanceMeters>15253.294405192</DistanceMeters>
          </Trackpoint>
          <Trackpoint>
            <Time>2022-09-18T12:39:13.000Z</Time>
            <Position>
              <LatitudeDegrees>49.34530508704483509063720703125</LatitudeDegrees>
              <LongitudeDegrees>20.00474304892122745513916015625</LongitudeDegrees>
            </Position>
            <AltitudeMeters>741.20001220703125</AltitudeMeters>
            <DistanceMeters>15256.436040682</DistanceMeters>
          </Trackpoint>
          <Trackpoint>
            <Time>2022-09-18T12:39:18.000Z</Time>
            <Position>
              <LatitudeDegrees>49.34520483948290348052978515625</LatitudeDegrees>
              <LongitudeDegrees>20.00476308166980743408203125</LongitudeDegrees>
            </Position>
            <AltitudeMeters>741.5999755859375</AltitudeMeters>
            <DistanceMeters>15267.687781514</DistanceMeters>
          </Trackpoint>
          <Trackpoint>
            <Time>2022-09-18T12:39:23.000Z</Time>
            <Position>
              <LatitudeDegrees>49.34506670571863651275634765625</LatitudeDegrees>
              <LongitudeDegrees>20.0047637522220611572265625</LongitudeDegrees>
            </Position>
            <AltitudeMeters>742</AltitudeMeters>
            <DistanceMeters>15283.062446098</DistanceMeters>
          </Trackpoint>
          <Trackpoint>
            <Time>2022-09-18T12:39:26.000Z</Time>
            <Position>
              <LatitudeDegrees>49.34497869573533535003662109375</LatitudeDegrees>
              <LongitudeDegrees>20.004764087498188018798828125</LongitudeDegrees>
            </Position>
            <AltitudeMeters>742.20001220703125</AltitudeMeters>
            <DistanceMeters>15292.85803655</DistanceMeters>
          </Trackpoint>
          <Trackpoint>
            <Time>2022-09-18T12:39:27.000Z</Time>
            <Position>
              <LatitudeDegrees>49.34494818560779094696044921875</LatitudeDegrees>
              <LongitudeDegrees>20.0047637522220611572265625</LongitudeDegrees>
            </Position>
            <AltitudeMeters>742.4000244140625</AltitudeMeters>
            <DistanceMeters>15296.253829185</DistanceMeters>
          </Trackpoint>
          <Trackpoint>
            <Time>2022-09-18T12:39:35.000Z</Time>
            <Position>
              <LatitudeDegrees>49.344685077667236328125</LatitudeDegrees>
              <LongitudeDegrees>20.00474120490252971649169921875</LongitudeDegrees>
            </Position>
            <AltitudeMeters>742.5999755859375</AltitudeMeters>
            <DistanceMeters>15325.583851899</DistanceMeters>
          </Trackpoint>
          <Trackpoint>
            <Time>2022-09-18T12:39:42.000Z</Time>
            <Position>
              <LatitudeDegrees>49.34446974657475948333740234375</LatitudeDegrees>
              <LongitudeDegrees>20.00473399646580219268798828125</LongitudeDegrees>
            </Position>
            <AltitudeMeters>743.20001220703125</AltitudeMeters>
            <DistanceMeters>15349.556212336</DistanceMeters>
          </Trackpoint>
          <Trackpoint>
            <Time>2022-09-18T12:39:43.000Z</Time>
            <Position>
              <LatitudeDegrees>49.34443672187626361846923828125</LatitudeDegrees>
              <LongitudeDegrees>20.00473466701805591583251953125</LongitudeDegrees>
            </Position>
            <AltitudeMeters>743.4000244140625</AltitudeMeters>
            <DistanceMeters>15353.231670723</DistanceMeters>
          </Trackpoint>
          <Trackpoint>
            <Time>2022-09-18T12:39:53.000Z</Time>
            <Position>
              <LatitudeDegrees>49.3441164493560791015625</LatitudeDegrees>
              <LongitudeDegrees>20.004722177982330322265625</LongitudeDegrees>
            </Position>
            <AltitudeMeters>743.5999755859375</AltitudeMeters>
            <DistanceMeters>15388.890120831</DistanceMeters>
          </Trackpoint>
          <Trackpoint>
            <Time>2022-09-18T12:39:58.000Z</Time>
            <Position>
              <LatitudeDegrees>49.3439536727964878082275390625</LatitudeDegrees>
              <LongitudeDegrees>20.00470583327114582061767578125</LongitudeDegrees>
            </Position>
            <AltitudeMeters>744</AltitudeMeters>
            <DistanceMeters>15407.045943878</DistanceMeters>
          </Trackpoint>
          <Trackpoint>
            <Time>2022-09-18T12:40:03.000Z</Time>
            <Position>
              <LatitudeDegrees>49.34381176717579364776611328125</LatitudeDegrees>
              <LongitudeDegrees>20.0046730600297451019287109375</LongitudeDegrees>
            </Position>
            <AltitudeMeters>744.20001220703125</AltitudeMeters>
            <DistanceMeters>15423.018348822</DistanceMeters>
          </Trackpoint>
          <Trackpoint>
            <Time>2022-09-18T12:40:09.000Z</Time>
            <Position>
              <LatitudeDegrees>49.34362761676311492919921875</LatitudeDegrees>
              <LongitudeDegrees>20.0046918354928493499755859375</LongitudeDegrees>
            </Position>
            <AltitudeMeters>744.20001220703125</AltitudeMeters>
            <DistanceMeters>15443.559950806</DistanceMeters>
          </Trackpoint>
          <Trackpoint>
            <Time>2022-09-18T12:40:13.000Z</Time>
            <Position>
              <LatitudeDegrees>49.34351253323256969451904296875</LatitudeDegrees>
              <LongitudeDegrees>20.00470667146146297454833984375</LongitudeDegrees>
            </Position>
            <AltitudeMeters>744.20001220703125</AltitudeMeters>
            <DistanceMeters>15456.413872725</DistanceMeters>
          </Trackpoint>
          <Trackpoint>
            <Time>2022-09-18T12:40:14.000Z</Time>
            <Position>
              <LatitudeDegrees>49.34349291957914829254150390625</LatitudeDegrees>
              <LongitudeDegrees>20.00469828955829143524169921875</LongitudeDegrees>
            </Position>
            <AltitudeMeters>744.20001220703125</AltitudeMeters>
            <DistanceMeters>15458.678620706</DistanceMeters>
          </Trackpoint>
          <Trackpoint>
            <Time>2022-09-18T12:40:15.000Z</Time>
            <Position>
              <LatitudeDegrees>49.34346802532672882080078125</LatitudeDegrees>
              <LongitudeDegrees>20.0046985410153865814208984375</LongitudeDegrees>
            </Position>
            <AltitudeMeters>744.4000244140625</AltitudeMeters>
            <DistanceMeters>15461.449101707</DistanceMeters>
          </Trackpoint>
          <Trackpoint>
            <Time>2022-09-18T12:40:18.000Z</Time>
            <Position>
              <LatitudeDegrees>49.34337657876312732696533203125</LatitudeDegrees>
              <LongitudeDegrees>20.00471622683107852935791015625</LongitudeDegrees>
            </Position>
            <AltitudeMeters>744.5999755859375</AltitudeMeters>
            <DistanceMeters>15471.708026649</DistanceMeters>
          </Trackpoint>
          <Trackpoint>
            <Time>2022-09-18T12:40:20.000Z</Time>
            <Position>
              <LatitudeDegrees>49.34331002645194530487060546875</LatitudeDegrees>
              <LongitudeDegrees>20.00473357737064361572265625</LongitudeDegrees>
            </Position>
            <AltitudeMeters>744.5999755859375</AltitudeMeters>
            <DistanceMeters>15479.221149026</DistanceMeters>
          </Trackpoint>
          <Trackpoint>
            <Time>2022-09-18T12:40:21.000Z</Time>
            <Position>
              <LatitudeDegrees>49.3432824499905109405517578125</LatitudeDegrees>
              <LongitudeDegrees>20.00474028289318084716796875</LongitudeDegrees>
            </Position>
            <AltitudeMeters>744.79998779296875</AltitudeMeters>
            <DistanceMeters>15482.32955405</DistanceMeters>
          </Trackpoint>
          <Trackpoint>
            <Time>2022-09-18T12:40:24.000Z</Time>
            <Position>
              <LatitudeDegrees>49.34321497566998004913330078125</LatitudeDegrees>
              <LongitudeDegrees>20.00473760068416595458984375</LongitudeDegrees>
            </Position>
            <AltitudeMeters>745.20001220703125</AltitudeMeters>
            <DistanceMeters>15489.841474424</DistanceMeters>
          </Trackpoint>
          <Trackpoint>
            <Time>2022-09-18T12:40:25.000Z</Time>
            <Position>
              <LatitudeDegrees>49.34320592321455478668212890625</LatitudeDegrees>
              <LongitudeDegrees>20.00473684631288051605224609375</LongitudeDegrees>
            </Position>
            <AltitudeMeters>745.20001220703125</AltitudeMeters>
            <DistanceMeters>15490.84714264</DistanceMeters>
          </Trackpoint>
          <Trackpoint>
            <Time>2022-09-18T12:40:26.000Z</Time>
            <Position>
              <LatitudeDegrees>49.3431972898542881011962890625</LatitudeDegrees>
              <LongitudeDegrees>20.0047315657138824462890625</LongitudeDegrees>
            </Position>
            <AltitudeMeters>745.4000244140625</AltitudeMeters>
            <DistanceMeters>15491.879396979</DistanceMeters>
          </Trackpoint>
          <Trackpoint>
            <Time>2022-09-18T12:40:28.000Z</Time>
            <Position>
              <LatitudeDegrees>49.34318882413208484649658203125</LatitudeDegrees>
              <LongitudeDegrees>20.004735924303531646728515625</LongitudeDegrees>
            </Position>
            <AltitudeMeters>745.4000244140625</AltitudeMeters>
            <DistanceMeters>15492.866943563</DistanceMeters>
          </Trackpoint>
          <Trackpoint>
            <Time>2022-09-18T12:40:32.000Z</Time>
            <Position>
              <LatitudeDegrees>49.34318882413208484649658203125</LatitudeDegrees>
              <LongitudeDegrees>20.004735924303531646728515625</LongitudeDegrees>
            </Position>
            <AltitudeMeters>745.20001220703125</AltitudeMeters>
            <DistanceMeters>15492.866943563</DistanceMeters>
          </Trackpoint>
          <Trackpoint>
            <Time>2022-09-18T12:40:39.000Z</Time>
            <Position>
              <LatitudeDegrees>49.34318882413208484649658203125</LatitudeDegrees>
              <LongitudeDegrees>20.004735924303531646728515625</LongitudeDegrees>
            </Position>
            <AltitudeMeters>745</AltitudeMeters>
            <DistanceMeters>15492.866943563</DistanceMeters>
          </Trackpoint>
          <Trackpoint>
            <Time>2022-09-18T12:40:42.000Z</Time>
            <Position>
              <LatitudeDegrees>49.34318882413208484649658203125</LatitudeDegrees>
              <LongitudeDegrees>20.004735924303531646728515625</LongitudeDegrees>
            </Position>
            <AltitudeMeters>745</AltitudeMeters>
            <DistanceMeters>15492.866943563</DistanceMeters>
          </Trackpoint>
          <Trackpoint>
            <Time>2022-09-18T12:40:44.000Z</Time>
            <Position>
              <LatitudeDegrees>49.34318882413208484649658203125</LatitudeDegrees>
              <LongitudeDegrees>20.004735924303531646728515625</LongitudeDegrees>
            </Position>
            <AltitudeMeters>745</AltitudeMeters>
            <DistanceMeters>15492.866943563</DistanceMeters>
          </Trackpoint>
          <Trackpoint>
            <Time>2022-09-18T12:40:48.000Z</Time>
            <Position>
              <LatitudeDegrees>49.34318882413208484649658203125</LatitudeDegrees>
              <LongitudeDegrees>20.004735924303531646728515625</LongitudeDegrees>
            </Position>
            <AltitudeMeters>745.20001220703125</AltitudeMeters>
            <DistanceMeters>15492.866943563</DistanceMeters>
          </Trackpoint>
          <Trackpoint>
            <Time>2022-09-18T12:40:52.000Z</Time>
            <Position>
              <LatitudeDegrees>49.34318882413208484649658203125</LatitudeDegrees>
              <LongitudeDegrees>20.004735924303531646728515625</LongitudeDegrees>
            </Position>
            <AltitudeMeters>745.20001220703125</AltitudeMeters>
            <DistanceMeters>15492.866943563</DistanceMeters>
          </Trackpoint>
          <Trackpoint>
            <Time>2022-09-18T12:40:57.000Z</Time>
            <Position>
              <LatitudeDegrees>49.343188740313053131103515625</LatitudeDegrees>
              <LongitudeDegrees>20.00473801977932453155517578125</LongitudeDegrees>
            </Position>
            <AltitudeMeters>745.20001220703125</AltitudeMeters>
            <DistanceMeters>15493.001331632</DistanceMeters>
          </Trackpoint>
          <Trackpoint>
            <Time>2022-09-18T12:41:00.000Z</Time>
            <Position>
              <LatitudeDegrees>49.343225955963134765625</LatitudeDegrees>
              <LongitudeDegrees>20.00477691181004047393798828125</LongitudeDegrees>
            </Position>
            <AltitudeMeters>745</AltitudeMeters>
            <DistanceMeters>15498.01348413</DistanceMeters>
          </Trackpoint>
          <Trackpoint>
            <Time>2022-09-18T12:41:07.000Z</Time>
            <Position>
              <LatitudeDegrees>49.343363083899021148681640625</LatitudeDegrees>
              <LongitudeDegrees>20.00474422238767147064208984375</LongitudeDegrees>
            </Position>
            <AltitudeMeters>745</AltitudeMeters>
            <DistanceMeters>15513.459345053</DistanceMeters>
          </Trackpoint>
          <Trackpoint>
            <Time>2022-09-18T12:41:14.000Z</Time>
            <Position>
              <LatitudeDegrees>49.343533404171466827392578125</LatitudeDegrees>
              <LongitudeDegrees>20.004683621227741241455078125</LongitudeDegrees>
            </Position>
            <AltitudeMeters>745</AltitudeMeters>
            <DistanceMeters>15532.919182816</DistanceMeters>
          </Trackpoint>
          <Trackpoint>
            <Time>2022-09-18T12:41:18.000Z</Time>
            <Position>
              <LatitudeDegrees>49.3436200730502605438232421875</LatitudeDegrees>
              <LongitudeDegrees>20.0046552903950214385986328125</LongitudeDegrees>
            </Position>
            <AltitudeMeters>744.5999755859375</AltitudeMeters>
            <DistanceMeters>15542.78183882</DistanceMeters>
          </Trackpoint>
          <Trackpoint>
            <Time>2022-09-18T12:41:19.000Z</Time>
            <Position>
              <LatitudeDegrees>49.343637339770793914794921875</LatitudeDegrees>
              <LongitudeDegrees>20.00463944859802722930908203125</LongitudeDegrees>
            </Position>
            <AltitudeMeters>744.5999755859375</AltitudeMeters>
            <DistanceMeters>15545.018502038</DistanceMeters>
          </Trackpoint>
          <Trackpoint>
            <Time>2022-09-18T12:41:21.000Z</Time>
            <Position>
              <LatitudeDegrees>49.34366784989833831787109375</LatitudeDegrees>
              <LongitudeDegrees>20.004594437777996063232421875</LongitudeDegrees>
            </Position>
            <AltitudeMeters>744.5999755859375</AltitudeMeters>
            <DistanceMeters>15549.727840393</DistanceMeters>
          </Trackpoint>
          <Trackpoint>
            <Time>2022-09-18T12:41:23.000Z</Time>
            <Position>
              <LatitudeDegrees>49.343695007264614105224609375</LatitudeDegrees>
              <LongitudeDegrees>20.0045667774975299835205078125</LongitudeDegrees>
            </Position>
            <AltitudeMeters>744.5999755859375</AltitudeMeters>
            <DistanceMeters>15553.355073688</DistanceMeters>
          </Trackpoint>
          <Trackpoint>
            <Time>2022-09-18T12:41:26.000Z</Time>
            <Position>
              <LatitudeDegrees>49.34371436946094036102294921875</LatitudeDegrees>
              <LongitudeDegrees>20.0045292265713214874267578125</LongitudeDegrees>
            </Position>
            <AltitudeMeters>744.4000244140625</AltitudeMeters>
            <DistanceMeters>15556.827126691</DistanceMeters>
          </Trackpoint>
          <Trackpoint>
            <Time>2022-09-18T12:41:27.000Z</Time>
            <Position>
              <LatitudeDegrees>49.343713782727718353271484375</LatitudeDegrees>
              <LongitudeDegrees>20.0045305676758289337158203125</LongitudeDegrees>
            </Position>
            <AltitudeMeters>744.4000244140625</AltitudeMeters>
            <DistanceMeters>15556.961514759</DistanceMeters>
          </Trackpoint>
          <Trackpoint>
            <Time>2022-09-18T12:41:31.000Z</Time>
            <Position>
              <LatitudeDegrees>49.34371990151703357696533203125</LatitudeDegrees>
              <LongitudeDegrees>20.0045255385339260101318359375</LongitudeDegrees>
            </Position>
            <AltitudeMeters>744.4000244140625</AltitudeMeters>
            <DistanceMeters>15557.739341939</DistanceMeters>
          </Trackpoint>
          <Trackpoint>
            <Time>2022-09-18T12:41:32.000Z</Time>
            <Position>
              <LatitudeDegrees>49.34371990151703357696533203125</LatitudeDegrees>
              <LongitudeDegrees>20.0045255385339260101318359375</LongitudeDegrees>
            </Position>
            <AltitudeMeters>744.4000244140625</AltitudeMeters>
            <DistanceMeters>15557.739341939</DistanceMeters>
          </Trackpoint>
          <Trackpoint>
            <Time>2022-09-18T12:41:37.000Z</Time>
            <Position>
              <LatitudeDegrees>49.34371990151703357696533203125</LatitudeDegrees>
              <LongitudeDegrees>20.0045255385339260101318359375</LongitudeDegrees>
            </Position>
            <AltitudeMeters>744.20001220703125</AltitudeMeters>
            <DistanceMeters>15557.739341939</DistanceMeters>
          </Trackpoint>
          <Trackpoint>
            <Time>2022-09-18T12:41:42.000Z</Time>
            <Position>
              <LatitudeDegrees>49.34371990151703357696533203125</LatitudeDegrees>
              <LongitudeDegrees>20.0045255385339260101318359375</LongitudeDegrees>
            </Position>
            <AltitudeMeters>744.4000244140625</AltitudeMeters>
            <DistanceMeters>15557.739341939</DistanceMeters>
          </Trackpoint>
          <Trackpoint>
            <Time>2022-09-18T12:41:58.000Z</Time>
            <Position>
              <LatitudeDegrees>49.3437219969928264617919921875</LatitudeDegrees>
              <LongitudeDegrees>20.0045272149145603179931640625</LongitudeDegrees>
            </Position>
            <AltitudeMeters>744.4000244140625</AltitudeMeters>
            <DistanceMeters>15558.008118076</DistanceMeters>
          </Trackpoint>
          <Trackpoint>
            <Time>2022-09-18T12:42:04.000Z</Time>
            <Position>
              <LatitudeDegrees>49.343722164630889892578125</LatitudeDegrees>
              <LongitudeDegrees>20.00453081913292407989501953125</LongitudeDegrees>
            </Position>
            <AltitudeMeters>744.20001220703125</AltitudeMeters>
            <DistanceMeters>15558.240885038</DistanceMeters>
          </Trackpoint>
          <Trackpoint>
            <Time>2022-09-18T12:42:10.000Z</Time>
            <Position>
              <LatitudeDegrees>49.3437183089554309844970703125</LatitudeDegrees>
              <LongitudeDegrees>20.00453735701739788055419921875</LongitudeDegrees>
            </Position>
            <AltitudeMeters>744.4000244140625</AltitudeMeters>
            <DistanceMeters>15558.885387572</DistanceMeters>
          </Trackpoint>
          <Trackpoint>
            <Time>2022-09-18T12:42:15.000Z</Time>
            <Position>
              <LatitudeDegrees>49.3437196500599384307861328125</LatitudeDegrees>
              <LongitudeDegrees>20.0045399554073810577392578125</LongitudeDegrees>
            </Position>
            <AltitudeMeters>744.20001220703125</AltitudeMeters>
            <DistanceMeters>15559.136804626</DistanceMeters>
          </Trackpoint>
          <Trackpoint>
            <Time>2022-09-18T12:42:20.000Z</Time>
            <Position>
              <LatitudeDegrees>49.34372191317379474639892578125</LatitudeDegrees>
              <LongitudeDegrees>20.0045651011168956756591796875</LongitudeDegrees>
            </Position>
            <AltitudeMeters>744.20001220703125</AltitudeMeters>
            <DistanceMeters>15560.979440983</DistanceMeters>
          </Trackpoint>
          <Trackpoint>
            <Time>2022-09-18T12:42:23.000Z</Time>
            <Position>
              <LatitudeDegrees>49.34374454431235790252685546875</LatitudeDegrees>
              <LongitudeDegrees>20.0045701302587985992431640625</LongitudeDegrees>
            </Position>
            <AltitudeMeters>744.20001220703125</AltitudeMeters>
            <DistanceMeters>15563.525731399</DistanceMeters>
          </Trackpoint>
          <Trackpoint>
            <Time>2022-09-18T12:42:35.000Z</Time>
            <Position>
              <LatitudeDegrees>49.34375443495810031890869140625</LatitudeDegrees>
              <LongitudeDegrees>20.00457775779068470001220703125</LongitudeDegrees>
            </Position>
            <AltitudeMeters>744.79998779296875</AltitudeMeters>
            <DistanceMeters>15564.75741839</DistanceMeters>
          </Trackpoint>
          <Trackpoint>
            <Time>2022-09-18T12:42:38.000Z</Time>
            <Position>
              <LatitudeDegrees>49.34379793703556060791015625</LatitudeDegrees>
              <LongitudeDegrees>20.0046066753566265106201171875</LongitudeDegrees>
            </Position>
            <AltitudeMeters>744.79998779296875</AltitudeMeters>
            <DistanceMeters>15570.034610423</DistanceMeters>
          </Trackpoint>
          <Trackpoint>
            <Time>2022-09-18T12:42:42.000Z</Time>
            <Position>
              <LatitudeDegrees>49.34383171610534191131591796875</LatitudeDegrees>
              <LongitudeDegrees>20.00464766286313533782958984375</LongitudeDegrees>
            </Position>
            <AltitudeMeters>744.4000244140625</AltitudeMeters>
            <DistanceMeters>15574.827575525</DistanceMeters>
          </Trackpoint>
          <Trackpoint>
            <Time>2022-09-18T12:42:47.000Z</Time>
            <Position>
              <LatitudeDegrees>49.34387831948697566986083984375</LatitudeDegrees>
              <LongitudeDegrees>20.00457541085779666900634765625</LongitudeDegrees>
            </Position>
            <AltitudeMeters>744.5999755859375</AltitudeMeters>
            <DistanceMeters>15582.200570859</DistanceMeters>
          </Trackpoint>
          <Trackpoint>
            <Time>2022-09-18T12:47:39.000Z</Time>
            <Position>
              <LatitudeDegrees>49.34351907111704349517822265625</LatitudeDegrees>
              <LongitudeDegrees>20.00408221967518329620361328125</LongitudeDegrees>
            </Position>
            <AltitudeMeters>744.20001220703125</AltitudeMeters>
            <DistanceMeters>15635.846328404</DistanceMeters>
          </Trackpoint>
          <Trackpoint>
            <Time>2022-09-18T12:47:41.000Z</Time>
            <Position>
              <LatitudeDegrees>49.34357070364058017730712890625</LatitudeDegrees>
              <LongitudeDegrees>20.00402220524847507476806640625</LongitudeDegrees>
            </Position>
            <AltitudeMeters>744.20001220703125</AltitudeMeters>
            <DistanceMeters>15643.05521805</DistanceMeters>
          </Trackpoint>
          <Trackpoint>
            <Time>2022-09-18T12:47:43.000Z</Time>
            <Position>
              <LatitudeDegrees>49.34354555793106555938720703125</LatitudeDegrees>
              <LongitudeDegrees>20.0039662979543209075927734375</LongitudeDegrees>
            </Position>
            <AltitudeMeters>744.4000244140625</AltitudeMeters>
            <DistanceMeters>15647.981966013</DistanceMeters>
          </Trackpoint>
          <Trackpoint>
            <Time>2022-09-18T12:47:46.000Z</Time>
            <Position>
              <LatitudeDegrees>49.3436376750469207763671875</LatitudeDegrees>
              <LongitudeDegrees>20.00436787493526935577392578125</LongitudeDegrees>
            </Position>
            <AltitudeMeters>744.5999755859375</AltitudeMeters>
            <DistanceMeters>15678.854974107</DistanceMeters>
          </Trackpoint>
          <Trackpoint>
            <Time>2022-09-18T12:47:47.000Z</Time>
            <Position>
              <LatitudeDegrees>49.34365150518715381622314453125</LatitudeDegrees>
              <LongitudeDegrees>20.00443040393292903900146484375</LongitudeDegrees>
            </Position>
            <AltitudeMeters>744.5999755859375</AltitudeMeters>
            <DistanceMeters>15683.644169673</DistanceMeters>
          </Trackpoint>
          <Trackpoint>
            <Time>2022-09-18T12:47:48.000Z</Time>
            <Position>
              <LatitudeDegrees>49.34365469031035900115966796875</LatitudeDegrees>
              <LongitudeDegrees>20.0044336728751659393310546875</LongitudeDegrees>
            </Position>
            <AltitudeMeters>744.5999755859375</AltitudeMeters>
            <DistanceMeters>15684.079636785</DistanceMeters>
          </Trackpoint>
          <Trackpoint>
            <Time>2022-09-18T12:47:50.000Z</Time>
            <Position>
              <LatitudeDegrees>49.34366810135543346405029296875</LatitudeDegrees>
              <LongitudeDegrees>20.00438916496932506561279296875</LongitudeDegrees>
            </Position>
            <AltitudeMeters>744.5999755859375</AltitudeMeters>
            <DistanceMeters>15687.635210862</DistanceMeters>
          </Trackpoint>
          <Trackpoint>
            <Time>2022-09-18T12:47:51.000Z</Time>
            <Position>
              <LatitudeDegrees>49.34366810135543346405029296875</LatitudeDegrees>
              <LongitudeDegrees>20.00438916496932506561279296875</LongitudeDegrees>
            </Position>
            <AltitudeMeters>744.5999755859375</AltitudeMeters>
            <DistanceMeters>15687.635210862</DistanceMeters>
          </Trackpoint>
          <Trackpoint>
            <Time>2022-09-18T12:47:54.000Z</Time>
            <Position>
              <LatitudeDegrees>49.3436810933053493499755859375</LatitudeDegrees>
              <LongitudeDegrees>20.00446359626948833465576171875</LongitudeDegrees>
            </Position>
            <AltitudeMeters>744.4000244140625</AltitudeMeters>
            <DistanceMeters>15693.223234157</DistanceMeters>
          </Trackpoint>
          <Trackpoint>
            <Time>2022-09-18T12:47:59.000Z</Time>
            <Position>
              <LatitudeDegrees>49.34370271861553192138671875</LatitudeDegrees>
              <LongitudeDegrees>20.004551522433757781982421875</LongitudeDegrees>
            </Position>
            <AltitudeMeters>744.4000244140625</AltitudeMeters>
            <DistanceMeters>15700.038710166</DistanceMeters>
          </Trackpoint>
          <Trackpoint>
            <Time>2022-09-18T12:48:01.000Z</Time>
            <Position>
              <LatitudeDegrees>49.34369542635977268218994140625</LatitudeDegrees>
              <LongitudeDegrees>20.00454171560704708099365234375</LongitudeDegrees>
            </Position>
            <AltitudeMeters>744.20001220703125</AltitudeMeters>
            <DistanceMeters>15701.12218141</DistanceMeters>
          </Trackpoint>
          <Trackpoint>
            <Time>2022-09-18T12:48:04.000Z</Time>
            <Position>
              <LatitudeDegrees>49.34361948631703853607177734375</LatitudeDegrees>
              <LongitudeDegrees>20.00467465259134769439697265625</LongitudeDegrees>
            </Position>
            <AltitudeMeters>744</AltitudeMeters>
            <DistanceMeters>15713.943042595</DistanceMeters>
          </Trackpoint>
          <Trackpoint>
            <Time>2022-09-18T12:48:05.000Z</Time>
            <Position>
              <LatitudeDegrees>49.34361948631703853607177734375</LatitudeDegrees>
              <LongitudeDegrees>20.00467465259134769439697265625</LongitudeDegrees>
            </Position>
            <AltitudeMeters>744</AltitudeMeters>
            <DistanceMeters>15713.943042595</DistanceMeters>
          </Trackpoint>
          <Trackpoint>
            <Time>2022-09-18T12:48:09.000Z</Time>
            <Position>
              <LatitudeDegrees>49.343680925667285919189453125</LatitudeDegrees>
              <LongitudeDegrees>20.00486961565911769866943359375</LongitudeDegrees>
            </Position>
            <AltitudeMeters>743.79998779296875</AltitudeMeters>
            <DistanceMeters>15729.648057972</DistanceMeters>
          </Trackpoint>
          <Trackpoint>
            <Time>2022-09-18T12:48:11.000Z</Time>
            <Position>
              <LatitudeDegrees>49.34366072528064250946044921875</LatitudeDegrees>
              <LongitudeDegrees>20.005082599818706512451171875</LongitudeDegrees>
            </Position>
            <AltitudeMeters>743.79998779296875</AltitudeMeters>
            <DistanceMeters>15745.255599167</DistanceMeters>
          </Trackpoint>
          <Trackpoint>
            <Time>2022-09-18T12:48:13.000Z</Time>
            <Position>
              <LatitudeDegrees>49.34364127926528453826904296875</LatitudeDegrees>
              <LongitudeDegrees>20.00513247214257717132568359375</LongitudeDegrees>
            </Position>
            <AltitudeMeters>743.79998779296875</AltitudeMeters>
            <DistanceMeters>15749.471188146</DistanceMeters>
          </Trackpoint>
          <Trackpoint>
            <Time>2022-09-18T12:48:14.000Z</Time>
            <Position>
              <LatitudeDegrees>49.3436660058796405792236328125</LatitudeDegrees>
              <LongitudeDegrees>20.00441213138401508331298828125</LongitudeDegrees>
            </Position>
            <AltitudeMeters>743.79998779296875</AltitudeMeters>
            <DistanceMeters>15801.779575074</DistanceMeters>
          </Trackpoint>
          <Trackpoint>
            <Time>2022-09-18T12:48:15.000Z</Time>
            <Position>
              <LatitudeDegrees>49.3436660058796405792236328125</LatitudeDegrees>
              <LongitudeDegrees>20.00441213138401508331298828125</LongitudeDegrees>
            </Position>
            <AltitudeMeters>743.5999755859375</AltitudeMeters>
            <DistanceMeters>15801.913963142</DistanceMeters>
          </Trackpoint>
          <Trackpoint>
            <Time>2022-09-18T12:48:16.000Z</Time>
            <Position>
              <LatitudeDegrees>49.34367665089666843414306640625</LatitudeDegrees>
              <LongitudeDegrees>20.0043890811502933502197265625</LongitudeDegrees>
            </Position>
            <AltitudeMeters>743.5999755859375</AltitudeMeters>
            <DistanceMeters>15803.963105779</DistanceMeters>
          </Trackpoint>
          <Trackpoint>
            <Time>2022-09-18T12:48:18.000Z</Time>
            <Position>
              <LatitudeDegrees>49.34371453709900379180908203125</LatitudeDegrees>
              <LongitudeDegrees>20.004837512969970703125</LongitudeDegrees>
            </Position>
            <AltitudeMeters>743.5999755859375</AltitudeMeters>
            <DistanceMeters>15836.753519045</DistanceMeters>
          </Trackpoint>
          <Trackpoint>
            <Time>2022-09-18T12:48:19.000Z</Time>
            <Position>
              <LatitudeDegrees>49.34372551739215850830078125</LatitudeDegrees>
              <LongitudeDegrees>20.0048541091382503509521484375</LongitudeDegrees>
            </Position>
            <AltitudeMeters>743.5999755859375</AltitudeMeters>
            <DistanceMeters>15838.469271044</DistanceMeters>
          </Trackpoint>
          <Trackpoint>
            <Time>2022-09-18T12:48:22.000Z</Time>
            <Position>
              <LatitudeDegrees>49.34377589263021945953369140625</LatitudeDegrees>
              <LongitudeDegrees>20.00488243997097015380859375</LongitudeDegrees>
            </Position>
            <AltitudeMeters>743.5999755859375</AltitudeMeters>
            <DistanceMeters>15844.441607434</DistanceMeters>
          </Trackpoint>
          <Trackpoint>
            <Time>2022-09-18T12:48:23.000Z</Time>
            <Position>
              <LatitudeDegrees>49.3437820114195346832275390625</LatitudeDegrees>
              <LongitudeDegrees>20.0048886425793170928955078125</LongitudeDegrees>
            </Position>
            <AltitudeMeters>743.5999755859375</AltitudeMeters>
            <DistanceMeters>15845.25905814</DistanceMeters>
          </Trackpoint>
          <Trackpoint>
            <Time>2022-09-18T12:48:25.000Z</Time>
            <Position>
              <LatitudeDegrees>49.34379081241786479949951171875</LatitudeDegrees>
              <LongitudeDegrees>20.0049292109906673431396484375</LongitudeDegrees>
            </Position>
            <AltitudeMeters>743.5999755859375</AltitudeMeters>
            <DistanceMeters>15848.360192031</DistanceMeters>
          </Trackpoint>
          <Trackpoint>
            <Time>2022-09-18T12:48:27.000Z</Time>
            <Position>
              <LatitudeDegrees>49.34379433281719684600830078125</LatitudeDegrees>
              <LongitudeDegrees>20.00493952073156833648681640625</LongitudeDegrees>
            </Position>
            <AltitudeMeters>743.5999755859375</AltitudeMeters>
            <DistanceMeters>15849.210136803</DistanceMeters>
          </Trackpoint>
          <Trackpoint>
            <Time>2022-09-18T12:48:32.000Z</Time>
            <Position>
              <LatitudeDegrees>49.34387513436377048492431640625</LatitudeDegrees>
              <LongitudeDegrees>20.00494488514959812164306640625</LongitudeDegrees>
            </Position>
            <AltitudeMeters>743.5999755859375</AltitudeMeters>
            <DistanceMeters>15858.212131361</DistanceMeters>
          </Trackpoint>
          <Trackpoint>
            <Time>2022-09-18T12:48:36.000Z</Time>
            <Position>
              <LatitudeDegrees>49.3438413552939891815185546875</LatitudeDegrees>
              <LongitudeDegrees>20.00496081076562404632568359375</LongitudeDegrees>
            </Position>
            <AltitudeMeters>743.5999755859375</AltitudeMeters>
            <DistanceMeters>15862.145135422</DistanceMeters>
          </Trackpoint>
          <Trackpoint>
            <Time>2022-09-18T12:48:38.000Z</Time>
            <Position>
              <LatitudeDegrees>49.34379198588430881500244140625</LatitudeDegrees>
              <LongitudeDegrees>20.004988051950931549072265625</LongitudeDegrees>
            </Position>
            <AltitudeMeters>743.5999755859375</AltitudeMeters>
            <DistanceMeters>15867.984447766</DistanceMeters>
          </Trackpoint>
          <Trackpoint>
            <Time>2022-09-18T12:48:39.000Z</Time>
            <Position>
              <LatitudeDegrees>49.3437883816659450531005859375</LatitudeDegrees>
              <LongitudeDegrees>20.00499651767313480377197265625</LongitudeDegrees>
            </Position>
            <AltitudeMeters>743.5999755859375</AltitudeMeters>
            <DistanceMeters>15868.720521531</DistanceMeters>
          </Trackpoint>
          <Trackpoint>
            <Time>2022-09-18T12:48:45.000Z</Time>
            <Position>
              <LatitudeDegrees>49.343780167400836944580078125</LatitudeDegrees>
              <LongitudeDegrees>20.00478663481771945953369140625</LongitudeDegrees>
            </Position>
            <AltitudeMeters>743.4000244140625</AltitudeMeters>
            <DistanceMeters>15883.967497886</DistanceMeters>
          </Trackpoint>
          <Trackpoint>
            <Time>2022-09-18T12:48:50.000Z</Time>
            <Position>
              <LatitudeDegrees>49.34378326870501041412353515625</LatitudeDegrees>
              <LongitudeDegrees>20.00487011857330799102783203125</LongitudeDegrees>
            </Position>
            <AltitudeMeters>743.4000244140625</AltitudeMeters>
            <DistanceMeters>15890.030619294</DistanceMeters>
          </Trackpoint>
          <Trackpoint>
            <Time>2022-09-18T12:48:51.000Z</Time>
            <Position>
              <LatitudeDegrees>49.3437860347330570220947265625</LatitudeDegrees>
              <LongitudeDegrees>20.004904232919216156005859375</LongitudeDegrees>
            </Position>
            <AltitudeMeters>743.5999755859375</AltitudeMeters>
            <DistanceMeters>15892.523146644</DistanceMeters>
          </Trackpoint>
          <Trackpoint>
            <Time>2022-09-18T12:48:53.000Z</Time>
            <Position>
              <LatitudeDegrees>49.3437692709267139434814453125</LatitudeDegrees>
              <LongitudeDegrees>20.0048812665045261383056640625</LongitudeDegrees>
            </Position>
            <AltitudeMeters>743.4000244140625</AltitudeMeters>
            <DistanceMeters>15895.022909213</DistanceMeters>
          </Trackpoint>
          <Trackpoint>
            <Time>2022-09-18T12:48:55.000Z</Time>
            <Position>
              <LatitudeDegrees>49.34376348741352558135986328125</LatitudeDegrees>
              <LongitudeDegrees>20.004870034754276275634765625</LongitudeDegrees>
            </Position>
            <AltitudeMeters>743.4000244140625</AltitudeMeters>
            <DistanceMeters>15896.063874713</DistanceMeters>
          </Trackpoint>
          <Trackpoint>
            <Time>2022-09-18T12:48:57.000Z</Time>
            <Position>
              <LatitudeDegrees>49.3437610566616058349609375</LatitudeDegrees>
              <LongitudeDegrees>20.0048829428851604461669921875</LongitudeDegrees>
            </Position>
            <AltitudeMeters>743.20001220703125</AltitudeMeters>
            <DistanceMeters>15897.037608777</DistanceMeters>
          </Trackpoint>
          <Trackpoint>
            <Time>2022-09-18T12:48:58.000Z</Time>
            <Position>
              <LatitudeDegrees>49.34375694952905178070068359375</LatitudeDegrees>
              <LongitudeDegrees>20.00492393039166927337646484375</LongitudeDegrees>
            </Position>
            <AltitudeMeters>743.20001220703125</AltitudeMeters>
            <DistanceMeters>15900.045620844</DistanceMeters>
          </Trackpoint>
          <Trackpoint>
            <Time>2022-09-18T12:49:02.000Z</Time>
            <Position>
              <LatitudeDegrees>49.3437488190829753875732421875</LatitudeDegrees>
              <LongitudeDegrees>20.00499718822538852691650390625</LongitudeDegrees>
            </Position>
            <AltitudeMeters>743.20001220703125</AltitudeMeters>
            <DistanceMeters>15905.433727726</DistanceMeters>
          </Trackpoint>
          <Trackpoint>
            <Time>2022-09-18T12:49:07.000Z</Time>
            <Position>
              <LatitudeDegrees>49.3437488190829753875732421875</LatitudeDegrees>
              <LongitudeDegrees>20.00493767671287059783935546875</LongitudeDegrees>
            </Position>
            <AltitudeMeters>743.4000244140625</AltitudeMeters>
            <DistanceMeters>15909.74881957</DistanceMeters>
          </Trackpoint>
          <Trackpoint>
            <Time>2022-09-18T12:49:13.000Z</Time>
            <Position>
              <LatitudeDegrees>49.3437595479190349578857421875</LatitudeDegrees>
              <LongitudeDegrees>20.0049821846187114715576171875</LongitudeDegrees>
            </Position>
            <AltitudeMeters>743</AltitudeMeters>
            <DistanceMeters>15913.190833558</DistanceMeters>
          </Trackpoint>
          <Trackpoint>
            <Time>2022-09-18T12:49:16.000Z</Time>
            <Position>
              <LatitudeDegrees>49.34377538971602916717529296875</LatitudeDegrees>
              <LongitudeDegrees>20.00500791706144809722900390625</LongitudeDegrees>
            </Position>
            <AltitudeMeters>743</AltitudeMeters>
            <DistanceMeters>15915.758313997</DistanceMeters>
          </Trackpoint>
          <Trackpoint>
            <Time>2022-09-18T12:49:18.000Z</Time>
            <Position>
              <LatitudeDegrees>49.34377656318247318267822265625</LatitudeDegrees>
              <LongitudeDegrees>20.00498075969517230987548828125</LongitudeDegrees>
            </Position>
            <AltitudeMeters>743.20001220703125</AltitudeMeters>
            <DistanceMeters>15917.733407166</DistanceMeters>
          </Trackpoint>
          <Trackpoint>
            <Time>2022-09-18T12:49:20.000Z</Time>
            <Position>
              <LatitudeDegrees>49.3437806703150272369384765625</LatitudeDegrees>
              <LongitudeDegrees>20.004958547651767730712890625</LongitudeDegrees>
            </Position>
            <AltitudeMeters>743.4000244140625</AltitudeMeters>
            <DistanceMeters>15919.406525123</DistanceMeters>
          </Trackpoint>
          <Trackpoint>
            <Time>2022-09-18T12:49:21.000Z</Time>
            <Position>
              <LatitudeDegrees>49.34378008358180522918701171875</LatitudeDegrees>
              <LongitudeDegrees>20.0048735551536083221435546875</LongitudeDegrees>
            </Position>
            <AltitudeMeters>743.4000244140625</AltitudeMeters>
            <DistanceMeters>15925.569357387</DistanceMeters>
          </Trackpoint>
          <Trackpoint>
            <Time>2022-09-18T12:49:26.000Z</Time>
            <Position>
              <LatitudeDegrees>49.3437458015978336334228515625</LatitudeDegrees>
              <LongitudeDegrees>20.004848577082157135009765625</LongitudeDegrees>
            </Position>
            <AltitudeMeters>744</AltitudeMeters>
            <DistanceMeters>15929.793505947</DistanceMeters>
          </Trackpoint>
          <Trackpoint>
            <Time>2022-09-18T12:49:32.000Z</Time>
            <Position>
              <LatitudeDegrees>49.34377388097345829010009765625</LatitudeDegrees>
              <LongitudeDegrees>20.0047020614147186279296875</LongitudeDegrees>
            </Position>
            <AltitudeMeters>744</AltitudeMeters>
            <DistanceMeters>15940.868501583</DistanceMeters>
          </Trackpoint>
          <Trackpoint>
            <Time>2022-09-18T12:49:37.000Z</Time>
            <Position>
              <LatitudeDegrees>49.343754351139068603515625</LatitudeDegrees>
              <LongitudeDegrees>20.004689656198024749755859375</LongitudeDegrees>
            </Position>
            <AltitudeMeters>743.79998779296875</AltitudeMeters>
            <DistanceMeters>15943.221252496</DistanceMeters>
          </Trackpoint>
          <Trackpoint>
            <Time>2022-09-18T12:49:41.000Z</Time>
            <Position>
              <LatitudeDegrees>49.3437280319631099700927734375</LatitudeDegrees>
              <LongitudeDegrees>20.0047206692397594451904296875</LongitudeDegrees>
            </Position>
            <AltitudeMeters>743.5999755859375</AltitudeMeters>
            <DistanceMeters>15946.913868836</DistanceMeters>
          </Trackpoint>
          <Trackpoint>
            <Time>2022-09-18T12:49:42.000Z</Time>
            <Position>
              <LatitudeDegrees>49.34372912161052227020263671875</LatitudeDegrees>
              <LongitudeDegrees>20.00473164953291416168212890625</LongitudeDegrees>
            </Position>
            <AltitudeMeters>743.5999755859375</AltitudeMeters>
            <DistanceMeters>15947.714578163</DistanceMeters>
          </Trackpoint>
          <Trackpoint>
            <Time>2022-09-18T12:49:45.000Z</Time>
            <Position>
              <LatitudeDegrees>49.3437447957694530487060546875</LatitudeDegrees>
              <LongitudeDegrees>20.00477557070553302764892578125</LongitudeDegrees>
            </Position>
            <AltitudeMeters>743.5999755859375</AltitudeMeters>
            <DistanceMeters>15951.345543821</DistanceMeters>
          </Trackpoint>
          <Trackpoint>
            <Time>2022-09-18T12:49:46.000Z</Time>
            <Position>
              <LatitudeDegrees>49.34374940581619739532470703125</LatitudeDegrees>
              <LongitudeDegrees>20.00479132868349552154541015625</LongitudeDegrees>
            </Position>
            <AltitudeMeters>743.79998779296875</AltitudeMeters>
            <DistanceMeters>15952.599032274</DistanceMeters>
          </Trackpoint>
          <Trackpoint>
            <Time>2022-09-18T12:49:49.000Z</Time>
            <Position>
              <LatitudeDegrees>49.343759380280971527099609375</LatitudeDegrees>
              <LongitudeDegrees>20.004799626767635345458984375</LongitudeDegrees>
            </Position>
            <AltitudeMeters>744</AltitudeMeters>
            <DistanceMeters>15953.863280482</DistanceMeters>
          </Trackpoint>
          <Trackpoint>
            <Time>2022-09-18T12:49:50.000Z</Time>
            <Position>
              <LatitudeDegrees>49.34376172721385955810546875</LatitudeDegrees>
              <LongitudeDegrees>20.0048071704804897308349609375</LongitudeDegrees>
            </Position>
            <AltitudeMeters>744.20001220703125</AltitudeMeters>
            <DistanceMeters>15954.464282194</DistanceMeters>
          </Trackpoint>
          <Trackpoint>
            <Time>2022-09-18T12:49:52.000Z</Time>
            <Position>
              <LatitudeDegrees>49.3437342345714569091796875</LatitudeDegrees>
              <LongitudeDegrees>20.00489543192088603973388671875</LongitudeDegrees>
            </Position>
            <AltitudeMeters>744.20001220703125</AltitudeMeters>
            <DistanceMeters>15961.558266689</DistanceMeters>
          </Trackpoint>
          <Trackpoint>
            <Time>2022-09-18T12:49:53.000Z</Time>
            <Position>
              <LatitudeDegrees>49.343725182116031646728515625</LatitudeDegrees>
              <LongitudeDegrees>20.00467264093458652496337890625</LongitudeDegrees>
            </Position>
            <AltitudeMeters>744.20001220703125</AltitudeMeters>
            <DistanceMeters>15977.745196543</DistanceMeters>
          </Trackpoint>
          <Trackpoint>
            <Time>2022-09-18T12:49:56.000Z</Time>
            <Position>
              <LatitudeDegrees>49.3437132798135280609130859375</LatitudeDegrees>
              <LongitudeDegrees>20.004679262638092041015625</LongitudeDegrees>
            </Position>
            <AltitudeMeters>744.20001220703125</AltitudeMeters>
            <DistanceMeters>15979.154670494</DistanceMeters>
          </Trackpoint>
          <Trackpoint>
            <Time>2022-09-18T12:49:57.000Z</Time>
            <Position>
              <LatitudeDegrees>49.343724511563777923583984375</LatitudeDegrees>
              <LongitudeDegrees>20.0046971999108791351318359375</LongitudeDegrees>
            </Position>
            <AltitudeMeters>744.20001220703125</AltitudeMeters>
            <DistanceMeters>15980.95767563</DistanceMeters>
          </Trackpoint>
          <Trackpoint>
            <Time>2022-09-18T12:49:58.000Z</Time>
            <Position>
              <LatitudeDegrees>49.343757368624210357666015625</LatitudeDegrees>
              <LongitudeDegrees>20.00469745136797428131103515625</LongitudeDegrees>
            </Position>
            <AltitudeMeters>744.20001220703125</AltitudeMeters>
            <DistanceMeters>15984.615895592</DistanceMeters>
          </Trackpoint>
          <Trackpoint>
            <Time>2022-09-18T12:50:00.000Z</Time>
            <Position>
              <LatitudeDegrees>49.343800283968448638916015625</LatitudeDegrees>
              <LongitudeDegrees>20.004668533802032470703125</LongitudeDegrees>
            </Position>
            <AltitudeMeters>744</AltitudeMeters>
            <DistanceMeters>15989.832853556</DistanceMeters>
          </Trackpoint>
          <Trackpoint>
            <Time>2022-09-18T12:50:03.000Z</Time>
            <Position>
              <LatitudeDegrees>49.34372015297412872314453125</LatitudeDegrees>
              <LongitudeDegrees>20.0047039054334163665771484375</LongitudeDegrees>
            </Position>
            <AltitudeMeters>744.20001220703125</AltitudeMeters>
            <DistanceMeters>15999.113417608</DistanceMeters>
          </Trackpoint>
          <Trackpoint>
            <Time>2022-09-18T12:50:05.000Z</Time>
            <Position>
              <LatitudeDegrees>49.34373222291469573974609375</LatitudeDegrees>
              <LongitudeDegrees>20.00471823848783969879150390625</LongitudeDegrees>
            </Position>
            <AltitudeMeters>744</AltitudeMeters>
            <DistanceMeters>16000.813307152</DistanceMeters>
          </Trackpoint>
          <Trackpoint>
            <Time>2022-09-18T12:50:06.000Z</Time>
            <Position>
              <LatitudeDegrees>49.34373222291469573974609375</LatitudeDegrees>
              <LongitudeDegrees>20.00471823848783969879150390625</LongitudeDegrees>
            </Position>
            <AltitudeMeters>744</AltitudeMeters>
            <DistanceMeters>16000.813307152</DistanceMeters>
          </Trackpoint>
          <Trackpoint>
            <Time>2022-09-18T12:50:07.000Z</Time>
            <Position>
              <LatitudeDegrees>49.343722499907016754150390625</LatitudeDegrees>
              <LongitudeDegrees>20.00470533035695552825927734375</LongitudeDegrees>
            </Position>
            <AltitudeMeters>744</AltitudeMeters>
            <DistanceMeters>16002.241871913</DistanceMeters>
          </Trackpoint>
          <Trackpoint>
            <Time>2022-09-18T12:50:08.000Z</Time>
            <Position>
              <LatitudeDegrees>49.34372040443122386932373046875</LatitudeDegrees>
              <LongitudeDegrees>20.00477422960102558135986328125</LongitudeDegrees>
            </Position>
            <AltitudeMeters>744</AltitudeMeters>
            <DistanceMeters>16007.243202911</DistanceMeters>
          </Trackpoint>
          <Trackpoint>
            <Time>2022-09-18T12:50:11.000Z</Time>
            <Position>
              <LatitudeDegrees>49.34378175996243953704833984375</LatitudeDegrees>
              <LongitudeDegrees>20.00485905446112155914306640625</LongitudeDegrees>
            </Position>
            <AltitudeMeters>744</AltitudeMeters>
            <DistanceMeters>16016.433814156</DistanceMeters>
          </Trackpoint>
          <Trackpoint>
            <Time>2022-09-18T12:50:17.000Z</Time>
            <Position>
              <LatitudeDegrees>49.3437726236879825592041015625</LatitudeDegrees>
              <LongitudeDegrees>20.0048282928764820098876953125</LongitudeDegrees>
            </Position>
            <AltitudeMeters>744</AltitudeMeters>
            <DistanceMeters>16018.886166274</DistanceMeters>
          </Trackpoint>
          <Trackpoint>
            <Time>2022-09-18T12:50:20.000Z</Time>
            <Position>
              <LatitudeDegrees>49.3437665887176990509033203125</LatitudeDegrees>
              <LongitudeDegrees>20.00483659096062183380126953125</LongitudeDegrees>
            </Position>
            <AltitudeMeters>743.79998779296875</AltitudeMeters>
            <DistanceMeters>16019.787668842</DistanceMeters>
          </Trackpoint>
          <Trackpoint>
            <Time>2022-09-18T12:50:26.000Z</Time>
            <Position>
              <LatitudeDegrees>49.34376399032771587371826171875</LatitudeDegrees>
              <LongitudeDegrees>20.00480423681437969207763671875</LongitudeDegrees>
            </Position>
            <AltitudeMeters>743.5999755859375</AltitudeMeters>
            <DistanceMeters>16022.151905996</DistanceMeters>
          </Trackpoint>
          <Trackpoint>
            <Time>2022-09-18T12:50:31.000Z</Time>
            <Position>
              <LatitudeDegrees>49.343782179057598114013671875</LatitudeDegrees>
              <LongitudeDegrees>20.004851259291172027587890625</LongitudeDegrees>
            </Position>
            <AltitudeMeters>743.5999755859375</AltitudeMeters>
            <DistanceMeters>16026.118061964</DistanceMeters>
          </Trackpoint>
          <Trackpoint>
            <Time>2022-09-18T12:50:36.000Z</Time>
            <Position>
              <LatitudeDegrees>49.34377371333539485931396484375</LatitudeDegrees>
              <LongitudeDegrees>20.0048514269292354583740234375</LongitudeDegrees>
            </Position>
            <AltitudeMeters>743.4000244140625</AltitudeMeters>
            <DistanceMeters>16027.058778442</DistanceMeters>
          </Trackpoint>
          <Trackpoint>
            <Time>2022-09-18T12:50:46.000Z</Time>
            <Position>
              <LatitudeDegrees>49.34377052821218967437744140625</LatitudeDegrees>
              <LongitudeDegrees>20.00485855154693126678466796875</LongitudeDegrees>
            </Position>
            <AltitudeMeters>742.79998779296875</AltitudeMeters>
            <DistanceMeters>16027.681910279</DistanceMeters>
          </Trackpoint>
          <Trackpoint>
            <Time>2022-09-18T12:50:48.000Z</Time>
            <Position>
              <LatitudeDegrees>49.343759380280971527099609375</LatitudeDegrees>
              <LongitudeDegrees>20.00487229786813259124755859375</LongitudeDegrees>
            </Position>
            <AltitudeMeters>742.79998779296875</AltitudeMeters>
            <DistanceMeters>16029.272011347</DistanceMeters>
          </Trackpoint>
          <Trackpoint>
            <Time>2022-09-18T12:50:50.000Z</Time>
            <Position>
              <LatitudeDegrees>49.3437744677066802978515625</LatitudeDegrees>
              <LongitudeDegrees>20.00486659817397594451904296875</LongitudeDegrees>
            </Position>
            <AltitudeMeters>743</AltitudeMeters>
            <DistanceMeters>16031.003480486</DistanceMeters>
          </Trackpoint>
          <Trackpoint>
            <Time>2022-09-18T12:50:52.000Z</Time>
            <Position>
              <LatitudeDegrees>49.34379793703556060791015625</LatitudeDegrees>
              <LongitudeDegrees>20.00486911274492740631103515625</LongitudeDegrees>
            </Position>
            <AltitudeMeters>743.4000244140625</AltitudeMeters>
            <DistanceMeters>16033.623186213</DistanceMeters>
          </Trackpoint>
          <Trackpoint>
            <Time>2022-09-18T12:50:55.000Z</Time>
            <Position>
              <LatitudeDegrees>49.34378410689532756805419921875</LatitudeDegrees>
              <LongitudeDegrees>20.004856623709201812744140625</LongitudeDegrees>
            </Position>
            <AltitudeMeters>743.5999755859375</AltitudeMeters>
            <DistanceMeters>16035.411103174</DistanceMeters>
          </Trackpoint>
          <Trackpoint>
            <Time>2022-09-18T12:50:56.000Z</Time>
            <Position>
              <LatitudeDegrees>49.34377840720117092132568359375</LatitudeDegrees>
              <LongitudeDegrees>20.0048390217125415802001953125</LongitudeDegrees>
            </Position>
            <AltitudeMeters>743.5999755859375</AltitudeMeters>
            <DistanceMeters>16036.839667935</DistanceMeters>
          </Trackpoint>
          <Trackpoint>
            <Time>2022-09-18T12:50:58.000Z</Time>
            <Position>
              <LatitudeDegrees>49.34378226287662982940673828125</LatitudeDegrees>
              <LongitudeDegrees>20.004829131066799163818359375</LongitudeDegrees>
            </Position>
            <AltitudeMeters>743.5999755859375</AltitudeMeters>
            <DistanceMeters>16037.678921153</DistanceMeters>
          </Trackpoint>
          <Trackpoint>
            <Time>2022-09-18T12:51:00.000Z</Time>
            <Position>
              <LatitudeDegrees>49.34378678910434246063232421875</LatitudeDegrees>
              <LongitudeDegrees>20.00482209026813507080078125</LongitudeDegrees>
            </Position>
            <AltitudeMeters>743.5999755859375</AltitudeMeters>
            <DistanceMeters>16038.402623048</DistanceMeters>
          </Trackpoint>
          <Trackpoint>
            <Time>2022-09-18T12:51:05.000Z</Time>
            <Position>
              <LatitudeDegrees>49.3438239209353923797607421875</LatitudeDegrees>
              <LongitudeDegrees>20.0048919953405857086181640625</LongitudeDegrees>
            </Position>
            <AltitudeMeters>743.5999755859375</AltitudeMeters>
            <DistanceMeters>16044.942919075</DistanceMeters>
          </Trackpoint>
          <Trackpoint>
            <Time>2022-09-18T12:51:06.000Z</Time>
            <Position>
              <LatitudeDegrees>49.3438279442489147186279296875</LatitudeDegrees>
              <LongitudeDegrees>20.00492208637297153472900390625</LongitudeDegrees>
            </Position>
            <AltitudeMeters>743.5999755859375</AltitudeMeters>
            <DistanceMeters>16047.171493068</DistanceMeters>
          </Trackpoint>
          <Trackpoint>
            <Time>2022-09-18T12:51:09.000Z</Time>
            <Position>
              <LatitudeDegrees>49.343812353909015655517578125</LatitudeDegrees>
              <LongitudeDegrees>20.0048296339809894561767578125</LongitudeDegrees>
            </Position>
            <AltitudeMeters>743.4000244140625</AltitudeMeters>
            <DistanceMeters>16054.097369624</DistanceMeters>
          </Trackpoint>
          <Trackpoint>
            <Time>2022-09-18T12:51:10.000Z</Time>
            <Position>
              <LatitudeDegrees>49.3438071571290493011474609375</LatitudeDegrees>
              <LongitudeDegrees>20.0048279576003551483154296875</LongitudeDegrees>
            </Position>
            <AltitudeMeters>743.4000244140625</AltitudeMeters>
            <DistanceMeters>16054.683153633</DistanceMeters>
          </Trackpoint>
          <Trackpoint>
            <Time>2022-09-18T12:51:14.000Z</Time>
            <Position>
              <LatitudeDegrees>49.3438071571290493011474609375</LatitudeDegrees>
              <LongitudeDegrees>20.0048279576003551483154296875</LongitudeDegrees>
            </Position>
            <AltitudeMeters>743.20001220703125</AltitudeMeters>
            <DistanceMeters>16054.683153633</DistanceMeters>
          </Trackpoint>
          <Trackpoint>
            <Time>2022-09-18T12:51:17.000Z</Time>
            <Position>
              <LatitudeDegrees>49.3438071571290493011474609375</LatitudeDegrees>
              <LongitudeDegrees>20.00482921488583087921142578125</LongitudeDegrees>
            </Position>
            <AltitudeMeters>743</AltitudeMeters>
            <DistanceMeters>16054.817541701</DistanceMeters>
          </Trackpoint>
          <Trackpoint>
            <Time>2022-09-18T12:51:27.000Z</Time>
            <Position>
              <LatitudeDegrees>49.34380304999649524688720703125</LatitudeDegrees>
              <LongitudeDegrees>20.00484497286379337310791015625</LongitudeDegrees>
            </Position>
            <AltitudeMeters>742.5999755859375</AltitudeMeters>
            <DistanceMeters>16056.049228692</DistanceMeters>
          </Trackpoint>
          <Trackpoint>
            <Time>2022-09-18T12:51:38.000Z</Time>
            <Position>
              <LatitudeDegrees>49.343774802982807159423828125</LatitudeDegrees>
              <LongitudeDegrees>20.0047780014574527740478515625</LongitudeDegrees>
            </Position>
            <AltitudeMeters>742.5999755859375</AltitudeMeters>
            <DistanceMeters>16061.834943287</DistanceMeters>
          </Trackpoint>
          <Trackpoint>
            <Time>2022-09-18T12:51:42.000Z</Time>
            <Position>
              <LatitudeDegrees>49.34377723373472690582275390625</LatitudeDegrees>
              <LongitudeDegrees>20.00479501672089099884033203125</LongitudeDegrees>
            </Position>
            <AltitudeMeters>742.5999755859375</AltitudeMeters>
            <DistanceMeters>16063.095615114</DistanceMeters>
          </Trackpoint>
          <Trackpoint>
            <Time>2022-09-18T12:51:46.000Z</Time>
            <Position>
              <LatitudeDegrees>49.3437954224646091461181640625</LatitudeDegrees>
              <LongitudeDegrees>20.004766099154949188232421875</LongitudeDegrees>
            </Position>
            <AltitudeMeters>742.5999755859375</AltitudeMeters>
            <DistanceMeters>16066.01062831</DistanceMeters>
          </Trackpoint>
          <Trackpoint>
            <Time>2022-09-18T12:51:52.000Z</Time>
            <Position>
              <LatitudeDegrees>49.34376918710768222808837890625</LatitudeDegrees>
              <LongitudeDegrees>20.00482879579067230224609375</LongitudeDegrees>
            </Position>
            <AltitudeMeters>742.5999755859375</AltitudeMeters>
            <DistanceMeters>16071.414633049</DistanceMeters>
          </Trackpoint>
          <Trackpoint>
            <Time>2022-09-18T12:51:59.000Z</Time>
            <Position>
              <LatitudeDegrees>49.3437905609607696533203125</LatitudeDegrees>
              <LongitudeDegrees>20.0047615729272365570068359375</LongitudeDegrees>
            </Position>
            <AltitudeMeters>742.5999755859375</AltitudeMeters>
            <DistanceMeters>16076.838652689</DistanceMeters>
          </Trackpoint>
          <Trackpoint>
            <Time>2022-09-18T12:52:00.000Z</Time>
            <Position>
              <LatitudeDegrees>49.34379550628364086151123046875</LatitudeDegrees>
              <LongitudeDegrees>20.00480775721371173858642578125</LongitudeDegrees>
            </Position>
            <AltitudeMeters>742.5999755859375</AltitudeMeters>
            <DistanceMeters>16080.233115465</DistanceMeters>
          </Trackpoint>
          <Trackpoint>
            <Time>2022-09-18T12:52:04.000Z</Time>
            <Position>
              <LatitudeDegrees>49.34378075413405895233154296875</LatitudeDegrees>
              <LongitudeDegrees>20.00485268421471118927001953125</LongitudeDegrees>
            </Position>
            <AltitudeMeters>742.5999755859375</AltitudeMeters>
            <DistanceMeters>16083.881448328</DistanceMeters>
          </Trackpoint>
          <Trackpoint>
            <Time>2022-09-18T12:52:09.000Z</Time>
            <Position>
              <LatitudeDegrees>49.3437789939343929290771484375</LatitudeDegrees>
              <LongitudeDegrees>20.00487330369651317596435546875</LongitudeDegrees>
            </Position>
            <AltitudeMeters>742.79998779296875</AltitudeMeters>
            <DistanceMeters>16085.389950653</DistanceMeters>
          </Trackpoint>
          <Trackpoint>
            <Time>2022-09-18T12:52:12.000Z</Time>
            <Position>
              <LatitudeDegrees>49.34380422346293926239013671875</LatitudeDegrees>
              <LongitudeDegrees>20.00493734143674373626708984375</LongitudeDegrees>
            </Position>
            <AltitudeMeters>742.5999755859375</AltitudeMeters>
            <DistanceMeters>16090.816466965</DistanceMeters>
          </Trackpoint>
          <Trackpoint>
            <Time>2022-09-18T12:52:13.000Z</Time>
            <Position>
              <LatitudeDegrees>49.3438084982335567474365234375</LatitudeDegrees>
              <LongitudeDegrees>20.00493918545544147491455078125</LongitudeDegrees>
            </Position>
            <AltitudeMeters>742.4000244140625</AltitudeMeters>
            <DistanceMeters>16091.301010036</DistanceMeters>
          </Trackpoint>
          <Trackpoint>
            <Time>2022-09-18T12:52:14.000Z</Time>
            <Position>
              <LatitudeDegrees>49.34381579048931598663330078125</LatitudeDegrees>
              <LongitudeDegrees>20.0049442984163761138916015625</LongitudeDegrees>
            </Position>
            <AltitudeMeters>742.4000244140625</AltitudeMeters>
            <DistanceMeters>16092.192439633</DistanceMeters>
          </Trackpoint>
          <Trackpoint>
            <Time>2022-09-18T12:52:18.000Z</Time>
            <Position>
              <LatitudeDegrees>49.34380640275776386260986328125</LatitudeDegrees>
              <LongitudeDegrees>20.00494086183607578277587890625</LongitudeDegrees>
            </Position>
            <AltitudeMeters>742</AltitudeMeters>
            <DistanceMeters>16093.267544179</DistanceMeters>
          </Trackpoint>
          <Trackpoint>
            <Time>2022-09-18T12:52:25.000Z</Time>
            <Position>
              <LatitudeDegrees>49.34379332698881626129150390625</LatitudeDegrees>
              <LongitudeDegrees>20.0049040652811527252197265625</LongitudeDegrees>
            </Position>
            <AltitudeMeters>742</AltitudeMeters>
            <DistanceMeters>16096.306913884</DistanceMeters>
          </Trackpoint>
          <Trackpoint>
            <Time>2022-09-18T12:52:31.000Z</Time>
            <Position>
              <LatitudeDegrees>49.3437556922435760498046875</LatitudeDegrees>
              <LongitudeDegrees>20.00487732701003551483154296875</LongitudeDegrees>
            </Position>
            <AltitudeMeters>741.79998779296875</AltitudeMeters>
            <DistanceMeters>16100.923295628</DistanceMeters>
          </Trackpoint>
          <Trackpoint>
            <Time>2022-09-18T12:52:37.000Z</Time>
            <Position>
              <LatitudeDegrees>49.34375912882387638092041015625</LatitudeDegrees>
              <LongitudeDegrees>20.004914961755275726318359375</LongitudeDegrees>
            </Position>
            <AltitudeMeters>741.79998779296875</AltitudeMeters>
            <DistanceMeters>16103.68070825</DistanceMeters>
          </Trackpoint>
          <Trackpoint>
            <Time>2022-09-18T12:52:39.000Z</Time>
            <Position>
              <LatitudeDegrees>49.34373146854341030120849609375</LatitudeDegrees>
              <LongitudeDegrees>20.00492812134325504302978515625</LongitudeDegrees>
            </Position>
            <AltitudeMeters>741.79998779296875</AltitudeMeters>
            <DistanceMeters>16106.904621708</DistanceMeters>
          </Trackpoint>
          <Trackpoint>
            <Time>2022-09-18T12:52:46.000Z</Time>
            <Position>
              <LatitudeDegrees>49.343722164630889892578125</LatitudeDegrees>
              <LongitudeDegrees>20.00492862425744533538818359375</LongitudeDegrees>
            </Position>
            <AltitudeMeters>742</AltitudeMeters>
            <DistanceMeters>16107.936876047</DistanceMeters>
          </Trackpoint>
          <Trackpoint>
            <Time>2022-09-18T12:52:47.000Z</Time>
            <Position>
              <LatitudeDegrees>49.343722164630889892578125</LatitudeDegrees>
              <LongitudeDegrees>20.00492862425744533538818359375</LongitudeDegrees>
            </Position>
            <AltitudeMeters>742.20001220703125</AltitudeMeters>
            <DistanceMeters>16107.936876047</DistanceMeters>
          </Trackpoint>
          <Trackpoint>
            <Time>2022-09-18T12:52:49.000Z</Time>
            <Position>
              <LatitudeDegrees>49.343722164630889892578125</LatitudeDegrees>
              <LongitudeDegrees>20.00492862425744533538818359375</LongitudeDegrees>
            </Position>
            <AltitudeMeters>742.20001220703125</AltitudeMeters>
            <DistanceMeters>16107.936876047</DistanceMeters>
          </Trackpoint>
          <Trackpoint>
            <Time>2022-09-18T12:52:50.000Z</Time>
            <Position>
              <LatitudeDegrees>49.3437196500599384307861328125</LatitudeDegrees>
              <LongitudeDegrees>20.00491839833557605743408203125</LongitudeDegrees>
            </Position>
            <AltitudeMeters>742.20001220703125</AltitudeMeters>
            <DistanceMeters>16108.72622722</DistanceMeters>
          </Trackpoint>
          <Trackpoint>
            <Time>2022-09-18T12:52:58.000Z</Time>
            <Position>
              <LatitudeDegrees>49.3437109328806400299072265625</LatitudeDegrees>
              <LongitudeDegrees>20.004775822162628173828125</LongitudeDegrees>
            </Position>
            <AltitudeMeters>742.20001220703125</AltitudeMeters>
            <DistanceMeters>16119.110695088</DistanceMeters>
          </Trackpoint>
          <Trackpoint>
            <Time>2022-09-18T12:53:06.000Z</Time>
            <Position>
              <LatitudeDegrees>49.3436770699918270111083984375</LatitudeDegrees>
              <LongitudeDegrees>20.004715807735919952392578125</LongitudeDegrees>
            </Position>
            <AltitudeMeters>742.79998779296875</AltitudeMeters>
            <DistanceMeters>16124.867463326</DistanceMeters>
          </Trackpoint>
          <Trackpoint>
            <Time>2022-09-18T12:53:08.000Z</Time>
            <Position>
              <LatitudeDegrees>49.343657456338405609130859375</LatitudeDegrees>
              <LongitudeDegrees>20.00471857376396656036376953125</LongitudeDegrees>
            </Position>
            <AltitudeMeters>742.79998779296875</AltitudeMeters>
            <DistanceMeters>16127.05926639</DistanceMeters>
          </Trackpoint>
          <Trackpoint>
            <Time>2022-09-18T12:53:11.000Z</Time>
            <Position>
              <LatitudeDegrees>49.34363432228565216064453125</LatitudeDegrees>
              <LongitudeDegrees>20.00468823127448558807373046875</LongitudeDegrees>
            </Position>
            <AltitudeMeters>743</AltitudeMeters>
            <DistanceMeters>16130.445739051</DistanceMeters>
          </Trackpoint>
          <Trackpoint>
            <Time>2022-09-18T12:53:14.000Z</Time>
            <Position>
              <LatitudeDegrees>49.34362091124057769775390625</LatitudeDegrees>
              <LongitudeDegrees>20.00467884354293346405029296875</LongitudeDegrees>
            </Position>
            <AltitudeMeters>743.4000244140625</AltitudeMeters>
            <DistanceMeters>16132.08615448</DistanceMeters>
          </Trackpoint>
          <Trackpoint>
            <Time>2022-09-18T12:53:18.000Z</Time>
            <Position>
              <LatitudeDegrees>49.34361445717513561248779296875</LatitudeDegrees>
              <LongitudeDegrees>20.00468320213258266448974609375</LongitudeDegrees>
            </Position>
            <AltitudeMeters>743.5999755859375</AltitudeMeters>
            <DistanceMeters>16132.869764841</DistanceMeters>
          </Trackpoint>
          <Trackpoint>
            <Time>2022-09-18T12:53:19.000Z</Time>
            <Position>
              <LatitudeDegrees>49.3436135351657867431640625</LatitudeDegrees>
              <LongitudeDegrees>20.004691667854785919189453125</LongitudeDegrees>
            </Position>
            <AltitudeMeters>743.5999755859375</AltitudeMeters>
            <DistanceMeters>16133.492896679</DistanceMeters>
          </Trackpoint>
          <Trackpoint>
            <Time>2022-09-18T12:53:26.000Z</Time>
            <Position>
              <LatitudeDegrees>49.34362225234508514404296875</LatitudeDegrees>
              <LongitudeDegrees>20.0047075934708118438720703125</LongitudeDegrees>
            </Position>
            <AltitudeMeters>743.5999755859375</AltitudeMeters>
            <DistanceMeters>16135.001399003</DistanceMeters>
          </Trackpoint>
          <Trackpoint>
            <Time>2022-09-18T12:53:27.000Z</Time>
            <Position>
              <LatitudeDegrees>49.34361646883189678192138671875</LatitudeDegrees>
              <LongitudeDegrees>20.00471614301204681396484375</LongitudeDegrees>
            </Position>
            <AltitudeMeters>743.5999755859375</AltitudeMeters>
            <DistanceMeters>16135.892828601</DistanceMeters>
          </Trackpoint>
          <Trackpoint>
            <Time>2022-09-18T12:53:30.000Z</Time>
            <Position>
              <LatitudeDegrees>49.34355176053941249847412109375</LatitudeDegrees>
              <LongitudeDegrees>20.00471890904009342193603515625</LongitudeDegrees>
            </Position>
            <AltitudeMeters>743.5999755859375</AltitudeMeters>
            <DistanceMeters>16143.097332706</DistanceMeters>
          </Trackpoint>
          <Trackpoint>
            <Time>2022-09-18T12:53:33.000Z</Time>
            <Position>
              <LatitudeDegrees>49.3434883095324039459228515625</LatitudeDegrees>
              <LongitudeDegrees>20.004715807735919952392578125</LongitudeDegrees>
            </Position>
            <AltitudeMeters>743.79998779296875</AltitudeMeters>
            <DistanceMeters>16150.163896421</DistanceMeters>
          </Trackpoint>
          <Trackpoint>
            <Time>2022-09-18T12:53:37.000Z</Time>
            <Position>
              <LatitudeDegrees>49.34338152408599853515625</LatitudeDegrees>
              <LongitudeDegrees>20.00471413135528564453125</LongitudeDegrees>
            </Position>
            <AltitudeMeters>743.79998779296875</AltitudeMeters>
            <DistanceMeters>16162.050215281</DistanceMeters>
          </Trackpoint>
          <Trackpoint>
            <Time>2022-09-18T12:53:41.000Z</Time>
            <Position>
              <LatitudeDegrees>49.34322754852473735809326171875</LatitudeDegrees>
              <LongitudeDegrees>20.00470331870019435882568359375</LongitudeDegrees>
            </Position>
            <AltitudeMeters>743.5999755859375</AltitudeMeters>
            <DistanceMeters>16179.206156281</DistanceMeters>
          </Trackpoint>
          <Trackpoint>
            <Time>2022-09-18T12:53:48.000Z</Time>
            <Position>
              <LatitudeDegrees>49.34304691851139068603515625</LatitudeDegrees>
              <LongitudeDegrees>20.0047256983816623687744140625</LongitudeDegrees>
            </Position>
            <AltitudeMeters>743.5999755859375</AltitudeMeters>
            <DistanceMeters>16199.376010122</DistanceMeters>
          </Trackpoint>
          <Trackpoint>
            <Time>2022-09-18T12:53:53.000Z</Time>
            <Position>
              <LatitudeDegrees>49.34295882470905780792236328125</LatitudeDegrees>
              <LongitudeDegrees>20.0047468207776546478271484375</LongitudeDegrees>
            </Position>
            <AltitudeMeters>743.79998779296875</AltitudeMeters>
            <DistanceMeters>16209.299820564</DistanceMeters>
          </Trackpoint>
          <Trackpoint>
            <Time>2022-09-18T12:53:55.000Z</Time>
            <Position>
              <LatitudeDegrees>49.3429009057581424713134765625</LatitudeDegrees>
              <LongitudeDegrees>20.0047746486961841583251953125</LongitudeDegrees>
            </Position>
            <AltitudeMeters>744</AltitudeMeters>
            <DistanceMeters>16216.055411312</DistanceMeters>
          </Trackpoint>
          <Trackpoint>
            <Time>2022-09-18T12:53:58.000Z</Time>
            <Position>
              <LatitudeDegrees>49.34283913113176822662353515625</LatitudeDegrees>
              <LongitudeDegrees>20.00478428788483142852783203125</LongitudeDegrees>
            </Position>
            <AltitudeMeters>744</AltitudeMeters>
            <DistanceMeters>16222.966930999</DistanceMeters>
          </Trackpoint>
          <Trackpoint>
            <Time>2022-09-18T12:54:05.000Z</Time>
            <Position>
              <LatitudeDegrees>49.3427071161568164825439453125</LatitudeDegrees>
              <LongitudeDegrees>20.00480675138533115386962890625</LongitudeDegrees>
            </Position>
            <AltitudeMeters>744</AltitudeMeters>
            <DistanceMeters>16237.750840166</DistanceMeters>
          </Trackpoint>
          <Trackpoint>
            <Time>2022-09-18T12:54:12.000Z</Time>
            <Position>
              <LatitudeDegrees>49.34248474426567554473876953125</LatitudeDegrees>
              <LongitudeDegrees>20.004867352545261383056640625</LongitudeDegrees>
            </Position>
            <AltitudeMeters>744</AltitudeMeters>
            <DistanceMeters>16262.888594429</DistanceMeters>
          </Trackpoint>
          <Trackpoint>
            <Time>2022-09-18T12:54:18.000Z</Time>
            <Position>
              <LatitudeDegrees>49.342372678220272064208984375</LatitudeDegrees>
              <LongitudeDegrees>20.004890821874141693115234375</LongitudeDegrees>
            </Position>
            <AltitudeMeters>744.20001220703125</AltitudeMeters>
            <DistanceMeters>16275.477392687</DistanceMeters>
          </Trackpoint>
          <Trackpoint>
            <Time>2022-09-18T12:54:24.000Z</Time>
            <Position>
              <LatitudeDegrees>49.3422536551952362060546875</LatitudeDegrees>
              <LongitudeDegrees>20.0049181468784809112548828125</LongitudeDegrees>
            </Position>
            <AltitudeMeters>744.4000244140625</AltitudeMeters>
            <DistanceMeters>16288.872115113</DistanceMeters>
          </Trackpoint>
          <Trackpoint>
            <Time>2022-09-18T12:54:32.000Z</Time>
            <Position>
              <LatitudeDegrees>49.34212482534348964691162109375</LatitudeDegrees>
              <LongitudeDegrees>20.0049603916704654693603515625</LongitudeDegrees>
            </Position>
            <AltitudeMeters>744.5999755859375</AltitudeMeters>
            <DistanceMeters>16303.534586255</DistanceMeters>
          </Trackpoint>
          <Trackpoint>
            <Time>2022-09-18T12:54:39.000Z</Time>
            <Position>
              <LatitudeDegrees>49.341952912509441375732421875</LatitudeDegrees>
              <LongitudeDegrees>20.00502702780067920684814453125</LongitudeDegrees>
            </Position>
            <AltitudeMeters>744.5999755859375</AltitudeMeters>
            <DistanceMeters>16323.269509539</DistanceMeters>
          </Trackpoint>
          <Trackpoint>
            <Time>2022-09-18T12:54:46.000Z</Time>
            <Position>
              <LatitudeDegrees>49.34177345596253871917724609375</LatitudeDegrees>
              <LongitudeDegrees>20.00504479743540287017822265625</LongitudeDegrees>
            </Position>
            <AltitudeMeters>745.4000244140625</AltitudeMeters>
            <DistanceMeters>16343.284761507</DistanceMeters>
          </Trackpoint>
          <Trackpoint>
            <Time>2022-09-18T12:54:48.000Z</Time>
            <Position>
              <LatitudeDegrees>49.341747052967548370361328125</LatitudeDegrees>
              <LongitudeDegrees>20.00504764728248119354248046875</LongitudeDegrees>
            </Position>
            <AltitudeMeters>745.5999755859375</AltitudeMeters>
            <DistanceMeters>16346.229056565</DistanceMeters>
          </Trackpoint>
          <Trackpoint>
            <Time>2022-09-18T12:54:51.000Z</Time>
            <Position>
              <LatitudeDegrees>49.34165225364267826080322265625</LatitudeDegrees>
              <LongitudeDegrees>20.00507312826812267303466796875</LongitudeDegrees>
            </Position>
            <AltitudeMeters>746.4000244140625</AltitudeMeters>
            <DistanceMeters>16356.940552786</DistanceMeters>
          </Trackpoint>
          <Trackpoint>
            <Time>2022-09-18T12:54:53.000Z</Time>
            <Position>
              <LatitudeDegrees>49.34160280041396617889404296875</LatitudeDegrees>
              <LongitudeDegrees>20.00509165227413177490234375</LongitudeDegrees>
            </Position>
            <AltitudeMeters>746.79998779296875</AltitudeMeters>
            <DistanceMeters>16362.605611628</DistanceMeters>
          </Trackpoint>
          <Trackpoint>
            <Time>2022-09-18T12:54:59.000Z</Time>
            <Position>
              <LatitudeDegrees>49.3414635770022869110107421875</LatitudeDegrees>
              <LongitudeDegrees>20.0051124393939971923828125</LongitudeDegrees>
            </Position>
            <AltitudeMeters>747.5999755859375</AltitudeMeters>
            <DistanceMeters>16378.174920285</DistanceMeters>
          </Trackpoint>
          <Trackpoint>
            <Time>2022-09-18T12:55:01.000Z</Time>
            <Position>
              <LatitudeDegrees>49.3414116092026233673095703125</LatitudeDegrees>
              <LongitudeDegrees>20.00514755956828594207763671875</LongitudeDegrees>
            </Position>
            <AltitudeMeters>747.79998779296875</AltitudeMeters>
            <DistanceMeters>16384.495447019</DistanceMeters>
          </Trackpoint>
          <Trackpoint>
            <Time>2022-09-18T12:55:10.000Z</Time>
            <Position>
              <LatitudeDegrees>49.34122242964804172515869140625</LatitudeDegrees>
              <LongitudeDegrees>20.00516901724040508270263671875</LongitudeDegrees>
            </Position>
            <AltitudeMeters>748.79998779296875</AltitudeMeters>
            <DistanceMeters>16405.608920294</DistanceMeters>
          </Trackpoint>
          <Trackpoint>
            <Time>2022-09-18T12:55:12.000Z</Time>
            <Position>
              <LatitudeDegrees>49.3411970324814319610595703125</LatitudeDegrees>
              <LongitudeDegrees>20.00515711493790149688720703125</LongitudeDegrees>
            </Position>
            <AltitudeMeters>749</AltitudeMeters>
            <DistanceMeters>16408.565457795</DistanceMeters>
          </Trackpoint>
          <Trackpoint>
            <Time>2022-09-18T12:55:17.000Z</Time>
            <Position>
              <LatitudeDegrees>49.3410501815378665924072265625</LatitudeDegrees>
              <LongitudeDegrees>20.005124844610691070556640625</LongitudeDegrees>
            </Position>
            <AltitudeMeters>748.79998779296875</AltitudeMeters>
            <DistanceMeters>16425.077152681</DistanceMeters>
          </Trackpoint>
          <Trackpoint>
            <Time>2022-09-18T12:55:18.000Z</Time>
            <Position>
              <LatitudeDegrees>49.34102193452417850494384765625</LatitudeDegrees>
              <LongitudeDegrees>20.00512409023940563201904296875</LongitudeDegrees>
            </Position>
            <AltitudeMeters>748.5999755859375</AltitudeMeters>
            <DistanceMeters>16428.223096702</DistanceMeters>
          </Trackpoint>
          <Trackpoint>
            <Time>2022-09-18T12:55:24.000Z</Time>
            <Position>
              <LatitudeDegrees>49.34082412160933017730712890625</LatitudeDegrees>
              <LongitudeDegrees>20.00507882796227931976318359375</LongitudeDegrees>
            </Position>
            <AltitudeMeters>748.20001220703125</AltitudeMeters>
            <DistanceMeters>16450.483497526</DistanceMeters>
          </Trackpoint>
          <Trackpoint>
            <Time>2022-09-18T12:55:26.000Z</Time>
            <Position>
              <LatitudeDegrees>49.34075295925140380859375</LatitudeDegrees>
              <LongitudeDegrees>20.00505586154758930206298828125</LongitudeDegrees>
            </Position>
            <AltitudeMeters>747.79998779296875</AltitudeMeters>
            <DistanceMeters>16458.577520296</DistanceMeters>
          </Trackpoint>
          <Trackpoint>
            <Time>2022-09-18T12:55:27.000Z</Time>
            <Position>
              <LatitudeDegrees>49.3407155759632587432861328125</LatitudeDegrees>
              <LongitudeDegrees>20.0050492398440837860107421875</LongitudeDegrees>
            </Position>
            <AltitudeMeters>747.5999755859375</AltitudeMeters>
            <DistanceMeters>16462.76516981</DistanceMeters>
          </Trackpoint>
          <Trackpoint>
            <Time>2022-09-18T12:55:32.000Z</Time>
            <Position>
              <LatitudeDegrees>49.3405070342123508453369140625</LatitudeDegrees>
              <LongitudeDegrees>20.0050453841686248779296875</LongitudeDegrees>
            </Position>
            <AltitudeMeters>746.4000244140625</AltitudeMeters>
            <DistanceMeters>16485.977961359</DistanceMeters>
          </Trackpoint>
          <Trackpoint>
            <Time>2022-09-18T12:55:34.000Z</Time>
            <Position>
              <LatitudeDegrees>49.340468980371952056884765625</LatitudeDegrees>
              <LongitudeDegrees>20.00504513271152973175048828125</LongitudeDegrees>
            </Position>
            <AltitudeMeters>746</AltitudeMeters>
            <DistanceMeters>16490.2138511</DistanceMeters>
          </Trackpoint>
          <Trackpoint>
            <Time>2022-09-18T12:55:38.000Z</Time>
            <Position>
              <LatitudeDegrees>49.34032137505710124969482421875</LatitudeDegrees>
              <LongitudeDegrees>20.0050485692918300628662109375</LongitudeDegrees>
            </Position>
            <AltitudeMeters>745.79998779296875</AltitudeMeters>
            <DistanceMeters>16506.644406944</DistanceMeters>
          </Trackpoint>
          <Trackpoint>
            <Time>2022-09-18T12:55:41.000Z</Time>
            <Position>
              <LatitudeDegrees>49.3401908688247203826904296875</LatitudeDegrees>
              <LongitudeDegrees>20.00506558455526828765869140625</LongitudeDegrees>
            </Position>
            <AltitudeMeters>746</AltitudeMeters>
            <DistanceMeters>16521.222260663</DistanceMeters>
          </Trackpoint>
          <Trackpoint>
            <Time>2022-09-18T12:55:44.000Z</Time>
            <Position>
              <LatitudeDegrees>49.34009087271988391876220703125</LatitudeDegrees>
              <LongitudeDegrees>20.005052424967288970947265625</LongitudeDegrees>
            </Position>
            <AltitudeMeters>746.20001220703125</AltitudeMeters>
            <DistanceMeters>16532.393458291</DistanceMeters>
          </Trackpoint>
          <Trackpoint>
            <Time>2022-09-18T12:55:46.000Z</Time>
            <Position>
              <LatitudeDegrees>49.34003337286412715911865234375</LatitudeDegrees>
              <LongitudeDegrees>20.00507664866745471954345703125</LongitudeDegrees>
            </Position>
            <AltitudeMeters>746.5999755859375</AltitudeMeters>
            <DistanceMeters>16539.030378729</DistanceMeters>
          </Trackpoint>
          <Trackpoint>
            <Time>2022-09-18T12:55:51.000Z</Time>
            <Position>
              <LatitudeDegrees>49.33990244753658771514892578125</LatitudeDegrees>
              <LongitudeDegrees>20.0051159597933292388916015625</LongitudeDegrees>
            </Position>
            <AltitudeMeters>746.79998779296875</AltitudeMeters>
            <DistanceMeters>16553.878892003</DistanceMeters>
          </Trackpoint>
          <Trackpoint>
            <Time>2022-09-18T12:55:54.000Z</Time>
            <Position>
              <LatitudeDegrees>49.3398505635559558868408203125</LatitudeDegrees>
              <LongitudeDegrees>20.00514051876962184906005859375</LongitudeDegrees>
            </Position>
            <AltitudeMeters>746.4000244140625</AltitudeMeters>
            <DistanceMeters>16559.921873812</DistanceMeters>
          </Trackpoint>
          <Trackpoint>
            <Time>2022-09-18T12:55:59.000Z</Time>
            <Position>
              <LatitudeDegrees>49.33970815502107143402099609375</LatitudeDegrees>
              <LongitudeDegrees>20.00525166280567646026611328125</LongitudeDegrees>
            </Position>
            <AltitudeMeters>746.4000244140625</AltitudeMeters>
            <DistanceMeters>16577.703807249</DistanceMeters>
          </Trackpoint>
          <Trackpoint>
            <Time>2022-09-18T12:56:05.000Z</Time>
            <Position>
              <LatitudeDegrees>49.33952040039002895355224609375</LatitudeDegrees>
              <LongitudeDegrees>20.00539197586476802825927734375</LongitudeDegrees>
            </Position>
            <AltitudeMeters>747</AltitudeMeters>
            <DistanceMeters>16600.947116253</DistanceMeters>
          </Trackpoint>
          <Trackpoint>
            <Time>2022-09-18T12:56:07.000Z</Time>
            <Position>
              <LatitudeDegrees>49.33947932906448841094970703125</LatitudeDegrees>
              <LongitudeDegrees>20.00541485846042633056640625</LongitudeDegrees>
            </Position>
            <AltitudeMeters>747</AltitudeMeters>
            <DistanceMeters>16605.811147532</DistanceMeters>
          </Trackpoint>
          <Trackpoint>
            <Time>2022-09-18T12:56:10.000Z</Time>
            <Position>
              <LatitudeDegrees>49.33942099101841449737548828125</LatitudeDegrees>
              <LongitudeDegrees>20.00546691007912158966064453125</LongitudeDegrees>
            </Position>
            <AltitudeMeters>747</AltitudeMeters>
            <DistanceMeters>16613.32186571</DistanceMeters>
          </Trackpoint>
          <Trackpoint>
            <Time>2022-09-18T12:56:13.000Z</Time>
            <Position>
              <LatitudeDegrees>49.3393543548882007598876953125</LatitudeDegrees>
              <LongitudeDegrees>20.00552373938262462615966796875</LongitudeDegrees>
            </Position>
            <AltitudeMeters>746.79998779296875</AltitudeMeters>
            <DistanceMeters>16621.80695849</DistanceMeters>
          </Trackpoint>
          <Trackpoint>
            <Time>2022-09-18T12:56:17.000Z</Time>
            <Position>
              <LatitudeDegrees>49.339289478957653045654296875</LatitudeDegrees>
              <LongitudeDegrees>20.00561677850782871246337890625</LongitudeDegrees>
            </Position>
            <AltitudeMeters>746.79998779296875</AltitudeMeters>
            <DistanceMeters>16631.689736785</DistanceMeters>
          </Trackpoint>
          <Trackpoint>
            <Time>2022-09-18T12:56:24.000Z</Time>
            <Position>
              <LatitudeDegrees>49.33919954113662242889404296875</LatitudeDegrees>
              <LongitudeDegrees>20.00576865859329700469970703125</LongitudeDegrees>
            </Position>
            <AltitudeMeters>746</AltitudeMeters>
            <DistanceMeters>16646.57348078</DistanceMeters>
          </Trackpoint>
          <Trackpoint>
            <Time>2022-09-18T12:56:25.000Z</Time>
            <Position>
              <LatitudeDegrees>49.339187555015087127685546875</LatitudeDegrees>
              <LongitudeDegrees>20.00577821396291255950927734375</LongitudeDegrees>
            </Position>
            <AltitudeMeters>746</AltitudeMeters>
            <DistanceMeters>16648.07898707</DistanceMeters>
          </Trackpoint>
          <Trackpoint>
            <Time>2022-09-18T12:56:26.000Z</Time>
            <Position>
              <LatitudeDegrees>49.33917640708386898040771484375</LatitudeDegrees>
              <LongitudeDegrees>20.00578491948544979095458984375</LongitudeDegrees>
            </Position>
            <AltitudeMeters>746</AltitudeMeters>
            <DistanceMeters>16649.412750564</DistanceMeters>
          </Trackpoint>
          <Trackpoint>
            <Time>2022-09-18T12:56:32.000Z</Time>
            <Position>
              <LatitudeDegrees>49.33908890001475811004638671875</LatitudeDegrees>
              <LongitudeDegrees>20.005852393805980682373046875</LongitudeDegrees>
            </Position>
            <AltitudeMeters>747</AltitudeMeters>
            <DistanceMeters>16660.312691655</DistanceMeters>
          </Trackpoint>
          <Trackpoint>
            <Time>2022-09-18T12:56:33.000Z</Time>
            <Position>
              <LatitudeDegrees>49.33908890001475811004638671875</LatitudeDegrees>
              <LongitudeDegrees>20.005852393805980682373046875</LongitudeDegrees>
            </Position>
            <AltitudeMeters>747.20001220703125</AltitudeMeters>
            <DistanceMeters>16660.312691655</DistanceMeters>
          </Trackpoint>
          <Trackpoint>
            <Time>2022-09-18T12:56:35.000Z</Time>
            <Position>
              <LatitudeDegrees>49.3390368483960628509521484375</LatitudeDegrees>
              <LongitudeDegrees>20.00588701106607913970947265625</LongitudeDegrees>
            </Position>
            <AltitudeMeters>747.4000244140625</AltitudeMeters>
            <DistanceMeters>16666.62750104</DistanceMeters>
          </Trackpoint>
          <Trackpoint>
            <Time>2022-09-18T12:56:41.000Z</Time>
            <Position>
              <LatitudeDegrees>49.33889242820441722869873046875</LatitudeDegrees>
              <LongitudeDegrees>20.00592724420130252838134765625</LongitudeDegrees>
            </Position>
            <AltitudeMeters>747.20001220703125</AltitudeMeters>
            <DistanceMeters>16682.964359348</DistanceMeters>
          </Trackpoint>
          <Trackpoint>
            <Time>2022-09-18T12:56:45.000Z</Time>
            <Position>
              <LatitudeDegrees>49.3388155661523342132568359375</LatitudeDegrees>
              <LongitudeDegrees>20.00592338852584362030029296875</LongitudeDegrees>
            </Position>
            <AltitudeMeters>747</AltitudeMeters>
            <DistanceMeters>16691.523623931</DistanceMeters>
          </Trackpoint>
          <Trackpoint>
            <Time>2022-09-18T12:56:46.000Z</Time>
            <Position>
              <LatitudeDegrees>49.33877223171293735504150390625</LatitudeDegrees>
              <LongitudeDegrees>20.0059276632964611053466796875</LongitudeDegrees>
            </Position>
            <AltitudeMeters>747</AltitudeMeters>
            <DistanceMeters>16696.35599164</DistanceMeters>
          </Trackpoint>
          <Trackpoint>
            <Time>2022-09-18T12:56:50.000Z</Time>
            <Position>
              <LatitudeDegrees>49.33866418898105621337890625</LatitudeDegrees>
              <LongitudeDegrees>20.00591240823268890380859375</LongitudeDegrees>
            </Position>
            <AltitudeMeters>747.4000244140625</AltitudeMeters>
            <DistanceMeters>16708.432238349</DistanceMeters>
          </Trackpoint>
          <Trackpoint>
            <Time>2022-09-18T12:56:59.000Z</Time>
            <Position>
              <LatitudeDegrees>49.3384212814271450042724609375</LatitudeDegrees>
              <LongitudeDegrees>20.005840994417667388916015625</LongitudeDegrees>
            </Position>
            <AltitudeMeters>748.20001220703125</AltitudeMeters>
            <DistanceMeters>16735.959822603</DistanceMeters>
          </Trackpoint>
          <Trackpoint>
            <Time>2022-09-18T12:57:02.000Z</Time>
            <Position>
              <LatitudeDegrees>49.33832312934100627899169921875</LatitudeDegrees>
              <LongitudeDegrees>20.0058482028543949127197265625</LongitudeDegrees>
            </Position>
            <AltitudeMeters>748.4000244140625</AltitudeMeters>
            <DistanceMeters>16746.896567667</DistanceMeters>
          </Trackpoint>
          <Trackpoint>
            <Time>2022-09-18T12:57:08.000Z</Time>
            <Position>
              <LatitudeDegrees>49.33819522149860858917236328125</LatitudeDegrees>
              <LongitudeDegrees>20.00579732470214366912841796875</LongitudeDegrees>
            </Position>
            <AltitudeMeters>748.5999755859375</AltitudeMeters>
            <DistanceMeters>16761.603314111</DistanceMeters>
          </Trackpoint>
          <Trackpoint>
            <Time>2022-09-18T12:57:09.000Z</Time>
            <Position>
              <LatitudeDegrees>49.33816504664719104766845703125</LatitudeDegrees>
              <LongitudeDegrees>20.00577352009713649749755859375</LongitudeDegrees>
            </Position>
            <AltitudeMeters>748.5999755859375</AltitudeMeters>
            <DistanceMeters>16765.378159887</DistanceMeters>
          </Trackpoint>
          <Trackpoint>
            <Time>2022-09-18T12:57:17.000Z</Time>
            <Position>
              <LatitudeDegrees>49.3379636295139789581298828125</LatitudeDegrees>
              <LongitudeDegrees>20.00571400858461856842041015625</LongitudeDegrees>
            </Position>
            <AltitudeMeters>749</AltitudeMeters>
            <DistanceMeters>16788.207920117</DistanceMeters>
          </Trackpoint>
          <Trackpoint>
            <Time>2022-09-18T12:57:22.000Z</Time>
            <Position>
              <LatitudeDegrees>49.33784209191799163818359375</LatitudeDegrees>
              <LongitudeDegrees>20.00566908158361911773681640625</LongitudeDegrees>
            </Position>
            <AltitudeMeters>749</AltitudeMeters>
            <DistanceMeters>16802.122115709</DistanceMeters>
          </Trackpoint>
          <Trackpoint>
            <Time>2022-09-18T12:57:27.000Z</Time>
            <Position>
              <LatitudeDegrees>49.33772231452167034149169921875</LatitudeDegrees>
              <LongitudeDegrees>20.00563454814255237579345703125</LongitudeDegrees>
            </Position>
            <AltitudeMeters>749.4000244140625</AltitudeMeters>
            <DistanceMeters>16815.686659108</DistanceMeters>
          </Trackpoint>
          <Trackpoint>
            <Time>2022-09-18T12:57:28.000Z</Time>
            <Position>
              <LatitudeDegrees>49.33772231452167034149169921875</LatitudeDegrees>
              <LongitudeDegrees>20.00563454814255237579345703125</LongitudeDegrees>
            </Position>
            <AltitudeMeters>749.4000244140625</AltitudeMeters>
            <DistanceMeters>NAN</DistanceMeters>
          </Trackpoint>
          <Trackpoint>
            <Time>2022-09-18T12:57:29.000Z</Time>
            <Position>
              <LatitudeDegrees>49.33770521543920040130615234375</LatitudeDegrees>
              <LongitudeDegrees>20.0056282617151737213134765625</LongitudeDegrees>
            </Position>
            <AltitudeMeters>749.4000244140625</AltitudeMeters>
            <DistanceMeters>NAN</DistanceMeters>
          </Trackpoint>
          <Trackpoint>
            <Time>2022-09-18T12:57:32.000Z</Time>
            <Position>
              <LatitudeDegrees>49.33767822571098804473876953125</LatitudeDegrees>
              <LongitudeDegrees>20.005602948367595672607421875</LongitudeDegrees>
            </Position>
            <AltitudeMeters>749.4000244140625</AltitudeMeters>
            <DistanceMeters>NAN</DistanceMeters>
          </Trackpoint>
          <Trackpoint>
            <Time>2022-09-18T12:57:34.000Z</Time>
            <Position>
              <LatitudeDegrees>49.3376622162759304046630859375</LatitudeDegrees>
              <LongitudeDegrees>20.00559515319764614105224609375</LongitudeDegrees>
            </Position>
            <AltitudeMeters>749.4000244140625</AltitudeMeters>
            <DistanceMeters>NAN</DistanceMeters>
          </Trackpoint>
          <Trackpoint>
            <Time>2022-09-18T12:57:37.000Z</Time>
            <Position>
              <LatitudeDegrees>49.33762441389262676239013671875</LatitudeDegrees>
              <LongitudeDegrees>20.005569420754909515380859375</LongitudeDegrees>
            </Position>
            <AltitudeMeters>749.20001220703125</AltitudeMeters>
            <DistanceMeters>NAN</DistanceMeters>
          </Trackpoint>
          <Trackpoint>
            <Time>2022-09-18T12:57:44.000Z</Time>
            <Position>
              <LatitudeDegrees>49.33756473474204540252685546875</LatitudeDegrees>
              <LongitudeDegrees>20.0054358132183551788330078125</LongitudeDegrees>
            </Position>
            <AltitudeMeters>749</AltitudeMeters>
            <DistanceMeters>NAN</DistanceMeters>
          </Trackpoint>
          <Trackpoint>
            <Time>2022-09-18T12:57:45.000Z</Time>
            <Position>
              <LatitudeDegrees>49.33756808750331401824951171875</LatitudeDegrees>
              <LongitudeDegrees>20.00540907494723796844482421875</LongitudeDegrees>
            </Position>
            <AltitudeMeters>749</AltitudeMeters>
            <DistanceMeters>NAN</DistanceMeters>
          </Trackpoint>
          <Trackpoint>
            <Time>2022-09-18T12:57:47.000Z</Time>
            <Position>
              <LatitudeDegrees>49.33757713995873928070068359375</LatitudeDegrees>
              <LongitudeDegrees>20.0053764693439006805419921875</LongitudeDegrees>
            </Position>
            <AltitudeMeters>748.79998779296875</AltitudeMeters>
            <DistanceMeters>NAN</DistanceMeters>
          </Trackpoint>
          <Trackpoint>
            <Time>2022-09-18T12:57:51.000Z</Time>
            <Position>
              <LatitudeDegrees>49.33760345913469791412353515625</LatitudeDegrees>
              <LongitudeDegrees>20.00531435944139957427978515625</LongitudeDegrees>
            </Position>
            <AltitudeMeters>748.79998779296875</AltitudeMeters>
            <DistanceMeters>NAN</DistanceMeters>
          </Trackpoint>
          <Trackpoint>
            <Time>2022-09-18T12:57:56.000Z</Time>
            <Position>
              <LatitudeDegrees>49.33760739862918853759765625</LatitudeDegrees>
              <LongitudeDegrees>20.0052876211702823638916015625</LongitudeDegrees>
            </Position>
            <AltitudeMeters>749</AltitudeMeters>
            <DistanceMeters>NAN</DistanceMeters>
          </Trackpoint>
          <Trackpoint>
            <Time>2022-09-18T12:58:03.000Z</Time>
            <Position>
              <LatitudeDegrees>49.33761469088494777679443359375</LatitudeDegrees>
              <LongitudeDegrees>20.00522567890584468841552734375</LongitudeDegrees>
            </Position>
            <AltitudeMeters>749</AltitudeMeters>
            <DistanceMeters>NAN</DistanceMeters>
          </Trackpoint>
          <Trackpoint>
            <Time>2022-09-18T12:58:16.000Z</Time>
            <Position>
              <LatitudeDegrees>49.337618462741374969482421875</LatitudeDegrees>
              <LongitudeDegrees>20.0051578693091869354248046875</LongitudeDegrees>
            </Position>
            <AltitudeMeters>749.20001220703125</AltitudeMeters>
            <DistanceMeters>NAN</DistanceMeters>
          </Trackpoint>
          <Trackpoint>
            <Time>2022-09-18T12:58:32.000Z</Time>
            <Position>
              <LatitudeDegrees>49.33761217631399631500244140625</LatitudeDegrees>
              <LongitudeDegrees>20.005154348909854888916015625</LongitudeDegrees>
            </Position>
            <AltitudeMeters>748.5999755859375</AltitudeMeters>
            <DistanceMeters>NAN</DistanceMeters>
          </Trackpoint>
          <Trackpoint>
            <Time>2022-09-18T12:58:34.000Z</Time>
            <Position>
              <LatitudeDegrees>49.33761217631399631500244140625</LatitudeDegrees>
              <LongitudeDegrees>20.005151331424713134765625</LongitudeDegrees>
            </Position>
            <AltitudeMeters>748.5999755859375</AltitudeMeters>
            <DistanceMeters>NAN</DistanceMeters>
          </Trackpoint>
          <Trackpoint>
            <Time>2022-09-18T12:58:35.000Z</Time>
            <Position>
              <LatitudeDegrees>49.33761117048561573028564453125</LatitudeDegrees>
              <LongitudeDegrees>20.0051494874060153961181640625</LongitudeDegrees>
            </Position>
            <AltitudeMeters>748.5999755859375</AltitudeMeters>
            <DistanceMeters>NAN</DistanceMeters>
          </Trackpoint>
          <Trackpoint>
            <Time>2022-09-18T12:58:37.000Z</Time>
            <Position>
              <LatitudeDegrees>49.337611086666584014892578125</LatitudeDegrees>
              <LongitudeDegrees>20.00514923594892024993896484375</LongitudeDegrees>
            </Position>
            <AltitudeMeters>748.79998779296875</AltitudeMeters>
            <DistanceMeters>NAN</DistanceMeters>
          </Trackpoint>
          <Trackpoint>
            <Time>2022-09-18T12:58:43.000Z</Time>
            <Position>
              <LatitudeDegrees>49.337611086666584014892578125</LatitudeDegrees>
              <LongitudeDegrees>20.00514923594892024993896484375</LongitudeDegrees>
            </Position>
            <AltitudeMeters>749.20001220703125</AltitudeMeters>
            <DistanceMeters>NAN</DistanceMeters>
          </Trackpoint>
          <Trackpoint>
            <Time>2022-09-18T12:58:45.000Z</Time>
            <Position>
              <LatitudeDegrees>49.337611086666584014892578125</LatitudeDegrees>
              <LongitudeDegrees>20.00514923594892024993896484375</LongitudeDegrees>
            </Position>
            <AltitudeMeters>749.20001220703125</AltitudeMeters>
            <DistanceMeters>NAN</DistanceMeters>
          </Trackpoint>
          <Trackpoint>
            <Time>2022-09-18T12:58:54.000Z</Time>
            <Position>
              <LatitudeDegrees>49.33760915882885456085205078125</LatitudeDegrees>
              <LongitudeDegrees>20.0051461346447467803955078125</LongitudeDegrees>
            </Position>
            <AltitudeMeters>749.4000244140625</AltitudeMeters>
            <DistanceMeters>NAN</DistanceMeters>
          </Trackpoint>
          <Trackpoint>
            <Time>2022-09-18T12:58:55.000Z</Time>
            <Position>
              <LatitudeDegrees>49.33760915882885456085205078125</LatitudeDegrees>
              <LongitudeDegrees>20.0051461346447467803955078125</LongitudeDegrees>
            </Position>
            <AltitudeMeters>749.4000244140625</AltitudeMeters>
            <DistanceMeters>NAN</DistanceMeters>
          </Trackpoint>
          <Trackpoint>
            <Time>2022-09-18T12:58:58.000Z</Time>
            <Position>
              <LatitudeDegrees>49.33760915882885456085205078125</LatitudeDegrees>
              <LongitudeDegrees>20.00514420680701732635498046875</LongitudeDegrees>
            </Position>
            <AltitudeMeters>749.4000244140625</AltitudeMeters>
            <DistanceMeters>NAN</DistanceMeters>
          </Trackpoint>
          <Trackpoint>
            <Time>2022-09-18T12:59:03.000Z</Time>
            <Position>
              <LatitudeDegrees>49.33760865591466426849365234375</LatitudeDegrees>
              <LongitudeDegrees>20.00514253042638301849365234375</LongitudeDegrees>
            </Position>
            <AltitudeMeters>749.20001220703125</AltitudeMeters>
            <DistanceMeters>NAN</DistanceMeters>
          </Trackpoint>
          <Trackpoint>
            <Time>2022-09-18T12:59:12.000Z</Time>
            <Position>
              <LatitudeDegrees>49.3376085720956325531005859375</LatitudeDegrees>
              <LongitudeDegrees>20.0051390938460826873779296875</LongitudeDegrees>
            </Position>
            <AltitudeMeters>748.79998779296875</AltitudeMeters>
            <DistanceMeters>NAN</DistanceMeters>
          </Trackpoint>
          <Trackpoint>
            <Time>2022-09-18T12:59:16.000Z</Time>
            <Position>
              <LatitudeDegrees>49.3376085720956325531005859375</LatitudeDegrees>
              <LongitudeDegrees>20.0051390938460826873779296875</LongitudeDegrees>
            </Position>
            <AltitudeMeters>748.4000244140625</AltitudeMeters>
            <DistanceMeters>NAN</DistanceMeters>
          </Trackpoint>
          <Trackpoint>
            <Time>2022-09-18T12:59:19.000Z</Time>
            <Position>
              <LatitudeDegrees>49.33760941028594970703125</LatitudeDegrees>
              <LongitudeDegrees>20.0051390938460826873779296875</LongitudeDegrees>
            </Position>
            <AltitudeMeters>748.20001220703125</AltitudeMeters>
            <DistanceMeters>NAN</DistanceMeters>
          </Trackpoint>
          <Trackpoint>
            <Time>2022-09-18T12:59:32.000Z</Time>
            <Position>
              <LatitudeDegrees>49.33761703781783580780029296875</LatitudeDegrees>
              <LongitudeDegrees>20.0051608867943286895751953125</LongitudeDegrees>
            </Position>
            <AltitudeMeters>748</AltitudeMeters>
            <DistanceMeters>NAN</DistanceMeters>
          </Trackpoint>
          <Trackpoint>
            <Time>2022-09-18T12:59:34.000Z</Time>
            <Position>
              <LatitudeDegrees>49.337617792189121246337890625</LatitudeDegrees>
              <LongitudeDegrees>20.0051692686975002288818359375</LongitudeDegrees>
            </Position>
            <AltitudeMeters>748</AltitudeMeters>
            <DistanceMeters>NAN</DistanceMeters>
          </Trackpoint>
          <Trackpoint>
            <Time>2022-09-18T12:59:44.000Z</Time>
            <Position>
              <LatitudeDegrees>49.3376209773123264312744140625</LatitudeDegrees>
              <LongitudeDegrees>20.00517857261002063751220703125</LongitudeDegrees>
            </Position>
            <AltitudeMeters>748</AltitudeMeters>
            <DistanceMeters>NAN</DistanceMeters>
          </Trackpoint>
          <Trackpoint>
            <Time>2022-09-18T12:59:55.000Z</Time>
            <Position>
              <LatitudeDegrees>49.3376216478645801544189453125</LatitudeDegrees>
              <LongitudeDegrees>20.00517857261002063751220703125</LongitudeDegrees>
            </Position>
            <AltitudeMeters>748</AltitudeMeters>
            <DistanceMeters>NAN</DistanceMeters>
          </Trackpoint>
          <Trackpoint>
            <Time>2022-09-18T13:00:06.000Z</Time>
            <Position>
              <LatitudeDegrees>49.3376250006258487701416015625</LatitudeDegrees>
              <LongitudeDegrees>20.00518309883773326873779296875</LongitudeDegrees>
            </Position>
            <AltitudeMeters>748.20001220703125</AltitudeMeters>
            <DistanceMeters>NAN</DistanceMeters>
          </Trackpoint>
          <Trackpoint>
            <Time>2022-09-18T13:00:09.000Z</Time>
            <Position>
              <LatitudeDegrees>49.33762483298778533935546875</LatitudeDegrees>
              <LongitudeDegrees>20.00512509606778621673583984375</LongitudeDegrees>
            </Position>
            <AltitudeMeters>748.20001220703125</AltitudeMeters>
            <DistanceMeters>NAN</DistanceMeters>
          </Trackpoint>
          <Trackpoint>
            <Time>2022-09-18T13:00:14.000Z</Time>
            <Position>
              <LatitudeDegrees>49.3376461230218410491943359375</LatitudeDegrees>
              <LongitudeDegrees>20.00486207194626331329345703125</LongitudeDegrees>
            </Position>
            <AltitudeMeters>747.5999755859375</AltitudeMeters>
            <DistanceMeters>NAN</DistanceMeters>
          </Trackpoint>
          <Trackpoint>
            <Time>2022-09-18T13:00:16.000Z</Time>
            <Position>
              <LatitudeDegrees>49.33765106834471225738525390625</LatitudeDegrees>
              <LongitudeDegrees>20.004752688109874725341796875</LongitudeDegrees>
            </Position>
            <AltitudeMeters>747.20001220703125</AltitudeMeters>
            <DistanceMeters>NAN</DistanceMeters>
          </Trackpoint>
          <Trackpoint>
            <Time>2022-09-18T13:00:19.000Z</Time>
            <Position>
              <LatitudeDegrees>49.33765710331499576568603515625</LatitudeDegrees>
              <LongitudeDegrees>20.00464431010186672210693359375</LongitudeDegrees>
            </Position>
            <AltitudeMeters>746.79998779296875</AltitudeMeters>
            <DistanceMeters>NAN</DistanceMeters>
          </Trackpoint>
          <Trackpoint>
            <Time>2022-09-18T13:00:20.000Z</Time>
            <Position>
              <LatitudeDegrees>49.33766196481883525848388671875</LatitudeDegrees>
              <LongitudeDegrees>20.00457624904811382293701171875</LongitudeDegrees>
            </Position>
            <AltitudeMeters>746.5999755859375</AltitudeMeters>
            <DistanceMeters>NAN</DistanceMeters>
          </Trackpoint>
          <Trackpoint>
            <Time>2022-09-18T13:00:24.000Z</Time>
            <Position>
              <LatitudeDegrees>49.337676130235195159912109375</LatitudeDegrees>
              <LongitudeDegrees>20.00443962402641773223876953125</LongitudeDegrees>
            </Position>
            <AltitudeMeters>746.20001220703125</AltitudeMeters>
            <DistanceMeters>NAN</DistanceMeters>
          </Trackpoint>
          <Trackpoint>
            <Time>2022-09-18T13:00:31.000Z</Time>
            <Position>
              <LatitudeDegrees>49.33768828399479389190673828125</LatitudeDegrees>
              <LongitudeDegrees>20.0042298249900341033935546875</LongitudeDegrees>
            </Position>
            <AltitudeMeters>745.79998779296875</AltitudeMeters>
            <DistanceMeters>NAN</DistanceMeters>
          </Trackpoint>
          <Trackpoint>
            <Time>2022-09-18T13:00:32.000Z</Time>
            <Position>
              <LatitudeDegrees>49.33770320378243923187255859375</LatitudeDegrees>
              <LongitudeDegrees>20.00419252552092075347900390625</LongitudeDegrees>
            </Position>
            <AltitudeMeters>745.5999755859375</AltitudeMeters>
            <DistanceMeters>NAN</DistanceMeters>
          </Trackpoint>
          <Trackpoint>
            <Time>2022-09-18T13:00:34.000Z</Time>
            <Position>
              <LatitudeDegrees>49.337712340056896209716796875</LatitudeDegrees>
              <LongitudeDegrees>20.00414458103477954864501953125</LongitudeDegrees>
            </Position>
            <AltitudeMeters>745.4000244140625</AltitudeMeters>
            <DistanceMeters>NAN</DistanceMeters>
          </Trackpoint>
          <Trackpoint>
            <Time>2022-09-18T13:00:35.000Z</Time>
            <Position>
              <LatitudeDegrees>49.3377158604562282562255859375</LatitudeDegrees>
              <LongitudeDegrees>20.00411893241107463836669921875</LongitudeDegrees>
            </Position>
            <AltitudeMeters>745.4000244140625</AltitudeMeters>
            <DistanceMeters>NAN</DistanceMeters>
          </Trackpoint>
          <Trackpoint>
            <Time>2022-09-18T13:00:38.000Z</Time>
            <Position>
              <LatitudeDegrees>49.33773321099579334259033203125</LatitudeDegrees>
              <LongitudeDegrees>20.00403192825615406036376953125</LongitudeDegrees>
            </Position>
            <AltitudeMeters>745.20001220703125</AltitudeMeters>
            <DistanceMeters>NAN</DistanceMeters>
          </Trackpoint>
          <Trackpoint>
            <Time>2022-09-18T13:00:41.000Z</Time>
            <Position>
              <LatitudeDegrees>49.33774628676474094390869140625</LatitudeDegrees>
              <LongitudeDegrees>20.00395649112761020660400390625</LongitudeDegrees>
            </Position>
            <AltitudeMeters>745.20001220703125</AltitudeMeters>
            <DistanceMeters>NAN</DistanceMeters>
          </Trackpoint>
          <Trackpoint>
            <Time>2022-09-18T13:00:42.000Z</Time>
            <Position>
              <LatitudeDegrees>49.33774628676474094390869140625</LatitudeDegrees>
              <LongitudeDegrees>20.00395649112761020660400390625</LongitudeDegrees>
            </Position>
            <AltitudeMeters>745</AltitudeMeters>
            <DistanceMeters>NAN</DistanceMeters>
          </Trackpoint>
          <Trackpoint>
            <Time>2022-09-18T13:00:43.000Z</Time>
            <Position>
              <LatitudeDegrees>49.3377435207366943359375</LatitudeDegrees>
              <LongitudeDegrees>20.00390619970858097076416015625</LongitudeDegrees>
            </Position>
            <AltitudeMeters>745</AltitudeMeters>
            <DistanceMeters>NAN</DistanceMeters>
          </Trackpoint>
          <Trackpoint>
            <Time>2022-09-18T13:00:44.000Z</Time>
            <Position>
              <LatitudeDegrees>49.33773991651833057403564453125</LatitudeDegrees>
              <LongitudeDegrees>20.00387719832360744476318359375</LongitudeDegrees>
            </Position>
            <AltitudeMeters>745</AltitudeMeters>
            <DistanceMeters>NAN</DistanceMeters>
          </Trackpoint>
          <Trackpoint>
            <Time>2022-09-18T13:00:46.000Z</Time>
            <Position>
              <LatitudeDegrees>49.337740503251552581787109375</LatitudeDegrees>
              <LongitudeDegrees>20.0038559921085834503173828125</LongitudeDegrees>
            </Position>
            <AltitudeMeters>745</AltitudeMeters>
            <DistanceMeters>NAN</DistanceMeters>
          </Trackpoint>
          <Trackpoint>
            <Time>2022-09-18T13:00:51.000Z</Time>
            <Position>
              <LatitudeDegrees>49.33776942081749439239501953125</LatitudeDegrees>
              <LongitudeDegrees>20.003697238862514495849609375</LongitudeDegrees>
            </Position>
            <AltitudeMeters>745</AltitudeMeters>
            <DistanceMeters>NAN</DistanceMeters>
          </Trackpoint>
          <Trackpoint>
            <Time>2022-09-18T13:00:58.000Z</Time>
            <Position>
              <LatitudeDegrees>49.33781049214303493499755859375</LatitudeDegrees>
              <LongitudeDegrees>20.00340261496603488922119140625</LongitudeDegrees>
            </Position>
            <AltitudeMeters>745.20001220703125</AltitudeMeters>
            <DistanceMeters>NAN</DistanceMeters>
          </Trackpoint>
          <Trackpoint>
            <Time>2022-09-18T13:01:01.000Z</Time>
            <Position>
              <LatitudeDegrees>49.337767325341701507568359375</LatitudeDegrees>
              <LongitudeDegrees>20.003336481750011444091796875</LongitudeDegrees>
            </Position>
            <AltitudeMeters>745.5999755859375</AltitudeMeters>
            <DistanceMeters>NAN</DistanceMeters>
          </Trackpoint>
          <Trackpoint>
            <Time>2022-09-18T13:01:08.000Z</Time>
            <Position>
              <LatitudeDegrees>49.3376075662672519683837890625</LatitudeDegrees>
              <LongitudeDegrees>20.0032786466181278228759765625</LongitudeDegrees>
            </Position>
            <AltitudeMeters>745.79998779296875</AltitudeMeters>
            <DistanceMeters>NAN</DistanceMeters>
          </Trackpoint>
          <Trackpoint>
            <Time>2022-09-18T13:01:15.000Z</Time>
            <Position>
              <LatitudeDegrees>49.33747152797877788543701171875</LatitudeDegrees>
              <LongitudeDegrees>20.00315316952764987945556640625</LongitudeDegrees>
            </Position>
            <AltitudeMeters>745</AltitudeMeters>
            <DistanceMeters>NAN</DistanceMeters>
          </Trackpoint>
          <Trackpoint>
            <Time>2022-09-18T13:01:21.000Z</Time>
            <Position>
              <LatitudeDegrees>49.33727472089231014251708984375</LatitudeDegrees>
              <LongitudeDegrees>20.0031073205173015594482421875</LongitudeDegrees>
            </Position>
            <AltitudeMeters>744.5999755859375</AltitudeMeters>
            <DistanceMeters>NAN</DistanceMeters>
          </Trackpoint>
          <Trackpoint>
            <Time>2022-09-18T13:01:29.000Z</Time>
            <Position>
              <LatitudeDegrees>49.3370620720088481903076171875</LatitudeDegrees>
              <LongitudeDegrees>20.00307622365653514862060546875</LongitudeDegrees>
            </Position>
            <AltitudeMeters>744.5999755859375</AltitudeMeters>
            <DistanceMeters>NAN</DistanceMeters>
          </Trackpoint>
          <Trackpoint>
            <Time>2022-09-18T13:01:32.000Z</Time>
            <Position>
              <LatitudeDegrees>49.3369973637163639068603515625</LatitudeDegrees>
              <LongitudeDegrees>20.00305459834635257720947265625</LongitudeDegrees>
            </Position>
            <AltitudeMeters>745</AltitudeMeters>
            <DistanceMeters>NAN</DistanceMeters>
          </Trackpoint>
          <Trackpoint>
            <Time>2022-09-18T13:01:35.000Z</Time>
            <Position>
              <LatitudeDegrees>49.336874485015869140625</LatitudeDegrees>
              <LongitudeDegrees>20.00301939435303211212158203125</LongitudeDegrees>
            </Position>
            <AltitudeMeters>745</AltitudeMeters>
            <DistanceMeters>NAN</DistanceMeters>
          </Trackpoint>
          <Trackpoint>
            <Time>2022-09-18T13:01:43.000Z</Time>
            <Position>
              <LatitudeDegrees>49.33658908121287822723388671875</LatitudeDegrees>
              <LongitudeDegrees>20.002935826778411865234375</LongitudeDegrees>
            </Position>
            <AltitudeMeters>744.20001220703125</AltitudeMeters>
            <DistanceMeters>NAN</DistanceMeters>
          </Trackpoint>
          <Trackpoint>
            <Time>2022-09-18T13:01:51.000Z</Time>
            <Position>
              <LatitudeDegrees>49.33633645065128803253173828125</LatitudeDegrees>
              <LongitudeDegrees>20.0028504990041255950927734375</LongitudeDegrees>
            </Position>
            <AltitudeMeters>745.4000244140625</AltitudeMeters>
            <DistanceMeters>NAN</DistanceMeters>
          </Trackpoint>
          <Trackpoint>
            <Time>2022-09-18T13:01:56.000Z</Time>
            <Position>
              <LatitudeDegrees>49.33614333160221576690673828125</LatitudeDegrees>
              <LongitudeDegrees>20.0027834437787532806396484375</LongitudeDegrees>
            </Position>
            <AltitudeMeters>744.79998779296875</AltitudeMeters>
            <DistanceMeters>NAN</DistanceMeters>
          </Trackpoint>
          <Trackpoint>
            <Time>2022-09-18T13:01:57.000Z</Time>
            <Position>
              <LatitudeDegrees>49.33614333160221576690673828125</LatitudeDegrees>
              <LongitudeDegrees>20.0027834437787532806396484375</LongitudeDegrees>
            </Position>
            <AltitudeMeters>744.5999755859375</AltitudeMeters>
            <DistanceMeters>NAN</DistanceMeters>
          </Trackpoint>
          <Trackpoint>
            <Time>2022-09-18T13:02:04.000Z</Time>
            <Position>
              <LatitudeDegrees>49.3358834087848663330078125</LatitudeDegrees>
              <LongitudeDegrees>20.00271831639111042022705078125</LongitudeDegrees>
            </Position>
            <AltitudeMeters>745.20001220703125</AltitudeMeters>
            <DistanceMeters>NAN</DistanceMeters>
          </Trackpoint>
          <Trackpoint>
            <Time>2022-09-18T13:02:13.000Z</Time>
            <Position>
              <LatitudeDegrees>49.3356039561331272125244140625</LatitudeDegrees>
              <LongitudeDegrees>20.002635754644870758056640625</LongitudeDegrees>
            </Position>
            <AltitudeMeters>745.5999755859375</AltitudeMeters>
            <DistanceMeters>NAN</DistanceMeters>
          </Trackpoint>
          <Trackpoint>
            <Time>2022-09-18T13:02:20.000Z</Time>
            <Position>
              <LatitudeDegrees>49.33530044741928577423095703125</LatitudeDegrees>
              <LongitudeDegrees>20.00256895087659358978271484375</LongitudeDegrees>
            </Position>
            <AltitudeMeters>745</AltitudeMeters>
            <DistanceMeters>NAN</DistanceMeters>
          </Trackpoint>
          <Trackpoint>
            <Time>2022-09-18T13:02:21.000Z</Time>
            <Position>
              <LatitudeDegrees>49.33521193452179431915283203125</LatitudeDegrees>
              <LongitudeDegrees>20.00255034305155277252197265625</LongitudeDegrees>
            </Position>
            <AltitudeMeters>744.79998779296875</AltitudeMeters>
            <DistanceMeters>NAN</DistanceMeters>
          </Trackpoint>
          <Trackpoint>
            <Time>2022-09-18T13:02:27.000Z</Time>
            <Position>
              <LatitudeDegrees>49.33504781685769557952880859375</LatitudeDegrees>
              <LongitudeDegrees>20.00251010991632938385009765625</LongitudeDegrees>
            </Position>
            <AltitudeMeters>745.79998779296875</AltitudeMeters>
            <DistanceMeters>NAN</DistanceMeters>
          </Trackpoint>
          <Trackpoint>
            <Time>2022-09-18T13:02:33.000Z</Time>
            <Position>
              <LatitudeDegrees>49.334837011992931365966796875</LatitudeDegrees>
              <LongitudeDegrees>20.0024609081447124481201171875</LongitudeDegrees>
            </Position>
            <AltitudeMeters>746.20001220703125</AltitudeMeters>
            <DistanceMeters>NAN</DistanceMeters>
          </Trackpoint>
          <Trackpoint>
            <Time>2022-09-18T13:02:34.000Z</Time>
            <Position>
              <LatitudeDegrees>49.33480557985603809356689453125</LatitudeDegrees>
              <LongitudeDegrees>20.00245261006057262420654296875</LongitudeDegrees>
            </Position>
            <AltitudeMeters>746.20001220703125</AltitudeMeters>
            <DistanceMeters>NAN</DistanceMeters>
          </Trackpoint>
          <Trackpoint>
            <Time>2022-09-18T13:02:40.000Z</Time>
            <Position>
              <LatitudeDegrees>49.3346450664103031158447265625</LatitudeDegrees>
              <LongitudeDegrees>20.0023868121206760406494140625</LongitudeDegrees>
            </Position>
            <AltitudeMeters>747.4000244140625</AltitudeMeters>
            <DistanceMeters>NAN</DistanceMeters>
          </Trackpoint>
          <Trackpoint>
            <Time>2022-09-18T13:02:42.000Z</Time>
            <Position>
              <LatitudeDegrees>49.33456501923501491546630859375</LatitudeDegrees>
              <LongitudeDegrees>20.00235470943152904510498046875</LongitudeDegrees>
            </Position>
            <AltitudeMeters>747.5999755859375</AltitudeMeters>
            <DistanceMeters>NAN</DistanceMeters>
          </Trackpoint>
          <Trackpoint>
            <Time>2022-09-18T13:02:47.000Z</Time>
            <Position>
              <LatitudeDegrees>49.3344418890774250030517578125</LatitudeDegrees>
              <LongitudeDegrees>20.00231799669563770294189453125</LongitudeDegrees>
            </Position>
            <AltitudeMeters>748</AltitudeMeters>
            <DistanceMeters>NAN</DistanceMeters>
          </Trackpoint>
          <Trackpoint>
            <Time>2022-09-18T13:02:50.000Z</Time>
            <Position>
              <LatitudeDegrees>49.33438933454453945159912109375</LatitudeDegrees>
              <LongitudeDegrees>20.00230944715440273284912109375</LongitudeDegrees>
            </Position>
            <AltitudeMeters>748</AltitudeMeters>
            <DistanceMeters>NAN</DistanceMeters>
          </Trackpoint>
          <Trackpoint>
            <Time>2022-09-18T13:02:51.000Z</Time>
            <Position>
              <LatitudeDegrees>49.3343651108443737030029296875</LatitudeDegrees>
              <LongitudeDegrees>20.002302490174770355224609375</LongitudeDegrees>
            </Position>
            <AltitudeMeters>748</AltitudeMeters>
            <DistanceMeters>NAN</DistanceMeters>
          </Trackpoint>
          <Trackpoint>
            <Time>2022-09-18T13:02:53.000Z</Time>
            <Position>
              <LatitudeDegrees>49.3342916853725910186767578125</LatitudeDegrees>
              <LongitudeDegrees>20.002254880964756011962890625</LongitudeDegrees>
            </Position>
            <AltitudeMeters>748.20001220703125</AltitudeMeters>
            <DistanceMeters>NAN</DistanceMeters>
          </Trackpoint>
          <Trackpoint>
            <Time>2022-09-18T13:02:57.000Z</Time>
            <Position>
              <LatitudeDegrees>49.33422052301466464996337890625</LatitudeDegrees>
              <LongitudeDegrees>20.00221976079046726226806640625</LongitudeDegrees>
            </Position>
            <AltitudeMeters>748.4000244140625</AltitudeMeters>
            <DistanceMeters>NAN</DistanceMeters>
          </Trackpoint>
          <Trackpoint>
            <Time>2022-09-18T13:03:00.000Z</Time>
            <Position>
              <LatitudeDegrees>49.334145672619342803955078125</LatitudeDegrees>
              <LongitudeDegrees>20.0021792761981487274169921875</LongitudeDegrees>
            </Position>
            <AltitudeMeters>749</AltitudeMeters>
            <DistanceMeters>NAN</DistanceMeters>
          </Trackpoint>
          <Trackpoint>
            <Time>2022-09-18T13:03:04.000Z</Time>
            <Position>
              <LatitudeDegrees>49.33406612835824489593505859375</LatitudeDegrees>
              <LongitudeDegrees>20.0021306611597537994384765625</LongitudeDegrees>
            </Position>
            <AltitudeMeters>749.5999755859375</AltitudeMeters>
            <DistanceMeters>NAN</DistanceMeters>
          </Trackpoint>
          <Trackpoint>
            <Time>2022-09-18T13:03:07.000Z</Time>
            <Position>
              <LatitudeDegrees>49.33400594629347324371337890625</LatitudeDegrees>
              <LongitudeDegrees>20.00208967365324497222900390625</LongitudeDegrees>
            </Position>
            <AltitudeMeters>749.79998779296875</AltitudeMeters>
            <DistanceMeters>NAN</DistanceMeters>
          </Trackpoint>
          <Trackpoint>
            <Time>2022-09-18T13:03:15.000Z</Time>
            <Position>
              <LatitudeDegrees>49.33386647142469882965087890625</LatitudeDegrees>
              <LongitudeDegrees>20.002009458839893341064453125</LongitudeDegrees>
            </Position>
            <AltitudeMeters>750.5999755859375</AltitudeMeters>
            <DistanceMeters>NAN</DistanceMeters>
          </Trackpoint>
          <Trackpoint>
            <Time>2022-09-18T13:03:16.000Z</Time>
            <Position>
              <LatitudeDegrees>49.33383394964039325714111328125</LatitudeDegrees>
              <LongitudeDegrees>20.00198967754840850830078125</LongitudeDegrees>
            </Position>
            <AltitudeMeters>750.5999755859375</AltitudeMeters>
            <DistanceMeters>NAN</DistanceMeters>
          </Trackpoint>
          <Trackpoint>
            <Time>2022-09-18T13:03:25.000Z</Time>
            <Position>
              <LatitudeDegrees>49.33365516364574432373046875</LatitudeDegrees>
              <LongitudeDegrees>20.00191533006727695465087890625</LongitudeDegrees>
            </Position>
            <AltitudeMeters>751</AltitudeMeters>
            <DistanceMeters>NAN</DistanceMeters>
          </Trackpoint>
          <Trackpoint>
            <Time>2022-09-18T13:03:33.000Z</Time>
            <Position>
              <LatitudeDegrees>49.3334538303315639495849609375</LatitudeDegrees>
              <LongitudeDegrees>20.00183000229299068450927734375</LongitudeDegrees>
            </Position>
            <AltitudeMeters>751.4000244140625</AltitudeMeters>
            <DistanceMeters>NAN</DistanceMeters>
          </Trackpoint>
          <Trackpoint>
            <Time>2022-09-18T13:03:36.000Z</Time>
            <Position>
              <LatitudeDegrees>49.3333763815462589263916015625</LatitudeDegrees>
              <LongitudeDegrees>20.00178775750100612640380859375</LongitudeDegrees>
            </Position>
            <AltitudeMeters>751.5999755859375</AltitudeMeters>
            <DistanceMeters>NAN</DistanceMeters>
          </Trackpoint>
          <Trackpoint>
            <Time>2022-09-18T13:03:39.000Z</Time>
            <Position>
              <LatitudeDegrees>49.33333723805844783782958984375</LatitudeDegrees>
              <LongitudeDegrees>20.00175288878381252288818359375</LongitudeDegrees>
            </Position>
            <AltitudeMeters>751.79998779296875</AltitudeMeters>
            <DistanceMeters>NAN</DistanceMeters>
          </Trackpoint>
          <Trackpoint>
            <Time>2022-09-18T13:03:44.000Z</Time>
            <Position>
              <LatitudeDegrees>49.3331949971616268157958984375</LatitudeDegrees>
              <LongitudeDegrees>20.00165884383022785186767578125</LongitudeDegrees>
            </Position>
            <AltitudeMeters>752</AltitudeMeters>
            <DistanceMeters>NAN</DistanceMeters>
          </Trackpoint>
          <Trackpoint>
            <Time>2022-09-18T13:03:53.000Z</Time>
            <Position>
              <LatitudeDegrees>49.33302945457398891448974609375</LatitudeDegrees>
              <LongitudeDegrees>20.0015397369861602783203125</LongitudeDegrees>
            </Position>
            <AltitudeMeters>751.79998779296875</AltitudeMeters>
            <DistanceMeters>NAN</DistanceMeters>
          </Trackpoint>
          <Trackpoint>
            <Time>2022-09-18T13:04:02.000Z</Time>
            <Position>
              <LatitudeDegrees>49.33281672187149524688720703125</LatitudeDegrees>
              <LongitudeDegrees>20.0013534910976886749267578125</LongitudeDegrees>
            </Position>
            <AltitudeMeters>752.5999755859375</AltitudeMeters>
            <DistanceMeters>NAN</DistanceMeters>
          </Trackpoint>
          <Trackpoint>
            <Time>2022-09-18T13:04:09.000Z</Time>
            <Position>
              <LatitudeDegrees>49.3326726369559764862060546875</LatitudeDegrees>
              <LongitudeDegrees>20.00124863348901271820068359375</LongitudeDegrees>
            </Position>
            <AltitudeMeters>752.5999755859375</AltitudeMeters>
            <DistanceMeters>NAN</DistanceMeters>
          </Trackpoint>
          <Trackpoint>
            <Time>2022-09-18T13:04:10.000Z</Time>
            <Position>
              <LatitudeDegrees>49.33262108825147151947021484375</LatitudeDegrees>
              <LongitudeDegrees>20.00119918026030063629150390625</LongitudeDegrees>
            </Position>
            <AltitudeMeters>752.79998779296875</AltitudeMeters>
            <DistanceMeters>NAN</DistanceMeters>
          </Trackpoint>
          <Trackpoint>
            <Time>2022-09-18T13:04:19.000Z</Time>
            <Position>
              <LatitudeDegrees>49.33242578990757465362548828125</LatitudeDegrees>
              <LongitudeDegrees>20.00103908590972423553466796875</LongitudeDegrees>
            </Position>
            <AltitudeMeters>753.5999755859375</AltitudeMeters>
            <DistanceMeters>NAN</DistanceMeters>
          </Trackpoint>
          <Trackpoint>
            <Time>2022-09-18T13:04:29.000Z</Time>
            <Position>
              <LatitudeDegrees>49.33220182545483112335205078125</LatitudeDegrees>
              <LongitudeDegrees>20.00086625106632709503173828125</LongitudeDegrees>
            </Position>
            <AltitudeMeters>753.5999755859375</AltitudeMeters>
            <DistanceMeters>NAN</DistanceMeters>
          </Trackpoint>
          <Trackpoint>
            <Time>2022-09-18T13:04:37.000Z</Time>
            <Position>
              <LatitudeDegrees>49.3319863267242908477783203125</LatitudeDegrees>
              <LongitudeDegrees>20.00068008899688720703125</LongitudeDegrees>
            </Position>
            <AltitudeMeters>753.4000244140625</AltitudeMeters>
            <DistanceMeters>NAN</DistanceMeters>
          </Trackpoint>
          <Trackpoint>
            <Time>2022-09-18T13:04:39.000Z</Time>
            <Position>
              <LatitudeDegrees>49.33195606805384159088134765625</LatitudeDegrees>
              <LongitudeDegrees>20.00065485946834087371826171875</LongitudeDegrees>
            </Position>
            <AltitudeMeters>753.4000244140625</AltitudeMeters>
            <DistanceMeters>NAN</DistanceMeters>
          </Trackpoint>
          <Trackpoint>
            <Time>2022-09-18T13:04:44.000Z</Time>
            <Position>
              <LatitudeDegrees>49.33179060928523540496826171875</LatitudeDegrees>
              <LongitudeDegrees>20.000498704612255096435546875</LongitudeDegrees>
            </Position>
            <AltitudeMeters>753.79998779296875</AltitudeMeters>
            <DistanceMeters>NAN</DistanceMeters>
          </Trackpoint>
          <Trackpoint>
            <Time>2022-09-18T13:04:47.000Z</Time>
            <Position>
              <LatitudeDegrees>49.331711567938327789306640625</LatitudeDegrees>
              <LongitudeDegrees>20.0004264526069164276123046875</LongitudeDegrees>
            </Position>
            <AltitudeMeters>753.79998779296875</AltitudeMeters>
            <DistanceMeters>NAN</DistanceMeters>
          </Trackpoint>
          <Trackpoint>
            <Time>2022-09-18T13:04:48.000Z</Time>
            <Position>
              <LatitudeDegrees>49.331711567938327789306640625</LatitudeDegrees>
              <LongitudeDegrees>20.0004264526069164276123046875</LongitudeDegrees>
            </Position>
            <AltitudeMeters>753.79998779296875</AltitudeMeters>
            <DistanceMeters>NAN</DistanceMeters>
          </Trackpoint>
          <Trackpoint>
            <Time>2022-09-18T13:04:51.000Z</Time>
            <Position>
              <LatitudeDegrees>49.3316483683884143829345703125</LatitudeDegrees>
              <LongitudeDegrees>20.000363253057003021240234375</LongitudeDegrees>
            </Position>
            <AltitudeMeters>753.79998779296875</AltitudeMeters>
            <DistanceMeters>NAN</DistanceMeters>
          </Trackpoint>
          <Trackpoint>
            <Time>2022-09-18T13:04:58.000Z</Time>
            <Position>
              <LatitudeDegrees>49.331439994275569915771484375</LatitudeDegrees>
              <LongitudeDegrees>20.000178851187229156494140625</LongitudeDegrees>
            </Position>
            <AltitudeMeters>754</AltitudeMeters>
            <DistanceMeters>NAN</DistanceMeters>
          </Trackpoint>
          <Trackpoint>
            <Time>2022-09-18T13:05:01.000Z</Time>
            <Position>
              <LatitudeDegrees>49.331385679543018341064453125</LatitudeDegrees>
              <LongitudeDegrees>20.00012428499758243560791015625</LongitudeDegrees>
            </Position>
            <AltitudeMeters>754.20001220703125</AltitudeMeters>
            <DistanceMeters>NAN</DistanceMeters>
          </Trackpoint>
          <Trackpoint>
            <Time>2022-09-18T13:05:07.000Z</Time>
            <Position>
              <LatitudeDegrees>49.331232123076915740966796875</LatitudeDegrees>
              <LongitudeDegrees>19.99990585260093212127685546875</LongitudeDegrees>
            </Position>
            <AltitudeMeters>754.20001220703125</AltitudeMeters>
            <DistanceMeters>NAN</DistanceMeters>
          </Trackpoint>
          <Trackpoint>
            <Time>2022-09-18T13:05:09.000Z</Time>
            <Position>
              <LatitudeDegrees>49.33116112835705280303955078125</LatitudeDegrees>
              <LongitudeDegrees>19.99980342574417591094970703125</LongitudeDegrees>
            </Position>
            <AltitudeMeters>754.20001220703125</AltitudeMeters>
            <DistanceMeters>NAN</DistanceMeters>
          </Trackpoint>
          <Trackpoint>
            <Time>2022-09-18T13:05:19.000Z</Time>
            <Position>
              <LatitudeDegrees>49.330934397876262664794921875</LatitudeDegrees>
              <LongitudeDegrees>19.999429173767566680908203125</LongitudeDegrees>
            </Position>
            <AltitudeMeters>753</AltitudeMeters>
            <DistanceMeters>NAN</DistanceMeters>
          </Trackpoint>
          <Trackpoint>
            <Time>2022-09-18T13:05:29.000Z</Time>
            <Position>
              <LatitudeDegrees>49.33069811202585697174072265625</LatitudeDegrees>
              <LongitudeDegrees>19.99902424402534961700439453125</LongitudeDegrees>
            </Position>
            <AltitudeMeters>753</AltitudeMeters>
            <DistanceMeters>NAN</DistanceMeters>
          </Trackpoint>
          <Trackpoint>
            <Time>2022-09-18T13:05:33.000Z</Time>
            <Position>
              <LatitudeDegrees>49.330627620220184326171875</LatitudeDegrees>
              <LongitudeDegrees>19.99890840612351894378662109375</LongitudeDegrees>
            </Position>
            <AltitudeMeters>752.5999755859375</AltitudeMeters>
            <DistanceMeters>NAN</DistanceMeters>
          </Trackpoint>
          <Trackpoint>
            <Time>2022-09-18T13:05:37.000Z</Time>
            <Position>
              <LatitudeDegrees>49.330540113151073455810546875</LatitudeDegrees>
              <LongitudeDegrees>19.99872936867177486419677734375</LongitudeDegrees>
            </Position>
            <AltitudeMeters>752.20001220703125</AltitudeMeters>
            <DistanceMeters>NAN</DistanceMeters>
          </Trackpoint>
          <Trackpoint>
            <Time>2022-09-18T13:05:45.000Z</Time>
            <Position>
              <LatitudeDegrees>49.330418072640895843505859375</LatitudeDegrees>
              <LongitudeDegrees>19.99844505451619625091552734375</LongitudeDegrees>
            </Position>
            <AltitudeMeters>752.79998779296875</AltitudeMeters>
            <DistanceMeters>NAN</DistanceMeters>
          </Trackpoint>
          <Trackpoint>
            <Time>2022-09-18T13:05:46.000Z</Time>
            <Position>
              <LatitudeDegrees>49.330418072640895843505859375</LatitudeDegrees>
              <LongitudeDegrees>19.99844505451619625091552734375</LongitudeDegrees>
            </Position>
            <AltitudeMeters>753.20001220703125</AltitudeMeters>
            <DistanceMeters>NAN</DistanceMeters>
          </Trackpoint>
          <Trackpoint>
            <Time>2022-09-18T13:05:50.000Z</Time>
            <Position>
              <LatitudeDegrees>49.3303501792252063751220703125</LatitudeDegrees>
              <LongitudeDegrees>19.99827741645276546478271484375</LongitudeDegrees>
            </Position>
            <AltitudeMeters>753.5999755859375</AltitudeMeters>
            <DistanceMeters>NAN</DistanceMeters>
          </Trackpoint>
          <Trackpoint>
            <Time>2022-09-18T13:05:55.000Z</Time>
            <Position>
              <LatitudeDegrees>49.33026543818414211273193359375</LatitudeDegrees>
              <LongitudeDegrees>19.99808765016496181488037109375</LongitudeDegrees>
            </Position>
            <AltitudeMeters>754.20001220703125</AltitudeMeters>
            <DistanceMeters>NAN</DistanceMeters>
          </Trackpoint>
          <Trackpoint>
            <Time>2022-09-18T13:05:57.000Z</Time>
            <Position>
              <LatitudeDegrees>49.3302308209240436553955078125</LatitudeDegrees>
              <LongitudeDegrees>19.99801791273057460784912109375</LongitudeDegrees>
            </Position>
            <AltitudeMeters>754.20001220703125</AltitudeMeters>
            <DistanceMeters>NAN</DistanceMeters>
          </Trackpoint>
          <Trackpoint>
            <Time>2022-09-18T13:06:06.000Z</Time>
            <Position>
              <LatitudeDegrees>49.33010702021420001983642578125</LatitudeDegrees>
              <LongitudeDegrees>19.997712559998035430908203125</LongitudeDegrees>
            </Position>
            <AltitudeMeters>754.5999755859375</AltitudeMeters>
            <DistanceMeters>NAN</DistanceMeters>
          </Trackpoint>
          <Trackpoint>
            <Time>2022-09-18T13:06:07.000Z</Time>
            <Position>
              <LatitudeDegrees>49.3300936929881572723388671875</LatitudeDegrees>
              <LongitudeDegrees>19.997689090669155120849609375</LongitudeDegrees>
            </Position>
            <AltitudeMeters>754.5999755859375</AltitudeMeters>
            <DistanceMeters>NAN</DistanceMeters>
          </Trackpoint>
          <Trackpoint>
            <Time>2022-09-18T13:06:15.000Z</Time>
            <Position>
              <LatitudeDegrees>49.3299967981874942779541015625</LatitudeDegrees>
              <LongitudeDegrees>19.997501336038112640380859375</LongitudeDegrees>
            </Position>
            <AltitudeMeters>755.79998779296875</AltitudeMeters>
            <DistanceMeters>NAN</DistanceMeters>
          </Trackpoint>
          <Trackpoint>
            <Time>2022-09-18T13:06:22.000Z</Time>
            <Position>
              <LatitudeDegrees>49.32991658337414264678955078125</LatitudeDegrees>
              <LongitudeDegrees>19.9973683990538120269775390625</LongitudeDegrees>
            </Position>
            <AltitudeMeters>756.4000244140625</AltitudeMeters>
            <DistanceMeters>NAN</DistanceMeters>
          </Trackpoint>
          <Trackpoint>
            <Time>2022-09-18T13:06:28.000Z</Time>
            <Position>
              <LatitudeDegrees>49.3298603408038616180419921875</LatitudeDegrees>
              <LongitudeDegrees>19.99723806045949459075927734375</LongitudeDegrees>
            </Position>
            <AltitudeMeters>756.5999755859375</AltitudeMeters>
            <DistanceMeters>NAN</DistanceMeters>
          </Trackpoint>
          <Trackpoint>
            <Time>2022-09-18T13:06:29.000Z</Time>
            <Position>
              <LatitudeDegrees>49.32985640130937099456787109375</LatitudeDegrees>
              <LongitudeDegrees>19.99722079373896121978759765625</LongitudeDegrees>
            </Position>
            <AltitudeMeters>756.5999755859375</AltitudeMeters>
            <DistanceMeters>NAN</DistanceMeters>
          </Trackpoint>
          <Trackpoint>
            <Time>2022-09-18T13:06:33.000Z</Time>
            <Position>
              <LatitudeDegrees>49.32984868995845317840576171875</LatitudeDegrees>
              <LongitudeDegrees>19.99716438353061676025390625</LongitudeDegrees>
            </Position>
            <AltitudeMeters>756.4000244140625</AltitudeMeters>
            <DistanceMeters>NAN</DistanceMeters>
          </Trackpoint>
          <Trackpoint>
            <Time>2022-09-18T13:06:35.000Z</Time>
            <Position>
              <LatitudeDegrees>49.32985941879451274871826171875</LatitudeDegrees>
              <LongitudeDegrees>19.9970793910324573516845703125</LongitudeDegrees>
            </Position>
            <AltitudeMeters>756.20001220703125</AltitudeMeters>
            <DistanceMeters>NAN</DistanceMeters>
          </Trackpoint>
          <Trackpoint>
            <Time>2022-09-18T13:06:37.000Z</Time>
            <Position>
              <LatitudeDegrees>49.3298942036926746368408203125</LatitudeDegrees>
              <LongitudeDegrees>19.99703974463045597076416015625</LongitudeDegrees>
            </Position>
            <AltitudeMeters>756.20001220703125</AltitudeMeters>
            <DistanceMeters>NAN</DistanceMeters>
          </Trackpoint>
          <Trackpoint>
            <Time>2022-09-18T13:06:46.000Z</Time>
            <Position>
              <LatitudeDegrees>49.329993613064289093017578125</LatitudeDegrees>
              <LongitudeDegrees>19.99687344767153263092041015625</LongitudeDegrees>
            </Position>
            <AltitudeMeters>754.79998779296875</AltitudeMeters>
            <DistanceMeters>NAN</DistanceMeters>
          </Trackpoint>
          <Trackpoint>
            <Time>2022-09-18T13:06:47.000Z</Time>
            <Position>
              <LatitudeDegrees>49.329993613064289093017578125</LatitudeDegrees>
              <LongitudeDegrees>19.99687344767153263092041015625</LongitudeDegrees>
            </Position>
            <AltitudeMeters>754.5999755859375</AltitudeMeters>
            <DistanceMeters>NAN</DistanceMeters>
          </Trackpoint>
          <Trackpoint>
            <Time>2022-09-18T13:06:52.000Z</Time>
            <Position>
              <LatitudeDegrees>49.33005790226161479949951171875</LatitudeDegrees>
              <LongitudeDegrees>19.9967169575393199920654296875</LongitudeDegrees>
            </Position>
            <AltitudeMeters>754</AltitudeMeters>
            <DistanceMeters>NAN</DistanceMeters>
          </Trackpoint>
          <Trackpoint>
            <Time>2022-09-18T13:06:54.000Z</Time>
            <Position>
              <LatitudeDegrees>49.3300769291818141937255859375</LatitudeDegrees>
              <LongitudeDegrees>19.9966820888221263885498046875</LongitudeDegrees>
            </Position>
            <AltitudeMeters>753.79998779296875</AltitudeMeters>
            <DistanceMeters>NAN</DistanceMeters>
          </Trackpoint>
          <Trackpoint>
            <Time>2022-09-18T13:06:57.000Z</Time>
            <Position>
              <LatitudeDegrees>49.3300913460552692413330078125</LatitudeDegrees>
              <LongitudeDegrees>19.99657974578440189361572265625</LongitudeDegrees>
            </Position>
            <AltitudeMeters>753.79998779296875</AltitudeMeters>
            <DistanceMeters>NAN</DistanceMeters>
          </Trackpoint>
          <Trackpoint>
            <Time>2022-09-18T13:06:59.000Z</Time>
            <Position>
              <LatitudeDegrees>49.3300978839397430419921875</LatitudeDegrees>
              <LongitudeDegrees>19.996536411345005035400390625</LongitudeDegrees>
            </Position>
            <AltitudeMeters>754.20001220703125</AltitudeMeters>
            <DistanceMeters>NAN</DistanceMeters>
          </Trackpoint>
          <Trackpoint>
            <Time>2022-09-18T13:07:03.000Z</Time>
            <Position>
              <LatitudeDegrees>49.33014926500618457794189453125</LatitudeDegrees>
              <LongitudeDegrees>19.99641177244484424591064453125</LongitudeDegrees>
            </Position>
            <AltitudeMeters>754.4000244140625</AltitudeMeters>
            <DistanceMeters>NAN</DistanceMeters>
          </Trackpoint>
          <Trackpoint>
            <Time>2022-09-18T13:07:07.000Z</Time>
            <Position>
              <LatitudeDegrees>49.330301396548748016357421875</LatitudeDegrees>
              <LongitudeDegrees>19.996213205158710479736328125</LongitudeDegrees>
            </Position>
            <AltitudeMeters>754</AltitudeMeters>
            <DistanceMeters>NAN</DistanceMeters>
          </Trackpoint>
          <Trackpoint>
            <Time>2022-09-18T13:07:09.000Z</Time>
            <Position>
              <LatitudeDegrees>49.33032746426761150360107421875</LatitudeDegrees>
              <LongitudeDegrees>19.99617255292832851409912109375</LongitudeDegrees>
            </Position>
            <AltitudeMeters>753.20001220703125</AltitudeMeters>
            <DistanceMeters>NAN</DistanceMeters>
          </Trackpoint>
          <Trackpoint>
            <Time>2022-09-18T13:07:10.000Z</Time>
            <Position>
              <LatitudeDegrees>49.33038865216076374053955078125</LatitudeDegrees>
              <LongitudeDegrees>19.9960923381149768829345703125</LongitudeDegrees>
            </Position>
            <AltitudeMeters>753</AltitudeMeters>
            <DistanceMeters>NAN</DistanceMeters>
          </Trackpoint>
          <Trackpoint>
            <Time>2022-09-18T13:07:12.000Z</Time>
            <Position>
              <LatitudeDegrees>49.33042301796376705169677734375</LatitudeDegrees>
              <LongitudeDegrees>19.9960239417850971221923828125</LongitudeDegrees>
            </Position>
            <AltitudeMeters>752.79998779296875</AltitudeMeters>
            <DistanceMeters>NAN</DistanceMeters>
          </Trackpoint>
          <Trackpoint>
            <Time>2022-09-18T13:07:13.000Z</Time>
            <Position>
              <LatitudeDegrees>49.3304299749433994293212890625</LatitudeDegrees>
              <LongitudeDegrees>19.9959870614111423492431640625</LongitudeDegrees>
            </Position>
            <AltitudeMeters>752.5999755859375</AltitudeMeters>
            <DistanceMeters>NAN</DistanceMeters>
          </Trackpoint>
          <Trackpoint>
            <Time>2022-09-18T13:07:15.000Z</Time>
            <Position>
              <LatitudeDegrees>49.33042050339281558990478515625</LatitudeDegrees>
              <LongitudeDegrees>19.995945990085601806640625</LongitudeDegrees>
            </Position>
            <AltitudeMeters>752.4000244140625</AltitudeMeters>
            <DistanceMeters>NAN</DistanceMeters>
          </Trackpoint>
          <Trackpoint>
            <Time>2022-09-18T13:07:17.000Z</Time>
            <Position>
              <LatitudeDegrees>49.3303702957928180694580078125</LatitudeDegrees>
              <LongitudeDegrees>19.9958304874598979949951171875</LongitudeDegrees>
            </Position>
            <AltitudeMeters>752.20001220703125</AltitudeMeters>
            <DistanceMeters>NAN</DistanceMeters>
          </Trackpoint>
          <Trackpoint>
            <Time>2022-09-18T13:07:22.000Z</Time>
            <Position>
              <LatitudeDegrees>49.33028924278914928436279296875</LatitudeDegrees>
              <LongitudeDegrees>19.9956822954118251800537109375</LongitudeDegrees>
            </Position>
            <AltitudeMeters>752.20001220703125</AltitudeMeters>
            <DistanceMeters>NAN</DistanceMeters>
          </Trackpoint>
          <Trackpoint>
            <Time>2022-09-18T13:07:29.000Z</Time>
            <Position>
              <LatitudeDegrees>49.33013836853206157684326171875</LatitudeDegrees>
              <LongitudeDegrees>19.995369650423526763916015625</LongitudeDegrees>
            </Position>
            <AltitudeMeters>751.79998779296875</AltitudeMeters>
            <DistanceMeters>NAN</DistanceMeters>
          </Trackpoint>
          <Trackpoint>
            <Time>2022-09-18T13:07:38.000Z</Time>
            <Position>
              <LatitudeDegrees>49.3299116380512714385986328125</LatitudeDegrees>
              <LongitudeDegrees>19.99486765824258327484130859375</LongitudeDegrees>
            </Position>
            <AltitudeMeters>753</AltitudeMeters>
            <DistanceMeters>NAN</DistanceMeters>
          </Trackpoint>
          <Trackpoint>
            <Time>2022-09-18T13:07:40.000Z</Time>
            <Position>
              <LatitudeDegrees>49.3298888392746448516845703125</LatitudeDegrees>
              <LongitudeDegrees>19.99481669627130031585693359375</LongitudeDegrees>
            </Position>
            <AltitudeMeters>752.5999755859375</AltitudeMeters>
            <DistanceMeters>NAN</DistanceMeters>
          </Trackpoint>
          <Trackpoint>
            <Time>2022-09-18T13:07:44.000Z</Time>
            <Position>
              <LatitudeDegrees>49.32979018427431583404541015625</LatitudeDegrees>
              <LongitudeDegrees>19.99462357722222805023193359375</LongitudeDegrees>
            </Position>
            <AltitudeMeters>752.5999755859375</AltitudeMeters>
            <DistanceMeters>NAN</DistanceMeters>
          </Trackpoint>
          <Trackpoint>
            <Time>2022-09-18T13:07:48.000Z</Time>
            <Position>
              <LatitudeDegrees>49.32971365749835968017578125</LatitudeDegrees>
              <LongitudeDegrees>19.99447236768901348114013671875</LongitudeDegrees>
            </Position>
            <AltitudeMeters>753.20001220703125</AltitudeMeters>
            <DistanceMeters>NAN</DistanceMeters>
          </Trackpoint>
          <Trackpoint>
            <Time>2022-09-18T13:07:50.000Z</Time>
            <Position>
              <LatitudeDegrees>49.32969111017882823944091796875</LatitudeDegrees>
              <LongitudeDegrees>19.99443649314343929290771484375</LongitudeDegrees>
            </Position>
            <AltitudeMeters>753.5999755859375</AltitudeMeters>
            <DistanceMeters>NAN</DistanceMeters>
          </Trackpoint>
          <Trackpoint>
            <Time>2022-09-18T13:07:58.000Z</Time>
            <Position>
              <LatitudeDegrees>49.32953068055212497711181640625</LatitudeDegrees>
              <LongitudeDegrees>19.994098283350467681884765625</LongitudeDegrees>
            </Position>
            <AltitudeMeters>754</AltitudeMeters>
            <DistanceMeters>NAN</DistanceMeters>
          </Trackpoint>
          <Trackpoint>
            <Time>2022-09-18T13:08:04.000Z</Time>
            <Position>
              <LatitudeDegrees>49.32938483543694019317626953125</LatitudeDegrees>
              <LongitudeDegrees>19.993754960596561431884765625</LongitudeDegrees>
            </Position>
            <AltitudeMeters>754.20001220703125</AltitudeMeters>
            <DistanceMeters>NAN</DistanceMeters>
          </Trackpoint>
          <Trackpoint>
            <Time>2022-09-18T13:08:06.000Z</Time>
            <Position>
              <LatitudeDegrees>49.3293463625013828277587890625</LatitudeDegrees>
              <LongitudeDegrees>19.9936701357364654541015625</LongitudeDegrees>
            </Position>
            <AltitudeMeters>754.4000244140625</AltitudeMeters>
            <DistanceMeters>NAN</DistanceMeters>
          </Trackpoint>
          <Trackpoint>
            <Time>2022-09-18T13:08:12.000Z</Time>
            <Position>
              <LatitudeDegrees>49.32925826869904994964599609375</LatitudeDegrees>
              <LongitudeDegrees>19.99345497228205204010009765625</LongitudeDegrees>
            </Position>
            <AltitudeMeters>754.4000244140625</AltitudeMeters>
            <DistanceMeters>NAN</DistanceMeters>
          </Trackpoint>
          <Trackpoint>
            <Time>2022-09-18T13:08:13.000Z</Time>
            <Position>
              <LatitudeDegrees>49.32924385182559490203857421875</LatitudeDegrees>
              <LongitudeDegrees>19.99341323040425777435302734375</LongitudeDegrees>
            </Position>
            <AltitudeMeters>754.4000244140625</AltitudeMeters>
            <DistanceMeters>NAN</DistanceMeters>
          </Trackpoint>
          <Trackpoint>
            <Time>2022-09-18T13:08:21.000Z</Time>
            <Position>
              <LatitudeDegrees>49.329114519059658050537109375</LatitudeDegrees>
              <LongitudeDegrees>19.99312774278223514556884765625</LongitudeDegrees>
            </Position>
            <AltitudeMeters>754.20001220703125</AltitudeMeters>
            <DistanceMeters>NAN</DistanceMeters>
          </Trackpoint>
          <Trackpoint>
            <Time>2022-09-18T13:08:24.000Z</Time>
            <Position>
              <LatitudeDegrees>49.32905307970941066741943359375</LatitudeDegrees>
              <LongitudeDegrees>19.99301123432815074920654296875</LongitudeDegrees>
            </Position>
            <AltitudeMeters>754</AltitudeMeters>
            <DistanceMeters>NAN</DistanceMeters>
          </Trackpoint>
          <Trackpoint>
            <Time>2022-09-18T13:08:33.000Z</Time>
            <Position>
              <LatitudeDegrees>49.32883925735950469970703125</LatitudeDegrees>
              <LongitudeDegrees>19.992684088647365570068359375</LongitudeDegrees>
            </Position>
            <AltitudeMeters>755</AltitudeMeters>
            <DistanceMeters>NAN</DistanceMeters>
          </Trackpoint>
          <Trackpoint>
            <Time>2022-09-18T13:08:38.000Z</Time>
            <Position>
              <LatitudeDegrees>49.3287552706897258758544921875</LatitudeDegrees>
              <LongitudeDegrees>19.99258794821798801422119140625</LongitudeDegrees>
            </Position>
            <AltitudeMeters>755.20001220703125</AltitudeMeters>
            <DistanceMeters>NAN</DistanceMeters>
          </Trackpoint>
          <Trackpoint>
            <Time>2022-09-18T13:08:39.000Z</Time>
            <Position>
              <LatitudeDegrees>49.328718222677707672119140625</LatitudeDegrees>
              <LongitudeDegrees>19.99252156354486942291259765625</LongitudeDegrees>
            </Position>
            <AltitudeMeters>755.20001220703125</AltitudeMeters>
            <DistanceMeters>NAN</DistanceMeters>
          </Trackpoint>
          <Trackpoint>
            <Time>2022-09-18T13:08:47.000Z</Time>
            <Position>
              <LatitudeDegrees>49.3286137841641902923583984375</LatitudeDegrees>
              <LongitudeDegrees>19.99234353192150592803955078125</LongitudeDegrees>
            </Position>
            <AltitudeMeters>755.20001220703125</AltitudeMeters>
            <DistanceMeters>NAN</DistanceMeters>
          </Trackpoint>
          <Trackpoint>
            <Time>2022-09-18T13:08:52.000Z</Time>
            <Position>
              <LatitudeDegrees>49.32860456407070159912109375</LatitudeDegrees>
              <LongitudeDegrees>19.992351494729518890380859375</LongitudeDegrees>
            </Position>
            <AltitudeMeters>755.20001220703125</AltitudeMeters>
            <DistanceMeters>NAN</DistanceMeters>
          </Trackpoint>
          <Trackpoint>
            <Time>2022-09-18T13:08:57.000Z</Time>
            <Position>
              <LatitudeDegrees>49.32860380969941616058349609375</LatitudeDegrees>
              <LongitudeDegrees>19.99234152026474475860595703125</LongitudeDegrees>
            </Position>
            <AltitudeMeters>755.20001220703125</AltitudeMeters>
            <DistanceMeters>NAN</DistanceMeters>
          </Trackpoint>
          <Trackpoint>
            <Time>2022-09-18T13:09:04.000Z</Time>
            <Position>
              <LatitudeDegrees>49.32862878777086734771728515625</LatitudeDegrees>
              <LongitudeDegrees>19.99231905676424503326416015625</LongitudeDegrees>
            </Position>
            <AltitudeMeters>755</AltitudeMeters>
            <DistanceMeters>NAN</DistanceMeters>
          </Trackpoint>
          <Trackpoint>
            <Time>2022-09-18T13:09:09.000Z</Time>
            <Position>
              <LatitudeDegrees>49.3286308832466602325439453125</LatitudeDegrees>
              <LongitudeDegrees>19.9923214875161647796630859375</LongitudeDegrees>
            </Position>
            <AltitudeMeters>755.20001220703125</AltitudeMeters>
            <DistanceMeters>NAN</DistanceMeters>
          </Trackpoint>
          <Trackpoint>
            <Time>2022-09-18T13:09:24.000Z</Time>
            <Position>
              <LatitudeDegrees>49.32862979359924793243408203125</LatitudeDegrees>
              <LongitudeDegrees>19.99232542701065540313720703125</LongitudeDegrees>
            </Position>
            <AltitudeMeters>754.79998779296875</AltitudeMeters>
            <DistanceMeters>NAN</DistanceMeters>
          </Trackpoint>
          <Trackpoint>
            <Time>2022-09-18T13:09:25.000Z</Time>
            <Position>
              <LatitudeDegrees>49.32862937450408935546875</LatitudeDegrees>
              <LongitudeDegrees>19.9923261813819408416748046875</LongitudeDegrees>
            </Position>
            <AltitudeMeters>754.79998779296875</AltitudeMeters>
            <DistanceMeters>NAN</DistanceMeters>
          </Trackpoint>
          <Trackpoint>
            <Time>2022-09-18T13:09:39.000Z</Time>
            <Position>
              <LatitudeDegrees>49.3286282010376453399658203125</LatitudeDegrees>
              <LongitudeDegrees>19.9923288635909557342529296875</LongitudeDegrees>
            </Position>
            <AltitudeMeters>754.4000244140625</AltitudeMeters>
            <DistanceMeters>NAN</DistanceMeters>
          </Trackpoint>
          <Trackpoint>
            <Time>2022-09-18T13:09:41.000Z</Time>
            <Position>
              <LatitudeDegrees>49.3286278657615184783935546875</LatitudeDegrees>
              <LongitudeDegrees>19.9923288635909557342529296875</LongitudeDegrees>
            </Position>
            <AltitudeMeters>754.20001220703125</AltitudeMeters>
            <DistanceMeters>NAN</DistanceMeters>
          </Trackpoint>
          <Trackpoint>
            <Time>2022-09-18T13:09:42.000Z</Time>
            <Position>
              <LatitudeDegrees>49.3286278657615184783935546875</LatitudeDegrees>
              <LongitudeDegrees>19.9923288635909557342529296875</LongitudeDegrees>
            </Position>
            <AltitudeMeters>754.20001220703125</AltitudeMeters>
            <DistanceMeters>NAN</DistanceMeters>
          </Trackpoint>
          <Trackpoint>
            <Time>2022-09-18T13:09:43.000Z</Time>
            <Position>
              <LatitudeDegrees>49.32862778194248676300048828125</LatitudeDegrees>
              <LongitudeDegrees>19.9923288635909557342529296875</LongitudeDegrees>
            </Position>
            <AltitudeMeters>754.20001220703125</AltitudeMeters>
            <DistanceMeters>NAN</DistanceMeters>
          </Trackpoint>
          <Trackpoint>
            <Time>2022-09-18T13:09:44.000Z</Time>
            <Position>
              <LatitudeDegrees>49.32862736284732818603515625</LatitudeDegrees>
              <LongitudeDegrees>19.99232810921967029571533203125</LongitudeDegrees>
            </Position>
            <AltitudeMeters>754.20001220703125</AltitudeMeters>
            <DistanceMeters>NAN</DistanceMeters>
          </Trackpoint>
          <Trackpoint>
            <Time>2022-09-18T13:09:47.000Z</Time>
            <Position>
              <LatitudeDegrees>49.32862644083797931671142578125</LatitudeDegrees>
              <LongitudeDegrees>19.99232794158160686492919921875</LongitudeDegrees>
            </Position>
            <AltitudeMeters>754.4000244140625</AltitudeMeters>
            <DistanceMeters>NAN</DistanceMeters>
          </Trackpoint>
          <Trackpoint>
            <Time>2022-09-18T13:10:25.000Z</Time>
            <Position>
              <LatitudeDegrees>49.32859442196786403656005859375</LatitudeDegrees>
              <LongitudeDegrees>19.99229215085506439208984375</LongitudeDegrees>
            </Position>
            <AltitudeMeters>754.4000244140625</AltitudeMeters>
            <DistanceMeters>NAN</DistanceMeters>
          </Trackpoint>
          <Trackpoint>
            <Time>2022-09-18T13:10:27.000Z</Time>
            <Position>
              <LatitudeDegrees>49.32859442196786403656005859375</LatitudeDegrees>
              <LongitudeDegrees>19.99229156412184238433837890625</LongitudeDegrees>
            </Position>
            <AltitudeMeters>754.4000244140625</AltitudeMeters>
            <DistanceMeters>NAN</DistanceMeters>
          </Trackpoint>
          <Trackpoint>
            <Time>2022-09-18T13:10:29.000Z</Time>
            <Position>
              <LatitudeDegrees>49.32859542779624462127685546875</LatitudeDegrees>
              <LongitudeDegrees>19.99229122884571552276611328125</LongitudeDegrees>
            </Position>
            <AltitudeMeters>754.20001220703125</AltitudeMeters>
            <DistanceMeters>NAN</DistanceMeters>
          </Trackpoint>
          <Trackpoint>
            <Time>2022-09-18T13:10:42.000Z</Time>
            <Position>
              <LatitudeDegrees>49.32861319743096828460693359375</LatitudeDegrees>
              <LongitudeDegrees>19.99228502623736858367919921875</LongitudeDegrees>
            </Position>
            <AltitudeMeters>754.20001220703125</AltitudeMeters>
            <DistanceMeters>NAN</DistanceMeters>
          </Trackpoint>
          <Trackpoint>
            <Time>2022-09-18T13:10:48.000Z</Time>
            <Position>
              <LatitudeDegrees>49.32852803729474544525146484375</LatitudeDegrees>
              <LongitudeDegrees>19.99221562407910823822021484375</LongitudeDegrees>
            </Position>
            <AltitudeMeters>753.79998779296875</AltitudeMeters>
            <DistanceMeters>NAN</DistanceMeters>
          </Trackpoint>
          <Trackpoint>
            <Time>2022-09-18T13:10:53.000Z</Time>
            <Position>
              <LatitudeDegrees>49.32843700982630252838134765625</LatitudeDegrees>
              <LongitudeDegrees>19.992076568305492401123046875</LongitudeDegrees>
            </Position>
            <AltitudeMeters>753.79998779296875</AltitudeMeters>
            <DistanceMeters>NAN</DistanceMeters>
          </Trackpoint>
          <Trackpoint>
            <Time>2022-09-18T13:10:57.000Z</Time>
            <Position>
              <LatitudeDegrees>49.32834975421428680419921875</LatitudeDegrees>
              <LongitudeDegrees>19.99193985946476459503173828125</LongitudeDegrees>
            </Position>
            <AltitudeMeters>754</AltitudeMeters>
            <DistanceMeters>NAN</DistanceMeters>
          </Trackpoint>
          <Trackpoint>
            <Time>2022-09-18T13:10:58.000Z</Time>
            <Position>
              <LatitudeDegrees>49.3283163942396640777587890625</LatitudeDegrees>
              <LongitudeDegrees>19.9919121153652667999267578125</LongitudeDegrees>
            </Position>
            <AltitudeMeters>754</AltitudeMeters>
            <DistanceMeters>NAN</DistanceMeters>
          </Trackpoint>
          <Trackpoint>
            <Time>2022-09-18T13:11:05.000Z</Time>
            <Position>
              <LatitudeDegrees>49.3281640112400054931640625</LatitudeDegrees>
              <LongitudeDegrees>19.9916839599609375</LongitudeDegrees>
            </Position>
            <AltitudeMeters>754.79998779296875</AltitudeMeters>
            <DistanceMeters>NAN</DistanceMeters>
          </Trackpoint>
          <Trackpoint>
            <Time>2022-09-18T13:11:11.000Z</Time>
            <Position>
              <LatitudeDegrees>49.3280129693448543548583984375</LatitudeDegrees>
              <LongitudeDegrees>19.9914276413619518280029296875</LongitudeDegrees>
            </Position>
            <AltitudeMeters>754.5999755859375</AltitudeMeters>
            <DistanceMeters>NAN</DistanceMeters>
          </Trackpoint>
          <Trackpoint>
            <Time>2022-09-18T13:11:12.000Z</Time>
            <Position>
              <LatitudeDegrees>49.3279898352921009063720703125</LatitudeDegrees>
              <LongitudeDegrees>19.99141104519367218017578125</LongitudeDegrees>
            </Position>
            <AltitudeMeters>754.5999755859375</AltitudeMeters>
            <DistanceMeters>NAN</DistanceMeters>
          </Trackpoint>
          <Trackpoint>
            <Time>2022-09-18T13:11:15.000Z</Time>
            <Position>
              <LatitudeDegrees>49.32793132960796356201171875</LatitudeDegrees>
              <LongitudeDegrees>19.99133594334125518798828125</LongitudeDegrees>
            </Position>
            <AltitudeMeters>755</AltitudeMeters>
            <DistanceMeters>NAN</DistanceMeters>
          </Trackpoint>
          <Trackpoint>
            <Time>2022-09-18T13:11:19.000Z</Time>
            <Position>
              <LatitudeDegrees>49.32785890996456146240234375</LatitudeDegrees>
              <LongitudeDegrees>19.99123536050319671630859375</LongitudeDegrees>
            </Position>
            <AltitudeMeters>755</AltitudeMeters>
            <DistanceMeters>NAN</DistanceMeters>
          </Trackpoint>
          <Trackpoint>
            <Time>2022-09-18T13:11:23.000Z</Time>
            <Position>
              <LatitudeDegrees>49.32775824330747127532958984375</LatitudeDegrees>
              <LongitudeDegrees>19.99109563417732715606689453125</LongitudeDegrees>
            </Position>
            <AltitudeMeters>755.4000244140625</AltitudeMeters>
            <DistanceMeters>NAN</DistanceMeters>
          </Trackpoint>
          <Trackpoint>
            <Time>2022-09-18T13:11:26.000Z</Time>
            <Position>
              <LatitudeDegrees>49.32768800295889377593994140625</LatitudeDegrees>
              <LongitudeDegrees>19.9909897707402706146240234375</LongitudeDegrees>
            </Position>
            <AltitudeMeters>755.79998779296875</AltitudeMeters>
            <DistanceMeters>NAN</DistanceMeters>
          </Trackpoint>
          <Trackpoint>
            <Time>2022-09-18T13:11:29.000Z</Time>
            <Position>
              <LatitudeDegrees>49.3276114761829376220703125</LatitudeDegrees>
              <LongitudeDegrees>19.99088508076965808868408203125</LongitudeDegrees>
            </Position>
            <AltitudeMeters>756.4000244140625</AltitudeMeters>
            <DistanceMeters>NAN</DistanceMeters>
          </Trackpoint>
          <Trackpoint>
            <Time>2022-09-18T13:11:31.000Z</Time>
            <Position>
              <LatitudeDegrees>49.3275600112974643707275390625</LatitudeDegrees>
              <LongitudeDegrees>19.9907929636538028717041015625</LongitudeDegrees>
            </Position>
            <AltitudeMeters>756.5999755859375</AltitudeMeters>
            <DistanceMeters>NAN</DistanceMeters>
          </Trackpoint>
          <Trackpoint>
            <Time>2022-09-18T13:11:32.000Z</Time>
            <Position>
              <LatitudeDegrees>49.327538721263408660888671875</LatitudeDegrees>
              <LongitudeDegrees>19.9907637946307659149169921875</LongitudeDegrees>
            </Position>
            <AltitudeMeters>756.5999755859375</AltitudeMeters>
            <DistanceMeters>NAN</DistanceMeters>
          </Trackpoint>
          <Trackpoint>
            <Time>2022-09-18T13:11:35.000Z</Time>
            <Position>
              <LatitudeDegrees>49.32750309817492961883544921875</LatitudeDegrees>
              <LongitudeDegrees>19.99069732613861560821533203125</LongitudeDegrees>
            </Position>
            <AltitudeMeters>756.5999755859375</AltitudeMeters>
            <DistanceMeters>NAN</DistanceMeters>
          </Trackpoint>
          <Trackpoint>
            <Time>2022-09-18T13:11:37.000Z</Time>
            <Position>
              <LatitudeDegrees>49.3274433352053165435791015625</LatitudeDegrees>
              <LongitudeDegrees>19.990589283406734466552734375</LongitudeDegrees>
            </Position>
            <AltitudeMeters>756.5999755859375</AltitudeMeters>
            <DistanceMeters>NAN</DistanceMeters>
          </Trackpoint>
          <Trackpoint>
            <Time>2022-09-18T13:11:41.000Z</Time>
            <Position>
              <LatitudeDegrees>49.32735289447009563446044921875</LatitudeDegrees>
              <LongitudeDegrees>19.99046958982944488525390625</LongitudeDegrees>
            </Position>
            <AltitudeMeters>756.5999755859375</AltitudeMeters>
            <DistanceMeters>NAN</DistanceMeters>
          </Trackpoint>
          <Trackpoint>
            <Time>2022-09-18T13:11:43.000Z</Time>
            <Position>
              <LatitudeDegrees>49.3273199535906314849853515625</LatitudeDegrees>
              <LongitudeDegrees>19.9904204718768596649169921875</LongitudeDegrees>
            </Position>
            <AltitudeMeters>756.5999755859375</AltitudeMeters>
            <DistanceMeters>NAN</DistanceMeters>
          </Trackpoint>
          <Trackpoint>
            <Time>2022-09-18T13:11:44.000Z</Time>
            <Position>
              <LatitudeDegrees>49.32729220949113368988037109375</LatitudeDegrees>
              <LongitudeDegrees>19.99039993621408939361572265625</LongitudeDegrees>
            </Position>
            <AltitudeMeters>756.79998779296875</AltitudeMeters>
            <DistanceMeters>NAN</DistanceMeters>
          </Trackpoint>
          <Trackpoint>
            <Time>2022-09-18T13:11:49.000Z</Time>
            <Position>
              <LatitudeDegrees>49.3272277526557445526123046875</LatitudeDegrees>
              <LongitudeDegrees>19.9902880378067493438720703125</LongitudeDegrees>
            </Position>
            <AltitudeMeters>757</AltitudeMeters>
            <DistanceMeters>NAN</DistanceMeters>
          </Trackpoint>
          <Trackpoint>
            <Time>2022-09-18T13:11:56.000Z</Time>
            <Position>
              <LatitudeDegrees>49.3270691670477390289306640625</LatitudeDegrees>
              <LongitudeDegrees>19.990040101110935211181640625</LongitudeDegrees>
            </Position>
            <AltitudeMeters>757.5999755859375</AltitudeMeters>
            <DistanceMeters>NAN</DistanceMeters>
          </Trackpoint>
          <Trackpoint>
            <Time>2022-09-18T13:11:58.000Z</Time>
            <Position>
              <LatitudeDegrees>49.32702365331351757049560546875</LatitudeDegrees>
              <LongitudeDegrees>19.98997715301811695098876953125</LongitudeDegrees>
            </Position>
            <AltitudeMeters>757.5999755859375</AltitudeMeters>
            <DistanceMeters>NAN</DistanceMeters>
          </Trackpoint>
          <Trackpoint>
            <Time>2022-09-18T13:12:08.000Z</Time>
            <Position>
              <LatitudeDegrees>49.32681360282003879547119140625</LatitudeDegrees>
              <LongitudeDegrees>19.98964472673833370208740234375</LongitudeDegrees>
            </Position>
            <AltitudeMeters>758</AltitudeMeters>
            <DistanceMeters>NAN</DistanceMeters>
          </Trackpoint>
          <Trackpoint>
            <Time>2022-09-18T13:12:15.000Z</Time>
            <Position>
              <LatitudeDegrees>49.3266574479639530181884765625</LatitudeDegrees>
              <LongitudeDegrees>19.9894099496304988861083984375</LongitudeDegrees>
            </Position>
            <AltitudeMeters>758.4000244140625</AltitudeMeters>
            <DistanceMeters>NAN</DistanceMeters>
          </Trackpoint>
          <Trackpoint>
            <Time>2022-09-18T13:12:16.000Z</Time>
            <Position>
              <LatitudeDegrees>49.3266574479639530181884765625</LatitudeDegrees>
              <LongitudeDegrees>19.9894099496304988861083984375</LongitudeDegrees>
            </Position>
            <AltitudeMeters>758.4000244140625</AltitudeMeters>
            <DistanceMeters>NAN</DistanceMeters>
          </Trackpoint>
          <Trackpoint>
            <Time>2022-09-18T13:12:19.000Z</Time>
            <Position>
              <LatitudeDegrees>49.32663691230118274688720703125</LatitudeDegrees>
              <LongitudeDegrees>19.98938991688191890716552734375</LongitudeDegrees>
            </Position>
            <AltitudeMeters>758.5999755859375</AltitudeMeters>
            <DistanceMeters>NAN</DistanceMeters>
          </Trackpoint>
          <Trackpoint>
            <Time>2022-09-18T13:12:24.000Z</Time>
            <Position>
              <LatitudeDegrees>49.32663716375827789306640625</LatitudeDegrees>
              <LongitudeDegrees>19.98940466903150081634521484375</LongitudeDegrees>
            </Position>
            <AltitudeMeters>759</AltitudeMeters>
            <DistanceMeters>NAN</DistanceMeters>
          </Trackpoint>
          <Trackpoint>
            <Time>2022-09-18T13:12:27.000Z</Time>
            <Position>
              <LatitudeDegrees>49.32660019956529140472412109375</LatitudeDegrees>
              <LongitudeDegrees>19.98939494602382183074951171875</LongitudeDegrees>
            </Position>
            <AltitudeMeters>759</AltitudeMeters>
            <DistanceMeters>NAN</DistanceMeters>
          </Trackpoint>
          <Trackpoint>
            <Time>2022-09-18T13:12:29.000Z</Time>
            <Position>
              <LatitudeDegrees>49.3265669234097003936767578125</LatitudeDegrees>
              <LongitudeDegrees>19.98938924632966518402099609375</LongitudeDegrees>
            </Position>
            <AltitudeMeters>759</AltitudeMeters>
            <DistanceMeters>NAN</DistanceMeters>
          </Trackpoint>
          <Trackpoint>
            <Time>2022-09-18T13:12:32.000Z</Time>
            <Position>
              <LatitudeDegrees>49.326479919254779815673828125</LatitudeDegrees>
              <LongitudeDegrees>19.989360161125659942626953125</LongitudeDegrees>
            </Position>
            <AltitudeMeters>758.79998779296875</AltitudeMeters>
            <DistanceMeters>NAN</DistanceMeters>
          </Trackpoint>
          <Trackpoint>
            <Time>2022-09-18T13:12:40.000Z</Time>
            <Position>
              <LatitudeDegrees>49.3262440524995326995849609375</LatitudeDegrees>
              <LongitudeDegrees>19.9892832152545452117919921875</LongitudeDegrees>
            </Position>
            <AltitudeMeters>758.79998779296875</AltitudeMeters>
            <DistanceMeters>NAN</DistanceMeters>
          </Trackpoint>
          <Trackpoint>
            <Time>2022-09-18T13:12:47.000Z</Time>
            <Position>
              <LatitudeDegrees>49.3260472454130649566650390625</LatitudeDegrees>
              <LongitudeDegrees>19.98920626938343048095703125</LongitudeDegrees>
            </Position>
            <AltitudeMeters>759</AltitudeMeters>
            <DistanceMeters>NAN</DistanceMeters>
          </Trackpoint>
          <Trackpoint>
            <Time>2022-09-18T13:12:54.000Z</Time>
            <Position>
              <LatitudeDegrees>49.3258739076554775238037109375</LatitudeDegrees>
              <LongitudeDegrees>19.98911817558109760284423828125</LongitudeDegrees>
            </Position>
            <AltitudeMeters>758.79998779296875</AltitudeMeters>
            <DistanceMeters>NAN</DistanceMeters>
          </Trackpoint>
          <Trackpoint>
            <Time>2022-09-18T13:12:59.000Z</Time>
            <Position>
              <LatitudeDegrees>49.325759075582027435302734375</LatitudeDegrees>
              <LongitudeDegrees>19.9890666268765926361083984375</LongitudeDegrees>
            </Position>
            <AltitudeMeters>759.5999755859375</AltitudeMeters>
            <DistanceMeters>NAN</DistanceMeters>
          </Trackpoint>
          <Trackpoint>
            <Time>2022-09-18T13:13:00.000Z</Time>
            <Position>
              <LatitudeDegrees>49.32573451660573482513427734375</LatitudeDegrees>
              <LongitudeDegrees>19.98906101100146770477294921875</LongitudeDegrees>
            </Position>
            <AltitudeMeters>759.79998779296875</AltitudeMeters>
            <DistanceMeters>NAN</DistanceMeters>
          </Trackpoint>
          <Trackpoint>
            <Time>2022-09-18T13:13:01.000Z</Time>
            <Position>
              <LatitudeDegrees>49.32573451660573482513427734375</LatitudeDegrees>
              <LongitudeDegrees>19.98906101100146770477294921875</LongitudeDegrees>
            </Position>
            <AltitudeMeters>759.79998779296875</AltitudeMeters>
            <DistanceMeters>NAN</DistanceMeters>
          </Trackpoint>
          <Trackpoint>
            <Time>2022-09-18T13:13:06.000Z</Time>
            <Position>
              <LatitudeDegrees>49.3256425671279430389404296875</LatitudeDegrees>
              <LongitudeDegrees>19.9890245497226715087890625</LongitudeDegrees>
            </Position>
            <AltitudeMeters>759.79998779296875</AltitudeMeters>
            <DistanceMeters>NAN</DistanceMeters>
          </Trackpoint>
          <Trackpoint>
            <Time>2022-09-18T13:13:09.000Z</Time>
            <Position>
              <LatitudeDegrees>49.3255542218685150146484375</LatitudeDegrees>
              <LongitudeDegrees>19.98900149948894977569580078125</LongitudeDegrees>
            </Position>
            <AltitudeMeters>760</AltitudeMeters>
            <DistanceMeters>NAN</DistanceMeters>
          </Trackpoint>
          <Trackpoint>
            <Time>2022-09-18T13:13:18.000Z</Time>
            <Position>
              <LatitudeDegrees>49.32531089521944522857666015625</LatitudeDegrees>
              <LongitudeDegrees>19.988869316875934600830078125</LongitudeDegrees>
            </Position>
            <AltitudeMeters>760.20001220703125</AltitudeMeters>
            <DistanceMeters>NAN</DistanceMeters>
          </Trackpoint>
          <Trackpoint>
            <Time>2022-09-18T13:13:25.000Z</Time>
            <Position>
              <LatitudeDegrees>49.3251331150531768798828125</LatitudeDegrees>
              <LongitudeDegrees>19.98879614286124706268310546875</LongitudeDegrees>
            </Position>
            <AltitudeMeters>760.20001220703125</AltitudeMeters>
            <DistanceMeters>NAN</DistanceMeters>
          </Trackpoint>
          <Trackpoint>
            <Time>2022-09-18T13:13:34.000Z</Time>
            <Position>
              <LatitudeDegrees>49.32489481754601001739501953125</LatitudeDegrees>
              <LongitudeDegrees>19.98873093165457248687744140625</LongitudeDegrees>
            </Position>
            <AltitudeMeters>759.5999755859375</AltitudeMeters>
            <DistanceMeters>NAN</DistanceMeters>
          </Trackpoint>
          <Trackpoint>
            <Time>2022-09-18T13:13:40.000Z</Time>
            <Position>
              <LatitudeDegrees>49.324759952723979949951171875</LatitudeDegrees>
              <LongitudeDegrees>19.9886750243604183197021484375</LongitudeDegrees>
            </Position>
            <AltitudeMeters>760.4000244140625</AltitudeMeters>
            <DistanceMeters>NAN</DistanceMeters>
          </Trackpoint>
          <Trackpoint>
            <Time>2022-09-18T13:13:41.000Z</Time>
            <Position>
              <LatitudeDegrees>49.3247120082378387451171875</LatitudeDegrees>
              <LongitudeDegrees>19.98866354115307331085205078125</LongitudeDegrees>
            </Position>
            <AltitudeMeters>760.4000244140625</AltitudeMeters>
            <DistanceMeters>NAN</DistanceMeters>
          </Trackpoint>
          <Trackpoint>
            <Time>2022-09-18T13:13:46.000Z</Time>
            <Position>
              <LatitudeDegrees>49.32459088973701000213623046875</LatitudeDegrees>
              <LongitudeDegrees>19.9886062927544116973876953125</LongitudeDegrees>
            </Position>
            <AltitudeMeters>760.5999755859375</AltitudeMeters>
            <DistanceMeters>NAN</DistanceMeters>
          </Trackpoint>
          <Trackpoint>
            <Time>2022-09-18T13:13:50.000Z</Time>
            <Position>
              <LatitudeDegrees>49.32449676096439361572265625</LatitudeDegrees>
              <LongitudeDegrees>19.98852892778813838958740234375</LongitudeDegrees>
            </Position>
            <AltitudeMeters>761.4000244140625</AltitudeMeters>
            <DistanceMeters>NAN</DistanceMeters>
          </Trackpoint>
          <Trackpoint>
            <Time>2022-09-18T13:13:52.000Z</Time>
            <Position>
              <LatitudeDegrees>49.324476309120655059814453125</LatitudeDegrees>
              <LongitudeDegrees>19.98850009404122829437255859375</LongitudeDegrees>
            </Position>
            <AltitudeMeters>761.5999755859375</AltitudeMeters>
            <DistanceMeters>NAN</DistanceMeters>
          </Trackpoint>
          <Trackpoint>
            <Time>2022-09-18T13:14:00.000Z</Time>
            <Position>
              <LatitudeDegrees>49.32431302964687347412109375</LatitudeDegrees>
              <LongitudeDegrees>19.98824293725192546844482421875</LongitudeDegrees>
            </Position>
            <AltitudeMeters>761.20001220703125</AltitudeMeters>
            <DistanceMeters>NAN</DistanceMeters>
          </Trackpoint>
          <Trackpoint>
            <Time>2022-09-18T13:14:10.000Z</Time>
            <Position>
              <LatitudeDegrees>49.3241626583039760589599609375</LatitudeDegrees>
              <LongitudeDegrees>19.98794873245060443878173828125</LongitudeDegrees>
            </Position>
            <AltitudeMeters>761.5999755859375</AltitudeMeters>
            <DistanceMeters>NAN</DistanceMeters>
          </Trackpoint>
          <Trackpoint>
            <Time>2022-09-18T13:14:17.000Z</Time>
            <Position>
              <LatitudeDegrees>49.3240369297564029693603515625</LatitudeDegrees>
              <LongitudeDegrees>19.98771496117115020751953125</LongitudeDegrees>
            </Position>
            <AltitudeMeters>762</AltitudeMeters>
            <DistanceMeters>NAN</DistanceMeters>
          </Trackpoint>
          <Trackpoint>
            <Time>2022-09-18T13:14:18.000Z</Time>
            <Position>
              <LatitudeDegrees>49.3240369297564029693603515625</LatitudeDegrees>
              <LongitudeDegrees>19.98771496117115020751953125</LongitudeDegrees>
            </Position>
            <AltitudeMeters>762</AltitudeMeters>
            <DistanceMeters>NAN</DistanceMeters>
          </Trackpoint>
          <Trackpoint>
            <Time>2022-09-18T13:14:24.000Z</Time>
            <Position>
              <LatitudeDegrees>49.32391631416976451873779296875</LatitudeDegrees>
              <LongitudeDegrees>19.9874489195644855499267578125</LongitudeDegrees>
            </Position>
            <AltitudeMeters>761.5999755859375</AltitudeMeters>
            <DistanceMeters>NAN</DistanceMeters>
          </Trackpoint>
          <Trackpoint>
            <Time>2022-09-18T13:14:32.000Z</Time>
            <Position>
              <LatitudeDegrees>49.32379628531634807586669921875</LatitudeDegrees>
              <LongitudeDegrees>19.98723308555781841278076171875</LongitudeDegrees>
            </Position>
            <AltitudeMeters>762</AltitudeMeters>
            <DistanceMeters>NAN</DistanceMeters>
          </Trackpoint>
          <Trackpoint>
            <Time>2022-09-18T13:14:39.000Z</Time>
            <Position>
              <LatitudeDegrees>49.32370710186660289764404296875</LatitudeDegrees>
              <LongitudeDegrees>19.9870623461902141571044921875</LongitudeDegrees>
            </Position>
            <AltitudeMeters>762.20001220703125</AltitudeMeters>
            <DistanceMeters>NAN</DistanceMeters>
          </Trackpoint>
          <Trackpoint>
            <Time>2022-09-18T13:14:44.000Z</Time>
            <Position>
              <LatitudeDegrees>49.323621354997158050537109375</LatitudeDegrees>
              <LongitudeDegrees>19.9869000725448131561279296875</LongitudeDegrees>
            </Position>
            <AltitudeMeters>762.79998779296875</AltitudeMeters>
            <DistanceMeters>NAN</DistanceMeters>
          </Trackpoint>
          <Trackpoint>
            <Time>2022-09-18T13:14:48.000Z</Time>
            <Position>
              <LatitudeDegrees>49.32356142438948154449462890625</LatitudeDegrees>
              <LongitudeDegrees>19.98680778779089450836181640625</LongitudeDegrees>
            </Position>
            <AltitudeMeters>762.79998779296875</AltitudeMeters>
            <DistanceMeters>NAN</DistanceMeters>
          </Trackpoint>
          <Trackpoint>
            <Time>2022-09-18T13:14:53.000Z</Time>
            <Position>
              <LatitudeDegrees>49.3234713189303874969482421875</LatitudeDegrees>
              <LongitudeDegrees>19.98664953745901584625244140625</LongitudeDegrees>
            </Position>
            <AltitudeMeters>762.4000244140625</AltitudeMeters>
            <DistanceMeters>NAN</DistanceMeters>
          </Trackpoint>
          <Trackpoint>
            <Time>2022-09-18T13:15:01.000Z</Time>
            <Position>
              <LatitudeDegrees>49.3233130685985088348388671875</LatitudeDegrees>
              <LongitudeDegrees>19.98647083528339862823486328125</LongitudeDegrees>
            </Position>
            <AltitudeMeters>763</AltitudeMeters>
            <DistanceMeters>NAN</DistanceMeters>
          </Trackpoint>
          <Trackpoint>
            <Time>2022-09-18T13:15:03.000Z</Time>
            <Position>
              <LatitudeDegrees>49.32325867004692554473876953125</LatitudeDegrees>
              <LongitudeDegrees>19.98643177561461925506591796875</LongitudeDegrees>
            </Position>
            <AltitudeMeters>763</AltitudeMeters>
            <DistanceMeters>NAN</DistanceMeters>
          </Trackpoint>
          <Trackpoint>
            <Time>2022-09-18T13:15:09.000Z</Time>
            <Position>
              <LatitudeDegrees>49.32312305085361003875732421875</LatitudeDegrees>
              <LongitudeDegrees>19.98637293465435504913330078125</LongitudeDegrees>
            </Position>
            <AltitudeMeters>763.79998779296875</AltitudeMeters>
            <DistanceMeters>NAN</DistanceMeters>
          </Trackpoint>
          <Trackpoint>
            <Time>2022-09-18T13:15:10.000Z</Time>
            <Position>
              <LatitudeDegrees>49.3230971507728099822998046875</LatitudeDegrees>
              <LongitudeDegrees>19.98636438511312007904052734375</LongitudeDegrees>
            </Position>
            <AltitudeMeters>763.79998779296875</AltitudeMeters>
            <DistanceMeters>NAN</DistanceMeters>
          </Trackpoint>
          <Trackpoint>
            <Time>2022-09-18T13:15:16.000Z</Time>
            <Position>
              <LatitudeDegrees>49.3229444324970245361328125</LatitudeDegrees>
              <LongitudeDegrees>19.9862741120159626007080078125</LongitudeDegrees>
            </Position>
            <AltitudeMeters>764.20001220703125</AltitudeMeters>
            <DistanceMeters>NAN</DistanceMeters>
          </Trackpoint>
          <Trackpoint>
            <Time>2022-09-18T13:15:21.000Z</Time>
            <Position>
              <LatitudeDegrees>49.3228537403047084808349609375</LatitudeDegrees>
              <LongitudeDegrees>19.98626531101763248443603515625</LongitudeDegrees>
            </Position>
            <AltitudeMeters>764</AltitudeMeters>
            <DistanceMeters>NAN</DistanceMeters>
          </Trackpoint>
          <Trackpoint>
            <Time>2022-09-18T13:15:26.000Z</Time>
            <Position>
              <LatitudeDegrees>49.3228252418339252471923828125</LatitudeDegrees>
              <LongitudeDegrees>19.9862623773515224456787109375</LongitudeDegrees>
            </Position>
            <AltitudeMeters>764.4000244140625</AltitudeMeters>
            <DistanceMeters>NAN</DistanceMeters>
          </Trackpoint>
          <Trackpoint>
            <Time>2022-09-18T13:15:31.000Z</Time>
            <Position>
              <LatitudeDegrees>49.32280219160020351409912109375</LatitudeDegrees>
              <LongitudeDegrees>19.98623429797589778900146484375</LongitudeDegrees>
            </Position>
            <AltitudeMeters>764.20001220703125</AltitudeMeters>
            <DistanceMeters>NAN</DistanceMeters>
          </Trackpoint>
          <Trackpoint>
            <Time>2022-09-18T13:15:40.000Z</Time>
            <Position>
              <LatitudeDegrees>49.322782494127750396728515625</LatitudeDegrees>
              <LongitudeDegrees>19.98624871484935283660888671875</LongitudeDegrees>
            </Position>
            <AltitudeMeters>763.79998779296875</AltitudeMeters>
            <DistanceMeters>NAN</DistanceMeters>
          </Trackpoint>
          <Trackpoint>
            <Time>2022-09-18T13:15:45.000Z</Time>
            <Position>
              <LatitudeDegrees>49.322780482470989227294921875</LatitudeDegrees>
              <LongitudeDegrees>19.9862338788807392120361328125</LongitudeDegrees>
            </Position>
            <AltitudeMeters>764</AltitudeMeters>
            <DistanceMeters>NAN</DistanceMeters>
          </Trackpoint>
          <Trackpoint>
            <Time>2022-09-18T13:15:54.000Z</Time>
            <Position>
              <LatitudeDegrees>49.32279682718217372894287109375</LatitudeDegrees>
              <LongitudeDegrees>19.9861966632306575775146484375</LongitudeDegrees>
            </Position>
            <AltitudeMeters>764</AltitudeMeters>
            <DistanceMeters>NAN</DistanceMeters>
          </Trackpoint>
          <Trackpoint>
            <Time>2022-09-18T13:16:00.000Z</Time>
            <Position>
              <LatitudeDegrees>49.32282666675746440887451171875</LatitudeDegrees>
              <LongitudeDegrees>19.9862241558730602264404296875</LongitudeDegrees>
            </Position>
            <AltitudeMeters>764.4000244140625</AltitudeMeters>
            <DistanceMeters>NAN</DistanceMeters>
          </Trackpoint>
          <Trackpoint>
            <Time>2022-09-18T13:16:04.000Z</Time>
            <Position>
              <LatitudeDegrees>49.32287595234811305999755859375</LatitudeDegrees>
              <LongitudeDegrees>19.986245445907115936279296875</LongitudeDegrees>
            </Position>
            <AltitudeMeters>764.4000244140625</AltitudeMeters>
            <DistanceMeters>NAN</DistanceMeters>
          </Trackpoint>
          <Trackpoint>
            <Time>2022-09-18T13:16:07.000Z</Time>
            <Position>
              <LatitudeDegrees>49.32292071171104907989501953125</LatitudeDegrees>
              <LongitudeDegrees>19.98622474260628223419189453125</LongitudeDegrees>
            </Position>
            <AltitudeMeters>764.4000244140625</AltitudeMeters>
            <DistanceMeters>NAN</DistanceMeters>
          </Trackpoint>
          <Trackpoint>
            <Time>2022-09-18T13:16:14.000Z</Time>
            <Position>
              <LatitudeDegrees>49.32302498258650302886962890625</LatitudeDegrees>
              <LongitudeDegrees>19.98607344925403594970703125</LongitudeDegrees>
            </Position>
            <AltitudeMeters>763.4000244140625</AltitudeMeters>
            <DistanceMeters>NAN</DistanceMeters>
          </Trackpoint>
          <Trackpoint>
            <Time>2022-09-18T13:16:17.000Z</Time>
            <Position>
              <LatitudeDegrees>49.32306907139718532562255859375</LatitudeDegrees>
              <LongitudeDegrees>19.98598049394786357879638671875</LongitudeDegrees>
            </Position>
            <AltitudeMeters>762.79998779296875</AltitudeMeters>
            <DistanceMeters>NAN</DistanceMeters>
          </Trackpoint>
          <Trackpoint>
            <Time>2022-09-18T13:16:20.000Z</Time>
            <Position>
              <LatitudeDegrees>49.3231134116649627685546875</LatitudeDegrees>
              <LongitudeDegrees>19.98583548702299594879150390625</LongitudeDegrees>
            </Position>
            <AltitudeMeters>762.5999755859375</AltitudeMeters>
            <DistanceMeters>NAN</DistanceMeters>
          </Trackpoint>
          <Trackpoint>
            <Time>2022-09-18T13:16:24.000Z</Time>
            <Position>
              <LatitudeDegrees>49.32314970530569553375244140625</LatitudeDegrees>
              <LongitudeDegrees>19.98569349758327007293701171875</LongitudeDegrees>
            </Position>
            <AltitudeMeters>762.4000244140625</AltitudeMeters>
            <DistanceMeters>NAN</DistanceMeters>
          </Trackpoint>
          <Trackpoint>
            <Time>2022-09-18T13:16:27.000Z</Time>
            <Position>
              <LatitudeDegrees>49.32317384518682956695556640625</LatitudeDegrees>
              <LongitudeDegrees>19.985593669116497039794921875</LongitudeDegrees>
            </Position>
            <AltitudeMeters>761.79998779296875</AltitudeMeters>
            <DistanceMeters>NAN</DistanceMeters>
          </Trackpoint>
          <Trackpoint>
            <Time>2022-09-18T13:16:28.000Z</Time>
            <Position>
              <LatitudeDegrees>49.32317384518682956695556640625</LatitudeDegrees>
              <LongitudeDegrees>19.985593669116497039794921875</LongitudeDegrees>
            </Position>
            <AltitudeMeters>761.5999755859375</AltitudeMeters>
            <DistanceMeters>NAN</DistanceMeters>
          </Trackpoint>
          <Trackpoint>
            <Time>2022-09-18T13:16:31.000Z</Time>
            <Position>
              <LatitudeDegrees>49.32316445745527744293212890625</LatitudeDegrees>
              <LongitudeDegrees>19.98547540046274662017822265625</LongitudeDegrees>
            </Position>
            <AltitudeMeters>760.79998779296875</AltitudeMeters>
            <DistanceMeters>NAN</DistanceMeters>
          </Trackpoint>
          <Trackpoint>
            <Time>2022-09-18T13:16:34.000Z</Time>
            <Position>
              <LatitudeDegrees>49.3231568299233913421630859375</LatitudeDegrees>
              <LongitudeDegrees>19.9853977002203464508056640625</LongitudeDegrees>
            </Position>
            <AltitudeMeters>761.4000244140625</AltitudeMeters>
            <DistanceMeters>NAN</DistanceMeters>
          </Trackpoint>
          <Trackpoint>
            <Time>2022-09-18T13:16:39.000Z</Time>
            <Position>
              <LatitudeDegrees>49.323109053075313568115234375</LatitudeDegrees>
              <LongitudeDegrees>19.985206425189971923828125</LongitudeDegrees>
            </Position>
            <AltitudeMeters>762.79998779296875</AltitudeMeters>
            <DistanceMeters>NAN</DistanceMeters>
          </Trackpoint>
          <Trackpoint>
            <Time>2022-09-18T13:16:44.000Z</Time>
            <Position>
              <LatitudeDegrees>49.32304208166897296905517578125</LatitudeDegrees>
              <LongitudeDegrees>19.98494465835392475128173828125</LongitudeDegrees>
            </Position>
            <AltitudeMeters>763.79998779296875</AltitudeMeters>
            <DistanceMeters>NAN</DistanceMeters>
          </Trackpoint>
          <Trackpoint>
            <Time>2022-09-18T13:16:47.000Z</Time>
            <Position>
              <LatitudeDegrees>49.322982989251613616943359375</LatitudeDegrees>
              <LongitudeDegrees>19.98479629866778850555419921875</LongitudeDegrees>
            </Position>
            <AltitudeMeters>764.20001220703125</AltitudeMeters>
            <DistanceMeters>NAN</DistanceMeters>
          </Trackpoint>
          <Trackpoint>
            <Time>2022-09-18T13:16:49.000Z</Time>
            <Position>
              <LatitudeDegrees>49.32294753380119800567626953125</LatitudeDegrees>
              <LongitudeDegrees>19.98471264727413654327392578125</LongitudeDegrees>
            </Position>
            <AltitudeMeters>764.79998779296875</AltitudeMeters>
            <DistanceMeters>NAN</DistanceMeters>
          </Trackpoint>
          <Trackpoint>
            <Time>2022-09-18T13:16:51.000Z</Time>
            <Position>
              <LatitudeDegrees>49.32292825542390346527099609375</LatitudeDegrees>
              <LongitudeDegrees>19.98468213714659214019775390625</LongitudeDegrees>
            </Position>
            <AltitudeMeters>766</AltitudeMeters>
            <DistanceMeters>NAN</DistanceMeters>
          </Trackpoint>
          <Trackpoint>
            <Time>2022-09-18T13:16:52.000Z</Time>
            <Position>
              <LatitudeDegrees>49.32290998287498950958251953125</LatitudeDegrees>
              <LongitudeDegrees>19.98465447686612606048583984375</LongitudeDegrees>
            </Position>
            <AltitudeMeters>766.5999755859375</AltitudeMeters>
            <DistanceMeters>NAN</DistanceMeters>
          </Trackpoint>
          <Trackpoint>
            <Time>2022-09-18T13:16:53.000Z</Time>
            <Position>
              <LatitudeDegrees>49.32288165204226970672607421875</LatitudeDegrees>
              <LongitudeDegrees>19.984607286751270294189453125</LongitudeDegrees>
            </Position>
            <AltitudeMeters>767.20001220703125</AltitudeMeters>
            <DistanceMeters>NAN</DistanceMeters>
          </Trackpoint>
          <Trackpoint>
            <Time>2022-09-18T13:16:54.000Z</Time>
            <Position>
              <LatitudeDegrees>49.322862289845943450927734375</LatitudeDegrees>
              <LongitudeDegrees>19.98458390124142169952392578125</LongitudeDegrees>
            </Position>
            <AltitudeMeters>767.5999755859375</AltitudeMeters>
            <DistanceMeters>NAN</DistanceMeters>
          </Trackpoint>
          <Trackpoint>
            <Time>2022-09-18T13:16:56.000Z</Time>
            <Position>
              <LatitudeDegrees>49.32284896261990070343017578125</LatitudeDegrees>
              <LongitudeDegrees>19.98457233421504497528076171875</LongitudeDegrees>
            </Position>
            <AltitudeMeters>768</AltitudeMeters>
            <DistanceMeters>NAN</DistanceMeters>
          </Trackpoint>
          <Trackpoint>
            <Time>2022-09-18T13:16:58.000Z</Time>
            <Position>
              <LatitudeDegrees>49.3228007666766643524169921875</LatitudeDegrees>
              <LongitudeDegrees>19.98453654348850250244140625</LongitudeDegrees>
            </Position>
            <AltitudeMeters>768.20001220703125</AltitudeMeters>
            <DistanceMeters>NAN</DistanceMeters>
          </Trackpoint>
          <Trackpoint>
            <Time>2022-09-18T13:17:02.000Z</Time>
            <Position>
              <LatitudeDegrees>49.32273949496448040008544921875</LatitudeDegrees>
              <LongitudeDegrees>19.9845072068274021148681640625</LongitudeDegrees>
            </Position>
            <AltitudeMeters>768.79998779296875</AltitudeMeters>
            <DistanceMeters>NAN</DistanceMeters>
          </Trackpoint>
          <Trackpoint>
            <Time>2022-09-18T13:17:06.000Z</Time>
            <Position>
              <LatitudeDegrees>49.32266489602625370025634765625</LatitudeDegrees>
              <LongitudeDegrees>19.98445129953324794769287109375</LongitudeDegrees>
            </Position>
            <AltitudeMeters>769.4000244140625</AltitudeMeters>
            <DistanceMeters>NAN</DistanceMeters>
          </Trackpoint>
          <Trackpoint>
            <Time>2022-09-18T13:17:11.000Z</Time>
            <Position>
              <LatitudeDegrees>49.32255744002759456634521484375</LatitudeDegrees>
              <LongitudeDegrees>19.98438072390854358673095703125</LongitudeDegrees>
            </Position>
            <AltitudeMeters>769.4000244140625</AltitudeMeters>
            <DistanceMeters>NAN</DistanceMeters>
          </Trackpoint>
          <Trackpoint>
            <Time>2022-09-18T13:17:20.000Z</Time>
            <Position>
              <LatitudeDegrees>49.32238913141191005706787109375</LatitudeDegrees>
              <LongitudeDegrees>19.98428718186914920806884765625</LongitudeDegrees>
            </Position>
            <AltitudeMeters>769.20001220703125</AltitudeMeters>
            <DistanceMeters>NAN</DistanceMeters>
          </Trackpoint>
          <Trackpoint>
            <Time>2022-09-18T13:17:27.000Z</Time>
            <Position>
              <LatitudeDegrees>49.322235323488712310791015625</LatitudeDegrees>
              <LongitudeDegrees>19.98420663177967071533203125</LongitudeDegrees>
            </Position>
            <AltitudeMeters>769.4000244140625</AltitudeMeters>
            <DistanceMeters>NAN</DistanceMeters>
          </Trackpoint>
          <Trackpoint>
            <Time>2022-09-18T13:17:33.000Z</Time>
            <Position>
              <LatitudeDegrees>49.32212166488170623779296875</LatitudeDegrees>
              <LongitudeDegrees>19.9841585196554660797119140625</LongitudeDegrees>
            </Position>
            <AltitudeMeters>769.79998779296875</AltitudeMeters>
            <DistanceMeters>NAN</DistanceMeters>
          </Trackpoint>
          <Trackpoint>
            <Time>2022-09-18T13:17:40.000Z</Time>
            <Position>
              <LatitudeDegrees>49.32197439484298229217529296875</LatitudeDegrees>
              <LongitudeDegrees>19.98407545499503612518310546875</LongitudeDegrees>
            </Position>
            <AltitudeMeters>770</AltitudeMeters>
            <DistanceMeters>NAN</DistanceMeters>
          </Trackpoint>
          <Trackpoint>
            <Time>2022-09-18T13:17:50.000Z</Time>
            <Position>
              <LatitudeDegrees>49.32182955555617809295654296875</LatitudeDegrees>
              <LongitudeDegrees>19.98387278057634830474853515625</LongitudeDegrees>
            </Position>
            <AltitudeMeters>770</AltitudeMeters>
            <DistanceMeters>NAN</DistanceMeters>
          </Trackpoint>
          <Trackpoint>
            <Time>2022-09-18T13:17:56.000Z</Time>
            <Position>
              <LatitudeDegrees>49.32173500768840312957763671875</LatitudeDegrees>
              <LongitudeDegrees>19.98369634151458740234375</LongitudeDegrees>
            </Position>
            <AltitudeMeters>769.4000244140625</AltitudeMeters>
            <DistanceMeters>NAN</DistanceMeters>
          </Trackpoint>
          <Trackpoint>
            <Time>2022-09-18T13:18:00.000Z</Time>
            <Position>
              <LatitudeDegrees>49.32166971266269683837890625</LatitudeDegrees>
              <LongitudeDegrees>19.983606822788715362548828125</LongitudeDegrees>
            </Position>
            <AltitudeMeters>769.5999755859375</AltitudeMeters>
            <DistanceMeters>NAN</DistanceMeters>
          </Trackpoint>
          <Trackpoint>
            <Time>2022-09-18T13:18:03.000Z</Time>
            <Position>
              <LatitudeDegrees>49.32164213620126247406005859375</LatitudeDegrees>
              <LongitudeDegrees>19.98357522301375865936279296875</LongitudeDegrees>
            </Position>
            <AltitudeMeters>769.5999755859375</AltitudeMeters>
            <DistanceMeters>NAN</DistanceMeters>
          </Trackpoint>
          <Trackpoint>
            <Time>2022-09-18T13:18:06.000Z</Time>
            <Position>
              <LatitudeDegrees>49.32157055474817752838134765625</LatitudeDegrees>
              <LongitudeDegrees>19.98347631655633449554443359375</LongitudeDegrees>
            </Position>
            <AltitudeMeters>769.5999755859375</AltitudeMeters>
            <DistanceMeters>NAN</DistanceMeters>
          </Trackpoint>
          <Trackpoint>
            <Time>2022-09-18T13:18:10.000Z</Time>
            <Position>
              <LatitudeDegrees>49.32150584645569324493408203125</LatitudeDegrees>
              <LongitudeDegrees>19.98338093049824237823486328125</LongitudeDegrees>
            </Position>
            <AltitudeMeters>769.5999755859375</AltitudeMeters>
            <DistanceMeters>NAN</DistanceMeters>
          </Trackpoint>
          <Trackpoint>
            <Time>2022-09-18T13:18:18.000Z</Time>
            <Position>
              <LatitudeDegrees>49.32136469520628452301025390625</LatitudeDegrees>
              <LongitudeDegrees>19.98320189304649829864501953125</LongitudeDegrees>
            </Position>
            <AltitudeMeters>769.5999755859375</AltitudeMeters>
            <DistanceMeters>NAN</DistanceMeters>
          </Trackpoint>
          <Trackpoint>
            <Time>2022-09-18T13:18:23.000Z</Time>
            <Position>
              <LatitudeDegrees>49.3212216161191463470458984375</LatitudeDegrees>
              <LongitudeDegrees>19.9830091930925846099853515625</LongitudeDegrees>
            </Position>
            <AltitudeMeters>770.4000244140625</AltitudeMeters>
            <DistanceMeters>NAN</DistanceMeters>
          </Trackpoint>
          <Trackpoint>
            <Time>2022-09-18T13:18:26.000Z</Time>
            <Position>
              <LatitudeDegrees>49.3211634457111358642578125</LatitudeDegrees>
              <LongitudeDegrees>19.98293233104050159454345703125</LongitudeDegrees>
            </Position>
            <AltitudeMeters>771</AltitudeMeters>
            <DistanceMeters>NAN</DistanceMeters>
          </Trackpoint>
          <Trackpoint>
            <Time>2022-09-18T13:18:31.000Z</Time>
            <Position>
              <LatitudeDegrees>49.321124888956546783447265625</LatitudeDegrees>
              <LongitudeDegrees>19.98282906599342823028564453125</LongitudeDegrees>
            </Position>
            <AltitudeMeters>771</AltitudeMeters>
            <DistanceMeters>NAN</DistanceMeters>
          </Trackpoint>
          <Trackpoint>
            <Time>2022-09-18T13:18:33.000Z</Time>
            <Position>
              <LatitudeDegrees>49.32111592032015323638916015625</LatitudeDegrees>
              <LongitudeDegrees>19.9828154034912586212158203125</LongitudeDegrees>
            </Position>
            <AltitudeMeters>771</AltitudeMeters>
            <DistanceMeters>NAN</DistanceMeters>
          </Trackpoint>
          <Trackpoint>
            <Time>2022-09-18T13:18:36.000Z</Time>
            <Position>
              <LatitudeDegrees>49.3211109749972820281982421875</LatitudeDegrees>
              <LongitudeDegrees>19.98280157335102558135986328125</LongitudeDegrees>
            </Position>
            <AltitudeMeters>771.4000244140625</AltitudeMeters>
            <DistanceMeters>NAN</DistanceMeters>
          </Trackpoint>
          <Trackpoint>
            <Time>2022-09-18T13:18:42.000Z</Time>
            <Position>
              <LatitudeDegrees>49.32110317982733249664306640625</LatitudeDegrees>
              <LongitudeDegrees>19.98280039988458156585693359375</LongitudeDegrees>
            </Position>
            <AltitudeMeters>772</AltitudeMeters>
            <DistanceMeters>NAN</DistanceMeters>
          </Trackpoint>
          <Trackpoint>
            <Time>2022-09-18T13:18:48.000Z</Time>
            <Position>
              <LatitudeDegrees>49.3210985697805881500244140625</LatitudeDegrees>
              <LongitudeDegrees>19.98280073516070842742919921875</LongitudeDegrees>
            </Position>
            <AltitudeMeters>771.79998779296875</AltitudeMeters>
            <DistanceMeters>NAN</DistanceMeters>
          </Trackpoint>
          <Trackpoint>
            <Time>2022-09-18T13:18:51.000Z</Time>
            <Position>
              <LatitudeDegrees>49.3210985697805881500244140625</LatitudeDegrees>
              <LongitudeDegrees>19.98280073516070842742919921875</LongitudeDegrees>
            </Position>
            <AltitudeMeters>771.79998779296875</AltitudeMeters>
            <DistanceMeters>NAN</DistanceMeters>
          </Trackpoint>
          <Trackpoint>
            <Time>2022-09-18T13:18:53.000Z</Time>
            <Position>
              <LatitudeDegrees>49.3210985697805881500244140625</LatitudeDegrees>
              <LongitudeDegrees>19.98280073516070842742919921875</LongitudeDegrees>
            </Position>
            <AltitudeMeters>771.79998779296875</AltitudeMeters>
            <DistanceMeters>NAN</DistanceMeters>
          </Trackpoint>
          <Trackpoint>
            <Time>2022-09-18T13:18:56.000Z</Time>
            <Position>
              <LatitudeDegrees>49.32108859531581401824951171875</LatitudeDegrees>
              <LongitudeDegrees>19.9828003160655498504638671875</LongitudeDegrees>
            </Position>
            <AltitudeMeters>772</AltitudeMeters>
            <DistanceMeters>NAN</DistanceMeters>
          </Trackpoint>
          <Trackpoint>
            <Time>2022-09-18T13:19:02.000Z</Time>
            <Position>
              <LatitudeDegrees>49.32100812904536724090576171875</LatitudeDegrees>
              <LongitudeDegrees>19.98271909542381763458251953125</LongitudeDegrees>
            </Position>
            <AltitudeMeters>772</AltitudeMeters>
            <DistanceMeters>NAN</DistanceMeters>
          </Trackpoint>
          <Trackpoint>
            <Time>2022-09-18T13:19:09.000Z</Time>
            <Position>
              <LatitudeDegrees>49.32087569497525691986083984375</LatitudeDegrees>
              <LongitudeDegrees>19.982493035495281219482421875</LongitudeDegrees>
            </Position>
            <AltitudeMeters>771.4000244140625</AltitudeMeters>
            <DistanceMeters>NAN</DistanceMeters>
          </Trackpoint>
          <Trackpoint>
            <Time>2022-09-18T13:19:10.000Z</Time>
            <Position>
              <LatitudeDegrees>49.320862032473087310791015625</LatitudeDegrees>
              <LongitudeDegrees>19.98246227391064167022705078125</LongitudeDegrees>
            </Position>
            <AltitudeMeters>771.4000244140625</AltitudeMeters>
            <DistanceMeters>NAN</DistanceMeters>
          </Trackpoint>
          <Trackpoint>
            <Time>2022-09-18T13:19:17.000Z</Time>
            <Position>
              <LatitudeDegrees>49.32073404081165790557861328125</LatitudeDegrees>
              <LongitudeDegrees>19.9822595156729221343994140625</LongitudeDegrees>
            </Position>
            <AltitudeMeters>771.79998779296875</AltitudeMeters>
            <DistanceMeters>NAN</DistanceMeters>
          </Trackpoint>
          <Trackpoint>
            <Time>2022-09-18T13:19:20.000Z</Time>
            <Position>
              <LatitudeDegrees>49.32067268528044223785400390625</LatitudeDegrees>
              <LongitudeDegrees>19.98214057646691799163818359375</LongitudeDegrees>
            </Position>
            <AltitudeMeters>772</AltitudeMeters>
            <DistanceMeters>NAN</DistanceMeters>
          </Trackpoint>
          <Trackpoint>
            <Time>2022-09-18T13:19:24.000Z</Time>
            <Position>
              <LatitudeDegrees>49.32059003971517086029052734375</LatitudeDegrees>
              <LongitudeDegrees>19.98196874745190143585205078125</LongitudeDegrees>
            </Position>
            <AltitudeMeters>772</AltitudeMeters>
            <DistanceMeters>NAN</DistanceMeters>
          </Trackpoint>
          <Trackpoint>
            <Time>2022-09-18T13:19:30.000Z</Time>
            <Position>
              <LatitudeDegrees>49.3204759620130062103271484375</LatitudeDegrees>
              <LongitudeDegrees>19.98177529312670230865478515625</LongitudeDegrees>
            </Position>
            <AltitudeMeters>772</AltitudeMeters>
            <DistanceMeters>NAN</DistanceMeters>
          </Trackpoint>
          <Trackpoint>
            <Time>2022-09-18T13:19:41.000Z</Time>
            <Position>
              <LatitudeDegrees>49.320292733609676361083984375</LatitudeDegrees>
              <LongitudeDegrees>19.981398023664951324462890625</LongitudeDegrees>
            </Position>
            <AltitudeMeters>772.4000244140625</AltitudeMeters>
            <DistanceMeters>NAN</DistanceMeters>
          </Trackpoint>
          <Trackpoint>
            <Time>2022-09-18T13:19:42.000Z</Time>
            <Position>
              <LatitudeDegrees>49.320292733609676361083984375</LatitudeDegrees>
              <LongitudeDegrees>19.981398023664951324462890625</LongitudeDegrees>
            </Position>
            <AltitudeMeters>772.4000244140625</AltitudeMeters>
            <DistanceMeters>NAN</DistanceMeters>
          </Trackpoint>
          <Trackpoint>
            <Time>2022-09-18T13:19:51.000Z</Time>
            <Position>
              <LatitudeDegrees>49.32011528871953487396240234375</LatitudeDegrees>
              <LongitudeDegrees>19.98107490129768848419189453125</LongitudeDegrees>
            </Position>
            <AltitudeMeters>772.20001220703125</AltitudeMeters>
            <DistanceMeters>NAN</DistanceMeters>
          </Trackpoint>
          <Trackpoint>
            <Time>2022-09-18T13:19:59.000Z</Time>
            <Position>
              <LatitudeDegrees>49.31997187435626983642578125</LatitudeDegrees>
              <LongitudeDegrees>19.9808389507234096527099609375</LongitudeDegrees>
            </Position>
            <AltitudeMeters>773</AltitudeMeters>
            <DistanceMeters>NAN</DistanceMeters>
          </Trackpoint>
          <Trackpoint>
            <Time>2022-09-18T13:20:01.000Z</Time>
            <Position>
              <LatitudeDegrees>49.31991009972989559173583984375</LatitudeDegrees>
              <LongitudeDegrees>19.98073794879019260406494140625</LongitudeDegrees>
            </Position>
            <AltitudeMeters>772.79998779296875</AltitudeMeters>
            <DistanceMeters>NAN</DistanceMeters>
          </Trackpoint>
          <Trackpoint>
            <Time>2022-09-18T13:20:07.000Z</Time>
            <Position>
              <LatitudeDegrees>49.31982544250786304473876953125</LatitudeDegrees>
              <LongitudeDegrees>19.98059998266398906707763671875</LongitudeDegrees>
            </Position>
            <AltitudeMeters>773.5999755859375</AltitudeMeters>
            <DistanceMeters>NAN</DistanceMeters>
          </Trackpoint>
          <Trackpoint>
            <Time>2022-09-18T13:20:08.000Z</Time>
            <Position>
              <LatitudeDegrees>49.3197849579155445098876953125</LatitudeDegrees>
              <LongitudeDegrees>19.9805569835007190704345703125</LongitudeDegrees>
            </Position>
            <AltitudeMeters>773.79998779296875</AltitudeMeters>
            <DistanceMeters>NAN</DistanceMeters>
          </Trackpoint>
          <Trackpoint>
            <Time>2022-09-18T13:20:11.000Z</Time>
            <Position>
              <LatitudeDegrees>49.31973391212522983551025390625</LatitudeDegrees>
              <LongitudeDegrees>19.98052789829671382904052734375</LongitudeDegrees>
            </Position>
            <AltitudeMeters>774</AltitudeMeters>
            <DistanceMeters>NAN</DistanceMeters>
          </Trackpoint>
          <Trackpoint>
            <Time>2022-09-18T13:20:12.000Z</Time>
            <Position>
              <LatitudeDegrees>49.31971463374793529510498046875</LatitudeDegrees>
              <LongitudeDegrees>19.98049470596015453338623046875</LongitudeDegrees>
            </Position>
            <AltitudeMeters>774</AltitudeMeters>
            <DistanceMeters>NAN</DistanceMeters>
          </Trackpoint>
          <Trackpoint>
            <Time>2022-09-18T13:20:16.000Z</Time>
            <Position>
              <LatitudeDegrees>49.3196265399456024169921875</LatitudeDegrees>
              <LongitudeDegrees>19.98030359856784343719482421875</LongitudeDegrees>
            </Position>
            <AltitudeMeters>773.5999755859375</AltitudeMeters>
            <DistanceMeters>NAN</DistanceMeters>
          </Trackpoint>
          <Trackpoint>
            <Time>2022-09-18T13:20:27.000Z</Time>
            <Position>
              <LatitudeDegrees>49.3193856440484523773193359375</LatitudeDegrees>
              <LongitudeDegrees>19.9799404107034206390380859375</LongitudeDegrees>
            </Position>
            <AltitudeMeters>774.20001220703125</AltitudeMeters>
            <DistanceMeters>NAN</DistanceMeters>
          </Trackpoint>
          <Trackpoint>
            <Time>2022-09-18T13:20:35.000Z</Time>
            <Position>
              <LatitudeDegrees>49.3192188441753387451171875</LatitudeDegrees>
              <LongitudeDegrees>19.9796916358172893524169921875</LongitudeDegrees>
            </Position>
            <AltitudeMeters>773.79998779296875</AltitudeMeters>
            <DistanceMeters>NAN</DistanceMeters>
          </Trackpoint>
          <Trackpoint>
            <Time>2022-09-18T13:20:42.000Z</Time>
            <Position>
              <LatitudeDegrees>49.31907626800239086151123046875</LatitudeDegrees>
              <LongitudeDegrees>19.97947295196354389190673828125</LongitudeDegrees>
            </Position>
            <AltitudeMeters>773.4000244140625</AltitudeMeters>
            <DistanceMeters>NAN</DistanceMeters>
          </Trackpoint>
          <Trackpoint>
            <Time>2022-09-18T13:20:46.000Z</Time>
            <Position>
              <LatitudeDegrees>49.3190111406147480010986328125</LatitudeDegrees>
              <LongitudeDegrees>19.97937840409576892852783203125</LongitudeDegrees>
            </Position>
            <AltitudeMeters>774.5999755859375</AltitudeMeters>
            <DistanceMeters>NAN</DistanceMeters>
          </Trackpoint>
          <Trackpoint>
            <Time>2022-09-18T13:20:50.000Z</Time>
            <Position>
              <LatitudeDegrees>49.31892204098403453826904296875</LatitudeDegrees>
              <LongitudeDegrees>19.97927631251513957977294921875</LongitudeDegrees>
            </Position>
            <AltitudeMeters>774.79998779296875</AltitudeMeters>
            <DistanceMeters>NAN</DistanceMeters>
          </Trackpoint>
          <Trackpoint>
            <Time>2022-09-18T13:21:00.000Z</Time>
            <Position>
              <LatitudeDegrees>49.3186919577419757843017578125</LatitudeDegrees>
              <LongitudeDegrees>19.9789895676076412200927734375</LongitudeDegrees>
            </Position>
            <AltitudeMeters>774.5999755859375</AltitudeMeters>
            <DistanceMeters>NAN</DistanceMeters>
          </Trackpoint>
          <Trackpoint>
            <Time>2022-09-18T13:21:05.000Z</Time>
            <Position>
              <LatitudeDegrees>49.31862649507820606231689453125</LatitudeDegrees>
              <LongitudeDegrees>19.97888353653252124786376953125</LongitudeDegrees>
            </Position>
            <AltitudeMeters>774.5999755859375</AltitudeMeters>
            <DistanceMeters>NAN</DistanceMeters>
          </Trackpoint>
          <Trackpoint>
            <Time>2022-09-18T13:21:13.000Z</Time>
            <Position>
              <LatitudeDegrees>49.31845030747354030609130859375</LatitudeDegrees>
              <LongitudeDegrees>19.9786747433245182037353515625</LongitudeDegrees>
            </Position>
            <AltitudeMeters>775</AltitudeMeters>
            <DistanceMeters>NAN</DistanceMeters>
          </Trackpoint>
          <Trackpoint>
            <Time>2022-09-18T13:21:19.000Z</Time>
            <Position>
              <LatitudeDegrees>49.31831561028957366943359375</LatitudeDegrees>
              <LongitudeDegrees>19.9785067699849605560302734375</LongitudeDegrees>
            </Position>
            <AltitudeMeters>775</AltitudeMeters>
            <DistanceMeters>NAN</DistanceMeters>
          </Trackpoint>
          <Trackpoint>
            <Time>2022-09-18T13:21:28.000Z</Time>
            <Position>
              <LatitudeDegrees>49.31812542490661144256591796875</LatitudeDegrees>
              <LongitudeDegrees>19.97830434702336788177490234375</LongitudeDegrees>
            </Position>
            <AltitudeMeters>775.5999755859375</AltitudeMeters>
            <DistanceMeters>NAN</DistanceMeters>
          </Trackpoint>
          <Trackpoint>
            <Time>2022-09-18T13:21:37.000Z</Time>
            <Position>
              <LatitudeDegrees>49.31786139495670795440673828125</LatitudeDegrees>
              <LongitudeDegrees>19.97806437313556671142578125</LongitudeDegrees>
            </Position>
            <AltitudeMeters>776</AltitudeMeters>
            <DistanceMeters>NAN</DistanceMeters>
          </Trackpoint>
          <Trackpoint>
            <Time>2022-09-18T13:21:46.000Z</Time>
            <Position>
              <LatitudeDegrees>49.317629635334014892578125</LatitudeDegrees>
              <LongitudeDegrees>19.97783864848315715789794921875</LongitudeDegrees>
            </Position>
            <AltitudeMeters>776</AltitudeMeters>
            <DistanceMeters>NAN</DistanceMeters>
          </Trackpoint>
          <Trackpoint>
            <Time>2022-09-18T13:21:50.000Z</Time>
            <Position>
              <LatitudeDegrees>49.3175573833286762237548828125</LatitudeDegrees>
              <LongitudeDegrees>19.97775868512690067291259765625</LongitudeDegrees>
            </Position>
            <AltitudeMeters>776.5999755859375</AltitudeMeters>
            <DistanceMeters>NAN</DistanceMeters>
          </Trackpoint>
          <Trackpoint>
            <Time>2022-09-18T13:21:51.000Z</Time>
            <Position>
              <LatitudeDegrees>49.3175104446709156036376953125</LatitudeDegrees>
              <LongitudeDegrees>19.977708645164966583251953125</LongitudeDegrees>
            </Position>
            <AltitudeMeters>776.79998779296875</AltitudeMeters>
            <DistanceMeters>NAN</DistanceMeters>
          </Trackpoint>
          <Trackpoint>
            <Time>2022-09-18T13:21:58.000Z</Time>
            <Position>
              <LatitudeDegrees>49.31732528842985630035400390625</LatitudeDegrees>
              <LongitudeDegrees>19.9775366485118865966796875</LongitudeDegrees>
            </Position>
            <AltitudeMeters>777.5999755859375</AltitudeMeters>
            <DistanceMeters>NAN</DistanceMeters>
          </Trackpoint>
          <Trackpoint>
            <Time>2022-09-18T13:22:06.000Z</Time>
            <Position>
              <LatitudeDegrees>49.31712311692535877227783203125</LatitudeDegrees>
              <LongitudeDegrees>19.977406896650791168212890625</LongitudeDegrees>
            </Position>
            <AltitudeMeters>777.5999755859375</AltitudeMeters>
            <DistanceMeters>NAN</DistanceMeters>
          </Trackpoint>
          <Trackpoint>
            <Time>2022-09-18T13:22:15.000Z</Time>
            <Position>
              <LatitudeDegrees>49.31693418882787227630615234375</LatitudeDegrees>
              <LongitudeDegrees>19.9772672541439533233642578125</LongitudeDegrees>
            </Position>
            <AltitudeMeters>777.5999755859375</AltitudeMeters>
            <DistanceMeters>NAN</DistanceMeters>
          </Trackpoint>
          <Trackpoint>
            <Time>2022-09-18T13:22:23.000Z</Time>
            <Position>
              <LatitudeDegrees>49.316816590726375579833984375</LatitudeDegrees>
              <LongitudeDegrees>19.97721855528652667999267578125</LongitudeDegrees>
            </Position>
            <AltitudeMeters>777.5999755859375</AltitudeMeters>
            <DistanceMeters>NAN</DistanceMeters>
          </Trackpoint>
          <Trackpoint>
            <Time>2022-09-18T13:22:30.000Z</Time>
            <Position>
              <LatitudeDegrees>49.31671609170734882354736328125</LatitudeDegrees>
              <LongitudeDegrees>19.9771318025887012481689453125</LongitudeDegrees>
            </Position>
            <AltitudeMeters>776.79998779296875</AltitudeMeters>
            <DistanceMeters>NAN</DistanceMeters>
          </Trackpoint>
          <Trackpoint>
            <Time>2022-09-18T13:22:31.000Z</Time>
            <Position>
              <LatitudeDegrees>49.31671609170734882354736328125</LatitudeDegrees>
              <LongitudeDegrees>19.9771318025887012481689453125</LongitudeDegrees>
            </Position>
            <AltitudeMeters>776.5999755859375</AltitudeMeters>
            <DistanceMeters>NAN</DistanceMeters>
          </Trackpoint>
          <Trackpoint>
            <Time>2022-09-18T13:22:34.000Z</Time>
            <Position>
              <LatitudeDegrees>49.31666873395442962646484375</LatitudeDegrees>
              <LongitudeDegrees>19.977099113166332244873046875</LongitudeDegrees>
            </Position>
            <AltitudeMeters>775.5999755859375</AltitudeMeters>
            <DistanceMeters>NAN</DistanceMeters>
          </Trackpoint>
          <Trackpoint>
            <Time>2022-09-18T13:22:37.000Z</Time>
            <Position>
              <LatitudeDegrees>49.3166005052626132965087890625</LatitudeDegrees>
              <LongitudeDegrees>19.97707287780940532684326171875</LongitudeDegrees>
            </Position>
            <AltitudeMeters>774.79998779296875</AltitudeMeters>
            <DistanceMeters>NAN</DistanceMeters>
          </Trackpoint>
          <Trackpoint>
            <Time>2022-09-18T13:22:39.000Z</Time>
            <Position>
              <LatitudeDegrees>49.3165730126202106475830078125</LatitudeDegrees>
              <LongitudeDegrees>19.977068938314914703369140625</LongitudeDegrees>
            </Position>
            <AltitudeMeters>774.4000244140625</AltitudeMeters>
            <DistanceMeters>NAN</DistanceMeters>
          </Trackpoint>
          <Trackpoint>
            <Time>2022-09-18T13:22:42.000Z</Time>
            <Position>
              <LatitudeDegrees>49.31651593185961246490478515625</LatitudeDegrees>
              <LongitudeDegrees>19.97709768824279308319091796875</LongitudeDegrees>
            </Position>
            <AltitudeMeters>774.20001220703125</AltitudeMeters>
            <DistanceMeters>NAN</DistanceMeters>
          </Trackpoint>
          <Trackpoint>
            <Time>2022-09-18T13:22:43.000Z</Time>
            <Position>
              <LatitudeDegrees>49.3164948932826519012451171875</LatitudeDegrees>
              <LongitudeDegrees>19.977127946913242340087890625</LongitudeDegrees>
            </Position>
            <AltitudeMeters>774</AltitudeMeters>
            <DistanceMeters>NAN</DistanceMeters>
          </Trackpoint>
          <Trackpoint>
            <Time>2022-09-18T13:22:47.000Z</Time>
            <Position>
              <LatitudeDegrees>49.3164254911243915557861328125</LatitudeDegrees>
              <LongitudeDegrees>19.9773381650447845458984375</LongitudeDegrees>
            </Position>
            <AltitudeMeters>773</AltitudeMeters>
            <DistanceMeters>NAN</DistanceMeters>
          </Trackpoint>
          <Trackpoint>
            <Time>2022-09-18T13:22:50.000Z</Time>
            <Position>
              <LatitudeDegrees>49.316358603537082672119140625</LatitudeDegrees>
              <LongitudeDegrees>19.9774509854614734649658203125</LongitudeDegrees>
            </Position>
            <AltitudeMeters>772</AltitudeMeters>
            <DistanceMeters>NAN</DistanceMeters>
          </Trackpoint>
          <Trackpoint>
            <Time>2022-09-18T13:22:51.000Z</Time>
            <Position>
              <LatitudeDegrees>49.31628425605595111846923828125</LatitudeDegrees>
              <LongitudeDegrees>19.97750236652791500091552734375</LongitudeDegrees>
            </Position>
            <AltitudeMeters>771.79998779296875</AltitudeMeters>
            <DistanceMeters>NAN</DistanceMeters>
          </Trackpoint>
          <Trackpoint>
            <Time>2022-09-18T13:22:52.000Z</Time>
            <Position>
              <LatitudeDegrees>49.31628425605595111846923828125</LatitudeDegrees>
              <LongitudeDegrees>19.97750236652791500091552734375</LongitudeDegrees>
            </Position>
            <AltitudeMeters>771.5999755859375</AltitudeMeters>
            <DistanceMeters>NAN</DistanceMeters>
          </Trackpoint>
          <Trackpoint>
            <Time>2022-09-18T13:22:53.000Z</Time>
            <Position>
              <LatitudeDegrees>49.31621049530804157257080078125</LatitudeDegrees>
              <LongitudeDegrees>19.9774695932865142822265625</LongitudeDegrees>
            </Position>
            <AltitudeMeters>771.4000244140625</AltitudeMeters>
            <DistanceMeters>NAN</DistanceMeters>
          </Trackpoint>
          <Trackpoint>
            <Time>2022-09-18T13:22:55.000Z</Time>
            <Position>
              <LatitudeDegrees>49.3161445297300815582275390625</LatitudeDegrees>
              <LongitudeDegrees>19.9774154461920261383056640625</LongitudeDegrees>
            </Position>
            <AltitudeMeters>771</AltitudeMeters>
            <DistanceMeters>NAN</DistanceMeters>
          </Trackpoint>
          <Trackpoint>
            <Time>2022-09-18T13:22:57.000Z</Time>
            <Position>
              <LatitudeDegrees>49.31611393578350543975830078125</LatitudeDegrees>
              <LongitudeDegrees>19.97738434933125972747802734375</LongitudeDegrees>
            </Position>
            <AltitudeMeters>770.79998779296875</AltitudeMeters>
            <DistanceMeters>NAN</DistanceMeters>
          </Trackpoint>
          <Trackpoint>
            <Time>2022-09-18T13:23:01.000Z</Time>
            <Position>
              <LatitudeDegrees>49.31598066352307796478271484375</LatitudeDegrees>
              <LongitudeDegrees>19.97724361717700958251953125</LongitudeDegrees>
            </Position>
            <AltitudeMeters>770.79998779296875</AltitudeMeters>
            <DistanceMeters>NAN</DistanceMeters>
          </Trackpoint>
          <Trackpoint>
            <Time>2022-09-18T13:23:03.000Z</Time>
            <Position>
              <LatitudeDegrees>49.31595233269035816192626953125</LatitudeDegrees>
              <LongitudeDegrees>19.97724839486181735992431640625</LongitudeDegrees>
            </Position>
            <AltitudeMeters>771.20001220703125</AltitudeMeters>
            <DistanceMeters>NAN</DistanceMeters>
          </Trackpoint>
          <Trackpoint>
            <Time>2022-09-18T13:23:05.000Z</Time>
            <Position>
              <LatitudeDegrees>49.31589667685329914093017578125</LatitudeDegrees>
              <LongitudeDegrees>19.97733741067349910736083984375</LongitudeDegrees>
            </Position>
            <AltitudeMeters>771.79998779296875</AltitudeMeters>
            <DistanceMeters>NAN</DistanceMeters>
          </Trackpoint>
          <Trackpoint>
            <Time>2022-09-18T13:23:06.000Z</Time>
            <Position>
              <LatitudeDegrees>49.31587857194244861602783203125</LatitudeDegrees>
              <LongitudeDegrees>19.97737999074161052703857421875</LongitudeDegrees>
            </Position>
            <AltitudeMeters>772</AltitudeMeters>
            <DistanceMeters>NAN</DistanceMeters>
          </Trackpoint>
          <Trackpoint>
            <Time>2022-09-18T13:23:08.000Z</Time>
            <Position>
              <LatitudeDegrees>49.31585870683193206787109375</LatitudeDegrees>
              <LongitudeDegrees>19.97742868959903717041015625</LongitudeDegrees>
            </Position>
            <AltitudeMeters>772</AltitudeMeters>
            <DistanceMeters>NAN</DistanceMeters>
          </Trackpoint>
          <Trackpoint>
            <Time>2022-09-18T13:23:12.000Z</Time>
            <Position>
              <LatitudeDegrees>49.31577689945697784423828125</LatitudeDegrees>
              <LongitudeDegrees>19.9776139296591281890869140625</LongitudeDegrees>
            </Position>
            <AltitudeMeters>771.4000244140625</AltitudeMeters>
            <DistanceMeters>NAN</DistanceMeters>
          </Trackpoint>
          <Trackpoint>
            <Time>2022-09-18T13:23:18.000Z</Time>
            <Position>
              <LatitudeDegrees>49.315592162311077117919921875</LatitudeDegrees>
              <LongitudeDegrees>19.97779481112957000732421875</LongitudeDegrees>
            </Position>
            <AltitudeMeters>771.20001220703125</AltitudeMeters>
            <DistanceMeters>NAN</DistanceMeters>
          </Trackpoint>
          <Trackpoint>
            <Time>2022-09-18T13:23:19.000Z</Time>
            <Position>
              <LatitudeDegrees>49.315566681325435638427734375</LatitudeDegrees>
              <LongitudeDegrees>19.9777966551482677459716796875</LongitudeDegrees>
            </Position>
            <AltitudeMeters>771.20001220703125</AltitudeMeters>
            <DistanceMeters>NAN</DistanceMeters>
          </Trackpoint>
          <Trackpoint>
            <Time>2022-09-18T13:23:22.000Z</Time>
            <Position>
              <LatitudeDegrees>49.31551882065832614898681640625</LatitudeDegrees>
              <LongitudeDegrees>19.9777614511549472808837890625</LongitudeDegrees>
            </Position>
            <AltitudeMeters>771.20001220703125</AltitudeMeters>
            <DistanceMeters>NAN</DistanceMeters>
          </Trackpoint>
          <Trackpoint>
            <Time>2022-09-18T13:23:27.000Z</Time>
            <Position>
              <LatitudeDegrees>49.3153832852840423583984375</LatitudeDegrees>
              <LongitudeDegrees>19.97764234431087970733642578125</LongitudeDegrees>
            </Position>
            <AltitudeMeters>771.4000244140625</AltitudeMeters>
            <DistanceMeters>NAN</DistanceMeters>
          </Trackpoint>
          <Trackpoint>
            <Time>2022-09-18T13:23:28.000Z</Time>
            <Position>
              <LatitudeDegrees>49.31530625559389591217041015625</LatitudeDegrees>
              <LongitudeDegrees>19.97757746838033199310302734375</LongitudeDegrees>
            </Position>
            <AltitudeMeters>771.5999755859375</AltitudeMeters>
            <DistanceMeters>NAN</DistanceMeters>
          </Trackpoint>
          <Trackpoint>
            <Time>2022-09-18T13:23:29.000Z</Time>
            <Position>
              <LatitudeDegrees>49.31530625559389591217041015625</LatitudeDegrees>
              <LongitudeDegrees>19.97757746838033199310302734375</LongitudeDegrees>
            </Position>
            <AltitudeMeters>771.5999755859375</AltitudeMeters>
            <DistanceMeters>NAN</DistanceMeters>
          </Trackpoint>
          <Trackpoint>
            <Time>2022-09-18T13:23:34.000Z</Time>
            <Position>
              <LatitudeDegrees>49.31508229114115238189697265625</LatitudeDegrees>
              <LongitudeDegrees>19.9774486385285854339599609375</LongitudeDegrees>
            </Position>
            <AltitudeMeters>773</AltitudeMeters>
            <DistanceMeters>NAN</DistanceMeters>
          </Trackpoint>
          <Trackpoint>
            <Time>2022-09-18T13:23:35.000Z</Time>
            <Position>
              <LatitudeDegrees>49.31505379267036914825439453125</LatitudeDegrees>
              <LongitudeDegrees>19.97743581421673297882080078125</LongitudeDegrees>
            </Position>
            <AltitudeMeters>773.4000244140625</AltitudeMeters>
            <DistanceMeters>NAN</DistanceMeters>
          </Trackpoint>
          <Trackpoint>
            <Time>2022-09-18T13:23:39.000Z</Time>
            <Position>
              <LatitudeDegrees>49.31497751735150814056396484375</LatitudeDegrees>
              <LongitudeDegrees>19.97740924358367919921875</LongitudeDegrees>
            </Position>
            <AltitudeMeters>774.20001220703125</AltitudeMeters>
            <DistanceMeters>NAN</DistanceMeters>
          </Trackpoint>
          <Trackpoint>
            <Time>2022-09-18T13:23:40.000Z</Time>
            <Position>
              <LatitudeDegrees>49.31496125645935535430908203125</LatitudeDegrees>
              <LongitudeDegrees>19.97739591635763645172119140625</LongitudeDegrees>
            </Position>
            <AltitudeMeters>774.20001220703125</AltitudeMeters>
            <DistanceMeters>NAN</DistanceMeters>
          </Trackpoint>
          <Trackpoint>
            <Time>2022-09-18T13:23:43.000Z</Time>
            <Position>
              <LatitudeDegrees>49.3149120546877384185791015625</LatitudeDegrees>
              <LongitudeDegrees>19.97735635377466678619384765625</LongitudeDegrees>
            </Position>
            <AltitudeMeters>774.4000244140625</AltitudeMeters>
            <DistanceMeters>NAN</DistanceMeters>
          </Trackpoint>
          <Trackpoint>
            <Time>2022-09-18T13:23:46.000Z</Time>
            <Position>
              <LatitudeDegrees>49.314863272011280059814453125</LatitudeDegrees>
              <LongitudeDegrees>19.97732567600905895233154296875</LongitudeDegrees>
            </Position>
            <AltitudeMeters>774.79998779296875</AltitudeMeters>
            <DistanceMeters>NAN</DistanceMeters>
          </Trackpoint>
          <Trackpoint>
            <Time>2022-09-18T13:23:50.000Z</Time>
            <Position>
              <LatitudeDegrees>49.3147890083491802215576171875</LatitudeDegrees>
              <LongitudeDegrees>19.97728343121707439422607421875</LongitudeDegrees>
            </Position>
            <AltitudeMeters>775.20001220703125</AltitudeMeters>
            <DistanceMeters>NAN</DistanceMeters>
          </Trackpoint>
          <Trackpoint>
            <Time>2022-09-18T13:23:56.000Z</Time>
            <Position>
              <LatitudeDegrees>49.31467459537088871002197265625</LatitudeDegrees>
              <LongitudeDegrees>19.97721939347684383392333984375</LongitudeDegrees>
            </Position>
            <AltitudeMeters>775.5999755859375</AltitudeMeters>
            <DistanceMeters>NAN</DistanceMeters>
          </Trackpoint>
          <Trackpoint>
            <Time>2022-09-18T13:23:57.000Z</Time>
            <Position>
              <LatitudeDegrees>49.31467459537088871002197265625</LatitudeDegrees>
              <LongitudeDegrees>19.97721939347684383392333984375</LongitudeDegrees>
            </Position>
            <AltitudeMeters>775.79998779296875</AltitudeMeters>
            <DistanceMeters>NAN</DistanceMeters>
          </Trackpoint>
          <Trackpoint>
            <Time>2022-09-18T13:24:02.000Z</Time>
            <Position>
              <LatitudeDegrees>49.314579628407955169677734375</LatitudeDegrees>
              <LongitudeDegrees>19.97717211954295635223388671875</LongitudeDegrees>
            </Position>
            <AltitudeMeters>776.20001220703125</AltitudeMeters>
            <DistanceMeters>NAN</DistanceMeters>
          </Trackpoint>
          <Trackpoint>
            <Time>2022-09-18T13:24:03.000Z</Time>
            <Position>
              <LatitudeDegrees>49.31456009857356548309326171875</LatitudeDegrees>
              <LongitudeDegrees>19.97716340236365795135498046875</LongitudeDegrees>
            </Position>
            <AltitudeMeters>776.20001220703125</AltitudeMeters>
            <DistanceMeters>NAN</DistanceMeters>
          </Trackpoint>
          <Trackpoint>
            <Time>2022-09-18T13:24:07.000Z</Time>
            <Position>
              <LatitudeDegrees>49.314506538212299346923828125</LatitudeDegrees>
              <LongitudeDegrees>19.9771378375589847564697265625</LongitudeDegrees>
            </Position>
            <AltitudeMeters>776.5999755859375</AltitudeMeters>
            <DistanceMeters>NAN</DistanceMeters>
          </Trackpoint>
          <Trackpoint>
            <Time>2022-09-18T13:24:12.000Z</Time>
            <Position>
              <LatitudeDegrees>49.3144255690276622772216796875</LatitudeDegrees>
              <LongitudeDegrees>19.97708268463611602783203125</LongitudeDegrees>
            </Position>
            <AltitudeMeters>777</AltitudeMeters>
            <DistanceMeters>NAN</DistanceMeters>
          </Trackpoint>
          <Trackpoint>
            <Time>2022-09-18T13:24:16.000Z</Time>
            <Position>
              <LatitudeDegrees>49.31432741694152355194091796875</LatitudeDegrees>
              <LongitudeDegrees>19.97703499160706996917724609375</LongitudeDegrees>
            </Position>
            <AltitudeMeters>777.4000244140625</AltitudeMeters>
            <DistanceMeters>NAN</DistanceMeters>
          </Trackpoint>
          <Trackpoint>
            <Time>2022-09-18T13:24:18.000Z</Time>
            <Position>
              <LatitudeDegrees>49.31429053656756877899169921875</LatitudeDegrees>
              <LongitudeDegrees>19.9770109355449676513671875</LongitudeDegrees>
            </Position>
            <AltitudeMeters>777.4000244140625</AltitudeMeters>
            <DistanceMeters>NAN</DistanceMeters>
          </Trackpoint>
          <Trackpoint>
            <Time>2022-09-18T13:24:20.000Z</Time>
            <Position>
              <LatitudeDegrees>49.3142720125615596771240234375</LatitudeDegrees>
              <LongitudeDegrees>19.9769980274140834808349609375</LongitudeDegrees>
            </Position>
            <AltitudeMeters>777.5999755859375</AltitudeMeters>
            <DistanceMeters>NAN</DistanceMeters>
          </Trackpoint>
          <Trackpoint>
            <Time>2022-09-18T13:24:23.000Z</Time>
            <Position>
              <LatitudeDegrees>49.314257763326168060302734375</LatitudeDegrees>
              <LongitudeDegrees>19.97698537074029445648193359375</LongitudeDegrees>
            </Position>
            <AltitudeMeters>778</AltitudeMeters>
            <DistanceMeters>NAN</DistanceMeters>
          </Trackpoint>
          <Trackpoint>
            <Time>2022-09-18T13:24:28.000Z</Time>
            <Position>
              <LatitudeDegrees>49.31425047107040882110595703125</LatitudeDegrees>
              <LongitudeDegrees>19.97698587365448474884033203125</LongitudeDegrees>
            </Position>
            <AltitudeMeters>778.20001220703125</AltitudeMeters>
            <DistanceMeters>NAN</DistanceMeters>
          </Trackpoint>
          <Trackpoint>
            <Time>2022-09-18T13:24:31.000Z</Time>
            <Position>
              <LatitudeDegrees>49.3142545782029628753662109375</LatitudeDegrees>
              <LongitudeDegrees>19.97699224390089511871337890625</LongitudeDegrees>
            </Position>
            <AltitudeMeters>778.4000244140625</AltitudeMeters>
            <DistanceMeters>NAN</DistanceMeters>
          </Trackpoint>
          <Trackpoint>
            <Time>2022-09-18T13:24:34.000Z</Time>
            <Position>
              <LatitudeDegrees>49.31425030343234539031982421875</LatitudeDegrees>
              <LongitudeDegrees>19.97701135464012622833251953125</LongitudeDegrees>
            </Position>
            <AltitudeMeters>778.5999755859375</AltitudeMeters>
            <DistanceMeters>NAN</DistanceMeters>
          </Trackpoint>
          <Trackpoint>
            <Time>2022-09-18T13:24:39.000Z</Time>
            <Position>
              <LatitudeDegrees>49.314263798296451568603515625</LatitudeDegrees>
              <LongitudeDegrees>19.97700045816600322723388671875</LongitudeDegrees>
            </Position>
            <AltitudeMeters>778.4000244140625</AltitudeMeters>
            <DistanceMeters>NAN</DistanceMeters>
          </Trackpoint>
          <Trackpoint>
            <Time>2022-09-18T13:24:44.000Z</Time>
            <Position>
              <LatitudeDegrees>49.314258433878421783447265625</LatitudeDegrees>
              <LongitudeDegrees>19.976976402103900909423828125</LongitudeDegrees>
            </Position>
            <AltitudeMeters>778.20001220703125</AltitudeMeters>
            <DistanceMeters>NAN</DistanceMeters>
          </Trackpoint>
          <Trackpoint>
            <Time>2022-09-18T13:24:54.000Z</Time>
            <Position>
              <LatitudeDegrees>49.314258433878421783447265625</LatitudeDegrees>
              <LongitudeDegrees>19.976976402103900909423828125</LongitudeDegrees>
            </Position>
            <AltitudeMeters>778.5999755859375</AltitudeMeters>
            <DistanceMeters>NAN</DistanceMeters>
          </Trackpoint>
          <Trackpoint>
            <Time>2022-09-18T13:24:58.000Z</Time>
            <Position>
              <LatitudeDegrees>49.3142069689929485321044921875</LatitudeDegrees>
              <LongitudeDegrees>19.97694849036633968353271484375</LongitudeDegrees>
            </Position>
            <AltitudeMeters>778.5999755859375</AltitudeMeters>
            <DistanceMeters>NAN</DistanceMeters>
          </Trackpoint>
          <Trackpoint>
            <Time>2022-09-18T13:25:04.000Z</Time>
            <Position>
              <LatitudeDegrees>49.31410680525004863739013671875</LatitudeDegrees>
              <LongitudeDegrees>19.97685335576534271240234375</LongitudeDegrees>
            </Position>
            <AltitudeMeters>778.5999755859375</AltitudeMeters>
            <DistanceMeters>NAN</DistanceMeters>
          </Trackpoint>
          <Trackpoint>
            <Time>2022-09-18T13:25:06.000Z</Time>
            <Position>
              <LatitudeDegrees>49.31404377333819866180419921875</LatitudeDegrees>
              <LongitudeDegrees>19.97682443819940090179443359375</LongitudeDegrees>
            </Position>
            <AltitudeMeters>778.79998779296875</AltitudeMeters>
            <DistanceMeters>NAN</DistanceMeters>
          </Trackpoint>
          <Trackpoint>
            <Time>2022-09-18T13:25:10.000Z</Time>
            <Position>
              <LatitudeDegrees>49.31390874087810516357421875</LatitudeDegrees>
              <LongitudeDegrees>19.9766952730715274810791015625</LongitudeDegrees>
            </Position>
            <AltitudeMeters>779.5999755859375</AltitudeMeters>
            <DistanceMeters>NAN</DistanceMeters>
          </Trackpoint>
          <Trackpoint>
            <Time>2022-09-18T13:25:13.000Z</Time>
            <Position>
              <LatitudeDegrees>49.31385576725006103515625</LatitudeDegrees>
              <LongitudeDegrees>19.976663254201412200927734375</LongitudeDegrees>
            </Position>
            <AltitudeMeters>780</AltitudeMeters>
            <DistanceMeters>NAN</DistanceMeters>
          </Trackpoint>
          <Trackpoint>
            <Time>2022-09-18T13:25:18.000Z</Time>
            <Position>
              <LatitudeDegrees>49.313740096986293792724609375</LatitudeDegrees>
              <LongitudeDegrees>19.97659309767186641693115234375</LongitudeDegrees>
            </Position>
            <AltitudeMeters>780</AltitudeMeters>
            <DistanceMeters>NAN</DistanceMeters>
          </Trackpoint>
          <Trackpoint>
            <Time>2022-09-18T13:25:25.000Z</Time>
            <Position>
              <LatitudeDegrees>49.31361646391451358795166015625</LatitudeDegrees>
              <LongitudeDegrees>19.9765172414481639862060546875</LongitudeDegrees>
            </Position>
            <AltitudeMeters>780.4000244140625</AltitudeMeters>
            <DistanceMeters>NAN</DistanceMeters>
          </Trackpoint>
          <Trackpoint>
            <Time>2022-09-18T13:25:30.000Z</Time>
            <Position>
              <LatitudeDegrees>49.31351738981902599334716796875</LatitudeDegrees>
              <LongitudeDegrees>19.97644088231027126312255859375</LongitudeDegrees>
            </Position>
            <AltitudeMeters>780.5999755859375</AltitudeMeters>
            <DistanceMeters>NAN</DistanceMeters>
          </Trackpoint>
          <Trackpoint>
            <Time>2022-09-18T13:25:31.000Z</Time>
            <Position>
              <LatitudeDegrees>49.31350112892687320709228515625</LatitudeDegrees>
              <LongitudeDegrees>19.97642420232295989990234375</LongitudeDegrees>
            </Position>
            <AltitudeMeters>780.5999755859375</AltitudeMeters>
            <DistanceMeters>NAN</DistanceMeters>
          </Trackpoint>
          <Trackpoint>
            <Time>2022-09-18T13:25:34.000Z</Time>
            <Position>
              <LatitudeDegrees>49.31346416473388671875</LatitudeDegrees>
              <LongitudeDegrees>19.9763667024672031402587890625</LongitudeDegrees>
            </Position>
            <AltitudeMeters>781</AltitudeMeters>
            <DistanceMeters>NAN</DistanceMeters>
          </Trackpoint>
          <Trackpoint>
            <Time>2022-09-18T13:25:38.000Z</Time>
            <Position>
              <LatitudeDegrees>49.313428960740566253662109375</LatitudeDegrees>
              <LongitudeDegrees>19.97623988427221775054931640625</LongitudeDegrees>
            </Position>
            <AltitudeMeters>780.79998779296875</AltitudeMeters>
            <DistanceMeters>NAN</DistanceMeters>
          </Trackpoint>
          <Trackpoint>
            <Time>2022-09-18T13:25:45.000Z</Time>
            <Position>
              <LatitudeDegrees>49.313384033739566802978515625</LatitudeDegrees>
              <LongitudeDegrees>19.97601005248725414276123046875</LongitudeDegrees>
            </Position>
            <AltitudeMeters>780.4000244140625</AltitudeMeters>
            <DistanceMeters>NAN</DistanceMeters>
          </Trackpoint>
          <Trackpoint>
            <Time>2022-09-18T13:25:53.000Z</Time>
            <Position>
              <LatitudeDegrees>49.313331730663776397705078125</LatitudeDegrees>
              <LongitudeDegrees>19.9756981618702411651611328125</LongitudeDegrees>
            </Position>
            <AltitudeMeters>780.79998779296875</AltitudeMeters>
            <DistanceMeters>NAN</DistanceMeters>
          </Trackpoint>
          <Trackpoint>
            <Time>2022-09-18T13:26:00.000Z</Time>
            <Position>
              <LatitudeDegrees>49.31327934376895427703857421875</LatitudeDegrees>
              <LongitudeDegrees>19.9754218943417072296142578125</LongitudeDegrees>
            </Position>
            <AltitudeMeters>781</AltitudeMeters>
            <DistanceMeters>NAN</DistanceMeters>
          </Trackpoint>
          <Trackpoint>
            <Time>2022-09-18T13:26:03.000Z</Time>
            <Position>
              <LatitudeDegrees>49.313260652124881744384765625</LatitudeDegrees>
              <LongitudeDegrees>19.975310079753398895263671875</LongitudeDegrees>
            </Position>
            <AltitudeMeters>781</AltitudeMeters>
            <DistanceMeters>NAN</DistanceMeters>
          </Trackpoint>
          <Trackpoint>
            <Time>2022-09-18T13:26:09.000Z</Time>
            <Position>
              <LatitudeDegrees>49.3131984584033489227294921875</LatitudeDegrees>
              <LongitudeDegrees>19.97500321827828884124755859375</LongitudeDegrees>
            </Position>
            <AltitudeMeters>780.5999755859375</AltitudeMeters>
            <DistanceMeters>NAN</DistanceMeters>
          </Trackpoint>
          <Trackpoint>
            <Time>2022-09-18T13:26:16.000Z</Time>
            <Position>
              <LatitudeDegrees>49.31316308677196502685546875</LatitudeDegrees>
              <LongitudeDegrees>19.974630810320377349853515625</LongitudeDegrees>
            </Position>
            <AltitudeMeters>780.4000244140625</AltitudeMeters>
            <DistanceMeters>NAN</DistanceMeters>
          </Trackpoint>
          <Trackpoint>
            <Time>2022-09-18T13:26:23.000Z</Time>
            <Position>
              <LatitudeDegrees>49.31311723776161670684814453125</LatitudeDegrees>
              <LongitudeDegrees>19.9743124656379222869873046875</LongitudeDegrees>
            </Position>
            <AltitudeMeters>781.20001220703125</AltitudeMeters>
            <DistanceMeters>NAN</DistanceMeters>
          </Trackpoint>
          <Trackpoint>
            <Time>2022-09-18T13:26:28.000Z</Time>
            <Position>
              <LatitudeDegrees>49.31306392885744571685791015625</LatitudeDegrees>
              <LongitudeDegrees>19.97412345372140407562255859375</LongitudeDegrees>
            </Position>
            <AltitudeMeters>781.79998779296875</AltitudeMeters>
            <DistanceMeters>NAN</DistanceMeters>
          </Trackpoint>
          <Trackpoint>
            <Time>2022-09-18T13:26:30.000Z</Time>
            <Position>
              <LatitudeDegrees>49.31304582394659519195556640625</LatitudeDegrees>
              <LongitudeDegrees>19.9740680493414402008056640625</LongitudeDegrees>
            </Position>
            <AltitudeMeters>782.20001220703125</AltitudeMeters>
            <DistanceMeters>NAN</DistanceMeters>
          </Trackpoint>
          <Trackpoint>
            <Time>2022-09-18T13:26:34.000Z</Time>
            <Position>
              <LatitudeDegrees>49.31298027746379375457763671875</LatitudeDegrees>
              <LongitudeDegrees>19.9739382974803447723388671875</LongitudeDegrees>
            </Position>
            <AltitudeMeters>782.5999755859375</AltitudeMeters>
            <DistanceMeters>NAN</DistanceMeters>
          </Trackpoint>
          <Trackpoint>
            <Time>2022-09-18T13:26:37.000Z</Time>
            <Position>
              <LatitudeDegrees>49.3129037506878376007080078125</LatitudeDegrees>
              <LongitudeDegrees>19.97384400106966495513916015625</LongitudeDegrees>
            </Position>
            <AltitudeMeters>782.20001220703125</AltitudeMeters>
            <DistanceMeters>NAN</DistanceMeters>
          </Trackpoint>
          <Trackpoint>
            <Time>2022-09-18T13:26:40.000Z</Time>
            <Position>
              <LatitudeDegrees>49.312841892242431640625</LatitudeDegrees>
              <LongitudeDegrees>19.97375112958252429962158203125</LongitudeDegrees>
            </Position>
            <AltitudeMeters>782.20001220703125</AltitudeMeters>
            <DistanceMeters>NAN</DistanceMeters>
          </Trackpoint>
          <Trackpoint>
            <Time>2022-09-18T13:26:43.000Z</Time>
            <Position>
              <LatitudeDegrees>49.31277927942574024200439453125</LatitudeDegrees>
              <LongitudeDegrees>19.97369362972676753997802734375</LongitudeDegrees>
            </Position>
            <AltitudeMeters>782.5999755859375</AltitudeMeters>
            <DistanceMeters>NAN</DistanceMeters>
          </Trackpoint>
          <Trackpoint>
            <Time>2022-09-18T13:26:45.000Z</Time>
            <Position>
              <LatitudeDegrees>49.31272722780704498291015625</LatitudeDegrees>
              <LongitudeDegrees>19.9736526422202587127685546875</LongitudeDegrees>
            </Position>
            <AltitudeMeters>783</AltitudeMeters>
            <DistanceMeters>NAN</DistanceMeters>
          </Trackpoint>
          <Trackpoint>
            <Time>2022-09-18T13:26:52.000Z</Time>
            <Position>
              <LatitudeDegrees>49.31256721727550029754638671875</LatitudeDegrees>
              <LongitudeDegrees>19.97352381236851215362548828125</LongitudeDegrees>
            </Position>
            <AltitudeMeters>783.79998779296875</AltitudeMeters>
            <DistanceMeters>NAN</DistanceMeters>
          </Trackpoint>
          <Trackpoint>
            <Time>2022-09-18T13:26:54.000Z</Time>
            <Position>
              <LatitudeDegrees>49.3125091306865215301513671875</LatitudeDegrees>
              <LongitudeDegrees>19.973464049398899078369140625</LongitudeDegrees>
            </Position>
            <AltitudeMeters>783.79998779296875</AltitudeMeters>
            <DistanceMeters>NAN</DistanceMeters>
          </Trackpoint>
          <Trackpoint>
            <Time>2022-09-18T13:26:59.000Z</Time>
            <Position>
              <LatitudeDegrees>49.31245808489620685577392578125</LatitudeDegrees>
              <LongitudeDegrees>19.97336690314114093780517578125</LongitudeDegrees>
            </Position>
            <AltitudeMeters>783.5999755859375</AltitudeMeters>
            <DistanceMeters>NAN</DistanceMeters>
          </Trackpoint>
          <Trackpoint>
            <Time>2022-09-18T13:27:01.000Z</Time>
            <Position>
              <LatitudeDegrees>49.31241969577968120574951171875</LatitudeDegrees>
              <LongitudeDegrees>19.9732848443090915679931640625</LongitudeDegrees>
            </Position>
            <AltitudeMeters>783.5999755859375</AltitudeMeters>
            <DistanceMeters>NAN</DistanceMeters>
          </Trackpoint>
          <Trackpoint>
            <Time>2022-09-18T13:27:07.000Z</Time>
            <Position>
              <LatitudeDegrees>49.3123374693095684051513671875</LatitudeDegrees>
              <LongitudeDegrees>19.97312952764332294464111328125</LongitudeDegrees>
            </Position>
            <AltitudeMeters>783.20001220703125</AltitudeMeters>
            <DistanceMeters>NAN</DistanceMeters>
          </Trackpoint>
          <Trackpoint>
            <Time>2022-09-18T13:27:09.000Z</Time>
            <Position>
              <LatitudeDegrees>49.31231995113193988800048828125</LatitudeDegrees>
              <LongitudeDegrees>19.97308325953781604766845703125</LongitudeDegrees>
            </Position>
            <AltitudeMeters>783.20001220703125</AltitudeMeters>
            <DistanceMeters>NAN</DistanceMeters>
          </Trackpoint>
          <Trackpoint>
            <Time>2022-09-18T13:27:12.000Z</Time>
            <Position>
              <LatitudeDegrees>49.312286339700222015380859375</LatitudeDegrees>
              <LongitudeDegrees>19.97298787347972393035888671875</LongitudeDegrees>
            </Position>
            <AltitudeMeters>784</AltitudeMeters>
            <DistanceMeters>NAN</DistanceMeters>
          </Trackpoint>
          <Trackpoint>
            <Time>2022-09-18T13:27:21.000Z</Time>
            <Position>
              <LatitudeDegrees>49.31217611767351627349853515625</LatitudeDegrees>
              <LongitudeDegrees>19.9727178923785686492919921875</LongitudeDegrees>
            </Position>
            <AltitudeMeters>784.4000244140625</AltitudeMeters>
            <DistanceMeters>NAN</DistanceMeters>
          </Trackpoint>
          <Trackpoint>
            <Time>2022-09-18T13:27:35.000Z</Time>
            <Position>
              <LatitudeDegrees>49.31199372746050357818603515625</LatitudeDegrees>
              <LongitudeDegrees>19.9722770042717456817626953125</LongitudeDegrees>
            </Position>
            <AltitudeMeters>784.5999755859375</AltitudeMeters>
            <DistanceMeters>NAN</DistanceMeters>
          </Trackpoint>
          <Trackpoint>
            <Time>2022-09-18T13:27:37.000Z</Time>
            <Position>
              <LatitudeDegrees>49.311969839036464691162109375</LatitudeDegrees>
              <LongitudeDegrees>19.97223501093685626983642578125</LongitudeDegrees>
            </Position>
            <AltitudeMeters>785</AltitudeMeters>
            <DistanceMeters>NAN</DistanceMeters>
          </Trackpoint>
          <Trackpoint>
            <Time>2022-09-18T13:27:40.000Z</Time>
            <Position>
              <LatitudeDegrees>49.31193974800407886505126953125</LatitudeDegrees>
              <LongitudeDegrees>19.9721683748066425323486328125</LongitudeDegrees>
            </Position>
            <AltitudeMeters>785.20001220703125</AltitudeMeters>
            <DistanceMeters>NAN</DistanceMeters>
          </Trackpoint>
          <Trackpoint>
            <Time>2022-09-18T13:27:41.000Z</Time>
            <Position>
              <LatitudeDegrees>49.31193622760474681854248046875</LatitudeDegrees>
              <LongitudeDegrees>19.9721445702016353607177734375</LongitudeDegrees>
            </Position>
            <AltitudeMeters>785.4000244140625</AltitudeMeters>
            <DistanceMeters>NAN</DistanceMeters>
          </Trackpoint>
          <Trackpoint>
            <Time>2022-09-18T13:27:45.000Z</Time>
            <Position>
              <LatitudeDegrees>49.31192767806351184844970703125</LatitudeDegrees>
              <LongitudeDegrees>19.972067289054393768310546875</LongitudeDegrees>
            </Position>
            <AltitudeMeters>785.20001220703125</AltitudeMeters>
            <DistanceMeters>NAN</DistanceMeters>
          </Trackpoint>
          <Trackpoint>
            <Time>2022-09-18T13:27:47.000Z</Time>
            <Position>
              <LatitudeDegrees>49.31192524731159210205078125</LatitudeDegrees>
              <LongitudeDegrees>19.97206217609345912933349609375</LongitudeDegrees>
            </Position>
            <AltitudeMeters>785</AltitudeMeters>
            <DistanceMeters>NAN</DistanceMeters>
          </Trackpoint>
          <Trackpoint>
            <Time>2022-09-18T13:28:01.000Z</Time>
            <Position>
              <LatitudeDegrees>49.3119140155613422393798828125</LatitudeDegrees>
              <LongitudeDegrees>19.97205245308578014373779296875</LongitudeDegrees>
            </Position>
            <AltitudeMeters>784.5999755859375</AltitudeMeters>
            <DistanceMeters>NAN</DistanceMeters>
          </Trackpoint>
          <Trackpoint>
            <Time>2022-09-18T13:28:10.000Z</Time>
            <Position>
              <LatitudeDegrees>49.3119150213897228240966796875</LatitudeDegrees>
              <LongitudeDegrees>19.97205161489546298980712890625</LongitudeDegrees>
            </Position>
            <AltitudeMeters>784.5999755859375</AltitudeMeters>
            <DistanceMeters>NAN</DistanceMeters>
          </Trackpoint>
          <Trackpoint>
            <Time>2022-09-18T13:28:23.000Z</Time>
            <Position>
              <LatitudeDegrees>49.3119177035987377166748046875</LatitudeDegrees>
              <LongitudeDegrees>19.97205161489546298980712890625</LongitudeDegrees>
            </Position>
            <AltitudeMeters>784.4000244140625</AltitudeMeters>
            <DistanceMeters>NAN</DistanceMeters>
          </Trackpoint>
          <Trackpoint>
            <Time>2022-09-18T13:28:39.000Z</Time>
            <Position>
              <LatitudeDegrees>49.3119197152554988861083984375</LatitudeDegrees>
              <LongitudeDegrees>19.972055219113826751708984375</LongitudeDegrees>
            </Position>
            <AltitudeMeters>784.20001220703125</AltitudeMeters>
            <DistanceMeters>NAN</DistanceMeters>
          </Trackpoint>
          <Trackpoint>
            <Time>2022-09-18T13:28:43.000Z</Time>
            <Position>
              <LatitudeDegrees>49.31192030198872089385986328125</LatitudeDegrees>
              <LongitudeDegrees>19.97205555438995361328125</LongitudeDegrees>
            </Position>
            <AltitudeMeters>784.4000244140625</AltitudeMeters>
            <DistanceMeters>NAN</DistanceMeters>
          </Trackpoint>
          <Trackpoint>
            <Time>2022-09-18T13:28:49.000Z</Time>
            <Position>
              <LatitudeDegrees>49.3119210563600063323974609375</LatitudeDegrees>
              <LongitudeDegrees>19.97205622494220733642578125</LongitudeDegrees>
            </Position>
            <AltitudeMeters>784.4000244140625</AltitudeMeters>
            <DistanceMeters>NAN</DistanceMeters>
          </Trackpoint>
          <Trackpoint>
            <Time>2022-09-18T13:29:02.000Z</Time>
            <Position>
              <LatitudeDegrees>49.3119237385690212249755859375</LatitudeDegrees>
              <LongitudeDegrees>19.9720486812293529510498046875</LongitudeDegrees>
            </Position>
            <AltitudeMeters>784.79998779296875</AltitudeMeters>
            <DistanceMeters>NAN</DistanceMeters>
          </Trackpoint>
          <Trackpoint>
            <Time>2022-09-18T13:29:16.000Z</Time>
            <Position>
              <LatitudeDegrees>49.31193723343312740325927734375</LatitudeDegrees>
              <LongitudeDegrees>19.9720248766243457794189453125</LongitudeDegrees>
            </Position>
            <AltitudeMeters>784.79998779296875</AltitudeMeters>
            <DistanceMeters>NAN</DistanceMeters>
          </Trackpoint>
          <Trackpoint>
            <Time>2022-09-18T13:29:29.000Z</Time>
            <Position>
              <LatitudeDegrees>49.31192046962678432464599609375</LatitudeDegrees>
              <LongitudeDegrees>19.9720211885869503021240234375</LongitudeDegrees>
            </Position>
            <AltitudeMeters>784.79998779296875</AltitudeMeters>
            <DistanceMeters>NAN</DistanceMeters>
          </Trackpoint>
          <Trackpoint>
            <Time>2022-09-18T13:29:30.000Z</Time>
            <Position>
              <LatitudeDegrees>49.31191275827586650848388671875</LatitudeDegrees>
              <LongitudeDegrees>19.97200601734220981597900390625</LongitudeDegrees>
            </Position>
            <AltitudeMeters>784.79998779296875</AltitudeMeters>
            <DistanceMeters>NAN</DistanceMeters>
          </Trackpoint>
          <Trackpoint>
            <Time>2022-09-18T13:29:32.000Z</Time>
            <Position>
              <LatitudeDegrees>49.31190454401075839996337890625</LatitudeDegrees>
              <LongitudeDegrees>19.971990175545215606689453125</LongitudeDegrees>
            </Position>
            <AltitudeMeters>784.79998779296875</AltitudeMeters>
            <DistanceMeters>NAN</DistanceMeters>
          </Trackpoint>
          <Trackpoint>
            <Time>2022-09-18T13:29:37.000Z</Time>
            <Position>
              <LatitudeDegrees>49.31178233586251735687255859375</LatitudeDegrees>
              <LongitudeDegrees>19.97182010672986507415771484375</LongitudeDegrees>
            </Position>
            <AltitudeMeters>784.79998779296875</AltitudeMeters>
            <DistanceMeters>NAN</DistanceMeters>
          </Trackpoint>
          <Trackpoint>
            <Time>2022-09-18T13:29:43.000Z</Time>
            <Position>
              <LatitudeDegrees>49.3116632290184497833251953125</LatitudeDegrees>
              <LongitudeDegrees>19.97154987417161464691162109375</LongitudeDegrees>
            </Position>
            <AltitudeMeters>785</AltitudeMeters>
            <DistanceMeters>NAN</DistanceMeters>
          </Trackpoint>
          <Trackpoint>
            <Time>2022-09-18T13:29:51.000Z</Time>
            <Position>
              <LatitudeDegrees>49.31152450852096080780029296875</LatitudeDegrees>
              <LongitudeDegrees>19.97123002074658870697021484375</LongitudeDegrees>
            </Position>
            <AltitudeMeters>785.20001220703125</AltitudeMeters>
            <DistanceMeters>NAN</DistanceMeters>
          </Trackpoint>
          <Trackpoint>
            <Time>2022-09-18T13:29:55.000Z</Time>
            <Position>
              <LatitudeDegrees>49.3114697746932506561279296875</LatitudeDegrees>
              <LongitudeDegrees>19.97110781259834766387939453125</LongitudeDegrees>
            </Position>
            <AltitudeMeters>786.4000244140625</AltitudeMeters>
            <DistanceMeters>NAN</DistanceMeters>
          </Trackpoint>
          <Trackpoint>
            <Time>2022-09-18T13:29:59.000Z</Time>
            <Position>
              <LatitudeDegrees>49.3114149570465087890625</LatitudeDegrees>
              <LongitudeDegrees>19.97096800245344638824462890625</LongitudeDegrees>
            </Position>
            <AltitudeMeters>787</AltitudeMeters>
            <DistanceMeters>NAN</DistanceMeters>
          </Trackpoint>
          <Trackpoint>
            <Time>2022-09-18T13:30:07.000Z</Time>
            <Position>
              <LatitudeDegrees>49.3112955987453460693359375</LatitudeDegrees>
              <LongitudeDegrees>19.9707015417516231536865234375</LongitudeDegrees>
            </Position>
            <AltitudeMeters>785.5999755859375</AltitudeMeters>
            <DistanceMeters>NAN</DistanceMeters>
          </Trackpoint>
          <Trackpoint>
            <Time>2022-09-18T13:30:09.000Z</Time>
            <Position>
              <LatitudeDegrees>49.3112525157630443572998046875</LatitudeDegrees>
              <LongitudeDegrees>19.970593415200710296630859375</LongitudeDegrees>
            </Position>
            <AltitudeMeters>786</AltitudeMeters>
            <DistanceMeters>NAN</DistanceMeters>
          </Trackpoint>
          <Trackpoint>
            <Time>2022-09-18T13:30:18.000Z</Time>
            <Position>
              <LatitudeDegrees>49.31113977916538715362548828125</LatitudeDegrees>
              <LongitudeDegrees>19.970343299210071563720703125</LongitudeDegrees>
            </Position>
            <AltitudeMeters>786.79998779296875</AltitudeMeters>
            <DistanceMeters>NAN</DistanceMeters>
          </Trackpoint>
          <Trackpoint>
            <Time>2022-09-18T13:30:25.000Z</Time>
            <Position>
              <LatitudeDegrees>49.311009608209133148193359375</LatitudeDegrees>
              <LongitudeDegrees>19.97004783712327480316162109375</LongitudeDegrees>
            </Position>
            <AltitudeMeters>787.5999755859375</AltitudeMeters>
            <DistanceMeters>NAN</DistanceMeters>
          </Trackpoint>
          <Trackpoint>
            <Time>2022-09-18T13:30:27.000Z</Time>
            <Position>
              <LatitudeDegrees>49.3109842948615550994873046875</LatitudeDegrees>
              <LongitudeDegrees>19.96997860260307788848876953125</LongitudeDegrees>
            </Position>
            <AltitudeMeters>788</AltitudeMeters>
            <DistanceMeters>NAN</DistanceMeters>
          </Trackpoint>
          <Trackpoint>
            <Time>2022-09-18T13:30:37.000Z</Time>
            <Position>
              <LatitudeDegrees>49.310773909091949462890625</LatitudeDegrees>
              <LongitudeDegrees>19.96959823183715343475341796875</LongitudeDegrees>
            </Position>
            <AltitudeMeters>788.20001220703125</AltitudeMeters>
            <DistanceMeters>NAN</DistanceMeters>
          </Trackpoint>
          <Trackpoint>
            <Time>2022-09-18T13:30:40.000Z</Time>
            <Position>
              <LatitudeDegrees>49.31071548722684383392333984375</LatitudeDegrees>
              <LongitudeDegrees>19.96952614746987819671630859375</LongitudeDegrees>
            </Position>
            <AltitudeMeters>788.5999755859375</AltitudeMeters>
            <DistanceMeters>NAN</DistanceMeters>
          </Trackpoint>
          <Trackpoint>
            <Time>2022-09-18T13:30:43.000Z</Time>
            <Position>
              <LatitudeDegrees>49.3106543831527233123779296875</LatitudeDegrees>
              <LongitudeDegrees>19.96946764178574085235595703125</LongitudeDegrees>
            </Position>
            <AltitudeMeters>789.20001220703125</AltitudeMeters>
            <DistanceMeters>NAN</DistanceMeters>
          </Trackpoint>
          <Trackpoint>
            <Time>2022-09-18T13:30:51.000Z</Time>
            <Position>
              <LatitudeDegrees>49.31047710590064525604248046875</LatitudeDegrees>
              <LongitudeDegrees>19.96931073255836963653564453125</LongitudeDegrees>
            </Position>
            <AltitudeMeters>789.4000244140625</AltitudeMeters>
            <DistanceMeters>NAN</DistanceMeters>
          </Trackpoint>
          <Trackpoint>
            <Time>2022-09-18T13:30:57.000Z</Time>
            <Position>
              <LatitudeDegrees>49.31031634099781513214111328125</LatitudeDegrees>
              <LongitudeDegrees>19.96918626129627227783203125</LongitudeDegrees>
            </Position>
            <AltitudeMeters>789.4000244140625</AltitudeMeters>
            <DistanceMeters>NAN</DistanceMeters>
          </Trackpoint>
          <Trackpoint>
            <Time>2022-09-18T13:30:58.000Z</Time>
            <Position>
              <LatitudeDegrees>49.31029672734439373016357421875</LatitudeDegrees>
              <LongitudeDegrees>19.969165138900279998779296875</LongitudeDegrees>
            </Position>
            <AltitudeMeters>789.5999755859375</AltitudeMeters>
            <DistanceMeters>NAN</DistanceMeters>
          </Trackpoint>
          <Trackpoint>
            <Time>2022-09-18T13:31:06.000Z</Time>
            <Position>
              <LatitudeDegrees>49.3101357109844684600830078125</LatitudeDegrees>
              <LongitudeDegrees>19.96902541257441043853759765625</LongitudeDegrees>
            </Position>
            <AltitudeMeters>789.79998779296875</AltitudeMeters>
            <DistanceMeters>NAN</DistanceMeters>
          </Trackpoint>
          <Trackpoint>
            <Time>2022-09-18T13:31:14.000Z</Time>
            <Position>
              <LatitudeDegrees>49.3099442683160305023193359375</LatitudeDegrees>
              <LongitudeDegrees>19.9688270129263401031494140625</LongitudeDegrees>
            </Position>
            <AltitudeMeters>790</AltitudeMeters>
            <DistanceMeters>NAN</DistanceMeters>
          </Trackpoint>
          <Trackpoint>
            <Time>2022-09-18T13:31:20.000Z</Time>
            <Position>
              <LatitudeDegrees>49.30985315702855587005615234375</LatitudeDegrees>
              <LongitudeDegrees>19.96873137541115283966064453125</LongitudeDegrees>
            </Position>
            <AltitudeMeters>790.5999755859375</AltitudeMeters>
            <DistanceMeters>NAN</DistanceMeters>
          </Trackpoint>
          <Trackpoint>
            <Time>2022-09-18T13:31:21.000Z</Time>
            <Position>
              <LatitudeDegrees>49.309829771518707275390625</LatitudeDegrees>
              <LongitudeDegrees>19.96865711174905300140380859375</LongitudeDegrees>
            </Position>
            <AltitudeMeters>790.5999755859375</AltitudeMeters>
            <DistanceMeters>NAN</DistanceMeters>
          </Trackpoint>
          <Trackpoint>
            <Time>2022-09-18T13:31:22.000Z</Time>
            <Position>
              <LatitudeDegrees>49.309829771518707275390625</LatitudeDegrees>
              <LongitudeDegrees>19.96865711174905300140380859375</LongitudeDegrees>
            </Position>
            <AltitudeMeters>790.79998779296875</AltitudeMeters>
            <DistanceMeters>NAN</DistanceMeters>
          </Trackpoint>
          <Trackpoint>
            <Time>2022-09-18T13:31:29.000Z</Time>
            <Position>
              <LatitudeDegrees>49.30979146622121334075927734375</LatitudeDegrees>
              <LongitudeDegrees>19.96839911676943302154541015625</LongitudeDegrees>
            </Position>
            <AltitudeMeters>791</AltitudeMeters>
            <DistanceMeters>NAN</DistanceMeters>
          </Trackpoint>
          <Trackpoint>
            <Time>2022-09-18T13:31:34.000Z</Time>
            <Position>
              <LatitudeDegrees>49.309759698808193206787109375</LatitudeDegrees>
              <LongitudeDegrees>19.96822929941117763519287109375</LongitudeDegrees>
            </Position>
            <AltitudeMeters>791</AltitudeMeters>
            <DistanceMeters>NAN</DistanceMeters>
          </Trackpoint>
          <Trackpoint>
            <Time>2022-09-18T13:31:35.000Z</Time>
            <Position>
              <LatitudeDegrees>49.30975257419049739837646484375</LatitudeDegrees>
              <LongitudeDegrees>19.968193508684635162353515625</LongitudeDegrees>
            </Position>
            <AltitudeMeters>791</AltitudeMeters>
            <DistanceMeters>NAN</DistanceMeters>
          </Trackpoint>
          <Trackpoint>
            <Time>2022-09-18T13:31:39.000Z</Time>
            <Position>
              <LatitudeDegrees>49.3097186274826526641845703125</LatitudeDegrees>
              <LongitudeDegrees>19.968054704368114471435546875</LongitudeDegrees>
            </Position>
            <AltitudeMeters>791.79998779296875</AltitudeMeters>
            <DistanceMeters>NAN</DistanceMeters>
          </Trackpoint>
          <Trackpoint>
            <Time>2022-09-18T13:31:43.000Z</Time>
            <Position>
              <LatitudeDegrees>49.3096995167434215545654296875</LatitudeDegrees>
              <LongitudeDegrees>19.9679351784288883209228515625</LongitudeDegrees>
            </Position>
            <AltitudeMeters>791.79998779296875</AltitudeMeters>
            <DistanceMeters>NAN</DistanceMeters>
          </Trackpoint>
          <Trackpoint>
            <Time>2022-09-18T13:31:52.000Z</Time>
            <Position>
              <LatitudeDegrees>49.3096462078392505645751953125</LatitudeDegrees>
              <LongitudeDegrees>19.967565201222896575927734375</LongitudeDegrees>
            </Position>
            <AltitudeMeters>791.5999755859375</AltitudeMeters>
            <DistanceMeters>NAN</DistanceMeters>
          </Trackpoint>
          <Trackpoint>
            <Time>2022-09-18T13:31:58.000Z</Time>
            <Position>
              <LatitudeDegrees>49.30961863137781620025634765625</LatitudeDegrees>
              <LongitudeDegrees>19.96739513240754604339599609375</LongitudeDegrees>
            </Position>
            <AltitudeMeters>792.5999755859375</AltitudeMeters>
            <DistanceMeters>NAN</DistanceMeters>
          </Trackpoint>
          <Trackpoint>
            <Time>2022-09-18T13:32:00.000Z</Time>
            <Position>
              <LatitudeDegrees>49.30960781872272491455078125</LatitudeDegrees>
              <LongitudeDegrees>19.96734433807432651519775390625</LongitudeDegrees>
            </Position>
            <AltitudeMeters>793</AltitudeMeters>
            <DistanceMeters>NAN</DistanceMeters>
          </Trackpoint>
          <Trackpoint>
            <Time>2022-09-18T13:32:03.000Z</Time>
            <Position>
              <LatitudeDegrees>49.30959734134376049041748046875</LatitudeDegrees>
              <LongitudeDegrees>19.9672914482653141021728515625</LongitudeDegrees>
            </Position>
            <AltitudeMeters>793.4000244140625</AltitudeMeters>
            <DistanceMeters>NAN</DistanceMeters>
          </Trackpoint>
          <Trackpoint>
            <Time>2022-09-18T13:32:11.000Z</Time>
            <Position>
              <LatitudeDegrees>49.30956264026463031768798828125</LatitudeDegrees>
              <LongitudeDegrees>19.9670637957751750946044921875</LongitudeDegrees>
            </Position>
            <AltitudeMeters>793.5999755859375</AltitudeMeters>
            <DistanceMeters>NAN</DistanceMeters>
          </Trackpoint>
          <Trackpoint>
            <Time>2022-09-18T13:32:15.000Z</Time>
            <Position>
              <LatitudeDegrees>49.3095459602773189544677734375</LatitudeDegrees>
              <LongitudeDegrees>19.9669514782726764678955078125</LongitudeDegrees>
            </Position>
            <AltitudeMeters>793.79998779296875</AltitudeMeters>
            <DistanceMeters>NAN</DistanceMeters>
          </Trackpoint>
          <Trackpoint>
            <Time>2022-09-18T13:32:18.000Z</Time>
            <Position>
              <LatitudeDegrees>49.30953229777514934539794921875</LatitudeDegrees>
              <LongitudeDegrees>19.96688819490373134613037109375</LongitudeDegrees>
            </Position>
            <AltitudeMeters>794</AltitudeMeters>
            <DistanceMeters>NAN</DistanceMeters>
          </Trackpoint>
          <Trackpoint>
            <Time>2022-09-18T13:32:23.000Z</Time>
            <Position>
              <LatitudeDegrees>49.30950698442757129669189453125</LatitudeDegrees>
              <LongitudeDegrees>19.9667488038539886474609375</LongitudeDegrees>
            </Position>
            <AltitudeMeters>794.20001220703125</AltitudeMeters>
            <DistanceMeters>NAN</DistanceMeters>
          </Trackpoint>
          <Trackpoint>
            <Time>2022-09-18T13:32:29.000Z</Time>
            <Position>
              <LatitudeDegrees>49.30946792475879192352294921875</LatitudeDegrees>
              <LongitudeDegrees>19.96655367314815521240234375</LongitudeDegrees>
            </Position>
            <AltitudeMeters>794.20001220703125</AltitudeMeters>
            <DistanceMeters>NAN</DistanceMeters>
          </Trackpoint>
          <Trackpoint>
            <Time>2022-09-18T13:32:35.000Z</Time>
            <Position>
              <LatitudeDegrees>49.309448562562465667724609375</LatitudeDegrees>
              <LongitudeDegrees>19.96636499650776386260986328125</LongitudeDegrees>
            </Position>
            <AltitudeMeters>794.79998779296875</AltitudeMeters>
            <DistanceMeters>NAN</DistanceMeters>
          </Trackpoint>
          <Trackpoint>
            <Time>2022-09-18T13:32:38.000Z</Time>
            <Position>
              <LatitudeDegrees>49.30943406186997890472412109375</LatitudeDegrees>
              <LongitudeDegrees>19.96628603897988796234130859375</LongitudeDegrees>
            </Position>
            <AltitudeMeters>795</AltitudeMeters>
            <DistanceMeters>NAN</DistanceMeters>
          </Trackpoint>
          <Trackpoint>
            <Time>2022-09-18T13:32:39.000Z</Time>
            <Position>
              <LatitudeDegrees>49.30943012237548828125</LatitudeDegrees>
              <LongitudeDegrees>19.96625871397554874420166015625</LongitudeDegrees>
            </Position>
            <AltitudeMeters>795.20001220703125</AltitudeMeters>
            <DistanceMeters>NAN</DistanceMeters>
          </Trackpoint>
          <Trackpoint>
            <Time>2022-09-18T13:32:46.000Z</Time>
            <Position>
              <LatitudeDegrees>49.30939600802958011627197265625</LatitudeDegrees>
              <LongitudeDegrees>19.96608420275151729583740234375</LongitudeDegrees>
            </Position>
            <AltitudeMeters>795.20001220703125</AltitudeMeters>
            <DistanceMeters>NAN</DistanceMeters>
          </Trackpoint>
          <Trackpoint>
            <Time>2022-09-18T13:32:56.000Z</Time>
            <Position>
              <LatitudeDegrees>49.30936046876013278961181640625</LatitudeDegrees>
              <LongitudeDegrees>19.96582956053316593170166015625</LongitudeDegrees>
            </Position>
            <AltitudeMeters>796.20001220703125</AltitudeMeters>
            <DistanceMeters>NAN</DistanceMeters>
          </Trackpoint>
          <Trackpoint>
            <Time>2022-09-18T13:32:57.000Z</Time>
            <Position>
              <LatitudeDegrees>49.30934856645762920379638671875</LatitudeDegrees>
              <LongitudeDegrees>19.96576376259326934814453125</LongitudeDegrees>
            </Position>
            <AltitudeMeters>796.4000244140625</AltitudeMeters>
            <DistanceMeters>NAN</DistanceMeters>
          </Trackpoint>
          <Trackpoint>
            <Time>2022-09-18T13:33:02.000Z</Time>
            <Position>
              <LatitudeDegrees>49.30932819843292236328125</LatitudeDegrees>
              <LongitudeDegrees>19.96565069071948528289794921875</LongitudeDegrees>
            </Position>
            <AltitudeMeters>796.5999755859375</AltitudeMeters>
            <DistanceMeters>NAN</DistanceMeters>
          </Trackpoint>
          <Trackpoint>
            <Time>2022-09-18T13:33:03.000Z</Time>
            <Position>
              <LatitudeDegrees>49.3093266896903514862060546875</LatitudeDegrees>
              <LongitudeDegrees>19.965637363493442535400390625</LongitudeDegrees>
            </Position>
            <AltitudeMeters>796.79998779296875</AltitudeMeters>
            <DistanceMeters>NAN</DistanceMeters>
          </Trackpoint>
          <Trackpoint>
            <Time>2022-09-18T13:33:04.000Z</Time>
            <Position>
              <LatitudeDegrees>49.3093206547200679779052734375</LatitudeDegrees>
              <LongitudeDegrees>19.9656318314373493194580078125</LongitudeDegrees>
            </Position>
            <AltitudeMeters>796.79998779296875</AltitudeMeters>
            <DistanceMeters>NAN</DistanceMeters>
          </Trackpoint>
          <Trackpoint>
            <Time>2022-09-18T13:33:10.000Z</Time>
            <Position>
              <LatitudeDegrees>49.30931218899786472320556640625</LatitudeDegrees>
              <LongitudeDegrees>19.965634681284427642822265625</LongitudeDegrees>
            </Position>
            <AltitudeMeters>797.20001220703125</AltitudeMeters>
            <DistanceMeters>NAN</DistanceMeters>
          </Trackpoint>
          <Trackpoint>
            <Time>2022-09-18T13:33:24.000Z</Time>
            <Position>
              <LatitudeDegrees>49.30930665694177150726318359375</LatitudeDegrees>
              <LongitudeDegrees>19.96563392691314220428466796875</LongitudeDegrees>
            </Position>
            <AltitudeMeters>797.5999755859375</AltitudeMeters>
            <DistanceMeters>NAN</DistanceMeters>
          </Trackpoint>
          <Trackpoint>
            <Time>2022-09-18T13:33:36.000Z</Time>
            <Position>
              <LatitudeDegrees>49.309295676648616790771484375</LatitudeDegrees>
              <LongitudeDegrees>19.965595118701457977294921875</LongitudeDegrees>
            </Position>
            <AltitudeMeters>797.20001220703125</AltitudeMeters>
            <DistanceMeters>NAN</DistanceMeters>
          </Trackpoint>
          <Trackpoint>
            <Time>2022-09-18T13:33:38.000Z</Time>
            <Position>
              <LatitudeDegrees>49.3092877976596355438232421875</LatitudeDegrees>
              <LongitudeDegrees>19.96555530466139316558837890625</LongitudeDegrees>
            </Position>
            <AltitudeMeters>797.20001220703125</AltitudeMeters>
            <DistanceMeters>NAN</DistanceMeters>
          </Trackpoint>
          <Trackpoint>
            <Time>2022-09-18T13:33:44.000Z</Time>
            <Position>
              <LatitudeDegrees>49.30925988592207431793212890625</LatitudeDegrees>
              <LongitudeDegrees>19.96540568768978118896484375</LongitudeDegrees>
            </Position>
            <AltitudeMeters>797.20001220703125</AltitudeMeters>
            <DistanceMeters>NAN</DistanceMeters>
          </Trackpoint>
          <Trackpoint>
            <Time>2022-09-18T13:33:48.000Z</Time>
            <Position>
              <LatitudeDegrees>49.30922401137650012969970703125</LatitudeDegrees>
              <LongitudeDegrees>19.96520988643169403076171875</LongitudeDegrees>
            </Position>
            <AltitudeMeters>797.4000244140625</AltitudeMeters>
            <DistanceMeters>NAN</DistanceMeters>
          </Trackpoint>
          <Trackpoint>
            <Time>2022-09-18T13:33:55.000Z</Time>
            <Position>
              <LatitudeDegrees>49.30916567333042621612548828125</LatitudeDegrees>
              <LongitudeDegrees>19.964963458478450775146484375</LongitudeDegrees>
            </Position>
            <AltitudeMeters>797.20001220703125</AltitudeMeters>
            <DistanceMeters>NAN</DistanceMeters>
          </Trackpoint>
          <Trackpoint>
            <Time>2022-09-18T13:34:01.000Z</Time>
            <Position>
              <LatitudeDegrees>49.30911437608301639556884765625</LatitudeDegrees>
              <LongitudeDegrees>19.96472097001969814300537109375</LongitudeDegrees>
            </Position>
            <AltitudeMeters>798.4000244140625</AltitudeMeters>
            <DistanceMeters>NAN</DistanceMeters>
          </Trackpoint>
          <Trackpoint>
            <Time>2022-09-18T13:34:05.000Z</Time>
            <Position>
              <LatitudeDegrees>49.309089481830596923828125</LatitudeDegrees>
              <LongitudeDegrees>19.96462306939065456390380859375</LongitudeDegrees>
            </Position>
            <AltitudeMeters>798.5999755859375</AltitudeMeters>
            <DistanceMeters>NAN</DistanceMeters>
          </Trackpoint>
          <Trackpoint>
            <Time>2022-09-18T13:34:12.000Z</Time>
            <Position>
              <LatitudeDegrees>49.3090236000716686248779296875</LatitudeDegrees>
              <LongitudeDegrees>19.96432383544743061065673828125</LongitudeDegrees>
            </Position>
            <AltitudeMeters>798.4000244140625</AltitudeMeters>
            <DistanceMeters>NAN</DistanceMeters>
          </Trackpoint>
          <Trackpoint>
            <Time>2022-09-18T13:34:22.000Z</Time>
            <Position>
              <LatitudeDegrees>49.3089411221444606781005859375</LatitudeDegrees>
              <LongitudeDegrees>19.9639745615422725677490234375</LongitudeDegrees>
            </Position>
            <AltitudeMeters>798.79998779296875</AltitudeMeters>
            <DistanceMeters>NAN</DistanceMeters>
          </Trackpoint>
          <Trackpoint>
            <Time>2022-09-18T13:34:28.000Z</Time>
            <Position>
              <LatitudeDegrees>49.3088998831808567047119140625</LatitudeDegrees>
              <LongitudeDegrees>19.96380306780338287353515625</LongitudeDegrees>
            </Position>
            <AltitudeMeters>799.4000244140625</AltitudeMeters>
            <DistanceMeters>NAN</DistanceMeters>
          </Trackpoint>
          <Trackpoint>
            <Time>2022-09-18T13:34:29.000Z</Time>
            <Position>
              <LatitudeDegrees>49.3088998831808567047119140625</LatitudeDegrees>
              <LongitudeDegrees>19.96380306780338287353515625</LongitudeDegrees>
            </Position>
            <AltitudeMeters>799.4000244140625</AltitudeMeters>
            <DistanceMeters>NAN</DistanceMeters>
          </Trackpoint>
          <Trackpoint>
            <Time>2022-09-18T13:34:34.000Z</Time>
            <Position>
              <LatitudeDegrees>49.30886509828269481658935546875</LatitudeDegrees>
              <LongitudeDegrees>19.96368027292191982269287109375</LongitudeDegrees>
            </Position>
            <AltitudeMeters>799.4000244140625</AltitudeMeters>
            <DistanceMeters>NAN</DistanceMeters>
          </Trackpoint>
          <Trackpoint>
            <Time>2022-09-18T13:34:39.000Z</Time>
            <Position>
              <LatitudeDegrees>49.30882520042359828948974609375</LatitudeDegrees>
              <LongitudeDegrees>19.96348246000707149505615234375</LongitudeDegrees>
            </Position>
            <AltitudeMeters>799.79998779296875</AltitudeMeters>
            <DistanceMeters>NAN</DistanceMeters>
          </Trackpoint>
          <Trackpoint>
            <Time>2022-09-18T13:34:45.000Z</Time>
            <Position>
              <LatitudeDegrees>49.30879569612443447113037109375</LatitudeDegrees>
              <LongitudeDegrees>19.96336176060140132904052734375</LongitudeDegrees>
            </Position>
            <AltitudeMeters>799.5999755859375</AltitudeMeters>
            <DistanceMeters>NAN</DistanceMeters>
          </Trackpoint>
          <Trackpoint>
            <Time>2022-09-18T13:34:46.000Z</Time>
            <Position>
              <LatitudeDegrees>49.30878982879221439361572265625</LatitudeDegrees>
              <LongitudeDegrees>19.96334164403378963470458984375</LongitudeDegrees>
            </Position>
            <AltitudeMeters>799.5999755859375</AltitudeMeters>
            <DistanceMeters>NAN</DistanceMeters>
          </Trackpoint>
          <Trackpoint>
            <Time>2022-09-18T13:34:53.000Z</Time>
            <Position>
              <LatitudeDegrees>49.3087275512516498565673828125</LatitudeDegrees>
              <LongitudeDegrees>19.96310167014598846435546875</LongitudeDegrees>
            </Position>
            <AltitudeMeters>799.20001220703125</AltitudeMeters>
            <DistanceMeters>NAN</DistanceMeters>
          </Trackpoint>
          <Trackpoint>
            <Time>2022-09-18T13:35:00.000Z</Time>
            <Position>
              <LatitudeDegrees>49.30867315270006656646728515625</LatitudeDegrees>
              <LongitudeDegrees>19.96286806650459766387939453125</LongitudeDegrees>
            </Position>
            <AltitudeMeters>799.4000244140625</AltitudeMeters>
            <DistanceMeters>NAN</DistanceMeters>
          </Trackpoint>
          <Trackpoint>
            <Time>2022-09-18T13:35:08.000Z</Time>
            <Position>
              <LatitudeDegrees>49.3086428940296173095703125</LatitudeDegrees>
              <LongitudeDegrees>19.9627025239169597625732421875</LongitudeDegrees>
            </Position>
            <AltitudeMeters>800.20001220703125</AltitudeMeters>
            <DistanceMeters>NAN</DistanceMeters>
          </Trackpoint>
          <Trackpoint>
            <Time>2022-09-18T13:35:09.000Z</Time>
            <Position>
              <LatitudeDegrees>49.30864130146801471710205078125</LatitudeDegrees>
              <LongitudeDegrees>19.96268433518707752227783203125</LongitudeDegrees>
            </Position>
            <AltitudeMeters>800.20001220703125</AltitudeMeters>
            <DistanceMeters>NAN</DistanceMeters>
          </Trackpoint>
          <Trackpoint>
            <Time>2022-09-18T13:35:12.000Z</Time>
            <Position>
              <LatitudeDegrees>49.30867440998554229736328125</LatitudeDegrees>
              <LongitudeDegrees>19.9626059643924236297607421875</LongitudeDegrees>
            </Position>
            <AltitudeMeters>800.4000244140625</AltitudeMeters>
            <DistanceMeters>NAN</DistanceMeters>
          </Trackpoint>
          <Trackpoint>
            <Time>2022-09-18T13:35:14.000Z</Time>
            <Position>
              <LatitudeDegrees>49.30868916213512420654296875</LatitudeDegrees>
              <LongitudeDegrees>19.96259045787155628204345703125</LongitudeDegrees>
            </Position>
            <AltitudeMeters>800.4000244140625</AltitudeMeters>
            <DistanceMeters>NAN</DistanceMeters>
          </Trackpoint>
          <Trackpoint>
            <Time>2022-09-18T13:35:19.000Z</Time>
            <Position>
              <LatitudeDegrees>49.30871757678687572479248046875</LatitudeDegrees>
              <LongitudeDegrees>19.96254444122314453125</LongitudeDegrees>
            </Position>
            <AltitudeMeters>800.20001220703125</AltitudeMeters>
            <DistanceMeters>NAN</DistanceMeters>
          </Trackpoint>
          <Trackpoint>
            <Time>2022-09-18T13:35:24.000Z</Time>
            <Position>
              <LatitudeDegrees>49.30870047770440578460693359375</LatitudeDegrees>
              <LongitudeDegrees>19.962531365454196929931640625</LongitudeDegrees>
            </Position>
            <AltitudeMeters>800.20001220703125</AltitudeMeters>
            <DistanceMeters>NAN</DistanceMeters>
          </Trackpoint>
          <Trackpoint>
            <Time>2022-09-18T13:35:28.000Z</Time>
            <Position>
              <LatitudeDegrees>49.30867767892777919769287109375</LatitudeDegrees>
              <LongitudeDegrees>19.9625254981219768524169921875</LongitudeDegrees>
            </Position>
            <AltitudeMeters>800.20001220703125</AltitudeMeters>
            <DistanceMeters>NAN</DistanceMeters>
          </Trackpoint>
          <Trackpoint>
            <Time>2022-09-18T13:35:29.000Z</Time>
            <Position>
              <LatitudeDegrees>49.308668039739131927490234375</LatitudeDegrees>
              <LongitudeDegrees>19.96252390556037425994873046875</LongitudeDegrees>
            </Position>
            <AltitudeMeters>800.20001220703125</AltitudeMeters>
            <DistanceMeters>NAN</DistanceMeters>
          </Trackpoint>
          <Trackpoint>
            <Time>2022-09-18T13:35:34.000Z</Time>
            <Position>
              <LatitudeDegrees>49.30862889625132083892822265625</LatitudeDegrees>
              <LongitudeDegrees>19.96254653669893741607666015625</LongitudeDegrees>
            </Position>
            <AltitudeMeters>800.4000244140625</AltitudeMeters>
            <DistanceMeters>NAN</DistanceMeters>
          </Trackpoint>
          <Trackpoint>
            <Time>2022-09-18T13:35:36.000Z</Time>
            <Position>
              <LatitudeDegrees>49.30860324762761592864990234375</LatitudeDegrees>
              <LongitudeDegrees>19.96256145648658275604248046875</LongitudeDegrees>
            </Position>
            <AltitudeMeters>800.4000244140625</AltitudeMeters>
            <DistanceMeters>NAN</DistanceMeters>
          </Trackpoint>
          <Trackpoint>
            <Time>2022-09-18T13:35:40.000Z</Time>
            <Position>
              <LatitudeDegrees>49.30855832062661647796630859375</LatitudeDegrees>
              <LongitudeDegrees>19.96254284866154193878173828125</LongitudeDegrees>
            </Position>
            <AltitudeMeters>800.4000244140625</AltitudeMeters>
            <DistanceMeters>NAN</DistanceMeters>
          </Trackpoint>
          <Trackpoint>
            <Time>2022-09-18T13:35:41.000Z</Time>
            <Position>
              <LatitudeDegrees>49.30854021571576595306396484375</LatitudeDegrees>
              <LongitudeDegrees>19.96252834796905517578125</LongitudeDegrees>
            </Position>
            <AltitudeMeters>800.4000244140625</AltitudeMeters>
            <DistanceMeters>NAN</DistanceMeters>
          </Trackpoint>
          <Trackpoint>
            <Time>2022-09-18T13:35:44.000Z</Time>
            <Position>
              <LatitudeDegrees>49.308507777750492095947265625</LatitudeDegrees>
              <LongitudeDegrees>19.9624269269406795501708984375</LongitudeDegrees>
            </Position>
            <AltitudeMeters>800.5999755859375</AltitudeMeters>
            <DistanceMeters>NAN</DistanceMeters>
          </Trackpoint>
          <Trackpoint>
            <Time>2022-09-18T13:35:46.000Z</Time>
            <Position>
              <LatitudeDegrees>49.30851406417787075042724609375</LatitudeDegrees>
              <LongitudeDegrees>19.96236674487590789794921875</LongitudeDegrees>
            </Position>
            <AltitudeMeters>800.5999755859375</AltitudeMeters>
            <DistanceMeters>NAN</DistanceMeters>
          </Trackpoint>
          <Trackpoint>
            <Time>2022-09-18T13:35:53.000Z</Time>
            <Position>
              <LatitudeDegrees>49.308479614555835723876953125</LatitudeDegrees>
              <LongitudeDegrees>19.96219030581414699554443359375</LongitudeDegrees>
            </Position>
            <AltitudeMeters>800.79998779296875</AltitudeMeters>
            <DistanceMeters>NAN</DistanceMeters>
          </Trackpoint>
          <Trackpoint>
            <Time>2022-09-18T13:35:57.000Z</Time>
            <Position>
              <LatitudeDegrees>49.30842697620391845703125</LatitudeDegrees>
              <LongitudeDegrees>19.96206440962851047515869140625</LongitudeDegrees>
            </Position>
            <AltitudeMeters>801.20001220703125</AltitudeMeters>
            <DistanceMeters>NAN</DistanceMeters>
          </Trackpoint>
          <Trackpoint>
            <Time>2022-09-18T13:35:58.000Z</Time>
            <Position>
              <LatitudeDegrees>49.30842697620391845703125</LatitudeDegrees>
              <LongitudeDegrees>19.96206440962851047515869140625</LongitudeDegrees>
            </Position>
            <AltitudeMeters>801.20001220703125</AltitudeMeters>
            <DistanceMeters>NAN</DistanceMeters>
          </Trackpoint>
          <Trackpoint>
            <Time>2022-09-18T13:36:02.000Z</Time>
            <Position>
              <LatitudeDegrees>49.3083748407661914825439453125</LatitudeDegrees>
              <LongitudeDegrees>19.9619246833026409149169921875</LongitudeDegrees>
            </Position>
            <AltitudeMeters>801.4000244140625</AltitudeMeters>
            <DistanceMeters>NAN</DistanceMeters>
          </Trackpoint>
          <Trackpoint>
            <Time>2022-09-18T13:36:05.000Z</Time>
            <Position>
              <LatitudeDegrees>49.30834692902863025665283203125</LatitudeDegrees>
              <LongitudeDegrees>19.9618700332939624786376953125</LongitudeDegrees>
            </Position>
            <AltitudeMeters>801.20001220703125</AltitudeMeters>
            <DistanceMeters>NAN</DistanceMeters>
          </Trackpoint>
          <Trackpoint>
            <Time>2022-09-18T13:36:11.000Z</Time>
            <Position>
              <LatitudeDegrees>49.308267720043659210205078125</LatitudeDegrees>
              <LongitudeDegrees>19.96177422814071178436279296875</LongitudeDegrees>
            </Position>
            <AltitudeMeters>801.4000244140625</AltitudeMeters>
            <DistanceMeters>NAN</DistanceMeters>
          </Trackpoint>
          <Trackpoint>
            <Time>2022-09-18T13:36:18.000Z</Time>
            <Position>
              <LatitudeDegrees>49.30813419632613658905029296875</LatitudeDegrees>
              <LongitudeDegrees>19.96160558424890041351318359375</LongitudeDegrees>
            </Position>
            <AltitudeMeters>802</AltitudeMeters>
            <DistanceMeters>NAN</DistanceMeters>
          </Trackpoint>
          <Trackpoint>
            <Time>2022-09-18T13:36:25.000Z</Time>
            <Position>
              <LatitudeDegrees>49.3080254830420017242431640625</LatitudeDegrees>
              <LongitudeDegrees>19.961455799639225006103515625</LongitudeDegrees>
            </Position>
            <AltitudeMeters>802</AltitudeMeters>
            <DistanceMeters>NAN</DistanceMeters>
          </Trackpoint>
          <Trackpoint>
            <Time>2022-09-18T13:36:30.000Z</Time>
            <Position>
              <LatitudeDegrees>49.3079470284283161163330078125</LatitudeDegrees>
              <LongitudeDegrees>19.9613429792225360870361328125</LongitudeDegrees>
            </Position>
            <AltitudeMeters>802.5999755859375</AltitudeMeters>
            <DistanceMeters>NAN</DistanceMeters>
          </Trackpoint>
          <Trackpoint>
            <Time>2022-09-18T13:36:33.000Z</Time>
            <Position>
              <LatitudeDegrees>49.30790101177990436553955078125</LatitudeDegrees>
              <LongitudeDegrees>19.96128271333873271942138671875</LongitudeDegrees>
            </Position>
            <AltitudeMeters>802.79998779296875</AltitudeMeters>
            <DistanceMeters>NAN</DistanceMeters>
          </Trackpoint>
          <Trackpoint>
            <Time>2022-09-18T13:36:40.000Z</Time>
            <Position>
              <LatitudeDegrees>49.3078033626079559326171875</LatitudeDegrees>
              <LongitudeDegrees>19.96114491485059261322021484375</LongitudeDegrees>
            </Position>
            <AltitudeMeters>803.20001220703125</AltitudeMeters>
            <DistanceMeters>NAN</DistanceMeters>
          </Trackpoint>
          <Trackpoint>
            <Time>2022-09-18T13:36:41.000Z</Time>
            <Position>
              <LatitudeDegrees>49.3078033626079559326171875</LatitudeDegrees>
              <LongitudeDegrees>19.96114491485059261322021484375</LongitudeDegrees>
            </Position>
            <AltitudeMeters>803.20001220703125</AltitudeMeters>
            <DistanceMeters>NAN</DistanceMeters>
          </Trackpoint>
          <Trackpoint>
            <Time>2022-09-18T13:36:44.000Z</Time>
            <Position>
              <LatitudeDegrees>49.30774762295186519622802734375</LatitudeDegrees>
              <LongitudeDegrees>19.96108037419617176055908203125</LongitudeDegrees>
            </Position>
            <AltitudeMeters>803.79998779296875</AltitudeMeters>
            <DistanceMeters>NAN</DistanceMeters>
          </Trackpoint>
          <Trackpoint>
            <Time>2022-09-18T13:36:47.000Z</Time>
            <Position>
              <LatitudeDegrees>49.30771149694919586181640625</LatitudeDegrees>
              <LongitudeDegrees>19.961005859076976776123046875</LongitudeDegrees>
            </Position>
            <AltitudeMeters>803.79998779296875</AltitudeMeters>
            <DistanceMeters>NAN</DistanceMeters>
          </Trackpoint>
          <Trackpoint>
            <Time>2022-09-18T13:36:49.000Z</Time>
            <Position>
              <LatitudeDegrees>49.3077036179602146148681640625</LatitudeDegrees>
              <LongitudeDegrees>19.9609567411243915557861328125</LongitudeDegrees>
            </Position>
            <AltitudeMeters>804</AltitudeMeters>
            <DistanceMeters>NAN</DistanceMeters>
          </Trackpoint>
          <Trackpoint>
            <Time>2022-09-18T13:36:52.000Z</Time>
            <Position>
              <LatitudeDegrees>49.30768157355487346649169921875</LatitudeDegrees>
              <LongitudeDegrees>19.96091776527464389801025390625</LongitudeDegrees>
            </Position>
            <AltitudeMeters>803.79998779296875</AltitudeMeters>
            <DistanceMeters>NAN</DistanceMeters>
          </Trackpoint>
          <Trackpoint>
            <Time>2022-09-18T13:36:56.000Z</Time>
            <Position>
              <LatitudeDegrees>49.3076187931001186370849609375</LatitudeDegrees>
              <LongitudeDegrees>19.9608300067484378814697265625</LongitudeDegrees>
            </Position>
            <AltitudeMeters>804</AltitudeMeters>
            <DistanceMeters>NAN</DistanceMeters>
          </Trackpoint>
          <Trackpoint>
            <Time>2022-09-18T13:37:01.000Z</Time>
            <Position>
              <LatitudeDegrees>49.3075477145612239837646484375</LatitudeDegrees>
              <LongitudeDegrees>19.96077761985361576080322265625</LongitudeDegrees>
            </Position>
            <AltitudeMeters>804.20001220703125</AltitudeMeters>
            <DistanceMeters>NAN</DistanceMeters>
          </Trackpoint>
          <Trackpoint>
            <Time>2022-09-18T13:37:08.000Z</Time>
            <Position>
              <LatitudeDegrees>49.30741469375789165496826171875</LatitudeDegrees>
              <LongitudeDegrees>19.96061618439853191375732421875</LongitudeDegrees>
            </Position>
            <AltitudeMeters>804.79998779296875</AltitudeMeters>
            <DistanceMeters>NAN</DistanceMeters>
          </Trackpoint>
          <Trackpoint>
            <Time>2022-09-18T13:37:11.000Z</Time>
            <Position>
              <LatitudeDegrees>49.30738200433552265167236328125</LatitudeDegrees>
              <LongitudeDegrees>19.96057544834911823272705078125</LongitudeDegrees>
            </Position>
            <AltitudeMeters>804.79998779296875</AltitudeMeters>
            <DistanceMeters>NAN</DistanceMeters>
          </Trackpoint>
          <Trackpoint>
            <Time>2022-09-18T13:37:17.000Z</Time>
            <Position>
              <LatitudeDegrees>49.307307489216327667236328125</LatitudeDegrees>
              <LongitudeDegrees>19.9604940600693225860595703125</LongitudeDegrees>
            </Position>
            <AltitudeMeters>804.5999755859375</AltitudeMeters>
            <DistanceMeters>NAN</DistanceMeters>
          </Trackpoint>
          <Trackpoint>
            <Time>2022-09-18T13:37:20.000Z</Time>
            <Position>
              <LatitudeDegrees>49.3072680942714214324951171875</LatitudeDegrees>
              <LongitudeDegrees>19.960436560213565826416015625</LongitudeDegrees>
            </Position>
            <AltitudeMeters>805.20001220703125</AltitudeMeters>
            <DistanceMeters>NAN</DistanceMeters>
          </Trackpoint>
          <Trackpoint>
            <Time>2022-09-18T13:37:22.000Z</Time>
            <Position>
              <LatitudeDegrees>49.307236410677433013916015625</LatitudeDegrees>
              <LongitudeDegrees>19.9604015238583087921142578125</LongitudeDegrees>
            </Position>
            <AltitudeMeters>805.4000244140625</AltitudeMeters>
            <DistanceMeters>NAN</DistanceMeters>
          </Trackpoint>
          <Trackpoint>
            <Time>2022-09-18T13:37:27.000Z</Time>
            <Position>
              <LatitudeDegrees>49.30716164410114288330078125</LatitudeDegrees>
              <LongitudeDegrees>19.9603079818189144134521484375</LongitudeDegrees>
            </Position>
            <AltitudeMeters>805.5999755859375</AltitudeMeters>
            <DistanceMeters>NAN</DistanceMeters>
          </Trackpoint>
          <Trackpoint>
            <Time>2022-09-18T13:37:28.000Z</Time>
            <Position>
              <LatitudeDegrees>49.30714714340865612030029296875</LatitudeDegrees>
              <LongitudeDegrees>19.96029012836515903472900390625</LongitudeDegrees>
            </Position>
            <AltitudeMeters>805.5999755859375</AltitudeMeters>
            <DistanceMeters>NAN</DistanceMeters>
          </Trackpoint>
          <Trackpoint>
            <Time>2022-09-18T13:37:29.000Z</Time>
            <Position>
              <LatitudeDegrees>49.307132475078105926513671875</LatitudeDegrees>
              <LongitudeDegrees>19.96027420274913311004638671875</LongitudeDegrees>
            </Position>
            <AltitudeMeters>805.79998779296875</AltitudeMeters>
            <DistanceMeters>NAN</DistanceMeters>
          </Trackpoint>
          <Trackpoint>
            <Time>2022-09-18T13:37:38.000Z</Time>
            <Position>
              <LatitudeDegrees>49.30701638571918010711669921875</LatitudeDegrees>
              <LongitudeDegrees>19.96009734459221363067626953125</LongitudeDegrees>
            </Position>
            <AltitudeMeters>806.20001220703125</AltitudeMeters>
            <DistanceMeters>NAN</DistanceMeters>
          </Trackpoint>
          <Trackpoint>
            <Time>2022-09-18T13:37:47.000Z</Time>
            <Position>
              <LatitudeDegrees>49.30688780732452869415283203125</LatitudeDegrees>
              <LongitudeDegrees>19.95990791358053684234619140625</LongitudeDegrees>
            </Position>
            <AltitudeMeters>806.79998779296875</AltitudeMeters>
            <DistanceMeters>NAN</DistanceMeters>
          </Trackpoint>
          <Trackpoint>
            <Time>2022-09-18T13:37:48.000Z</Time>
            <Position>
              <LatitudeDegrees>49.3068764917552471160888671875</LatitudeDegrees>
              <LongitudeDegrees>19.959892742335796356201171875</LongitudeDegrees>
            </Position>
            <AltitudeMeters>806.79998779296875</AltitudeMeters>
            <DistanceMeters>NAN</DistanceMeters>
          </Trackpoint>
          <Trackpoint>
            <Time>2022-09-18T13:37:52.000Z</Time>
            <Position>
              <LatitudeDegrees>49.30682678706943988800048828125</LatitudeDegrees>
              <LongitudeDegrees>19.9598238430917263031005859375</LongitudeDegrees>
            </Position>
            <AltitudeMeters>807.20001220703125</AltitudeMeters>
            <DistanceMeters>NAN</DistanceMeters>
          </Trackpoint>
          <Trackpoint>
            <Time>2022-09-18T13:38:02.000Z</Time>
            <Position>
              <LatitudeDegrees>49.306688569486141204833984375</LatitudeDegrees>
              <LongitudeDegrees>19.95964488945901393890380859375</LongitudeDegrees>
            </Position>
            <AltitudeMeters>807.5999755859375</AltitudeMeters>
            <DistanceMeters>NAN</DistanceMeters>
          </Trackpoint>
          <Trackpoint>
            <Time>2022-09-18T13:38:03.000Z</Time>
            <Position>
              <LatitudeDegrees>49.3066763319075107574462890625</LatitudeDegrees>
              <LongitudeDegrees>19.95962711982429027557373046875</LongitudeDegrees>
            </Position>
            <AltitudeMeters>807.5999755859375</AltitudeMeters>
            <DistanceMeters>NAN</DistanceMeters>
          </Trackpoint>
          <Trackpoint>
            <Time>2022-09-18T13:38:06.000Z</Time>
            <Position>
              <LatitudeDegrees>49.30664540268480777740478515625</LatitudeDegrees>
              <LongitudeDegrees>19.9595881439745426177978515625</LongitudeDegrees>
            </Position>
            <AltitudeMeters>808</AltitudeMeters>
            <DistanceMeters>NAN</DistanceMeters>
          </Trackpoint>
          <Trackpoint>
            <Time>2022-09-18T13:38:08.000Z</Time>
            <Position>
              <LatitudeDegrees>49.3065936863422393798828125</LatitudeDegrees>
              <LongitudeDegrees>19.95952921919524669647216796875</LongitudeDegrees>
            </Position>
            <AltitudeMeters>808.20001220703125</AltitudeMeters>
            <DistanceMeters>NAN</DistanceMeters>
          </Trackpoint>
          <Trackpoint>
            <Time>2022-09-18T13:38:14.000Z</Time>
            <Position>
              <LatitudeDegrees>49.30652554146945476531982421875</LatitudeDegrees>
              <LongitudeDegrees>19.9594183266162872314453125</LongitudeDegrees>
            </Position>
            <AltitudeMeters>809</AltitudeMeters>
            <DistanceMeters>NAN</DistanceMeters>
          </Trackpoint>
          <Trackpoint>
            <Time>2022-09-18T13:38:23.000Z</Time>
            <Position>
              <LatitudeDegrees>49.30638606660068035125732421875</LatitudeDegrees>
              <LongitudeDegrees>19.959242641925811767578125</LongitudeDegrees>
            </Position>
            <AltitudeMeters>809.79998779296875</AltitudeMeters>
            <DistanceMeters>NAN</DistanceMeters>
          </Trackpoint>
          <Trackpoint>
            <Time>2022-09-18T13:38:30.000Z</Time>
            <Position>
              <LatitudeDegrees>49.306293614208698272705078125</LatitudeDegrees>
              <LongitudeDegrees>19.9591284804046154022216796875</LongitudeDegrees>
            </Position>
            <AltitudeMeters>809.5999755859375</AltitudeMeters>
            <DistanceMeters>NAN</DistanceMeters>
          </Trackpoint>
          <Trackpoint>
            <Time>2022-09-18T13:38:32.000Z</Time>
            <Position>
              <LatitudeDegrees>49.3062766827642917633056640625</LatitudeDegrees>
              <LongitudeDegrees>19.95910660363733768463134765625</LongitudeDegrees>
            </Position>
            <AltitudeMeters>809.79998779296875</AltitudeMeters>
            <DistanceMeters>NAN</DistanceMeters>
          </Trackpoint>
          <Trackpoint>
            <Time>2022-09-18T13:38:33.000Z</Time>
            <Position>
              <LatitudeDegrees>49.30625329725444316864013671875</LatitudeDegrees>
              <LongitudeDegrees>19.95905346237123012542724609375</LongitudeDegrees>
            </Position>
            <AltitudeMeters>810</AltitudeMeters>
            <DistanceMeters>NAN</DistanceMeters>
          </Trackpoint>
          <Trackpoint>
            <Time>2022-09-18T13:38:35.000Z</Time>
            <Position>
              <LatitudeDegrees>49.3062367849051952362060546875</LatitudeDegrees>
              <LongitudeDegrees>19.95903301052749156951904296875</LongitudeDegrees>
            </Position>
            <AltitudeMeters>810</AltitudeMeters>
            <DistanceMeters>NAN</DistanceMeters>
          </Trackpoint>
          <Trackpoint>
            <Time>2022-09-18T13:38:37.000Z</Time>
            <Position>
              <LatitudeDegrees>49.30618993006646633148193359375</LatitudeDegrees>
              <LongitudeDegrees>19.95898313820362091064453125</LongitudeDegrees>
            </Position>
            <AltitudeMeters>810.20001220703125</AltitudeMeters>
            <DistanceMeters>NAN</DistanceMeters>
          </Trackpoint>
          <Trackpoint>
            <Time>2022-09-18T13:38:42.000Z</Time>
            <Position>
              <LatitudeDegrees>49.30612488649785518646240234375</LatitudeDegrees>
              <LongitudeDegrees>19.95891935192048549652099609375</LongitudeDegrees>
            </Position>
            <AltitudeMeters>810.79998779296875</AltitudeMeters>
            <DistanceMeters>NAN</DistanceMeters>
          </Trackpoint>
          <Trackpoint>
            <Time>2022-09-18T13:38:49.000Z</Time>
            <Position>
              <LatitudeDegrees>49.3059970624744892120361328125</LatitudeDegrees>
              <LongitudeDegrees>19.9588327668607234954833984375</LongitudeDegrees>
            </Position>
            <AltitudeMeters>811</AltitudeMeters>
            <DistanceMeters>NAN</DistanceMeters>
          </Trackpoint>
          <Trackpoint>
            <Time>2022-09-18T13:38:52.000Z</Time>
            <Position>
              <LatitudeDegrees>49.30597468279302120208740234375</LatitudeDegrees>
              <LongitudeDegrees>19.95882245711982250213623046875</LongitudeDegrees>
            </Position>
            <AltitudeMeters>811.4000244140625</AltitudeMeters>
            <DistanceMeters>NAN</DistanceMeters>
          </Trackpoint>
          <Trackpoint>
            <Time>2022-09-18T13:38:55.000Z</Time>
            <Position>
              <LatitudeDegrees>49.30597166530787944793701171875</LatitudeDegrees>
              <LongitudeDegrees>19.95882731862366199493408203125</LongitudeDegrees>
            </Position>
            <AltitudeMeters>811.4000244140625</AltitudeMeters>
            <DistanceMeters>NAN</DistanceMeters>
          </Trackpoint>
          <Trackpoint>
            <Time>2022-09-18T13:39:01.000Z</Time>
            <Position>
              <LatitudeDegrees>49.30597870610654354095458984375</LatitudeDegrees>
              <LongitudeDegrees>19.9588223733007907867431640625</LongitudeDegrees>
            </Position>
            <AltitudeMeters>811.5999755859375</AltitudeMeters>
            <DistanceMeters>NAN</DistanceMeters>
          </Trackpoint>
          <Trackpoint>
            <Time>2022-09-18T13:39:07.000Z</Time>
            <Position>
              <LatitudeDegrees>49.305978454649448394775390625</LatitudeDegrees>
              <LongitudeDegrees>19.9588257260620594024658203125</LongitudeDegrees>
            </Position>
            <AltitudeMeters>811.4000244140625</AltitudeMeters>
            <DistanceMeters>NAN</DistanceMeters>
          </Trackpoint>
          <Trackpoint>
            <Time>2022-09-18T13:39:14.000Z</Time>
            <Position>
              <LatitudeDegrees>49.305978454649448394775390625</LatitudeDegrees>
              <LongitudeDegrees>19.9588257260620594024658203125</LongitudeDegrees>
            </Position>
            <AltitudeMeters>811.4000244140625</AltitudeMeters>
            <DistanceMeters>NAN</DistanceMeters>
          </Trackpoint>
          <Trackpoint>
            <Time>2022-09-18T13:39:15.000Z</Time>
            <Position>
              <LatitudeDegrees>49.30597669444978237152099609375</LatitudeDegrees>
              <LongitudeDegrees>19.9588270671665668487548828125</LongitudeDegrees>
            </Position>
            <AltitudeMeters>811.4000244140625</AltitudeMeters>
            <DistanceMeters>NAN</DistanceMeters>
          </Trackpoint>
          <Trackpoint>
            <Time>2022-09-18T13:39:18.000Z</Time>
            <Position>
              <LatitudeDegrees>49.30592715740203857421875</LatitudeDegrees>
              <LongitudeDegrees>19.958836622536182403564453125</LongitudeDegrees>
            </Position>
            <AltitudeMeters>811.4000244140625</AltitudeMeters>
            <DistanceMeters>NAN</DistanceMeters>
          </Trackpoint>
          <Trackpoint>
            <Time>2022-09-18T13:39:19.000Z</Time>
            <Position>
              <LatitudeDegrees>49.3059150874614715576171875</LatitudeDegrees>
              <LongitudeDegrees>19.95883251540362834930419921875</LongitudeDegrees>
            </Position>
            <AltitudeMeters>811.4000244140625</AltitudeMeters>
            <DistanceMeters>NAN</DistanceMeters>
          </Trackpoint>
          <Trackpoint>
            <Time>2022-09-18T13:39:23.000Z</Time>
            <Position>
              <LatitudeDegrees>49.3058207072317600250244140625</LatitudeDegrees>
              <LongitudeDegrees>19.958802424371242523193359375</LongitudeDegrees>
            </Position>
            <AltitudeMeters>811.5999755859375</AltitudeMeters>
            <DistanceMeters>NAN</DistanceMeters>
          </Trackpoint>
          <Trackpoint>
            <Time>2022-09-18T13:39:26.000Z</Time>
            <Position>
              <LatitudeDegrees>49.3057814799249172210693359375</LatitudeDegrees>
              <LongitudeDegrees>19.95879664085805416107177734375</LongitudeDegrees>
            </Position>
            <AltitudeMeters>811.5999755859375</AltitudeMeters>
            <DistanceMeters>NAN</DistanceMeters>
          </Trackpoint>
          <Trackpoint>
            <Time>2022-09-18T13:39:27.000Z</Time>
            <Position>
              <LatitudeDegrees>49.3057509697973728179931640625</LatitudeDegrees>
              <LongitudeDegrees>19.958785660564899444580078125</LongitudeDegrees>
            </Position>
            <AltitudeMeters>811.5999755859375</AltitudeMeters>
            <DistanceMeters>NAN</DistanceMeters>
          </Trackpoint>
          <Trackpoint>
            <Time>2022-09-18T13:39:31.000Z</Time>
            <Position>
              <LatitudeDegrees>49.30567838251590728759765625</LatitudeDegrees>
              <LongitudeDegrees>19.958766214549541473388671875</LongitudeDegrees>
            </Position>
            <AltitudeMeters>811.79998779296875</AltitudeMeters>
            <DistanceMeters>NAN</DistanceMeters>
          </Trackpoint>
          <Trackpoint>
            <Time>2022-09-18T13:39:35.000Z</Time>
            <Position>
              <LatitudeDegrees>49.30560973472893238067626953125</LatitudeDegrees>
              <LongitudeDegrees>19.95874433778226375579833984375</LongitudeDegrees>
            </Position>
            <AltitudeMeters>812.4000244140625</AltitudeMeters>
            <DistanceMeters>NAN</DistanceMeters>
          </Trackpoint>
          <Trackpoint>
            <Time>2022-09-18T13:39:37.000Z</Time>
            <Position>
              <LatitudeDegrees>49.30559196509420871734619140625</LatitudeDegrees>
              <LongitudeDegrees>19.95873729698359966278076171875</LongitudeDegrees>
            </Position>
            <AltitudeMeters>812.20001220703125</AltitudeMeters>
            <DistanceMeters>NAN</DistanceMeters>
          </Trackpoint>
          <Trackpoint>
            <Time>2022-09-18T13:39:39.000Z</Time>
            <Position>
              <LatitudeDegrees>49.305539242923259735107421875</LatitudeDegrees>
              <LongitudeDegrees>19.95871013961732387542724609375</LongitudeDegrees>
            </Position>
            <AltitudeMeters>812.4000244140625</AltitudeMeters>
            <DistanceMeters>NAN</DistanceMeters>
          </Trackpoint>
          <Trackpoint>
            <Time>2022-09-18T13:39:41.000Z</Time>
            <Position>
              <LatitudeDegrees>49.305507726967334747314453125</LatitudeDegrees>
              <LongitudeDegrees>19.95868918485939502716064453125</LongitudeDegrees>
            </Position>
            <AltitudeMeters>812.4000244140625</AltitudeMeters>
            <DistanceMeters>NAN</DistanceMeters>
          </Trackpoint>
          <Trackpoint>
            <Time>2022-09-18T13:39:44.000Z</Time>
            <Position>
              <LatitudeDegrees>49.305474869906902313232421875</LatitudeDegrees>
              <LongitudeDegrees>19.9586681462824344635009765625</LongitudeDegrees>
            </Position>
            <AltitudeMeters>812.5999755859375</AltitudeMeters>
            <DistanceMeters>NAN</DistanceMeters>
          </Trackpoint>
          <Trackpoint>
            <Time>2022-09-18T13:39:46.000Z</Time>
            <Position>
              <LatitudeDegrees>49.30542231537401676177978515625</LatitudeDegrees>
              <LongitudeDegrees>19.95864341966807842254638671875</LongitudeDegrees>
            </Position>
            <AltitudeMeters>812.79998779296875</AltitudeMeters>
            <DistanceMeters>NAN</DistanceMeters>
          </Trackpoint>
          <Trackpoint>
            <Time>2022-09-18T13:39:49.000Z</Time>
            <Position>
              <LatitudeDegrees>49.30538660846650600433349609375</LatitudeDegrees>
              <LongitudeDegrees>19.9586295895278453826904296875</LongitudeDegrees>
            </Position>
            <AltitudeMeters>813</AltitudeMeters>
            <DistanceMeters>NAN</DistanceMeters>
          </Trackpoint>
          <Trackpoint>
            <Time>2022-09-18T13:39:53.000Z</Time>
            <Position>
              <LatitudeDegrees>49.30532240308821201324462890625</LatitudeDegrees>
              <LongitudeDegrees>19.9586069583892822265625</LongitudeDegrees>
            </Position>
            <AltitudeMeters>813.20001220703125</AltitudeMeters>
            <DistanceMeters>NAN</DistanceMeters>
          </Trackpoint>
          <Trackpoint>
            <Time>2022-09-18T13:39:55.000Z</Time>
            <Position>
              <LatitudeDegrees>49.30527647025883197784423828125</LatitudeDegrees>
              <LongitudeDegrees>19.958591870963573455810546875</LongitudeDegrees>
            </Position>
            <AltitudeMeters>813.20001220703125</AltitudeMeters>
            <DistanceMeters>NAN</DistanceMeters>
          </Trackpoint>
          <Trackpoint>
            <Time>2022-09-18T13:40:03.000Z</Time>
            <Position>
              <LatitudeDegrees>49.30513163097202777862548828125</LatitudeDegrees>
              <LongitudeDegrees>19.95853764005005359649658203125</LongitudeDegrees>
            </Position>
            <AltitudeMeters>813.4000244140625</AltitudeMeters>
            <DistanceMeters>NAN</DistanceMeters>
          </Trackpoint>
          <Trackpoint>
            <Time>2022-09-18T13:40:06.000Z</Time>
            <Position>
              <LatitudeDegrees>49.30509843863546848297119140625</LatitudeDegrees>
              <LongitudeDegrees>19.95852791704237461090087890625</LongitudeDegrees>
            </Position>
            <AltitudeMeters>813.5999755859375</AltitudeMeters>
            <DistanceMeters>NAN</DistanceMeters>
          </Trackpoint>
          <Trackpoint>
            <Time>2022-09-18T13:40:10.000Z</Time>
            <Position>
              <LatitudeDegrees>49.30503658019006252288818359375</LatitudeDegrees>
              <LongitudeDegrees>19.9584984965622425079345703125</LongitudeDegrees>
            </Position>
            <AltitudeMeters>813.79998779296875</AltitudeMeters>
            <DistanceMeters>NAN</DistanceMeters>
          </Trackpoint>
          <Trackpoint>
            <Time>2022-09-18T13:40:11.000Z</Time>
            <Position>
              <LatitudeDegrees>49.30503658019006252288818359375</LatitudeDegrees>
              <LongitudeDegrees>19.9584984965622425079345703125</LongitudeDegrees>
            </Position>
            <AltitudeMeters>813.79998779296875</AltitudeMeters>
            <DistanceMeters>NAN</DistanceMeters>
          </Trackpoint>
          <Trackpoint>
            <Time>2022-09-18T13:40:13.000Z</Time>
            <Position>
              <LatitudeDegrees>49.30498813278973102569580078125</LatitudeDegrees>
              <LongitudeDegrees>19.95848349295556545257568359375</LongitudeDegrees>
            </Position>
            <AltitudeMeters>813.79998779296875</AltitudeMeters>
            <DistanceMeters>NAN</DistanceMeters>
          </Trackpoint>
          <Trackpoint>
            <Time>2022-09-18T13:40:15.000Z</Time>
            <Position>
              <LatitudeDegrees>49.30498394183814525604248046875</LatitudeDegrees>
              <LongitudeDegrees>19.9584897793829441070556640625</LongitudeDegrees>
            </Position>
            <AltitudeMeters>813.79998779296875</AltitudeMeters>
            <DistanceMeters>NAN</DistanceMeters>
          </Trackpoint>
          <Trackpoint>
            <Time>2022-09-18T13:40:21.000Z</Time>
            <Position>
              <LatitudeDegrees>49.304977320134639739990234375</LatitudeDegrees>
              <LongitudeDegrees>19.9585028551518917083740234375</LongitudeDegrees>
            </Position>
            <AltitudeMeters>813.79998779296875</AltitudeMeters>
            <DistanceMeters>NAN</DistanceMeters>
          </Trackpoint>
          <Trackpoint>
            <Time>2022-09-18T13:40:22.000Z</Time>
            <Position>
              <LatitudeDegrees>49.304977320134639739990234375</LatitudeDegrees>
              <LongitudeDegrees>19.9585028551518917083740234375</LongitudeDegrees>
            </Position>
            <AltitudeMeters>813.79998779296875</AltitudeMeters>
            <DistanceMeters>NAN</DistanceMeters>
          </Trackpoint>
          <Trackpoint>
            <Time>2022-09-18T13:40:28.000Z</Time>
            <Position>
              <LatitudeDegrees>49.30496156215667724609375</LatitudeDegrees>
              <LongitudeDegrees>19.95851433835923671722412109375</LongitudeDegrees>
            </Position>
            <AltitudeMeters>813.5999755859375</AltitudeMeters>
            <DistanceMeters>NAN</DistanceMeters>
          </Trackpoint>
          <Trackpoint>
            <Time>2022-09-18T13:40:37.000Z</Time>
            <Position>
              <LatitudeDegrees>49.30496214888989925384521484375</LatitudeDegrees>
              <LongitudeDegrees>19.9585162661969661712646484375</LongitudeDegrees>
            </Position>
            <AltitudeMeters>813.4000244140625</AltitudeMeters>
            <DistanceMeters>NAN</DistanceMeters>
          </Trackpoint>
          <Trackpoint>
            <Time>2022-09-18T13:40:42.000Z</Time>
            <Position>
              <LatitudeDegrees>49.3049375899136066436767578125</LatitudeDegrees>
              <LongitudeDegrees>19.9585293419659137725830078125</LongitudeDegrees>
            </Position>
            <AltitudeMeters>814.4000244140625</AltitudeMeters>
            <DistanceMeters>NAN</DistanceMeters>
          </Trackpoint>
          <Trackpoint>
            <Time>2022-09-18T13:40:43.000Z</Time>
            <Position>
              <LatitudeDegrees>49.30493499152362346649169921875</LatitudeDegrees>
              <LongitudeDegrees>19.95853831060230731964111328125</LongitudeDegrees>
            </Position>
            <AltitudeMeters>814.4000244140625</AltitudeMeters>
            <DistanceMeters>NAN</DistanceMeters>
          </Trackpoint>
          <Trackpoint>
            <Time>2022-09-18T13:40:46.000Z</Time>
            <Position>
              <LatitudeDegrees>49.3049087561666965484619140625</LatitudeDegrees>
              <LongitudeDegrees>19.95858726091682910919189453125</LongitudeDegrees>
            </Position>
            <AltitudeMeters>814.4000244140625</AltitudeMeters>
            <DistanceMeters>NAN</DistanceMeters>
          </Trackpoint>
          <Trackpoint>
            <Time>2022-09-18T13:40:49.000Z</Time>
            <Position>
              <LatitudeDegrees>49.30492065846920013427734375</LatitudeDegrees>
              <LongitudeDegrees>19.95861156843602657318115234375</LongitudeDegrees>
            </Position>
            <AltitudeMeters>814.20001220703125</AltitudeMeters>
            <DistanceMeters>NAN</DistanceMeters>
          </Trackpoint>
          <Trackpoint>
            <Time>2022-09-18T13:40:56.000Z</Time>
            <Position>
              <LatitudeDegrees>49.3049892224371433258056640625</LatitudeDegrees>
              <LongitudeDegrees>19.9586262367665767669677734375</LongitudeDegrees>
            </Position>
            <AltitudeMeters>813.79998779296875</AltitudeMeters>
            <DistanceMeters>NAN</DistanceMeters>
          </Trackpoint>
          <Trackpoint>
            <Time>2022-09-18T13:41:03.000Z</Time>
            <Position>
              <LatitudeDegrees>49.30503666400909423828125</LatitudeDegrees>
              <LongitudeDegrees>19.958695806562900543212890625</LongitudeDegrees>
            </Position>
            <AltitudeMeters>814.20001220703125</AltitudeMeters>
            <DistanceMeters>NAN</DistanceMeters>
          </Trackpoint>
          <Trackpoint>
            <Time>2022-09-18T13:41:10.000Z</Time>
            <Position>
              <LatitudeDegrees>49.3051602132618427276611328125</LatitudeDegrees>
              <LongitudeDegrees>19.95881323702633380889892578125</LongitudeDegrees>
            </Position>
            <AltitudeMeters>814.20001220703125</AltitudeMeters>
            <DistanceMeters>NAN</DistanceMeters>
          </Trackpoint>
          <Trackpoint>
            <Time>2022-09-18T13:41:15.000Z</Time>
            <Position>
              <LatitudeDegrees>49.3051991052925586700439453125</LatitudeDegrees>
              <LongitudeDegrees>19.958884902298450469970703125</LongitudeDegrees>
            </Position>
            <AltitudeMeters>814.79998779296875</AltitudeMeters>
            <DistanceMeters>NAN</DistanceMeters>
          </Trackpoint>
          <Trackpoint>
            <Time>2022-09-18T13:41:20.000Z</Time>
            <Position>
              <LatitudeDegrees>49.3051528371870517730712890625</LatitudeDegrees>
              <LongitudeDegrees>19.95895019732415676116943359375</LongitudeDegrees>
            </Position>
            <AltitudeMeters>815.4000244140625</AltitudeMeters>
            <DistanceMeters>NAN</DistanceMeters>
          </Trackpoint>
          <Trackpoint>
            <Time>2022-09-18T13:41:22.000Z</Time>
            <Position>
              <LatitudeDegrees>49.30513615719974040985107421875</LatitudeDegrees>
              <LongitudeDegrees>19.958963692188262939453125</LongitudeDegrees>
            </Position>
            <AltitudeMeters>815.4000244140625</AltitudeMeters>
            <DistanceMeters>NAN</DistanceMeters>
          </Trackpoint>
          <Trackpoint>
            <Time>2022-09-18T13:41:24.000Z</Time>
            <Position>
              <LatitudeDegrees>49.3051265180110931396484375</LatitudeDegrees>
              <LongitudeDegrees>19.9589725770056247711181640625</LongitudeDegrees>
            </Position>
            <AltitudeMeters>815.20001220703125</AltitudeMeters>
            <DistanceMeters>NAN</DistanceMeters>
          </Trackpoint>
          <Trackpoint>
            <Time>2022-09-18T13:41:25.000Z</Time>
            <Position>
              <LatitudeDegrees>49.30511000566184520721435546875</LatitudeDegrees>
              <LongitudeDegrees>19.95898338966071605682373046875</LongitudeDegrees>
            </Position>
            <AltitudeMeters>815.20001220703125</AltitudeMeters>
            <DistanceMeters>NAN</DistanceMeters>
          </Trackpoint>
          <Trackpoint>
            <Time>2022-09-18T13:41:27.000Z</Time>
            <Position>
              <LatitudeDegrees>49.3050911463797092437744140625</LatitudeDegrees>
              <LongitudeDegrees>19.95898875407874584197998046875</LongitudeDegrees>
            </Position>
            <AltitudeMeters>815.20001220703125</AltitudeMeters>
            <DistanceMeters>NAN</DistanceMeters>
          </Trackpoint>
          <Trackpoint>
            <Time>2022-09-18T13:41:29.000Z</Time>
            <Position>
              <LatitudeDegrees>49.3050556071102619171142578125</LatitudeDegrees>
              <LongitudeDegrees>19.9590014107525348663330078125</LongitudeDegrees>
            </Position>
            <AltitudeMeters>815.20001220703125</AltitudeMeters>
            <DistanceMeters>NAN</DistanceMeters>
          </Trackpoint>
          <Trackpoint>
            <Time>2022-09-18T13:41:30.000Z</Time>
            <Position>
              <LatitudeDegrees>49.30502249859273433685302734375</LatitudeDegrees>
              <LongitudeDegrees>19.95901976712048053741455078125</LongitudeDegrees>
            </Position>
            <AltitudeMeters>815.20001220703125</AltitudeMeters>
            <DistanceMeters>NAN</DistanceMeters>
          </Trackpoint>
          <Trackpoint>
            <Time>2022-09-18T13:41:33.000Z</Time>
            <Position>
              <LatitudeDegrees>49.30498771369457244873046875</LatitudeDegrees>
              <LongitudeDegrees>19.9590369500219821929931640625</LongitudeDegrees>
            </Position>
            <AltitudeMeters>815.20001220703125</AltitudeMeters>
            <DistanceMeters>NAN</DistanceMeters>
          </Trackpoint>
          <Trackpoint>
            <Time>2022-09-18T13:41:35.000Z</Time>
            <Position>
              <LatitudeDegrees>49.304952509701251983642578125</LatitudeDegrees>
              <LongitudeDegrees>19.959053881466388702392578125</LongitudeDegrees>
            </Position>
            <AltitudeMeters>815.20001220703125</AltitudeMeters>
            <DistanceMeters>NAN</DistanceMeters>
          </Trackpoint>
          <Trackpoint>
            <Time>2022-09-18T13:41:39.000Z</Time>
            <Position>
              <LatitudeDegrees>49.30488218553364276885986328125</LatitudeDegrees>
              <LongitudeDegrees>19.9590562283992767333984375</LongitudeDegrees>
            </Position>
            <AltitudeMeters>815.20001220703125</AltitudeMeters>
            <DistanceMeters>NAN</DistanceMeters>
          </Trackpoint>
          <Trackpoint>
            <Time>2022-09-18T13:41:43.000Z</Time>
            <Position>
              <LatitudeDegrees>49.3048319779336452484130859375</LatitudeDegrees>
              <LongitudeDegrees>19.95908095501363277435302734375</LongitudeDegrees>
            </Position>
            <AltitudeMeters>815.20001220703125</AltitudeMeters>
            <DistanceMeters>NAN</DistanceMeters>
          </Trackpoint>
          <Trackpoint>
            <Time>2022-09-18T13:41:45.000Z</Time>
            <Position>
              <LatitudeDegrees>49.30480876006186008453369140625</LatitudeDegrees>
              <LongitudeDegrees>19.959071315824985504150390625</LongitudeDegrees>
            </Position>
            <AltitudeMeters>815.20001220703125</AltitudeMeters>
            <DistanceMeters>NAN</DistanceMeters>
          </Trackpoint>
          <Trackpoint>
            <Time>2022-09-18T13:41:50.000Z</Time>
            <Position>
              <LatitudeDegrees>49.304793588817119598388671875</LatitudeDegrees>
              <LongitudeDegrees>19.95913870632648468017578125</LongitudeDegrees>
            </Position>
            <AltitudeMeters>815.4000244140625</AltitudeMeters>
            <DistanceMeters>NAN</DistanceMeters>
          </Trackpoint>
          <Trackpoint>
            <Time>2022-09-18T13:41:54.000Z</Time>
            <Position>
              <LatitudeDegrees>49.3047779984772205352783203125</LatitudeDegrees>
              <LongitudeDegrees>19.9591549672186374664306640625</LongitudeDegrees>
            </Position>
            <AltitudeMeters>815.20001220703125</AltitudeMeters>
            <DistanceMeters>NAN</DistanceMeters>
          </Trackpoint>
          <Trackpoint>
            <Time>2022-09-18T13:42:00.000Z</Time>
            <Position>
              <LatitudeDegrees>49.30481395684182643890380859375</LatitudeDegrees>
              <LongitudeDegrees>19.9590669572353363037109375</LongitudeDegrees>
            </Position>
            <AltitudeMeters>815.20001220703125</AltitudeMeters>
            <DistanceMeters>NAN</DistanceMeters>
          </Trackpoint>
          <Trackpoint>
            <Time>2022-09-18T13:42:06.000Z</Time>
            <Position>
              <LatitudeDegrees>49.30479618720710277557373046875</LatitudeDegrees>
              <LongitudeDegrees>19.9590905942022800445556640625</LongitudeDegrees>
            </Position>
            <AltitudeMeters>815.20001220703125</AltitudeMeters>
            <DistanceMeters>NAN</DistanceMeters>
          </Trackpoint>
          <Trackpoint>
            <Time>2022-09-18T13:42:07.000Z</Time>
            <Position>
              <LatitudeDegrees>49.30479484610259532928466796875</LatitudeDegrees>
              <LongitudeDegrees>19.9590895883738994598388671875</LongitudeDegrees>
            </Position>
            <AltitudeMeters>815.20001220703125</AltitudeMeters>
            <DistanceMeters>NAN</DistanceMeters>
          </Trackpoint>
          <Trackpoint>
            <Time>2022-09-18T13:42:11.000Z</Time>
            <Position>
              <LatitudeDegrees>49.30480130016803741455078125</LatitudeDegrees>
              <LongitudeDegrees>19.9590788595378398895263671875</LongitudeDegrees>
            </Position>
            <AltitudeMeters>815.20001220703125</AltitudeMeters>
            <DistanceMeters>NAN</DistanceMeters>
          </Trackpoint>
          <Trackpoint>
            <Time>2022-09-18T13:42:12.000Z</Time>
            <Position>
              <LatitudeDegrees>49.30480130016803741455078125</LatitudeDegrees>
              <LongitudeDegrees>19.9590788595378398895263671875</LongitudeDegrees>
            </Position>
            <AltitudeMeters>815.20001220703125</AltitudeMeters>
            <DistanceMeters>NAN</DistanceMeters>
          </Trackpoint>
          <Trackpoint>
            <Time>2022-09-18T13:42:14.000Z</Time>
            <Position>
              <LatitudeDegrees>49.30480130016803741455078125</LatitudeDegrees>
              <LongitudeDegrees>19.9590788595378398895263671875</LongitudeDegrees>
            </Position>
            <AltitudeMeters>815.20001220703125</AltitudeMeters>
            <DistanceMeters>NAN</DistanceMeters>
          </Trackpoint>
          <Trackpoint>
            <Time>2022-09-18T13:42:16.000Z</Time>
            <Position>
              <LatitudeDegrees>49.30480130016803741455078125</LatitudeDegrees>
              <LongitudeDegrees>19.9590788595378398895263671875</LongitudeDegrees>
            </Position>
            <AltitudeMeters>815.20001220703125</AltitudeMeters>
            <DistanceMeters>NAN</DistanceMeters>
          </Trackpoint>
          <Trackpoint>
            <Time>2022-09-18T13:42:19.000Z</Time>
            <Position>
              <LatitudeDegrees>49.30480130016803741455078125</LatitudeDegrees>
              <LongitudeDegrees>19.9590788595378398895263671875</LongitudeDegrees>
            </Position>
            <AltitudeMeters>815.20001220703125</AltitudeMeters>
            <DistanceMeters>NAN</DistanceMeters>
          </Trackpoint>
          <Trackpoint>
            <Time>2022-09-18T13:42:22.000Z</Time>
            <Position>
              <LatitudeDegrees>49.30479995906352996826171875</LatitudeDegrees>
              <LongitudeDegrees>19.9590788595378398895263671875</LongitudeDegrees>
            </Position>
            <AltitudeMeters>815.20001220703125</AltitudeMeters>
            <DistanceMeters>NAN</DistanceMeters>
          </Trackpoint>
          <Trackpoint>
            <Time>2022-09-18T13:42:23.000Z</Time>
            <Position>
              <LatitudeDegrees>49.30479970760643482208251953125</LatitudeDegrees>
              <LongitudeDegrees>19.9590788595378398895263671875</LongitudeDegrees>
            </Position>
            <AltitudeMeters>815.20001220703125</AltitudeMeters>
            <DistanceMeters>NAN</DistanceMeters>
          </Trackpoint>
          <Trackpoint>
            <Time>2022-09-18T13:42:28.000Z</Time>
            <Position>
              <LatitudeDegrees>49.30478210560977458953857421875</LatitudeDegrees>
              <LongitudeDegrees>19.9591013230383396148681640625</LongitudeDegrees>
            </Position>
            <AltitudeMeters>815.20001220703125</AltitudeMeters>
            <DistanceMeters>NAN</DistanceMeters>
          </Trackpoint>
          <Trackpoint>
            <Time>2022-09-18T13:42:31.000Z</Time>
            <Position>
              <LatitudeDegrees>49.30473064072430133819580078125</LatitudeDegrees>
              <LongitudeDegrees>19.959147758781909942626953125</LongitudeDegrees>
            </Position>
            <AltitudeMeters>815.20001220703125</AltitudeMeters>
            <DistanceMeters>NAN</DistanceMeters>
          </Trackpoint>
          <Trackpoint>
            <Time>2022-09-18T13:42:36.000Z</Time>
            <Position>
              <LatitudeDegrees>49.30460927076637744903564453125</LatitudeDegrees>
              <LongitudeDegrees>19.95922881178557872772216796875</LongitudeDegrees>
            </Position>
            <AltitudeMeters>815.4000244140625</AltitudeMeters>
            <DistanceMeters>NAN</DistanceMeters>
          </Trackpoint>
          <Trackpoint>
            <Time>2022-09-18T13:42:41.000Z</Time>
            <Position>
              <LatitudeDegrees>49.30454607121646404266357421875</LatitudeDegrees>
              <LongitudeDegrees>19.959290921688079833984375</LongitudeDegrees>
            </Position>
            <AltitudeMeters>815.4000244140625</AltitudeMeters>
            <DistanceMeters>NAN</DistanceMeters>
          </Trackpoint>
          <Trackpoint>
            <Time>2022-09-18T13:42:44.000Z</Time>
            <Position>
              <LatitudeDegrees>49.3044936843216419219970703125</LatitudeDegrees>
              <LongitudeDegrees>19.9593326635658740997314453125</LongitudeDegrees>
            </Position>
            <AltitudeMeters>815.5999755859375</AltitudeMeters>
            <DistanceMeters>NAN</DistanceMeters>
          </Trackpoint>
          <Trackpoint>
            <Time>2022-09-18T13:42:49.000Z</Time>
            <Position>
              <LatitudeDegrees>49.3043944425880908966064453125</LatitudeDegrees>
              <LongitudeDegrees>19.95934515260159969329833984375</LongitudeDegrees>
            </Position>
            <AltitudeMeters>816</AltitudeMeters>
            <DistanceMeters>NAN</DistanceMeters>
          </Trackpoint>
          <Trackpoint>
            <Time>2022-09-18T13:42:55.000Z</Time>
            <Position>
              <LatitudeDegrees>49.30429109372198581695556640625</LatitudeDegrees>
              <LongitudeDegrees>19.9593968689441680908203125</LongitudeDegrees>
            </Position>
            <AltitudeMeters>816.20001220703125</AltitudeMeters>
            <DistanceMeters>NAN</DistanceMeters>
          </Trackpoint>
          <Trackpoint>
            <Time>2022-09-18T13:42:57.000Z</Time>
            <Position>
              <LatitudeDegrees>49.3042606674134731292724609375</LatitudeDegrees>
              <LongitudeDegrees>19.959409274160861968994140625</LongitudeDegrees>
            </Position>
            <AltitudeMeters>816.5999755859375</AltitudeMeters>
            <DistanceMeters>NAN</DistanceMeters>
          </Trackpoint>
          <Trackpoint>
            <Time>2022-09-18T13:43:07.000Z</Time>
            <Position>
              <LatitudeDegrees>49.3040668778121471405029296875</LatitudeDegrees>
              <LongitudeDegrees>19.9595130421221256256103515625</LongitudeDegrees>
            </Position>
            <AltitudeMeters>817.20001220703125</AltitudeMeters>
            <DistanceMeters>NAN</DistanceMeters>
          </Trackpoint>
          <Trackpoint>
            <Time>2022-09-18T13:43:15.000Z</Time>
            <Position>
              <LatitudeDegrees>49.30390049703419208526611328125</LatitudeDegrees>
              <LongitudeDegrees>19.9595874734222888946533203125</LongitudeDegrees>
            </Position>
            <AltitudeMeters>817.4000244140625</AltitudeMeters>
            <DistanceMeters>NAN</DistanceMeters>
          </Trackpoint>
          <Trackpoint>
            <Time>2022-09-18T13:43:16.000Z</Time>
            <Position>
              <LatitudeDegrees>49.3038828112185001373291015625</LatitudeDegrees>
              <LongitudeDegrees>19.95959325693547725677490234375</LongitudeDegrees>
            </Position>
            <AltitudeMeters>817.4000244140625</AltitudeMeters>
            <DistanceMeters>NAN</DistanceMeters>
          </Trackpoint>
          <Trackpoint>
            <Time>2022-09-18T13:43:18.000Z</Time>
            <Position>
              <LatitudeDegrees>49.30385372601449489593505859375</LatitudeDegrees>
              <LongitudeDegrees>19.95961320586502552032470703125</LongitudeDegrees>
            </Position>
            <AltitudeMeters>817.5999755859375</AltitudeMeters>
            <DistanceMeters>NAN</DistanceMeters>
          </Trackpoint>
          <Trackpoint>
            <Time>2022-09-18T13:43:23.000Z</Time>
            <Position>
              <LatitudeDegrees>49.3037647940218448638916015625</LatitudeDegrees>
              <LongitudeDegrees>19.9596662633121013641357421875</LongitudeDegrees>
            </Position>
            <AltitudeMeters>818</AltitudeMeters>
            <DistanceMeters>NAN</DistanceMeters>
          </Trackpoint>
          <Trackpoint>
            <Time>2022-09-18T13:43:28.000Z</Time>
            <Position>
              <LatitudeDegrees>49.3036668933928012847900390625</LatitudeDegrees>
              <LongitudeDegrees>19.9597319774329662322998046875</LongitudeDegrees>
            </Position>
            <AltitudeMeters>818.5999755859375</AltitudeMeters>
            <DistanceMeters>NAN</DistanceMeters>
          </Trackpoint>
          <Trackpoint>
            <Time>2022-09-18T13:43:30.000Z</Time>
            <Position>
              <LatitudeDegrees>49.30364065803587436676025390625</LatitudeDegrees>
              <LongitudeDegrees>19.9597470648586750030517578125</LongitudeDegrees>
            </Position>
            <AltitudeMeters>819</AltitudeMeters>
            <DistanceMeters>NAN</DistanceMeters>
          </Trackpoint>
          <Trackpoint>
            <Time>2022-09-18T13:43:36.000Z</Time>
            <Position>
              <LatitudeDegrees>49.3035666458308696746826171875</LatitudeDegrees>
              <LongitudeDegrees>19.95978587307035923004150390625</LongitudeDegrees>
            </Position>
            <AltitudeMeters>819.4000244140625</AltitudeMeters>
            <DistanceMeters>NAN</DistanceMeters>
          </Trackpoint>
          <Trackpoint>
            <Time>2022-09-18T13:43:38.000Z</Time>
            <Position>
              <LatitudeDegrees>49.3035428412258625030517578125</LatitudeDegrees>
              <LongitudeDegrees>19.95978780090808868408203125</LongitudeDegrees>
            </Position>
            <AltitudeMeters>819.4000244140625</AltitudeMeters>
            <DistanceMeters>NAN</DistanceMeters>
          </Trackpoint>
          <Trackpoint>
            <Time>2022-09-18T13:43:42.000Z</Time>
            <Position>
              <LatitudeDegrees>49.30350453592836856842041015625</LatitudeDegrees>
              <LongitudeDegrees>19.95979777537286281585693359375</LongitudeDegrees>
            </Position>
            <AltitudeMeters>819.5999755859375</AltitudeMeters>
            <DistanceMeters>NAN</DistanceMeters>
          </Trackpoint>
          <Trackpoint>
            <Time>2022-09-18T13:43:47.000Z</Time>
            <Position>
              <LatitudeDegrees>49.303459860384464263916015625</LatitudeDegrees>
              <LongitudeDegrees>19.95982711203396320343017578125</LongitudeDegrees>
            </Position>
            <AltitudeMeters>819.5999755859375</AltitudeMeters>
            <DistanceMeters>NAN</DistanceMeters>
          </Trackpoint>
          <Trackpoint>
            <Time>2022-09-18T13:43:51.000Z</Time>
            <Position>
              <LatitudeDegrees>49.3034187890589237213134765625</LatitudeDegrees>
              <LongitudeDegrees>19.95982929132878780364990234375</LongitudeDegrees>
            </Position>
            <AltitudeMeters>820.20001220703125</AltitudeMeters>
            <DistanceMeters>NAN</DistanceMeters>
          </Trackpoint>
          <Trackpoint>
            <Time>2022-09-18T13:43:54.000Z</Time>
            <Position>
              <LatitudeDegrees>49.30339406244456768035888671875</LatitudeDegrees>
              <LongitudeDegrees>19.95982811786234378814697265625</LongitudeDegrees>
            </Position>
            <AltitudeMeters>820.5999755859375</AltitudeMeters>
            <DistanceMeters>NAN</DistanceMeters>
          </Trackpoint>
          <Trackpoint>
            <Time>2022-09-18T13:43:55.000Z</Time>
            <Position>
              <LatitudeDegrees>49.30339406244456768035888671875</LatitudeDegrees>
              <LongitudeDegrees>19.95982811786234378814697265625</LongitudeDegrees>
            </Position>
            <AltitudeMeters>820.5999755859375</AltitudeMeters>
            <DistanceMeters>NAN</DistanceMeters>
          </Trackpoint>
          <Trackpoint>
            <Time>2022-09-18T13:44:04.000Z</Time>
            <Position>
              <LatitudeDegrees>49.30329700000584125518798828125</LatitudeDegrees>
              <LongitudeDegrees>19.959878660738468170166015625</LongitudeDegrees>
            </Position>
            <AltitudeMeters>820.4000244140625</AltitudeMeters>
            <DistanceMeters>NAN</DistanceMeters>
          </Trackpoint>
          <Trackpoint>
            <Time>2022-09-18T13:44:05.000Z</Time>
            <Position>
              <LatitudeDegrees>49.3032819963991641998291015625</LatitudeDegrees>
              <LongitudeDegrees>19.9598850309848785400390625</LongitudeDegrees>
            </Position>
            <AltitudeMeters>820.20001220703125</AltitudeMeters>
            <DistanceMeters>NAN</DistanceMeters>
          </Trackpoint>
          <Trackpoint>
            <Time>2022-09-18T13:44:08.000Z</Time>
            <Position>
              <LatitudeDegrees>49.303249306976795196533203125</LatitudeDegrees>
              <LongitudeDegrees>19.95989508926868438720703125</LongitudeDegrees>
            </Position>
            <AltitudeMeters>820.5999755859375</AltitudeMeters>
            <DistanceMeters>NAN</DistanceMeters>
          </Trackpoint>
          <Trackpoint>
            <Time>2022-09-18T13:44:09.000Z</Time>
            <Position>
              <LatitudeDegrees>49.30324159562587738037109375</LatitudeDegrees>
              <LongitudeDegrees>19.95990774594247341156005859375</LongitudeDegrees>
            </Position>
            <AltitudeMeters>820.79998779296875</AltitudeMeters>
            <DistanceMeters>NAN</DistanceMeters>
          </Trackpoint>
          <Trackpoint>
            <Time>2022-09-18T13:44:10.000Z</Time>
            <Position>
              <LatitudeDegrees>49.30322349071502685546875</LatitudeDegrees>
              <LongitudeDegrees>19.95992585085332393646240234375</LongitudeDegrees>
            </Position>
            <AltitudeMeters>821</AltitudeMeters>
            <DistanceMeters>NAN</DistanceMeters>
          </Trackpoint>
          <Trackpoint>
            <Time>2022-09-18T13:44:13.000Z</Time>
            <Position>
              <LatitudeDegrees>49.30317076854407787322998046875</LatitudeDegrees>
              <LongitudeDegrees>19.95995736680924892425537109375</LongitudeDegrees>
            </Position>
            <AltitudeMeters>821</AltitudeMeters>
            <DistanceMeters>NAN</DistanceMeters>
          </Trackpoint>
          <Trackpoint>
            <Time>2022-09-18T13:44:16.000Z</Time>
            <Position>
              <LatitudeDegrees>49.30313405580818653106689453125</LatitudeDegrees>
              <LongitudeDegrees>19.9599686823785305023193359375</LongitudeDegrees>
            </Position>
            <AltitudeMeters>821</AltitudeMeters>
            <DistanceMeters>NAN</DistanceMeters>
          </Trackpoint>
          <Trackpoint>
            <Time>2022-09-18T13:44:22.000Z</Time>
            <Position>
              <LatitudeDegrees>49.3029539287090301513671875</LatitudeDegrees>
              <LongitudeDegrees>19.96007345616817474365234375</LongitudeDegrees>
            </Position>
            <AltitudeMeters>821.4000244140625</AltitudeMeters>
            <DistanceMeters>NAN</DistanceMeters>
          </Trackpoint>
          <Trackpoint>
            <Time>2022-09-18T13:44:26.000Z</Time>
            <Position>
              <LatitudeDegrees>49.3028575368225574493408203125</LatitudeDegrees>
              <LongitudeDegrees>19.96008493937551975250244140625</LongitudeDegrees>
            </Position>
            <AltitudeMeters>821.5999755859375</AltitudeMeters>
            <DistanceMeters>NAN</DistanceMeters>
          </Trackpoint>
          <Trackpoint>
            <Time>2022-09-18T13:44:27.000Z</Time>
            <Position>
              <LatitudeDegrees>49.30283616296947002410888671875</LatitudeDegrees>
              <LongitudeDegrees>19.96009625494480133056640625</LongitudeDegrees>
            </Position>
            <AltitudeMeters>821.79998779296875</AltitudeMeters>
            <DistanceMeters>NAN</DistanceMeters>
          </Trackpoint>
          <Trackpoint>
            <Time>2022-09-18T13:44:31.000Z</Time>
            <Position>
              <LatitudeDegrees>49.30276541970670223236083984375</LatitudeDegrees>
              <LongitudeDegrees>19.96012986637651920318603515625</LongitudeDegrees>
            </Position>
            <AltitudeMeters>822.4000244140625</AltitudeMeters>
            <DistanceMeters>NAN</DistanceMeters>
          </Trackpoint>
          <Trackpoint>
            <Time>2022-09-18T13:44:35.000Z</Time>
            <Position>
              <LatitudeDegrees>49.30269551463425159454345703125</LatitudeDegrees>
              <LongitudeDegrees>19.960174374282360076904296875</LongitudeDegrees>
            </Position>
            <AltitudeMeters>822.79998779296875</AltitudeMeters>
            <DistanceMeters>NAN</DistanceMeters>
          </Trackpoint>
          <Trackpoint>
            <Time>2022-09-18T13:44:43.000Z</Time>
            <Position>
              <LatitudeDegrees>49.30258822627365589141845703125</LatitudeDegrees>
              <LongitudeDegrees>19.960255511105060577392578125</LongitudeDegrees>
            </Position>
            <AltitudeMeters>823</AltitudeMeters>
            <DistanceMeters>NAN</DistanceMeters>
          </Trackpoint>
          <Trackpoint>
            <Time>2022-09-18T13:44:46.000Z</Time>
            <Position>
              <LatitudeDegrees>49.30256039835512638092041015625</LatitudeDegrees>
              <LongitudeDegrees>19.9602654017508029937744140625</LongitudeDegrees>
            </Position>
            <AltitudeMeters>823</AltitudeMeters>
            <DistanceMeters>NAN</DistanceMeters>
          </Trackpoint>
          <Trackpoint>
            <Time>2022-09-18T13:44:49.000Z</Time>
            <Position>
              <LatitudeDegrees>49.30255084298551082611083984375</LatitudeDegrees>
              <LongitudeDegrees>19.9602905474603176116943359375</LongitudeDegrees>
            </Position>
            <AltitudeMeters>823.20001220703125</AltitudeMeters>
            <DistanceMeters>NAN</DistanceMeters>
          </Trackpoint>
          <Trackpoint>
            <Time>2022-09-18T13:44:57.000Z</Time>
            <Position>
              <LatitudeDegrees>49.3025676906108856201171875</LatitudeDegrees>
              <LongitudeDegrees>19.960317872464656829833984375</LongitudeDegrees>
            </Position>
            <AltitudeMeters>823.5999755859375</AltitudeMeters>
            <DistanceMeters>NAN</DistanceMeters>
          </Trackpoint>
          <Trackpoint>
            <Time>2022-09-18T13:45:00.000Z</Time>
            <Position>
              <LatitudeDegrees>49.302576072514057159423828125</LatitudeDegrees>
              <LongitudeDegrees>19.96032583527266979217529296875</LongitudeDegrees>
            </Position>
            <AltitudeMeters>823.79998779296875</AltitudeMeters>
            <DistanceMeters>NAN</DistanceMeters>
          </Trackpoint>
          <Trackpoint>
            <Time>2022-09-18T13:45:01.000Z</Time>
            <Position>
              <LatitudeDegrees>49.3025782518088817596435546875</LatitudeDegrees>
              <LongitudeDegrees>19.96032767929136753082275390625</LongitudeDegrees>
            </Position>
            <AltitudeMeters>823.79998779296875</AltitudeMeters>
            <DistanceMeters>NAN</DistanceMeters>
          </Trackpoint>
          <Trackpoint>
            <Time>2022-09-18T13:45:04.000Z</Time>
            <Position>
              <LatitudeDegrees>49.302579425275325775146484375</LatitudeDegrees>
              <LongitudeDegrees>19.96032700873911380767822265625</LongitudeDegrees>
            </Position>
            <AltitudeMeters>823.79998779296875</AltitudeMeters>
            <DistanceMeters>NAN</DistanceMeters>
          </Trackpoint>
          <Trackpoint>
            <Time>2022-09-18T13:45:07.000Z</Time>
            <Position>
              <LatitudeDegrees>49.30257967673242092132568359375</LatitudeDegrees>
              <LongitudeDegrees>19.9603274278342723846435546875</LongitudeDegrees>
            </Position>
            <AltitudeMeters>823.79998779296875</AltitudeMeters>
            <DistanceMeters>NAN</DistanceMeters>
          </Trackpoint>
          <Trackpoint>
            <Time>2022-09-18T13:45:17.000Z</Time>
            <Position>
              <LatitudeDegrees>49.30260322988033294677734375</LatitudeDegrees>
              <LongitudeDegrees>19.9603391624987125396728515625</LongitudeDegrees>
            </Position>
            <AltitudeMeters>823.20001220703125</AltitudeMeters>
            <DistanceMeters>NAN</DistanceMeters>
          </Trackpoint>
          <Trackpoint>
            <Time>2022-09-18T13:45:25.000Z</Time>
            <Position>
              <LatitudeDegrees>49.30260322988033294677734375</LatitudeDegrees>
              <LongitudeDegrees>19.96033631265163421630859375</LongitudeDegrees>
            </Position>
            <AltitudeMeters>824.20001220703125</AltitudeMeters>
            <DistanceMeters>NAN</DistanceMeters>
          </Trackpoint>
          <Trackpoint>
            <Time>2022-09-18T13:45:28.000Z</Time>
            <Position>
              <LatitudeDegrees>49.30261018685996532440185546875</LatitudeDegrees>
              <LongitudeDegrees>19.9603519029915332794189453125</LongitudeDegrees>
            </Position>
            <AltitudeMeters>824.5999755859375</AltitudeMeters>
            <DistanceMeters>NAN</DistanceMeters>
          </Trackpoint>
          <Trackpoint>
            <Time>2022-09-18T13:45:29.000Z</Time>
            <Position>
              <LatitudeDegrees>49.302623011171817779541015625</LatitudeDegrees>
              <LongitudeDegrees>19.9603612907230854034423828125</LongitudeDegrees>
            </Position>
            <AltitudeMeters>824.79998779296875</AltitudeMeters>
            <DistanceMeters>NAN</DistanceMeters>
          </Trackpoint>
          <Trackpoint>
            <Time>2022-09-18T13:45:31.000Z</Time>
            <Position>
              <LatitudeDegrees>49.30265326984226703643798828125</LatitudeDegrees>
              <LongitudeDegrees>19.96038417331874370574951171875</LongitudeDegrees>
            </Position>
            <AltitudeMeters>825</AltitudeMeters>
            <DistanceMeters>NAN</DistanceMeters>
          </Trackpoint>
          <Trackpoint>
            <Time>2022-09-18T13:45:36.000Z</Time>
            <Position>
              <LatitudeDegrees>49.30272719822824001312255859375</LatitudeDegrees>
              <LongitudeDegrees>19.96047704480588436126708984375</LongitudeDegrees>
            </Position>
            <AltitudeMeters>823.79998779296875</AltitudeMeters>
            <DistanceMeters>NAN</DistanceMeters>
          </Trackpoint>
          <Trackpoint>
            <Time>2022-09-18T13:45:39.000Z</Time>
            <Position>
              <LatitudeDegrees>49.302777908742427825927734375</LatitudeDegrees>
              <LongitudeDegrees>19.960626326501369476318359375</LongitudeDegrees>
            </Position>
            <AltitudeMeters>823.4000244140625</AltitudeMeters>
            <DistanceMeters>NAN</DistanceMeters>
          </Trackpoint>
          <Trackpoint>
            <Time>2022-09-18T13:45:43.000Z</Time>
            <Position>
              <LatitudeDegrees>49.3028156273066997528076171875</LatitudeDegrees>
              <LongitudeDegrees>19.9607223831117153167724609375</LongitudeDegrees>
            </Position>
            <AltitudeMeters>823</AltitudeMeters>
            <DistanceMeters>NAN</DistanceMeters>
          </Trackpoint>
          <Trackpoint>
            <Time>2022-09-18T13:45:44.000Z</Time>
            <Position>
              <LatitudeDegrees>49.30283817462623119354248046875</LatitudeDegrees>
              <LongitudeDegrees>19.96078985743224620819091796875</LongitudeDegrees>
            </Position>
            <AltitudeMeters>823</AltitudeMeters>
            <DistanceMeters>NAN</DistanceMeters>
          </Trackpoint>
          <Trackpoint>
            <Time>2022-09-18T13:45:49.000Z</Time>
            <Position>
              <LatitudeDegrees>49.3028739653527736663818359375</LatitudeDegrees>
              <LongitudeDegrees>19.9609594233334064483642578125</LongitudeDegrees>
            </Position>
            <AltitudeMeters>822.79998779296875</AltitudeMeters>
            <DistanceMeters>NAN</DistanceMeters>
          </Trackpoint>
          <Trackpoint>
            <Time>2022-09-18T13:45:51.000Z</Time>
            <Position>
              <LatitudeDegrees>49.30289031006395816802978515625</LatitudeDegrees>
              <LongitudeDegrees>19.9610221199691295623779296875</LongitudeDegrees>
            </Position>
            <AltitudeMeters>822.5999755859375</AltitudeMeters>
            <DistanceMeters>NAN</DistanceMeters>
          </Trackpoint>
          <Trackpoint>
            <Time>2022-09-18T13:45:54.000Z</Time>
            <Position>
              <LatitudeDegrees>49.302915371954441070556640625</LatitudeDegrees>
              <LongitudeDegrees>19.96110878884792327880859375</LongitudeDegrees>
            </Position>
            <AltitudeMeters>822.4000244140625</AltitudeMeters>
            <DistanceMeters>NAN</DistanceMeters>
          </Trackpoint>
          <Trackpoint>
            <Time>2022-09-18T13:45:57.000Z</Time>
            <Position>
              <LatitudeDegrees>49.3029527552425861358642578125</LatitudeDegrees>
              <LongitudeDegrees>19.9611796997487545013427734375</LongitudeDegrees>
            </Position>
            <AltitudeMeters>822.4000244140625</AltitudeMeters>
            <DistanceMeters>NAN</DistanceMeters>
          </Trackpoint>
          <Trackpoint>
            <Time>2022-09-18T13:46:08.000Z</Time>
            <Position>
              <LatitudeDegrees>49.30304445326328277587890625</LatitudeDegrees>
              <LongitudeDegrees>19.961473233997821807861328125</LongitudeDegrees>
            </Position>
            <AltitudeMeters>822.79998779296875</AltitudeMeters>
            <DistanceMeters>NAN</DistanceMeters>
          </Trackpoint>
          <Trackpoint>
            <Time>2022-09-18T13:46:17.000Z</Time>
            <Position>
              <LatitudeDegrees>49.303123913705348968505859375</LatitudeDegrees>
              <LongitudeDegrees>19.96168035082519054412841796875</LongitudeDegrees>
            </Position>
            <AltitudeMeters>822.79998779296875</AltitudeMeters>
            <DistanceMeters>NAN</DistanceMeters>
          </Trackpoint>
          <Trackpoint>
            <Time>2022-09-18T13:46:21.000Z</Time>
            <Position>
              <LatitudeDegrees>49.30314729921519756317138671875</LatitudeDegrees>
              <LongitudeDegrees>19.96178009547293186187744140625</LongitudeDegrees>
            </Position>
            <AltitudeMeters>822.79998779296875</AltitudeMeters>
            <DistanceMeters>NAN</DistanceMeters>
          </Trackpoint>
          <Trackpoint>
            <Time>2022-09-18T13:46:25.000Z</Time>
            <Position>
              <LatitudeDegrees>49.30318401195108890533447265625</LatitudeDegrees>
              <LongitudeDegrees>19.9619035609066486358642578125</LongitudeDegrees>
            </Position>
            <AltitudeMeters>822.5999755859375</AltitudeMeters>
            <DistanceMeters>NAN</DistanceMeters>
          </Trackpoint>
          <Trackpoint>
            <Time>2022-09-18T13:46:27.000Z</Time>
            <Position>
              <LatitudeDegrees>49.30320479907095432281494140625</LatitudeDegrees>
              <LongitudeDegrees>19.96197170577943325042724609375</LongitudeDegrees>
            </Position>
            <AltitudeMeters>822.5999755859375</AltitudeMeters>
            <DistanceMeters>NAN</DistanceMeters>
          </Trackpoint>
          <Trackpoint>
            <Time>2022-09-18T13:46:36.000Z</Time>
            <Position>
              <LatitudeDegrees>49.303315691649913787841796875</LatitudeDegrees>
              <LongitudeDegrees>19.9622636474668979644775390625</LongitudeDegrees>
            </Position>
            <AltitudeMeters>822</AltitudeMeters>
            <DistanceMeters>NAN</DistanceMeters>
          </Trackpoint>
          <Trackpoint>
            <Time>2022-09-18T13:46:39.000Z</Time>
            <Position>
              <LatitudeDegrees>49.30336229503154754638671875</LatitudeDegrees>
              <LongitudeDegrees>19.96237822808325290679931640625</LongitudeDegrees>
            </Position>
            <AltitudeMeters>821.5999755859375</AltitudeMeters>
            <DistanceMeters>NAN</DistanceMeters>
          </Trackpoint>
          <Trackpoint>
            <Time>2022-09-18T13:46:43.000Z</Time>
            <Position>
              <LatitudeDegrees>49.3034211359918117523193359375</LatitudeDegrees>
              <LongitudeDegrees>19.96253279037773609161376953125</LongitudeDegrees>
            </Position>
            <AltitudeMeters>821.5999755859375</AltitudeMeters>
            <DistanceMeters>NAN</DistanceMeters>
          </Trackpoint>
          <Trackpoint>
            <Time>2022-09-18T13:46:50.000Z</Time>
            <Position>
              <LatitudeDegrees>49.30351593531668186187744140625</LatitudeDegrees>
              <LongitudeDegrees>19.9628064595162868499755859375</LongitudeDegrees>
            </Position>
            <AltitudeMeters>821.20001220703125</AltitudeMeters>
            <DistanceMeters>NAN</DistanceMeters>
          </Trackpoint>
          <Trackpoint>
            <Time>2022-09-18T13:46:55.000Z</Time>
            <Position>
              <LatitudeDegrees>49.30355616845190525054931640625</LatitudeDegrees>
              <LongitudeDegrees>19.962956495583057403564453125</LongitudeDegrees>
            </Position>
            <AltitudeMeters>820.5999755859375</AltitudeMeters>
            <DistanceMeters>NAN</DistanceMeters>
          </Trackpoint>
          <Trackpoint>
            <Time>2022-09-18T13:46:56.000Z</Time>
            <Position>
              <LatitudeDegrees>49.3035689927637577056884765625</LatitudeDegrees>
              <LongitudeDegrees>19.96299572288990020751953125</LongitudeDegrees>
            </Position>
            <AltitudeMeters>820.5999755859375</AltitudeMeters>
            <DistanceMeters>NAN</DistanceMeters>
          </Trackpoint>
          <Trackpoint>
            <Time>2022-09-18T13:47:03.000Z</Time>
            <Position>
              <LatitudeDegrees>49.303638897836208343505859375</LatitudeDegrees>
              <LongitudeDegrees>19.96324692852795124053955078125</LongitudeDegrees>
            </Position>
            <AltitudeMeters>820.20001220703125</AltitudeMeters>
            <DistanceMeters>NAN</DistanceMeters>
          </Trackpoint>
          <Trackpoint>
            <Time>2022-09-18T13:47:11.000Z</Time>
            <Position>
              <LatitudeDegrees>49.30372866801917552947998046875</LatitudeDegrees>
              <LongitudeDegrees>19.963597543537616729736328125</LongitudeDegrees>
            </Position>
            <AltitudeMeters>820</AltitudeMeters>
            <DistanceMeters>NAN</DistanceMeters>
          </Trackpoint>
          <Trackpoint>
            <Time>2022-09-18T13:47:15.000Z</Time>
            <Position>
              <LatitudeDegrees>49.3037760257720947265625</LatitudeDegrees>
              <LongitudeDegrees>19.96379711665213108062744140625</LongitudeDegrees>
            </Position>
            <AltitudeMeters>819.5999755859375</AltitudeMeters>
            <DistanceMeters>NAN</DistanceMeters>
          </Trackpoint>
          <Trackpoint>
            <Time>2022-09-18T13:47:18.000Z</Time>
            <Position>
              <LatitudeDegrees>49.30379547178745269775390625</LatitudeDegrees>
              <LongitudeDegrees>19.96390021406114101409912109375</LongitudeDegrees>
            </Position>
            <AltitudeMeters>819.4000244140625</AltitudeMeters>
            <DistanceMeters>NAN</DistanceMeters>
          </Trackpoint>
          <Trackpoint>
            <Time>2022-09-18T13:47:25.000Z</Time>
            <Position>
              <LatitudeDegrees>49.3038873374462127685546875</LatitudeDegrees>
              <LongitudeDegrees>19.964313693344593048095703125</LongitudeDegrees>
            </Position>
            <AltitudeMeters>819.5999755859375</AltitudeMeters>
            <DistanceMeters>NAN</DistanceMeters>
          </Trackpoint>
          <Trackpoint>
            <Time>2022-09-18T13:47:28.000Z</Time>
            <Position>
              <LatitudeDegrees>49.3038972280919551849365234375</LatitudeDegrees>
              <LongitudeDegrees>19.9644298665225505828857421875</LongitudeDegrees>
            </Position>
            <AltitudeMeters>819.5999755859375</AltitudeMeters>
            <DistanceMeters>NAN</DistanceMeters>
          </Trackpoint>
          <Trackpoint>
            <Time>2022-09-18T13:47:30.000Z</Time>
            <Position>
              <LatitudeDegrees>49.303907118737697601318359375</LatitudeDegrees>
              <LongitudeDegrees>19.9645116738975048065185546875</LongitudeDegrees>
            </Position>
            <AltitudeMeters>819.4000244140625</AltitudeMeters>
            <DistanceMeters>NAN</DistanceMeters>
          </Trackpoint>
          <Trackpoint>
            <Time>2022-09-18T13:47:38.000Z</Time>
            <Position>
              <LatitudeDegrees>49.303977191448211669921875</LatitudeDegrees>
              <LongitudeDegrees>19.964825324714183807373046875</LongitudeDegrees>
            </Position>
            <AltitudeMeters>819.20001220703125</AltitudeMeters>
            <DistanceMeters>NAN</DistanceMeters>
          </Trackpoint>
          <Trackpoint>
            <Time>2022-09-18T13:47:43.000Z</Time>
            <Position>
              <LatitudeDegrees>49.3039998225867748260498046875</LatitudeDegrees>
              <LongitudeDegrees>19.96498231776058673858642578125</LongitudeDegrees>
            </Position>
            <AltitudeMeters>819.20001220703125</AltitudeMeters>
            <DistanceMeters>NAN</DistanceMeters>
          </Trackpoint>
          <Trackpoint>
            <Time>2022-09-18T13:47:44.000Z</Time>
            <Position>
              <LatitudeDegrees>49.3040120601654052734375</LatitudeDegrees>
              <LongitudeDegrees>19.96502154506742954254150390625</LongitudeDegrees>
            </Position>
            <AltitudeMeters>819.20001220703125</AltitudeMeters>
            <DistanceMeters>NAN</DistanceMeters>
          </Trackpoint>
          <Trackpoint>
            <Time>2022-09-18T13:47:51.000Z</Time>
            <Position>
              <LatitudeDegrees>49.304070733487606048583984375</LatitudeDegrees>
              <LongitudeDegrees>19.965326897799968719482421875</LongitudeDegrees>
            </Position>
            <AltitudeMeters>819.4000244140625</AltitudeMeters>
            <DistanceMeters>NAN</DistanceMeters>
          </Trackpoint>
          <Trackpoint>
            <Time>2022-09-18T13:47:53.000Z</Time>
            <Position>
              <LatitudeDegrees>49.3040980584919452667236328125</LatitudeDegrees>
              <LongitudeDegrees>19.96542354114353656768798828125</LongitudeDegrees>
            </Position>
            <AltitudeMeters>819.5999755859375</AltitudeMeters>
            <DistanceMeters>NAN</DistanceMeters>
          </Trackpoint>
          <Trackpoint>
            <Time>2022-09-18T13:47:59.000Z</Time>
            <Position>
              <LatitudeDegrees>49.30414927192032337188720703125</LatitudeDegrees>
              <LongitudeDegrees>19.9656143970787525177001953125</LongitudeDegrees>
            </Position>
            <AltitudeMeters>819.79998779296875</AltitudeMeters>
            <DistanceMeters>NAN</DistanceMeters>
          </Trackpoint>
          <Trackpoint>
            <Time>2022-09-18T13:48:05.000Z</Time>
            <Position>
              <LatitudeDegrees>49.30422890000045299530029296875</LatitudeDegrees>
              <LongitudeDegrees>19.96595864184200763702392578125</LongitudeDegrees>
            </Position>
            <AltitudeMeters>820.4000244140625</AltitudeMeters>
            <DistanceMeters>NAN</DistanceMeters>
          </Trackpoint>
          <Trackpoint>
            <Time>2022-09-18T13:48:11.000Z</Time>
            <Position>
              <LatitudeDegrees>49.3042838014662265777587890625</LatitudeDegrees>
              <LongitudeDegrees>19.96617615222930908203125</LongitudeDegrees>
            </Position>
            <AltitudeMeters>820.4000244140625</AltitudeMeters>
            <DistanceMeters>NAN</DistanceMeters>
          </Trackpoint>
          <Trackpoint>
            <Time>2022-09-18T13:48:14.000Z</Time>
            <Position>
              <LatitudeDegrees>49.3043099530041217803955078125</LatitudeDegrees>
              <LongitudeDegrees>19.96629827655851840972900390625</LongitudeDegrees>
            </Position>
            <AltitudeMeters>820.5999755859375</AltitudeMeters>
            <DistanceMeters>NAN</DistanceMeters>
          </Trackpoint>
          <Trackpoint>
            <Time>2022-09-18T13:48:20.000Z</Time>
            <Position>
              <LatitudeDegrees>49.30436569266021251678466796875</LatitudeDegrees>
              <LongitudeDegrees>19.9664871208369731903076171875</LongitudeDegrees>
            </Position>
            <AltitudeMeters>821</AltitudeMeters>
            <DistanceMeters>NAN</DistanceMeters>
          </Trackpoint>
          <Trackpoint>
            <Time>2022-09-18T13:48:23.000Z</Time>
            <Position>
              <LatitudeDegrees>49.3043904192745685577392578125</LatitudeDegrees>
              <LongitudeDegrees>19.96652408502995967864990234375</LongitudeDegrees>
            </Position>
            <AltitudeMeters>821</AltitudeMeters>
            <DistanceMeters>NAN</DistanceMeters>
          </Trackpoint>
          <Trackpoint>
            <Time>2022-09-18T13:48:25.000Z</Time>
            <Position>
              <LatitudeDegrees>49.304426126182079315185546875</LatitudeDegrees>
              <LongitudeDegrees>19.96656146831810474395751953125</LongitudeDegrees>
            </Position>
            <AltitudeMeters>821</AltitudeMeters>
            <DistanceMeters>NAN</DistanceMeters>
          </Trackpoint>
          <Trackpoint>
            <Time>2022-09-18T13:48:32.000Z</Time>
            <Position>
              <LatitudeDegrees>49.304517991840839385986328125</LatitudeDegrees>
              <LongitudeDegrees>19.96660186909139156341552734375</LongitudeDegrees>
            </Position>
            <AltitudeMeters>821</AltitudeMeters>
            <DistanceMeters>NAN</DistanceMeters>
          </Trackpoint>
          <Trackpoint>
            <Time>2022-09-18T13:48:39.000Z</Time>
            <Position>
              <LatitudeDegrees>49.30465017445385456085205078125</LatitudeDegrees>
              <LongitudeDegrees>19.9665900506079196929931640625</LongitudeDegrees>
            </Position>
            <AltitudeMeters>820.20001220703125</AltitudeMeters>
            <DistanceMeters>NAN</DistanceMeters>
          </Trackpoint>
          <Trackpoint>
            <Time>2022-09-18T13:48:40.000Z</Time>
            <Position>
              <LatitudeDegrees>49.3046517670154571533203125</LatitudeDegrees>
              <LongitudeDegrees>19.96658443473279476165771484375</LongitudeDegrees>
            </Position>
            <AltitudeMeters>820</AltitudeMeters>
            <DistanceMeters>NAN</DistanceMeters>
          </Trackpoint>
          <Trackpoint>
            <Time>2022-09-18T13:48:46.000Z</Time>
            <Position>
              <LatitudeDegrees>49.3046368472278118133544921875</LatitudeDegrees>
              <LongitudeDegrees>19.96656239032745361328125</LongitudeDegrees>
            </Position>
            <AltitudeMeters>819.79998779296875</AltitudeMeters>
            <DistanceMeters>NAN</DistanceMeters>
          </Trackpoint>
          <Trackpoint>
            <Time>2022-09-18T13:48:47.000Z</Time>
            <Position>
              <LatitudeDegrees>49.304633997380733489990234375</LatitudeDegrees>
              <LongitudeDegrees>19.9665583670139312744140625</LongitudeDegrees>
            </Position>
            <AltitudeMeters>819.79998779296875</AltitudeMeters>
            <DistanceMeters>NAN</DistanceMeters>
          </Trackpoint>
          <Trackpoint>
            <Time>2022-09-18T13:48:49.000Z</Time>
            <Position>
              <LatitudeDegrees>49.30463173426687717437744140625</LatitudeDegrees>
              <LongitudeDegrees>19.9665531702339649200439453125</LongitudeDegrees>
            </Position>
            <AltitudeMeters>819.5999755859375</AltitudeMeters>
            <DistanceMeters>NAN</DistanceMeters>
          </Trackpoint>
          <Trackpoint>
            <Time>2022-09-18T13:48:51.000Z</Time>
            <Position>
              <LatitudeDegrees>49.30463206954300403594970703125</LatitudeDegrees>
              <LongitudeDegrees>19.96654964983463287353515625</LongitudeDegrees>
            </Position>
            <AltitudeMeters>819.5999755859375</AltitudeMeters>
            <DistanceMeters>NAN</DistanceMeters>
          </Trackpoint>
          <Trackpoint>
            <Time>2022-09-18T13:48:52.000Z</Time>
            <Position>
              <LatitudeDegrees>49.30463206954300403594970703125</LatitudeDegrees>
              <LongitudeDegrees>19.96654964983463287353515625</LongitudeDegrees>
            </Position>
            <AltitudeMeters>819.4000244140625</AltitudeMeters>
            <DistanceMeters>NAN</DistanceMeters>
          </Trackpoint>
          <Trackpoint>
            <Time>2022-09-18T13:48:57.000Z</Time>
            <Position>
              <LatitudeDegrees>49.30463206954300403594970703125</LatitudeDegrees>
              <LongitudeDegrees>19.96654964983463287353515625</LongitudeDegrees>
            </Position>
            <AltitudeMeters>819.4000244140625</AltitudeMeters>
            <DistanceMeters>NAN</DistanceMeters>
          </Trackpoint>
          <Trackpoint>
            <Time>2022-09-18T13:49:21.000Z</Time>
            <Position>
              <LatitudeDegrees>49.30462754331529140472412109375</LatitudeDegrees>
              <LongitudeDegrees>19.9665333889424800872802734375</LongitudeDegrees>
            </Position>
            <AltitudeMeters>819.4000244140625</AltitudeMeters>
            <DistanceMeters>NAN</DistanceMeters>
          </Trackpoint>
          <Trackpoint>
            <Time>2022-09-18T13:49:48.000Z</Time>
            <Position>
              <LatitudeDegrees>49.3046365119516849517822265625</LatitudeDegrees>
              <LongitudeDegrees>19.96656834147870540618896484375</LongitudeDegrees>
            </Position>
            <AltitudeMeters>819.20001220703125</AltitudeMeters>
            <DistanceMeters>NAN</DistanceMeters>
          </Trackpoint>
          <Trackpoint>
            <Time>2022-09-18T13:49:51.000Z</Time>
            <Position>
              <LatitudeDegrees>49.304694347083568572998046875</LatitudeDegrees>
              <LongitudeDegrees>19.9665179662406444549560546875</LongitudeDegrees>
            </Position>
            <AltitudeMeters>819.4000244140625</AltitudeMeters>
            <DistanceMeters>NAN</DistanceMeters>
          </Trackpoint>
          <Trackpoint>
            <Time>2022-09-18T13:49:56.000Z</Time>
            <Position>
              <LatitudeDegrees>49.304819069802761077880859375</LatitudeDegrees>
              <LongitudeDegrees>19.96651017107069492340087890625</LongitudeDegrees>
            </Position>
            <AltitudeMeters>819</AltitudeMeters>
            <DistanceMeters>NAN</DistanceMeters>
          </Trackpoint>
          <Trackpoint>
            <Time>2022-09-18T13:49:57.000Z</Time>
            <Position>
              <LatitudeDegrees>49.3048879690468311309814453125</LatitudeDegrees>
              <LongitudeDegrees>19.96648930013179779052734375</LongitudeDegrees>
            </Position>
            <AltitudeMeters>818.4000244140625</AltitudeMeters>
            <DistanceMeters>NAN</DistanceMeters>
          </Trackpoint>
          <Trackpoint>
            <Time>2022-09-18T13:49:59.000Z</Time>
            <Position>
              <LatitudeDegrees>49.30491973645985126495361328125</LatitudeDegrees>
              <LongitudeDegrees>19.96648485772311687469482421875</LongitudeDegrees>
            </Position>
            <AltitudeMeters>817.20001220703125</AltitudeMeters>
            <DistanceMeters>NAN</DistanceMeters>
          </Trackpoint>
          <Trackpoint>
            <Time>2022-09-18T13:50:03.000Z</Time>
            <Position>
              <LatitudeDegrees>49.30503188632428646087646484375</LatitudeDegrees>
              <LongitudeDegrees>19.96647077612578868865966796875</LongitudeDegrees>
            </Position>
            <AltitudeMeters>816.20001220703125</AltitudeMeters>
            <DistanceMeters>NAN</DistanceMeters>
          </Trackpoint>
          <Trackpoint>
            <Time>2022-09-18T13:50:05.000Z</Time>
            <Position>
              <LatitudeDegrees>49.3050728738307952880859375</LatitudeDegrees>
              <LongitudeDegrees>19.96646113693714141845703125</LongitudeDegrees>
            </Position>
            <AltitudeMeters>815.5999755859375</AltitudeMeters>
            <DistanceMeters>NAN</DistanceMeters>
          </Trackpoint>
          <Trackpoint>
            <Time>2022-09-18T13:50:06.000Z</Time>
            <Position>
              <LatitudeDegrees>49.305093325674533843994140625</LatitudeDegrees>
              <LongitudeDegrees>19.966454766690731048583984375</LongitudeDegrees>
            </Position>
            <AltitudeMeters>815.4000244140625</AltitudeMeters>
            <DistanceMeters>NAN</DistanceMeters>
          </Trackpoint>
          <Trackpoint>
            <Time>2022-09-18T13:50:08.000Z</Time>
            <Position>
              <LatitudeDegrees>49.30511352606117725372314453125</LatitudeDegrees>
              <LongitudeDegrees>19.96644881553947925567626953125</LongitudeDegrees>
            </Position>
            <AltitudeMeters>815</AltitudeMeters>
            <DistanceMeters>NAN</DistanceMeters>
          </Trackpoint>
          <Trackpoint>
            <Time>2022-09-18T13:50:10.000Z</Time>
            <Position>
              <LatitudeDegrees>49.305151663720607757568359375</LatitudeDegrees>
              <LongitudeDegrees>19.96643892489373683929443359375</LongitudeDegrees>
            </Position>
            <AltitudeMeters>814.5999755859375</AltitudeMeters>
            <DistanceMeters>NAN</DistanceMeters>
          </Trackpoint>
          <Trackpoint>
            <Time>2022-09-18T13:50:12.000Z</Time>
            <Position>
              <LatitudeDegrees>49.30518829263746738433837890625</LatitudeDegrees>
              <LongitudeDegrees>19.96642199344933032989501953125</LongitudeDegrees>
            </Position>
            <AltitudeMeters>814.4000244140625</AltitudeMeters>
            <DistanceMeters>NAN</DistanceMeters>
          </Trackpoint>
          <Trackpoint>
            <Time>2022-09-18T13:50:14.000Z</Time>
            <Position>
              <LatitudeDegrees>49.30519700981676578521728515625</LatitudeDegrees>
              <LongitudeDegrees>19.96640958823263645172119140625</LongitudeDegrees>
            </Position>
            <AltitudeMeters>814.4000244140625</AltitudeMeters>
            <DistanceMeters>NAN</DistanceMeters>
          </Trackpoint>
          <Trackpoint>
            <Time>2022-09-18T13:50:18.000Z</Time>
            <Position>
              <LatitudeDegrees>49.3052379973232746124267578125</LatitudeDegrees>
              <LongitudeDegrees>19.96637321077287197113037109375</LongitudeDegrees>
            </Position>
            <AltitudeMeters>814.20001220703125</AltitudeMeters>
            <DistanceMeters>NAN</DistanceMeters>
          </Trackpoint>
          <Trackpoint>
            <Time>2022-09-18T13:50:20.000Z</Time>
            <Position>
              <LatitudeDegrees>49.30527093820273876190185546875</LatitudeDegrees>
              <LongitudeDegrees>19.96639617718756198883056640625</LongitudeDegrees>
            </Position>
            <AltitudeMeters>814</AltitudeMeters>
            <DistanceMeters>NAN</DistanceMeters>
          </Trackpoint>
          <Trackpoint>
            <Time>2022-09-18T13:50:21.000Z</Time>
            <Position>
              <LatitudeDegrees>49.3052701838314533233642578125</LatitudeDegrees>
              <LongitudeDegrees>19.966423921287059783935546875</LongitudeDegrees>
            </Position>
            <AltitudeMeters>814</AltitudeMeters>
            <DistanceMeters>NAN</DistanceMeters>
          </Trackpoint>
          <Trackpoint>
            <Time>2022-09-18T13:50:22.000Z</Time>
            <Position>
              <LatitudeDegrees>49.3052701838314533233642578125</LatitudeDegrees>
              <LongitudeDegrees>19.966423921287059783935546875</LongitudeDegrees>
            </Position>
            <AltitudeMeters>814</AltitudeMeters>
            <DistanceMeters>NAN</DistanceMeters>
          </Trackpoint>
          <Trackpoint>
            <Time>2022-09-18T13:50:23.000Z</Time>
            <Position>
              <LatitudeDegrees>49.3052633106708526611328125</LatitudeDegrees>
              <LongitudeDegrees>19.96644043363630771636962890625</LongitudeDegrees>
            </Position>
            <AltitudeMeters>813.79998779296875</AltitudeMeters>
            <DistanceMeters>NAN</DistanceMeters>
          </Trackpoint>
          <Trackpoint>
            <Time>2022-09-18T13:50:25.000Z</Time>
            <Position>
              <LatitudeDegrees>49.30520304478704929351806640625</LatitudeDegrees>
              <LongitudeDegrees>19.96642601676285266876220703125</LongitudeDegrees>
            </Position>
            <AltitudeMeters>813.79998779296875</AltitudeMeters>
            <DistanceMeters>NAN</DistanceMeters>
          </Trackpoint>
          <Trackpoint>
            <Time>2022-09-18T13:50:27.000Z</Time>
            <Position>
              <LatitudeDegrees>49.30515677668154239654541015625</LatitudeDegrees>
              <LongitudeDegrees>19.96641864068806171417236328125</LongitudeDegrees>
            </Position>
            <AltitudeMeters>813.79998779296875</AltitudeMeters>
            <DistanceMeters>NAN</DistanceMeters>
          </Trackpoint>
          <Trackpoint>
            <Time>2022-09-18T13:50:29.000Z</Time>
            <Position>
              <LatitudeDegrees>49.305081255733966827392578125</LatitudeDegrees>
              <LongitudeDegrees>19.96643121354281902313232421875</LongitudeDegrees>
            </Position>
            <AltitudeMeters>813.79998779296875</AltitudeMeters>
            <DistanceMeters>NAN</DistanceMeters>
          </Trackpoint>
          <Trackpoint>
            <Time>2022-09-18T13:50:32.000Z</Time>
            <Position>
              <LatitudeDegrees>49.3050116859376430511474609375</LatitudeDegrees>
              <LongitudeDegrees>19.966452084481716156005859375</LongitudeDegrees>
            </Position>
            <AltitudeMeters>814.20001220703125</AltitudeMeters>
            <DistanceMeters>NAN</DistanceMeters>
          </Trackpoint>
          <Trackpoint>
            <Time>2022-09-18T13:50:34.000Z</Time>
            <Position>
              <LatitudeDegrees>49.30489794351160526275634765625</LatitudeDegrees>
              <LongitudeDegrees>19.966473542153835296630859375</LongitudeDegrees>
            </Position>
            <AltitudeMeters>815</AltitudeMeters>
            <DistanceMeters>NAN</DistanceMeters>
          </Trackpoint>
          <Trackpoint>
            <Time>2022-09-18T13:50:36.000Z</Time>
            <Position>
              <LatitudeDegrees>49.30483725853264331817626953125</LatitudeDegrees>
              <LongitudeDegrees>19.96648636646568775177001953125</LongitudeDegrees>
            </Position>
            <AltitudeMeters>816.4000244140625</AltitudeMeters>
            <DistanceMeters>NAN</DistanceMeters>
          </Trackpoint>
          <Trackpoint>
            <Time>2022-09-18T13:50:37.000Z</Time>
            <Position>
              <LatitudeDegrees>49.30480909533798694610595703125</LatitudeDegrees>
              <LongitudeDegrees>19.96649265289306640625</LongitudeDegrees>
            </Position>
            <AltitudeMeters>816.79998779296875</AltitudeMeters>
            <DistanceMeters>NAN</DistanceMeters>
          </Trackpoint>
          <Trackpoint>
            <Time>2022-09-18T13:50:39.000Z</Time>
            <Position>
              <LatitudeDegrees>49.30479333736002445220947265625</LatitudeDegrees>
              <LongitudeDegrees>19.96649273671209812164306640625</LongitudeDegrees>
            </Position>
            <AltitudeMeters>817.5999755859375</AltitudeMeters>
            <DistanceMeters>NAN</DistanceMeters>
          </Trackpoint>
          <Trackpoint>
            <Time>2022-09-18T13:50:42.000Z</Time>
            <Position>
              <LatitudeDegrees>49.3047188222408294677734375</LatitudeDegrees>
              <LongitudeDegrees>19.96652693487703800201416015625</LongitudeDegrees>
            </Position>
            <AltitudeMeters>818.20001220703125</AltitudeMeters>
            <DistanceMeters>NAN</DistanceMeters>
          </Trackpoint>
          <Trackpoint>
            <Time>2022-09-18T13:50:43.000Z</Time>
            <Position>
              <LatitudeDegrees>49.304699040949344635009765625</LatitudeDegrees>
              <LongitudeDegrees>19.9665441177785396575927734375</LongitudeDegrees>
            </Position>
            <AltitudeMeters>818.20001220703125</AltitudeMeters>
            <DistanceMeters>NAN</DistanceMeters>
          </Trackpoint>
          <Trackpoint>
            <Time>2022-09-18T13:50:44.000Z</Time>
            <Position>
              <LatitudeDegrees>49.30467364378273487091064453125</LatitudeDegrees>
              <LongitudeDegrees>19.966569431126117706298828125</LongitudeDegrees>
            </Position>
            <AltitudeMeters>818.4000244140625</AltitudeMeters>
            <DistanceMeters>NAN</DistanceMeters>
          </Trackpoint>
          <Trackpoint>
            <Time>2022-09-18T13:50:45.000Z</Time>
            <Position>
              <LatitudeDegrees>49.30467364378273487091064453125</LatitudeDegrees>
              <LongitudeDegrees>19.966569431126117706298828125</LongitudeDegrees>
            </Position>
            <AltitudeMeters>818.5999755859375</AltitudeMeters>
            <DistanceMeters>NAN</DistanceMeters>
          </Trackpoint>
          <Trackpoint>
            <Time>2022-09-18T13:50:49.000Z</Time>
            <Position>
              <LatitudeDegrees>49.3046143837273120880126953125</LatitudeDegrees>
              <LongitudeDegrees>19.966670684516429901123046875</LongitudeDegrees>
            </Position>
            <AltitudeMeters>819.20001220703125</AltitudeMeters>
            <DistanceMeters>NAN</DistanceMeters>
          </Trackpoint>
          <Trackpoint>
            <Time>2022-09-18T13:50:52.000Z</Time>
            <Position>
              <LatitudeDegrees>49.30459686554968357086181640625</LatitudeDegrees>
              <LongitudeDegrees>19.96675475500524044036865234375</LongitudeDegrees>
            </Position>
            <AltitudeMeters>819.5999755859375</AltitudeMeters>
            <DistanceMeters>NAN</DistanceMeters>
          </Trackpoint>
          <Trackpoint>
            <Time>2022-09-18T13:50:54.000Z</Time>
            <Position>
              <LatitudeDegrees>49.30459518916904926300048828125</LatitudeDegrees>
              <LongitudeDegrees>19.96679046191275119781494140625</LongitudeDegrees>
            </Position>
            <AltitudeMeters>819.79998779296875</AltitudeMeters>
            <DistanceMeters>NAN</DistanceMeters>
          </Trackpoint>
          <Trackpoint>
            <Time>2022-09-18T13:50:56.000Z</Time>
            <Position>
              <LatitudeDegrees>49.30459770374000072479248046875</LatitudeDegrees>
              <LongitudeDegrees>19.96680471114814281463623046875</LongitudeDegrees>
            </Position>
            <AltitudeMeters>820</AltitudeMeters>
            <DistanceMeters>NAN</DistanceMeters>
          </Trackpoint>
          <Trackpoint>
            <Time>2022-09-18T13:50:57.000Z</Time>
            <Position>
              <LatitudeDegrees>49.30463458411395549774169921875</LatitudeDegrees>
              <LongitudeDegrees>19.9668351374566555023193359375</LongitudeDegrees>
            </Position>
            <AltitudeMeters>820</AltitudeMeters>
            <DistanceMeters>NAN</DistanceMeters>
          </Trackpoint>
          <Trackpoint>
            <Time>2022-09-18T13:51:00.000Z</Time>
            <Position>
              <LatitudeDegrees>49.30463500320911407470703125</LatitudeDegrees>
              <LongitudeDegrees>19.96687863953411579132080078125</LongitudeDegrees>
            </Position>
            <AltitudeMeters>819.79998779296875</AltitudeMeters>
            <DistanceMeters>NAN</DistanceMeters>
          </Trackpoint>
          <Trackpoint>
            <Time>2022-09-18T13:51:02.000Z</Time>
            <Position>
              <LatitudeDegrees>49.30465721525251865386962890625</LatitudeDegrees>
              <LongitudeDegrees>19.96697519905865192413330078125</LongitudeDegrees>
            </Position>
            <AltitudeMeters>819.5999755859375</AltitudeMeters>
            <DistanceMeters>NAN</DistanceMeters>
          </Trackpoint>
          <Trackpoint>
            <Time>2022-09-18T13:51:04.000Z</Time>
            <Position>
              <LatitudeDegrees>49.30466450750827789306640625</LatitudeDegrees>
              <LongitudeDegrees>19.96701040305197238922119140625</LongitudeDegrees>
            </Position>
            <AltitudeMeters>819.4000244140625</AltitudeMeters>
            <DistanceMeters>NAN</DistanceMeters>
          </Trackpoint>
          <Trackpoint>
            <Time>2022-09-18T13:51:05.000Z</Time>
            <Position>
              <LatitudeDegrees>49.30468018166720867156982421875</LatitudeDegrees>
              <LongitudeDegrees>19.96707024984061717987060546875</LongitudeDegrees>
            </Position>
            <AltitudeMeters>819.20001220703125</AltitudeMeters>
            <DistanceMeters>NAN</DistanceMeters>
          </Trackpoint>
          <Trackpoint>
            <Time>2022-09-18T13:51:10.000Z</Time>
            <Position>
              <LatitudeDegrees>49.30471739731729030609130859375</LatitudeDegrees>
              <LongitudeDegrees>19.96717602945864200592041015625</LongitudeDegrees>
            </Position>
            <AltitudeMeters>818.5999755859375</AltitudeMeters>
            <DistanceMeters>NAN</DistanceMeters>
          </Trackpoint>
          <Trackpoint>
            <Time>2022-09-18T13:51:11.000Z</Time>
            <Position>
              <LatitudeDegrees>49.30471739731729030609130859375</LatitudeDegrees>
              <LongitudeDegrees>19.96717602945864200592041015625</LongitudeDegrees>
            </Position>
            <AltitudeMeters>818.4000244140625</AltitudeMeters>
            <DistanceMeters>NAN</DistanceMeters>
          </Trackpoint>
          <Trackpoint>
            <Time>2022-09-18T13:51:14.000Z</Time>
            <Position>
              <LatitudeDegrees>49.30475846864283084869384765625</LatitudeDegrees>
              <LongitudeDegrees>19.967325814068317413330078125</LongitudeDegrees>
            </Position>
            <AltitudeMeters>817.4000244140625</AltitudeMeters>
            <DistanceMeters>NAN</DistanceMeters>
          </Trackpoint>
          <Trackpoint>
            <Time>2022-09-18T13:51:16.000Z</Time>
            <Position>
              <LatitudeDegrees>49.3047719635069370269775390625</LatitudeDegrees>
              <LongitudeDegrees>19.96737702749669551849365234375</LongitudeDegrees>
            </Position>
            <AltitudeMeters>817</AltitudeMeters>
            <DistanceMeters>NAN</DistanceMeters>
          </Trackpoint>
          <Trackpoint>
            <Time>2022-09-18T13:51:19.000Z</Time>
            <Position>
              <LatitudeDegrees>49.3048071675002574920654296875</LatitudeDegrees>
              <LongitudeDegrees>19.9675534665584564208984375</LongitudeDegrees>
            </Position>
            <AltitudeMeters>816.20001220703125</AltitudeMeters>
            <DistanceMeters>NAN</DistanceMeters>
          </Trackpoint>
          <Trackpoint>
            <Time>2022-09-18T13:51:21.000Z</Time>
            <Position>
              <LatitudeDegrees>49.30483407340943813323974609375</LatitudeDegrees>
              <LongitudeDegrees>19.96772018261253833770751953125</LongitudeDegrees>
            </Position>
            <AltitudeMeters>815.20001220703125</AltitudeMeters>
            <DistanceMeters>NAN</DistanceMeters>
          </Trackpoint>
          <Trackpoint>
            <Time>2022-09-18T13:51:22.000Z</Time>
            <Position>
              <LatitudeDegrees>49.30483725853264331817626953125</LatitudeDegrees>
              <LongitudeDegrees>19.96776812709867954254150390625</LongitudeDegrees>
            </Position>
            <AltitudeMeters>814.79998779296875</AltitudeMeters>
            <DistanceMeters>NAN</DistanceMeters>
          </Trackpoint>
          <Trackpoint>
            <Time>2022-09-18T13:51:27.000Z</Time>
            <Position>
              <LatitudeDegrees>49.30487112142145633697509765625</LatitudeDegrees>
              <LongitudeDegrees>19.96800131164491176605224609375</LongitudeDegrees>
            </Position>
            <AltitudeMeters>813.79998779296875</AltitudeMeters>
            <DistanceMeters>NAN</DistanceMeters>
          </Trackpoint>
          <Trackpoint>
            <Time>2022-09-18T13:51:29.000Z</Time>
            <Position>
              <LatitudeDegrees>49.30484111420810222625732421875</LatitudeDegrees>
              <LongitudeDegrees>19.9680907465517520904541015625</LongitudeDegrees>
            </Position>
            <AltitudeMeters>813.5999755859375</AltitudeMeters>
            <DistanceMeters>NAN</DistanceMeters>
          </Trackpoint>
          <Trackpoint>
            <Time>2022-09-18T13:51:31.000Z</Time>
            <Position>
              <LatitudeDegrees>49.304825775325298309326171875</LatitudeDegrees>
              <LongitudeDegrees>19.96811899356544017791748046875</LongitudeDegrees>
            </Position>
            <AltitudeMeters>813.4000244140625</AltitudeMeters>
            <DistanceMeters>NAN</DistanceMeters>
          </Trackpoint>
          <Trackpoint>
            <Time>2022-09-18T13:51:35.000Z</Time>
            <Position>
              <LatitudeDegrees>49.30484496988356113433837890625</LatitudeDegrees>
              <LongitudeDegrees>19.9681373499333858489990234375</LongitudeDegrees>
            </Position>
            <AltitudeMeters>813</AltitudeMeters>
            <DistanceMeters>NAN</DistanceMeters>
          </Trackpoint>
          <Trackpoint>
            <Time>2022-09-18T13:51:36.000Z</Time>
            <Position>
              <LatitudeDegrees>49.30486173368990421295166015625</LatitudeDegrees>
              <LongitudeDegrees>19.96813056059181690216064453125</LongitudeDegrees>
            </Position>
            <AltitudeMeters>813</AltitudeMeters>
            <DistanceMeters>NAN</DistanceMeters>
          </Trackpoint>
          <Trackpoint>
            <Time>2022-09-18T13:51:39.000Z</Time>
            <Position>
              <LatitudeDegrees>49.30495259352028369903564453125</LatitudeDegrees>
              <LongitudeDegrees>19.96810139156877994537353515625</LongitudeDegrees>
            </Position>
            <AltitudeMeters>812.79998779296875</AltitudeMeters>
            <DistanceMeters>NAN</DistanceMeters>
          </Trackpoint>
          <Trackpoint>
            <Time>2022-09-18T13:51:41.000Z</Time>
            <Position>
              <LatitudeDegrees>49.30501411668956279754638671875</LatitudeDegrees>
              <LongitudeDegrees>19.96808412484824657440185546875</LongitudeDegrees>
            </Position>
            <AltitudeMeters>812.20001220703125</AltitudeMeters>
            <DistanceMeters>NAN</DistanceMeters>
          </Trackpoint>
          <Trackpoint>
            <Time>2022-09-18T13:51:46.000Z</Time>
            <Position>
              <LatitudeDegrees>49.30518963374197483062744140625</LatitudeDegrees>
              <LongitudeDegrees>19.96798303909599781036376953125</LongitudeDegrees>
            </Position>
            <AltitudeMeters>811.5999755859375</AltitudeMeters>
            <DistanceMeters>NAN</DistanceMeters>
          </Trackpoint>
          <Trackpoint>
            <Time>2022-09-18T13:51:51.000Z</Time>
            <Position>
              <LatitudeDegrees>49.30539733730256557464599609375</LatitudeDegrees>
              <LongitudeDegrees>19.96787642128765583038330078125</LongitudeDegrees>
            </Position>
            <AltitudeMeters>811.20001220703125</AltitudeMeters>
            <DistanceMeters>NAN</DistanceMeters>
          </Trackpoint>
          <Trackpoint>
            <Time>2022-09-18T13:51:52.000Z</Time>
            <Position>
              <LatitudeDegrees>49.30539733730256557464599609375</LatitudeDegrees>
              <LongitudeDegrees>19.96787642128765583038330078125</LongitudeDegrees>
            </Position>
            <AltitudeMeters>811</AltitudeMeters>
            <DistanceMeters>NAN</DistanceMeters>
          </Trackpoint>
          <Trackpoint>
            <Time>2022-09-18T13:51:53.000Z</Time>
            <Position>
              <LatitudeDegrees>49.30549733340740203857421875</LatitudeDegrees>
              <LongitudeDegrees>19.96786334551870822906494140625</LongitudeDegrees>
            </Position>
            <AltitudeMeters>810.5999755859375</AltitudeMeters>
            <DistanceMeters>NAN</DistanceMeters>
          </Trackpoint>
          <Trackpoint>
            <Time>2022-09-18T13:51:54.000Z</Time>
            <Position>
              <LatitudeDegrees>49.30554569698870182037353515625</LatitudeDegrees>
              <LongitudeDegrees>19.9678687937557697296142578125</LongitudeDegrees>
            </Position>
            <AltitudeMeters>810.4000244140625</AltitudeMeters>
            <DistanceMeters>NAN</DistanceMeters>
          </Trackpoint>
          <Trackpoint>
            <Time>2022-09-18T13:51:56.000Z</Time>
            <Position>
              <LatitudeDegrees>49.30564275942742824554443359375</LatitudeDegrees>
              <LongitudeDegrees>19.96787122450768947601318359375</LongitudeDegrees>
            </Position>
            <AltitudeMeters>810</AltitudeMeters>
            <DistanceMeters>NAN</DistanceMeters>
          </Trackpoint>
          <Trackpoint>
            <Time>2022-09-18T13:51:58.000Z</Time>
            <Position>
              <LatitudeDegrees>49.3057335354387760162353515625</LatitudeDegrees>
              <LongitudeDegrees>19.967863261699676513671875</LongitudeDegrees>
            </Position>
            <AltitudeMeters>809.4000244140625</AltitudeMeters>
            <DistanceMeters>NAN</DistanceMeters>
          </Trackpoint>
          <Trackpoint>
            <Time>2022-09-18T13:52:00.000Z</Time>
            <Position>
              <LatitudeDegrees>49.30581894703209400177001953125</LatitudeDegrees>
              <LongitudeDegrees>19.96784205548465251922607421875</LongitudeDegrees>
            </Position>
            <AltitudeMeters>809</AltitudeMeters>
            <DistanceMeters>NAN</DistanceMeters>
          </Trackpoint>
          <Trackpoint>
            <Time>2022-09-18T13:52:03.000Z</Time>
            <Position>
              <LatitudeDegrees>49.30589924566447734832763671875</LatitudeDegrees>
              <LongitudeDegrees>19.9677960388362407684326171875</LongitudeDegrees>
            </Position>
            <AltitudeMeters>809</AltitudeMeters>
            <DistanceMeters>NAN</DistanceMeters>
          </Trackpoint>
          <Trackpoint>
            <Time>2022-09-18T13:52:08.000Z</Time>
            <Position>
              <LatitudeDegrees>49.30608884431421756744384765625</LatitudeDegrees>
              <LongitudeDegrees>19.9676525406539440155029296875</LongitudeDegrees>
            </Position>
            <AltitudeMeters>808.5999755859375</AltitudeMeters>
            <DistanceMeters>NAN</DistanceMeters>
          </Trackpoint>
          <Trackpoint>
            <Time>2022-09-18T13:52:10.000Z</Time>
            <Position>
              <LatitudeDegrees>49.30619445629417896270751953125</LatitudeDegrees>
              <LongitudeDegrees>19.9675915203988552093505859375</LongitudeDegrees>
            </Position>
            <AltitudeMeters>808.20001220703125</AltitudeMeters>
            <DistanceMeters>NAN</DistanceMeters>
          </Trackpoint>
          <Trackpoint>
            <Time>2022-09-18T13:52:14.000Z</Time>
            <Position>
              <LatitudeDegrees>49.3063621781766414642333984375</LatitudeDegrees>
              <LongitudeDegrees>19.96753343380987644195556640625</LongitudeDegrees>
            </Position>
            <AltitudeMeters>807</AltitudeMeters>
            <DistanceMeters>NAN</DistanceMeters>
          </Trackpoint>
          <Trackpoint>
            <Time>2022-09-18T13:52:17.000Z</Time>
            <Position>
              <LatitudeDegrees>49.30649243295192718505859375</LatitudeDegrees>
              <LongitudeDegrees>19.96745481155812740325927734375</LongitudeDegrees>
            </Position>
            <AltitudeMeters>806.5999755859375</AltitudeMeters>
            <DistanceMeters>NAN</DistanceMeters>
          </Trackpoint>
          <Trackpoint>
            <Time>2022-09-18T13:52:18.000Z</Time>
            <Position>
              <LatitudeDegrees>49.30649243295192718505859375</LatitudeDegrees>
              <LongitudeDegrees>19.96745481155812740325927734375</LongitudeDegrees>
            </Position>
            <AltitudeMeters>806.5999755859375</AltitudeMeters>
            <DistanceMeters>NAN</DistanceMeters>
          </Trackpoint>
          <Trackpoint>
            <Time>2022-09-18T13:52:22.000Z</Time>
            <Position>
              <LatitudeDegrees>49.3066417984664440155029296875</LatitudeDegrees>
              <LongitudeDegrees>19.96732908301055431365966796875</LongitudeDegrees>
            </Position>
            <AltitudeMeters>806</AltitudeMeters>
            <DistanceMeters>NAN</DistanceMeters>
          </Trackpoint>
          <Trackpoint>
            <Time>2022-09-18T13:52:24.000Z</Time>
            <Position>
              <LatitudeDegrees>49.30669133551418781280517578125</LatitudeDegrees>
              <LongitudeDegrees>19.96727996505796909332275390625</LongitudeDegrees>
            </Position>
            <AltitudeMeters>805.4000244140625</AltitudeMeters>
            <DistanceMeters>NAN</DistanceMeters>
          </Trackpoint>
          <Trackpoint>
            <Time>2022-09-18T13:52:29.000Z</Time>
            <Position>
              <LatitudeDegrees>49.30678923614323139190673828125</LatitudeDegrees>
              <LongitudeDegrees>19.967140071094036102294921875</LongitudeDegrees>
            </Position>
            <AltitudeMeters>805</AltitudeMeters>
            <DistanceMeters>NAN</DistanceMeters>
          </Trackpoint>
          <Trackpoint>
            <Time>2022-09-18T13:52:30.000Z</Time>
            <Position>
              <LatitudeDegrees>49.30678923614323139190673828125</LatitudeDegrees>
              <LongitudeDegrees>19.967140071094036102294921875</LongitudeDegrees>
            </Position>
            <AltitudeMeters>805</AltitudeMeters>
            <DistanceMeters>NAN</DistanceMeters>
          </Trackpoint>
          <Trackpoint>
            <Time>2022-09-18T13:52:36.000Z</Time>
            <Position>
              <LatitudeDegrees>49.3069455586373805999755859375</LatitudeDegrees>
              <LongitudeDegrees>19.96683790348470211029052734375</LongitudeDegrees>
            </Position>
            <AltitudeMeters>804.20001220703125</AltitudeMeters>
            <DistanceMeters>NAN</DistanceMeters>
          </Trackpoint>
          <Trackpoint>
            <Time>2022-09-18T13:52:37.000Z</Time>
            <Position>
              <LatitudeDegrees>49.3069740571081638336181640625</LatitudeDegrees>
              <LongitudeDegrees>19.96680756099522113800048828125</LongitudeDegrees>
            </Position>
            <AltitudeMeters>804</AltitudeMeters>
            <DistanceMeters>NAN</DistanceMeters>
          </Trackpoint>
          <Trackpoint>
            <Time>2022-09-18T13:52:38.000Z</Time>
            <Position>
              <LatitudeDegrees>49.3069740571081638336181640625</LatitudeDegrees>
              <LongitudeDegrees>19.96680756099522113800048828125</LongitudeDegrees>
            </Position>
            <AltitudeMeters>803.79998779296875</AltitudeMeters>
            <DistanceMeters>NAN</DistanceMeters>
          </Trackpoint>
          <Trackpoint>
            <Time>2022-09-18T13:52:43.000Z</Time>
            <Position>
              <LatitudeDegrees>49.30716105736792087554931640625</LatitudeDegrees>
              <LongitudeDegrees>19.9666098318994045257568359375</LongitudeDegrees>
            </Position>
            <AltitudeMeters>803.5999755859375</AltitudeMeters>
            <DistanceMeters>NAN</DistanceMeters>
          </Trackpoint>
          <Trackpoint>
            <Time>2022-09-18T13:52:47.000Z</Time>
            <Position>
              <LatitudeDegrees>49.30725376121699810028076171875</LatitudeDegrees>
              <LongitudeDegrees>19.96655560098588466644287109375</LongitudeDegrees>
            </Position>
            <AltitudeMeters>804.20001220703125</AltitudeMeters>
            <DistanceMeters>NAN</DistanceMeters>
          </Trackpoint>
          <Trackpoint>
            <Time>2022-09-18T13:52:51.000Z</Time>
            <Position>
              <LatitudeDegrees>49.3073160387575626373291015625</LatitudeDegrees>
              <LongitudeDegrees>19.9665075726807117462158203125</LongitudeDegrees>
            </Position>
            <AltitudeMeters>804.20001220703125</AltitudeMeters>
            <DistanceMeters>NAN</DistanceMeters>
          </Trackpoint>
          <Trackpoint>
            <Time>2022-09-18T13:52:55.000Z</Time>
            <Position>
              <LatitudeDegrees>49.30746607482433319091796875</LatitudeDegrees>
              <LongitudeDegrees>19.9664143659174442291259765625</LongitudeDegrees>
            </Position>
            <AltitudeMeters>803.79998779296875</AltitudeMeters>
            <DistanceMeters>NAN</DistanceMeters>
          </Trackpoint>
          <Trackpoint>
            <Time>2022-09-18T13:52:57.000Z</Time>
            <Position>
              <LatitudeDegrees>49.3075728602707386016845703125</LatitudeDegrees>
              <LongitudeDegrees>19.96636466123163700103759765625</LongitudeDegrees>
            </Position>
            <AltitudeMeters>803</AltitudeMeters>
            <DistanceMeters>NAN</DistanceMeters>
          </Trackpoint>
          <Trackpoint>
            <Time>2022-09-18T13:52:58.000Z</Time>
            <Position>
              <LatitudeDegrees>49.30763312615454196929931640625</LatitudeDegrees>
              <LongitudeDegrees>19.9663587100803852081298828125</LongitudeDegrees>
            </Position>
            <AltitudeMeters>802.5999755859375</AltitudeMeters>
            <DistanceMeters>NAN</DistanceMeters>
          </Trackpoint>
          <Trackpoint>
            <Time>2022-09-18T13:52:59.000Z</Time>
            <Position>
              <LatitudeDegrees>49.30763312615454196929931640625</LatitudeDegrees>
              <LongitudeDegrees>19.9663587100803852081298828125</LongitudeDegrees>
            </Position>
            <AltitudeMeters>802.20001220703125</AltitudeMeters>
            <DistanceMeters>NAN</DistanceMeters>
          </Trackpoint>
          <Trackpoint>
            <Time>2022-09-18T13:53:01.000Z</Time>
            <Position>
              <LatitudeDegrees>49.307818114757537841796875</LatitudeDegrees>
              <LongitudeDegrees>19.96636323630809783935546875</LongitudeDegrees>
            </Position>
            <AltitudeMeters>801.4000244140625</AltitudeMeters>
            <DistanceMeters>NAN</DistanceMeters>
          </Trackpoint>
          <Trackpoint>
            <Time>2022-09-18T13:53:04.000Z</Time>
            <Position>
              <LatitudeDegrees>49.30793722160160541534423828125</LatitudeDegrees>
              <LongitudeDegrees>19.966350831091403961181640625</LongitudeDegrees>
            </Position>
            <AltitudeMeters>801</AltitudeMeters>
            <DistanceMeters>NAN</DistanceMeters>
          </Trackpoint>
          <Trackpoint>
            <Time>2022-09-18T13:53:05.000Z</Time>
            <Position>
              <LatitudeDegrees>49.30799304507672786712646484375</LatitudeDegrees>
              <LongitudeDegrees>19.966336749494075775146484375</LongitudeDegrees>
            </Position>
            <AltitudeMeters>801</AltitudeMeters>
            <DistanceMeters>NAN</DistanceMeters>
          </Trackpoint>
          <Trackpoint>
            <Time>2022-09-18T13:53:10.000Z</Time>
            <Position>
              <LatitudeDegrees>49.308317340910434722900390625</LatitudeDegrees>
              <LongitudeDegrees>19.96623172424733638763427734375</LongitudeDegrees>
            </Position>
            <AltitudeMeters>800.79998779296875</AltitudeMeters>
            <DistanceMeters>NAN</DistanceMeters>
          </Trackpoint>
          <Trackpoint>
            <Time>2022-09-18T13:53:12.000Z</Time>
            <Position>
              <LatitudeDegrees>49.308418594300746917724609375</LatitudeDegrees>
              <LongitudeDegrees>19.96616299264132976531982421875</LongitudeDegrees>
            </Position>
            <AltitudeMeters>800.79998779296875</AltitudeMeters>
            <DistanceMeters>NAN</DistanceMeters>
          </Trackpoint>
          <Trackpoint>
            <Time>2022-09-18T13:53:14.000Z</Time>
            <Position>
              <LatitudeDegrees>49.308470897376537322998046875</LatitudeDegrees>
              <LongitudeDegrees>19.9661280401051044464111328125</LongitudeDegrees>
            </Position>
            <AltitudeMeters>800.79998779296875</AltitudeMeters>
            <DistanceMeters>NAN</DistanceMeters>
          </Trackpoint>
          <Trackpoint>
            <Time>2022-09-18T13:53:17.000Z</Time>
            <Position>
              <LatitudeDegrees>49.3087010644376277923583984375</LatitudeDegrees>
              <LongitudeDegrees>19.96602720580995082855224609375</LongitudeDegrees>
            </Position>
            <AltitudeMeters>800.4000244140625</AltitudeMeters>
            <DistanceMeters>NAN</DistanceMeters>
          </Trackpoint>
          <Trackpoint>
            <Time>2022-09-18T13:53:18.000Z</Time>
            <Position>
              <LatitudeDegrees>49.308759234845638275146484375</LatitudeDegrees>
              <LongitudeDegrees>19.966004826128482818603515625</LongitudeDegrees>
            </Position>
            <AltitudeMeters>800</AltitudeMeters>
            <DistanceMeters>NAN</DistanceMeters>
          </Trackpoint>
          <Trackpoint>
            <Time>2022-09-18T13:53:19.000Z</Time>
            <Position>
              <LatitudeDegrees>49.30882997810840606689453125</LatitudeDegrees>
              <LongitudeDegrees>19.9659848771989345550537109375</LongitudeDegrees>
            </Position>
            <AltitudeMeters>799</AltitudeMeters>
            <DistanceMeters>NAN</DistanceMeters>
          </Trackpoint>
          <Trackpoint>
            <Time>2022-09-18T13:53:22.000Z</Time>
            <Position>
              <LatitudeDegrees>49.308985881507396697998046875</LatitudeDegrees>
              <LongitudeDegrees>19.96595210395753383636474609375</LongitudeDegrees>
            </Position>
            <AltitudeMeters>798</AltitudeMeters>
            <DistanceMeters>NAN</DistanceMeters>
          </Trackpoint>
          <Trackpoint>
            <Time>2022-09-18T13:53:24.000Z</Time>
            <Position>
              <LatitudeDegrees>49.30901563726365566253662109375</LatitudeDegrees>
              <LongitudeDegrees>19.9659392796456813812255859375</LongitudeDegrees>
            </Position>
            <AltitudeMeters>798.5999755859375</AltitudeMeters>
            <DistanceMeters>NAN</DistanceMeters>
          </Trackpoint>
          <Trackpoint>
            <Time>2022-09-18T13:53:28.000Z</Time>
            <Position>
              <LatitudeDegrees>49.30914513766765594482421875</LatitudeDegrees>
              <LongitudeDegrees>19.96589812450110912322998046875</LongitudeDegrees>
            </Position>
            <AltitudeMeters>798.5999755859375</AltitudeMeters>
            <DistanceMeters>NAN</DistanceMeters>
          </Trackpoint>
          <Trackpoint>
            <Time>2022-09-18T13:53:32.000Z</Time>
            <Position>
              <LatitudeDegrees>49.30921831168234348297119140625</LatitudeDegrees>
              <LongitudeDegrees>19.965889491140842437744140625</LongitudeDegrees>
            </Position>
            <AltitudeMeters>798.20001220703125</AltitudeMeters>
            <DistanceMeters>NAN</DistanceMeters>
          </Trackpoint>
          <Trackpoint>
            <Time>2022-09-18T13:53:35.000Z</Time>
            <Position>
              <LatitudeDegrees>49.30924496613442897796630859375</LatitudeDegrees>
              <LongitudeDegrees>19.9658920057117938995361328125</LongitudeDegrees>
            </Position>
            <AltitudeMeters>798</AltitudeMeters>
            <DistanceMeters>NAN</DistanceMeters>
          </Trackpoint>
          <Trackpoint>
            <Time>2022-09-18T13:53:39.000Z</Time>
            <Position>
              <LatitudeDegrees>49.309299699962139129638671875</LatitudeDegrees>
              <LongitudeDegrees>19.9660143814980983734130859375</LongitudeDegrees>
            </Position>
            <AltitudeMeters>797.20001220703125</AltitudeMeters>
            <DistanceMeters>NAN</DistanceMeters>
          </Trackpoint>
          <Trackpoint>
            <Time>2022-09-18T13:53:42.000Z</Time>
            <Position>
              <LatitudeDegrees>49.30931705050170421600341796875</LatitudeDegrees>
              <LongitudeDegrees>19.9661468155682086944580078125</LongitudeDegrees>
            </Position>
            <AltitudeMeters>796.79998779296875</AltitudeMeters>
            <DistanceMeters>NAN</DistanceMeters>
          </Trackpoint>
          <Trackpoint>
            <Time>2022-09-18T13:53:45.000Z</Time>
            <Position>
              <LatitudeDegrees>49.3093458004295825958251953125</LatitudeDegrees>
              <LongitudeDegrees>19.9663679301738739013671875</LongitudeDegrees>
            </Position>
            <AltitudeMeters>796.5999755859375</AltitudeMeters>
            <DistanceMeters>NAN</DistanceMeters>
          </Trackpoint>
          <Trackpoint>
            <Time>2022-09-18T13:53:51.000Z</Time>
            <Position>
              <LatitudeDegrees>49.30940975435078144073486328125</LatitudeDegrees>
              <LongitudeDegrees>19.96675861068069934844970703125</LongitudeDegrees>
            </Position>
            <AltitudeMeters>795.5999755859375</AltitudeMeters>
            <DistanceMeters>NAN</DistanceMeters>
          </Trackpoint>
          <Trackpoint>
            <Time>2022-09-18T13:53:52.000Z</Time>
            <Position>
              <LatitudeDegrees>49.3094266019761562347412109375</LatitudeDegrees>
              <LongitudeDegrees>19.9668301083147525787353515625</LongitudeDegrees>
            </Position>
            <AltitudeMeters>795.4000244140625</AltitudeMeters>
            <DistanceMeters>NAN</DistanceMeters>
          </Trackpoint>
          <Trackpoint>
            <Time>2022-09-18T13:53:54.000Z</Time>
            <Position>
              <LatitudeDegrees>49.30945350788533687591552734375</LatitudeDegrees>
              <LongitudeDegrees>19.9669813178479671478271484375</LongitudeDegrees>
            </Position>
            <AltitudeMeters>795.20001220703125</AltitudeMeters>
            <DistanceMeters>NAN</DistanceMeters>
          </Trackpoint>
          <Trackpoint>
            <Time>2022-09-18T13:53:58.000Z</Time>
            <Position>
              <LatitudeDegrees>49.30949407629668712615966796875</LatitudeDegrees>
              <LongitudeDegrees>19.96729932725429534912109375</LongitudeDegrees>
            </Position>
            <AltitudeMeters>794.5999755859375</AltitudeMeters>
            <DistanceMeters>NAN</DistanceMeters>
          </Trackpoint>
          <Trackpoint>
            <Time>2022-09-18T13:53:59.000Z</Time>
            <Position>
              <LatitudeDegrees>49.309506230056285858154296875</LatitudeDegrees>
              <LongitudeDegrees>19.96738390065729618072509765625</LongitudeDegrees>
            </Position>
            <AltitudeMeters>794.4000244140625</AltitudeMeters>
            <DistanceMeters>NAN</DistanceMeters>
          </Trackpoint>
          <Trackpoint>
            <Time>2022-09-18T13:54:04.000Z</Time>
            <Position>
              <LatitudeDegrees>49.30955953896045684814453125</LatitudeDegrees>
              <LongitudeDegrees>19.96771213598549365997314453125</LongitudeDegrees>
            </Position>
            <AltitudeMeters>793.4000244140625</AltitudeMeters>
            <DistanceMeters>NAN</DistanceMeters>
          </Trackpoint>
          <Trackpoint>
            <Time>2022-09-18T13:54:07.000Z</Time>
            <Position>
              <LatitudeDegrees>49.3095982633531093597412109375</LatitudeDegrees>
              <LongitudeDegrees>19.96794800274074077606201171875</LongitudeDegrees>
            </Position>
            <AltitudeMeters>792.79998779296875</AltitudeMeters>
            <DistanceMeters>NAN</DistanceMeters>
          </Trackpoint>
          <Trackpoint>
            <Time>2022-09-18T13:54:11.000Z</Time>
            <Position>
              <LatitudeDegrees>49.30965341627597808837890625</LatitudeDegrees>
              <LongitudeDegrees>19.96827238239347934722900390625</LongitudeDegrees>
            </Position>
            <AltitudeMeters>792.4000244140625</AltitudeMeters>
            <DistanceMeters>NAN</DistanceMeters>
          </Trackpoint>
          <Trackpoint>
            <Time>2022-09-18T13:54:12.000Z</Time>
            <Position>
              <LatitudeDegrees>49.3096612952649593353271484375</LatitudeDegrees>
              <LongitudeDegrees>19.9683073349297046661376953125</LongitudeDegrees>
            </Position>
            <AltitudeMeters>792.20001220703125</AltitudeMeters>
            <DistanceMeters>NAN</DistanceMeters>
          </Trackpoint>
          <Trackpoint>
            <Time>2022-09-18T13:54:17.000Z</Time>
            <Position>
              <LatitudeDegrees>49.3096797354519367218017578125</LatitudeDegrees>
              <LongitudeDegrees>19.9684219993650913238525390625</LongitudeDegrees>
            </Position>
            <AltitudeMeters>791.79998779296875</AltitudeMeters>
            <DistanceMeters>NAN</DistanceMeters>
          </Trackpoint>
          <Trackpoint>
            <Time>2022-09-18T13:54:25.000Z</Time>
            <Position>
              <LatitudeDegrees>49.30971519090235233306884765625</LatitudeDegrees>
              <LongitudeDegrees>19.96857631020247936248779296875</LongitudeDegrees>
            </Position>
            <AltitudeMeters>791.5999755859375</AltitudeMeters>
            <DistanceMeters>NAN</DistanceMeters>
          </Trackpoint>
          <Trackpoint>
            <Time>2022-09-18T13:54:26.000Z</Time>
            <Position>
              <LatitudeDegrees>49.30972055532038211822509765625</LatitudeDegrees>
              <LongitudeDegrees>19.96858234517276287078857421875</LongitudeDegrees>
            </Position>
            <AltitudeMeters>791.4000244140625</AltitudeMeters>
            <DistanceMeters>NAN</DistanceMeters>
          </Trackpoint>
          <Trackpoint>
            <Time>2022-09-18T13:54:28.000Z</Time>
            <Position>
              <LatitudeDegrees>49.3097320385277271270751953125</LatitudeDegrees>
              <LongitudeDegrees>19.96858812868595123291015625</LongitudeDegrees>
            </Position>
            <AltitudeMeters>791.4000244140625</AltitudeMeters>
            <DistanceMeters>NAN</DistanceMeters>
          </Trackpoint>
          <Trackpoint>
            <Time>2022-09-18T13:54:29.000Z</Time>
            <Position>
              <LatitudeDegrees>49.30977537296712398529052734375</LatitudeDegrees>
              <LongitudeDegrees>19.9686047248542308807373046875</LongitudeDegrees>
            </Position>
            <AltitudeMeters>791.4000244140625</AltitudeMeters>
            <DistanceMeters>NAN</DistanceMeters>
          </Trackpoint>
          <Trackpoint>
            <Time>2022-09-18T13:54:30.000Z</Time>
            <Position>
              <LatitudeDegrees>49.30977537296712398529052734375</LatitudeDegrees>
              <LongitudeDegrees>19.9686047248542308807373046875</LongitudeDegrees>
            </Position>
            <AltitudeMeters>791.20001220703125</AltitudeMeters>
            <DistanceMeters>NAN</DistanceMeters>
          </Trackpoint>
          <Trackpoint>
            <Time>2022-09-18T13:54:32.000Z</Time>
            <Position>
              <LatitudeDegrees>49.30981946177780628204345703125</LatitudeDegrees>
              <LongitudeDegrees>19.9686191417276859283447265625</LongitudeDegrees>
            </Position>
            <AltitudeMeters>791.20001220703125</AltitudeMeters>
            <DistanceMeters>NAN</DistanceMeters>
          </Trackpoint>
          <Trackpoint>
            <Time>2022-09-18T13:54:34.000Z</Time>
            <Position>
              <LatitudeDegrees>49.30982348509132862091064453125</LatitudeDegrees>
              <LongitudeDegrees>19.9686379171907901763916015625</LongitudeDegrees>
            </Position>
            <AltitudeMeters>790.79998779296875</AltitudeMeters>
            <DistanceMeters>NAN</DistanceMeters>
          </Trackpoint>
          <Trackpoint>
            <Time>2022-09-18T13:54:39.000Z</Time>
            <Position>
              <LatitudeDegrees>49.30988215841352939605712890625</LatitudeDegrees>
              <LongitudeDegrees>19.968745373189449310302734375</LongitudeDegrees>
            </Position>
            <AltitudeMeters>790.79998779296875</AltitudeMeters>
            <DistanceMeters>NAN</DistanceMeters>
          </Trackpoint>
          <Trackpoint>
            <Time>2022-09-18T13:54:41.000Z</Time>
            <Position>
              <LatitudeDegrees>49.3099157698452472686767578125</LatitudeDegrees>
              <LongitudeDegrees>19.968764819204807281494140625</LongitudeDegrees>
            </Position>
            <AltitudeMeters>790.79998779296875</AltitudeMeters>
            <DistanceMeters>NAN</DistanceMeters>
          </Trackpoint>
          <Trackpoint>
            <Time>2022-09-18T13:54:47.000Z</Time>
            <Position>
              <LatitudeDegrees>49.31000419892370700836181640625</LatitudeDegrees>
              <LongitudeDegrees>19.9688317067921161651611328125</LongitudeDegrees>
            </Position>
            <AltitudeMeters>790.20001220703125</AltitudeMeters>
            <DistanceMeters>NAN</DistanceMeters>
          </Trackpoint>
          <Trackpoint>
            <Time>2022-09-18T13:54:49.000Z</Time>
            <Position>
              <LatitudeDegrees>49.31002330966293811798095703125</LatitudeDegrees>
              <LongitudeDegrees>19.9688545055687427520751953125</LongitudeDegrees>
            </Position>
            <AltitudeMeters>790.20001220703125</AltitudeMeters>
            <DistanceMeters>NAN</DistanceMeters>
          </Trackpoint>
          <Trackpoint>
            <Time>2022-09-18T13:54:54.000Z</Time>
            <Position>
              <LatitudeDegrees>49.3100129999220371246337890625</LatitudeDegrees>
              <LongitudeDegrees>19.9688494764268398284912109375</LongitudeDegrees>
            </Position>
            <AltitudeMeters>790</AltitudeMeters>
            <DistanceMeters>NAN</DistanceMeters>
          </Trackpoint>
          <Trackpoint>
            <Time>2022-09-18T13:54:58.000Z</Time>
            <Position>
              <LatitudeDegrees>49.31003085337579250335693359375</LatitudeDegrees>
              <LongitudeDegrees>19.9688704311847686767578125</LongitudeDegrees>
            </Position>
            <AltitudeMeters>790</AltitudeMeters>
            <DistanceMeters>NAN</DistanceMeters>
          </Trackpoint>
          <Trackpoint>
            <Time>2022-09-18T13:55:01.000Z</Time>
            <Position>
              <LatitudeDegrees>49.31003303267061710357666015625</LatitudeDegrees>
              <LongitudeDegrees>19.9688719399273395538330078125</LongitudeDegrees>
            </Position>
            <AltitudeMeters>790</AltitudeMeters>
            <DistanceMeters>NAN</DistanceMeters>
          </Trackpoint>
          <Trackpoint>
            <Time>2022-09-18T13:55:03.000Z</Time>
            <Position>
              <LatitudeDegrees>49.3100408278405666351318359375</LatitudeDegrees>
              <LongitudeDegrees>19.9689187109470367431640625</LongitudeDegrees>
            </Position>
            <AltitudeMeters>790.20001220703125</AltitudeMeters>
            <DistanceMeters>NAN</DistanceMeters>
          </Trackpoint>
          <Trackpoint>
            <Time>2022-09-18T13:55:05.000Z</Time>
            <Position>
              <LatitudeDegrees>49.31005180813372135162353515625</LatitudeDegrees>
              <LongitudeDegrees>19.9689450301229953765869140625</LongitudeDegrees>
            </Position>
            <AltitudeMeters>790.20001220703125</AltitudeMeters>
            <DistanceMeters>NAN</DistanceMeters>
          </Trackpoint>
          <Trackpoint>
            <Time>2022-09-18T13:55:10.000Z</Time>
            <Position>
              <LatitudeDegrees>49.31016630493104457855224609375</LatitudeDegrees>
              <LongitudeDegrees>19.96908492408692836761474609375</LongitudeDegrees>
            </Position>
            <AltitudeMeters>790</AltitudeMeters>
            <DistanceMeters>NAN</DistanceMeters>
          </Trackpoint>
          <Trackpoint>
            <Time>2022-09-18T13:55:16.000Z</Time>
            <Position>
              <LatitudeDegrees>49.31034450419247150421142578125</LatitudeDegrees>
              <LongitudeDegrees>19.969233535230159759521484375</LongitudeDegrees>
            </Position>
            <AltitudeMeters>789</AltitudeMeters>
            <DistanceMeters>NAN</DistanceMeters>
          </Trackpoint>
          <Trackpoint>
            <Time>2022-09-18T13:55:23.000Z</Time>
            <Position>
              <LatitudeDegrees>49.31054365821182727813720703125</LatitudeDegrees>
              <LongitudeDegrees>19.969415254890918731689453125</LongitudeDegrees>
            </Position>
            <AltitudeMeters>789</AltitudeMeters>
            <DistanceMeters>NAN</DistanceMeters>
          </Trackpoint>
          <Trackpoint>
            <Time>2022-09-18T13:55:29.000Z</Time>
            <Position>
              <LatitudeDegrees>49.31075446307659149169921875</LatitudeDegrees>
              <LongitudeDegrees>19.96963393874466419219970703125</LongitudeDegrees>
            </Position>
            <AltitudeMeters>788.20001220703125</AltitudeMeters>
            <DistanceMeters>NAN</DistanceMeters>
          </Trackpoint>
          <Trackpoint>
            <Time>2022-09-18T13:55:31.000Z</Time>
            <Position>
              <LatitudeDegrees>49.310817159712314605712890625</LatitudeDegrees>
              <LongitudeDegrees>19.96973234228789806365966796875</LongitudeDegrees>
            </Position>
            <AltitudeMeters>788</AltitudeMeters>
            <DistanceMeters>NAN</DistanceMeters>
          </Trackpoint>
          <Trackpoint>
            <Time>2022-09-18T13:55:36.000Z</Time>
            <Position>
              <LatitudeDegrees>49.31098421104252338409423828125</LatitudeDegrees>
              <LongitudeDegrees>19.97005973942577838897705078125</LongitudeDegrees>
            </Position>
            <AltitudeMeters>787.20001220703125</AltitudeMeters>
            <DistanceMeters>NAN</DistanceMeters>
          </Trackpoint>
          <Trackpoint>
            <Time>2022-09-18T13:55:38.000Z</Time>
            <Position>
              <LatitudeDegrees>49.31100969202816486358642578125</LatitudeDegrees>
              <LongitudeDegrees>19.97012369334697723388671875</LongitudeDegrees>
            </Position>
            <AltitudeMeters>787.20001220703125</AltitudeMeters>
            <DistanceMeters>NAN</DistanceMeters>
          </Trackpoint>
          <Trackpoint>
            <Time>2022-09-18T13:55:45.000Z</Time>
            <Position>
              <LatitudeDegrees>49.31123298592865467071533203125</LatitudeDegrees>
              <LongitudeDegrees>19.97064764611423015594482421875</LongitudeDegrees>
            </Position>
            <AltitudeMeters>787</AltitudeMeters>
            <DistanceMeters>NAN</DistanceMeters>
          </Trackpoint>
          <Trackpoint>
            <Time>2022-09-18T13:55:52.000Z</Time>
            <Position>
              <LatitudeDegrees>49.3114003725349903106689453125</LatitudeDegrees>
              <LongitudeDegrees>19.97106724418699741363525390625</LongitudeDegrees>
            </Position>
            <AltitudeMeters>786.4000244140625</AltitudeMeters>
            <DistanceMeters>NAN</DistanceMeters>
          </Trackpoint>
          <Trackpoint>
            <Time>2022-09-18T13:55:59.000Z</Time>
            <Position>
              <LatitudeDegrees>49.31153289042413234710693359375</LatitudeDegrees>
              <LongitudeDegrees>19.971377961337566375732421875</LongitudeDegrees>
            </Position>
            <AltitudeMeters>786</AltitudeMeters>
            <DistanceMeters>NAN</DistanceMeters>
          </Trackpoint>
          <Trackpoint>
            <Time>2022-09-18T13:56:01.000Z</Time>
            <Position>
              <LatitudeDegrees>49.31157815270125865936279296875</LatitudeDegrees>
              <LongitudeDegrees>19.9714726768434047698974609375</LongitudeDegrees>
            </Position>
            <AltitudeMeters>786</AltitudeMeters>
            <DistanceMeters>NAN</DistanceMeters>
          </Trackpoint>
          <Trackpoint>
            <Time>2022-09-18T13:56:06.000Z</Time>
            <Position>
              <LatitudeDegrees>49.31169457733631134033203125</LatitudeDegrees>
              <LongitudeDegrees>19.97173477895557880401611328125</LongitudeDegrees>
            </Position>
            <AltitudeMeters>785.5999755859375</AltitudeMeters>
            <DistanceMeters>NAN</DistanceMeters>
          </Trackpoint>
          <Trackpoint>
            <Time>2022-09-18T13:56:10.000Z</Time>
            <Position>
              <LatitudeDegrees>49.31176858954131603240966796875</LatitudeDegrees>
              <LongitudeDegrees>19.97190426103770732879638671875</LongitudeDegrees>
            </Position>
            <AltitudeMeters>785.4000244140625</AltitudeMeters>
            <DistanceMeters>NAN</DistanceMeters>
          </Trackpoint>
          <Trackpoint>
            <Time>2022-09-18T13:56:13.000Z</Time>
            <Position>
              <LatitudeDegrees>49.31186783127486705780029296875</LatitudeDegrees>
              <LongitudeDegrees>19.9721311591565608978271484375</LongitudeDegrees>
            </Position>
            <AltitudeMeters>785.20001220703125</AltitudeMeters>
            <DistanceMeters>NAN</DistanceMeters>
          </Trackpoint>
          <Trackpoint>
            <Time>2022-09-18T13:56:14.000Z</Time>
            <Position>
              <LatitudeDegrees>49.31186783127486705780029296875</LatitudeDegrees>
              <LongitudeDegrees>19.9721311591565608978271484375</LongitudeDegrees>
            </Position>
            <AltitudeMeters>784.79998779296875</AltitudeMeters>
            <DistanceMeters>NAN</DistanceMeters>
          </Trackpoint>
          <Trackpoint>
            <Time>2022-09-18T13:56:17.000Z</Time>
            <Position>
              <LatitudeDegrees>49.31196279823780059814453125</LatitudeDegrees>
              <LongitudeDegrees>19.9723707139492034912109375</LongitudeDegrees>
            </Position>
            <AltitudeMeters>784.4000244140625</AltitudeMeters>
            <DistanceMeters>NAN</DistanceMeters>
          </Trackpoint>
          <Trackpoint>
            <Time>2022-09-18T13:56:23.000Z</Time>
            <Position>
              <LatitudeDegrees>49.31210386566817760467529296875</LatitudeDegrees>
              <LongitudeDegrees>19.97267849743366241455078125</LongitudeDegrees>
            </Position>
            <AltitudeMeters>784</AltitudeMeters>
            <DistanceMeters>NAN</DistanceMeters>
          </Trackpoint>
          <Trackpoint>
            <Time>2022-09-18T13:56:28.000Z</Time>
            <Position>
              <LatitudeDegrees>49.31224786676466464996337890625</LatitudeDegrees>
              <LongitudeDegrees>19.97301352210342884063720703125</LongitudeDegrees>
            </Position>
            <AltitudeMeters>784</AltitudeMeters>
            <DistanceMeters>NAN</DistanceMeters>
          </Trackpoint>
          <Trackpoint>
            <Time>2022-09-18T13:56:30.000Z</Time>
            <Position>
              <LatitudeDegrees>49.31229363195598125457763671875</LatitudeDegrees>
              <LongitudeDegrees>19.97312030754983425140380859375</LongitudeDegrees>
            </Position>
            <AltitudeMeters>783.79998779296875</AltitudeMeters>
            <DistanceMeters>NAN</DistanceMeters>
          </Trackpoint>
          <Trackpoint>
            <Time>2022-09-18T13:56:35.000Z</Time>
            <Position>
              <LatitudeDegrees>49.31241617538034915924072265625</LatitudeDegrees>
              <LongitudeDegrees>19.9733928032219409942626953125</LongitudeDegrees>
            </Position>
            <AltitudeMeters>783.20001220703125</AltitudeMeters>
            <DistanceMeters>NAN</DistanceMeters>
          </Trackpoint>
          <Trackpoint>
            <Time>2022-09-18T13:56:36.000Z</Time>
            <Position>
              <LatitudeDegrees>49.3124414049088954925537109375</LatitudeDegrees>
              <LongitudeDegrees>19.97344435192644596099853515625</LongitudeDegrees>
            </Position>
            <AltitudeMeters>783</AltitudeMeters>
            <DistanceMeters>NAN</DistanceMeters>
          </Trackpoint>
          <Trackpoint>
            <Time>2022-09-18T13:56:37.000Z</Time>
            <Position>
              <LatitudeDegrees>49.3124414049088954925537109375</LatitudeDegrees>
              <LongitudeDegrees>19.97344435192644596099853515625</LongitudeDegrees>
            </Position>
            <AltitudeMeters>782.79998779296875</AltitudeMeters>
            <DistanceMeters>NAN</DistanceMeters>
          </Trackpoint>
          <Trackpoint>
            <Time>2022-09-18T13:56:38.000Z</Time>
            <Position>
              <LatitudeDegrees>49.31246965192258358001708984375</LatitudeDegrees>
              <LongitudeDegrees>19.97348994947969913482666015625</LongitudeDegrees>
            </Position>
            <AltitudeMeters>782.5999755859375</AltitudeMeters>
            <DistanceMeters>NAN</DistanceMeters>
          </Trackpoint>
          <Trackpoint>
            <Time>2022-09-18T13:56:39.000Z</Time>
            <Position>
              <LatitudeDegrees>49.312544167041778564453125</LatitudeDegrees>
              <LongitudeDegrees>19.97356790117919445037841796875</LongitudeDegrees>
            </Position>
            <AltitudeMeters>782.5999755859375</AltitudeMeters>
            <DistanceMeters>NAN</DistanceMeters>
          </Trackpoint>
          <Trackpoint>
            <Time>2022-09-18T13:56:41.000Z</Time>
            <Position>
              <LatitudeDegrees>49.31258817203342914581298828125</LatitudeDegrees>
              <LongitudeDegrees>19.97360193170607089996337890625</LongitudeDegrees>
            </Position>
            <AltitudeMeters>782.4000244140625</AltitudeMeters>
            <DistanceMeters>NAN</DistanceMeters>
          </Trackpoint>
          <Trackpoint>
            <Time>2022-09-18T13:56:42.000Z</Time>
            <Position>
              <LatitudeDegrees>49.31263175792992115020751953125</LatitudeDegrees>
              <LongitudeDegrees>19.9736311845481395721435546875</LongitudeDegrees>
            </Position>
            <AltitudeMeters>782.4000244140625</AltitudeMeters>
            <DistanceMeters>NAN</DistanceMeters>
          </Trackpoint>
          <Trackpoint>
            <Time>2022-09-18T13:56:44.000Z</Time>
            <Position>
              <LatitudeDegrees>49.3127639405429363250732421875</LatitudeDegrees>
              <LongitudeDegrees>19.97373218648135662078857421875</LongitudeDegrees>
            </Position>
            <AltitudeMeters>782.20001220703125</AltitudeMeters>
            <DistanceMeters>NAN</DistanceMeters>
          </Trackpoint>
          <Trackpoint>
            <Time>2022-09-18T13:56:47.000Z</Time>
            <Position>
              <LatitudeDegrees>49.3128829635679721832275390625</LatitudeDegrees>
              <LongitudeDegrees>19.97388415038585662841796875</LongitudeDegrees>
            </Position>
            <AltitudeMeters>782</AltitudeMeters>
            <DistanceMeters>NAN</DistanceMeters>
          </Trackpoint>
          <Trackpoint>
            <Time>2022-09-18T13:56:49.000Z</Time>
            <Position>
              <LatitudeDegrees>49.3129231967031955718994140625</LatitudeDegrees>
              <LongitudeDegrees>19.97394542209804058074951171875</LongitudeDegrees>
            </Position>
            <AltitudeMeters>781.5999755859375</AltitudeMeters>
            <DistanceMeters>NAN</DistanceMeters>
          </Trackpoint>
          <Trackpoint>
            <Time>2022-09-18T13:56:50.000Z</Time>
            <Position>
              <LatitudeDegrees>49.3129956163465976715087890625</LatitudeDegrees>
              <LongitudeDegrees>19.97407592833042144775390625</LongitudeDegrees>
            </Position>
            <AltitudeMeters>781.4000244140625</AltitudeMeters>
            <DistanceMeters>NAN</DistanceMeters>
          </Trackpoint>
          <Trackpoint>
            <Time>2022-09-18T13:56:52.000Z</Time>
            <Position>
              <LatitudeDegrees>49.313059151172637939453125</LatitudeDegrees>
              <LongitudeDegrees>19.97422470711171627044677734375</LongitudeDegrees>
            </Position>
            <AltitudeMeters>781</AltitudeMeters>
            <DistanceMeters>NAN</DistanceMeters>
          </Trackpoint>
          <Trackpoint>
            <Time>2022-09-18T13:56:53.000Z</Time>
            <Position>
              <LatitudeDegrees>49.3130854703485965728759765625</LatitudeDegrees>
              <LongitudeDegrees>19.9743045866489410400390625</LongitudeDegrees>
            </Position>
            <AltitudeMeters>780.79998779296875</AltitudeMeters>
            <DistanceMeters>NAN</DistanceMeters>
          </Trackpoint>
          <Trackpoint>
            <Time>2022-09-18T13:56:54.000Z</Time>
            <Position>
              <LatitudeDegrees>49.31310810148715972900390625</LatitudeDegrees>
              <LongitudeDegrees>19.97439150698482990264892578125</LongitudeDegrees>
            </Position>
            <AltitudeMeters>780.5999755859375</AltitudeMeters>
            <DistanceMeters>NAN</DistanceMeters>
          </Trackpoint>
          <Trackpoint>
            <Time>2022-09-18T13:56:55.000Z</Time>
            <Position>
              <LatitudeDegrees>49.3131250329315662384033203125</LatitudeDegrees>
              <LongitudeDegrees>19.974477253854274749755859375</LongitudeDegrees>
            </Position>
            <AltitudeMeters>780.4000244140625</AltitudeMeters>
            <DistanceMeters>NAN</DistanceMeters>
          </Trackpoint>
          <Trackpoint>
            <Time>2022-09-18T13:56:58.000Z</Time>
            <Position>
              <LatitudeDegrees>49.31315210647881031036376953125</LatitudeDegrees>
              <LongitudeDegrees>19.97465528547763824462890625</LongitudeDegrees>
            </Position>
            <AltitudeMeters>779.79998779296875</AltitudeMeters>
            <DistanceMeters>NAN</DistanceMeters>
          </Trackpoint>
          <Trackpoint>
            <Time>2022-09-18T13:57:05.000Z</Time>
            <Position>
              <LatitudeDegrees>49.31325453333556652069091796875</LatitudeDegrees>
              <LongitudeDegrees>19.97529574669897556304931640625</LongitudeDegrees>
            </Position>
            <AltitudeMeters>779.79998779296875</AltitudeMeters>
            <DistanceMeters>NAN</DistanceMeters>
          </Trackpoint>
          <Trackpoint>
            <Time>2022-09-18T13:57:06.000Z</Time>
            <Position>
              <LatitudeDegrees>49.31326911784708499908447265625</LatitudeDegrees>
              <LongitudeDegrees>19.97536431066691875457763671875</LongitudeDegrees>
            </Position>
            <AltitudeMeters>780</AltitudeMeters>
            <DistanceMeters>NAN</DistanceMeters>
          </Trackpoint>
          <Trackpoint>
            <Time>2022-09-18T13:57:08.000Z</Time>
            <Position>
              <LatitudeDegrees>49.31329124607145786285400390625</LatitudeDegrees>
              <LongitudeDegrees>19.97549305669963359832763671875</LongitudeDegrees>
            </Position>
            <AltitudeMeters>780.20001220703125</AltitudeMeters>
            <DistanceMeters>NAN</DistanceMeters>
          </Trackpoint>
          <Trackpoint>
            <Time>2022-09-18T13:57:09.000Z</Time>
            <Position>
              <LatitudeDegrees>49.3132966943085193634033203125</LatitudeDegrees>
              <LongitudeDegrees>19.97555675916373729705810546875</LongitudeDegrees>
            </Position>
            <AltitudeMeters>780.20001220703125</AltitudeMeters>
            <DistanceMeters>NAN</DistanceMeters>
          </Trackpoint>
          <Trackpoint>
            <Time>2022-09-18T13:57:11.000Z</Time>
            <Position>
              <LatitudeDegrees>49.31330767460167407989501953125</LatitudeDegrees>
              <LongitudeDegrees>19.97567494399845600128173828125</LongitudeDegrees>
            </Position>
            <AltitudeMeters>780.4000244140625</AltitudeMeters>
            <DistanceMeters>NAN</DistanceMeters>
          </Trackpoint>
          <Trackpoint>
            <Time>2022-09-18T13:57:12.000Z</Time>
            <Position>
              <LatitudeDegrees>49.3133161403238773345947265625</LatitudeDegrees>
              <LongitudeDegrees>19.97572951018810272216796875</LongitudeDegrees>
            </Position>
            <AltitudeMeters>780.4000244140625</AltitudeMeters>
            <DistanceMeters>NAN</DistanceMeters>
          </Trackpoint>
          <Trackpoint>
            <Time>2022-09-18T13:57:16.000Z</Time>
            <Position>
              <LatitudeDegrees>49.31334639899432659149169921875</LatitudeDegrees>
              <LongitudeDegrees>19.9758936278522014617919921875</LongitudeDegrees>
            </Position>
            <AltitudeMeters>780.20001220703125</AltitudeMeters>
            <DistanceMeters>NAN</DistanceMeters>
          </Trackpoint>
          <Trackpoint>
            <Time>2022-09-18T13:57:20.000Z</Time>
            <Position>
              <LatitudeDegrees>49.31338143534958362579345703125</LatitudeDegrees>
              <LongitudeDegrees>19.97616260312497615814208984375</LongitudeDegrees>
            </Position>
            <AltitudeMeters>780.20001220703125</AltitudeMeters>
            <DistanceMeters>NAN</DistanceMeters>
          </Trackpoint>
          <Trackpoint>
            <Time>2022-09-18T13:57:25.000Z</Time>
            <Position>
              <LatitudeDegrees>49.31342870928347110748291015625</LatitudeDegrees>
              <LongitudeDegrees>19.97641707770526409149169921875</LongitudeDegrees>
            </Position>
            <AltitudeMeters>779.5999755859375</AltitudeMeters>
            <DistanceMeters>NAN</DistanceMeters>
          </Trackpoint>
          <Trackpoint>
            <Time>2022-09-18T13:57:26.000Z</Time>
            <Position>
              <LatitudeDegrees>49.31342870928347110748291015625</LatitudeDegrees>
              <LongitudeDegrees>19.97641707770526409149169921875</LongitudeDegrees>
            </Position>
            <AltitudeMeters>779.4000244140625</AltitudeMeters>
            <DistanceMeters>NAN</DistanceMeters>
          </Trackpoint>
          <Trackpoint>
            <Time>2022-09-18T13:57:27.000Z</Time>
            <Position>
              <LatitudeDegrees>49.31346416473388671875</LatitudeDegrees>
              <LongitudeDegrees>19.97649888508021831512451171875</LongitudeDegrees>
            </Position>
            <AltitudeMeters>779.4000244140625</AltitudeMeters>
            <DistanceMeters>NAN</DistanceMeters>
          </Trackpoint>
          <Trackpoint>
            <Time>2022-09-18T13:57:28.000Z</Time>
            <Position>
              <LatitudeDegrees>49.31348704732954502105712890625</LatitudeDegrees>
              <LongitudeDegrees>19.97653475962579250335693359375</LongitudeDegrees>
            </Position>
            <AltitudeMeters>779.20001220703125</AltitudeMeters>
            <DistanceMeters>NAN</DistanceMeters>
          </Trackpoint>
          <Trackpoint>
            <Time>2022-09-18T13:57:34.000Z</Time>
            <Position>
              <LatitudeDegrees>49.313650913536548614501953125</LatitudeDegrees>
              <LongitudeDegrees>19.97667498886585235595703125</LongitudeDegrees>
            </Position>
            <AltitudeMeters>778.79998779296875</AltitudeMeters>
            <DistanceMeters>NAN</DistanceMeters>
          </Trackpoint>
          <Trackpoint>
            <Time>2022-09-18T13:57:37.000Z</Time>
            <Position>
              <LatitudeDegrees>49.31378007866442203521728515625</LatitudeDegrees>
              <LongitudeDegrees>19.9767505936324596405029296875</LongitudeDegrees>
            </Position>
            <AltitudeMeters>778.4000244140625</AltitudeMeters>
            <DistanceMeters>NAN</DistanceMeters>
          </Trackpoint>
          <Trackpoint>
            <Time>2022-09-18T13:57:40.000Z</Time>
            <Position>
              <LatitudeDegrees>49.31390999816358089447021484375</LatitudeDegrees>
              <LongitudeDegrees>19.976826868951320648193359375</LongitudeDegrees>
            </Position>
            <AltitudeMeters>778</AltitudeMeters>
            <DistanceMeters>NAN</DistanceMeters>
          </Trackpoint>
          <Trackpoint>
            <Time>2022-09-18T13:57:41.000Z</Time>
            <Position>
              <LatitudeDegrees>49.313991554081439971923828125</LatitudeDegrees>
              <LongitudeDegrees>19.97686081565916538238525390625</LongitudeDegrees>
            </Position>
            <AltitudeMeters>777.5999755859375</AltitudeMeters>
            <DistanceMeters>NAN</DistanceMeters>
          </Trackpoint>
          <Trackpoint>
            <Time>2022-09-18T13:57:42.000Z</Time>
            <Position>
              <LatitudeDegrees>49.31402885355055332183837890625</LatitudeDegrees>
              <LongitudeDegrees>19.9768816865980625152587890625</LongitudeDegrees>
            </Position>
            <AltitudeMeters>777.4000244140625</AltitudeMeters>
            <DistanceMeters>NAN</DistanceMeters>
          </Trackpoint>
          <Trackpoint>
            <Time>2022-09-18T13:57:48.000Z</Time>
            <Position>
              <LatitudeDegrees>49.31427913717925548553466796875</LatitudeDegrees>
              <LongitudeDegrees>19.97703834436833858489990234375</LongitudeDegrees>
            </Position>
            <AltitudeMeters>776.4000244140625</AltitudeMeters>
            <DistanceMeters>NAN</DistanceMeters>
          </Trackpoint>
          <Trackpoint>
            <Time>2022-09-18T13:57:49.000Z</Time>
            <Position>
              <LatitudeDegrees>49.314326830208301544189453125</LatitudeDegrees>
              <LongitudeDegrees>19.97706332243978977203369140625</LongitudeDegrees>
            </Position>
            <AltitudeMeters>776.20001220703125</AltitudeMeters>
            <DistanceMeters>NAN</DistanceMeters>
          </Trackpoint>
          <Trackpoint>
            <Time>2022-09-18T13:57:51.000Z</Time>
            <Position>
              <LatitudeDegrees>49.314381144940853118896484375</LatitudeDegrees>
              <LongitudeDegrees>19.977091066539287567138671875</LongitudeDegrees>
            </Position>
            <AltitudeMeters>775.5999755859375</AltitudeMeters>
            <DistanceMeters>NAN</DistanceMeters>
          </Trackpoint>
          <Trackpoint>
            <Time>2022-09-18T13:57:53.000Z</Time>
            <Position>
              <LatitudeDegrees>49.3145583383738994598388671875</LatitudeDegrees>
              <LongitudeDegrees>19.9771867878735065460205078125</LongitudeDegrees>
            </Position>
            <AltitudeMeters>775.4000244140625</AltitudeMeters>
            <DistanceMeters>NAN</DistanceMeters>
          </Trackpoint>
          <Trackpoint>
            <Time>2022-09-18T13:57:55.000Z</Time>
            <Position>
              <LatitudeDegrees>49.314681552350521087646484375</LatitudeDegrees>
              <LongitudeDegrees>19.97725845314562320709228515625</LongitudeDegrees>
            </Position>
            <AltitudeMeters>774.79998779296875</AltitudeMeters>
            <DistanceMeters>NAN</DistanceMeters>
          </Trackpoint>
          <Trackpoint>
            <Time>2022-09-18T13:57:57.000Z</Time>
            <Position>
              <LatitudeDegrees>49.31474667973816394805908203125</LatitudeDegrees>
              <LongitudeDegrees>19.97729700990021228790283203125</LongitudeDegrees>
            </Position>
            <AltitudeMeters>773.5999755859375</AltitudeMeters>
            <DistanceMeters>NAN</DistanceMeters>
          </Trackpoint>
          <Trackpoint>
            <Time>2022-09-18T13:58:00.000Z</Time>
            <Position>
              <LatitudeDegrees>49.314935021102428436279296875</LatitudeDegrees>
              <LongitudeDegrees>19.977383427321910858154296875</LongitudeDegrees>
            </Position>
            <AltitudeMeters>772.4000244140625</AltitudeMeters>
            <DistanceMeters>NAN</DistanceMeters>
          </Trackpoint>
          <Trackpoint>
            <Time>2022-09-18T13:58:04.000Z</Time>
            <Position>
              <LatitudeDegrees>49.31520081125199794769287109375</LatitudeDegrees>
              <LongitudeDegrees>19.97752550058066844940185546875</LongitudeDegrees>
            </Position>
            <AltitudeMeters>771.4000244140625</AltitudeMeters>
            <DistanceMeters>NAN</DistanceMeters>
          </Trackpoint>
          <Trackpoint>
            <Time>2022-09-18T13:58:05.000Z</Time>
            <Position>
              <LatitudeDegrees>49.31524858810007572174072265625</LatitudeDegrees>
              <LongitudeDegrees>19.9775458686053752899169921875</LongitudeDegrees>
            </Position>
            <AltitudeMeters>771.20001220703125</AltitudeMeters>
            <DistanceMeters>NAN</DistanceMeters>
          </Trackpoint>
          <Trackpoint>
            <Time>2022-09-18T13:58:06.000Z</Time>
            <Position>
              <LatitudeDegrees>49.3152947723865509033203125</LatitudeDegrees>
              <LongitudeDegrees>19.97757411561906337738037109375</LongitudeDegrees>
            </Position>
            <AltitudeMeters>771</AltitudeMeters>
            <DistanceMeters>NAN</DistanceMeters>
          </Trackpoint>
          <Trackpoint>
            <Time>2022-09-18T13:58:09.000Z</Time>
            <Position>
              <LatitudeDegrees>49.31541882455348968505859375</LatitudeDegrees>
              <LongitudeDegrees>19.97768123634159564971923828125</LongitudeDegrees>
            </Position>
            <AltitudeMeters>770.20001220703125</AltitudeMeters>
            <DistanceMeters>NAN</DistanceMeters>
          </Trackpoint>
          <Trackpoint>
            <Time>2022-09-18T13:58:13.000Z</Time>
            <Position>
              <LatitudeDegrees>49.31556475348770618438720703125</LatitudeDegrees>
              <LongitudeDegrees>19.97785222716629505157470703125</LongitudeDegrees>
            </Position>
            <AltitudeMeters>770</AltitudeMeters>
            <DistanceMeters>NAN</DistanceMeters>
          </Trackpoint>
          <Trackpoint>
            <Time>2022-09-18T13:58:15.000Z</Time>
            <Position>
              <LatitudeDegrees>49.3155997060239315032958984375</LatitudeDegrees>
              <LongitudeDegrees>19.977923892438411712646484375</LongitudeDegrees>
            </Position>
            <AltitudeMeters>769.20001220703125</AltitudeMeters>
            <DistanceMeters>NAN</DistanceMeters>
          </Trackpoint>
          <Trackpoint>
            <Time>2022-09-18T13:58:17.000Z</Time>
            <Position>
              <LatitudeDegrees>49.31560347788035869598388671875</LatitudeDegrees>
              <LongitudeDegrees>19.977938644587993621826171875</LongitudeDegrees>
            </Position>
            <AltitudeMeters>768.79998779296875</AltitudeMeters>
            <DistanceMeters>NAN</DistanceMeters>
          </Trackpoint>
          <Trackpoint>
            <Time>2022-09-18T13:58:21.000Z</Time>
            <Position>
              <LatitudeDegrees>49.31559744291007518768310546875</LatitudeDegrees>
              <LongitudeDegrees>19.977938644587993621826171875</LongitudeDegrees>
            </Position>
            <AltitudeMeters>768.4000244140625</AltitudeMeters>
            <DistanceMeters>NAN</DistanceMeters>
          </Trackpoint>
          <Trackpoint>
            <Time>2022-09-18T13:58:32.000Z</Time>
            <Position>
              <LatitudeDegrees>49.31559744291007518768310546875</LatitudeDegrees>
              <LongitudeDegrees>19.977938644587993621826171875</LongitudeDegrees>
            </Position>
            <AltitudeMeters>768.20001220703125</AltitudeMeters>
            <DistanceMeters>NAN</DistanceMeters>
          </Trackpoint>
          <Trackpoint>
            <Time>2022-09-18T13:58:37.000Z</Time>
            <Position>
              <LatitudeDegrees>49.31559744291007518768310546875</LatitudeDegrees>
              <LongitudeDegrees>19.977938644587993621826171875</LongitudeDegrees>
            </Position>
            <AltitudeMeters>768.20001220703125</AltitudeMeters>
            <DistanceMeters>NAN</DistanceMeters>
          </Trackpoint>
          <Trackpoint>
            <Time>2022-09-18T13:58:39.000Z</Time>
            <Position>
              <LatitudeDegrees>49.31559744291007518768310546875</LatitudeDegrees>
              <LongitudeDegrees>19.977938644587993621826171875</LongitudeDegrees>
            </Position>
            <AltitudeMeters>768.20001220703125</AltitudeMeters>
            <DistanceMeters>NAN</DistanceMeters>
          </Trackpoint>
          <Trackpoint>
            <Time>2022-09-18T13:58:41.000Z</Time>
            <Position>
              <LatitudeDegrees>49.31559744291007518768310546875</LatitudeDegrees>
              <LongitudeDegrees>19.977938644587993621826171875</LongitudeDegrees>
            </Position>
            <AltitudeMeters>768</AltitudeMeters>
            <DistanceMeters>NAN</DistanceMeters>
          </Trackpoint>
          <Trackpoint>
            <Time>2022-09-18T13:58:51.000Z</Time>
            <Position>
              <LatitudeDegrees>49.31559744291007518768310546875</LatitudeDegrees>
              <LongitudeDegrees>19.977938644587993621826171875</LongitudeDegrees>
            </Position>
            <AltitudeMeters>767.79998779296875</AltitudeMeters>
            <DistanceMeters>NAN</DistanceMeters>
          </Trackpoint>
          <Trackpoint>
            <Time>2022-09-18T13:58:56.000Z</Time>
            <Position>
              <LatitudeDegrees>49.31559744291007518768310546875</LatitudeDegrees>
              <LongitudeDegrees>19.977938644587993621826171875</LongitudeDegrees>
            </Position>
            <AltitudeMeters>767.79998779296875</AltitudeMeters>
            <DistanceMeters>NAN</DistanceMeters>
          </Trackpoint>
          <Trackpoint>
            <Time>2022-09-18T13:58:59.000Z</Time>
            <Position>
              <LatitudeDegrees>49.31559744291007518768310546875</LatitudeDegrees>
              <LongitudeDegrees>19.977938644587993621826171875</LongitudeDegrees>
            </Position>
            <AltitudeMeters>768</AltitudeMeters>
            <DistanceMeters>NAN</DistanceMeters>
          </Trackpoint>
          <Trackpoint>
            <Time>2022-09-18T13:59:03.000Z</Time>
            <Position>
              <LatitudeDegrees>49.31559744291007518768310546875</LatitudeDegrees>
              <LongitudeDegrees>19.977938644587993621826171875</LongitudeDegrees>
            </Position>
            <AltitudeMeters>768</AltitudeMeters>
            <DistanceMeters>NAN</DistanceMeters>
          </Trackpoint>
          <Trackpoint>
            <Time>2022-09-18T13:59:09.000Z</Time>
            <Position>
              <LatitudeDegrees>49.31559744291007518768310546875</LatitudeDegrees>
              <LongitudeDegrees>19.977938644587993621826171875</LongitudeDegrees>
            </Position>
            <AltitudeMeters>768</AltitudeMeters>
            <DistanceMeters>NAN</DistanceMeters>
          </Trackpoint>
          <Trackpoint>
            <Time>2022-09-18T13:59:12.000Z</Time>
            <Position>
              <LatitudeDegrees>49.31559744291007518768310546875</LatitudeDegrees>
              <LongitudeDegrees>19.977938644587993621826171875</LongitudeDegrees>
            </Position>
            <AltitudeMeters>768</AltitudeMeters>
            <DistanceMeters>NAN</DistanceMeters>
          </Trackpoint>
          <Trackpoint>
            <Time>2022-09-18T13:59:18.000Z</Time>
            <Position>
              <LatitudeDegrees>49.31559861637651920318603515625</LatitudeDegrees>
              <LongitudeDegrees>19.97794040478765964508056640625</LongitudeDegrees>
            </Position>
            <AltitudeMeters>768</AltitudeMeters>
            <DistanceMeters>NAN</DistanceMeters>
          </Trackpoint>
          <Trackpoint>
            <Time>2022-09-18T13:59:20.000Z</Time>
            <Position>
              <LatitudeDegrees>49.31561999022960662841796875</LatitudeDegrees>
              <LongitudeDegrees>19.97797644697129726409912109375</LongitudeDegrees>
            </Position>
            <AltitudeMeters>768</AltitudeMeters>
            <DistanceMeters>NAN</DistanceMeters>
          </Trackpoint>
          <Trackpoint>
            <Time>2022-09-18T13:59:21.000Z</Time>
            <Position>
              <LatitudeDegrees>49.31563398800790309906005859375</LatitudeDegrees>
              <LongitudeDegrees>19.9780058674514293670654296875</LongitudeDegrees>
            </Position>
            <AltitudeMeters>768</AltitudeMeters>
            <DistanceMeters>NAN</DistanceMeters>
          </Trackpoint>
          <Trackpoint>
            <Time>2022-09-18T13:59:24.000Z</Time>
            <Position>
              <LatitudeDegrees>49.31566952727735042572021484375</LatitudeDegrees>
              <LongitudeDegrees>19.97807887382805347442626953125</LongitudeDegrees>
            </Position>
            <AltitudeMeters>767.79998779296875</AltitudeMeters>
            <DistanceMeters>NAN</DistanceMeters>
          </Trackpoint>
          <Trackpoint>
            <Time>2022-09-18T13:59:27.000Z</Time>
            <Position>
              <LatitudeDegrees>49.3156868778169155120849609375</LatitudeDegrees>
              <LongitudeDegrees>19.9781222082674503326416015625</LongitudeDegrees>
            </Position>
            <AltitudeMeters>767.5999755859375</AltitudeMeters>
            <DistanceMeters>NAN</DistanceMeters>
          </Trackpoint>
          <Trackpoint>
            <Time>2022-09-18T13:59:33.000Z</Time>
            <Position>
              <LatitudeDegrees>49.31571789085865020751953125</LatitudeDegrees>
              <LongitudeDegrees>19.97816738672554492950439453125</LongitudeDegrees>
            </Position>
            <AltitudeMeters>767.5999755859375</AltitudeMeters>
            <DistanceMeters>NAN</DistanceMeters>
          </Trackpoint>
          <Trackpoint>
            <Time>2022-09-18T13:59:38.000Z</Time>
            <Position>
              <LatitudeDegrees>49.31571789085865020751953125</LatitudeDegrees>
              <LongitudeDegrees>19.97816738672554492950439453125</LongitudeDegrees>
            </Position>
            <AltitudeMeters>767.79998779296875</AltitudeMeters>
            <DistanceMeters>NAN</DistanceMeters>
          </Trackpoint>
          <Trackpoint>
            <Time>2022-09-18T13:59:43.000Z</Time>
            <Position>
              <LatitudeDegrees>49.31571789085865020751953125</LatitudeDegrees>
              <LongitudeDegrees>19.97816738672554492950439453125</LongitudeDegrees>
            </Position>
            <AltitudeMeters>767.79998779296875</AltitudeMeters>
            <DistanceMeters>NAN</DistanceMeters>
          </Trackpoint>
          <Trackpoint>
            <Time>2022-09-18T13:59:48.000Z</Time>
            <Position>
              <LatitudeDegrees>49.31571789085865020751953125</LatitudeDegrees>
              <LongitudeDegrees>19.97816738672554492950439453125</LongitudeDegrees>
            </Position>
            <AltitudeMeters>767.79998779296875</AltitudeMeters>
            <DistanceMeters>NAN</DistanceMeters>
          </Trackpoint>
          <Trackpoint>
            <Time>2022-09-18T14:00:06.000Z</Time>
            <Position>
              <LatitudeDegrees>49.31571789085865020751953125</LatitudeDegrees>
              <LongitudeDegrees>19.97816738672554492950439453125</LongitudeDegrees>
            </Position>
            <AltitudeMeters>767.79998779296875</AltitudeMeters>
            <DistanceMeters>NAN</DistanceMeters>
          </Trackpoint>
          <Trackpoint>
            <Time>2022-09-18T14:00:12.000Z</Time>
            <Position>
              <LatitudeDegrees>49.31571789085865020751953125</LatitudeDegrees>
              <LongitudeDegrees>19.97816738672554492950439453125</LongitudeDegrees>
            </Position>
            <AltitudeMeters>767.79998779296875</AltitudeMeters>
            <DistanceMeters>NAN</DistanceMeters>
          </Trackpoint>
          <Trackpoint>
            <Time>2022-09-18T14:00:13.000Z</Time>
            <Position>
              <LatitudeDegrees>49.31571789085865020751953125</LatitudeDegrees>
              <LongitudeDegrees>19.97816738672554492950439453125</LongitudeDegrees>
            </Position>
            <AltitudeMeters>767.79998779296875</AltitudeMeters>
            <DistanceMeters>NAN</DistanceMeters>
          </Trackpoint>
          <Trackpoint>
            <Time>2022-09-18T14:00:42.000Z</Time>
            <Position>
              <LatitudeDegrees>49.31571789085865020751953125</LatitudeDegrees>
              <LongitudeDegrees>19.97816738672554492950439453125</LongitudeDegrees>
            </Position>
            <AltitudeMeters>767.79998779296875</AltitudeMeters>
            <DistanceMeters>NAN</DistanceMeters>
          </Trackpoint>
          <Trackpoint>
            <Time>2022-09-18T14:00:46.000Z</Time>
            <Position>
              <LatitudeDegrees>49.31571789085865020751953125</LatitudeDegrees>
              <LongitudeDegrees>19.97816738672554492950439453125</LongitudeDegrees>
            </Position>
            <AltitudeMeters>767.79998779296875</AltitudeMeters>
            <DistanceMeters>NAN</DistanceMeters>
          </Trackpoint>
          <Trackpoint>
            <Time>2022-09-18T14:00:48.000Z</Time>
            <Position>
              <LatitudeDegrees>49.31571789085865020751953125</LatitudeDegrees>
              <LongitudeDegrees>19.97816738672554492950439453125</LongitudeDegrees>
            </Position>
            <AltitudeMeters>767.79998779296875</AltitudeMeters>
            <DistanceMeters>NAN</DistanceMeters>
          </Trackpoint>
          <Trackpoint>
            <Time>2022-09-18T14:00:51.000Z</Time>
            <Position>
              <LatitudeDegrees>49.31571789085865020751953125</LatitudeDegrees>
              <LongitudeDegrees>19.97816738672554492950439453125</LongitudeDegrees>
            </Position>
            <AltitudeMeters>767.79998779296875</AltitudeMeters>
            <DistanceMeters>NAN</DistanceMeters>
          </Trackpoint>
          <Trackpoint>
            <Time>2022-09-18T14:00:57.000Z</Time>
            <Position>
              <LatitudeDegrees>49.31571789085865020751953125</LatitudeDegrees>
              <LongitudeDegrees>19.97816738672554492950439453125</LongitudeDegrees>
            </Position>
            <AltitudeMeters>767.79998779296875</AltitudeMeters>
            <DistanceMeters>NAN</DistanceMeters>
          </Trackpoint>
          <Trackpoint>
            <Time>2022-09-18T14:01:10.000Z</Time>
            <Position>
              <LatitudeDegrees>49.31571789085865020751953125</LatitudeDegrees>
              <LongitudeDegrees>19.97816738672554492950439453125</LongitudeDegrees>
            </Position>
            <AltitudeMeters>767.79998779296875</AltitudeMeters>
            <DistanceMeters>NAN</DistanceMeters>
          </Trackpoint>
          <Trackpoint>
            <Time>2022-09-18T14:01:23.000Z</Time>
            <Position>
              <LatitudeDegrees>49.31571789085865020751953125</LatitudeDegrees>
              <LongitudeDegrees>19.97816738672554492950439453125</LongitudeDegrees>
            </Position>
            <AltitudeMeters>767.79998779296875</AltitudeMeters>
            <DistanceMeters>NAN</DistanceMeters>
          </Trackpoint>
          <Trackpoint>
            <Time>2022-09-18T14:01:35.000Z</Time>
            <Position>
              <LatitudeDegrees>49.31571789085865020751953125</LatitudeDegrees>
              <LongitudeDegrees>19.97816738672554492950439453125</LongitudeDegrees>
            </Position>
            <AltitudeMeters>767.79998779296875</AltitudeMeters>
            <DistanceMeters>NAN</DistanceMeters>
          </Trackpoint>
          <Trackpoint>
            <Time>2022-09-18T14:01:51.000Z</Time>
            <Position>
              <LatitudeDegrees>49.31571789085865020751953125</LatitudeDegrees>
              <LongitudeDegrees>19.97816738672554492950439453125</LongitudeDegrees>
            </Position>
            <AltitudeMeters>767.79998779296875</AltitudeMeters>
            <DistanceMeters>NAN</DistanceMeters>
          </Trackpoint>
          <Trackpoint>
            <Time>2022-09-18T14:01:52.000Z</Time>
            <Position>
              <LatitudeDegrees>49.31571789085865020751953125</LatitudeDegrees>
              <LongitudeDegrees>19.97816738672554492950439453125</LongitudeDegrees>
            </Position>
            <AltitudeMeters>767.79998779296875</AltitudeMeters>
            <DistanceMeters>NAN</DistanceMeters>
          </Trackpoint>
          <Trackpoint>
            <Time>2022-09-18T14:01:56.000Z</Time>
            <Position>
              <LatitudeDegrees>49.31571789085865020751953125</LatitudeDegrees>
              <LongitudeDegrees>19.97816738672554492950439453125</LongitudeDegrees>
            </Position>
            <AltitudeMeters>767.79998779296875</AltitudeMeters>
            <DistanceMeters>NAN</DistanceMeters>
          </Trackpoint>
          <Trackpoint>
            <Time>2022-09-18T14:02:02.000Z</Time>
            <Position>
              <LatitudeDegrees>49.3157157115638256072998046875</LatitudeDegrees>
              <LongitudeDegrees>19.978169314563274383544921875</LongitudeDegrees>
            </Position>
            <AltitudeMeters>767.79998779296875</AltitudeMeters>
            <DistanceMeters>NAN</DistanceMeters>
          </Trackpoint>
          <Trackpoint>
            <Time>2022-09-18T14:02:06.000Z</Time>
            <Position>
              <LatitudeDegrees>49.31571428664028644561767578125</LatitudeDegrees>
              <LongitudeDegrees>19.97817023657262325286865234375</LongitudeDegrees>
            </Position>
            <AltitudeMeters>767.79998779296875</AltitudeMeters>
            <DistanceMeters>NAN</DistanceMeters>
          </Trackpoint>
          <Trackpoint>
            <Time>2022-09-18T14:02:16.000Z</Time>
            <Position>
              <LatitudeDegrees>49.31571386754512786865234375</LatitudeDegrees>
              <LongitudeDegrees>19.97817057184875011444091796875</LongitudeDegrees>
            </Position>
            <AltitudeMeters>767.79998779296875</AltitudeMeters>
            <DistanceMeters>NAN</DistanceMeters>
          </Trackpoint>
          <Trackpoint>
            <Time>2022-09-18T14:02:18.000Z</Time>
            <Position>
              <LatitudeDegrees>49.31571386754512786865234375</LatitudeDegrees>
              <LongitudeDegrees>19.97817057184875011444091796875</LongitudeDegrees>
            </Position>
            <AltitudeMeters>767.79998779296875</AltitudeMeters>
            <DistanceMeters>NAN</DistanceMeters>
          </Trackpoint>
          <Trackpoint>
            <Time>2022-09-18T14:02:26.000Z</Time>
            <Position>
              <LatitudeDegrees>49.31571378372609615325927734375</LatitudeDegrees>
              <LongitudeDegrees>19.97817057184875011444091796875</LongitudeDegrees>
            </Position>
            <AltitudeMeters>767.79998779296875</AltitudeMeters>
            <DistanceMeters>NAN</DistanceMeters>
          </Trackpoint>
          <Trackpoint>
            <Time>2022-09-18T14:02:29.000Z</Time>
            <Position>
              <LatitudeDegrees>49.31571378372609615325927734375</LatitudeDegrees>
              <LongitudeDegrees>19.97817057184875011444091796875</LongitudeDegrees>
            </Position>
            <AltitudeMeters>767.79998779296875</AltitudeMeters>
            <DistanceMeters>NAN</DistanceMeters>
          </Trackpoint>
          <Trackpoint>
            <Time>2022-09-18T14:02:38.000Z</Time>
            <Position>
              <LatitudeDegrees>49.31571378372609615325927734375</LatitudeDegrees>
              <LongitudeDegrees>19.97817057184875011444091796875</LongitudeDegrees>
            </Position>
            <AltitudeMeters>767.79998779296875</AltitudeMeters>
            <DistanceMeters>NAN</DistanceMeters>
          </Trackpoint>
          <Trackpoint>
            <Time>2022-09-18T14:02:40.000Z</Time>
            <Position>
              <LatitudeDegrees>49.31571378372609615325927734375</LatitudeDegrees>
              <LongitudeDegrees>19.97817057184875011444091796875</LongitudeDegrees>
            </Position>
            <AltitudeMeters>767.79998779296875</AltitudeMeters>
            <DistanceMeters>NAN</DistanceMeters>
          </Trackpoint>
          <Trackpoint>
            <Time>2022-09-18T14:02:41.000Z</Time>
            <Position>
              <LatitudeDegrees>49.31571378372609615325927734375</LatitudeDegrees>
              <LongitudeDegrees>19.97817057184875011444091796875</LongitudeDegrees>
            </Position>
            <AltitudeMeters>767.79998779296875</AltitudeMeters>
            <DistanceMeters>NAN</DistanceMeters>
          </Trackpoint>
          <Trackpoint>
            <Time>2022-09-18T14:02:45.000Z</Time>
            <Position>
              <LatitudeDegrees>49.31571378372609615325927734375</LatitudeDegrees>
              <LongitudeDegrees>19.97817057184875011444091796875</LongitudeDegrees>
            </Position>
            <AltitudeMeters>767.79998779296875</AltitudeMeters>
            <DistanceMeters>NAN</DistanceMeters>
          </Trackpoint>
          <Trackpoint>
            <Time>2022-09-18T14:03:06.000Z</Time>
            <Position>
              <LatitudeDegrees>49.31571378372609615325927734375</LatitudeDegrees>
              <LongitudeDegrees>19.97817057184875011444091796875</LongitudeDegrees>
            </Position>
            <AltitudeMeters>767.79998779296875</AltitudeMeters>
            <DistanceMeters>NAN</DistanceMeters>
          </Trackpoint>
          <Trackpoint>
            <Time>2022-09-18T14:03:11.000Z</Time>
            <Position>
              <LatitudeDegrees>49.31571378372609615325927734375</LatitudeDegrees>
              <LongitudeDegrees>19.97817057184875011444091796875</LongitudeDegrees>
            </Position>
            <AltitudeMeters>767.79998779296875</AltitudeMeters>
            <DistanceMeters>NAN</DistanceMeters>
          </Trackpoint>
          <Trackpoint>
            <Time>2022-09-18T14:03:16.000Z</Time>
            <Position>
              <LatitudeDegrees>49.31571378372609615325927734375</LatitudeDegrees>
              <LongitudeDegrees>19.97817057184875011444091796875</LongitudeDegrees>
            </Position>
            <AltitudeMeters>767.79998779296875</AltitudeMeters>
            <DistanceMeters>NAN</DistanceMeters>
          </Trackpoint>
          <Trackpoint>
            <Time>2022-09-18T14:03:21.000Z</Time>
            <Position>
              <LatitudeDegrees>49.31571378372609615325927734375</LatitudeDegrees>
              <LongitudeDegrees>19.97817057184875011444091796875</LongitudeDegrees>
            </Position>
            <AltitudeMeters>767.79998779296875</AltitudeMeters>
            <DistanceMeters>NAN</DistanceMeters>
          </Trackpoint>
          <Trackpoint>
            <Time>2022-09-18T14:03:24.000Z</Time>
            <Position>
              <LatitudeDegrees>49.31571378372609615325927734375</LatitudeDegrees>
              <LongitudeDegrees>19.97817057184875011444091796875</LongitudeDegrees>
            </Position>
            <AltitudeMeters>767.79998779296875</AltitudeMeters>
            <DistanceMeters>NAN</DistanceMeters>
          </Trackpoint>
          <Trackpoint>
            <Time>2022-09-18T14:03:30.000Z</Time>
            <Position>
              <LatitudeDegrees>49.31571378372609615325927734375</LatitudeDegrees>
              <LongitudeDegrees>19.97817057184875011444091796875</LongitudeDegrees>
            </Position>
            <AltitudeMeters>767.79998779296875</AltitudeMeters>
            <DistanceMeters>NAN</DistanceMeters>
          </Trackpoint>
          <Trackpoint>
            <Time>2022-09-18T14:03:52.000Z</Time>
            <Position>
              <LatitudeDegrees>49.31571378372609615325927734375</LatitudeDegrees>
              <LongitudeDegrees>19.97817057184875011444091796875</LongitudeDegrees>
            </Position>
            <AltitudeMeters>767.79998779296875</AltitudeMeters>
            <DistanceMeters>NAN</DistanceMeters>
          </Trackpoint>
          <Trackpoint>
            <Time>2022-09-18T14:04:18.000Z</Time>
            <Position>
              <LatitudeDegrees>49.31571378372609615325927734375</LatitudeDegrees>
              <LongitudeDegrees>19.97817057184875011444091796875</LongitudeDegrees>
            </Position>
            <AltitudeMeters>767.79998779296875</AltitudeMeters>
            <DistanceMeters>NAN</DistanceMeters>
          </Trackpoint>
          <Trackpoint>
            <Time>2022-09-18T14:04:23.000Z</Time>
            <Position>
              <LatitudeDegrees>49.31571378372609615325927734375</LatitudeDegrees>
              <LongitudeDegrees>19.97817057184875011444091796875</LongitudeDegrees>
            </Position>
            <AltitudeMeters>767.79998779296875</AltitudeMeters>
            <DistanceMeters>NAN</DistanceMeters>
          </Trackpoint>
          <Trackpoint>
            <Time>2022-09-18T14:04:28.000Z</Time>
            <Position>
              <LatitudeDegrees>49.31571378372609615325927734375</LatitudeDegrees>
              <LongitudeDegrees>19.97817057184875011444091796875</LongitudeDegrees>
            </Position>
            <AltitudeMeters>767.79998779296875</AltitudeMeters>
            <DistanceMeters>NAN</DistanceMeters>
          </Trackpoint>
          <Trackpoint>
            <Time>2022-09-18T14:04:47.000Z</Time>
            <Position>
              <LatitudeDegrees>49.31571386754512786865234375</LatitudeDegrees>
              <LongitudeDegrees>19.97817032039165496826171875</LongitudeDegrees>
            </Position>
            <AltitudeMeters>767.79998779296875</AltitudeMeters>
            <DistanceMeters>NAN</DistanceMeters>
          </Trackpoint>
          <Trackpoint>
            <Time>2022-09-18T14:04:50.000Z</Time>
            <Position>
              <LatitudeDegrees>49.31571386754512786865234375</LatitudeDegrees>
              <LongitudeDegrees>19.97817032039165496826171875</LongitudeDegrees>
            </Position>
            <AltitudeMeters>767.79998779296875</AltitudeMeters>
            <DistanceMeters>NAN</DistanceMeters>
          </Trackpoint>
          <Trackpoint>
            <Time>2022-09-18T14:04:54.000Z</Time>
            <Position>
              <LatitudeDegrees>49.31571386754512786865234375</LatitudeDegrees>
              <LongitudeDegrees>19.97817032039165496826171875</LongitudeDegrees>
            </Position>
            <AltitudeMeters>767.79998779296875</AltitudeMeters>
            <DistanceMeters>NAN</DistanceMeters>
          </Trackpoint>
          <Trackpoint>
            <Time>2022-09-18T14:05:24.000Z</Time>
            <Position>
              <LatitudeDegrees>49.315714202821254730224609375</LatitudeDegrees>
              <LongitudeDegrees>19.97816973365843296051025390625</LongitudeDegrees>
            </Position>
            <AltitudeMeters>767.79998779296875</AltitudeMeters>
            <DistanceMeters>NAN</DistanceMeters>
          </Trackpoint>
          <Trackpoint>
            <Time>2022-09-18T14:05:38.000Z</Time>
            <Position>
              <LatitudeDegrees>49.31571428664028644561767578125</LatitudeDegrees>
              <LongitudeDegrees>19.97816939838230609893798828125</LongitudeDegrees>
            </Position>
            <AltitudeMeters>767.79998779296875</AltitudeMeters>
            <DistanceMeters>NAN</DistanceMeters>
          </Trackpoint>
          <Trackpoint>
            <Time>2022-09-18T14:05:39.000Z</Time>
            <Position>
              <LatitudeDegrees>49.31571428664028644561767578125</LatitudeDegrees>
              <LongitudeDegrees>19.97816939838230609893798828125</LongitudeDegrees>
            </Position>
            <AltitudeMeters>767.79998779296875</AltitudeMeters>
            <DistanceMeters>NAN</DistanceMeters>
          </Trackpoint>
          <Trackpoint>
            <Time>2022-09-18T14:05:45.000Z</Time>
            <Position>
              <LatitudeDegrees>49.3157143704593181610107421875</LatitudeDegrees>
              <LongitudeDegrees>19.978169314563274383544921875</LongitudeDegrees>
            </Position>
            <AltitudeMeters>767.79998779296875</AltitudeMeters>
            <DistanceMeters>NAN</DistanceMeters>
          </Trackpoint>
          <Trackpoint>
            <Time>2022-09-18T14:05:54.000Z</Time>
            <Position>
              <LatitudeDegrees>49.31571445427834987640380859375</LatitudeDegrees>
              <LongitudeDegrees>19.9781691469252109527587890625</LongitudeDegrees>
            </Position>
            <AltitudeMeters>767.79998779296875</AltitudeMeters>
            <DistanceMeters>NAN</DistanceMeters>
          </Trackpoint>
          <Trackpoint>
            <Time>2022-09-18T14:05:55.000Z</Time>
            <Position>
              <LatitudeDegrees>49.31571445427834987640380859375</LatitudeDegrees>
              <LongitudeDegrees>19.9781691469252109527587890625</LongitudeDegrees>
            </Position>
            <AltitudeMeters>767.79998779296875</AltitudeMeters>
            <DistanceMeters>NAN</DistanceMeters>
          </Trackpoint>
          <Trackpoint>
            <Time>2022-09-18T14:06:04.000Z</Time>
            <Position>
              <LatitudeDegrees>49.315714538097381591796875</LatitudeDegrees>
              <LongitudeDegrees>19.97816897928714752197265625</LongitudeDegrees>
            </Position>
            <AltitudeMeters>767.79998779296875</AltitudeMeters>
            <DistanceMeters>NAN</DistanceMeters>
          </Trackpoint>
          <Trackpoint>
            <Time>2022-09-18T14:06:24.000Z</Time>
            <Position>
              <LatitudeDegrees>49.3157147057354450225830078125</LatitudeDegrees>
              <LongitudeDegrees>19.978168644011020660400390625</LongitudeDegrees>
            </Position>
            <AltitudeMeters>767.79998779296875</AltitudeMeters>
            <DistanceMeters>NAN</DistanceMeters>
          </Trackpoint>
          <Trackpoint>
            <Time>2022-09-18T14:06:31.000Z</Time>
            <Position>
              <LatitudeDegrees>49.3157147057354450225830078125</LatitudeDegrees>
              <LongitudeDegrees>19.9781684763729572296142578125</LongitudeDegrees>
            </Position>
            <AltitudeMeters>767.79998779296875</AltitudeMeters>
            <DistanceMeters>NAN</DistanceMeters>
          </Trackpoint>
          <Trackpoint>
            <Time>2022-09-18T14:06:35.000Z</Time>
            <Position>
              <LatitudeDegrees>49.31571478955447673797607421875</LatitudeDegrees>
              <LongitudeDegrees>19.9781684763729572296142578125</LongitudeDegrees>
            </Position>
            <AltitudeMeters>767.79998779296875</AltitudeMeters>
            <DistanceMeters>NAN</DistanceMeters>
          </Trackpoint>
          <Trackpoint>
            <Time>2022-09-18T14:06:37.000Z</Time>
            <Position>
              <LatitudeDegrees>49.31571478955447673797607421875</LatitudeDegrees>
              <LongitudeDegrees>19.97816839255392551422119140625</LongitudeDegrees>
            </Position>
            <AltitudeMeters>767.79998779296875</AltitudeMeters>
            <DistanceMeters>NAN</DistanceMeters>
          </Trackpoint>
          <Trackpoint>
            <Time>2022-09-18T14:06:39.000Z</Time>
            <Position>
              <LatitudeDegrees>49.31571478955447673797607421875</LatitudeDegrees>
              <LongitudeDegrees>19.97816839255392551422119140625</LongitudeDegrees>
            </Position>
            <AltitudeMeters>767.79998779296875</AltitudeMeters>
            <DistanceMeters>NAN</DistanceMeters>
          </Trackpoint>
          <Trackpoint>
            <Time>2022-09-18T14:06:41.000Z</Time>
            <Position>
              <LatitudeDegrees>49.31571478955447673797607421875</LatitudeDegrees>
              <LongitudeDegrees>19.978168308734893798828125</LongitudeDegrees>
            </Position>
            <AltitudeMeters>767.79998779296875</AltitudeMeters>
            <DistanceMeters>NAN</DistanceMeters>
          </Trackpoint>
          <Trackpoint>
            <Time>2022-09-18T14:06:44.000Z</Time>
            <Position>
              <LatitudeDegrees>49.31571478955447673797607421875</LatitudeDegrees>
              <LongitudeDegrees>19.978168308734893798828125</LongitudeDegrees>
            </Position>
            <AltitudeMeters>767.79998779296875</AltitudeMeters>
            <DistanceMeters>NAN</DistanceMeters>
          </Trackpoint>
          <Trackpoint>
            <Time>2022-09-18T14:06:55.000Z</Time>
            <Position>
              <LatitudeDegrees>49.31571495719254016876220703125</LatitudeDegrees>
              <LongitudeDegrees>19.9781681410968303680419921875</LongitudeDegrees>
            </Position>
            <AltitudeMeters>767.79998779296875</AltitudeMeters>
            <DistanceMeters>NAN</DistanceMeters>
          </Trackpoint>
          <Trackpoint>
            <Time>2022-09-18T14:06:59.000Z</Time>
            <Position>
              <LatitudeDegrees>49.31571495719254016876220703125</LatitudeDegrees>
              <LongitudeDegrees>19.97816805727779865264892578125</LongitudeDegrees>
            </Position>
            <AltitudeMeters>767.79998779296875</AltitudeMeters>
            <DistanceMeters>NAN</DistanceMeters>
          </Trackpoint>
          <Trackpoint>
            <Time>2022-09-18T14:07:07.000Z</Time>
            <Position>
              <LatitudeDegrees>49.3157150410115718841552734375</LatitudeDegrees>
              <LongitudeDegrees>19.97816788963973522186279296875</LongitudeDegrees>
            </Position>
            <AltitudeMeters>767.79998779296875</AltitudeMeters>
            <DistanceMeters>NAN</DistanceMeters>
          </Trackpoint>
          <Trackpoint>
            <Time>2022-09-18T14:07:11.000Z</Time>
            <Position>
              <LatitudeDegrees>49.31571512483060359954833984375</LatitudeDegrees>
              <LongitudeDegrees>19.9781678058207035064697265625</LongitudeDegrees>
            </Position>
            <AltitudeMeters>767.79998779296875</AltitudeMeters>
            <DistanceMeters>NAN</DistanceMeters>
          </Trackpoint>
          <Trackpoint>
            <Time>2022-09-18T14:07:23.000Z</Time>
            <Position>
              <LatitudeDegrees>49.31571529246866703033447265625</LatitudeDegrees>
              <LongitudeDegrees>19.97816763818264007568359375</LongitudeDegrees>
            </Position>
            <AltitudeMeters>767.79998779296875</AltitudeMeters>
            <DistanceMeters>NAN</DistanceMeters>
          </Trackpoint>
          <Trackpoint>
            <Time>2022-09-18T14:07:25.000Z</Time>
            <Position>
              <LatitudeDegrees>49.3157153762876987457275390625</LatitudeDegrees>
              <LongitudeDegrees>19.97816755436360836029052734375</LongitudeDegrees>
            </Position>
            <AltitudeMeters>767.79998779296875</AltitudeMeters>
            <DistanceMeters>NAN</DistanceMeters>
          </Trackpoint>
          <Trackpoint>
            <Time>2022-09-18T14:07:31.000Z</Time>
            <Position>
              <LatitudeDegrees>49.3157153762876987457275390625</LatitudeDegrees>
              <LongitudeDegrees>19.9781674705445766448974609375</LongitudeDegrees>
            </Position>
            <AltitudeMeters>767.79998779296875</AltitudeMeters>
            <DistanceMeters>NAN</DistanceMeters>
          </Trackpoint>
          <Trackpoint>
            <Time>2022-09-18T14:07:38.000Z</Time>
            <Position>
              <LatitudeDegrees>49.315715543925762176513671875</LatitudeDegrees>
              <LongitudeDegrees>19.97816738672554492950439453125</LongitudeDegrees>
            </Position>
            <AltitudeMeters>767.79998779296875</AltitudeMeters>
            <DistanceMeters>NAN</DistanceMeters>
          </Trackpoint>
          <Trackpoint>
            <Time>2022-09-18T14:07:42.000Z</Time>
            <Position>
              <LatitudeDegrees>49.315715543925762176513671875</LatitudeDegrees>
              <LongitudeDegrees>19.978167302906513214111328125</LongitudeDegrees>
            </Position>
            <AltitudeMeters>767.79998779296875</AltitudeMeters>
            <DistanceMeters>NAN</DistanceMeters>
          </Trackpoint>
          <Trackpoint>
            <Time>2022-09-18T14:07:43.000Z</Time>
            <Position>
              <LatitudeDegrees>49.31571562774479389190673828125</LatitudeDegrees>
              <LongitudeDegrees>19.978167302906513214111328125</LongitudeDegrees>
            </Position>
            <AltitudeMeters>767.79998779296875</AltitudeMeters>
            <DistanceMeters>NAN</DistanceMeters>
          </Trackpoint>
          <Trackpoint>
            <Time>2022-09-18T14:07:49.000Z</Time>
            <Position>
              <LatitudeDegrees>49.3157157115638256072998046875</LatitudeDegrees>
              <LongitudeDegrees>19.97816721908748149871826171875</LongitudeDegrees>
            </Position>
            <AltitudeMeters>767.79998779296875</AltitudeMeters>
            <DistanceMeters>NAN</DistanceMeters>
          </Trackpoint>
          <Trackpoint>
            <Time>2022-09-18T14:07:51.000Z</Time>
            <Position>
              <LatitudeDegrees>49.3157157115638256072998046875</LatitudeDegrees>
              <LongitudeDegrees>19.9781671352684497833251953125</LongitudeDegrees>
            </Position>
            <AltitudeMeters>767.79998779296875</AltitudeMeters>
            <DistanceMeters>NAN</DistanceMeters>
          </Trackpoint>
          <Trackpoint>
            <Time>2022-09-18T14:08:00.000Z</Time>
            <Position>
              <LatitudeDegrees>49.31571579538285732269287109375</LatitudeDegrees>
              <LongitudeDegrees>19.9781669676303863525390625</LongitudeDegrees>
            </Position>
            <AltitudeMeters>767.79998779296875</AltitudeMeters>
            <DistanceMeters>NAN</DistanceMeters>
          </Trackpoint>
          <Trackpoint>
            <Time>2022-09-18T14:08:08.000Z</Time>
            <Position>
              <LatitudeDegrees>49.31571596302092075347900390625</LatitudeDegrees>
              <LongitudeDegrees>19.97816688381135463714599609375</LongitudeDegrees>
            </Position>
            <AltitudeMeters>767.79998779296875</AltitudeMeters>
            <DistanceMeters>NAN</DistanceMeters>
          </Trackpoint>
          <Trackpoint>
            <Time>2022-09-18T14:08:14.000Z</Time>
            <Position>
              <LatitudeDegrees>49.31571596302092075347900390625</LatitudeDegrees>
              <LongitudeDegrees>19.9781667999923229217529296875</LongitudeDegrees>
            </Position>
            <AltitudeMeters>767.79998779296875</AltitudeMeters>
            <DistanceMeters>NAN</DistanceMeters>
          </Trackpoint>
          <Trackpoint>
            <Time>2022-09-18T14:08:22.000Z</Time>
            <Position>
              <LatitudeDegrees>49.31571613065898418426513671875</LatitudeDegrees>
              <LongitudeDegrees>19.978166632354259490966796875</LongitudeDegrees>
            </Position>
            <AltitudeMeters>767.79998779296875</AltitudeMeters>
            <DistanceMeters>NAN</DistanceMeters>
          </Trackpoint>
          <Trackpoint>
            <Time>2022-09-18T14:08:25.000Z</Time>
            <Position>
              <LatitudeDegrees>49.31571613065898418426513671875</LatitudeDegrees>
              <LongitudeDegrees>19.978166632354259490966796875</LongitudeDegrees>
            </Position>
            <AltitudeMeters>767.79998779296875</AltitudeMeters>
            <DistanceMeters>NAN</DistanceMeters>
          </Trackpoint>
          <Trackpoint>
            <Time>2022-09-18T14:08:36.000Z</Time>
            <Position>
              <LatitudeDegrees>49.31571629829704761505126953125</LatitudeDegrees>
              <LongitudeDegrees>19.9781664647161960601806640625</LongitudeDegrees>
            </Position>
            <AltitudeMeters>767.79998779296875</AltitudeMeters>
            <DistanceMeters>NAN</DistanceMeters>
          </Trackpoint>
          <Trackpoint>
            <Time>2022-09-18T14:08:37.000Z</Time>
            <Position>
              <LatitudeDegrees>49.31571629829704761505126953125</LatitudeDegrees>
              <LongitudeDegrees>19.9781664647161960601806640625</LongitudeDegrees>
            </Position>
            <AltitudeMeters>767.79998779296875</AltitudeMeters>
            <DistanceMeters>NAN</DistanceMeters>
          </Trackpoint>
          <Trackpoint>
            <Time>2022-09-18T14:08:46.000Z</Time>
            <Position>
              <LatitudeDegrees>49.3157163821160793304443359375</LatitudeDegrees>
              <LongitudeDegrees>19.97816629707813262939453125</LongitudeDegrees>
            </Position>
            <AltitudeMeters>767.79998779296875</AltitudeMeters>
            <DistanceMeters>NAN</DistanceMeters>
          </Trackpoint>
          <Trackpoint>
            <Time>2022-09-18T14:08:56.000Z</Time>
            <Position>
              <LatitudeDegrees>49.315716885030269622802734375</LatitudeDegrees>
              <LongitudeDegrees>19.9781661294400691986083984375</LongitudeDegrees>
            </Position>
            <AltitudeMeters>767.79998779296875</AltitudeMeters>
            <DistanceMeters>NAN</DistanceMeters>
          </Trackpoint>
          <Trackpoint>
            <Time>2022-09-18T14:09:26.000Z</Time>
            <Position>
              <LatitudeDegrees>49.31571830995380878448486328125</LatitudeDegrees>
              <LongitudeDegrees>19.97816587798297405242919921875</LongitudeDegrees>
            </Position>
            <AltitudeMeters>767.79998779296875</AltitudeMeters>
            <DistanceMeters>NAN</DistanceMeters>
          </Trackpoint>
          <Trackpoint>
            <Time>2022-09-18T14:09:28.000Z</Time>
            <Position>
              <LatitudeDegrees>49.31571830995380878448486328125</LatitudeDegrees>
              <LongitudeDegrees>19.9781657941639423370361328125</LongitudeDegrees>
            </Position>
            <AltitudeMeters>767.79998779296875</AltitudeMeters>
            <DistanceMeters>NAN</DistanceMeters>
          </Trackpoint>
          <Trackpoint>
            <Time>2022-09-18T14:09:33.000Z</Time>
            <Position>
              <LatitudeDegrees>49.3157185614109039306640625</LatitudeDegrees>
              <LongitudeDegrees>19.9781657941639423370361328125</LongitudeDegrees>
            </Position>
            <AltitudeMeters>767.79998779296875</AltitudeMeters>
            <DistanceMeters>NAN</DistanceMeters>
          </Trackpoint>
          <Trackpoint>
            <Time>2022-09-18T14:09:34.000Z</Time>
            <Position>
              <LatitudeDegrees>49.31571864522993564605712890625</LatitudeDegrees>
              <LongitudeDegrees>19.9781657941639423370361328125</LongitudeDegrees>
            </Position>
            <AltitudeMeters>767.79998779296875</AltitudeMeters>
            <DistanceMeters>NAN</DistanceMeters>
          </Trackpoint>
          <Trackpoint>
            <Time>2022-09-18T14:09:39.000Z</Time>
            <Position>
              <LatitudeDegrees>49.315718896687030792236328125</LatitudeDegrees>
              <LongitudeDegrees>19.97816571034491062164306640625</LongitudeDegrees>
            </Position>
            <AltitudeMeters>767.79998779296875</AltitudeMeters>
            <DistanceMeters>NAN</DistanceMeters>
          </Trackpoint>
          <Trackpoint>
            <Time>2022-09-18T14:09:43.000Z</Time>
            <Position>
              <LatitudeDegrees>49.3157190643250942230224609375</LatitudeDegrees>
              <LongitudeDegrees>19.97816562652587890625</LongitudeDegrees>
            </Position>
            <AltitudeMeters>767.79998779296875</AltitudeMeters>
            <DistanceMeters>NAN</DistanceMeters>
          </Trackpoint>
          <Trackpoint>
            <Time>2022-09-18T14:09:51.000Z</Time>
            <Position>
              <LatitudeDegrees>49.3157193996012210845947265625</LatitudeDegrees>
              <LongitudeDegrees>19.97816554270684719085693359375</LongitudeDegrees>
            </Position>
            <AltitudeMeters>767.79998779296875</AltitudeMeters>
            <DistanceMeters>NAN</DistanceMeters>
          </Trackpoint>
          <Trackpoint>
            <Time>2022-09-18T14:09:53.000Z</Time>
            <Position>
              <LatitudeDegrees>49.31571948342025279998779296875</LatitudeDegrees>
              <LongitudeDegrees>19.97816554270684719085693359375</LongitudeDegrees>
            </Position>
            <AltitudeMeters>767.79998779296875</AltitudeMeters>
            <DistanceMeters>NAN</DistanceMeters>
          </Trackpoint>
          <Trackpoint>
            <Time>2022-09-18T14:09:55.000Z</Time>
            <Position>
              <LatitudeDegrees>49.315719567239284515380859375</LatitudeDegrees>
              <LongitudeDegrees>19.97816554270684719085693359375</LongitudeDegrees>
            </Position>
            <AltitudeMeters>767.79998779296875</AltitudeMeters>
            <DistanceMeters>NAN</DistanceMeters>
          </Trackpoint>
          <Trackpoint>
            <Time>2022-09-18T14:09:56.000Z</Time>
            <Position>
              <LatitudeDegrees>49.31571965105831623077392578125</LatitudeDegrees>
              <LongitudeDegrees>19.97816554270684719085693359375</LongitudeDegrees>
            </Position>
            <AltitudeMeters>767.79998779296875</AltitudeMeters>
            <DistanceMeters>NAN</DistanceMeters>
          </Trackpoint>
          <Trackpoint>
            <Time>2022-09-18T14:09:58.000Z</Time>
            <Position>
              <LatitudeDegrees>49.3157197348773479461669921875</LatitudeDegrees>
              <LongitudeDegrees>19.97816554270684719085693359375</LongitudeDegrees>
            </Position>
            <AltitudeMeters>767.79998779296875</AltitudeMeters>
            <DistanceMeters>NAN</DistanceMeters>
          </Trackpoint>
          <Trackpoint>
            <Time>2022-09-18T14:10:27.000Z</Time>
            <Position>
              <LatitudeDegrees>49.31572099216282367706298828125</LatitudeDegrees>
              <LongitudeDegrees>19.97816520743072032928466796875</LongitudeDegrees>
            </Position>
            <AltitudeMeters>767.79998779296875</AltitudeMeters>
            <DistanceMeters>NAN</DistanceMeters>
          </Trackpoint>
          <Trackpoint>
            <Time>2022-09-18T14:10:32.000Z</Time>
            <Position>
              <LatitudeDegrees>49.31572115980088710784912109375</LatitudeDegrees>
              <LongitudeDegrees>19.97816520743072032928466796875</LongitudeDegrees>
            </Position>
            <AltitudeMeters>767.79998779296875</AltitudeMeters>
            <DistanceMeters>NAN</DistanceMeters>
          </Trackpoint>
          <Trackpoint>
            <Time>2022-09-18T14:10:35.000Z</Time>
            <Position>
              <LatitudeDegrees>49.31572132743895053863525390625</LatitudeDegrees>
              <LongitudeDegrees>19.9781651236116886138916015625</LongitudeDegrees>
            </Position>
            <AltitudeMeters>767.79998779296875</AltitudeMeters>
            <DistanceMeters>NAN</DistanceMeters>
          </Trackpoint>
          <Trackpoint>
            <Time>2022-09-18T14:11:03.000Z</Time>
            <Position>
              <LatitudeDegrees>49.3157224170863628387451171875</LatitudeDegrees>
              <LongitudeDegrees>19.97816487215459346771240234375</LongitudeDegrees>
            </Position>
            <AltitudeMeters>767.79998779296875</AltitudeMeters>
            <DistanceMeters>NAN</DistanceMeters>
          </Trackpoint>
          <Trackpoint>
            <Time>2022-09-18T14:11:39.000Z</Time>
            <Position>
              <LatitudeDegrees>49.31572384200990200042724609375</LatitudeDegrees>
              <LongitudeDegrees>19.97816453687846660614013671875</LongitudeDegrees>
            </Position>
            <AltitudeMeters>767.79998779296875</AltitudeMeters>
            <DistanceMeters>NAN</DistanceMeters>
          </Trackpoint>
          <Trackpoint>
            <Time>2022-09-18T14:11:41.000Z</Time>
            <Position>
              <LatitudeDegrees>49.31572384200990200042724609375</LatitudeDegrees>
              <LongitudeDegrees>19.97816453687846660614013671875</LongitudeDegrees>
            </Position>
            <AltitudeMeters>767.79998779296875</AltitudeMeters>
            <DistanceMeters>NAN</DistanceMeters>
          </Trackpoint>
          <Trackpoint>
            <Time>2022-09-18T14:11:47.000Z</Time>
            <Position>
              <LatitudeDegrees>49.3157240934669971466064453125</LatitudeDegrees>
              <LongitudeDegrees>19.97816453687846660614013671875</LongitudeDegrees>
            </Position>
            <AltitudeMeters>767.79998779296875</AltitudeMeters>
            <DistanceMeters>NAN</DistanceMeters>
          </Trackpoint>
          <Trackpoint>
            <Time>2022-09-18T14:11:52.000Z</Time>
            <Position>
              <LatitudeDegrees>49.315724261105060577392578125</LatitudeDegrees>
              <LongitudeDegrees>19.9781644530594348907470703125</LongitudeDegrees>
            </Position>
            <AltitudeMeters>767.79998779296875</AltitudeMeters>
            <DistanceMeters>NAN</DistanceMeters>
          </Trackpoint>
          <Trackpoint>
            <Time>2022-09-18T14:12:18.000Z</Time>
            <Position>
              <LatitudeDegrees>49.31572518311440944671630859375</LatitudeDegrees>
              <LongitudeDegrees>19.9781642854213714599609375</LongitudeDegrees>
            </Position>
            <AltitudeMeters>767.79998779296875</AltitudeMeters>
            <DistanceMeters>NAN</DistanceMeters>
          </Trackpoint>
          <Trackpoint>
            <Time>2022-09-18T14:12:29.000Z</Time>
            <Position>
              <LatitudeDegrees>49.315725602209568023681640625</LatitudeDegrees>
              <LongitudeDegrees>19.9781641177833080291748046875</LongitudeDegrees>
            </Position>
            <AltitudeMeters>767.79998779296875</AltitudeMeters>
            <DistanceMeters>NAN</DistanceMeters>
          </Trackpoint>
          <Trackpoint>
            <Time>2022-09-18T14:13:08.000Z</Time>
            <Position>
              <LatitudeDegrees>49.31572685949504375457763671875</LatitudeDegrees>
              <LongitudeDegrees>19.97816386632621288299560546875</LongitudeDegrees>
            </Position>
            <AltitudeMeters>767.79998779296875</AltitudeMeters>
            <DistanceMeters>NAN</DistanceMeters>
          </Trackpoint>
          <Trackpoint>
            <Time>2022-09-18T14:13:36.000Z</Time>
            <Position>
              <LatitudeDegrees>49.31573130190372467041015625</LatitudeDegrees>
              <LongitudeDegrees>19.97816252522170543670654296875</LongitudeDegrees>
            </Position>
            <AltitudeMeters>767.79998779296875</AltitudeMeters>
            <DistanceMeters>NAN</DistanceMeters>
          </Trackpoint>
          <Trackpoint>
            <Time>2022-09-18T14:13:42.000Z</Time>
            <Position>
              <LatitudeDegrees>49.31574597023427486419677734375</LatitudeDegrees>
              <LongitudeDegrees>19.97815950773656368255615234375</LongitudeDegrees>
            </Position>
            <AltitudeMeters>767.79998779296875</AltitudeMeters>
            <DistanceMeters>NAN</DistanceMeters>
          </Trackpoint>
          <Trackpoint>
            <Time>2022-09-18T14:13:50.000Z</Time>
            <Position>
              <LatitudeDegrees>49.31572970934212207794189453125</LatitudeDegrees>
              <LongitudeDegrees>19.97807283885776996612548828125</LongitudeDegrees>
            </Position>
            <AltitudeMeters>767.79998779296875</AltitudeMeters>
            <DistanceMeters>NAN</DistanceMeters>
          </Trackpoint>
          <Trackpoint>
            <Time>2022-09-18T14:13:56.000Z</Time>
            <Position>
              <LatitudeDegrees>49.3157173879444599151611328125</LatitudeDegrees>
              <LongitudeDegrees>19.9780393950641155242919921875</LongitudeDegrees>
            </Position>
            <AltitudeMeters>768</AltitudeMeters>
            <DistanceMeters>NAN</DistanceMeters>
          </Trackpoint>
          <Trackpoint>
            <Time>2022-09-18T14:13:57.000Z</Time>
            <Position>
              <LatitudeDegrees>49.3157173879444599151611328125</LatitudeDegrees>
              <LongitudeDegrees>19.9780393950641155242919921875</LongitudeDegrees>
            </Position>
            <AltitudeMeters>768</AltitudeMeters>
            <DistanceMeters>NAN</DistanceMeters>
          </Trackpoint>
          <Trackpoint>
            <Time>2022-09-18T14:14:04.000Z</Time>
            <Position>
              <LatitudeDegrees>49.315675981342792510986328125</LatitudeDegrees>
              <LongitudeDegrees>19.9780246429145336151123046875</LongitudeDegrees>
            </Position>
            <AltitudeMeters>768</AltitudeMeters>
            <DistanceMeters>NAN</DistanceMeters>
          </Trackpoint>
          <Trackpoint>
            <Time>2022-09-18T14:14:06.000Z</Time>
            <Position>
              <LatitudeDegrees>49.31565410457551479339599609375</LatitudeDegrees>
              <LongitudeDegrees>19.978015758097171783447265625</LongitudeDegrees>
            </Position>
            <AltitudeMeters>768</AltitudeMeters>
            <DistanceMeters>NAN</DistanceMeters>
          </Trackpoint>
          <Trackpoint>
            <Time>2022-09-18T14:14:10.000Z</Time>
            <Position>
              <LatitudeDegrees>49.3155826069414615631103515625</LatitudeDegrees>
              <LongitudeDegrees>19.97787921689450740814208984375</LongitudeDegrees>
            </Position>
            <AltitudeMeters>767.79998779296875</AltitudeMeters>
            <DistanceMeters>NAN</DistanceMeters>
          </Trackpoint>
          <Trackpoint>
            <Time>2022-09-18T14:14:15.000Z</Time>
            <Position>
              <LatitudeDegrees>49.31550540961325168609619140625</LatitudeDegrees>
              <LongitudeDegrees>19.9777745269238948822021484375</LongitudeDegrees>
            </Position>
            <AltitudeMeters>767.79998779296875</AltitudeMeters>
            <DistanceMeters>NAN</DistanceMeters>
          </Trackpoint>
          <Trackpoint>
            <Time>2022-09-18T14:14:17.000Z</Time>
            <Position>
              <LatitudeDegrees>49.315462410449981689453125</LatitudeDegrees>
              <LongitudeDegrees>19.9777373112738132476806640625</LongitudeDegrees>
            </Position>
            <AltitudeMeters>768.20001220703125</AltitudeMeters>
            <DistanceMeters>NAN</DistanceMeters>
          </Trackpoint>
          <Trackpoint>
            <Time>2022-09-18T14:14:22.000Z</Time>
            <Position>
              <LatitudeDegrees>49.31531933136284351348876953125</LatitudeDegrees>
              <LongitudeDegrees>19.97761535458266735076904296875</LongitudeDegrees>
            </Position>
            <AltitudeMeters>768.5999755859375</AltitudeMeters>
            <DistanceMeters>NAN</DistanceMeters>
          </Trackpoint>
          <Trackpoint>
            <Time>2022-09-18T14:14:26.000Z</Time>
            <Position>
              <LatitudeDegrees>49.3152164854109287261962890625</LatitudeDegrees>
              <LongitudeDegrees>19.977538995444774627685546875</LongitudeDegrees>
            </Position>
            <AltitudeMeters>768.79998779296875</AltitudeMeters>
            <DistanceMeters>NAN</DistanceMeters>
          </Trackpoint>
          <Trackpoint>
            <Time>2022-09-18T14:14:27.000Z</Time>
            <Position>
              <LatitudeDegrees>49.3151970393955707550048828125</LatitudeDegrees>
              <LongitudeDegrees>19.9775312840938568115234375</LongitudeDegrees>
            </Position>
            <AltitudeMeters>769.20001220703125</AltitudeMeters>
            <DistanceMeters>NAN</DistanceMeters>
          </Trackpoint>
          <Trackpoint>
            <Time>2022-09-18T14:14:33.000Z</Time>
            <Position>
              <LatitudeDegrees>49.3150347657501697540283203125</LatitudeDegrees>
              <LongitudeDegrees>19.9774674139916896820068359375</LongitudeDegrees>
            </Position>
            <AltitudeMeters>770.20001220703125</AltitudeMeters>
            <DistanceMeters>NAN</DistanceMeters>
          </Trackpoint>
          <Trackpoint>
            <Time>2022-09-18T14:14:34.000Z</Time>
            <Position>
              <LatitudeDegrees>49.31500668637454509735107421875</LatitudeDegrees>
              <LongitudeDegrees>19.9774535000324249267578125</LongitudeDegrees>
            </Position>
            <AltitudeMeters>770.79998779296875</AltitudeMeters>
            <DistanceMeters>NAN</DistanceMeters>
          </Trackpoint>
          <Trackpoint>
            <Time>2022-09-18T14:14:36.000Z</Time>
            <Position>
              <LatitudeDegrees>49.31494398973882198333740234375</LatitudeDegrees>
              <LongitudeDegrees>19.977424331009387969970703125</LongitudeDegrees>
            </Position>
            <AltitudeMeters>771.4000244140625</AltitudeMeters>
            <DistanceMeters>NAN</DistanceMeters>
          </Trackpoint>
          <Trackpoint>
            <Time>2022-09-18T14:14:40.000Z</Time>
            <Position>
              <LatitudeDegrees>49.3148527108132839202880859375</LatitudeDegrees>
              <LongitudeDegrees>19.97738116420805454254150390625</LongitudeDegrees>
            </Position>
            <AltitudeMeters>772.20001220703125</AltitudeMeters>
            <DistanceMeters>NAN</DistanceMeters>
          </Trackpoint>
          <Trackpoint>
            <Time>2022-09-18T14:14:41.000Z</Time>
            <Position>
              <LatitudeDegrees>49.31481792591512203216552734375</LatitudeDegrees>
              <LongitudeDegrees>19.97736574150621891021728515625</LongitudeDegrees>
            </Position>
            <AltitudeMeters>772.20001220703125</AltitudeMeters>
            <DistanceMeters>NAN</DistanceMeters>
          </Trackpoint>
          <Trackpoint>
            <Time>2022-09-18T14:14:44.000Z</Time>
            <Position>
              <LatitudeDegrees>49.31478607468307018280029296875</LatitudeDegrees>
              <LongitudeDegrees>19.97734562493860721588134765625</LongitudeDegrees>
            </Position>
            <AltitudeMeters>772.4000244140625</AltitudeMeters>
            <DistanceMeters>NAN</DistanceMeters>
          </Trackpoint>
          <Trackpoint>
            <Time>2022-09-18T14:14:45.000Z</Time>
            <Position>
              <LatitudeDegrees>49.3147417344152927398681640625</LatitudeDegrees>
              <LongitudeDegrees>19.97732701711356639862060546875</LongitudeDegrees>
            </Position>
            <AltitudeMeters>772.4000244140625</AltitudeMeters>
            <DistanceMeters>NAN</DistanceMeters>
          </Trackpoint>
          <Trackpoint>
            <Time>2022-09-18T14:14:48.000Z</Time>
            <Position>
              <LatitudeDegrees>49.31468666531145572662353515625</LatitudeDegrees>
              <LongitudeDegrees>19.97729684226214885711669921875</LongitudeDegrees>
            </Position>
            <AltitudeMeters>772.79998779296875</AltitudeMeters>
            <DistanceMeters>NAN</DistanceMeters>
          </Trackpoint>
          <Trackpoint>
            <Time>2022-09-18T14:14:55.000Z</Time>
            <Position>
              <LatitudeDegrees>49.31456110440194606781005859375</LatitudeDegrees>
              <LongitudeDegrees>19.97722995467483997344970703125</LongitudeDegrees>
            </Position>
            <AltitudeMeters>773.5999755859375</AltitudeMeters>
            <DistanceMeters>NAN</DistanceMeters>
          </Trackpoint>
          <Trackpoint>
            <Time>2022-09-18T14:14:56.000Z</Time>
            <Position>
              <LatitudeDegrees>49.314518272876739501953125</LatitudeDegrees>
              <LongitudeDegrees>19.9772092513740062713623046875</LongitudeDegrees>
            </Position>
            <AltitudeMeters>773.5999755859375</AltitudeMeters>
            <DistanceMeters>NAN</DistanceMeters>
          </Trackpoint>
          <Trackpoint>
            <Time>2022-09-18T14:14:57.000Z</Time>
            <Position>
              <LatitudeDegrees>49.31449421681463718414306640625</LatitudeDegrees>
              <LongitudeDegrees>19.97719910927116870880126953125</LongitudeDegrees>
            </Position>
            <AltitudeMeters>773.79998779296875</AltitudeMeters>
            <DistanceMeters>NAN</DistanceMeters>
          </Trackpoint>
          <Trackpoint>
            <Time>2022-09-18T14:14:58.000Z</Time>
            <Position>
              <LatitudeDegrees>49.31446932256221771240234375</LatitudeDegrees>
              <LongitudeDegrees>19.97718201018869876861572265625</LongitudeDegrees>
            </Position>
            <AltitudeMeters>773.79998779296875</AltitudeMeters>
            <DistanceMeters>NAN</DistanceMeters>
          </Trackpoint>
          <Trackpoint>
            <Time>2022-09-18T14:15:03.000Z</Time>
            <Position>
              <LatitudeDegrees>49.31435993872582912445068359375</LatitudeDegrees>
              <LongitudeDegrees>19.9771338142454624176025390625</LongitudeDegrees>
            </Position>
            <AltitudeMeters>774.20001220703125</AltitudeMeters>
            <DistanceMeters>NAN</DistanceMeters>
          </Trackpoint>
          <Trackpoint>
            <Time>2022-09-18T14:15:06.000Z</Time>
            <Position>
              <LatitudeDegrees>49.31430813856422901153564453125</LatitudeDegrees>
              <LongitudeDegrees>19.977113194763660430908203125</LongitudeDegrees>
            </Position>
            <AltitudeMeters>774.5999755859375</AltitudeMeters>
            <DistanceMeters>NAN</DistanceMeters>
          </Trackpoint>
          <Trackpoint>
            <Time>2022-09-18T14:15:10.000Z</Time>
            <Position>
              <LatitudeDegrees>49.31426019407808780670166015625</LatitudeDegrees>
              <LongitudeDegrees>19.97707597911357879638671875</LongitudeDegrees>
            </Position>
            <AltitudeMeters>775</AltitudeMeters>
            <DistanceMeters>NAN</DistanceMeters>
          </Trackpoint>
          <Trackpoint>
            <Time>2022-09-18T14:15:11.000Z</Time>
            <Position>
              <LatitudeDegrees>49.3142257444560527801513671875</LatitudeDegrees>
              <LongitudeDegrees>19.977052509784698486328125</LongitudeDegrees>
            </Position>
            <AltitudeMeters>775.20001220703125</AltitudeMeters>
            <DistanceMeters>NAN</DistanceMeters>
          </Trackpoint>
          <Trackpoint>
            <Time>2022-09-18T14:15:12.000Z</Time>
            <Position>
              <LatitudeDegrees>49.3142257444560527801513671875</LatitudeDegrees>
              <LongitudeDegrees>19.977052509784698486328125</LongitudeDegrees>
            </Position>
            <AltitudeMeters>775.4000244140625</AltitudeMeters>
            <DistanceMeters>NAN</DistanceMeters>
          </Trackpoint>
          <Trackpoint>
            <Time>2022-09-18T14:15:13.000Z</Time>
            <Position>
              <LatitudeDegrees>49.31419263593852519989013671875</LatitudeDegrees>
              <LongitudeDegrees>19.97703440487384796142578125</LongitudeDegrees>
            </Position>
            <AltitudeMeters>775.5999755859375</AltitudeMeters>
            <DistanceMeters>NAN</DistanceMeters>
          </Trackpoint>
          <Trackpoint>
            <Time>2022-09-18T14:15:16.000Z</Time>
            <Position>
              <LatitudeDegrees>49.31414921768009662628173828125</LatitudeDegrees>
              <LongitudeDegrees>19.976994507014751434326171875</LongitudeDegrees>
            </Position>
            <AltitudeMeters>776</AltitudeMeters>
            <DistanceMeters>NAN</DistanceMeters>
          </Trackpoint>
          <Trackpoint>
            <Time>2022-09-18T14:15:20.000Z</Time>
            <Position>
              <LatitudeDegrees>49.31408107280731201171875</LatitudeDegrees>
              <LongitudeDegrees>19.97694647870957851409912109375</LongitudeDegrees>
            </Position>
            <AltitudeMeters>776.20001220703125</AltitudeMeters>
            <DistanceMeters>NAN</DistanceMeters>
          </Trackpoint>
          <Trackpoint>
            <Time>2022-09-18T14:15:22.000Z</Time>
            <Position>
              <LatitudeDegrees>49.31404427625238895416259765625</LatitudeDegrees>
              <LongitudeDegrees>19.9769296310842037200927734375</LongitudeDegrees>
            </Position>
            <AltitudeMeters>776.4000244140625</AltitudeMeters>
            <DistanceMeters>NAN</DistanceMeters>
          </Trackpoint>
          <Trackpoint>
            <Time>2022-09-18T14:15:23.000Z</Time>
            <Position>
              <LatitudeDegrees>49.31404427625238895416259765625</LatitudeDegrees>
              <LongitudeDegrees>19.9769296310842037200927734375</LongitudeDegrees>
            </Position>
            <AltitudeMeters>776.5999755859375</AltitudeMeters>
            <DistanceMeters>NAN</DistanceMeters>
          </Trackpoint>
          <Trackpoint>
            <Time>2022-09-18T14:15:24.000Z</Time>
            <Position>
              <LatitudeDegrees>49.3140041269361972808837890625</LatitudeDegrees>
              <LongitudeDegrees>19.97691236436367034912109375</LongitudeDegrees>
            </Position>
            <AltitudeMeters>776.79998779296875</AltitudeMeters>
            <DistanceMeters>NAN</DistanceMeters>
          </Trackpoint>
          <Trackpoint>
            <Time>2022-09-18T14:15:28.000Z</Time>
            <Position>
              <LatitudeDegrees>49.313932545483112335205078125</LatitudeDegrees>
              <LongitudeDegrees>19.976863078773021697998046875</LongitudeDegrees>
            </Position>
            <AltitudeMeters>777</AltitudeMeters>
            <DistanceMeters>NAN</DistanceMeters>
          </Trackpoint>
          <Trackpoint>
            <Time>2022-09-18T14:15:33.000Z</Time>
            <Position>
              <LatitudeDegrees>49.31384512223303318023681640625</LatitudeDegrees>
              <LongitudeDegrees>19.9767861329019069671630859375</LongitudeDegrees>
            </Position>
            <AltitudeMeters>777.5999755859375</AltitudeMeters>
            <DistanceMeters>NAN</DistanceMeters>
          </Trackpoint>
          <Trackpoint>
            <Time>2022-09-18T14:15:34.000Z</Time>
            <Position>
              <LatitudeDegrees>49.31382768787443637847900390625</LatitudeDegrees>
              <LongitudeDegrees>19.97677347622811794281005859375</LongitudeDegrees>
            </Position>
            <AltitudeMeters>777.79998779296875</AltitudeMeters>
            <DistanceMeters>NAN</DistanceMeters>
          </Trackpoint>
          <Trackpoint>
            <Time>2022-09-18T14:15:39.000Z</Time>
            <Position>
              <LatitudeDegrees>49.3137429468333721160888671875</LatitudeDegrees>
              <LongitudeDegrees>19.97670843265950679779052734375</LongitudeDegrees>
            </Position>
            <AltitudeMeters>778.20001220703125</AltitudeMeters>
            <DistanceMeters>NAN</DistanceMeters>
          </Trackpoint>
          <Trackpoint>
            <Time>2022-09-18T14:15:41.000Z</Time>
            <Position>
              <LatitudeDegrees>49.31371620856225490570068359375</LatitudeDegrees>
              <LongitudeDegrees>19.97669233940541744232177734375</LongitudeDegrees>
            </Position>
            <AltitudeMeters>778.20001220703125</AltitudeMeters>
            <DistanceMeters>NAN</DistanceMeters>
          </Trackpoint>
          <Trackpoint>
            <Time>2022-09-18T14:15:48.000Z</Time>
            <Position>
              <LatitudeDegrees>49.31361411698162555694580078125</LatitudeDegrees>
              <LongitudeDegrees>19.97663819231092929840087890625</LongitudeDegrees>
            </Position>
            <AltitudeMeters>778.79998779296875</AltitudeMeters>
            <DistanceMeters>NAN</DistanceMeters>
          </Trackpoint>
          <Trackpoint>
            <Time>2022-09-18T14:15:49.000Z</Time>
            <Position>
              <LatitudeDegrees>49.31357773952186107635498046875</LatitudeDegrees>
              <LongitudeDegrees>19.97661958448588848114013671875</LongitudeDegrees>
            </Position>
            <AltitudeMeters>778.79998779296875</AltitudeMeters>
            <DistanceMeters>NAN</DistanceMeters>
          </Trackpoint>
          <Trackpoint>
            <Time>2022-09-18T14:15:50.000Z</Time>
            <Position>
              <LatitudeDegrees>49.3135592155158519744873046875</LatitudeDegrees>
              <LongitudeDegrees>19.97660868801176548004150390625</LongitudeDegrees>
            </Position>
            <AltitudeMeters>779</AltitudeMeters>
            <DistanceMeters>NAN</DistanceMeters>
          </Trackpoint>
          <Trackpoint>
            <Time>2022-09-18T14:15:58.000Z</Time>
            <Position>
              <LatitudeDegrees>49.3134157173335552215576171875</LatitudeDegrees>
              <LongitudeDegrees>19.97645194642245769500732421875</LongitudeDegrees>
            </Position>
            <AltitudeMeters>779.5999755859375</AltitudeMeters>
            <DistanceMeters>NAN</DistanceMeters>
          </Trackpoint>
          <Trackpoint>
            <Time>2022-09-18T14:15:59.000Z</Time>
            <Position>
              <LatitudeDegrees>49.31340289302170276641845703125</LatitudeDegrees>
              <LongitudeDegrees>19.97641573660075664520263671875</LongitudeDegrees>
            </Position>
            <AltitudeMeters>779.5999755859375</AltitudeMeters>
            <DistanceMeters>NAN</DistanceMeters>
          </Trackpoint>
          <Trackpoint>
            <Time>2022-09-18T14:16:04.000Z</Time>
            <Position>
              <LatitudeDegrees>49.31337925605475902557373046875</LatitudeDegrees>
              <LongitudeDegrees>19.97624793089926242828369140625</LongitudeDegrees>
            </Position>
            <AltitudeMeters>779.79998779296875</AltitudeMeters>
            <DistanceMeters>NAN</DistanceMeters>
          </Trackpoint>
          <Trackpoint>
            <Time>2022-09-18T14:16:13.000Z</Time>
            <Position>
              <LatitudeDegrees>49.31333147920668125152587890625</LatitudeDegrees>
              <LongitudeDegrees>19.9759110622107982635498046875</LongitudeDegrees>
            </Position>
            <AltitudeMeters>779.4000244140625</AltitudeMeters>
            <DistanceMeters>NAN</DistanceMeters>
          </Trackpoint>
          <Trackpoint>
            <Time>2022-09-18T14:16:20.000Z</Time>
            <Position>
              <LatitudeDegrees>49.31329451501369476318359375</LatitudeDegrees>
              <LongitudeDegrees>19.975679554045200347900390625</LongitudeDegrees>
            </Position>
            <AltitudeMeters>779.5999755859375</AltitudeMeters>
            <DistanceMeters>NAN</DistanceMeters>
          </Trackpoint>
          <Trackpoint>
            <Time>2022-09-18T14:16:23.000Z</Time>
            <Position>
              <LatitudeDegrees>49.31327900849282741546630859375</LatitudeDegrees>
              <LongitudeDegrees>19.97554083354771137237548828125</LongitudeDegrees>
            </Position>
            <AltitudeMeters>779.5999755859375</AltitudeMeters>
            <DistanceMeters>NAN</DistanceMeters>
          </Trackpoint>
          <Trackpoint>
            <Time>2022-09-18T14:16:26.000Z</Time>
            <Position>
              <LatitudeDegrees>49.31325604207813739776611328125</LatitudeDegrees>
              <LongitudeDegrees>19.975405298173427581787109375</LongitudeDegrees>
            </Position>
            <AltitudeMeters>780</AltitudeMeters>
            <DistanceMeters>NAN</DistanceMeters>
          </Trackpoint>
          <Trackpoint>
            <Time>2022-09-18T14:16:30.000Z</Time>
            <Position>
              <LatitudeDegrees>49.3132339976727962493896484375</LatitudeDegrees>
              <LongitudeDegrees>19.975255429744720458984375</LongitudeDegrees>
            </Position>
            <AltitudeMeters>779.79998779296875</AltitudeMeters>
            <DistanceMeters>NAN</DistanceMeters>
          </Trackpoint>
          <Trackpoint>
            <Time>2022-09-18T14:16:41.000Z</Time>
            <Position>
              <LatitudeDegrees>49.3131704628467559814453125</LatitudeDegrees>
              <LongitudeDegrees>19.97475729323923587799072265625</LongitudeDegrees>
            </Position>
            <AltitudeMeters>779.5999755859375</AltitudeMeters>
            <DistanceMeters>NAN</DistanceMeters>
          </Trackpoint>
          <Trackpoint>
            <Time>2022-09-18T14:16:46.000Z</Time>
            <Position>
              <LatitudeDegrees>49.313149340450763702392578125</LatitudeDegrees>
              <LongitudeDegrees>19.97453232295811176300048828125</LongitudeDegrees>
            </Position>
            <AltitudeMeters>780.5999755859375</AltitudeMeters>
            <DistanceMeters>NAN</DistanceMeters>
          </Trackpoint>
          <Trackpoint>
            <Time>2022-09-18T14:16:49.000Z</Time>
            <Position>
              <LatitudeDegrees>49.31312796659767627716064453125</LatitudeDegrees>
              <LongitudeDegrees>19.97436770237982273101806640625</LongitudeDegrees>
            </Position>
            <AltitudeMeters>780.5999755859375</AltitudeMeters>
            <DistanceMeters>NAN</DistanceMeters>
          </Trackpoint>
          <Trackpoint>
            <Time>2022-09-18T14:16:53.000Z</Time>
            <Position>
              <LatitudeDegrees>49.31308069266378879547119140625</LatitudeDegrees>
              <LongitudeDegrees>19.97420861385762691497802734375</LongitudeDegrees>
            </Position>
            <AltitudeMeters>780.5999755859375</AltitudeMeters>
            <DistanceMeters>NAN</DistanceMeters>
          </Trackpoint>
          <Trackpoint>
            <Time>2022-09-18T14:16:55.000Z</Time>
            <Position>
              <LatitudeDegrees>49.31304934434592723846435546875</LatitudeDegrees>
              <LongitudeDegrees>19.974133931100368499755859375</LongitudeDegrees>
            </Position>
            <AltitudeMeters>780.79998779296875</AltitudeMeters>
            <DistanceMeters>NAN</DistanceMeters>
          </Trackpoint>
          <Trackpoint>
            <Time>2022-09-18T14:16:56.000Z</Time>
            <Position>
              <LatitudeDegrees>49.31303425692021846771240234375</LatitudeDegrees>
              <LongitudeDegrees>19.97409529052674770355224609375</LongitudeDegrees>
            </Position>
            <AltitudeMeters>781</AltitudeMeters>
            <DistanceMeters>NAN</DistanceMeters>
          </Trackpoint>
          <Trackpoint>
            <Time>2022-09-18T14:17:04.000Z</Time>
            <Position>
              <LatitudeDegrees>49.3128809519112110137939453125</LatitudeDegrees>
              <LongitudeDegrees>19.973814748227596282958984375</LongitudeDegrees>
            </Position>
            <AltitudeMeters>781</AltitudeMeters>
            <DistanceMeters>NAN</DistanceMeters>
          </Trackpoint>
          <Trackpoint>
            <Time>2022-09-18T14:17:09.000Z</Time>
            <Position>
              <LatitudeDegrees>49.31280174292623996734619140625</LatitudeDegrees>
              <LongitudeDegrees>19.9737304262816905975341796875</LongitudeDegrees>
            </Position>
            <AltitudeMeters>781.20001220703125</AltitudeMeters>
            <DistanceMeters>NAN</DistanceMeters>
          </Trackpoint>
          <Trackpoint>
            <Time>2022-09-18T14:17:14.000Z</Time>
            <Position>
              <LatitudeDegrees>49.31264399550855159759521484375</LatitudeDegrees>
              <LongitudeDegrees>19.97361383400857448577880859375</LongitudeDegrees>
            </Position>
            <AltitudeMeters>781.5999755859375</AltitudeMeters>
            <DistanceMeters>NAN</DistanceMeters>
          </Trackpoint>
          <Trackpoint>
            <Time>2022-09-18T14:17:15.000Z</Time>
            <Position>
              <LatitudeDegrees>49.31261432357132434844970703125</LatitudeDegrees>
              <LongitudeDegrees>19.973596818745136260986328125</LongitudeDegrees>
            </Position>
            <AltitudeMeters>781.5999755859375</AltitudeMeters>
            <DistanceMeters>NAN</DistanceMeters>
          </Trackpoint>
          <Trackpoint>
            <Time>2022-09-18T14:17:18.000Z</Time>
            <Position>
              <LatitudeDegrees>49.31254408322274684906005859375</LatitudeDegrees>
              <LongitudeDegrees>19.9735406599938869476318359375</LongitudeDegrees>
            </Position>
            <AltitudeMeters>782</AltitudeMeters>
            <DistanceMeters>NAN</DistanceMeters>
          </Trackpoint>
          <Trackpoint>
            <Time>2022-09-18T14:17:23.000Z</Time>
            <Position>
              <LatitudeDegrees>49.31245942600071430206298828125</LatitudeDegrees>
              <LongitudeDegrees>19.9734518118202686309814453125</LongitudeDegrees>
            </Position>
            <AltitudeMeters>782.5999755859375</AltitudeMeters>
            <DistanceMeters>NAN</DistanceMeters>
          </Trackpoint>
          <Trackpoint>
            <Time>2022-09-18T14:17:31.000Z</Time>
            <Position>
              <LatitudeDegrees>49.31230419315397739410400390625</LatitudeDegrees>
              <LongitudeDegrees>19.97317881323397159576416015625</LongitudeDegrees>
            </Position>
            <AltitudeMeters>783</AltitudeMeters>
            <DistanceMeters>NAN</DistanceMeters>
          </Trackpoint>
          <Trackpoint>
            <Time>2022-09-18T14:17:40.000Z</Time>
            <Position>
              <LatitudeDegrees>49.3121728487312793731689453125</LatitudeDegrees>
              <LongitudeDegrees>19.9728758074343204498291015625</LongitudeDegrees>
            </Position>
            <AltitudeMeters>782.79998779296875</AltitudeMeters>
            <DistanceMeters>NAN</DistanceMeters>
          </Trackpoint>
          <Trackpoint>
            <Time>2022-09-18T14:17:48.000Z</Time>
            <Position>
              <LatitudeDegrees>49.31208425201475620269775390625</LatitudeDegrees>
              <LongitudeDegrees>19.97266282327473163604736328125</LongitudeDegrees>
            </Position>
            <AltitudeMeters>783</AltitudeMeters>
            <DistanceMeters>NAN</DistanceMeters>
          </Trackpoint>
          <Trackpoint>
            <Time>2022-09-18T14:17:51.000Z</Time>
            <Position>
              <LatitudeDegrees>49.31204921565949916839599609375</LatitudeDegrees>
              <LongitudeDegrees>19.972570873796939849853515625</LongitudeDegrees>
            </Position>
            <AltitudeMeters>783</AltitudeMeters>
            <DistanceMeters>NAN</DistanceMeters>
          </Trackpoint>
          <Trackpoint>
            <Time>2022-09-18T14:17:54.000Z</Time>
            <Position>
              <LatitudeDegrees>49.31201837025582790374755859375</LatitudeDegrees>
              <LongitudeDegrees>19.97247959487140178680419921875</LongitudeDegrees>
            </Position>
            <AltitudeMeters>783.4000244140625</AltitudeMeters>
            <DistanceMeters>NAN</DistanceMeters>
          </Trackpoint>
          <Trackpoint>
            <Time>2022-09-18T14:17:57.000Z</Time>
            <Position>
              <LatitudeDegrees>49.3119827471673488616943359375</LatitudeDegrees>
              <LongitudeDegrees>19.9724077619612216949462890625</LongitudeDegrees>
            </Position>
            <AltitudeMeters>783.5999755859375</AltitudeMeters>
            <DistanceMeters>NAN</DistanceMeters>
          </Trackpoint>
          <Trackpoint>
            <Time>2022-09-18T14:17:59.000Z</Time>
            <Position>
              <LatitudeDegrees>49.31196774356067180633544921875</LatitudeDegrees>
              <LongitudeDegrees>19.97235202230513095855712890625</LongitudeDegrees>
            </Position>
            <AltitudeMeters>783.5999755859375</AltitudeMeters>
            <DistanceMeters>NAN</DistanceMeters>
          </Trackpoint>
          <Trackpoint>
            <Time>2022-09-18T14:18:05.000Z</Time>
            <Position>
              <LatitudeDegrees>49.311897754669189453125</LatitudeDegrees>
              <LongitudeDegrees>19.97220299206674098968505859375</LongitudeDegrees>
            </Position>
            <AltitudeMeters>784.5999755859375</AltitudeMeters>
            <DistanceMeters>NAN</DistanceMeters>
          </Trackpoint>
          <Trackpoint>
            <Time>2022-09-18T14:18:11.000Z</Time>
            <Position>
              <LatitudeDegrees>49.31179658509790897369384765625</LatitudeDegrees>
              <LongitudeDegrees>19.9719568155705928802490234375</LongitudeDegrees>
            </Position>
            <AltitudeMeters>784.4000244140625</AltitudeMeters>
            <DistanceMeters>NAN</DistanceMeters>
          </Trackpoint>
          <Trackpoint>
            <Time>2022-09-18T14:18:18.000Z</Time>
            <Position>
              <LatitudeDegrees>49.3117084912955760955810546875</LatitudeDegrees>
              <LongitudeDegrees>19.9717670492827892303466796875</LongitudeDegrees>
            </Position>
            <AltitudeMeters>784.20001220703125</AltitudeMeters>
            <DistanceMeters>NAN</DistanceMeters>
          </Trackpoint>
          <Trackpoint>
            <Time>2022-09-18T14:18:22.000Z</Time>
            <Position>
              <LatitudeDegrees>49.3116276897490024566650390625</LatitudeDegrees>
              <LongitudeDegrees>19.97160335071384906768798828125</LongitudeDegrees>
            </Position>
            <AltitudeMeters>784.4000244140625</AltitudeMeters>
            <DistanceMeters>NAN</DistanceMeters>
          </Trackpoint>
          <Trackpoint>
            <Time>2022-09-18T14:18:28.000Z</Time>
            <Position>
              <LatitudeDegrees>49.311556778848171234130859375</LatitudeDegrees>
              <LongitudeDegrees>19.97142188251018524169921875</LongitudeDegrees>
            </Position>
            <AltitudeMeters>785</AltitudeMeters>
            <DistanceMeters>NAN</DistanceMeters>
          </Trackpoint>
          <Trackpoint>
            <Time>2022-09-18T14:18:34.000Z</Time>
            <Position>
              <LatitudeDegrees>49.3115113489329814910888671875</LatitudeDegrees>
              <LongitudeDegrees>19.97127410955727100372314453125</LongitudeDegrees>
            </Position>
            <AltitudeMeters>785.5999755859375</AltitudeMeters>
            <DistanceMeters>NAN</DistanceMeters>
          </Trackpoint>
          <Trackpoint>
            <Time>2022-09-18T14:18:41.000Z</Time>
            <Position>
              <LatitudeDegrees>49.31140883825719356536865234375</LatitudeDegrees>
              <LongitudeDegrees>19.9710405059158802032470703125</LongitudeDegrees>
            </Position>
            <AltitudeMeters>786.20001220703125</AltitudeMeters>
            <DistanceMeters>NAN</DistanceMeters>
          </Trackpoint>
          <Trackpoint>
            <Time>2022-09-18T14:18:47.000Z</Time>
            <Position>
              <LatitudeDegrees>49.31134865619242191314697265625</LatitudeDegrees>
              <LongitudeDegrees>19.97091016732156276702880859375</LongitudeDegrees>
            </Position>
            <AltitudeMeters>786.4000244140625</AltitudeMeters>
            <DistanceMeters>NAN</DistanceMeters>
          </Trackpoint>
          <Trackpoint>
            <Time>2022-09-18T14:18:57.000Z</Time>
            <Position>
              <LatitudeDegrees>49.31120507419109344482421875</LatitudeDegrees>
              <LongitudeDegrees>19.970596767961978912353515625</LongitudeDegrees>
            </Position>
            <AltitudeMeters>786.5999755859375</AltitudeMeters>
            <DistanceMeters>NAN</DistanceMeters>
          </Trackpoint>
          <Trackpoint>
            <Time>2022-09-18T14:19:01.000Z</Time>
            <Position>
              <LatitudeDegrees>49.3111539445817470550537109375</LatitudeDegrees>
              <LongitudeDegrees>19.9704775772988796234130859375</LongitudeDegrees>
            </Position>
            <AltitudeMeters>786.5999755859375</AltitudeMeters>
            <DistanceMeters>NAN</DistanceMeters>
          </Trackpoint>
          <Trackpoint>
            <Time>2022-09-18T14:19:05.000Z</Time>
            <Position>
              <LatitudeDegrees>49.31111262179911136627197265625</LatitudeDegrees>
              <LongitudeDegrees>19.97038847766816616058349609375</LongitudeDegrees>
            </Position>
            <AltitudeMeters>787</AltitudeMeters>
            <DistanceMeters>NAN</DistanceMeters>
          </Trackpoint>
          <Trackpoint>
            <Time>2022-09-18T14:19:12.000Z</Time>
            <Position>
              <LatitudeDegrees>49.31100198067724704742431640625</LatitudeDegrees>
              <LongitudeDegrees>19.97015663422644138336181640625</LongitudeDegrees>
            </Position>
            <AltitudeMeters>787.5999755859375</AltitudeMeters>
            <DistanceMeters>NAN</DistanceMeters>
          </Trackpoint>
          <Trackpoint>
            <Time>2022-09-18T14:19:14.000Z</Time>
            <Position>
              <LatitudeDegrees>49.31098781526088714599609375</LatitudeDegrees>
              <LongitudeDegrees>19.9701302312314510345458984375</LongitudeDegrees>
            </Position>
            <AltitudeMeters>787.79998779296875</AltitudeMeters>
            <DistanceMeters>NAN</DistanceMeters>
          </Trackpoint>
          <Trackpoint>
            <Time>2022-09-18T14:19:18.000Z</Time>
            <Position>
              <LatitudeDegrees>49.31092654354870319366455078125</LatitudeDegrees>
              <LongitudeDegrees>19.96995295397937297821044921875</LongitudeDegrees>
            </Position>
            <AltitudeMeters>788</AltitudeMeters>
            <DistanceMeters>NAN</DistanceMeters>
          </Trackpoint>
          <Trackpoint>
            <Time>2022-09-18T14:19:24.000Z</Time>
            <Position>
              <LatitudeDegrees>49.310854040086269378662109375</LatitudeDegrees>
              <LongitudeDegrees>19.96981180272996425628662109375</LongitudeDegrees>
            </Position>
            <AltitudeMeters>787.79998779296875</AltitudeMeters>
            <DistanceMeters>NAN</DistanceMeters>
          </Trackpoint>
          <Trackpoint>
            <Time>2022-09-18T14:19:25.000Z</Time>
            <Position>
              <LatitudeDegrees>49.3108367733657360076904296875</LatitudeDegrees>
              <LongitudeDegrees>19.96978707611560821533203125</LongitudeDegrees>
            </Position>
            <AltitudeMeters>787.79998779296875</AltitudeMeters>
            <DistanceMeters>NAN</DistanceMeters>
          </Trackpoint>
          <Trackpoint>
            <Time>2022-09-18T14:19:33.000Z</Time>
            <Position>
              <LatitudeDegrees>49.3107200972735881805419921875</LatitudeDegrees>
              <LongitudeDegrees>19.96959672309458255767822265625</LongitudeDegrees>
            </Position>
            <AltitudeMeters>787.4000244140625</AltitudeMeters>
            <DistanceMeters>NAN</DistanceMeters>
          </Trackpoint>
          <Trackpoint>
            <Time>2022-09-18T14:19:36.000Z</Time>
            <Position>
              <LatitudeDegrees>49.31065647862851619720458984375</LatitudeDegrees>
              <LongitudeDegrees>19.96952028013765811920166015625</LongitudeDegrees>
            </Position>
            <AltitudeMeters>787.5999755859375</AltitudeMeters>
            <DistanceMeters>NAN</DistanceMeters>
          </Trackpoint>
          <Trackpoint>
            <Time>2022-09-18T14:19:39.000Z</Time>
            <Position>
              <LatitudeDegrees>49.3106017448008060455322265625</LatitudeDegrees>
              <LongitudeDegrees>19.969458840787410736083984375</LongitudeDegrees>
            </Position>
            <AltitudeMeters>788.20001220703125</AltitudeMeters>
            <DistanceMeters>NAN</DistanceMeters>
          </Trackpoint>
          <Trackpoint>
            <Time>2022-09-18T14:19:40.000Z</Time>
            <Position>
              <LatitudeDegrees>49.31057701818645000457763671875</LatitudeDegrees>
              <LongitudeDegrees>19.969440065324306488037109375</LongitudeDegrees>
            </Position>
            <AltitudeMeters>788.5999755859375</AltitudeMeters>
            <DistanceMeters>NAN</DistanceMeters>
          </Trackpoint>
          <Trackpoint>
            <Time>2022-09-18T14:19:49.000Z</Time>
            <Position>
              <LatitudeDegrees>49.310371913015842437744140625</LatitudeDegrees>
              <LongitudeDegrees>19.969289191067218780517578125</LongitudeDegrees>
            </Position>
            <AltitudeMeters>789.20001220703125</AltitudeMeters>
            <DistanceMeters>NAN</DistanceMeters>
          </Trackpoint>
          <Trackpoint>
            <Time>2022-09-18T14:19:53.000Z</Time>
            <Position>
              <LatitudeDegrees>49.31027811951935291290283203125</LatitudeDegrees>
              <LongitudeDegrees>19.96921517886221408843994140625</LongitudeDegrees>
            </Position>
            <AltitudeMeters>789.79998779296875</AltitudeMeters>
            <DistanceMeters>NAN</DistanceMeters>
          </Trackpoint>
          <Trackpoint>
            <Time>2022-09-18T14:19:55.000Z</Time>
            <Position>
              <LatitudeDegrees>49.31023470126092433929443359375</LatitudeDegrees>
              <LongitudeDegrees>19.96916740201413631439208984375</LongitudeDegrees>
            </Position>
            <AltitudeMeters>790.20001220703125</AltitudeMeters>
            <DistanceMeters>NAN</DistanceMeters>
          </Trackpoint>
          <Trackpoint>
            <Time>2022-09-18T14:19:57.000Z</Time>
            <Position>
              <LatitudeDegrees>49.31021106429398059844970703125</LatitudeDegrees>
              <LongitudeDegrees>19.969127587974071502685546875</LongitudeDegrees>
            </Position>
            <AltitudeMeters>790.20001220703125</AltitudeMeters>
            <DistanceMeters>NAN</DistanceMeters>
          </Trackpoint>
          <Trackpoint>
            <Time>2022-09-18T14:20:05.000Z</Time>
            <Position>
              <LatitudeDegrees>49.31006521917879581451416015625</LatitudeDegrees>
              <LongitudeDegrees>19.9689866043627262115478515625</LongitudeDegrees>
            </Position>
            <AltitudeMeters>790.20001220703125</AltitudeMeters>
            <DistanceMeters>NAN</DistanceMeters>
          </Trackpoint>
          <Trackpoint>
            <Time>2022-09-18T14:20:07.000Z</Time>
            <Position>
              <LatitudeDegrees>49.310031272470951080322265625</LatitudeDegrees>
              <LongitudeDegrees>19.96895634569227695465087890625</LongitudeDegrees>
            </Position>
            <AltitudeMeters>790</AltitudeMeters>
            <DistanceMeters>NAN</DistanceMeters>
          </Trackpoint>
          <Trackpoint>
            <Time>2022-09-18T14:20:11.000Z</Time>
            <Position>
              <LatitudeDegrees>49.30996882729232311248779296875</LatitudeDegrees>
              <LongitudeDegrees>19.96888040564954280853271484375</LongitudeDegrees>
            </Position>
            <AltitudeMeters>790.20001220703125</AltitudeMeters>
            <DistanceMeters>NAN</DistanceMeters>
          </Trackpoint>
          <Trackpoint>
            <Time>2022-09-18T14:20:16.000Z</Time>
            <Position>
              <LatitudeDegrees>49.30986522696912288665771484375</LatitudeDegrees>
              <LongitudeDegrees>19.96880781836807727813720703125</LongitudeDegrees>
            </Position>
            <AltitudeMeters>790.79998779296875</AltitudeMeters>
            <DistanceMeters>NAN</DistanceMeters>
          </Trackpoint>
          <Trackpoint>
            <Time>2022-09-18T14:20:18.000Z</Time>
            <Position>
              <LatitudeDegrees>49.3098302744328975677490234375</LatitudeDegrees>
              <LongitudeDegrees>19.96877077035605907440185546875</LongitudeDegrees>
            </Position>
            <AltitudeMeters>790.79998779296875</AltitudeMeters>
            <DistanceMeters>NAN</DistanceMeters>
          </Trackpoint>
          <Trackpoint>
            <Time>2022-09-18T14:20:24.000Z</Time>
            <Position>
              <LatitudeDegrees>49.30978124029934406280517578125</LatitudeDegrees>
              <LongitudeDegrees>19.9686104245483875274658203125</LongitudeDegrees>
            </Position>
            <AltitudeMeters>791</AltitudeMeters>
            <DistanceMeters>NAN</DistanceMeters>
          </Trackpoint>
          <Trackpoint>
            <Time>2022-09-18T14:20:28.000Z</Time>
            <Position>
              <LatitudeDegrees>49.3097732774913311004638671875</LatitudeDegrees>
              <LongitudeDegrees>19.9685426987707614898681640625</LongitudeDegrees>
            </Position>
            <AltitudeMeters>791.4000244140625</AltitudeMeters>
            <DistanceMeters>NAN</DistanceMeters>
          </Trackpoint>
          <Trackpoint>
            <Time>2022-09-18T14:20:33.000Z</Time>
            <Position>
              <LatitudeDegrees>49.3097732774913311004638671875</LatitudeDegrees>
              <LongitudeDegrees>19.9685426987707614898681640625</LongitudeDegrees>
            </Position>
            <AltitudeMeters>791.5999755859375</AltitudeMeters>
            <DistanceMeters>NAN</DistanceMeters>
          </Trackpoint>
          <Trackpoint>
            <Time>2022-09-18T14:20:44.000Z</Time>
            <Position>
              <LatitudeDegrees>49.3097732774913311004638671875</LatitudeDegrees>
              <LongitudeDegrees>19.9685426987707614898681640625</LongitudeDegrees>
            </Position>
            <AltitudeMeters>791.4000244140625</AltitudeMeters>
            <DistanceMeters>NAN</DistanceMeters>
          </Trackpoint>
          <Trackpoint>
            <Time>2022-09-18T14:20:52.000Z</Time>
            <Position>
              <LatitudeDegrees>49.3097732774913311004638671875</LatitudeDegrees>
              <LongitudeDegrees>19.9685426987707614898681640625</LongitudeDegrees>
            </Position>
            <AltitudeMeters>791.4000244140625</AltitudeMeters>
            <DistanceMeters>NAN</DistanceMeters>
          </Trackpoint>
          <Trackpoint>
            <Time>2022-09-18T14:20:56.000Z</Time>
            <Position>
              <LatitudeDegrees>49.30977344512939453125</LatitudeDegrees>
              <LongitudeDegrees>19.96855082921683788299560546875</LongitudeDegrees>
            </Position>
            <AltitudeMeters>791.4000244140625</AltitudeMeters>
            <DistanceMeters>NAN</DistanceMeters>
          </Trackpoint>
          <Trackpoint>
            <Time>2022-09-18T14:20:58.000Z</Time>
            <Position>
              <LatitudeDegrees>49.30977344512939453125</LatitudeDegrees>
              <LongitudeDegrees>19.96855082921683788299560546875</LongitudeDegrees>
            </Position>
            <AltitudeMeters>791.5999755859375</AltitudeMeters>
            <DistanceMeters>NAN</DistanceMeters>
          </Trackpoint>
          <Trackpoint>
            <Time>2022-09-18T14:21:01.000Z</Time>
            <Position>
              <LatitudeDegrees>49.30977118201553821563720703125</LatitudeDegrees>
              <LongitudeDegrees>19.9685544334352016448974609375</LongitudeDegrees>
            </Position>
            <AltitudeMeters>791.5999755859375</AltitudeMeters>
            <DistanceMeters>NAN</DistanceMeters>
          </Trackpoint>
          <Trackpoint>
            <Time>2022-09-18T14:21:02.000Z</Time>
            <Position>
              <LatitudeDegrees>49.3097598664462566375732421875</LatitudeDegrees>
              <LongitudeDegrees>19.96855753473937511444091796875</LongitudeDegrees>
            </Position>
            <AltitudeMeters>791.5999755859375</AltitudeMeters>
            <DistanceMeters>NAN</DistanceMeters>
          </Trackpoint>
          <Trackpoint>
            <Time>2022-09-18T14:21:05.000Z</Time>
            <Position>
              <LatitudeDegrees>49.30972843430936336517333984375</LatitudeDegrees>
              <LongitudeDegrees>19.9685517512261867523193359375</LongitudeDegrees>
            </Position>
            <AltitudeMeters>791.5999755859375</AltitudeMeters>
            <DistanceMeters>NAN</DistanceMeters>
          </Trackpoint>
          <Trackpoint>
            <Time>2022-09-18T14:21:08.000Z</Time>
            <Position>
              <LatitudeDegrees>49.30971317924559116363525390625</LatitudeDegrees>
              <LongitudeDegrees>19.96853942982852458953857421875</LongitudeDegrees>
            </Position>
            <AltitudeMeters>791.4000244140625</AltitudeMeters>
            <DistanceMeters>NAN</DistanceMeters>
          </Trackpoint>
          <Trackpoint>
            <Time>2022-09-18T14:21:10.000Z</Time>
            <Position>
              <LatitudeDegrees>49.30969641543924808502197265625</LatitudeDegrees>
              <LongitudeDegrees>19.96851528994739055633544921875</LongitudeDegrees>
            </Position>
            <AltitudeMeters>791.4000244140625</AltitudeMeters>
            <DistanceMeters>NAN</DistanceMeters>
          </Trackpoint>
          <Trackpoint>
            <Time>2022-09-18T14:21:16.000Z</Time>
            <Position>
              <LatitudeDegrees>49.3096907995641231536865234375</LatitudeDegrees>
              <LongitudeDegrees>19.9685028009116649627685546875</LongitudeDegrees>
            </Position>
            <AltitudeMeters>791.79998779296875</AltitudeMeters>
            <DistanceMeters>NAN</DistanceMeters>
          </Trackpoint>
          <Trackpoint>
            <Time>2022-09-18T14:21:23.000Z</Time>
            <Position>
              <LatitudeDegrees>49.3096907995641231536865234375</LatitudeDegrees>
              <LongitudeDegrees>19.9685028009116649627685546875</LongitudeDegrees>
            </Position>
            <AltitudeMeters>791.79998779296875</AltitudeMeters>
            <DistanceMeters>NAN</DistanceMeters>
          </Trackpoint>
          <Trackpoint>
            <Time>2022-09-18T14:21:29.000Z</Time>
            <Position>
              <LatitudeDegrees>49.3096907995641231536865234375</LatitudeDegrees>
              <LongitudeDegrees>19.9685028009116649627685546875</LongitudeDegrees>
            </Position>
            <AltitudeMeters>792</AltitudeMeters>
            <DistanceMeters>NAN</DistanceMeters>
          </Trackpoint>
          <Trackpoint>
            <Time>2022-09-18T14:21:35.000Z</Time>
            <Position>
              <LatitudeDegrees>49.3096907995641231536865234375</LatitudeDegrees>
              <LongitudeDegrees>19.9685028009116649627685546875</LongitudeDegrees>
            </Position>
            <AltitudeMeters>791.79998779296875</AltitudeMeters>
            <DistanceMeters>NAN</DistanceMeters>
          </Trackpoint>
          <Trackpoint>
            <Time>2022-09-18T14:21:43.000Z</Time>
            <Position>
              <LatitudeDegrees>49.309689290821552276611328125</LatitudeDegrees>
              <LongitudeDegrees>19.96849399991333484649658203125</LongitudeDegrees>
            </Position>
            <AltitudeMeters>791.79998779296875</AltitudeMeters>
            <DistanceMeters>NAN</DistanceMeters>
          </Trackpoint>
          <Trackpoint>
            <Time>2022-09-18T14:21:55.000Z</Time>
            <Position>
              <LatitudeDegrees>49.309689290821552276611328125</LatitudeDegrees>
              <LongitudeDegrees>19.96849399991333484649658203125</LongitudeDegrees>
            </Position>
            <AltitudeMeters>791.79998779296875</AltitudeMeters>
            <DistanceMeters>NAN</DistanceMeters>
          </Trackpoint>
          <Trackpoint>
            <Time>2022-09-18T14:22:09.000Z</Time>
            <Position>
              <LatitudeDegrees>49.309689290821552276611328125</LatitudeDegrees>
              <LongitudeDegrees>19.96849399991333484649658203125</LongitudeDegrees>
            </Position>
            <AltitudeMeters>791.79998779296875</AltitudeMeters>
            <DistanceMeters>NAN</DistanceMeters>
          </Trackpoint>
          <Trackpoint>
            <Time>2022-09-18T14:22:51.000Z</Time>
            <Position>
              <LatitudeDegrees>49.309689290821552276611328125</LatitudeDegrees>
              <LongitudeDegrees>19.96849399991333484649658203125</LongitudeDegrees>
            </Position>
            <AltitudeMeters>791.79998779296875</AltitudeMeters>
            <DistanceMeters>NAN</DistanceMeters>
          </Trackpoint>
          <Trackpoint>
            <Time>2022-09-18T14:22:54.000Z</Time>
            <Position>
              <LatitudeDegrees>49.309689290821552276611328125</LatitudeDegrees>
              <LongitudeDegrees>19.96849399991333484649658203125</LongitudeDegrees>
            </Position>
            <AltitudeMeters>791.79998779296875</AltitudeMeters>
            <DistanceMeters>NAN</DistanceMeters>
          </Trackpoint>
          <Trackpoint>
            <Time>2022-09-18T14:22:55.000Z</Time>
            <Position>
              <LatitudeDegrees>49.309689290821552276611328125</LatitudeDegrees>
              <LongitudeDegrees>19.96849399991333484649658203125</LongitudeDegrees>
            </Position>
            <AltitudeMeters>791.79998779296875</AltitudeMeters>
            <DistanceMeters>NAN</DistanceMeters>
          </Trackpoint>
          <Trackpoint>
            <Time>2022-09-18T14:22:56.000Z</Time>
            <Position>
              <LatitudeDegrees>49.309689290821552276611328125</LatitudeDegrees>
              <LongitudeDegrees>19.96849399991333484649658203125</LongitudeDegrees>
            </Position>
            <AltitudeMeters>791.79998779296875</AltitudeMeters>
            <DistanceMeters>NAN</DistanceMeters>
          </Trackpoint>
          <Trackpoint>
            <Time>2022-09-18T14:23:00.000Z</Time>
            <Position>
              <LatitudeDegrees>49.309689290821552276611328125</LatitudeDegrees>
              <LongitudeDegrees>19.96849399991333484649658203125</LongitudeDegrees>
            </Position>
            <AltitudeMeters>791.79998779296875</AltitudeMeters>
            <DistanceMeters>NAN</DistanceMeters>
          </Trackpoint>
          <Trackpoint>
            <Time>2022-09-18T14:23:02.000Z</Time>
            <Position>
              <LatitudeDegrees>49.3096874468028545379638671875</LatitudeDegrees>
              <LongitudeDegrees>19.9684900604188442230224609375</LongitudeDegrees>
            </Position>
            <AltitudeMeters>791.79998779296875</AltitudeMeters>
            <DistanceMeters>NAN</DistanceMeters>
          </Trackpoint>
          <Trackpoint>
            <Time>2022-09-18T14:23:05.000Z</Time>
            <Position>
              <LatitudeDegrees>49.30967613123357295989990234375</LatitudeDegrees>
              <LongitudeDegrees>19.96840699575841426849365234375</LongitudeDegrees>
            </Position>
            <AltitudeMeters>791.79998779296875</AltitudeMeters>
            <DistanceMeters>NAN</DistanceMeters>
          </Trackpoint>
          <Trackpoint>
            <Time>2022-09-18T14:23:11.000Z</Time>
            <Position>
              <LatitudeDegrees>49.30963556282222270965576171875</LatitudeDegrees>
              <LongitudeDegrees>19.9682007171213626861572265625</LongitudeDegrees>
            </Position>
            <AltitudeMeters>791.5999755859375</AltitudeMeters>
            <DistanceMeters>NAN</DistanceMeters>
          </Trackpoint>
          <Trackpoint>
            <Time>2022-09-18T14:23:16.000Z</Time>
            <Position>
              <LatitudeDegrees>49.30959851481020450592041015625</LatitudeDegrees>
              <LongitudeDegrees>19.96803634800016880035400390625</LongitudeDegrees>
            </Position>
            <AltitudeMeters>792</AltitudeMeters>
            <DistanceMeters>NAN</DistanceMeters>
          </Trackpoint>
          <Trackpoint>
            <Time>2022-09-18T14:23:18.000Z</Time>
            <Position>
              <LatitudeDegrees>49.3095667473971843719482421875</LatitudeDegrees>
              <LongitudeDegrees>19.9679557979106903076171875</LongitudeDegrees>
            </Position>
            <AltitudeMeters>792</AltitudeMeters>
            <DistanceMeters>NAN</DistanceMeters>
          </Trackpoint>
          <Trackpoint>
            <Time>2022-09-18T14:23:26.000Z</Time>
            <Position>
              <LatitudeDegrees>49.30951788090169429779052734375</LatitudeDegrees>
              <LongitudeDegrees>19.96768020093441009521484375</LongitudeDegrees>
            </Position>
            <AltitudeMeters>792.20001220703125</AltitudeMeters>
            <DistanceMeters>NAN</DistanceMeters>
          </Trackpoint>
          <Trackpoint>
            <Time>2022-09-18T14:23:29.000Z</Time>
            <Position>
              <LatitudeDegrees>49.30950363166630268096923828125</LatitudeDegrees>
              <LongitudeDegrees>19.9675418995320796966552734375</LongitudeDegrees>
            </Position>
            <AltitudeMeters>792.5999755859375</AltitudeMeters>
            <DistanceMeters>NAN</DistanceMeters>
          </Trackpoint>
          <Trackpoint>
            <Time>2022-09-18T14:23:33.000Z</Time>
            <Position>
              <LatitudeDegrees>49.30948049761354923248291015625</LatitudeDegrees>
              <LongitudeDegrees>19.96738457120954990386962890625</LongitudeDegrees>
            </Position>
            <AltitudeMeters>792.79998779296875</AltitudeMeters>
            <DistanceMeters>NAN</DistanceMeters>
          </Trackpoint>
          <Trackpoint>
            <Time>2022-09-18T14:23:38.000Z</Time>
            <Position>
              <LatitudeDegrees>49.30945250205695629119873046875</LatitudeDegrees>
              <LongitudeDegrees>19.967184998095035552978515625</LongitudeDegrees>
            </Position>
            <AltitudeMeters>793</AltitudeMeters>
            <DistanceMeters>NAN</DistanceMeters>
          </Trackpoint>
          <Trackpoint>
            <Time>2022-09-18T14:23:45.000Z</Time>
            <Position>
              <LatitudeDegrees>49.3094369955360889434814453125</LatitudeDegrees>
              <LongitudeDegrees>19.9669964052736759185791015625</LongitudeDegrees>
            </Position>
            <AltitudeMeters>793.79998779296875</AltitudeMeters>
            <DistanceMeters>NAN</DistanceMeters>
          </Trackpoint>
          <Trackpoint>
            <Time>2022-09-18T14:23:47.000Z</Time>
            <Position>
              <LatitudeDegrees>49.309406317770481109619140625</LatitudeDegrees>
              <LongitudeDegrees>19.96687042526900768280029296875</LongitudeDegrees>
            </Position>
            <AltitudeMeters>793.79998779296875</AltitudeMeters>
            <DistanceMeters>NAN</DistanceMeters>
          </Trackpoint>
          <Trackpoint>
            <Time>2022-09-18T14:23:52.000Z</Time>
            <Position>
              <LatitudeDegrees>49.30939382873475551605224609375</LatitudeDegrees>
              <LongitudeDegrees>19.96668619103729724884033203125</LongitudeDegrees>
            </Position>
            <AltitudeMeters>794.79998779296875</AltitudeMeters>
            <DistanceMeters>NAN</DistanceMeters>
          </Trackpoint>
          <Trackpoint>
            <Time>2022-09-18T14:23:54.000Z</Time>
            <Position>
              <LatitudeDegrees>49.309379495680332183837890625</LatitudeDegrees>
              <LongitudeDegrees>19.96663221158087253570556640625</LongitudeDegrees>
            </Position>
            <AltitudeMeters>794.79998779296875</AltitudeMeters>
            <DistanceMeters>NAN</DistanceMeters>
          </Trackpoint>
          <Trackpoint>
            <Time>2022-09-18T14:23:56.000Z</Time>
            <Position>
              <LatitudeDegrees>49.309371449053287506103515625</LatitudeDegrees>
              <LongitudeDegrees>19.96660731732845306396484375</LongitudeDegrees>
            </Position>
            <AltitudeMeters>795</AltitudeMeters>
            <DistanceMeters>NAN</DistanceMeters>
          </Trackpoint>
          <Trackpoint>
            <Time>2022-09-18T14:24:03.000Z</Time>
            <Position>
              <LatitudeDegrees>49.30931922979652881622314453125</LatitudeDegrees>
              <LongitudeDegrees>19.966323338449001312255859375</LongitudeDegrees>
            </Position>
            <AltitudeMeters>795.5999755859375</AltitudeMeters>
            <DistanceMeters>NAN</DistanceMeters>
          </Trackpoint>
          <Trackpoint>
            <Time>2022-09-18T14:24:05.000Z</Time>
            <Position>
              <LatitudeDegrees>49.30931118316948413848876953125</LatitudeDegrees>
              <LongitudeDegrees>19.96627983637154102325439453125</LongitudeDegrees>
            </Position>
            <AltitudeMeters>796</AltitudeMeters>
            <DistanceMeters>NAN</DistanceMeters>
          </Trackpoint>
          <Trackpoint>
            <Time>2022-09-18T14:24:07.000Z</Time>
            <Position>
              <LatitudeDegrees>49.30929408408701419830322265625</LatitudeDegrees>
              <LongitudeDegrees>19.9662333168089389801025390625</LongitudeDegrees>
            </Position>
            <AltitudeMeters>796.20001220703125</AltitudeMeters>
            <DistanceMeters>NAN</DistanceMeters>
          </Trackpoint>
          <Trackpoint>
            <Time>2022-09-18T14:24:08.000Z</Time>
            <Position>
              <LatitudeDegrees>49.30928838439285755157470703125</LatitudeDegrees>
              <LongitudeDegrees>19.9662058241665363311767578125</LongitudeDegrees>
            </Position>
            <AltitudeMeters>796.20001220703125</AltitudeMeters>
            <DistanceMeters>NAN</DistanceMeters>
          </Trackpoint>
          <Trackpoint>
            <Time>2022-09-18T14:24:10.000Z</Time>
            <Position>
              <LatitudeDegrees>49.30928419344127178192138671875</LatitudeDegrees>
              <LongitudeDegrees>19.9661437980830669403076171875</LongitudeDegrees>
            </Position>
            <AltitudeMeters>796.20001220703125</AltitudeMeters>
            <DistanceMeters>NAN</DistanceMeters>
          </Trackpoint>
          <Trackpoint>
            <Time>2022-09-18T14:24:11.000Z</Time>
            <Position>
              <LatitudeDegrees>49.30928419344127178192138671875</LatitudeDegrees>
              <LongitudeDegrees>19.96612242422997951507568359375</LongitudeDegrees>
            </Position>
            <AltitudeMeters>796.20001220703125</AltitudeMeters>
            <DistanceMeters>NAN</DistanceMeters>
          </Trackpoint>
          <Trackpoint>
            <Time>2022-09-18T14:24:13.000Z</Time>
            <Position>
              <LatitudeDegrees>49.30928201414644718170166015625</LatitudeDegrees>
              <LongitudeDegrees>19.96607615612447261810302734375</LongitudeDegrees>
            </Position>
            <AltitudeMeters>796.20001220703125</AltitudeMeters>
            <DistanceMeters>NAN</DistanceMeters>
          </Trackpoint>
          <Trackpoint>
            <Time>2022-09-18T14:24:15.000Z</Time>
            <Position>
              <LatitudeDegrees>49.30927681736648082733154296875</LatitudeDegrees>
              <LongitudeDegrees>19.9660301394760608673095703125</LongitudeDegrees>
            </Position>
            <AltitudeMeters>796.4000244140625</AltitudeMeters>
            <DistanceMeters>NAN</DistanceMeters>
          </Trackpoint>
          <Trackpoint>
            <Time>2022-09-18T14:24:18.000Z</Time>
            <Position>
              <LatitudeDegrees>49.30926508270204067230224609375</LatitudeDegrees>
              <LongitudeDegrees>19.96595093049108982086181640625</LongitudeDegrees>
            </Position>
            <AltitudeMeters>796.5999755859375</AltitudeMeters>
            <DistanceMeters>NAN</DistanceMeters>
          </Trackpoint>
          <Trackpoint>
            <Time>2022-09-18T14:24:25.000Z</Time>
            <Position>
              <LatitudeDegrees>49.3092240951955318450927734375</LatitudeDegrees>
              <LongitudeDegrees>19.9657391197979450225830078125</LongitudeDegrees>
            </Position>
            <AltitudeMeters>797.20001220703125</AltitudeMeters>
            <DistanceMeters>NAN</DistanceMeters>
          </Trackpoint>
          <Trackpoint>
            <Time>2022-09-18T14:24:26.000Z</Time>
            <Position>
              <LatitudeDegrees>49.3092167191207408905029296875</LatitudeDegrees>
              <LongitudeDegrees>19.9657045863568782806396484375</LongitudeDegrees>
            </Position>
            <AltitudeMeters>797.20001220703125</AltitudeMeters>
            <DistanceMeters>NAN</DistanceMeters>
          </Trackpoint>
          <Trackpoint>
            <Time>2022-09-18T14:24:29.000Z</Time>
            <Position>
              <LatitudeDegrees>49.30920473299920558929443359375</LatitudeDegrees>
              <LongitudeDegrees>19.96563434600830078125</LongitudeDegrees>
            </Position>
            <AltitudeMeters>797.4000244140625</AltitudeMeters>
            <DistanceMeters>NAN</DistanceMeters>
          </Trackpoint>
          <Trackpoint>
            <Time>2022-09-18T14:24:33.000Z</Time>
            <Position>
              <LatitudeDegrees>49.30918159894645214080810546875</LatitudeDegrees>
              <LongitudeDegrees>19.965498559176921844482421875</LongitudeDegrees>
            </Position>
            <AltitudeMeters>797.5999755859375</AltitudeMeters>
            <DistanceMeters>NAN</DistanceMeters>
          </Trackpoint>
          <Trackpoint>
            <Time>2022-09-18T14:24:37.000Z</Time>
            <Position>
              <LatitudeDegrees>49.30914781987667083740234375</LatitudeDegrees>
              <LongitudeDegrees>19.96537408791482448577880859375</LongitudeDegrees>
            </Position>
            <AltitudeMeters>797.5999755859375</AltitudeMeters>
            <DistanceMeters>NAN</DistanceMeters>
          </Trackpoint>
          <Trackpoint>
            <Time>2022-09-18T14:24:47.000Z</Time>
            <Position>
              <LatitudeDegrees>49.30909157730638980865478515625</LatitudeDegrees>
              <LongitudeDegrees>19.96509463526308536529541015625</LongitudeDegrees>
            </Position>
            <AltitudeMeters>798.20001220703125</AltitudeMeters>
            <DistanceMeters>NAN</DistanceMeters>
          </Trackpoint>
          <Trackpoint>
            <Time>2022-09-18T14:24:49.000Z</Time>
            <Position>
              <LatitudeDegrees>49.30908403359353542327880859375</LatitudeDegrees>
              <LongitudeDegrees>19.9650657176971435546875</LongitudeDegrees>
            </Position>
            <AltitudeMeters>798.20001220703125</AltitudeMeters>
            <DistanceMeters>NAN</DistanceMeters>
          </Trackpoint>
          <Trackpoint>
            <Time>2022-09-18T14:24:53.000Z</Time>
            <Position>
              <LatitudeDegrees>49.3090425431728363037109375</LatitudeDegrees>
              <LongitudeDegrees>19.9648583494126796722412109375</LongitudeDegrees>
            </Position>
            <AltitudeMeters>798.4000244140625</AltitudeMeters>
            <DistanceMeters>NAN</DistanceMeters>
          </Trackpoint>
          <Trackpoint>
            <Time>2022-09-18T14:25:02.000Z</Time>
            <Position>
              <LatitudeDegrees>49.30896677076816558837890625</LatitudeDegrees>
              <LongitudeDegrees>19.96457956731319427490234375</LongitudeDegrees>
            </Position>
            <AltitudeMeters>798.5999755859375</AltitudeMeters>
            <DistanceMeters>NAN</DistanceMeters>
          </Trackpoint>
          <Trackpoint>
            <Time>2022-09-18T14:25:05.000Z</Time>
            <Position>
              <LatitudeDegrees>49.3089471571147441864013671875</LatitudeDegrees>
              <LongitudeDegrees>19.96449097059667110443115234375</LongitudeDegrees>
            </Position>
            <AltitudeMeters>798.79998779296875</AltitudeMeters>
            <DistanceMeters>NAN</DistanceMeters>
          </Trackpoint>
          <Trackpoint>
            <Time>2022-09-18T14:25:08.000Z</Time>
            <Position>
              <LatitudeDegrees>49.30891052819788455963134765625</LatitudeDegrees>
              <LongitudeDegrees>19.96433590538799762725830078125</LongitudeDegrees>
            </Position>
            <AltitudeMeters>799</AltitudeMeters>
            <DistanceMeters>NAN</DistanceMeters>
          </Trackpoint>
          <Trackpoint>
            <Time>2022-09-18T14:25:09.000Z</Time>
            <Position>
              <LatitudeDegrees>49.30891052819788455963134765625</LatitudeDegrees>
              <LongitudeDegrees>19.96433590538799762725830078125</LongitudeDegrees>
            </Position>
            <AltitudeMeters>799</AltitudeMeters>
            <DistanceMeters>NAN</DistanceMeters>
          </Trackpoint>
          <Trackpoint>
            <Time>2022-09-18T14:25:12.000Z</Time>
            <Position>
              <LatitudeDegrees>49.308878593146800994873046875</LatitudeDegrees>
              <LongitudeDegrees>19.9641965143382549285888671875</LongitudeDegrees>
            </Position>
            <AltitudeMeters>799.20001220703125</AltitudeMeters>
            <DistanceMeters>NAN</DistanceMeters>
          </Trackpoint>
          <Trackpoint>
            <Time>2022-09-18T14:25:16.000Z</Time>
            <Position>
              <LatitudeDegrees>49.3088455684483051300048828125</LatitudeDegrees>
              <LongitudeDegrees>19.96405511163175106048583984375</LongitudeDegrees>
            </Position>
            <AltitudeMeters>799</AltitudeMeters>
            <DistanceMeters>NAN</DistanceMeters>
          </Trackpoint>
          <Trackpoint>
            <Time>2022-09-18T14:25:19.000Z</Time>
            <Position>
              <LatitudeDegrees>49.3088080175220966339111328125</LatitudeDegrees>
              <LongitudeDegrees>19.96389769949018955230712890625</LongitudeDegrees>
            </Position>
            <AltitudeMeters>799.20001220703125</AltitudeMeters>
            <DistanceMeters>NAN</DistanceMeters>
          </Trackpoint>
          <Trackpoint>
            <Time>2022-09-18T14:25:21.000Z</Time>
            <Position>
              <LatitudeDegrees>49.308798126876354217529296875</LatitudeDegrees>
              <LongitudeDegrees>19.9638300575315952301025390625</LongitudeDegrees>
            </Position>
            <AltitudeMeters>799.20001220703125</AltitudeMeters>
            <DistanceMeters>NAN</DistanceMeters>
          </Trackpoint>
          <Trackpoint>
            <Time>2022-09-18T14:25:26.000Z</Time>
            <Position>
              <LatitudeDegrees>49.3087528645992279052734375</LatitudeDegrees>
              <LongitudeDegrees>19.96362796984612941741943359375</LongitudeDegrees>
            </Position>
            <AltitudeMeters>799.4000244140625</AltitudeMeters>
            <DistanceMeters>NAN</DistanceMeters>
          </Trackpoint>
          <Trackpoint>
            <Time>2022-09-18T14:25:34.000Z</Time>
            <Position>
              <LatitudeDegrees>49.30866896174848079681396484375</LatitudeDegrees>
              <LongitudeDegrees>19.96332823298871517181396484375</LongitudeDegrees>
            </Position>
            <AltitudeMeters>799.79998779296875</AltitudeMeters>
            <DistanceMeters>NAN</DistanceMeters>
          </Trackpoint>
          <Trackpoint>
            <Time>2022-09-18T14:25:44.000Z</Time>
            <Position>
              <LatitudeDegrees>49.30857843719422817230224609375</LatitudeDegrees>
              <LongitudeDegrees>19.96296898461878299713134765625</LongitudeDegrees>
            </Position>
            <AltitudeMeters>800.20001220703125</AltitudeMeters>
            <DistanceMeters>NAN</DistanceMeters>
          </Trackpoint>
          <Trackpoint>
            <Time>2022-09-18T14:25:53.000Z</Time>
            <Position>
              <LatitudeDegrees>49.3085029162466526031494140625</LatitudeDegrees>
              <LongitudeDegrees>19.9626451916992664337158203125</LongitudeDegrees>
            </Position>
            <AltitudeMeters>800.4000244140625</AltitudeMeters>
            <DistanceMeters>NAN</DistanceMeters>
          </Trackpoint>
          <Trackpoint>
            <Time>2022-09-18T14:26:01.000Z</Time>
            <Position>
              <LatitudeDegrees>49.30842136032879352569580078125</LatitudeDegrees>
              <LongitudeDegrees>19.96230647899210453033447265625</LongitudeDegrees>
            </Position>
            <AltitudeMeters>800.79998779296875</AltitudeMeters>
            <DistanceMeters>NAN</DistanceMeters>
          </Trackpoint>
          <Trackpoint>
            <Time>2022-09-18T14:26:07.000Z</Time>
            <Position>
              <LatitudeDegrees>49.30835162289440631866455078125</LatitudeDegrees>
              <LongitudeDegrees>19.96210657060146331787109375</LongitudeDegrees>
            </Position>
            <AltitudeMeters>801</AltitudeMeters>
            <DistanceMeters>NAN</DistanceMeters>
          </Trackpoint>
          <Trackpoint>
            <Time>2022-09-18T14:26:08.000Z</Time>
            <Position>
              <LatitudeDegrees>49.3083336018025875091552734375</LatitudeDegrees>
              <LongitudeDegrees>19.96208620257675647735595703125</LongitudeDegrees>
            </Position>
            <AltitudeMeters>801</AltitudeMeters>
            <DistanceMeters>NAN</DistanceMeters>
          </Trackpoint>
          <Trackpoint>
            <Time>2022-09-18T14:26:11.000Z</Time>
            <Position>
              <LatitudeDegrees>49.30828574113547801971435546875</LatitudeDegrees>
              <LongitudeDegrees>19.96205602772533893585205078125</LongitudeDegrees>
            </Position>
            <AltitudeMeters>801.20001220703125</AltitudeMeters>
            <DistanceMeters>NAN</DistanceMeters>
          </Trackpoint>
          <Trackpoint>
            <Time>2022-09-18T14:26:12.000Z</Time>
            <Position>
              <LatitudeDegrees>49.30828574113547801971435546875</LatitudeDegrees>
              <LongitudeDegrees>19.96205602772533893585205078125</LongitudeDegrees>
            </Position>
            <AltitudeMeters>801.4000244140625</AltitudeMeters>
            <DistanceMeters>NAN</DistanceMeters>
          </Trackpoint>
          <Trackpoint>
            <Time>2022-09-18T14:26:16.000Z</Time>
            <Position>
              <LatitudeDegrees>49.3082373775541782379150390625</LatitudeDegrees>
              <LongitudeDegrees>19.9620138667523860931396484375</LongitudeDegrees>
            </Position>
            <AltitudeMeters>801.4000244140625</AltitudeMeters>
            <DistanceMeters>NAN</DistanceMeters>
          </Trackpoint>
          <Trackpoint>
            <Time>2022-09-18T14:26:20.000Z</Time>
            <Position>
              <LatitudeDegrees>49.308204688131809234619140625</LatitudeDegrees>
              <LongitudeDegrees>19.9619421176612377166748046875</LongitudeDegrees>
            </Position>
            <AltitudeMeters>801.5999755859375</AltitudeMeters>
            <DistanceMeters>NAN</DistanceMeters>
          </Trackpoint>
          <Trackpoint>
            <Time>2022-09-18T14:26:26.000Z</Time>
            <Position>
              <LatitudeDegrees>49.3081894330680370330810546875</LatitudeDegrees>
              <LongitudeDegrees>19.9618645012378692626953125</LongitudeDegrees>
            </Position>
            <AltitudeMeters>801.79998779296875</AltitudeMeters>
            <DistanceMeters>NAN</DistanceMeters>
          </Trackpoint>
          <Trackpoint>
            <Time>2022-09-18T14:26:34.000Z</Time>
            <Position>
              <LatitudeDegrees>49.30819136090576648712158203125</LatitudeDegrees>
              <LongitudeDegrees>19.96185855008661746978759765625</LongitudeDegrees>
            </Position>
            <AltitudeMeters>801.5999755859375</AltitudeMeters>
            <DistanceMeters>NAN</DistanceMeters>
          </Trackpoint>
          <Trackpoint>
            <Time>2022-09-18T14:26:36.000Z</Time>
            <Position>
              <LatitudeDegrees>49.30819136090576648712158203125</LatitudeDegrees>
              <LongitudeDegrees>19.96185855008661746978759765625</LongitudeDegrees>
            </Position>
            <AltitudeMeters>801.5999755859375</AltitudeMeters>
            <DistanceMeters>NAN</DistanceMeters>
          </Trackpoint>
          <Trackpoint>
            <Time>2022-09-18T14:26:51.000Z</Time>
            <Position>
              <LatitudeDegrees>49.30819136090576648712158203125</LatitudeDegrees>
              <LongitudeDegrees>19.96185855008661746978759765625</LongitudeDegrees>
            </Position>
            <AltitudeMeters>801.4000244140625</AltitudeMeters>
            <DistanceMeters>NAN</DistanceMeters>
          </Trackpoint>
          <Trackpoint>
            <Time>2022-09-18T14:26:53.000Z</Time>
            <Position>
              <LatitudeDegrees>49.30819136090576648712158203125</LatitudeDegrees>
              <LongitudeDegrees>19.96185855008661746978759765625</LongitudeDegrees>
            </Position>
            <AltitudeMeters>801.4000244140625</AltitudeMeters>
            <DistanceMeters>NAN</DistanceMeters>
          </Trackpoint>
          <Trackpoint>
            <Time>2022-09-18T14:26:54.000Z</Time>
            <Position>
              <LatitudeDegrees>49.30819136090576648712158203125</LatitudeDegrees>
              <LongitudeDegrees>19.96185855008661746978759765625</LongitudeDegrees>
            </Position>
            <AltitudeMeters>801.4000244140625</AltitudeMeters>
            <DistanceMeters>NAN</DistanceMeters>
          </Trackpoint>
          <Trackpoint>
            <Time>2022-09-18T14:26:56.000Z</Time>
            <Position>
              <LatitudeDegrees>49.30819136090576648712158203125</LatitudeDegrees>
              <LongitudeDegrees>19.96185855008661746978759765625</LongitudeDegrees>
            </Position>
            <AltitudeMeters>801.4000244140625</AltitudeMeters>
            <DistanceMeters>NAN</DistanceMeters>
          </Trackpoint>
          <Trackpoint>
            <Time>2022-09-18T14:26:59.000Z</Time>
            <Position>
              <LatitudeDegrees>49.30819136090576648712158203125</LatitudeDegrees>
              <LongitudeDegrees>19.96185855008661746978759765625</LongitudeDegrees>
            </Position>
            <AltitudeMeters>801.5999755859375</AltitudeMeters>
            <DistanceMeters>NAN</DistanceMeters>
          </Trackpoint>
          <Trackpoint>
            <Time>2022-09-18T14:27:11.000Z</Time>
            <Position>
              <LatitudeDegrees>49.30819136090576648712158203125</LatitudeDegrees>
              <LongitudeDegrees>19.96185855008661746978759765625</LongitudeDegrees>
            </Position>
            <AltitudeMeters>801.79998779296875</AltitudeMeters>
            <DistanceMeters>NAN</DistanceMeters>
          </Trackpoint>
          <Trackpoint>
            <Time>2022-09-18T14:27:15.000Z</Time>
            <Position>
              <LatitudeDegrees>49.3082065321505069732666015625</LatitudeDegrees>
              <LongitudeDegrees>19.96184664778411388397216796875</LongitudeDegrees>
            </Position>
            <AltitudeMeters>801.5999755859375</AltitudeMeters>
            <DistanceMeters>NAN</DistanceMeters>
          </Trackpoint>
          <Trackpoint>
            <Time>2022-09-18T14:27:18.000Z</Time>
            <Position>
              <LatitudeDegrees>49.3082333542406558990478515625</LatitudeDegrees>
              <LongitudeDegrees>19.96182016097009181976318359375</LongitudeDegrees>
            </Position>
            <AltitudeMeters>801.5999755859375</AltitudeMeters>
            <DistanceMeters>NAN</DistanceMeters>
          </Trackpoint>
          <Trackpoint>
            <Time>2022-09-18T14:27:21.000Z</Time>
            <Position>
              <LatitudeDegrees>49.30825523100793361663818359375</LatitudeDegrees>
              <LongitudeDegrees>19.9617711268365383148193359375</LongitudeDegrees>
            </Position>
            <AltitudeMeters>801.4000244140625</AltitudeMeters>
            <DistanceMeters>NAN</DistanceMeters>
          </Trackpoint>
          <Trackpoint>
            <Time>2022-09-18T14:27:24.000Z</Time>
            <Position>
              <LatitudeDegrees>49.308263696730136871337890625</LatitudeDegrees>
              <LongitudeDegrees>19.96176165528595447540283203125</LongitudeDegrees>
            </Position>
            <AltitudeMeters>801.4000244140625</AltitudeMeters>
            <DistanceMeters>NAN</DistanceMeters>
          </Trackpoint>
          <Trackpoint>
            <Time>2022-09-18T14:27:31.000Z</Time>
            <Position>
              <LatitudeDegrees>49.3082534708082675933837890625</LatitudeDegrees>
              <LongitudeDegrees>19.9617550335824489593505859375</LongitudeDegrees>
            </Position>
            <AltitudeMeters>802</AltitudeMeters>
            <DistanceMeters>NAN</DistanceMeters>
          </Trackpoint>
          <Trackpoint>
            <Time>2022-09-18T14:27:45.000Z</Time>
            <Position>
              <LatitudeDegrees>49.3082534708082675933837890625</LatitudeDegrees>
              <LongitudeDegrees>19.9617550335824489593505859375</LongitudeDegrees>
            </Position>
            <AltitudeMeters>801.5999755859375</AltitudeMeters>
            <DistanceMeters>NAN</DistanceMeters>
          </Trackpoint>
          <Trackpoint>
            <Time>2022-09-18T14:27:46.000Z</Time>
            <Position>
              <LatitudeDegrees>49.3082534708082675933837890625</LatitudeDegrees>
              <LongitudeDegrees>19.9617550335824489593505859375</LongitudeDegrees>
            </Position>
            <AltitudeMeters>801.5999755859375</AltitudeMeters>
            <DistanceMeters>NAN</DistanceMeters>
          </Trackpoint>
          <Trackpoint>
            <Time>2022-09-18T14:27:58.000Z</Time>
            <Position>
              <LatitudeDegrees>49.30823528207838535308837890625</LatitudeDegrees>
              <LongitudeDegrees>19.96173441410064697265625</LongitudeDegrees>
            </Position>
            <AltitudeMeters>801.5999755859375</AltitudeMeters>
            <DistanceMeters>NAN</DistanceMeters>
          </Trackpoint>
          <Trackpoint>
            <Time>2022-09-18T14:28:00.000Z</Time>
            <Position>
              <LatitudeDegrees>49.3081978149712085723876953125</LatitudeDegrees>
              <LongitudeDegrees>19.96168739162385463714599609375</LongitudeDegrees>
            </Position>
            <AltitudeMeters>801.5999755859375</AltitudeMeters>
            <DistanceMeters>NAN</DistanceMeters>
          </Trackpoint>
          <Trackpoint>
            <Time>2022-09-18T14:28:01.000Z</Time>
            <Position>
              <LatitudeDegrees>49.3081708252429962158203125</LatitudeDegrees>
              <LongitudeDegrees>19.96165855787694454193115234375</LongitudeDegrees>
            </Position>
            <AltitudeMeters>801.5999755859375</AltitudeMeters>
            <DistanceMeters>NAN</DistanceMeters>
          </Trackpoint>
          <Trackpoint>
            <Time>2022-09-18T14:28:06.000Z</Time>
            <Position>
              <LatitudeDegrees>49.308046437799930572509765625</LatitudeDegrees>
              <LongitudeDegrees>19.961508773267269134521484375</LongitudeDegrees>
            </Position>
            <AltitudeMeters>801.79998779296875</AltitudeMeters>
            <DistanceMeters>NAN</DistanceMeters>
          </Trackpoint>
          <Trackpoint>
            <Time>2022-09-18T14:28:09.000Z</Time>
            <Position>
              <LatitudeDegrees>49.30800922214984893798828125</LatitudeDegrees>
              <LongitudeDegrees>19.961461834609508514404296875</LongitudeDegrees>
            </Position>
            <AltitudeMeters>801.79998779296875</AltitudeMeters>
            <DistanceMeters>NAN</DistanceMeters>
          </Trackpoint>
          <Trackpoint>
            <Time>2022-09-18T14:28:13.000Z</Time>
            <Position>
              <LatitudeDegrees>49.30791274644434452056884765625</LatitudeDegrees>
              <LongitudeDegrees>19.96131892316043376922607421875</LongitudeDegrees>
            </Position>
            <AltitudeMeters>802</AltitudeMeters>
            <DistanceMeters>NAN</DistanceMeters>
          </Trackpoint>
          <Trackpoint>
            <Time>2022-09-18T14:28:15.000Z</Time>
            <Position>
              <LatitudeDegrees>49.30786848999559879302978515625</LatitudeDegrees>
              <LongitudeDegrees>19.961269386112689971923828125</LongitudeDegrees>
            </Position>
            <AltitudeMeters>802</AltitudeMeters>
            <DistanceMeters>NAN</DistanceMeters>
          </Trackpoint>
          <Trackpoint>
            <Time>2022-09-18T14:28:18.000Z</Time>
            <Position>
              <LatitudeDegrees>49.307804368436336517333984375</LatitudeDegrees>
              <LongitudeDegrees>19.961183555424213409423828125</LongitudeDegrees>
            </Position>
            <AltitudeMeters>802.4000244140625</AltitudeMeters>
            <DistanceMeters>NAN</DistanceMeters>
          </Trackpoint>
          <Trackpoint>
            <Time>2022-09-18T14:28:23.000Z</Time>
            <Position>
              <LatitudeDegrees>49.30770588107407093048095703125</LatitudeDegrees>
              <LongitudeDegrees>19.96106453239917755126953125</LongitudeDegrees>
            </Position>
            <AltitudeMeters>802.79998779296875</AltitudeMeters>
            <DistanceMeters>NAN</DistanceMeters>
          </Trackpoint>
          <Trackpoint>
            <Time>2022-09-18T14:28:28.000Z</Time>
            <Position>
              <LatitudeDegrees>49.3076379038393497467041015625</LatitudeDegrees>
              <LongitudeDegrees>19.96092195622622966766357421875</LongitudeDegrees>
            </Position>
            <AltitudeMeters>803</AltitudeMeters>
            <DistanceMeters>NAN</DistanceMeters>
          </Trackpoint>
          <Trackpoint>
            <Time>2022-09-18T14:28:30.000Z</Time>
            <Position>
              <LatitudeDegrees>49.307621307671070098876953125</LatitudeDegrees>
              <LongitudeDegrees>19.9609067849814891815185546875</LongitudeDegrees>
            </Position>
            <AltitudeMeters>803</AltitudeMeters>
            <DistanceMeters>NAN</DistanceMeters>
          </Trackpoint>
          <Trackpoint>
            <Time>2022-09-18T14:28:35.000Z</Time>
            <Position>
              <LatitudeDegrees>49.3075101636350154876708984375</LatitudeDegrees>
              <LongitudeDegrees>19.960806034505367279052734375</LongitudeDegrees>
            </Position>
            <AltitudeMeters>803.20001220703125</AltitudeMeters>
            <DistanceMeters>NAN</DistanceMeters>
          </Trackpoint>
          <Trackpoint>
            <Time>2022-09-18T14:28:37.000Z</Time>
            <Position>
              <LatitudeDegrees>49.30746532045304775238037109375</LatitudeDegrees>
              <LongitudeDegrees>19.96075809001922607421875</LongitudeDegrees>
            </Position>
            <AltitudeMeters>803.4000244140625</AltitudeMeters>
            <DistanceMeters>NAN</DistanceMeters>
          </Trackpoint>
          <Trackpoint>
            <Time>2022-09-18T14:28:42.000Z</Time>
            <Position>
              <LatitudeDegrees>49.30736624635756015777587890625</LatitudeDegrees>
              <LongitudeDegrees>19.9606536515057086944580078125</LongitudeDegrees>
            </Position>
            <AltitudeMeters>803.79998779296875</AltitudeMeters>
            <DistanceMeters>NAN</DistanceMeters>
          </Trackpoint>
          <Trackpoint>
            <Time>2022-09-18T14:28:49.000Z</Time>
            <Position>
              <LatitudeDegrees>49.3072496540844440460205078125</LatitudeDegrees>
              <LongitudeDegrees>19.9604937247931957244873046875</LongitudeDegrees>
            </Position>
            <AltitudeMeters>804.4000244140625</AltitudeMeters>
            <DistanceMeters>NAN</DistanceMeters>
          </Trackpoint>
          <Trackpoint>
            <Time>2022-09-18T14:28:50.000Z</Time>
            <Position>
              <LatitudeDegrees>49.30720346979796886444091796875</LatitudeDegrees>
              <LongitudeDegrees>19.96045508421957492828369140625</LongitudeDegrees>
            </Position>
            <AltitudeMeters>804.4000244140625</AltitudeMeters>
            <DistanceMeters>NAN</DistanceMeters>
          </Trackpoint>
          <Trackpoint>
            <Time>2022-09-18T14:28:54.000Z</Time>
            <Position>
              <LatitudeDegrees>49.30712811648845672607421875</LatitudeDegrees>
              <LongitudeDegrees>19.96036581695079803466796875</LongitudeDegrees>
            </Position>
            <AltitudeMeters>804.5999755859375</AltitudeMeters>
            <DistanceMeters>NAN</DistanceMeters>
          </Trackpoint>
          <Trackpoint>
            <Time>2022-09-18T14:28:55.000Z</Time>
            <Position>
              <LatitudeDegrees>49.3071098439395427703857421875</LatitudeDegrees>
              <LongitudeDegrees>19.96034611947834491729736328125</LongitudeDegrees>
            </Position>
            <AltitudeMeters>804.5999755859375</AltitudeMeters>
            <DistanceMeters>NAN</DistanceMeters>
          </Trackpoint>
          <Trackpoint>
            <Time>2022-09-18T14:29:02.000Z</Time>
            <Position>
              <LatitudeDegrees>49.30701185949146747589111328125</LatitudeDegrees>
              <LongitudeDegrees>19.96021695435047149658203125</LongitudeDegrees>
            </Position>
            <AltitudeMeters>805</AltitudeMeters>
            <DistanceMeters>NAN</DistanceMeters>
          </Trackpoint>
          <Trackpoint>
            <Time>2022-09-18T14:29:09.000Z</Time>
            <Position>
              <LatitudeDegrees>49.3069086782634258270263671875</LatitudeDegrees>
              <LongitudeDegrees>19.960095584392547607421875</LongitudeDegrees>
            </Position>
            <AltitudeMeters>805.4000244140625</AltitudeMeters>
            <DistanceMeters>NAN</DistanceMeters>
          </Trackpoint>
          <Trackpoint>
            <Time>2022-09-18T14:29:11.000Z</Time>
            <Position>
              <LatitudeDegrees>49.30688495747745037078857421875</LatitudeDegrees>
              <LongitudeDegrees>19.9600618891417980194091796875</LongitudeDegrees>
            </Position>
            <AltitudeMeters>805.4000244140625</AltitudeMeters>
            <DistanceMeters>NAN</DistanceMeters>
          </Trackpoint>
          <Trackpoint>
            <Time>2022-09-18T14:29:18.000Z</Time>
            <Position>
              <LatitudeDegrees>49.30679728277027606964111328125</LatitudeDegrees>
              <LongitudeDegrees>19.95988461188971996307373046875</LongitudeDegrees>
            </Position>
            <AltitudeMeters>805.79998779296875</AltitudeMeters>
            <DistanceMeters>NAN</DistanceMeters>
          </Trackpoint>
          <Trackpoint>
            <Time>2022-09-18T14:29:24.000Z</Time>
            <Position>
              <LatitudeDegrees>49.3067001365125179290771484375</LatitudeDegrees>
              <LongitudeDegrees>19.95977028273046016693115234375</LongitudeDegrees>
            </Position>
            <AltitudeMeters>806.5999755859375</AltitudeMeters>
            <DistanceMeters>NAN</DistanceMeters>
          </Trackpoint>
          <Trackpoint>
            <Time>2022-09-18T14:29:27.000Z</Time>
            <Position>
              <LatitudeDegrees>49.306663759052753448486328125</LatitudeDegrees>
              <LongitudeDegrees>19.9597142077982425689697265625</LongitudeDegrees>
            </Position>
            <AltitudeMeters>806.79998779296875</AltitudeMeters>
            <DistanceMeters>NAN</DistanceMeters>
          </Trackpoint>
          <Trackpoint>
            <Time>2022-09-18T14:29:36.000Z</Time>
            <Position>
              <LatitudeDegrees>49.3065395392477512359619140625</LatitudeDegrees>
              <LongitudeDegrees>19.95954363606870174407958984375</LongitudeDegrees>
            </Position>
            <AltitudeMeters>807.4000244140625</AltitudeMeters>
            <DistanceMeters>NAN</DistanceMeters>
          </Trackpoint>
          <Trackpoint>
            <Time>2022-09-18T14:29:40.000Z</Time>
            <Position>
              <LatitudeDegrees>49.3064681254327297210693359375</LatitudeDegrees>
              <LongitudeDegrees>19.95944439433515071868896484375</LongitudeDegrees>
            </Position>
            <AltitudeMeters>807.5999755859375</AltitudeMeters>
            <DistanceMeters>NAN</DistanceMeters>
          </Trackpoint>
          <Trackpoint>
            <Time>2022-09-18T14:29:43.000Z</Time>
            <Position>
              <LatitudeDegrees>49.30641976185142993927001953125</LatitudeDegrees>
              <LongitudeDegrees>19.95938203297555446624755859375</LongitudeDegrees>
            </Position>
            <AltitudeMeters>807.79998779296875</AltitudeMeters>
            <DistanceMeters>NAN</DistanceMeters>
          </Trackpoint>
          <Trackpoint>
            <Time>2022-09-18T14:29:47.000Z</Time>
            <Position>
              <LatitudeDegrees>49.306392855942249298095703125</LatitudeDegrees>
              <LongitudeDegrees>19.95933576487004756927490234375</LongitudeDegrees>
            </Position>
            <AltitudeMeters>808.20001220703125</AltitudeMeters>
            <DistanceMeters>NAN</DistanceMeters>
          </Trackpoint>
          <Trackpoint>
            <Time>2022-09-18T14:29:50.000Z</Time>
            <Position>
              <LatitudeDegrees>49.3063571490347385406494140625</LatitudeDegrees>
              <LongitudeDegrees>19.959287233650684356689453125</LongitudeDegrees>
            </Position>
            <AltitudeMeters>808.4000244140625</AltitudeMeters>
            <DistanceMeters>NAN</DistanceMeters>
          </Trackpoint>
          <Trackpoint>
            <Time>2022-09-18T14:29:52.000Z</Time>
            <Position>
              <LatitudeDegrees>49.3063484318554401397705078125</LatitudeDegrees>
              <LongitudeDegrees>19.95927491225302219390869140625</LongitudeDegrees>
            </Position>
            <AltitudeMeters>808.4000244140625</AltitudeMeters>
            <DistanceMeters>NAN</DistanceMeters>
          </Trackpoint>
          <Trackpoint>
            <Time>2022-09-18T14:29:54.000Z</Time>
            <Position>
              <LatitudeDegrees>49.30632990784943103790283203125</LatitudeDegrees>
              <LongitudeDegrees>19.9592713080346584320068359375</LongitudeDegrees>
            </Position>
            <AltitudeMeters>808.4000244140625</AltitudeMeters>
            <DistanceMeters>NAN</DistanceMeters>
          </Trackpoint>
          <Trackpoint>
            <Time>2022-09-18T14:29:55.000Z</Time>
            <Position>
              <LatitudeDegrees>49.30632990784943103790283203125</LatitudeDegrees>
              <LongitudeDegrees>19.9592713080346584320068359375</LongitudeDegrees>
            </Position>
            <AltitudeMeters>808.4000244140625</AltitudeMeters>
            <DistanceMeters>NAN</DistanceMeters>
          </Trackpoint>
          <Trackpoint>
            <Time>2022-09-18T14:29:56.000Z</Time>
            <Position>
              <LatitudeDegrees>49.30630543269217014312744140625</LatitudeDegrees>
              <LongitudeDegrees>19.95925077237188816070556640625</LongitudeDegrees>
            </Position>
            <AltitudeMeters>808.4000244140625</AltitudeMeters>
            <DistanceMeters>NAN</DistanceMeters>
          </Trackpoint>
          <Trackpoint>
            <Time>2022-09-18T14:29:59.000Z</Time>
            <Position>
              <LatitudeDegrees>49.3062572367489337921142578125</LatitudeDegrees>
              <LongitudeDegrees>19.95920844376087188720703125</LongitudeDegrees>
            </Position>
            <AltitudeMeters>808.5999755859375</AltitudeMeters>
            <DistanceMeters>NAN</DistanceMeters>
          </Trackpoint>
          <Trackpoint>
            <Time>2022-09-18T14:30:03.000Z</Time>
            <Position>
              <LatitudeDegrees>49.30618020705878734588623046875</LatitudeDegrees>
              <LongitudeDegrees>19.9590956233441829681396484375</LongitudeDegrees>
            </Position>
            <AltitudeMeters>808.5999755859375</AltitudeMeters>
            <DistanceMeters>NAN</DistanceMeters>
          </Trackpoint>
          <Trackpoint>
            <Time>2022-09-18T14:30:05.000Z</Time>
            <Position>
              <LatitudeDegrees>49.30613980628550052642822265625</LatitudeDegrees>
              <LongitudeDegrees>19.95904357172548770904541015625</LongitudeDegrees>
            </Position>
            <AltitudeMeters>808.79998779296875</AltitudeMeters>
            <DistanceMeters>NAN</DistanceMeters>
          </Trackpoint>
          <Trackpoint>
            <Time>2022-09-18T14:30:07.000Z</Time>
            <Position>
              <LatitudeDegrees>49.306122958660125732421875</LatitudeDegrees>
              <LongitudeDegrees>19.9590232037007808685302734375</LongitudeDegrees>
            </Position>
            <AltitudeMeters>809</AltitudeMeters>
            <DistanceMeters>NAN</DistanceMeters>
          </Trackpoint>
          <Trackpoint>
            <Time>2022-09-18T14:30:10.000Z</Time>
            <Position>
              <LatitudeDegrees>49.3060895986855030059814453125</LatitudeDegrees>
              <LongitudeDegrees>19.95896930806338787078857421875</LongitudeDegrees>
            </Position>
            <AltitudeMeters>809.4000244140625</AltitudeMeters>
            <DistanceMeters>NAN</DistanceMeters>
          </Trackpoint>
          <Trackpoint>
            <Time>2022-09-18T14:30:11.000Z</Time>
            <Position>
              <LatitudeDegrees>49.306062944233417510986328125</LatitudeDegrees>
              <LongitudeDegrees>19.95893695391714572906494140625</LongitudeDegrees>
            </Position>
            <AltitudeMeters>809.4000244140625</AltitudeMeters>
            <DistanceMeters>NAN</DistanceMeters>
          </Trackpoint>
          <Trackpoint>
            <Time>2022-09-18T14:30:13.000Z</Time>
            <Position>
              <LatitudeDegrees>49.3060359545052051544189453125</LatitudeDegrees>
              <LongitudeDegrees>19.95890401303768157958984375</LongitudeDegrees>
            </Position>
            <AltitudeMeters>809.4000244140625</AltitudeMeters>
            <DistanceMeters>NAN</DistanceMeters>
          </Trackpoint>
          <Trackpoint>
            <Time>2022-09-18T14:30:17.000Z</Time>
            <Position>
              <LatitudeDegrees>49.30596361868083477020263671875</LatitudeDegrees>
              <LongitudeDegrees>19.9588404782116413116455078125</LongitudeDegrees>
            </Position>
            <AltitudeMeters>809.5999755859375</AltitudeMeters>
            <DistanceMeters>NAN</DistanceMeters>
          </Trackpoint>
          <Trackpoint>
            <Time>2022-09-18T14:30:22.000Z</Time>
            <Position>
              <LatitudeDegrees>49.3058609403669834136962890625</LatitudeDegrees>
              <LongitudeDegrees>19.95879831723868846893310546875</LongitudeDegrees>
            </Position>
            <AltitudeMeters>810</AltitudeMeters>
            <DistanceMeters>NAN</DistanceMeters>
          </Trackpoint>
          <Trackpoint>
            <Time>2022-09-18T14:30:31.000Z</Time>
            <Position>
              <LatitudeDegrees>49.30564007721841335296630859375</LatitudeDegrees>
              <LongitudeDegrees>19.95873796753585338592529296875</LongitudeDegrees>
            </Position>
            <AltitudeMeters>810.20001220703125</AltitudeMeters>
            <DistanceMeters>NAN</DistanceMeters>
          </Trackpoint>
          <Trackpoint>
            <Time>2022-09-18T14:30:34.000Z</Time>
            <Position>
              <LatitudeDegrees>49.3055739440023899078369140625</LatitudeDegrees>
              <LongitudeDegrees>19.9587238021194934844970703125</LongitudeDegrees>
            </Position>
            <AltitudeMeters>810.5999755859375</AltitudeMeters>
            <DistanceMeters>NAN</DistanceMeters>
          </Trackpoint>
          <Trackpoint>
            <Time>2022-09-18T14:30:36.000Z</Time>
            <Position>
              <LatitudeDegrees>49.3055451102554798126220703125</LatitudeDegrees>
              <LongitudeDegrees>19.958706200122833251953125</LongitudeDegrees>
            </Position>
            <AltitudeMeters>811</AltitudeMeters>
            <DistanceMeters>NAN</DistanceMeters>
          </Trackpoint>
          <Trackpoint>
            <Time>2022-09-18T14:30:37.000Z</Time>
            <Position>
              <LatitudeDegrees>49.3055296875536441802978515625</LatitudeDegrees>
              <LongitudeDegrees>19.9587036855518817901611328125</LongitudeDegrees>
            </Position>
            <AltitudeMeters>811</AltitudeMeters>
            <DistanceMeters>NAN</DistanceMeters>
          </Trackpoint>
          <Trackpoint>
            <Time>2022-09-18T14:30:40.000Z</Time>
            <Position>
              <LatitudeDegrees>49.305484928190708160400390625</LatitudeDegrees>
              <LongitudeDegrees>19.95868742465972900390625</LongitudeDegrees>
            </Position>
            <AltitudeMeters>811.20001220703125</AltitudeMeters>
            <DistanceMeters>NAN</DistanceMeters>
          </Trackpoint>
          <Trackpoint>
            <Time>2022-09-18T14:30:41.000Z</Time>
            <Position>
              <LatitudeDegrees>49.3054713495075702667236328125</LatitudeDegrees>
              <LongitudeDegrees>19.95868767611682415008544921875</LongitudeDegrees>
            </Position>
            <AltitudeMeters>811.20001220703125</AltitudeMeters>
            <DistanceMeters>NAN</DistanceMeters>
          </Trackpoint>
          <Trackpoint>
            <Time>2022-09-18T14:30:45.000Z</Time>
            <Position>
              <LatitudeDegrees>49.30541829206049442291259765625</LatitudeDegrees>
              <LongitudeDegrees>19.95867644436657428741455078125</LongitudeDegrees>
            </Position>
            <AltitudeMeters>811.5999755859375</AltitudeMeters>
            <DistanceMeters>NAN</DistanceMeters>
          </Trackpoint>
          <Trackpoint>
            <Time>2022-09-18T14:30:47.000Z</Time>
            <Position>
              <LatitudeDegrees>49.30540353991091251373291015625</LatitudeDegrees>
              <LongitudeDegrees>19.95867610909044742584228515625</LongitudeDegrees>
            </Position>
            <AltitudeMeters>811.79998779296875</AltitudeMeters>
            <DistanceMeters>NAN</DistanceMeters>
          </Trackpoint>
          <Trackpoint>
            <Time>2022-09-18T14:30:54.000Z</Time>
            <Position>
              <LatitudeDegrees>49.30528015829622745513916015625</LatitudeDegrees>
              <LongitudeDegrees>19.95864258147776126861572265625</LongitudeDegrees>
            </Position>
            <AltitudeMeters>812.4000244140625</AltitudeMeters>
            <DistanceMeters>NAN</DistanceMeters>
          </Trackpoint>
          <Trackpoint>
            <Time>2022-09-18T14:31:01.000Z</Time>
            <Position>
              <LatitudeDegrees>49.30519097484648227691650390625</LatitudeDegrees>
              <LongitudeDegrees>19.958611987531185150146484375</LongitudeDegrees>
            </Position>
            <AltitudeMeters>812.4000244140625</AltitudeMeters>
            <DistanceMeters>NAN</DistanceMeters>
          </Trackpoint>
          <Trackpoint>
            <Time>2022-09-18T14:31:06.000Z</Time>
            <Position>
              <LatitudeDegrees>49.30514152161777019500732421875</LatitudeDegrees>
              <LongitudeDegrees>19.95859815739095211029052734375</LongitudeDegrees>
            </Position>
            <AltitudeMeters>812.4000244140625</AltitudeMeters>
            <DistanceMeters>NAN</DistanceMeters>
          </Trackpoint>
          <Trackpoint>
            <Time>2022-09-18T14:31:11.000Z</Time>
            <Position>
              <LatitudeDegrees>49.30508829653263092041015625</LatitudeDegrees>
              <LongitudeDegrees>19.9585511349141597747802734375</LongitudeDegrees>
            </Position>
            <AltitudeMeters>812.5999755859375</AltitudeMeters>
            <DistanceMeters>NAN</DistanceMeters>
          </Trackpoint>
          <Trackpoint>
            <Time>2022-09-18T14:31:14.000Z</Time>
            <Position>
              <LatitudeDegrees>49.305052421987056732177734375</LatitudeDegrees>
              <LongitudeDegrees>19.9585534818470478057861328125</LongitudeDegrees>
            </Position>
            <AltitudeMeters>812.79998779296875</AltitudeMeters>
            <DistanceMeters>NAN</DistanceMeters>
          </Trackpoint>
          <Trackpoint>
            <Time>2022-09-18T14:31:19.000Z</Time>
            <Position>
              <LatitudeDegrees>49.30497908033430576324462890625</LatitudeDegrees>
              <LongitudeDegrees>19.95852506719529628753662109375</LongitudeDegrees>
            </Position>
            <AltitudeMeters>812.79998779296875</AltitudeMeters>
            <DistanceMeters>NAN</DistanceMeters>
          </Trackpoint>
          <Trackpoint>
            <Time>2022-09-18T14:31:21.000Z</Time>
            <Position>
              <LatitudeDegrees>49.3049737997353076934814453125</LatitudeDegrees>
              <LongitudeDegrees>19.95848701335489749908447265625</LongitudeDegrees>
            </Position>
            <AltitudeMeters>812.79998779296875</AltitudeMeters>
            <DistanceMeters>NAN</DistanceMeters>
          </Trackpoint>
          <Trackpoint>
            <Time>2022-09-18T14:31:26.000Z</Time>
            <Position>
              <LatitudeDegrees>49.30497790686786174774169921875</LatitudeDegrees>
              <LongitudeDegrees>19.958481229841709136962890625</LongitudeDegrees>
            </Position>
            <AltitudeMeters>812.79998779296875</AltitudeMeters>
            <DistanceMeters>NAN</DistanceMeters>
          </Trackpoint>
          <Trackpoint>
            <Time>2022-09-18T14:31:33.000Z</Time>
            <Position>
              <LatitudeDegrees>49.30497790686786174774169921875</LatitudeDegrees>
              <LongitudeDegrees>19.958481229841709136962890625</LongitudeDegrees>
            </Position>
            <AltitudeMeters>812.5999755859375</AltitudeMeters>
            <DistanceMeters>NAN</DistanceMeters>
          </Trackpoint>
          <Trackpoint>
            <Time>2022-09-18T14:31:35.000Z</Time>
            <Position>
              <LatitudeDegrees>49.30497790686786174774169921875</LatitudeDegrees>
              <LongitudeDegrees>19.958481229841709136962890625</LongitudeDegrees>
            </Position>
            <AltitudeMeters>812.5999755859375</AltitudeMeters>
            <DistanceMeters>NAN</DistanceMeters>
          </Trackpoint>
          <Trackpoint>
            <Time>2022-09-18T14:31:40.000Z</Time>
            <Position>
              <LatitudeDegrees>49.30497790686786174774169921875</LatitudeDegrees>
              <LongitudeDegrees>19.958481229841709136962890625</LongitudeDegrees>
            </Position>
            <AltitudeMeters>812.4000244140625</AltitudeMeters>
            <DistanceMeters>NAN</DistanceMeters>
          </Trackpoint>
          <Trackpoint>
            <Time>2022-09-18T14:31:52.000Z</Time>
            <Position>
              <LatitudeDegrees>49.30497790686786174774169921875</LatitudeDegrees>
              <LongitudeDegrees>19.958481229841709136962890625</LongitudeDegrees>
            </Position>
            <AltitudeMeters>812.5999755859375</AltitudeMeters>
            <DistanceMeters>NAN</DistanceMeters>
          </Trackpoint>
          <Trackpoint>
            <Time>2022-09-18T14:31:55.000Z</Time>
            <Position>
              <LatitudeDegrees>49.30497790686786174774169921875</LatitudeDegrees>
              <LongitudeDegrees>19.958481229841709136962890625</LongitudeDegrees>
            </Position>
            <AltitudeMeters>812.5999755859375</AltitudeMeters>
            <DistanceMeters>NAN</DistanceMeters>
          </Trackpoint>
          <Trackpoint>
            <Time>2022-09-18T14:31:58.000Z</Time>
            <Position>
              <LatitudeDegrees>49.30497790686786174774169921875</LatitudeDegrees>
              <LongitudeDegrees>19.958481229841709136962890625</LongitudeDegrees>
            </Position>
            <AltitudeMeters>812.5999755859375</AltitudeMeters>
            <DistanceMeters>NAN</DistanceMeters>
          </Trackpoint>
          <Trackpoint>
            <Time>2022-09-18T14:32:00.000Z</Time>
            <Position>
              <LatitudeDegrees>49.30497790686786174774169921875</LatitudeDegrees>
              <LongitudeDegrees>19.958481229841709136962890625</LongitudeDegrees>
            </Position>
            <AltitudeMeters>812.4000244140625</AltitudeMeters>
            <DistanceMeters>NAN</DistanceMeters>
          </Trackpoint>
          <Trackpoint>
            <Time>2022-09-18T14:32:01.000Z</Time>
            <Position>
              <LatitudeDegrees>49.30497790686786174774169921875</LatitudeDegrees>
              <LongitudeDegrees>19.958481229841709136962890625</LongitudeDegrees>
            </Position>
            <AltitudeMeters>812.4000244140625</AltitudeMeters>
            <DistanceMeters>NAN</DistanceMeters>
          </Trackpoint>
          <Trackpoint>
            <Time>2022-09-18T14:32:02.000Z</Time>
            <Position>
              <LatitudeDegrees>49.30497790686786174774169921875</LatitudeDegrees>
              <LongitudeDegrees>19.958481229841709136962890625</LongitudeDegrees>
            </Position>
            <AltitudeMeters>812.4000244140625</AltitudeMeters>
            <DistanceMeters>NAN</DistanceMeters>
          </Trackpoint>
          <Trackpoint>
            <Time>2022-09-18T14:32:03.000Z</Time>
            <Position>
              <LatitudeDegrees>49.30497790686786174774169921875</LatitudeDegrees>
              <LongitudeDegrees>19.958481229841709136962890625</LongitudeDegrees>
            </Position>
            <AltitudeMeters>812.5999755859375</AltitudeMeters>
            <DistanceMeters>NAN</DistanceMeters>
          </Trackpoint>
          <Trackpoint>
            <Time>2022-09-18T14:32:05.000Z</Time>
            <Position>
              <LatitudeDegrees>49.30497790686786174774169921875</LatitudeDegrees>
              <LongitudeDegrees>19.958481229841709136962890625</LongitudeDegrees>
            </Position>
            <AltitudeMeters>812.5999755859375</AltitudeMeters>
            <DistanceMeters>NAN</DistanceMeters>
          </Trackpoint>
          <Trackpoint>
            <Time>2022-09-18T14:32:10.000Z</Time>
            <Position>
              <LatitudeDegrees>49.30497790686786174774169921875</LatitudeDegrees>
              <LongitudeDegrees>19.958481229841709136962890625</LongitudeDegrees>
            </Position>
            <AltitudeMeters>812.4000244140625</AltitudeMeters>
            <DistanceMeters>NAN</DistanceMeters>
          </Trackpoint>
          <Trackpoint>
            <Time>2022-09-18T14:32:22.000Z</Time>
            <Position>
              <LatitudeDegrees>49.30497790686786174774169921875</LatitudeDegrees>
              <LongitudeDegrees>19.958481229841709136962890625</LongitudeDegrees>
            </Position>
            <AltitudeMeters>812.79998779296875</AltitudeMeters>
            <DistanceMeters>NAN</DistanceMeters>
          </Trackpoint>
          <Trackpoint>
            <Time>2022-09-18T14:32:29.000Z</Time>
            <Position>
              <LatitudeDegrees>49.30497790686786174774169921875</LatitudeDegrees>
              <LongitudeDegrees>19.958481229841709136962890625</LongitudeDegrees>
            </Position>
            <AltitudeMeters>812.79998779296875</AltitudeMeters>
            <DistanceMeters>NAN</DistanceMeters>
          </Trackpoint>
          <Trackpoint>
            <Time>2022-09-18T14:32:33.000Z</Time>
            <Position>
              <LatitudeDegrees>49.30497790686786174774169921875</LatitudeDegrees>
              <LongitudeDegrees>19.958481229841709136962890625</LongitudeDegrees>
            </Position>
            <AltitudeMeters>812.79998779296875</AltitudeMeters>
            <DistanceMeters>NAN</DistanceMeters>
          </Trackpoint>
          <Trackpoint>
            <Time>2022-09-18T14:32:52.000Z</Time>
            <Position>
              <LatitudeDegrees>49.30497790686786174774169921875</LatitudeDegrees>
              <LongitudeDegrees>19.958481229841709136962890625</LongitudeDegrees>
            </Position>
            <AltitudeMeters>812.79998779296875</AltitudeMeters>
            <DistanceMeters>NAN</DistanceMeters>
          </Trackpoint>
          <Trackpoint>
            <Time>2022-09-18T14:32:59.000Z</Time>
            <Position>
              <LatitudeDegrees>49.30497790686786174774169921875</LatitudeDegrees>
              <LongitudeDegrees>19.958481229841709136962890625</LongitudeDegrees>
            </Position>
            <AltitudeMeters>812.79998779296875</AltitudeMeters>
            <DistanceMeters>NAN</DistanceMeters>
          </Trackpoint>
          <Trackpoint>
            <Time>2022-09-18T14:33:02.000Z</Time>
            <Position>
              <LatitudeDegrees>49.30499064736068248748779296875</LatitudeDegrees>
              <LongitudeDegrees>19.9584683217108249664306640625</LongitudeDegrees>
            </Position>
            <AltitudeMeters>812.79998779296875</AltitudeMeters>
            <DistanceMeters>NAN</DistanceMeters>
          </Trackpoint>
          <Trackpoint>
            <Time>2022-09-18T14:33:04.000Z</Time>
            <Position>
              <LatitudeDegrees>49.30500891990959644317626953125</LatitudeDegrees>
              <LongitudeDegrees>19.95848332531750202178955078125</LongitudeDegrees>
            </Position>
            <AltitudeMeters>812.79998779296875</AltitudeMeters>
            <DistanceMeters>NAN</DistanceMeters>
          </Trackpoint>
          <Trackpoint>
            <Time>2022-09-18T14:33:06.000Z</Time>
            <Position>
              <LatitudeDegrees>49.30499148555099964141845703125</LatitudeDegrees>
              <LongitudeDegrees>19.9585192836821079254150390625</LongitudeDegrees>
            </Position>
            <AltitudeMeters>812.79998779296875</AltitudeMeters>
            <DistanceMeters>NAN</DistanceMeters>
          </Trackpoint>
          <Trackpoint>
            <Time>2022-09-18T14:33:08.000Z</Time>
            <Position>
              <LatitudeDegrees>49.30496759712696075439453125</LatitudeDegrees>
              <LongitudeDegrees>19.9585353769361972808837890625</LongitudeDegrees>
            </Position>
            <AltitudeMeters>813</AltitudeMeters>
            <DistanceMeters>NAN</DistanceMeters>
          </Trackpoint>
          <Trackpoint>
            <Time>2022-09-18T14:33:09.000Z</Time>
            <Position>
              <LatitudeDegrees>49.304953515529632568359375</LatitudeDegrees>
              <LongitudeDegrees>19.95853981934487819671630859375</LongitudeDegrees>
            </Position>
            <AltitudeMeters>813</AltitudeMeters>
            <DistanceMeters>NAN</DistanceMeters>
          </Trackpoint>
          <Trackpoint>
            <Time>2022-09-18T14:33:13.000Z</Time>
            <Position>
              <LatitudeDegrees>49.3048926629126071929931640625</LatitudeDegrees>
              <LongitudeDegrees>19.9585330300033092498779296875</LongitudeDegrees>
            </Position>
            <AltitudeMeters>813.20001220703125</AltitudeMeters>
            <DistanceMeters>NAN</DistanceMeters>
          </Trackpoint>
          <Trackpoint>
            <Time>2022-09-18T14:33:17.000Z</Time>
            <Position>
              <LatitudeDegrees>49.3047518469393253326416015625</LatitudeDegrees>
              <LongitudeDegrees>19.95850528590381145477294921875</LongitudeDegrees>
            </Position>
            <AltitudeMeters>813.79998779296875</AltitudeMeters>
            <DistanceMeters>NAN</DistanceMeters>
          </Trackpoint>
          <Trackpoint>
            <Time>2022-09-18T14:33:19.000Z</Time>
            <Position>
              <LatitudeDegrees>49.304714463651180267333984375</LatitudeDegrees>
              <LongitudeDegrees>19.95848852209746837615966796875</LongitudeDegrees>
            </Position>
            <AltitudeMeters>813.79998779296875</AltitudeMeters>
            <DistanceMeters>NAN</DistanceMeters>
          </Trackpoint>
          <Trackpoint>
            <Time>2022-09-18T14:33:24.000Z</Time>
            <Position>
              <LatitudeDegrees>49.3045875616371631622314453125</LatitudeDegrees>
              <LongitudeDegrees>19.9584656395018100738525390625</LongitudeDegrees>
            </Position>
            <AltitudeMeters>814</AltitudeMeters>
            <DistanceMeters>NAN</DistanceMeters>
          </Trackpoint>
          <Trackpoint>
            <Time>2022-09-18T14:33:25.000Z</Time>
            <Position>
              <LatitudeDegrees>49.30456568486988544464111328125</LatitudeDegrees>
              <LongitudeDegrees>19.95846203528344631195068359375</LongitudeDegrees>
            </Position>
            <AltitudeMeters>814</AltitudeMeters>
            <DistanceMeters>NAN</DistanceMeters>
          </Trackpoint>
          <Trackpoint>
            <Time>2022-09-18T14:33:33.000Z</Time>
            <Position>
              <LatitudeDegrees>49.304409362375736236572265625</LatitudeDegrees>
              <LongitudeDegrees>19.958415515720844268798828125</LongitudeDegrees>
            </Position>
            <AltitudeMeters>814.79998779296875</AltitudeMeters>
            <DistanceMeters>NAN</DistanceMeters>
          </Trackpoint>
          <Trackpoint>
            <Time>2022-09-18T14:33:34.000Z</Time>
            <Position>
              <LatitudeDegrees>49.30438396520912647247314453125</LatitudeDegrees>
              <LongitudeDegrees>19.958406127989292144775390625</LongitudeDegrees>
            </Position>
            <AltitudeMeters>814.79998779296875</AltitudeMeters>
            <DistanceMeters>NAN</DistanceMeters>
          </Trackpoint>
          <Trackpoint>
            <Time>2022-09-18T14:33:39.000Z</Time>
            <Position>
              <LatitudeDegrees>49.30428891442716121673583984375</LatitudeDegrees>
              <LongitudeDegrees>19.95837167836725711822509765625</LongitudeDegrees>
            </Position>
            <AltitudeMeters>815.20001220703125</AltitudeMeters>
            <DistanceMeters>NAN</DistanceMeters>
          </Trackpoint>
          <Trackpoint>
            <Time>2022-09-18T14:33:46.000Z</Time>
            <Position>
              <LatitudeDegrees>49.30414256639778614044189453125</LatitudeDegrees>
              <LongitudeDegrees>19.95832909829914569854736328125</LongitudeDegrees>
            </Position>
            <AltitudeMeters>815.79998779296875</AltitudeMeters>
            <DistanceMeters>NAN</DistanceMeters>
          </Trackpoint>
          <Trackpoint>
            <Time>2022-09-18T14:33:47.000Z</Time>
            <Position>
              <LatitudeDegrees>49.304128400981426239013671875</LatitudeDegrees>
              <LongitudeDegrees>19.9583224765956401824951171875</LongitudeDegrees>
            </Position>
            <AltitudeMeters>815.79998779296875</AltitudeMeters>
            <DistanceMeters>NAN</DistanceMeters>
          </Trackpoint>
          <Trackpoint>
            <Time>2022-09-18T14:33:51.000Z</Time>
            <Position>
              <LatitudeDegrees>49.30406637489795684814453125</LatitudeDegrees>
              <LongitudeDegrees>19.9582944810390472412109375</LongitudeDegrees>
            </Position>
            <AltitudeMeters>816</AltitudeMeters>
            <DistanceMeters>NAN</DistanceMeters>
          </Trackpoint>
          <Trackpoint>
            <Time>2022-09-18T14:33:54.000Z</Time>
            <Position>
              <LatitudeDegrees>49.3040276505053043365478515625</LatitudeDegrees>
              <LongitudeDegrees>19.95827679522335529327392578125</LongitudeDegrees>
            </Position>
            <AltitudeMeters>816.4000244140625</AltitudeMeters>
            <DistanceMeters>NAN</DistanceMeters>
          </Trackpoint>
          <Trackpoint>
            <Time>2022-09-18T14:34:00.000Z</Time>
            <Position>
              <LatitudeDegrees>49.30391994304955005645751953125</LatitudeDegrees>
              <LongitudeDegrees>19.95824947021901607513427734375</LongitudeDegrees>
            </Position>
            <AltitudeMeters>817</AltitudeMeters>
            <DistanceMeters>NAN</DistanceMeters>
          </Trackpoint>
          <Trackpoint>
            <Time>2022-09-18T14:34:02.000Z</Time>
            <Position>
              <LatitudeDegrees>49.3038858287036418914794921875</LatitudeDegrees>
              <LongitudeDegrees>19.9582453630864620208740234375</LongitudeDegrees>
            </Position>
            <AltitudeMeters>817</AltitudeMeters>
            <DistanceMeters>NAN</DistanceMeters>
          </Trackpoint>
          <Trackpoint>
            <Time>2022-09-18T14:34:08.000Z</Time>
            <Position>
              <LatitudeDegrees>49.3037714995443820953369140625</LatitudeDegrees>
              <LongitudeDegrees>19.95821795426309108734130859375</LongitudeDegrees>
            </Position>
            <AltitudeMeters>817</AltitudeMeters>
            <DistanceMeters>NAN</DistanceMeters>
          </Trackpoint>
          <Trackpoint>
            <Time>2022-09-18T14:34:13.000Z</Time>
            <Position>
              <LatitudeDegrees>49.30368742905557155609130859375</LatitudeDegrees>
              <LongitudeDegrees>19.95817369781434535980224609375</LongitudeDegrees>
            </Position>
            <AltitudeMeters>817.4000244140625</AltitudeMeters>
            <DistanceMeters>NAN</DistanceMeters>
          </Trackpoint>
          <Trackpoint>
            <Time>2022-09-18T14:34:17.000Z</Time>
            <Position>
              <LatitudeDegrees>49.303610734641551971435546875</LatitudeDegrees>
              <LongitudeDegrees>19.95815307833254337310791015625</LongitudeDegrees>
            </Position>
            <AltitudeMeters>817.5999755859375</AltitudeMeters>
            <DistanceMeters>NAN</DistanceMeters>
          </Trackpoint>
          <Trackpoint>
            <Time>2022-09-18T14:34:21.000Z</Time>
            <Position>
              <LatitudeDegrees>49.3035223893821239471435546875</LatitudeDegrees>
              <LongitudeDegrees>19.958139248192310333251953125</LongitudeDegrees>
            </Position>
            <AltitudeMeters>818</AltitudeMeters>
            <DistanceMeters>NAN</DistanceMeters>
          </Trackpoint>
          <Trackpoint>
            <Time>2022-09-18T14:34:24.000Z</Time>
            <Position>
              <LatitudeDegrees>49.30347637273371219635009765625</LatitudeDegrees>
              <LongitudeDegrees>19.95814335532486438751220703125</LongitudeDegrees>
            </Position>
            <AltitudeMeters>818.20001220703125</AltitudeMeters>
            <DistanceMeters>NAN</DistanceMeters>
          </Trackpoint>
          <Trackpoint>
            <Time>2022-09-18T14:34:25.000Z</Time>
            <Position>
              <LatitudeDegrees>49.30345692671835422515869140625</LatitudeDegrees>
              <LongitudeDegrees>19.958140589296817779541015625</LongitudeDegrees>
            </Position>
            <AltitudeMeters>818.20001220703125</AltitudeMeters>
            <DistanceMeters>NAN</DistanceMeters>
          </Trackpoint>
          <Trackpoint>
            <Time>2022-09-18T14:34:36.000Z</Time>
            <Position>
              <LatitudeDegrees>49.30325441993772983551025390625</LatitudeDegrees>
              <LongitudeDegrees>19.95811351574957370758056640625</LongitudeDegrees>
            </Position>
            <AltitudeMeters>818.5999755859375</AltitudeMeters>
            <DistanceMeters>NAN</DistanceMeters>
          </Trackpoint>
          <Trackpoint>
            <Time>2022-09-18T14:34:42.000Z</Time>
            <Position>
              <LatitudeDegrees>49.303111843764781951904296875</LatitudeDegrees>
              <LongitudeDegrees>19.95807261206209659576416015625</LongitudeDegrees>
            </Position>
            <AltitudeMeters>819</AltitudeMeters>
            <DistanceMeters>NAN</DistanceMeters>
          </Trackpoint>
          <Trackpoint>
            <Time>2022-09-18T14:34:44.000Z</Time>
            <Position>
              <LatitudeDegrees>49.30308946408331394195556640625</LatitudeDegrees>
              <LongitudeDegrees>19.95805769227445125579833984375</LongitudeDegrees>
            </Position>
            <AltitudeMeters>819.20001220703125</AltitudeMeters>
            <DistanceMeters>NAN</DistanceMeters>
          </Trackpoint>
          <Trackpoint>
            <Time>2022-09-18T14:34:50.000Z</Time>
            <Position>
              <LatitudeDegrees>49.30298276245594024658203125</LatitudeDegrees>
              <LongitudeDegrees>19.95800723321735858917236328125</LongitudeDegrees>
            </Position>
            <AltitudeMeters>819.4000244140625</AltitudeMeters>
            <DistanceMeters>NAN</DistanceMeters>
          </Trackpoint>
          <Trackpoint>
            <Time>2022-09-18T14:34:52.000Z</Time>
            <Position>
              <LatitudeDegrees>49.30293984711170196533203125</LatitudeDegrees>
              <LongitudeDegrees>19.9579905532300472259521484375</LongitudeDegrees>
            </Position>
            <AltitudeMeters>819.5999755859375</AltitudeMeters>
            <DistanceMeters>NAN</DistanceMeters>
          </Trackpoint>
          <Trackpoint>
            <Time>2022-09-18T14:34:55.000Z</Time>
            <Position>
              <LatitudeDegrees>49.30288209579885005950927734375</LatitudeDegrees>
              <LongitudeDegrees>19.9579546786844730377197265625</LongitudeDegrees>
            </Position>
            <AltitudeMeters>820</AltitudeMeters>
            <DistanceMeters>NAN</DistanceMeters>
          </Trackpoint>
          <Trackpoint>
            <Time>2022-09-18T14:34:57.000Z</Time>
            <Position>
              <LatitudeDegrees>49.3028511665761470794677734375</LatitudeDegrees>
              <LongitudeDegrees>19.95794051326811313629150390625</LongitudeDegrees>
            </Position>
            <AltitudeMeters>820.20001220703125</AltitudeMeters>
            <DistanceMeters>NAN</DistanceMeters>
          </Trackpoint>
          <Trackpoint>
            <Time>2022-09-18T14:35:04.000Z</Time>
            <Position>
              <LatitudeDegrees>49.3027031421661376953125</LatitudeDegrees>
              <LongitudeDegrees>19.957908578217029571533203125</LongitudeDegrees>
            </Position>
            <AltitudeMeters>820.4000244140625</AltitudeMeters>
            <DistanceMeters>NAN</DistanceMeters>
          </Trackpoint>
          <Trackpoint>
            <Time>2022-09-18T14:35:10.000Z</Time>
            <Position>
              <LatitudeDegrees>49.302621670067310333251953125</LatitudeDegrees>
              <LongitudeDegrees>19.957861639559268951416015625</LongitudeDegrees>
            </Position>
            <AltitudeMeters>820.5999755859375</AltitudeMeters>
            <DistanceMeters>NAN</DistanceMeters>
          </Trackpoint>
          <Trackpoint>
            <Time>2022-09-18T14:35:19.000Z</Time>
            <Position>
              <LatitudeDegrees>49.3024374358355998992919921875</LatitudeDegrees>
              <LongitudeDegrees>19.95776365511119365692138671875</LongitudeDegrees>
            </Position>
            <AltitudeMeters>821</AltitudeMeters>
            <DistanceMeters>NAN</DistanceMeters>
          </Trackpoint>
          <Trackpoint>
            <Time>2022-09-18T14:35:26.000Z</Time>
            <Position>
              <LatitudeDegrees>49.3023343384265899658203125</LatitudeDegrees>
              <LongitudeDegrees>19.95767983607947826385498046875</LongitudeDegrees>
            </Position>
            <AltitudeMeters>821.4000244140625</AltitudeMeters>
            <DistanceMeters>NAN</DistanceMeters>
          </Trackpoint>
          <Trackpoint>
            <Time>2022-09-18T14:35:33.000Z</Time>
            <Position>
              <LatitudeDegrees>49.3022003956139087677001953125</LatitudeDegrees>
              <LongitudeDegrees>19.95756550692021846771240234375</LongitudeDegrees>
            </Position>
            <AltitudeMeters>821.5999755859375</AltitudeMeters>
            <DistanceMeters>NAN</DistanceMeters>
          </Trackpoint>
          <Trackpoint>
            <Time>2022-09-18T14:35:41.000Z</Time>
            <Position>
              <LatitudeDegrees>49.30208095349371433258056640625</LatitudeDegrees>
              <LongitudeDegrees>19.95738185942173004150390625</LongitudeDegrees>
            </Position>
            <AltitudeMeters>821.5999755859375</AltitudeMeters>
            <DistanceMeters>NAN</DistanceMeters>
          </Trackpoint>
          <Trackpoint>
            <Time>2022-09-18T14:35:48.000Z</Time>
            <Position>
              <LatitudeDegrees>49.30193779058754444122314453125</LatitudeDegrees>
              <LongitudeDegrees>19.9572073481976985931396484375</LongitudeDegrees>
            </Position>
            <AltitudeMeters>821.79998779296875</AltitudeMeters>
            <DistanceMeters>NAN</DistanceMeters>
          </Trackpoint>
          <Trackpoint>
            <Time>2022-09-18T14:35:57.000Z</Time>
            <Position>
              <LatitudeDegrees>49.30179814808070659637451171875</LatitudeDegrees>
              <LongitudeDegrees>19.95700526051223278045654296875</LongitudeDegrees>
            </Position>
            <AltitudeMeters>821.79998779296875</AltitudeMeters>
            <DistanceMeters>NAN</DistanceMeters>
          </Trackpoint>
          <Trackpoint>
            <Time>2022-09-18T14:35:58.000Z</Time>
            <Position>
              <LatitudeDegrees>49.301782809197902679443359375</LatitudeDegrees>
              <LongitudeDegrees>19.9569810368120670318603515625</LongitudeDegrees>
            </Position>
            <AltitudeMeters>821.79998779296875</AltitudeMeters>
            <DistanceMeters>NAN</DistanceMeters>
          </Trackpoint>
          <Trackpoint>
            <Time>2022-09-18T14:36:09.000Z</Time>
            <Position>
              <LatitudeDegrees>49.30158105678856372833251953125</LatitudeDegrees>
              <LongitudeDegrees>19.9567527137696743011474609375</LongitudeDegrees>
            </Position>
            <AltitudeMeters>821.5999755859375</AltitudeMeters>
            <DistanceMeters>NAN</DistanceMeters>
          </Trackpoint>
          <Trackpoint>
            <Time>2022-09-18T14:36:14.000Z</Time>
            <Position>
              <LatitudeDegrees>49.30156814865767955780029296875</LatitudeDegrees>
              <LongitudeDegrees>19.9566450901329517364501953125</LongitudeDegrees>
            </Position>
            <AltitudeMeters>821</AltitudeMeters>
            <DistanceMeters>NAN</DistanceMeters>
          </Trackpoint>
          <Trackpoint>
            <Time>2022-09-18T14:36:18.000Z</Time>
            <Position>
              <LatitudeDegrees>49.30156253278255462646484375</LatitudeDegrees>
              <LongitudeDegrees>19.95660058222711086273193359375</LongitudeDegrees>
            </Position>
            <AltitudeMeters>820.79998779296875</AltitudeMeters>
            <DistanceMeters>NAN</DistanceMeters>
          </Trackpoint>
          <Trackpoint>
            <Time>2022-09-18T14:36:21.000Z</Time>
            <Position>
              <LatitudeDegrees>49.30150662548840045928955078125</LatitudeDegrees>
              <LongitudeDegrees>19.95655414648354053497314453125</LongitudeDegrees>
            </Position>
            <AltitudeMeters>820.79998779296875</AltitudeMeters>
            <DistanceMeters>NAN</DistanceMeters>
          </Trackpoint>
          <Trackpoint>
            <Time>2022-09-18T14:36:28.000Z</Time>
            <Position>
              <LatitudeDegrees>49.301426745951175689697265625</LatitudeDegrees>
              <LongitudeDegrees>19.95649396441876888275146484375</LongitudeDegrees>
            </Position>
            <AltitudeMeters>821</AltitudeMeters>
            <DistanceMeters>NAN</DistanceMeters>
          </Trackpoint>
          <Trackpoint>
            <Time>2022-09-18T14:36:34.000Z</Time>
            <Position>
              <LatitudeDegrees>49.30132255889475345611572265625</LatitudeDegrees>
              <LongitudeDegrees>19.956367313861846923828125</LongitudeDegrees>
            </Position>
            <AltitudeMeters>821.5999755859375</AltitudeMeters>
            <DistanceMeters>NAN</DistanceMeters>
          </Trackpoint>
          <Trackpoint>
            <Time>2022-09-18T14:36:42.000Z</Time>
            <Position>
              <LatitudeDegrees>49.30117654614150524139404296875</LatitudeDegrees>
              <LongitudeDegrees>19.95615516789257526397705078125</LongitudeDegrees>
            </Position>
            <AltitudeMeters>821.5999755859375</AltitudeMeters>
            <DistanceMeters>NAN</DistanceMeters>
          </Trackpoint>
          <Trackpoint>
            <Time>2022-09-18T14:36:45.000Z</Time>
            <Position>
              <LatitudeDegrees>49.3011459521949291229248046875</LatitudeDegrees>
              <LongitudeDegrees>19.95607486926019191741943359375</LongitudeDegrees>
            </Position>
            <AltitudeMeters>821.4000244140625</AltitudeMeters>
            <DistanceMeters>NAN</DistanceMeters>
          </Trackpoint>
          <Trackpoint>
            <Time>2022-09-18T14:36:47.000Z</Time>
            <Position>
              <LatitudeDegrees>49.30112306959927082061767578125</LatitudeDegrees>
              <LongitudeDegrees>19.9560415931046009063720703125</LongitudeDegrees>
            </Position>
            <AltitudeMeters>821.4000244140625</AltitudeMeters>
            <DistanceMeters>NAN</DistanceMeters>
          </Trackpoint>
          <Trackpoint>
            <Time>2022-09-18T14:36:52.000Z</Time>
            <Position>
              <LatitudeDegrees>49.30103355087339878082275390625</LatitudeDegrees>
              <LongitudeDegrees>19.95597043074667453765869140625</LongitudeDegrees>
            </Position>
            <AltitudeMeters>821.4000244140625</AltitudeMeters>
            <DistanceMeters>NAN</DistanceMeters>
          </Trackpoint>
          <Trackpoint>
            <Time>2022-09-18T14:36:56.000Z</Time>
            <Position>
              <LatitudeDegrees>49.30097521282732486724853515625</LatitudeDegrees>
              <LongitudeDegrees>19.955888874828815460205078125</LongitudeDegrees>
            </Position>
            <AltitudeMeters>821.4000244140625</AltitudeMeters>
            <DistanceMeters>NAN</DistanceMeters>
          </Trackpoint>
          <Trackpoint>
            <Time>2022-09-18T14:36:58.000Z</Time>
            <Position>
              <LatitudeDegrees>49.3009561859071254730224609375</LatitudeDegrees>
              <LongitudeDegrees>19.9558360688388347625732421875</LongitudeDegrees>
            </Position>
            <AltitudeMeters>821.4000244140625</AltitudeMeters>
            <DistanceMeters>NAN</DistanceMeters>
          </Trackpoint>
          <Trackpoint>
            <Time>2022-09-18T14:37:07.000Z</Time>
            <Position>
              <LatitudeDegrees>49.3008096702396869659423828125</LatitudeDegrees>
              <LongitudeDegrees>19.95559240691363811492919921875</LongitudeDegrees>
            </Position>
            <AltitudeMeters>821.79998779296875</AltitudeMeters>
            <DistanceMeters>NAN</DistanceMeters>
          </Trackpoint>
          <Trackpoint>
            <Time>2022-09-18T14:37:11.000Z</Time>
            <Position>
              <LatitudeDegrees>49.3007536791265010833740234375</LatitudeDegrees>
              <LongitudeDegrees>19.95545175857841968536376953125</LongitudeDegrees>
            </Position>
            <AltitudeMeters>822</AltitudeMeters>
            <DistanceMeters>NAN</DistanceMeters>
          </Trackpoint>
          <Trackpoint>
            <Time>2022-09-18T14:37:14.000Z</Time>
            <Position>
              <LatitudeDegrees>49.3007035553455352783203125</LatitudeDegrees>
              <LongitudeDegrees>19.955326616764068603515625</LongitudeDegrees>
            </Position>
            <AltitudeMeters>822.4000244140625</AltitudeMeters>
            <DistanceMeters>NAN</DistanceMeters>
          </Trackpoint>
          <Trackpoint>
            <Time>2022-09-18T14:37:18.000Z</Time>
            <Position>
              <LatitudeDegrees>49.30066533386707305908203125</LatitudeDegrees>
              <LongitudeDegrees>19.95522611774504184722900390625</LongitudeDegrees>
            </Position>
            <AltitudeMeters>823.20001220703125</AltitudeMeters>
            <DistanceMeters>NAN</DistanceMeters>
          </Trackpoint>
          <Trackpoint>
            <Time>2022-09-18T14:37:21.000Z</Time>
            <Position>
              <LatitudeDegrees>49.3006016314029693603515625</LatitudeDegrees>
              <LongitudeDegrees>19.955088905990123748779296875</LongitudeDegrees>
            </Position>
            <AltitudeMeters>823.4000244140625</AltitudeMeters>
            <DistanceMeters>NAN</DistanceMeters>
          </Trackpoint>
          <Trackpoint>
            <Time>2022-09-18T14:37:22.000Z</Time>
            <Position>
              <LatitudeDegrees>49.3005903996527194976806640625</LatitudeDegrees>
              <LongitudeDegrees>19.95505194179713726043701171875</LongitudeDegrees>
            </Position>
            <AltitudeMeters>823.4000244140625</AltitudeMeters>
            <DistanceMeters>NAN</DistanceMeters>
          </Trackpoint>
          <Trackpoint>
            <Time>2022-09-18T14:37:27.000Z</Time>
            <Position>
              <LatitudeDegrees>49.300544969737529754638671875</LatitudeDegrees>
              <LongitudeDegrees>19.9549014866352081298828125</LongitudeDegrees>
            </Position>
            <AltitudeMeters>823.4000244140625</AltitudeMeters>
            <DistanceMeters>NAN</DistanceMeters>
          </Trackpoint>
          <Trackpoint>
            <Time>2022-09-18T14:37:28.000Z</Time>
            <Position>
              <LatitudeDegrees>49.300534911453723907470703125</LatitudeDegrees>
              <LongitudeDegrees>19.9548671208322048187255859375</LongitudeDegrees>
            </Position>
            <AltitudeMeters>823.5999755859375</AltitudeMeters>
            <DistanceMeters>NAN</DistanceMeters>
          </Trackpoint>
          <Trackpoint>
            <Time>2022-09-18T14:37:29.000Z</Time>
            <Position>
              <LatitudeDegrees>49.300534911453723907470703125</LatitudeDegrees>
              <LongitudeDegrees>19.9548671208322048187255859375</LongitudeDegrees>
            </Position>
            <AltitudeMeters>823.5999755859375</AltitudeMeters>
            <DistanceMeters>NAN</DistanceMeters>
          </Trackpoint>
          <Trackpoint>
            <Time>2022-09-18T14:37:35.000Z</Time>
            <Position>
              <LatitudeDegrees>49.30049878545105457305908203125</LatitudeDegrees>
              <LongitudeDegrees>19.9546911008656024932861328125</LongitudeDegrees>
            </Position>
            <AltitudeMeters>824</AltitudeMeters>
            <DistanceMeters>NAN</DistanceMeters>
          </Trackpoint>
          <Trackpoint>
            <Time>2022-09-18T14:37:38.000Z</Time>
            <Position>
              <LatitudeDegrees>49.30048336274921894073486328125</LatitudeDegrees>
              <LongitudeDegrees>19.95465078391134738922119140625</LongitudeDegrees>
            </Position>
            <AltitudeMeters>824.20001220703125</AltitudeMeters>
            <DistanceMeters>NAN</DistanceMeters>
          </Trackpoint>
          <Trackpoint>
            <Time>2022-09-18T14:37:41.000Z</Time>
            <Position>
              <LatitudeDegrees>49.3004487454891204833984375</LatitudeDegrees>
              <LongitudeDegrees>19.95456914417445659637451171875</LongitudeDegrees>
            </Position>
            <AltitudeMeters>824.20001220703125</AltitudeMeters>
            <DistanceMeters>NAN</DistanceMeters>
          </Trackpoint>
          <Trackpoint>
            <Time>2022-09-18T14:37:49.000Z</Time>
            <Position>
              <LatitudeDegrees>49.30039107799530029296875</LatitudeDegrees>
              <LongitudeDegrees>19.95439932681620121002197265625</LongitudeDegrees>
            </Position>
            <AltitudeMeters>824</AltitudeMeters>
            <DistanceMeters>NAN</DistanceMeters>
          </Trackpoint>
          <Trackpoint>
            <Time>2022-09-18T14:37:50.000Z</Time>
            <Position>
              <LatitudeDegrees>49.300388731062412261962890625</LatitudeDegrees>
              <LongitudeDegrees>19.9543796293437480926513671875</LongitudeDegrees>
            </Position>
            <AltitudeMeters>824.20001220703125</AltitudeMeters>
            <DistanceMeters>NAN</DistanceMeters>
          </Trackpoint>
          <Trackpoint>
            <Time>2022-09-18T14:37:53.000Z</Time>
            <Position>
              <LatitudeDegrees>49.30036115460097789764404296875</LatitudeDegrees>
              <LongitudeDegrees>19.95431265793740749359130859375</LongitudeDegrees>
            </Position>
            <AltitudeMeters>824.20001220703125</AltitudeMeters>
            <DistanceMeters>NAN</DistanceMeters>
          </Trackpoint>
          <Trackpoint>
            <Time>2022-09-18T14:37:55.000Z</Time>
            <Position>
              <LatitudeDegrees>49.3003402836620807647705078125</LatitudeDegrees>
              <LongitudeDegrees>19.9542944692075252532958984375</LongitudeDegrees>
            </Position>
            <AltitudeMeters>824</AltitudeMeters>
            <DistanceMeters>NAN</DistanceMeters>
          </Trackpoint>
          <Trackpoint>
            <Time>2022-09-18T14:37:58.000Z</Time>
            <Position>
              <LatitudeDegrees>49.30027649737894535064697265625</LatitudeDegrees>
              <LongitudeDegrees>19.954268820583820343017578125</LongitudeDegrees>
            </Position>
            <AltitudeMeters>824.20001220703125</AltitudeMeters>
            <DistanceMeters>NAN</DistanceMeters>
          </Trackpoint>
          <Trackpoint>
            <Time>2022-09-18T14:38:03.000Z</Time>
            <Position>
              <LatitudeDegrees>49.30015747435390949249267578125</LatitudeDegrees>
              <LongitudeDegrees>19.95418324135243892669677734375</LongitudeDegrees>
            </Position>
            <AltitudeMeters>824.4000244140625</AltitudeMeters>
            <DistanceMeters>NAN</DistanceMeters>
          </Trackpoint>
          <Trackpoint>
            <Time>2022-09-18T14:38:08.000Z</Time>
            <Position>
              <LatitudeDegrees>49.30006560869514942169189453125</LatitudeDegrees>
              <LongitudeDegrees>19.95420956052839756011962890625</LongitudeDegrees>
            </Position>
            <AltitudeMeters>825</AltitudeMeters>
            <DistanceMeters>NAN</DistanceMeters>
          </Trackpoint>
          <Trackpoint>
            <Time>2022-09-18T14:38:14.000Z</Time>
            <Position>
              <LatitudeDegrees>49.29997692815959453582763671875</LatitudeDegrees>
              <LongitudeDegrees>19.95432489551603794097900390625</LongitudeDegrees>
            </Position>
            <AltitudeMeters>825.20001220703125</AltitudeMeters>
            <DistanceMeters>NAN</DistanceMeters>
          </Trackpoint>
          <Trackpoint>
            <Time>2022-09-18T14:38:15.000Z</Time>
            <Position>
              <LatitudeDegrees>49.299958236515522003173828125</LatitudeDegrees>
              <LongitudeDegrees>19.954342581331729888916015625</LongitudeDegrees>
            </Position>
            <AltitudeMeters>825.20001220703125</AltitudeMeters>
            <DistanceMeters>NAN</DistanceMeters>
          </Trackpoint>
          <Trackpoint>
            <Time>2022-09-18T14:38:17.000Z</Time>
            <Position>
              <LatitudeDegrees>49.2999104596674442291259765625</LatitudeDegrees>
              <LongitudeDegrees>19.95435255579650402069091796875</LongitudeDegrees>
            </Position>
            <AltitudeMeters>825.4000244140625</AltitudeMeters>
            <DistanceMeters>NAN</DistanceMeters>
          </Trackpoint>
          <Trackpoint>
            <Time>2022-09-18T14:38:19.000Z</Time>
            <Position>
              <LatitudeDegrees>49.2998732440173625946044921875</LatitudeDegrees>
              <LongitudeDegrees>19.954311065375804901123046875</LongitudeDegrees>
            </Position>
            <AltitudeMeters>825.4000244140625</AltitudeMeters>
            <DistanceMeters>NAN</DistanceMeters>
          </Trackpoint>
          <Trackpoint>
            <Time>2022-09-18T14:38:20.000Z</Time>
            <Position>
              <LatitudeDegrees>49.2998732440173625946044921875</LatitudeDegrees>
              <LongitudeDegrees>19.954311065375804901123046875</LongitudeDegrees>
            </Position>
            <AltitudeMeters>825.4000244140625</AltitudeMeters>
            <DistanceMeters>NAN</DistanceMeters>
          </Trackpoint>
          <Trackpoint>
            <Time>2022-09-18T14:38:23.000Z</Time>
            <Position>
              <LatitudeDegrees>49.2998755909502506256103515625</LatitudeDegrees>
              <LongitudeDegrees>19.954297654330730438232421875</LongitudeDegrees>
            </Position>
            <AltitudeMeters>825.4000244140625</AltitudeMeters>
            <DistanceMeters>NAN</DistanceMeters>
          </Trackpoint>
          <Trackpoint>
            <Time>2022-09-18T14:38:31.000Z</Time>
            <Position>
              <LatitudeDegrees>49.2998755909502506256103515625</LatitudeDegrees>
              <LongitudeDegrees>19.954297654330730438232421875</LongitudeDegrees>
            </Position>
            <AltitudeMeters>825.4000244140625</AltitudeMeters>
            <DistanceMeters>NAN</DistanceMeters>
          </Trackpoint>
          <Trackpoint>
            <Time>2022-09-18T14:38:36.000Z</Time>
            <Position>
              <LatitudeDegrees>49.29987584240734577178955078125</LatitudeDegrees>
              <LongitudeDegrees>19.95429790578782558441162109375</LongitudeDegrees>
            </Position>
            <AltitudeMeters>825.5999755859375</AltitudeMeters>
            <DistanceMeters>NAN</DistanceMeters>
          </Trackpoint>
          <Trackpoint>
            <Time>2022-09-18T14:38:37.000Z</Time>
            <Position>
              <LatitudeDegrees>49.29987584240734577178955078125</LatitudeDegrees>
              <LongitudeDegrees>19.95429790578782558441162109375</LongitudeDegrees>
            </Position>
            <AltitudeMeters>825.5999755859375</AltitudeMeters>
            <DistanceMeters>NAN</DistanceMeters>
          </Trackpoint>
          <Trackpoint>
            <Time>2022-09-18T14:38:42.000Z</Time>
            <Position>
              <LatitudeDegrees>49.29987584240734577178955078125</LatitudeDegrees>
              <LongitudeDegrees>19.95429790578782558441162109375</LongitudeDegrees>
            </Position>
            <AltitudeMeters>825.5999755859375</AltitudeMeters>
            <DistanceMeters>NAN</DistanceMeters>
          </Trackpoint>
          <Trackpoint>
            <Time>2022-09-18T14:38:52.000Z</Time>
            <Position>
              <LatitudeDegrees>49.2998786084353923797607421875</LatitudeDegrees>
              <LongitudeDegrees>19.9543005041778087615966796875</LongitudeDegrees>
            </Position>
            <AltitudeMeters>825.5999755859375</AltitudeMeters>
            <DistanceMeters>NAN</DistanceMeters>
          </Trackpoint>
          <Trackpoint>
            <Time>2022-09-18T14:38:54.000Z</Time>
            <Position>
              <LatitudeDegrees>49.2998786084353923797607421875</LatitudeDegrees>
              <LongitudeDegrees>19.9543005041778087615966796875</LongitudeDegrees>
            </Position>
            <AltitudeMeters>825.4000244140625</AltitudeMeters>
            <DistanceMeters>NAN</DistanceMeters>
          </Trackpoint>
          <Trackpoint>
            <Time>2022-09-18T14:38:56.000Z</Time>
            <Position>
              <LatitudeDegrees>49.2998786084353923797607421875</LatitudeDegrees>
              <LongitudeDegrees>19.9543005041778087615966796875</LongitudeDegrees>
            </Position>
            <AltitudeMeters>825.4000244140625</AltitudeMeters>
            <DistanceMeters>NAN</DistanceMeters>
          </Trackpoint>
          <Trackpoint>
            <Time>2022-09-18T14:39:00.000Z</Time>
            <Position>
              <LatitudeDegrees>49.2998786084353923797607421875</LatitudeDegrees>
              <LongitudeDegrees>19.9543005041778087615966796875</LongitudeDegrees>
            </Position>
            <AltitudeMeters>825.5999755859375</AltitudeMeters>
            <DistanceMeters>NAN</DistanceMeters>
          </Trackpoint>
          <Trackpoint>
            <Time>2022-09-18T14:39:04.000Z</Time>
            <Position>
              <LatitudeDegrees>49.2998786084353923797607421875</LatitudeDegrees>
              <LongitudeDegrees>19.9543005041778087615966796875</LongitudeDegrees>
            </Position>
            <AltitudeMeters>825.5999755859375</AltitudeMeters>
            <DistanceMeters>NAN</DistanceMeters>
          </Trackpoint>
          <Trackpoint>
            <Time>2022-09-18T14:39:08.000Z</Time>
            <Position>
              <LatitudeDegrees>49.2998786084353923797607421875</LatitudeDegrees>
              <LongitudeDegrees>19.9543005041778087615966796875</LongitudeDegrees>
            </Position>
            <AltitudeMeters>825.4000244140625</AltitudeMeters>
            <DistanceMeters>NAN</DistanceMeters>
          </Trackpoint>
          <Trackpoint>
            <Time>2022-09-18T14:39:13.000Z</Time>
            <Position>
              <LatitudeDegrees>49.2998786084353923797607421875</LatitudeDegrees>
              <LongitudeDegrees>19.9543005041778087615966796875</LongitudeDegrees>
            </Position>
            <AltitudeMeters>825.4000244140625</AltitudeMeters>
            <DistanceMeters>NAN</DistanceMeters>
          </Trackpoint>
          <Trackpoint>
            <Time>2022-09-18T14:39:22.000Z</Time>
            <Position>
              <LatitudeDegrees>49.2998786084353923797607421875</LatitudeDegrees>
              <LongitudeDegrees>19.9543005041778087615966796875</LongitudeDegrees>
            </Position>
            <AltitudeMeters>825.4000244140625</AltitudeMeters>
            <DistanceMeters>NAN</DistanceMeters>
          </Trackpoint>
          <Trackpoint>
            <Time>2022-09-18T14:39:26.000Z</Time>
            <Position>
              <LatitudeDegrees>49.2998786084353923797607421875</LatitudeDegrees>
              <LongitudeDegrees>19.9543005041778087615966796875</LongitudeDegrees>
            </Position>
            <AltitudeMeters>825.20001220703125</AltitudeMeters>
            <DistanceMeters>NAN</DistanceMeters>
          </Trackpoint>
          <Trackpoint>
            <Time>2022-09-18T14:39:52.000Z</Time>
            <Position>
              <LatitudeDegrees>49.2998786084353923797607421875</LatitudeDegrees>
              <LongitudeDegrees>19.9543005041778087615966796875</LongitudeDegrees>
            </Position>
            <AltitudeMeters>825.20001220703125</AltitudeMeters>
            <DistanceMeters>NAN</DistanceMeters>
          </Trackpoint>
          <Trackpoint>
            <Time>2022-09-18T14:39:59.000Z</Time>
            <Position>
              <LatitudeDegrees>49.29987852461636066436767578125</LatitudeDegrees>
              <LongitudeDegrees>19.9543011747300624847412109375</LongitudeDegrees>
            </Position>
            <AltitudeMeters>825.20001220703125</AltitudeMeters>
            <DistanceMeters>NAN</DistanceMeters>
          </Trackpoint>
          <Trackpoint>
            <Time>2022-09-18T14:40:01.000Z</Time>
            <Position>
              <LatitudeDegrees>49.29987852461636066436767578125</LatitudeDegrees>
              <LongitudeDegrees>19.9543011747300624847412109375</LongitudeDegrees>
            </Position>
            <AltitudeMeters>825.20001220703125</AltitudeMeters>
            <DistanceMeters>NAN</DistanceMeters>
          </Trackpoint>
          <Trackpoint>
            <Time>2022-09-18T14:40:05.000Z</Time>
            <Position>
              <LatitudeDegrees>49.2998531274497509002685546875</LatitudeDegrees>
              <LongitudeDegrees>19.95427913032472133636474609375</LongitudeDegrees>
            </Position>
            <AltitudeMeters>825.20001220703125</AltitudeMeters>
            <DistanceMeters>NAN</DistanceMeters>
          </Trackpoint>
          <Trackpoint>
            <Time>2022-09-18T14:40:10.000Z</Time>
            <Position>
              <LatitudeDegrees>49.29984214715659618377685546875</LatitudeDegrees>
              <LongitudeDegrees>19.9542817287147045135498046875</LongitudeDegrees>
            </Position>
            <AltitudeMeters>825.20001220703125</AltitudeMeters>
            <DistanceMeters>NAN</DistanceMeters>
          </Trackpoint>
          <Trackpoint>
            <Time>2022-09-18T14:40:12.000Z</Time>
            <Position>
              <LatitudeDegrees>49.29984214715659618377685546875</LatitudeDegrees>
              <LongitudeDegrees>19.9542817287147045135498046875</LongitudeDegrees>
            </Position>
            <AltitudeMeters>825.4000244140625</AltitudeMeters>
            <DistanceMeters>NAN</DistanceMeters>
          </Trackpoint>
          <Trackpoint>
            <Time>2022-09-18T14:40:15.000Z</Time>
            <Position>
              <LatitudeDegrees>49.29984214715659618377685546875</LatitudeDegrees>
              <LongitudeDegrees>19.9542817287147045135498046875</LongitudeDegrees>
            </Position>
            <AltitudeMeters>825.4000244140625</AltitudeMeters>
            <DistanceMeters>NAN</DistanceMeters>
          </Trackpoint>
          <Trackpoint>
            <Time>2022-09-18T14:40:18.000Z</Time>
            <Position>
              <LatitudeDegrees>49.29985958151519298553466796875</LatitudeDegrees>
              <LongitudeDegrees>19.954316429793834686279296875</LongitudeDegrees>
            </Position>
            <AltitudeMeters>825.4000244140625</AltitudeMeters>
            <DistanceMeters>NAN</DistanceMeters>
          </Trackpoint>
          <Trackpoint>
            <Time>2022-09-18T14:40:20.000Z</Time>
            <Position>
              <LatitudeDegrees>49.29988254792988300323486328125</LatitudeDegrees>
              <LongitudeDegrees>19.95434635318815708160400390625</LongitudeDegrees>
            </Position>
            <AltitudeMeters>825.20001220703125</AltitudeMeters>
            <DistanceMeters>NAN</DistanceMeters>
          </Trackpoint>
          <Trackpoint>
            <Time>2022-09-18T14:40:22.000Z</Time>
            <Position>
              <LatitudeDegrees>49.2999064363539218902587890625</LatitudeDegrees>
              <LongitudeDegrees>19.95435305871069431304931640625</LongitudeDegrees>
            </Position>
            <AltitudeMeters>825.4000244140625</AltitudeMeters>
            <DistanceMeters>NAN</DistanceMeters>
          </Trackpoint>
          <Trackpoint>
            <Time>2022-09-18T14:40:25.000Z</Time>
            <Position>
              <LatitudeDegrees>49.2999516986310482025146484375</LatitudeDegrees>
              <LongitudeDegrees>19.95434450916945934295654296875</LongitudeDegrees>
            </Position>
            <AltitudeMeters>825.4000244140625</AltitudeMeters>
            <DistanceMeters>NAN</DistanceMeters>
          </Trackpoint>
          <Trackpoint>
            <Time>2022-09-18T14:40:27.000Z</Time>
            <Position>
              <LatitudeDegrees>49.299989752471446990966796875</LatitudeDegrees>
              <LongitudeDegrees>19.95431349612772464752197265625</LongitudeDegrees>
            </Position>
            <AltitudeMeters>825.4000244140625</AltitudeMeters>
            <DistanceMeters>NAN</DistanceMeters>
          </Trackpoint>
          <Trackpoint>
            <Time>2022-09-18T14:40:33.000Z</Time>
            <Position>
              <LatitudeDegrees>49.3000948615372180938720703125</LatitudeDegrees>
              <LongitudeDegrees>19.9542257376015186309814453125</LongitudeDegrees>
            </Position>
            <AltitudeMeters>825</AltitudeMeters>
            <DistanceMeters>NAN</DistanceMeters>
          </Trackpoint>
          <Trackpoint>
            <Time>2022-09-18T14:40:35.000Z</Time>
            <Position>
              <LatitudeDegrees>49.300118498504161834716796875</LatitudeDegrees>
              <LongitudeDegrees>19.9541700817644596099853515625</LongitudeDegrees>
            </Position>
            <AltitudeMeters>824.79998779296875</AltitudeMeters>
            <DistanceMeters>NAN</DistanceMeters>
          </Trackpoint>
          <Trackpoint>
            <Time>2022-09-18T14:40:38.000Z</Time>
            <Position>
              <LatitudeDegrees>49.3001377768814563751220703125</LatitudeDegrees>
              <LongitudeDegrees>19.9540753662586212158203125</LongitudeDegrees>
            </Position>
            <AltitudeMeters>824.4000244140625</AltitudeMeters>
            <DistanceMeters>NAN</DistanceMeters>
          </Trackpoint>
          <Trackpoint>
            <Time>2022-09-18T14:40:43.000Z</Time>
            <Position>
              <LatitudeDegrees>49.300128556787967681884765625</LatitudeDegrees>
              <LongitudeDegrees>19.9539394117891788482666015625</LongitudeDegrees>
            </Position>
            <AltitudeMeters>824.4000244140625</AltitudeMeters>
            <DistanceMeters>NAN</DistanceMeters>
          </Trackpoint>
          <Trackpoint>
            <Time>2022-09-18T14:40:49.000Z</Time>
            <Position>
              <LatitudeDegrees>49.3000586517155170440673828125</LatitudeDegrees>
              <LongitudeDegrees>19.95377160608768463134765625</LongitudeDegrees>
            </Position>
            <AltitudeMeters>824.79998779296875</AltitudeMeters>
            <DistanceMeters>NAN</DistanceMeters>
          </Trackpoint>
          <Trackpoint>
            <Time>2022-09-18T14:40:56.000Z</Time>
            <Position>
              <LatitudeDegrees>49.29997575469315052032470703125</LatitudeDegrees>
              <LongitudeDegrees>19.95352878235280513763427734375</LongitudeDegrees>
            </Position>
            <AltitudeMeters>824.4000244140625</AltitudeMeters>
            <DistanceMeters>NAN</DistanceMeters>
          </Trackpoint>
          <Trackpoint>
            <Time>2022-09-18T14:40:58.000Z</Time>
            <Position>
              <LatitudeDegrees>49.29996402002871036529541015625</LatitudeDegrees>
              <LongitudeDegrees>19.95344161055982112884521484375</LongitudeDegrees>
            </Position>
            <AltitudeMeters>824.20001220703125</AltitudeMeters>
            <DistanceMeters>NAN</DistanceMeters>
          </Trackpoint>
          <Trackpoint>
            <Time>2022-09-18T14:41:02.000Z</Time>
            <Position>
              <LatitudeDegrees>49.29989528842270374298095703125</LatitudeDegrees>
              <LongitudeDegrees>19.95327581651508808135986328125</LongitudeDegrees>
            </Position>
            <AltitudeMeters>824</AltitudeMeters>
            <DistanceMeters>NAN</DistanceMeters>
          </Trackpoint>
          <Trackpoint>
            <Time>2022-09-18T14:41:04.000Z</Time>
            <Position>
              <LatitudeDegrees>49.29987668059766292572021484375</LatitudeDegrees>
              <LongitudeDegrees>19.95319099165499210357666015625</LongitudeDegrees>
            </Position>
            <AltitudeMeters>824</AltitudeMeters>
            <DistanceMeters>NAN</DistanceMeters>
          </Trackpoint>
          <Trackpoint>
            <Time>2022-09-18T14:41:05.000Z</Time>
            <Position>
              <LatitudeDegrees>49.29986796341836452484130859375</LatitudeDegrees>
              <LongitudeDegrees>19.9531471543014049530029296875</LongitudeDegrees>
            </Position>
            <AltitudeMeters>824</AltitudeMeters>
            <DistanceMeters>NAN</DistanceMeters>
          </Trackpoint>
          <Trackpoint>
            <Time>2022-09-18T14:41:09.000Z</Time>
            <Position>
              <LatitudeDegrees>49.29984415881335735321044921875</LatitudeDegrees>
              <LongitudeDegrees>19.95302754454314708709716796875</LongitudeDegrees>
            </Position>
            <AltitudeMeters>823.79998779296875</AltitudeMeters>
            <DistanceMeters>NAN</DistanceMeters>
          </Trackpoint>
          <Trackpoint>
            <Time>2022-09-18T14:41:11.000Z</Time>
            <Position>
              <LatitudeDegrees>49.29981264285743236541748046875</LatitudeDegrees>
              <LongitudeDegrees>19.9529178254306316375732421875</LongitudeDegrees>
            </Position>
            <AltitudeMeters>823.79998779296875</AltitudeMeters>
            <DistanceMeters>NAN</DistanceMeters>
          </Trackpoint>
          <Trackpoint>
            <Time>2022-09-18T14:41:16.000Z</Time>
            <Position>
              <LatitudeDegrees>49.2997756786644458770751953125</LatitudeDegrees>
              <LongitudeDegrees>19.95276468805968761444091796875</LongitudeDegrees>
            </Position>
            <AltitudeMeters>823.79998779296875</AltitudeMeters>
            <DistanceMeters>NAN</DistanceMeters>
          </Trackpoint>
          <Trackpoint>
            <Time>2022-09-18T14:41:17.000Z</Time>
            <Position>
              <LatitudeDegrees>49.2997676320374011993408203125</LatitudeDegrees>
              <LongitudeDegrees>19.95273384265601634979248046875</LongitudeDegrees>
            </Position>
            <AltitudeMeters>823.79998779296875</AltitudeMeters>
            <DistanceMeters>NAN</DistanceMeters>
          </Trackpoint>
          <Trackpoint>
            <Time>2022-09-18T14:41:21.000Z</Time>
            <Position>
              <LatitudeDegrees>49.29974810220301151275634765625</LatitudeDegrees>
              <LongitudeDegrees>19.95262906886637210845947265625</LongitudeDegrees>
            </Position>
            <AltitudeMeters>823.79998779296875</AltitudeMeters>
            <DistanceMeters>NAN</DistanceMeters>
          </Trackpoint>
          <Trackpoint>
            <Time>2022-09-18T14:41:24.000Z</Time>
            <Position>
              <LatitudeDegrees>49.29972915910184383392333984375</LatitudeDegrees>
              <LongitudeDegrees>19.952560923993587493896484375</LongitudeDegrees>
            </Position>
            <AltitudeMeters>823.79998779296875</AltitudeMeters>
            <DistanceMeters>NAN</DistanceMeters>
          </Trackpoint>
          <Trackpoint>
            <Time>2022-09-18T14:41:31.000Z</Time>
            <Position>
              <LatitudeDegrees>49.299669899046421051025390625</LatitudeDegrees>
              <LongitudeDegrees>19.9524095468223094940185546875</LongitudeDegrees>
            </Position>
            <AltitudeMeters>823.5999755859375</AltitudeMeters>
            <DistanceMeters>NAN</DistanceMeters>
          </Trackpoint>
          <Trackpoint>
            <Time>2022-09-18T14:41:36.000Z</Time>
            <Position>
              <LatitudeDegrees>49.29961952380836009979248046875</LatitudeDegrees>
              <LongitudeDegrees>19.952322207391262054443359375</LongitudeDegrees>
            </Position>
            <AltitudeMeters>823.5999755859375</AltitudeMeters>
            <DistanceMeters>NAN</DistanceMeters>
          </Trackpoint>
          <Trackpoint>
            <Time>2022-09-18T14:41:37.000Z</Time>
            <Position>
              <LatitudeDegrees>49.29961952380836009979248046875</LatitudeDegrees>
              <LongitudeDegrees>19.952322207391262054443359375</LongitudeDegrees>
            </Position>
            <AltitudeMeters>823.5999755859375</AltitudeMeters>
            <DistanceMeters>NAN</DistanceMeters>
          </Trackpoint>
          <Trackpoint>
            <Time>2022-09-18T14:41:41.000Z</Time>
            <Position>
              <LatitudeDegrees>49.29959940724074840545654296875</LatitudeDegrees>
              <LongitudeDegrees>19.95223335921764373779296875</LongitudeDegrees>
            </Position>
            <AltitudeMeters>823.5999755859375</AltitudeMeters>
            <DistanceMeters>NAN</DistanceMeters>
          </Trackpoint>
          <Trackpoint>
            <Time>2022-09-18T14:41:43.000Z</Time>
            <Position>
              <LatitudeDegrees>49.29961633868515491485595703125</LatitudeDegrees>
              <LongitudeDegrees>19.9521919526159763336181640625</LongitudeDegrees>
            </Position>
            <AltitudeMeters>823.5999755859375</AltitudeMeters>
            <DistanceMeters>NAN</DistanceMeters>
          </Trackpoint>
          <Trackpoint>
            <Time>2022-09-18T14:41:50.000Z</Time>
            <Position>
              <LatitudeDegrees>49.2996995709836483001708984375</LatitudeDegrees>
              <LongitudeDegrees>19.95203244499862194061279296875</LongitudeDegrees>
            </Position>
            <AltitudeMeters>823.4000244140625</AltitudeMeters>
            <DistanceMeters>NAN</DistanceMeters>
          </Trackpoint>
          <Trackpoint>
            <Time>2022-09-18T14:41:59.000Z</Time>
            <Position>
              <LatitudeDegrees>49.29967031814157962799072265625</LatitudeDegrees>
              <LongitudeDegrees>19.951785095036029815673828125</LongitudeDegrees>
            </Position>
            <AltitudeMeters>823.79998779296875</AltitudeMeters>
            <DistanceMeters>NAN</DistanceMeters>
          </Trackpoint>
          <Trackpoint>
            <Time>2022-09-18T14:42:08.000Z</Time>
            <Position>
              <LatitudeDegrees>49.29961860179901123046875</LatitudeDegrees>
              <LongitudeDegrees>19.95152148418128490447998046875</LongitudeDegrees>
            </Position>
            <AltitudeMeters>823.4000244140625</AltitudeMeters>
            <DistanceMeters>NAN</DistanceMeters>
          </Trackpoint>
          <Trackpoint>
            <Time>2022-09-18T14:42:10.000Z</Time>
            <Position>
              <LatitudeDegrees>49.2996170930564403533935546875</LatitudeDegrees>
              <LongitudeDegrees>19.95148678310215473175048828125</LongitudeDegrees>
            </Position>
            <AltitudeMeters>823.4000244140625</AltitudeMeters>
            <DistanceMeters>NAN</DistanceMeters>
          </Trackpoint>
          <Trackpoint>
            <Time>2022-09-18T14:42:12.000Z</Time>
            <Position>
              <LatitudeDegrees>49.2996107228100299835205078125</LatitudeDegrees>
              <LongitudeDegrees>19.951455853879451751708984375</LongitudeDegrees>
            </Position>
            <AltitudeMeters>823.4000244140625</AltitudeMeters>
            <DistanceMeters>NAN</DistanceMeters>
          </Trackpoint>
          <Trackpoint>
            <Time>2022-09-18T14:42:14.000Z</Time>
            <Position>
              <LatitudeDegrees>49.29960996843874454498291015625</LatitudeDegrees>
              <LongitudeDegrees>19.9514486454427242279052734375</LongitudeDegrees>
            </Position>
            <AltitudeMeters>823.4000244140625</AltitudeMeters>
            <DistanceMeters>NAN</DistanceMeters>
          </Trackpoint>
          <Trackpoint>
            <Time>2022-09-18T14:42:17.000Z</Time>
            <Position>
              <LatitudeDegrees>49.29960996843874454498291015625</LatitudeDegrees>
              <LongitudeDegrees>19.9514486454427242279052734375</LongitudeDegrees>
            </Position>
            <AltitudeMeters>823.4000244140625</AltitudeMeters>
            <DistanceMeters>NAN</DistanceMeters>
          </Trackpoint>
          <Trackpoint>
            <Time>2022-09-18T14:42:18.000Z</Time>
            <Position>
              <LatitudeDegrees>49.29960996843874454498291015625</LatitudeDegrees>
              <LongitudeDegrees>19.9514486454427242279052734375</LongitudeDegrees>
            </Position>
            <AltitudeMeters>823.20001220703125</AltitudeMeters>
            <DistanceMeters>NAN</DistanceMeters>
          </Trackpoint>
          <Trackpoint>
            <Time>2022-09-18T14:42:19.000Z</Time>
            <Position>
              <LatitudeDegrees>49.29960996843874454498291015625</LatitudeDegrees>
              <LongitudeDegrees>19.9514486454427242279052734375</LongitudeDegrees>
            </Position>
            <AltitudeMeters>823.20001220703125</AltitudeMeters>
            <DistanceMeters>NAN</DistanceMeters>
          </Trackpoint>
          <Trackpoint>
            <Time>2022-09-18T14:42:28.000Z</Time>
            <Position>
              <LatitudeDegrees>49.29960996843874454498291015625</LatitudeDegrees>
              <LongitudeDegrees>19.9514486454427242279052734375</LongitudeDegrees>
            </Position>
            <AltitudeMeters>823.20001220703125</AltitudeMeters>
            <DistanceMeters>NAN</DistanceMeters>
          </Trackpoint>
          <Trackpoint>
            <Time>2022-09-18T14:42:55.000Z</Time>
            <Position>
              <LatitudeDegrees>49.29960996843874454498291015625</LatitudeDegrees>
              <LongitudeDegrees>19.9514486454427242279052734375</LongitudeDegrees>
            </Position>
            <AltitudeMeters>823</AltitudeMeters>
            <DistanceMeters>NAN</DistanceMeters>
          </Trackpoint>
          <Trackpoint>
            <Time>2022-09-18T14:43:04.000Z</Time>
            <Position>
              <LatitudeDegrees>49.29960996843874454498291015625</LatitudeDegrees>
              <LongitudeDegrees>19.9514486454427242279052734375</LongitudeDegrees>
            </Position>
            <AltitudeMeters>822.79998779296875</AltitudeMeters>
            <DistanceMeters>NAN</DistanceMeters>
          </Trackpoint>
          <Trackpoint>
            <Time>2022-09-18T14:43:37.000Z</Time>
            <Position>
              <LatitudeDegrees>49.29960996843874454498291015625</LatitudeDegrees>
              <LongitudeDegrees>19.9514486454427242279052734375</LongitudeDegrees>
            </Position>
            <AltitudeMeters>822.4000244140625</AltitudeMeters>
            <DistanceMeters>NAN</DistanceMeters>
          </Trackpoint>
          <Trackpoint>
            <Time>2022-09-18T14:43:57.000Z</Time>
            <Position>
              <LatitudeDegrees>49.29961181245744228363037109375</LatitudeDegrees>
              <LongitudeDegrees>19.951441101729869842529296875</LongitudeDegrees>
            </Position>
            <AltitudeMeters>822.4000244140625</AltitudeMeters>
            <DistanceMeters>NAN</DistanceMeters>
          </Trackpoint>
          <Trackpoint>
            <Time>2022-09-18T14:43:59.000Z</Time>
            <Position>
              <LatitudeDegrees>49.29961181245744228363037109375</LatitudeDegrees>
              <LongitudeDegrees>19.951441101729869842529296875</LongitudeDegrees>
            </Position>
            <AltitudeMeters>822.4000244140625</AltitudeMeters>
            <DistanceMeters>NAN</DistanceMeters>
          </Trackpoint>
          <Trackpoint>
            <Time>2022-09-18T14:44:17.000Z</Time>
            <Position>
              <LatitudeDegrees>49.29961047135293483734130859375</LatitudeDegrees>
              <LongitudeDegrees>19.95143816806375980377197265625</LongitudeDegrees>
            </Position>
            <AltitudeMeters>822.4000244140625</AltitudeMeters>
            <DistanceMeters>NAN</DistanceMeters>
          </Trackpoint>
          <Trackpoint>
            <Time>2022-09-18T14:44:21.000Z</Time>
            <Position>
              <LatitudeDegrees>49.29959337227046489715576171875</LatitudeDegrees>
              <LongitudeDegrees>19.95136977173388004302978515625</LongitudeDegrees>
            </Position>
            <AltitudeMeters>822.4000244140625</AltitudeMeters>
            <DistanceMeters>NAN</DistanceMeters>
          </Trackpoint>
          <Trackpoint>
            <Time>2022-09-18T14:44:24.000Z</Time>
            <Position>
              <LatitudeDegrees>49.29957979358732700347900390625</LatitudeDegrees>
              <LongitudeDegrees>19.95129768736660480499267578125</LongitudeDegrees>
            </Position>
            <AltitudeMeters>822.20001220703125</AltitudeMeters>
            <DistanceMeters>NAN</DistanceMeters>
          </Trackpoint>
          <Trackpoint>
            <Time>2022-09-18T14:44:29.000Z</Time>
            <Position>
              <LatitudeDegrees>49.2995523847639560699462890625</LatitudeDegrees>
              <LongitudeDegrees>19.95117816142737865447998046875</LongitudeDegrees>
            </Position>
            <AltitudeMeters>822.5999755859375</AltitudeMeters>
            <DistanceMeters>NAN</DistanceMeters>
          </Trackpoint>
          <Trackpoint>
            <Time>2022-09-18T14:44:34.000Z</Time>
            <Position>
              <LatitudeDegrees>49.29953017272055149078369140625</LatitudeDegrees>
              <LongitudeDegrees>19.9510986171662807464599609375</LongitudeDegrees>
            </Position>
            <AltitudeMeters>822.4000244140625</AltitudeMeters>
            <DistanceMeters>NAN</DistanceMeters>
          </Trackpoint>
          <Trackpoint>
            <Time>2022-09-18T14:44:36.000Z</Time>
            <Position>
              <LatitudeDegrees>49.2995319329202175140380859375</LatitudeDegrees>
              <LongitudeDegrees>19.95109518058598041534423828125</LongitudeDegrees>
            </Position>
            <AltitudeMeters>822.4000244140625</AltitudeMeters>
            <DistanceMeters>NAN</DistanceMeters>
          </Trackpoint>
          <Trackpoint>
            <Time>2022-09-18T14:44:43.000Z</Time>
            <Position>
              <LatitudeDegrees>49.29951609112322330474853515625</LatitudeDegrees>
              <LongitudeDegrees>19.95105226524174213409423828125</LongitudeDegrees>
            </Position>
            <AltitudeMeters>822.20001220703125</AltitudeMeters>
            <DistanceMeters>NAN</DistanceMeters>
          </Trackpoint>
          <Trackpoint>
            <Time>2022-09-18T14:44:44.000Z</Time>
            <Position>
              <LatitudeDegrees>49.2995051108300685882568359375</LatitudeDegrees>
              <LongitudeDegrees>19.9510245211422443389892578125</LongitudeDegrees>
            </Position>
            <AltitudeMeters>822.20001220703125</AltitudeMeters>
            <DistanceMeters>NAN</DistanceMeters>
          </Trackpoint>
          <Trackpoint>
            <Time>2022-09-18T14:44:47.000Z</Time>
            <Position>
              <LatitudeDegrees>49.29950502701103687286376953125</LatitudeDegrees>
              <LongitudeDegrees>19.95097883976995944976806640625</LongitudeDegrees>
            </Position>
            <AltitudeMeters>822.20001220703125</AltitudeMeters>
            <DistanceMeters>NAN</DistanceMeters>
          </Trackpoint>
          <Trackpoint>
            <Time>2022-09-18T14:44:49.000Z</Time>
            <Position>
              <LatitudeDegrees>49.29948859848082065582275390625</LatitudeDegrees>
              <LongitudeDegrees>19.95090625248849391937255859375</LongitudeDegrees>
            </Position>
            <AltitudeMeters>821.79998779296875</AltitudeMeters>
            <DistanceMeters>NAN</DistanceMeters>
          </Trackpoint>
          <Trackpoint>
            <Time>2022-09-18T14:44:50.000Z</Time>
            <Position>
              <LatitudeDegrees>49.29948323406279087066650390625</LatitudeDegrees>
              <LongitudeDegrees>19.9508835375308990478515625</LongitudeDegrees>
            </Position>
            <AltitudeMeters>821.5999755859375</AltitudeMeters>
            <DistanceMeters>NAN</DistanceMeters>
          </Trackpoint>
          <Trackpoint>
            <Time>2022-09-18T14:44:54.000Z</Time>
            <Position>
              <LatitudeDegrees>49.29945305921137332916259765625</LatitudeDegrees>
              <LongitudeDegrees>19.95082830078899860382080078125</LongitudeDegrees>
            </Position>
            <AltitudeMeters>821.79998779296875</AltitudeMeters>
            <DistanceMeters>NAN</DistanceMeters>
          </Trackpoint>
          <Trackpoint>
            <Time>2022-09-18T14:44:55.000Z</Time>
            <Position>
              <LatitudeDegrees>49.2994504608213901519775390625</LatitudeDegrees>
              <LongitudeDegrees>19.95081639848649501800537109375</LongitudeDegrees>
            </Position>
            <AltitudeMeters>821.79998779296875</AltitudeMeters>
            <DistanceMeters>NAN</DistanceMeters>
          </Trackpoint>
          <Trackpoint>
            <Time>2022-09-18T14:44:58.000Z</Time>
            <Position>
              <LatitudeDegrees>49.299447946250438690185546875</LatitudeDegrees>
              <LongitudeDegrees>19.95076761581003665924072265625</LongitudeDegrees>
            </Position>
            <AltitudeMeters>821.79998779296875</AltitudeMeters>
            <DistanceMeters>NAN</DistanceMeters>
          </Trackpoint>
          <Trackpoint>
            <Time>2022-09-18T14:45:04.000Z</Time>
            <Position>
              <LatitudeDegrees>49.2994212917983531951904296875</LatitudeDegrees>
              <LongitudeDegrees>19.95065546594560146331787109375</LongitudeDegrees>
            </Position>
            <AltitudeMeters>821.79998779296875</AltitudeMeters>
            <DistanceMeters>NAN</DistanceMeters>
          </Trackpoint>
          <Trackpoint>
            <Time>2022-09-18T14:45:06.000Z</Time>
            <Position>
              <LatitudeDegrees>49.2994212917983531951904296875</LatitudeDegrees>
              <LongitudeDegrees>19.9506473354995250701904296875</LongitudeDegrees>
            </Position>
            <AltitudeMeters>821.5999755859375</AltitudeMeters>
            <DistanceMeters>NAN</DistanceMeters>
          </Trackpoint>
          <Trackpoint>
            <Time>2022-09-18T14:45:18.000Z</Time>
            <Position>
              <LatitudeDegrees>49.2994212917983531951904296875</LatitudeDegrees>
              <LongitudeDegrees>19.9506473354995250701904296875</LongitudeDegrees>
            </Position>
            <AltitudeMeters>821.5999755859375</AltitudeMeters>
            <DistanceMeters>NAN</DistanceMeters>
          </Trackpoint>
          <Trackpoint>
            <Time>2022-09-18T14:45:59.000Z</Time>
            <Position>
              <LatitudeDegrees>49.29941944777965545654296875</LatitudeDegrees>
              <LongitudeDegrees>19.95064758695662021636962890625</LongitudeDegrees>
            </Position>
            <AltitudeMeters>821.4000244140625</AltitudeMeters>
            <DistanceMeters>NAN</DistanceMeters>
          </Trackpoint>
          <Trackpoint>
            <Time>2022-09-18T14:46:02.000Z</Time>
            <Position>
              <LatitudeDegrees>49.29941944777965545654296875</LatitudeDegrees>
              <LongitudeDegrees>19.95064758695662021636962890625</LongitudeDegrees>
            </Position>
            <AltitudeMeters>821.20001220703125</AltitudeMeters>
            <DistanceMeters>NAN</DistanceMeters>
          </Trackpoint>
          <Trackpoint>
            <Time>2022-09-18T14:46:06.000Z</Time>
            <Position>
              <LatitudeDegrees>49.29944149218499660491943359375</LatitudeDegrees>
              <LongitudeDegrees>19.95071413926780223846435546875</LongitudeDegrees>
            </Position>
            <AltitudeMeters>821.20001220703125</AltitudeMeters>
            <DistanceMeters>NAN</DistanceMeters>
          </Trackpoint>
          <Trackpoint>
            <Time>2022-09-18T14:46:13.000Z</Time>
            <Position>
              <LatitudeDegrees>49.2994561605155467987060546875</LatitudeDegrees>
              <LongitudeDegrees>19.9507754109799861907958984375</LongitudeDegrees>
            </Position>
            <AltitudeMeters>821.5999755859375</AltitudeMeters>
            <DistanceMeters>NAN</DistanceMeters>
          </Trackpoint>
          <Trackpoint>
            <Time>2022-09-18T14:46:15.000Z</Time>
            <Position>
              <LatitudeDegrees>49.2994695715606212615966796875</LatitudeDegrees>
              <LongitudeDegrees>19.95082545094192028045654296875</LongitudeDegrees>
            </Position>
            <AltitudeMeters>821.5999755859375</AltitudeMeters>
            <DistanceMeters>NAN</DistanceMeters>
          </Trackpoint>
          <Trackpoint>
            <Time>2022-09-18T14:46:17.000Z</Time>
            <Position>
              <LatitudeDegrees>49.299480132758617401123046875</LatitudeDegrees>
              <LongitudeDegrees>19.9508538655936717987060546875</LongitudeDegrees>
            </Position>
            <AltitudeMeters>821.5999755859375</AltitudeMeters>
            <DistanceMeters>NAN</DistanceMeters>
          </Trackpoint>
          <Trackpoint>
            <Time>2022-09-18T14:46:22.000Z</Time>
            <Position>
              <LatitudeDegrees>49.29951332509517669677734375</LatitudeDegrees>
              <LongitudeDegrees>19.9509584717452526092529296875</LongitudeDegrees>
            </Position>
            <AltitudeMeters>821.5999755859375</AltitudeMeters>
            <DistanceMeters>NAN</DistanceMeters>
          </Trackpoint>
          <Trackpoint>
            <Time>2022-09-18T14:46:31.000Z</Time>
            <Position>
              <LatitudeDegrees>49.29955733008682727813720703125</LatitudeDegrees>
              <LongitudeDegrees>19.95105125941336154937744140625</LongitudeDegrees>
            </Position>
            <AltitudeMeters>822</AltitudeMeters>
            <DistanceMeters>NAN</DistanceMeters>
          </Trackpoint>
          <Trackpoint>
            <Time>2022-09-18T14:46:37.000Z</Time>
            <Position>
              <LatitudeDegrees>49.2995743453502655029296875</LatitudeDegrees>
              <LongitudeDegrees>19.95112560689449310302734375</LongitudeDegrees>
            </Position>
            <AltitudeMeters>821.79998779296875</AltitudeMeters>
            <DistanceMeters>NAN</DistanceMeters>
          </Trackpoint>
          <Trackpoint>
            <Time>2022-09-18T14:46:42.000Z</Time>
            <Position>
              <LatitudeDegrees>49.299589097499847412109375</LatitudeDegrees>
              <LongitudeDegrees>19.951193332672119140625</LongitudeDegrees>
            </Position>
            <AltitudeMeters>821.79998779296875</AltitudeMeters>
            <DistanceMeters>NAN</DistanceMeters>
          </Trackpoint>
          <Trackpoint>
            <Time>2022-09-18T14:46:43.000Z</Time>
            <Position>
              <LatitudeDegrees>49.2996023409068584442138671875</LatitudeDegrees>
              <LongitudeDegrees>19.9512126110494136810302734375</LongitudeDegrees>
            </Position>
            <AltitudeMeters>821.79998779296875</AltitudeMeters>
            <DistanceMeters>NAN</DistanceMeters>
          </Trackpoint>
          <Trackpoint>
            <Time>2022-09-18T14:46:49.000Z</Time>
            <Position>
              <LatitudeDegrees>49.29960292764008045196533203125</LatitudeDegrees>
              <LongitudeDegrees>19.95129751972854137420654296875</LongitudeDegrees>
            </Position>
            <AltitudeMeters>822</AltitudeMeters>
            <DistanceMeters>NAN</DistanceMeters>
          </Trackpoint>
          <Trackpoint>
            <Time>2022-09-18T14:46:56.000Z</Time>
            <Position>
              <LatitudeDegrees>49.29963611997663974761962890625</LatitudeDegrees>
              <LongitudeDegrees>19.951399862766265869140625</LongitudeDegrees>
            </Position>
            <AltitudeMeters>822</AltitudeMeters>
            <DistanceMeters>NAN</DistanceMeters>
          </Trackpoint>
          <Trackpoint>
            <Time>2022-09-18T14:47:06.000Z</Time>
            <Position>
              <LatitudeDegrees>49.299653135240077972412109375</LatitudeDegrees>
              <LongitudeDegrees>19.951500780880451202392578125</LongitudeDegrees>
            </Position>
            <AltitudeMeters>822</AltitudeMeters>
            <DistanceMeters>NAN</DistanceMeters>
          </Trackpoint>
          <Trackpoint>
            <Time>2022-09-18T14:47:11.000Z</Time>
            <Position>
              <LatitudeDegrees>49.29957744665443897247314453125</LatitudeDegrees>
              <LongitudeDegrees>19.9515348114073276519775390625</LongitudeDegrees>
            </Position>
            <AltitudeMeters>822.20001220703125</AltitudeMeters>
            <DistanceMeters>NAN</DistanceMeters>
          </Trackpoint>
          <Trackpoint>
            <Time>2022-09-18T14:47:15.000Z</Time>
            <Position>
              <LatitudeDegrees>49.299498237669467926025390625</LatitudeDegrees>
              <LongitudeDegrees>19.95158962905406951904296875</LongitudeDegrees>
            </Position>
            <AltitudeMeters>822</AltitudeMeters>
            <DistanceMeters>NAN</DistanceMeters>
          </Trackpoint>
          <Trackpoint>
            <Time>2022-09-18T14:47:19.000Z</Time>
            <Position>
              <LatitudeDegrees>49.299464039504528045654296875</LatitudeDegrees>
              <LongitudeDegrees>19.9516055546700954437255859375</LongitudeDegrees>
            </Position>
            <AltitudeMeters>822</AltitudeMeters>
            <DistanceMeters>NAN</DistanceMeters>
          </Trackpoint>
          <Trackpoint>
            <Time>2022-09-18T14:47:24.000Z</Time>
            <Position>
              <LatitudeDegrees>49.29943545721471309661865234375</LatitudeDegrees>
              <LongitudeDegrees>19.95161871425807476043701171875</LongitudeDegrees>
            </Position>
            <AltitudeMeters>822.20001220703125</AltitudeMeters>
            <DistanceMeters>NAN</DistanceMeters>
          </Trackpoint>
          <Trackpoint>
            <Time>2022-09-18T14:47:26.000Z</Time>
            <Position>
              <LatitudeDegrees>49.299431852996349334716796875</LatitudeDegrees>
              <LongitudeDegrees>19.951633550226688385009765625</LongitudeDegrees>
            </Position>
            <AltitudeMeters>822.20001220703125</AltitudeMeters>
            <DistanceMeters>NAN</DistanceMeters>
          </Trackpoint>
          <Trackpoint>
            <Time>2022-09-18T14:47:27.000Z</Time>
            <Position>
              <LatitudeDegrees>49.2994246445596218109130859375</LatitudeDegrees>
              <LongitudeDegrees>19.95167520828545093536376953125</LongitudeDegrees>
            </Position>
            <AltitudeMeters>822.20001220703125</AltitudeMeters>
            <DistanceMeters>NAN</DistanceMeters>
          </Trackpoint>
          <Trackpoint>
            <Time>2022-09-18T14:47:29.000Z</Time>
            <Position>
              <LatitudeDegrees>49.299418441951274871826171875</LatitudeDegrees>
              <LongitudeDegrees>19.95169599540531635284423828125</LongitudeDegrees>
            </Position>
            <AltitudeMeters>822.20001220703125</AltitudeMeters>
            <DistanceMeters>NAN</DistanceMeters>
          </Trackpoint>
          <Trackpoint>
            <Time>2022-09-18T14:47:32.000Z</Time>
            <Position>
              <LatitudeDegrees>49.299390949308872222900390625</LatitudeDegrees>
              <LongitudeDegrees>19.95173287577927112579345703125</LongitudeDegrees>
            </Position>
            <AltitudeMeters>822.20001220703125</AltitudeMeters>
            <DistanceMeters>NAN</DistanceMeters>
          </Trackpoint>
          <Trackpoint>
            <Time>2022-09-18T14:47:35.000Z</Time>
            <Position>
              <LatitudeDegrees>49.29938617162406444549560546875</LatitudeDegrees>
              <LongitudeDegrees>19.951751232147216796875</LongitudeDegrees>
            </Position>
            <AltitudeMeters>822.4000244140625</AltitudeMeters>
            <DistanceMeters>NAN</DistanceMeters>
          </Trackpoint>
          <Trackpoint>
            <Time>2022-09-18T14:47:38.000Z</Time>
            <Position>
              <LatitudeDegrees>49.299365468323230743408203125</LatitudeDegrees>
              <LongitudeDegrees>19.9517552554607391357421875</LongitudeDegrees>
            </Position>
            <AltitudeMeters>822.4000244140625</AltitudeMeters>
            <DistanceMeters>NAN</DistanceMeters>
          </Trackpoint>
          <Trackpoint>
            <Time>2022-09-18T14:47:46.000Z</Time>
            <Position>
              <LatitudeDegrees>49.2993123270571231842041015625</LatitudeDegrees>
              <LongitudeDegrees>19.95169783942401409149169921875</LongitudeDegrees>
            </Position>
            <AltitudeMeters>822.4000244140625</AltitudeMeters>
            <DistanceMeters>NAN</DistanceMeters>
          </Trackpoint>
          <Trackpoint>
            <Time>2022-09-18T14:47:48.000Z</Time>
            <Position>
              <LatitudeDegrees>49.2993026040494441986083984375</LatitudeDegrees>
              <LongitudeDegrees>19.9516823329031467437744140625</LongitudeDegrees>
            </Position>
            <AltitudeMeters>822.4000244140625</AltitudeMeters>
            <DistanceMeters>NAN</DistanceMeters>
          </Trackpoint>
          <Trackpoint>
            <Time>2022-09-18T14:47:50.000Z</Time>
            <Position>
              <LatitudeDegrees>49.299293048679828643798828125</LatitudeDegrees>
              <LongitudeDegrees>19.9516504816710948944091796875</LongitudeDegrees>
            </Position>
            <AltitudeMeters>822.4000244140625</AltitudeMeters>
            <DistanceMeters>NAN</DistanceMeters>
          </Trackpoint>
          <Trackpoint>
            <Time>2022-09-18T14:47:52.000Z</Time>
            <Position>
              <LatitudeDegrees>49.299282319843769073486328125</LatitudeDegrees>
              <LongitudeDegrees>19.9516266770660877227783203125</LongitudeDegrees>
            </Position>
            <AltitudeMeters>822.4000244140625</AltitudeMeters>
            <DistanceMeters>NAN</DistanceMeters>
          </Trackpoint>
          <Trackpoint>
            <Time>2022-09-18T14:47:53.000Z</Time>
            <Position>
              <LatitudeDegrees>49.29927452467381954193115234375</LatitudeDegrees>
              <LongitudeDegrees>19.9516122601926326751708984375</LongitudeDegrees>
            </Position>
            <AltitudeMeters>822.4000244140625</AltitudeMeters>
            <DistanceMeters>NAN</DistanceMeters>
          </Trackpoint>
          <Trackpoint>
            <Time>2022-09-18T14:47:59.000Z</Time>
            <Position>
              <LatitudeDegrees>49.29922498762607574462890625</LatitudeDegrees>
              <LongitudeDegrees>19.951561801135540008544921875</LongitudeDegrees>
            </Position>
            <AltitudeMeters>822.20001220703125</AltitudeMeters>
            <DistanceMeters>NAN</DistanceMeters>
          </Trackpoint>
          <Trackpoint>
            <Time>2022-09-18T14:48:06.000Z</Time>
            <Position>
              <LatitudeDegrees>49.2992164380848407745361328125</LatitudeDegrees>
              <LongitudeDegrees>19.95148862712085247039794921875</LongitudeDegrees>
            </Position>
            <AltitudeMeters>822.4000244140625</AltitudeMeters>
            <DistanceMeters>NAN</DistanceMeters>
          </Trackpoint>
          <Trackpoint>
            <Time>2022-09-18T14:48:12.000Z</Time>
            <Position>
              <LatitudeDegrees>49.29914980195462703704833984375</LatitudeDegrees>
              <LongitudeDegrees>19.9514265172183513641357421875</LongitudeDegrees>
            </Position>
            <AltitudeMeters>822.4000244140625</AltitudeMeters>
            <DistanceMeters>NAN</DistanceMeters>
          </Trackpoint>
          <Trackpoint>
            <Time>2022-09-18T14:48:20.000Z</Time>
            <Position>
              <LatitudeDegrees>49.2990982532501220703125</LatitudeDegrees>
              <LongitudeDegrees>19.951360635459423065185546875</LongitudeDegrees>
            </Position>
            <AltitudeMeters>822.20001220703125</AltitudeMeters>
            <DistanceMeters>NAN</DistanceMeters>
          </Trackpoint>
          <Trackpoint>
            <Time>2022-09-18T14:48:28.000Z</Time>
            <Position>
              <LatitudeDegrees>49.298998676240444183349609375</LatitudeDegrees>
              <LongitudeDegrees>19.95141637511551380157470703125</LongitudeDegrees>
            </Position>
            <AltitudeMeters>822.4000244140625</AltitudeMeters>
            <DistanceMeters>NAN</DistanceMeters>
          </Trackpoint>
          <Trackpoint>
            <Time>2022-09-18T14:48:35.000Z</Time>
            <Position>
              <LatitudeDegrees>49.29890052415430545806884765625</LatitudeDegrees>
              <LongitudeDegrees>19.9514550156891345977783203125</LongitudeDegrees>
            </Position>
            <AltitudeMeters>822.79998779296875</AltitudeMeters>
            <DistanceMeters>NAN</DistanceMeters>
          </Trackpoint>
          <Trackpoint>
            <Time>2022-09-18T14:48:46.000Z</Time>
            <Position>
              <LatitudeDegrees>49.2988074012100696563720703125</LatitudeDegrees>
              <LongitudeDegrees>19.951517879962921142578125</LongitudeDegrees>
            </Position>
            <AltitudeMeters>822.79998779296875</AltitudeMeters>
            <DistanceMeters>NAN</DistanceMeters>
          </Trackpoint>
          <Trackpoint>
            <Time>2022-09-18T14:48:55.000Z</Time>
            <Position>
              <LatitudeDegrees>49.29873288609087467193603515625</LatitudeDegrees>
              <LongitudeDegrees>19.95156808756291866302490234375</LongitudeDegrees>
            </Position>
            <AltitudeMeters>823</AltitudeMeters>
            <DistanceMeters>NAN</DistanceMeters>
          </Trackpoint>
          <Trackpoint>
            <Time>2022-09-18T14:48:57.000Z</Time>
            <Position>
              <LatitudeDegrees>49.29870924912393093109130859375</LatitudeDegrees>
              <LongitudeDegrees>19.95156356133520603179931640625</LongitudeDegrees>
            </Position>
            <AltitudeMeters>823.20001220703125</AltitudeMeters>
            <DistanceMeters>NAN</DistanceMeters>
          </Trackpoint>
          <Trackpoint>
            <Time>2022-09-18T14:48:59.000Z</Time>
            <Position>
              <LatitudeDegrees>49.29869583807885646820068359375</LatitudeDegrees>
              <LongitudeDegrees>19.95156674645841121673583984375</LongitudeDegrees>
            </Position>
            <AltitudeMeters>823.20001220703125</AltitudeMeters>
            <DistanceMeters>NAN</DistanceMeters>
          </Trackpoint>
          <Trackpoint>
            <Time>2022-09-18T14:49:00.000Z</Time>
            <Position>
              <LatitudeDegrees>49.29869449697434902191162109375</LatitudeDegrees>
              <LongitudeDegrees>19.95156624354422092437744140625</LongitudeDegrees>
            </Position>
            <AltitudeMeters>823.20001220703125</AltitudeMeters>
            <DistanceMeters>NAN</DistanceMeters>
          </Trackpoint>
          <Trackpoint>
            <Time>2022-09-18T14:49:01.000Z</Time>
            <Position>
              <LatitudeDegrees>49.29869416169822216033935546875</LatitudeDegrees>
              <LongitudeDegrees>19.9515690095722675323486328125</LongitudeDegrees>
            </Position>
            <AltitudeMeters>823.20001220703125</AltitudeMeters>
            <DistanceMeters>NAN</DistanceMeters>
          </Trackpoint>
          <Trackpoint>
            <Time>2022-09-18T14:49:02.000Z</Time>
            <Position>
              <LatitudeDegrees>49.29869256913661956787109375</LatitudeDegrees>
              <LongitudeDegrees>19.95156951248645782470703125</LongitudeDegrees>
            </Position>
            <AltitudeMeters>823.20001220703125</AltitudeMeters>
            <DistanceMeters>NAN</DistanceMeters>
          </Trackpoint>
          <Trackpoint>
            <Time>2022-09-18T14:49:07.000Z</Time>
            <Position>
              <LatitudeDegrees>49.2986739613115787506103515625</LatitudeDegrees>
              <LongitudeDegrees>19.95158535428345203399658203125</LongitudeDegrees>
            </Position>
            <AltitudeMeters>823.4000244140625</AltitudeMeters>
            <DistanceMeters>NAN</DistanceMeters>
          </Trackpoint>
          <Trackpoint>
            <Time>2022-09-18T14:49:09.000Z</Time>
            <Position>
              <LatitudeDegrees>49.29866834543645381927490234375</LatitudeDegrees>
              <LongitudeDegrees>19.9515985138714313507080078125</LongitudeDegrees>
            </Position>
            <AltitudeMeters>823.4000244140625</AltitudeMeters>
            <DistanceMeters>NAN</DistanceMeters>
          </Trackpoint>
          <Trackpoint>
            <Time>2022-09-18T14:49:16.000Z</Time>
            <Position>
              <LatitudeDegrees>49.29866516031324863433837890625</LatitudeDegrees>
              <LongitudeDegrees>19.95164117775857448577880859375</LongitudeDegrees>
            </Position>
            <AltitudeMeters>823.5999755859375</AltitudeMeters>
            <DistanceMeters>NAN</DistanceMeters>
          </Trackpoint>
          <Trackpoint>
            <Time>2022-09-18T14:49:19.000Z</Time>
            <Position>
              <LatitudeDegrees>49.298658035695552825927734375</LatitudeDegrees>
              <LongitudeDegrees>19.95167738758027553558349609375</LongitudeDegrees>
            </Position>
            <AltitudeMeters>823.79998779296875</AltitudeMeters>
            <DistanceMeters>NAN</DistanceMeters>
          </Trackpoint>
          <Trackpoint>
            <Time>2022-09-18T14:49:23.000Z</Time>
            <Position>
              <LatitudeDegrees>49.2986568622291088104248046875</LatitudeDegrees>
              <LongitudeDegrees>19.95168157853186130523681640625</LongitudeDegrees>
            </Position>
            <AltitudeMeters>823.79998779296875</AltitudeMeters>
            <DistanceMeters>NAN</DistanceMeters>
          </Trackpoint>
          <Trackpoint>
            <Time>2022-09-18T14:49:24.000Z</Time>
            <Position>
              <LatitudeDegrees>49.2986592091619968414306640625</LatitudeDegrees>
              <LongitudeDegrees>19.9516910500824451446533203125</LongitudeDegrees>
            </Position>
            <AltitudeMeters>823.79998779296875</AltitudeMeters>
            <DistanceMeters>NAN</DistanceMeters>
          </Trackpoint>
          <Trackpoint>
            <Time>2022-09-18T14:49:30.000Z</Time>
            <Position>
              <LatitudeDegrees>49.2986266873776912689208984375</LatitudeDegrees>
              <LongitudeDegrees>19.9518087320029735565185546875</LongitudeDegrees>
            </Position>
            <AltitudeMeters>823.5999755859375</AltitudeMeters>
            <DistanceMeters>NAN</DistanceMeters>
          </Trackpoint>
          <Trackpoint>
            <Time>2022-09-18T14:49:31.000Z</Time>
            <Position>
              <LatitudeDegrees>49.298621155321598052978515625</LatitudeDegrees>
              <LongitudeDegrees>19.95182289741933345794677734375</LongitudeDegrees>
            </Position>
            <AltitudeMeters>823.4000244140625</AltitudeMeters>
            <DistanceMeters>NAN</DistanceMeters>
          </Trackpoint>
          <Trackpoint>
            <Time>2022-09-18T14:49:33.000Z</Time>
            <Position>
              <LatitudeDegrees>49.298607409000396728515625</LatitudeDegrees>
              <LongitudeDegrees>19.95184049941599369049072265625</LongitudeDegrees>
            </Position>
            <AltitudeMeters>823.4000244140625</AltitudeMeters>
            <DistanceMeters>NAN</DistanceMeters>
          </Trackpoint>
          <Trackpoint>
            <Time>2022-09-18T14:49:36.000Z</Time>
            <Position>
              <LatitudeDegrees>49.2985926568508148193359375</LatitudeDegrees>
              <LongitudeDegrees>19.95184888131916522979736328125</LongitudeDegrees>
            </Position>
            <AltitudeMeters>823.4000244140625</AltitudeMeters>
            <DistanceMeters>NAN</DistanceMeters>
          </Trackpoint>
          <Trackpoint>
            <Time>2022-09-18T14:49:37.000Z</Time>
            <Position>
              <LatitudeDegrees>49.2985926568508148193359375</LatitudeDegrees>
              <LongitudeDegrees>19.95184888131916522979736328125</LongitudeDegrees>
            </Position>
            <AltitudeMeters>823.4000244140625</AltitudeMeters>
            <DistanceMeters>NAN</DistanceMeters>
          </Trackpoint>
          <Trackpoint>
            <Time>2022-09-18T14:49:38.000Z</Time>
            <Position>
              <LatitudeDegrees>49.29857991635799407958984375</LatitudeDegrees>
              <LongitudeDegrees>19.9518585205078125</LongitudeDegrees>
            </Position>
            <AltitudeMeters>823.4000244140625</AltitudeMeters>
            <DistanceMeters>NAN</DistanceMeters>
          </Trackpoint>
          <Trackpoint>
            <Time>2022-09-18T14:49:39.000Z</Time>
            <Position>
              <LatitudeDegrees>49.29856843315064907073974609375</LatitudeDegrees>
              <LongitudeDegrees>19.951867572963237762451171875</LongitudeDegrees>
            </Position>
            <AltitudeMeters>823.4000244140625</AltitudeMeters>
            <DistanceMeters>NAN</DistanceMeters>
          </Trackpoint>
          <Trackpoint>
            <Time>2022-09-18T14:49:40.000Z</Time>
            <Position>
              <LatitudeDegrees>49.29856256581842899322509765625</LatitudeDegrees>
              <LongitudeDegrees>19.951870255172252655029296875</LongitudeDegrees>
            </Position>
            <AltitudeMeters>823.4000244140625</AltitudeMeters>
            <DistanceMeters>NAN</DistanceMeters>
          </Trackpoint>
          <Trackpoint>
            <Time>2022-09-18T14:49:41.000Z</Time>
            <Position>
              <LatitudeDegrees>49.2985539324581623077392578125</LatitudeDegrees>
              <LongitudeDegrees>19.9518774636089801788330078125</LongitudeDegrees>
            </Position>
            <AltitudeMeters>823.4000244140625</AltitudeMeters>
            <DistanceMeters>NAN</DistanceMeters>
          </Trackpoint>
          <Trackpoint>
            <Time>2022-09-18T14:49:42.000Z</Time>
            <Position>
              <LatitudeDegrees>49.29853959940373897552490234375</LatitudeDegrees>
              <LongitudeDegrees>19.9518922157585620880126953125</LongitudeDegrees>
            </Position>
            <AltitudeMeters>823.4000244140625</AltitudeMeters>
            <DistanceMeters>NAN</DistanceMeters>
          </Trackpoint>
          <Trackpoint>
            <Time>2022-09-18T14:49:44.000Z</Time>
            <Position>
              <LatitudeDegrees>49.29852082394063472747802734375</LatitudeDegrees>
              <LongitudeDegrees>19.95191174559295177459716796875</LongitudeDegrees>
            </Position>
            <AltitudeMeters>823.5999755859375</AltitudeMeters>
            <DistanceMeters>NAN</DistanceMeters>
          </Trackpoint>
          <Trackpoint>
            <Time>2022-09-18T14:49:49.000Z</Time>
            <Position>
              <LatitudeDegrees>49.29846215061843395233154296875</LatitudeDegrees>
              <LongitudeDegrees>19.95194510556757450103759765625</LongitudeDegrees>
            </Position>
            <AltitudeMeters>823.5999755859375</AltitudeMeters>
            <DistanceMeters>NAN</DistanceMeters>
          </Trackpoint>
          <Trackpoint>
            <Time>2022-09-18T14:49:51.000Z</Time>
            <Position>
              <LatitudeDegrees>49.298439435660839080810546875</LatitudeDegrees>
              <LongitudeDegrees>19.95196354575455188751220703125</LongitudeDegrees>
            </Position>
            <AltitudeMeters>823.4000244140625</AltitudeMeters>
            <DistanceMeters>NAN</DistanceMeters>
          </Trackpoint>
          <Trackpoint>
            <Time>2022-09-18T14:49:58.000Z</Time>
            <Position>
              <LatitudeDegrees>49.29835637100040912628173828125</LatitudeDegrees>
              <LongitudeDegrees>19.9520400725305080413818359375</LongitudeDegrees>
            </Position>
            <AltitudeMeters>823.79998779296875</AltitudeMeters>
            <DistanceMeters>NAN</DistanceMeters>
          </Trackpoint>
          <Trackpoint>
            <Time>2022-09-18T14:50:06.000Z</Time>
            <Position>
              <LatitudeDegrees>49.298247992992401123046875</LatitudeDegrees>
              <LongitudeDegrees>19.95210402645170688629150390625</LongitudeDegrees>
            </Position>
            <AltitudeMeters>823.79998779296875</AltitudeMeters>
            <DistanceMeters>NAN</DistanceMeters>
          </Trackpoint>
          <Trackpoint>
            <Time>2022-09-18T14:50:12.000Z</Time>
            <Position>
              <LatitudeDegrees>49.29819996468722820281982421875</LatitudeDegrees>
              <LongitudeDegrees>19.9521054513752460479736328125</LongitudeDegrees>
            </Position>
            <AltitudeMeters>824.20001220703125</AltitudeMeters>
            <DistanceMeters>NAN</DistanceMeters>
          </Trackpoint>
          <Trackpoint>
            <Time>2022-09-18T14:50:14.000Z</Time>
            <Position>
              <LatitudeDegrees>49.29817867465317249298095703125</LatitudeDegrees>
              <LongitudeDegrees>19.95211006142199039459228515625</LongitudeDegrees>
            </Position>
            <AltitudeMeters>824.5999755859375</AltitudeMeters>
            <DistanceMeters>NAN</DistanceMeters>
          </Trackpoint>
          <Trackpoint>
            <Time>2022-09-18T14:50:19.000Z</Time>
            <Position>
              <LatitudeDegrees>49.2981381900608539581298828125</LatitudeDegrees>
              <LongitudeDegrees>19.95214140973985195159912109375</LongitudeDegrees>
            </Position>
            <AltitudeMeters>824.79998779296875</AltitudeMeters>
            <DistanceMeters>NAN</DistanceMeters>
          </Trackpoint>
          <Trackpoint>
            <Time>2022-09-18T14:50:22.000Z</Time>
            <Position>
              <LatitudeDegrees>49.29811513982713222503662109375</LatitudeDegrees>
              <LongitudeDegrees>19.95215155184268951416015625</LongitudeDegrees>
            </Position>
            <AltitudeMeters>824.79998779296875</AltitudeMeters>
            <DistanceMeters>NAN</DistanceMeters>
          </Trackpoint>
          <Trackpoint>
            <Time>2022-09-18T14:50:25.000Z</Time>
            <Position>
              <LatitudeDegrees>49.29810457862913608551025390625</LatitudeDegrees>
              <LongitudeDegrees>19.95216035284101963043212890625</LongitudeDegrees>
            </Position>
            <AltitudeMeters>825</AltitudeMeters>
            <DistanceMeters>NAN</DistanceMeters>
          </Trackpoint>
          <Trackpoint>
            <Time>2022-09-18T14:50:27.000Z</Time>
            <Position>
              <LatitudeDegrees>49.29809016175568103790283203125</LatitudeDegrees>
              <LongitudeDegrees>19.95216806419193744659423828125</LongitudeDegrees>
            </Position>
            <AltitudeMeters>825.20001220703125</AltitudeMeters>
            <DistanceMeters>NAN</DistanceMeters>
          </Trackpoint>
          <Trackpoint>
            <Time>2022-09-18T14:50:28.000Z</Time>
            <Position>
              <LatitudeDegrees>49.2980868928134441375732421875</LatitudeDegrees>
              <LongitudeDegrees>19.95217409916222095489501953125</LongitudeDegrees>
            </Position>
            <AltitudeMeters>825.20001220703125</AltitudeMeters>
            <DistanceMeters>NAN</DistanceMeters>
          </Trackpoint>
          <Trackpoint>
            <Time>2022-09-18T14:50:30.000Z</Time>
            <Position>
              <LatitudeDegrees>49.2980775050818920135498046875</LatitudeDegrees>
              <LongitudeDegrees>19.95217812247574329376220703125</LongitudeDegrees>
            </Position>
            <AltitudeMeters>825.20001220703125</AltitudeMeters>
            <DistanceMeters>NAN</DistanceMeters>
          </Trackpoint>
          <Trackpoint>
            <Time>2022-09-18T14:50:38.000Z</Time>
            <Position>
              <LatitudeDegrees>49.2980305664241313934326171875</LatitudeDegrees>
              <LongitudeDegrees>19.95221366174519062042236328125</LongitudeDegrees>
            </Position>
            <AltitudeMeters>825.79998779296875</AltitudeMeters>
            <DistanceMeters>NAN</DistanceMeters>
          </Trackpoint>
          <Trackpoint>
            <Time>2022-09-18T14:50:40.000Z</Time>
            <Position>
              <LatitudeDegrees>49.29801103658974170684814453125</LatitudeDegrees>
              <LongitudeDegrees>19.95223981328308582305908203125</LongitudeDegrees>
            </Position>
            <AltitudeMeters>825.79998779296875</AltitudeMeters>
            <DistanceMeters>NAN</DistanceMeters>
          </Trackpoint>
          <Trackpoint>
            <Time>2022-09-18T14:50:41.000Z</Time>
            <Position>
              <LatitudeDegrees>49.29799997247755527496337890625</LatitudeDegrees>
              <LongitudeDegrees>19.95225087739527225494384765625</LongitudeDegrees>
            </Position>
            <AltitudeMeters>825.79998779296875</AltitudeMeters>
            <DistanceMeters>NAN</DistanceMeters>
          </Trackpoint>
          <Trackpoint>
            <Time>2022-09-18T14:50:43.000Z</Time>
            <Position>
              <LatitudeDegrees>49.29798002354800701141357421875</LatitudeDegrees>
              <LongitudeDegrees>19.9522680602967739105224609375</LongitudeDegrees>
            </Position>
            <AltitudeMeters>825.5999755859375</AltitudeMeters>
            <DistanceMeters>NAN</DistanceMeters>
          </Trackpoint>
          <Trackpoint>
            <Time>2022-09-18T14:50:45.000Z</Time>
            <Position>
              <LatitudeDegrees>49.297980777919292449951171875</LatitudeDegrees>
              <LongitudeDegrees>19.9522821418941020965576171875</LongitudeDegrees>
            </Position>
            <AltitudeMeters>825.4000244140625</AltitudeMeters>
            <DistanceMeters>NAN</DistanceMeters>
          </Trackpoint>
          <Trackpoint>
            <Time>2022-09-18T14:50:48.000Z</Time>
            <Position>
              <LatitudeDegrees>49.29797281511127948760986328125</LatitudeDegrees>
              <LongitudeDegrees>19.95228038169443607330322265625</LongitudeDegrees>
            </Position>
            <AltitudeMeters>825.4000244140625</AltitudeMeters>
            <DistanceMeters>NAN</DistanceMeters>
          </Trackpoint>
          <Trackpoint>
            <Time>2022-09-18T14:50:49.000Z</Time>
            <Position>
              <LatitudeDegrees>49.29796577431261539459228515625</LatitudeDegrees>
              <LongitudeDegrees>19.952283315360546112060546875</LongitudeDegrees>
            </Position>
            <AltitudeMeters>825.4000244140625</AltitudeMeters>
            <DistanceMeters>NAN</DistanceMeters>
          </Trackpoint>
          <Trackpoint>
            <Time>2022-09-18T14:50:59.000Z</Time>
            <Position>
              <LatitudeDegrees>49.29787717759609222412109375</LatitudeDegrees>
              <LongitudeDegrees>19.95230980217456817626953125</LongitudeDegrees>
            </Position>
            <AltitudeMeters>825.79998779296875</AltitudeMeters>
            <DistanceMeters>NAN</DistanceMeters>
          </Trackpoint>
          <Trackpoint>
            <Time>2022-09-18T14:51:00.000Z</Time>
            <Position>
              <LatitudeDegrees>49.297870807349681854248046875</LatitudeDegrees>
              <LongitudeDegrees>19.9523158371448516845703125</LongitudeDegrees>
            </Position>
            <AltitudeMeters>826</AltitudeMeters>
            <DistanceMeters>NAN</DistanceMeters>
          </Trackpoint>
          <Trackpoint>
            <Time>2022-09-18T14:51:02.000Z</Time>
            <Position>
              <LatitudeDegrees>49.29785613901913166046142578125</LatitudeDegrees>
              <LongitudeDegrees>19.95232296176254749298095703125</LongitudeDegrees>
            </Position>
            <AltitudeMeters>826.20001220703125</AltitudeMeters>
            <DistanceMeters>NAN</DistanceMeters>
          </Trackpoint>
          <Trackpoint>
            <Time>2022-09-18T14:51:06.000Z</Time>
            <Position>
              <LatitudeDegrees>49.2978391237556934356689453125</LatitudeDegrees>
              <LongitudeDegrees>19.95233058929443359375</LongitudeDegrees>
            </Position>
            <AltitudeMeters>827.20001220703125</AltitudeMeters>
            <DistanceMeters>NAN</DistanceMeters>
          </Trackpoint>
          <Trackpoint>
            <Time>2022-09-18T14:51:07.000Z</Time>
            <Position>
              <LatitudeDegrees>49.2978391237556934356689453125</LatitudeDegrees>
              <LongitudeDegrees>19.95233058929443359375</LongitudeDegrees>
            </Position>
            <AltitudeMeters>827.20001220703125</AltitudeMeters>
            <DistanceMeters>NAN</DistanceMeters>
          </Trackpoint>
          <Trackpoint>
            <Time>2022-09-18T14:51:10.000Z</Time>
            <Position>
              <LatitudeDegrees>49.29782059974968433380126953125</LatitudeDegrees>
              <LongitudeDegrees>19.952314831316471099853515625</LongitudeDegrees>
            </Position>
            <AltitudeMeters>827.4000244140625</AltitudeMeters>
            <DistanceMeters>NAN</DistanceMeters>
          </Trackpoint>
          <Trackpoint>
            <Time>2022-09-18T14:51:15.000Z</Time>
            <Position>
              <LatitudeDegrees>49.2977898381650447845458984375</LatitudeDegrees>
              <LongitudeDegrees>19.95230955071747303009033203125</LongitudeDegrees>
            </Position>
            <AltitudeMeters>827</AltitudeMeters>
            <DistanceMeters>NAN</DistanceMeters>
          </Trackpoint>
          <Trackpoint>
            <Time>2022-09-18T14:51:19.000Z</Time>
            <Position>
              <LatitudeDegrees>49.2977898381650447845458984375</LatitudeDegrees>
              <LongitudeDegrees>19.95230955071747303009033203125</LongitudeDegrees>
            </Position>
            <AltitudeMeters>827</AltitudeMeters>
            <DistanceMeters>NAN</DistanceMeters>
          </Trackpoint>
          <Trackpoint>
            <Time>2022-09-18T14:51:25.000Z</Time>
            <Position>
              <LatitudeDegrees>49.2977898381650447845458984375</LatitudeDegrees>
              <LongitudeDegrees>19.95230955071747303009033203125</LongitudeDegrees>
            </Position>
            <AltitudeMeters>826.79998779296875</AltitudeMeters>
            <DistanceMeters>NAN</DistanceMeters>
          </Trackpoint>
          <Trackpoint>
            <Time>2022-09-18T14:51:28.000Z</Time>
            <Position>
              <LatitudeDegrees>49.2977898381650447845458984375</LatitudeDegrees>
              <LongitudeDegrees>19.95230955071747303009033203125</LongitudeDegrees>
            </Position>
            <AltitudeMeters>826.79998779296875</AltitudeMeters>
            <DistanceMeters>NAN</DistanceMeters>
          </Trackpoint>
          <Trackpoint>
            <Time>2022-09-18T14:51:36.000Z</Time>
            <Position>
              <LatitudeDegrees>49.2977559752762317657470703125</LatitudeDegrees>
              <LongitudeDegrees>19.952318854629993438720703125</LongitudeDegrees>
            </Position>
            <AltitudeMeters>827.4000244140625</AltitudeMeters>
            <DistanceMeters>NAN</DistanceMeters>
          </Trackpoint>
          <Trackpoint>
            <Time>2022-09-18T14:51:37.000Z</Time>
            <Position>
              <LatitudeDegrees>49.2977398820221424102783203125</LatitudeDegrees>
              <LongitudeDegrees>19.9523212015628814697265625</LongitudeDegrees>
            </Position>
            <AltitudeMeters>827.4000244140625</AltitudeMeters>
            <DistanceMeters>NAN</DistanceMeters>
          </Trackpoint>
          <Trackpoint>
            <Time>2022-09-18T14:51:44.000Z</Time>
            <Position>
              <LatitudeDegrees>49.29764457978308200836181640625</LatitudeDegrees>
              <LongitudeDegrees>19.9523639492690563201904296875</LongitudeDegrees>
            </Position>
            <AltitudeMeters>828</AltitudeMeters>
            <DistanceMeters>NAN</DistanceMeters>
          </Trackpoint>
          <Trackpoint>
            <Time>2022-09-18T14:51:46.000Z</Time>
            <Position>
              <LatitudeDegrees>49.29763820953667163848876953125</LatitudeDegrees>
              <LongitudeDegrees>19.95236638002097606658935546875</LongitudeDegrees>
            </Position>
            <AltitudeMeters>828</AltitudeMeters>
            <DistanceMeters>NAN</DistanceMeters>
          </Trackpoint>
          <Trackpoint>
            <Time>2022-09-18T14:51:48.000Z</Time>
            <Position>
              <LatitudeDegrees>49.2976258881390094757080078125</LatitudeDegrees>
              <LongitudeDegrees>19.95236612856388092041015625</LongitudeDegrees>
            </Position>
            <AltitudeMeters>828</AltitudeMeters>
            <DistanceMeters>NAN</DistanceMeters>
          </Trackpoint>
          <Trackpoint>
            <Time>2022-09-18T14:51:50.000Z</Time>
            <Position>
              <LatitudeDegrees>49.29758707992732524871826171875</LatitudeDegrees>
              <LongitudeDegrees>19.952386915683746337890625</LongitudeDegrees>
            </Position>
            <AltitudeMeters>828</AltitudeMeters>
            <DistanceMeters>NAN</DistanceMeters>
          </Trackpoint>
          <Trackpoint>
            <Time>2022-09-18T14:51:53.000Z</Time>
            <Position>
              <LatitudeDegrees>49.29756562225520610809326171875</LatitudeDegrees>
              <LongitudeDegrees>19.952398650348186492919921875</LongitudeDegrees>
            </Position>
            <AltitudeMeters>827.79998779296875</AltitudeMeters>
            <DistanceMeters>NAN</DistanceMeters>
          </Trackpoint>
          <Trackpoint>
            <Time>2022-09-18T14:52:00.000Z</Time>
            <Position>
              <LatitudeDegrees>49.2974766902625560760498046875</LatitudeDegrees>
              <LongitudeDegrees>19.9524595029652118682861328125</LongitudeDegrees>
            </Position>
            <AltitudeMeters>828.20001220703125</AltitudeMeters>
            <DistanceMeters>NAN</DistanceMeters>
          </Trackpoint>
          <Trackpoint>
            <Time>2022-09-18T14:52:04.000Z</Time>
            <Position>
              <LatitudeDegrees>49.29737702943384647369384765625</LatitudeDegrees>
              <LongitudeDegrees>19.95253016240894794464111328125</LongitudeDegrees>
            </Position>
            <AltitudeMeters>827.79998779296875</AltitudeMeters>
            <DistanceMeters>NAN</DistanceMeters>
          </Trackpoint>
          <Trackpoint>
            <Time>2022-09-18T14:52:08.000Z</Time>
            <Position>
              <LatitudeDegrees>49.29732070304453372955322265625</LatitudeDegrees>
              <LongitudeDegrees>19.95255312882363796234130859375</LongitudeDegrees>
            </Position>
            <AltitudeMeters>827.5999755859375</AltitudeMeters>
            <DistanceMeters>NAN</DistanceMeters>
          </Trackpoint>
          <Trackpoint>
            <Time>2022-09-18T14:52:16.000Z</Time>
            <Position>
              <LatitudeDegrees>49.2972473613917827606201171875</LatitudeDegrees>
              <LongitudeDegrees>19.95260241441428661346435546875</LongitudeDegrees>
            </Position>
            <AltitudeMeters>828</AltitudeMeters>
            <DistanceMeters>NAN</DistanceMeters>
          </Trackpoint>
          <Trackpoint>
            <Time>2022-09-18T14:52:18.000Z</Time>
            <Position>
              <LatitudeDegrees>49.2972279153764247894287109375</LatitudeDegrees>
              <LongitudeDegrees>19.95261331088840961456298828125</LongitudeDegrees>
            </Position>
            <AltitudeMeters>828.20001220703125</AltitudeMeters>
            <DistanceMeters>NAN</DistanceMeters>
          </Trackpoint>
          <Trackpoint>
            <Time>2022-09-18T14:52:19.000Z</Time>
            <Position>
              <LatitudeDegrees>49.2972086369991302490234375</LatitudeDegrees>
              <LongitudeDegrees>19.9526257999241352081298828125</LongitudeDegrees>
            </Position>
            <AltitudeMeters>828.4000244140625</AltitudeMeters>
            <DistanceMeters>NAN</DistanceMeters>
          </Trackpoint>
          <Trackpoint>
            <Time>2022-09-18T14:52:26.000Z</Time>
            <Position>
              <LatitudeDegrees>49.297112412750720977783203125</LatitudeDegrees>
              <LongitudeDegrees>19.95268799364566802978515625</LongitudeDegrees>
            </Position>
            <AltitudeMeters>829</AltitudeMeters>
            <DistanceMeters>NAN</DistanceMeters>
          </Trackpoint>
          <Trackpoint>
            <Time>2022-09-18T14:52:30.000Z</Time>
            <Position>
              <LatitudeDegrees>49.29708114825189113616943359375</LatitudeDegrees>
              <LongitudeDegrees>19.9526988901197910308837890625</LongitudeDegrees>
            </Position>
            <AltitudeMeters>828.79998779296875</AltitudeMeters>
            <DistanceMeters>NAN</DistanceMeters>
          </Trackpoint>
          <Trackpoint>
            <Time>2022-09-18T14:52:33.000Z</Time>
            <Position>
              <LatitudeDegrees>49.29704971611499786376953125</LatitudeDegrees>
              <LongitudeDegrees>19.95271020568907260894775390625</LongitudeDegrees>
            </Position>
            <AltitudeMeters>828.79998779296875</AltitudeMeters>
            <DistanceMeters>NAN</DistanceMeters>
          </Trackpoint>
          <Trackpoint>
            <Time>2022-09-18T14:52:36.000Z</Time>
            <Position>
              <LatitudeDegrees>49.297030605375766754150390625</LatitudeDegrees>
              <LongitudeDegrees>19.95271204970777034759521484375</LongitudeDegrees>
            </Position>
            <AltitudeMeters>829</AltitudeMeters>
            <DistanceMeters>NAN</DistanceMeters>
          </Trackpoint>
          <Trackpoint>
            <Time>2022-09-18T14:52:38.000Z</Time>
            <Position>
              <LatitudeDegrees>49.2970207147300243377685546875</LatitudeDegrees>
              <LongitudeDegrees>19.95270919986069202423095703125</LongitudeDegrees>
            </Position>
            <AltitudeMeters>829.20001220703125</AltitudeMeters>
            <DistanceMeters>NAN</DistanceMeters>
          </Trackpoint>
          <Trackpoint>
            <Time>2022-09-18T14:52:40.000Z</Time>
            <Position>
              <LatitudeDegrees>49.297006465494632720947265625</LatitudeDegrees>
              <LongitudeDegrees>19.9527153186500072479248046875</LongitudeDegrees>
            </Position>
            <AltitudeMeters>829.20001220703125</AltitudeMeters>
            <DistanceMeters>NAN</DistanceMeters>
          </Trackpoint>
          <Trackpoint>
            <Time>2022-09-18T14:52:47.000Z</Time>
            <Position>
              <LatitudeDegrees>49.29693496786057949066162109375</LatitudeDegrees>
              <LongitudeDegrees>19.95269025675952434539794921875</LongitudeDegrees>
            </Position>
            <AltitudeMeters>829.4000244140625</AltitudeMeters>
            <DistanceMeters>NAN</DistanceMeters>
          </Trackpoint>
          <Trackpoint>
            <Time>2022-09-18T14:52:49.000Z</Time>
            <Position>
              <LatitudeDegrees>49.296910576522350311279296875</LatitudeDegrees>
              <LongitudeDegrees>19.95268891565501689910888671875</LongitudeDegrees>
            </Position>
            <AltitudeMeters>829.4000244140625</AltitudeMeters>
            <DistanceMeters>NAN</DistanceMeters>
          </Trackpoint>
          <Trackpoint>
            <Time>2022-09-18T14:52:50.000Z</Time>
            <Position>
              <LatitudeDegrees>49.29689959622919559478759765625</LatitudeDegrees>
              <LongitudeDegrees>19.95268589816987514495849609375</LongitudeDegrees>
            </Position>
            <AltitudeMeters>829.4000244140625</AltitudeMeters>
            <DistanceMeters>NAN</DistanceMeters>
          </Trackpoint>
          <Trackpoint>
            <Time>2022-09-18T14:52:52.000Z</Time>
            <Position>
              <LatitudeDegrees>49.29686137475073337554931640625</LatitudeDegrees>
              <LongitudeDegrees>19.9526968784630298614501953125</LongitudeDegrees>
            </Position>
            <AltitudeMeters>829.5999755859375</AltitudeMeters>
            <DistanceMeters>NAN</DistanceMeters>
          </Trackpoint>
          <Trackpoint>
            <Time>2022-09-18T14:52:55.000Z</Time>
            <Position>
              <LatitudeDegrees>49.29684243164956569671630859375</LatitudeDegrees>
              <LongitudeDegrees>19.95270584709942340850830078125</LongitudeDegrees>
            </Position>
            <AltitudeMeters>830</AltitudeMeters>
            <DistanceMeters>NAN</DistanceMeters>
          </Trackpoint>
          <Trackpoint>
            <Time>2022-09-18T14:53:01.000Z</Time>
            <Position>
              <LatitudeDegrees>49.29679817520081996917724609375</LatitudeDegrees>
              <LongitudeDegrees>19.95271087624132633209228515625</LongitudeDegrees>
            </Position>
            <AltitudeMeters>829.79998779296875</AltitudeMeters>
            <DistanceMeters>NAN</DistanceMeters>
          </Trackpoint>
          <Trackpoint>
            <Time>2022-09-18T14:53:07.000Z</Time>
            <Position>
              <LatitudeDegrees>49.29673832841217517852783203125</LatitudeDegrees>
              <LongitudeDegrees>19.95269335806369781494140625</LongitudeDegrees>
            </Position>
            <AltitudeMeters>829.79998779296875</AltitudeMeters>
            <DistanceMeters>NAN</DistanceMeters>
          </Trackpoint>
          <Trackpoint>
            <Time>2022-09-18T14:53:10.000Z</Time>
            <Position>
              <LatitudeDegrees>49.29671670310199260711669921875</LatitudeDegrees>
              <LongitudeDegrees>19.952686317265033721923828125</LongitudeDegrees>
            </Position>
            <AltitudeMeters>829.79998779296875</AltitudeMeters>
            <DistanceMeters>NAN</DistanceMeters>
          </Trackpoint>
          <Trackpoint>
            <Time>2022-09-18T14:53:12.000Z</Time>
            <Position>
              <LatitudeDegrees>49.296701364219188690185546875</LatitudeDegrees>
              <LongitudeDegrees>19.95268740691244602203369140625</LongitudeDegrees>
            </Position>
            <AltitudeMeters>829.79998779296875</AltitudeMeters>
            <DistanceMeters>NAN</DistanceMeters>
          </Trackpoint>
          <Trackpoint>
            <Time>2022-09-18T14:53:14.000Z</Time>
            <Position>
              <LatitudeDegrees>49.29669826291501522064208984375</LatitudeDegrees>
              <LongitudeDegrees>19.952687323093414306640625</LongitudeDegrees>
            </Position>
            <AltitudeMeters>829.79998779296875</AltitudeMeters>
            <DistanceMeters>NAN</DistanceMeters>
          </Trackpoint>
          <Trackpoint>
            <Time>2022-09-18T14:53:20.000Z</Time>
            <Position>
              <LatitudeDegrees>49.296669177711009979248046875</LatitudeDegrees>
              <LongitudeDegrees>19.9526913464069366455078125</LongitudeDegrees>
            </Position>
            <AltitudeMeters>830.20001220703125</AltitudeMeters>
            <DistanceMeters>NAN</DistanceMeters>
          </Trackpoint>
          <Trackpoint>
            <Time>2022-09-18T14:53:21.000Z</Time>
            <Position>
              <LatitudeDegrees>49.2966649867594242095947265625</LatitudeDegrees>
              <LongitudeDegrees>19.9526940286159515380859375</LongitudeDegrees>
            </Position>
            <AltitudeMeters>830.4000244140625</AltitudeMeters>
            <DistanceMeters>NAN</DistanceMeters>
          </Trackpoint>
          <Trackpoint>
            <Time>2022-09-18T14:53:24.000Z</Time>
            <Position>
              <LatitudeDegrees>49.29665249772369861602783203125</LatitudeDegrees>
              <LongitudeDegrees>19.9526911787688732147216796875</LongitudeDegrees>
            </Position>
            <AltitudeMeters>830.4000244140625</AltitudeMeters>
            <DistanceMeters>NAN</DistanceMeters>
          </Trackpoint>
          <Trackpoint>
            <Time>2022-09-18T14:53:26.000Z</Time>
            <Position>
              <LatitudeDegrees>49.296639673411846160888671875</LatitudeDegrees>
              <LongitudeDegrees>19.952692352235317230224609375</LongitudeDegrees>
            </Position>
            <AltitudeMeters>830.5999755859375</AltitudeMeters>
            <DistanceMeters>NAN</DistanceMeters>
          </Trackpoint>
          <Trackpoint>
            <Time>2022-09-18T14:53:33.000Z</Time>
            <Position>
              <LatitudeDegrees>49.29658561013638973236083984375</LatitudeDegrees>
              <LongitudeDegrees>19.95273350737988948822021484375</LongitudeDegrees>
            </Position>
            <AltitudeMeters>831</AltitudeMeters>
            <DistanceMeters>NAN</DistanceMeters>
          </Trackpoint>
          <Trackpoint>
            <Time>2022-09-18T14:53:35.000Z</Time>
            <Position>
              <LatitudeDegrees>49.29658359847962856292724609375</LatitudeDegrees>
              <LongitudeDegrees>19.95273551903665065765380859375</LongitudeDegrees>
            </Position>
            <AltitudeMeters>831</AltitudeMeters>
            <DistanceMeters>NAN</DistanceMeters>
          </Trackpoint>
          <Trackpoint>
            <Time>2022-09-18T14:53:40.000Z</Time>
            <Position>
              <LatitudeDegrees>49.29657119326293468475341796875</LatitudeDegrees>
              <LongitudeDegrees>19.952741302549839019775390625</LongitudeDegrees>
            </Position>
            <AltitudeMeters>831</AltitudeMeters>
            <DistanceMeters>NAN</DistanceMeters>
          </Trackpoint>
          <Trackpoint>
            <Time>2022-09-18T14:53:50.000Z</Time>
            <Position>
              <LatitudeDegrees>49.29652802646160125732421875</LatitudeDegrees>
              <LongitudeDegrees>19.95274742133915424346923828125</LongitudeDegrees>
            </Position>
            <AltitudeMeters>831</AltitudeMeters>
            <DistanceMeters>NAN</DistanceMeters>
          </Trackpoint>
          <Trackpoint>
            <Time>2022-09-18T14:53:56.000Z</Time>
            <Position>
              <LatitudeDegrees>49.29652802646160125732421875</LatitudeDegrees>
              <LongitudeDegrees>19.95274742133915424346923828125</LongitudeDegrees>
            </Position>
            <AltitudeMeters>831</AltitudeMeters>
            <DistanceMeters>NAN</DistanceMeters>
          </Trackpoint>
          <Trackpoint>
            <Time>2022-09-18T14:54:07.000Z</Time>
            <Position>
              <LatitudeDegrees>49.29652802646160125732421875</LatitudeDegrees>
              <LongitudeDegrees>19.95274742133915424346923828125</LongitudeDegrees>
            </Position>
            <AltitudeMeters>830.79998779296875</AltitudeMeters>
            <DistanceMeters>NAN</DistanceMeters>
          </Trackpoint>
          <Trackpoint>
            <Time>2022-09-18T14:54:20.000Z</Time>
            <Position>
              <LatitudeDegrees>49.29652802646160125732421875</LatitudeDegrees>
              <LongitudeDegrees>19.95274742133915424346923828125</LongitudeDegrees>
            </Position>
            <AltitudeMeters>830.79998779296875</AltitudeMeters>
            <DistanceMeters>NAN</DistanceMeters>
          </Trackpoint>
          <Trackpoint>
            <Time>2022-09-18T14:54:28.000Z</Time>
            <Position>
              <LatitudeDegrees>49.29652408696711063385009765625</LatitudeDegrees>
              <LongitudeDegrees>19.95274390093982219696044921875</LongitudeDegrees>
            </Position>
            <AltitudeMeters>831.20001220703125</AltitudeMeters>
            <DistanceMeters>NAN</DistanceMeters>
          </Trackpoint>
          <Trackpoint>
            <Time>2022-09-18T14:54:32.000Z</Time>
            <Position>
              <LatitudeDegrees>49.29649726487696170806884765625</LatitudeDegrees>
              <LongitudeDegrees>19.95270735584199428558349609375</LongitudeDegrees>
            </Position>
            <AltitudeMeters>831.20001220703125</AltitudeMeters>
            <DistanceMeters>NAN</DistanceMeters>
          </Trackpoint>
          <Trackpoint>
            <Time>2022-09-18T14:54:44.000Z</Time>
            <Position>
              <LatitudeDegrees>49.29648536257445812225341796875</LatitudeDegrees>
              <LongitudeDegrees>19.95270366780459880828857421875</LongitudeDegrees>
            </Position>
            <AltitudeMeters>831</AltitudeMeters>
            <DistanceMeters>NAN</DistanceMeters>
          </Trackpoint>
          <Trackpoint>
            <Time>2022-09-18T14:54:47.000Z</Time>
            <Position>
              <LatitudeDegrees>49.29643657989799976348876953125</LatitudeDegrees>
              <LongitudeDegrees>19.9526452459394931793212890625</LongitudeDegrees>
            </Position>
            <AltitudeMeters>831</AltitudeMeters>
            <DistanceMeters>NAN</DistanceMeters>
          </Trackpoint>
          <Trackpoint>
            <Time>2022-09-18T14:54:48.000Z</Time>
            <Position>
              <LatitudeDegrees>49.296421743929386138916015625</LatitudeDegrees>
              <LongitudeDegrees>19.9526234529912471771240234375</LongitudeDegrees>
            </Position>
            <AltitudeMeters>831</AltitudeMeters>
            <DistanceMeters>NAN</DistanceMeters>
          </Trackpoint>
          <Trackpoint>
            <Time>2022-09-18T14:54:51.000Z</Time>
            <Position>
              <LatitudeDegrees>49.29637941531836986541748046875</LatitudeDegrees>
              <LongitudeDegrees>19.95253234170377254486083984375</LongitudeDegrees>
            </Position>
            <AltitudeMeters>830.79998779296875</AltitudeMeters>
            <DistanceMeters>NAN</DistanceMeters>
          </Trackpoint>
          <Trackpoint>
            <Time>2022-09-18T14:54:55.000Z</Time>
            <Position>
              <LatitudeDegrees>49.2963287048041820526123046875</LatitudeDegrees>
              <LongitudeDegrees>19.95243930257856845855712890625</LongitudeDegrees>
            </Position>
            <AltitudeMeters>830.4000244140625</AltitudeMeters>
            <DistanceMeters>NAN</DistanceMeters>
          </Trackpoint>
          <Trackpoint>
            <Time>2022-09-18T14:55:03.000Z</Time>
            <Position>
              <LatitudeDegrees>49.296139441430568695068359375</LatitudeDegrees>
              <LongitudeDegrees>19.9522060342133045196533203125</LongitudeDegrees>
            </Position>
            <AltitudeMeters>830</AltitudeMeters>
            <DistanceMeters>NAN</DistanceMeters>
          </Trackpoint>
          <Trackpoint>
            <Time>2022-09-18T14:55:10.000Z</Time>
            <Position>
              <LatitudeDegrees>49.29597641341388225555419921875</LatitudeDegrees>
              <LongitudeDegrees>19.95197997428476810455322265625</LongitudeDegrees>
            </Position>
            <AltitudeMeters>829.79998779296875</AltitudeMeters>
            <DistanceMeters>NAN</DistanceMeters>
          </Trackpoint>
          <Trackpoint>
            <Time>2022-09-18T14:55:18.000Z</Time>
            <Position>
              <LatitudeDegrees>49.29582688026130199432373046875</LatitudeDegrees>
              <LongitudeDegrees>19.95171837508678436279296875</LongitudeDegrees>
            </Position>
            <AltitudeMeters>829.5999755859375</AltitudeMeters>
            <DistanceMeters>NAN</DistanceMeters>
          </Trackpoint>
          <Trackpoint>
            <Time>2022-09-18T14:55:22.000Z</Time>
            <Position>
              <LatitudeDegrees>49.2957620881497859954833984375</LatitudeDegrees>
              <LongitudeDegrees>19.951614439487457275390625</LongitudeDegrees>
            </Position>
            <AltitudeMeters>829.4000244140625</AltitudeMeters>
            <DistanceMeters>NAN</DistanceMeters>
          </Trackpoint>
          <Trackpoint>
            <Time>2022-09-18T14:55:25.000Z</Time>
            <Position>
              <LatitudeDegrees>49.2956832982599735260009765625</LatitudeDegrees>
              <LongitudeDegrees>19.9514905549585819244384765625</LongitudeDegrees>
            </Position>
            <AltitudeMeters>829</AltitudeMeters>
            <DistanceMeters>NAN</DistanceMeters>
          </Trackpoint>
          <Trackpoint>
            <Time>2022-09-18T14:55:26.000Z</Time>
            <Position>
              <LatitudeDegrees>49.29566326551139354705810546875</LatitudeDegrees>
              <LongitudeDegrees>19.951460547745227813720703125</LongitudeDegrees>
            </Position>
            <AltitudeMeters>828.79998779296875</AltitudeMeters>
            <DistanceMeters>NAN</DistanceMeters>
          </Trackpoint>
          <Trackpoint>
            <Time>2022-09-18T14:55:31.000Z</Time>
            <Position>
              <LatitudeDegrees>49.2955743335187435150146484375</LatitudeDegrees>
              <LongitudeDegrees>19.9513437040150165557861328125</LongitudeDegrees>
            </Position>
            <AltitudeMeters>828.4000244140625</AltitudeMeters>
            <DistanceMeters>NAN</DistanceMeters>
          </Trackpoint>
          <Trackpoint>
            <Time>2022-09-18T14:55:37.000Z</Time>
            <Position>
              <LatitudeDegrees>49.2955022491514682769775390625</LatitudeDegrees>
              <LongitudeDegrees>19.95122862048447132110595703125</LongitudeDegrees>
            </Position>
            <AltitudeMeters>829</AltitudeMeters>
            <DistanceMeters>NAN</DistanceMeters>
          </Trackpoint>
          <Trackpoint>
            <Time>2022-09-18T14:55:44.000Z</Time>
            <Position>
              <LatitudeDegrees>49.29546142928302288055419921875</LatitudeDegrees>
              <LongitudeDegrees>19.95119308121502399444580078125</LongitudeDegrees>
            </Position>
            <AltitudeMeters>828.4000244140625</AltitudeMeters>
            <DistanceMeters>NAN</DistanceMeters>
          </Trackpoint>
          <Trackpoint>
            <Time>2022-09-18T14:55:45.000Z</Time>
            <Position>
              <LatitudeDegrees>49.29545422084629535675048828125</LatitudeDegrees>
              <LongitudeDegrees>19.95118570514023303985595703125</LongitudeDegrees>
            </Position>
            <AltitudeMeters>828.5999755859375</AltitudeMeters>
            <DistanceMeters>NAN</DistanceMeters>
          </Trackpoint>
          <Trackpoint>
            <Time>2022-09-18T14:55:50.000Z</Time>
            <Position>
              <LatitudeDegrees>49.29539554752409458160400390625</LatitudeDegrees>
              <LongitudeDegrees>19.95115620084106922149658203125</LongitudeDegrees>
            </Position>
            <AltitudeMeters>828.4000244140625</AltitudeMeters>
            <DistanceMeters>NAN</DistanceMeters>
          </Trackpoint>
          <Trackpoint>
            <Time>2022-09-18T14:55:57.000Z</Time>
            <Position>
              <LatitudeDegrees>49.29534609429538249969482421875</LatitudeDegrees>
              <LongitudeDegrees>19.9511153809726238250732421875</LongitudeDegrees>
            </Position>
            <AltitudeMeters>827.20001220703125</AltitudeMeters>
            <DistanceMeters>NAN</DistanceMeters>
          </Trackpoint>
          <Trackpoint>
            <Time>2022-09-18T14:55:58.000Z</Time>
            <Position>
              <LatitudeDegrees>49.29534307681024074554443359375</LatitudeDegrees>
              <LongitudeDegrees>19.95111085474491119384765625</LongitudeDegrees>
            </Position>
            <AltitudeMeters>827.20001220703125</AltitudeMeters>
            <DistanceMeters>NAN</DistanceMeters>
          </Trackpoint>
          <Trackpoint>
            <Time>2022-09-18T14:56:02.000Z</Time>
            <Position>
              <LatitudeDegrees>49.2953285761177539825439453125</LatitudeDegrees>
              <LongitudeDegrees>19.95110339485108852386474609375</LongitudeDegrees>
            </Position>
            <AltitudeMeters>826.5999755859375</AltitudeMeters>
            <DistanceMeters>NAN</DistanceMeters>
          </Trackpoint>
          <Trackpoint>
            <Time>2022-09-18T14:56:04.000Z</Time>
            <Position>
              <LatitudeDegrees>49.295319356024265289306640625</LatitudeDegrees>
              <LongitudeDegrees>19.95108696632087230682373046875</LongitudeDegrees>
            </Position>
            <AltitudeMeters>826.4000244140625</AltitudeMeters>
            <DistanceMeters>NAN</DistanceMeters>
          </Trackpoint>
          <Trackpoint>
            <Time>2022-09-18T14:56:05.000Z</Time>
            <Position>
              <LatitudeDegrees>49.29531591944396495819091796875</LatitudeDegrees>
              <LongitudeDegrees>19.95108394883573055267333984375</LongitudeDegrees>
            </Position>
            <AltitudeMeters>826.20001220703125</AltitudeMeters>
            <DistanceMeters>NAN</DistanceMeters>
          </Trackpoint>
          <Trackpoint>
            <Time>2022-09-18T14:56:07.000Z</Time>
            <Position>
              <LatitudeDegrees>49.29531591944396495819091796875</LatitudeDegrees>
              <LongitudeDegrees>19.95108394883573055267333984375</LongitudeDegrees>
            </Position>
            <AltitudeMeters>826.20001220703125</AltitudeMeters>
            <DistanceMeters>NAN</DistanceMeters>
          </Trackpoint>
          <Trackpoint>
            <Time>2022-09-18T14:56:10.000Z</Time>
            <Position>
              <LatitudeDegrees>49.29531591944396495819091796875</LatitudeDegrees>
              <LongitudeDegrees>19.95108394883573055267333984375</LongitudeDegrees>
            </Position>
            <AltitudeMeters>826.20001220703125</AltitudeMeters>
            <DistanceMeters>NAN</DistanceMeters>
          </Trackpoint>
          <Trackpoint>
            <Time>2022-09-18T14:56:15.000Z</Time>
            <Position>
              <LatitudeDegrees>49.29531591944396495819091796875</LatitudeDegrees>
              <LongitudeDegrees>19.95108394883573055267333984375</LongitudeDegrees>
            </Position>
            <AltitudeMeters>826.4000244140625</AltitudeMeters>
            <DistanceMeters>NAN</DistanceMeters>
          </Trackpoint>
          <Trackpoint>
            <Time>2022-09-18T14:56:52.000Z</Time>
            <Position>
              <LatitudeDegrees>49.2953096330165863037109375</LatitudeDegrees>
              <LongitudeDegrees>19.951061569154262542724609375</LongitudeDegrees>
            </Position>
            <AltitudeMeters>826.79998779296875</AltitudeMeters>
            <DistanceMeters>NAN</DistanceMeters>
          </Trackpoint>
          <Trackpoint>
            <Time>2022-09-18T14:56:54.000Z</Time>
            <Position>
              <LatitudeDegrees>49.2953084595501422882080078125</LatitudeDegrees>
              <LongitudeDegrees>19.9510536901652812957763671875</LongitudeDegrees>
            </Position>
            <AltitudeMeters>826.79998779296875</AltitudeMeters>
            <DistanceMeters>NAN</DistanceMeters>
          </Trackpoint>
          <Trackpoint>
            <Time>2022-09-18T14:57:02.000Z</Time>
            <Position>
              <LatitudeDegrees>49.2953064478933811187744140625</LatitudeDegrees>
              <LongitudeDegrees>19.95105025358498096466064453125</LongitudeDegrees>
            </Position>
            <AltitudeMeters>826.4000244140625</AltitudeMeters>
            <DistanceMeters>NAN</DistanceMeters>
          </Trackpoint>
          <Trackpoint>
            <Time>2022-09-18T14:57:07.000Z</Time>
            <Position>
              <LatitudeDegrees>49.29530359804630279541015625</LatitudeDegrees>
              <LongitudeDegrees>19.951044805347919464111328125</LongitudeDegrees>
            </Position>
            <AltitudeMeters>826.4000244140625</AltitudeMeters>
            <DistanceMeters>NAN</DistanceMeters>
          </Trackpoint>
          <Trackpoint>
            <Time>2022-09-18T14:57:10.000Z</Time>
            <Position>
              <LatitudeDegrees>49.2952930368483066558837890625</LatitudeDegrees>
              <LongitudeDegrees>19.95105142705142498016357421875</LongitudeDegrees>
            </Position>
            <AltitudeMeters>826.5999755859375</AltitudeMeters>
            <DistanceMeters>NAN</DistanceMeters>
          </Trackpoint>
          <Trackpoint>
            <Time>2022-09-18T14:57:13.000Z</Time>
            <Position>
              <LatitudeDegrees>49.2952662147581577301025390625</LatitudeDegrees>
              <LongitudeDegrees>19.95108210481703281402587890625</LongitudeDegrees>
            </Position>
            <AltitudeMeters>826.4000244140625</AltitudeMeters>
            <DistanceMeters>NAN</DistanceMeters>
          </Trackpoint>
          <Trackpoint>
            <Time>2022-09-18T14:57:16.000Z</Time>
            <Position>
              <LatitudeDegrees>49.29524014703929424285888671875</LatitudeDegrees>
              <LongitudeDegrees>19.9511358328163623809814453125</LongitudeDegrees>
            </Position>
            <AltitudeMeters>826.79998779296875</AltitudeMeters>
            <DistanceMeters>NAN</DistanceMeters>
          </Trackpoint>
          <Trackpoint>
            <Time>2022-09-18T14:57:20.000Z</Time>
            <Position>
              <LatitudeDegrees>49.29523495025932788848876953125</LatitudeDegrees>
              <LongitudeDegrees>19.95123934932053089141845703125</LongitudeDegrees>
            </Position>
            <AltitudeMeters>827.20001220703125</AltitudeMeters>
            <DistanceMeters>NAN</DistanceMeters>
          </Trackpoint>
          <Trackpoint>
            <Time>2022-09-18T14:57:22.000Z</Time>
            <Position>
              <LatitudeDegrees>49.29525238461792469024658203125</LatitudeDegrees>
              <LongitudeDegrees>19.95129098184406757354736328125</LongitudeDegrees>
            </Position>
            <AltitudeMeters>827.4000244140625</AltitudeMeters>
            <DistanceMeters>NAN</DistanceMeters>
          </Trackpoint>
          <Trackpoint>
            <Time>2022-09-18T14:57:29.000Z</Time>
            <Position>
              <LatitudeDegrees>49.2952316813170909881591796875</LatitudeDegrees>
              <LongitudeDegrees>19.951468594372272491455078125</LongitudeDegrees>
            </Position>
            <AltitudeMeters>827.79998779296875</AltitudeMeters>
            <DistanceMeters>NAN</DistanceMeters>
          </Trackpoint>
          <Trackpoint>
            <Time>2022-09-18T14:57:30.000Z</Time>
            <Position>
              <LatitudeDegrees>49.2952239699661731719970703125</LatitudeDegrees>
              <LongitudeDegrees>19.9514912255108356475830078125</LongitudeDegrees>
            </Position>
            <AltitudeMeters>828</AltitudeMeters>
            <DistanceMeters>NAN</DistanceMeters>
          </Trackpoint>
          <Trackpoint>
            <Time>2022-09-18T14:57:32.000Z</Time>
            <Position>
              <LatitudeDegrees>49.29520167410373687744140625</LatitudeDegrees>
              <LongitudeDegrees>19.9515324644744396209716796875</LongitudeDegrees>
            </Position>
            <AltitudeMeters>828.4000244140625</AltitudeMeters>
            <DistanceMeters>NAN</DistanceMeters>
          </Trackpoint>
          <Trackpoint>
            <Time>2022-09-18T14:57:34.000Z</Time>
            <Position>
              <LatitudeDegrees>49.295206703245639801025390625</LatitudeDegrees>
              <LongitudeDegrees>19.95159792713820934295654296875</LongitudeDegrees>
            </Position>
            <AltitudeMeters>828.4000244140625</AltitudeMeters>
            <DistanceMeters>NAN</DistanceMeters>
          </Trackpoint>
          <Trackpoint>
            <Time>2022-09-18T14:57:40.000Z</Time>
            <Position>
              <LatitudeDegrees>49.295132271945476531982421875</LatitudeDegrees>
              <LongitudeDegrees>19.95172197930514812469482421875</LongitudeDegrees>
            </Position>
            <AltitudeMeters>829</AltitudeMeters>
            <DistanceMeters>NAN</DistanceMeters>
          </Trackpoint>
          <Trackpoint>
            <Time>2022-09-18T14:57:45.000Z</Time>
            <Position>
              <LatitudeDegrees>49.29508223198354244232177734375</LatitudeDegrees>
              <LongitudeDegrees>19.9518107436597347259521484375</LongitudeDegrees>
            </Position>
            <AltitudeMeters>829.5999755859375</AltitudeMeters>
            <DistanceMeters>NAN</DistanceMeters>
          </Trackpoint>
          <Trackpoint>
            <Time>2022-09-18T14:57:47.000Z</Time>
            <Position>
              <LatitudeDegrees>49.29506630636751651763916015625</LatitudeDegrees>
              <LongitudeDegrees>19.95184653438627719879150390625</LongitudeDegrees>
            </Position>
            <AltitudeMeters>829.79998779296875</AltitudeMeters>
            <DistanceMeters>NAN</DistanceMeters>
          </Trackpoint>
          <Trackpoint>
            <Time>2022-09-18T14:57:49.000Z</Time>
            <Position>
              <LatitudeDegrees>49.295041076838970184326171875</LatitudeDegrees>
              <LongitudeDegrees>19.95187872089445590972900390625</LongitudeDegrees>
            </Position>
            <AltitudeMeters>829.79998779296875</AltitudeMeters>
            <DistanceMeters>NAN</DistanceMeters>
          </Trackpoint>
          <Trackpoint>
            <Time>2022-09-18T14:57:52.000Z</Time>
            <Position>
              <LatitudeDegrees>49.29502054117619991302490234375</LatitudeDegrees>
              <LongitudeDegrees>19.95194963179528713226318359375</LongitudeDegrees>
            </Position>
            <AltitudeMeters>830.20001220703125</AltitudeMeters>
            <DistanceMeters>NAN</DistanceMeters>
          </Trackpoint>
          <Trackpoint>
            <Time>2022-09-18T14:57:54.000Z</Time>
            <Position>
              <LatitudeDegrees>49.29499112069606781005859375</LatitudeDegrees>
              <LongitudeDegrees>19.9519954808056354522705078125</LongitudeDegrees>
            </Position>
            <AltitudeMeters>830.4000244140625</AltitudeMeters>
            <DistanceMeters>NAN</DistanceMeters>
          </Trackpoint>
          <Trackpoint>
            <Time>2022-09-18T14:57:55.000Z</Time>
            <Position>
              <LatitudeDegrees>49.29497360251843929290771484375</LatitudeDegrees>
              <LongitudeDegrees>19.9520169384777545928955078125</LongitudeDegrees>
            </Position>
            <AltitudeMeters>830.5999755859375</AltitudeMeters>
            <DistanceMeters>NAN</DistanceMeters>
          </Trackpoint>
          <Trackpoint>
            <Time>2022-09-18T14:58:00.000Z</Time>
            <Position>
              <LatitudeDegrees>49.29490386508405208587646484375</LatitudeDegrees>
              <LongitudeDegrees>19.95211207307875156402587890625</LongitudeDegrees>
            </Position>
            <AltitudeMeters>831.4000244140625</AltitudeMeters>
            <DistanceMeters>NAN</DistanceMeters>
          </Trackpoint>
          <Trackpoint>
            <Time>2022-09-18T14:58:03.000Z</Time>
            <Position>
              <LatitudeDegrees>49.2948575131595134735107421875</LatitudeDegrees>
              <LongitudeDegrees>19.9521637894213199615478515625</LongitudeDegrees>
            </Position>
            <AltitudeMeters>831.79998779296875</AltitudeMeters>
            <DistanceMeters>NAN</DistanceMeters>
          </Trackpoint>
          <Trackpoint>
            <Time>2022-09-18T14:58:09.000Z</Time>
            <Position>
              <LatitudeDegrees>49.29476573131978511810302734375</LatitudeDegrees>
              <LongitudeDegrees>19.95223201811313629150390625</LongitudeDegrees>
            </Position>
            <AltitudeMeters>832.5999755859375</AltitudeMeters>
            <DistanceMeters>NAN</DistanceMeters>
          </Trackpoint>
          <Trackpoint>
            <Time>2022-09-18T14:58:11.000Z</Time>
            <Position>
              <LatitudeDegrees>49.29474242962896823883056640625</LatitudeDegrees>
              <LongitudeDegrees>19.9522479437291622161865234375</LongitudeDegrees>
            </Position>
            <AltitudeMeters>832.5999755859375</AltitudeMeters>
            <DistanceMeters>NAN</DistanceMeters>
          </Trackpoint>
          <Trackpoint>
            <Time>2022-09-18T14:58:12.000Z</Time>
            <Position>
              <LatitudeDegrees>49.2947391606867313385009765625</LatitudeDegrees>
              <LongitudeDegrees>19.952248446643352508544921875</LongitudeDegrees>
            </Position>
            <AltitudeMeters>832.79998779296875</AltitudeMeters>
            <DistanceMeters>NAN</DistanceMeters>
          </Trackpoint>
          <Trackpoint>
            <Time>2022-09-18T14:58:14.000Z</Time>
            <Position>
              <LatitudeDegrees>49.2947391606867313385009765625</LatitudeDegrees>
              <LongitudeDegrees>19.952248446643352508544921875</LongitudeDegrees>
            </Position>
            <AltitudeMeters>832.79998779296875</AltitudeMeters>
            <DistanceMeters>NAN</DistanceMeters>
          </Trackpoint>
          <Trackpoint>
            <Time>2022-09-18T14:58:21.000Z</Time>
            <Position>
              <LatitudeDegrees>49.29473471827805042266845703125</LatitudeDegrees>
              <LongitudeDegrees>19.9522341974079608917236328125</LongitudeDegrees>
            </Position>
            <AltitudeMeters>832.79998779296875</AltitudeMeters>
            <DistanceMeters>NAN</DistanceMeters>
          </Trackpoint>
          <Trackpoint>
            <Time>2022-09-18T14:58:24.000Z</Time>
            <Position>
              <LatitudeDegrees>49.29473471827805042266845703125</LatitudeDegrees>
              <LongitudeDegrees>19.9522341974079608917236328125</LongitudeDegrees>
            </Position>
            <AltitudeMeters>832.79998779296875</AltitudeMeters>
            <DistanceMeters>NAN</DistanceMeters>
          </Trackpoint>
          <Trackpoint>
            <Time>2022-09-18T14:58:29.000Z</Time>
            <Position>
              <LatitudeDegrees>49.29473471827805042266845703125</LatitudeDegrees>
              <LongitudeDegrees>19.9522341974079608917236328125</LongitudeDegrees>
            </Position>
            <AltitudeMeters>832.79998779296875</AltitudeMeters>
            <DistanceMeters>NAN</DistanceMeters>
          </Trackpoint>
          <Trackpoint>
            <Time>2022-09-18T14:58:32.000Z</Time>
            <Position>
              <LatitudeDegrees>49.29473471827805042266845703125</LatitudeDegrees>
              <LongitudeDegrees>19.9522341974079608917236328125</LongitudeDegrees>
            </Position>
            <AltitudeMeters>832.79998779296875</AltitudeMeters>
            <DistanceMeters>NAN</DistanceMeters>
          </Trackpoint>
          <Trackpoint>
            <Time>2022-09-18T14:58:38.000Z</Time>
            <Position>
              <LatitudeDegrees>49.29473471827805042266845703125</LatitudeDegrees>
              <LongitudeDegrees>19.9522341974079608917236328125</LongitudeDegrees>
            </Position>
            <AltitudeMeters>833</AltitudeMeters>
            <DistanceMeters>NAN</DistanceMeters>
          </Trackpoint>
          <Trackpoint>
            <Time>2022-09-18T14:58:45.000Z</Time>
            <Position>
              <LatitudeDegrees>49.29473471827805042266845703125</LatitudeDegrees>
              <LongitudeDegrees>19.9522341974079608917236328125</LongitudeDegrees>
            </Position>
            <AltitudeMeters>833</AltitudeMeters>
            <DistanceMeters>NAN</DistanceMeters>
          </Trackpoint>
          <Trackpoint>
            <Time>2022-09-18T14:58:48.000Z</Time>
            <Position>
              <LatitudeDegrees>49.29473471827805042266845703125</LatitudeDegrees>
              <LongitudeDegrees>19.9522341974079608917236328125</LongitudeDegrees>
            </Position>
            <AltitudeMeters>832.79998779296875</AltitudeMeters>
            <DistanceMeters>NAN</DistanceMeters>
          </Trackpoint>
          <Trackpoint>
            <Time>2022-09-18T14:58:50.000Z</Time>
            <Position>
              <LatitudeDegrees>49.29473471827805042266845703125</LatitudeDegrees>
              <LongitudeDegrees>19.9522341974079608917236328125</LongitudeDegrees>
            </Position>
            <AltitudeMeters>832.79998779296875</AltitudeMeters>
            <DistanceMeters>NAN</DistanceMeters>
          </Trackpoint>
          <Trackpoint>
            <Time>2022-09-18T14:58:52.000Z</Time>
            <Position>
              <LatitudeDegrees>49.29473471827805042266845703125</LatitudeDegrees>
              <LongitudeDegrees>19.9522341974079608917236328125</LongitudeDegrees>
            </Position>
            <AltitudeMeters>832.79998779296875</AltitudeMeters>
            <DistanceMeters>NAN</DistanceMeters>
          </Trackpoint>
          <Trackpoint>
            <Time>2022-09-18T14:58:53.000Z</Time>
            <Position>
              <LatitudeDegrees>49.29473471827805042266845703125</LatitudeDegrees>
              <LongitudeDegrees>19.9522341974079608917236328125</LongitudeDegrees>
            </Position>
            <AltitudeMeters>832.79998779296875</AltitudeMeters>
            <DistanceMeters>NAN</DistanceMeters>
          </Trackpoint>
          <Trackpoint>
            <Time>2022-09-18T14:58:54.000Z</Time>
            <Position>
              <LatitudeDegrees>49.29473471827805042266845703125</LatitudeDegrees>
              <LongitudeDegrees>19.9522341974079608917236328125</LongitudeDegrees>
            </Position>
            <AltitudeMeters>832.79998779296875</AltitudeMeters>
            <DistanceMeters>NAN</DistanceMeters>
          </Trackpoint>
          <Trackpoint>
            <Time>2022-09-18T14:59:03.000Z</Time>
            <Position>
              <LatitudeDegrees>49.29473471827805042266845703125</LatitudeDegrees>
              <LongitudeDegrees>19.9522341974079608917236328125</LongitudeDegrees>
            </Position>
            <AltitudeMeters>833</AltitudeMeters>
            <DistanceMeters>NAN</DistanceMeters>
          </Trackpoint>
          <Trackpoint>
            <Time>2022-09-18T14:59:06.000Z</Time>
            <Position>
              <LatitudeDegrees>49.29473471827805042266845703125</LatitudeDegrees>
              <LongitudeDegrees>19.9522341974079608917236328125</LongitudeDegrees>
            </Position>
            <AltitudeMeters>833</AltitudeMeters>
            <DistanceMeters>NAN</DistanceMeters>
          </Trackpoint>
          <Trackpoint>
            <Time>2022-09-18T14:59:10.000Z</Time>
            <Position>
              <LatitudeDegrees>49.29473471827805042266845703125</LatitudeDegrees>
              <LongitudeDegrees>19.9522341974079608917236328125</LongitudeDegrees>
            </Position>
            <AltitudeMeters>833.20001220703125</AltitudeMeters>
            <DistanceMeters>NAN</DistanceMeters>
          </Trackpoint>
          <Trackpoint>
            <Time>2022-09-18T14:59:13.000Z</Time>
            <Position>
              <LatitudeDegrees>49.29473270662128925323486328125</LatitudeDegrees>
              <LongitudeDegrees>19.95223847217857837677001953125</LongitudeDegrees>
            </Position>
            <AltitudeMeters>833.4000244140625</AltitudeMeters>
            <DistanceMeters>NAN</DistanceMeters>
          </Trackpoint>
          <Trackpoint>
            <Time>2022-09-18T14:59:15.000Z</Time>
            <Position>
              <LatitudeDegrees>49.29470789618790149688720703125</LatitudeDegrees>
              <LongitudeDegrees>19.95228189043700695037841796875</LongitudeDegrees>
            </Position>
            <AltitudeMeters>833.4000244140625</AltitudeMeters>
            <DistanceMeters>NAN</DistanceMeters>
          </Trackpoint>
          <Trackpoint>
            <Time>2022-09-18T14:59:16.000Z</Time>
            <Position>
              <LatitudeDegrees>49.29469767026603221893310546875</LatitudeDegrees>
              <LongitudeDegrees>19.95230183936655521392822265625</LongitudeDegrees>
            </Position>
            <AltitudeMeters>833.5999755859375</AltitudeMeters>
            <DistanceMeters>NAN</DistanceMeters>
          </Trackpoint>
          <Trackpoint>
            <Time>2022-09-18T14:59:17.000Z</Time>
            <Position>
              <LatitudeDegrees>49.2946892045438289642333984375</LatitudeDegrees>
              <LongitudeDegrees>19.95231918990612030029296875</LongitudeDegrees>
            </Position>
            <AltitudeMeters>833.5999755859375</AltitudeMeters>
            <DistanceMeters>NAN</DistanceMeters>
          </Trackpoint>
          <Trackpoint>
            <Time>2022-09-18T14:59:19.000Z</Time>
            <Position>
              <LatitudeDegrees>49.29467269219458103179931640625</LatitudeDegrees>
              <LongitudeDegrees>19.9523559026420116424560546875</LongitudeDegrees>
            </Position>
            <AltitudeMeters>833.5999755859375</AltitudeMeters>
            <DistanceMeters>NAN</DistanceMeters>
          </Trackpoint>
          <Trackpoint>
            <Time>2022-09-18T14:59:21.000Z</Time>
            <Position>
              <LatitudeDegrees>49.29465123452246189117431640625</LatitudeDegrees>
              <LongitudeDegrees>19.9523830600082874298095703125</LongitudeDegrees>
            </Position>
            <AltitudeMeters>833.5999755859375</AltitudeMeters>
            <DistanceMeters>NAN</DistanceMeters>
          </Trackpoint>
          <Trackpoint>
            <Time>2022-09-18T14:59:22.000Z</Time>
            <Position>
              <LatitudeDegrees>49.29464243352413177490234375</LatitudeDegrees>
              <LongitudeDegrees>19.9523968063294887542724609375</LongitudeDegrees>
            </Position>
            <AltitudeMeters>833.5999755859375</AltitudeMeters>
            <DistanceMeters>NAN</DistanceMeters>
          </Trackpoint>
          <Trackpoint>
            <Time>2022-09-18T14:59:24.000Z</Time>
            <Position>
              <LatitudeDegrees>49.2946409247815608978271484375</LatitudeDegrees>
              <LongitudeDegrees>19.9524338543415069580078125</LongitudeDegrees>
            </Position>
            <AltitudeMeters>833.79998779296875</AltitudeMeters>
            <DistanceMeters>NAN</DistanceMeters>
          </Trackpoint>
          <Trackpoint>
            <Time>2022-09-18T14:59:25.000Z</Time>
            <Position>
              <LatitudeDegrees>49.294636733829975128173828125</LatitudeDegrees>
              <LongitudeDegrees>19.95244533754885196685791015625</LongitudeDegrees>
            </Position>
            <AltitudeMeters>833.79998779296875</AltitudeMeters>
            <DistanceMeters>NAN</DistanceMeters>
          </Trackpoint>
          <Trackpoint>
            <Time>2022-09-18T14:59:26.000Z</Time>
            <Position>
              <LatitudeDegrees>49.2946288548409938812255859375</LatitudeDegrees>
              <LongitudeDegrees>19.9524606764316558837890625</LongitudeDegrees>
            </Position>
            <AltitudeMeters>833.79998779296875</AltitudeMeters>
            <DistanceMeters>NAN</DistanceMeters>
          </Trackpoint>
          <Trackpoint>
            <Time>2022-09-18T14:59:34.000Z</Time>
            <Position>
              <LatitudeDegrees>49.2946120910346508026123046875</LatitudeDegrees>
              <LongitudeDegrees>19.95252362452447414398193359375</LongitudeDegrees>
            </Position>
            <AltitudeMeters>834.20001220703125</AltitudeMeters>
            <DistanceMeters>NAN</DistanceMeters>
          </Trackpoint>
          <Trackpoint>
            <Time>2022-09-18T14:59:35.000Z</Time>
            <Position>
              <LatitudeDegrees>49.29460220038890838623046875</LatitudeDegrees>
              <LongitudeDegrees>19.9525191821157932281494140625</LongitudeDegrees>
            </Position>
            <AltitudeMeters>834.20001220703125</AltitudeMeters>
            <DistanceMeters>NAN</DistanceMeters>
          </Trackpoint>
          <Trackpoint>
            <Time>2022-09-18T14:59:38.000Z</Time>
            <Position>
              <LatitudeDegrees>49.29458786733448505401611328125</LatitudeDegrees>
              <LongitudeDegrees>19.95256033726036548614501953125</LongitudeDegrees>
            </Position>
            <AltitudeMeters>834.4000244140625</AltitudeMeters>
            <DistanceMeters>NAN</DistanceMeters>
          </Trackpoint>
          <Trackpoint>
            <Time>2022-09-18T14:59:41.000Z</Time>
            <Position>
              <LatitudeDegrees>49.29455702193081378936767578125</LatitudeDegrees>
              <LongitudeDegrees>19.952652119100093841552734375</LongitudeDegrees>
            </Position>
            <AltitudeMeters>834.4000244140625</AltitudeMeters>
            <DistanceMeters>NAN</DistanceMeters>
          </Trackpoint>
          <Trackpoint>
            <Time>2022-09-18T14:59:44.000Z</Time>
            <Position>
              <LatitudeDegrees>49.29455216042697429656982421875</LatitudeDegrees>
              <LongitudeDegrees>19.9526623450219631195068359375</LongitudeDegrees>
            </Position>
            <AltitudeMeters>834.4000244140625</AltitudeMeters>
            <DistanceMeters>NAN</DistanceMeters>
          </Trackpoint>
          <Trackpoint>
            <Time>2022-09-18T14:59:45.000Z</Time>
            <Position>
              <LatitudeDegrees>49.29455065168440341949462890625</LatitudeDegrees>
              <LongitudeDegrees>19.9526747502386569976806640625</LongitudeDegrees>
            </Position>
            <AltitudeMeters>834.5999755859375</AltitudeMeters>
            <DistanceMeters>NAN</DistanceMeters>
          </Trackpoint>
          <Trackpoint>
            <Time>2022-09-18T14:59:51.000Z</Time>
            <Position>
              <LatitudeDegrees>49.29450295865535736083984375</LatitudeDegrees>
              <LongitudeDegrees>19.9527166597545146942138671875</LongitudeDegrees>
            </Position>
            <AltitudeMeters>834.79998779296875</AltitudeMeters>
            <DistanceMeters>NAN</DistanceMeters>
          </Trackpoint>
          <Trackpoint>
            <Time>2022-09-18T14:59:52.000Z</Time>
            <Position>
              <LatitudeDegrees>49.294503629207611083984375</LatitudeDegrees>
              <LongitudeDegrees>19.95271992869675159454345703125</LongitudeDegrees>
            </Position>
            <AltitudeMeters>835</AltitudeMeters>
            <DistanceMeters>NAN</DistanceMeters>
          </Trackpoint>
          <Trackpoint>
            <Time>2022-09-18T14:59:59.000Z</Time>
            <Position>
              <LatitudeDegrees>49.29449583403766155242919921875</LatitudeDegrees>
              <LongitudeDegrees>19.952750690281391143798828125</LongitudeDegrees>
            </Position>
            <AltitudeMeters>834.79998779296875</AltitudeMeters>
            <DistanceMeters>NAN</DistanceMeters>
          </Trackpoint>
          <Trackpoint>
            <Time>2022-09-18T15:00:04.000Z</Time>
            <Position>
              <LatitudeDegrees>49.294493906199932098388671875</LatitudeDegrees>
              <LongitudeDegrees>19.95281011797487735748291015625</LongitudeDegrees>
            </Position>
            <AltitudeMeters>835.20001220703125</AltitudeMeters>
            <DistanceMeters>NAN</DistanceMeters>
          </Trackpoint>
          <Trackpoint>
            <Time>2022-09-18T15:00:05.000Z</Time>
            <Position>
              <LatitudeDegrees>49.29449097253382205963134765625</LatitudeDegrees>
              <LongitudeDegrees>19.95281112380325794219970703125</LongitudeDegrees>
            </Position>
            <AltitudeMeters>835.20001220703125</AltitudeMeters>
            <DistanceMeters>NAN</DistanceMeters>
          </Trackpoint>
          <Trackpoint>
            <Time>2022-09-18T15:00:08.000Z</Time>
            <Position>
              <LatitudeDegrees>49.2944674193859100341796875</LatitudeDegrees>
              <LongitudeDegrees>19.9528279714286327362060546875</LongitudeDegrees>
            </Position>
            <AltitudeMeters>835.20001220703125</AltitudeMeters>
            <DistanceMeters>NAN</DistanceMeters>
          </Trackpoint>
          <Trackpoint>
            <Time>2022-09-18T15:00:10.000Z</Time>
            <Position>
              <LatitudeDegrees>49.29446431808173656463623046875</LatitudeDegrees>
              <LongitudeDegrees>19.9528293125331401824951171875</LongitudeDegrees>
            </Position>
            <AltitudeMeters>835.4000244140625</AltitudeMeters>
            <DistanceMeters>NAN</DistanceMeters>
          </Trackpoint>
          <Trackpoint>
            <Time>2022-09-18T15:00:13.000Z</Time>
            <Position>
              <LatitudeDegrees>49.2944602109491825103759765625</LatitudeDegrees>
              <LongitudeDegrees>19.9528323300182819366455078125</LongitudeDegrees>
            </Position>
            <AltitudeMeters>835.4000244140625</AltitudeMeters>
            <DistanceMeters>NAN</DistanceMeters>
          </Trackpoint>
          <Trackpoint>
            <Time>2022-09-18T15:00:20.000Z</Time>
            <Position>
              <LatitudeDegrees>49.2944602109491825103759765625</LatitudeDegrees>
              <LongitudeDegrees>19.9528323300182819366455078125</LongitudeDegrees>
            </Position>
            <AltitudeMeters>835.79998779296875</AltitudeMeters>
            <DistanceMeters>NAN</DistanceMeters>
          </Trackpoint>
          <Trackpoint>
            <Time>2022-09-18T15:00:22.000Z</Time>
            <Position>
              <LatitudeDegrees>49.2944474704563617706298828125</LatitudeDegrees>
              <LongitudeDegrees>19.95284129865467548370361328125</LongitudeDegrees>
            </Position>
            <AltitudeMeters>835.79998779296875</AltitudeMeters>
            <DistanceMeters>NAN</DistanceMeters>
          </Trackpoint>
          <Trackpoint>
            <Time>2022-09-18T15:00:27.000Z</Time>
            <Position>
              <LatitudeDegrees>49.294418804347515106201171875</LatitudeDegrees>
              <LongitudeDegrees>19.952883459627628326416015625</LongitudeDegrees>
            </Position>
            <AltitudeMeters>836.20001220703125</AltitudeMeters>
            <DistanceMeters>NAN</DistanceMeters>
          </Trackpoint>
          <Trackpoint>
            <Time>2022-09-18T15:00:31.000Z</Time>
            <Position>
              <LatitudeDegrees>49.29436373524367809295654296875</LatitudeDegrees>
              <LongitudeDegrees>19.95299217291176319122314453125</LongitudeDegrees>
            </Position>
            <AltitudeMeters>836.20001220703125</AltitudeMeters>
            <DistanceMeters>NAN</DistanceMeters>
          </Trackpoint>
          <Trackpoint>
            <Time>2022-09-18T15:00:33.000Z</Time>
            <Position>
              <LatitudeDegrees>49.29435535334050655364990234375</LatitudeDegrees>
              <LongitudeDegrees>19.9530267901718616485595703125</LongitudeDegrees>
            </Position>
            <AltitudeMeters>836.4000244140625</AltitudeMeters>
            <DistanceMeters>NAN</DistanceMeters>
          </Trackpoint>
          <Trackpoint>
            <Time>2022-09-18T15:00:38.000Z</Time>
            <Position>
              <LatitudeDegrees>49.294281005859375</LatitudeDegrees>
              <LongitudeDegrees>19.95315796695649623870849609375</LongitudeDegrees>
            </Position>
            <AltitudeMeters>836.79998779296875</AltitudeMeters>
            <DistanceMeters>NAN</DistanceMeters>
          </Trackpoint>
          <Trackpoint>
            <Time>2022-09-18T15:00:44.000Z</Time>
            <Position>
              <LatitudeDegrees>49.29425627924501895904541015625</LatitudeDegrees>
              <LongitudeDegrees>19.9532038159668445587158203125</LongitudeDegrees>
            </Position>
            <AltitudeMeters>837</AltitudeMeters>
            <DistanceMeters>NAN</DistanceMeters>
          </Trackpoint>
          <Trackpoint>
            <Time>2022-09-18T15:00:46.000Z</Time>
            <Position>
              <LatitudeDegrees>49.29425007663667201995849609375</LatitudeDegrees>
              <LongitudeDegrees>19.95324681513011455535888671875</LongitudeDegrees>
            </Position>
            <AltitudeMeters>837</AltitudeMeters>
            <DistanceMeters>NAN</DistanceMeters>
          </Trackpoint>
          <Trackpoint>
            <Time>2022-09-18T15:00:47.000Z</Time>
            <Position>
              <LatitudeDegrees>49.2942345701158046722412109375</LatitudeDegrees>
              <LongitudeDegrees>19.95328151620924472808837890625</LongitudeDegrees>
            </Position>
            <AltitudeMeters>837.20001220703125</AltitudeMeters>
            <DistanceMeters>NAN</DistanceMeters>
          </Trackpoint>
          <Trackpoint>
            <Time>2022-09-18T15:00:50.000Z</Time>
            <Position>
              <LatitudeDegrees>49.294226355850696563720703125</LatitudeDegrees>
              <LongitudeDegrees>19.95330397970974445343017578125</LongitudeDegrees>
            </Position>
            <AltitudeMeters>837.4000244140625</AltitudeMeters>
            <DistanceMeters>NAN</DistanceMeters>
          </Trackpoint>
          <Trackpoint>
            <Time>2022-09-18T15:00:52.000Z</Time>
            <Position>
              <LatitudeDegrees>49.29420397616922855377197265625</LatitudeDegrees>
              <LongitudeDegrees>19.95334991253912448883056640625</LongitudeDegrees>
            </Position>
            <AltitudeMeters>837.20001220703125</AltitudeMeters>
            <DistanceMeters>NAN</DistanceMeters>
          </Trackpoint>
          <Trackpoint>
            <Time>2022-09-18T15:00:53.000Z</Time>
            <Position>
              <LatitudeDegrees>49.29420389235019683837890625</LatitudeDegrees>
              <LongitudeDegrees>19.95338176377117633819580078125</LongitudeDegrees>
            </Position>
            <AltitudeMeters>837.20001220703125</AltitudeMeters>
            <DistanceMeters>NAN</DistanceMeters>
          </Trackpoint>
          <Trackpoint>
            <Time>2022-09-18T15:00:55.000Z</Time>
            <Position>
              <LatitudeDegrees>49.2941991984844207763671875</LatitudeDegrees>
              <LongitudeDegrees>19.95341093279421329498291015625</LongitudeDegrees>
            </Position>
            <AltitudeMeters>837.20001220703125</AltitudeMeters>
            <DistanceMeters>NAN</DistanceMeters>
          </Trackpoint>
          <Trackpoint>
            <Time>2022-09-18T15:00:56.000Z</Time>
            <Position>
              <LatitudeDegrees>49.29415888153016567230224609375</LatitudeDegrees>
              <LongitudeDegrees>19.953434653580188751220703125</LongitudeDegrees>
            </Position>
            <AltitudeMeters>837.4000244140625</AltitudeMeters>
            <DistanceMeters>NAN</DistanceMeters>
          </Trackpoint>
          <Trackpoint>
            <Time>2022-09-18T15:01:02.000Z</Time>
            <Position>
              <LatitudeDegrees>49.2940409481525421142578125</LatitudeDegrees>
              <LongitudeDegrees>19.95355074293911457061767578125</LongitudeDegrees>
            </Position>
            <AltitudeMeters>837.5999755859375</AltitudeMeters>
            <DistanceMeters>NAN</DistanceMeters>
          </Trackpoint>
          <Trackpoint>
            <Time>2022-09-18T15:01:10.000Z</Time>
            <Position>
              <LatitudeDegrees>49.29402577690780162811279296875</LatitudeDegrees>
              <LongitudeDegrees>19.95368015952408313751220703125</LongitudeDegrees>
            </Position>
            <AltitudeMeters>837.5999755859375</AltitudeMeters>
            <DistanceMeters>NAN</DistanceMeters>
          </Trackpoint>
          <Trackpoint>
            <Time>2022-09-18T15:01:12.000Z</Time>
            <Position>
              <LatitudeDegrees>49.29402510635554790496826171875</LatitudeDegrees>
              <LongitudeDegrees>19.953720979392528533935546875</LongitudeDegrees>
            </Position>
            <AltitudeMeters>838</AltitudeMeters>
            <DistanceMeters>NAN</DistanceMeters>
          </Trackpoint>
          <Trackpoint>
            <Time>2022-09-18T15:01:15.000Z</Time>
            <Position>
              <LatitudeDegrees>49.29402644746005535125732421875</LatitudeDegrees>
              <LongitudeDegrees>19.95373598299920558929443359375</LongitudeDegrees>
            </Position>
            <AltitudeMeters>838.20001220703125</AltitudeMeters>
            <DistanceMeters>NAN</DistanceMeters>
          </Trackpoint>
          <Trackpoint>
            <Time>2022-09-18T15:01:18.000Z</Time>
            <Position>
              <LatitudeDegrees>49.294017143547534942626953125</LatitudeDegrees>
              <LongitudeDegrees>19.95373195968568325042724609375</LongitudeDegrees>
            </Position>
            <AltitudeMeters>838.5999755859375</AltitudeMeters>
            <DistanceMeters>NAN</DistanceMeters>
          </Trackpoint>
          <Trackpoint>
            <Time>2022-09-18T15:01:19.000Z</Time>
            <Position>
              <LatitudeDegrees>49.29401479661464691162109375</LatitudeDegrees>
              <LongitudeDegrees>19.95373179204761981964111328125</LongitudeDegrees>
            </Position>
            <AltitudeMeters>838.5999755859375</AltitudeMeters>
            <DistanceMeters>NAN</DistanceMeters>
          </Trackpoint>
          <Trackpoint>
            <Time>2022-09-18T15:01:25.000Z</Time>
            <Position>
              <LatitudeDegrees>49.29400230757892131805419921875</LatitudeDegrees>
              <LongitudeDegrees>19.95373539626598358154296875</LongitudeDegrees>
            </Position>
            <AltitudeMeters>838.4000244140625</AltitudeMeters>
            <DistanceMeters>NAN</DistanceMeters>
          </Trackpoint>
          <Trackpoint>
            <Time>2022-09-18T15:01:26.000Z</Time>
            <Position>
              <LatitudeDegrees>49.29400230757892131805419921875</LatitudeDegrees>
              <LongitudeDegrees>19.95373539626598358154296875</LongitudeDegrees>
            </Position>
            <AltitudeMeters>838.4000244140625</AltitudeMeters>
            <DistanceMeters>NAN</DistanceMeters>
          </Trackpoint>
          <Trackpoint>
            <Time>2022-09-18T15:01:36.000Z</Time>
            <Position>
              <LatitudeDegrees>49.29400230757892131805419921875</LatitudeDegrees>
              <LongitudeDegrees>19.95373539626598358154296875</LongitudeDegrees>
            </Position>
            <AltitudeMeters>838.5999755859375</AltitudeMeters>
            <DistanceMeters>NAN</DistanceMeters>
          </Trackpoint>
          <Trackpoint>
            <Time>2022-09-18T15:01:38.000Z</Time>
            <Position>
              <LatitudeDegrees>49.29400230757892131805419921875</LatitudeDegrees>
              <LongitudeDegrees>19.95373539626598358154296875</LongitudeDegrees>
            </Position>
            <AltitudeMeters>838.5999755859375</AltitudeMeters>
            <DistanceMeters>NAN</DistanceMeters>
          </Trackpoint>
          <Trackpoint>
            <Time>2022-09-18T15:01:40.000Z</Time>
            <Position>
              <LatitudeDegrees>49.29400230757892131805419921875</LatitudeDegrees>
              <LongitudeDegrees>19.95373539626598358154296875</LongitudeDegrees>
            </Position>
            <AltitudeMeters>838.5999755859375</AltitudeMeters>
            <DistanceMeters>NAN</DistanceMeters>
          </Trackpoint>
          <Trackpoint>
            <Time>2022-09-18T15:01:41.000Z</Time>
            <Position>
              <LatitudeDegrees>49.29400230757892131805419921875</LatitudeDegrees>
              <LongitudeDegrees>19.95373539626598358154296875</LongitudeDegrees>
            </Position>
            <AltitudeMeters>838.5999755859375</AltitudeMeters>
            <DistanceMeters>NAN</DistanceMeters>
          </Trackpoint>
          <Trackpoint>
            <Time>2022-09-18T15:01:44.000Z</Time>
            <Position>
              <LatitudeDegrees>49.29400230757892131805419921875</LatitudeDegrees>
              <LongitudeDegrees>19.95373539626598358154296875</LongitudeDegrees>
            </Position>
            <AltitudeMeters>838.79998779296875</AltitudeMeters>
            <DistanceMeters>NAN</DistanceMeters>
          </Trackpoint>
          <Trackpoint>
            <Time>2022-09-18T15:01:48.000Z</Time>
            <Position>
              <LatitudeDegrees>49.29400230757892131805419921875</LatitudeDegrees>
              <LongitudeDegrees>19.95373539626598358154296875</LongitudeDegrees>
            </Position>
            <AltitudeMeters>838.79998779296875</AltitudeMeters>
            <DistanceMeters>NAN</DistanceMeters>
          </Trackpoint>
          <Trackpoint>
            <Time>2022-09-18T15:02:10.000Z</Time>
            <Position>
              <LatitudeDegrees>49.29400046356022357940673828125</LatitudeDegrees>
              <LongitudeDegrees>19.953735060989856719970703125</LongitudeDegrees>
            </Position>
            <AltitudeMeters>838.5999755859375</AltitudeMeters>
            <DistanceMeters>NAN</DistanceMeters>
          </Trackpoint>
          <Trackpoint>
            <Time>2022-09-18T15:02:14.000Z</Time>
            <Position>
              <LatitudeDegrees>49.29396140389144420623779296875</LatitudeDegrees>
              <LongitudeDegrees>19.95374067686498165130615234375</LongitudeDegrees>
            </Position>
            <AltitudeMeters>838.5999755859375</AltitudeMeters>
            <DistanceMeters>NAN</DistanceMeters>
          </Trackpoint>
          <Trackpoint>
            <Time>2022-09-18T15:02:17.000Z</Time>
            <Position>
              <LatitudeDegrees>49.2939577996730804443359375</LatitudeDegrees>
              <LongitudeDegrees>19.95374151505529880523681640625</LongitudeDegrees>
            </Position>
            <AltitudeMeters>838.79998779296875</AltitudeMeters>
            <DistanceMeters>NAN</DistanceMeters>
          </Trackpoint>
          <Trackpoint>
            <Time>2022-09-18T15:02:20.000Z</Time>
            <Position>
              <LatitudeDegrees>49.2939482443034648895263671875</LatitudeDegrees>
              <LongitudeDegrees>19.95373983867466449737548828125</LongitudeDegrees>
            </Position>
            <AltitudeMeters>838.79998779296875</AltitudeMeters>
            <DistanceMeters>NAN</DistanceMeters>
          </Trackpoint>
          <Trackpoint>
            <Time>2022-09-18T15:02:21.000Z</Time>
            <Position>
              <LatitudeDegrees>49.29394329898059368133544921875</LatitudeDegrees>
              <LongitudeDegrees>19.95373564772307872772216796875</LongitudeDegrees>
            </Position>
            <AltitudeMeters>838.79998779296875</AltitudeMeters>
            <DistanceMeters>NAN</DistanceMeters>
          </Trackpoint>
          <Trackpoint>
            <Time>2022-09-18T15:02:24.000Z</Time>
            <Position>
              <LatitudeDegrees>49.2939390242099761962890625</LatitudeDegrees>
              <LongitudeDegrees>19.95373330079019069671630859375</LongitudeDegrees>
            </Position>
            <AltitudeMeters>839</AltitudeMeters>
            <DistanceMeters>NAN</DistanceMeters>
          </Trackpoint>
          <Trackpoint>
            <Time>2022-09-18T15:02:26.000Z</Time>
            <Position>
              <LatitudeDegrees>49.29390214383602142333984375</LatitudeDegrees>
              <LongitudeDegrees>19.95372760109603404998779296875</LongitudeDegrees>
            </Position>
            <AltitudeMeters>839</AltitudeMeters>
            <DistanceMeters>NAN</DistanceMeters>
          </Trackpoint>
          <Trackpoint>
            <Time>2022-09-18T15:02:30.000Z</Time>
            <Position>
              <LatitudeDegrees>49.29382712580263614654541015625</LatitudeDegrees>
              <LongitudeDegrees>19.9537392519414424896240234375</LongitudeDegrees>
            </Position>
            <AltitudeMeters>838.20001220703125</AltitudeMeters>
            <DistanceMeters>NAN</DistanceMeters>
          </Trackpoint>
          <Trackpoint>
            <Time>2022-09-18T15:02:34.000Z</Time>
            <Position>
              <LatitudeDegrees>49.293783791363239288330078125</LatitudeDegrees>
              <LongitudeDegrees>19.95373397134244441986083984375</LongitudeDegrees>
            </Position>
            <AltitudeMeters>838.20001220703125</AltitudeMeters>
            <DistanceMeters>NAN</DistanceMeters>
          </Trackpoint>
          <Trackpoint>
            <Time>2022-09-18T15:02:36.000Z</Time>
            <Position>
              <LatitudeDegrees>49.293743558228015899658203125</LatitudeDegrees>
              <LongitudeDegrees>19.95373229496181011199951171875</LongitudeDegrees>
            </Position>
            <AltitudeMeters>838.20001220703125</AltitudeMeters>
            <DistanceMeters>NAN</DistanceMeters>
          </Trackpoint>
          <Trackpoint>
            <Time>2022-09-18T15:02:43.000Z</Time>
            <Position>
              <LatitudeDegrees>49.293721430003643035888671875</LatitudeDegrees>
              <LongitudeDegrees>19.9537523277103900909423828125</LongitudeDegrees>
            </Position>
            <AltitudeMeters>838.20001220703125</AltitudeMeters>
            <DistanceMeters>NAN</DistanceMeters>
          </Trackpoint>
          <Trackpoint>
            <Time>2022-09-18T15:02:49.000Z</Time>
            <Position>
              <LatitudeDegrees>49.293699972331523895263671875</LatitudeDegrees>
              <LongitudeDegrees>19.95378208346664905548095703125</LongitudeDegrees>
            </Position>
            <AltitudeMeters>838.20001220703125</AltitudeMeters>
            <DistanceMeters>NAN</DistanceMeters>
          </Trackpoint>
          <Trackpoint>
            <Time>2022-09-18T15:02:55.000Z</Time>
            <Position>
              <LatitudeDegrees>49.293699972331523895263671875</LatitudeDegrees>
              <LongitudeDegrees>19.95378208346664905548095703125</LongitudeDegrees>
            </Position>
            <AltitudeMeters>838.20001220703125</AltitudeMeters>
            <DistanceMeters>NAN</DistanceMeters>
          </Trackpoint>
          <Trackpoint>
            <Time>2022-09-18T15:02:59.000Z</Time>
            <Position>
              <LatitudeDegrees>49.293697290122509002685546875</LatitudeDegrees>
              <LongitudeDegrees>19.95378225110471248626708984375</LongitudeDegrees>
            </Position>
            <AltitudeMeters>838.20001220703125</AltitudeMeters>
            <DistanceMeters>NAN</DistanceMeters>
          </Trackpoint>
          <Trackpoint>
            <Time>2022-09-18T15:03:04.000Z</Time>
            <Position>
              <LatitudeDegrees>49.293697290122509002685546875</LatitudeDegrees>
              <LongitudeDegrees>19.95378225110471248626708984375</LongitudeDegrees>
            </Position>
            <AltitudeMeters>838.20001220703125</AltitudeMeters>
            <DistanceMeters>NAN</DistanceMeters>
          </Trackpoint>
          <Trackpoint>
            <Time>2022-09-18T15:03:07.000Z</Time>
            <Position>
              <LatitudeDegrees>49.293697290122509002685546875</LatitudeDegrees>
              <LongitudeDegrees>19.95378225110471248626708984375</LongitudeDegrees>
            </Position>
            <AltitudeMeters>838.20001220703125</AltitudeMeters>
            <DistanceMeters>NAN</DistanceMeters>
          </Trackpoint>
          <Trackpoint>
            <Time>2022-09-18T15:03:09.000Z</Time>
            <Position>
              <LatitudeDegrees>49.293697290122509002685546875</LatitudeDegrees>
              <LongitudeDegrees>19.95378225110471248626708984375</LongitudeDegrees>
            </Position>
            <AltitudeMeters>838.20001220703125</AltitudeMeters>
            <DistanceMeters>NAN</DistanceMeters>
          </Trackpoint>
          <Trackpoint>
            <Time>2022-09-18T15:03:12.000Z</Time>
            <Position>
              <LatitudeDegrees>49.29366334341466426849365234375</LatitudeDegrees>
              <LongitudeDegrees>19.9537856876850128173828125</LongitudeDegrees>
            </Position>
            <AltitudeMeters>838.20001220703125</AltitudeMeters>
            <DistanceMeters>NAN</DistanceMeters>
          </Trackpoint>
          <Trackpoint>
            <Time>2022-09-18T15:03:16.000Z</Time>
            <Position>
              <LatitudeDegrees>49.2936019040644168853759765625</LatitudeDegrees>
              <LongitudeDegrees>19.95380672626197338104248046875</LongitudeDegrees>
            </Position>
            <AltitudeMeters>838.20001220703125</AltitudeMeters>
            <DistanceMeters>NAN</DistanceMeters>
          </Trackpoint>
          <Trackpoint>
            <Time>2022-09-18T15:03:19.000Z</Time>
            <Position>
              <LatitudeDegrees>49.2935526184737682342529296875</LatitudeDegrees>
              <LongitudeDegrees>19.95382633991539478302001953125</LongitudeDegrees>
            </Position>
            <AltitudeMeters>838.20001220703125</AltitudeMeters>
            <DistanceMeters>NAN</DistanceMeters>
          </Trackpoint>
          <Trackpoint>
            <Time>2022-09-18T15:03:22.000Z</Time>
            <Position>
              <LatitudeDegrees>49.29351381026208400726318359375</LatitudeDegrees>
              <LongitudeDegrees>19.9538374878466129302978515625</LongitudeDegrees>
            </Position>
            <AltitudeMeters>838.20001220703125</AltitudeMeters>
            <DistanceMeters>NAN</DistanceMeters>
          </Trackpoint>
          <Trackpoint>
            <Time>2022-09-18T15:03:26.000Z</Time>
            <Position>
              <LatitudeDegrees>49.2933631874620914459228515625</LatitudeDegrees>
              <LongitudeDegrees>19.95380605570971965789794921875</LongitudeDegrees>
            </Position>
            <AltitudeMeters>838.20001220703125</AltitudeMeters>
            <DistanceMeters>NAN</DistanceMeters>
          </Trackpoint>
          <Trackpoint>
            <Time>2022-09-18T15:03:27.000Z</Time>
            <Position>
              <LatitudeDegrees>49.2933370359241962432861328125</LatitudeDegrees>
              <LongitudeDegrees>19.9537878669798374176025390625</LongitudeDegrees>
            </Position>
            <AltitudeMeters>838.20001220703125</AltitudeMeters>
            <DistanceMeters>NAN</DistanceMeters>
          </Trackpoint>
          <Trackpoint>
            <Time>2022-09-18T15:03:30.000Z</Time>
            <Position>
              <LatitudeDegrees>49.293256066739559173583984375</LatitudeDegrees>
              <LongitudeDegrees>19.9537677504122257232666015625</LongitudeDegrees>
            </Position>
            <AltitudeMeters>838.4000244140625</AltitudeMeters>
            <DistanceMeters>NAN</DistanceMeters>
          </Trackpoint>
          <Trackpoint>
            <Time>2022-09-18T15:03:32.000Z</Time>
            <Position>
              <LatitudeDegrees>49.293230585753917694091796875</LatitudeDegrees>
              <LongitudeDegrees>19.953770935535430908203125</LongitudeDegrees>
            </Position>
            <AltitudeMeters>838.4000244140625</AltitudeMeters>
            <DistanceMeters>NAN</DistanceMeters>
          </Trackpoint>
          <Trackpoint>
            <Time>2022-09-18T15:03:37.000Z</Time>
            <Position>
              <LatitudeDegrees>49.29308809340000152587890625</LatitudeDegrees>
              <LongitudeDegrees>19.953805468976497650146484375</LongitudeDegrees>
            </Position>
            <AltitudeMeters>838.20001220703125</AltitudeMeters>
            <DistanceMeters>NAN</DistanceMeters>
          </Trackpoint>
          <Trackpoint>
            <Time>2022-09-18T15:03:39.000Z</Time>
            <Position>
              <LatitudeDegrees>49.2930600978434085845947265625</LatitudeDegrees>
              <LongitudeDegrees>19.95378409512341022491455078125</LongitudeDegrees>
            </Position>
            <AltitudeMeters>838</AltitudeMeters>
            <DistanceMeters>NAN</DistanceMeters>
          </Trackpoint>
          <Trackpoint>
            <Time>2022-09-18T15:03:41.000Z</Time>
            <Position>
              <LatitudeDegrees>49.29301877506077289581298828125</LatitudeDegrees>
              <LongitudeDegrees>19.95377621613442897796630859375</LongitudeDegrees>
            </Position>
            <AltitudeMeters>838</AltitudeMeters>
            <DistanceMeters>NAN</DistanceMeters>
          </Trackpoint>
          <Trackpoint>
            <Time>2022-09-18T15:03:49.000Z</Time>
            <Position>
              <LatitudeDegrees>49.292984493076801300048828125</LatitudeDegrees>
              <LongitudeDegrees>19.95371653698384761810302734375</LongitudeDegrees>
            </Position>
            <AltitudeMeters>837.79998779296875</AltitudeMeters>
            <DistanceMeters>NAN</DistanceMeters>
          </Trackpoint>
          <Trackpoint>
            <Time>2022-09-18T15:03:57.000Z</Time>
            <Position>
              <LatitudeDegrees>49.29293327964842319488525390625</LatitudeDegrees>
              <LongitudeDegrees>19.953670687973499298095703125</LongitudeDegrees>
            </Position>
            <AltitudeMeters>838.20001220703125</AltitudeMeters>
            <DistanceMeters>NAN</DistanceMeters>
          </Trackpoint>
          <Trackpoint>
            <Time>2022-09-18T15:03:59.000Z</Time>
            <Position>
              <LatitudeDegrees>49.29293428547680377960205078125</LatitudeDegrees>
              <LongitudeDegrees>19.95366557501256465911865234375</LongitudeDegrees>
            </Position>
            <AltitudeMeters>837.79998779296875</AltitudeMeters>
            <DistanceMeters>NAN</DistanceMeters>
          </Trackpoint>
          <Trackpoint>
            <Time>2022-09-18T15:04:02.000Z</Time>
            <Position>
              <LatitudeDegrees>49.29288885556161403656005859375</LatitudeDegrees>
              <LongitudeDegrees>19.95362869463860988616943359375</LongitudeDegrees>
            </Position>
            <AltitudeMeters>837.79998779296875</AltitudeMeters>
            <DistanceMeters>NAN</DistanceMeters>
          </Trackpoint>
          <Trackpoint>
            <Time>2022-09-18T15:04:04.000Z</Time>
            <Position>
              <LatitudeDegrees>49.2928710021078586578369140625</LatitudeDegrees>
              <LongitudeDegrees>19.95360195636749267578125</LongitudeDegrees>
            </Position>
            <AltitudeMeters>837.79998779296875</AltitudeMeters>
            <DistanceMeters>NAN</DistanceMeters>
          </Trackpoint>
          <Trackpoint>
            <Time>2022-09-18T15:04:05.000Z</Time>
            <Position>
              <LatitudeDegrees>49.29285733960568904876708984375</LatitudeDegrees>
              <LongitudeDegrees>19.95358829386532306671142578125</LongitudeDegrees>
            </Position>
            <AltitudeMeters>837.79998779296875</AltitudeMeters>
            <DistanceMeters>NAN</DistanceMeters>
          </Trackpoint>
          <Trackpoint>
            <Time>2022-09-18T15:04:08.000Z</Time>
            <Position>
              <LatitudeDegrees>49.29283797740936279296875</LatitudeDegrees>
              <LongitudeDegrees>19.9535729549825191497802734375</LongitudeDegrees>
            </Position>
            <AltitudeMeters>837.79998779296875</AltitudeMeters>
            <DistanceMeters>NAN</DistanceMeters>
          </Trackpoint>
          <Trackpoint>
            <Time>2022-09-18T15:04:13.000Z</Time>
            <Position>
              <LatitudeDegrees>49.29280419833958148956298828125</LatitudeDegrees>
              <LongitudeDegrees>19.95354638434946537017822265625</LongitudeDegrees>
            </Position>
            <AltitudeMeters>837.5999755859375</AltitudeMeters>
            <DistanceMeters>NAN</DistanceMeters>
          </Trackpoint>
          <Trackpoint>
            <Time>2022-09-18T15:04:21.000Z</Time>
            <Position>
              <LatitudeDegrees>49.2926783859729766845703125</LatitudeDegrees>
              <LongitudeDegrees>19.95349592529237270355224609375</LongitudeDegrees>
            </Position>
            <AltitudeMeters>837.5999755859375</AltitudeMeters>
            <DistanceMeters>NAN</DistanceMeters>
          </Trackpoint>
          <Trackpoint>
            <Time>2022-09-18T15:04:24.000Z</Time>
            <Position>
              <LatitudeDegrees>49.29266153834760189056396484375</LatitudeDegrees>
              <LongitudeDegrees>19.95348938740789890289306640625</LongitudeDegrees>
            </Position>
            <AltitudeMeters>837.79998779296875</AltitudeMeters>
            <DistanceMeters>NAN</DistanceMeters>
          </Trackpoint>
          <Trackpoint>
            <Time>2022-09-18T15:04:30.000Z</Time>
            <Position>
              <LatitudeDegrees>49.2926180362701416015625</LatitudeDegrees>
              <LongitudeDegrees>19.953488968312740325927734375</LongitudeDegrees>
            </Position>
            <AltitudeMeters>838.20001220703125</AltitudeMeters>
            <DistanceMeters>NAN</DistanceMeters>
          </Trackpoint>
          <Trackpoint>
            <Time>2022-09-18T15:04:39.000Z</Time>
            <Position>
              <LatitudeDegrees>49.2925508134067058563232421875</LatitudeDegrees>
              <LongitudeDegrees>19.9534933269023895263671875</LongitudeDegrees>
            </Position>
            <AltitudeMeters>838</AltitudeMeters>
            <DistanceMeters>NAN</DistanceMeters>
          </Trackpoint>
          <Trackpoint>
            <Time>2022-09-18T15:04:46.000Z</Time>
            <Position>
              <LatitudeDegrees>49.2924986779689788818359375</LatitudeDegrees>
              <LongitudeDegrees>19.95347647927701473236083984375</LongitudeDegrees>
            </Position>
            <AltitudeMeters>838.4000244140625</AltitudeMeters>
            <DistanceMeters>NAN</DistanceMeters>
          </Trackpoint>
          <Trackpoint>
            <Time>2022-09-18T15:04:51.000Z</Time>
            <Position>
              <LatitudeDegrees>49.29248333908617496490478515625</LatitudeDegrees>
              <LongitudeDegrees>19.9534557759761810302734375</LongitudeDegrees>
            </Position>
            <AltitudeMeters>838.20001220703125</AltitudeMeters>
            <DistanceMeters>NAN</DistanceMeters>
          </Trackpoint>
          <Trackpoint>
            <Time>2022-09-18T15:04:58.000Z</Time>
            <Position>
              <LatitudeDegrees>49.29248057305812835693359375</LatitudeDegrees>
              <LongitudeDegrees>19.9534566141664981842041015625</LongitudeDegrees>
            </Position>
            <AltitudeMeters>838.4000244140625</AltitudeMeters>
            <DistanceMeters>NAN</DistanceMeters>
          </Trackpoint>
          <Trackpoint>
            <Time>2022-09-18T15:05:00.000Z</Time>
            <Position>
              <LatitudeDegrees>49.29248057305812835693359375</LatitudeDegrees>
              <LongitudeDegrees>19.9534566141664981842041015625</LongitudeDegrees>
            </Position>
            <AltitudeMeters>838.4000244140625</AltitudeMeters>
            <DistanceMeters>NAN</DistanceMeters>
          </Trackpoint>
          <Trackpoint>
            <Time>2022-09-18T15:05:03.000Z</Time>
            <Position>
              <LatitudeDegrees>49.29248057305812835693359375</LatitudeDegrees>
              <LongitudeDegrees>19.9534566141664981842041015625</LongitudeDegrees>
            </Position>
            <AltitudeMeters>838.20001220703125</AltitudeMeters>
            <DistanceMeters>NAN</DistanceMeters>
          </Trackpoint>
          <Trackpoint>
            <Time>2022-09-18T15:05:05.000Z</Time>
            <Position>
              <LatitudeDegrees>49.29248057305812835693359375</LatitudeDegrees>
              <LongitudeDegrees>19.9534566141664981842041015625</LongitudeDegrees>
            </Position>
            <AltitudeMeters>838.20001220703125</AltitudeMeters>
            <DistanceMeters>NAN</DistanceMeters>
          </Trackpoint>
          <Trackpoint>
            <Time>2022-09-18T15:05:09.000Z</Time>
            <Position>
              <LatitudeDegrees>49.292479567229747772216796875</LatitudeDegrees>
              <LongitudeDegrees>19.9534566141664981842041015625</LongitudeDegrees>
            </Position>
            <AltitudeMeters>838.4000244140625</AltitudeMeters>
            <DistanceMeters>NAN</DistanceMeters>
          </Trackpoint>
          <Trackpoint>
            <Time>2022-09-18T15:05:12.000Z</Time>
            <Position>
              <LatitudeDegrees>49.292479567229747772216796875</LatitudeDegrees>
              <LongitudeDegrees>19.9534566141664981842041015625</LongitudeDegrees>
            </Position>
            <AltitudeMeters>838.4000244140625</AltitudeMeters>
            <DistanceMeters>NAN</DistanceMeters>
          </Trackpoint>
          <Trackpoint>
            <Time>2022-09-18T15:05:15.000Z</Time>
            <Position>
              <LatitudeDegrees>49.292479567229747772216796875</LatitudeDegrees>
              <LongitudeDegrees>19.9534566141664981842041015625</LongitudeDegrees>
            </Position>
            <AltitudeMeters>838.20001220703125</AltitudeMeters>
            <DistanceMeters>NAN</DistanceMeters>
          </Trackpoint>
          <Trackpoint>
            <Time>2022-09-18T15:05:21.000Z</Time>
            <Position>
              <LatitudeDegrees>49.29245643317699432373046875</LatitudeDegrees>
              <LongitudeDegrees>19.95345242321491241455078125</LongitudeDegrees>
            </Position>
            <AltitudeMeters>838.4000244140625</AltitudeMeters>
            <DistanceMeters>NAN</DistanceMeters>
          </Trackpoint>
          <Trackpoint>
            <Time>2022-09-18T15:05:24.000Z</Time>
            <Position>
              <LatitudeDegrees>49.292449057102203369140625</LatitudeDegrees>
              <LongitudeDegrees>19.95345083065330982208251953125</LongitudeDegrees>
            </Position>
            <AltitudeMeters>838.5999755859375</AltitudeMeters>
            <DistanceMeters>NAN</DistanceMeters>
          </Trackpoint>
          <Trackpoint>
            <Time>2022-09-18T15:05:28.000Z</Time>
            <Position>
              <LatitudeDegrees>49.2924369871616363525390625</LatitudeDegrees>
              <LongitudeDegrees>19.9534445442259311676025390625</LongitudeDegrees>
            </Position>
            <AltitudeMeters>838.79998779296875</AltitudeMeters>
            <DistanceMeters>NAN</DistanceMeters>
          </Trackpoint>
          <Trackpoint>
            <Time>2022-09-18T15:05:33.000Z</Time>
            <Position>
              <LatitudeDegrees>49.292424581944942474365234375</LatitudeDegrees>
              <LongitudeDegrees>19.95344613678753376007080078125</LongitudeDegrees>
            </Position>
            <AltitudeMeters>839</AltitudeMeters>
            <DistanceMeters>NAN</DistanceMeters>
          </Trackpoint>
          <Trackpoint>
            <Time>2022-09-18T15:05:35.000Z</Time>
            <Position>
              <LatitudeDegrees>49.292424581944942474365234375</LatitudeDegrees>
              <LongitudeDegrees>19.95344613678753376007080078125</LongitudeDegrees>
            </Position>
            <AltitudeMeters>839</AltitudeMeters>
            <DistanceMeters>NAN</DistanceMeters>
          </Trackpoint>
          <Trackpoint>
            <Time>2022-09-18T15:05:40.000Z</Time>
            <Position>
              <LatitudeDegrees>49.292391054332256317138671875</LatitudeDegrees>
              <LongitudeDegrees>19.953462816774845123291015625</LongitudeDegrees>
            </Position>
            <AltitudeMeters>839.20001220703125</AltitudeMeters>
            <DistanceMeters>NAN</DistanceMeters>
          </Trackpoint>
          <Trackpoint>
            <Time>2022-09-18T15:05:42.000Z</Time>
            <Position>
              <LatitudeDegrees>49.29238594137132167816162109375</LatitudeDegrees>
              <LongitudeDegrees>19.95346524752676486968994140625</LongitudeDegrees>
            </Position>
            <AltitudeMeters>839.4000244140625</AltitudeMeters>
            <DistanceMeters>NAN</DistanceMeters>
          </Trackpoint>
          <Trackpoint>
            <Time>2022-09-18T15:05:45.000Z</Time>
            <Position>
              <LatitudeDegrees>49.29238594137132167816162109375</LatitudeDegrees>
              <LongitudeDegrees>19.95346524752676486968994140625</LongitudeDegrees>
            </Position>
            <AltitudeMeters>839.4000244140625</AltitudeMeters>
            <DistanceMeters>NAN</DistanceMeters>
          </Trackpoint>
          <Trackpoint>
            <Time>2022-09-18T15:05:48.000Z</Time>
            <Position>
              <LatitudeDegrees>49.29237923584878444671630859375</LatitudeDegrees>
              <LongitudeDegrees>19.95346893556416034698486328125</LongitudeDegrees>
            </Position>
            <AltitudeMeters>839.4000244140625</AltitudeMeters>
            <DistanceMeters>NAN</DistanceMeters>
          </Trackpoint>
          <Trackpoint>
            <Time>2022-09-18T15:05:52.000Z</Time>
            <Position>
              <LatitudeDegrees>49.2923271842300891876220703125</LatitudeDegrees>
              <LongitudeDegrees>19.95349307544529438018798828125</LongitudeDegrees>
            </Position>
            <AltitudeMeters>839.5999755859375</AltitudeMeters>
            <DistanceMeters>NAN</DistanceMeters>
          </Trackpoint>
          <Trackpoint>
            <Time>2022-09-18T15:05:55.000Z</Time>
            <Position>
              <LatitudeDegrees>49.29230698384344577789306640625</LatitudeDegrees>
              <LongitudeDegrees>19.9535040557384490966796875</LongitudeDegrees>
            </Position>
            <AltitudeMeters>839.5999755859375</AltitudeMeters>
            <DistanceMeters>NAN</DistanceMeters>
          </Trackpoint>
          <Trackpoint>
            <Time>2022-09-18T15:06:02.000Z</Time>
            <Position>
              <LatitudeDegrees>49.2922245897352695465087890625</LatitudeDegrees>
              <LongitudeDegrees>19.95353967882692813873291015625</LongitudeDegrees>
            </Position>
            <AltitudeMeters>839.5999755859375</AltitudeMeters>
            <DistanceMeters>NAN</DistanceMeters>
          </Trackpoint>
          <Trackpoint>
            <Time>2022-09-18T15:06:06.000Z</Time>
            <Position>
              <LatitudeDegrees>49.292197264730930328369140625</LatitudeDegrees>
              <LongitudeDegrees>19.953564740717411041259765625</LongitudeDegrees>
            </Position>
            <AltitudeMeters>839.79998779296875</AltitudeMeters>
            <DistanceMeters>NAN</DistanceMeters>
          </Trackpoint>
          <Trackpoint>
            <Time>2022-09-18T15:06:09.000Z</Time>
            <Position>
              <LatitudeDegrees>49.292197264730930328369140625</LatitudeDegrees>
              <LongitudeDegrees>19.953564740717411041259765625</LongitudeDegrees>
            </Position>
            <AltitudeMeters>839.79998779296875</AltitudeMeters>
            <DistanceMeters>NAN</DistanceMeters>
          </Trackpoint>
          <Trackpoint>
            <Time>2022-09-18T15:06:15.000Z</Time>
            <Position>
              <LatitudeDegrees>49.292197264730930328369140625</LatitudeDegrees>
              <LongitudeDegrees>19.95356482453644275665283203125</LongitudeDegrees>
            </Position>
            <AltitudeMeters>840</AltitudeMeters>
            <DistanceMeters>NAN</DistanceMeters>
          </Trackpoint>
          <Trackpoint>
            <Time>2022-09-18T15:06:19.000Z</Time>
            <Position>
              <LatitudeDegrees>49.292197264730930328369140625</LatitudeDegrees>
              <LongitudeDegrees>19.95356482453644275665283203125</LongitudeDegrees>
            </Position>
            <AltitudeMeters>840</AltitudeMeters>
            <DistanceMeters>NAN</DistanceMeters>
          </Trackpoint>
          <Trackpoint>
            <Time>2022-09-18T15:06:25.000Z</Time>
            <Position>
              <LatitudeDegrees>49.292149655520915985107421875</LatitudeDegrees>
              <LongitudeDegrees>19.9535813368856906890869140625</LongitudeDegrees>
            </Position>
            <AltitudeMeters>840.4000244140625</AltitudeMeters>
            <DistanceMeters>NAN</DistanceMeters>
          </Trackpoint>
          <Trackpoint>
            <Time>2022-09-18T15:06:26.000Z</Time>
            <Position>
              <LatitudeDegrees>49.292149655520915985107421875</LatitudeDegrees>
              <LongitudeDegrees>19.9535813368856906890869140625</LongitudeDegrees>
            </Position>
            <AltitudeMeters>840.4000244140625</AltitudeMeters>
            <DistanceMeters>NAN</DistanceMeters>
          </Trackpoint>
          <Trackpoint>
            <Time>2022-09-18T15:06:31.000Z</Time>
            <Position>
              <LatitudeDegrees>49.29213456809520721435546875</LatitudeDegrees>
              <LongitudeDegrees>19.95358862914144992828369140625</LongitudeDegrees>
            </Position>
            <AltitudeMeters>840.4000244140625</AltitudeMeters>
            <DistanceMeters>NAN</DistanceMeters>
          </Trackpoint>
          <Trackpoint>
            <Time>2022-09-18T15:06:36.000Z</Time>
            <Position>
              <LatitudeDegrees>49.29213456809520721435546875</LatitudeDegrees>
              <LongitudeDegrees>19.95358862914144992828369140625</LongitudeDegrees>
            </Position>
            <AltitudeMeters>840.4000244140625</AltitudeMeters>
            <DistanceMeters>NAN</DistanceMeters>
          </Trackpoint>
          <Trackpoint>
            <Time>2022-09-18T15:06:39.000Z</Time>
            <Position>
              <LatitudeDegrees>49.29212325252592563629150390625</LatitudeDegrees>
              <LongitudeDegrees>19.95359768159687519073486328125</LongitudeDegrees>
            </Position>
            <AltitudeMeters>840.4000244140625</AltitudeMeters>
            <DistanceMeters>NAN</DistanceMeters>
          </Trackpoint>
          <Trackpoint>
            <Time>2022-09-18T15:06:42.000Z</Time>
            <Position>
              <LatitudeDegrees>49.29210900329053401947021484375</LatitudeDegrees>
              <LongitudeDegrees>19.95360606350004673004150390625</LongitudeDegrees>
            </Position>
            <AltitudeMeters>840.5999755859375</AltitudeMeters>
            <DistanceMeters>NAN</DistanceMeters>
          </Trackpoint>
          <Trackpoint>
            <Time>2022-09-18T15:06:43.000Z</Time>
            <Position>
              <LatitudeDegrees>49.29210900329053401947021484375</LatitudeDegrees>
              <LongitudeDegrees>19.95360606350004673004150390625</LongitudeDegrees>
            </Position>
            <AltitudeMeters>840.5999755859375</AltitudeMeters>
            <DistanceMeters>NAN</DistanceMeters>
          </Trackpoint>
          <Trackpoint>
            <Time>2022-09-18T15:06:47.000Z</Time>
            <Position>
              <LatitudeDegrees>49.29202283732593059539794921875</LatitudeDegrees>
              <LongitudeDegrees>19.9536544270813465118408203125</LongitudeDegrees>
            </Position>
            <AltitudeMeters>840.5999755859375</AltitudeMeters>
            <DistanceMeters>NAN</DistanceMeters>
          </Trackpoint>
          <Trackpoint>
            <Time>2022-09-18T15:06:48.000Z</Time>
            <Position>
              <LatitudeDegrees>49.29201143793761730194091796875</LatitudeDegrees>
              <LongitudeDegrees>19.9536607973277568817138671875</LongitudeDegrees>
            </Position>
            <AltitudeMeters>840.79998779296875</AltitudeMeters>
            <DistanceMeters>NAN</DistanceMeters>
          </Trackpoint>
          <Trackpoint>
            <Time>2022-09-18T15:06:54.000Z</Time>
            <Position>
              <LatitudeDegrees>49.2918598093092441558837890625</LatitudeDegrees>
              <LongitudeDegrees>19.9537462927401065826416015625</LongitudeDegrees>
            </Position>
            <AltitudeMeters>840.79998779296875</AltitudeMeters>
            <DistanceMeters>NAN</DistanceMeters>
          </Trackpoint>
          <Trackpoint>
            <Time>2022-09-18T15:06:57.000Z</Time>
            <Position>
              <LatitudeDegrees>49.2918598093092441558837890625</LatitudeDegrees>
              <LongitudeDegrees>19.9537462927401065826416015625</LongitudeDegrees>
            </Position>
            <AltitudeMeters>841.20001220703125</AltitudeMeters>
            <DistanceMeters>NAN</DistanceMeters>
          </Trackpoint>
          <Trackpoint>
            <Time>2022-09-18T15:07:00.000Z</Time>
            <Position>
              <LatitudeDegrees>49.291833825409412384033203125</LatitudeDegrees>
              <LongitudeDegrees>19.95377403683960437774658203125</LongitudeDegrees>
            </Position>
            <AltitudeMeters>841.20001220703125</AltitudeMeters>
            <DistanceMeters>NAN</DistanceMeters>
          </Trackpoint>
          <Trackpoint>
            <Time>2022-09-18T15:07:06.000Z</Time>
            <Position>
              <LatitudeDegrees>49.2916918359696865081787109375</LatitudeDegrees>
              <LongitudeDegrees>19.95389138348400592803955078125</LongitudeDegrees>
            </Position>
            <AltitudeMeters>841.5999755859375</AltitudeMeters>
            <DistanceMeters>NAN</DistanceMeters>
          </Trackpoint>
          <Trackpoint>
            <Time>2022-09-18T15:07:07.000Z</Time>
            <Position>
              <LatitudeDegrees>49.29168705828487873077392578125</LatitudeDegrees>
              <LongitudeDegrees>19.95389423333108425140380859375</LongitudeDegrees>
            </Position>
            <AltitudeMeters>841.5999755859375</AltitudeMeters>
            <DistanceMeters>NAN</DistanceMeters>
          </Trackpoint>
          <Trackpoint>
            <Time>2022-09-18T15:07:11.000Z</Time>
            <Position>
              <LatitudeDegrees>49.2915701307356357574462890625</LatitudeDegrees>
              <LongitudeDegrees>19.954007975757122039794921875</LongitudeDegrees>
            </Position>
            <AltitudeMeters>841.5999755859375</AltitudeMeters>
            <DistanceMeters>NAN</DistanceMeters>
          </Trackpoint>
          <Trackpoint>
            <Time>2022-09-18T15:07:13.000Z</Time>
            <Position>
              <LatitudeDegrees>49.2915357649326324462890625</LatitudeDegrees>
              <LongitudeDegrees>19.9540788866579532623291015625</LongitudeDegrees>
            </Position>
            <AltitudeMeters>841.79998779296875</AltitudeMeters>
            <DistanceMeters>NAN</DistanceMeters>
          </Trackpoint>
          <Trackpoint>
            <Time>2022-09-18T15:07:14.000Z</Time>
            <Position>
              <LatitudeDegrees>49.29152310825884342193603515625</LatitudeDegrees>
              <LongitudeDegrees>19.95408718474209308624267578125</LongitudeDegrees>
            </Position>
            <AltitudeMeters>841.79998779296875</AltitudeMeters>
            <DistanceMeters>NAN</DistanceMeters>
          </Trackpoint>
          <Trackpoint>
            <Time>2022-09-18T15:07:22.000Z</Time>
            <Position>
              <LatitudeDegrees>49.29146267473697662353515625</LatitudeDegrees>
              <LongitudeDegrees>19.95408584363758563995361328125</LongitudeDegrees>
            </Position>
            <AltitudeMeters>841.79998779296875</AltitudeMeters>
            <DistanceMeters>NAN</DistanceMeters>
          </Trackpoint>
          <Trackpoint>
            <Time>2022-09-18T15:07:24.000Z</Time>
            <Position>
              <LatitudeDegrees>49.2914303205907344818115234375</LatitudeDegrees>
              <LongitudeDegrees>19.95408919639885425567626953125</LongitudeDegrees>
            </Position>
            <AltitudeMeters>841.79998779296875</AltitudeMeters>
            <DistanceMeters>NAN</DistanceMeters>
          </Trackpoint>
          <Trackpoint>
            <Time>2022-09-18T15:07:30.000Z</Time>
            <Position>
              <LatitudeDegrees>49.2913399636745452880859375</LatitudeDegrees>
              <LongitudeDegrees>19.9541023559868335723876953125</LongitudeDegrees>
            </Position>
            <AltitudeMeters>842</AltitudeMeters>
            <DistanceMeters>NAN</DistanceMeters>
          </Trackpoint>
          <Trackpoint>
            <Time>2022-09-18T15:07:36.000Z</Time>
            <Position>
              <LatitudeDegrees>49.29133283905684947967529296875</LatitudeDegrees>
              <LongitudeDegrees>19.9541164375841617584228515625</LongitudeDegrees>
            </Position>
            <AltitudeMeters>842.20001220703125</AltitudeMeters>
            <DistanceMeters>NAN</DistanceMeters>
          </Trackpoint>
          <Trackpoint>
            <Time>2022-09-18T15:07:37.000Z</Time>
            <Position>
              <LatitudeDegrees>49.29133283905684947967529296875</LatitudeDegrees>
              <LongitudeDegrees>19.9541164375841617584228515625</LongitudeDegrees>
            </Position>
            <AltitudeMeters>842.20001220703125</AltitudeMeters>
            <DistanceMeters>NAN</DistanceMeters>
          </Trackpoint>
          <Trackpoint>
            <Time>2022-09-18T15:07:38.000Z</Time>
            <Position>
              <LatitudeDegrees>49.29132060147821903228759765625</LatitudeDegrees>
              <LongitudeDegrees>19.9541385658085346221923828125</LongitudeDegrees>
            </Position>
            <AltitudeMeters>842.20001220703125</AltitudeMeters>
            <DistanceMeters>NAN</DistanceMeters>
          </Trackpoint>
          <Trackpoint>
            <Time>2022-09-18T15:07:41.000Z</Time>
            <Position>
              <LatitudeDegrees>49.29127315990626811981201171875</LatitudeDegrees>
              <LongitudeDegrees>19.95414954610168933868408203125</LongitudeDegrees>
            </Position>
            <AltitudeMeters>842.4000244140625</AltitudeMeters>
            <DistanceMeters>NAN</DistanceMeters>
          </Trackpoint>
          <Trackpoint>
            <Time>2022-09-18T15:07:48.000Z</Time>
            <Position>
              <LatitudeDegrees>49.2911423183977603912353515625</LatitudeDegrees>
              <LongitudeDegrees>19.95420302264392375946044921875</LongitudeDegrees>
            </Position>
            <AltitudeMeters>842.5999755859375</AltitudeMeters>
            <DistanceMeters>NAN</DistanceMeters>
          </Trackpoint>
          <Trackpoint>
            <Time>2022-09-18T15:07:55.000Z</Time>
            <Position>
              <LatitudeDegrees>49.29109412245452404022216796875</LatitudeDegrees>
              <LongitudeDegrees>19.9542394839227199554443359375</LongitudeDegrees>
            </Position>
            <AltitudeMeters>842.79998779296875</AltitudeMeters>
            <DistanceMeters>NAN</DistanceMeters>
          </Trackpoint>
          <Trackpoint>
            <Time>2022-09-18T15:08:01.000Z</Time>
            <Position>
              <LatitudeDegrees>49.291015081107616424560546875</LatitudeDegrees>
              <LongitudeDegrees>19.95425096713006496429443359375</LongitudeDegrees>
            </Position>
            <AltitudeMeters>843</AltitudeMeters>
            <DistanceMeters>NAN</DistanceMeters>
          </Trackpoint>
          <Trackpoint>
            <Time>2022-09-18T15:08:08.000Z</Time>
            <Position>
              <LatitudeDegrees>49.29099957458674907684326171875</LatitudeDegrees>
              <LongitudeDegrees>19.95424794964492321014404296875</LongitudeDegrees>
            </Position>
            <AltitudeMeters>843</AltitudeMeters>
            <DistanceMeters>NAN</DistanceMeters>
          </Trackpoint>
          <Trackpoint>
            <Time>2022-09-18T15:08:15.000Z</Time>
            <Position>
              <LatitudeDegrees>49.29099957458674907684326171875</LatitudeDegrees>
              <LongitudeDegrees>19.95424794964492321014404296875</LongitudeDegrees>
            </Position>
            <AltitudeMeters>843.20001220703125</AltitudeMeters>
            <DistanceMeters>NAN</DistanceMeters>
          </Trackpoint>
          <Trackpoint>
            <Time>2022-09-18T15:08:22.000Z</Time>
            <Position>
              <LatitudeDegrees>49.29099957458674907684326171875</LatitudeDegrees>
              <LongitudeDegrees>19.95424794964492321014404296875</LongitudeDegrees>
            </Position>
            <AltitudeMeters>843.4000244140625</AltitudeMeters>
            <DistanceMeters>NAN</DistanceMeters>
          </Trackpoint>
          <Trackpoint>
            <Time>2022-09-18T15:08:37.000Z</Time>
            <Position>
              <LatitudeDegrees>49.29100812412798404693603515625</LatitudeDegrees>
              <LongitudeDegrees>19.9542425014078617095947265625</LongitudeDegrees>
            </Position>
            <AltitudeMeters>843.20001220703125</AltitudeMeters>
            <DistanceMeters>NAN</DistanceMeters>
          </Trackpoint>
          <Trackpoint>
            <Time>2022-09-18T15:08:50.000Z</Time>
            <Position>
              <LatitudeDegrees>49.2909927852451801300048828125</LatitudeDegrees>
              <LongitudeDegrees>19.9542636238038539886474609375</LongitudeDegrees>
            </Position>
            <AltitudeMeters>843.4000244140625</AltitudeMeters>
            <DistanceMeters>NAN</DistanceMeters>
          </Trackpoint>
          <Trackpoint>
            <Time>2022-09-18T15:08:54.000Z</Time>
            <Position>
              <LatitudeDegrees>49.29095112718641757965087890625</LatitudeDegrees>
              <LongitudeDegrees>19.9542699940502643585205078125</LongitudeDegrees>
            </Position>
            <AltitudeMeters>843.5999755859375</AltitudeMeters>
            <DistanceMeters>NAN</DistanceMeters>
          </Trackpoint>
          <Trackpoint>
            <Time>2022-09-18T15:08:56.000Z</Time>
            <Position>
              <LatitudeDegrees>49.2909376323223114013671875</LatitudeDegrees>
              <LongitudeDegrees>19.9542766995728015899658203125</LongitudeDegrees>
            </Position>
            <AltitudeMeters>843.5999755859375</AltitudeMeters>
            <DistanceMeters>NAN</DistanceMeters>
          </Trackpoint>
          <Trackpoint>
            <Time>2022-09-18T15:08:59.000Z</Time>
            <Position>
              <LatitudeDegrees>49.29091257043182849884033203125</LatitudeDegrees>
              <LongitudeDegrees>19.9542850814759731292724609375</LongitudeDegrees>
            </Position>
            <AltitudeMeters>843.5999755859375</AltitudeMeters>
            <DistanceMeters>NAN</DistanceMeters>
          </Trackpoint>
          <Trackpoint>
            <Time>2022-09-18T15:09:01.000Z</Time>
            <Position>
              <LatitudeDegrees>49.2908784560859203338623046875</LatitudeDegrees>
              <LongitudeDegrees>19.9542998336255550384521484375</LongitudeDegrees>
            </Position>
            <AltitudeMeters>843.5999755859375</AltitudeMeters>
            <DistanceMeters>NAN</DistanceMeters>
          </Trackpoint>
          <Trackpoint>
            <Time>2022-09-18T15:09:07.000Z</Time>
            <Position>
              <LatitudeDegrees>49.29082841612398624420166015625</LatitudeDegrees>
              <LongitudeDegrees>19.9543501250445842742919921875</LongitudeDegrees>
            </Position>
            <AltitudeMeters>843.79998779296875</AltitudeMeters>
            <DistanceMeters>NAN</DistanceMeters>
          </Trackpoint>
          <Trackpoint>
            <Time>2022-09-18T15:09:10.000Z</Time>
            <Position>
              <LatitudeDegrees>49.29079723544418811798095703125</LatitudeDegrees>
              <LongitudeDegrees>19.95436814613640308380126953125</LongitudeDegrees>
            </Position>
            <AltitudeMeters>844</AltitudeMeters>
            <DistanceMeters>NAN</DistanceMeters>
          </Trackpoint>
          <Trackpoint>
            <Time>2022-09-18T15:09:14.000Z</Time>
            <Position>
              <LatitudeDegrees>49.29075515829026699066162109375</LatitudeDegrees>
              <LongitudeDegrees>19.95439949445426464080810546875</LongitudeDegrees>
            </Position>
            <AltitudeMeters>844</AltitudeMeters>
            <DistanceMeters>NAN</DistanceMeters>
          </Trackpoint>
          <Trackpoint>
            <Time>2022-09-18T15:09:17.000Z</Time>
            <Position>
              <LatitudeDegrees>49.29072146303951740264892578125</LatitudeDegrees>
              <LongitudeDegrees>19.954383485019207000732421875</LongitudeDegrees>
            </Position>
            <AltitudeMeters>844.20001220703125</AltitudeMeters>
            <DistanceMeters>NAN</DistanceMeters>
          </Trackpoint>
          <Trackpoint>
            <Time>2022-09-18T15:09:19.000Z</Time>
            <Position>
              <LatitudeDegrees>49.29071324877440929412841796875</LatitudeDegrees>
              <LongitudeDegrees>19.9543896876275539398193359375</LongitudeDegrees>
            </Position>
            <AltitudeMeters>844.4000244140625</AltitudeMeters>
            <DistanceMeters>NAN</DistanceMeters>
          </Trackpoint>
          <Trackpoint>
            <Time>2022-09-18T15:09:26.000Z</Time>
            <Position>
              <LatitudeDegrees>49.2906508035957813262939453125</LatitudeDegrees>
              <LongitudeDegrees>19.95444308035075664520263671875</LongitudeDegrees>
            </Position>
            <AltitudeMeters>845.20001220703125</AltitudeMeters>
            <DistanceMeters>NAN</DistanceMeters>
          </Trackpoint>
          <Trackpoint>
            <Time>2022-09-18T15:09:32.000Z</Time>
            <Position>
              <LatitudeDegrees>49.2906065471470355987548828125</LatitudeDegrees>
              <LongitudeDegrees>19.95446034707129001617431640625</LongitudeDegrees>
            </Position>
            <AltitudeMeters>845.20001220703125</AltitudeMeters>
            <DistanceMeters>NAN</DistanceMeters>
          </Trackpoint>
          <Trackpoint>
            <Time>2022-09-18T15:09:37.000Z</Time>
            <Position>
              <LatitudeDegrees>49.2905287630856037139892578125</LatitudeDegrees>
              <LongitudeDegrees>19.95449504815042018890380859375</LongitudeDegrees>
            </Position>
            <AltitudeMeters>845.20001220703125</AltitudeMeters>
            <DistanceMeters>NAN</DistanceMeters>
          </Trackpoint>
          <Trackpoint>
            <Time>2022-09-18T15:09:40.000Z</Time>
            <Position>
              <LatitudeDegrees>49.29051660932600498199462890625</LatitudeDegrees>
              <LongitudeDegrees>19.95450544171035289764404296875</LongitudeDegrees>
            </Position>
            <AltitudeMeters>845.20001220703125</AltitudeMeters>
            <DistanceMeters>NAN</DistanceMeters>
          </Trackpoint>
          <Trackpoint>
            <Time>2022-09-18T15:09:47.000Z</Time>
            <Position>
              <LatitudeDegrees>49.29047134704887866973876953125</LatitudeDegrees>
              <LongitudeDegrees>19.954531677067279815673828125</LongitudeDegrees>
            </Position>
            <AltitudeMeters>845.20001220703125</AltitudeMeters>
            <DistanceMeters>NAN</DistanceMeters>
          </Trackpoint>
          <Trackpoint>
            <Time>2022-09-18T15:09:48.000Z</Time>
            <Position>
              <LatitudeDegrees>49.2904647253453731536865234375</LatitudeDegrees>
              <LongitudeDegrees>19.95452941395342350006103515625</LongitudeDegrees>
            </Position>
            <AltitudeMeters>845.20001220703125</AltitudeMeters>
            <DistanceMeters>NAN</DistanceMeters>
          </Trackpoint>
          <Trackpoint>
            <Time>2022-09-18T15:09:49.000Z</Time>
            <Position>
              <LatitudeDegrees>49.29044754244387149810791015625</LatitudeDegrees>
              <LongitudeDegrees>19.95453360490500926971435546875</LongitudeDegrees>
            </Position>
            <AltitudeMeters>845.20001220703125</AltitudeMeters>
            <DistanceMeters>NAN</DistanceMeters>
          </Trackpoint>
          <Trackpoint>
            <Time>2022-09-18T15:09:51.000Z</Time>
            <Position>
              <LatitudeDegrees>49.2904087342321872711181640625</LatitudeDegrees>
              <LongitudeDegrees>19.9545462615787982940673828125</LongitudeDegrees>
            </Position>
            <AltitudeMeters>845.4000244140625</AltitudeMeters>
            <DistanceMeters>NAN</DistanceMeters>
          </Trackpoint>
          <Trackpoint>
            <Time>2022-09-18T15:09:53.000Z</Time>
            <Position>
              <LatitudeDegrees>49.29037763737142086029052734375</LatitudeDegrees>
              <LongitudeDegrees>19.9545635282993316650390625</LongitudeDegrees>
            </Position>
            <AltitudeMeters>845.4000244140625</AltitudeMeters>
            <DistanceMeters>NAN</DistanceMeters>
          </Trackpoint>
          <Trackpoint>
            <Time>2022-09-18T15:10:03.000Z</Time>
            <Position>
              <LatitudeDegrees>49.29036724381148815155029296875</LatitudeDegrees>
              <LongitudeDegrees>19.95464977808296680450439453125</LongitudeDegrees>
            </Position>
            <AltitudeMeters>845.79998779296875</AltitudeMeters>
            <DistanceMeters>NAN</DistanceMeters>
          </Trackpoint>
          <Trackpoint>
            <Time>2022-09-18T15:10:08.000Z</Time>
            <Position>
              <LatitudeDegrees>49.290332794189453125</LatitudeDegrees>
              <LongitudeDegrees>19.9546880833804607391357421875</LongitudeDegrees>
            </Position>
            <AltitudeMeters>846</AltitudeMeters>
            <DistanceMeters>NAN</DistanceMeters>
          </Trackpoint>
          <Trackpoint>
            <Time>2022-09-18T15:10:12.000Z</Time>
            <Position>
              <LatitudeDegrees>49.2902716062963008880615234375</LatitudeDegrees>
              <LongitudeDegrees>19.9547048471868038177490234375</LongitudeDegrees>
            </Position>
            <AltitudeMeters>846.20001220703125</AltitudeMeters>
            <DistanceMeters>NAN</DistanceMeters>
          </Trackpoint>
          <Trackpoint>
            <Time>2022-09-18T15:10:13.000Z</Time>
            <Position>
              <LatitudeDegrees>49.2902628891170024871826171875</LatitudeDegrees>
              <LongitudeDegrees>19.9547172524034976959228515625</LongitudeDegrees>
            </Position>
            <AltitudeMeters>846.20001220703125</AltitudeMeters>
            <DistanceMeters>NAN</DistanceMeters>
          </Trackpoint>
          <Trackpoint>
            <Time>2022-09-18T15:10:18.000Z</Time>
            <Position>
              <LatitudeDegrees>49.2902193032205104827880859375</LatitudeDegrees>
              <LongitudeDegrees>19.95476963929831981658935546875</LongitudeDegrees>
            </Position>
            <AltitudeMeters>846.4000244140625</AltitudeMeters>
            <DistanceMeters>NAN</DistanceMeters>
          </Trackpoint>
          <Trackpoint>
            <Time>2022-09-18T15:10:26.000Z</Time>
            <Position>
              <LatitudeDegrees>49.29013439454138278961181640625</LatitudeDegrees>
              <LongitudeDegrees>19.9548027478158473968505859375</LongitudeDegrees>
            </Position>
            <AltitudeMeters>846.5999755859375</AltitudeMeters>
            <DistanceMeters>NAN</DistanceMeters>
          </Trackpoint>
          <Trackpoint>
            <Time>2022-09-18T15:10:32.000Z</Time>
            <Position>
              <LatitudeDegrees>49.29012131877243518829345703125</LatitudeDegrees>
              <LongitudeDegrees>19.95481858961284160614013671875</LongitudeDegrees>
            </Position>
            <AltitudeMeters>846.79998779296875</AltitudeMeters>
            <DistanceMeters>NAN</DistanceMeters>
          </Trackpoint>
          <Trackpoint>
            <Time>2022-09-18T15:10:34.000Z</Time>
            <Position>
              <LatitudeDegrees>49.29009986110031604766845703125</LatitudeDegrees>
              <LongitudeDegrees>19.95483183301985263824462890625</LongitudeDegrees>
            </Position>
            <AltitudeMeters>846.79998779296875</AltitudeMeters>
            <DistanceMeters>NAN</DistanceMeters>
          </Trackpoint>
          <Trackpoint>
            <Time>2022-09-18T15:10:43.000Z</Time>
            <Position>
              <LatitudeDegrees>49.2899889685213565826416015625</LatitudeDegrees>
              <LongitudeDegrees>19.95487156324088573455810546875</LongitudeDegrees>
            </Position>
            <AltitudeMeters>846.5999755859375</AltitudeMeters>
            <DistanceMeters>NAN</DistanceMeters>
          </Trackpoint>
          <Trackpoint>
            <Time>2022-09-18T15:10:46.000Z</Time>
            <Position>
              <LatitudeDegrees>49.289958290755748748779296875</LatitudeDegrees>
              <LongitudeDegrees>19.9548815377056598663330078125</LongitudeDegrees>
            </Position>
            <AltitudeMeters>846.5999755859375</AltitudeMeters>
            <DistanceMeters>NAN</DistanceMeters>
          </Trackpoint>
          <Trackpoint>
            <Time>2022-09-18T15:10:50.000Z</Time>
            <Position>
              <LatitudeDegrees>49.289855696260929107666015625</LatitudeDegrees>
              <LongitudeDegrees>19.9549432285130023956298828125</LongitudeDegrees>
            </Position>
            <AltitudeMeters>846.79998779296875</AltitudeMeters>
            <DistanceMeters>NAN</DistanceMeters>
          </Trackpoint>
          <Trackpoint>
            <Time>2022-09-18T15:10:51.000Z</Time>
            <Position>
              <LatitudeDegrees>49.2898387648165225982666015625</LatitudeDegrees>
              <LongitudeDegrees>19.95494800619781017303466796875</LongitudeDegrees>
            </Position>
            <AltitudeMeters>846.79998779296875</AltitudeMeters>
            <DistanceMeters>NAN</DistanceMeters>
          </Trackpoint>
          <Trackpoint>
            <Time>2022-09-18T15:10:58.000Z</Time>
            <Position>
              <LatitudeDegrees>49.2897881381213665008544921875</LatitudeDegrees>
              <LongitudeDegrees>19.95497449301183223724365234375</LongitudeDegrees>
            </Position>
            <AltitudeMeters>847.20001220703125</AltitudeMeters>
            <DistanceMeters>NAN</DistanceMeters>
          </Trackpoint>
          <Trackpoint>
            <Time>2022-09-18T15:11:02.000Z</Time>
            <Position>
              <LatitudeDegrees>49.28975410759449005126953125</LatitudeDegrees>
              <LongitudeDegrees>19.9550092779099941253662109375</LongitudeDegrees>
            </Position>
            <AltitudeMeters>847.20001220703125</AltitudeMeters>
            <DistanceMeters>NAN</DistanceMeters>
          </Trackpoint>
          <Trackpoint>
            <Time>2022-09-18T15:11:05.000Z</Time>
            <Position>
              <LatitudeDegrees>49.2897013016045093536376953125</LatitudeDegrees>
              <LongitudeDegrees>19.955058395862579345703125</LongitudeDegrees>
            </Position>
            <AltitudeMeters>847.4000244140625</AltitudeMeters>
            <DistanceMeters>NAN</DistanceMeters>
          </Trackpoint>
          <Trackpoint>
            <Time>2022-09-18T15:11:14.000Z</Time>
            <Position>
              <LatitudeDegrees>49.28959828801453113555908203125</LatitudeDegrees>
              <LongitudeDegrees>19.95510022155940532684326171875</LongitudeDegrees>
            </Position>
            <AltitudeMeters>847.79998779296875</AltitudeMeters>
            <DistanceMeters>NAN</DistanceMeters>
          </Trackpoint>
          <Trackpoint>
            <Time>2022-09-18T15:11:19.000Z</Time>
            <Position>
              <LatitudeDegrees>49.28955252282321453094482421875</LatitudeDegrees>
              <LongitudeDegrees>19.955120086669921875</LongitudeDegrees>
            </Position>
            <AltitudeMeters>848</AltitudeMeters>
            <DistanceMeters>NAN</DistanceMeters>
          </Trackpoint>
          <Trackpoint>
            <Time>2022-09-18T15:11:23.000Z</Time>
            <Position>
              <LatitudeDegrees>49.2895267903804779052734375</LatitudeDegrees>
              <LongitudeDegrees>19.95512637309730052947998046875</LongitudeDegrees>
            </Position>
            <AltitudeMeters>848.4000244140625</AltitudeMeters>
            <DistanceMeters>NAN</DistanceMeters>
          </Trackpoint>
          <Trackpoint>
            <Time>2022-09-18T15:11:25.000Z</Time>
            <Position>
              <LatitudeDegrees>49.2895205877721309661865234375</LatitudeDegrees>
              <LongitudeDegrees>19.9551356770098209381103515625</LongitudeDegrees>
            </Position>
            <AltitudeMeters>848.5999755859375</AltitudeMeters>
            <DistanceMeters>NAN</DistanceMeters>
          </Trackpoint>
          <Trackpoint>
            <Time>2022-09-18T15:11:26.000Z</Time>
            <Position>
              <LatitudeDegrees>49.28951748646795749664306640625</LatitudeDegrees>
              <LongitudeDegrees>19.955137185752391815185546875</LongitudeDegrees>
            </Position>
            <AltitudeMeters>848.5999755859375</AltitudeMeters>
            <DistanceMeters>NAN</DistanceMeters>
          </Trackpoint>
          <Trackpoint>
            <Time>2022-09-18T15:11:28.000Z</Time>
            <Position>
              <LatitudeDegrees>49.28951748646795749664306640625</LatitudeDegrees>
              <LongitudeDegrees>19.95513877831399440765380859375</LongitudeDegrees>
            </Position>
            <AltitudeMeters>848.5999755859375</AltitudeMeters>
            <DistanceMeters>NAN</DistanceMeters>
          </Trackpoint>
          <Trackpoint>
            <Time>2022-09-18T15:11:35.000Z</Time>
            <Position>
              <LatitudeDegrees>49.28946535103023052215576171875</LatitudeDegrees>
              <LongitudeDegrees>19.95514464564621448516845703125</LongitudeDegrees>
            </Position>
            <AltitudeMeters>849</AltitudeMeters>
            <DistanceMeters>NAN</DistanceMeters>
          </Trackpoint>
          <Trackpoint>
            <Time>2022-09-18T15:11:43.000Z</Time>
            <Position>
              <LatitudeDegrees>49.28936761803925037384033203125</LatitudeDegrees>
              <LongitudeDegrees>19.9551951885223388671875</LongitudeDegrees>
            </Position>
            <AltitudeMeters>849.20001220703125</AltitudeMeters>
            <DistanceMeters>NAN</DistanceMeters>
          </Trackpoint>
          <Trackpoint>
            <Time>2022-09-18T15:11:45.000Z</Time>
            <Position>
              <LatitudeDegrees>49.28936761803925037384033203125</LatitudeDegrees>
              <LongitudeDegrees>19.9551951885223388671875</LongitudeDegrees>
            </Position>
            <AltitudeMeters>849.4000244140625</AltitudeMeters>
            <DistanceMeters>NAN</DistanceMeters>
          </Trackpoint>
          <Trackpoint>
            <Time>2022-09-18T15:11:49.000Z</Time>
            <Position>
              <LatitudeDegrees>49.28934247232973575592041015625</LatitudeDegrees>
              <LongitudeDegrees>19.95522863231599330902099609375</LongitudeDegrees>
            </Position>
            <AltitudeMeters>849.5999755859375</AltitudeMeters>
            <DistanceMeters>NAN</DistanceMeters>
          </Trackpoint>
          <Trackpoint>
            <Time>2022-09-18T15:11:50.000Z</Time>
            <Position>
              <LatitudeDegrees>49.2893214337527751922607421875</LatitudeDegrees>
              <LongitudeDegrees>19.9552453123033046722412109375</LongitudeDegrees>
            </Position>
            <AltitudeMeters>849.5999755859375</AltitudeMeters>
            <DistanceMeters>NAN</DistanceMeters>
          </Trackpoint>
          <Trackpoint>
            <Time>2022-09-18T15:11:53.000Z</Time>
            <Position>
              <LatitudeDegrees>49.28931212984025478363037109375</LatitudeDegrees>
              <LongitudeDegrees>19.95525310747325420379638671875</LongitudeDegrees>
            </Position>
            <AltitudeMeters>850</AltitudeMeters>
            <DistanceMeters>NAN</DistanceMeters>
          </Trackpoint>
          <Trackpoint>
            <Time>2022-09-18T15:11:59.000Z</Time>
            <Position>
              <LatitudeDegrees>49.28922965191304683685302734375</LatitudeDegrees>
              <LongitudeDegrees>19.955284707248210906982421875</LongitudeDegrees>
            </Position>
            <AltitudeMeters>850.20001220703125</AltitudeMeters>
            <DistanceMeters>NAN</DistanceMeters>
          </Trackpoint>
          <Trackpoint>
            <Time>2022-09-18T15:12:08.000Z</Time>
            <Position>
              <LatitudeDegrees>49.2891232855618000030517578125</LatitudeDegrees>
              <LongitudeDegrees>19.955328293144702911376953125</LongitudeDegrees>
            </Position>
            <AltitudeMeters>850.4000244140625</AltitudeMeters>
            <DistanceMeters>NAN</DistanceMeters>
          </Trackpoint>
          <Trackpoint>
            <Time>2022-09-18T15:12:09.000Z</Time>
            <Position>
              <LatitudeDegrees>49.28911834023892879486083984375</LatitudeDegrees>
              <LongitudeDegrees>19.95533265173435211181640625</LongitudeDegrees>
            </Position>
            <AltitudeMeters>850.5999755859375</AltitudeMeters>
            <DistanceMeters>NAN</DistanceMeters>
          </Trackpoint>
          <Trackpoint>
            <Time>2022-09-18T15:12:15.000Z</Time>
            <Position>
              <LatitudeDegrees>49.28909285925328731536865234375</LatitudeDegrees>
              <LongitudeDegrees>19.95535033755004405975341796875</LongitudeDegrees>
            </Position>
            <AltitudeMeters>850.79998779296875</AltitudeMeters>
            <DistanceMeters>NAN</DistanceMeters>
          </Trackpoint>
          <Trackpoint>
            <Time>2022-09-18T15:12:18.000Z</Time>
            <Position>
              <LatitudeDegrees>49.28909285925328731536865234375</LatitudeDegrees>
              <LongitudeDegrees>19.95535033755004405975341796875</LongitudeDegrees>
            </Position>
            <AltitudeMeters>850.79998779296875</AltitudeMeters>
            <DistanceMeters>NAN</DistanceMeters>
          </Trackpoint>
          <Trackpoint>
            <Time>2022-09-18T15:12:21.000Z</Time>
            <Position>
              <LatitudeDegrees>49.2890869081020355224609375</LatitudeDegrees>
              <LongitudeDegrees>19.95535503141582012176513671875</LongitudeDegrees>
            </Position>
            <AltitudeMeters>851</AltitudeMeters>
            <DistanceMeters>NAN</DistanceMeters>
          </Trackpoint>
          <Trackpoint>
            <Time>2022-09-18T15:12:23.000Z</Time>
            <Position>
              <LatitudeDegrees>49.28907257504761219024658203125</LatitudeDegrees>
              <LongitudeDegrees>19.9553596414625644683837890625</LongitudeDegrees>
            </Position>
            <AltitudeMeters>851.20001220703125</AltitudeMeters>
            <DistanceMeters>NAN</DistanceMeters>
          </Trackpoint>
          <Trackpoint>
            <Time>2022-09-18T15:12:32.000Z</Time>
            <Position>
              <LatitudeDegrees>49.2890600860118865966796875</LatitudeDegrees>
              <LongitudeDegrees>19.9553693644702434539794921875</LongitudeDegrees>
            </Position>
            <AltitudeMeters>851.4000244140625</AltitudeMeters>
            <DistanceMeters>NAN</DistanceMeters>
          </Trackpoint>
          <Trackpoint>
            <Time>2022-09-18T15:12:35.000Z</Time>
            <Position>
              <LatitudeDegrees>49.2890600860118865966796875</LatitudeDegrees>
              <LongitudeDegrees>19.9553693644702434539794921875</LongitudeDegrees>
            </Position>
            <AltitudeMeters>851.5999755859375</AltitudeMeters>
            <DistanceMeters>NAN</DistanceMeters>
          </Trackpoint>
          <Trackpoint>
            <Time>2022-09-18T15:12:37.000Z</Time>
            <Position>
              <LatitudeDegrees>49.2890600860118865966796875</LatitudeDegrees>
              <LongitudeDegrees>19.9553693644702434539794921875</LongitudeDegrees>
            </Position>
            <AltitudeMeters>851.5999755859375</AltitudeMeters>
            <DistanceMeters>NAN</DistanceMeters>
          </Trackpoint>
          <Trackpoint>
            <Time>2022-09-18T15:12:46.000Z</Time>
            <Position>
              <LatitudeDegrees>49.2890091240406036376953125</LatitudeDegrees>
              <LongitudeDegrees>19.9554111063480377197265625</LongitudeDegrees>
            </Position>
            <AltitudeMeters>852</AltitudeMeters>
            <DistanceMeters>NAN</DistanceMeters>
          </Trackpoint>
          <Trackpoint>
            <Time>2022-09-18T15:12:54.000Z</Time>
            <Position>
              <LatitudeDegrees>49.2889018356800079345703125</LatitudeDegrees>
              <LongitudeDegrees>19.9554733000695705413818359375</LongitudeDegrees>
            </Position>
            <AltitudeMeters>852.20001220703125</AltitudeMeters>
            <DistanceMeters>NAN</DistanceMeters>
          </Trackpoint>
          <Trackpoint>
            <Time>2022-09-18T15:12:55.000Z</Time>
            <Position>
              <LatitudeDegrees>49.28888347931206226348876953125</LatitudeDegrees>
              <LongitudeDegrees>19.95548662729561328887939453125</LongitudeDegrees>
            </Position>
            <AltitudeMeters>852.20001220703125</AltitudeMeters>
            <DistanceMeters>NAN</DistanceMeters>
          </Trackpoint>
          <Trackpoint>
            <Time>2022-09-18T15:13:03.000Z</Time>
            <Position>
              <LatitudeDegrees>49.28880552761256694793701171875</LatitudeDegrees>
              <LongitudeDegrees>19.95554362423717975616455078125</LongitudeDegrees>
            </Position>
            <AltitudeMeters>852.4000244140625</AltitudeMeters>
            <DistanceMeters>NAN</DistanceMeters>
          </Trackpoint>
          <Trackpoint>
            <Time>2022-09-18T15:13:05.000Z</Time>
            <Position>
              <LatitudeDegrees>49.28879479877650737762451171875</LatitudeDegrees>
              <LongitudeDegrees>19.95555250905454158782958984375</LongitudeDegrees>
            </Position>
            <AltitudeMeters>852.5999755859375</AltitudeMeters>
            <DistanceMeters>NAN</DistanceMeters>
          </Trackpoint>
          <Trackpoint>
            <Time>2022-09-18T15:13:07.000Z</Time>
            <Position>
              <LatitudeDegrees>49.288771413266658782958984375</LatitudeDegrees>
              <LongitudeDegrees>19.95558620430529117584228515625</LongitudeDegrees>
            </Position>
            <AltitudeMeters>852.5999755859375</AltitudeMeters>
            <DistanceMeters>NAN</DistanceMeters>
          </Trackpoint>
          <Trackpoint>
            <Time>2022-09-18T15:13:12.000Z</Time>
            <Position>
              <LatitudeDegrees>49.28869823925197124481201171875</LatitudeDegrees>
              <LongitudeDegrees>19.95570816099643707275390625</LongitudeDegrees>
            </Position>
            <AltitudeMeters>852.79998779296875</AltitudeMeters>
            <DistanceMeters>NAN</DistanceMeters>
          </Trackpoint>
          <Trackpoint>
            <Time>2022-09-18T15:13:17.000Z</Time>
            <Position>
              <LatitudeDegrees>49.2885969020426273345947265625</LatitudeDegrees>
              <LongitudeDegrees>19.95577119290828704833984375</LongitudeDegrees>
            </Position>
            <AltitudeMeters>853</AltitudeMeters>
            <DistanceMeters>NAN</DistanceMeters>
          </Trackpoint>
          <Trackpoint>
            <Time>2022-09-18T15:13:18.000Z</Time>
            <Position>
              <LatitudeDegrees>49.2885677330195903778076171875</LatitudeDegrees>
              <LongitudeDegrees>19.955786950886249542236328125</LongitudeDegrees>
            </Position>
            <AltitudeMeters>853</AltitudeMeters>
            <DistanceMeters>NAN</DistanceMeters>
          </Trackpoint>
          <Trackpoint>
            <Time>2022-09-18T15:13:22.000Z</Time>
            <Position>
              <LatitudeDegrees>49.2884983308613300323486328125</LatitudeDegrees>
              <LongitudeDegrees>19.95583145879209041595458984375</LongitudeDegrees>
            </Position>
            <AltitudeMeters>853.20001220703125</AltitudeMeters>
            <DistanceMeters>NAN</DistanceMeters>
          </Trackpoint>
          <Trackpoint>
            <Time>2022-09-18T15:13:23.000Z</Time>
            <Position>
              <LatitudeDegrees>49.288445524871349334716796875</LatitudeDegrees>
              <LongitudeDegrees>19.95583665557205677032470703125</LongitudeDegrees>
            </Position>
            <AltitudeMeters>853.20001220703125</AltitudeMeters>
            <DistanceMeters>NAN</DistanceMeters>
          </Trackpoint>
          <Trackpoint>
            <Time>2022-09-18T15:13:28.000Z</Time>
            <Position>
              <LatitudeDegrees>49.28842616267502307891845703125</LatitudeDegrees>
              <LongitudeDegrees>19.95581218041479587554931640625</LongitudeDegrees>
            </Position>
            <AltitudeMeters>853.4000244140625</AltitudeMeters>
            <DistanceMeters>NAN</DistanceMeters>
          </Trackpoint>
          <Trackpoint>
            <Time>2022-09-18T15:13:30.000Z</Time>
            <Position>
              <LatitudeDegrees>49.28842616267502307891845703125</LatitudeDegrees>
              <LongitudeDegrees>19.95581218041479587554931640625</LongitudeDegrees>
            </Position>
            <AltitudeMeters>853.4000244140625</AltitudeMeters>
            <DistanceMeters>NAN</DistanceMeters>
          </Trackpoint>
          <Trackpoint>
            <Time>2022-09-18T15:13:48.000Z</Time>
            <Position>
              <LatitudeDegrees>49.28842616267502307891845703125</LatitudeDegrees>
              <LongitudeDegrees>19.95581218041479587554931640625</LongitudeDegrees>
            </Position>
            <AltitudeMeters>853.4000244140625</AltitudeMeters>
            <DistanceMeters>NAN</DistanceMeters>
          </Trackpoint>
          <Trackpoint>
            <Time>2022-09-18T15:13:52.000Z</Time>
            <Position>
              <LatitudeDegrees>49.2884238995611667633056640625</LatitudeDegrees>
              <LongitudeDegrees>19.95581251569092273712158203125</LongitudeDegrees>
            </Position>
            <AltitudeMeters>853.5999755859375</AltitudeMeters>
            <DistanceMeters>NAN</DistanceMeters>
          </Trackpoint>
          <Trackpoint>
            <Time>2022-09-18T15:13:53.000Z</Time>
            <Position>
              <LatitudeDegrees>49.2884238995611667633056640625</LatitudeDegrees>
              <LongitudeDegrees>19.95581251569092273712158203125</LongitudeDegrees>
            </Position>
            <AltitudeMeters>853.5999755859375</AltitudeMeters>
            <DistanceMeters>NAN</DistanceMeters>
          </Trackpoint>
          <Trackpoint>
            <Time>2022-09-18T15:13:55.000Z</Time>
            <Position>
              <LatitudeDegrees>49.2884238995611667633056640625</LatitudeDegrees>
              <LongitudeDegrees>19.95581251569092273712158203125</LongitudeDegrees>
            </Position>
            <AltitudeMeters>853.5999755859375</AltitudeMeters>
            <DistanceMeters>NAN</DistanceMeters>
          </Trackpoint>
          <Trackpoint>
            <Time>2022-09-18T15:14:00.000Z</Time>
            <Position>
              <LatitudeDegrees>49.2883558385074138641357421875</LatitudeDegrees>
              <LongitudeDegrees>19.95583347044885158538818359375</LongitudeDegrees>
            </Position>
            <AltitudeMeters>853.79998779296875</AltitudeMeters>
            <DistanceMeters>NAN</DistanceMeters>
          </Trackpoint>
          <Trackpoint>
            <Time>2022-09-18T15:14:10.000Z</Time>
            <Position>
              <LatitudeDegrees>49.28825877606868743896484375</LatitudeDegrees>
              <LongitudeDegrees>19.95586129836738109588623046875</LongitudeDegrees>
            </Position>
            <AltitudeMeters>854.20001220703125</AltitudeMeters>
            <DistanceMeters>NAN</DistanceMeters>
          </Trackpoint>
          <Trackpoint>
            <Time>2022-09-18T15:14:16.000Z</Time>
            <Position>
              <LatitudeDegrees>49.2881999351084232330322265625</LatitudeDegrees>
              <LongitudeDegrees>19.95590262115001678466796875</LongitudeDegrees>
            </Position>
            <AltitudeMeters>854.20001220703125</AltitudeMeters>
            <DistanceMeters>NAN</DistanceMeters>
          </Trackpoint>
          <Trackpoint>
            <Time>2022-09-18T15:14:18.000Z</Time>
            <Position>
              <LatitudeDegrees>49.28816481493413448333740234375</LatitudeDegrees>
              <LongitudeDegrees>19.9559229053556919097900390625</LongitudeDegrees>
            </Position>
            <AltitudeMeters>854.4000244140625</AltitudeMeters>
            <DistanceMeters>NAN</DistanceMeters>
          </Trackpoint>
          <Trackpoint>
            <Time>2022-09-18T15:14:21.000Z</Time>
            <Position>
              <LatitudeDegrees>49.28813983686268329620361328125</LatitudeDegrees>
              <LongitudeDegrees>19.95595048181712627410888671875</LongitudeDegrees>
            </Position>
            <AltitudeMeters>854.4000244140625</AltitudeMeters>
            <DistanceMeters>NAN</DistanceMeters>
          </Trackpoint>
          <Trackpoint>
            <Time>2022-09-18T15:14:22.000Z</Time>
            <Position>
              <LatitudeDegrees>49.288136065006256103515625</LatitudeDegrees>
              <LongitudeDegrees>19.95595148764550685882568359375</LongitudeDegrees>
            </Position>
            <AltitudeMeters>854.4000244140625</AltitudeMeters>
            <DistanceMeters>NAN</DistanceMeters>
          </Trackpoint>
          <Trackpoint>
            <Time>2022-09-18T15:14:23.000Z</Time>
            <Position>
              <LatitudeDegrees>49.288136065006256103515625</LatitudeDegrees>
              <LongitudeDegrees>19.95595148764550685882568359375</LongitudeDegrees>
            </Position>
            <AltitudeMeters>854.4000244140625</AltitudeMeters>
            <DistanceMeters>NAN</DistanceMeters>
          </Trackpoint>
          <Trackpoint>
            <Time>2022-09-18T15:14:25.000Z</Time>
            <Position>
              <LatitudeDegrees>49.28810857236385345458984375</LatitudeDegrees>
              <LongitudeDegrees>19.955995492637157440185546875</LongitudeDegrees>
            </Position>
            <AltitudeMeters>854.5999755859375</AltitudeMeters>
            <DistanceMeters>NAN</DistanceMeters>
          </Trackpoint>
          <Trackpoint>
            <Time>2022-09-18T15:14:27.000Z</Time>
            <Position>
              <LatitudeDegrees>49.28809289820492267608642578125</LatitudeDegrees>
              <LongitudeDegrees>19.956009574234485626220703125</LongitudeDegrees>
            </Position>
            <AltitudeMeters>854.79998779296875</AltitudeMeters>
            <DistanceMeters>NAN</DistanceMeters>
          </Trackpoint>
          <Trackpoint>
            <Time>2022-09-18T15:14:33.000Z</Time>
            <Position>
              <LatitudeDegrees>49.2880346439778804779052734375</LatitudeDegrees>
              <LongitudeDegrees>19.9561057984828948974609375</LongitudeDegrees>
            </Position>
            <AltitudeMeters>854.79998779296875</AltitudeMeters>
            <DistanceMeters>NAN</DistanceMeters>
          </Trackpoint>
          <Trackpoint>
            <Time>2022-09-18T15:14:34.000Z</Time>
            <Position>
              <LatitudeDegrees>49.28800220601260662078857421875</LatitudeDegrees>
              <LongitudeDegrees>19.95612398721277713775634765625</LongitudeDegrees>
            </Position>
            <AltitudeMeters>854.79998779296875</AltitudeMeters>
            <DistanceMeters>NAN</DistanceMeters>
          </Trackpoint>
          <Trackpoint>
            <Time>2022-09-18T15:14:37.000Z</Time>
            <Position>
              <LatitudeDegrees>49.28786071948707103729248046875</LatitudeDegrees>
              <LongitudeDegrees>19.9561616219580173492431640625</LongitudeDegrees>
            </Position>
            <AltitudeMeters>855</AltitudeMeters>
            <DistanceMeters>NAN</DistanceMeters>
          </Trackpoint>
          <Trackpoint>
            <Time>2022-09-18T15:14:40.000Z</Time>
            <Position>
              <LatitudeDegrees>49.28783624432981014251708984375</LatitudeDegrees>
              <LongitudeDegrees>19.95613102801144123077392578125</LongitudeDegrees>
            </Position>
            <AltitudeMeters>855.20001220703125</AltitudeMeters>
            <DistanceMeters>NAN</DistanceMeters>
          </Trackpoint>
          <Trackpoint>
            <Time>2022-09-18T15:14:43.000Z</Time>
            <Position>
              <LatitudeDegrees>49.2878026328980922698974609375</LatitudeDegrees>
              <LongitudeDegrees>19.95612834580242633819580078125</LongitudeDegrees>
            </Position>
            <AltitudeMeters>855.20001220703125</AltitudeMeters>
            <DistanceMeters>NAN</DistanceMeters>
          </Trackpoint>
          <Trackpoint>
            <Time>2022-09-18T15:14:46.000Z</Time>
            <Position>
              <LatitudeDegrees>49.2877556942403316497802734375</LatitudeDegrees>
              <LongitudeDegrees>19.9561280943453311920166015625</LongitudeDegrees>
            </Position>
            <AltitudeMeters>855.20001220703125</AltitudeMeters>
            <DistanceMeters>NAN</DistanceMeters>
          </Trackpoint>
          <Trackpoint>
            <Time>2022-09-18T15:14:51.000Z</Time>
            <Position>
              <LatitudeDegrees>49.2876653373241424560546875</LatitudeDegrees>
              <LongitudeDegrees>19.9561264179646968841552734375</LongitudeDegrees>
            </Position>
            <AltitudeMeters>855.4000244140625</AltitudeMeters>
            <DistanceMeters>NAN</DistanceMeters>
          </Trackpoint>
          <Trackpoint>
            <Time>2022-09-18T15:14:52.000Z</Time>
            <Position>
              <LatitudeDegrees>49.28764999844133853912353515625</LatitudeDegrees>
              <LongitudeDegrees>19.95612264610826969146728515625</LongitudeDegrees>
            </Position>
            <AltitudeMeters>855.4000244140625</AltitudeMeters>
            <DistanceMeters>NAN</DistanceMeters>
          </Trackpoint>
          <Trackpoint>
            <Time>2022-09-18T15:14:54.000Z</Time>
            <Position>
              <LatitudeDegrees>49.28763918578624725341796875</LatitudeDegrees>
              <LongitudeDegrees>19.956124238669872283935546875</LongitudeDegrees>
            </Position>
            <AltitudeMeters>855.5999755859375</AltitudeMeters>
            <DistanceMeters>NAN</DistanceMeters>
          </Trackpoint>
          <Trackpoint>
            <Time>2022-09-18T15:15:02.000Z</Time>
            <Position>
              <LatitudeDegrees>49.287590570747852325439453125</LatitudeDegrees>
              <LongitudeDegrees>19.95613337494432926177978515625</LongitudeDegrees>
            </Position>
            <AltitudeMeters>855.79998779296875</AltitudeMeters>
            <DistanceMeters>NAN</DistanceMeters>
          </Trackpoint>
          <Trackpoint>
            <Time>2022-09-18T15:15:06.000Z</Time>
            <Position>
              <LatitudeDegrees>49.28756517358124256134033203125</LatitudeDegrees>
              <LongitudeDegrees>19.95614008046686649322509765625</LongitudeDegrees>
            </Position>
            <AltitudeMeters>856</AltitudeMeters>
            <DistanceMeters>NAN</DistanceMeters>
          </Trackpoint>
          <Trackpoint>
            <Time>2022-09-18T15:15:09.000Z</Time>
            <Position>
              <LatitudeDegrees>49.28755930624902248382568359375</LatitudeDegrees>
              <LongitudeDegrees>19.956142343580722808837890625</LongitudeDegrees>
            </Position>
            <AltitudeMeters>856.20001220703125</AltitudeMeters>
            <DistanceMeters>NAN</DistanceMeters>
          </Trackpoint>
          <Trackpoint>
            <Time>2022-09-18T15:15:16.000Z</Time>
            <Position>
              <LatitudeDegrees>49.28752896375954151153564453125</LatitudeDegrees>
              <LongitudeDegrees>19.95615147985517978668212890625</LongitudeDegrees>
            </Position>
            <AltitudeMeters>856.5999755859375</AltitudeMeters>
            <DistanceMeters>NAN</DistanceMeters>
          </Trackpoint>
          <Trackpoint>
            <Time>2022-09-18T15:15:22.000Z</Time>
            <Position>
              <LatitudeDegrees>49.28750935010612010955810546875</LatitudeDegrees>
              <LongitudeDegrees>19.9561244063079357147216796875</LongitudeDegrees>
            </Position>
            <AltitudeMeters>856.4000244140625</AltitudeMeters>
            <DistanceMeters>NAN</DistanceMeters>
          </Trackpoint>
          <Trackpoint>
            <Time>2022-09-18T15:15:26.000Z</Time>
            <Position>
              <LatitudeDegrees>49.2874593101441860198974609375</LatitudeDegrees>
              <LongitudeDegrees>19.95611677877604961395263671875</LongitudeDegrees>
            </Position>
            <AltitudeMeters>856.5999755859375</AltitudeMeters>
            <DistanceMeters>NAN</DistanceMeters>
          </Trackpoint>
          <Trackpoint>
            <Time>2022-09-18T15:15:30.000Z</Time>
            <Position>
              <LatitudeDegrees>49.28740591742098331451416015625</LatitudeDegrees>
              <LongitudeDegrees>19.956114180386066436767578125</LongitudeDegrees>
            </Position>
            <AltitudeMeters>856.79998779296875</AltitudeMeters>
            <DistanceMeters>NAN</DistanceMeters>
          </Trackpoint>
          <Trackpoint>
            <Time>2022-09-18T15:15:37.000Z</Time>
            <Position>
              <LatitudeDegrees>49.28734791465103626251220703125</LatitudeDegrees>
              <LongitudeDegrees>19.95614494197070598602294921875</LongitudeDegrees>
            </Position>
            <AltitudeMeters>857</AltitudeMeters>
            <DistanceMeters>NAN</DistanceMeters>
          </Trackpoint>
          <Trackpoint>
            <Time>2022-09-18T15:15:44.000Z</Time>
            <Position>
              <LatitudeDegrees>49.28726158104836940765380859375</LatitudeDegrees>
              <LongitudeDegrees>19.95616824366152286529541015625</LongitudeDegrees>
            </Position>
            <AltitudeMeters>857.20001220703125</AltitudeMeters>
            <DistanceMeters>NAN</DistanceMeters>
          </Trackpoint>
          <Trackpoint>
            <Time>2022-09-18T15:15:52.000Z</Time>
            <Position>
              <LatitudeDegrees>49.28717860020697116851806640625</LatitudeDegrees>
              <LongitudeDegrees>19.9561616219580173492431640625</LongitudeDegrees>
            </Position>
            <AltitudeMeters>857.5999755859375</AltitudeMeters>
            <DistanceMeters>NAN</DistanceMeters>
          </Trackpoint>
          <Trackpoint>
            <Time>2022-09-18T15:15:55.000Z</Time>
            <Position>
              <LatitudeDegrees>49.28713400848209857940673828125</LatitudeDegrees>
              <LongitudeDegrees>19.9561710096895694732666015625</LongitudeDegrees>
            </Position>
            <AltitudeMeters>857.5999755859375</AltitudeMeters>
            <DistanceMeters>NAN</DistanceMeters>
          </Trackpoint>
          <Trackpoint>
            <Time>2022-09-18T15:15:58.000Z</Time>
            <Position>
              <LatitudeDegrees>49.2871136404573917388916015625</LatitudeDegrees>
              <LongitudeDegrees>19.956180565059185028076171875</LongitudeDegrees>
            </Position>
            <AltitudeMeters>857.79998779296875</AltitudeMeters>
            <DistanceMeters>NAN</DistanceMeters>
          </Trackpoint>
          <Trackpoint>
            <Time>2022-09-18T15:16:00.000Z</Time>
            <Position>
              <LatitudeDegrees>49.2870660312473773956298828125</LatitudeDegrees>
              <LongitudeDegrees>19.956226162612438201904296875</LongitudeDegrees>
            </Position>
            <AltitudeMeters>858</AltitudeMeters>
            <DistanceMeters>NAN</DistanceMeters>
          </Trackpoint>
          <Trackpoint>
            <Time>2022-09-18T15:16:07.000Z</Time>
            <Position>
              <LatitudeDegrees>49.28701213560998439788818359375</LatitudeDegrees>
              <LongitudeDegrees>19.956277795135974884033203125</LongitudeDegrees>
            </Position>
            <AltitudeMeters>858.20001220703125</AltitudeMeters>
            <DistanceMeters>NAN</DistanceMeters>
          </Trackpoint>
          <Trackpoint>
            <Time>2022-09-18T15:16:11.000Z</Time>
            <Position>
              <LatitudeDegrees>49.28694692440330982208251953125</LatitudeDegrees>
              <LongitudeDegrees>19.956292212009429931640625</LongitudeDegrees>
            </Position>
            <AltitudeMeters>858.20001220703125</AltitudeMeters>
            <DistanceMeters>NAN</DistanceMeters>
          </Trackpoint>
          <Trackpoint>
            <Time>2022-09-18T15:16:13.000Z</Time>
            <Position>
              <LatitudeDegrees>49.286913312971591949462890625</LatitudeDegrees>
              <LongitudeDegrees>19.9562937207520008087158203125</LongitudeDegrees>
            </Position>
            <AltitudeMeters>858.4000244140625</AltitudeMeters>
            <DistanceMeters>NAN</DistanceMeters>
          </Trackpoint>
          <Trackpoint>
            <Time>2022-09-18T15:16:20.000Z</Time>
            <Position>
              <LatitudeDegrees>49.28688053973019123077392578125</LatitudeDegrees>
              <LongitudeDegrees>19.9562548287212848663330078125</LongitudeDegrees>
            </Position>
            <AltitudeMeters>858.5999755859375</AltitudeMeters>
            <DistanceMeters>NAN</DistanceMeters>
          </Trackpoint>
          <Trackpoint>
            <Time>2022-09-18T15:16:23.000Z</Time>
            <Position>
              <LatitudeDegrees>49.28686126135289669036865234375</LatitudeDegrees>
              <LongitudeDegrees>19.9562601931393146514892578125</LongitudeDegrees>
            </Position>
            <AltitudeMeters>858.5999755859375</AltitudeMeters>
            <DistanceMeters>NAN</DistanceMeters>
          </Trackpoint>
          <Trackpoint>
            <Time>2022-09-18T15:16:24.000Z</Time>
            <Position>
              <LatitudeDegrees>49.2868521250784397125244140625</LatitudeDegrees>
              <LongitudeDegrees>19.95626145042479038238525390625</LongitudeDegrees>
            </Position>
            <AltitudeMeters>858.79998779296875</AltitudeMeters>
            <DistanceMeters>NAN</DistanceMeters>
          </Trackpoint>
          <Trackpoint>
            <Time>2022-09-18T15:16:25.000Z</Time>
            <Position>
              <LatitudeDegrees>49.2868420667946338653564453125</LatitudeDegrees>
              <LongitudeDegrees>19.95626631192862987518310546875</LongitudeDegrees>
            </Position>
            <AltitudeMeters>858.79998779296875</AltitudeMeters>
            <DistanceMeters>NAN</DistanceMeters>
          </Trackpoint>
          <Trackpoint>
            <Time>2022-09-18T15:16:30.000Z</Time>
            <Position>
              <LatitudeDegrees>49.2867837287485599517822265625</LatitudeDegrees>
              <LongitudeDegrees>19.95626245625317096710205078125</LongitudeDegrees>
            </Position>
            <AltitudeMeters>859.20001220703125</AltitudeMeters>
            <DistanceMeters>NAN</DistanceMeters>
          </Trackpoint>
          <Trackpoint>
            <Time>2022-09-18T15:16:32.000Z</Time>
            <Position>
              <LatitudeDegrees>49.28677274845540523529052734375</LatitudeDegrees>
              <LongitudeDegrees>19.95625223033130168914794921875</LongitudeDegrees>
            </Position>
            <AltitudeMeters>859.20001220703125</AltitudeMeters>
            <DistanceMeters>NAN</DistanceMeters>
          </Trackpoint>
          <Trackpoint>
            <Time>2022-09-18T15:16:39.000Z</Time>
            <Position>
              <LatitudeDegrees>49.28672128356993198394775390625</LatitudeDegrees>
              <LongitudeDegrees>19.95625088922679424285888671875</LongitudeDegrees>
            </Position>
            <AltitudeMeters>859.5999755859375</AltitudeMeters>
            <DistanceMeters>NAN</DistanceMeters>
          </Trackpoint>
          <Trackpoint>
            <Time>2022-09-18T15:16:41.000Z</Time>
            <Position>
              <LatitudeDegrees>49.286718182265758514404296875</LatitudeDegrees>
              <LongitudeDegrees>19.9562491290271282196044921875</LongitudeDegrees>
            </Position>
            <AltitudeMeters>859.79998779296875</AltitudeMeters>
            <DistanceMeters>NAN</DistanceMeters>
          </Trackpoint>
          <Trackpoint>
            <Time>2022-09-18T15:16:44.000Z</Time>
            <Position>
              <LatitudeDegrees>49.28670485503971576690673828125</LatitudeDegrees>
              <LongitudeDegrees>19.95624971576035022735595703125</LongitudeDegrees>
            </Position>
            <AltitudeMeters>860</AltitudeMeters>
            <DistanceMeters>NAN</DistanceMeters>
          </Trackpoint>
          <Trackpoint>
            <Time>2022-09-18T15:16:46.000Z</Time>
            <Position>
              <LatitudeDegrees>49.2866898514330387115478515625</LatitudeDegrees>
              <LongitudeDegrees>19.95625223033130168914794921875</LongitudeDegrees>
            </Position>
            <AltitudeMeters>860</AltitudeMeters>
            <DistanceMeters>NAN</DistanceMeters>
          </Trackpoint>
          <Trackpoint>
            <Time>2022-09-18T15:16:47.000Z</Time>
            <Position>
              <LatitudeDegrees>49.2866875045001506805419921875</LatitudeDegrees>
              <LongitudeDegrees>19.9562481231987476348876953125</LongitudeDegrees>
            </Position>
            <AltitudeMeters>860</AltitudeMeters>
            <DistanceMeters>NAN</DistanceMeters>
          </Trackpoint>
          <Trackpoint>
            <Time>2022-09-18T15:16:51.000Z</Time>
            <Position>
              <LatitudeDegrees>49.2866801284253597259521484375</LatitudeDegrees>
              <LongitudeDegrees>19.956244267523288726806640625</LongitudeDegrees>
            </Position>
            <AltitudeMeters>860.20001220703125</AltitudeMeters>
            <DistanceMeters>NAN</DistanceMeters>
          </Trackpoint>
          <Trackpoint>
            <Time>2022-09-18T15:16:55.000Z</Time>
            <Position>
              <LatitudeDegrees>49.28663176484405994415283203125</LatitudeDegrees>
              <LongitudeDegrees>19.95626446790993213653564453125</LongitudeDegrees>
            </Position>
            <AltitudeMeters>860.20001220703125</AltitudeMeters>
            <DistanceMeters>NAN</DistanceMeters>
          </Trackpoint>
          <Trackpoint>
            <Time>2022-09-18T15:17:04.000Z</Time>
            <Position>
              <LatitudeDegrees>49.28643831051886081695556640625</LatitudeDegrees>
              <LongitudeDegrees>19.9563557468354701995849609375</LongitudeDegrees>
            </Position>
            <AltitudeMeters>860.4000244140625</AltitudeMeters>
            <DistanceMeters>NAN</DistanceMeters>
          </Trackpoint>
          <Trackpoint>
            <Time>2022-09-18T15:17:08.000Z</Time>
            <Position>
              <LatitudeDegrees>49.28641618229448795318603515625</LatitudeDegrees>
              <LongitudeDegrees>19.95632867328822612762451171875</LongitudeDegrees>
            </Position>
            <AltitudeMeters>860.79998779296875</AltitudeMeters>
            <DistanceMeters>NAN</DistanceMeters>
          </Trackpoint>
          <Trackpoint>
            <Time>2022-09-18T15:17:10.000Z</Time>
            <Position>
              <LatitudeDegrees>49.28639061748981475830078125</LatitudeDegrees>
              <LongitudeDegrees>19.9563312716782093048095703125</LongitudeDegrees>
            </Position>
            <AltitudeMeters>861</AltitudeMeters>
            <DistanceMeters>NAN</DistanceMeters>
          </Trackpoint>
          <Trackpoint>
            <Time>2022-09-18T15:17:18.000Z</Time>
            <Position>
              <LatitudeDegrees>49.2862866818904876708984375</LatitudeDegrees>
              <LongitudeDegrees>19.956286847591400146484375</LongitudeDegrees>
            </Position>
            <AltitudeMeters>861</AltitudeMeters>
            <DistanceMeters>NAN</DistanceMeters>
          </Trackpoint>
          <Trackpoint>
            <Time>2022-09-18T15:17:20.000Z</Time>
            <Position>
              <LatitudeDegrees>49.28628190420567989349365234375</LatitudeDegrees>
              <LongitudeDegrees>19.956282489001750946044921875</LongitudeDegrees>
            </Position>
            <AltitudeMeters>861</AltitudeMeters>
            <DistanceMeters>NAN</DistanceMeters>
          </Trackpoint>
          <Trackpoint>
            <Time>2022-09-18T15:17:25.000Z</Time>
            <Position>
              <LatitudeDegrees>49.28625323809683322906494140625</LatitudeDegrees>
              <LongitudeDegrees>19.95625893585383892059326171875</LongitudeDegrees>
            </Position>
            <AltitudeMeters>861.20001220703125</AltitudeMeters>
            <DistanceMeters>NAN</DistanceMeters>
          </Trackpoint>
          <Trackpoint>
            <Time>2022-09-18T15:17:26.000Z</Time>
            <Position>
              <LatitudeDegrees>49.2862459458410739898681640625</LatitudeDegrees>
              <LongitudeDegrees>19.95625306852161884307861328125</LongitudeDegrees>
            </Position>
            <AltitudeMeters>861.20001220703125</AltitudeMeters>
            <DistanceMeters>NAN</DistanceMeters>
          </Trackpoint>
          <Trackpoint>
            <Time>2022-09-18T15:17:29.000Z</Time>
            <Position>
              <LatitudeDegrees>49.2862301878631114959716796875</LatitudeDegrees>
              <LongitudeDegrees>19.95621853508055210113525390625</LongitudeDegrees>
            </Position>
            <AltitudeMeters>861.5999755859375</AltitudeMeters>
            <DistanceMeters>NAN</DistanceMeters>
          </Trackpoint>
          <Trackpoint>
            <Time>2022-09-18T15:17:32.000Z</Time>
            <Position>
              <LatitudeDegrees>49.28623102605342864990234375</LatitudeDegrees>
              <LongitudeDegrees>19.95620210655033588409423828125</LongitudeDegrees>
            </Position>
            <AltitudeMeters>861.79998779296875</AltitudeMeters>
            <DistanceMeters>NAN</DistanceMeters>
          </Trackpoint>
          <Trackpoint>
            <Time>2022-09-18T15:17:34.000Z</Time>
            <Position>
              <LatitudeDegrees>49.28623010404407978057861328125</LatitudeDegrees>
              <LongitudeDegrees>19.9561995081603527069091796875</LongitudeDegrees>
            </Position>
            <AltitudeMeters>862</AltitudeMeters>
            <DistanceMeters>NAN</DistanceMeters>
          </Trackpoint>
          <Trackpoint>
            <Time>2022-09-18T15:17:40.000Z</Time>
            <Position>
              <LatitudeDegrees>49.28621686063706874847412109375</LatitudeDegrees>
              <LongitudeDegrees>19.95610923506319522857666015625</LongitudeDegrees>
            </Position>
            <AltitudeMeters>862.4000244140625</AltitudeMeters>
            <DistanceMeters>NAN</DistanceMeters>
          </Trackpoint>
          <Trackpoint>
            <Time>2022-09-18T15:17:42.000Z</Time>
            <Position>
              <LatitudeDegrees>49.2862030304968357086181640625</LatitudeDegrees>
              <LongitudeDegrees>19.95607587508857250213623046875</LongitudeDegrees>
            </Position>
            <AltitudeMeters>862.4000244140625</AltitudeMeters>
            <DistanceMeters>NAN</DistanceMeters>
          </Trackpoint>
          <Trackpoint>
            <Time>2022-09-18T15:17:47.000Z</Time>
            <Position>
              <LatitudeDegrees>49.2861906252801418304443359375</LatitudeDegrees>
              <LongitudeDegrees>19.9560134299099445343017578125</LongitudeDegrees>
            </Position>
            <AltitudeMeters>862.4000244140625</AltitudeMeters>
            <DistanceMeters>NAN</DistanceMeters>
          </Trackpoint>
          <Trackpoint>
            <Time>2022-09-18T15:17:55.000Z</Time>
            <Position>
              <LatitudeDegrees>49.2861906252801418304443359375</LatitudeDegrees>
              <LongitudeDegrees>19.9560134299099445343017578125</LongitudeDegrees>
            </Position>
            <AltitudeMeters>862.5999755859375</AltitudeMeters>
            <DistanceMeters>NAN</DistanceMeters>
          </Trackpoint>
          <Trackpoint>
            <Time>2022-09-18T15:18:02.000Z</Time>
            <Position>
              <LatitudeDegrees>49.2861906252801418304443359375</LatitudeDegrees>
              <LongitudeDegrees>19.9560134299099445343017578125</LongitudeDegrees>
            </Position>
            <AltitudeMeters>862.5999755859375</AltitudeMeters>
            <DistanceMeters>NAN</DistanceMeters>
          </Trackpoint>
          <Trackpoint>
            <Time>2022-09-18T15:18:05.000Z</Time>
            <Position>
              <LatitudeDegrees>49.2861906252801418304443359375</LatitudeDegrees>
              <LongitudeDegrees>19.9560134299099445343017578125</LongitudeDegrees>
            </Position>
            <AltitudeMeters>862.5999755859375</AltitudeMeters>
            <DistanceMeters>NAN</DistanceMeters>
          </Trackpoint>
          <Trackpoint>
            <Time>2022-09-18T15:18:13.000Z</Time>
            <Position>
              <LatitudeDegrees>49.2861802317202091217041015625</LatitudeDegrees>
              <LongitudeDegrees>19.95598870329558849334716796875</LongitudeDegrees>
            </Position>
            <AltitudeMeters>862.79998779296875</AltitudeMeters>
            <DistanceMeters>NAN</DistanceMeters>
          </Trackpoint>
          <Trackpoint>
            <Time>2022-09-18T15:18:14.000Z</Time>
            <Position>
              <LatitudeDegrees>49.28617528639733791351318359375</LatitudeDegrees>
              <LongitudeDegrees>19.9559705145657062530517578125</LongitudeDegrees>
            </Position>
            <AltitudeMeters>863</AltitudeMeters>
            <DistanceMeters>NAN</DistanceMeters>
          </Trackpoint>
          <Trackpoint>
            <Time>2022-09-18T15:18:15.000Z</Time>
            <Position>
              <LatitudeDegrees>49.2861691676080226898193359375</LatitudeDegrees>
              <LongitudeDegrees>19.95595165528357028961181640625</LongitudeDegrees>
            </Position>
            <AltitudeMeters>863</AltitudeMeters>
            <DistanceMeters>NAN</DistanceMeters>
          </Trackpoint>
          <Trackpoint>
            <Time>2022-09-18T15:18:16.000Z</Time>
            <Position>
              <LatitudeDegrees>49.28616640157997608184814453125</LatitudeDegrees>
              <LongitudeDegrees>19.9559316225349903106689453125</LongitudeDegrees>
            </Position>
            <AltitudeMeters>863</AltitudeMeters>
            <DistanceMeters>NAN</DistanceMeters>
          </Trackpoint>
          <Trackpoint>
            <Time>2022-09-18T15:18:21.000Z</Time>
            <Position>
              <LatitudeDegrees>49.2861225642263889312744140625</LatitudeDegrees>
              <LongitudeDegrees>19.95586951263248920440673828125</LongitudeDegrees>
            </Position>
            <AltitudeMeters>863.20001220703125</AltitudeMeters>
            <DistanceMeters>NAN</DistanceMeters>
          </Trackpoint>
          <Trackpoint>
            <Time>2022-09-18T15:18:22.000Z</Time>
            <Position>
              <LatitudeDegrees>49.2861037887632846832275390625</LatitudeDegrees>
              <LongitudeDegrees>19.95586775243282318115234375</LongitudeDegrees>
            </Position>
            <AltitudeMeters>863.20001220703125</AltitudeMeters>
            <DistanceMeters>NAN</DistanceMeters>
          </Trackpoint>
          <Trackpoint>
            <Time>2022-09-18T15:18:26.000Z</Time>
            <Position>
              <LatitudeDegrees>49.2860628850758075714111328125</LatitudeDegrees>
              <LongitudeDegrees>19.955836571753025054931640625</LongitudeDegrees>
            </Position>
            <AltitudeMeters>863.4000244140625</AltitudeMeters>
            <DistanceMeters>NAN</DistanceMeters>
          </Trackpoint>
          <Trackpoint>
            <Time>2022-09-18T15:18:30.000Z</Time>
            <Position>
              <LatitudeDegrees>49.2860192991793155670166015625</LatitudeDegrees>
              <LongitudeDegrees>19.95576876215636730194091796875</LongitudeDegrees>
            </Position>
            <AltitudeMeters>863.20001220703125</AltitudeMeters>
            <DistanceMeters>NAN</DistanceMeters>
          </Trackpoint>
          <Trackpoint>
            <Time>2022-09-18T15:18:36.000Z</Time>
            <Position>
              <LatitudeDegrees>49.28595316596329212188720703125</LatitudeDegrees>
              <LongitudeDegrees>19.9557260982692241668701171875</LongitudeDegrees>
            </Position>
            <AltitudeMeters>863.20001220703125</AltitudeMeters>
            <DistanceMeters>NAN</DistanceMeters>
          </Trackpoint>
          <Trackpoint>
            <Time>2022-09-18T15:18:38.000Z</Time>
            <Position>
              <LatitudeDegrees>49.2859465442597866058349609375</LatitudeDegrees>
              <LongitudeDegrees>19.95571511797606945037841796875</LongitudeDegrees>
            </Position>
            <AltitudeMeters>863.4000244140625</AltitudeMeters>
            <DistanceMeters>NAN</DistanceMeters>
          </Trackpoint>
          <Trackpoint>
            <Time>2022-09-18T15:18:44.000Z</Time>
            <Position>
              <LatitudeDegrees>49.28589642047882080078125</LatitudeDegrees>
              <LongitudeDegrees>19.9556912295520305633544921875</LongitudeDegrees>
            </Position>
            <AltitudeMeters>863.79998779296875</AltitudeMeters>
            <DistanceMeters>NAN</DistanceMeters>
          </Trackpoint>
          <Trackpoint>
            <Time>2022-09-18T15:18:47.000Z</Time>
            <Position>
              <LatitudeDegrees>49.28586599417030811309814453125</LatitudeDegrees>
              <LongitudeDegrees>19.9556712806224822998046875</LongitudeDegrees>
            </Position>
            <AltitudeMeters>864</AltitudeMeters>
            <DistanceMeters>NAN</DistanceMeters>
          </Trackpoint>
          <Trackpoint>
            <Time>2022-09-18T15:18:50.000Z</Time>
            <Position>
              <LatitudeDegrees>49.2858348973095417022705078125</LatitudeDegrees>
              <LongitudeDegrees>19.9556600488722324371337890625</LongitudeDegrees>
            </Position>
            <AltitudeMeters>864.20001220703125</AltitudeMeters>
            <DistanceMeters>NAN</DistanceMeters>
          </Trackpoint>
          <Trackpoint>
            <Time>2022-09-18T15:18:53.000Z</Time>
            <Position>
              <LatitudeDegrees>49.28580447100102901458740234375</LatitudeDegrees>
              <LongitudeDegrees>19.95564672164618968963623046875</LongitudeDegrees>
            </Position>
            <AltitudeMeters>864.20001220703125</AltitudeMeters>
            <DistanceMeters>NAN</DistanceMeters>
          </Trackpoint>
          <Trackpoint>
            <Time>2022-09-18T15:18:55.000Z</Time>
            <Position>
              <LatitudeDegrees>49.285788796842098236083984375</LatitudeDegrees>
              <LongitudeDegrees>19.955640770494937896728515625</LongitudeDegrees>
            </Position>
            <AltitudeMeters>864.4000244140625</AltitudeMeters>
            <DistanceMeters>NAN</DistanceMeters>
          </Trackpoint>
          <Trackpoint>
            <Time>2022-09-18T15:18:56.000Z</Time>
            <Position>
              <LatitudeDegrees>49.2857752181589603424072265625</LatitudeDegrees>
              <LongitudeDegrees>19.95563196949660778045654296875</LongitudeDegrees>
            </Position>
            <AltitudeMeters>864.4000244140625</AltitudeMeters>
            <DistanceMeters>NAN</DistanceMeters>
          </Trackpoint>
          <Trackpoint>
            <Time>2022-09-18T15:19:00.000Z</Time>
            <Position>
              <LatitudeDegrees>49.2857306264340877532958984375</LatitudeDegrees>
              <LongitudeDegrees>19.95560967363417148590087890625</LongitudeDegrees>
            </Position>
            <AltitudeMeters>864.5999755859375</AltitudeMeters>
            <DistanceMeters>NAN</DistanceMeters>
          </Trackpoint>
          <Trackpoint>
            <Time>2022-09-18T15:19:02.000Z</Time>
            <Position>
              <LatitudeDegrees>49.2857121862471103668212890625</LatitudeDegrees>
              <LongitudeDegrees>19.955598525702953338623046875</LongitudeDegrees>
            </Position>
            <AltitudeMeters>864.79998779296875</AltitudeMeters>
            <DistanceMeters>NAN</DistanceMeters>
          </Trackpoint>
          <Trackpoint>
            <Time>2022-09-18T15:19:07.000Z</Time>
            <Position>
              <LatitudeDegrees>49.28570606745779514312744140625</LatitudeDegrees>
              <LongitudeDegrees>19.95561352930963039398193359375</LongitudeDegrees>
            </Position>
            <AltitudeMeters>865</AltitudeMeters>
            <DistanceMeters>NAN</DistanceMeters>
          </Trackpoint>
          <Trackpoint>
            <Time>2022-09-18T15:19:09.000Z</Time>
            <Position>
              <LatitudeDegrees>49.28570908494293689727783203125</LatitudeDegrees>
              <LongitudeDegrees>19.95563917793333530426025390625</LongitudeDegrees>
            </Position>
            <AltitudeMeters>865.20001220703125</AltitudeMeters>
            <DistanceMeters>NAN</DistanceMeters>
          </Trackpoint>
          <Trackpoint>
            <Time>2022-09-18T15:19:11.000Z</Time>
            <Position>
              <LatitudeDegrees>49.2856970988214015960693359375</LatitudeDegrees>
              <LongitudeDegrees>19.955672957003116607666015625</LongitudeDegrees>
            </Position>
            <AltitudeMeters>865.20001220703125</AltitudeMeters>
            <DistanceMeters>NAN</DistanceMeters>
          </Trackpoint>
          <Trackpoint>
            <Time>2022-09-18T15:19:13.000Z</Time>
            <Position>
              <LatitudeDegrees>49.2856934107840061187744140625</LatitudeDegrees>
              <LongitudeDegrees>19.9557043053209781646728515625</LongitudeDegrees>
            </Position>
            <AltitudeMeters>865.20001220703125</AltitudeMeters>
            <DistanceMeters>NAN</DistanceMeters>
          </Trackpoint>
          <Trackpoint>
            <Time>2022-09-18T15:19:14.000Z</Time>
            <Position>
              <LatitudeDegrees>49.2856870405375957489013671875</LatitudeDegrees>
              <LongitudeDegrees>19.955713190138339996337890625</LongitudeDegrees>
            </Position>
            <AltitudeMeters>865.20001220703125</AltitudeMeters>
            <DistanceMeters>NAN</DistanceMeters>
          </Trackpoint>
          <Trackpoint>
            <Time>2022-09-18T15:19:19.000Z</Time>
            <Position>
              <LatitudeDegrees>49.285678826272487640380859375</LatitudeDegrees>
              <LongitudeDegrees>19.95571562089025974273681640625</LongitudeDegrees>
            </Position>
            <AltitudeMeters>865</AltitudeMeters>
            <DistanceMeters>NAN</DistanceMeters>
          </Trackpoint>
          <Trackpoint>
            <Time>2022-09-18T15:19:25.000Z</Time>
            <Position>
              <LatitudeDegrees>49.28563180379569530487060546875</LatitudeDegrees>
              <LongitudeDegrees>19.95571888983249664306640625</LongitudeDegrees>
            </Position>
            <AltitudeMeters>865.4000244140625</AltitudeMeters>
            <DistanceMeters>NAN</DistanceMeters>
          </Trackpoint>
          <Trackpoint>
            <Time>2022-09-18T15:19:30.000Z</Time>
            <Position>
              <LatitudeDegrees>49.2855981923639774322509765625</LatitudeDegrees>
              <LongitudeDegrees>19.95572584681212902069091796875</LongitudeDegrees>
            </Position>
            <AltitudeMeters>865.5999755859375</AltitudeMeters>
            <DistanceMeters>NAN</DistanceMeters>
          </Trackpoint>
          <Trackpoint>
            <Time>2022-09-18T15:19:36.000Z</Time>
            <Position>
              <LatitudeDegrees>49.28558402694761753082275390625</LatitudeDegrees>
              <LongitudeDegrees>19.95572567917406558990478515625</LongitudeDegrees>
            </Position>
            <AltitudeMeters>865.79998779296875</AltitudeMeters>
            <DistanceMeters>NAN</DistanceMeters>
          </Trackpoint>
          <Trackpoint>
            <Time>2022-09-18T15:19:40.000Z</Time>
            <Position>
              <LatitudeDegrees>49.2855452187359333038330078125</LatitudeDegrees>
              <LongitudeDegrees>19.955760799348354339599609375</LongitudeDegrees>
            </Position>
            <AltitudeMeters>865.79998779296875</AltitudeMeters>
            <DistanceMeters>NAN</DistanceMeters>
          </Trackpoint>
          <Trackpoint>
            <Time>2022-09-18T15:19:41.000Z</Time>
            <Position>
              <LatitudeDegrees>49.2855452187359333038330078125</LatitudeDegrees>
              <LongitudeDegrees>19.955760799348354339599609375</LongitudeDegrees>
            </Position>
            <AltitudeMeters>865.79998779296875</AltitudeMeters>
            <DistanceMeters>NAN</DistanceMeters>
          </Trackpoint>
          <Trackpoint>
            <Time>2022-09-18T15:19:45.000Z</Time>
            <Position>
              <LatitudeDegrees>49.285528622567653656005859375</LatitudeDegrees>
              <LongitudeDegrees>19.9557804130017757415771484375</LongitudeDegrees>
            </Position>
            <AltitudeMeters>866</AltitudeMeters>
            <DistanceMeters>NAN</DistanceMeters>
          </Trackpoint>
          <Trackpoint>
            <Time>2022-09-18T15:19:48.000Z</Time>
            <Position>
              <LatitudeDegrees>49.28547321818768978118896484375</LatitudeDegrees>
              <LongitudeDegrees>19.9558053910732269287109375</LongitudeDegrees>
            </Position>
            <AltitudeMeters>866.20001220703125</AltitudeMeters>
            <DistanceMeters>NAN</DistanceMeters>
          </Trackpoint>
          <Trackpoint>
            <Time>2022-09-18T15:19:50.000Z</Time>
            <Position>
              <LatitudeDegrees>49.28547003306448459625244140625</LatitudeDegrees>
              <LongitudeDegrees>19.95580832473933696746826171875</LongitudeDegrees>
            </Position>
            <AltitudeMeters>866.20001220703125</AltitudeMeters>
            <DistanceMeters>NAN</DistanceMeters>
          </Trackpoint>
          <Trackpoint>
            <Time>2022-09-18T15:19:55.000Z</Time>
            <Position>
              <LatitudeDegrees>49.28540079854428768157958984375</LatitudeDegrees>
              <LongitudeDegrees>19.9558635614812374114990234375</LongitudeDegrees>
            </Position>
            <AltitudeMeters>866.4000244140625</AltitudeMeters>
            <DistanceMeters>NAN</DistanceMeters>
          </Trackpoint>
          <Trackpoint>
            <Time>2022-09-18T15:19:56.000Z</Time>
            <Position>
              <LatitudeDegrees>49.2853795923292636871337890625</LatitudeDegrees>
              <LongitudeDegrees>19.95587152428925037384033203125</LongitudeDegrees>
            </Position>
            <AltitudeMeters>866.4000244140625</AltitudeMeters>
            <DistanceMeters>NAN</DistanceMeters>
          </Trackpoint>
          <Trackpoint>
            <Time>2022-09-18T15:20:01.000Z</Time>
            <Position>
              <LatitudeDegrees>49.285279177129268646240234375</LatitudeDegrees>
              <LongitudeDegrees>19.95587822981178760528564453125</LongitudeDegrees>
            </Position>
            <AltitudeMeters>866.5999755859375</AltitudeMeters>
            <DistanceMeters>NAN</DistanceMeters>
          </Trackpoint>
          <Trackpoint>
            <Time>2022-09-18T15:20:02.000Z</Time>
            <Position>
              <LatitudeDegrees>49.285266436636447906494140625</LatitudeDegrees>
              <LongitudeDegrees>19.9558662436902523040771484375</LongitudeDegrees>
            </Position>
            <AltitudeMeters>866.4000244140625</AltitudeMeters>
            <DistanceMeters>NAN</DistanceMeters>
          </Trackpoint>
          <Trackpoint>
            <Time>2022-09-18T15:20:08.000Z</Time>
            <Position>
              <LatitudeDegrees>49.2852347530424594879150390625</LatitudeDegrees>
              <LongitudeDegrees>19.955863393843173980712890625</LongitudeDegrees>
            </Position>
            <AltitudeMeters>866.4000244140625</AltitudeMeters>
            <DistanceMeters>NAN</DistanceMeters>
          </Trackpoint>
          <Trackpoint>
            <Time>2022-09-18T15:20:12.000Z</Time>
            <Position>
              <LatitudeDegrees>49.28523366339504718780517578125</LatitudeDegrees>
              <LongitudeDegrees>19.95588258840143680572509765625</LongitudeDegrees>
            </Position>
            <AltitudeMeters>866.4000244140625</AltitudeMeters>
            <DistanceMeters>NAN</DistanceMeters>
          </Trackpoint>
          <Trackpoint>
            <Time>2022-09-18T15:20:18.000Z</Time>
            <Position>
              <LatitudeDegrees>49.28523366339504718780517578125</LatitudeDegrees>
              <LongitudeDegrees>19.95588258840143680572509765625</LongitudeDegrees>
            </Position>
            <AltitudeMeters>866.4000244140625</AltitudeMeters>
            <DistanceMeters>NAN</DistanceMeters>
          </Trackpoint>
          <Trackpoint>
            <Time>2022-09-18T15:20:25.000Z</Time>
            <Position>
              <LatitudeDegrees>49.2852298915386199951171875</LatitudeDegrees>
              <LongitudeDegrees>19.9558766372501850128173828125</LongitudeDegrees>
            </Position>
            <AltitudeMeters>866.5999755859375</AltitudeMeters>
            <DistanceMeters>NAN</DistanceMeters>
          </Trackpoint>
          <Trackpoint>
            <Time>2022-09-18T15:20:29.000Z</Time>
            <Position>
              <LatitudeDegrees>49.2852223478257656097412109375</LatitudeDegrees>
              <LongitudeDegrees>19.9558481387794017791748046875</LongitudeDegrees>
            </Position>
            <AltitudeMeters>866.5999755859375</AltitudeMeters>
            <DistanceMeters>NAN</DistanceMeters>
          </Trackpoint>
          <Trackpoint>
            <Time>2022-09-18T15:20:30.000Z</Time>
            <Position>
              <LatitudeDegrees>49.2852173186838626861572265625</LatitudeDegrees>
              <LongitudeDegrees>19.9558223225176334381103515625</LongitudeDegrees>
            </Position>
            <AltitudeMeters>866.5999755859375</AltitudeMeters>
            <DistanceMeters>NAN</DistanceMeters>
          </Trackpoint>
          <Trackpoint>
            <Time>2022-09-18T15:20:35.000Z</Time>
            <Position>
              <LatitudeDegrees>49.28516191430389881134033203125</LatitudeDegrees>
              <LongitudeDegrees>19.955809079110622406005859375</LongitudeDegrees>
            </Position>
            <AltitudeMeters>866.4000244140625</AltitudeMeters>
            <DistanceMeters>NAN</DistanceMeters>
          </Trackpoint>
          <Trackpoint>
            <Time>2022-09-18T15:20:37.000Z</Time>
            <Position>
              <LatitudeDegrees>49.2851385287940502166748046875</LatitudeDegrees>
              <LongitudeDegrees>19.95581276714801788330078125</LongitudeDegrees>
            </Position>
            <AltitudeMeters>866.4000244140625</AltitudeMeters>
            <DistanceMeters>NAN</DistanceMeters>
          </Trackpoint>
          <Trackpoint>
            <Time>2022-09-18T15:20:47.000Z</Time>
            <Position>
              <LatitudeDegrees>49.28503970615565776824951171875</LatitudeDegrees>
              <LongitudeDegrees>19.95588007383048534393310546875</LongitudeDegrees>
            </Position>
            <AltitudeMeters>866.5999755859375</AltitudeMeters>
            <DistanceMeters>NAN</DistanceMeters>
          </Trackpoint>
          <Trackpoint>
            <Time>2022-09-18T15:20:53.000Z</Time>
            <Position>
              <LatitudeDegrees>49.285025708377361297607421875</LatitudeDegrees>
              <LongitudeDegrees>19.955907650291919708251953125</LongitudeDegrees>
            </Position>
            <AltitudeMeters>867.20001220703125</AltitudeMeters>
            <DistanceMeters>NAN</DistanceMeters>
          </Trackpoint>
          <Trackpoint>
            <Time>2022-09-18T15:20:55.000Z</Time>
            <Position>
              <LatitudeDegrees>49.285005591809749603271484375</LatitudeDegrees>
              <LongitudeDegrees>19.9559403397142887115478515625</LongitudeDegrees>
            </Position>
            <AltitudeMeters>867.4000244140625</AltitudeMeters>
            <DistanceMeters>NAN</DistanceMeters>
          </Trackpoint>
          <Trackpoint>
            <Time>2022-09-18T15:21:05.000Z</Time>
            <Position>
              <LatitudeDegrees>49.28498270921409130096435546875</LatitudeDegrees>
              <LongitudeDegrees>19.95605089701712131500244140625</LongitudeDegrees>
            </Position>
            <AltitudeMeters>868.20001220703125</AltitudeMeters>
            <DistanceMeters>NAN</DistanceMeters>
          </Trackpoint>
          <Trackpoint>
            <Time>2022-09-18T15:21:12.000Z</Time>
            <Position>
              <LatitudeDegrees>49.2849621735513210296630859375</LatitudeDegrees>
              <LongitudeDegrees>19.95610269717872142791748046875</LongitudeDegrees>
            </Position>
            <AltitudeMeters>868.4000244140625</AltitudeMeters>
            <DistanceMeters>NAN</DistanceMeters>
          </Trackpoint>
          <Trackpoint>
            <Time>2022-09-18T15:21:13.000Z</Time>
            <Position>
              <LatitudeDegrees>49.28495253436267375946044921875</LatitudeDegrees>
              <LongitudeDegrees>19.95610990561544895172119140625</LongitudeDegrees>
            </Position>
            <AltitudeMeters>868.4000244140625</AltitudeMeters>
            <DistanceMeters>NAN</DistanceMeters>
          </Trackpoint>
          <Trackpoint>
            <Time>2022-09-18T15:21:20.000Z</Time>
            <Position>
              <LatitudeDegrees>49.28494549356400966644287109375</LatitudeDegrees>
              <LongitudeDegrees>19.95612256228923797607421875</LongitudeDegrees>
            </Position>
            <AltitudeMeters>868.79998779296875</AltitudeMeters>
            <DistanceMeters>NAN</DistanceMeters>
          </Trackpoint>
          <Trackpoint>
            <Time>2022-09-18T15:21:23.000Z</Time>
            <Position>
              <LatitudeDegrees>49.2849482595920562744140625</LatitudeDegrees>
              <LongitudeDegrees>19.95612381957471370697021484375</LongitudeDegrees>
            </Position>
            <AltitudeMeters>869.4000244140625</AltitudeMeters>
            <DistanceMeters>NAN</DistanceMeters>
          </Trackpoint>
          <Trackpoint>
            <Time>2022-09-18T15:21:32.000Z</Time>
            <Position>
              <LatitudeDegrees>49.2849482595920562744140625</LatitudeDegrees>
              <LongitudeDegrees>19.95612381957471370697021484375</LongitudeDegrees>
            </Position>
            <AltitudeMeters>869.4000244140625</AltitudeMeters>
            <DistanceMeters>NAN</DistanceMeters>
          </Trackpoint>
          <Trackpoint>
            <Time>2022-09-18T15:21:40.000Z</Time>
            <Position>
              <LatitudeDegrees>49.2849482595920562744140625</LatitudeDegrees>
              <LongitudeDegrees>19.95612381957471370697021484375</LongitudeDegrees>
            </Position>
            <AltitudeMeters>869.20001220703125</AltitudeMeters>
            <DistanceMeters>NAN</DistanceMeters>
          </Trackpoint>
          <Trackpoint>
            <Time>2022-09-18T15:22:01.000Z</Time>
            <Position>
              <LatitudeDegrees>49.28495521657168865203857421875</LatitudeDegrees>
              <LongitudeDegrees>19.95613731443881988525390625</LongitudeDegrees>
            </Position>
            <AltitudeMeters>868.79998779296875</AltitudeMeters>
            <DistanceMeters>NAN</DistanceMeters>
          </Trackpoint>
          <Trackpoint>
            <Time>2022-09-18T15:22:09.000Z</Time>
            <Position>
              <LatitudeDegrees>49.28495521657168865203857421875</LatitudeDegrees>
              <LongitudeDegrees>19.95613731443881988525390625</LongitudeDegrees>
            </Position>
            <AltitudeMeters>869.4000244140625</AltitudeMeters>
            <DistanceMeters>NAN</DistanceMeters>
          </Trackpoint>
          <Trackpoint>
            <Time>2022-09-18T15:22:10.000Z</Time>
            <Position>
              <LatitudeDegrees>49.28495521657168865203857421875</LatitudeDegrees>
              <LongitudeDegrees>19.95613731443881988525390625</LongitudeDegrees>
            </Position>
            <AltitudeMeters>869.5999755859375</AltitudeMeters>
            <DistanceMeters>NAN</DistanceMeters>
          </Trackpoint>
          <Trackpoint>
            <Time>2022-09-18T15:22:14.000Z</Time>
            <Position>
              <LatitudeDegrees>49.28494884632527828216552734375</LatitudeDegrees>
              <LongitudeDegrees>19.9561545811593532562255859375</LongitudeDegrees>
            </Position>
            <AltitudeMeters>869.79998779296875</AltitudeMeters>
            <DistanceMeters>NAN</DistanceMeters>
          </Trackpoint>
          <Trackpoint>
            <Time>2022-09-18T15:22:15.000Z</Time>
            <Position>
              <LatitudeDegrees>49.28494884632527828216552734375</LatitudeDegrees>
              <LongitudeDegrees>19.9561545811593532562255859375</LongitudeDegrees>
            </Position>
            <AltitudeMeters>870</AltitudeMeters>
            <DistanceMeters>NAN</DistanceMeters>
          </Trackpoint>
          <Trackpoint>
            <Time>2022-09-18T15:22:17.000Z</Time>
            <Position>
              <LatitudeDegrees>49.28494884632527828216552734375</LatitudeDegrees>
              <LongitudeDegrees>19.9561545811593532562255859375</LongitudeDegrees>
            </Position>
            <AltitudeMeters>870.4000244140625</AltitudeMeters>
            <DistanceMeters>NAN</DistanceMeters>
          </Trackpoint>
          <Trackpoint>
            <Time>2022-09-18T15:22:22.000Z</Time>
            <Position>
              <LatitudeDegrees>49.28488112054765224456787109375</LatitudeDegrees>
              <LongitudeDegrees>19.95596162974834442138671875</LongitudeDegrees>
            </Position>
            <AltitudeMeters>870.79998779296875</AltitudeMeters>
            <DistanceMeters>NAN</DistanceMeters>
          </Trackpoint>
          <Trackpoint>
            <Time>2022-09-19T09:04:10.000Z</Time>
            <Position>
              <LatitudeDegrees>49.28633169271051883697509765625</LatitudeDegrees>
              <LongitudeDegrees>19.9564570002257823944091796875</LongitudeDegrees>
            </Position>
            <AltitudeMeters>867</AltitudeMeters>
            <DistanceMeters>NAN</DistanceMeters>
          </Trackpoint>
          <Trackpoint>
            <Time>2022-09-19T09:04:13.000Z</Time>
            <Position>
              <LatitudeDegrees>49.2862952314317226409912109375</LatitudeDegrees>
              <LongitudeDegrees>19.9564544856548309326171875</LongitudeDegrees>
            </Position>
            <AltitudeMeters>867</AltitudeMeters>
            <DistanceMeters>NAN</DistanceMeters>
          </Trackpoint>
          <Trackpoint>
            <Time>2022-09-19T09:04:16.000Z</Time>
            <Position>
              <LatitudeDegrees>49.2862938903272151947021484375</LatitudeDegrees>
              <LongitudeDegrees>19.95645515620708465576171875</LongitudeDegrees>
            </Position>
            <AltitudeMeters>867</AltitudeMeters>
            <DistanceMeters>NAN</DistanceMeters>
          </Trackpoint>
          <Trackpoint>
            <Time>2022-09-19T09:04:17.000Z</Time>
            <Position>
              <LatitudeDegrees>49.286297746002674102783203125</LatitudeDegrees>
              <LongitudeDegrees>19.95645725168287754058837890625</LongitudeDegrees>
            </Position>
            <AltitudeMeters>867</AltitudeMeters>
            <DistanceMeters>NAN</DistanceMeters>
          </Trackpoint>
          <Trackpoint>
            <Time>2022-09-19T09:04:20.000Z</Time>
            <Position>
              <LatitudeDegrees>49.2863247357308864593505859375</LatitudeDegrees>
              <LongitudeDegrees>19.95642959140241146087646484375</LongitudeDegrees>
            </Position>
            <AltitudeMeters>867</AltitudeMeters>
            <DistanceMeters>NAN</DistanceMeters>
          </Trackpoint>
          <Trackpoint>
            <Time>2022-09-19T09:04:23.000Z</Time>
            <Position>
              <LatitudeDegrees>49.28636622615158557891845703125</LatitudeDegrees>
              <LongitudeDegrees>19.95638072490692138671875</LongitudeDegrees>
            </Position>
            <AltitudeMeters>867</AltitudeMeters>
            <DistanceMeters>NAN</DistanceMeters>
          </Trackpoint>
          <Trackpoint>
            <Time>2022-09-19T09:04:27.000Z</Time>
            <Position>
              <LatitudeDegrees>49.2864316888153553009033203125</LatitudeDegrees>
              <LongitudeDegrees>19.9563376419246196746826171875</LongitudeDegrees>
            </Position>
            <AltitudeMeters>867.20001220703125</AltitudeMeters>
            <DistanceMeters>NAN</DistanceMeters>
          </Trackpoint>
          <Trackpoint>
            <Time>2022-09-19T09:04:29.000Z</Time>
            <Position>
              <LatitudeDegrees>49.28644333966076374053955078125</LatitudeDegrees>
              <LongitudeDegrees>19.9563257396221160888671875</LongitudeDegrees>
            </Position>
            <AltitudeMeters>867.20001220703125</AltitudeMeters>
            <DistanceMeters>NAN</DistanceMeters>
          </Trackpoint>
          <Trackpoint>
            <Time>2022-09-19T09:04:31.000Z</Time>
            <Position>
              <LatitudeDegrees>49.2864595167338848114013671875</LatitudeDegrees>
              <LongitudeDegrees>19.95629967190325260162353515625</LongitudeDegrees>
            </Position>
            <AltitudeMeters>867</AltitudeMeters>
            <DistanceMeters>NAN</DistanceMeters>
          </Trackpoint>
          <Trackpoint>
            <Time>2022-09-19T09:04:33.000Z</Time>
            <Position>
              <LatitudeDegrees>49.2864846624433994293212890625</LatitudeDegrees>
              <LongitudeDegrees>19.95626681484282016754150390625</LongitudeDegrees>
            </Position>
            <AltitudeMeters>867</AltitudeMeters>
            <DistanceMeters>NAN</DistanceMeters>
          </Trackpoint>
          <Trackpoint>
            <Time>2022-09-19T09:04:39.000Z</Time>
            <Position>
              <LatitudeDegrees>49.286631681025028228759765625</LatitudeDegrees>
              <LongitudeDegrees>19.9562387354671955108642578125</LongitudeDegrees>
            </Position>
            <AltitudeMeters>866.5999755859375</AltitudeMeters>
            <DistanceMeters>NAN</DistanceMeters>
          </Trackpoint>
          <Trackpoint>
            <Time>2022-09-19T09:04:42.000Z</Time>
            <Position>
              <LatitudeDegrees>49.28673125803470611572265625</LatitudeDegrees>
              <LongitudeDegrees>19.9562270008027553558349609375</LongitudeDegrees>
            </Position>
            <AltitudeMeters>866.4000244140625</AltitudeMeters>
            <DistanceMeters>NAN</DistanceMeters>
          </Trackpoint>
          <Trackpoint>
            <Time>2022-09-19T09:04:44.000Z</Time>
            <Position>
              <LatitudeDegrees>49.28681029938161373138427734375</LatitudeDegrees>
              <LongitudeDegrees>19.956218115985393524169921875</LongitudeDegrees>
            </Position>
            <AltitudeMeters>866</AltitudeMeters>
            <DistanceMeters>NAN</DistanceMeters>
          </Trackpoint>
          <Trackpoint>
            <Time>2022-09-19T09:04:46.000Z</Time>
            <Position>
              <LatitudeDegrees>49.28689830936491489410400390625</LatitudeDegrees>
              <LongitudeDegrees>19.9561996757984161376953125</LongitudeDegrees>
            </Position>
            <AltitudeMeters>865.79998779296875</AltitudeMeters>
            <DistanceMeters>NAN</DistanceMeters>
          </Trackpoint>
          <Trackpoint>
            <Time>2022-09-19T09:04:52.000Z</Time>
            <Position>
              <LatitudeDegrees>49.28720911033451557159423828125</LatitudeDegrees>
              <LongitudeDegrees>19.956151731312274932861328125</LongitudeDegrees>
            </Position>
            <AltitudeMeters>864.5999755859375</AltitudeMeters>
            <DistanceMeters>NAN</DistanceMeters>
          </Trackpoint>
          <Trackpoint>
            <Time>2022-09-19T09:04:53.000Z</Time>
            <Position>
              <LatitudeDegrees>49.2872698791325092315673828125</LatitudeDegrees>
              <LongitudeDegrees>19.9561404995620250701904296875</LongitudeDegrees>
            </Position>
            <AltitudeMeters>864.4000244140625</AltitudeMeters>
            <DistanceMeters>NAN</DistanceMeters>
          </Trackpoint>
          <Trackpoint>
            <Time>2022-09-19T09:04:54.000Z</Time>
            <Position>
              <LatitudeDegrees>49.28733048029243946075439453125</LatitudeDegrees>
              <LongitudeDegrees>19.95612951926887035369873046875</LongitudeDegrees>
            </Position>
            <AltitudeMeters>864.20001220703125</AltitudeMeters>
            <DistanceMeters>NAN</DistanceMeters>
          </Trackpoint>
          <Trackpoint>
            <Time>2022-09-19T09:04:56.000Z</Time>
            <Position>
              <LatitudeDegrees>49.28745671175420284271240234375</LatitudeDegrees>
              <LongitudeDegrees>19.95610554702579975128173828125</LongitudeDegrees>
            </Position>
            <AltitudeMeters>863.4000244140625</AltitudeMeters>
            <DistanceMeters>NAN</DistanceMeters>
          </Trackpoint>
          <Trackpoint>
            <Time>2022-09-19T09:05:00.000Z</Time>
            <Position>
              <LatitudeDegrees>49.28772233426570892333984375</LatitudeDegrees>
              <LongitudeDegrees>19.95605223812162876129150390625</LongitudeDegrees>
            </Position>
            <AltitudeMeters>862</AltitudeMeters>
            <DistanceMeters>NAN</DistanceMeters>
          </Trackpoint>
          <Trackpoint>
            <Time>2022-09-19T09:05:01.000Z</Time>
            <Position>
              <LatitudeDegrees>49.28778897039592266082763671875</LatitudeDegrees>
              <LongitudeDegrees>19.95603145100176334381103515625</LongitudeDegrees>
            </Position>
            <AltitudeMeters>861.79998779296875</AltitudeMeters>
            <DistanceMeters>NAN</DistanceMeters>
          </Trackpoint>
          <Trackpoint>
            <Time>2022-09-19T09:05:02.000Z</Time>
            <Position>
              <LatitudeDegrees>49.28786046802997589111328125</LatitudeDegrees>
              <LongitudeDegrees>19.956017620861530303955078125</LongitudeDegrees>
            </Position>
            <AltitudeMeters>861.5999755859375</AltitudeMeters>
            <DistanceMeters>NAN</DistanceMeters>
          </Trackpoint>
          <Trackpoint>
            <Time>2022-09-19T09:05:03.000Z</Time>
            <Position>
              <LatitudeDegrees>49.2879313789308071136474609375</LatitudeDegrees>
              <LongitudeDegrees>19.9560063891112804412841796875</LongitudeDegrees>
            </Position>
            <AltitudeMeters>861.4000244140625</AltitudeMeters>
            <DistanceMeters>NAN</DistanceMeters>
          </Trackpoint>
          <Trackpoint>
            <Time>2022-09-19T09:05:05.000Z</Time>
            <Position>
              <LatitudeDegrees>49.28807093761861324310302734375</LatitudeDegrees>
              <LongitudeDegrees>19.95596297085285186767578125</LongitudeDegrees>
            </Position>
            <AltitudeMeters>860.79998779296875</AltitudeMeters>
            <DistanceMeters>NAN</DistanceMeters>
          </Trackpoint>
          <Trackpoint>
            <Time>2022-09-19T09:05:06.000Z</Time>
            <Position>
              <LatitudeDegrees>49.28813346661627292633056640625</LatitudeDegrees>
              <LongitudeDegrees>19.9559366516768932342529296875</LongitudeDegrees>
            </Position>
            <AltitudeMeters>860.5999755859375</AltitudeMeters>
            <DistanceMeters>NAN</DistanceMeters>
          </Trackpoint>
          <Trackpoint>
            <Time>2022-09-19T09:05:12.000Z</Time>
            <Position>
              <LatitudeDegrees>49.288488440215587615966796875</LatitudeDegrees>
              <LongitudeDegrees>19.95575987733900547027587890625</LongitudeDegrees>
            </Position>
            <AltitudeMeters>859.79998779296875</AltitudeMeters>
            <DistanceMeters>NAN</DistanceMeters>
          </Trackpoint>
          <Trackpoint>
            <Time>2022-09-19T09:05:13.000Z</Time>
            <Position>
              <LatitudeDegrees>49.28854979574680328369140625</LatitudeDegrees>
              <LongitudeDegrees>19.9557304568588733673095703125</LongitudeDegrees>
            </Position>
            <AltitudeMeters>859.5999755859375</AltitudeMeters>
            <DistanceMeters>NAN</DistanceMeters>
          </Trackpoint>
          <Trackpoint>
            <Time>2022-09-19T09:05:17.000Z</Time>
            <Position>
              <LatitudeDegrees>49.28879630751907825469970703125</LatitudeDegrees>
              <LongitudeDegrees>19.9556040577590465545654296875</LongitudeDegrees>
            </Position>
            <AltitudeMeters>859</AltitudeMeters>
            <DistanceMeters>NAN</DistanceMeters>
          </Trackpoint>
          <Trackpoint>
            <Time>2022-09-19T09:05:19.000Z</Time>
            <Position>
              <LatitudeDegrees>49.28892622701823711395263671875</LatitudeDegrees>
              <LongitudeDegrees>19.955522082746028900146484375</LongitudeDegrees>
            </Position>
            <AltitudeMeters>858.79998779296875</AltitudeMeters>
            <DistanceMeters>NAN</DistanceMeters>
          </Trackpoint>
          <Trackpoint>
            <Time>2022-09-19T09:05:20.000Z</Time>
            <Position>
              <LatitudeDegrees>49.28898842073976993560791015625</LatitudeDegrees>
              <LongitudeDegrees>19.9554835259914398193359375</LongitudeDegrees>
            </Position>
            <AltitudeMeters>858.4000244140625</AltitudeMeters>
            <DistanceMeters>NAN</DistanceMeters>
          </Trackpoint>
          <Trackpoint>
            <Time>2022-09-19T09:05:23.000Z</Time>
            <Position>
              <LatitudeDegrees>49.28918623365461826324462890625</LatitudeDegrees>
              <LongitudeDegrees>19.9553717114031314849853515625</LongitudeDegrees>
            </Position>
            <AltitudeMeters>857.4000244140625</AltitudeMeters>
            <DistanceMeters>NAN</DistanceMeters>
          </Trackpoint>
          <Trackpoint>
            <Time>2022-09-19T09:05:24.000Z</Time>
            <Position>
              <LatitudeDegrees>49.2892527021467685699462890625</LatitudeDegrees>
              <LongitudeDegrees>19.95533265173435211181640625</LongitudeDegrees>
            </Position>
            <AltitudeMeters>857.20001220703125</AltitudeMeters>
            <DistanceMeters>NAN</DistanceMeters>
          </Trackpoint>
          <Trackpoint>
            <Time>2022-09-19T09:05:25.000Z</Time>
            <Position>
              <LatitudeDegrees>49.2893204279243946075439453125</LatitudeDegrees>
              <LongitudeDegrees>19.95529568754136562347412109375</LongitudeDegrees>
            </Position>
            <AltitudeMeters>857</AltitudeMeters>
            <DistanceMeters>NAN</DistanceMeters>
          </Trackpoint>
          <Trackpoint>
            <Time>2022-09-19T09:05:31.000Z</Time>
            <Position>
              <LatitudeDegrees>49.2897318117320537567138671875</LatitudeDegrees>
              <LongitudeDegrees>19.9550535343587398529052734375</LongitudeDegrees>
            </Position>
            <AltitudeMeters>855.79998779296875</AltitudeMeters>
            <DistanceMeters>NAN</DistanceMeters>
          </Trackpoint>
          <Trackpoint>
            <Time>2022-09-19T09:05:32.000Z</Time>
            <Position>
              <LatitudeDegrees>49.28980146534740924835205078125</LatitudeDegrees>
              <LongitudeDegrees>19.95501405559480190277099609375</LongitudeDegrees>
            </Position>
            <AltitudeMeters>855.4000244140625</AltitudeMeters>
            <DistanceMeters>NAN</DistanceMeters>
          </Trackpoint>
          <Trackpoint>
            <Time>2022-09-19T09:05:34.000Z</Time>
            <Position>
              <LatitudeDegrees>49.2898692749440670013427734375</LatitudeDegrees>
              <LongitudeDegrees>19.9549744091928005218505859375</LongitudeDegrees>
            </Position>
            <AltitudeMeters>855</AltitudeMeters>
            <DistanceMeters>NAN</DistanceMeters>
          </Trackpoint>
          <Trackpoint>
            <Time>2022-09-19T09:05:35.000Z</Time>
            <Position>
              <LatitudeDegrees>49.28992032073438167572021484375</LatitudeDegrees>
              <LongitudeDegrees>19.9549449048936367034912109375</LongitudeDegrees>
            </Position>
            <AltitudeMeters>854.4000244140625</AltitudeMeters>
            <DistanceMeters>NAN</DistanceMeters>
          </Trackpoint>
          <Trackpoint>
            <Time>2022-09-19T09:05:40.000Z</Time>
            <Position>
              <LatitudeDegrees>49.29023690521717071533203125</LatitudeDegrees>
              <LongitudeDegrees>19.95476041920483112335205078125</LongitudeDegrees>
            </Position>
            <AltitudeMeters>853.20001220703125</AltitudeMeters>
            <DistanceMeters>NAN</DistanceMeters>
          </Trackpoint>
          <Trackpoint>
            <Time>2022-09-19T09:05:42.000Z</Time>
            <Position>
              <LatitudeDegrees>49.29035148583352565765380859375</LatitudeDegrees>
              <LongitudeDegrees>19.95469168759882450103759765625</LongitudeDegrees>
            </Position>
            <AltitudeMeters>852.79998779296875</AltitudeMeters>
            <DistanceMeters>NAN</DistanceMeters>
          </Trackpoint>
          <Trackpoint>
            <Time>2022-09-19T09:05:46.000Z</Time>
            <Position>
              <LatitudeDegrees>49.290549047291278839111328125</LatitudeDegrees>
              <LongitudeDegrees>19.954577274620532989501953125</LongitudeDegrees>
            </Position>
            <AltitudeMeters>852.79998779296875</AltitudeMeters>
            <DistanceMeters>NAN</DistanceMeters>
          </Trackpoint>
          <Trackpoint>
            <Time>2022-09-19T09:05:48.000Z</Time>
            <Position>
              <LatitudeDegrees>49.29064669646322727203369140625</LatitudeDegrees>
              <LongitudeDegrees>19.95452086441218852996826171875</LongitudeDegrees>
            </Position>
            <AltitudeMeters>852.79998779296875</AltitudeMeters>
            <DistanceMeters>NAN</DistanceMeters>
          </Trackpoint>
          <Trackpoint>
            <Time>2022-09-19T09:05:51.000Z</Time>
            <Position>
              <LatitudeDegrees>49.29080729372799396514892578125</LatitudeDegrees>
              <LongitudeDegrees>19.9544248916208744049072265625</LongitudeDegrees>
            </Position>
            <AltitudeMeters>852.20001220703125</AltitudeMeters>
            <DistanceMeters>NAN</DistanceMeters>
          </Trackpoint>
          <Trackpoint>
            <Time>2022-09-19T09:05:55.000Z</Time>
            <Position>
              <LatitudeDegrees>49.29104131646454334259033203125</LatitudeDegrees>
              <LongitudeDegrees>19.95429706759750843048095703125</LongitudeDegrees>
            </Position>
            <AltitudeMeters>851</AltitudeMeters>
            <DistanceMeters>NAN</DistanceMeters>
          </Trackpoint>
          <Trackpoint>
            <Time>2022-09-19T09:05:56.000Z</Time>
            <Position>
              <LatitudeDegrees>49.291090853512287139892578125</LatitudeDegrees>
              <LongitudeDegrees>19.95426915585994720458984375</LongitudeDegrees>
            </Position>
            <AltitudeMeters>851</AltitudeMeters>
            <DistanceMeters>NAN</DistanceMeters>
          </Trackpoint>
          <Trackpoint>
            <Time>2022-09-19T09:05:59.000Z</Time>
            <Position>
              <LatitudeDegrees>49.2911681346595287322998046875</LatitudeDegrees>
              <LongitudeDegrees>19.954221546649932861328125</LongitudeDegrees>
            </Position>
            <AltitudeMeters>851.20001220703125</AltitudeMeters>
            <DistanceMeters>NAN</DistanceMeters>
          </Trackpoint>
          <Trackpoint>
            <Time>2022-09-19T09:06:05.000Z</Time>
            <Position>
              <LatitudeDegrees>49.2912713997066020965576171875</LatitudeDegrees>
              <LongitudeDegrees>19.9541519768536090850830078125</LongitudeDegrees>
            </Position>
            <AltitudeMeters>851.4000244140625</AltitudeMeters>
            <DistanceMeters>NAN</DistanceMeters>
          </Trackpoint>
          <Trackpoint>
            <Time>2022-09-19T09:06:08.000Z</Time>
            <Position>
              <LatitudeDegrees>49.29130115546286106109619140625</LatitudeDegrees>
              <LongitudeDegrees>19.954204447567462921142578125</LongitudeDegrees>
            </Position>
            <AltitudeMeters>851.4000244140625</AltitudeMeters>
            <DistanceMeters>NAN</DistanceMeters>
          </Trackpoint>
          <Trackpoint>
            <Time>2022-09-19T09:06:10.000Z</Time>
            <Position>
              <LatitudeDegrees>49.29130584932863712310791015625</LatitudeDegrees>
              <LongitudeDegrees>19.95425465516746044158935546875</LongitudeDegrees>
            </Position>
            <AltitudeMeters>851.5999755859375</AltitudeMeters>
            <DistanceMeters>NAN</DistanceMeters>
          </Trackpoint>
          <Trackpoint>
            <Time>2022-09-19T09:06:13.000Z</Time>
            <Position>
              <LatitudeDegrees>49.29133468307554721832275390625</LatitudeDegrees>
              <LongitudeDegrees>19.95431014336645603179931640625</LongitudeDegrees>
            </Position>
            <AltitudeMeters>851.5999755859375</AltitudeMeters>
            <DistanceMeters>NAN</DistanceMeters>
          </Trackpoint>
          <Trackpoint>
            <Time>2022-09-19T09:06:16.000Z</Time>
            <Position>
              <LatitudeDegrees>49.2913786880671977996826171875</LatitudeDegrees>
              <LongitudeDegrees>19.9543784558773040771484375</LongitudeDegrees>
            </Position>
            <AltitudeMeters>851.4000244140625</AltitudeMeters>
            <DistanceMeters>NAN</DistanceMeters>
          </Trackpoint>
          <Trackpoint>
            <Time>2022-09-19T09:06:23.000Z</Time>
            <Position>
              <LatitudeDegrees>49.29150693118572235107421875</LatitudeDegrees>
              <LongitudeDegrees>19.95456780306994915008544921875</LongitudeDegrees>
            </Position>
            <AltitudeMeters>850.79998779296875</AltitudeMeters>
            <DistanceMeters>NAN</DistanceMeters>
          </Trackpoint>
          <Trackpoint>
            <Time>2022-09-19T09:06:26.000Z</Time>
            <Position>
              <LatitudeDegrees>49.29157222621142864227294921875</LatitudeDegrees>
              <LongitudeDegrees>19.95464189909398555755615234375</LongitudeDegrees>
            </Position>
            <AltitudeMeters>851</AltitudeMeters>
            <DistanceMeters>NAN</DistanceMeters>
          </Trackpoint>
          <Trackpoint>
            <Time>2022-09-19T09:06:29.000Z</Time>
            <Position>
              <LatitudeDegrees>49.29163073189556598663330078125</LatitudeDegrees>
              <LongitudeDegrees>19.9546974711120128631591796875</LongitudeDegrees>
            </Position>
            <AltitudeMeters>850.79998779296875</AltitudeMeters>
            <DistanceMeters>NAN</DistanceMeters>
          </Trackpoint>
          <Trackpoint>
            <Time>2022-09-19T09:06:36.000Z</Time>
            <Position>
              <LatitudeDegrees>49.29173701442778110504150390625</LatitudeDegrees>
              <LongitudeDegrees>19.954841472208499908447265625</LongitudeDegrees>
            </Position>
            <AltitudeMeters>850.79998779296875</AltitudeMeters>
            <DistanceMeters>NAN</DistanceMeters>
          </Trackpoint>
          <Trackpoint>
            <Time>2022-09-19T09:06:44.000Z</Time>
            <Position>
              <LatitudeDegrees>49.29186324588954448699951171875</LatitudeDegrees>
              <LongitudeDegrees>19.95497281663119792938232421875</LongitudeDegrees>
            </Position>
            <AltitudeMeters>851</AltitudeMeters>
            <DistanceMeters>NAN</DistanceMeters>
          </Trackpoint>
          <Trackpoint>
            <Time>2022-09-19T09:06:52.000Z</Time>
            <Position>
              <LatitudeDegrees>49.291965924203395843505859375</LatitudeDegrees>
              <LongitudeDegrees>19.9551172368228435516357421875</LongitudeDegrees>
            </Position>
            <AltitudeMeters>851</AltitudeMeters>
            <DistanceMeters>NAN</DistanceMeters>
          </Trackpoint>
          <Trackpoint>
            <Time>2022-09-19T09:06:56.000Z</Time>
            <Position>
              <LatitudeDegrees>49.29202593863010406494140625</LatitudeDegrees>
              <LongitudeDegrees>19.95513056404888629913330078125</LongitudeDegrees>
            </Position>
            <AltitudeMeters>851</AltitudeMeters>
            <DistanceMeters>NAN</DistanceMeters>
          </Trackpoint>
          <Trackpoint>
            <Time>2022-09-19T09:06:58.000Z</Time>
            <Position>
              <LatitudeDegrees>49.29205385036766529083251953125</LatitudeDegrees>
              <LongitudeDegrees>19.955098628997802734375</LongitudeDegrees>
            </Position>
            <AltitudeMeters>851</AltitudeMeters>
            <DistanceMeters>NAN</DistanceMeters>
          </Trackpoint>
          <Trackpoint>
            <Time>2022-09-19T09:07:05.000Z</Time>
            <Position>
              <LatitudeDegrees>49.2921541817486286163330078125</LatitudeDegrees>
              <LongitudeDegrees>19.95486703701317310333251953125</LongitudeDegrees>
            </Position>
            <AltitudeMeters>850.4000244140625</AltitudeMeters>
            <DistanceMeters>NAN</DistanceMeters>
          </Trackpoint>
          <Trackpoint>
            <Time>2022-09-19T09:07:07.000Z</Time>
            <Position>
              <LatitudeDegrees>49.2921853624284267425537109375</LatitudeDegrees>
              <LongitudeDegrees>19.9548054300248622894287109375</LongitudeDegrees>
            </Position>
            <AltitudeMeters>850</AltitudeMeters>
            <DistanceMeters>NAN</DistanceMeters>
          </Trackpoint>
          <Trackpoint>
            <Time>2022-09-19T09:07:13.000Z</Time>
            <Position>
              <LatitudeDegrees>49.29229055531322956085205078125</LatitudeDegrees>
              <LongitudeDegrees>19.95459211058914661407470703125</LongitudeDegrees>
            </Position>
            <AltitudeMeters>848.79998779296875</AltitudeMeters>
            <DistanceMeters>NAN</DistanceMeters>
          </Trackpoint>
          <Trackpoint>
            <Time>2022-09-19T09:07:14.000Z</Time>
            <Position>
              <LatitudeDegrees>49.2923003621399402618408203125</LatitudeDegrees>
              <LongitudeDegrees>19.9545506201684474945068359375</LongitudeDegrees>
            </Position>
            <AltitudeMeters>848.5999755859375</AltitudeMeters>
            <DistanceMeters>NAN</DistanceMeters>
          </Trackpoint>
          <Trackpoint>
            <Time>2022-09-19T09:07:21.000Z</Time>
            <Position>
              <LatitudeDegrees>49.29239834658801555633544921875</LatitudeDegrees>
              <LongitudeDegrees>19.95433880947530269622802734375</LongitudeDegrees>
            </Position>
            <AltitudeMeters>848.20001220703125</AltitudeMeters>
            <DistanceMeters>NAN</DistanceMeters>
          </Trackpoint>
          <Trackpoint>
            <Time>2022-09-19T09:07:25.000Z</Time>
            <Position>
              <LatitudeDegrees>49.29245417006313800811767578125</LatitudeDegrees>
              <LongitudeDegrees>19.9541855044662952423095703125</LongitudeDegrees>
            </Position>
            <AltitudeMeters>847.79998779296875</AltitudeMeters>
            <DistanceMeters>NAN</DistanceMeters>
          </Trackpoint>
          <Trackpoint>
            <Time>2022-09-19T09:07:27.000Z</Time>
            <Position>
              <LatitudeDegrees>49.292484261095523834228515625</LatitudeDegrees>
              <LongitudeDegrees>19.95410998351871967315673828125</LongitudeDegrees>
            </Position>
            <AltitudeMeters>847.5999755859375</AltitudeMeters>
            <DistanceMeters>NAN</DistanceMeters>
          </Trackpoint>
          <Trackpoint>
            <Time>2022-09-19T09:07:32.000Z</Time>
            <Position>
              <LatitudeDegrees>49.2925605364143848419189453125</LatitudeDegrees>
              <LongitudeDegrees>19.95390303432941436767578125</LongitudeDegrees>
            </Position>
            <AltitudeMeters>847.4000244140625</AltitudeMeters>
            <DistanceMeters>NAN</DistanceMeters>
          </Trackpoint>
          <Trackpoint>
            <Time>2022-09-19T09:07:34.000Z</Time>
            <Position>
              <LatitudeDegrees>49.29259213618934154510498046875</LatitudeDegrees>
              <LongitudeDegrees>19.95381209068000316619873046875</LongitudeDegrees>
            </Position>
            <AltitudeMeters>846.79998779296875</AltitudeMeters>
            <DistanceMeters>NAN</DistanceMeters>
          </Trackpoint>
          <Trackpoint>
            <Time>2022-09-19T09:07:35.000Z</Time>
            <Position>
              <LatitudeDegrees>49.292610995471477508544921875</LatitudeDegrees>
              <LongitudeDegrees>19.9537687562406063079833984375</LongitudeDegrees>
            </Position>
            <AltitudeMeters>846.5999755859375</AltitudeMeters>
            <DistanceMeters>NAN</DistanceMeters>
          </Trackpoint>
          <Trackpoint>
            <Time>2022-09-19T09:07:39.000Z</Time>
            <Position>
              <LatitudeDegrees>49.29267662577331066131591796875</LatitudeDegrees>
              <LongitudeDegrees>19.95364478789269924163818359375</LongitudeDegrees>
            </Position>
            <AltitudeMeters>846.20001220703125</AltitudeMeters>
            <DistanceMeters>NAN</DistanceMeters>
          </Trackpoint>
          <Trackpoint>
            <Time>2022-09-19T09:07:44.000Z</Time>
            <Position>
              <LatitudeDegrees>49.2927040345966815948486328125</LatitudeDegrees>
              <LongitudeDegrees>19.95351671241223812103271484375</LongitudeDegrees>
            </Position>
            <AltitudeMeters>845.5999755859375</AltitudeMeters>
            <DistanceMeters>NAN</DistanceMeters>
          </Trackpoint>
          <Trackpoint>
            <Time>2022-09-19T09:07:45.000Z</Time>
            <Position>
              <LatitudeDegrees>49.29270378313958644866943359375</LatitudeDegrees>
              <LongitudeDegrees>19.953500367701053619384765625</LongitudeDegrees>
            </Position>
            <AltitudeMeters>845.5999755859375</AltitudeMeters>
            <DistanceMeters>NAN</DistanceMeters>
          </Trackpoint>
          <Trackpoint>
            <Time>2022-09-19T09:07:51.000Z</Time>
            <Position>
              <LatitudeDegrees>49.29267427884042263031005859375</LatitudeDegrees>
              <LongitudeDegrees>19.95339701883494853973388671875</LongitudeDegrees>
            </Position>
            <AltitudeMeters>845.5999755859375</AltitudeMeters>
            <DistanceMeters>NAN</DistanceMeters>
          </Trackpoint>
          <Trackpoint>
            <Time>2022-09-19T09:07:56.000Z</Time>
            <Position>
              <LatitudeDegrees>49.29267545230686664581298828125</LatitudeDegrees>
              <LongitudeDegrees>19.9532318115234375</LongitudeDegrees>
            </Position>
            <AltitudeMeters>846.20001220703125</AltitudeMeters>
            <DistanceMeters>NAN</DistanceMeters>
          </Trackpoint>
          <Trackpoint>
            <Time>2022-09-19T09:07:59.000Z</Time>
            <Position>
              <LatitudeDegrees>49.29271266795694828033447265625</LatitudeDegrees>
              <LongitudeDegrees>19.9531526863574981689453125</LongitudeDegrees>
            </Position>
            <AltitudeMeters>846</AltitudeMeters>
            <DistanceMeters>NAN</DistanceMeters>
          </Trackpoint>
          <Trackpoint>
            <Time>2022-09-19T09:08:01.000Z</Time>
            <Position>
              <LatitudeDegrees>49.292712919414043426513671875</LatitudeDegrees>
              <LongitudeDegrees>19.95310306549072265625</LongitudeDegrees>
            </Position>
            <AltitudeMeters>845.79998779296875</AltitudeMeters>
            <DistanceMeters>NAN</DistanceMeters>
          </Trackpoint>
          <Trackpoint>
            <Time>2022-09-19T09:08:07.000Z</Time>
            <Position>
              <LatitudeDegrees>49.29267260245978832244873046875</LatitudeDegrees>
              <LongitudeDegrees>19.95297440327703952789306640625</LongitudeDegrees>
            </Position>
            <AltitudeMeters>845.79998779296875</AltitudeMeters>
            <DistanceMeters>NAN</DistanceMeters>
          </Trackpoint>
          <Trackpoint>
            <Time>2022-09-19T09:08:08.000Z</Time>
            <Position>
              <LatitudeDegrees>49.29266966879367828369140625</LatitudeDegrees>
              <LongitudeDegrees>19.9529553763568401336669921875</LongitudeDegrees>
            </Position>
            <AltitudeMeters>846</AltitudeMeters>
            <DistanceMeters>NAN</DistanceMeters>
          </Trackpoint>
          <Trackpoint>
            <Time>2022-09-19T09:08:10.000Z</Time>
            <Position>
              <LatitudeDegrees>49.29266824387013912200927734375</LatitudeDegrees>
              <LongitudeDegrees>19.9529193341732025146484375</LongitudeDegrees>
            </Position>
            <AltitudeMeters>846</AltitudeMeters>
            <DistanceMeters>NAN</DistanceMeters>
          </Trackpoint>
          <Trackpoint>
            <Time>2022-09-19T09:08:13.000Z</Time>
            <Position>
              <LatitudeDegrees>49.29267008788883686065673828125</LatitudeDegrees>
              <LongitudeDegrees>19.95291254483163356781005859375</LongitudeDegrees>
            </Position>
            <AltitudeMeters>846</AltitudeMeters>
            <DistanceMeters>NAN</DistanceMeters>
          </Trackpoint>
          <Trackpoint>
            <Time>2022-09-19T09:08:18.000Z</Time>
            <Position>
              <LatitudeDegrees>49.29267008788883686065673828125</LatitudeDegrees>
              <LongitudeDegrees>19.95291254483163356781005859375</LongitudeDegrees>
            </Position>
            <AltitudeMeters>845.79998779296875</AltitudeMeters>
            <DistanceMeters>NAN</DistanceMeters>
          </Trackpoint>
          <Trackpoint>
            <Time>2022-09-19T09:08:26.000Z</Time>
            <Position>
              <LatitudeDegrees>49.29267008788883686065673828125</LatitudeDegrees>
              <LongitudeDegrees>19.95291254483163356781005859375</LongitudeDegrees>
            </Position>
            <AltitudeMeters>846.20001220703125</AltitudeMeters>
            <DistanceMeters>NAN</DistanceMeters>
          </Trackpoint>
          <Trackpoint>
            <Time>2022-09-19T09:08:30.000Z</Time>
            <Position>
              <LatitudeDegrees>49.29267008788883686065673828125</LatitudeDegrees>
              <LongitudeDegrees>19.95291254483163356781005859375</LongitudeDegrees>
            </Position>
            <AltitudeMeters>846.20001220703125</AltitudeMeters>
            <DistanceMeters>NAN</DistanceMeters>
          </Trackpoint>
          <Trackpoint>
            <Time>2022-09-19T09:08:32.000Z</Time>
            <Position>
              <LatitudeDegrees>49.29267008788883686065673828125</LatitudeDegrees>
              <LongitudeDegrees>19.95291254483163356781005859375</LongitudeDegrees>
            </Position>
            <AltitudeMeters>846.4000244140625</AltitudeMeters>
            <DistanceMeters>NAN</DistanceMeters>
          </Trackpoint>
          <Trackpoint>
            <Time>2022-09-19T09:09:09.000Z</Time>
            <Position>
              <LatitudeDegrees>49.29267008788883686065673828125</LatitudeDegrees>
              <LongitudeDegrees>19.95291254483163356781005859375</LongitudeDegrees>
            </Position>
            <AltitudeMeters>845.79998779296875</AltitudeMeters>
            <DistanceMeters>NAN</DistanceMeters>
          </Trackpoint>
          <Trackpoint>
            <Time>2022-09-19T09:09:15.000Z</Time>
            <Position>
              <LatitudeDegrees>49.29266438819468021392822265625</LatitudeDegrees>
              <LongitudeDegrees>19.95291472412645816802978515625</LongitudeDegrees>
            </Position>
            <AltitudeMeters>845.5999755859375</AltitudeMeters>
            <DistanceMeters>NAN</DistanceMeters>
          </Trackpoint>
          <Trackpoint>
            <Time>2022-09-19T09:09:19.000Z</Time>
            <Position>
              <LatitudeDegrees>49.29266505874693393707275390625</LatitudeDegrees>
              <LongitudeDegrees>19.95292511768639087677001953125</LongitudeDegrees>
            </Position>
            <AltitudeMeters>845.5999755859375</AltitudeMeters>
            <DistanceMeters>NAN</DistanceMeters>
          </Trackpoint>
          <Trackpoint>
            <Time>2022-09-19T09:09:22.000Z</Time>
            <Position>
              <LatitudeDegrees>49.29271392524242401123046875</LatitudeDegrees>
              <LongitudeDegrees>19.95299569331109523773193359375</LongitudeDegrees>
            </Position>
            <AltitudeMeters>845.5999755859375</AltitudeMeters>
            <DistanceMeters>NAN</DistanceMeters>
          </Trackpoint>
          <Trackpoint>
            <Time>2022-09-19T09:09:25.000Z</Time>
            <Position>
              <LatitudeDegrees>49.29272742010653018951416015625</LatitudeDegrees>
              <LongitudeDegrees>19.95305654592812061309814453125</LongitudeDegrees>
            </Position>
            <AltitudeMeters>845.79998779296875</AltitudeMeters>
            <DistanceMeters>NAN</DistanceMeters>
          </Trackpoint>
          <Trackpoint>
            <Time>2022-09-19T09:09:28.000Z</Time>
            <Position>
              <LatitudeDegrees>49.2927409149706363677978515625</LatitudeDegrees>
              <LongitudeDegrees>19.9531126208603382110595703125</LongitudeDegrees>
            </Position>
            <AltitudeMeters>845.79998779296875</AltitudeMeters>
            <DistanceMeters>NAN</DistanceMeters>
          </Trackpoint>
          <Trackpoint>
            <Time>2022-09-19T09:09:30.000Z</Time>
            <Position>
              <LatitudeDegrees>49.29275793023407459259033203125</LatitudeDegrees>
              <LongitudeDegrees>19.9531478248536586761474609375</LongitudeDegrees>
            </Position>
            <AltitudeMeters>845.79998779296875</AltitudeMeters>
            <DistanceMeters>NAN</DistanceMeters>
          </Trackpoint>
          <Trackpoint>
            <Time>2022-09-19T09:09:35.000Z</Time>
            <Position>
              <LatitudeDegrees>49.2927975766360759735107421875</LatitudeDegrees>
              <LongitudeDegrees>19.9532457254827022552490234375</LongitudeDegrees>
            </Position>
            <AltitudeMeters>845.5999755859375</AltitudeMeters>
            <DistanceMeters>NAN</DistanceMeters>
          </Trackpoint>
          <Trackpoint>
            <Time>2022-09-19T09:09:41.000Z</Time>
            <Position>
              <LatitudeDegrees>49.29283135570585727691650390625</LatitudeDegrees>
              <LongitudeDegrees>19.95338964276015758514404296875</LongitudeDegrees>
            </Position>
            <AltitudeMeters>845.5999755859375</AltitudeMeters>
            <DistanceMeters>NAN</DistanceMeters>
          </Trackpoint>
          <Trackpoint>
            <Time>2022-09-19T09:09:50.000Z</Time>
            <Position>
              <LatitudeDegrees>49.2929165996611118316650390625</LatitudeDegrees>
              <LongitudeDegrees>19.9535588733851909637451171875</LongitudeDegrees>
            </Position>
            <AltitudeMeters>845.4000244140625</AltitudeMeters>
            <DistanceMeters>NAN</DistanceMeters>
          </Trackpoint>
          <Trackpoint>
            <Time>2022-09-19T09:09:58.000Z</Time>
            <Position>
              <LatitudeDegrees>49.2930413223803043365478515625</LatitudeDegrees>
              <LongitudeDegrees>19.95366188697516918182373046875</LongitudeDegrees>
            </Position>
            <AltitudeMeters>845.4000244140625</AltitudeMeters>
            <DistanceMeters>NAN</DistanceMeters>
          </Trackpoint>
          <Trackpoint>
            <Time>2022-09-19T09:10:03.000Z</Time>
            <Position>
              <LatitudeDegrees>49.2931100539863109588623046875</LatitudeDegrees>
              <LongitudeDegrees>19.9537409283220767974853515625</LongitudeDegrees>
            </Position>
            <AltitudeMeters>846</AltitudeMeters>
            <DistanceMeters>NAN</DistanceMeters>
          </Trackpoint>
          <Trackpoint>
            <Time>2022-09-19T09:10:06.000Z</Time>
            <Position>
              <LatitudeDegrees>49.29314450360834598541259765625</LatitudeDegrees>
              <LongitudeDegrees>19.95378744788467884063720703125</LongitudeDegrees>
            </Position>
            <AltitudeMeters>846</AltitudeMeters>
            <DistanceMeters>NAN</DistanceMeters>
          </Trackpoint>
          <Trackpoint>
            <Time>2022-09-19T09:10:10.000Z</Time>
            <Position>
              <LatitudeDegrees>49.29318138398230075836181640625</LatitudeDegrees>
              <LongitudeDegrees>19.9538420140743255615234375</LongitudeDegrees>
            </Position>
            <AltitudeMeters>846</AltitudeMeters>
            <DistanceMeters>NAN</DistanceMeters>
          </Trackpoint>
          <Trackpoint>
            <Time>2022-09-19T09:10:11.000Z</Time>
            <Position>
              <LatitudeDegrees>49.2931880056858062744140625</LatitudeDegrees>
              <LongitudeDegrees>19.9538532458245754241943359375</LongitudeDegrees>
            </Position>
            <AltitudeMeters>846</AltitudeMeters>
            <DistanceMeters>NAN</DistanceMeters>
          </Trackpoint>
          <Trackpoint>
            <Time>2022-09-19T09:10:14.000Z</Time>
            <Position>
              <LatitudeDegrees>49.2932032607495784759521484375</LatitudeDegrees>
              <LongitudeDegrees>19.9538572691380977630615234375</LongitudeDegrees>
            </Position>
            <AltitudeMeters>846</AltitudeMeters>
            <DistanceMeters>NAN</DistanceMeters>
          </Trackpoint>
          <Trackpoint>
            <Time>2022-09-19T09:10:16.000Z</Time>
            <Position>
              <LatitudeDegrees>49.2932196892797946929931640625</LatitudeDegrees>
              <LongitudeDegrees>19.953854084014892578125</LongitudeDegrees>
            </Position>
            <AltitudeMeters>846</AltitudeMeters>
            <DistanceMeters>NAN</DistanceMeters>
          </Trackpoint>
          <Trackpoint>
            <Time>2022-09-19T09:10:22.000Z</Time>
            <Position>
              <LatitudeDegrees>49.293321780860424041748046875</LatitudeDegrees>
              <LongitudeDegrees>19.95386506430804729461669921875</LongitudeDegrees>
            </Position>
            <AltitudeMeters>846.4000244140625</AltitudeMeters>
            <DistanceMeters>NAN</DistanceMeters>
          </Trackpoint>
          <Trackpoint>
            <Time>2022-09-19T09:10:29.000Z</Time>
            <Position>
              <LatitudeDegrees>49.293441809713840484619140625</LatitudeDegrees>
              <LongitudeDegrees>19.9538180418312549591064453125</LongitudeDegrees>
            </Position>
            <AltitudeMeters>846.20001220703125</AltitudeMeters>
            <DistanceMeters>NAN</DistanceMeters>
          </Trackpoint>
          <Trackpoint>
            <Time>2022-09-19T09:10:35.000Z</Time>
            <Position>
              <LatitudeDegrees>49.29356594569981098175048828125</LatitudeDegrees>
              <LongitudeDegrees>19.95376624166965484619140625</LongitudeDegrees>
            </Position>
            <AltitudeMeters>845.79998779296875</AltitudeMeters>
            <DistanceMeters>NAN</DistanceMeters>
          </Trackpoint>
          <Trackpoint>
            <Time>2022-09-19T09:10:37.000Z</Time>
            <Position>
              <LatitudeDegrees>49.2935985513031482696533203125</LatitudeDegrees>
              <LongitudeDegrees>19.95374201796948909759521484375</LongitudeDegrees>
            </Position>
            <AltitudeMeters>845.5999755859375</AltitudeMeters>
            <DistanceMeters>NAN</DistanceMeters>
          </Trackpoint>
          <Trackpoint>
            <Time>2022-09-19T09:10:39.000Z</Time>
            <Position>
              <LatitudeDegrees>49.29363518022000789642333984375</LatitudeDegrees>
              <LongitudeDegrees>19.953732378780841827392578125</LongitudeDegrees>
            </Position>
            <AltitudeMeters>845.5999755859375</AltitudeMeters>
            <DistanceMeters>NAN</DistanceMeters>
          </Trackpoint>
          <Trackpoint>
            <Time>2022-09-19T09:10:45.000Z</Time>
            <Position>
              <LatitudeDegrees>49.2937400378286838531494140625</LatitudeDegrees>
              <LongitudeDegrees>19.95366859249770641326904296875</LongitudeDegrees>
            </Position>
            <AltitudeMeters>845.5999755859375</AltitudeMeters>
            <DistanceMeters>NAN</DistanceMeters>
          </Trackpoint>
          <Trackpoint>
            <Time>2022-09-19T09:10:47.000Z</Time>
            <Position>
              <LatitudeDegrees>49.2937789298593997955322265625</LatitudeDegrees>
              <LongitudeDegrees>19.95366808958351612091064453125</LongitudeDegrees>
            </Position>
            <AltitudeMeters>845.4000244140625</AltitudeMeters>
            <DistanceMeters>NAN</DistanceMeters>
          </Trackpoint>
          <Trackpoint>
            <Time>2022-09-19T09:10:50.000Z</Time>
            <Position>
              <LatitudeDegrees>49.2938278801739215850830078125</LatitudeDegrees>
              <LongitudeDegrees>19.9536403454840183258056640625</LongitudeDegrees>
            </Position>
            <AltitudeMeters>845.4000244140625</AltitudeMeters>
            <DistanceMeters>NAN</DistanceMeters>
          </Trackpoint>
          <Trackpoint>
            <Time>2022-09-19T09:10:51.000Z</Time>
            <Position>
              <LatitudeDegrees>49.293843470513820648193359375</LatitudeDegrees>
              <LongitudeDegrees>19.95363925583660602569580078125</LongitudeDegrees>
            </Position>
            <AltitudeMeters>845.4000244140625</AltitudeMeters>
            <DistanceMeters>NAN</DistanceMeters>
          </Trackpoint>
          <Trackpoint>
            <Time>2022-09-19T09:10:55.000Z</Time>
            <Position>
              <LatitudeDegrees>49.29391915909945964813232421875</LatitudeDegrees>
              <LongitudeDegrees>19.953647889196872711181640625</LongitudeDegrees>
            </Position>
            <AltitudeMeters>845.4000244140625</AltitudeMeters>
            <DistanceMeters>NAN</DistanceMeters>
          </Trackpoint>
          <Trackpoint>
            <Time>2022-09-19T09:10:56.000Z</Time>
            <Position>
              <LatitudeDegrees>49.29393609054386615753173828125</LatitudeDegrees>
              <LongitudeDegrees>19.95364227332174777984619140625</LongitudeDegrees>
            </Position>
            <AltitudeMeters>845.20001220703125</AltitudeMeters>
            <DistanceMeters>NAN</DistanceMeters>
          </Trackpoint>
          <Trackpoint>
            <Time>2022-09-19T09:10:59.000Z</Time>
            <Position>
              <LatitudeDegrees>49.293959140777587890625</LatitudeDegrees>
              <LongitudeDegrees>19.9536105059087276458740234375</LongitudeDegrees>
            </Position>
            <AltitudeMeters>845</AltitudeMeters>
            <DistanceMeters>NAN</DistanceMeters>
          </Trackpoint>
          <Trackpoint>
            <Time>2022-09-19T09:11:05.000Z</Time>
            <Position>
              <LatitudeDegrees>49.29401152767241001129150390625</LatitudeDegrees>
              <LongitudeDegrees>19.95350916869938373565673828125</LongitudeDegrees>
            </Position>
            <AltitudeMeters>844.79998779296875</AltitudeMeters>
            <DistanceMeters>NAN</DistanceMeters>
          </Trackpoint>
          <Trackpoint>
            <Time>2022-09-19T09:11:10.000Z</Time>
            <Position>
              <LatitudeDegrees>49.2940491624176502227783203125</LatitudeDegrees>
              <LongitudeDegrees>19.95344177819788455963134765625</LongitudeDegrees>
            </Position>
            <AltitudeMeters>844.5999755859375</AltitudeMeters>
            <DistanceMeters>NAN</DistanceMeters>
          </Trackpoint>
          <Trackpoint>
            <Time>2022-09-19T09:11:11.000Z</Time>
            <Position>
              <LatitudeDegrees>49.2940558679401874542236328125</LatitudeDegrees>
              <LongitudeDegrees>19.95342132635414600372314453125</LongitudeDegrees>
            </Position>
            <AltitudeMeters>844.5999755859375</AltitudeMeters>
            <DistanceMeters>NAN</DistanceMeters>
          </Trackpoint>
          <Trackpoint>
            <Time>2022-09-19T09:11:15.000Z</Time>
            <Position>
              <LatitudeDegrees>49.29408495314419269561767578125</LatitudeDegrees>
              <LongitudeDegrees>19.9533627368509769439697265625</LongitudeDegrees>
            </Position>
            <AltitudeMeters>844.4000244140625</AltitudeMeters>
            <DistanceMeters>NAN</DistanceMeters>
          </Trackpoint>
          <Trackpoint>
            <Time>2022-09-19T09:11:19.000Z</Time>
            <Position>
              <LatitudeDegrees>49.294119738042354583740234375</LatitudeDegrees>
              <LongitudeDegrees>19.95328905992209911346435546875</LongitudeDegrees>
            </Position>
            <AltitudeMeters>844.20001220703125</AltitudeMeters>
            <DistanceMeters>NAN</DistanceMeters>
          </Trackpoint>
          <Trackpoint>
            <Time>2022-09-19T09:11:27.000Z</Time>
            <Position>
              <LatitudeDegrees>49.29417195729911327362060546875</LatitudeDegrees>
              <LongitudeDegrees>19.953155033290386199951171875</LongitudeDegrees>
            </Position>
            <AltitudeMeters>843.5999755859375</AltitudeMeters>
            <DistanceMeters>NAN</DistanceMeters>
          </Trackpoint>
          <Trackpoint>
            <Time>2022-09-19T09:11:30.000Z</Time>
            <Position>
              <LatitudeDegrees>49.2941940017044544219970703125</LatitudeDegrees>
              <LongitudeDegrees>19.9531102739274501800537109375</LongitudeDegrees>
            </Position>
            <AltitudeMeters>843.4000244140625</AltitudeMeters>
            <DistanceMeters>NAN</DistanceMeters>
          </Trackpoint>
          <Trackpoint>
            <Time>2022-09-19T09:11:34.000Z</Time>
            <Position>
              <LatitudeDegrees>49.29423448629677295684814453125</LatitudeDegrees>
              <LongitudeDegrees>19.9530448950827121734619140625</LongitudeDegrees>
            </Position>
            <AltitudeMeters>843.20001220703125</AltitudeMeters>
            <DistanceMeters>NAN</DistanceMeters>
          </Trackpoint>
          <Trackpoint>
            <Time>2022-09-19T09:11:35.000Z</Time>
            <Position>
              <LatitudeDegrees>49.294245131313800811767578125</LatitudeDegrees>
              <LongitudeDegrees>19.95303022675216197967529296875</LongitudeDegrees>
            </Position>
            <AltitudeMeters>843.20001220703125</AltitudeMeters>
            <DistanceMeters>NAN</DistanceMeters>
          </Trackpoint>
          <Trackpoint>
            <Time>2022-09-19T09:11:38.000Z</Time>
            <Position>
              <LatitudeDegrees>49.29426935501396656036376953125</LatitudeDegrees>
              <LongitudeDegrees>19.9529929272830486297607421875</LongitudeDegrees>
            </Position>
            <AltitudeMeters>843.20001220703125</AltitudeMeters>
            <DistanceMeters>NAN</DistanceMeters>
          </Trackpoint>
          <Trackpoint>
            <Time>2022-09-19T09:11:40.000Z</Time>
            <Position>
              <LatitudeDegrees>49.2942828498780727386474609375</LatitudeDegrees>
              <LongitudeDegrees>19.95295730419456958770751953125</LongitudeDegrees>
            </Position>
            <AltitudeMeters>843</AltitudeMeters>
            <DistanceMeters>NAN</DistanceMeters>
          </Trackpoint>
          <Trackpoint>
            <Time>2022-09-19T09:11:45.000Z</Time>
            <Position>
              <LatitudeDegrees>49.2943261004984378814697265625</LatitudeDegrees>
              <LongitudeDegrees>19.952874071896076202392578125</LongitudeDegrees>
            </Position>
            <AltitudeMeters>842.4000244140625</AltitudeMeters>
            <DistanceMeters>NAN</DistanceMeters>
          </Trackpoint>
          <Trackpoint>
            <Time>2022-09-19T09:11:48.000Z</Time>
            <Position>
              <LatitudeDegrees>49.29435409605503082275390625</LatitudeDegrees>
              <LongitudeDegrees>19.9528454057872295379638671875</LongitudeDegrees>
            </Position>
            <AltitudeMeters>842.20001220703125</AltitudeMeters>
            <DistanceMeters>NAN</DistanceMeters>
          </Trackpoint>
          <Trackpoint>
            <Time>2022-09-19T09:11:50.000Z</Time>
            <Position>
              <LatitudeDegrees>49.29437044076621532440185546875</LatitudeDegrees>
              <LongitudeDegrees>19.9528145603835582733154296875</LongitudeDegrees>
            </Position>
            <AltitudeMeters>842.20001220703125</AltitudeMeters>
            <DistanceMeters>NAN</DistanceMeters>
          </Trackpoint>
          <Trackpoint>
            <Time>2022-09-19T09:11:54.000Z</Time>
            <Position>
              <LatitudeDegrees>49.2943944968283176422119140625</LatitudeDegrees>
              <LongitudeDegrees>19.95273803360760211944580078125</LongitudeDegrees>
            </Position>
            <AltitudeMeters>842</AltitudeMeters>
            <DistanceMeters>NAN</DistanceMeters>
          </Trackpoint>
          <Trackpoint>
            <Time>2022-09-19T09:11:55.000Z</Time>
            <Position>
              <LatitudeDegrees>49.29440178908407688140869140625</LatitudeDegrees>
              <LongitudeDegrees>19.9527180008590221405029296875</LongitudeDegrees>
            </Position>
            <AltitudeMeters>842</AltitudeMeters>
            <DistanceMeters>NAN</DistanceMeters>
          </Trackpoint>
          <Trackpoint>
            <Time>2022-09-19T09:11:59.000Z</Time>
            <Position>
              <LatitudeDegrees>49.29442894645035266876220703125</LatitudeDegrees>
              <LongitudeDegrees>19.9526680447161197662353515625</LongitudeDegrees>
            </Position>
            <AltitudeMeters>842</AltitudeMeters>
            <DistanceMeters>NAN</DistanceMeters>
          </Trackpoint>
          <Trackpoint>
            <Time>2022-09-19T09:12:02.000Z</Time>
            <Position>
              <LatitudeDegrees>49.29445744492113590240478515625</LatitudeDegrees>
              <LongitudeDegrees>19.9526264704763889312744140625</LongitudeDegrees>
            </Position>
            <AltitudeMeters>841.79998779296875</AltitudeMeters>
            <DistanceMeters>NAN</DistanceMeters>
          </Trackpoint>
          <Trackpoint>
            <Time>2022-09-19T09:12:08.000Z</Time>
            <Position>
              <LatitudeDegrees>49.29451427422463893890380859375</LatitudeDegrees>
              <LongitudeDegrees>19.95254877023398876190185546875</LongitudeDegrees>
            </Position>
            <AltitudeMeters>841.4000244140625</AltitudeMeters>
            <DistanceMeters>NAN</DistanceMeters>
          </Trackpoint>
          <Trackpoint>
            <Time>2022-09-19T09:12:10.000Z</Time>
            <Position>
              <LatitudeDegrees>49.294532798230648040771484375</LatitudeDegrees>
              <LongitudeDegrees>19.95251373387873172760009765625</LongitudeDegrees>
            </Position>
            <AltitudeMeters>841.4000244140625</AltitudeMeters>
            <DistanceMeters>NAN</DistanceMeters>
          </Trackpoint>
          <Trackpoint>
            <Time>2022-09-19T09:12:14.000Z</Time>
            <Position>
              <LatitudeDegrees>49.29457403719425201416015625</LatitudeDegrees>
              <LongitudeDegrees>19.9524269811809062957763671875</LongitudeDegrees>
            </Position>
            <AltitudeMeters>841.20001220703125</AltitudeMeters>
            <DistanceMeters>NAN</DistanceMeters>
          </Trackpoint>
          <Trackpoint>
            <Time>2022-09-19T09:12:18.000Z</Time>
            <Position>
              <LatitudeDegrees>49.294584430754184722900390625</LatitudeDegrees>
              <LongitudeDegrees>19.9523676373064517974853515625</LongitudeDegrees>
            </Position>
            <AltitudeMeters>841</AltitudeMeters>
            <DistanceMeters>NAN</DistanceMeters>
          </Trackpoint>
          <Trackpoint>
            <Time>2022-09-19T09:12:21.000Z</Time>
            <Position>
              <LatitudeDegrees>49.29461871273815631866455078125</LatitudeDegrees>
              <LongitudeDegrees>19.95229681022465229034423828125</LongitudeDegrees>
            </Position>
            <AltitudeMeters>840.79998779296875</AltitudeMeters>
            <DistanceMeters>NAN</DistanceMeters>
          </Trackpoint>
          <Trackpoint>
            <Time>2022-09-19T09:12:27.000Z</Time>
            <Position>
              <LatitudeDegrees>49.2946811579167842864990234375</LatitudeDegrees>
              <LongitudeDegrees>19.95222908444702625274658203125</LongitudeDegrees>
            </Position>
            <AltitudeMeters>840.5999755859375</AltitudeMeters>
            <DistanceMeters>NAN</DistanceMeters>
          </Trackpoint>
          <Trackpoint>
            <Time>2022-09-19T09:12:28.000Z</Time>
            <Position>
              <LatitudeDegrees>49.2946902103722095489501953125</LatitudeDegrees>
              <LongitudeDegrees>19.95222522877156734466552734375</LongitudeDegrees>
            </Position>
            <AltitudeMeters>840.5999755859375</AltitudeMeters>
            <DistanceMeters>NAN</DistanceMeters>
          </Trackpoint>
          <Trackpoint>
            <Time>2022-09-19T09:12:31.000Z</Time>
            <Position>
              <LatitudeDegrees>49.29472432471811771392822265625</LatitudeDegrees>
              <LongitudeDegrees>19.95220108889043331146240234375</LongitudeDegrees>
            </Position>
            <AltitudeMeters>840.5999755859375</AltitudeMeters>
            <DistanceMeters>NAN</DistanceMeters>
          </Trackpoint>
          <Trackpoint>
            <Time>2022-09-19T09:12:33.000Z</Time>
            <Position>
              <LatitudeDegrees>49.294729940593242645263671875</LatitudeDegrees>
              <LongitudeDegrees>19.952187426388263702392578125</LongitudeDegrees>
            </Position>
            <AltitudeMeters>840.5999755859375</AltitudeMeters>
            <DistanceMeters>NAN</DistanceMeters>
          </Trackpoint>
          <Trackpoint>
            <Time>2022-09-19T09:12:35.000Z</Time>
            <Position>
              <LatitudeDegrees>49.29473874159157276153564453125</LatitudeDegrees>
              <LongitudeDegrees>19.952165968716144561767578125</LongitudeDegrees>
            </Position>
            <AltitudeMeters>840.5999755859375</AltitudeMeters>
            <DistanceMeters>NAN</DistanceMeters>
          </Trackpoint>
          <Trackpoint>
            <Time>2022-09-19T09:12:36.000Z</Time>
            <Position>
              <LatitudeDegrees>49.29474343545734882354736328125</LatitudeDegrees>
              <LongitudeDegrees>19.95216052047908306121826171875</LongitudeDegrees>
            </Position>
            <AltitudeMeters>840.5999755859375</AltitudeMeters>
            <DistanceMeters>NAN</DistanceMeters>
          </Trackpoint>
          <Trackpoint>
            <Time>2022-09-19T09:12:39.000Z</Time>
            <Position>
              <LatitudeDegrees>49.29474745877087116241455078125</LatitudeDegrees>
              <LongitudeDegrees>19.9521584250032901763916015625</LongitudeDegrees>
            </Position>
            <AltitudeMeters>840.4000244140625</AltitudeMeters>
            <DistanceMeters>NAN</DistanceMeters>
          </Trackpoint>
          <Trackpoint>
            <Time>2022-09-19T09:12:40.000Z</Time>
            <Position>
              <LatitudeDegrees>49.29474745877087116241455078125</LatitudeDegrees>
              <LongitudeDegrees>19.9521584250032901763916015625</LongitudeDegrees>
            </Position>
            <AltitudeMeters>840.4000244140625</AltitudeMeters>
            <DistanceMeters>NAN</DistanceMeters>
          </Trackpoint>
          <Trackpoint>
            <Time>2022-09-19T09:12:46.000Z</Time>
            <Position>
              <LatitudeDegrees>49.29474745877087116241455078125</LatitudeDegrees>
              <LongitudeDegrees>19.9521584250032901763916015625</LongitudeDegrees>
            </Position>
            <AltitudeMeters>840.20001220703125</AltitudeMeters>
            <DistanceMeters>NAN</DistanceMeters>
          </Trackpoint>
          <Trackpoint>
            <Time>2022-09-19T09:12:47.000Z</Time>
            <Position>
              <LatitudeDegrees>49.29474745877087116241455078125</LatitudeDegrees>
              <LongitudeDegrees>19.9521584250032901763916015625</LongitudeDegrees>
            </Position>
            <AltitudeMeters>840.20001220703125</AltitudeMeters>
            <DistanceMeters>NAN</DistanceMeters>
          </Trackpoint>
          <Trackpoint>
            <Time>2022-09-19T09:12:50.000Z</Time>
            <Position>
              <LatitudeDegrees>49.29474745877087116241455078125</LatitudeDegrees>
              <LongitudeDegrees>19.9521584250032901763916015625</LongitudeDegrees>
            </Position>
            <AltitudeMeters>840.20001220703125</AltitudeMeters>
            <DistanceMeters>NAN</DistanceMeters>
          </Trackpoint>
          <Trackpoint>
            <Time>2022-09-19T09:12:55.000Z</Time>
            <Position>
              <LatitudeDegrees>49.29474745877087116241455078125</LatitudeDegrees>
              <LongitudeDegrees>19.9521584250032901763916015625</LongitudeDegrees>
            </Position>
            <AltitudeMeters>840.20001220703125</AltitudeMeters>
            <DistanceMeters>NAN</DistanceMeters>
          </Trackpoint>
          <Trackpoint>
            <Time>2022-09-19T09:13:03.000Z</Time>
            <Position>
              <LatitudeDegrees>49.29474745877087116241455078125</LatitudeDegrees>
              <LongitudeDegrees>19.9521584250032901763916015625</LongitudeDegrees>
            </Position>
            <AltitudeMeters>840.20001220703125</AltitudeMeters>
            <DistanceMeters>NAN</DistanceMeters>
          </Trackpoint>
          <Trackpoint>
            <Time>2022-09-19T09:13:06.000Z</Time>
            <Position>
              <LatitudeDegrees>49.294748045504093170166015625</LatitudeDegrees>
              <LongitudeDegrees>19.9521577544510364532470703125</LongitudeDegrees>
            </Position>
            <AltitudeMeters>840.5999755859375</AltitudeMeters>
            <DistanceMeters>NAN</DistanceMeters>
          </Trackpoint>
          <Trackpoint>
            <Time>2022-09-19T09:13:08.000Z</Time>
            <Position>
              <LatitudeDegrees>49.2947649769484996795654296875</LatitudeDegrees>
              <LongitudeDegrees>19.95213252492249011993408203125</LongitudeDegrees>
            </Position>
            <AltitudeMeters>840.5999755859375</AltitudeMeters>
            <DistanceMeters>NAN</DistanceMeters>
          </Trackpoint>
          <Trackpoint>
            <Time>2022-09-19T09:13:09.000Z</Time>
            <Position>
              <LatitudeDegrees>49.294778220355510711669921875</LatitudeDegrees>
              <LongitudeDegrees>19.952112324535846710205078125</LongitudeDegrees>
            </Position>
            <AltitudeMeters>840.5999755859375</AltitudeMeters>
            <DistanceMeters>NAN</DistanceMeters>
          </Trackpoint>
          <Trackpoint>
            <Time>2022-09-19T09:13:15.000Z</Time>
            <Position>
              <LatitudeDegrees>49.29489179514348506927490234375</LatitudeDegrees>
              <LongitudeDegrees>19.95195281691849231719970703125</LongitudeDegrees>
            </Position>
            <AltitudeMeters>839.79998779296875</AltitudeMeters>
            <DistanceMeters>NAN</DistanceMeters>
          </Trackpoint>
          <Trackpoint>
            <Time>2022-09-19T09:13:17.000Z</Time>
            <Position>
              <LatitudeDegrees>49.2949245683848857879638671875</LatitudeDegrees>
              <LongitudeDegrees>19.95189179666340351104736328125</LongitudeDegrees>
            </Position>
            <AltitudeMeters>839.4000244140625</AltitudeMeters>
            <DistanceMeters>NAN</DistanceMeters>
          </Trackpoint>
          <Trackpoint>
            <Time>2022-09-19T09:13:21.000Z</Time>
            <Position>
              <LatitudeDegrees>49.29499153979122638702392578125</LatitudeDegrees>
              <LongitudeDegrees>19.9517765454947948455810546875</LongitudeDegrees>
            </Position>
            <AltitudeMeters>838.79998779296875</AltitudeMeters>
            <DistanceMeters>NAN</DistanceMeters>
          </Trackpoint>
          <Trackpoint>
            <Time>2022-09-19T09:13:26.000Z</Time>
            <Position>
              <LatitudeDegrees>49.2950590141117572784423828125</LatitudeDegrees>
              <LongitudeDegrees>19.95161552913486957550048828125</LongitudeDegrees>
            </Position>
            <AltitudeMeters>838.20001220703125</AltitudeMeters>
            <DistanceMeters>NAN</DistanceMeters>
          </Trackpoint>
          <Trackpoint>
            <Time>2022-09-19T09:13:29.000Z</Time>
            <Position>
              <LatitudeDegrees>49.29509103298187255859375</LatitudeDegrees>
              <LongitudeDegrees>19.9515146948397159576416015625</LongitudeDegrees>
            </Position>
            <AltitudeMeters>837.79998779296875</AltitudeMeters>
            <DistanceMeters>NAN</DistanceMeters>
          </Trackpoint>
          <Trackpoint>
            <Time>2022-09-19T09:13:33.000Z</Time>
            <Position>
              <LatitudeDegrees>49.29514677263796329498291015625</LatitudeDegrees>
              <LongitudeDegrees>19.9514154531061649322509765625</LongitudeDegrees>
            </Position>
            <AltitudeMeters>837.20001220703125</AltitudeMeters>
            <DistanceMeters>NAN</DistanceMeters>
          </Trackpoint>
          <Trackpoint>
            <Time>2022-09-19T09:13:34.000Z</Time>
            <Position>
              <LatitudeDegrees>49.2951515503227710723876953125</LatitudeDegrees>
              <LongitudeDegrees>19.95138569734990596771240234375</LongitudeDegrees>
            </Position>
            <AltitudeMeters>837</AltitudeMeters>
            <DistanceMeters>NAN</DistanceMeters>
          </Trackpoint>
          <Trackpoint>
            <Time>2022-09-19T09:13:35.000Z</Time>
            <Position>
              <LatitudeDegrees>49.29515875875949859619140625</LatitudeDegrees>
              <LongitudeDegrees>19.9513517506420612335205078125</LongitudeDegrees>
            </Position>
            <AltitudeMeters>836.79998779296875</AltitudeMeters>
            <DistanceMeters>NAN</DistanceMeters>
          </Trackpoint>
          <Trackpoint>
            <Time>2022-09-19T09:13:41.000Z</Time>
            <Position>
              <LatitudeDegrees>49.2951820604503154754638671875</LatitudeDegrees>
              <LongitudeDegrees>19.95120431296527385711669921875</LongitudeDegrees>
            </Position>
            <AltitudeMeters>836.20001220703125</AltitudeMeters>
            <DistanceMeters>NAN</DistanceMeters>
          </Trackpoint>
          <Trackpoint>
            <Time>2022-09-19T09:13:42.000Z</Time>
            <Position>
              <LatitudeDegrees>49.2951699905097484588623046875</LatitudeDegrees>
              <LongitudeDegrees>19.95119341649115085601806640625</LongitudeDegrees>
            </Position>
            <AltitudeMeters>836</AltitudeMeters>
            <DistanceMeters>NAN</DistanceMeters>
          </Trackpoint>
          <Trackpoint>
            <Time>2022-09-19T09:13:48.000Z</Time>
            <Position>
              <LatitudeDegrees>49.29522103630006313323974609375</LatitudeDegrees>
              <LongitudeDegrees>19.951056540012359619140625</LongitudeDegrees>
            </Position>
            <AltitudeMeters>835.5999755859375</AltitudeMeters>
            <DistanceMeters>NAN</DistanceMeters>
          </Trackpoint>
          <Trackpoint>
            <Time>2022-09-19T09:13:57.000Z</Time>
            <Position>
              <LatitudeDegrees>49.29527585394680500030517578125</LatitudeDegrees>
              <LongitudeDegrees>19.95089552365243434906005859375</LongitudeDegrees>
            </Position>
            <AltitudeMeters>835.20001220703125</AltitudeMeters>
            <DistanceMeters>NAN</DistanceMeters>
          </Trackpoint>
          <Trackpoint>
            <Time>2022-09-19T09:14:01.000Z</Time>
            <Position>
              <LatitudeDegrees>49.29530669935047626495361328125</LatitudeDegrees>
              <LongitudeDegrees>19.95084791444242000579833984375</LongitudeDegrees>
            </Position>
            <AltitudeMeters>835.20001220703125</AltitudeMeters>
            <DistanceMeters>NAN</DistanceMeters>
          </Trackpoint>
          <Trackpoint>
            <Time>2022-09-19T09:14:02.000Z</Time>
            <Position>
              <LatitudeDegrees>49.2953165061771869659423828125</LatitudeDegrees>
              <LongitudeDegrees>19.950836598873138427734375</LongitudeDegrees>
            </Position>
            <AltitudeMeters>835</AltitudeMeters>
            <DistanceMeters>NAN</DistanceMeters>
          </Trackpoint>
          <Trackpoint>
            <Time>2022-09-19T09:14:04.000Z</Time>
            <Position>
              <LatitudeDegrees>49.29531432688236236572265625</LatitudeDegrees>
              <LongitudeDegrees>19.9508122913539409637451171875</LongitudeDegrees>
            </Position>
            <AltitudeMeters>834.79998779296875</AltitudeMeters>
            <DistanceMeters>NAN</DistanceMeters>
          </Trackpoint>
          <Trackpoint>
            <Time>2022-09-19T09:14:12.000Z</Time>
            <Position>
              <LatitudeDegrees>49.2953721620142459869384765625</LatitudeDegrees>
              <LongitudeDegrees>19.95073358528316020965576171875</LongitudeDegrees>
            </Position>
            <AltitudeMeters>834.4000244140625</AltitudeMeters>
            <DistanceMeters>NAN</DistanceMeters>
          </Trackpoint>
          <Trackpoint>
            <Time>2022-09-19T09:14:20.000Z</Time>
            <Position>
              <LatitudeDegrees>49.29541583172976970672607421875</LatitudeDegrees>
              <LongitudeDegrees>19.95067273266613483428955078125</LongitudeDegrees>
            </Position>
            <AltitudeMeters>834</AltitudeMeters>
            <DistanceMeters>NAN</DistanceMeters>
          </Trackpoint>
          <Trackpoint>
            <Time>2022-09-19T09:14:22.000Z</Time>
            <Position>
              <LatitudeDegrees>49.2954311706125736236572265625</LatitudeDegrees>
              <LongitudeDegrees>19.9506510235369205474853515625</LongitudeDegrees>
            </Position>
            <AltitudeMeters>834.20001220703125</AltitudeMeters>
            <DistanceMeters>NAN</DistanceMeters>
          </Trackpoint>
          <Trackpoint>
            <Time>2022-09-19T09:14:26.000Z</Time>
            <Position>
              <LatitudeDegrees>49.2954750917851924896240234375</LatitudeDegrees>
              <LongitudeDegrees>19.95060349814593791961669921875</LongitudeDegrees>
            </Position>
            <AltitudeMeters>834.20001220703125</AltitudeMeters>
            <DistanceMeters>NAN</DistanceMeters>
          </Trackpoint>
          <Trackpoint>
            <Time>2022-09-19T09:14:31.000Z</Time>
            <Position>
              <LatitudeDegrees>49.295541979372501373291015625</LatitudeDegrees>
              <LongitudeDegrees>19.95051817037165164947509765625</LongitudeDegrees>
            </Position>
            <AltitudeMeters>833.79998779296875</AltitudeMeters>
            <DistanceMeters>NAN</DistanceMeters>
          </Trackpoint>
          <Trackpoint>
            <Time>2022-09-19T09:14:32.000Z</Time>
            <Position>
              <LatitudeDegrees>49.29555295966565608978271484375</LatitudeDegrees>
              <LongitudeDegrees>19.95048413984477519989013671875</LongitudeDegrees>
            </Position>
            <AltitudeMeters>833.5999755859375</AltitudeMeters>
            <DistanceMeters>NAN</DistanceMeters>
          </Trackpoint>
          <Trackpoint>
            <Time>2022-09-19T09:14:39.000Z</Time>
            <Position>
              <LatitudeDegrees>49.295637868344783782958984375</LatitudeDegrees>
              <LongitudeDegrees>19.95029940269887447357177734375</LongitudeDegrees>
            </Position>
            <AltitudeMeters>833</AltitudeMeters>
            <DistanceMeters>NAN</DistanceMeters>
          </Trackpoint>
          <Trackpoint>
            <Time>2022-09-19T09:14:40.000Z</Time>
            <Position>
              <LatitudeDegrees>49.29565790109336376190185546875</LatitudeDegrees>
              <LongitudeDegrees>19.95027425698935985565185546875</LongitudeDegrees>
            </Position>
            <AltitudeMeters>832.79998779296875</AltitudeMeters>
            <DistanceMeters>NAN</DistanceMeters>
          </Trackpoint>
          <Trackpoint>
            <Time>2022-09-19T09:14:43.000Z</Time>
            <Position>
              <LatitudeDegrees>49.29570249281823635101318359375</LatitudeDegrees>
              <LongitudeDegrees>19.95021365582942962646484375</LongitudeDegrees>
            </Position>
            <AltitudeMeters>832.4000244140625</AltitudeMeters>
            <DistanceMeters>NAN</DistanceMeters>
          </Trackpoint>
          <Trackpoint>
            <Time>2022-09-19T09:14:44.000Z</Time>
            <Position>
              <LatitudeDegrees>49.29571506567299365997314453125</LatitudeDegrees>
              <LongitudeDegrees>19.95019077323377132415771484375</LongitudeDegrees>
            </Position>
            <AltitudeMeters>832.4000244140625</AltitudeMeters>
            <DistanceMeters>NAN</DistanceMeters>
          </Trackpoint>
          <Trackpoint>
            <Time>2022-09-19T09:14:46.000Z</Time>
            <Position>
              <LatitudeDegrees>49.295742474496364593505859375</LatitudeDegrees>
              <LongitudeDegrees>19.9501554854214191436767578125</LongitudeDegrees>
            </Position>
            <AltitudeMeters>832.20001220703125</AltitudeMeters>
            <DistanceMeters>NAN</DistanceMeters>
          </Trackpoint>
          <Trackpoint>
            <Time>2022-09-19T09:14:49.000Z</Time>
            <Position>
              <LatitudeDegrees>49.295778684318065643310546875</LatitudeDegrees>
              <LongitudeDegrees>19.9500971473753452301025390625</LongitudeDegrees>
            </Position>
            <AltitudeMeters>832.20001220703125</AltitudeMeters>
            <DistanceMeters>NAN</DistanceMeters>
          </Trackpoint>
          <Trackpoint>
            <Time>2022-09-19T09:14:52.000Z</Time>
            <Position>
              <LatitudeDegrees>49.295808188617229461669921875</LatitudeDegrees>
              <LongitudeDegrees>19.95006504468619823455810546875</LongitudeDegrees>
            </Position>
            <AltitudeMeters>832.20001220703125</AltitudeMeters>
            <DistanceMeters>NAN</DistanceMeters>
          </Trackpoint>
          <Trackpoint>
            <Time>2022-09-19T09:14:58.000Z</Time>
            <Position>
              <LatitudeDegrees>49.29585772566497325897216796875</LatitudeDegrees>
              <LongitudeDegrees>19.94998692534863948822021484375</LongitudeDegrees>
            </Position>
            <AltitudeMeters>832</AltitudeMeters>
            <DistanceMeters>NAN</DistanceMeters>
          </Trackpoint>
          <Trackpoint>
            <Time>2022-09-19T09:15:05.000Z</Time>
            <Position>
              <LatitudeDegrees>49.29589896462857723236083984375</LatitudeDegrees>
              <LongitudeDegrees>19.94989707134664058685302734375</LongitudeDegrees>
            </Position>
            <AltitudeMeters>831.79998779296875</AltitudeMeters>
            <DistanceMeters>NAN</DistanceMeters>
          </Trackpoint>
          <Trackpoint>
            <Time>2022-09-19T09:15:08.000Z</Time>
            <Position>
              <LatitudeDegrees>49.2959340848028659820556640625</LatitudeDegrees>
              <LongitudeDegrees>19.94982984848320484161376953125</LongitudeDegrees>
            </Position>
            <AltitudeMeters>831.5999755859375</AltitudeMeters>
            <DistanceMeters>NAN</DistanceMeters>
          </Trackpoint>
          <Trackpoint>
            <Time>2022-09-19T09:15:10.000Z</Time>
            <Position>
              <LatitudeDegrees>49.2959654331207275390625</LatitudeDegrees>
              <LongitudeDegrees>19.94978324510157108306884765625</LongitudeDegrees>
            </Position>
            <AltitudeMeters>831.5999755859375</AltitudeMeters>
            <DistanceMeters>NAN</DistanceMeters>
          </Trackpoint>
          <Trackpoint>
            <Time>2022-09-19T09:15:17.000Z</Time>
            <Position>
              <LatitudeDegrees>49.296064674854278564453125</LatitudeDegrees>
              <LongitudeDegrees>19.949605129659175872802734375</LongitudeDegrees>
            </Position>
            <AltitudeMeters>831</AltitudeMeters>
            <DistanceMeters>NAN</DistanceMeters>
          </Trackpoint>
          <Trackpoint>
            <Time>2022-09-19T09:15:21.000Z</Time>
            <Position>
              <LatitudeDegrees>49.29612745530903339385986328125</LatitudeDegrees>
              <LongitudeDegrees>19.94953799061477184295654296875</LongitudeDegrees>
            </Position>
            <AltitudeMeters>830.5999755859375</AltitudeMeters>
            <DistanceMeters>NAN</DistanceMeters>
          </Trackpoint>
          <Trackpoint>
            <Time>2022-09-19T09:15:23.000Z</Time>
            <Position>
              <LatitudeDegrees>49.2961573787033557891845703125</LatitudeDegrees>
              <LongitudeDegrees>19.9495013616979122161865234375</LongitudeDegrees>
            </Position>
            <AltitudeMeters>830.4000244140625</AltitudeMeters>
            <DistanceMeters>NAN</DistanceMeters>
          </Trackpoint>
          <Trackpoint>
            <Time>2022-09-19T09:15:29.000Z</Time>
            <Position>
              <LatitudeDegrees>49.29623926989734172821044921875</LatitudeDegrees>
              <LongitudeDegrees>19.9493645690381526947021484375</LongitudeDegrees>
            </Position>
            <AltitudeMeters>829.5999755859375</AltitudeMeters>
            <DistanceMeters>NAN</DistanceMeters>
          </Trackpoint>
          <Trackpoint>
            <Time>2022-09-19T09:15:31.000Z</Time>
            <Position>
              <LatitudeDegrees>49.2962707020342350006103515625</LatitudeDegrees>
              <LongitudeDegrees>19.949319474399089813232421875</LongitudeDegrees>
            </Position>
            <AltitudeMeters>829.4000244140625</AltitudeMeters>
            <DistanceMeters>NAN</DistanceMeters>
          </Trackpoint>
          <Trackpoint>
            <Time>2022-09-19T09:15:36.000Z</Time>
            <Position>
              <LatitudeDegrees>49.29630867205560207366943359375</LatitudeDegrees>
              <LongitudeDegrees>19.94921662844717502593994140625</LongitudeDegrees>
            </Position>
            <AltitudeMeters>829.20001220703125</AltitudeMeters>
            <DistanceMeters>NAN</DistanceMeters>
          </Trackpoint>
          <Trackpoint>
            <Time>2022-09-19T09:15:37.000Z</Time>
            <Position>
              <LatitudeDegrees>49.29631747305393218994140625</LatitudeDegrees>
              <LongitudeDegrees>19.94919885881245136260986328125</LongitudeDegrees>
            </Position>
            <AltitudeMeters>829.20001220703125</AltitudeMeters>
            <DistanceMeters>NAN</DistanceMeters>
          </Trackpoint>
          <Trackpoint>
            <Time>2022-09-19T09:15:43.000Z</Time>
            <Position>
              <LatitudeDegrees>49.29641663096845149993896484375</LatitudeDegrees>
              <LongitudeDegrees>19.9490966834127902984619140625</LongitudeDegrees>
            </Position>
            <AltitudeMeters>828.5999755859375</AltitudeMeters>
            <DistanceMeters>NAN</DistanceMeters>
          </Trackpoint>
          <Trackpoint>
            <Time>2022-09-19T09:15:45.000Z</Time>
            <Position>
              <LatitudeDegrees>49.29646097123622894287109375</LatitudeDegrees>
              <LongitudeDegrees>19.94906189851462841033935546875</LongitudeDegrees>
            </Position>
            <AltitudeMeters>828.20001220703125</AltitudeMeters>
            <DistanceMeters>NAN</DistanceMeters>
          </Trackpoint>
          <Trackpoint>
            <Time>2022-09-19T09:15:49.000Z</Time>
            <Position>
              <LatitudeDegrees>49.29652609862387180328369140625</LatitudeDegrees>
              <LongitudeDegrees>19.94894899427890777587890625</LongitudeDegrees>
            </Position>
            <AltitudeMeters>827.5999755859375</AltitudeMeters>
            <DistanceMeters>NAN</DistanceMeters>
          </Trackpoint>
          <Trackpoint>
            <Time>2022-09-19T09:15:54.000Z</Time>
            <Position>
              <LatitudeDegrees>49.29658795706927776336669921875</LatitudeDegrees>
              <LongitudeDegrees>19.948817901313304901123046875</LongitudeDegrees>
            </Position>
            <AltitudeMeters>827</AltitudeMeters>
            <DistanceMeters>NAN</DistanceMeters>
          </Trackpoint>
          <Trackpoint>
            <Time>2022-09-19T09:15:59.000Z</Time>
            <Position>
              <LatitudeDegrees>49.29663791321218013763427734375</LatitudeDegrees>
              <LongitudeDegrees>19.94873148389160633087158203125</LongitudeDegrees>
            </Position>
            <AltitudeMeters>827.4000244140625</AltitudeMeters>
            <DistanceMeters>NAN</DistanceMeters>
          </Trackpoint>
          <Trackpoint>
            <Time>2022-09-19T09:16:00.000Z</Time>
            <Position>
              <LatitudeDegrees>49.29665082134306430816650390625</LatitudeDegrees>
              <LongitudeDegrees>19.9487171508371829986572265625</LongitudeDegrees>
            </Position>
            <AltitudeMeters>827.4000244140625</AltitudeMeters>
            <DistanceMeters>NAN</DistanceMeters>
          </Trackpoint>
          <Trackpoint>
            <Time>2022-09-19T09:16:02.000Z</Time>
            <Position>
              <LatitudeDegrees>49.2966676689684391021728515625</LatitudeDegrees>
              <LongitudeDegrees>19.9486926756799221038818359375</LongitudeDegrees>
            </Position>
            <AltitudeMeters>827.20001220703125</AltitudeMeters>
            <DistanceMeters>NAN</DistanceMeters>
          </Trackpoint>
          <Trackpoint>
            <Time>2022-09-19T09:16:03.000Z</Time>
            <Position>
              <LatitudeDegrees>49.2966750450432300567626953125</LatitudeDegrees>
              <LongitudeDegrees>19.948678426444530487060546875</LongitudeDegrees>
            </Position>
            <AltitudeMeters>827.20001220703125</AltitudeMeters>
            <DistanceMeters>NAN</DistanceMeters>
          </Trackpoint>
          <Trackpoint>
            <Time>2022-09-19T09:16:06.000Z</Time>
            <Position>
              <LatitudeDegrees>49.2967065609991550445556640625</LatitudeDegrees>
              <LongitudeDegrees>19.94864934124052524566650390625</LongitudeDegrees>
            </Position>
            <AltitudeMeters>826.5999755859375</AltitudeMeters>
            <DistanceMeters>NAN</DistanceMeters>
          </Trackpoint>
          <Trackpoint>
            <Time>2022-09-19T09:16:07.000Z</Time>
            <Position>
              <LatitudeDegrees>49.2967156134545803070068359375</LatitudeDegrees>
              <LongitudeDegrees>19.9486360140144824981689453125</LongitudeDegrees>
            </Position>
            <AltitudeMeters>826.4000244140625</AltitudeMeters>
            <DistanceMeters>NAN</DistanceMeters>
          </Trackpoint>
          <Trackpoint>
            <Time>2022-09-19T09:16:08.000Z</Time>
            <Position>
              <LatitudeDegrees>49.2967203073203563690185546875</LatitudeDegrees>
              <LongitudeDegrees>19.9486192502081394195556640625</LongitudeDegrees>
            </Position>
            <AltitudeMeters>826.4000244140625</AltitudeMeters>
            <DistanceMeters>NAN</DistanceMeters>
          </Trackpoint>
          <Trackpoint>
            <Time>2022-09-19T09:16:10.000Z</Time>
            <Position>
              <LatitudeDegrees>49.29673430509865283966064453125</LatitudeDegrees>
              <LongitudeDegrees>19.948586560785770416259765625</LongitudeDegrees>
            </Position>
            <AltitudeMeters>826.4000244140625</AltitudeMeters>
            <DistanceMeters>NAN</DistanceMeters>
          </Trackpoint>
          <Trackpoint>
            <Time>2022-09-19T09:16:13.000Z</Time>
            <Position>
              <LatitudeDegrees>49.29675199091434478759765625</LatitudeDegrees>
              <LongitudeDegrees>19.948551021516323089599609375</LongitudeDegrees>
            </Position>
            <AltitudeMeters>827</AltitudeMeters>
            <DistanceMeters>NAN</DistanceMeters>
          </Trackpoint>
          <Trackpoint>
            <Time>2022-09-19T09:16:16.000Z</Time>
            <Position>
              <LatitudeDegrees>49.29675626568496227264404296875</LatitudeDegrees>
              <LongitudeDegrees>19.94854934513568878173828125</LongitudeDegrees>
            </Position>
            <AltitudeMeters>827</AltitudeMeters>
            <DistanceMeters>NAN</DistanceMeters>
          </Trackpoint>
          <Trackpoint>
            <Time>2022-09-19T09:16:23.000Z</Time>
            <Position>
              <LatitudeDegrees>49.29676330648362636566162109375</LatitudeDegrees>
              <LongitudeDegrees>19.94855915196239948272705078125</LongitudeDegrees>
            </Position>
            <AltitudeMeters>826.79998779296875</AltitudeMeters>
            <DistanceMeters>NAN</DistanceMeters>
          </Trackpoint>
          <Trackpoint>
            <Time>2022-09-19T09:16:28.000Z</Time>
            <Position>
              <LatitudeDegrees>49.29676330648362636566162109375</LatitudeDegrees>
              <LongitudeDegrees>19.94855915196239948272705078125</LongitudeDegrees>
            </Position>
            <AltitudeMeters>826.79998779296875</AltitudeMeters>
            <DistanceMeters>NAN</DistanceMeters>
          </Trackpoint>
          <Trackpoint>
            <Time>2022-09-19T09:16:40.000Z</Time>
            <Position>
              <LatitudeDegrees>49.29678426124155521392822265625</LatitudeDegrees>
              <LongitudeDegrees>19.94855864904820919036865234375</LongitudeDegrees>
            </Position>
            <AltitudeMeters>826.5999755859375</AltitudeMeters>
            <DistanceMeters>NAN</DistanceMeters>
          </Trackpoint>
          <Trackpoint>
            <Time>2022-09-19T09:16:42.000Z</Time>
            <Position>
              <LatitudeDegrees>49.29683337919414043426513671875</LatitudeDegrees>
              <LongitudeDegrees>19.9485622532665729522705078125</LongitudeDegrees>
            </Position>
            <AltitudeMeters>826.5999755859375</AltitudeMeters>
            <DistanceMeters>NAN</DistanceMeters>
          </Trackpoint>
          <Trackpoint>
            <Time>2022-09-19T09:16:48.000Z</Time>
            <Position>
              <LatitudeDegrees>49.297011829912662506103515625</LatitudeDegrees>
              <LongitudeDegrees>19.94855227880179882049560546875</LongitudeDegrees>
            </Position>
            <AltitudeMeters>826.5999755859375</AltitudeMeters>
            <DistanceMeters>NAN</DistanceMeters>
          </Trackpoint>
          <Trackpoint>
            <Time>2022-09-19T09:16:53.000Z</Time>
            <Position>
              <LatitudeDegrees>49.2971608601510524749755859375</LatitudeDegrees>
              <LongitudeDegrees>19.9485642649233341217041015625</LongitudeDegrees>
            </Position>
            <AltitudeMeters>825.79998779296875</AltitudeMeters>
            <DistanceMeters>NAN</DistanceMeters>
          </Trackpoint>
          <Trackpoint>
            <Time>2022-09-19T09:16:57.000Z</Time>
            <Position>
              <LatitudeDegrees>49.297244846820831298828125</LatitudeDegrees>
              <LongitudeDegrees>19.9485632590949535369873046875</LongitudeDegrees>
            </Position>
            <AltitudeMeters>825.4000244140625</AltitudeMeters>
            <DistanceMeters>NAN</DistanceMeters>
          </Trackpoint>
          <Trackpoint>
            <Time>2022-09-19T09:16:58.000Z</Time>
            <Position>
              <LatitudeDegrees>49.29725800640881061553955078125</LatitudeDegrees>
              <LongitudeDegrees>19.94855378754436969757080078125</LongitudeDegrees>
            </Position>
            <AltitudeMeters>825.20001220703125</AltitudeMeters>
            <DistanceMeters>NAN</DistanceMeters>
          </Trackpoint>
          <Trackpoint>
            <Time>2022-09-19T09:17:04.000Z</Time>
            <Position>
              <LatitudeDegrees>49.29729924537241458892822265625</LatitudeDegrees>
              <LongitudeDegrees>19.94851338677108287811279296875</LongitudeDegrees>
            </Position>
            <AltitudeMeters>825.20001220703125</AltitudeMeters>
            <DistanceMeters>NAN</DistanceMeters>
          </Trackpoint>
          <Trackpoint>
            <Time>2022-09-19T09:17:05.000Z</Time>
            <Position>
              <LatitudeDegrees>49.29729321040213108062744140625</LatitudeDegrees>
              <LongitudeDegrees>19.9485079385340213775634765625</LongitudeDegrees>
            </Position>
            <AltitudeMeters>825.20001220703125</AltitudeMeters>
            <DistanceMeters>NAN</DistanceMeters>
          </Trackpoint>
          <Trackpoint>
            <Time>2022-09-19T09:17:10.000Z</Time>
            <Position>
              <LatitudeDegrees>49.2972366325557231903076171875</LatitudeDegrees>
              <LongitudeDegrees>19.948496706783771514892578125</LongitudeDegrees>
            </Position>
            <AltitudeMeters>825.20001220703125</AltitudeMeters>
            <DistanceMeters>NAN</DistanceMeters>
          </Trackpoint>
          <Trackpoint>
            <Time>2022-09-19T09:17:15.000Z</Time>
            <Position>
              <LatitudeDegrees>49.29722514934837818145751953125</LatitudeDegrees>
              <LongitudeDegrees>19.948490001261234283447265625</LongitudeDegrees>
            </Position>
            <AltitudeMeters>825.20001220703125</AltitudeMeters>
            <DistanceMeters>NAN</DistanceMeters>
          </Trackpoint>
          <Trackpoint>
            <Time>2022-09-19T09:17:19.000Z</Time>
            <Position>
              <LatitudeDegrees>49.297158680856227874755859375</LatitudeDegrees>
              <LongitudeDegrees>19.94848497211933135986328125</LongitudeDegrees>
            </Position>
            <AltitudeMeters>825.20001220703125</AltitudeMeters>
            <DistanceMeters>NAN</DistanceMeters>
          </Trackpoint>
          <Trackpoint>
            <Time>2022-09-19T09:17:24.000Z</Time>
            <Position>
              <LatitudeDegrees>49.29701618850231170654296875</LatitudeDegrees>
              <LongitudeDegrees>19.948444068431854248046875</LongitudeDegrees>
            </Position>
            <AltitudeMeters>825.4000244140625</AltitudeMeters>
            <DistanceMeters>NAN</DistanceMeters>
          </Trackpoint>
          <Trackpoint>
            <Time>2022-09-19T09:17:25.000Z</Time>
            <Position>
              <LatitudeDegrees>49.29698743857443332672119140625</LatitudeDegrees>
              <LongitudeDegrees>19.94844197295606136322021484375</LongitudeDegrees>
            </Position>
            <AltitudeMeters>825.5999755859375</AltitudeMeters>
            <DistanceMeters>NAN</DistanceMeters>
          </Trackpoint>
          <Trackpoint>
            <Time>2022-09-19T09:17:29.000Z</Time>
            <Position>
              <LatitudeDegrees>49.2969067208468914031982421875</LatitudeDegrees>
              <LongitudeDegrees>19.94842487387359142303466796875</LongitudeDegrees>
            </Position>
            <AltitudeMeters>826.20001220703125</AltitudeMeters>
            <DistanceMeters>NAN</DistanceMeters>
          </Trackpoint>
          <Trackpoint>
            <Time>2022-09-19T09:17:30.000Z</Time>
            <Position>
              <LatitudeDegrees>49.29688744246959686279296875</LatitudeDegrees>
              <LongitudeDegrees>19.94841297157108783721923828125</LongitudeDegrees>
            </Position>
            <AltitudeMeters>826.20001220703125</AltitudeMeters>
            <DistanceMeters>NAN</DistanceMeters>
          </Trackpoint>
          <Trackpoint>
            <Time>2022-09-19T09:17:33.000Z</Time>
            <Position>
              <LatitudeDegrees>49.29681896232068538665771484375</LatitudeDegrees>
              <LongitudeDegrees>19.9483399651944637298583984375</LongitudeDegrees>
            </Position>
            <AltitudeMeters>826.4000244140625</AltitudeMeters>
            <DistanceMeters>NAN</DistanceMeters>
          </Trackpoint>
          <Trackpoint>
            <Time>2022-09-19T09:17:36.000Z</Time>
            <Position>
              <LatitudeDegrees>49.2967759631574153900146484375</LatitudeDegrees>
              <LongitudeDegrees>19.948262684047222137451171875</LongitudeDegrees>
            </Position>
            <AltitudeMeters>826.79998779296875</AltitudeMeters>
            <DistanceMeters>NAN</DistanceMeters>
          </Trackpoint>
          <Trackpoint>
            <Time>2022-09-19T09:17:39.000Z</Time>
            <Position>
              <LatitudeDegrees>49.29676112718880176544189453125</LatitudeDegrees>
              <LongitudeDegrees>19.94820962660014629364013671875</LongitudeDegrees>
            </Position>
            <AltitudeMeters>827</AltitudeMeters>
            <DistanceMeters>NAN</DistanceMeters>
          </Trackpoint>
          <Trackpoint>
            <Time>2022-09-19T09:17:40.000Z</Time>
            <Position>
              <LatitudeDegrees>49.29676179774105548858642578125</LatitudeDegrees>
              <LongitudeDegrees>19.94820392690598964691162109375</LongitudeDegrees>
            </Position>
            <AltitudeMeters>827</AltitudeMeters>
            <DistanceMeters>NAN</DistanceMeters>
          </Trackpoint>
          <Trackpoint>
            <Time>2022-09-19T09:17:48.000Z</Time>
            <Position>
              <LatitudeDegrees>49.29676179774105548858642578125</LatitudeDegrees>
              <LongitudeDegrees>19.94820392690598964691162109375</LongitudeDegrees>
            </Position>
            <AltitudeMeters>827.20001220703125</AltitudeMeters>
            <DistanceMeters>NAN</DistanceMeters>
          </Trackpoint>
          <Trackpoint>
            <Time>2022-09-19T09:17:58.000Z</Time>
            <Position>
              <LatitudeDegrees>49.29676179774105548858642578125</LatitudeDegrees>
              <LongitudeDegrees>19.94820392690598964691162109375</LongitudeDegrees>
            </Position>
            <AltitudeMeters>827.20001220703125</AltitudeMeters>
            <DistanceMeters>NAN</DistanceMeters>
          </Trackpoint>
          <Trackpoint>
            <Time>2022-09-19T09:18:02.000Z</Time>
            <Position>
              <LatitudeDegrees>49.29676179774105548858642578125</LatitudeDegrees>
              <LongitudeDegrees>19.94820392690598964691162109375</LongitudeDegrees>
            </Position>
            <AltitudeMeters>827.20001220703125</AltitudeMeters>
            <DistanceMeters>NAN</DistanceMeters>
          </Trackpoint>
          <Trackpoint>
            <Time>2022-09-19T09:18:09.000Z</Time>
            <Position>
              <LatitudeDegrees>49.29676179774105548858642578125</LatitudeDegrees>
              <LongitudeDegrees>19.94820392690598964691162109375</LongitudeDegrees>
            </Position>
            <AltitudeMeters>827.20001220703125</AltitudeMeters>
            <DistanceMeters>NAN</DistanceMeters>
          </Trackpoint>
          <Trackpoint>
            <Time>2022-09-19T09:18:15.000Z</Time>
            <Position>
              <LatitudeDegrees>49.29676179774105548858642578125</LatitudeDegrees>
              <LongitudeDegrees>19.94820392690598964691162109375</LongitudeDegrees>
            </Position>
            <AltitudeMeters>827.20001220703125</AltitudeMeters>
            <DistanceMeters>NAN</DistanceMeters>
          </Trackpoint>
          <Trackpoint>
            <Time>2022-09-19T09:18:20.000Z</Time>
            <Position>
              <LatitudeDegrees>49.29676179774105548858642578125</LatitudeDegrees>
              <LongitudeDegrees>19.94820392690598964691162109375</LongitudeDegrees>
            </Position>
            <AltitudeMeters>827.20001220703125</AltitudeMeters>
            <DistanceMeters>NAN</DistanceMeters>
          </Trackpoint>
          <Trackpoint>
            <Time>2022-09-19T09:18:28.000Z</Time>
            <Position>
              <LatitudeDegrees>49.29676179774105548858642578125</LatitudeDegrees>
              <LongitudeDegrees>19.94820392690598964691162109375</LongitudeDegrees>
            </Position>
            <AltitudeMeters>827.20001220703125</AltitudeMeters>
            <DistanceMeters>NAN</DistanceMeters>
          </Trackpoint>
          <Trackpoint>
            <Time>2022-09-19T09:18:39.000Z</Time>
            <Position>
              <LatitudeDegrees>49.29676179774105548858642578125</LatitudeDegrees>
              <LongitudeDegrees>19.94820392690598964691162109375</LongitudeDegrees>
            </Position>
            <AltitudeMeters>827.20001220703125</AltitudeMeters>
            <DistanceMeters>NAN</DistanceMeters>
          </Trackpoint>
          <Trackpoint>
            <Time>2022-09-19T09:18:41.000Z</Time>
            <Position>
              <LatitudeDegrees>49.29676179774105548858642578125</LatitudeDegrees>
              <LongitudeDegrees>19.94820392690598964691162109375</LongitudeDegrees>
            </Position>
            <AltitudeMeters>827.20001220703125</AltitudeMeters>
            <DistanceMeters>NAN</DistanceMeters>
          </Trackpoint>
          <Trackpoint>
            <Time>2022-09-19T09:18:57.000Z</Time>
            <Position>
              <LatitudeDegrees>49.2967595346271991729736328125</LatitudeDegrees>
              <LongitudeDegrees>19.94820157997310161590576171875</LongitudeDegrees>
            </Position>
            <AltitudeMeters>827.20001220703125</AltitudeMeters>
            <DistanceMeters>NAN</DistanceMeters>
          </Trackpoint>
          <Trackpoint>
            <Time>2022-09-19T09:19:00.000Z</Time>
            <Position>
              <LatitudeDegrees>49.2967276833951473236083984375</LatitudeDegrees>
              <LongitudeDegrees>19.94814156554639339447021484375</LongitudeDegrees>
            </Position>
            <AltitudeMeters>827.20001220703125</AltitudeMeters>
            <DistanceMeters>NAN</DistanceMeters>
          </Trackpoint>
          <Trackpoint>
            <Time>2022-09-19T09:19:01.000Z</Time>
            <Position>
              <LatitudeDegrees>49.2967136017978191375732421875</LatitudeDegrees>
              <LongitudeDegrees>19.94811172597110271453857421875</LongitudeDegrees>
            </Position>
            <AltitudeMeters>827.20001220703125</AltitudeMeters>
            <DistanceMeters>NAN</DistanceMeters>
          </Trackpoint>
          <Trackpoint>
            <Time>2022-09-19T09:19:03.000Z</Time>
            <Position>
              <LatitudeDegrees>49.2966882884502410888671875</LatitudeDegrees>
              <LongitudeDegrees>19.94803947396576404571533203125</LongitudeDegrees>
            </Position>
            <AltitudeMeters>827.20001220703125</AltitudeMeters>
            <DistanceMeters>NAN</DistanceMeters>
          </Trackpoint>
          <Trackpoint>
            <Time>2022-09-19T09:19:07.000Z</Time>
            <Position>
              <LatitudeDegrees>49.2966361530125141143798828125</LatitudeDegrees>
              <LongitudeDegrees>19.94793050922453403472900390625</LongitudeDegrees>
            </Position>
            <AltitudeMeters>827.4000244140625</AltitudeMeters>
            <DistanceMeters>NAN</DistanceMeters>
          </Trackpoint>
          <Trackpoint>
            <Time>2022-09-19T09:19:08.000Z</Time>
            <Position>
              <LatitudeDegrees>49.29662953130900859832763671875</LatitudeDegrees>
              <LongitudeDegrees>19.9479191936552524566650390625</LongitudeDegrees>
            </Position>
            <AltitudeMeters>827.5999755859375</AltitudeMeters>
            <DistanceMeters>NAN</DistanceMeters>
          </Trackpoint>
          <Trackpoint>
            <Time>2022-09-19T09:19:10.000Z</Time>
            <Position>
              <LatitudeDegrees>49.2966133542358875274658203125</LatitudeDegrees>
              <LongitudeDegrees>19.94789748452603816986083984375</LongitudeDegrees>
            </Position>
            <AltitudeMeters>827.5999755859375</AltitudeMeters>
            <DistanceMeters>NAN</DistanceMeters>
          </Trackpoint>
          <Trackpoint>
            <Time>2022-09-19T09:19:11.000Z</Time>
            <Position>
              <LatitudeDegrees>49.2966002784669399261474609375</LatitudeDegrees>
              <LongitudeDegrees>19.94788474403321743011474609375</LongitudeDegrees>
            </Position>
            <AltitudeMeters>827.5999755859375</AltitudeMeters>
            <DistanceMeters>NAN</DistanceMeters>
          </Trackpoint>
          <Trackpoint>
            <Time>2022-09-19T09:19:17.000Z</Time>
            <Position>
              <LatitudeDegrees>49.29655484855175018310546875</LatitudeDegrees>
              <LongitudeDegrees>19.94782204739749431610107421875</LongitudeDegrees>
            </Position>
            <AltitudeMeters>827.5999755859375</AltitudeMeters>
            <DistanceMeters>NAN</DistanceMeters>
          </Trackpoint>
          <Trackpoint>
            <Time>2022-09-19T09:19:19.000Z</Time>
            <Position>
              <LatitudeDegrees>49.296549148857593536376953125</LatitudeDegrees>
              <LongitudeDegrees>19.94782825000584125518798828125</LongitudeDegrees>
            </Position>
            <AltitudeMeters>827.5999755859375</AltitudeMeters>
            <DistanceMeters>NAN</DistanceMeters>
          </Trackpoint>
          <Trackpoint>
            <Time>2022-09-19T09:19:22.000Z</Time>
            <Position>
              <LatitudeDegrees>49.29655577056109905242919921875</LatitudeDegrees>
              <LongitudeDegrees>19.94787300936877727508544921875</LongitudeDegrees>
            </Position>
            <AltitudeMeters>827.4000244140625</AltitudeMeters>
            <DistanceMeters>NAN</DistanceMeters>
          </Trackpoint>
          <Trackpoint>
            <Time>2022-09-19T09:19:29.000Z</Time>
            <Position>
              <LatitudeDegrees>49.29661829955875873565673828125</LatitudeDegrees>
              <LongitudeDegrees>19.9479067884385585784912109375</LongitudeDegrees>
            </Position>
            <AltitudeMeters>827.4000244140625</AltitudeMeters>
            <DistanceMeters>NAN</DistanceMeters>
          </Trackpoint>
          <Trackpoint>
            <Time>2022-09-19T09:19:30.000Z</Time>
            <Position>
              <LatitudeDegrees>49.296628944575786590576171875</LatitudeDegrees>
              <LongitudeDegrees>19.9479141645133495330810546875</LongitudeDegrees>
            </Position>
            <AltitudeMeters>827.4000244140625</AltitudeMeters>
            <DistanceMeters>NAN</DistanceMeters>
          </Trackpoint>
          <Trackpoint>
            <Time>2022-09-19T09:19:37.000Z</Time>
            <Position>
              <LatitudeDegrees>49.29667848162353038787841796875</LatitudeDegrees>
              <LongitudeDegrees>19.948032684624195098876953125</LongitudeDegrees>
            </Position>
            <AltitudeMeters>827.20001220703125</AltitudeMeters>
            <DistanceMeters>NAN</DistanceMeters>
          </Trackpoint>
          <Trackpoint>
            <Time>2022-09-19T09:19:39.000Z</Time>
            <Position>
              <LatitudeDegrees>49.29668954573571681976318359375</LatitudeDegrees>
              <LongitudeDegrees>19.94807903654873371124267578125</LongitudeDegrees>
            </Position>
            <AltitudeMeters>827</AltitudeMeters>
            <DistanceMeters>NAN</DistanceMeters>
          </Trackpoint>
          <Trackpoint>
            <Time>2022-09-19T09:19:40.000Z</Time>
            <Position>
              <LatitudeDegrees>49.2966949939727783203125</LatitudeDegrees>
              <LongitudeDegrees>19.9481022544205188751220703125</LongitudeDegrees>
            </Position>
            <AltitudeMeters>827</AltitudeMeters>
            <DistanceMeters>NAN</DistanceMeters>
          </Trackpoint>
          <Trackpoint>
            <Time>2022-09-19T09:19:43.000Z</Time>
            <Position>
              <LatitudeDegrees>49.296719469130039215087890625</LatitudeDegrees>
              <LongitudeDegrees>19.9481545574963092803955078125</LongitudeDegrees>
            </Position>
            <AltitudeMeters>826.79998779296875</AltitudeMeters>
            <DistanceMeters>NAN</DistanceMeters>
          </Trackpoint>
          <Trackpoint>
            <Time>2022-09-19T09:19:45.000Z</Time>
            <Position>
              <LatitudeDegrees>49.29675458930432796478271484375</LatitudeDegrees>
              <LongitudeDegrees>19.948171488940715789794921875</LongitudeDegrees>
            </Position>
            <AltitudeMeters>827.20001220703125</AltitudeMeters>
            <DistanceMeters>NAN</DistanceMeters>
          </Trackpoint>
          <Trackpoint>
            <Time>2022-09-19T09:19:51.000Z</Time>
            <Position>
              <LatitudeDegrees>49.29686204530298709869384765625</LatitudeDegrees>
              <LongitudeDegrees>19.948111474514007568359375</LongitudeDegrees>
            </Position>
            <AltitudeMeters>826.79998779296875</AltitudeMeters>
            <DistanceMeters>NAN</DistanceMeters>
          </Trackpoint>
          <Trackpoint>
            <Time>2022-09-19T09:19:56.000Z</Time>
            <Position>
              <LatitudeDegrees>49.296958856284618377685546875</LatitudeDegrees>
              <LongitudeDegrees>19.94808322750031948089599609375</LongitudeDegrees>
            </Position>
            <AltitudeMeters>826.4000244140625</AltitudeMeters>
            <DistanceMeters>NAN</DistanceMeters>
          </Trackpoint>
          <Trackpoint>
            <Time>2022-09-19T09:19:59.000Z</Time>
            <Position>
              <LatitudeDegrees>49.29699565283954143524169921875</LatitudeDegrees>
              <LongitudeDegrees>19.94806545786559581756591796875</LongitudeDegrees>
            </Position>
            <AltitudeMeters>826</AltitudeMeters>
            <DistanceMeters>NAN</DistanceMeters>
          </Trackpoint>
          <Trackpoint>
            <Time>2022-09-19T09:20:07.000Z</Time>
            <Position>
              <LatitudeDegrees>49.29708198644220829010009765625</LatitudeDegrees>
              <LongitudeDegrees>19.948015250265598297119140625</LongitudeDegrees>
            </Position>
            <AltitudeMeters>825.4000244140625</AltitudeMeters>
            <DistanceMeters>NAN</DistanceMeters>
          </Trackpoint>
          <Trackpoint>
            <Time>2022-09-19T09:20:10.000Z</Time>
            <Position>
              <LatitudeDegrees>49.29712322540581226348876953125</LatitudeDegrees>
              <LongitudeDegrees>19.94800879620015621185302734375</LongitudeDegrees>
            </Position>
            <AltitudeMeters>825.4000244140625</AltitudeMeters>
            <DistanceMeters>NAN</DistanceMeters>
          </Trackpoint>
          <Trackpoint>
            <Time>2022-09-19T09:20:15.000Z</Time>
            <Position>
              <LatitudeDegrees>49.297201931476593017578125</LatitudeDegrees>
              <LongitudeDegrees>19.94799236766993999481201171875</LongitudeDegrees>
            </Position>
            <AltitudeMeters>825</AltitudeMeters>
            <DistanceMeters>NAN</DistanceMeters>
          </Trackpoint>
          <Trackpoint>
            <Time>2022-09-19T09:20:23.000Z</Time>
            <Position>
              <LatitudeDegrees>49.29733579047024250030517578125</LatitudeDegrees>
              <LongitudeDegrees>19.94794844649732112884521484375</LongitudeDegrees>
            </Position>
            <AltitudeMeters>824.79998779296875</AltitudeMeters>
            <DistanceMeters>NAN</DistanceMeters>
          </Trackpoint>
          <Trackpoint>
            <Time>2022-09-19T09:20:24.000Z</Time>
            <Position>
              <LatitudeDegrees>49.29734484292566776275634765625</LatitudeDegrees>
              <LongitudeDegrees>19.94793453253805637359619140625</LongitudeDegrees>
            </Position>
            <AltitudeMeters>824.79998779296875</AltitudeMeters>
            <DistanceMeters>NAN</DistanceMeters>
          </Trackpoint>
          <Trackpoint>
            <Time>2022-09-19T09:20:27.000Z</Time>
            <Position>
              <LatitudeDegrees>49.29735506884753704071044921875</LatitudeDegrees>
              <LongitudeDegrees>19.94787066243588924407958984375</LongitudeDegrees>
            </Position>
            <AltitudeMeters>825</AltitudeMeters>
            <DistanceMeters>NAN</DistanceMeters>
          </Trackpoint>
          <Trackpoint>
            <Time>2022-09-19T09:20:28.000Z</Time>
            <Position>
              <LatitudeDegrees>49.2973626963794231414794921875</LatitudeDegrees>
              <LongitudeDegrees>19.94783914647996425628662109375</LongitudeDegrees>
            </Position>
            <AltitudeMeters>825</AltitudeMeters>
            <DistanceMeters>NAN</DistanceMeters>
          </Trackpoint>
          <Trackpoint>
            <Time>2022-09-19T09:20:29.000Z</Time>
            <Position>
              <LatitudeDegrees>49.297376610338687896728515625</LatitudeDegrees>
              <LongitudeDegrees>19.9478231370449066162109375</LongitudeDegrees>
            </Position>
            <AltitudeMeters>825</AltitudeMeters>
            <DistanceMeters>NAN</DistanceMeters>
          </Trackpoint>
          <Trackpoint>
            <Time>2022-09-19T09:20:32.000Z</Time>
            <Position>
              <LatitudeDegrees>49.2974233813583850860595703125</LatitudeDegrees>
              <LongitudeDegrees>19.94777745567262172698974609375</LongitudeDegrees>
            </Position>
            <AltitudeMeters>825</AltitudeMeters>
            <DistanceMeters>NAN</DistanceMeters>
          </Trackpoint>
          <Trackpoint>
            <Time>2022-09-19T09:20:38.000Z</Time>
            <Position>
              <LatitudeDegrees>49.2975102178752422332763671875</LatitudeDegrees>
              <LongitudeDegrees>19.947633706033229827880859375</LongitudeDegrees>
            </Position>
            <AltitudeMeters>824.5999755859375</AltitudeMeters>
            <DistanceMeters>NAN</DistanceMeters>
          </Trackpoint>
          <Trackpoint>
            <Time>2022-09-19T09:20:44.000Z</Time>
            <Position>
              <LatitudeDegrees>49.2975390516221523284912109375</LatitudeDegrees>
              <LongitudeDegrees>19.9475601129233837127685546875</LongitudeDegrees>
            </Position>
            <AltitudeMeters>824.5999755859375</AltitudeMeters>
            <DistanceMeters>NAN</DistanceMeters>
          </Trackpoint>
          <Trackpoint>
            <Time>2022-09-19T09:20:46.000Z</Time>
            <Position>
              <LatitudeDegrees>49.2975407280027866363525390625</LatitudeDegrees>
              <LongitudeDegrees>19.94751962833106517791748046875</LongitudeDegrees>
            </Position>
            <AltitudeMeters>824.4000244140625</AltitudeMeters>
            <DistanceMeters>NAN</DistanceMeters>
          </Trackpoint>
          <Trackpoint>
            <Time>2022-09-19T09:20:49.000Z</Time>
            <Position>
              <LatitudeDegrees>49.29756411351263523101806640625</LatitudeDegrees>
              <LongitudeDegrees>19.94748442433774471282958984375</LongitudeDegrees>
            </Position>
            <AltitudeMeters>824.4000244140625</AltitudeMeters>
            <DistanceMeters>NAN</DistanceMeters>
          </Trackpoint>
          <Trackpoint>
            <Time>2022-09-19T09:20:52.000Z</Time>
            <Position>
              <LatitudeDegrees>49.29758909158408641815185546875</LatitudeDegrees>
              <LongitudeDegrees>19.9474112503230571746826171875</LongitudeDegrees>
            </Position>
            <AltitudeMeters>824.4000244140625</AltitudeMeters>
            <DistanceMeters>NAN</DistanceMeters>
          </Trackpoint>
          <Trackpoint>
            <Time>2022-09-19T09:20:53.000Z</Time>
            <Position>
              <LatitudeDegrees>49.2975950427353382110595703125</LatitudeDegrees>
              <LongitudeDegrees>19.94738685898482799530029296875</LongitudeDegrees>
            </Position>
            <AltitudeMeters>824.4000244140625</AltitudeMeters>
            <DistanceMeters>NAN</DistanceMeters>
          </Trackpoint>
          <Trackpoint>
            <Time>2022-09-19T09:20:55.000Z</Time>
            <Position>
              <LatitudeDegrees>49.29760032333433628082275390625</LatitudeDegrees>
              <LongitudeDegrees>19.9473430216312408447265625</LongitudeDegrees>
            </Position>
            <AltitudeMeters>824.20001220703125</AltitudeMeters>
            <DistanceMeters>NAN</DistanceMeters>
          </Trackpoint>
          <Trackpoint>
            <Time>2022-09-19T09:20:58.000Z</Time>
            <Position>
              <LatitudeDegrees>49.29761432111263275146484375</LatitudeDegrees>
              <LongitudeDegrees>19.9473213963210582733154296875</LongitudeDegrees>
            </Position>
            <AltitudeMeters>824.20001220703125</AltitudeMeters>
            <DistanceMeters>NAN</DistanceMeters>
          </Trackpoint>
          <Trackpoint>
            <Time>2022-09-19T09:21:01.000Z</Time>
            <Position>
              <LatitudeDegrees>49.297614991664886474609375</LatitudeDegrees>
              <LongitudeDegrees>19.9473177082836627960205078125</LongitudeDegrees>
            </Position>
            <AltitudeMeters>824.20001220703125</AltitudeMeters>
            <DistanceMeters>NAN</DistanceMeters>
          </Trackpoint>
          <Trackpoint>
            <Time>2022-09-19T09:21:08.000Z</Time>
            <Position>
              <LatitudeDegrees>49.29763569496572017669677734375</LatitudeDegrees>
              <LongitudeDegrees>19.9472786486148834228515625</LongitudeDegrees>
            </Position>
            <AltitudeMeters>824</AltitudeMeters>
            <DistanceMeters>NAN</DistanceMeters>
          </Trackpoint>
          <Trackpoint>
            <Time>2022-09-19T09:21:11.000Z</Time>
            <Position>
              <LatitudeDegrees>49.2976517044007778167724609375</LatitudeDegrees>
              <LongitudeDegrees>19.947262220084667205810546875</LongitudeDegrees>
            </Position>
            <AltitudeMeters>824</AltitudeMeters>
            <DistanceMeters>NAN</DistanceMeters>
          </Trackpoint>
          <Trackpoint>
            <Time>2022-09-19T09:21:14.000Z</Time>
            <Position>
              <LatitudeDegrees>49.29765664972364902496337890625</LatitudeDegrees>
              <LongitudeDegrees>19.94726230390369892120361328125</LongitudeDegrees>
            </Position>
            <AltitudeMeters>824</AltitudeMeters>
            <DistanceMeters>NAN</DistanceMeters>
          </Trackpoint>
          <Trackpoint>
            <Time>2022-09-19T09:21:27.000Z</Time>
            <Position>
              <LatitudeDegrees>49.29766260087490081787109375</LatitudeDegrees>
              <LongitudeDegrees>19.947253167629241943359375</LongitudeDegrees>
            </Position>
            <AltitudeMeters>823.5999755859375</AltitudeMeters>
            <DistanceMeters>NAN</DistanceMeters>
          </Trackpoint>
          <Trackpoint>
            <Time>2022-09-19T09:21:30.000Z</Time>
            <Position>
              <LatitudeDegrees>49.29771264083683490753173828125</LatitudeDegrees>
              <LongitudeDegrees>19.9471323005855083465576171875</LongitudeDegrees>
            </Position>
            <AltitudeMeters>823.79998779296875</AltitudeMeters>
            <DistanceMeters>NAN</DistanceMeters>
          </Trackpoint>
          <Trackpoint>
            <Time>2022-09-19T09:21:37.000Z</Time>
            <Position>
              <LatitudeDegrees>49.2978263832628726959228515625</LatitudeDegrees>
              <LongitudeDegrees>19.946843124926090240478515625</LongitudeDegrees>
            </Position>
            <AltitudeMeters>823.5999755859375</AltitudeMeters>
            <DistanceMeters>NAN</DistanceMeters>
          </Trackpoint>
          <Trackpoint>
            <Time>2022-09-19T09:21:40.000Z</Time>
            <Position>
              <LatitudeDegrees>49.29786904715001583099365234375</LatitudeDegrees>
              <LongitudeDegrees>19.946730136871337890625</LongitudeDegrees>
            </Position>
            <AltitudeMeters>823.79998779296875</AltitudeMeters>
            <DistanceMeters>NAN</DistanceMeters>
          </Trackpoint>
          <Trackpoint>
            <Time>2022-09-19T09:21:43.000Z</Time>
            <Position>
              <LatitudeDegrees>49.29790995083749294281005859375</LatitudeDegrees>
              <LongitudeDegrees>19.94664539583027362823486328125</LongitudeDegrees>
            </Position>
            <AltitudeMeters>824.20001220703125</AltitudeMeters>
            <DistanceMeters>NAN</DistanceMeters>
          </Trackpoint>
          <Trackpoint>
            <Time>2022-09-19T09:21:49.000Z</Time>
            <Position>
              <LatitudeDegrees>49.2980107851326465606689453125</LatitudeDegrees>
              <LongitudeDegrees>19.94646585546433925628662109375</LongitudeDegrees>
            </Position>
            <AltitudeMeters>824.5999755859375</AltitudeMeters>
            <DistanceMeters>NAN</DistanceMeters>
          </Trackpoint>
          <Trackpoint>
            <Time>2022-09-19T09:21:54.000Z</Time>
            <Position>
              <LatitudeDegrees>49.298098795115947723388671875</LatitudeDegrees>
              <LongitudeDegrees>19.94626678526401519775390625</LongitudeDegrees>
            </Position>
            <AltitudeMeters>825.20001220703125</AltitudeMeters>
            <DistanceMeters>NAN</DistanceMeters>
          </Trackpoint>
          <Trackpoint>
            <Time>2022-09-19T09:21:55.000Z</Time>
            <Position>
              <LatitudeDegrees>49.29810223169624805450439453125</LatitudeDegrees>
              <LongitudeDegrees>19.946234263479709625244140625</LongitudeDegrees>
            </Position>
            <AltitudeMeters>825.4000244140625</AltitudeMeters>
            <DistanceMeters>NAN</DistanceMeters>
          </Trackpoint>
          <Trackpoint>
            <Time>2022-09-19T09:22:01.000Z</Time>
            <Position>
              <LatitudeDegrees>49.2981608211994171142578125</LatitudeDegrees>
              <LongitudeDegrees>19.946102835237979888916015625</LongitudeDegrees>
            </Position>
            <AltitudeMeters>826</AltitudeMeters>
            <DistanceMeters>NAN</DistanceMeters>
          </Trackpoint>
          <Trackpoint>
            <Time>2022-09-19T09:22:02.000Z</Time>
            <Position>
              <LatitudeDegrees>49.29816551506519317626953125</LatitudeDegrees>
              <LongitudeDegrees>19.94608934037387371063232421875</LongitudeDegrees>
            </Position>
            <AltitudeMeters>826</AltitudeMeters>
            <DistanceMeters>NAN</DistanceMeters>
          </Trackpoint>
          <Trackpoint>
            <Time>2022-09-19T09:22:07.000Z</Time>
            <Position>
              <LatitudeDegrees>49.29819376207888126373291015625</LatitudeDegrees>
              <LongitudeDegrees>19.94597584940493106842041015625</LongitudeDegrees>
            </Position>
            <AltitudeMeters>826.4000244140625</AltitudeMeters>
            <DistanceMeters>NAN</DistanceMeters>
          </Trackpoint>
          <Trackpoint>
            <Time>2022-09-19T09:22:08.000Z</Time>
            <Position>
              <LatitudeDegrees>49.2981988750398159027099609375</LatitudeDegrees>
              <LongitudeDegrees>19.945959337055683135986328125</LongitudeDegrees>
            </Position>
            <AltitudeMeters>826.4000244140625</AltitudeMeters>
            <DistanceMeters>NAN</DistanceMeters>
          </Trackpoint>
          <Trackpoint>
            <Time>2022-09-19T09:22:13.000Z</Time>
            <Position>
              <LatitudeDegrees>49.29822779260575771331787109375</LatitudeDegrees>
              <LongitudeDegrees>19.94589923880994319915771484375</LongitudeDegrees>
            </Position>
            <AltitudeMeters>826.5999755859375</AltitudeMeters>
            <DistanceMeters>NAN</DistanceMeters>
          </Trackpoint>
          <Trackpoint>
            <Time>2022-09-19T09:22:17.000Z</Time>
            <Position>
              <LatitudeDegrees>49.2982267029583454132080078125</LatitudeDegrees>
              <LongitudeDegrees>19.945894293487071990966796875</LongitudeDegrees>
            </Position>
            <AltitudeMeters>826.5999755859375</AltitudeMeters>
            <DistanceMeters>NAN</DistanceMeters>
          </Trackpoint>
          <Trackpoint>
            <Time>2022-09-19T09:22:18.000Z</Time>
            <Position>
              <LatitudeDegrees>49.2982267029583454132080078125</LatitudeDegrees>
              <LongitudeDegrees>19.945894293487071990966796875</LongitudeDegrees>
            </Position>
            <AltitudeMeters>826.5999755859375</AltitudeMeters>
            <DistanceMeters>NAN</DistanceMeters>
          </Trackpoint>
          <Trackpoint>
            <Time>2022-09-19T09:22:24.000Z</Time>
            <Position>
              <LatitudeDegrees>49.29825645871460437774658203125</LatitudeDegrees>
              <LongitudeDegrees>19.9458260647952556610107421875</LongitudeDegrees>
            </Position>
            <AltitudeMeters>826.79998779296875</AltitudeMeters>
            <DistanceMeters>NAN</DistanceMeters>
          </Trackpoint>
          <Trackpoint>
            <Time>2022-09-19T09:22:31.000Z</Time>
            <Position>
              <LatitudeDegrees>49.29827548563480377197265625</LatitudeDegrees>
              <LongitudeDegrees>19.9457804672420024871826171875</LongitudeDegrees>
            </Position>
            <AltitudeMeters>827.4000244140625</AltitudeMeters>
            <DistanceMeters>NAN</DistanceMeters>
          </Trackpoint>
          <Trackpoint>
            <Time>2022-09-19T09:22:32.000Z</Time>
            <Position>
              <LatitudeDegrees>49.29828076623380184173583984375</LatitudeDegrees>
              <LongitudeDegrees>19.94576864875853061676025390625</LongitudeDegrees>
            </Position>
            <AltitudeMeters>827.4000244140625</AltitudeMeters>
            <DistanceMeters>NAN</DistanceMeters>
          </Trackpoint>
          <Trackpoint>
            <Time>2022-09-19T09:22:38.000Z</Time>
            <Position>
              <LatitudeDegrees>49.29829652421176433563232421875</LatitudeDegrees>
              <LongitudeDegrees>19.94570762850344181060791015625</LongitudeDegrees>
            </Position>
            <AltitudeMeters>827.4000244140625</AltitudeMeters>
            <DistanceMeters>NAN</DistanceMeters>
          </Trackpoint>
          <Trackpoint>
            <Time>2022-09-19T09:22:42.000Z</Time>
            <Position>
              <LatitudeDegrees>49.2983262799680233001708984375</LatitudeDegrees>
              <LongitudeDegrees>19.94566655717790126800537109375</LongitudeDegrees>
            </Position>
            <AltitudeMeters>827.4000244140625</AltitudeMeters>
            <DistanceMeters>NAN</DistanceMeters>
          </Trackpoint>
          <Trackpoint>
            <Time>2022-09-19T09:22:43.000Z</Time>
            <Position>
              <LatitudeDegrees>49.2983380146324634552001953125</LatitudeDegrees>
              <LongitudeDegrees>19.945656917989253997802734375</LongitudeDegrees>
            </Position>
            <AltitudeMeters>827.5999755859375</AltitudeMeters>
            <DistanceMeters>NAN</DistanceMeters>
          </Trackpoint>
          <Trackpoint>
            <Time>2022-09-19T09:22:46.000Z</Time>
            <Position>
              <LatitudeDegrees>49.29835989139974117279052734375</LatitudeDegrees>
              <LongitudeDegrees>19.945647530257701873779296875</LongitudeDegrees>
            </Position>
            <AltitudeMeters>827.79998779296875</AltitudeMeters>
            <DistanceMeters>NAN</DistanceMeters>
          </Trackpoint>
          <Trackpoint>
            <Time>2022-09-19T09:22:51.000Z</Time>
            <Position>
              <LatitudeDegrees>49.29839207790791988372802734375</LatitudeDegrees>
              <LongitudeDegrees>19.94564459659159183502197265625</LongitudeDegrees>
            </Position>
            <AltitudeMeters>827.79998779296875</AltitudeMeters>
            <DistanceMeters>NAN</DistanceMeters>
          </Trackpoint>
          <Trackpoint>
            <Time>2022-09-19T09:22:58.000Z</Time>
            <Position>
              <LatitudeDegrees>49.298458881676197052001953125</LatitudeDegrees>
              <LongitudeDegrees>19.94563604705035686492919921875</LongitudeDegrees>
            </Position>
            <AltitudeMeters>827.79998779296875</AltitudeMeters>
            <DistanceMeters>NAN</DistanceMeters>
          </Trackpoint>
          <Trackpoint>
            <Time>2022-09-19T09:23:02.000Z</Time>
            <Position>
              <LatitudeDegrees>49.29849551059305667877197265625</LatitudeDegrees>
              <LongitudeDegrees>19.94561794213950634002685546875</LongitudeDegrees>
            </Position>
            <AltitudeMeters>827.79998779296875</AltitudeMeters>
            <DistanceMeters>NAN</DistanceMeters>
          </Trackpoint>
          <Trackpoint>
            <Time>2022-09-19T09:23:05.000Z</Time>
            <Position>
              <LatitudeDegrees>49.29850213229656219482421875</LatitudeDegrees>
              <LongitudeDegrees>19.94562515057623386383056640625</LongitudeDegrees>
            </Position>
            <AltitudeMeters>828</AltitudeMeters>
            <DistanceMeters>NAN</DistanceMeters>
          </Trackpoint>
          <Trackpoint>
            <Time>2022-09-19T09:23:06.000Z</Time>
            <Position>
              <LatitudeDegrees>49.29850213229656219482421875</LatitudeDegrees>
              <LongitudeDegrees>19.94562515057623386383056640625</LongitudeDegrees>
            </Position>
            <AltitudeMeters>828</AltitudeMeters>
            <DistanceMeters>NAN</DistanceMeters>
          </Trackpoint>
          <Trackpoint>
            <Time>2022-09-19T09:23:08.000Z</Time>
            <Position>
              <LatitudeDegrees>49.29850213229656219482421875</LatitudeDegrees>
              <LongitudeDegrees>19.94562515057623386383056640625</LongitudeDegrees>
            </Position>
            <AltitudeMeters>828</AltitudeMeters>
            <DistanceMeters>NAN</DistanceMeters>
          </Trackpoint>
          <Trackpoint>
            <Time>2022-09-19T09:23:14.000Z</Time>
            <Position>
              <LatitudeDegrees>49.29850975982844829559326171875</LatitudeDegrees>
              <LongitudeDegrees>19.94561643339693546295166015625</LongitudeDegrees>
            </Position>
            <AltitudeMeters>828</AltitudeMeters>
            <DistanceMeters>NAN</DistanceMeters>
          </Trackpoint>
          <Trackpoint>
            <Time>2022-09-19T09:23:27.000Z</Time>
            <Position>
              <LatitudeDegrees>49.2985095083713531494140625</LatitudeDegrees>
              <LongitudeDegrees>19.9456183612346649169921875</LongitudeDegrees>
            </Position>
            <AltitudeMeters>828</AltitudeMeters>
            <DistanceMeters>NAN</DistanceMeters>
          </Trackpoint>
          <Trackpoint>
            <Time>2022-09-19T09:23:30.000Z</Time>
            <Position>
              <LatitudeDegrees>49.29850791580975055694580078125</LatitudeDegrees>
              <LongitudeDegrees>19.9456215463578701019287109375</LongitudeDegrees>
            </Position>
            <AltitudeMeters>828.5999755859375</AltitudeMeters>
            <DistanceMeters>NAN</DistanceMeters>
          </Trackpoint>
          <Trackpoint>
            <Time>2022-09-19T09:23:32.000Z</Time>
            <Position>
              <LatitudeDegrees>49.29850121028721332550048828125</LatitudeDegrees>
              <LongitudeDegrees>19.94562850333750247955322265625</LongitudeDegrees>
            </Position>
            <AltitudeMeters>828.5999755859375</AltitudeMeters>
            <DistanceMeters>NAN</DistanceMeters>
          </Trackpoint>
          <Trackpoint>
            <Time>2022-09-19T09:23:38.000Z</Time>
            <Position>
              <LatitudeDegrees>49.29849752224981784820556640625</LatitudeDegrees>
              <LongitudeDegrees>19.945634789764881134033203125</LongitudeDegrees>
            </Position>
            <AltitudeMeters>828.79998779296875</AltitudeMeters>
            <DistanceMeters>NAN</DistanceMeters>
          </Trackpoint>
          <Trackpoint>
            <Time>2022-09-19T09:23:42.000Z</Time>
            <Position>
              <LatitudeDegrees>49.29849752224981784820556640625</LatitudeDegrees>
              <LongitudeDegrees>19.945634789764881134033203125</LongitudeDegrees>
            </Position>
            <AltitudeMeters>828.79998779296875</AltitudeMeters>
            <DistanceMeters>NAN</DistanceMeters>
          </Trackpoint>
          <Trackpoint>
            <Time>2022-09-19T09:23:48.000Z</Time>
            <Position>
              <LatitudeDegrees>49.2984952591359615325927734375</LatitudeDegrees>
              <LongitudeDegrees>19.94564124383032321929931640625</LongitudeDegrees>
            </Position>
            <AltitudeMeters>829</AltitudeMeters>
            <DistanceMeters>NAN</DistanceMeters>
          </Trackpoint>
          <Trackpoint>
            <Time>2022-09-19T09:23:51.000Z</Time>
            <Position>
              <LatitudeDegrees>49.29849400185048580169677734375</LatitudeDegrees>
              <LongitudeDegrees>19.94564442895352840423583984375</LongitudeDegrees>
            </Position>
            <AltitudeMeters>829</AltitudeMeters>
            <DistanceMeters>NAN</DistanceMeters>
          </Trackpoint>
          <Trackpoint>
            <Time>2022-09-19T09:23:54.000Z</Time>
            <Position>
              <LatitudeDegrees>49.29849752224981784820556640625</LatitudeDegrees>
              <LongitudeDegrees>19.9456440098583698272705078125</LongitudeDegrees>
            </Position>
            <AltitudeMeters>829</AltitudeMeters>
            <DistanceMeters>NAN</DistanceMeters>
          </Trackpoint>
          <Trackpoint>
            <Time>2022-09-19T09:24:01.000Z</Time>
            <Position>
              <LatitudeDegrees>49.2984934151172637939453125</LatitudeDegrees>
              <LongitudeDegrees>19.9456478655338287353515625</LongitudeDegrees>
            </Position>
            <AltitudeMeters>829</AltitudeMeters>
            <DistanceMeters>NAN</DistanceMeters>
          </Trackpoint>
          <Trackpoint>
            <Time>2022-09-19T09:24:13.000Z</Time>
            <Position>
              <LatitudeDegrees>49.2984738014638423919677734375</LatitudeDegrees>
              <LongitudeDegrees>19.945677034556865692138671875</LongitudeDegrees>
            </Position>
            <AltitudeMeters>828.79998779296875</AltitudeMeters>
            <DistanceMeters>NAN</DistanceMeters>
          </Trackpoint>
          <Trackpoint>
            <Time>2022-09-19T09:24:15.000Z</Time>
            <Position>
              <LatitudeDegrees>49.2984738014638423919677734375</LatitudeDegrees>
              <LongitudeDegrees>19.945677034556865692138671875</LongitudeDegrees>
            </Position>
            <AltitudeMeters>828.79998779296875</AltitudeMeters>
            <DistanceMeters>NAN</DistanceMeters>
          </Trackpoint>
          <Trackpoint>
            <Time>2022-09-19T09:24:22.000Z</Time>
            <Position>
              <LatitudeDegrees>49.2984466440975666046142578125</LatitudeDegrees>
              <LongitudeDegrees>19.94569790549576282501220703125</LongitudeDegrees>
            </Position>
            <AltitudeMeters>828.79998779296875</AltitudeMeters>
            <DistanceMeters>NAN</DistanceMeters>
          </Trackpoint>
          <Trackpoint>
            <Time>2022-09-19T09:24:29.000Z</Time>
            <Position>
              <LatitudeDegrees>49.29841638542711734771728515625</LatitudeDegrees>
              <LongitudeDegrees>19.94578574784100055694580078125</LongitudeDegrees>
            </Position>
            <AltitudeMeters>828.4000244140625</AltitudeMeters>
            <DistanceMeters>NAN</DistanceMeters>
          </Trackpoint>
          <Trackpoint>
            <Time>2022-09-19T09:24:31.000Z</Time>
            <Position>
              <LatitudeDegrees>49.29841638542711734771728515625</LatitudeDegrees>
              <LongitudeDegrees>19.94578574784100055694580078125</LongitudeDegrees>
            </Position>
            <AltitudeMeters>828.4000244140625</AltitudeMeters>
            <DistanceMeters>NAN</DistanceMeters>
          </Trackpoint>
          <Trackpoint>
            <Time>2022-09-19T09:24:33.000Z</Time>
            <Position>
              <LatitudeDegrees>49.2984097637236118316650390625</LatitudeDegrees>
              <LongitudeDegrees>19.94579480029642581939697265625</LongitudeDegrees>
            </Position>
            <AltitudeMeters>828.4000244140625</AltitudeMeters>
            <DistanceMeters>NAN</DistanceMeters>
          </Trackpoint>
          <Trackpoint>
            <Time>2022-09-19T09:24:38.000Z</Time>
            <Position>
              <LatitudeDegrees>49.2984097637236118316650390625</LatitudeDegrees>
              <LongitudeDegrees>19.94579480029642581939697265625</LongitudeDegrees>
            </Position>
            <AltitudeMeters>828.4000244140625</AltitudeMeters>
            <DistanceMeters>NAN</DistanceMeters>
          </Trackpoint>
          <Trackpoint>
            <Time>2022-09-19T09:24:44.000Z</Time>
            <Position>
              <LatitudeDegrees>49.29841898381710052490234375</LatitudeDegrees>
              <LongitudeDegrees>19.945804774761199951171875</LongitudeDegrees>
            </Position>
            <AltitudeMeters>828.4000244140625</AltitudeMeters>
            <DistanceMeters>NAN</DistanceMeters>
          </Trackpoint>
          <Trackpoint>
            <Time>2022-09-19T09:24:45.000Z</Time>
            <Position>
              <LatitudeDegrees>49.29847271181643009185791015625</LatitudeDegrees>
              <LongitudeDegrees>19.9457538127899169921875</LongitudeDegrees>
            </Position>
            <AltitudeMeters>828.4000244140625</AltitudeMeters>
            <DistanceMeters>NAN</DistanceMeters>
          </Trackpoint>
          <Trackpoint>
            <Time>2022-09-19T09:24:46.000Z</Time>
            <Position>
              <LatitudeDegrees>49.298538677394390106201171875</LatitudeDegrees>
              <LongitudeDegrees>19.9457068741321563720703125</LongitudeDegrees>
            </Position>
            <AltitudeMeters>828.4000244140625</AltitudeMeters>
            <DistanceMeters>NAN</DistanceMeters>
          </Trackpoint>
          <Trackpoint>
            <Time>2022-09-19T09:24:51.000Z</Time>
            <Position>
              <LatitudeDegrees>49.2984744720160961151123046875</LatitudeDegrees>
              <LongitudeDegrees>19.9457445926964282989501953125</LongitudeDegrees>
            </Position>
            <AltitudeMeters>828.4000244140625</AltitudeMeters>
            <DistanceMeters>NAN</DistanceMeters>
          </Trackpoint>
          <Trackpoint>
            <Time>2022-09-19T09:24:53.000Z</Time>
            <Position>
              <LatitudeDegrees>49.29847841151058673858642578125</LatitudeDegrees>
              <LongitudeDegrees>19.945742078125476837158203125</LongitudeDegrees>
            </Position>
            <AltitudeMeters>828.4000244140625</AltitudeMeters>
            <DistanceMeters>NAN</DistanceMeters>
          </Trackpoint>
          <Trackpoint>
            <Time>2022-09-19T09:24:56.000Z</Time>
            <Position>
              <LatitudeDegrees>49.298478327691555023193359375</LatitudeDegrees>
              <LongitudeDegrees>19.945742078125476837158203125</LongitudeDegrees>
            </Position>
            <AltitudeMeters>828.20001220703125</AltitudeMeters>
            <DistanceMeters>NAN</DistanceMeters>
          </Trackpoint>
          <Trackpoint>
            <Time>2022-09-19T09:24:59.000Z</Time>
            <Position>
              <LatitudeDegrees>49.29842392913997173309326171875</LatitudeDegrees>
              <LongitudeDegrees>19.94579069316387176513671875</LongitudeDegrees>
            </Position>
            <AltitudeMeters>828.20001220703125</AltitudeMeters>
            <DistanceMeters>NAN</DistanceMeters>
          </Trackpoint>
          <Trackpoint>
            <Time>2022-09-19T09:25:01.000Z</Time>
            <Position>
              <LatitudeDegrees>49.2983782477676868438720703125</LatitudeDegrees>
              <LongitudeDegrees>19.9457797966897487640380859375</LongitudeDegrees>
            </Position>
            <AltitudeMeters>828.20001220703125</AltitudeMeters>
            <DistanceMeters>NAN</DistanceMeters>
          </Trackpoint>
          <Trackpoint>
            <Time>2022-09-19T09:25:03.000Z</Time>
            <Position>
              <LatitudeDegrees>49.29835352115333080291748046875</LatitudeDegrees>
              <LongitudeDegrees>19.94565163739025592803955078125</LongitudeDegrees>
            </Position>
            <AltitudeMeters>828.20001220703125</AltitudeMeters>
            <DistanceMeters>NAN</DistanceMeters>
          </Trackpoint>
          <Trackpoint>
            <Time>2022-09-19T09:25:04.000Z</Time>
            <Position>
              <LatitudeDegrees>49.29833876900374889373779296875</LatitudeDegrees>
              <LongitudeDegrees>19.945681728422641754150390625</LongitudeDegrees>
            </Position>
            <AltitudeMeters>828.20001220703125</AltitudeMeters>
            <DistanceMeters>NAN</DistanceMeters>
          </Trackpoint>
          <Trackpoint>
            <Time>2022-09-19T09:25:09.000Z</Time>
            <Position>
              <LatitudeDegrees>49.298548065125942230224609375</LatitudeDegrees>
              <LongitudeDegrees>19.94530119001865386962890625</LongitudeDegrees>
            </Position>
            <AltitudeMeters>828</AltitudeMeters>
            <DistanceMeters>NAN</DistanceMeters>
          </Trackpoint>
          <Trackpoint>
            <Time>2022-09-19T09:25:17.000Z</Time>
            <Position>
              <LatitudeDegrees>49.29851009510457515716552734375</LatitudeDegrees>
              <LongitudeDegrees>19.9455628730356693267822265625</LongitudeDegrees>
            </Position>
            <AltitudeMeters>827.79998779296875</AltitudeMeters>
            <DistanceMeters>NAN</DistanceMeters>
          </Trackpoint>
          <Trackpoint>
            <Time>2022-09-19T09:25:18.000Z</Time>
            <Position>
              <LatitudeDegrees>49.29852484725415706634521484375</LatitudeDegrees>
              <LongitudeDegrees>19.94547243230044841766357421875</LongitudeDegrees>
            </Position>
            <AltitudeMeters>827.79998779296875</AltitudeMeters>
            <DistanceMeters>NAN</DistanceMeters>
          </Trackpoint>
          <Trackpoint>
            <Time>2022-09-19T09:25:19.000Z</Time>
            <Position>
              <LatitudeDegrees>49.29841537959873676300048828125</LatitudeDegrees>
              <LongitudeDegrees>19.94558684527873992919921875</LongitudeDegrees>
            </Position>
            <AltitudeMeters>827.79998779296875</AltitudeMeters>
            <DistanceMeters>NAN</DistanceMeters>
          </Trackpoint>
          <Trackpoint>
            <Time>2022-09-19T09:25:20.000Z</Time>
            <Position>
              <LatitudeDegrees>49.298360645771026611328125</LatitudeDegrees>
              <LongitudeDegrees>19.94565884582698345184326171875</LongitudeDegrees>
            </Position>
            <AltitudeMeters>827.79998779296875</AltitudeMeters>
            <DistanceMeters>NAN</DistanceMeters>
          </Trackpoint>
          <Trackpoint>
            <Time>2022-09-19T09:25:24.000Z</Time>
            <Position>
              <LatitudeDegrees>49.29831563495099544525146484375</LatitudeDegrees>
              <LongitudeDegrees>19.94573093019425868988037109375</LongitudeDegrees>
            </Position>
            <AltitudeMeters>827.79998779296875</AltitudeMeters>
            <DistanceMeters>NAN</DistanceMeters>
          </Trackpoint>
          <Trackpoint>
            <Time>2022-09-19T09:25:30.000Z</Time>
            <Position>
              <LatitudeDegrees>49.2984952591359615325927734375</LatitudeDegrees>
              <LongitudeDegrees>19.9457122385501861572265625</LongitudeDegrees>
            </Position>
            <AltitudeMeters>827.79998779296875</AltitudeMeters>
            <DistanceMeters>NAN</DistanceMeters>
          </Trackpoint>
          <Trackpoint>
            <Time>2022-09-19T09:25:35.000Z</Time>
            <Position>
              <LatitudeDegrees>49.2984945885837078094482421875</LatitudeDegrees>
              <LongitudeDegrees>19.9457124061882495880126953125</LongitudeDegrees>
            </Position>
            <AltitudeMeters>827.5999755859375</AltitudeMeters>
            <DistanceMeters>NAN</DistanceMeters>
          </Trackpoint>
          <Trackpoint>
            <Time>2022-09-19T09:25:36.000Z</Time>
            <Position>
              <LatitudeDegrees>49.29849450476467609405517578125</LatitudeDegrees>
              <LongitudeDegrees>19.9456912837922573089599609375</LongitudeDegrees>
            </Position>
            <AltitudeMeters>827.5999755859375</AltitudeMeters>
            <DistanceMeters>NAN</DistanceMeters>
          </Trackpoint>
          <Trackpoint>
            <Time>2022-09-19T09:25:41.000Z</Time>
            <Position>
              <LatitudeDegrees>49.29849517531692981719970703125</LatitudeDegrees>
              <LongitudeDegrees>19.94568047113716602325439453125</LongitudeDegrees>
            </Position>
            <AltitudeMeters>827.4000244140625</AltitudeMeters>
            <DistanceMeters>NAN</DistanceMeters>
          </Trackpoint>
          <Trackpoint>
            <Time>2022-09-19T09:25:43.000Z</Time>
            <Position>
              <LatitudeDegrees>49.2985019646584987640380859375</LatitudeDegrees>
              <LongitudeDegrees>19.94563286192715167999267578125</LongitudeDegrees>
            </Position>
            <AltitudeMeters>829</AltitudeMeters>
            <DistanceMeters>NAN</DistanceMeters>
          </Trackpoint>
          <Trackpoint>
            <Time>2022-09-19T09:25:44.000Z</Time>
            <Position>
              <LatitudeDegrees>49.29850506596267223358154296875</LatitudeDegrees>
              <LongitudeDegrees>19.9456212110817432403564453125</LongitudeDegrees>
            </Position>
            <AltitudeMeters>828</AltitudeMeters>
            <DistanceMeters>NAN</DistanceMeters>
          </Trackpoint>
          <Trackpoint>
            <Time>2022-09-19T09:25:46.000Z</Time>
            <Position>
              <LatitudeDegrees>49.2985043115913867950439453125</LatitudeDegrees>
              <LongitudeDegrees>19.945620037615299224853515625</LongitudeDegrees>
            </Position>
            <AltitudeMeters>828</AltitudeMeters>
            <DistanceMeters>NAN</DistanceMeters>
          </Trackpoint>
          <Trackpoint>
            <Time>2022-09-19T09:25:56.000Z</Time>
            <Position>
              <LatitudeDegrees>49.29860598407685756683349609375</LatitudeDegrees>
              <LongitudeDegrees>19.94552238844335079193115234375</LongitudeDegrees>
            </Position>
            <AltitudeMeters>828</AltitudeMeters>
            <DistanceMeters>NAN</DistanceMeters>
          </Trackpoint>
          <Trackpoint>
            <Time>2022-09-19T09:26:33.000Z</Time>
            <Position>
              <LatitudeDegrees>49.29827573709189891815185546875</LatitudeDegrees>
              <LongitudeDegrees>19.94566555134952068328857421875</LongitudeDegrees>
            </Position>
            <AltitudeMeters>828.4000244140625</AltitudeMeters>
            <DistanceMeters>NAN</DistanceMeters>
          </Trackpoint>
          <Trackpoint>
            <Time>2022-09-19T09:26:37.000Z</Time>
            <Position>
              <LatitudeDegrees>49.29843516089022159576416015625</LatitudeDegrees>
              <LongitudeDegrees>19.94549405761063098907470703125</LongitudeDegrees>
            </Position>
            <AltitudeMeters>828.5999755859375</AltitudeMeters>
            <DistanceMeters>NAN</DistanceMeters>
          </Trackpoint>
          <Trackpoint>
            <Time>2022-09-19T09:26:38.000Z</Time>
            <Position>
              <LatitudeDegrees>49.29852987639605998992919921875</LatitudeDegrees>
              <LongitudeDegrees>19.9454123340547084808349609375</LongitudeDegrees>
            </Position>
            <AltitudeMeters>828.5999755859375</AltitudeMeters>
            <DistanceMeters>NAN</DistanceMeters>
          </Trackpoint>
          <Trackpoint>
            <Time>2022-09-19T09:26:40.000Z</Time>
            <Position>
              <LatitudeDegrees>49.298314712941646575927734375</LatitudeDegrees>
              <LongitudeDegrees>19.94559581391513347625732421875</LongitudeDegrees>
            </Position>
            <AltitudeMeters>828.79998779296875</AltitudeMeters>
            <DistanceMeters>NAN</DistanceMeters>
          </Trackpoint>
          <Trackpoint>
            <Time>2022-09-19T09:26:46.000Z</Time>
            <Position>
              <LatitudeDegrees>49.29851864464581012725830078125</LatitudeDegrees>
              <LongitudeDegrees>19.94538023136556148529052734375</LongitudeDegrees>
            </Position>
            <AltitudeMeters>829</AltitudeMeters>
            <DistanceMeters>NAN</DistanceMeters>
          </Trackpoint>
          <Trackpoint>
            <Time>2022-09-19T09:26:52.000Z</Time>
            <Position>
              <LatitudeDegrees>49.29858720861375331878662109375</LatitudeDegrees>
              <LongitudeDegrees>19.945328347384929656982421875</LongitudeDegrees>
            </Position>
            <AltitudeMeters>828.79998779296875</AltitudeMeters>
            <DistanceMeters>NAN</DistanceMeters>
          </Trackpoint>
          <Trackpoint>
            <Time>2022-09-19T09:26:55.000Z</Time>
            <Position>
              <LatitudeDegrees>49.29859869182109832763671875</LatitudeDegrees>
              <LongitudeDegrees>19.94535659439861774444580078125</LongitudeDegrees>
            </Position>
            <AltitudeMeters>828.79998779296875</AltitudeMeters>
            <DistanceMeters>NAN</DistanceMeters>
          </Trackpoint>
          <Trackpoint>
            <Time>2022-09-19T09:26:56.000Z</Time>
            <Position>
              <LatitudeDegrees>49.298596344888210296630859375</LatitudeDegrees>
              <LongitudeDegrees>19.9453560076653957366943359375</LongitudeDegrees>
            </Position>
            <AltitudeMeters>828.79998779296875</AltitudeMeters>
            <DistanceMeters>NAN</DistanceMeters>
          </Trackpoint>
          <Trackpoint>
            <Time>2022-09-19T09:27:05.000Z</Time>
            <Position>
              <LatitudeDegrees>49.29854982532560825347900390625</LatitudeDegrees>
              <LongitudeDegrees>19.94530429132282733917236328125</LongitudeDegrees>
            </Position>
            <AltitudeMeters>828.4000244140625</AltitudeMeters>
            <DistanceMeters>NAN</DistanceMeters>
          </Trackpoint>
          <Trackpoint>
            <Time>2022-09-19T09:27:09.000Z</Time>
            <Position>
              <LatitudeDegrees>49.29855577647686004638671875</LatitudeDegrees>
              <LongitudeDegrees>19.94534469209611415863037109375</LongitudeDegrees>
            </Position>
            <AltitudeMeters>828.4000244140625</AltitudeMeters>
            <DistanceMeters>NAN</DistanceMeters>
          </Trackpoint>
          <Trackpoint>
            <Time>2022-09-19T09:27:11.000Z</Time>
            <Position>
              <LatitudeDegrees>49.29857932962477207183837890625</LatitudeDegrees>
              <LongitudeDegrees>19.94536690413951873779296875</LongitudeDegrees>
            </Position>
            <AltitudeMeters>828.4000244140625</AltitudeMeters>
            <DistanceMeters>NAN</DistanceMeters>
          </Trackpoint>
          <Trackpoint>
            <Time>2022-09-19T09:27:13.000Z</Time>
            <Position>
              <LatitudeDegrees>49.29859735071659088134765625</LatitudeDegrees>
              <LongitudeDegrees>19.945389367640018463134765625</LongitudeDegrees>
            </Position>
            <AltitudeMeters>828.4000244140625</AltitudeMeters>
            <DistanceMeters>NAN</DistanceMeters>
          </Trackpoint>
          <Trackpoint>
            <Time>2022-09-19T09:27:15.000Z</Time>
            <Position>
              <LatitudeDegrees>49.29861302487552165985107421875</LatitudeDegrees>
              <LongitudeDegrees>19.94546337984502315521240234375</LongitudeDegrees>
            </Position>
            <AltitudeMeters>828.4000244140625</AltitudeMeters>
            <DistanceMeters>NAN</DistanceMeters>
          </Trackpoint>
          <Trackpoint>
            <Time>2022-09-19T09:27:20.000Z</Time>
            <Position>
              <LatitudeDegrees>49.2985599674284458160400390625</LatitudeDegrees>
              <LongitudeDegrees>19.9455367214977741241455078125</LongitudeDegrees>
            </Position>
            <AltitudeMeters>828.20001220703125</AltitudeMeters>
            <DistanceMeters>NAN</DistanceMeters>
          </Trackpoint>
          <Trackpoint>
            <Time>2022-09-19T09:27:22.000Z</Time>
            <Position>
              <LatitudeDegrees>49.2985321395099163055419921875</LatitudeDegrees>
              <LongitudeDegrees>19.94549154303967952728271484375</LongitudeDegrees>
            </Position>
            <AltitudeMeters>828.20001220703125</AltitudeMeters>
            <DistanceMeters>NAN</DistanceMeters>
          </Trackpoint>
          <Trackpoint>
            <Time>2022-09-19T09:27:27.000Z</Time>
            <Position>
              <LatitudeDegrees>49.29842879064381122589111328125</LatitudeDegrees>
              <LongitudeDegrees>19.94546413421630859375</LongitudeDegrees>
            </Position>
            <AltitudeMeters>828.20001220703125</AltitudeMeters>
            <DistanceMeters>NAN</DistanceMeters>
          </Trackpoint>
          <Trackpoint>
            <Time>2022-09-19T09:27:28.000Z</Time>
            <Position>
              <LatitudeDegrees>49.2983990348875522613525390625</LatitudeDegrees>
              <LongitudeDegrees>19.94544309563934803009033203125</LongitudeDegrees>
            </Position>
            <AltitudeMeters>828.20001220703125</AltitudeMeters>
            <DistanceMeters>NAN</DistanceMeters>
          </Trackpoint>
          <Trackpoint>
            <Time>2022-09-19T09:27:32.000Z</Time>
            <Position>
              <LatitudeDegrees>49.29839559830725193023681640625</LatitudeDegrees>
              <LongitudeDegrees>19.94539934210479259490966796875</LongitudeDegrees>
            </Position>
            <AltitudeMeters>828</AltitudeMeters>
            <DistanceMeters>NAN</DistanceMeters>
          </Trackpoint>
          <Trackpoint>
            <Time>2022-09-19T09:27:33.000Z</Time>
            <Position>
              <LatitudeDegrees>49.29840087890625</LatitudeDegrees>
              <LongitudeDegrees>19.94539146311581134796142578125</LongitudeDegrees>
            </Position>
            <AltitudeMeters>828</AltitudeMeters>
            <DistanceMeters>NAN</DistanceMeters>
          </Trackpoint>
          <Trackpoint>
            <Time>2022-09-19T09:27:36.000Z</Time>
            <Position>
              <LatitudeDegrees>49.2983990348875522613525390625</LatitudeDegrees>
              <LongitudeDegrees>19.94535617530345916748046875</LongitudeDegrees>
            </Position>
            <AltitudeMeters>828</AltitudeMeters>
            <DistanceMeters>NAN</DistanceMeters>
          </Trackpoint>
          <Trackpoint>
            <Time>2022-09-19T09:27:37.000Z</Time>
            <Position>
              <LatitudeDegrees>49.298395849764347076416015625</LatitudeDegrees>
              <LongitudeDegrees>19.9453824944794178009033203125</LongitudeDegrees>
            </Position>
            <AltitudeMeters>827.79998779296875</AltitudeMeters>
            <DistanceMeters>NAN</DistanceMeters>
          </Trackpoint>
          <Trackpoint>
            <Time>2022-09-19T09:27:38.000Z</Time>
            <Position>
              <LatitudeDegrees>49.2983759008347988128662109375</LatitudeDegrees>
              <LongitudeDegrees>19.94534469209611415863037109375</LongitudeDegrees>
            </Position>
            <AltitudeMeters>827.79998779296875</AltitudeMeters>
            <DistanceMeters>NAN</DistanceMeters>
          </Trackpoint>
          <Trackpoint>
            <Time>2022-09-19T09:27:39.000Z</Time>
            <Position>
              <LatitudeDegrees>49.2983893118798732757568359375</LatitudeDegrees>
              <LongitudeDegrees>19.94534770958125591278076171875</LongitudeDegrees>
            </Position>
            <AltitudeMeters>827.79998779296875</AltitudeMeters>
            <DistanceMeters>NAN</DistanceMeters>
          </Trackpoint>
          <Trackpoint>
            <Time>2022-09-19T09:27:41.000Z</Time>
            <Position>
              <LatitudeDegrees>49.29837497882544994354248046875</LatitudeDegrees>
              <LongitudeDegrees>19.94534435681998729705810546875</LongitudeDegrees>
            </Position>
            <AltitudeMeters>827.79998779296875</AltitudeMeters>
            <DistanceMeters>NAN</DistanceMeters>
          </Trackpoint>
          <Trackpoint>
            <Time>2022-09-19T09:27:43.000Z</Time>
            <Position>
              <LatitudeDegrees>49.29857647977769374847412109375</LatitudeDegrees>
              <LongitudeDegrees>19.94582128711044788360595703125</LongitudeDegrees>
            </Position>
            <AltitudeMeters>827.79998779296875</AltitudeMeters>
            <DistanceMeters>NAN</DistanceMeters>
          </Trackpoint>
          <Trackpoint>
            <Time>2022-09-19T09:28:03.000Z</Time>
            <Position>
              <LatitudeDegrees>49.29758607409894466400146484375</LatitudeDegrees>
              <LongitudeDegrees>19.9477173574268817901611328125</LongitudeDegrees>
            </Position>
            <AltitudeMeters>827.5999755859375</AltitudeMeters>
            <DistanceMeters>NAN</DistanceMeters>
          </Trackpoint>
          <Trackpoint>
            <Time>2022-09-19T09:28:04.000Z</Time>
            <Position>
              <LatitudeDegrees>49.2973804660141468048095703125</LatitudeDegrees>
              <LongitudeDegrees>19.94782187975943088531494140625</LongitudeDegrees>
            </Position>
            <AltitudeMeters>827.5999755859375</AltitudeMeters>
            <DistanceMeters>NAN</DistanceMeters>
          </Trackpoint>
          <Trackpoint>
            <Time>2022-09-19T09:28:51.000Z</Time>
            <Position>
              <LatitudeDegrees>49.299084506928920745849609375</LatitudeDegrees>
              <LongitudeDegrees>19.94328291155397891998291015625</LongitudeDegrees>
            </Position>
            <AltitudeMeters>827.4000244140625</AltitudeMeters>
            <DistanceMeters>NAN</DistanceMeters>
          </Trackpoint>
          <Trackpoint>
            <Time>2022-09-19T09:28:55.000Z</Time>
            <Position>
              <LatitudeDegrees>49.29852493107318878173828125</LatitudeDegrees>
              <LongitudeDegrees>19.94538291357457637786865234375</LongitudeDegrees>
            </Position>
            <AltitudeMeters>827.4000244140625</AltitudeMeters>
            <DistanceMeters>NAN</DistanceMeters>
          </Trackpoint>
          <Trackpoint>
            <Time>2022-09-19T09:30:55.000Z</Time>
            <Position>
              <LatitudeDegrees>49.2987455427646636962890625</LatitudeDegrees>
              <LongitudeDegrees>19.94535215198993682861328125</LongitudeDegrees>
            </Position>
            <AltitudeMeters>829</AltitudeMeters>
            <DistanceMeters>NAN</DistanceMeters>
          </Trackpoint>
          <Trackpoint>
            <Time>2022-09-19T09:30:59.000Z</Time>
            <Position>
              <LatitudeDegrees>49.29872903041541576385498046875</LatitudeDegrees>
              <LongitudeDegrees>19.94476315565407276153564453125</LongitudeDegrees>
            </Position>
            <AltitudeMeters>829</AltitudeMeters>
            <DistanceMeters>NAN</DistanceMeters>
          </Trackpoint>
          <Trackpoint>
            <Time>2022-09-19T09:31:04.000Z</Time>
            <Position>
              <LatitudeDegrees>49.29880522191524505615234375</LatitudeDegrees>
              <LongitudeDegrees>19.94462854228913784027099609375</LongitudeDegrees>
            </Position>
            <AltitudeMeters>829</AltitudeMeters>
            <DistanceMeters>NAN</DistanceMeters>
          </Trackpoint>
          <Trackpoint>
            <Time>2022-09-19T09:31:07.000Z</Time>
            <Position>
              <LatitudeDegrees>49.2989146895706653594970703125</LatitudeDegrees>
              <LongitudeDegrees>19.94435261003673076629638671875</LongitudeDegrees>
            </Position>
            <AltitudeMeters>829</AltitudeMeters>
            <DistanceMeters>NAN</DistanceMeters>
          </Trackpoint>
          <Trackpoint>
            <Time>2022-09-19T09:31:09.000Z</Time>
            <Position>
              <LatitudeDegrees>49.299014769494533538818359375</LatitudeDegrees>
              <LongitudeDegrees>19.94415991008281707763671875</LongitudeDegrees>
            </Position>
            <AltitudeMeters>829</AltitudeMeters>
            <DistanceMeters>NAN</DistanceMeters>
          </Trackpoint>
          <Trackpoint>
            <Time>2022-09-19T09:31:11.000Z</Time>
            <Position>
              <LatitudeDegrees>49.2990977503359317779541015625</LatitudeDegrees>
              <LongitudeDegrees>19.94394692592322826385498046875</LongitudeDegrees>
            </Position>
            <AltitudeMeters>849</AltitudeMeters>
            <DistanceMeters>NAN</DistanceMeters>
          </Trackpoint>
          <Trackpoint>
            <Time>2022-09-19T09:31:14.000Z</Time>
            <Position>
              <LatitudeDegrees>49.29920218884944915771484375</LatitudeDegrees>
              <LongitudeDegrees>19.9436269886791706085205078125</LongitudeDegrees>
            </Position>
            <AltitudeMeters>849</AltitudeMeters>
            <DistanceMeters>NAN</DistanceMeters>
          </Trackpoint>
          <Trackpoint>
            <Time>2022-09-19T09:31:16.000Z</Time>
            <Position>
              <LatitudeDegrees>49.2992771230638027191162109375</LatitudeDegrees>
              <LongitudeDegrees>19.94344367645680904388427734375</LongitudeDegrees>
            </Position>
            <AltitudeMeters>850.79998779296875</AltitudeMeters>
            <DistanceMeters>NAN</DistanceMeters>
          </Trackpoint>
          <Trackpoint>
            <Time>2022-09-19T09:31:17.000Z</Time>
            <Position>
              <LatitudeDegrees>49.299320541322231292724609375</LatitudeDegrees>
              <LongitudeDegrees>19.9432954005897045135498046875</LongitudeDegrees>
            </Position>
            <AltitudeMeters>851.79998779296875</AltitudeMeters>
            <DistanceMeters>NAN</DistanceMeters>
          </Trackpoint>
          <Trackpoint>
            <Time>2022-09-19T09:31:18.000Z</Time>
            <Position>
              <LatitudeDegrees>49.299360103905200958251953125</LatitudeDegrees>
              <LongitudeDegrees>19.943175874650478363037109375</LongitudeDegrees>
            </Position>
            <AltitudeMeters>853.20001220703125</AltitudeMeters>
            <DistanceMeters>NAN</DistanceMeters>
          </Trackpoint>
          <Trackpoint>
            <Time>2022-09-19T09:31:19.000Z</Time>
            <Position>
              <LatitudeDegrees>49.299409054219722747802734375</LatitudeDegrees>
              <LongitudeDegrees>19.943064562976360321044921875</LongitudeDegrees>
            </Position>
            <AltitudeMeters>854.4000244140625</AltitudeMeters>
            <DistanceMeters>NAN</DistanceMeters>
          </Trackpoint>
          <Trackpoint>
            <Time>2022-09-19T09:31:20.000Z</Time>
            <Position>
              <LatitudeDegrees>49.29946596734225749969482421875</LatitudeDegrees>
              <LongitudeDegrees>19.94296708144247531890869140625</LongitudeDegrees>
            </Position>
            <AltitudeMeters>855.5999755859375</AltitudeMeters>
            <DistanceMeters>NAN</DistanceMeters>
          </Trackpoint>
          <Trackpoint>
            <Time>2022-09-19T09:31:21.000Z</Time>
            <Position>
              <LatitudeDegrees>49.29951961152255535125732421875</LatitudeDegrees>
              <LongitudeDegrees>19.94286549277603626251220703125</LongitudeDegrees>
            </Position>
            <AltitudeMeters>856.5999755859375</AltitudeMeters>
            <DistanceMeters>NAN</DistanceMeters>
          </Trackpoint>
          <Trackpoint>
            <Time>2022-09-19T09:31:22.000Z</Time>
            <Position>
              <LatitudeDegrees>49.29955246858298778533935546875</LatitudeDegrees>
              <LongitudeDegrees>19.94273691438138484954833984375</LongitudeDegrees>
            </Position>
            <AltitudeMeters>857.79998779296875</AltitudeMeters>
            <DistanceMeters>NAN</DistanceMeters>
          </Trackpoint>
          <Trackpoint>
            <Time>2022-09-19T09:31:23.000Z</Time>
            <Position>
              <LatitudeDegrees>49.29958549328148365020751953125</LatitudeDegrees>
              <LongitudeDegrees>19.94261420331895351409912109375</LongitudeDegrees>
            </Position>
            <AltitudeMeters>859.20001220703125</AltitudeMeters>
            <DistanceMeters>NAN</DistanceMeters>
          </Trackpoint>
          <Trackpoint>
            <Time>2022-09-19T09:31:24.000Z</Time>
            <Position>
              <LatitudeDegrees>49.299641735851764678955078125</LatitudeDegrees>
              <LongitudeDegrees>19.94250792078673839569091796875</LongitudeDegrees>
            </Position>
            <AltitudeMeters>860.20001220703125</AltitudeMeters>
            <DistanceMeters>NAN</DistanceMeters>
          </Trackpoint>
          <Trackpoint>
            <Time>2022-09-19T09:31:25.000Z</Time>
            <Position>
              <LatitudeDegrees>49.29969881661236286163330078125</LatitudeDegrees>
              <LongitudeDegrees>19.9423985369503498077392578125</LongitudeDegrees>
            </Position>
            <AltitudeMeters>861.5999755859375</AltitudeMeters>
            <DistanceMeters>NAN</DistanceMeters>
          </Trackpoint>
          <Trackpoint>
            <Time>2022-09-19T09:31:26.000Z</Time>
            <Position>
              <LatitudeDegrees>49.2997528798878192901611328125</LatitudeDegrees>
              <LongitudeDegrees>19.94228110648691654205322265625</LongitudeDegrees>
            </Position>
            <AltitudeMeters>862.79998779296875</AltitudeMeters>
            <DistanceMeters>NAN</DistanceMeters>
          </Trackpoint>
          <Trackpoint>
            <Time>2022-09-19T09:31:27.000Z</Time>
            <Position>
              <LatitudeDegrees>49.29980308748781681060791015625</LatitudeDegrees>
              <LongitudeDegrees>19.94216141290962696075439453125</LongitudeDegrees>
            </Position>
            <AltitudeMeters>864</AltitudeMeters>
            <DistanceMeters>NAN</DistanceMeters>
          </Trackpoint>
          <Trackpoint>
            <Time>2022-09-19T09:31:28.000Z</Time>
            <Position>
              <LatitudeDegrees>49.29984600283205509185791015625</LatitudeDegrees>
              <LongitudeDegrees>19.9420458264648914337158203125</LongitudeDegrees>
            </Position>
            <AltitudeMeters>865</AltitudeMeters>
            <DistanceMeters>NAN</DistanceMeters>
          </Trackpoint>
          <Trackpoint>
            <Time>2022-09-19T09:31:29.000Z</Time>
            <Position>
              <LatitudeDegrees>49.29988975636661052703857421875</LatitudeDegrees>
              <LongitudeDegrees>19.94193258695304393768310546875</LongitudeDegrees>
            </Position>
            <AltitudeMeters>866.20001220703125</AltitudeMeters>
            <DistanceMeters>NAN</DistanceMeters>
          </Trackpoint>
          <Trackpoint>
            <Time>2022-09-19T09:31:30.000Z</Time>
            <Position>
              <LatitudeDegrees>49.2999342642724514007568359375</LatitudeDegrees>
              <LongitudeDegrees>19.94182010181248188018798828125</LongitudeDegrees>
            </Position>
            <AltitudeMeters>867.4000244140625</AltitudeMeters>
            <DistanceMeters>NAN</DistanceMeters>
          </Trackpoint>
          <Trackpoint>
            <Time>2022-09-19T09:31:31.000Z</Time>
            <Position>
              <LatitudeDegrees>49.299976341426372528076171875</LatitudeDegrees>
              <LongitudeDegrees>19.941704683005809783935546875</LongitudeDegrees>
            </Position>
            <AltitudeMeters>868.4000244140625</AltitudeMeters>
            <DistanceMeters>NAN</DistanceMeters>
          </Trackpoint>
          <Trackpoint>
            <Time>2022-09-19T09:31:32.000Z</Time>
            <Position>
              <LatitudeDegrees>49.3000190891325473785400390625</LatitudeDegrees>
              <LongitudeDegrees>19.9415843188762664794921875</LongitudeDegrees>
            </Position>
            <AltitudeMeters>869.79998779296875</AltitudeMeters>
            <DistanceMeters>NAN</DistanceMeters>
          </Trackpoint>
          <Trackpoint>
            <Time>2022-09-19T09:31:33.000Z</Time>
            <Position>
              <LatitudeDegrees>49.30005856789648532867431640625</LatitudeDegrees>
              <LongitudeDegrees>19.941460601985454559326171875</LongitudeDegrees>
            </Position>
            <AltitudeMeters>871.20001220703125</AltitudeMeters>
            <DistanceMeters>NAN</DistanceMeters>
          </Trackpoint>
          <Trackpoint>
            <Time>2022-09-19T09:31:34.000Z</Time>
            <Position>
              <LatitudeDegrees>49.30009159259498119354248046875</LatitudeDegrees>
              <LongitudeDegrees>19.94136236608028411865234375</LongitudeDegrees>
            </Position>
            <AltitudeMeters>872.4000244140625</AltitudeMeters>
            <DistanceMeters>NAN</DistanceMeters>
          </Trackpoint>
          <Trackpoint>
            <Time>2022-09-19T09:31:35.000Z</Time>
            <Position>
              <LatitudeDegrees>49.30013434030115604400634765625</LatitudeDegrees>
              <LongitudeDegrees>19.94124032557010650634765625</LongitudeDegrees>
            </Position>
            <AltitudeMeters>873.79998779296875</AltitudeMeters>
            <DistanceMeters>NAN</DistanceMeters>
          </Trackpoint>
          <Trackpoint>
            <Time>2022-09-19T09:31:36.000Z</Time>
            <Position>
              <LatitudeDegrees>49.30017792619764804840087890625</LatitudeDegrees>
              <LongitudeDegrees>19.9411214701831340789794921875</LongitudeDegrees>
            </Position>
            <AltitudeMeters>875.20001220703125</AltitudeMeters>
            <DistanceMeters>NAN</DistanceMeters>
          </Trackpoint>
          <Trackpoint>
            <Time>2022-09-19T09:31:37.000Z</Time>
            <Position>
              <LatitudeDegrees>49.30022620595991611480712890625</LatitudeDegrees>
              <LongitudeDegrees>19.9409769661724567413330078125</LongitudeDegrees>
            </Position>
            <AltitudeMeters>876.5999755859375</AltitudeMeters>
            <DistanceMeters>NAN</DistanceMeters>
          </Trackpoint>
          <Trackpoint>
            <Time>2022-09-19T09:31:38.000Z</Time>
            <Position>
              <LatitudeDegrees>49.3002742342650890350341796875</LatitudeDegrees>
              <LongitudeDegrees>19.94085568003356456756591796875</LongitudeDegrees>
            </Position>
            <AltitudeMeters>878</AltitudeMeters>
            <DistanceMeters>NAN</DistanceMeters>
          </Trackpoint>
          <Trackpoint>
            <Time>2022-09-19T09:31:39.000Z</Time>
            <Position>
              <LatitudeDegrees>49.30031740106642246246337890625</LatitudeDegrees>
              <LongitudeDegrees>19.940741099417209625244140625</LongitudeDegrees>
            </Position>
            <AltitudeMeters>879.5999755859375</AltitudeMeters>
            <DistanceMeters>NAN</DistanceMeters>
          </Trackpoint>
          <Trackpoint>
            <Time>2022-09-19T09:31:40.000Z</Time>
            <Position>
              <LatitudeDegrees>49.3003624118864536285400390625</LatitudeDegrees>
              <LongitudeDegrees>19.9406292848289012908935546875</LongitudeDegrees>
            </Position>
            <AltitudeMeters>880.79998779296875</AltitudeMeters>
            <DistanceMeters>NAN</DistanceMeters>
          </Trackpoint>
          <Trackpoint>
            <Time>2022-09-19T09:31:41.000Z</Time>
            <Position>
              <LatitudeDegrees>49.30039283819496631622314453125</LatitudeDegrees>
              <LongitudeDegrees>19.94051319546997547149658203125</LongitudeDegrees>
            </Position>
            <AltitudeMeters>882.5999755859375</AltitudeMeters>
            <DistanceMeters>NAN</DistanceMeters>
          </Trackpoint>
          <Trackpoint>
            <Time>2022-09-19T09:31:42.000Z</Time>
            <Position>
              <LatitudeDegrees>49.30043793283402919769287109375</LatitudeDegrees>
              <LongitudeDegrees>19.94039400480687618255615234375</LongitudeDegrees>
            </Position>
            <AltitudeMeters>884.5999755859375</AltitudeMeters>
            <DistanceMeters>NAN</DistanceMeters>
          </Trackpoint>
          <Trackpoint>
            <Time>2022-09-19T09:31:43.000Z</Time>
            <Position>
              <LatitudeDegrees>49.3004804290831089019775390625</LatitudeDegrees>
              <LongitudeDegrees>19.9402888119220733642578125</LongitudeDegrees>
            </Position>
            <AltitudeMeters>886.20001220703125</AltitudeMeters>
            <DistanceMeters>NAN</DistanceMeters>
          </Trackpoint>
          <Trackpoint>
            <Time>2022-09-19T09:31:44.000Z</Time>
            <Position>
              <LatitudeDegrees>49.30053549818694591522216796875</LatitudeDegrees>
              <LongitudeDegrees>19.94014623574912548065185546875</LongitudeDegrees>
            </Position>
            <AltitudeMeters>888.20001220703125</AltitudeMeters>
            <DistanceMeters>NAN</DistanceMeters>
          </Trackpoint>
          <Trackpoint>
            <Time>2022-09-19T09:31:45.000Z</Time>
            <Position>
              <LatitudeDegrees>49.3005853705108165740966796875</LatitudeDegrees>
              <LongitudeDegrees>19.94002687744796276092529296875</LongitudeDegrees>
            </Position>
            <AltitudeMeters>890</AltitudeMeters>
            <DistanceMeters>NAN</DistanceMeters>
          </Trackpoint>
          <Trackpoint>
            <Time>2022-09-19T09:31:46.000Z</Time>
            <Position>
              <LatitudeDegrees>49.3006406910717487335205078125</LatitudeDegrees>
              <LongitudeDegrees>19.93989117443561553955078125</LongitudeDegrees>
            </Position>
            <AltitudeMeters>892</AltitudeMeters>
            <DistanceMeters>NAN</DistanceMeters>
          </Trackpoint>
          <Trackpoint>
            <Time>2022-09-19T09:31:47.000Z</Time>
            <Position>
              <LatitudeDegrees>49.3006866239011287689208984375</LatitudeDegrees>
              <LongitudeDegrees>19.93977726437151432037353515625</LongitudeDegrees>
            </Position>
            <AltitudeMeters>894.20001220703125</AltitudeMeters>
            <DistanceMeters>NAN</DistanceMeters>
          </Trackpoint>
          <Trackpoint>
            <Time>2022-09-19T09:31:48.000Z</Time>
            <Position>
              <LatitudeDegrees>49.30072300136089324951171875</LatitudeDegrees>
              <LongitudeDegrees>19.9396851472556591033935546875</LongitudeDegrees>
            </Position>
            <AltitudeMeters>896.20001220703125</AltitudeMeters>
            <DistanceMeters>NAN</DistanceMeters>
          </Trackpoint>
          <Trackpoint>
            <Time>2022-09-19T09:31:49.000Z</Time>
            <Position>
              <LatitudeDegrees>49.3007778190076351165771484375</LatitudeDegrees>
              <LongitudeDegrees>19.93954407982528209686279296875</LongitudeDegrees>
            </Position>
            <AltitudeMeters>898.20001220703125</AltitudeMeters>
            <DistanceMeters>NAN</DistanceMeters>
          </Trackpoint>
          <Trackpoint>
            <Time>2022-09-19T09:31:50.000Z</Time>
            <Position>
              <LatitudeDegrees>49.3008281104266643524169921875</LatitudeDegrees>
              <LongitudeDegrees>19.939426481723785400390625</LongitudeDegrees>
            </Position>
            <AltitudeMeters>900.4000244140625</AltitudeMeters>
            <DistanceMeters>NAN</DistanceMeters>
          </Trackpoint>
          <Trackpoint>
            <Time>2022-09-19T09:31:51.000Z</Time>
            <Position>
              <LatitudeDegrees>49.30087597109377384185791015625</LatitudeDegrees>
              <LongitudeDegrees>19.9393207021057605743408203125</LongitudeDegrees>
            </Position>
            <AltitudeMeters>902.5999755859375</AltitudeMeters>
            <DistanceMeters>NAN</DistanceMeters>
          </Trackpoint>
          <Trackpoint>
            <Time>2022-09-19T09:31:52.000Z</Time>
            <Position>
              <LatitudeDegrees>49.30092492140829563140869140625</LatitudeDegrees>
              <LongitudeDegrees>19.93921525776386260986328125</LongitudeDegrees>
            </Position>
            <AltitudeMeters>904.5999755859375</AltitudeMeters>
            <DistanceMeters>NAN</DistanceMeters>
          </Trackpoint>
          <Trackpoint>
            <Time>2022-09-19T09:31:53.000Z</Time>
            <Position>
              <LatitudeDegrees>49.3009649030864238739013671875</LatitudeDegrees>
              <LongitudeDegrees>19.93913236074149608612060546875</LongitudeDegrees>
            </Position>
            <AltitudeMeters>907</AltitudeMeters>
            <DistanceMeters>NAN</DistanceMeters>
          </Trackpoint>
          <Trackpoint>
            <Time>2022-09-19T09:31:54.000Z</Time>
            <Position>
              <LatitudeDegrees>49.3010182119905948638916015625</LatitudeDegrees>
              <LongitudeDegrees>19.93903596885502338409423828125</LongitudeDegrees>
            </Position>
            <AltitudeMeters>909.20001220703125</AltitudeMeters>
            <DistanceMeters>NAN</DistanceMeters>
          </Trackpoint>
          <Trackpoint>
            <Time>2022-09-19T09:31:55.000Z</Time>
            <Position>
              <LatitudeDegrees>49.30108618922531604766845703125</LatitudeDegrees>
              <LongitudeDegrees>19.93891778402030467987060546875</LongitudeDegrees>
            </Position>
            <AltitudeMeters>911.4000244140625</AltitudeMeters>
            <DistanceMeters>NAN</DistanceMeters>
          </Trackpoint>
          <Trackpoint>
            <Time>2022-09-19T09:31:56.000Z</Time>
            <Position>
              <LatitudeDegrees>49.301147125661373138427734375</LatitudeDegrees>
              <LongitudeDegrees>19.9388197995722293853759765625</LongitudeDegrees>
            </Position>
            <AltitudeMeters>914</AltitudeMeters>
            <DistanceMeters>NAN</DistanceMeters>
          </Trackpoint>
          <Trackpoint>
            <Time>2022-09-19T09:31:57.000Z</Time>
            <Position>
              <LatitudeDegrees>49.30119683034718036651611328125</LatitudeDegrees>
              <LongitudeDegrees>19.93874595500528812408447265625</LongitudeDegrees>
            </Position>
            <AltitudeMeters>916.20001220703125</AltitudeMeters>
            <DistanceMeters>NAN</DistanceMeters>
          </Trackpoint>
          <Trackpoint>
            <Time>2022-09-19T09:31:58.000Z</Time>
            <Position>
              <LatitudeDegrees>49.30126422084867954254150390625</LatitudeDegrees>
              <LongitudeDegrees>19.93867169134318828582763671875</LongitudeDegrees>
            </Position>
            <AltitudeMeters>918.79998779296875</AltitudeMeters>
            <DistanceMeters>NAN</DistanceMeters>
          </Trackpoint>
          <Trackpoint>
            <Time>2022-09-19T09:31:59.000Z</Time>
            <Position>
              <LatitudeDegrees>49.301332868635654449462890625</LatitudeDegrees>
              <LongitudeDegrees>19.93857462890446186065673828125</LongitudeDegrees>
            </Position>
            <AltitudeMeters>921.20001220703125</AltitudeMeters>
            <DistanceMeters>NAN</DistanceMeters>
          </Trackpoint>
          <Trackpoint>
            <Time>2022-09-19T09:32:00.000Z</Time>
            <Position>
              <LatitudeDegrees>49.30141274817287921905517578125</LatitudeDegrees>
              <LongitudeDegrees>19.93846692144870758056640625</LongitudeDegrees>
            </Position>
            <AltitudeMeters>923.5999755859375</AltitudeMeters>
            <DistanceMeters>NAN</DistanceMeters>
          </Trackpoint>
          <Trackpoint>
            <Time>2022-09-19T09:32:01.000Z</Time>
            <Position>
              <LatitudeDegrees>49.30146320722997188568115234375</LatitudeDegrees>
              <LongitudeDegrees>19.9384000338613986968994140625</LongitudeDegrees>
            </Position>
            <AltitudeMeters>926.4000244140625</AltitudeMeters>
            <DistanceMeters>NAN</DistanceMeters>
          </Trackpoint>
          <Trackpoint>
            <Time>2022-09-19T09:32:02.000Z</Time>
            <Position>
              <LatitudeDegrees>49.30152556858956813812255859375</LatitudeDegrees>
              <LongitudeDegrees>19.9383051507174968719482421875</LongitudeDegrees>
            </Position>
            <AltitudeMeters>928.79998779296875</AltitudeMeters>
            <DistanceMeters>NAN</DistanceMeters>
          </Trackpoint>
          <Trackpoint>
            <Time>2022-09-19T09:32:03.000Z</Time>
            <Position>
              <LatitudeDegrees>49.3015908636152744293212890625</LatitudeDegrees>
              <LongitudeDegrees>19.9382149614393711090087890625</LongitudeDegrees>
            </Position>
            <AltitudeMeters>931.20001220703125</AltitudeMeters>
            <DistanceMeters>NAN</DistanceMeters>
          </Trackpoint>
          <Trackpoint>
            <Time>2022-09-19T09:32:04.000Z</Time>
            <Position>
              <LatitudeDegrees>49.30165833793580532073974609375</LatitudeDegrees>
              <LongitudeDegrees>19.9381256103515625</LongitudeDegrees>
            </Position>
            <AltitudeMeters>934</AltitudeMeters>
            <DistanceMeters>NAN</DistanceMeters>
          </Trackpoint>
          <Trackpoint>
            <Time>2022-09-19T09:32:05.000Z</Time>
            <Position>
              <LatitudeDegrees>49.30174089968204498291015625</LatitudeDegrees>
              <LongitudeDegrees>19.93800600059330463409423828125</LongitudeDegrees>
            </Position>
            <AltitudeMeters>936.79998779296875</AltitudeMeters>
            <DistanceMeters>NAN</DistanceMeters>
          </Trackpoint>
          <Trackpoint>
            <Time>2022-09-19T09:32:06.000Z</Time>
            <Position>
              <LatitudeDegrees>49.30180703289806842803955078125</LatitudeDegrees>
              <LongitudeDegrees>19.9378941021859645843505859375</LongitudeDegrees>
            </Position>
            <AltitudeMeters>939.20001220703125</AltitudeMeters>
            <DistanceMeters>NAN</DistanceMeters>
          </Trackpoint>
          <Trackpoint>
            <Time>2022-09-19T09:32:07.000Z</Time>
            <Position>
              <LatitudeDegrees>49.30185397155582904815673828125</LatitudeDegrees>
              <LongitudeDegrees>19.9378146417438983917236328125</LongitudeDegrees>
            </Position>
            <AltitudeMeters>942.20001220703125</AltitudeMeters>
            <DistanceMeters>NAN</DistanceMeters>
          </Trackpoint>
          <Trackpoint>
            <Time>2022-09-19T09:32:08.000Z</Time>
            <Position>
              <LatitudeDegrees>49.3019117228686809539794921875</LatitudeDegrees>
              <LongitudeDegrees>19.93773174472153186798095703125</LongitudeDegrees>
            </Position>
            <AltitudeMeters>945</AltitudeMeters>
            <DistanceMeters>NAN</DistanceMeters>
          </Trackpoint>
          <Trackpoint>
            <Time>2022-09-19T09:32:09.000Z</Time>
            <Position>
              <LatitudeDegrees>49.30197433568537235260009765625</LatitudeDegrees>
              <LongitudeDegrees>19.93765261955559253692626953125</LongitudeDegrees>
            </Position>
            <AltitudeMeters>947.79998779296875</AltitudeMeters>
            <DistanceMeters>NAN</DistanceMeters>
          </Trackpoint>
          <Trackpoint>
            <Time>2022-09-19T09:32:10.000Z</Time>
            <Position>
              <LatitudeDegrees>49.30206100456416606903076171875</LatitudeDegrees>
              <LongitudeDegrees>19.93755036033689975738525390625</LongitudeDegrees>
            </Position>
            <AltitudeMeters>950.4000244140625</AltitudeMeters>
            <DistanceMeters>NAN</DistanceMeters>
          </Trackpoint>
          <Trackpoint>
            <Time>2022-09-19T09:32:11.000Z</Time>
            <Position>
              <LatitudeDegrees>49.30212805978953838348388671875</LatitudeDegrees>
              <LongitudeDegrees>19.93746520020067691802978515625</LongitudeDegrees>
            </Position>
            <AltitudeMeters>953</AltitudeMeters>
            <DistanceMeters>NAN</DistanceMeters>
          </Trackpoint>
          <Trackpoint>
            <Time>2022-09-19T09:32:12.000Z</Time>
            <Position>
              <LatitudeDegrees>49.30217801593244075775146484375</LatitudeDegrees>
              <LongitudeDegrees>19.9373948760330677032470703125</LongitudeDegrees>
            </Position>
            <AltitudeMeters>955.79998779296875</AltitudeMeters>
            <DistanceMeters>NAN</DistanceMeters>
          </Trackpoint>
          <Trackpoint>
            <Time>2022-09-19T09:32:13.000Z</Time>
            <Position>
              <LatitudeDegrees>49.302256219089031219482421875</LatitudeDegrees>
              <LongitudeDegrees>19.937289096415042877197265625</LongitudeDegrees>
            </Position>
            <AltitudeMeters>958.5999755859375</AltitudeMeters>
            <DistanceMeters>NAN</DistanceMeters>
          </Trackpoint>
          <Trackpoint>
            <Time>2022-09-19T09:32:14.000Z</Time>
            <Position>
              <LatitudeDegrees>49.3023100309073925018310546875</LatitudeDegrees>
              <LongitudeDegrees>19.93722078390419483184814453125</LongitudeDegrees>
            </Position>
            <AltitudeMeters>961.20001220703125</AltitudeMeters>
            <DistanceMeters>NAN</DistanceMeters>
          </Trackpoint>
          <Trackpoint>
            <Time>2022-09-19T09:32:15.000Z</Time>
            <Position>
              <LatitudeDegrees>49.302384965121746063232421875</LatitudeDegrees>
              <LongitudeDegrees>19.937104694545269012451171875</LongitudeDegrees>
            </Position>
            <AltitudeMeters>964</AltitudeMeters>
            <DistanceMeters>NAN</DistanceMeters>
          </Trackpoint>
          <Trackpoint>
            <Time>2022-09-19T09:32:16.000Z</Time>
            <Position>
              <LatitudeDegrees>49.302437938749790191650390625</LatitudeDegrees>
              <LongitudeDegrees>19.93702833540737628936767578125</LongitudeDegrees>
            </Position>
            <AltitudeMeters>966.79998779296875</AltitudeMeters>
            <DistanceMeters>NAN</DistanceMeters>
          </Trackpoint>
          <Trackpoint>
            <Time>2022-09-19T09:32:17.000Z</Time>
            <Position>
              <LatitudeDegrees>49.3024897389113903045654296875</LatitudeDegrees>
              <LongitudeDegrees>19.9369288422167301177978515625</LongitudeDegrees>
            </Position>
            <AltitudeMeters>969.4000244140625</AltitudeMeters>
            <DistanceMeters>NAN</DistanceMeters>
          </Trackpoint>
          <Trackpoint>
            <Time>2022-09-19T09:32:18.000Z</Time>
            <Position>
              <LatitudeDegrees>49.3025490827858448028564453125</LatitudeDegrees>
              <LongitudeDegrees>19.936800934374332427978515625</LongitudeDegrees>
            </Position>
            <AltitudeMeters>972.20001220703125</AltitudeMeters>
            <DistanceMeters>NAN</DistanceMeters>
          </Trackpoint>
          <Trackpoint>
            <Time>2022-09-19T09:32:19.000Z</Time>
            <Position>
              <LatitudeDegrees>49.30260867811739444732666015625</LatitudeDegrees>
              <LongitudeDegrees>19.9367018602788448333740234375</LongitudeDegrees>
            </Position>
            <AltitudeMeters>975</AltitudeMeters>
            <DistanceMeters>NAN</DistanceMeters>
          </Trackpoint>
          <Trackpoint>
            <Time>2022-09-19T09:32:20.000Z</Time>
            <Position>
              <LatitudeDegrees>49.3026669323444366455078125</LatitudeDegrees>
              <LongitudeDegrees>19.93660949170589447021484375</LongitudeDegrees>
            </Position>
            <AltitudeMeters>977.79998779296875</AltitudeMeters>
            <DistanceMeters>NAN</DistanceMeters>
          </Trackpoint>
          <Trackpoint>
            <Time>2022-09-19T09:32:21.000Z</Time>
            <Position>
              <LatitudeDegrees>49.30271730758249759674072265625</LatitudeDegrees>
              <LongitudeDegrees>19.93654922582209110260009765625</LongitudeDegrees>
            </Position>
            <AltitudeMeters>980.79998779296875</AltitudeMeters>
            <DistanceMeters>NAN</DistanceMeters>
          </Trackpoint>
          <Trackpoint>
            <Time>2022-09-19T09:32:22.000Z</Time>
            <Position>
              <LatitudeDegrees>49.30278905667364597320556640625</LatitudeDegrees>
              <LongitudeDegrees>19.93647512979805469512939453125</LongitudeDegrees>
            </Position>
            <AltitudeMeters>983.5999755859375</AltitudeMeters>
            <DistanceMeters>NAN</DistanceMeters>
          </Trackpoint>
          <Trackpoint>
            <Time>2022-09-19T09:32:23.000Z</Time>
            <Position>
              <LatitudeDegrees>49.302877485752105712890625</LatitudeDegrees>
              <LongitudeDegrees>19.9363803304731845855712890625</LongitudeDegrees>
            </Position>
            <AltitudeMeters>986.4000244140625</AltitudeMeters>
            <DistanceMeters>NAN</DistanceMeters>
          </Trackpoint>
          <Trackpoint>
            <Time>2022-09-19T09:32:24.000Z</Time>
            <Position>
              <LatitudeDegrees>49.30292819626629352569580078125</LatitudeDegrees>
              <LongitudeDegrees>19.93630615063011646270751953125</LongitudeDegrees>
            </Position>
            <AltitudeMeters>989.20001220703125</AltitudeMeters>
            <DistanceMeters>NAN</DistanceMeters>
          </Trackpoint>
          <Trackpoint>
            <Time>2022-09-19T09:32:25.000Z</Time>
            <Position>
              <LatitudeDegrees>49.302997849881649017333984375</LatitudeDegrees>
              <LongitudeDegrees>19.936210177838802337646484375</LongitudeDegrees>
            </Position>
            <AltitudeMeters>992</AltitudeMeters>
            <DistanceMeters>NAN</DistanceMeters>
          </Trackpoint>
          <Trackpoint>
            <Time>2022-09-19T09:32:26.000Z</Time>
            <Position>
              <LatitudeDegrees>49.30306482128798961639404296875</LatitudeDegrees>
              <LongitudeDegrees>19.9361218325793743133544921875</LongitudeDegrees>
            </Position>
            <AltitudeMeters>994.79998779296875</AltitudeMeters>
            <DistanceMeters>NAN</DistanceMeters>
          </Trackpoint>
          <Trackpoint>
            <Time>2022-09-19T09:32:27.000Z</Time>
            <Position>
              <LatitudeDegrees>49.3031378276646137237548828125</LatitudeDegrees>
              <LongitudeDegrees>19.9360470660030841827392578125</LongitudeDegrees>
            </Position>
            <AltitudeMeters>997.79998779296875</AltitudeMeters>
            <DistanceMeters>NAN</DistanceMeters>
          </Trackpoint>
          <Trackpoint>
            <Time>2022-09-19T09:32:28.000Z</Time>
            <Position>
              <LatitudeDegrees>49.3032263405621051788330078125</LatitudeDegrees>
              <LongitudeDegrees>19.93595997802913188934326171875</LongitudeDegrees>
            </Position>
            <AltitudeMeters>1000.5999755859375</AltitudeMeters>
            <DistanceMeters>NAN</DistanceMeters>
          </Trackpoint>
          <Trackpoint>
            <Time>2022-09-19T09:32:29.000Z</Time>
            <Position>
              <LatitudeDegrees>49.3032853491604328155517578125</LatitudeDegrees>
              <LongitudeDegrees>19.93589342571794986724853515625</LongitudeDegrees>
            </Position>
            <AltitudeMeters>1003.4000244140625</AltitudeMeters>
            <DistanceMeters>NAN</DistanceMeters>
          </Trackpoint>
          <Trackpoint>
            <Time>2022-09-19T09:32:30.000Z</Time>
            <Position>
              <LatitudeDegrees>49.3033614568412303924560546875</LatitudeDegrees>
              <LongitudeDegrees>19.935781024396419525146484375</LongitudeDegrees>
            </Position>
            <AltitudeMeters>1006.20001220703125</AltitudeMeters>
            <DistanceMeters>NAN</DistanceMeters>
          </Trackpoint>
          <Trackpoint>
            <Time>2022-09-19T09:32:31.000Z</Time>
            <Position>
              <LatitudeDegrees>49.3034258298575878143310546875</LatitudeDegrees>
              <LongitudeDegrees>19.9356806091964244842529296875</LongitudeDegrees>
            </Position>
            <AltitudeMeters>1008.79998779296875</AltitudeMeters>
            <DistanceMeters>NAN</DistanceMeters>
          </Trackpoint>
          <Trackpoint>
            <Time>2022-09-19T09:32:32.000Z</Time>
            <Position>
              <LatitudeDegrees>49.3034640513360500335693359375</LatitudeDegrees>
              <LongitudeDegrees>19.9356043338775634765625</LongitudeDegrees>
            </Position>
            <AltitudeMeters>1011.5999755859375</AltitudeMeters>
            <DistanceMeters>NAN</DistanceMeters>
          </Trackpoint>
          <Trackpoint>
            <Time>2022-09-19T09:32:33.000Z</Time>
            <Position>
              <LatitudeDegrees>49.303519539535045623779296875</LatitudeDegrees>
              <LongitudeDegrees>19.93551573716104030609130859375</LongitudeDegrees>
            </Position>
            <AltitudeMeters>1014.4000244140625</AltitudeMeters>
            <DistanceMeters>NAN</DistanceMeters>
          </Trackpoint>
          <Trackpoint>
            <Time>2022-09-19T09:32:34.000Z</Time>
            <Position>
              <LatitudeDegrees>49.303563795983791351318359375</LatitudeDegrees>
              <LongitudeDegrees>19.93546645157039165496826171875</LongitudeDegrees>
            </Position>
            <AltitudeMeters>1017.4000244140625</AltitudeMeters>
            <DistanceMeters>NAN</DistanceMeters>
          </Trackpoint>
          <Trackpoint>
            <Time>2022-09-19T09:32:35.000Z</Time>
            <Position>
              <LatitudeDegrees>49.3035931326448917388916015625</LatitudeDegrees>
              <LongitudeDegrees>19.93538866750895977020263671875</LongitudeDegrees>
            </Position>
            <AltitudeMeters>1020</AltitudeMeters>
            <DistanceMeters>NAN</DistanceMeters>
          </Trackpoint>
          <Trackpoint>
            <Time>2022-09-19T09:32:36.000Z</Time>
            <Position>
              <LatitudeDegrees>49.303621463477611541748046875</LatitudeDegrees>
              <LongitudeDegrees>19.93532781489193439483642578125</LongitudeDegrees>
            </Position>
            <AltitudeMeters>1023</AltitudeMeters>
            <DistanceMeters>NAN</DistanceMeters>
          </Trackpoint>
          <Trackpoint>
            <Time>2022-09-19T09:32:37.000Z</Time>
            <Position>
              <LatitudeDegrees>49.3036648817360401153564453125</LatitudeDegrees>
              <LongitudeDegrees>19.9352846480906009674072265625</LongitudeDegrees>
            </Position>
            <AltitudeMeters>1025.800048828125</AltitudeMeters>
            <DistanceMeters>NAN</DistanceMeters>
          </Trackpoint>
          <Trackpoint>
            <Time>2022-09-19T09:32:38.000Z</Time>
            <Position>
              <LatitudeDegrees>49.30374442599713802337646484375</LatitudeDegrees>
              <LongitudeDegrees>19.93519940413534641265869140625</LongitudeDegrees>
            </Position>
            <AltitudeMeters>1028.4000244140625</AltitudeMeters>
            <DistanceMeters>NAN</DistanceMeters>
          </Trackpoint>
          <Trackpoint>
            <Time>2022-09-19T09:32:39.000Z</Time>
            <Position>
              <LatitudeDegrees>49.3038144148886203765869140625</LatitudeDegrees>
              <LongitudeDegrees>19.93512933142483234405517578125</LongitudeDegrees>
            </Position>
            <AltitudeMeters>1031.199951171875</AltitudeMeters>
            <DistanceMeters>NAN</DistanceMeters>
          </Trackpoint>
          <Trackpoint>
            <Time>2022-09-19T09:32:40.000Z</Time>
            <Position>
              <LatitudeDegrees>49.303884319961071014404296875</LatitudeDegrees>
              <LongitudeDegrees>19.935059845447540283203125</LongitudeDegrees>
            </Position>
            <AltitudeMeters>1034</AltitudeMeters>
            <DistanceMeters>NAN</DistanceMeters>
          </Trackpoint>
          <Trackpoint>
            <Time>2022-09-19T09:32:41.000Z</Time>
            <Position>
              <LatitudeDegrees>49.30394089780747890472412109375</LatitudeDegrees>
              <LongitudeDegrees>19.93499287404119968414306640625</LongitudeDegrees>
            </Position>
            <AltitudeMeters>1036.5999755859375</AltitudeMeters>
            <DistanceMeters>NAN</DistanceMeters>
          </Trackpoint>
          <Trackpoint>
            <Time>2022-09-19T09:32:42.000Z</Time>
            <Position>
              <LatitudeDegrees>49.30400778539478778839111328125</LatitudeDegrees>
              <LongitudeDegrees>19.934900589287281036376953125</LongitudeDegrees>
            </Position>
            <AltitudeMeters>1039.4000244140625</AltitudeMeters>
            <DistanceMeters>NAN</DistanceMeters>
          </Trackpoint>
          <Trackpoint>
            <Time>2022-09-19T09:32:43.000Z</Time>
            <Position>
              <LatitudeDegrees>49.304091520607471466064453125</LatitudeDegrees>
              <LongitudeDegrees>19.93481065146625041961669921875</LongitudeDegrees>
            </Position>
            <AltitudeMeters>1042.199951171875</AltitudeMeters>
            <DistanceMeters>NAN</DistanceMeters>
          </Trackpoint>
          <Trackpoint>
            <Time>2022-09-19T09:32:44.000Z</Time>
            <Position>
              <LatitudeDegrees>49.3041691370308399200439453125</LatitudeDegrees>
              <LongitudeDegrees>19.93473907001316547393798828125</LongitudeDegrees>
            </Position>
            <AltitudeMeters>1044.800048828125</AltitudeMeters>
            <DistanceMeters>NAN</DistanceMeters>
          </Trackpoint>
          <Trackpoint>
            <Time>2022-09-19T09:32:45.000Z</Time>
            <Position>
              <LatitudeDegrees>49.30424281395971775054931640625</LatitudeDegrees>
              <LongitudeDegrees>19.93467159569263458251953125</LongitudeDegrees>
            </Position>
            <AltitudeMeters>1047.5999755859375</AltitudeMeters>
            <DistanceMeters>NAN</DistanceMeters>
          </Trackpoint>
          <Trackpoint>
            <Time>2022-09-19T09:32:46.000Z</Time>
            <Position>
              <LatitudeDegrees>49.30430668406188488006591796875</LatitudeDegrees>
              <LongitudeDegrees>19.934618957340717315673828125</LongitudeDegrees>
            </Position>
            <AltitudeMeters>1050.199951171875</AltitudeMeters>
            <DistanceMeters>NAN</DistanceMeters>
          </Trackpoint>
          <Trackpoint>
            <Time>2022-09-19T09:32:47.000Z</Time>
            <Position>
              <LatitudeDegrees>49.30439720861613750457763671875</LatitudeDegrees>
              <LongitudeDegrees>19.93452952243387699127197265625</LongitudeDegrees>
            </Position>
            <AltitudeMeters>1052.800048828125</AltitudeMeters>
            <DistanceMeters>NAN</DistanceMeters>
          </Trackpoint>
          <Trackpoint>
            <Time>2022-09-19T09:32:48.000Z</Time>
            <Position>
              <LatitudeDegrees>49.30447096936404705047607421875</LatitudeDegrees>
              <LongitudeDegrees>19.93445006199181079864501953125</LongitudeDegrees>
            </Position>
            <AltitudeMeters>1055.4000244140625</AltitudeMeters>
            <DistanceMeters>NAN</DistanceMeters>
          </Trackpoint>
          <Trackpoint>
            <Time>2022-09-19T09:32:49.000Z</Time>
            <Position>
              <LatitudeDegrees>49.30457540787756443023681640625</LatitudeDegrees>
              <LongitudeDegrees>19.93438418023288249969482421875</LongitudeDegrees>
            </Position>
            <AltitudeMeters>1058.199951171875</AltitudeMeters>
            <DistanceMeters>NAN</DistanceMeters>
          </Trackpoint>
          <Trackpoint>
            <Time>2022-09-19T09:32:50.000Z</Time>
            <Position>
              <LatitudeDegrees>49.30465553887188434600830078125</LatitudeDegrees>
              <LongitudeDegrees>19.93434210307896137237548828125</LongitudeDegrees>
            </Position>
            <AltitudeMeters>1061</AltitudeMeters>
            <DistanceMeters>NAN</DistanceMeters>
          </Trackpoint>
          <Trackpoint>
            <Time>2022-09-19T09:32:51.000Z</Time>
            <Position>
              <LatitudeDegrees>49.3047602288424968719482421875</LatitudeDegrees>
              <LongitudeDegrees>19.93426658213138580322265625</LongitudeDegrees>
            </Position>
            <AltitudeMeters>1063.5999755859375</AltitudeMeters>
            <DistanceMeters>NAN</DistanceMeters>
          </Trackpoint>
          <Trackpoint>
            <Time>2022-09-19T09:32:52.000Z</Time>
            <Position>
              <LatitudeDegrees>49.304863996803760528564453125</LatitudeDegrees>
              <LongitudeDegrees>19.9341966770589351654052734375</LongitudeDegrees>
            </Position>
            <AltitudeMeters>1066.4000244140625</AltitudeMeters>
            <DistanceMeters>NAN</DistanceMeters>
          </Trackpoint>
          <Trackpoint>
            <Time>2022-09-19T09:32:53.000Z</Time>
            <Position>
              <LatitudeDegrees>49.30494152940809726715087890625</LatitudeDegrees>
              <LongitudeDegrees>19.9341336451470851898193359375</LongitudeDegrees>
            </Position>
            <AltitudeMeters>1069</AltitudeMeters>
            <DistanceMeters>NAN</DistanceMeters>
          </Trackpoint>
          <Trackpoint>
            <Time>2022-09-19T09:32:54.000Z</Time>
            <Position>
              <LatitudeDegrees>49.305002130568027496337890625</LatitudeDegrees>
              <LongitudeDegrees>19.93407614529132843017578125</LongitudeDegrees>
            </Position>
            <AltitudeMeters>1071.5999755859375</AltitudeMeters>
            <DistanceMeters>NAN</DistanceMeters>
          </Trackpoint>
          <Trackpoint>
            <Time>2022-09-19T09:32:55.000Z</Time>
            <Position>
              <LatitudeDegrees>49.3050810880959033966064453125</LatitudeDegrees>
              <LongitudeDegrees>19.9339821003377437591552734375</LongitudeDegrees>
            </Position>
            <AltitudeMeters>1074.4000244140625</AltitudeMeters>
            <DistanceMeters>NAN</DistanceMeters>
          </Trackpoint>
          <Trackpoint>
            <Time>2022-09-19T09:32:56.000Z</Time>
            <Position>
              <LatitudeDegrees>49.3051565252244472503662109375</LatitudeDegrees>
              <LongitudeDegrees>19.93387355469167232513427734375</LongitudeDegrees>
            </Position>
            <AltitudeMeters>1077</AltitudeMeters>
            <DistanceMeters>NAN</DistanceMeters>
          </Trackpoint>
          <Trackpoint>
            <Time>2022-09-19T09:32:57.000Z</Time>
            <Position>
              <LatitudeDegrees>49.3052269332110881805419921875</LatitudeDegrees>
              <LongitudeDegrees>19.93379409424960613250732421875</LongitudeDegrees>
            </Position>
            <AltitudeMeters>1079.4000244140625</AltitudeMeters>
            <DistanceMeters>NAN</DistanceMeters>
          </Trackpoint>
          <Trackpoint>
            <Time>2022-09-19T09:32:58.000Z</Time>
            <Position>
              <LatitudeDegrees>49.3053016997873783111572265625</LatitudeDegrees>
              <LongitudeDegrees>19.93371144868433475494384765625</LongitudeDegrees>
            </Position>
            <AltitudeMeters>1082.199951171875</AltitudeMeters>
            <DistanceMeters>NAN</DistanceMeters>
          </Trackpoint>
          <Trackpoint>
            <Time>2022-09-19T09:32:59.000Z</Time>
            <Position>
              <LatitudeDegrees>49.3053623847663402557373046875</LatitudeDegrees>
              <LongitudeDegrees>19.9336464889347553253173828125</LongitudeDegrees>
            </Position>
            <AltitudeMeters>1084.5999755859375</AltitudeMeters>
            <DistanceMeters>NAN</DistanceMeters>
          </Trackpoint>
          <Trackpoint>
            <Time>2022-09-19T09:33:00.000Z</Time>
            <Position>
              <LatitudeDegrees>49.30542063899338245391845703125</LatitudeDegrees>
              <LongitudeDegrees>19.93358521722257137298583984375</LongitudeDegrees>
            </Position>
            <AltitudeMeters>1086.800048828125</AltitudeMeters>
            <DistanceMeters>NAN</DistanceMeters>
          </Trackpoint>
          <Trackpoint>
            <Time>2022-09-19T09:33:01.000Z</Time>
            <Position>
              <LatitudeDegrees>49.3054773844778537750244140625</LatitudeDegrees>
              <LongitudeDegrees>19.9335291422903537750244140625</LongitudeDegrees>
            </Position>
            <AltitudeMeters>1089.4000244140625</AltitudeMeters>
            <DistanceMeters>NAN</DistanceMeters>
          </Trackpoint>
          <Trackpoint>
            <Time>2022-09-19T09:33:02.000Z</Time>
            <Position>
              <LatitudeDegrees>49.30553345941007137298583984375</LatitudeDegrees>
              <LongitudeDegrees>19.93345923721790313720703125</LongitudeDegrees>
            </Position>
            <AltitudeMeters>1091.4000244140625</AltitudeMeters>
            <DistanceMeters>NAN</DistanceMeters>
          </Trackpoint>
          <Trackpoint>
            <Time>2022-09-19T09:33:03.000Z</Time>
            <Position>
              <LatitudeDegrees>49.30559246800839900970458984375</LatitudeDegrees>
              <LongitudeDegrees>19.93341456167399883270263671875</LongitudeDegrees>
            </Position>
            <AltitudeMeters>1093.5999755859375</AltitudeMeters>
            <DistanceMeters>NAN</DistanceMeters>
          </Trackpoint>
          <Trackpoint>
            <Time>2022-09-19T09:33:04.000Z</Time>
            <Position>
              <LatitudeDegrees>49.30563270114362239837646484375</LatitudeDegrees>
              <LongitudeDegrees>19.93338271044194698333740234375</LongitudeDegrees>
            </Position>
            <AltitudeMeters>1095.800048828125</AltitudeMeters>
            <DistanceMeters>NAN</DistanceMeters>
          </Trackpoint>
          <Trackpoint>
            <Time>2022-09-19T09:33:05.000Z</Time>
            <Position>
              <LatitudeDegrees>49.3056763708591461181640625</LatitudeDegrees>
              <LongitudeDegrees>19.9333319999277591705322265625</LongitudeDegrees>
            </Position>
            <AltitudeMeters>1097.800048828125</AltitudeMeters>
            <DistanceMeters>NAN</DistanceMeters>
          </Trackpoint>
          <Trackpoint>
            <Time>2022-09-19T09:33:06.000Z</Time>
            <Position>
              <LatitudeDegrees>49.30573563091456890106201171875</LatitudeDegrees>
              <LongitudeDegrees>19.93326787836849689483642578125</LongitudeDegrees>
            </Position>
            <AltitudeMeters>1099.5999755859375</AltitudeMeters>
            <DistanceMeters>NAN</DistanceMeters>
          </Trackpoint>
          <Trackpoint>
            <Time>2022-09-19T09:33:07.000Z</Time>
            <Position>
              <LatitudeDegrees>49.30578625760972499847412109375</LatitudeDegrees>
              <LongitudeDegrees>19.9332113005220890045166015625</LongitudeDegrees>
            </Position>
            <AltitudeMeters>1101.4000244140625</AltitudeMeters>
            <DistanceMeters>NAN</DistanceMeters>
          </Trackpoint>
          <Trackpoint>
            <Time>2022-09-19T09:33:08.000Z</Time>
            <Position>
              <LatitudeDegrees>49.30582649074494838714599609375</LatitudeDegrees>
              <LongitudeDegrees>19.9331516213715076446533203125</LongitudeDegrees>
            </Position>
            <AltitudeMeters>1103</AltitudeMeters>
            <DistanceMeters>NAN</DistanceMeters>
          </Trackpoint>
          <Trackpoint>
            <Time>2022-09-19T09:33:09.000Z</Time>
            <Position>
              <LatitudeDegrees>49.30586772970855236053466796875</LatitudeDegrees>
              <LongitudeDegrees>19.93309755809605121612548828125</LongitudeDegrees>
            </Position>
            <AltitudeMeters>1104.800048828125</AltitudeMeters>
            <DistanceMeters>NAN</DistanceMeters>
          </Trackpoint>
          <Trackpoint>
            <Time>2022-09-19T09:33:10.000Z</Time>
            <Position>
              <LatitudeDegrees>49.305907376110553741455078125</LatitudeDegrees>
              <LongitudeDegrees>19.9330755136907100677490234375</LongitudeDegrees>
            </Position>
            <AltitudeMeters>1106.199951171875</AltitudeMeters>
            <DistanceMeters>NAN</DistanceMeters>
          </Trackpoint>
          <Trackpoint>
            <Time>2022-09-19T09:33:11.000Z</Time>
            <Position>
              <LatitudeDegrees>49.305945932865142822265625</LatitudeDegrees>
              <LongitudeDegrees>19.9330594204366207122802734375</LongitudeDegrees>
            </Position>
            <AltitudeMeters>1107.800048828125</AltitudeMeters>
            <DistanceMeters>NAN</DistanceMeters>
          </Trackpoint>
          <Trackpoint>
            <Time>2022-09-19T09:33:12.000Z</Time>
            <Position>
              <LatitudeDegrees>49.3060030974447727203369140625</LatitudeDegrees>
              <LongitudeDegrees>19.93302849121391773223876953125</LongitudeDegrees>
            </Position>
            <AltitudeMeters>1109.199951171875</AltitudeMeters>
            <DistanceMeters>NAN</DistanceMeters>
          </Trackpoint>
          <Trackpoint>
            <Time>2022-09-19T09:33:13.000Z</Time>
            <Position>
              <LatitudeDegrees>49.3060290813446044921875</LatitudeDegrees>
              <LongitudeDegrees>19.93301491253077983856201171875</LongitudeDegrees>
            </Position>
            <AltitudeMeters>1110.5999755859375</AltitudeMeters>
            <DistanceMeters>NAN</DistanceMeters>
          </Trackpoint>
          <Trackpoint>
            <Time>2022-09-19T09:33:14.000Z</Time>
            <Position>
              <LatitudeDegrees>49.30605934001505374908447265625</LatitudeDegrees>
              <LongitudeDegrees>19.93298121728003025054931640625</LongitudeDegrees>
            </Position>
            <AltitudeMeters>1111.800048828125</AltitudeMeters>
            <DistanceMeters>NAN</DistanceMeters>
          </Trackpoint>
          <Trackpoint>
            <Time>2022-09-19T09:33:15.000Z</Time>
            <Position>
              <LatitudeDegrees>49.306075684726238250732421875</LatitudeDegrees>
              <LongitudeDegrees>19.93295858614146709442138671875</LongitudeDegrees>
            </Position>
            <AltitudeMeters>1113</AltitudeMeters>
            <DistanceMeters>NAN</DistanceMeters>
          </Trackpoint>
          <Trackpoint>
            <Time>2022-09-19T09:33:16.000Z</Time>
            <Position>
              <LatitudeDegrees>49.30609454400837421417236328125</LatitudeDegrees>
              <LongitudeDegrees>19.93292673490941524505615234375</LongitudeDegrees>
            </Position>
            <AltitudeMeters>1114</AltitudeMeters>
            <DistanceMeters>NAN</DistanceMeters>
          </Trackpoint>
          <Trackpoint>
            <Time>2022-09-19T09:33:18.000Z</Time>
            <Position>
              <LatitudeDegrees>49.30611801333725452423095703125</LatitudeDegrees>
              <LongitudeDegrees>19.93288767524063587188720703125</LongitudeDegrees>
            </Position>
            <AltitudeMeters>1116.199951171875</AltitudeMeters>
            <DistanceMeters>NAN</DistanceMeters>
          </Trackpoint>
          <Trackpoint>
            <Time>2022-09-19T09:33:20.000Z</Time>
            <Position>
              <LatitudeDegrees>49.306138046085834503173828125</LatitudeDegrees>
              <LongitudeDegrees>19.93286781013011932373046875</LongitudeDegrees>
            </Position>
            <AltitudeMeters>1117.800048828125</AltitudeMeters>
            <DistanceMeters>NAN</DistanceMeters>
          </Trackpoint>
          <Trackpoint>
            <Time>2022-09-19T09:33:21.000Z</Time>
            <Position>
              <LatitudeDegrees>49.30615137331187725067138671875</LatitudeDegrees>
              <LongitudeDegrees>19.93286018259823322296142578125</LongitudeDegrees>
            </Position>
            <AltitudeMeters>1118.199951171875</AltitudeMeters>
            <DistanceMeters>NAN</DistanceMeters>
          </Trackpoint>
          <Trackpoint>
            <Time>2022-09-19T09:33:22.000Z</Time>
            <Position>
              <LatitudeDegrees>49.30616226978600025177001953125</LatitudeDegrees>
              <LongitudeDegrees>19.932855404913425445556640625</LongitudeDegrees>
            </Position>
            <AltitudeMeters>1118.800048828125</AltitudeMeters>
            <DistanceMeters>NAN</DistanceMeters>
          </Trackpoint>
          <Trackpoint>
            <Time>2022-09-19T09:33:25.000Z</Time>
            <Position>
              <LatitudeDegrees>49.3061824701726436614990234375</LatitudeDegrees>
              <LongitudeDegrees>19.932850040495395660400390625</LongitudeDegrees>
            </Position>
            <AltitudeMeters>1119.800048828125</AltitudeMeters>
            <DistanceMeters>NAN</DistanceMeters>
          </Trackpoint>
          <Trackpoint>
            <Time>2022-09-19T09:33:28.000Z</Time>
            <Position>
              <LatitudeDegrees>49.3061938695609569549560546875</LatitudeDegrees>
              <LongitudeDegrees>19.9328590929508209228515625</LongitudeDegrees>
            </Position>
            <AltitudeMeters>1120.4000244140625</AltitudeMeters>
            <DistanceMeters>NAN</DistanceMeters>
          </Trackpoint>
          <Trackpoint>
            <Time>2022-09-19T09:33:32.000Z</Time>
            <Position>
              <LatitudeDegrees>49.30622228421270847320556640625</LatitudeDegrees>
              <LongitudeDegrees>19.932889603078365325927734375</LongitudeDegrees>
            </Position>
            <AltitudeMeters>1121</AltitudeMeters>
            <DistanceMeters>NAN</DistanceMeters>
          </Trackpoint>
          <Trackpoint>
            <Time>2022-09-19T09:33:36.000Z</Time>
            <Position>
              <LatitudeDegrees>49.306233264505863189697265625</LatitudeDegrees>
              <LongitudeDegrees>19.93288348428905010223388671875</LongitudeDegrees>
            </Position>
            <AltitudeMeters>1121.4000244140625</AltitudeMeters>
            <DistanceMeters>NAN</DistanceMeters>
          </Trackpoint>
          <Trackpoint>
            <Time>2022-09-19T09:33:41.000Z</Time>
            <Position>
              <LatitudeDegrees>49.3062337674200534820556640625</LatitudeDegrees>
              <LongitudeDegrees>19.9328830651938915252685546875</LongitudeDegrees>
            </Position>
            <AltitudeMeters>1122</AltitudeMeters>
            <DistanceMeters>NAN</DistanceMeters>
          </Trackpoint>
          <Trackpoint>
            <Time>2022-09-19T09:34:43.000Z</Time>
            <Position>
              <LatitudeDegrees>49.30635756812989711761474609375</LatitudeDegrees>
              <LongitudeDegrees>19.93297149427235126495361328125</LongitudeDegrees>
            </Position>
            <AltitudeMeters>1122.5999755859375</AltitudeMeters>
            <DistanceMeters>NAN</DistanceMeters>
          </Trackpoint>
          <Trackpoint>
            <Time>2022-09-19T09:34:56.000Z</Time>
            <Position>
              <LatitudeDegrees>49.30629772134125232696533203125</LatitudeDegrees>
              <LongitudeDegrees>19.93301977403461933135986328125</LongitudeDegrees>
            </Position>
            <AltitudeMeters>1122.5999755859375</AltitudeMeters>
            <DistanceMeters>NAN</DistanceMeters>
          </Trackpoint>
          <Trackpoint>
            <Time>2022-09-19T09:35:10.000Z</Time>
            <Position>
              <LatitudeDegrees>49.30629772134125232696533203125</LatitudeDegrees>
              <LongitudeDegrees>19.93301977403461933135986328125</LongitudeDegrees>
            </Position>
            <AltitudeMeters>1122.5999755859375</AltitudeMeters>
            <DistanceMeters>NAN</DistanceMeters>
          </Trackpoint>
          <Trackpoint>
            <Time>2022-09-19T09:35:17.000Z</Time>
            <Position>
              <LatitudeDegrees>49.30629772134125232696533203125</LatitudeDegrees>
              <LongitudeDegrees>19.93301977403461933135986328125</LongitudeDegrees>
            </Position>
            <AltitudeMeters>1122.5999755859375</AltitudeMeters>
            <DistanceMeters>NAN</DistanceMeters>
          </Trackpoint>
          <Trackpoint>
            <Time>2022-09-19T09:35:19.000Z</Time>
            <Position>
              <LatitudeDegrees>49.30629772134125232696533203125</LatitudeDegrees>
              <LongitudeDegrees>19.93301977403461933135986328125</LongitudeDegrees>
            </Position>
            <AltitudeMeters>1122.5999755859375</AltitudeMeters>
            <DistanceMeters>NAN</DistanceMeters>
          </Trackpoint>
          <Trackpoint>
            <Time>2022-09-19T09:35:22.000Z</Time>
            <Position>
              <LatitudeDegrees>49.30630224756896495819091796875</LatitudeDegrees>
              <LongitudeDegrees>19.933017008006572723388671875</LongitudeDegrees>
            </Position>
            <AltitudeMeters>1122.5999755859375</AltitudeMeters>
            <DistanceMeters>NAN</DistanceMeters>
          </Trackpoint>
          <Trackpoint>
            <Time>2022-09-19T09:35:27.000Z</Time>
            <Position>
              <LatitudeDegrees>49.30630224756896495819091796875</LatitudeDegrees>
              <LongitudeDegrees>19.933017008006572723388671875</LongitudeDegrees>
            </Position>
            <AltitudeMeters>1122.800048828125</AltitudeMeters>
            <DistanceMeters>NAN</DistanceMeters>
          </Trackpoint>
          <Trackpoint>
            <Time>2022-09-19T09:35:28.000Z</Time>
            <Position>
              <LatitudeDegrees>49.30630224756896495819091796875</LatitudeDegrees>
              <LongitudeDegrees>19.933017008006572723388671875</LongitudeDegrees>
            </Position>
            <AltitudeMeters>1122.800048828125</AltitudeMeters>
            <DistanceMeters>NAN</DistanceMeters>
          </Trackpoint>
          <Trackpoint>
            <Time>2022-09-19T09:35:44.000Z</Time>
            <Position>
              <LatitudeDegrees>49.3063222803175449371337890625</LatitudeDegrees>
              <LongitudeDegrees>19.9329856596887111663818359375</LongitudeDegrees>
            </Position>
            <AltitudeMeters>1122.800048828125</AltitudeMeters>
            <DistanceMeters>NAN</DistanceMeters>
          </Trackpoint>
          <Trackpoint>
            <Time>2022-09-19T09:35:59.000Z</Time>
            <Position>
              <LatitudeDegrees>49.30632219649851322174072265625</LatitudeDegrees>
              <LongitudeDegrees>19.9329923652112483978271484375</LongitudeDegrees>
            </Position>
            <AltitudeMeters>1122.800048828125</AltitudeMeters>
            <DistanceMeters>NAN</DistanceMeters>
          </Trackpoint>
          <Trackpoint>
            <Time>2022-09-19T09:36:13.000Z</Time>
            <Position>
              <LatitudeDegrees>49.30631984956562519073486328125</LatitudeDegrees>
              <LongitudeDegrees>19.9330215342342853546142578125</LongitudeDegrees>
            </Position>
            <AltitudeMeters>1122.800048828125</AltitudeMeters>
            <DistanceMeters>NAN</DistanceMeters>
          </Trackpoint>
          <Trackpoint>
            <Time>2022-09-19T09:36:20.000Z</Time>
            <Position>
              <LatitudeDegrees>49.306319765746593475341796875</LatitudeDegrees>
              <LongitudeDegrees>19.9330252222716808319091796875</LongitudeDegrees>
            </Position>
            <AltitudeMeters>1122.800048828125</AltitudeMeters>
            <DistanceMeters>NAN</DistanceMeters>
          </Trackpoint>
          <Trackpoint>
            <Time>2022-09-19T09:36:22.000Z</Time>
            <Position>
              <LatitudeDegrees>49.306319765746593475341796875</LatitudeDegrees>
              <LongitudeDegrees>19.9330252222716808319091796875</LongitudeDegrees>
            </Position>
            <AltitudeMeters>1122.800048828125</AltitudeMeters>
            <DistanceMeters>NAN</DistanceMeters>
          </Trackpoint>
          <Trackpoint>
            <Time>2022-09-19T09:36:43.000Z</Time>
            <Position>
              <LatitudeDegrees>49.306319765746593475341796875</LatitudeDegrees>
              <LongitudeDegrees>19.9330252222716808319091796875</LongitudeDegrees>
            </Position>
            <AltitudeMeters>1122.800048828125</AltitudeMeters>
            <DistanceMeters>NAN</DistanceMeters>
          </Trackpoint>
          <Trackpoint>
            <Time>2022-09-19T09:37:00.000Z</Time>
            <Position>
              <LatitudeDegrees>49.30631968192756175994873046875</LatitudeDegrees>
              <LongitudeDegrees>19.93302212096750736236572265625</LongitudeDegrees>
            </Position>
            <AltitudeMeters>1122.800048828125</AltitudeMeters>
            <DistanceMeters>NAN</DistanceMeters>
          </Trackpoint>
          <Trackpoint>
            <Time>2022-09-19T09:37:03.000Z</Time>
            <Position>
              <LatitudeDegrees>49.30631968192756175994873046875</LatitudeDegrees>
              <LongitudeDegrees>19.93302212096750736236572265625</LongitudeDegrees>
            </Position>
            <AltitudeMeters>1122.800048828125</AltitudeMeters>
            <DistanceMeters>NAN</DistanceMeters>
          </Trackpoint>
          <Trackpoint>
            <Time>2022-09-19T09:37:07.000Z</Time>
            <Position>
              <LatitudeDegrees>49.30631968192756175994873046875</LatitudeDegrees>
              <LongitudeDegrees>19.93302212096750736236572265625</LongitudeDegrees>
            </Position>
            <AltitudeMeters>1122.800048828125</AltitudeMeters>
            <DistanceMeters>NAN</DistanceMeters>
          </Trackpoint>
          <Trackpoint>
            <Time>2022-09-19T09:37:14.000Z</Time>
            <Position>
              <LatitudeDegrees>49.30631716735661029815673828125</LatitudeDegrees>
              <LongitudeDegrees>19.93302212096750736236572265625</LongitudeDegrees>
            </Position>
            <AltitudeMeters>1122.800048828125</AltitudeMeters>
            <DistanceMeters>NAN</DistanceMeters>
          </Trackpoint>
          <Trackpoint>
            <Time>2022-09-19T09:37:20.000Z</Time>
            <Position>
              <LatitudeDegrees>49.30631716735661029815673828125</LatitudeDegrees>
              <LongitudeDegrees>19.93302212096750736236572265625</LongitudeDegrees>
            </Position>
            <AltitudeMeters>1122.800048828125</AltitudeMeters>
            <DistanceMeters>NAN</DistanceMeters>
          </Trackpoint>
          <Trackpoint>
            <Time>2022-09-19T09:37:38.000Z</Time>
            <Position>
              <LatitudeDegrees>49.3062937818467617034912109375</LatitudeDegrees>
              <LongitudeDegrees>19.93302245624363422393798828125</LongitudeDegrees>
            </Position>
            <AltitudeMeters>1122.800048828125</AltitudeMeters>
            <DistanceMeters>NAN</DistanceMeters>
          </Trackpoint>
          <Trackpoint>
            <Time>2022-09-19T09:38:01.000Z</Time>
            <Position>
              <LatitudeDegrees>49.30629336275160312652587890625</LatitudeDegrees>
              <LongitudeDegrees>19.93302471935749053955078125</LongitudeDegrees>
            </Position>
            <AltitudeMeters>1122.800048828125</AltitudeMeters>
            <DistanceMeters>NAN</DistanceMeters>
          </Trackpoint>
          <Trackpoint>
            <Time>2022-09-19T09:38:19.000Z</Time>
            <Position>
              <LatitudeDegrees>49.30628967471420764923095703125</LatitudeDegrees>
              <LongitudeDegrees>19.93302983231842517852783203125</LongitudeDegrees>
            </Position>
            <AltitudeMeters>1122.5999755859375</AltitudeMeters>
            <DistanceMeters>NAN</DistanceMeters>
          </Trackpoint>
          <Trackpoint>
            <Time>2022-09-19T09:38:24.000Z</Time>
            <Position>
              <LatitudeDegrees>49.30628967471420764923095703125</LatitudeDegrees>
              <LongitudeDegrees>19.93302983231842517852783203125</LongitudeDegrees>
            </Position>
            <AltitudeMeters>1122.800048828125</AltitudeMeters>
            <DistanceMeters>NAN</DistanceMeters>
          </Trackpoint>
          <Trackpoint>
            <Time>2022-09-19T09:38:27.000Z</Time>
            <Position>
              <LatitudeDegrees>49.30629336275160312652587890625</LatitudeDegrees>
              <LongitudeDegrees>19.9330232106149196624755859375</LongitudeDegrees>
            </Position>
            <AltitudeMeters>1122.800048828125</AltitudeMeters>
            <DistanceMeters>NAN</DistanceMeters>
          </Trackpoint>
          <Trackpoint>
            <Time>2022-09-19T09:38:29.000Z</Time>
            <Position>
              <LatitudeDegrees>49.30629336275160312652587890625</LatitudeDegrees>
              <LongitudeDegrees>19.9330232106149196624755859375</LongitudeDegrees>
            </Position>
            <AltitudeMeters>1122.800048828125</AltitudeMeters>
            <DistanceMeters>NAN</DistanceMeters>
          </Trackpoint>
          <Trackpoint>
            <Time>2022-09-19T09:38:33.000Z</Time>
            <Position>
              <LatitudeDegrees>49.30629336275160312652587890625</LatitudeDegrees>
              <LongitudeDegrees>19.93302203714847564697265625</LongitudeDegrees>
            </Position>
            <AltitudeMeters>1122.800048828125</AltitudeMeters>
            <DistanceMeters>NAN</DistanceMeters>
          </Trackpoint>
          <Trackpoint>
            <Time>2022-09-19T09:38:39.000Z</Time>
            <Position>
              <LatitudeDegrees>49.30629336275160312652587890625</LatitudeDegrees>
              <LongitudeDegrees>19.93302203714847564697265625</LongitudeDegrees>
            </Position>
            <AltitudeMeters>1123</AltitudeMeters>
            <DistanceMeters>NAN</DistanceMeters>
          </Trackpoint>
          <Trackpoint>
            <Time>2022-09-19T09:38:53.000Z</Time>
            <Position>
              <LatitudeDegrees>49.30629285983741283416748046875</LatitudeDegrees>
              <LongitudeDegrees>19.93302212096750736236572265625</LongitudeDegrees>
            </Position>
            <AltitudeMeters>1122.800048828125</AltitudeMeters>
            <DistanceMeters>NAN</DistanceMeters>
          </Trackpoint>
          <Trackpoint>
            <Time>2022-09-19T09:39:01.000Z</Time>
            <Position>
              <LatitudeDegrees>49.30629285983741283416748046875</LatitudeDegrees>
              <LongitudeDegrees>19.93302212096750736236572265625</LongitudeDegrees>
            </Position>
            <AltitudeMeters>1122.5999755859375</AltitudeMeters>
            <DistanceMeters>NAN</DistanceMeters>
          </Trackpoint>
          <Trackpoint>
            <Time>2022-09-19T09:39:09.000Z</Time>
            <Position>
              <LatitudeDegrees>49.30629168637096881866455078125</LatitudeDegrees>
              <LongitudeDegrees>19.93302203714847564697265625</LongitudeDegrees>
            </Position>
            <AltitudeMeters>1123</AltitudeMeters>
            <DistanceMeters>NAN</DistanceMeters>
          </Trackpoint>
          <Trackpoint>
            <Time>2022-09-19T09:39:14.000Z</Time>
            <Position>
              <LatitudeDegrees>49.30629168637096881866455078125</LatitudeDegrees>
              <LongitudeDegrees>19.9330148287117481231689453125</LongitudeDegrees>
            </Position>
            <AltitudeMeters>1123</AltitudeMeters>
            <DistanceMeters>NAN</DistanceMeters>
          </Trackpoint>
          <Trackpoint>
            <Time>2022-09-19T09:39:21.000Z</Time>
            <Position>
              <LatitudeDegrees>49.30629135109484195709228515625</LatitudeDegrees>
              <LongitudeDegrees>19.93301206268370151519775390625</LongitudeDegrees>
            </Position>
            <AltitudeMeters>1123</AltitudeMeters>
            <DistanceMeters>NAN</DistanceMeters>
          </Trackpoint>
          <Trackpoint>
            <Time>2022-09-19T09:39:32.000Z</Time>
            <Position>
              <LatitudeDegrees>49.30628984235227108001708984375</LatitudeDegrees>
              <LongitudeDegrees>19.93302530609071254730224609375</LongitudeDegrees>
            </Position>
            <AltitudeMeters>1123</AltitudeMeters>
            <DistanceMeters>NAN</DistanceMeters>
          </Trackpoint>
          <Trackpoint>
            <Time>2022-09-19T09:39:38.000Z</Time>
            <Position>
              <LatitudeDegrees>49.306288920342922210693359375</LatitudeDegrees>
              <LongitudeDegrees>19.93302597664296627044677734375</LongitudeDegrees>
            </Position>
            <AltitudeMeters>1123</AltitudeMeters>
            <DistanceMeters>NAN</DistanceMeters>
          </Trackpoint>
          <Trackpoint>
            <Time>2022-09-19T09:39:54.000Z</Time>
            <Position>
              <LatitudeDegrees>49.306288920342922210693359375</LatitudeDegrees>
              <LongitudeDegrees>19.93304215371608734130859375</LongitudeDegrees>
            </Position>
            <AltitudeMeters>1123</AltitudeMeters>
            <DistanceMeters>NAN</DistanceMeters>
          </Trackpoint>
          <Trackpoint>
            <Time>2022-09-19T09:40:03.000Z</Time>
            <Position>
              <LatitudeDegrees>49.30628724396228790283203125</LatitudeDegrees>
              <LongitudeDegrees>19.933050535619258880615234375</LongitudeDegrees>
            </Position>
            <AltitudeMeters>1123</AltitudeMeters>
            <DistanceMeters>NAN</DistanceMeters>
          </Trackpoint>
          <Trackpoint>
            <Time>2022-09-19T09:40:09.000Z</Time>
            <Position>
              <LatitudeDegrees>49.30628724396228790283203125</LatitudeDegrees>
              <LongitudeDegrees>19.933050535619258880615234375</LongitudeDegrees>
            </Position>
            <AltitudeMeters>1123</AltitudeMeters>
            <DistanceMeters>NAN</DistanceMeters>
          </Trackpoint>
          <Trackpoint>
            <Time>2022-09-19T09:40:53.000Z</Time>
            <Position>
              <LatitudeDegrees>49.30628724396228790283203125</LatitudeDegrees>
              <LongitudeDegrees>19.933050535619258880615234375</LongitudeDegrees>
            </Position>
            <AltitudeMeters>1123</AltitudeMeters>
            <DistanceMeters>NAN</DistanceMeters>
          </Trackpoint>
          <Trackpoint>
            <Time>2022-09-19T09:41:26.000Z</Time>
            <Position>
              <LatitudeDegrees>49.30628724396228790283203125</LatitudeDegrees>
              <LongitudeDegrees>19.933050535619258880615234375</LongitudeDegrees>
            </Position>
            <AltitudeMeters>1123</AltitudeMeters>
            <DistanceMeters>NAN</DistanceMeters>
          </Trackpoint>
          <Trackpoint>
            <Time>2022-09-19T09:41:28.000Z</Time>
            <Position>
              <LatitudeDegrees>49.30628724396228790283203125</LatitudeDegrees>
              <LongitudeDegrees>19.933050535619258880615234375</LongitudeDegrees>
            </Position>
            <AltitudeMeters>1123</AltitudeMeters>
            <DistanceMeters>NAN</DistanceMeters>
          </Trackpoint>
          <Trackpoint>
            <Time>2022-09-19T09:41:36.000Z</Time>
            <Position>
              <LatitudeDegrees>49.30628724396228790283203125</LatitudeDegrees>
              <LongitudeDegrees>19.933050535619258880615234375</LongitudeDegrees>
            </Position>
            <AltitudeMeters>1123</AltitudeMeters>
            <DistanceMeters>NAN</DistanceMeters>
          </Trackpoint>
          <Trackpoint>
            <Time>2022-09-19T09:41:42.000Z</Time>
            <Position>
              <LatitudeDegrees>49.30628724396228790283203125</LatitudeDegrees>
              <LongitudeDegrees>19.933050535619258880615234375</LongitudeDegrees>
            </Position>
            <AltitudeMeters>1123</AltitudeMeters>
            <DistanceMeters>NAN</DistanceMeters>
          </Trackpoint>
          <Trackpoint>
            <Time>2022-09-19T09:41:49.000Z</Time>
            <Position>
              <LatitudeDegrees>49.30633594281971454620361328125</LatitudeDegrees>
              <LongitudeDegrees>19.9330356158316135406494140625</LongitudeDegrees>
            </Position>
            <AltitudeMeters>1123</AltitudeMeters>
            <DistanceMeters>NAN</DistanceMeters>
          </Trackpoint>
          <Trackpoint>
            <Time>2022-09-19T09:41:56.000Z</Time>
            <Position>
              <LatitudeDegrees>49.306377433240413665771484375</LatitudeDegrees>
              <LongitudeDegrees>19.9330885894596576690673828125</LongitudeDegrees>
            </Position>
            <AltitudeMeters>1123</AltitudeMeters>
            <DistanceMeters>NAN</DistanceMeters>
          </Trackpoint>
          <Trackpoint>
            <Time>2022-09-19T09:42:04.000Z</Time>
            <Position>
              <LatitudeDegrees>49.306399561464786529541015625</LatitudeDegrees>
              <LongitudeDegrees>19.93313360027968883514404296875</LongitudeDegrees>
            </Position>
            <AltitudeMeters>1123</AltitudeMeters>
            <DistanceMeters>NAN</DistanceMeters>
          </Trackpoint>
          <Trackpoint>
            <Time>2022-09-19T09:42:12.000Z</Time>
            <Position>
              <LatitudeDegrees>49.30642294697463512420654296875</LatitudeDegrees>
              <LongitudeDegrees>19.93317282758653163909912109375</LongitudeDegrees>
            </Position>
            <AltitudeMeters>1123</AltitudeMeters>
            <DistanceMeters>NAN</DistanceMeters>
          </Trackpoint>
          <Trackpoint>
            <Time>2022-09-19T09:42:20.000Z</Time>
            <Position>
              <LatitudeDegrees>49.3064288981258869171142578125</LatitudeDegrees>
              <LongitudeDegrees>19.93325807154178619384765625</LongitudeDegrees>
            </Position>
            <AltitudeMeters>1123</AltitudeMeters>
            <DistanceMeters>NAN</DistanceMeters>
          </Trackpoint>
          <Trackpoint>
            <Time>2022-09-19T09:42:22.000Z</Time>
            <Position>
              <LatitudeDegrees>49.30643744766712188720703125</LatitudeDegrees>
              <LongitudeDegrees>19.93328380398452281951904296875</LongitudeDegrees>
            </Position>
            <AltitudeMeters>1123</AltitudeMeters>
            <DistanceMeters>NAN</DistanceMeters>
          </Trackpoint>
          <Trackpoint>
            <Time>2022-09-19T09:42:28.000Z</Time>
            <Position>
              <LatitudeDegrees>49.306469969451427459716796875</LatitudeDegrees>
              <LongitudeDegrees>19.9333695508539676666259765625</LongitudeDegrees>
            </Position>
            <AltitudeMeters>1123</AltitudeMeters>
            <DistanceMeters>NAN</DistanceMeters>
          </Trackpoint>
          <Trackpoint>
            <Time>2022-09-19T09:42:29.000Z</Time>
            <Position>
              <LatitudeDegrees>49.3064815364778041839599609375</LatitudeDegrees>
              <LongitudeDegrees>19.9333916790783405303955078125</LongitudeDegrees>
            </Position>
            <AltitudeMeters>1123</AltitudeMeters>
            <DistanceMeters>NAN</DistanceMeters>
          </Trackpoint>
          <Trackpoint>
            <Time>2022-09-19T09:42:31.000Z</Time>
            <Position>
              <LatitudeDegrees>49.30649000220000743865966796875</LatitudeDegrees>
              <LongitudeDegrees>19.93341908790171146392822265625</LongitudeDegrees>
            </Position>
            <AltitudeMeters>1123</AltitudeMeters>
            <DistanceMeters>NAN</DistanceMeters>
          </Trackpoint>
          <Trackpoint>
            <Time>2022-09-19T09:42:33.000Z</Time>
            <Position>
              <LatitudeDegrees>49.30649134330451488494873046875</LatitudeDegrees>
              <LongitudeDegrees>19.93342344649136066436767578125</LongitudeDegrees>
            </Position>
            <AltitudeMeters>1122.800048828125</AltitudeMeters>
            <DistanceMeters>NAN</DistanceMeters>
          </Trackpoint>
          <Trackpoint>
            <Time>2022-09-19T09:42:36.000Z</Time>
            <Position>
              <LatitudeDegrees>49.30648379959166049957275390625</LatitudeDegrees>
              <LongitudeDegrees>19.93345781229436397552490234375</LongitudeDegrees>
            </Position>
            <AltitudeMeters>1122.5999755859375</AltitudeMeters>
            <DistanceMeters>NAN</DistanceMeters>
          </Trackpoint>
          <Trackpoint>
            <Time>2022-09-19T09:42:37.000Z</Time>
            <Position>
              <LatitudeDegrees>49.3064915947616100311279296875</LatitudeDegrees>
              <LongitudeDegrees>19.933487735688686370849609375</LongitudeDegrees>
            </Position>
            <AltitudeMeters>1122.5999755859375</AltitudeMeters>
            <DistanceMeters>NAN</DistanceMeters>
          </Trackpoint>
          <Trackpoint>
            <Time>2022-09-19T09:42:45.000Z</Time>
            <Position>
              <LatitudeDegrees>49.3065331690013408660888671875</LatitudeDegrees>
              <LongitudeDegrees>19.933607093989849090576171875</LongitudeDegrees>
            </Position>
            <AltitudeMeters>1122.4000244140625</AltitudeMeters>
            <DistanceMeters>NAN</DistanceMeters>
          </Trackpoint>
          <Trackpoint>
            <Time>2022-09-19T09:42:54.000Z</Time>
            <Position>
              <LatitudeDegrees>49.30658404715359210968017578125</LatitudeDegrees>
              <LongitudeDegrees>19.9337514303624629974365234375</LongitudeDegrees>
            </Position>
            <AltitudeMeters>1122.199951171875</AltitudeMeters>
            <DistanceMeters>NAN</DistanceMeters>
          </Trackpoint>
          <Trackpoint>
            <Time>2022-09-19T09:43:02.000Z</Time>
            <Position>
              <LatitudeDegrees>49.30661019869148731231689453125</LatitudeDegrees>
              <LongitudeDegrees>19.93385092355310916900634765625</LongitudeDegrees>
            </Position>
            <AltitudeMeters>1122.199951171875</AltitudeMeters>
            <DistanceMeters>NAN</DistanceMeters>
          </Trackpoint>
          <Trackpoint>
            <Time>2022-09-19T09:43:10.000Z</Time>
            <Position>
              <LatitudeDegrees>49.30662847124040126800537109375</LatitudeDegrees>
              <LongitudeDegrees>19.9339284561574459075927734375</LongitudeDegrees>
            </Position>
            <AltitudeMeters>1122.199951171875</AltitudeMeters>
            <DistanceMeters>NAN</DistanceMeters>
          </Trackpoint>
          <Trackpoint>
            <Time>2022-09-19T09:43:15.000Z</Time>
            <Position>
              <LatitudeDegrees>49.306661747395992279052734375</LatitudeDegrees>
              <LongitudeDegrees>19.9339950084686279296875</LongitudeDegrees>
            </Position>
            <AltitudeMeters>1122.4000244140625</AltitudeMeters>
            <DistanceMeters>NAN</DistanceMeters>
          </Trackpoint>
          <Trackpoint>
            <Time>2022-09-19T09:43:20.000Z</Time>
            <Position>
              <LatitudeDegrees>49.30668731220066547393798828125</LatitudeDegrees>
              <LongitudeDegrees>19.9340541847050189971923828125</LongitudeDegrees>
            </Position>
            <AltitudeMeters>1122.4000244140625</AltitudeMeters>
            <DistanceMeters>NAN</DistanceMeters>
          </Trackpoint>
          <Trackpoint>
            <Time>2022-09-19T09:43:28.000Z</Time>
            <Position>
              <LatitudeDegrees>49.306744895875453948974609375</LatitudeDegrees>
              <LongitudeDegrees>19.93407673202455043792724609375</LongitudeDegrees>
            </Position>
            <AltitudeMeters>1122.800048828125</AltitudeMeters>
            <DistanceMeters>NAN</DistanceMeters>
          </Trackpoint>
          <Trackpoint>
            <Time>2022-09-19T09:43:34.000Z</Time>
            <Position>
              <LatitudeDegrees>49.306807927787303924560546875</LatitudeDegrees>
              <LongitudeDegrees>19.93407790549099445343017578125</LongitudeDegrees>
            </Position>
            <AltitudeMeters>1123.199951171875</AltitudeMeters>
            <DistanceMeters>NAN</DistanceMeters>
          </Trackpoint>
          <Trackpoint>
            <Time>2022-09-19T09:43:38.000Z</Time>
            <Position>
              <LatitudeDegrees>49.3068270385265350341796875</LatitudeDegrees>
              <LongitudeDegrees>19.9340625666081905364990234375</LongitudeDegrees>
            </Position>
            <AltitudeMeters>1124</AltitudeMeters>
            <DistanceMeters>NAN</DistanceMeters>
          </Trackpoint>
          <Trackpoint>
            <Time>2022-09-19T09:43:39.000Z</Time>
            <Position>
              <LatitudeDegrees>49.30683131329715251922607421875</LatitudeDegrees>
              <LongitudeDegrees>19.93405929766595363616943359375</LongitudeDegrees>
            </Position>
            <AltitudeMeters>1124.199951171875</AltitudeMeters>
            <DistanceMeters>NAN</DistanceMeters>
          </Trackpoint>
          <Trackpoint>
            <Time>2022-09-19T09:43:46.000Z</Time>
            <Position>
              <LatitudeDegrees>49.30688294582068920135498046875</LatitudeDegrees>
              <LongitudeDegrees>19.93403281085193157196044921875</LongitudeDegrees>
            </Position>
            <AltitudeMeters>1125.199951171875</AltitudeMeters>
            <DistanceMeters>NAN</DistanceMeters>
          </Trackpoint>
          <Trackpoint>
            <Time>2022-09-19T09:43:47.000Z</Time>
            <Position>
              <LatitudeDegrees>49.306892417371273040771484375</LatitudeDegrees>
              <LongitudeDegrees>19.934027194976806640625</LongitudeDegrees>
            </Position>
            <AltitudeMeters>1125.199951171875</AltitudeMeters>
            <DistanceMeters>NAN</DistanceMeters>
          </Trackpoint>
          <Trackpoint>
            <Time>2022-09-19T09:43:49.000Z</Time>
            <Position>
              <LatitudeDegrees>49.3069127015769481658935546875</LatitudeDegrees>
              <LongitudeDegrees>19.9340166337788105010986328125</LongitudeDegrees>
            </Position>
            <AltitudeMeters>1125.4000244140625</AltitudeMeters>
            <DistanceMeters>NAN</DistanceMeters>
          </Trackpoint>
          <Trackpoint>
            <Time>2022-09-19T09:43:57.000Z</Time>
            <Position>
              <LatitudeDegrees>49.30697648786008358001708984375</LatitudeDegrees>
              <LongitudeDegrees>19.933972544968128204345703125</LongitudeDegrees>
            </Position>
            <AltitudeMeters>1125.5999755859375</AltitudeMeters>
            <DistanceMeters>NAN</DistanceMeters>
          </Trackpoint>
          <Trackpoint>
            <Time>2022-09-19T09:44:02.000Z</Time>
            <Position>
              <LatitudeDegrees>49.30701387114822864532470703125</LatitudeDegrees>
              <LongitudeDegrees>19.9339485727250576019287109375</LongitudeDegrees>
            </Position>
            <AltitudeMeters>1126.199951171875</AltitudeMeters>
            <DistanceMeters>NAN</DistanceMeters>
          </Trackpoint>
          <Trackpoint>
            <Time>2022-09-19T09:44:06.000Z</Time>
            <Position>
              <LatitudeDegrees>49.30704454891383647918701171875</LatitudeDegrees>
              <LongitudeDegrees>19.93395519442856311798095703125</LongitudeDegrees>
            </Position>
            <AltitudeMeters>1126.4000244140625</AltitudeMeters>
            <DistanceMeters>NAN</DistanceMeters>
          </Trackpoint>
          <Trackpoint>
            <Time>2022-09-19T09:44:13.000Z</Time>
            <Position>
              <LatitudeDegrees>49.30706198327243328094482421875</LatitudeDegrees>
              <LongitudeDegrees>19.933983273804187774658203125</LongitudeDegrees>
            </Position>
            <AltitudeMeters>1126.800048828125</AltitudeMeters>
            <DistanceMeters>NAN</DistanceMeters>
          </Trackpoint>
          <Trackpoint>
            <Time>2022-09-19T09:44:22.000Z</Time>
            <Position>
              <LatitudeDegrees>49.30706198327243328094482421875</LatitudeDegrees>
              <LongitudeDegrees>19.933983273804187774658203125</LongitudeDegrees>
            </Position>
            <AltitudeMeters>1127</AltitudeMeters>
            <DistanceMeters>NAN</DistanceMeters>
          </Trackpoint>
          <Trackpoint>
            <Time>2022-09-19T09:44:30.000Z</Time>
            <Position>
              <LatitudeDegrees>49.30706441402435302734375</LatitudeDegrees>
              <LongitudeDegrees>19.93398503400385379791259765625</LongitudeDegrees>
            </Position>
            <AltitudeMeters>1126.800048828125</AltitudeMeters>
            <DistanceMeters>NAN</DistanceMeters>
          </Trackpoint>
          <Trackpoint>
            <Time>2022-09-19T09:44:33.000Z</Time>
            <Position>
              <LatitudeDegrees>49.30708008818328380584716796875</LatitudeDegrees>
              <LongitudeDegrees>19.93405091576278209686279296875</LongitudeDegrees>
            </Position>
            <AltitudeMeters>1127</AltitudeMeters>
            <DistanceMeters>NAN</DistanceMeters>
          </Trackpoint>
          <Trackpoint>
            <Time>2022-09-19T09:44:39.000Z</Time>
            <Position>
              <LatitudeDegrees>49.307147562503814697265625</LatitudeDegrees>
              <LongitudeDegrees>19.93421570397913455963134765625</LongitudeDegrees>
            </Position>
            <AltitudeMeters>1126.800048828125</AltitudeMeters>
            <DistanceMeters>NAN</DistanceMeters>
          </Trackpoint>
          <Trackpoint>
            <Time>2022-09-19T09:44:45.000Z</Time>
            <Position>
              <LatitudeDegrees>49.3072070740163326263427734375</LatitudeDegrees>
              <LongitudeDegrees>19.93442349135875701904296875</LongitudeDegrees>
            </Position>
            <AltitudeMeters>1126.800048828125</AltitudeMeters>
            <DistanceMeters>NAN</DistanceMeters>
          </Trackpoint>
          <Trackpoint>
            <Time>2022-09-19T09:44:48.000Z</Time>
            <Position>
              <LatitudeDegrees>49.30722811259329319000244140625</LatitudeDegrees>
              <LongitudeDegrees>19.934518039226531982421875</LongitudeDegrees>
            </Position>
            <AltitudeMeters>1126.800048828125</AltitudeMeters>
            <DistanceMeters>NAN</DistanceMeters>
          </Trackpoint>
          <Trackpoint>
            <Time>2022-09-19T09:44:49.000Z</Time>
            <Position>
              <LatitudeDegrees>49.307237081229686737060546875</LatitudeDegrees>
              <LongitudeDegrees>19.934547878801822662353515625</LongitudeDegrees>
            </Position>
            <AltitudeMeters>1126.800048828125</AltitudeMeters>
            <DistanceMeters>NAN</DistanceMeters>
          </Trackpoint>
          <Trackpoint>
            <Time>2022-09-19T09:44:51.000Z</Time>
            <Position>
              <LatitudeDegrees>49.3072556890547275543212890625</LatitudeDegrees>
              <LongitudeDegrees>19.93460319936275482177734375</LongitudeDegrees>
            </Position>
            <AltitudeMeters>1126.800048828125</AltitudeMeters>
            <DistanceMeters>NAN</DistanceMeters>
          </Trackpoint>
          <Trackpoint>
            <Time>2022-09-19T09:44:53.000Z</Time>
            <Position>
              <LatitudeDegrees>49.30727186612784862518310546875</LatitudeDegrees>
              <LongitudeDegrees>19.93465072475373744964599609375</LongitudeDegrees>
            </Position>
            <AltitudeMeters>1126.800048828125</AltitudeMeters>
            <DistanceMeters>NAN</DistanceMeters>
          </Trackpoint>
          <Trackpoint>
            <Time>2022-09-19T09:44:57.000Z</Time>
            <Position>
              <LatitudeDegrees>49.3073046393692493438720703125</LatitudeDegrees>
              <LongitudeDegrees>19.9347331188619136810302734375</LongitudeDegrees>
            </Position>
            <AltitudeMeters>1126.800048828125</AltitudeMeters>
            <DistanceMeters>NAN</DistanceMeters>
          </Trackpoint>
          <Trackpoint>
            <Time>2022-09-19T09:44:58.000Z</Time>
            <Position>
              <LatitudeDegrees>49.30730874650180339813232421875</LatitudeDegrees>
              <LongitudeDegrees>19.9347515590488910675048828125</LongitudeDegrees>
            </Position>
            <AltitudeMeters>1126.800048828125</AltitudeMeters>
            <DistanceMeters>NAN</DistanceMeters>
          </Trackpoint>
          <Trackpoint>
            <Time>2022-09-19T09:45:03.000Z</Time>
            <Position>
              <LatitudeDegrees>49.30735015310347080230712890625</LatitudeDegrees>
              <LongitudeDegrees>19.93489933200180530548095703125</LongitudeDegrees>
            </Position>
            <AltitudeMeters>1127</AltitudeMeters>
            <DistanceMeters>NAN</DistanceMeters>
          </Trackpoint>
          <Trackpoint>
            <Time>2022-09-19T09:45:08.000Z</Time>
            <Position>
              <LatitudeDegrees>49.30739809758961200714111328125</LatitudeDegrees>
              <LongitudeDegrees>19.93506319820880889892578125</LongitudeDegrees>
            </Position>
            <AltitudeMeters>1127</AltitudeMeters>
            <DistanceMeters>NAN</DistanceMeters>
          </Trackpoint>
          <Trackpoint>
            <Time>2022-09-19T09:45:09.000Z</Time>
            <Position>
              <LatitudeDegrees>49.30740463547408580780029296875</LatitudeDegrees>
              <LongitudeDegrees>19.93509395979344844818115234375</LongitudeDegrees>
            </Position>
            <AltitudeMeters>1127</AltitudeMeters>
            <DistanceMeters>NAN</DistanceMeters>
          </Trackpoint>
          <Trackpoint>
            <Time>2022-09-19T09:45:18.000Z</Time>
            <Position>
              <LatitudeDegrees>49.30746548809111118316650390625</LatitudeDegrees>
              <LongitudeDegrees>19.935377351939678192138671875</LongitudeDegrees>
            </Position>
            <AltitudeMeters>1127</AltitudeMeters>
            <DistanceMeters>NAN</DistanceMeters>
          </Trackpoint>
          <Trackpoint>
            <Time>2022-09-19T09:45:20.000Z</Time>
            <Position>
              <LatitudeDegrees>49.30748241953551769256591796875</LatitudeDegrees>
              <LongitudeDegrees>19.935418926179409027099609375</LongitudeDegrees>
            </Position>
            <AltitudeMeters>1127.199951171875</AltitudeMeters>
            <DistanceMeters>NAN</DistanceMeters>
          </Trackpoint>
          <Trackpoint>
            <Time>2022-09-19T09:45:24.000Z</Time>
            <Position>
              <LatitudeDegrees>49.307530783116817474365234375</LatitudeDegrees>
              <LongitudeDegrees>19.935498051345348358154296875</LongitudeDegrees>
            </Position>
            <AltitudeMeters>1127.4000244140625</AltitudeMeters>
            <DistanceMeters>NAN</DistanceMeters>
          </Trackpoint>
          <Trackpoint>
            <Time>2022-09-19T09:45:31.000Z</Time>
            <Position>
              <LatitudeDegrees>49.30759876035153865814208984375</LatitudeDegrees>
              <LongitudeDegrees>19.93562419898808002471923828125</LongitudeDegrees>
            </Position>
            <AltitudeMeters>1127.5999755859375</AltitudeMeters>
            <DistanceMeters>NAN</DistanceMeters>
          </Trackpoint>
          <Trackpoint>
            <Time>2022-09-19T09:45:33.000Z</Time>
            <Position>
              <LatitudeDegrees>49.307609237730503082275390625</LatitudeDegrees>
              <LongitudeDegrees>19.93565571494400501251220703125</LongitudeDegrees>
            </Position>
            <AltitudeMeters>1127.4000244140625</AltitudeMeters>
            <DistanceMeters>NAN</DistanceMeters>
          </Trackpoint>
          <Trackpoint>
            <Time>2022-09-19T09:45:36.000Z</Time>
            <Position>
              <LatitudeDegrees>49.307609908282756805419921875</LatitudeDegrees>
              <LongitudeDegrees>19.9356618337333202362060546875</LongitudeDegrees>
            </Position>
            <AltitudeMeters>1127.4000244140625</AltitudeMeters>
            <DistanceMeters>NAN</DistanceMeters>
          </Trackpoint>
          <Trackpoint>
            <Time>2022-09-19T09:45:38.000Z</Time>
            <Position>
              <LatitudeDegrees>49.307609908282756805419921875</LatitudeDegrees>
              <LongitudeDegrees>19.9356618337333202362060546875</LongitudeDegrees>
            </Position>
            <AltitudeMeters>1127.4000244140625</AltitudeMeters>
            <DistanceMeters>NAN</DistanceMeters>
          </Trackpoint>
          <Trackpoint>
            <Time>2022-09-19T09:45:48.000Z</Time>
            <Position>
              <LatitudeDegrees>49.3076140992343425750732421875</LatitudeDegrees>
              <LongitudeDegrees>19.935660660266876220703125</LongitudeDegrees>
            </Position>
            <AltitudeMeters>1127.4000244140625</AltitudeMeters>
            <DistanceMeters>NAN</DistanceMeters>
          </Trackpoint>
          <Trackpoint>
            <Time>2022-09-19T09:45:58.000Z</Time>
            <Position>
              <LatitudeDegrees>49.3076140992343425750732421875</LatitudeDegrees>
              <LongitudeDegrees>19.9356618337333202362060546875</LongitudeDegrees>
            </Position>
            <AltitudeMeters>1127.4000244140625</AltitudeMeters>
            <DistanceMeters>NAN</DistanceMeters>
          </Trackpoint>
          <Trackpoint>
            <Time>2022-09-19T09:46:06.000Z</Time>
            <Position>
              <LatitudeDegrees>49.30759482085704803466796875</LatitudeDegrees>
              <LongitudeDegrees>19.9356678687036037445068359375</LongitudeDegrees>
            </Position>
            <AltitudeMeters>1127.4000244140625</AltitudeMeters>
            <DistanceMeters>NAN</DistanceMeters>
          </Trackpoint>
          <Trackpoint>
            <Time>2022-09-19T09:46:07.000Z</Time>
            <Position>
              <LatitudeDegrees>49.30758618749678134918212890625</LatitudeDegrees>
              <LongitudeDegrees>19.93565722368657588958740234375</LongitudeDegrees>
            </Position>
            <AltitudeMeters>1127.4000244140625</AltitudeMeters>
            <DistanceMeters>NAN</DistanceMeters>
          </Trackpoint>
          <Trackpoint>
            <Time>2022-09-19T09:46:14.000Z</Time>
            <Position>
              <LatitudeDegrees>49.30752432905137538909912109375</LatitudeDegrees>
              <LongitudeDegrees>19.93554205633699893951416015625</LongitudeDegrees>
            </Position>
            <AltitudeMeters>1127.5999755859375</AltitudeMeters>
            <DistanceMeters>NAN</DistanceMeters>
          </Trackpoint>
          <Trackpoint>
            <Time>2022-09-19T09:46:21.000Z</Time>
            <Position>
              <LatitudeDegrees>49.3074535019695758819580078125</LatitudeDegrees>
              <LongitudeDegrees>19.93537165224552154541015625</LongitudeDegrees>
            </Position>
            <AltitudeMeters>1127.800048828125</AltitudeMeters>
            <DistanceMeters>NAN</DistanceMeters>
          </Trackpoint>
          <Trackpoint>
            <Time>2022-09-19T09:46:28.000Z</Time>
            <Position>
              <LatitudeDegrees>49.3073861114680767059326171875</LatitudeDegrees>
              <LongitudeDegrees>19.93512564338743686676025390625</LongitudeDegrees>
            </Position>
            <AltitudeMeters>1127.5999755859375</AltitudeMeters>
            <DistanceMeters>NAN</DistanceMeters>
          </Trackpoint>
          <Trackpoint>
            <Time>2022-09-19T09:46:29.000Z</Time>
            <Position>
              <LatitudeDegrees>49.307375885546207427978515625</LatitudeDegrees>
              <LongitudeDegrees>19.93508893065154552459716796875</LongitudeDegrees>
            </Position>
            <AltitudeMeters>1127.5999755859375</AltitudeMeters>
            <DistanceMeters>NAN</DistanceMeters>
          </Trackpoint>
          <Trackpoint>
            <Time>2022-09-19T09:46:36.000Z</Time>
            <Position>
              <LatitudeDegrees>49.3073304556310176849365234375</LatitudeDegrees>
              <LongitudeDegrees>19.93489765562117099761962890625</LongitudeDegrees>
            </Position>
            <AltitudeMeters>1127.4000244140625</AltitudeMeters>
            <DistanceMeters>NAN</DistanceMeters>
          </Trackpoint>
          <Trackpoint>
            <Time>2022-09-19T09:46:41.000Z</Time>
            <Position>
              <LatitudeDegrees>49.30729349143803119659423828125</LatitudeDegrees>
              <LongitudeDegrees>19.93476144969463348388671875</LongitudeDegrees>
            </Position>
            <AltitudeMeters>1127.4000244140625</AltitudeMeters>
            <DistanceMeters>NAN</DistanceMeters>
          </Trackpoint>
          <Trackpoint>
            <Time>2022-09-19T09:46:45.000Z</Time>
            <Position>
              <LatitudeDegrees>49.30725526995956897735595703125</LatitudeDegrees>
              <LongitudeDegrees>19.934616275131702423095703125</LongitudeDegrees>
            </Position>
            <AltitudeMeters>1127.5999755859375</AltitudeMeters>
            <DistanceMeters>NAN</DistanceMeters>
          </Trackpoint>
          <Trackpoint>
            <Time>2022-09-19T09:46:46.000Z</Time>
            <Position>
              <LatitudeDegrees>49.30724806152284145355224609375</LatitudeDegrees>
              <LongitudeDegrees>19.93458165787160396575927734375</LongitudeDegrees>
            </Position>
            <AltitudeMeters>1127.5999755859375</AltitudeMeters>
            <DistanceMeters>NAN</DistanceMeters>
          </Trackpoint>
          <Trackpoint>
            <Time>2022-09-19T09:46:52.000Z</Time>
            <Position>
              <LatitudeDegrees>49.30719257332384586334228515625</LatitudeDegrees>
              <LongitudeDegrees>19.93439608253538608551025390625</LongitudeDegrees>
            </Position>
            <AltitudeMeters>1127.4000244140625</AltitudeMeters>
            <DistanceMeters>NAN</DistanceMeters>
          </Trackpoint>
          <Trackpoint>
            <Time>2022-09-19T09:46:54.000Z</Time>
            <Position>
              <LatitudeDegrees>49.30717547424137592315673828125</LatitudeDegrees>
              <LongitudeDegrees>19.93434344418346881866455078125</LongitudeDegrees>
            </Position>
            <AltitudeMeters>1127.4000244140625</AltitudeMeters>
            <DistanceMeters>NAN</DistanceMeters>
          </Trackpoint>
          <Trackpoint>
            <Time>2022-09-19T09:47:02.000Z</Time>
            <Position>
              <LatitudeDegrees>49.30710858665406703948974609375</LatitudeDegrees>
              <LongitudeDegrees>19.9340920709073543548583984375</LongitudeDegrees>
            </Position>
            <AltitudeMeters>1127.5999755859375</AltitudeMeters>
            <DistanceMeters>NAN</DistanceMeters>
          </Trackpoint>
          <Trackpoint>
            <Time>2022-09-19T09:47:03.000Z</Time>
            <Position>
              <LatitudeDegrees>49.30709903128445148468017578125</LatitudeDegrees>
              <LongitudeDegrees>19.93405259214341640472412109375</LongitudeDegrees>
            </Position>
            <AltitudeMeters>1127.5999755859375</AltitudeMeters>
            <DistanceMeters>NAN</DistanceMeters>
          </Trackpoint>
          <Trackpoint>
            <Time>2022-09-19T09:47:07.000Z</Time>
            <Position>
              <LatitudeDegrees>49.30706106126308441162109375</LatitudeDegrees>
              <LongitudeDegrees>19.93391412310302257537841796875</LongitudeDegrees>
            </Position>
            <AltitudeMeters>1126.5999755859375</AltitudeMeters>
            <DistanceMeters>NAN</DistanceMeters>
          </Trackpoint>
          <Trackpoint>
            <Time>2022-09-19T09:47:13.000Z</Time>
            <Position>
              <LatitudeDegrees>49.30699878372251987457275390625</LatitudeDegrees>
              <LongitudeDegrees>19.93369971401989459991455078125</LongitudeDegrees>
            </Position>
            <AltitudeMeters>1126.800048828125</AltitudeMeters>
            <DistanceMeters>NAN</DistanceMeters>
          </Trackpoint>
          <Trackpoint>
            <Time>2022-09-19T09:47:16.000Z</Time>
            <Position>
              <LatitudeDegrees>49.30698118172585964202880859375</LatitudeDegrees>
              <LongitudeDegrees>19.93362176232039928436279296875</LongitudeDegrees>
            </Position>
            <AltitudeMeters>1127</AltitudeMeters>
            <DistanceMeters>NAN</DistanceMeters>
          </Trackpoint>
          <Trackpoint>
            <Time>2022-09-19T09:47:19.000Z</Time>
            <Position>
              <LatitudeDegrees>49.30696341209113597869873046875</LatitudeDegrees>
              <LongitudeDegrees>19.93353995494544506072998046875</LongitudeDegrees>
            </Position>
            <AltitudeMeters>1127</AltitudeMeters>
            <DistanceMeters>NAN</DistanceMeters>
          </Trackpoint>
          <Trackpoint>
            <Time>2022-09-19T09:47:28.000Z</Time>
            <Position>
              <LatitudeDegrees>49.30689149536192417144775390625</LatitudeDegrees>
              <LongitudeDegrees>19.93329134769737720489501953125</LongitudeDegrees>
            </Position>
            <AltitudeMeters>1127.5999755859375</AltitudeMeters>
            <DistanceMeters>NAN</DistanceMeters>
          </Trackpoint>
          <Trackpoint>
            <Time>2022-09-19T09:47:29.000Z</Time>
            <Position>
              <LatitudeDegrees>49.3068858794867992401123046875</LatitudeDegrees>
              <LongitudeDegrees>19.93325949646532535552978515625</LongitudeDegrees>
            </Position>
            <AltitudeMeters>1127.800048828125</AltitudeMeters>
            <DistanceMeters>NAN</DistanceMeters>
          </Trackpoint>
          <Trackpoint>
            <Time>2022-09-19T09:47:35.000Z</Time>
            <Position>
              <LatitudeDegrees>49.3068375997245311737060546875</LatitudeDegrees>
              <LongitudeDegrees>19.9330302514135837554931640625</LongitudeDegrees>
            </Position>
            <AltitudeMeters>1127.800048828125</AltitudeMeters>
            <DistanceMeters>NAN</DistanceMeters>
          </Trackpoint>
          <Trackpoint>
            <Time>2022-09-19T09:47:37.000Z</Time>
            <Position>
              <LatitudeDegrees>49.3068211711943149566650390625</LatitudeDegrees>
              <LongitudeDegrees>19.93296571075916290283203125</LongitudeDegrees>
            </Position>
            <AltitudeMeters>1128</AltitudeMeters>
            <DistanceMeters>NAN</DistanceMeters>
          </Trackpoint>
          <Trackpoint>
            <Time>2022-09-19T09:47:38.000Z</Time>
            <Position>
              <LatitudeDegrees>49.3068127892911434173583984375</LatitudeDegrees>
              <LongitudeDegrees>19.93293712846934795379638671875</LongitudeDegrees>
            </Position>
            <AltitudeMeters>1128.199951171875</AltitudeMeters>
            <DistanceMeters>NAN</DistanceMeters>
          </Trackpoint>
          <Trackpoint>
            <Time>2022-09-19T09:47:45.000Z</Time>
            <Position>
              <LatitudeDegrees>49.30675386451184749603271484375</LatitudeDegrees>
              <LongitudeDegrees>19.93271266110241413116455078125</LongitudeDegrees>
            </Position>
            <AltitudeMeters>1128.800048828125</AltitudeMeters>
            <DistanceMeters>NAN</DistanceMeters>
          </Trackpoint>
          <Trackpoint>
            <Time>2022-09-19T09:47:50.000Z</Time>
            <Position>
              <LatitudeDegrees>49.30672050453722476959228515625</LatitudeDegrees>
              <LongitudeDegrees>19.93253194727003574371337890625</LongitudeDegrees>
            </Position>
            <AltitudeMeters>1129</AltitudeMeters>
            <DistanceMeters>NAN</DistanceMeters>
          </Trackpoint>
          <Trackpoint>
            <Time>2022-09-19T09:47:52.000Z</Time>
            <Position>
              <LatitudeDegrees>49.30670625530183315277099609375</LatitudeDegrees>
              <LongitudeDegrees>19.9324663169682025909423828125</LongitudeDegrees>
            </Position>
            <AltitudeMeters>1129</AltitudeMeters>
            <DistanceMeters>NAN</DistanceMeters>
          </Trackpoint>
          <Trackpoint>
            <Time>2022-09-19T09:47:57.000Z</Time>
            <Position>
              <LatitudeDegrees>49.3066857196390628814697265625</LatitudeDegrees>
              <LongitudeDegrees>19.932382665574550628662109375</LongitudeDegrees>
            </Position>
            <AltitudeMeters>1129</AltitudeMeters>
            <DistanceMeters>NAN</DistanceMeters>
          </Trackpoint>
          <Trackpoint>
            <Time>2022-09-19T09:48:01.000Z</Time>
            <Position>
              <LatitudeDegrees>49.3066857196390628814697265625</LatitudeDegrees>
              <LongitudeDegrees>19.932382665574550628662109375</LongitudeDegrees>
            </Position>
            <AltitudeMeters>1129.199951171875</AltitudeMeters>
            <DistanceMeters>NAN</DistanceMeters>
          </Trackpoint>
          <Trackpoint>
            <Time>2022-09-19T09:48:03.000Z</Time>
            <Position>
              <LatitudeDegrees>49.3066857196390628814697265625</LatitudeDegrees>
              <LongitudeDegrees>19.932382665574550628662109375</LongitudeDegrees>
            </Position>
            <AltitudeMeters>1129.4000244140625</AltitudeMeters>
            <DistanceMeters>NAN</DistanceMeters>
          </Trackpoint>
          <Trackpoint>
            <Time>2022-09-19T09:48:09.000Z</Time>
            <Position>
              <LatitudeDegrees>49.3066857196390628814697265625</LatitudeDegrees>
              <LongitudeDegrees>19.932382665574550628662109375</LongitudeDegrees>
            </Position>
            <AltitudeMeters>1129.4000244140625</AltitudeMeters>
            <DistanceMeters>NAN</DistanceMeters>
          </Trackpoint>
          <Trackpoint>
            <Time>2022-09-19T09:48:16.000Z</Time>
            <Position>
              <LatitudeDegrees>49.3066857196390628814697265625</LatitudeDegrees>
              <LongitudeDegrees>19.932382665574550628662109375</LongitudeDegrees>
            </Position>
            <AltitudeMeters>1129.4000244140625</AltitudeMeters>
            <DistanceMeters>NAN</DistanceMeters>
          </Trackpoint>
          <Trackpoint>
            <Time>2022-09-19T09:48:20.000Z</Time>
            <Position>
              <LatitudeDegrees>49.3066857196390628814697265625</LatitudeDegrees>
              <LongitudeDegrees>19.932382665574550628662109375</LongitudeDegrees>
            </Position>
            <AltitudeMeters>1129.4000244140625</AltitudeMeters>
            <DistanceMeters>NAN</DistanceMeters>
          </Trackpoint>
          <Trackpoint>
            <Time>2022-09-19T09:48:25.000Z</Time>
            <Position>
              <LatitudeDegrees>49.3066857196390628814697265625</LatitudeDegrees>
              <LongitudeDegrees>19.932382665574550628662109375</LongitudeDegrees>
            </Position>
            <AltitudeMeters>1129.4000244140625</AltitudeMeters>
            <DistanceMeters>NAN</DistanceMeters>
          </Trackpoint>
          <Trackpoint>
            <Time>2022-09-19T09:48:30.000Z</Time>
            <Position>
              <LatitudeDegrees>49.3066857196390628814697265625</LatitudeDegrees>
              <LongitudeDegrees>19.932382665574550628662109375</LongitudeDegrees>
            </Position>
            <AltitudeMeters>1129.199951171875</AltitudeMeters>
            <DistanceMeters>NAN</DistanceMeters>
          </Trackpoint>
          <Trackpoint>
            <Time>2022-09-19T09:48:41.000Z</Time>
            <Position>
              <LatitudeDegrees>49.306691251695156097412109375</LatitudeDegrees>
              <LongitudeDegrees>19.93243119679391384124755859375</LongitudeDegrees>
            </Position>
            <AltitudeMeters>1129.4000244140625</AltitudeMeters>
            <DistanceMeters>NAN</DistanceMeters>
          </Trackpoint>
          <Trackpoint>
            <Time>2022-09-19T09:48:42.000Z</Time>
            <Position>
              <LatitudeDegrees>49.30669485591351985931396484375</LatitudeDegrees>
              <LongitudeDegrees>19.9324515648186206817626953125</LongitudeDegrees>
            </Position>
            <AltitudeMeters>1129.4000244140625</AltitudeMeters>
            <DistanceMeters>NAN</DistanceMeters>
          </Trackpoint>
          <Trackpoint>
            <Time>2022-09-19T09:48:45.000Z</Time>
            <Position>
              <LatitudeDegrees>49.30670726113021373748779296875</LatitudeDegrees>
              <LongitudeDegrees>19.93252507410943508148193359375</LongitudeDegrees>
            </Position>
            <AltitudeMeters>1129.4000244140625</AltitudeMeters>
            <DistanceMeters>NAN</DistanceMeters>
          </Trackpoint>
          <Trackpoint>
            <Time>2022-09-19T09:48:46.000Z</Time>
            <Position>
              <LatitudeDegrees>49.30671614594757556915283203125</LatitudeDegrees>
              <LongitudeDegrees>19.93255198001861572265625</LongitudeDegrees>
            </Position>
            <AltitudeMeters>1129.4000244140625</AltitudeMeters>
            <DistanceMeters>NAN</DistanceMeters>
          </Trackpoint>
          <Trackpoint>
            <Time>2022-09-19T09:48:48.000Z</Time>
            <Position>
              <LatitudeDegrees>49.3067252822220325469970703125</LatitudeDegrees>
              <LongitudeDegrees>19.9325977452099323272705078125</LongitudeDegrees>
            </Position>
            <AltitudeMeters>1129.4000244140625</AltitudeMeters>
            <DistanceMeters>NAN</DistanceMeters>
          </Trackpoint>
          <Trackpoint>
            <Time>2022-09-19T09:48:52.000Z</Time>
            <Position>
              <LatitudeDegrees>49.3067510984838008880615234375</LatitudeDegrees>
              <LongitudeDegrees>19.93272297084331512451171875</LongitudeDegrees>
            </Position>
            <AltitudeMeters>1129.4000244140625</AltitudeMeters>
            <DistanceMeters>NAN</DistanceMeters>
          </Trackpoint>
          <Trackpoint>
            <Time>2022-09-19T09:48:58.000Z</Time>
            <Position>
              <LatitudeDegrees>49.30680214427411556243896484375</LatitudeDegrees>
              <LongitudeDegrees>19.9329839833080768585205078125</LongitudeDegrees>
            </Position>
            <AltitudeMeters>1129</AltitudeMeters>
            <DistanceMeters>NAN</DistanceMeters>
          </Trackpoint>
          <Trackpoint>
            <Time>2022-09-19T09:49:06.000Z</Time>
            <Position>
              <LatitudeDegrees>49.3068969435989856719970703125</LatitudeDegrees>
              <LongitudeDegrees>19.933344237506389617919921875</LongitudeDegrees>
            </Position>
            <AltitudeMeters>1128.199951171875</AltitudeMeters>
            <DistanceMeters>NAN</DistanceMeters>
          </Trackpoint>
          <Trackpoint>
            <Time>2022-09-19T09:49:07.000Z</Time>
            <Position>
              <LatitudeDegrees>49.3069053255021572113037109375</LatitudeDegrees>
              <LongitudeDegrees>19.933380782604217529296875</LongitudeDegrees>
            </Position>
            <AltitudeMeters>1128.199951171875</AltitudeMeters>
            <DistanceMeters>NAN</DistanceMeters>
          </Trackpoint>
          <Trackpoint>
            <Time>2022-09-19T09:49:11.000Z</Time>
            <Position>
              <LatitudeDegrees>49.30694974958896636962890625</LatitudeDegrees>
              <LongitudeDegrees>19.93352763354778289794921875</LongitudeDegrees>
            </Position>
            <AltitudeMeters>1128</AltitudeMeters>
            <DistanceMeters>NAN</DistanceMeters>
          </Trackpoint>
          <Trackpoint>
            <Time>2022-09-19T09:49:12.000Z</Time>
            <Position>
              <LatitudeDegrees>49.30695871822535991668701171875</LatitudeDegrees>
              <LongitudeDegrees>19.9335609935224056243896484375</LongitudeDegrees>
            </Position>
            <AltitudeMeters>1128</AltitudeMeters>
            <DistanceMeters>NAN</DistanceMeters>
          </Trackpoint>
          <Trackpoint>
            <Time>2022-09-19T09:49:17.000Z</Time>
            <Position>
              <LatitudeDegrees>49.30699727497994899749755859375</LatitudeDegrees>
              <LongitudeDegrees>19.93371128104627132415771484375</LongitudeDegrees>
            </Position>
            <AltitudeMeters>1126.800048828125</AltitudeMeters>
            <DistanceMeters>NAN</DistanceMeters>
          </Trackpoint>
          <Trackpoint>
            <Time>2022-09-19T09:49:18.000Z</Time>
            <Position>
              <LatitudeDegrees>49.30700800381600856781005859375</LatitudeDegrees>
              <LongitudeDegrees>19.93375536985695362091064453125</LongitudeDegrees>
            </Position>
            <AltitudeMeters>1126.800048828125</AltitudeMeters>
            <DistanceMeters>NAN</DistanceMeters>
          </Trackpoint>
          <Trackpoint>
            <Time>2022-09-19T09:49:25.000Z</Time>
            <Position>
              <LatitudeDegrees>49.30707849562168121337890625</LatitudeDegrees>
              <LongitudeDegrees>19.934081844985485076904296875</LongitudeDegrees>
            </Position>
            <AltitudeMeters>1126.5999755859375</AltitudeMeters>
            <DistanceMeters>NAN</DistanceMeters>
          </Trackpoint>
          <Trackpoint>
            <Time>2022-09-19T09:49:32.000Z</Time>
            <Position>
              <LatitudeDegrees>49.3071705289185047149658203125</LatitudeDegrees>
              <LongitudeDegrees>19.9343938194215297698974609375</LongitudeDegrees>
            </Position>
            <AltitudeMeters>1126.800048828125</AltitudeMeters>
            <DistanceMeters>NAN</DistanceMeters>
          </Trackpoint>
          <Trackpoint>
            <Time>2022-09-19T09:49:33.000Z</Time>
            <Position>
              <LatitudeDegrees>49.30718050338327884674072265625</LatitudeDegrees>
              <LongitudeDegrees>19.9344377405941486358642578125</LongitudeDegrees>
            </Position>
            <AltitudeMeters>1126.800048828125</AltitudeMeters>
            <DistanceMeters>NAN</DistanceMeters>
          </Trackpoint>
          <Trackpoint>
            <Time>2022-09-19T09:49:36.000Z</Time>
            <Position>
              <LatitudeDegrees>49.30720732547342777252197265625</LatitudeDegrees>
              <LongitudeDegrees>19.93455827236175537109375</LongitudeDegrees>
            </Position>
            <AltitudeMeters>1126.800048828125</AltitudeMeters>
            <DistanceMeters>NAN</DistanceMeters>
          </Trackpoint>
          <Trackpoint>
            <Time>2022-09-19T09:49:39.000Z</Time>
            <Position>
              <LatitudeDegrees>49.30724345147609710693359375</LatitudeDegrees>
              <LongitudeDegrees>19.9346603639423847198486328125</LongitudeDegrees>
            </Position>
            <AltitudeMeters>1127</AltitudeMeters>
            <DistanceMeters>NAN</DistanceMeters>
          </Trackpoint>
          <Trackpoint>
            <Time>2022-09-19T09:49:44.000Z</Time>
            <Position>
              <LatitudeDegrees>49.307293407618999481201171875</LatitudeDegrees>
              <LongitudeDegrees>19.93482205085456371307373046875</LongitudeDegrees>
            </Position>
            <AltitudeMeters>1127</AltitudeMeters>
            <DistanceMeters>NAN</DistanceMeters>
          </Trackpoint>
          <Trackpoint>
            <Time>2022-09-19T09:49:47.000Z</Time>
            <Position>
              <LatitudeDegrees>49.307327605783939361572265625</LatitudeDegrees>
              <LongitudeDegrees>19.93493319489061832427978515625</LongitudeDegrees>
            </Position>
            <AltitudeMeters>1127</AltitudeMeters>
            <DistanceMeters>NAN</DistanceMeters>
          </Trackpoint>
          <Trackpoint>
            <Time>2022-09-19T09:49:56.000Z</Time>
            <Position>
              <LatitudeDegrees>49.3074166215956211090087890625</LatitudeDegrees>
              <LongitudeDegrees>19.9352377094328403472900390625</LongitudeDegrees>
            </Position>
            <AltitudeMeters>1127</AltitudeMeters>
            <DistanceMeters>NAN</DistanceMeters>
          </Trackpoint>
          <Trackpoint>
            <Time>2022-09-19T09:50:00.000Z</Time>
            <Position>
              <LatitudeDegrees>49.30745375342667102813720703125</LatitudeDegrees>
              <LongitudeDegrees>19.93534876964986324310302734375</LongitudeDegrees>
            </Position>
            <AltitudeMeters>1127.199951171875</AltitudeMeters>
            <DistanceMeters>NAN</DistanceMeters>
          </Trackpoint>
          <Trackpoint>
            <Time>2022-09-19T09:50:03.000Z</Time>
            <Position>
              <LatitudeDegrees>49.30747688747942447662353515625</LatitudeDegrees>
              <LongitudeDegrees>19.9354382045567035675048828125</LongitudeDegrees>
            </Position>
            <AltitudeMeters>1127.4000244140625</AltitudeMeters>
            <DistanceMeters>NAN</DistanceMeters>
          </Trackpoint>
          <Trackpoint>
            <Time>2022-09-19T09:50:09.000Z</Time>
            <Position>
              <LatitudeDegrees>49.30752499960362911224365234375</LatitudeDegrees>
              <LongitudeDegrees>19.93555379100143909454345703125</LongitudeDegrees>
            </Position>
            <AltitudeMeters>1127.800048828125</AltitudeMeters>
            <DistanceMeters>NAN</DistanceMeters>
          </Trackpoint>
          <Trackpoint>
            <Time>2022-09-19T09:50:16.000Z</Time>
            <Position>
              <LatitudeDegrees>49.3075954914093017578125</LatitudeDegrees>
              <LongitudeDegrees>19.93565152399241924285888671875</LongitudeDegrees>
            </Position>
            <AltitudeMeters>1127.4000244140625</AltitudeMeters>
            <DistanceMeters>NAN</DistanceMeters>
          </Trackpoint>
          <Trackpoint>
            <Time>2022-09-19T09:50:24.000Z</Time>
            <Position>
              <LatitudeDegrees>49.307676292955875396728515625</LatitudeDegrees>
              <LongitudeDegrees>19.93570382706820964813232421875</LongitudeDegrees>
            </Position>
            <AltitudeMeters>1127.199951171875</AltitudeMeters>
            <DistanceMeters>NAN</DistanceMeters>
          </Trackpoint>
          <Trackpoint>
            <Time>2022-09-19T09:50:33.000Z</Time>
            <Position>
              <LatitudeDegrees>49.307676292955875396728515625</LatitudeDegrees>
              <LongitudeDegrees>19.93570382706820964813232421875</LongitudeDegrees>
            </Position>
            <AltitudeMeters>1127</AltitudeMeters>
            <DistanceMeters>NAN</DistanceMeters>
          </Trackpoint>
          <Trackpoint>
            <Time>2022-09-19T09:50:40.000Z</Time>
            <Position>
              <LatitudeDegrees>49.307676292955875396728515625</LatitudeDegrees>
              <LongitudeDegrees>19.93570382706820964813232421875</LongitudeDegrees>
            </Position>
            <AltitudeMeters>1127.199951171875</AltitudeMeters>
            <DistanceMeters>NAN</DistanceMeters>
          </Trackpoint>
          <Trackpoint>
            <Time>2022-09-19T09:50:42.000Z</Time>
            <Position>
              <LatitudeDegrees>49.307676292955875396728515625</LatitudeDegrees>
              <LongitudeDegrees>19.93570382706820964813232421875</LongitudeDegrees>
            </Position>
            <AltitudeMeters>1127</AltitudeMeters>
            <DistanceMeters>NAN</DistanceMeters>
          </Trackpoint>
          <Trackpoint>
            <Time>2022-09-19T09:50:48.000Z</Time>
            <Position>
              <LatitudeDegrees>49.30767755024135112762451171875</LatitudeDegrees>
              <LongitudeDegrees>19.9357040785253047943115234375</LongitudeDegrees>
            </Position>
            <AltitudeMeters>1127.199951171875</AltitudeMeters>
            <DistanceMeters>NAN</DistanceMeters>
          </Trackpoint>
          <Trackpoint>
            <Time>2022-09-19T09:50:53.000Z</Time>
            <Position>
              <LatitudeDegrees>49.30779196321964263916015625</LatitudeDegrees>
              <LongitudeDegrees>19.93573701940476894378662109375</LongitudeDegrees>
            </Position>
            <AltitudeMeters>1127</AltitudeMeters>
            <DistanceMeters>NAN</DistanceMeters>
          </Trackpoint>
          <Trackpoint>
            <Time>2022-09-19T09:50:56.000Z</Time>
            <Position>
              <LatitudeDegrees>49.30788743309676647186279296875</LatitudeDegrees>
              <LongitudeDegrees>19.935789741575717926025390625</LongitudeDegrees>
            </Position>
            <AltitudeMeters>1126.5999755859375</AltitudeMeters>
            <DistanceMeters>NAN</DistanceMeters>
          </Trackpoint>
          <Trackpoint>
            <Time>2022-09-19T09:50:59.000Z</Time>
            <Position>
              <LatitudeDegrees>49.307994134724140167236328125</LatitudeDegrees>
              <LongitudeDegrees>19.93582452647387981414794921875</LongitudeDegrees>
            </Position>
            <AltitudeMeters>1125.4000244140625</AltitudeMeters>
            <DistanceMeters>NAN</DistanceMeters>
          </Trackpoint>
          <Trackpoint>
            <Time>2022-09-19T09:51:00.000Z</Time>
            <Position>
              <LatitudeDegrees>49.30803000926971435546875</LatitudeDegrees>
              <LongitudeDegrees>19.9358328245580196380615234375</LongitudeDegrees>
            </Position>
            <AltitudeMeters>1125</AltitudeMeters>
            <DistanceMeters>NAN</DistanceMeters>
          </Trackpoint>
          <Trackpoint>
            <Time>2022-09-19T09:51:02.000Z</Time>
            <Position>
              <LatitudeDegrees>49.30809480138123035430908203125</LatitudeDegrees>
              <LongitudeDegrees>19.93584900163114070892333984375</LongitudeDegrees>
            </Position>
            <AltitudeMeters>1124.4000244140625</AltitudeMeters>
            <DistanceMeters>NAN</DistanceMeters>
          </Trackpoint>
          <Trackpoint>
            <Time>2022-09-19T09:51:06.000Z</Time>
            <Position>
              <LatitudeDegrees>49.308212064206600189208984375</LatitudeDegrees>
              <LongitudeDegrees>19.93588303215801715850830078125</LongitudeDegrees>
            </Position>
            <AltitudeMeters>1123.199951171875</AltitudeMeters>
            <DistanceMeters>NAN</DistanceMeters>
          </Trackpoint>
          <Trackpoint>
            <Time>2022-09-19T09:51:09.000Z</Time>
            <Position>
              <LatitudeDegrees>49.308288507163524627685546875</LatitudeDegrees>
              <LongitudeDegrees>19.93591303937137126922607421875</LongitudeDegrees>
            </Position>
            <AltitudeMeters>1122.4000244140625</AltitudeMeters>
            <DistanceMeters>NAN</DistanceMeters>
          </Trackpoint>
          <Trackpoint>
            <Time>2022-09-19T09:51:11.000Z</Time>
            <Position>
              <LatitudeDegrees>49.30834441445767879486083984375</LatitudeDegrees>
              <LongitudeDegrees>19.9359427951276302337646484375</LongitudeDegrees>
            </Position>
            <AltitudeMeters>1122</AltitudeMeters>
            <DistanceMeters>NAN</DistanceMeters>
          </Trackpoint>
          <Trackpoint>
            <Time>2022-09-19T09:51:12.000Z</Time>
            <Position>
              <LatitudeDegrees>49.30837090127170085906982421875</LatitudeDegrees>
              <LongitudeDegrees>19.9359572120010852813720703125</LongitudeDegrees>
            </Position>
            <AltitudeMeters>1121.800048828125</AltitudeMeters>
            <DistanceMeters>NAN</DistanceMeters>
          </Trackpoint>
          <Trackpoint>
            <Time>2022-09-19T09:51:15.000Z</Time>
            <Position>
              <LatitudeDegrees>49.3084559775888919830322265625</LatitudeDegrees>
              <LongitudeDegrees>19.93599920533597469329833984375</LongitudeDegrees>
            </Position>
            <AltitudeMeters>1120.800048828125</AltitudeMeters>
            <DistanceMeters>NAN</DistanceMeters>
          </Trackpoint>
          <Trackpoint>
            <Time>2022-09-19T09:51:17.000Z</Time>
            <Position>
              <LatitudeDegrees>49.30850383825600147247314453125</LatitudeDegrees>
              <LongitudeDegrees>19.93602602742612361907958984375</LongitudeDegrees>
            </Position>
            <AltitudeMeters>1120.199951171875</AltitudeMeters>
            <DistanceMeters>NAN</DistanceMeters>
          </Trackpoint>
          <Trackpoint>
            <Time>2022-09-19T09:51:19.000Z</Time>
            <Position>
              <LatitudeDegrees>49.30855077691376209259033203125</LatitudeDegrees>
              <LongitudeDegrees>19.93604832328855991363525390625</LongitudeDegrees>
            </Position>
            <AltitudeMeters>1119.800048828125</AltitudeMeters>
            <DistanceMeters>NAN</DistanceMeters>
          </Trackpoint>
          <Trackpoint>
            <Time>2022-09-19T09:51:22.000Z</Time>
            <Position>
              <LatitudeDegrees>49.30859168060123920440673828125</LatitudeDegrees>
              <LongitudeDegrees>19.9360822699964046478271484375</LongitudeDegrees>
            </Position>
            <AltitudeMeters>1119</AltitudeMeters>
            <DistanceMeters>NAN</DistanceMeters>
          </Trackpoint>
          <Trackpoint>
            <Time>2022-09-19T09:51:26.000Z</Time>
            <Position>
              <LatitudeDegrees>49.30860408581793308258056640625</LatitudeDegrees>
              <LongitudeDegrees>19.93610297329723834991455078125</LongitudeDegrees>
            </Position>
            <AltitudeMeters>1118.5999755859375</AltitudeMeters>
            <DistanceMeters>NAN</DistanceMeters>
          </Trackpoint>
          <Trackpoint>
            <Time>2022-09-19T09:51:49.000Z</Time>
            <Position>
              <LatitudeDegrees>49.30860408581793308258056640625</LatitudeDegrees>
              <LongitudeDegrees>19.93610297329723834991455078125</LongitudeDegrees>
            </Position>
            <AltitudeMeters>1118.5999755859375</AltitudeMeters>
            <DistanceMeters>NAN</DistanceMeters>
          </Trackpoint>
          <Trackpoint>
            <Time>2022-09-19T09:52:08.000Z</Time>
            <Position>
              <LatitudeDegrees>49.30860408581793308258056640625</LatitudeDegrees>
              <LongitudeDegrees>19.93610297329723834991455078125</LongitudeDegrees>
            </Position>
            <AltitudeMeters>1118.4000244140625</AltitudeMeters>
            <DistanceMeters>NAN</DistanceMeters>
          </Trackpoint>
          <Trackpoint>
            <Time>2022-09-19T09:52:32.000Z</Time>
            <Position>
              <LatitudeDegrees>49.30860408581793308258056640625</LatitudeDegrees>
              <LongitudeDegrees>19.93610297329723834991455078125</LongitudeDegrees>
            </Position>
            <AltitudeMeters>1118.5999755859375</AltitudeMeters>
            <DistanceMeters>NAN</DistanceMeters>
          </Trackpoint>
          <Trackpoint>
            <Time>2022-09-19T09:52:49.000Z</Time>
            <Position>
              <LatitudeDegrees>49.3086061812937259674072265625</LatitudeDegrees>
              <LongitudeDegrees>19.93610179983079433441162109375</LongitudeDegrees>
            </Position>
            <AltitudeMeters>1118.5999755859375</AltitudeMeters>
            <DistanceMeters>NAN</DistanceMeters>
          </Trackpoint>
          <Trackpoint>
            <Time>2022-09-19T09:52:52.000Z</Time>
            <Position>
              <LatitudeDegrees>49.30867709219455718994140625</LatitudeDegrees>
              <LongitudeDegrees>19.9361000396311283111572265625</LongitudeDegrees>
            </Position>
            <AltitudeMeters>1118.5999755859375</AltitudeMeters>
            <DistanceMeters>NAN</DistanceMeters>
          </Trackpoint>
          <Trackpoint>
            <Time>2022-09-19T09:52:58.000Z</Time>
            <Position>
              <LatitudeDegrees>49.3088653497397899627685546875</LatitudeDegrees>
              <LongitudeDegrees>19.9361828528344631195068359375</LongitudeDegrees>
            </Position>
            <AltitudeMeters>1117.5999755859375</AltitudeMeters>
            <DistanceMeters>NAN</DistanceMeters>
          </Trackpoint>
          <Trackpoint>
            <Time>2022-09-19T09:52:59.000Z</Time>
            <Position>
              <LatitudeDegrees>49.30889493785798549652099609375</LatitudeDegrees>
              <LongitudeDegrees>19.93619835935533046722412109375</LongitudeDegrees>
            </Position>
            <AltitudeMeters>1117.199951171875</AltitudeMeters>
            <DistanceMeters>NAN</DistanceMeters>
          </Trackpoint>
          <Trackpoint>
            <Time>2022-09-19T09:53:04.000Z</Time>
            <Position>
              <LatitudeDegrees>49.30903994478285312652587890625</LatitudeDegrees>
              <LongitudeDegrees>19.93626574985682964324951171875</LongitudeDegrees>
            </Position>
            <AltitudeMeters>1116.4000244140625</AltitudeMeters>
            <DistanceMeters>NAN</DistanceMeters>
          </Trackpoint>
          <Trackpoint>
            <Time>2022-09-19T09:53:07.000Z</Time>
            <Position>
              <LatitudeDegrees>49.3091449700295925140380859375</LatitudeDegrees>
              <LongitudeDegrees>19.93630263023078441619873046875</LongitudeDegrees>
            </Position>
            <AltitudeMeters>1115.5999755859375</AltitudeMeters>
            <DistanceMeters>NAN</DistanceMeters>
          </Trackpoint>
          <Trackpoint>
            <Time>2022-09-19T09:53:08.000Z</Time>
            <Position>
              <LatitudeDegrees>49.309185035526752471923828125</LatitudeDegrees>
              <LongitudeDegrees>19.936324842274188995361328125</LongitudeDegrees>
            </Position>
            <AltitudeMeters>1115.199951171875</AltitudeMeters>
            <DistanceMeters>NAN</DistanceMeters>
          </Trackpoint>
          <Trackpoint>
            <Time>2022-09-19T09:53:11.000Z</Time>
            <Position>
              <LatitudeDegrees>49.30929257534444332122802734375</LatitudeDegrees>
              <LongitudeDegrees>19.93637454695999622344970703125</LongitudeDegrees>
            </Position>
            <AltitudeMeters>1114</AltitudeMeters>
            <DistanceMeters>NAN</DistanceMeters>
          </Trackpoint>
          <Trackpoint>
            <Time>2022-09-19T09:53:12.000Z</Time>
            <Position>
              <LatitudeDegrees>49.30932878516614437103271484375</LatitudeDegrees>
              <LongitudeDegrees>19.93638745509088039398193359375</LongitudeDegrees>
            </Position>
            <AltitudeMeters>1113.4000244140625</AltitudeMeters>
            <DistanceMeters>NAN</DistanceMeters>
          </Trackpoint>
          <Trackpoint>
            <Time>2022-09-19T09:53:13.000Z</Time>
            <Position>
              <LatitudeDegrees>49.3093652464449405670166015625</LatitudeDegrees>
              <LongitudeDegrees>19.936397261917591094970703125</LongitudeDegrees>
            </Position>
            <AltitudeMeters>1112.800048828125</AltitudeMeters>
            <DistanceMeters>NAN</DistanceMeters>
          </Trackpoint>
          <Trackpoint>
            <Time>2022-09-19T09:53:16.000Z</Time>
            <Position>
              <LatitudeDegrees>49.309510253369808197021484375</LatitudeDegrees>
              <LongitudeDegrees>19.9364561028778553009033203125</LongitudeDegrees>
            </Position>
            <AltitudeMeters>1111.5999755859375</AltitudeMeters>
            <DistanceMeters>NAN</DistanceMeters>
          </Trackpoint>
          <Trackpoint>
            <Time>2022-09-19T09:53:17.000Z</Time>
            <Position>
              <LatitudeDegrees>49.309565238654613494873046875</LatitudeDegrees>
              <LongitudeDegrees>19.936485774815082550048828125</LongitudeDegrees>
            </Position>
            <AltitudeMeters>1111.199951171875</AltitudeMeters>
            <DistanceMeters>NAN</DistanceMeters>
          </Trackpoint>
          <Trackpoint>
            <Time>2022-09-19T09:53:19.000Z</Time>
            <Position>
              <LatitudeDegrees>49.3096701800823211669921875</LatitudeDegrees>
              <LongitudeDegrees>19.9365446157753467559814453125</LongitudeDegrees>
            </Position>
            <AltitudeMeters>1110.199951171875</AltitudeMeters>
            <DistanceMeters>NAN</DistanceMeters>
          </Trackpoint>
          <Trackpoint>
            <Time>2022-09-19T09:53:22.000Z</Time>
            <Position>
              <LatitudeDegrees>49.30981711484491825103759765625</LatitudeDegrees>
              <LongitudeDegrees>19.936632625758647918701171875</LongitudeDegrees>
            </Position>
            <AltitudeMeters>1108.800048828125</AltitudeMeters>
            <DistanceMeters>NAN</DistanceMeters>
          </Trackpoint>
          <Trackpoint>
            <Time>2022-09-19T09:53:25.000Z</Time>
            <Position>
              <LatitudeDegrees>49.30995541624724864959716796875</LatitudeDegrees>
              <LongitudeDegrees>19.93671351112425327301025390625</LongitudeDegrees>
            </Position>
            <AltitudeMeters>1107.4000244140625</AltitudeMeters>
            <DistanceMeters>NAN</DistanceMeters>
          </Trackpoint>
          <Trackpoint>
            <Time>2022-09-19T09:53:27.000Z</Time>
            <Position>
              <LatitudeDegrees>49.3100518919527530670166015625</LatitudeDegrees>
              <LongitudeDegrees>19.93676732294261455535888671875</LongitudeDegrees>
            </Position>
            <AltitudeMeters>1106.4000244140625</AltitudeMeters>
            <DistanceMeters>NAN</DistanceMeters>
          </Trackpoint>
          <Trackpoint>
            <Time>2022-09-19T09:53:30.000Z</Time>
            <Position>
              <LatitudeDegrees>49.31018625386059284210205078125</LatitudeDegrees>
              <LongitudeDegrees>19.93685332126915454864501953125</LongitudeDegrees>
            </Position>
            <AltitudeMeters>1104.800048828125</AltitudeMeters>
            <DistanceMeters>NAN</DistanceMeters>
          </Trackpoint>
          <Trackpoint>
            <Time>2022-09-19T09:53:33.000Z</Time>
            <Position>
              <LatitudeDegrees>49.3103174306452274322509765625</LatitudeDegrees>
              <LongitudeDegrees>19.9369643814861774444580078125</LongitudeDegrees>
            </Position>
            <AltitudeMeters>1103.5999755859375</AltitudeMeters>
            <DistanceMeters>NAN</DistanceMeters>
          </Trackpoint>
          <Trackpoint>
            <Time>2022-09-19T09:53:34.000Z</Time>
            <Position>
              <LatitudeDegrees>49.31035724468529224395751953125</LatitudeDegrees>
              <LongitudeDegrees>19.93700486607849597930908203125</LongitudeDegrees>
            </Position>
            <AltitudeMeters>1103.199951171875</AltitudeMeters>
            <DistanceMeters>NAN</DistanceMeters>
          </Trackpoint>
          <Trackpoint>
            <Time>2022-09-19T09:53:37.000Z</Time>
            <Position>
              <LatitudeDegrees>49.31047928519546985626220703125</LatitudeDegrees>
              <LongitudeDegrees>19.937142245471477508544921875</LongitudeDegrees>
            </Position>
            <AltitudeMeters>1102.199951171875</AltitudeMeters>
            <DistanceMeters>NAN</DistanceMeters>
          </Trackpoint>
          <Trackpoint>
            <Time>2022-09-19T09:53:39.000Z</Time>
            <Position>
              <LatitudeDegrees>49.31056008674204349517822265625</LatitudeDegrees>
              <LongitudeDegrees>19.9372574128210544586181640625</LongitudeDegrees>
            </Position>
            <AltitudeMeters>1101.4000244140625</AltitudeMeters>
            <DistanceMeters>NAN</DistanceMeters>
          </Trackpoint>
          <Trackpoint>
            <Time>2022-09-19T09:53:41.000Z</Time>
            <Position>
              <LatitudeDegrees>49.3106392957270145416259765625</LatitudeDegrees>
              <LongitudeDegrees>19.93735640309751033782958984375</LongitudeDegrees>
            </Position>
            <AltitudeMeters>1100.800048828125</AltitudeMeters>
            <DistanceMeters>NAN</DistanceMeters>
          </Trackpoint>
          <Trackpoint>
            <Time>2022-09-19T09:53:45.000Z</Time>
            <Position>
              <LatitudeDegrees>49.31081372313201427459716796875</LatitudeDegrees>
              <LongitudeDegrees>19.937535859644412994384765625</LongitudeDegrees>
            </Position>
            <AltitudeMeters>1099.4000244140625</AltitudeMeters>
            <DistanceMeters>NAN</DistanceMeters>
          </Trackpoint>
          <Trackpoint>
            <Time>2022-09-19T09:53:48.000Z</Time>
            <Position>
              <LatitudeDegrees>49.31097415275871753692626953125</LatitudeDegrees>
              <LongitudeDegrees>19.937640465795993804931640625</LongitudeDegrees>
            </Position>
            <AltitudeMeters>1098.5999755859375</AltitudeMeters>
            <DistanceMeters>NAN</DistanceMeters>
          </Trackpoint>
          <Trackpoint>
            <Time>2022-09-19T09:53:49.000Z</Time>
            <Position>
              <LatitudeDegrees>49.3110332451760768890380859375</LatitudeDegrees>
              <LongitudeDegrees>19.93768480606377124786376953125</LongitudeDegrees>
            </Position>
            <AltitudeMeters>1098</AltitudeMeters>
            <DistanceMeters>NAN</DistanceMeters>
          </Trackpoint>
          <Trackpoint>
            <Time>2022-09-19T09:53:51.000Z</Time>
            <Position>
              <LatitudeDegrees>49.311170540750026702880859375</LatitudeDegrees>
              <LongitudeDegrees>19.93778488598763942718505859375</LongitudeDegrees>
            </Position>
            <AltitudeMeters>1097.199951171875</AltitudeMeters>
            <DistanceMeters>NAN</DistanceMeters>
          </Trackpoint>
          <Trackpoint>
            <Time>2022-09-19T09:53:52.000Z</Time>
            <Position>
              <LatitudeDegrees>49.3112454749643802642822265625</LatitudeDegrees>
              <LongitudeDegrees>19.937838278710842132568359375</LongitudeDegrees>
            </Position>
            <AltitudeMeters>1096.5999755859375</AltitudeMeters>
            <DistanceMeters>NAN</DistanceMeters>
          </Trackpoint>
          <Trackpoint>
            <Time>2022-09-19T09:53:55.000Z</Time>
            <Position>
              <LatitudeDegrees>49.31146063841879367828369140625</LatitudeDegrees>
              <LongitudeDegrees>19.93804908357560634613037109375</LongitudeDegrees>
            </Position>
            <AltitudeMeters>1095</AltitudeMeters>
            <DistanceMeters>NAN</DistanceMeters>
          </Trackpoint>
          <Trackpoint>
            <Time>2022-09-19T09:53:57.000Z</Time>
            <Position>
              <LatitudeDegrees>49.3116067349910736083984375</LatitudeDegrees>
              <LongitudeDegrees>19.93819610215723514556884765625</LongitudeDegrees>
            </Position>
            <AltitudeMeters>1093.800048828125</AltitudeMeters>
            <DistanceMeters>NAN</DistanceMeters>
          </Trackpoint>
          <Trackpoint>
            <Time>2022-09-19T09:53:58.000Z</Time>
            <Position>
              <LatitudeDegrees>49.3116833455860614776611328125</LatitudeDegrees>
              <LongitudeDegrees>19.9382642470300197601318359375</LongitudeDegrees>
            </Position>
            <AltitudeMeters>1093.199951171875</AltitudeMeters>
            <DistanceMeters>NAN</DistanceMeters>
          </Trackpoint>
          <Trackpoint>
            <Time>2022-09-19T09:54:00.000Z</Time>
            <Position>
              <LatitudeDegrees>49.3118523247539997100830078125</LatitudeDegrees>
              <LongitudeDegrees>19.9384087510406970977783203125</LongitudeDegrees>
            </Position>
            <AltitudeMeters>1092.4000244140625</AltitudeMeters>
            <DistanceMeters>NAN</DistanceMeters>
          </Trackpoint>
          <Trackpoint>
            <Time>2022-09-19T09:54:01.000Z</Time>
            <Position>
              <LatitudeDegrees>49.31193840689957141876220703125</LatitudeDegrees>
              <LongitudeDegrees>19.9384714476764202117919921875</LongitudeDegrees>
            </Position>
            <AltitudeMeters>1091.800048828125</AltitudeMeters>
            <DistanceMeters>NAN</DistanceMeters>
          </Trackpoint>
          <Trackpoint>
            <Time>2022-09-19T09:54:02.000Z</Time>
            <Position>
              <LatitudeDegrees>49.31201619096100330352783203125</LatitudeDegrees>
              <LongitudeDegrees>19.938522242009639739990234375</LongitudeDegrees>
            </Position>
            <AltitudeMeters>1090.5999755859375</AltitudeMeters>
            <DistanceMeters>NAN</DistanceMeters>
          </Trackpoint>
          <Trackpoint>
            <Time>2022-09-19T09:54:04.000Z</Time>
            <Position>
              <LatitudeDegrees>49.31215717457234859466552734375</LatitudeDegrees>
              <LongitudeDegrees>19.9386286921799182891845703125</LongitudeDegrees>
            </Position>
            <AltitudeMeters>1089.199951171875</AltitudeMeters>
            <DistanceMeters>NAN</DistanceMeters>
          </Trackpoint>
          <Trackpoint>
            <Time>2022-09-19T09:54:05.000Z</Time>
            <Position>
              <LatitudeDegrees>49.31221853010356426239013671875</LatitudeDegrees>
              <LongitudeDegrees>19.93868443183600902557373046875</LongitudeDegrees>
            </Position>
            <AltitudeMeters>1088.800048828125</AltitudeMeters>
            <DistanceMeters>NAN</DistanceMeters>
          </Trackpoint>
          <Trackpoint>
            <Time>2022-09-19T09:54:06.000Z</Time>
            <Position>
              <LatitudeDegrees>49.3122741021215915679931640625</LatitudeDegrees>
              <LongitudeDegrees>19.93872969411313533782958984375</LongitudeDegrees>
            </Position>
            <AltitudeMeters>1088.199951171875</AltitudeMeters>
            <DistanceMeters>NAN</DistanceMeters>
          </Trackpoint>
          <Trackpoint>
            <Time>2022-09-19T09:54:09.000Z</Time>
            <Position>
              <LatitudeDegrees>49.3124274909496307373046875</LatitudeDegrees>
              <LongitudeDegrees>19.938845448195934295654296875</LongitudeDegrees>
            </Position>
            <AltitudeMeters>1087.4000244140625</AltitudeMeters>
            <DistanceMeters>NAN</DistanceMeters>
          </Trackpoint>
          <Trackpoint>
            <Time>2022-09-19T09:54:10.000Z</Time>
            <Position>
              <LatitudeDegrees>49.31248121894896030426025390625</LatitudeDegrees>
              <LongitudeDegrees>19.938880316913127899169921875</LongitudeDegrees>
            </Position>
            <AltitudeMeters>1087.199951171875</AltitudeMeters>
            <DistanceMeters>NAN</DistanceMeters>
          </Trackpoint>
          <Trackpoint>
            <Time>2022-09-19T09:54:13.000Z</Time>
            <Position>
              <LatitudeDegrees>49.3126425705850124359130859375</LatitudeDegrees>
              <LongitudeDegrees>19.9390156008303165435791015625</LongitudeDegrees>
            </Position>
            <AltitudeMeters>1086</AltitudeMeters>
            <DistanceMeters>NAN</DistanceMeters>
          </Trackpoint>
          <Trackpoint>
            <Time>2022-09-19T09:54:15.000Z</Time>
            <Position>
              <LatitudeDegrees>49.31275379844009876251220703125</LatitudeDegrees>
              <LongitudeDegrees>19.9391074664890766143798828125</LongitudeDegrees>
            </Position>
            <AltitudeMeters>1085.4000244140625</AltitudeMeters>
            <DistanceMeters>NAN</DistanceMeters>
          </Trackpoint>
          <Trackpoint>
            <Time>2022-09-19T09:54:17.000Z</Time>
            <Position>
              <LatitudeDegrees>49.3128729052841663360595703125</LatitudeDegrees>
              <LongitudeDegrees>19.93919321335852146148681640625</LongitudeDegrees>
            </Position>
            <AltitudeMeters>1084.800048828125</AltitudeMeters>
            <DistanceMeters>NAN</DistanceMeters>
          </Trackpoint>
          <Trackpoint>
            <Time>2022-09-19T09:54:18.000Z</Time>
            <Position>
              <LatitudeDegrees>49.31293266825377941131591796875</LatitudeDegrees>
              <LongitudeDegrees>19.93923914618790149688720703125</LongitudeDegrees>
            </Position>
            <AltitudeMeters>1084.5999755859375</AltitudeMeters>
            <DistanceMeters>NAN</DistanceMeters>
          </Trackpoint>
          <Trackpoint>
            <Time>2022-09-19T09:54:23.000Z</Time>
            <Position>
              <LatitudeDegrees>49.31322486139833927154541015625</LatitudeDegrees>
              <LongitudeDegrees>19.9395056068897247314453125</LongitudeDegrees>
            </Position>
            <AltitudeMeters>1083.5999755859375</AltitudeMeters>
            <DistanceMeters>NAN</DistanceMeters>
          </Trackpoint>
          <Trackpoint>
            <Time>2022-09-19T09:54:24.000Z</Time>
            <Position>
              <LatitudeDegrees>49.31328286416828632354736328125</LatitudeDegrees>
              <LongitudeDegrees>19.93956394493579864501953125</LongitudeDegrees>
            </Position>
            <AltitudeMeters>1083.4000244140625</AltitudeMeters>
            <DistanceMeters>NAN</DistanceMeters>
          </Trackpoint>
          <Trackpoint>
            <Time>2022-09-19T09:54:27.000Z</Time>
            <Position>
              <LatitudeDegrees>49.31346458382904529571533203125</LatitudeDegrees>
              <LongitudeDegrees>19.93974725715816020965576171875</LongitudeDegrees>
            </Position>
            <AltitudeMeters>1082.5999755859375</AltitudeMeters>
            <DistanceMeters>NAN</DistanceMeters>
          </Trackpoint>
          <Trackpoint>
            <Time>2022-09-19T09:54:31.000Z</Time>
            <Position>
              <LatitudeDegrees>49.3136926554143428802490234375</LatitudeDegrees>
              <LongitudeDegrees>19.9399858899414539337158203125</LongitudeDegrees>
            </Position>
            <AltitudeMeters>1081.5999755859375</AltitudeMeters>
            <DistanceMeters>NAN</DistanceMeters>
          </Trackpoint>
          <Trackpoint>
            <Time>2022-09-19T09:54:32.000Z</Time>
            <Position>
              <LatitudeDegrees>49.31374034844338893890380859375</LatitudeDegrees>
              <LongitudeDegrees>19.94004582054913043975830078125</LongitudeDegrees>
            </Position>
            <AltitudeMeters>1081.4000244140625</AltitudeMeters>
            <DistanceMeters>NAN</DistanceMeters>
          </Trackpoint>
          <Trackpoint>
            <Time>2022-09-19T09:54:34.000Z</Time>
            <Position>
              <LatitudeDegrees>49.31383657269179821014404296875</LatitudeDegrees>
              <LongitudeDegrees>19.94015864096581935882568359375</LongitudeDegrees>
            </Position>
            <AltitudeMeters>1081</AltitudeMeters>
            <DistanceMeters>NAN</DistanceMeters>
          </Trackpoint>
          <Trackpoint>
            <Time>2022-09-19T09:54:39.000Z</Time>
            <Position>
              <LatitudeDegrees>49.31404176168143749237060546875</LatitudeDegrees>
              <LongitudeDegrees>19.94043557904660701751708984375</LongitudeDegrees>
            </Position>
            <AltitudeMeters>1080.4000244140625</AltitudeMeters>
            <DistanceMeters>NAN</DistanceMeters>
          </Trackpoint>
          <Trackpoint>
            <Time>2022-09-19T09:54:41.000Z</Time>
            <Position>
              <LatitudeDegrees>49.31412541307508945465087890625</LatitudeDegrees>
              <LongitudeDegrees>19.9405444599688053131103515625</LongitudeDegrees>
            </Position>
            <AltitudeMeters>1080</AltitudeMeters>
            <DistanceMeters>NAN</DistanceMeters>
          </Trackpoint>
          <Trackpoint>
            <Time>2022-09-19T09:54:44.000Z</Time>
            <Position>
              <LatitudeDegrees>49.31425315327942371368408203125</LatitudeDegrees>
              <LongitudeDegrees>19.94070254266262054443359375</LongitudeDegrees>
            </Position>
            <AltitudeMeters>1079.199951171875</AltitudeMeters>
            <DistanceMeters>NAN</DistanceMeters>
          </Trackpoint>
          <Trackpoint>
            <Time>2022-09-19T09:54:46.000Z</Time>
            <Position>
              <LatitudeDegrees>49.3143238127231597900390625</LatitudeDegrees>
              <LongitudeDegrees>19.9407432787120342254638671875</LongitudeDegrees>
            </Position>
            <AltitudeMeters>1078.800048828125</AltitudeMeters>
            <DistanceMeters>NAN</DistanceMeters>
          </Trackpoint>
          <Trackpoint>
            <Time>2022-09-19T09:54:50.000Z</Time>
            <Position>
              <LatitudeDegrees>49.3143685720860958099365234375</LatitudeDegrees>
              <LongitudeDegrees>19.9407573603093624114990234375</LongitudeDegrees>
            </Position>
            <AltitudeMeters>1078.199951171875</AltitudeMeters>
            <DistanceMeters>NAN</DistanceMeters>
          </Trackpoint>
          <Trackpoint>
            <Time>2022-09-19T09:54:59.000Z</Time>
            <Position>
              <LatitudeDegrees>49.3143685720860958099365234375</LatitudeDegrees>
              <LongitudeDegrees>19.9407573603093624114990234375</LongitudeDegrees>
            </Position>
            <AltitudeMeters>1078.199951171875</AltitudeMeters>
            <DistanceMeters>NAN</DistanceMeters>
          </Trackpoint>
          <Trackpoint>
            <Time>2022-09-19T09:55:01.000Z</Time>
            <Position>
              <LatitudeDegrees>49.3143685720860958099365234375</LatitudeDegrees>
              <LongitudeDegrees>19.9407573603093624114990234375</LongitudeDegrees>
            </Position>
            <AltitudeMeters>1078</AltitudeMeters>
            <DistanceMeters>NAN</DistanceMeters>
          </Trackpoint>
          <Trackpoint>
            <Time>2022-09-19T09:55:27.000Z</Time>
            <Position>
              <LatitudeDegrees>49.3143685720860958099365234375</LatitudeDegrees>
              <LongitudeDegrees>19.9407573603093624114990234375</LongitudeDegrees>
            </Position>
            <AltitudeMeters>1078</AltitudeMeters>
            <DistanceMeters>NAN</DistanceMeters>
          </Trackpoint>
          <Trackpoint>
            <Time>2022-09-19T09:55:38.000Z</Time>
            <Position>
              <LatitudeDegrees>49.31436873972415924072265625</LatitudeDegrees>
              <LongitudeDegrees>19.94076021015644073486328125</LongitudeDegrees>
            </Position>
            <AltitudeMeters>1078.199951171875</AltitudeMeters>
            <DistanceMeters>NAN</DistanceMeters>
          </Trackpoint>
          <Trackpoint>
            <Time>2022-09-19T09:55:41.000Z</Time>
            <Position>
              <LatitudeDegrees>49.3144088052213191986083984375</LatitudeDegrees>
              <LongitudeDegrees>19.94082332588732242584228515625</LongitudeDegrees>
            </Position>
            <AltitudeMeters>1078.199951171875</AltitudeMeters>
            <DistanceMeters>NAN</DistanceMeters>
          </Trackpoint>
          <Trackpoint>
            <Time>2022-09-19T09:55:47.000Z</Time>
            <Position>
              <LatitudeDegrees>49.3145472742617130279541015625</LatitudeDegrees>
              <LongitudeDegrees>19.9409632198512554168701171875</LongitudeDegrees>
            </Position>
            <AltitudeMeters>1077.5999755859375</AltitudeMeters>
            <DistanceMeters>NAN</DistanceMeters>
          </Trackpoint>
          <Trackpoint>
            <Time>2022-09-19T09:55:52.000Z</Time>
            <Position>
              <LatitudeDegrees>49.3146743439137935638427734375</LatitudeDegrees>
              <LongitudeDegrees>19.9410842545330524444580078125</LongitudeDegrees>
            </Position>
            <AltitudeMeters>1077</AltitudeMeters>
            <DistanceMeters>NAN</DistanceMeters>
          </Trackpoint>
          <Trackpoint>
            <Time>2022-09-19T09:55:54.000Z</Time>
            <Position>
              <LatitudeDegrees>49.31470192037522792816162109375</LatitudeDegrees>
              <LongitudeDegrees>19.94111853651702404022216796875</LongitudeDegrees>
            </Position>
            <AltitudeMeters>1076.800048828125</AltitudeMeters>
            <DistanceMeters>NAN</DistanceMeters>
          </Trackpoint>
          <Trackpoint>
            <Time>2022-09-19T09:55:56.000Z</Time>
            <Position>
              <LatitudeDegrees>49.3147180974483489990234375</LatitudeDegrees>
              <LongitudeDegrees>19.941144771873950958251953125</LongitudeDegrees>
            </Position>
            <AltitudeMeters>1076.5999755859375</AltitudeMeters>
            <DistanceMeters>NAN</DistanceMeters>
          </Trackpoint>
          <Trackpoint>
            <Time>2022-09-19T09:55:59.000Z</Time>
            <Position>
              <LatitudeDegrees>49.31472052820026874542236328125</LatitudeDegrees>
              <LongitudeDegrees>19.941149465739727020263671875</LongitudeDegrees>
            </Position>
            <AltitudeMeters>1076.4000244140625</AltitudeMeters>
            <DistanceMeters>NAN</DistanceMeters>
          </Trackpoint>
          <Trackpoint>
            <Time>2022-09-19T09:56:08.000Z</Time>
            <Position>
              <LatitudeDegrees>49.31472052820026874542236328125</LatitudeDegrees>
              <LongitudeDegrees>19.941149465739727020263671875</LongitudeDegrees>
            </Position>
            <AltitudeMeters>1076.4000244140625</AltitudeMeters>
            <DistanceMeters>NAN</DistanceMeters>
          </Trackpoint>
          <Trackpoint>
            <Time>2022-09-19T09:56:10.000Z</Time>
            <Position>
              <LatitudeDegrees>49.31472052820026874542236328125</LatitudeDegrees>
              <LongitudeDegrees>19.941149465739727020263671875</LongitudeDegrees>
            </Position>
            <AltitudeMeters>1076.199951171875</AltitudeMeters>
            <DistanceMeters>NAN</DistanceMeters>
          </Trackpoint>
          <Trackpoint>
            <Time>2022-09-19T09:56:12.000Z</Time>
            <Position>
              <LatitudeDegrees>49.31472220458090305328369140625</LatitudeDegrees>
              <LongitudeDegrees>19.9411499686539173126220703125</LongitudeDegrees>
            </Position>
            <AltitudeMeters>1076.199951171875</AltitudeMeters>
            <DistanceMeters>NAN</DistanceMeters>
          </Trackpoint>
          <Trackpoint>
            <Time>2022-09-19T09:56:13.000Z</Time>
            <Position>
              <LatitudeDegrees>49.314738214015960693359375</LatitudeDegrees>
              <LongitudeDegrees>19.94116254150867462158203125</LongitudeDegrees>
            </Position>
            <AltitudeMeters>1076.199951171875</AltitudeMeters>
            <DistanceMeters>NAN</DistanceMeters>
          </Trackpoint>
          <Trackpoint>
            <Time>2022-09-19T09:56:18.000Z</Time>
            <Position>
              <LatitudeDegrees>49.3148513697087764739990234375</LatitudeDegrees>
              <LongitudeDegrees>19.94126371107995510101318359375</LongitudeDegrees>
            </Position>
            <AltitudeMeters>1076</AltitudeMeters>
            <DistanceMeters>NAN</DistanceMeters>
          </Trackpoint>
          <Trackpoint>
            <Time>2022-09-19T09:56:19.000Z</Time>
            <Position>
              <LatitudeDegrees>49.314883053302764892578125</LatitudeDegrees>
              <LongitudeDegrees>19.94129338301718235015869140625</LongitudeDegrees>
            </Position>
            <AltitudeMeters>1075.800048828125</AltitudeMeters>
            <DistanceMeters>NAN</DistanceMeters>
          </Trackpoint>
          <Trackpoint>
            <Time>2022-09-19T09:56:24.000Z</Time>
            <Position>
              <LatitudeDegrees>49.31504189036786556243896484375</LatitudeDegrees>
              <LongitudeDegrees>19.941454231739044189453125</LongitudeDegrees>
            </Position>
            <AltitudeMeters>1075</AltitudeMeters>
            <DistanceMeters>NAN</DistanceMeters>
          </Trackpoint>
          <Trackpoint>
            <Time>2022-09-19T09:56:26.000Z</Time>
            <Position>
              <LatitudeDegrees>49.31509402580559253692626953125</LatitudeDegrees>
              <LongitudeDegrees>19.9415067024528980255126953125</LongitudeDegrees>
            </Position>
            <AltitudeMeters>1074.199951171875</AltitudeMeters>
            <DistanceMeters>NAN</DistanceMeters>
          </Trackpoint>
          <Trackpoint>
            <Time>2022-09-19T09:56:28.000Z</Time>
            <Position>
              <LatitudeDegrees>49.31513576768338680267333984375</LatitudeDegrees>
              <LongitudeDegrees>19.94154970161616802215576171875</LongitudeDegrees>
            </Position>
            <AltitudeMeters>1073.800048828125</AltitudeMeters>
            <DistanceMeters>NAN</DistanceMeters>
          </Trackpoint>
          <Trackpoint>
            <Time>2022-09-19T09:56:31.000Z</Time>
            <Position>
              <LatitudeDegrees>49.3151982128620147705078125</LatitudeDegrees>
              <LongitudeDegrees>19.9416361190378665924072265625</LongitudeDegrees>
            </Position>
            <AltitudeMeters>1073</AltitudeMeters>
            <DistanceMeters>NAN</DistanceMeters>
          </Trackpoint>
          <Trackpoint>
            <Time>2022-09-19T09:56:32.000Z</Time>
            <Position>
              <LatitudeDegrees>49.3152205087244510650634765625</LatitudeDegrees>
              <LongitudeDegrees>19.94166235439479351043701171875</LongitudeDegrees>
            </Position>
            <AltitudeMeters>1072.5999755859375</AltitudeMeters>
            <DistanceMeters>NAN</DistanceMeters>
          </Trackpoint>
          <Trackpoint>
            <Time>2022-09-19T09:56:37.000Z</Time>
            <Position>
              <LatitudeDegrees>49.31528178043663501739501953125</LatitudeDegrees>
              <LongitudeDegrees>19.94172488339245319366455078125</LongitudeDegrees>
            </Position>
            <AltitudeMeters>1072</AltitudeMeters>
            <DistanceMeters>NAN</DistanceMeters>
          </Trackpoint>
          <Trackpoint>
            <Time>2022-09-19T09:56:46.000Z</Time>
            <Position>
              <LatitudeDegrees>49.31528178043663501739501953125</LatitudeDegrees>
              <LongitudeDegrees>19.94172488339245319366455078125</LongitudeDegrees>
            </Position>
            <AltitudeMeters>1071.800048828125</AltitudeMeters>
            <DistanceMeters>NAN</DistanceMeters>
          </Trackpoint>
          <Trackpoint>
            <Time>2022-09-19T09:56:48.000Z</Time>
            <Position>
              <LatitudeDegrees>49.31528178043663501739501953125</LatitudeDegrees>
              <LongitudeDegrees>19.94172488339245319366455078125</LongitudeDegrees>
            </Position>
            <AltitudeMeters>1071.800048828125</AltitudeMeters>
            <DistanceMeters>NAN</DistanceMeters>
          </Trackpoint>
          <Trackpoint>
            <Time>2022-09-19T09:57:01.000Z</Time>
            <Position>
              <LatitudeDegrees>49.31528194807469844818115234375</LatitudeDegrees>
              <LongitudeDegrees>19.941723458468914031982421875</LongitudeDegrees>
            </Position>
            <AltitudeMeters>1071.800048828125</AltitudeMeters>
            <DistanceMeters>NAN</DistanceMeters>
          </Trackpoint>
          <Trackpoint>
            <Time>2022-09-19T09:57:03.000Z</Time>
            <Position>
              <LatitudeDegrees>49.31528194807469844818115234375</LatitudeDegrees>
              <LongitudeDegrees>19.941723458468914031982421875</LongitudeDegrees>
            </Position>
            <AltitudeMeters>1072</AltitudeMeters>
            <DistanceMeters>NAN</DistanceMeters>
          </Trackpoint>
          <Trackpoint>
            <Time>2022-09-19T09:57:06.000Z</Time>
            <Position>
              <LatitudeDegrees>49.3152677826583385467529296875</LatitudeDegrees>
              <LongitudeDegrees>19.941704012453556060791015625</LongitudeDegrees>
            </Position>
            <AltitudeMeters>1072</AltitudeMeters>
            <DistanceMeters>NAN</DistanceMeters>
          </Trackpoint>
          <Trackpoint>
            <Time>2022-09-19T09:57:08.000Z</Time>
            <Position>
              <LatitudeDegrees>49.31523350067436695098876953125</LatitudeDegrees>
              <LongitudeDegrees>19.9416733346879482269287109375</LongitudeDegrees>
            </Position>
            <AltitudeMeters>1072.4000244140625</AltitudeMeters>
            <DistanceMeters>NAN</DistanceMeters>
          </Trackpoint>
          <Trackpoint>
            <Time>2022-09-19T09:57:13.000Z</Time>
            <Position>
              <LatitudeDegrees>49.31512218900024890899658203125</LatitudeDegrees>
              <LongitudeDegrees>19.94153260253369808197021484375</LongitudeDegrees>
            </Position>
            <AltitudeMeters>1073.199951171875</AltitudeMeters>
            <DistanceMeters>NAN</DistanceMeters>
          </Trackpoint>
          <Trackpoint>
            <Time>2022-09-19T09:57:17.000Z</Time>
            <Position>
              <LatitudeDegrees>49.3150139786303043365478515625</LatitudeDegrees>
              <LongitudeDegrees>19.94139530695974826812744140625</LongitudeDegrees>
            </Position>
            <AltitudeMeters>1073.800048828125</AltitudeMeters>
            <DistanceMeters>NAN</DistanceMeters>
          </Trackpoint>
          <Trackpoint>
            <Time>2022-09-19T09:57:20.000Z</Time>
            <Position>
              <LatitudeDegrees>49.3149372003972530364990234375</LatitudeDegrees>
              <LongitudeDegrees>19.94132121093571186065673828125</LongitudeDegrees>
            </Position>
            <AltitudeMeters>1074.4000244140625</AltitudeMeters>
            <DistanceMeters>NAN</DistanceMeters>
          </Trackpoint>
          <Trackpoint>
            <Time>2022-09-19T09:57:23.000Z</Time>
            <Position>
              <LatitudeDegrees>49.31487726978957653045654296875</LatitudeDegrees>
              <LongitudeDegrees>19.94126974605023860931396484375</LongitudeDegrees>
            </Position>
            <AltitudeMeters>1075</AltitudeMeters>
            <DistanceMeters>NAN</DistanceMeters>
          </Trackpoint>
          <Trackpoint>
            <Time>2022-09-19T09:57:26.000Z</Time>
            <Position>
              <LatitudeDegrees>49.31480367667973041534423828125</LatitudeDegrees>
              <LongitudeDegrees>19.94120051153004169464111328125</LongitudeDegrees>
            </Position>
            <AltitudeMeters>1075.4000244140625</AltitudeMeters>
            <DistanceMeters>NAN</DistanceMeters>
          </Trackpoint>
          <Trackpoint>
            <Time>2022-09-19T09:57:30.000Z</Time>
            <Position>
              <LatitudeDegrees>49.3147315084934234619140625</LatitudeDegrees>
              <LongitudeDegrees>19.941113255918025970458984375</LongitudeDegrees>
            </Position>
            <AltitudeMeters>1076</AltitudeMeters>
            <DistanceMeters>NAN</DistanceMeters>
          </Trackpoint>
          <Trackpoint>
            <Time>2022-09-19T09:57:32.000Z</Time>
            <Position>
              <LatitudeDegrees>49.31468616239726543426513671875</LatitudeDegrees>
              <LongitudeDegrees>19.9410762079060077667236328125</LongitudeDegrees>
            </Position>
            <AltitudeMeters>1076</AltitudeMeters>
            <DistanceMeters>NAN</DistanceMeters>
          </Trackpoint>
          <Trackpoint>
            <Time>2022-09-19T09:57:40.000Z</Time>
            <Position>
              <LatitudeDegrees>49.3145227991044521331787109375</LatitudeDegrees>
              <LongitudeDegrees>19.940911419689655303955078125</LongitudeDegrees>
            </Position>
            <AltitudeMeters>1076.5999755859375</AltitudeMeters>
            <DistanceMeters>NAN</DistanceMeters>
          </Trackpoint>
          <Trackpoint>
            <Time>2022-09-19T09:57:43.000Z</Time>
            <Position>
              <LatitudeDegrees>49.3144792132079601287841796875</LatitudeDegrees>
              <LongitudeDegrees>19.94086858816444873809814453125</LongitudeDegrees>
            </Position>
            <AltitudeMeters>1077</AltitudeMeters>
            <DistanceMeters>NAN</DistanceMeters>
          </Trackpoint>
          <Trackpoint>
            <Time>2022-09-19T09:57:46.000Z</Time>
            <Position>
              <LatitudeDegrees>49.314420036971569061279296875</LatitudeDegrees>
              <LongitudeDegrees>19.94083254598081111907958984375</LongitudeDegrees>
            </Position>
            <AltitudeMeters>1077.4000244140625</AltitudeMeters>
            <DistanceMeters>NAN</DistanceMeters>
          </Trackpoint>
          <Trackpoint>
            <Time>2022-09-19T09:57:50.000Z</Time>
            <Position>
              <LatitudeDegrees>49.314340241253376007080078125</LatitudeDegrees>
              <LongitudeDegrees>19.9407600425183773040771484375</LongitudeDegrees>
            </Position>
            <AltitudeMeters>1078.199951171875</AltitudeMeters>
            <DistanceMeters>NAN</DistanceMeters>
          </Trackpoint>
          <Trackpoint>
            <Time>2022-09-19T09:57:56.000Z</Time>
            <Position>
              <LatitudeDegrees>49.31423605419695377349853515625</LatitudeDegrees>
              <LongitudeDegrees>19.94063775055110454559326171875</LongitudeDegrees>
            </Position>
            <AltitudeMeters>1078.4000244140625</AltitudeMeters>
            <DistanceMeters>NAN</DistanceMeters>
          </Trackpoint>
          <Trackpoint>
            <Time>2022-09-19T09:58:00.000Z</Time>
            <Position>
              <LatitudeDegrees>49.3141771294176578521728515625</LatitudeDegrees>
              <LongitudeDegrees>19.94055770337581634521484375</LongitudeDegrees>
            </Position>
            <AltitudeMeters>1078.5999755859375</AltitudeMeters>
            <DistanceMeters>NAN</DistanceMeters>
          </Trackpoint>
          <Trackpoint>
            <Time>2022-09-19T09:58:05.000Z</Time>
            <Position>
              <LatitudeDegrees>49.31408308446407318115234375</LatitudeDegrees>
              <LongitudeDegrees>19.94043222628533840179443359375</LongitudeDegrees>
            </Position>
            <AltitudeMeters>1079.199951171875</AltitudeMeters>
            <DistanceMeters>NAN</DistanceMeters>
          </Trackpoint>
          <Trackpoint>
            <Time>2022-09-19T09:58:11.000Z</Time>
            <Position>
              <LatitudeDegrees>49.313996247947216033935546875</LatitudeDegrees>
              <LongitudeDegrees>19.940318651497364044189453125</LongitudeDegrees>
            </Position>
            <AltitudeMeters>1079.5999755859375</AltitudeMeters>
            <DistanceMeters>NAN</DistanceMeters>
          </Trackpoint>
          <Trackpoint>
            <Time>2022-09-19T09:58:18.000Z</Time>
            <Position>
              <LatitudeDegrees>49.31388669647276401519775390625</LatitudeDegrees>
              <LongitudeDegrees>19.94017473421990871429443359375</LongitudeDegrees>
            </Position>
            <AltitudeMeters>1080</AltitudeMeters>
            <DistanceMeters>NAN</DistanceMeters>
          </Trackpoint>
          <Trackpoint>
            <Time>2022-09-19T09:58:22.000Z</Time>
            <Position>
              <LatitudeDegrees>49.313819222152233123779296875</LatitudeDegrees>
              <LongitudeDegrees>19.940102733671665191650390625</LongitudeDegrees>
            </Position>
            <AltitudeMeters>1080.199951171875</AltitudeMeters>
            <DistanceMeters>NAN</DistanceMeters>
          </Trackpoint>
          <Trackpoint>
            <Time>2022-09-19T09:58:27.000Z</Time>
            <Position>
              <LatitudeDegrees>49.313738755881786346435546875</LatitudeDegrees>
              <LongitudeDegrees>19.9400103650987148284912109375</LongitudeDegrees>
            </Position>
            <AltitudeMeters>1080.5999755859375</AltitudeMeters>
            <DistanceMeters>NAN</DistanceMeters>
          </Trackpoint>
          <Trackpoint>
            <Time>2022-09-19T09:58:32.000Z</Time>
            <Position>
              <LatitudeDegrees>49.31363758631050586700439453125</LatitudeDegrees>
              <LongitudeDegrees>19.939898550510406494140625</LongitudeDegrees>
            </Position>
            <AltitudeMeters>1081</AltitudeMeters>
            <DistanceMeters>NAN</DistanceMeters>
          </Trackpoint>
          <Trackpoint>
            <Time>2022-09-19T09:58:36.000Z</Time>
            <Position>
              <LatitudeDegrees>49.31356944143772125244140625</LatitudeDegrees>
              <LongitudeDegrees>19.93982085026800632476806640625</LongitudeDegrees>
            </Position>
            <AltitudeMeters>1081.199951171875</AltitudeMeters>
            <DistanceMeters>NAN</DistanceMeters>
          </Trackpoint>
          <Trackpoint>
            <Time>2022-09-19T09:58:39.000Z</Time>
            <Position>
              <LatitudeDegrees>49.31353013031184673309326171875</LatitudeDegrees>
              <LongitudeDegrees>19.93976620025932788848876953125</LongitudeDegrees>
            </Position>
            <AltitudeMeters>1081.199951171875</AltitudeMeters>
            <DistanceMeters>NAN</DistanceMeters>
          </Trackpoint>
          <Trackpoint>
            <Time>2022-09-19T09:58:40.000Z</Time>
            <Position>
              <LatitudeDegrees>49.31351311504840850830078125</LatitudeDegrees>
              <LongitudeDegrees>19.9397515319287776947021484375</LongitudeDegrees>
            </Position>
            <AltitudeMeters>1081.4000244140625</AltitudeMeters>
            <DistanceMeters>NAN</DistanceMeters>
          </Trackpoint>
          <Trackpoint>
            <Time>2022-09-19T09:58:49.000Z</Time>
            <Position>
              <LatitudeDegrees>49.31335352361202239990234375</LatitudeDegrees>
              <LongitudeDegrees>19.939572326838970184326171875</LongitudeDegrees>
            </Position>
            <AltitudeMeters>1082</AltitudeMeters>
            <DistanceMeters>NAN</DistanceMeters>
          </Trackpoint>
          <Trackpoint>
            <Time>2022-09-19T09:58:52.000Z</Time>
            <Position>
              <LatitudeDegrees>49.313300214707851409912109375</LatitudeDegrees>
              <LongitudeDegrees>19.93952563963830471038818359375</LongitudeDegrees>
            </Position>
            <AltitudeMeters>1082.4000244140625</AltitudeMeters>
            <DistanceMeters>NAN</DistanceMeters>
          </Trackpoint>
          <Trackpoint>
            <Time>2022-09-19T09:58:54.000Z</Time>
            <Position>
              <LatitudeDegrees>49.313257634639739990234375</LatitudeDegrees>
              <LongitudeDegrees>19.9394947104156017303466796875</LongitudeDegrees>
            </Position>
            <AltitudeMeters>1082.5999755859375</AltitudeMeters>
            <DistanceMeters>NAN</DistanceMeters>
          </Trackpoint>
          <Trackpoint>
            <Time>2022-09-19T09:58:57.000Z</Time>
            <Position>
              <LatitudeDegrees>49.31320130825042724609375</LatitudeDegrees>
              <LongitudeDegrees>19.939432851970195770263671875</LongitudeDegrees>
            </Position>
            <AltitudeMeters>1082.800048828125</AltitudeMeters>
            <DistanceMeters>NAN</DistanceMeters>
          </Trackpoint>
          <Trackpoint>
            <Time>2022-09-19T09:59:04.000Z</Time>
            <Position>
              <LatitudeDegrees>49.313101060688495635986328125</LatitudeDegrees>
              <LongitudeDegrees>19.9393124878406524658203125</LongitudeDegrees>
            </Position>
            <AltitudeMeters>1083.4000244140625</AltitudeMeters>
            <DistanceMeters>NAN</DistanceMeters>
          </Trackpoint>
          <Trackpoint>
            <Time>2022-09-19T09:59:05.000Z</Time>
            <Position>
              <LatitudeDegrees>49.31308924220502376556396484375</LatitudeDegrees>
              <LongitudeDegrees>19.93930033408105373382568359375</LongitudeDegrees>
            </Position>
            <AltitudeMeters>1083.4000244140625</AltitudeMeters>
            <DistanceMeters>NAN</DistanceMeters>
          </Trackpoint>
          <Trackpoint>
            <Time>2022-09-19T09:59:16.000Z</Time>
            <Position>
              <LatitudeDegrees>49.31288279592990875244140625</LatitudeDegrees>
              <LongitudeDegrees>19.93915197439491748809814453125</LongitudeDegrees>
            </Position>
            <AltitudeMeters>1084.4000244140625</AltitudeMeters>
            <DistanceMeters>NAN</DistanceMeters>
          </Trackpoint>
          <Trackpoint>
            <Time>2022-09-19T09:59:17.000Z</Time>
            <Position>
              <LatitudeDegrees>49.31286343373358249664306640625</LatitudeDegrees>
              <LongitudeDegrees>19.9391408264636993408203125</LongitudeDegrees>
            </Position>
            <AltitudeMeters>1084.4000244140625</AltitudeMeters>
            <DistanceMeters>NAN</DistanceMeters>
          </Trackpoint>
          <Trackpoint>
            <Time>2022-09-19T09:59:23.000Z</Time>
            <Position>
              <LatitudeDegrees>49.31275212205946445465087890625</LatitudeDegrees>
              <LongitudeDegrees>19.93907419033348560333251953125</LongitudeDegrees>
            </Position>
            <AltitudeMeters>1084.5999755859375</AltitudeMeters>
            <DistanceMeters>NAN</DistanceMeters>
          </Trackpoint>
          <Trackpoint>
            <Time>2022-09-19T09:59:33.000Z</Time>
            <Position>
              <LatitudeDegrees>49.3125574104487895965576171875</LatitudeDegrees>
              <LongitudeDegrees>19.93892566300928592681884765625</LongitudeDegrees>
            </Position>
            <AltitudeMeters>1085.4000244140625</AltitudeMeters>
            <DistanceMeters>NAN</DistanceMeters>
          </Trackpoint>
          <Trackpoint>
            <Time>2022-09-19T09:59:38.000Z</Time>
            <Position>
              <LatitudeDegrees>49.31251742877066135406494140625</LatitudeDegrees>
              <LongitudeDegrees>19.9388821609318256378173828125</LongitudeDegrees>
            </Position>
            <AltitudeMeters>1086</AltitudeMeters>
            <DistanceMeters>NAN</DistanceMeters>
          </Trackpoint>
          <Trackpoint>
            <Time>2022-09-19T09:59:47.000Z</Time>
            <Position>
              <LatitudeDegrees>49.31251742877066135406494140625</LatitudeDegrees>
              <LongitudeDegrees>19.9388821609318256378173828125</LongitudeDegrees>
            </Position>
            <AltitudeMeters>1086</AltitudeMeters>
            <DistanceMeters>NAN</DistanceMeters>
          </Trackpoint>
          <Trackpoint>
            <Time>2022-09-19T09:59:55.000Z</Time>
            <Position>
              <LatitudeDegrees>49.31251742877066135406494140625</LatitudeDegrees>
              <LongitudeDegrees>19.9388821609318256378173828125</LongitudeDegrees>
            </Position>
            <AltitudeMeters>1086</AltitudeMeters>
            <DistanceMeters>NAN</DistanceMeters>
          </Trackpoint>
          <Trackpoint>
            <Time>2022-09-19T10:00:06.000Z</Time>
            <Position>
              <LatitudeDegrees>49.3125171773135662078857421875</LatitudeDegrees>
              <LongitudeDegrees>19.93888266384601593017578125</LongitudeDegrees>
            </Position>
            <AltitudeMeters>1085.800048828125</AltitudeMeters>
            <DistanceMeters>NAN</DistanceMeters>
          </Trackpoint>
          <Trackpoint>
            <Time>2022-09-19T10:00:09.000Z</Time>
            <Position>
              <LatitudeDegrees>49.31251491419970989227294921875</LatitudeDegrees>
              <LongitudeDegrees>19.9388824962079524993896484375</LongitudeDegrees>
            </Position>
            <AltitudeMeters>1086</AltitudeMeters>
            <DistanceMeters>NAN</DistanceMeters>
          </Trackpoint>
          <Trackpoint>
            <Time>2022-09-19T10:00:12.000Z</Time>
            <Position>
              <LatitudeDegrees>49.31246034801006317138671875</LatitudeDegrees>
              <LongitudeDegrees>19.9388519860804080963134765625</LongitudeDegrees>
            </Position>
            <AltitudeMeters>1086.5999755859375</AltitudeMeters>
            <DistanceMeters>NAN</DistanceMeters>
          </Trackpoint>
          <Trackpoint>
            <Time>2022-09-19T10:00:15.000Z</Time>
            <Position>
              <LatitudeDegrees>49.3123911134898662567138671875</LatitudeDegrees>
              <LongitudeDegrees>19.9388001859188079833984375</LongitudeDegrees>
            </Position>
            <AltitudeMeters>1086.800048828125</AltitudeMeters>
            <DistanceMeters>NAN</DistanceMeters>
          </Trackpoint>
          <Trackpoint>
            <Time>2022-09-19T10:00:18.000Z</Time>
            <Position>
              <LatitudeDegrees>49.31231022812426090240478515625</LatitudeDegrees>
              <LongitudeDegrees>19.9387463741004467010498046875</LongitudeDegrees>
            </Position>
            <AltitudeMeters>1087.199951171875</AltitudeMeters>
            <DistanceMeters>NAN</DistanceMeters>
          </Trackpoint>
          <Trackpoint>
            <Time>2022-09-19T10:00:20.000Z</Time>
            <Position>
              <LatitudeDegrees>49.31225624866783618927001953125</LatitudeDegrees>
              <LongitudeDegrees>19.93870790116488933563232421875</LongitudeDegrees>
            </Position>
            <AltitudeMeters>1087.5999755859375</AltitudeMeters>
            <DistanceMeters>NAN</DistanceMeters>
          </Trackpoint>
          <Trackpoint>
            <Time>2022-09-19T10:00:23.000Z</Time>
            <Position>
              <LatitudeDegrees>49.3122060410678386688232421875</LatitudeDegrees>
              <LongitudeDegrees>19.93866079486906528472900390625</LongitudeDegrees>
            </Position>
            <AltitudeMeters>1088</AltitudeMeters>
            <DistanceMeters>NAN</DistanceMeters>
          </Trackpoint>
          <Trackpoint>
            <Time>2022-09-19T10:00:27.000Z</Time>
            <Position>
              <LatitudeDegrees>49.3121316097676753997802734375</LatitudeDegrees>
              <LongitudeDegrees>19.9386048875749111175537109375</LongitudeDegrees>
            </Position>
            <AltitudeMeters>1088.199951171875</AltitudeMeters>
            <DistanceMeters>NAN</DistanceMeters>
          </Trackpoint>
          <Trackpoint>
            <Time>2022-09-19T10:00:29.000Z</Time>
            <Position>
              <LatitudeDegrees>49.31209263391792774200439453125</LatitudeDegrees>
              <LongitudeDegrees>19.93856155313551425933837890625</LongitudeDegrees>
            </Position>
            <AltitudeMeters>1088.4000244140625</AltitudeMeters>
            <DistanceMeters>NAN</DistanceMeters>
          </Trackpoint>
          <Trackpoint>
            <Time>2022-09-19T10:00:32.000Z</Time>
            <Position>
              <LatitudeDegrees>49.31202390231192111968994140625</LatitudeDegrees>
              <LongitudeDegrees>19.93850438855588436126708984375</LongitudeDegrees>
            </Position>
            <AltitudeMeters>1088.5999755859375</AltitudeMeters>
            <DistanceMeters>NAN</DistanceMeters>
          </Trackpoint>
          <Trackpoint>
            <Time>2022-09-19T10:00:37.000Z</Time>
            <Position>
              <LatitudeDegrees>49.31195165030658245086669921875</LatitudeDegrees>
              <LongitudeDegrees>19.938429705798625946044921875</LongitudeDegrees>
            </Position>
            <AltitudeMeters>1089.4000244140625</AltitudeMeters>
            <DistanceMeters>NAN</DistanceMeters>
          </Trackpoint>
          <Trackpoint>
            <Time>2022-09-19T10:00:41.000Z</Time>
            <Position>
              <LatitudeDegrees>49.31190085597336292266845703125</LatitudeDegrees>
              <LongitudeDegrees>19.9384288676083087921142578125</LongitudeDegrees>
            </Position>
            <AltitudeMeters>1089.5999755859375</AltitudeMeters>
            <DistanceMeters>NAN</DistanceMeters>
          </Trackpoint>
          <Trackpoint>
            <Time>2022-09-19T10:00:42.000Z</Time>
            <Position>
              <LatitudeDegrees>49.311886020004749298095703125</LatitudeDegrees>
              <LongitudeDegrees>19.93841621093451976776123046875</LongitudeDegrees>
            </Position>
            <AltitudeMeters>1089.800048828125</AltitudeMeters>
            <DistanceMeters>NAN</DistanceMeters>
          </Trackpoint>
          <Trackpoint>
            <Time>2022-09-19T10:00:48.000Z</Time>
            <Position>
              <LatitudeDegrees>49.31179826147854328155517578125</LatitudeDegrees>
              <LongitudeDegrees>19.93832400999963283538818359375</LongitudeDegrees>
            </Position>
            <AltitudeMeters>1090.800048828125</AltitudeMeters>
            <DistanceMeters>NAN</DistanceMeters>
          </Trackpoint>
          <Trackpoint>
            <Time>2022-09-19T10:00:49.000Z</Time>
            <Position>
              <LatitudeDegrees>49.31178200058639049530029296875</LatitudeDegrees>
              <LongitudeDegrees>19.93830674327909946441650390625</LongitudeDegrees>
            </Position>
            <AltitudeMeters>1091</AltitudeMeters>
            <DistanceMeters>NAN</DistanceMeters>
          </Trackpoint>
          <Trackpoint>
            <Time>2022-09-19T10:00:50.000Z</Time>
            <Position>
              <LatitudeDegrees>49.31176708079874515533447265625</LatitudeDegrees>
              <LongitudeDegrees>19.938290230929851531982421875</LongitudeDegrees>
            </Position>
            <AltitudeMeters>1091</AltitudeMeters>
            <DistanceMeters>NAN</DistanceMeters>
          </Trackpoint>
          <Trackpoint>
            <Time>2022-09-19T10:00:53.000Z</Time>
            <Position>
              <LatitudeDegrees>49.311725758016109466552734375</LatitudeDegrees>
              <LongitudeDegrees>19.93825309909880161285400390625</LongitudeDegrees>
            </Position>
            <AltitudeMeters>1091.5999755859375</AltitudeMeters>
            <DistanceMeters>NAN</DistanceMeters>
          </Trackpoint>
          <Trackpoint>
            <Time>2022-09-19T10:00:54.000Z</Time>
            <Position>
              <LatitudeDegrees>49.31171360425651073455810546875</LatitudeDegrees>
              <LongitudeDegrees>19.9382444657385349273681640625</LongitudeDegrees>
            </Position>
            <AltitudeMeters>1091.800048828125</AltitudeMeters>
            <DistanceMeters>NAN</DistanceMeters>
          </Trackpoint>
          <Trackpoint>
            <Time>2022-09-19T10:00:57.000Z</Time>
            <Position>
              <LatitudeDegrees>49.31166750378906726837158203125</LatitudeDegrees>
              <LongitudeDegrees>19.93821479380130767822265625</LongitudeDegrees>
            </Position>
            <AltitudeMeters>1091.800048828125</AltitudeMeters>
            <DistanceMeters>NAN</DistanceMeters>
          </Trackpoint>
          <Trackpoint>
            <Time>2022-09-19T10:01:04.000Z</Time>
            <Position>
              <LatitudeDegrees>49.3115716986358165740966796875</LatitudeDegrees>
              <LongitudeDegrees>19.93813290260732173919677734375</LongitudeDegrees>
            </Position>
            <AltitudeMeters>1092.5999755859375</AltitudeMeters>
            <DistanceMeters>NAN</DistanceMeters>
          </Trackpoint>
          <Trackpoint>
            <Time>2022-09-19T10:01:06.000Z</Time>
            <Position>
              <LatitudeDegrees>49.31154177524149417877197265625</LatitudeDegrees>
              <LongitudeDegrees>19.9381184019148349761962890625</LongitudeDegrees>
            </Position>
            <AltitudeMeters>1092.800048828125</AltitudeMeters>
            <DistanceMeters>NAN</DistanceMeters>
          </Trackpoint>
          <Trackpoint>
            <Time>2022-09-19T10:01:10.000Z</Time>
            <Position>
              <LatitudeDegrees>49.311488382518291473388671875</LatitudeDegrees>
              <LongitudeDegrees>19.938066937029361724853515625</LongitudeDegrees>
            </Position>
            <AltitudeMeters>1093</AltitudeMeters>
            <DistanceMeters>NAN</DistanceMeters>
          </Trackpoint>
          <Trackpoint>
            <Time>2022-09-19T10:01:15.000Z</Time>
            <Position>
              <LatitudeDegrees>49.31142694316804409027099609375</LatitudeDegrees>
              <LongitudeDegrees>19.9379940144717693328857421875</LongitudeDegrees>
            </Position>
            <AltitudeMeters>1093.800048828125</AltitudeMeters>
            <DistanceMeters>NAN</DistanceMeters>
          </Trackpoint>
          <Trackpoint>
            <Time>2022-09-19T10:01:18.000Z</Time>
            <Position>
              <LatitudeDegrees>49.3113916553556919097900390625</LatitudeDegrees>
              <LongitudeDegrees>19.9379567988216876983642578125</LongitudeDegrees>
            </Position>
            <AltitudeMeters>1094</AltitudeMeters>
            <DistanceMeters>NAN</DistanceMeters>
          </Trackpoint>
          <Trackpoint>
            <Time>2022-09-19T10:01:24.000Z</Time>
            <Position>
              <LatitudeDegrees>49.3113031424582004547119140625</LatitudeDegrees>
              <LongitudeDegrees>19.93787641637027263641357421875</LongitudeDegrees>
            </Position>
            <AltitudeMeters>1094.4000244140625</AltitudeMeters>
            <DistanceMeters>NAN</DistanceMeters>
          </Trackpoint>
          <Trackpoint>
            <Time>2022-09-19T10:01:28.000Z</Time>
            <Position>
              <LatitudeDegrees>49.31124606169760227203369140625</LatitudeDegrees>
              <LongitudeDegrees>19.937818162143230438232421875</LongitudeDegrees>
            </Position>
            <AltitudeMeters>1095</AltitudeMeters>
            <DistanceMeters>NAN</DistanceMeters>
          </Trackpoint>
          <Trackpoint>
            <Time>2022-09-19T10:01:32.000Z</Time>
            <Position>
              <LatitudeDegrees>49.3111861310899257659912109375</LatitudeDegrees>
              <LongitudeDegrees>19.93776150047779083251953125</LongitudeDegrees>
            </Position>
            <AltitudeMeters>1095.4000244140625</AltitudeMeters>
            <DistanceMeters>NAN</DistanceMeters>
          </Trackpoint>
          <Trackpoint>
            <Time>2022-09-19T10:01:35.000Z</Time>
            <Position>
              <LatitudeDegrees>49.31114137172698974609375</LatitudeDegrees>
              <LongitudeDegrees>19.93773191235959529876708984375</LongitudeDegrees>
            </Position>
            <AltitudeMeters>1096</AltitudeMeters>
            <DistanceMeters>NAN</DistanceMeters>
          </Trackpoint>
          <Trackpoint>
            <Time>2022-09-19T10:01:38.000Z</Time>
            <Position>
              <LatitudeDegrees>49.31109015829861164093017578125</LatitudeDegrees>
              <LongitudeDegrees>19.937694780528545379638671875</LongitudeDegrees>
            </Position>
            <AltitudeMeters>1096.4000244140625</AltitudeMeters>
            <DistanceMeters>NAN</DistanceMeters>
          </Trackpoint>
          <Trackpoint>
            <Time>2022-09-19T10:01:42.000Z</Time>
            <Position>
              <LatitudeDegrees>49.3110188283026218414306640625</LatitudeDegrees>
              <LongitudeDegrees>19.9376399628818035125732421875</LongitudeDegrees>
            </Position>
            <AltitudeMeters>1097</AltitudeMeters>
            <DistanceMeters>NAN</DistanceMeters>
          </Trackpoint>
          <Trackpoint>
            <Time>2022-09-19T10:01:46.000Z</Time>
            <Position>
              <LatitudeDegrees>49.310949929058551788330078125</LatitudeDegrees>
              <LongitudeDegrees>19.9375910125672817230224609375</LongitudeDegrees>
            </Position>
            <AltitudeMeters>1097.5999755859375</AltitudeMeters>
            <DistanceMeters>NAN</DistanceMeters>
          </Trackpoint>
          <Trackpoint>
            <Time>2022-09-19T10:01:49.000Z</Time>
            <Position>
              <LatitudeDegrees>49.31091380305588245391845703125</LatitudeDegrees>
              <LongitudeDegrees>19.93754751048982143402099609375</LongitudeDegrees>
            </Position>
            <AltitudeMeters>1098</AltitudeMeters>
            <DistanceMeters>NAN</DistanceMeters>
          </Trackpoint>
          <Trackpoint>
            <Time>2022-09-19T10:01:51.000Z</Time>
            <Position>
              <LatitudeDegrees>49.31089100427925586700439453125</LatitudeDegrees>
              <LongitudeDegrees>19.9375266395509243011474609375</LongitudeDegrees>
            </Position>
            <AltitudeMeters>1098.199951171875</AltitudeMeters>
            <DistanceMeters>NAN</DistanceMeters>
          </Trackpoint>
          <Trackpoint>
            <Time>2022-09-19T10:01:54.000Z</Time>
            <Position>
              <LatitudeDegrees>49.310855381190776824951171875</LatitudeDegrees>
              <LongitudeDegrees>19.9375008232891559600830078125</LongitudeDegrees>
            </Position>
            <AltitudeMeters>1098.5999755859375</AltitudeMeters>
            <DistanceMeters>NAN</DistanceMeters>
          </Trackpoint>
          <Trackpoint>
            <Time>2022-09-19T10:01:55.000Z</Time>
            <Position>
              <LatitudeDegrees>49.3108404614031314849853515625</LatitudeDegrees>
              <LongitudeDegrees>19.93749059736728668212890625</LongitudeDegrees>
            </Position>
            <AltitudeMeters>1098.800048828125</AltitudeMeters>
            <DistanceMeters>NAN</DistanceMeters>
          </Trackpoint>
          <Trackpoint>
            <Time>2022-09-19T10:01:59.000Z</Time>
            <Position>
              <LatitudeDegrees>49.3107935227453708648681640625</LatitudeDegrees>
              <LongitudeDegrees>19.9374569021165370941162109375</LongitudeDegrees>
            </Position>
            <AltitudeMeters>1099.199951171875</AltitudeMeters>
            <DistanceMeters>NAN</DistanceMeters>
          </Trackpoint>
          <Trackpoint>
            <Time>2022-09-19T10:02:02.000Z</Time>
            <Position>
              <LatitudeDegrees>49.310787655413150787353515625</LatitudeDegrees>
              <LongitudeDegrees>19.937451370060443878173828125</LongitudeDegrees>
            </Position>
            <AltitudeMeters>1099.5999755859375</AltitudeMeters>
            <DistanceMeters>NAN</DistanceMeters>
          </Trackpoint>
          <Trackpoint>
            <Time>2022-09-19T10:02:13.000Z</Time>
            <Position>
              <LatitudeDegrees>49.31074918247759342193603515625</LatitudeDegrees>
              <LongitudeDegrees>19.93740736506879329681396484375</LongitudeDegrees>
            </Position>
            <AltitudeMeters>1100</AltitudeMeters>
            <DistanceMeters>NAN</DistanceMeters>
          </Trackpoint>
          <Trackpoint>
            <Time>2022-09-19T10:02:17.000Z</Time>
            <Position>
              <LatitudeDegrees>49.31072487495839595794677734375</LatitudeDegrees>
              <LongitudeDegrees>19.93737752549350261688232421875</LongitudeDegrees>
            </Position>
            <AltitudeMeters>1100.4000244140625</AltitudeMeters>
            <DistanceMeters>NAN</DistanceMeters>
          </Trackpoint>
          <Trackpoint>
            <Time>2022-09-19T10:02:22.000Z</Time>
            <Position>
              <LatitudeDegrees>49.310681037604808807373046875</LatitudeDegrees>
              <LongitudeDegrees>19.93734014220535755157470703125</LongitudeDegrees>
            </Position>
            <AltitudeMeters>1100.5999755859375</AltitudeMeters>
            <DistanceMeters>NAN</DistanceMeters>
          </Trackpoint>
          <Trackpoint>
            <Time>2022-09-19T10:02:29.000Z</Time>
            <Position>
              <LatitudeDegrees>49.310633428394794464111328125</LatitudeDegrees>
              <LongitudeDegrees>19.937270991504192352294921875</LongitudeDegrees>
            </Position>
            <AltitudeMeters>1100.800048828125</AltitudeMeters>
            <DistanceMeters>NAN</DistanceMeters>
          </Trackpoint>
          <Trackpoint>
            <Time>2022-09-19T10:02:35.000Z</Time>
            <Position>
              <LatitudeDegrees>49.31058523245155811309814453125</LatitudeDegrees>
              <LongitudeDegrees>19.93721508421003818511962890625</LongitudeDegrees>
            </Position>
            <AltitudeMeters>1101.199951171875</AltitudeMeters>
            <DistanceMeters>NAN</DistanceMeters>
          </Trackpoint>
          <Trackpoint>
            <Time>2022-09-19T10:02:36.000Z</Time>
            <Position>
              <LatitudeDegrees>49.31058221496641635894775390625</LatitudeDegrees>
              <LongitudeDegrees>19.93720871396362781524658203125</LongitudeDegrees>
            </Position>
            <AltitudeMeters>1101.4000244140625</AltitudeMeters>
            <DistanceMeters>NAN</DistanceMeters>
          </Trackpoint>
          <Trackpoint>
            <Time>2022-09-19T10:02:45.000Z</Time>
            <Position>
              <LatitudeDegrees>49.3105004914104938507080078125</LatitudeDegrees>
              <LongitudeDegrees>19.93714149110019207000732421875</LongitudeDegrees>
            </Position>
            <AltitudeMeters>1101.4000244140625</AltitudeMeters>
            <DistanceMeters>NAN</DistanceMeters>
          </Trackpoint>
          <Trackpoint>
            <Time>2022-09-19T10:02:52.000Z</Time>
            <Position>
              <LatitudeDegrees>49.31045112200081348419189453125</LatitudeDegrees>
              <LongitudeDegrees>19.937104694545269012451171875</LongitudeDegrees>
            </Position>
            <AltitudeMeters>1101.800048828125</AltitudeMeters>
            <DistanceMeters>NAN</DistanceMeters>
          </Trackpoint>
          <Trackpoint>
            <Time>2022-09-19T10:03:01.000Z</Time>
            <Position>
              <LatitudeDegrees>49.31043016724288463592529296875</LatitudeDegrees>
              <LongitudeDegrees>19.9370299279689788818359375</LongitudeDegrees>
            </Position>
            <AltitudeMeters>1102.199951171875</AltitudeMeters>
            <DistanceMeters>NAN</DistanceMeters>
          </Trackpoint>
          <Trackpoint>
            <Time>2022-09-19T10:03:11.000Z</Time>
            <Position>
              <LatitudeDegrees>49.31043016724288463592529296875</LatitudeDegrees>
              <LongitudeDegrees>19.9370299279689788818359375</LongitudeDegrees>
            </Position>
            <AltitudeMeters>1102.199951171875</AltitudeMeters>
            <DistanceMeters>NAN</DistanceMeters>
          </Trackpoint>
          <Trackpoint>
            <Time>2022-09-19T10:03:15.000Z</Time>
            <Position>
              <LatitudeDegrees>49.31043016724288463592529296875</LatitudeDegrees>
              <LongitudeDegrees>19.9370299279689788818359375</LongitudeDegrees>
            </Position>
            <AltitudeMeters>1102.199951171875</AltitudeMeters>
            <DistanceMeters>NAN</DistanceMeters>
          </Trackpoint>
          <Trackpoint>
            <Time>2022-09-19T10:03:20.000Z</Time>
            <Position>
              <LatitudeDegrees>49.31043016724288463592529296875</LatitudeDegrees>
              <LongitudeDegrees>19.9370299279689788818359375</LongitudeDegrees>
            </Position>
            <AltitudeMeters>1102.199951171875</AltitudeMeters>
            <DistanceMeters>NAN</DistanceMeters>
          </Trackpoint>
          <Trackpoint>
            <Time>2022-09-19T10:03:23.000Z</Time>
            <Position>
              <LatitudeDegrees>49.31043016724288463592529296875</LatitudeDegrees>
              <LongitudeDegrees>19.9370299279689788818359375</LongitudeDegrees>
            </Position>
            <AltitudeMeters>1102.199951171875</AltitudeMeters>
            <DistanceMeters>NAN</DistanceMeters>
          </Trackpoint>
          <Trackpoint>
            <Time>2022-09-19T10:03:30.000Z</Time>
            <Position>
              <LatitudeDegrees>49.31043016724288463592529296875</LatitudeDegrees>
              <LongitudeDegrees>19.9370299279689788818359375</LongitudeDegrees>
            </Position>
            <AltitudeMeters>1102.199951171875</AltitudeMeters>
            <DistanceMeters>NAN</DistanceMeters>
          </Trackpoint>
          <Trackpoint>
            <Time>2022-09-19T10:03:41.000Z</Time>
            <Position>
              <LatitudeDegrees>49.310419522225856781005859375</LatitudeDegrees>
              <LongitudeDegrees>19.937008135020732879638671875</LongitudeDegrees>
            </Position>
            <AltitudeMeters>1102.4000244140625</AltitudeMeters>
            <DistanceMeters>NAN</DistanceMeters>
          </Trackpoint>
          <Trackpoint>
            <Time>2022-09-19T10:03:44.000Z</Time>
            <Position>
              <LatitudeDegrees>49.310397394001483917236328125</LatitudeDegrees>
              <LongitudeDegrees>19.93696111254394054412841796875</LongitudeDegrees>
            </Position>
            <AltitudeMeters>1102.4000244140625</AltitudeMeters>
            <DistanceMeters>NAN</DistanceMeters>
          </Trackpoint>
          <Trackpoint>
            <Time>2022-09-19T10:03:52.000Z</Time>
            <Position>
              <LatitudeDegrees>49.31036478839814662933349609375</LatitudeDegrees>
              <LongitudeDegrees>19.93688844144344329833984375</LongitudeDegrees>
            </Position>
            <AltitudeMeters>1102.800048828125</AltitudeMeters>
            <DistanceMeters>NAN</DistanceMeters>
          </Trackpoint>
          <Trackpoint>
            <Time>2022-09-19T10:04:02.000Z</Time>
            <Position>
              <LatitudeDegrees>49.3103657104074954986572265625</LatitudeDegrees>
              <LongitudeDegrees>19.93688818998634815216064453125</LongitudeDegrees>
            </Position>
            <AltitudeMeters>1102.800048828125</AltitudeMeters>
            <DistanceMeters>NAN</DistanceMeters>
          </Trackpoint>
          <Trackpoint>
            <Time>2022-09-19T10:04:19.000Z</Time>
            <Position>
              <LatitudeDegrees>49.31037417612969875335693359375</LatitudeDegrees>
              <LongitudeDegrees>19.93688550777733325958251953125</LongitudeDegrees>
            </Position>
            <AltitudeMeters>1102.5999755859375</AltitudeMeters>
            <DistanceMeters>NAN</DistanceMeters>
          </Trackpoint>
          <Trackpoint>
            <Time>2022-09-19T10:04:24.000Z</Time>
            <Position>
              <LatitudeDegrees>49.31037417612969875335693359375</LatitudeDegrees>
              <LongitudeDegrees>19.93688550777733325958251953125</LongitudeDegrees>
            </Position>
            <AltitudeMeters>1102.800048828125</AltitudeMeters>
            <DistanceMeters>NAN</DistanceMeters>
          </Trackpoint>
          <Trackpoint>
            <Time>2022-09-19T10:04:28.000Z</Time>
            <Position>
              <LatitudeDegrees>49.31037333793938159942626953125</LatitudeDegrees>
              <LongitudeDegrees>19.9368849210441112518310546875</LongitudeDegrees>
            </Position>
            <AltitudeMeters>1102.800048828125</AltitudeMeters>
            <DistanceMeters>NAN</DistanceMeters>
          </Trackpoint>
          <Trackpoint>
            <Time>2022-09-19T10:04:33.000Z</Time>
            <Position>
              <LatitudeDegrees>49.31037333793938159942626953125</LatitudeDegrees>
              <LongitudeDegrees>19.9368849210441112518310546875</LongitudeDegrees>
            </Position>
            <AltitudeMeters>1102.4000244140625</AltitudeMeters>
            <DistanceMeters>NAN</DistanceMeters>
          </Trackpoint>
          <Trackpoint>
            <Time>2022-09-19T10:04:37.000Z</Time>
            <Position>
              <LatitudeDegrees>49.31037216447293758392333984375</LatitudeDegrees>
              <LongitudeDegrees>19.936881400644779205322265625</LongitudeDegrees>
            </Position>
            <AltitudeMeters>1102.5999755859375</AltitudeMeters>
            <DistanceMeters>NAN</DistanceMeters>
          </Trackpoint>
          <Trackpoint>
            <Time>2022-09-19T10:04:39.000Z</Time>
            <Position>
              <LatitudeDegrees>49.310357160866260528564453125</LatitudeDegrees>
              <LongitudeDegrees>19.9368341267108917236328125</LongitudeDegrees>
            </Position>
            <AltitudeMeters>1102.800048828125</AltitudeMeters>
            <DistanceMeters>NAN</DistanceMeters>
          </Trackpoint>
          <Trackpoint>
            <Time>2022-09-19T10:04:40.000Z</Time>
            <Position>
              <LatitudeDegrees>49.31034467183053493499755859375</LatitudeDegrees>
              <LongitudeDegrees>19.93681090883910655975341796875</LongitudeDegrees>
            </Position>
            <AltitudeMeters>1102.800048828125</AltitudeMeters>
            <DistanceMeters>NAN</DistanceMeters>
          </Trackpoint>
          <Trackpoint>
            <Time>2022-09-19T10:04:45.000Z</Time>
            <Position>
              <LatitudeDegrees>49.31026001460850238800048828125</LatitudeDegrees>
              <LongitudeDegrees>19.93663254193961620330810546875</LongitudeDegrees>
            </Position>
            <AltitudeMeters>1103</AltitudeMeters>
            <DistanceMeters>NAN</DistanceMeters>
          </Trackpoint>
          <Trackpoint>
            <Time>2022-09-19T10:04:50.000Z</Time>
            <Position>
              <LatitudeDegrees>49.310183823108673095703125</LatitudeDegrees>
              <LongitudeDegrees>19.93646473623812198638916015625</LongitudeDegrees>
            </Position>
            <AltitudeMeters>1103</AltitudeMeters>
            <DistanceMeters>NAN</DistanceMeters>
          </Trackpoint>
          <Trackpoint>
            <Time>2022-09-19T10:04:51.000Z</Time>
            <Position>
              <LatitudeDegrees>49.310171417891979217529296875</LatitudeDegrees>
              <LongitudeDegrees>19.93644881062209606170654296875</LongitudeDegrees>
            </Position>
            <AltitudeMeters>1103</AltitudeMeters>
            <DistanceMeters>NAN</DistanceMeters>
          </Trackpoint>
          <Trackpoint>
            <Time>2022-09-19T10:04:56.000Z</Time>
            <Position>
              <LatitudeDegrees>49.310089610517024993896484375</LatitudeDegrees>
              <LongitudeDegrees>19.93627815507352352142333984375</LongitudeDegrees>
            </Position>
            <AltitudeMeters>1103.199951171875</AltitudeMeters>
            <DistanceMeters>NAN</DistanceMeters>
          </Trackpoint>
          <Trackpoint>
            <Time>2022-09-19T10:05:05.000Z</Time>
            <Position>
              <LatitudeDegrees>49.3100005947053432464599609375</LatitudeDegrees>
              <LongitudeDegrees>19.935942627489566802978515625</LongitudeDegrees>
            </Position>
            <AltitudeMeters>1103.199951171875</AltitudeMeters>
            <DistanceMeters>NAN</DistanceMeters>
          </Trackpoint>
          <Trackpoint>
            <Time>2022-09-19T10:05:13.000Z</Time>
            <Position>
              <LatitudeDegrees>49.30990093387663364410400390625</LatitudeDegrees>
              <LongitudeDegrees>19.935640878975391387939453125</LongitudeDegrees>
            </Position>
            <AltitudeMeters>1103.199951171875</AltitudeMeters>
            <DistanceMeters>NAN</DistanceMeters>
          </Trackpoint>
          <Trackpoint>
            <Time>2022-09-19T10:05:20.000Z</Time>
            <Position>
              <LatitudeDegrees>49.30979850701987743377685546875</LatitudeDegrees>
              <LongitudeDegrees>19.93536151014268398284912109375</LongitudeDegrees>
            </Position>
            <AltitudeMeters>1103</AltitudeMeters>
            <DistanceMeters>NAN</DistanceMeters>
          </Trackpoint>
          <Trackpoint>
            <Time>2022-09-19T10:05:27.000Z</Time>
            <Position>
              <LatitudeDegrees>49.3096881173551082611083984375</LatitudeDegrees>
              <LongitudeDegrees>19.93507258594036102294921875</LongitudeDegrees>
            </Position>
            <AltitudeMeters>1102.800048828125</AltitudeMeters>
            <DistanceMeters>NAN</DistanceMeters>
          </Trackpoint>
          <Trackpoint>
            <Time>2022-09-19T10:05:34.000Z</Time>
            <Position>
              <LatitudeDegrees>49.3095687590539455413818359375</LatitudeDegrees>
              <LongitudeDegrees>19.9347938038408756256103515625</LongitudeDegrees>
            </Position>
            <AltitudeMeters>1103</AltitudeMeters>
            <DistanceMeters>NAN</DistanceMeters>
          </Trackpoint>
          <Trackpoint>
            <Time>2022-09-19T10:05:42.000Z</Time>
            <Position>
              <LatitudeDegrees>49.309448562562465667724609375</LatitudeDegrees>
              <LongitudeDegrees>19.9344692565500736236572265625</LongitudeDegrees>
            </Position>
            <AltitudeMeters>1102.800048828125</AltitudeMeters>
            <DistanceMeters>NAN</DistanceMeters>
          </Trackpoint>
          <Trackpoint>
            <Time>2022-09-19T10:05:49.000Z</Time>
            <Position>
              <LatitudeDegrees>49.309330545365810394287109375</LatitudeDegrees>
              <LongitudeDegrees>19.9342188052833080291748046875</LongitudeDegrees>
            </Position>
            <AltitudeMeters>1102.800048828125</AltitudeMeters>
            <DistanceMeters>NAN</DistanceMeters>
          </Trackpoint>
          <Trackpoint>
            <Time>2022-09-19T10:05:56.000Z</Time>
            <Position>
              <LatitudeDegrees>49.3092126958072185516357421875</LatitudeDegrees>
              <LongitudeDegrees>19.9339854530990123748779296875</LongitudeDegrees>
            </Position>
            <AltitudeMeters>1103.199951171875</AltitudeMeters>
            <DistanceMeters>NAN</DistanceMeters>
          </Trackpoint>
          <Trackpoint>
            <Time>2022-09-19T10:06:04.000Z</Time>
            <Position>
              <LatitudeDegrees>49.30912091396749019622802734375</LatitudeDegrees>
              <LongitudeDegrees>19.9337200820446014404296875</LongitudeDegrees>
            </Position>
            <AltitudeMeters>1103.199951171875</AltitudeMeters>
            <DistanceMeters>NAN</DistanceMeters>
          </Trackpoint>
          <Trackpoint>
            <Time>2022-09-19T10:06:13.000Z</Time>
            <Position>
              <LatitudeDegrees>49.30899937637150287628173828125</LatitudeDegrees>
              <LongitudeDegrees>19.933434091508388519287109375</LongitudeDegrees>
            </Position>
            <AltitudeMeters>1103</AltitudeMeters>
            <DistanceMeters>NAN</DistanceMeters>
          </Trackpoint>
          <Trackpoint>
            <Time>2022-09-19T10:06:20.000Z</Time>
            <Position>
              <LatitudeDegrees>49.30890507996082305908203125</LatitudeDegrees>
              <LongitudeDegrees>19.9331945367157459259033203125</LongitudeDegrees>
            </Position>
            <AltitudeMeters>1103.199951171875</AltitudeMeters>
            <DistanceMeters>NAN</DistanceMeters>
          </Trackpoint>
          <Trackpoint>
            <Time>2022-09-19T10:06:26.000Z</Time>
            <Position>
              <LatitudeDegrees>49.3087855540215969085693359375</LatitudeDegrees>
              <LongitudeDegrees>19.93286311626434326171875</LongitudeDegrees>
            </Position>
            <AltitudeMeters>1103.4000244140625</AltitudeMeters>
            <DistanceMeters>NAN</DistanceMeters>
          </Trackpoint>
          <Trackpoint>
            <Time>2022-09-19T10:06:27.000Z</Time>
            <Position>
              <LatitudeDegrees>49.30876158177852630615234375</LatitudeDegrees>
              <LongitudeDegrees>19.93280209600925445556640625</LongitudeDegrees>
            </Position>
            <AltitudeMeters>1103.4000244140625</AltitudeMeters>
            <DistanceMeters>NAN</DistanceMeters>
          </Trackpoint>
          <Trackpoint>
            <Time>2022-09-19T10:06:32.000Z</Time>
            <Position>
              <LatitudeDegrees>49.30867382325232028961181640625</LatitudeDegrees>
              <LongitudeDegrees>19.93252448737621307373046875</LongitudeDegrees>
            </Position>
            <AltitudeMeters>1104.5999755859375</AltitudeMeters>
            <DistanceMeters>NAN</DistanceMeters>
          </Trackpoint>
          <Trackpoint>
            <Time>2022-09-19T10:06:35.000Z</Time>
            <Position>
              <LatitudeDegrees>49.3086353503167629241943359375</LatitudeDegrees>
              <LongitudeDegrees>19.932409487664699554443359375</LongitudeDegrees>
            </Position>
            <AltitudeMeters>1105.5999755859375</AltitudeMeters>
            <DistanceMeters>NAN</DistanceMeters>
          </Trackpoint>
          <Trackpoint>
            <Time>2022-09-19T10:06:37.000Z</Time>
            <Position>
              <LatitudeDegrees>49.3086145631968975067138671875</LatitudeDegrees>
              <LongitudeDegrees>19.93234301917254924774169921875</LongitudeDegrees>
            </Position>
            <AltitudeMeters>1106.199951171875</AltitudeMeters>
            <DistanceMeters>NAN</DistanceMeters>
          </Trackpoint>
          <Trackpoint>
            <Time>2022-09-19T10:06:43.000Z</Time>
            <Position>
              <LatitudeDegrees>49.3085314147174358367919921875</LatitudeDegrees>
              <LongitudeDegrees>19.93213414214551448822021484375</LongitudeDegrees>
            </Position>
            <AltitudeMeters>1106.5999755859375</AltitudeMeters>
            <DistanceMeters>NAN</DistanceMeters>
          </Trackpoint>
          <Trackpoint>
            <Time>2022-09-19T10:06:45.000Z</Time>
            <Position>
              <LatitudeDegrees>49.30850165896117687225341796875</LatitudeDegrees>
              <LongitudeDegrees>19.9320676736533641815185546875</LongitudeDegrees>
            </Position>
            <AltitudeMeters>1106.5999755859375</AltitudeMeters>
            <DistanceMeters>NAN</DistanceMeters>
          </Trackpoint>
          <Trackpoint>
            <Time>2022-09-19T10:06:48.000Z</Time>
            <Position>
              <LatitudeDegrees>49.3084623478353023529052734375</LatitudeDegrees>
              <LongitudeDegrees>19.9319821782410144805908203125</LongitudeDegrees>
            </Position>
            <AltitudeMeters>1106.5999755859375</AltitudeMeters>
            <DistanceMeters>NAN</DistanceMeters>
          </Trackpoint>
          <Trackpoint>
            <Time>2022-09-19T10:06:51.000Z</Time>
            <Position>
              <LatitudeDegrees>49.3084288202226161956787109375</LatitudeDegrees>
              <LongitudeDegrees>19.93188838474452495574951171875</LongitudeDegrees>
            </Position>
            <AltitudeMeters>1106.5999755859375</AltitudeMeters>
            <DistanceMeters>NAN</DistanceMeters>
          </Trackpoint>
          <Trackpoint>
            <Time>2022-09-19T10:06:53.000Z</Time>
            <Position>
              <LatitudeDegrees>49.3084100447595119476318359375</LatitudeDegrees>
              <LongitudeDegrees>19.9318188987672328948974609375</LongitudeDegrees>
            </Position>
            <AltitudeMeters>1106.5999755859375</AltitudeMeters>
            <DistanceMeters>NAN</DistanceMeters>
          </Trackpoint>
          <Trackpoint>
            <Time>2022-09-19T10:07:00.000Z</Time>
            <Position>
              <LatitudeDegrees>49.3083245493471622467041015625</LatitudeDegrees>
              <LongitudeDegrees>19.93153852410614490509033203125</LongitudeDegrees>
            </Position>
            <AltitudeMeters>1106.5999755859375</AltitudeMeters>
            <DistanceMeters>NAN</DistanceMeters>
          </Trackpoint>
          <Trackpoint>
            <Time>2022-09-19T10:07:01.000Z</Time>
            <Position>
              <LatitudeDegrees>49.3083094619214534759521484375</LatitudeDegrees>
              <LongitudeDegrees>19.9314879812300205230712890625</LongitudeDegrees>
            </Position>
            <AltitudeMeters>1106.800048828125</AltitudeMeters>
            <DistanceMeters>NAN</DistanceMeters>
          </Trackpoint>
          <Trackpoint>
            <Time>2022-09-19T10:07:09.000Z</Time>
            <Position>
              <LatitudeDegrees>49.308211393654346466064453125</LatitudeDegrees>
              <LongitudeDegrees>19.93109545670449733734130859375</LongitudeDegrees>
            </Position>
            <AltitudeMeters>1106.800048828125</AltitudeMeters>
            <DistanceMeters>NAN</DistanceMeters>
          </Trackpoint>
          <Trackpoint>
            <Time>2022-09-19T10:07:16.000Z</Time>
            <Position>
              <LatitudeDegrees>49.30813394486904144287109375</LatitudeDegrees>
              <LongitudeDegrees>19.93081801570951938629150390625</LongitudeDegrees>
            </Position>
            <AltitudeMeters>1106.800048828125</AltitudeMeters>
            <DistanceMeters>NAN</DistanceMeters>
          </Trackpoint>
          <Trackpoint>
            <Time>2022-09-19T10:07:22.000Z</Time>
            <Position>
              <LatitudeDegrees>49.3080828152596950531005859375</LatitudeDegrees>
              <LongitudeDegrees>19.93063244037330150604248046875</LongitudeDegrees>
            </Position>
            <AltitudeMeters>1106.5999755859375</AltitudeMeters>
            <DistanceMeters>NAN</DistanceMeters>
          </Trackpoint>
          <Trackpoint>
            <Time>2022-09-19T10:07:28.000Z</Time>
            <Position>
              <LatitudeDegrees>49.30804283358156681060791015625</LatitudeDegrees>
              <LongitudeDegrees>19.93048961274325847625732421875</LongitudeDegrees>
            </Position>
            <AltitudeMeters>1106.800048828125</AltitudeMeters>
            <DistanceMeters>NAN</DistanceMeters>
          </Trackpoint>
          <Trackpoint>
            <Time>2022-09-19T10:07:31.000Z</Time>
            <Position>
              <LatitudeDegrees>49.30802120827138423919677734375</LatitudeDegrees>
              <LongitudeDegrees>19.9304228089749813079833984375</LongitudeDegrees>
            </Position>
            <AltitudeMeters>1107</AltitudeMeters>
            <DistanceMeters>NAN</DistanceMeters>
          </Trackpoint>
          <Trackpoint>
            <Time>2022-09-19T10:07:34.000Z</Time>
            <Position>
              <LatitudeDegrees>49.3079963140189647674560546875</LatitudeDegrees>
              <LongitudeDegrees>19.930355250835418701171875</LongitudeDegrees>
            </Position>
            <AltitudeMeters>1107</AltitudeMeters>
            <DistanceMeters>NAN</DistanceMeters>
          </Trackpoint>
          <Trackpoint>
            <Time>2022-09-19T10:07:35.000Z</Time>
            <Position>
              <LatitudeDegrees>49.30799053050577640533447265625</LatitudeDegrees>
              <LongitudeDegrees>19.9303339608013629913330078125</LongitudeDegrees>
            </Position>
            <AltitudeMeters>1107</AltitudeMeters>
            <DistanceMeters>NAN</DistanceMeters>
          </Trackpoint>
          <Trackpoint>
            <Time>2022-09-19T10:07:41.000Z</Time>
            <Position>
              <LatitudeDegrees>49.3079684861004352569580078125</LatitudeDegrees>
              <LongitudeDegrees>19.930216781795024871826171875</LongitudeDegrees>
            </Position>
            <AltitudeMeters>1106.800048828125</AltitudeMeters>
            <DistanceMeters>NAN</DistanceMeters>
          </Trackpoint>
          <Trackpoint>
            <Time>2022-09-19T10:07:45.000Z</Time>
            <Position>
              <LatitudeDegrees>49.30796362459659576416015625</LatitudeDegrees>
              <LongitudeDegrees>19.9302169494330883026123046875</LongitudeDegrees>
            </Position>
            <AltitudeMeters>1106.5999755859375</AltitudeMeters>
            <DistanceMeters>NAN</DistanceMeters>
          </Trackpoint>
          <Trackpoint>
            <Time>2022-09-19T10:07:56.000Z</Time>
            <Position>
              <LatitudeDegrees>49.30796362459659576416015625</LatitudeDegrees>
              <LongitudeDegrees>19.9302169494330883026123046875</LongitudeDegrees>
            </Position>
            <AltitudeMeters>1106.5999755859375</AltitudeMeters>
            <DistanceMeters>NAN</DistanceMeters>
          </Trackpoint>
          <Trackpoint>
            <Time>2022-09-19T10:08:01.000Z</Time>
            <Position>
              <LatitudeDegrees>49.30796362459659576416015625</LatitudeDegrees>
              <LongitudeDegrees>19.9302169494330883026123046875</LongitudeDegrees>
            </Position>
            <AltitudeMeters>1106.5999755859375</AltitudeMeters>
            <DistanceMeters>NAN</DistanceMeters>
          </Trackpoint>
          <Trackpoint>
            <Time>2022-09-19T10:08:02.000Z</Time>
            <Position>
              <LatitudeDegrees>49.30796362459659576416015625</LatitudeDegrees>
              <LongitudeDegrees>19.9302169494330883026123046875</LongitudeDegrees>
            </Position>
            <AltitudeMeters>1106.5999755859375</AltitudeMeters>
            <DistanceMeters>NAN</DistanceMeters>
          </Trackpoint>
          <Trackpoint>
            <Time>2022-09-19T10:08:09.000Z</Time>
            <Position>
              <LatitudeDegrees>49.30796362459659576416015625</LatitudeDegrees>
              <LongitudeDegrees>19.9302169494330883026123046875</LongitudeDegrees>
            </Position>
            <AltitudeMeters>1106.199951171875</AltitudeMeters>
            <DistanceMeters>NAN</DistanceMeters>
          </Trackpoint>
          <Trackpoint>
            <Time>2022-09-19T10:08:16.000Z</Time>
            <Position>
              <LatitudeDegrees>49.30796362459659576416015625</LatitudeDegrees>
              <LongitudeDegrees>19.9302169494330883026123046875</LongitudeDegrees>
            </Position>
            <AltitudeMeters>1106</AltitudeMeters>
            <DistanceMeters>NAN</DistanceMeters>
          </Trackpoint>
          <Trackpoint>
            <Time>2022-09-19T10:08:22.000Z</Time>
            <Position>
              <LatitudeDegrees>49.3079631216824054718017578125</LatitudeDegrees>
              <LongitudeDegrees>19.93021435104310512542724609375</LongitudeDegrees>
            </Position>
            <AltitudeMeters>1105.800048828125</AltitudeMeters>
            <DistanceMeters>NAN</DistanceMeters>
          </Trackpoint>
          <Trackpoint>
            <Time>2022-09-19T10:08:25.000Z</Time>
            <Position>
              <LatitudeDegrees>49.30794023908674716949462890625</LatitudeDegrees>
              <LongitudeDegrees>19.93013187311589717864990234375</LongitudeDegrees>
            </Position>
            <AltitudeMeters>1106.4000244140625</AltitudeMeters>
            <DistanceMeters>NAN</DistanceMeters>
          </Trackpoint>
          <Trackpoint>
            <Time>2022-09-19T10:08:31.000Z</Time>
            <Position>
              <LatitudeDegrees>49.3079014308750629425048828125</LatitudeDegrees>
              <LongitudeDegrees>19.9298836849629878997802734375</LongitudeDegrees>
            </Position>
            <AltitudeMeters>1106.199951171875</AltitudeMeters>
            <DistanceMeters>NAN</DistanceMeters>
          </Trackpoint>
          <Trackpoint>
            <Time>2022-09-19T10:08:33.000Z</Time>
            <Position>
              <LatitudeDegrees>49.30788290686905384063720703125</LatitudeDegrees>
              <LongitudeDegrees>19.9298156239092350006103515625</LongitudeDegrees>
            </Position>
            <AltitudeMeters>1106.199951171875</AltitudeMeters>
            <DistanceMeters>NAN</DistanceMeters>
          </Trackpoint>
          <Trackpoint>
            <Time>2022-09-19T10:08:35.000Z</Time>
            <Position>
              <LatitudeDegrees>49.30785792879760265350341796875</LatitudeDegrees>
              <LongitudeDegrees>19.929749406874179840087890625</LongitudeDegrees>
            </Position>
            <AltitudeMeters>1106</AltitudeMeters>
            <DistanceMeters>NAN</DistanceMeters>
          </Trackpoint>
          <Trackpoint>
            <Time>2022-09-19T10:08:38.000Z</Time>
            <Position>
              <LatitudeDegrees>49.30782155133783817291259765625</LatitudeDegrees>
              <LongitudeDegrees>19.92963717319071292877197265625</LongitudeDegrees>
            </Position>
            <AltitudeMeters>1106</AltitudeMeters>
            <DistanceMeters>NAN</DistanceMeters>
          </Trackpoint>
          <Trackpoint>
            <Time>2022-09-19T10:08:44.000Z</Time>
            <Position>
              <LatitudeDegrees>49.30776187218725681304931640625</LatitudeDegrees>
              <LongitudeDegrees>19.92947707884013652801513671875</LongitudeDegrees>
            </Position>
            <AltitudeMeters>1106.199951171875</AltitudeMeters>
            <DistanceMeters>NAN</DistanceMeters>
          </Trackpoint>
          <Trackpoint>
            <Time>2022-09-19T10:08:52.000Z</Time>
            <Position>
              <LatitudeDegrees>49.30769674479961395263671875</LatitudeDegrees>
              <LongitudeDegrees>19.92920684628188610076904296875</LongitudeDegrees>
            </Position>
            <AltitudeMeters>1106.199951171875</AltitudeMeters>
            <DistanceMeters>NAN</DistanceMeters>
          </Trackpoint>
          <Trackpoint>
            <Time>2022-09-19T10:09:00.000Z</Time>
            <Position>
              <LatitudeDegrees>49.30763295851647853851318359375</LatitudeDegrees>
              <LongitudeDegrees>19.9289975501596927642822265625</LongitudeDegrees>
            </Position>
            <AltitudeMeters>1106.5999755859375</AltitudeMeters>
            <DistanceMeters>NAN</DistanceMeters>
          </Trackpoint>
          <Trackpoint>
            <Time>2022-09-19T10:09:05.000Z</Time>
            <Position>
              <LatitudeDegrees>49.30761686526238918304443359375</LatitudeDegrees>
              <LongitudeDegrees>19.92889051325619220733642578125</LongitudeDegrees>
            </Position>
            <AltitudeMeters>1106.4000244140625</AltitudeMeters>
            <DistanceMeters>NAN</DistanceMeters>
          </Trackpoint>
          <Trackpoint>
            <Time>2022-09-19T10:09:12.000Z</Time>
            <Position>
              <LatitudeDegrees>49.30761686526238918304443359375</LatitudeDegrees>
              <LongitudeDegrees>19.92889051325619220733642578125</LongitudeDegrees>
            </Position>
            <AltitudeMeters>1106</AltitudeMeters>
            <DistanceMeters>NAN</DistanceMeters>
          </Trackpoint>
          <Trackpoint>
            <Time>2022-09-19T10:09:14.000Z</Time>
            <Position>
              <LatitudeDegrees>49.30761686526238918304443359375</LatitudeDegrees>
              <LongitudeDegrees>19.92889051325619220733642578125</LongitudeDegrees>
            </Position>
            <AltitudeMeters>1106</AltitudeMeters>
            <DistanceMeters>NAN</DistanceMeters>
          </Trackpoint>
          <Trackpoint>
            <Time>2022-09-19T10:09:25.000Z</Time>
            <Position>
              <LatitudeDegrees>49.30761686526238918304443359375</LatitudeDegrees>
              <LongitudeDegrees>19.92889051325619220733642578125</LongitudeDegrees>
            </Position>
            <AltitudeMeters>1106</AltitudeMeters>
            <DistanceMeters>NAN</DistanceMeters>
          </Trackpoint>
          <Trackpoint>
            <Time>2022-09-19T10:09:26.000Z</Time>
            <Position>
              <LatitudeDegrees>49.3076181225478649139404296875</LatitudeDegrees>
              <LongitudeDegrees>19.928893782198429107666015625</LongitudeDegrees>
            </Position>
            <AltitudeMeters>1106</AltitudeMeters>
            <DistanceMeters>NAN</DistanceMeters>
          </Trackpoint>
          <Trackpoint>
            <Time>2022-09-19T10:09:27.000Z</Time>
            <Position>
              <LatitudeDegrees>49.3076298572123050689697265625</LatitudeDegrees>
              <LongitudeDegrees>19.928917586803436279296875</LongitudeDegrees>
            </Position>
            <AltitudeMeters>1106</AltitudeMeters>
            <DistanceMeters>NAN</DistanceMeters>
          </Trackpoint>
          <Trackpoint>
            <Time>2022-09-19T10:09:33.000Z</Time>
            <Position>
              <LatitudeDegrees>49.3076761253178119659423828125</LatitudeDegrees>
              <LongitudeDegrees>19.929135181009769439697265625</LongitudeDegrees>
            </Position>
            <AltitudeMeters>1106</AltitudeMeters>
            <DistanceMeters>NAN</DistanceMeters>
          </Trackpoint>
          <Trackpoint>
            <Time>2022-09-19T10:09:40.000Z</Time>
            <Position>
              <LatitudeDegrees>49.30773429572582244873046875</LatitudeDegrees>
              <LongitudeDegrees>19.92935537360608577728271484375</LongitudeDegrees>
            </Position>
            <AltitudeMeters>1106</AltitudeMeters>
            <DistanceMeters>NAN</DistanceMeters>
          </Trackpoint>
          <Trackpoint>
            <Time>2022-09-19T10:09:41.000Z</Time>
            <Position>
              <LatitudeDegrees>49.3077425099909305572509765625</LatitudeDegrees>
              <LongitudeDegrees>19.9293801002204418182373046875</LongitudeDegrees>
            </Position>
            <AltitudeMeters>1106</AltitudeMeters>
            <DistanceMeters>NAN</DistanceMeters>
          </Trackpoint>
          <Trackpoint>
            <Time>2022-09-19T10:09:43.000Z</Time>
            <Position>
              <LatitudeDegrees>49.3077535741031169891357421875</LatitudeDegrees>
              <LongitudeDegrees>19.9294535256922245025634765625</LongitudeDegrees>
            </Position>
            <AltitudeMeters>1105.800048828125</AltitudeMeters>
            <DistanceMeters>NAN</DistanceMeters>
          </Trackpoint>
          <Trackpoint>
            <Time>2022-09-19T10:09:47.000Z</Time>
            <Position>
              <LatitudeDegrees>49.307780228555202484130859375</LatitudeDegrees>
              <LongitudeDegrees>19.9295685254037380218505859375</LongitudeDegrees>
            </Position>
            <AltitudeMeters>1105.800048828125</AltitudeMeters>
            <DistanceMeters>NAN</DistanceMeters>
          </Trackpoint>
          <Trackpoint>
            <Time>2022-09-19T10:09:55.000Z</Time>
            <Position>
              <LatitudeDegrees>49.3078543245792388916015625</LatitudeDegrees>
              <LongitudeDegrees>19.92980916984379291534423828125</LongitudeDegrees>
            </Position>
            <AltitudeMeters>1105.800048828125</AltitudeMeters>
            <DistanceMeters>NAN</DistanceMeters>
          </Trackpoint>
          <Trackpoint>
            <Time>2022-09-19T10:10:03.000Z</Time>
            <Position>
              <LatitudeDegrees>49.3079081363976001739501953125</LatitudeDegrees>
              <LongitudeDegrees>19.92999474518001079559326171875</LongitudeDegrees>
            </Position>
            <AltitudeMeters>1106</AltitudeMeters>
            <DistanceMeters>NAN</DistanceMeters>
          </Trackpoint>
          <Trackpoint>
            <Time>2022-09-19T10:10:04.000Z</Time>
            <Position>
              <LatitudeDegrees>49.30791576392948627471923828125</LatitudeDegrees>
              <LongitudeDegrees>19.93002039380371570587158203125</LongitudeDegrees>
            </Position>
            <AltitudeMeters>1105.800048828125</AltitudeMeters>
            <DistanceMeters>NAN</DistanceMeters>
          </Trackpoint>
          <Trackpoint>
            <Time>2022-09-19T10:10:08.000Z</Time>
            <Position>
              <LatitudeDegrees>49.30794057436287403106689453125</LatitudeDegrees>
              <LongitudeDegrees>19.93011946789920330047607421875</LongitudeDegrees>
            </Position>
            <AltitudeMeters>1105.800048828125</AltitudeMeters>
            <DistanceMeters>NAN</DistanceMeters>
          </Trackpoint>
          <Trackpoint>
            <Time>2022-09-19T10:10:10.000Z</Time>
            <Position>
              <LatitudeDegrees>49.3079560808837413787841796875</LatitudeDegrees>
              <LongitudeDegrees>19.9301686696708202362060546875</LongitudeDegrees>
            </Position>
            <AltitudeMeters>1105.5999755859375</AltitudeMeters>
            <DistanceMeters>NAN</DistanceMeters>
          </Trackpoint>
          <Trackpoint>
            <Time>2022-09-19T10:10:11.000Z</Time>
            <Position>
              <LatitudeDegrees>49.30796421132981777191162109375</LatitudeDegrees>
              <LongitudeDegrees>19.93018484674394130706787109375</LongitudeDegrees>
            </Position>
            <AltitudeMeters>1105.5999755859375</AltitudeMeters>
            <DistanceMeters>NAN</DistanceMeters>
          </Trackpoint>
          <Trackpoint>
            <Time>2022-09-19T10:10:12.000Z</Time>
            <Position>
              <LatitudeDegrees>49.307960607111454010009765625</LatitudeDegrees>
              <LongitudeDegrees>19.930204041302204132080078125</LongitudeDegrees>
            </Position>
            <AltitudeMeters>1105.5999755859375</AltitudeMeters>
            <DistanceMeters>NAN</DistanceMeters>
          </Trackpoint>
          <Trackpoint>
            <Time>2022-09-19T10:10:16.000Z</Time>
            <Position>
              <LatitudeDegrees>49.307959936559200286865234375</LatitudeDegrees>
              <LongitudeDegrees>19.93021083064377307891845703125</LongitudeDegrees>
            </Position>
            <AltitudeMeters>1106.5999755859375</AltitudeMeters>
            <DistanceMeters>NAN</DistanceMeters>
          </Trackpoint>
          <Trackpoint>
            <Time>2022-09-19T10:10:21.000Z</Time>
            <Position>
              <LatitudeDegrees>49.307946525514125823974609375</LatitudeDegrees>
              <LongitudeDegrees>19.93022055365145206451416015625</LongitudeDegrees>
            </Position>
            <AltitudeMeters>1106.4000244140625</AltitudeMeters>
            <DistanceMeters>NAN</DistanceMeters>
          </Trackpoint>
          <Trackpoint>
            <Time>2022-09-19T10:10:30.000Z</Time>
            <Position>
              <LatitudeDegrees>49.30794593878090381622314453125</LatitudeDegrees>
              <LongitudeDegrees>19.9302253313362598419189453125</LongitudeDegrees>
            </Position>
            <AltitudeMeters>1106.800048828125</AltitudeMeters>
            <DistanceMeters>NAN</DistanceMeters>
          </Trackpoint>
          <Trackpoint>
            <Time>2022-09-19T10:10:33.000Z</Time>
            <Position>
              <LatitudeDegrees>49.30794593878090381622314453125</LatitudeDegrees>
              <LongitudeDegrees>19.9302253313362598419189453125</LongitudeDegrees>
            </Position>
            <AltitudeMeters>1107</AltitudeMeters>
            <DistanceMeters>NAN</DistanceMeters>
          </Trackpoint>
          <Trackpoint>
            <Time>2022-09-19T10:10:40.000Z</Time>
            <Position>
              <LatitudeDegrees>49.30794610641896724700927734375</LatitudeDegrees>
              <LongitudeDegrees>19.93022876791656017303466796875</LongitudeDegrees>
            </Position>
            <AltitudeMeters>1107.199951171875</AltitudeMeters>
            <DistanceMeters>NAN</DistanceMeters>
          </Trackpoint>
          <Trackpoint>
            <Time>2022-09-19T10:10:54.000Z</Time>
            <Position>
              <LatitudeDegrees>49.30794577114284038543701171875</LatitudeDegrees>
              <LongitudeDegrees>19.930262379348278045654296875</LongitudeDegrees>
            </Position>
            <AltitudeMeters>1107</AltitudeMeters>
            <DistanceMeters>NAN</DistanceMeters>
          </Trackpoint>
          <Trackpoint>
            <Time>2022-09-19T10:10:58.000Z</Time>
            <Position>
              <LatitudeDegrees>49.3079124949872493743896484375</LatitudeDegrees>
              <LongitudeDegrees>19.9303011037409305572509765625</LongitudeDegrees>
            </Position>
            <AltitudeMeters>1107.199951171875</AltitudeMeters>
            <DistanceMeters>NAN</DistanceMeters>
          </Trackpoint>
          <Trackpoint>
            <Time>2022-09-19T10:11:06.000Z</Time>
            <Position>
              <LatitudeDegrees>49.307906962931156158447265625</LatitudeDegrees>
              <LongitudeDegrees>19.93030755780637264251708984375</LongitudeDegrees>
            </Position>
            <AltitudeMeters>1107.4000244140625</AltitudeMeters>
            <DistanceMeters>NAN</DistanceMeters>
          </Trackpoint>
          <Trackpoint>
            <Time>2022-09-19T10:11:12.000Z</Time>
            <Position>
              <LatitudeDegrees>49.30790486745536327362060546875</LatitudeDegrees>
              <LongitudeDegrees>19.930309988558292388916015625</LongitudeDegrees>
            </Position>
            <AltitudeMeters>1107.800048828125</AltitudeMeters>
            <DistanceMeters>NAN</DistanceMeters>
          </Trackpoint>
          <Trackpoint>
            <Time>2022-09-19T10:11:16.000Z</Time>
            <Position>
              <LatitudeDegrees>49.30790486745536327362060546875</LatitudeDegrees>
              <LongitudeDegrees>19.930309988558292388916015625</LongitudeDegrees>
            </Position>
            <AltitudeMeters>1108.199951171875</AltitudeMeters>
            <DistanceMeters>NAN</DistanceMeters>
          </Trackpoint>
          <Trackpoint>
            <Time>2022-09-19T10:11:17.000Z</Time>
            <Position>
              <LatitudeDegrees>49.30790059268474578857421875</LatitudeDegrees>
              <LongitudeDegrees>19.9303192086517810821533203125</LongitudeDegrees>
            </Position>
            <AltitudeMeters>1108.4000244140625</AltitudeMeters>
            <DistanceMeters>NAN</DistanceMeters>
          </Trackpoint>
          <Trackpoint>
            <Time>2022-09-19T10:11:19.000Z</Time>
            <Position>
              <LatitudeDegrees>49.30789883248507976531982421875</LatitudeDegrees>
              <LongitudeDegrees>19.93032331578433513641357421875</LongitudeDegrees>
            </Position>
            <AltitudeMeters>1108.5999755859375</AltitudeMeters>
            <DistanceMeters>NAN</DistanceMeters>
          </Trackpoint>
          <Trackpoint>
            <Time>2022-09-19T10:11:21.000Z</Time>
            <Position>
              <LatitudeDegrees>49.307893551886081695556640625</LatitudeDegrees>
              <LongitudeDegrees>19.93032717145979404449462890625</LongitudeDegrees>
            </Position>
            <AltitudeMeters>1108.5999755859375</AltitudeMeters>
            <DistanceMeters>NAN</DistanceMeters>
          </Trackpoint>
          <Trackpoint>
            <Time>2022-09-19T10:11:23.000Z</Time>
            <Position>
              <LatitudeDegrees>49.30789045058190822601318359375</LatitudeDegrees>
              <LongitudeDegrees>19.93032733909785747528076171875</LongitudeDegrees>
            </Position>
            <AltitudeMeters>1109</AltitudeMeters>
            <DistanceMeters>NAN</DistanceMeters>
          </Trackpoint>
          <Trackpoint>
            <Time>2022-09-19T10:11:27.000Z</Time>
            <Position>
              <LatitudeDegrees>49.30787418968975543975830078125</LatitudeDegrees>
              <LongitudeDegrees>19.93033773265779018402099609375</LongitudeDegrees>
            </Position>
            <AltitudeMeters>1109.4000244140625</AltitudeMeters>
            <DistanceMeters>NAN</DistanceMeters>
          </Trackpoint>
          <Trackpoint>
            <Time>2022-09-19T10:11:30.000Z</Time>
            <Position>
              <LatitudeDegrees>49.3078543245792388916015625</LatitudeDegrees>
              <LongitudeDegrees>19.93034896440804004669189453125</LongitudeDegrees>
            </Position>
            <AltitudeMeters>1110</AltitudeMeters>
            <DistanceMeters>NAN</DistanceMeters>
          </Trackpoint>
          <Trackpoint>
            <Time>2022-09-19T10:11:34.000Z</Time>
            <Position>
              <LatitudeDegrees>49.3078383989632129669189453125</LatitudeDegrees>
              <LongitudeDegrees>19.93035055696964263916015625</LongitudeDegrees>
            </Position>
            <AltitudeMeters>1110</AltitudeMeters>
            <DistanceMeters>NAN</DistanceMeters>
          </Trackpoint>
          <Trackpoint>
            <Time>2022-09-19T10:11:40.000Z</Time>
            <Position>
              <LatitudeDegrees>49.30781342089176177978515625</LatitudeDegrees>
              <LongitudeDegrees>19.93035868741571903228759765625</LongitudeDegrees>
            </Position>
            <AltitudeMeters>1110.199951171875</AltitudeMeters>
            <DistanceMeters>NAN</DistanceMeters>
          </Trackpoint>
          <Trackpoint>
            <Time>2022-09-19T10:11:47.000Z</Time>
            <Position>
              <LatitudeDegrees>49.307782240211963653564453125</LatitudeDegrees>
              <LongitudeDegrees>19.9303725175559520721435546875</LongitudeDegrees>
            </Position>
            <AltitudeMeters>1111</AltitudeMeters>
            <DistanceMeters>NAN</DistanceMeters>
          </Trackpoint>
          <Trackpoint>
            <Time>2022-09-19T10:11:52.000Z</Time>
            <Position>
              <LatitudeDegrees>49.30777159519493579864501953125</LatitudeDegrees>
              <LongitudeDegrees>19.93037335574626922607421875</LongitudeDegrees>
            </Position>
            <AltitudeMeters>1111.5999755859375</AltitudeMeters>
            <DistanceMeters>NAN</DistanceMeters>
          </Trackpoint>
          <Trackpoint>
            <Time>2022-09-19T10:11:59.000Z</Time>
            <Position>
              <LatitudeDegrees>49.30773320607841014862060546875</LatitudeDegrees>
              <LongitudeDegrees>19.9303751997649669647216796875</LongitudeDegrees>
            </Position>
            <AltitudeMeters>1112</AltitudeMeters>
            <DistanceMeters>NAN</DistanceMeters>
          </Trackpoint>
          <Trackpoint>
            <Time>2022-09-19T10:12:25.000Z</Time>
            <Position>
              <LatitudeDegrees>49.307641088962554931640625</LatitudeDegrees>
              <LongitudeDegrees>19.9303865991532802581787109375</LongitudeDegrees>
            </Position>
            <AltitudeMeters>1113.199951171875</AltitudeMeters>
            <DistanceMeters>NAN</DistanceMeters>
          </Trackpoint>
          <Trackpoint>
            <Time>2022-09-19T10:12:30.000Z</Time>
            <Position>
              <LatitudeDegrees>49.3076100759208202362060546875</LatitudeDegrees>
              <LongitudeDegrees>19.93038944900035858154296875</LongitudeDegrees>
            </Position>
            <AltitudeMeters>1113</AltitudeMeters>
            <DistanceMeters>NAN</DistanceMeters>
          </Trackpoint>
          <Trackpoint>
            <Time>2022-09-19T10:12:47.000Z</Time>
            <Position>
              <LatitudeDegrees>49.30761703290045261383056640625</LatitudeDegrees>
              <LongitudeDegrees>19.93038400076329708099365234375</LongitudeDegrees>
            </Position>
            <AltitudeMeters>1112</AltitudeMeters>
            <DistanceMeters>NAN</DistanceMeters>
          </Trackpoint>
          <Trackpoint>
            <Time>2022-09-19T10:12:49.000Z</Time>
            <Position>
              <LatitudeDegrees>49.30762893520295619964599609375</LatitudeDegrees>
              <LongitudeDegrees>19.93038165383040904998779296875</LongitudeDegrees>
            </Position>
            <AltitudeMeters>1112</AltitudeMeters>
            <DistanceMeters>NAN</DistanceMeters>
          </Trackpoint>
          <Trackpoint>
            <Time>2022-09-19T10:12:56.000Z</Time>
            <Position>
              <LatitudeDegrees>49.30764385499060153961181640625</LatitudeDegrees>
              <LongitudeDegrees>19.93037880398333072662353515625</LongitudeDegrees>
            </Position>
            <AltitudeMeters>1111.4000244140625</AltitudeMeters>
            <DistanceMeters>NAN</DistanceMeters>
          </Trackpoint>
          <Trackpoint>
            <Time>2022-09-19T10:12:57.000Z</Time>
            <Position>
              <LatitudeDegrees>49.30765575729310512542724609375</LatitudeDegrees>
              <LongitudeDegrees>19.93037763051688671112060546875</LongitudeDegrees>
            </Position>
            <AltitudeMeters>1111</AltitudeMeters>
            <DistanceMeters>NAN</DistanceMeters>
          </Trackpoint>
          <Trackpoint>
            <Time>2022-09-19T10:13:05.000Z</Time>
            <Position>
              <LatitudeDegrees>49.3077304400503635406494140625</LatitudeDegrees>
              <LongitudeDegrees>19.9303688295185565948486328125</LongitudeDegrees>
            </Position>
            <AltitudeMeters>1110</AltitudeMeters>
            <DistanceMeters>NAN</DistanceMeters>
          </Trackpoint>
          <Trackpoint>
            <Time>2022-09-19T10:13:14.000Z</Time>
            <Position>
              <LatitudeDegrees>49.307803697884082794189453125</LatitudeDegrees>
              <LongitudeDegrees>19.93033982813358306884765625</LongitudeDegrees>
            </Position>
            <AltitudeMeters>1109</AltitudeMeters>
            <DistanceMeters>NAN</DistanceMeters>
          </Trackpoint>
          <Trackpoint>
            <Time>2022-09-19T10:13:15.000Z</Time>
            <Position>
              <LatitudeDegrees>49.30781367234885692596435546875</LatitudeDegrees>
              <LongitudeDegrees>19.93034276179969310760498046875</LongitudeDegrees>
            </Position>
            <AltitudeMeters>1109</AltitudeMeters>
            <DistanceMeters>NAN</DistanceMeters>
          </Trackpoint>
          <Trackpoint>
            <Time>2022-09-19T10:13:20.000Z</Time>
            <Position>
              <LatitudeDegrees>49.3078357167541980743408203125</LatitudeDegrees>
              <LongitudeDegrees>19.9303410016000270843505859375</LongitudeDegrees>
            </Position>
            <AltitudeMeters>1108.4000244140625</AltitudeMeters>
            <DistanceMeters>NAN</DistanceMeters>
          </Trackpoint>
          <Trackpoint>
            <Time>2022-09-19T10:13:23.000Z</Time>
            <Position>
              <LatitudeDegrees>49.30785097181797027587890625</LatitudeDegrees>
              <LongitudeDegrees>19.93032784201204776763916015625</LongitudeDegrees>
            </Position>
            <AltitudeMeters>1108</AltitudeMeters>
            <DistanceMeters>NAN</DistanceMeters>
          </Trackpoint>
          <Trackpoint>
            <Time>2022-09-19T10:13:30.000Z</Time>
            <Position>
              <LatitudeDegrees>49.30790034122765064239501953125</LatitudeDegrees>
              <LongitudeDegrees>19.93030403740704059600830078125</LongitudeDegrees>
            </Position>
            <AltitudeMeters>1107.800048828125</AltitudeMeters>
            <DistanceMeters>NAN</DistanceMeters>
          </Trackpoint>
          <Trackpoint>
            <Time>2022-09-19T10:13:37.000Z</Time>
            <Position>
              <LatitudeDegrees>49.30793085135519504547119140625</LatitudeDegrees>
              <LongitudeDegrees>19.93023245595395565032958984375</LongitudeDegrees>
            </Position>
            <AltitudeMeters>1107.5999755859375</AltitudeMeters>
            <DistanceMeters>NAN</DistanceMeters>
          </Trackpoint>
          <Trackpoint>
            <Time>2022-09-19T10:13:39.000Z</Time>
            <Position>
              <LatitudeDegrees>49.3079312704503536224365234375</LatitudeDegrees>
              <LongitudeDegrees>19.93020496331155300140380859375</LongitudeDegrees>
            </Position>
            <AltitudeMeters>1107.5999755859375</AltitudeMeters>
            <DistanceMeters>NAN</DistanceMeters>
          </Trackpoint>
          <Trackpoint>
            <Time>2022-09-19T10:13:44.000Z</Time>
            <Position>
              <LatitudeDegrees>49.3079118244349956512451171875</LatitudeDegrees>
              <LongitudeDegrees>19.93014427833259105682373046875</LongitudeDegrees>
            </Position>
            <AltitudeMeters>1107.199951171875</AltitudeMeters>
            <DistanceMeters>NAN</DistanceMeters>
          </Trackpoint>
          <Trackpoint>
            <Time>2022-09-19T10:13:50.000Z</Time>
            <Position>
              <LatitudeDegrees>49.307917691767215728759765625</LatitudeDegrees>
              <LongitudeDegrees>19.9301472119987010955810546875</LongitudeDegrees>
            </Position>
            <AltitudeMeters>1107.199951171875</AltitudeMeters>
            <DistanceMeters>NAN</DistanceMeters>
          </Trackpoint>
          <Trackpoint>
            <Time>2022-09-19T10:13:55.000Z</Time>
            <Position>
              <LatitudeDegrees>49.307917691767215728759765625</LatitudeDegrees>
              <LongitudeDegrees>19.9301472119987010955810546875</LongitudeDegrees>
            </Position>
            <AltitudeMeters>1107.199951171875</AltitudeMeters>
            <DistanceMeters>NAN</DistanceMeters>
          </Trackpoint>
          <Trackpoint>
            <Time>2022-09-19T10:13:58.000Z</Time>
            <Position>
              <LatitudeDegrees>49.307917691767215728759765625</LatitudeDegrees>
              <LongitudeDegrees>19.9301472119987010955810546875</LongitudeDegrees>
            </Position>
            <AltitudeMeters>1107.199951171875</AltitudeMeters>
            <DistanceMeters>NAN</DistanceMeters>
          </Trackpoint>
          <Trackpoint>
            <Time>2022-09-19T10:14:01.000Z</Time>
            <Position>
              <LatitudeDegrees>49.307917691767215728759765625</LatitudeDegrees>
              <LongitudeDegrees>19.9301472119987010955810546875</LongitudeDegrees>
            </Position>
            <AltitudeMeters>1107.199951171875</AltitudeMeters>
            <DistanceMeters>NAN</DistanceMeters>
          </Trackpoint>
          <Trackpoint>
            <Time>2022-09-19T10:14:05.000Z</Time>
            <Position>
              <LatitudeDegrees>49.307917691767215728759765625</LatitudeDegrees>
              <LongitudeDegrees>19.9301472119987010955810546875</LongitudeDegrees>
            </Position>
            <AltitudeMeters>1107</AltitudeMeters>
            <DistanceMeters>NAN</DistanceMeters>
          </Trackpoint>
          <Trackpoint>
            <Time>2022-09-19T10:14:06.000Z</Time>
            <Position>
              <LatitudeDegrees>49.307917691767215728759765625</LatitudeDegrees>
              <LongitudeDegrees>19.9301472119987010955810546875</LongitudeDegrees>
            </Position>
            <AltitudeMeters>1106.800048828125</AltitudeMeters>
            <DistanceMeters>NAN</DistanceMeters>
          </Trackpoint>
          <Trackpoint>
            <Time>2022-09-19T10:14:08.000Z</Time>
            <Position>
              <LatitudeDegrees>49.307917691767215728759765625</LatitudeDegrees>
              <LongitudeDegrees>19.9301472119987010955810546875</LongitudeDegrees>
            </Position>
            <AltitudeMeters>1106.800048828125</AltitudeMeters>
            <DistanceMeters>NAN</DistanceMeters>
          </Trackpoint>
          <Trackpoint>
            <Time>2022-09-19T10:14:14.000Z</Time>
            <Position>
              <LatitudeDegrees>49.307917691767215728759765625</LatitudeDegrees>
              <LongitudeDegrees>19.9301472119987010955810546875</LongitudeDegrees>
            </Position>
            <AltitudeMeters>1106.800048828125</AltitudeMeters>
            <DistanceMeters>NAN</DistanceMeters>
          </Trackpoint>
          <Trackpoint>
            <Time>2022-09-19T10:14:18.000Z</Time>
            <Position>
              <LatitudeDegrees>49.3078947253525257110595703125</LatitudeDegrees>
              <LongitudeDegrees>19.93007563054561614990234375</LongitudeDegrees>
            </Position>
            <AltitudeMeters>1107</AltitudeMeters>
            <DistanceMeters>NAN</DistanceMeters>
          </Trackpoint>
          <Trackpoint>
            <Time>2022-09-19T10:14:20.000Z</Time>
            <Position>
              <LatitudeDegrees>49.30787586607038974761962890625</LatitudeDegrees>
              <LongitudeDegrees>19.9299882911145687103271484375</LongitudeDegrees>
            </Position>
            <AltitudeMeters>1107.199951171875</AltitudeMeters>
            <DistanceMeters>NAN</DistanceMeters>
          </Trackpoint>
          <Trackpoint>
            <Time>2022-09-19T10:14:23.000Z</Time>
            <Position>
              <LatitudeDegrees>49.30783932097256183624267578125</LatitudeDegrees>
              <LongitudeDegrees>19.92982056923210620880126953125</LongitudeDegrees>
            </Position>
            <AltitudeMeters>1107.199951171875</AltitudeMeters>
            <DistanceMeters>NAN</DistanceMeters>
          </Trackpoint>
          <Trackpoint>
            <Time>2022-09-19T10:14:30.000Z</Time>
            <Position>
              <LatitudeDegrees>49.30775382556021213531494140625</LatitudeDegrees>
              <LongitudeDegrees>19.92949702776968479156494140625</LongitudeDegrees>
            </Position>
            <AltitudeMeters>1107.199951171875</AltitudeMeters>
            <DistanceMeters>NAN</DistanceMeters>
          </Trackpoint>
          <Trackpoint>
            <Time>2022-09-19T10:14:31.000Z</Time>
            <Position>
              <LatitudeDegrees>49.30774242617189884185791015625</LatitudeDegrees>
              <LongitudeDegrees>19.92946048267185688018798828125</LongitudeDegrees>
            </Position>
            <AltitudeMeters>1107.199951171875</AltitudeMeters>
            <DistanceMeters>NAN</DistanceMeters>
          </Trackpoint>
          <Trackpoint>
            <Time>2022-09-19T10:14:38.000Z</Time>
            <Position>
              <LatitudeDegrees>49.3076598644256591796875</LatitudeDegrees>
              <LongitudeDegrees>19.929141215980052947998046875</LongitudeDegrees>
            </Position>
            <AltitudeMeters>1107.199951171875</AltitudeMeters>
            <DistanceMeters>NAN</DistanceMeters>
          </Trackpoint>
          <Trackpoint>
            <Time>2022-09-19T10:14:46.000Z</Time>
            <Position>
              <LatitudeDegrees>49.3075560964643955230712890625</LatitudeDegrees>
              <LongitudeDegrees>19.92876939475536346435546875</LongitudeDegrees>
            </Position>
            <AltitudeMeters>1107</AltitudeMeters>
            <DistanceMeters>NAN</DistanceMeters>
          </Trackpoint>
          <Trackpoint>
            <Time>2022-09-19T10:14:57.000Z</Time>
            <Position>
              <LatitudeDegrees>49.30740362964570522308349609375</LatitudeDegrees>
              <LongitudeDegrees>19.9282515607774257659912109375</LongitudeDegrees>
            </Position>
            <AltitudeMeters>1106.5999755859375</AltitudeMeters>
            <DistanceMeters>NAN</DistanceMeters>
          </Trackpoint>
          <Trackpoint>
            <Time>2022-09-19T10:15:02.000Z</Time>
            <Position>
              <LatitudeDegrees>49.3073411844670772552490234375</LatitudeDegrees>
              <LongitudeDegrees>19.928063638508319854736328125</LongitudeDegrees>
            </Position>
            <AltitudeMeters>1106.800048828125</AltitudeMeters>
            <DistanceMeters>NAN</DistanceMeters>
          </Trackpoint>
          <Trackpoint>
            <Time>2022-09-19T10:15:12.000Z</Time>
            <Position>
              <LatitudeDegrees>49.30722073651850223541259765625</LatitudeDegrees>
              <LongitudeDegrees>19.92760171182453632354736328125</LongitudeDegrees>
            </Position>
            <AltitudeMeters>1106.4000244140625</AltitudeMeters>
            <DistanceMeters>NAN</DistanceMeters>
          </Trackpoint>
          <Trackpoint>
            <Time>2022-09-19T10:15:20.000Z</Time>
            <Position>
              <LatitudeDegrees>49.30714295245707035064697265625</LatitudeDegrees>
              <LongitudeDegrees>19.9272715486586093902587890625</LongitudeDegrees>
            </Position>
            <AltitudeMeters>1106.4000244140625</AltitudeMeters>
            <DistanceMeters>NAN</DistanceMeters>
          </Trackpoint>
          <Trackpoint>
            <Time>2022-09-19T10:15:24.000Z</Time>
            <Position>
              <LatitudeDegrees>49.307114370167255401611328125</LatitudeDegrees>
              <LongitudeDegrees>19.92711187340319156646728515625</LongitudeDegrees>
            </Position>
            <AltitudeMeters>1106.4000244140625</AltitudeMeters>
            <DistanceMeters>NAN</DistanceMeters>
          </Trackpoint>
          <Trackpoint>
            <Time>2022-09-19T10:15:29.000Z</Time>
            <Position>
              <LatitudeDegrees>49.30706265382468700408935546875</LatitudeDegrees>
              <LongitudeDegrees>19.926916658878326416015625</LongitudeDegrees>
            </Position>
            <AltitudeMeters>1106</AltitudeMeters>
            <DistanceMeters>NAN</DistanceMeters>
          </Trackpoint>
          <Trackpoint>
            <Time>2022-09-19T10:15:30.000Z</Time>
            <Position>
              <LatitudeDegrees>49.30705024860799312591552734375</LatitudeDegrees>
              <LongitudeDegrees>19.92687986232340335845947265625</LongitudeDegrees>
            </Position>
            <AltitudeMeters>1106</AltitudeMeters>
            <DistanceMeters>NAN</DistanceMeters>
          </Trackpoint>
          <Trackpoint>
            <Time>2022-09-19T10:15:39.000Z</Time>
            <Position>
              <LatitudeDegrees>49.306946061551570892333984375</LatitudeDegrees>
              <LongitudeDegrees>19.9265103042125701904296875</LongitudeDegrees>
            </Position>
            <AltitudeMeters>1106.199951171875</AltitudeMeters>
            <DistanceMeters>NAN</DistanceMeters>
          </Trackpoint>
          <Trackpoint>
            <Time>2022-09-19T10:15:47.000Z</Time>
            <Position>
              <LatitudeDegrees>49.30688126944005489349365234375</LatitudeDegrees>
              <LongitudeDegrees>19.9262442626059055328369140625</LongitudeDegrees>
            </Position>
            <AltitudeMeters>1106.4000244140625</AltitudeMeters>
            <DistanceMeters>NAN</DistanceMeters>
          </Trackpoint>
          <Trackpoint>
            <Time>2022-09-19T10:15:56.000Z</Time>
            <Position>
              <LatitudeDegrees>49.30682511068880558013916015625</LatitudeDegrees>
              <LongitudeDegrees>19.9258278496563434600830078125</LongitudeDegrees>
            </Position>
            <AltitudeMeters>1106</AltitudeMeters>
            <DistanceMeters>NAN</DistanceMeters>
          </Trackpoint>
          <Trackpoint>
            <Time>2022-09-19T10:16:00.000Z</Time>
            <Position>
              <LatitudeDegrees>49.3068164773285388946533203125</LatitudeDegrees>
              <LongitudeDegrees>19.92568477056920528411865234375</LongitudeDegrees>
            </Position>
            <AltitudeMeters>1105.800048828125</AltitudeMeters>
            <DistanceMeters>NAN</DistanceMeters>
          </Trackpoint>
          <Trackpoint>
            <Time>2022-09-19T10:16:03.000Z</Time>
            <Position>
              <LatitudeDegrees>49.3067983724176883697509765625</LatitudeDegrees>
              <LongitudeDegrees>19.92561553604900836944580078125</LongitudeDegrees>
            </Position>
            <AltitudeMeters>1105.4000244140625</AltitudeMeters>
            <DistanceMeters>NAN</DistanceMeters>
          </Trackpoint>
          <Trackpoint>
            <Time>2022-09-19T10:16:08.000Z</Time>
            <Position>
              <LatitudeDegrees>49.306790828704833984375</LatitudeDegrees>
              <LongitudeDegrees>19.92548243142664432525634765625</LongitudeDegrees>
            </Position>
            <AltitudeMeters>1105.4000244140625</AltitudeMeters>
            <DistanceMeters>NAN</DistanceMeters>
          </Trackpoint>
          <Trackpoint>
            <Time>2022-09-19T10:16:12.000Z</Time>
            <Position>
              <LatitudeDegrees>49.3067876435816287994384765625</LatitudeDegrees>
              <LongitudeDegrees>19.92534379474818706512451171875</LongitudeDegrees>
            </Position>
            <AltitudeMeters>1105.199951171875</AltitudeMeters>
            <DistanceMeters>NAN</DistanceMeters>
          </Trackpoint>
          <Trackpoint>
            <Time>2022-09-19T10:16:16.000Z</Time>
            <Position>
              <LatitudeDegrees>49.3067800998687744140625</LatitudeDegrees>
              <LongitudeDegrees>19.9251847900450229644775390625</LongitudeDegrees>
            </Position>
            <AltitudeMeters>1104.800048828125</AltitudeMeters>
            <DistanceMeters>NAN</DistanceMeters>
          </Trackpoint>
          <Trackpoint>
            <Time>2022-09-19T10:16:18.000Z</Time>
            <Position>
              <LatitudeDegrees>49.306770376861095428466796875</LatitudeDegrees>
              <LongitudeDegrees>19.92509753443300724029541015625</LongitudeDegrees>
            </Position>
            <AltitudeMeters>1104.199951171875</AltitudeMeters>
            <DistanceMeters>NAN</DistanceMeters>
          </Trackpoint>
          <Trackpoint>
            <Time>2022-09-19T10:16:23.000Z</Time>
            <Position>
              <LatitudeDegrees>49.3067546188831329345703125</LatitudeDegrees>
              <LongitudeDegrees>19.92490726523101329803466796875</LongitudeDegrees>
            </Position>
            <AltitudeMeters>1104</AltitudeMeters>
            <DistanceMeters>NAN</DistanceMeters>
          </Trackpoint>
          <Trackpoint>
            <Time>2022-09-19T10:16:24.000Z</Time>
            <Position>
              <LatitudeDegrees>49.30674724280834197998046875</LatitudeDegrees>
              <LongitudeDegrees>19.92487876676023006439208984375</LongitudeDegrees>
            </Position>
            <AltitudeMeters>1104</AltitudeMeters>
            <DistanceMeters>NAN</DistanceMeters>
          </Trackpoint>
          <Trackpoint>
            <Time>2022-09-19T10:16:30.000Z</Time>
            <Position>
              <LatitudeDegrees>49.30673240683972835540771484375</LatitudeDegrees>
              <LongitudeDegrees>19.92470316588878631591796875</LongitudeDegrees>
            </Position>
            <AltitudeMeters>1103.800048828125</AltitudeMeters>
            <DistanceMeters>NAN</DistanceMeters>
          </Trackpoint>
          <Trackpoint>
            <Time>2022-09-19T10:16:31.000Z</Time>
            <Position>
              <LatitudeDegrees>49.30673089809715747833251953125</LatitudeDegrees>
              <LongitudeDegrees>19.9246691353619098663330078125</LongitudeDegrees>
            </Position>
            <AltitudeMeters>1103.800048828125</AltitudeMeters>
            <DistanceMeters>NAN</DistanceMeters>
          </Trackpoint>
          <Trackpoint>
            <Time>2022-09-19T10:16:36.000Z</Time>
            <Position>
              <LatitudeDegrees>49.306708015501499176025390625</LatitudeDegrees>
              <LongitudeDegrees>19.924473501741886138916015625</LongitudeDegrees>
            </Position>
            <AltitudeMeters>1102.800048828125</AltitudeMeters>
            <DistanceMeters>NAN</DistanceMeters>
          </Trackpoint>
          <Trackpoint>
            <Time>2022-09-19T10:16:37.000Z</Time>
            <Position>
              <LatitudeDegrees>49.30670273490250110626220703125</LatitudeDegrees>
              <LongitudeDegrees>19.924432933330535888671875</LongitudeDegrees>
            </Position>
            <AltitudeMeters>1102.5999755859375</AltitudeMeters>
            <DistanceMeters>NAN</DistanceMeters>
          </Trackpoint>
          <Trackpoint>
            <Time>2022-09-19T10:16:42.000Z</Time>
            <Position>
              <LatitudeDegrees>49.3066833727061748504638671875</LatitudeDegrees>
              <LongitudeDegrees>19.9242438375949859619140625</LongitudeDegrees>
            </Position>
            <AltitudeMeters>1101.5999755859375</AltitudeMeters>
            <DistanceMeters>NAN</DistanceMeters>
          </Trackpoint>
          <Trackpoint>
            <Time>2022-09-19T10:16:44.000Z</Time>
            <Position>
              <LatitudeDegrees>49.30667222477495670318603515625</LatitudeDegrees>
              <LongitudeDegrees>19.92417016066610813140869140625</LongitudeDegrees>
            </Position>
            <AltitudeMeters>1101.4000244140625</AltitudeMeters>
            <DistanceMeters>NAN</DistanceMeters>
          </Trackpoint>
          <Trackpoint>
            <Time>2022-09-19T10:16:51.000Z</Time>
            <Position>
              <LatitudeDegrees>49.30663635022938251495361328125</LatitudeDegrees>
              <LongitudeDegrees>19.92399397306144237518310546875</LongitudeDegrees>
            </Position>
            <AltitudeMeters>1101.199951171875</AltitudeMeters>
            <DistanceMeters>NAN</DistanceMeters>
          </Trackpoint>
          <Trackpoint>
            <Time>2022-09-19T10:16:59.000Z</Time>
            <Position>
              <LatitudeDegrees>49.3065801076591014862060546875</LatitudeDegrees>
              <LongitudeDegrees>19.923785515129566192626953125</LongitudeDegrees>
            </Position>
            <AltitudeMeters>1101.4000244140625</AltitudeMeters>
            <DistanceMeters>NAN</DistanceMeters>
          </Trackpoint>
          <Trackpoint>
            <Time>2022-09-19T10:17:06.000Z</Time>
            <Position>
              <LatitudeDegrees>49.30654062889516353607177734375</LatitudeDegrees>
              <LongitudeDegrees>19.9235989339649677276611328125</LongitudeDegrees>
            </Position>
            <AltitudeMeters>1101.800048828125</AltitudeMeters>
            <DistanceMeters>NAN</DistanceMeters>
          </Trackpoint>
          <Trackpoint>
            <Time>2022-09-19T10:17:14.000Z</Time>
            <Position>
              <LatitudeDegrees>49.3064966239035129547119140625</LatitudeDegrees>
              <LongitudeDegrees>19.92335510440170764923095703125</LongitudeDegrees>
            </Position>
            <AltitudeMeters>1101.4000244140625</AltitudeMeters>
            <DistanceMeters>NAN</DistanceMeters>
          </Trackpoint>
          <Trackpoint>
            <Time>2022-09-19T10:17:15.000Z</Time>
            <Position>
              <LatitudeDegrees>49.30649352259933948516845703125</LatitudeDegrees>
              <LongitudeDegrees>19.92332710884511470794677734375</LongitudeDegrees>
            </Position>
            <AltitudeMeters>1101.5999755859375</AltitudeMeters>
            <DistanceMeters>NAN</DistanceMeters>
          </Trackpoint>
          <Trackpoint>
            <Time>2022-09-19T10:17:25.000Z</Time>
            <Position>
              <LatitudeDegrees>49.30644951760768890380859375</LatitudeDegrees>
              <LongitudeDegrees>19.92296920157968997955322265625</LongitudeDegrees>
            </Position>
            <AltitudeMeters>1101.4000244140625</AltitudeMeters>
            <DistanceMeters>NAN</DistanceMeters>
          </Trackpoint>
          <Trackpoint>
            <Time>2022-09-19T10:17:34.000Z</Time>
            <Position>
              <LatitudeDegrees>49.30639595724642276763916015625</LatitudeDegrees>
              <LongitudeDegrees>19.9226487614214420318603515625</LongitudeDegrees>
            </Position>
            <AltitudeMeters>1100.4000244140625</AltitudeMeters>
            <DistanceMeters>NAN</DistanceMeters>
          </Trackpoint>
          <Trackpoint>
            <Time>2022-09-19T10:17:41.000Z</Time>
            <Position>
              <LatitudeDegrees>49.306361675262451171875</LatitudeDegrees>
              <LongitudeDegrees>19.9224150739610195159912109375</LongitudeDegrees>
            </Position>
            <AltitudeMeters>1100.800048828125</AltitudeMeters>
            <DistanceMeters>NAN</DistanceMeters>
          </Trackpoint>
          <Trackpoint>
            <Time>2022-09-19T10:17:43.000Z</Time>
            <Position>
              <LatitudeDegrees>49.30635555647313594818115234375</LatitudeDegrees>
              <LongitudeDegrees>19.922363273799419403076171875</LongitudeDegrees>
            </Position>
            <AltitudeMeters>1101</AltitudeMeters>
            <DistanceMeters>NAN</DistanceMeters>
          </Trackpoint>
          <Trackpoint>
            <Time>2022-09-19T10:17:48.000Z</Time>
            <Position>
              <LatitudeDegrees>49.306336529552936553955078125</LatitudeDegrees>
              <LongitudeDegrees>19.92226562462747097015380859375</LongitudeDegrees>
            </Position>
            <AltitudeMeters>1100.4000244140625</AltitudeMeters>
            <DistanceMeters>NAN</DistanceMeters>
          </Trackpoint>
          <Trackpoint>
            <Time>2022-09-19T10:17:54.000Z</Time>
            <Position>
              <LatitudeDegrees>49.3063040077686309814453125</LatitudeDegrees>
              <LongitudeDegrees>19.92209278978407382965087890625</LongitudeDegrees>
            </Position>
            <AltitudeMeters>1100.4000244140625</AltitudeMeters>
            <DistanceMeters>NAN</DistanceMeters>
          </Trackpoint>
          <Trackpoint>
            <Time>2022-09-19T10:18:01.000Z</Time>
            <Position>
              <LatitudeDegrees>49.30626100860536098480224609375</LatitudeDegrees>
              <LongitudeDegrees>19.9218769557774066925048828125</LongitudeDegrees>
            </Position>
            <AltitudeMeters>1100</AltitudeMeters>
            <DistanceMeters>NAN</DistanceMeters>
          </Trackpoint>
          <Trackpoint>
            <Time>2022-09-19T10:18:06.000Z</Time>
            <Position>
              <LatitudeDegrees>49.30622111074626445770263671875</LatitudeDegrees>
              <LongitudeDegrees>19.9217037856578826904296875</LongitudeDegrees>
            </Position>
            <AltitudeMeters>1100.5999755859375</AltitudeMeters>
            <DistanceMeters>NAN</DistanceMeters>
          </Trackpoint>
          <Trackpoint>
            <Time>2022-09-19T10:18:07.000Z</Time>
            <Position>
              <LatitudeDegrees>49.30621541105210781097412109375</LatitudeDegrees>
              <LongitudeDegrees>19.92166715674102306365966796875</LongitudeDegrees>
            </Position>
            <AltitudeMeters>1100.800048828125</AltitudeMeters>
            <DistanceMeters>NAN</DistanceMeters>
          </Trackpoint>
          <Trackpoint>
            <Time>2022-09-19T10:18:10.000Z</Time>
            <Position>
              <LatitudeDegrees>49.30619562976062297821044921875</LatitudeDegrees>
              <LongitudeDegrees>19.9215758778154850006103515625</LongitudeDegrees>
            </Position>
            <AltitudeMeters>1101.199951171875</AltitudeMeters>
            <DistanceMeters>NAN</DistanceMeters>
          </Trackpoint>
          <Trackpoint>
            <Time>2022-09-19T10:18:13.000Z</Time>
            <Position>
              <LatitudeDegrees>49.30618557147681713104248046875</LatitudeDegrees>
              <LongitudeDegrees>19.92151678539812564849853515625</LongitudeDegrees>
            </Position>
            <AltitudeMeters>1101.4000244140625</AltitudeMeters>
            <DistanceMeters>NAN</DistanceMeters>
          </Trackpoint>
          <Trackpoint>
            <Time>2022-09-19T10:18:15.000Z</Time>
            <Position>
              <LatitudeDegrees>49.30618691258132457733154296875</LatitudeDegrees>
              <LongitudeDegrees>19.92150865495204925537109375</LongitudeDegrees>
            </Position>
            <AltitudeMeters>1101.4000244140625</AltitudeMeters>
            <DistanceMeters>NAN</DistanceMeters>
          </Trackpoint>
          <Trackpoint>
            <Time>2022-09-19T10:18:26.000Z</Time>
            <Position>
              <LatitudeDegrees>49.3061874993145465850830078125</LatitudeDegrees>
              <LongitudeDegrees>19.92150119505822658538818359375</LongitudeDegrees>
            </Position>
            <AltitudeMeters>1101.4000244140625</AltitudeMeters>
            <DistanceMeters>NAN</DistanceMeters>
          </Trackpoint>
          <Trackpoint>
            <Time>2022-09-19T10:18:43.000Z</Time>
            <Position>
              <LatitudeDegrees>49.3061874993145465850830078125</LatitudeDegrees>
              <LongitudeDegrees>19.92150119505822658538818359375</LongitudeDegrees>
            </Position>
            <AltitudeMeters>1101.199951171875</AltitudeMeters>
            <DistanceMeters>NAN</DistanceMeters>
          </Trackpoint>
          <Trackpoint>
            <Time>2022-09-19T10:18:54.000Z</Time>
            <Position>
              <LatitudeDegrees>49.3061874993145465850830078125</LatitudeDegrees>
              <LongitudeDegrees>19.92150119505822658538818359375</LongitudeDegrees>
            </Position>
            <AltitudeMeters>1101</AltitudeMeters>
            <DistanceMeters>NAN</DistanceMeters>
          </Trackpoint>
          <Trackpoint>
            <Time>2022-09-19T10:19:00.000Z</Time>
            <Position>
              <LatitudeDegrees>49.3061874993145465850830078125</LatitudeDegrees>
              <LongitudeDegrees>19.92150119505822658538818359375</LongitudeDegrees>
            </Position>
            <AltitudeMeters>1101</AltitudeMeters>
            <DistanceMeters>NAN</DistanceMeters>
          </Trackpoint>
          <Trackpoint>
            <Time>2022-09-19T10:19:05.000Z</Time>
            <Position>
              <LatitudeDegrees>49.3061874993145465850830078125</LatitudeDegrees>
              <LongitudeDegrees>19.92150119505822658538818359375</LongitudeDegrees>
            </Position>
            <AltitudeMeters>1101.199951171875</AltitudeMeters>
            <DistanceMeters>NAN</DistanceMeters>
          </Trackpoint>
          <Trackpoint>
            <Time>2022-09-19T10:19:14.000Z</Time>
            <Position>
              <LatitudeDegrees>49.3061874993145465850830078125</LatitudeDegrees>
              <LongitudeDegrees>19.92150119505822658538818359375</LongitudeDegrees>
            </Position>
            <AltitudeMeters>1100.800048828125</AltitudeMeters>
            <DistanceMeters>NAN</DistanceMeters>
          </Trackpoint>
          <Trackpoint>
            <Time>2022-09-19T10:19:26.000Z</Time>
            <Position>
              <LatitudeDegrees>49.3061874993145465850830078125</LatitudeDegrees>
              <LongitudeDegrees>19.92150119505822658538818359375</LongitudeDegrees>
            </Position>
            <AltitudeMeters>1101.4000244140625</AltitudeMeters>
            <DistanceMeters>NAN</DistanceMeters>
          </Trackpoint>
          <Trackpoint>
            <Time>2022-09-19T10:19:55.000Z</Time>
            <Position>
              <LatitudeDegrees>49.3061874993145465850830078125</LatitudeDegrees>
              <LongitudeDegrees>19.92150119505822658538818359375</LongitudeDegrees>
            </Position>
            <AltitudeMeters>1101.4000244140625</AltitudeMeters>
            <DistanceMeters>NAN</DistanceMeters>
          </Trackpoint>
          <Trackpoint>
            <Time>2022-09-19T10:20:12.000Z</Time>
            <Position>
              <LatitudeDegrees>49.3061727471649646759033203125</LatitudeDegrees>
              <LongitudeDegrees>19.9214060604572296142578125</LongitudeDegrees>
            </Position>
            <AltitudeMeters>1101.4000244140625</AltitudeMeters>
            <DistanceMeters>NAN</DistanceMeters>
          </Trackpoint>
          <Trackpoint>
            <Time>2022-09-19T10:20:18.000Z</Time>
            <Position>
              <LatitudeDegrees>49.30614299140870571136474609375</LatitudeDegrees>
              <LongitudeDegrees>19.921179749071598052978515625</LongitudeDegrees>
            </Position>
            <AltitudeMeters>1101</AltitudeMeters>
            <DistanceMeters>NAN</DistanceMeters>
          </Trackpoint>
          <Trackpoint>
            <Time>2022-09-19T10:20:26.000Z</Time>
            <Position>
              <LatitudeDegrees>49.3061174266040325164794921875</LatitudeDegrees>
              <LongitudeDegrees>19.92095972411334514617919921875</LongitudeDegrees>
            </Position>
            <AltitudeMeters>1101</AltitudeMeters>
            <DistanceMeters>NAN</DistanceMeters>
          </Trackpoint>
          <Trackpoint>
            <Time>2022-09-19T10:20:34.000Z</Time>
            <Position>
              <LatitudeDegrees>49.30609370581805706024169921875</LatitudeDegrees>
              <LongitudeDegrees>19.9207182414829730987548828125</LongitudeDegrees>
            </Position>
            <AltitudeMeters>1101.4000244140625</AltitudeMeters>
            <DistanceMeters>NAN</DistanceMeters>
          </Trackpoint>
          <Trackpoint>
            <Time>2022-09-19T10:20:40.000Z</Time>
            <Position>
              <LatitudeDegrees>49.30605900473892688751220703125</LatitudeDegrees>
              <LongitudeDegrees>19.92055789567530155181884765625</LongitudeDegrees>
            </Position>
            <AltitudeMeters>1101.199951171875</AltitudeMeters>
            <DistanceMeters>NAN</DistanceMeters>
          </Trackpoint>
          <Trackpoint>
            <Time>2022-09-19T10:20:44.000Z</Time>
            <Position>
              <LatitudeDegrees>49.3060540594160556793212890625</LatitudeDegrees>
              <LongitudeDegrees>19.9205636791884899139404296875</LongitudeDegrees>
            </Position>
            <AltitudeMeters>1101.199951171875</AltitudeMeters>
            <DistanceMeters>NAN</DistanceMeters>
          </Trackpoint>
          <Trackpoint>
            <Time>2022-09-19T10:20:49.000Z</Time>
            <Position>
              <LatitudeDegrees>49.3060476891696453094482421875</LatitudeDegrees>
              <LongitudeDegrees>19.92052721790969371795654296875</LongitudeDegrees>
            </Position>
            <AltitudeMeters>1101.199951171875</AltitudeMeters>
            <DistanceMeters>NAN</DistanceMeters>
          </Trackpoint>
          <Trackpoint>
            <Time>2022-09-19T10:20:51.000Z</Time>
            <Position>
              <LatitudeDegrees>49.3060413189232349395751953125</LatitudeDegrees>
              <LongitudeDegrees>19.9204989708960056304931640625</LongitudeDegrees>
            </Position>
            <AltitudeMeters>1101</AltitudeMeters>
            <DistanceMeters>NAN</DistanceMeters>
          </Trackpoint>
          <Trackpoint>
            <Time>2022-09-19T10:21:00.000Z</Time>
            <Position>
              <LatitudeDegrees>49.30600670166313648223876953125</LatitudeDegrees>
              <LongitudeDegrees>19.92035790346562862396240234375</LongitudeDegrees>
            </Position>
            <AltitudeMeters>1101.4000244140625</AltitudeMeters>
            <DistanceMeters>NAN</DistanceMeters>
          </Trackpoint>
          <Trackpoint>
            <Time>2022-09-19T10:21:05.000Z</Time>
            <Position>
              <LatitudeDegrees>49.30599127896130084991455078125</LatitudeDegrees>
              <LongitudeDegrees>19.92027617990970611572265625</LongitudeDegrees>
            </Position>
            <AltitudeMeters>1101.5999755859375</AltitudeMeters>
            <DistanceMeters>NAN</DistanceMeters>
          </Trackpoint>
          <Trackpoint>
            <Time>2022-09-19T10:21:09.000Z</Time>
            <Position>
              <LatitudeDegrees>49.30597518570721149444580078125</LatitudeDegrees>
              <LongitudeDegrees>19.920216500759124755859375</LongitudeDegrees>
            </Position>
            <AltitudeMeters>1101.5999755859375</AltitudeMeters>
            <DistanceMeters>NAN</DistanceMeters>
          </Trackpoint>
          <Trackpoint>
            <Time>2022-09-19T10:21:13.000Z</Time>
            <Position>
              <LatitudeDegrees>49.30595540441572666168212890625</LatitudeDegrees>
              <LongitudeDegrees>19.9201724119484424591064453125</LongitudeDegrees>
            </Position>
            <AltitudeMeters>1101.5999755859375</AltitudeMeters>
            <DistanceMeters>NAN</DistanceMeters>
          </Trackpoint>
          <Trackpoint>
            <Time>2022-09-19T10:21:18.000Z</Time>
            <Position>
              <LatitudeDegrees>49.30592791177332401275634765625</LatitudeDegrees>
              <LongitudeDegrees>19.92013745941221714019775390625</LongitudeDegrees>
            </Position>
            <AltitudeMeters>1101.800048828125</AltitudeMeters>
            <DistanceMeters>NAN</DistanceMeters>
          </Trackpoint>
          <Trackpoint>
            <Time>2022-09-19T10:21:25.000Z</Time>
            <Position>
              <LatitudeDegrees>49.3059078790247440338134765625</LatitudeDegrees>
              <LongitudeDegrees>19.92008850909769535064697265625</LongitudeDegrees>
            </Position>
            <AltitudeMeters>1101.5999755859375</AltitudeMeters>
            <DistanceMeters>NAN</DistanceMeters>
          </Trackpoint>
          <Trackpoint>
            <Time>2022-09-19T10:21:31.000Z</Time>
            <Position>
              <LatitudeDegrees>49.3059078790247440338134765625</LatitudeDegrees>
              <LongitudeDegrees>19.92008850909769535064697265625</LongitudeDegrees>
            </Position>
            <AltitudeMeters>1101.800048828125</AltitudeMeters>
            <DistanceMeters>NAN</DistanceMeters>
          </Trackpoint>
          <Trackpoint>
            <Time>2022-09-19T10:21:44.000Z</Time>
            <Position>
              <LatitudeDegrees>49.3059078790247440338134765625</LatitudeDegrees>
              <LongitudeDegrees>19.92008850909769535064697265625</LongitudeDegrees>
            </Position>
            <AltitudeMeters>1102</AltitudeMeters>
            <DistanceMeters>NAN</DistanceMeters>
          </Trackpoint>
          <Trackpoint>
            <Time>2022-09-19T10:21:48.000Z</Time>
            <Position>
              <LatitudeDegrees>49.3059078790247440338134765625</LatitudeDegrees>
              <LongitudeDegrees>19.92008850909769535064697265625</LongitudeDegrees>
            </Position>
            <AltitudeMeters>1102</AltitudeMeters>
            <DistanceMeters>NAN</DistanceMeters>
          </Trackpoint>
          <Trackpoint>
            <Time>2022-09-19T10:21:52.000Z</Time>
            <Position>
              <LatitudeDegrees>49.3059078790247440338134765625</LatitudeDegrees>
              <LongitudeDegrees>19.92008850909769535064697265625</LongitudeDegrees>
            </Position>
            <AltitudeMeters>1102.199951171875</AltitudeMeters>
            <DistanceMeters>NAN</DistanceMeters>
          </Trackpoint>
          <Trackpoint>
            <Time>2022-09-19T10:21:55.000Z</Time>
            <Position>
              <LatitudeDegrees>49.3059078790247440338134765625</LatitudeDegrees>
              <LongitudeDegrees>19.92008850909769535064697265625</LongitudeDegrees>
            </Position>
            <AltitudeMeters>1102.199951171875</AltitudeMeters>
            <DistanceMeters>NAN</DistanceMeters>
          </Trackpoint>
          <Trackpoint>
            <Time>2022-09-19T10:21:58.000Z</Time>
            <Position>
              <LatitudeDegrees>49.305907376110553741455078125</LatitudeDegrees>
              <LongitudeDegrees>19.92008733563125133514404296875</LongitudeDegrees>
            </Position>
            <AltitudeMeters>1102.199951171875</AltitudeMeters>
            <DistanceMeters>NAN</DistanceMeters>
          </Trackpoint>
          <Trackpoint>
            <Time>2022-09-19T10:22:02.000Z</Time>
            <Position>
              <LatitudeDegrees>49.305907376110553741455078125</LatitudeDegrees>
              <LongitudeDegrees>19.92008733563125133514404296875</LongitudeDegrees>
            </Position>
            <AltitudeMeters>1102.5999755859375</AltitudeMeters>
            <DistanceMeters>NAN</DistanceMeters>
          </Trackpoint>
          <Trackpoint>
            <Time>2022-09-19T10:22:05.000Z</Time>
            <Position>
              <LatitudeDegrees>49.30590427480638027191162109375</LatitudeDegrees>
              <LongitudeDegrees>19.92008012719452381134033203125</LongitudeDegrees>
            </Position>
            <AltitudeMeters>1103</AltitudeMeters>
            <DistanceMeters>NAN</DistanceMeters>
          </Trackpoint>
          <Trackpoint>
            <Time>2022-09-19T10:22:10.000Z</Time>
            <Position>
              <LatitudeDegrees>49.305873177945613861083984375</LatitudeDegrees>
              <LongitudeDegrees>19.919972084462642669677734375</LongitudeDegrees>
            </Position>
            <AltitudeMeters>1103</AltitudeMeters>
            <DistanceMeters>NAN</DistanceMeters>
          </Trackpoint>
          <Trackpoint>
            <Time>2022-09-19T10:22:13.000Z</Time>
            <Position>
              <LatitudeDegrees>49.30585540831089019775390625</LatitudeDegrees>
              <LongitudeDegrees>19.9199179373681545257568359375</LongitudeDegrees>
            </Position>
            <AltitudeMeters>1103.4000244140625</AltitudeMeters>
            <DistanceMeters>NAN</DistanceMeters>
          </Trackpoint>
          <Trackpoint>
            <Time>2022-09-19T10:22:17.000Z</Time>
            <Position>
              <LatitudeDegrees>49.3058274127542972564697265625</LatitudeDegrees>
              <LongitudeDegrees>19.91984660737216472625732421875</LongitudeDegrees>
            </Position>
            <AltitudeMeters>1103.5999755859375</AltitudeMeters>
            <DistanceMeters>NAN</DistanceMeters>
          </Trackpoint>
          <Trackpoint>
            <Time>2022-09-19T10:22:19.000Z</Time>
            <Position>
              <LatitudeDegrees>49.3058126606047153472900390625</LatitudeDegrees>
              <LongitudeDegrees>19.91982162930071353912353515625</LongitudeDegrees>
            </Position>
            <AltitudeMeters>1103.5999755859375</AltitudeMeters>
            <DistanceMeters>NAN</DistanceMeters>
          </Trackpoint>
          <Trackpoint>
            <Time>2022-09-19T10:22:22.000Z</Time>
            <Position>
              <LatitudeDegrees>49.3058015964925289154052734375</LatitudeDegrees>
              <LongitudeDegrees>19.91977435536682605743408203125</LongitudeDegrees>
            </Position>
            <AltitudeMeters>1103.5999755859375</AltitudeMeters>
            <DistanceMeters>NAN</DistanceMeters>
          </Trackpoint>
          <Trackpoint>
            <Time>2022-09-19T10:22:24.000Z</Time>
            <Position>
              <LatitudeDegrees>49.30579765699803829193115234375</LatitudeDegrees>
              <LongitudeDegrees>19.9197570048272609710693359375</LongitudeDegrees>
            </Position>
            <AltitudeMeters>1103.800048828125</AltitudeMeters>
            <DistanceMeters>NAN</DistanceMeters>
          </Trackpoint>
          <Trackpoint>
            <Time>2022-09-19T10:22:27.000Z</Time>
            <Position>
              <LatitudeDegrees>49.30579011328518390655517578125</LatitudeDegrees>
              <LongitudeDegrees>19.91971299983561038970947265625</LongitudeDegrees>
            </Position>
            <AltitudeMeters>1104</AltitudeMeters>
            <DistanceMeters>NAN</DistanceMeters>
          </Trackpoint>
          <Trackpoint>
            <Time>2022-09-19T10:22:32.000Z</Time>
            <Position>
              <LatitudeDegrees>49.30577536113560199737548828125</LatitudeDegrees>
              <LongitudeDegrees>19.91964519023895263671875</LongitudeDegrees>
            </Position>
            <AltitudeMeters>1104.4000244140625</AltitudeMeters>
            <DistanceMeters>NAN</DistanceMeters>
          </Trackpoint>
          <Trackpoint>
            <Time>2022-09-19T10:22:38.000Z</Time>
            <Position>
              <LatitudeDegrees>49.30578055791556835174560546875</LatitudeDegrees>
              <LongitudeDegrees>19.919563718140125274658203125</LongitudeDegrees>
            </Position>
            <AltitudeMeters>1104.5999755859375</AltitudeMeters>
            <DistanceMeters>NAN</DistanceMeters>
          </Trackpoint>
          <Trackpoint>
            <Time>2022-09-19T10:22:41.000Z</Time>
            <Position>
              <LatitudeDegrees>49.30578240193426609039306640625</LatitudeDegrees>
              <LongitudeDegrees>19.9195303581655025482177734375</LongitudeDegrees>
            </Position>
            <AltitudeMeters>1104.800048828125</AltitudeMeters>
            <DistanceMeters>NAN</DistanceMeters>
          </Trackpoint>
          <Trackpoint>
            <Time>2022-09-19T10:22:49.000Z</Time>
            <Position>
              <LatitudeDegrees>49.30577904917299747467041015625</LatitudeDegrees>
              <LongitudeDegrees>19.91945265792310237884521484375</LongitudeDegrees>
            </Position>
            <AltitudeMeters>1104.5999755859375</AltitudeMeters>
            <DistanceMeters>NAN</DistanceMeters>
          </Trackpoint>
          <Trackpoint>
            <Time>2022-09-19T10:22:58.000Z</Time>
            <Position>
              <LatitudeDegrees>49.30577385239303112030029296875</LatitudeDegrees>
              <LongitudeDegrees>19.91933631710708141326904296875</LongitudeDegrees>
            </Position>
            <AltitudeMeters>1104.800048828125</AltitudeMeters>
            <DistanceMeters>NAN</DistanceMeters>
          </Trackpoint>
          <Trackpoint>
            <Time>2022-09-19T10:23:06.000Z</Time>
            <Position>
              <LatitudeDegrees>49.305749125778675079345703125</LatitudeDegrees>
              <LongitudeDegrees>19.91921494714915752410888671875</LongitudeDegrees>
            </Position>
            <AltitudeMeters>1104.800048828125</AltitudeMeters>
            <DistanceMeters>NAN</DistanceMeters>
          </Trackpoint>
          <Trackpoint>
            <Time>2022-09-19T10:23:15.000Z</Time>
            <Position>
              <LatitudeDegrees>49.3057345412671566009521484375</LatitudeDegrees>
              <LongitudeDegrees>19.9190921522676944732666015625</LongitudeDegrees>
            </Position>
            <AltitudeMeters>1105</AltitudeMeters>
            <DistanceMeters>NAN</DistanceMeters>
          </Trackpoint>
          <Trackpoint>
            <Time>2022-09-19T10:23:23.000Z</Time>
            <Position>
              <LatitudeDegrees>49.305716268718242645263671875</LatitudeDegrees>
              <LongitudeDegrees>19.918998442590236663818359375</LongitudeDegrees>
            </Position>
            <AltitudeMeters>1105</AltitudeMeters>
            <DistanceMeters>NAN</DistanceMeters>
          </Trackpoint>
          <Trackpoint>
            <Time>2022-09-19T10:23:25.000Z</Time>
            <Position>
              <LatitudeDegrees>49.30570696480572223663330078125</LatitudeDegrees>
              <LongitudeDegrees>19.91897824220359325408935546875</LongitudeDegrees>
            </Position>
            <AltitudeMeters>1105.4000244140625</AltitudeMeters>
            <DistanceMeters>NAN</DistanceMeters>
          </Trackpoint>
          <Trackpoint>
            <Time>2022-09-19T10:23:30.000Z</Time>
            <Position>
              <LatitudeDegrees>49.3056805618107318878173828125</LatitudeDegrees>
              <LongitudeDegrees>19.91892325691878795623779296875</LongitudeDegrees>
            </Position>
            <AltitudeMeters>1105.4000244140625</AltitudeMeters>
            <DistanceMeters>NAN</DistanceMeters>
          </Trackpoint>
          <Trackpoint>
            <Time>2022-09-19T10:23:34.000Z</Time>
            <Position>
              <LatitudeDegrees>49.305672012269496917724609375</LatitudeDegrees>
              <LongitudeDegrees>19.918870031833648681640625</LongitudeDegrees>
            </Position>
            <AltitudeMeters>1105.4000244140625</AltitudeMeters>
            <DistanceMeters>NAN</DistanceMeters>
          </Trackpoint>
          <Trackpoint>
            <Time>2022-09-19T10:23:37.000Z</Time>
            <Position>
              <LatitudeDegrees>49.30565684102475643157958984375</LatitudeDegrees>
              <LongitudeDegrees>19.91884983144700527191162109375</LongitudeDegrees>
            </Position>
            <AltitudeMeters>1105.4000244140625</AltitudeMeters>
            <DistanceMeters>NAN</DistanceMeters>
          </Trackpoint>
          <Trackpoint>
            <Time>2022-09-19T10:23:39.000Z</Time>
            <Position>
              <LatitudeDegrees>49.30564845912158489227294921875</LatitudeDegrees>
              <LongitudeDegrees>19.91883055306971073150634765625</LongitudeDegrees>
            </Position>
            <AltitudeMeters>1105.5999755859375</AltitudeMeters>
            <DistanceMeters>NAN</DistanceMeters>
          </Trackpoint>
          <Trackpoint>
            <Time>2022-09-19T10:23:42.000Z</Time>
            <Position>
              <LatitudeDegrees>49.30563253350555896759033203125</LatitudeDegrees>
              <LongitudeDegrees>19.91880490444600582122802734375</LongitudeDegrees>
            </Position>
            <AltitudeMeters>1105.5999755859375</AltitudeMeters>
            <DistanceMeters>NAN</DistanceMeters>
          </Trackpoint>
          <Trackpoint>
            <Time>2022-09-19T10:23:44.000Z</Time>
            <Position>
              <LatitudeDegrees>49.305627085268497467041015625</LatitudeDegrees>
              <LongitudeDegrees>19.91877590306103229522705078125</LongitudeDegrees>
            </Position>
            <AltitudeMeters>1105.5999755859375</AltitudeMeters>
            <DistanceMeters>NAN</DistanceMeters>
          </Trackpoint>
          <Trackpoint>
            <Time>2022-09-19T10:23:45.000Z</Time>
            <Position>
              <LatitudeDegrees>49.30562649853527545928955078125</LatitudeDegrees>
              <LongitudeDegrees>19.91876919753849506378173828125</LongitudeDegrees>
            </Position>
            <AltitudeMeters>1105.5999755859375</AltitudeMeters>
            <DistanceMeters>NAN</DistanceMeters>
          </Trackpoint>
          <Trackpoint>
            <Time>2022-09-19T10:23:50.000Z</Time>
            <Position>
              <LatitudeDegrees>49.3056252412497997283935546875</LatitudeDegrees>
              <LongitudeDegrees>19.91871354170143604278564453125</LongitudeDegrees>
            </Position>
            <AltitudeMeters>1105.5999755859375</AltitudeMeters>
            <DistanceMeters>NAN</DistanceMeters>
          </Trackpoint>
          <Trackpoint>
            <Time>2022-09-19T10:23:56.000Z</Time>
            <Position>
              <LatitudeDegrees>49.3056138418614864349365234375</LatitudeDegrees>
              <LongitudeDegrees>19.91861547343432903289794921875</LongitudeDegrees>
            </Position>
            <AltitudeMeters>1105.5999755859375</AltitudeMeters>
            <DistanceMeters>NAN</DistanceMeters>
          </Trackpoint>
          <Trackpoint>
            <Time>2022-09-19T10:23:59.000Z</Time>
            <Position>
              <LatitudeDegrees>49.30561526678502559661865234375</LatitudeDegrees>
              <LongitudeDegrees>19.91857037879526615142822265625</LongitudeDegrees>
            </Position>
            <AltitudeMeters>1105.800048828125</AltitudeMeters>
            <DistanceMeters>NAN</DistanceMeters>
          </Trackpoint>
          <Trackpoint>
            <Time>2022-09-19T10:24:04.000Z</Time>
            <Position>
              <LatitudeDegrees>49.30559615604579448699951171875</LatitudeDegrees>
              <LongitudeDegrees>19.91848639212548732757568359375</LongitudeDegrees>
            </Position>
            <AltitudeMeters>1105.800048828125</AltitudeMeters>
            <DistanceMeters>NAN</DistanceMeters>
          </Trackpoint>
          <Trackpoint>
            <Time>2022-09-19T10:24:06.000Z</Time>
            <Position>
              <LatitudeDegrees>49.30558794178068637847900390625</LatitudeDegrees>
              <LongitudeDegrees>19.91846895776689052581787109375</LongitudeDegrees>
            </Position>
            <AltitudeMeters>1106</AltitudeMeters>
            <DistanceMeters>NAN</DistanceMeters>
          </Trackpoint>
          <Trackpoint>
            <Time>2022-09-19T10:24:15.000Z</Time>
            <Position>
              <LatitudeDegrees>49.3055715970695018768310546875</LatitudeDegrees>
              <LongitudeDegrees>19.91835999302566051483154296875</LongitudeDegrees>
            </Position>
            <AltitudeMeters>1106.199951171875</AltitudeMeters>
            <DistanceMeters>NAN</DistanceMeters>
          </Trackpoint>
          <Trackpoint>
            <Time>2022-09-19T10:24:24.000Z</Time>
            <Position>
              <LatitudeDegrees>49.3055541627109050750732421875</LatitudeDegrees>
              <LongitudeDegrees>19.918254129588603973388671875</LongitudeDegrees>
            </Position>
            <AltitudeMeters>1106.4000244140625</AltitudeMeters>
            <DistanceMeters>NAN</DistanceMeters>
          </Trackpoint>
          <Trackpoint>
            <Time>2022-09-19T10:24:33.000Z</Time>
            <Position>
              <LatitudeDegrees>49.30553815327584743499755859375</LatitudeDegrees>
              <LongitudeDegrees>19.918177016079425811767578125</LongitudeDegrees>
            </Position>
            <AltitudeMeters>1106.5999755859375</AltitudeMeters>
            <DistanceMeters>NAN</DistanceMeters>
          </Trackpoint>
          <Trackpoint>
            <Time>2022-09-19T10:24:39.000Z</Time>
            <Position>
              <LatitudeDegrees>49.30553396232426166534423828125</LatitudeDegrees>
              <LongitudeDegrees>19.918159581720829010009765625</LongitudeDegrees>
            </Position>
            <AltitudeMeters>1106.800048828125</AltitudeMeters>
            <DistanceMeters>NAN</DistanceMeters>
          </Trackpoint>
          <Trackpoint>
            <Time>2022-09-19T10:24:40.000Z</Time>
            <Position>
              <LatitudeDegrees>49.30553396232426166534423828125</LatitudeDegrees>
              <LongitudeDegrees>19.918159581720829010009765625</LongitudeDegrees>
            </Position>
            <AltitudeMeters>1106.800048828125</AltitudeMeters>
            <DistanceMeters>NAN</DistanceMeters>
          </Trackpoint>
          <Trackpoint>
            <Time>2022-09-19T10:24:50.000Z</Time>
            <Position>
              <LatitudeDegrees>49.30553396232426166534423828125</LatitudeDegrees>
              <LongitudeDegrees>19.918159581720829010009765625</LongitudeDegrees>
            </Position>
            <AltitudeMeters>1106.5999755859375</AltitudeMeters>
            <DistanceMeters>NAN</DistanceMeters>
          </Trackpoint>
          <Trackpoint>
            <Time>2022-09-19T10:24:54.000Z</Time>
            <Position>
              <LatitudeDegrees>49.30553396232426166534423828125</LatitudeDegrees>
              <LongitudeDegrees>19.918159581720829010009765625</LongitudeDegrees>
            </Position>
            <AltitudeMeters>1106.5999755859375</AltitudeMeters>
            <DistanceMeters>NAN</DistanceMeters>
          </Trackpoint>
          <Trackpoint>
            <Time>2022-09-19T10:25:03.000Z</Time>
            <Position>
              <LatitudeDegrees>49.30553396232426166534423828125</LatitudeDegrees>
              <LongitudeDegrees>19.918159581720829010009765625</LongitudeDegrees>
            </Position>
            <AltitudeMeters>1106.4000244140625</AltitudeMeters>
            <DistanceMeters>NAN</DistanceMeters>
          </Trackpoint>
          <Trackpoint>
            <Time>2022-09-19T10:25:39.000Z</Time>
            <Position>
              <LatitudeDegrees>49.30553396232426166534423828125</LatitudeDegrees>
              <LongitudeDegrees>19.918159581720829010009765625</LongitudeDegrees>
            </Position>
            <AltitudeMeters>1106.4000244140625</AltitudeMeters>
            <DistanceMeters>NAN</DistanceMeters>
          </Trackpoint>
          <Trackpoint>
            <Time>2022-09-19T10:25:45.000Z</Time>
            <Position>
              <LatitudeDegrees>49.30552273057401180267333984375</LatitudeDegrees>
              <LongitudeDegrees>19.918071068823337554931640625</LongitudeDegrees>
            </Position>
            <AltitudeMeters>1106.4000244140625</AltitudeMeters>
            <DistanceMeters>NAN</DistanceMeters>
          </Trackpoint>
          <Trackpoint>
            <Time>2022-09-19T10:25:54.000Z</Time>
            <Position>
              <LatitudeDegrees>49.30548953823745250701904296875</LatitudeDegrees>
              <LongitudeDegrees>19.91789194755256175994873046875</LongitudeDegrees>
            </Position>
            <AltitudeMeters>1106.4000244140625</AltitudeMeters>
            <DistanceMeters>NAN</DistanceMeters>
          </Trackpoint>
          <Trackpoint>
            <Time>2022-09-19T10:26:01.000Z</Time>
            <Position>
              <LatitudeDegrees>49.30546724237501621246337890625</LatitudeDegrees>
              <LongitudeDegrees>19.9178221262991428375244140625</LongitudeDegrees>
            </Position>
            <AltitudeMeters>1106.800048828125</AltitudeMeters>
            <DistanceMeters>NAN</DistanceMeters>
          </Trackpoint>
          <Trackpoint>
            <Time>2022-09-19T10:26:08.000Z</Time>
            <Position>
              <LatitudeDegrees>49.305440671741962432861328125</LatitudeDegrees>
              <LongitudeDegrees>19.91773554123938083648681640625</LongitudeDegrees>
            </Position>
            <AltitudeMeters>1106.4000244140625</AltitudeMeters>
            <DistanceMeters>NAN</DistanceMeters>
          </Trackpoint>
          <Trackpoint>
            <Time>2022-09-19T10:26:17.000Z</Time>
            <Position>
              <LatitudeDegrees>49.3054108321666717529296875</LatitudeDegrees>
              <LongitudeDegrees>19.91761500947177410125732421875</LongitudeDegrees>
            </Position>
            <AltitudeMeters>1106.5999755859375</AltitudeMeters>
            <DistanceMeters>NAN</DistanceMeters>
          </Trackpoint>
          <Trackpoint>
            <Time>2022-09-19T10:26:26.000Z</Time>
            <Position>
              <LatitudeDegrees>49.30537571199238300323486328125</LatitudeDegrees>
              <LongitudeDegrees>19.917486347258090972900390625</LongitudeDegrees>
            </Position>
            <AltitudeMeters>1107.199951171875</AltitudeMeters>
            <DistanceMeters>NAN</DistanceMeters>
          </Trackpoint>
          <Trackpoint>
            <Time>2022-09-19T10:26:29.000Z</Time>
            <Position>
              <LatitudeDegrees>49.30536548607051372528076171875</LatitudeDegrees>
              <LongitudeDegrees>19.91744334809482097625732421875</LongitudeDegrees>
            </Position>
            <AltitudeMeters>1107.800048828125</AltitudeMeters>
            <DistanceMeters>NAN</DistanceMeters>
          </Trackpoint>
          <Trackpoint>
            <Time>2022-09-19T10:26:36.000Z</Time>
            <Position>
              <LatitudeDegrees>49.3053365685045719146728515625</LatitudeDegrees>
              <LongitudeDegrees>19.917337484657764434814453125</LongitudeDegrees>
            </Position>
            <AltitudeMeters>1108</AltitudeMeters>
            <DistanceMeters>NAN</DistanceMeters>
          </Trackpoint>
          <Trackpoint>
            <Time>2022-09-19T10:26:46.000Z</Time>
            <Position>
              <LatitudeDegrees>49.3053171224892139434814453125</LatitudeDegrees>
              <LongitudeDegrees>19.91719566285610198974609375</LongitudeDegrees>
            </Position>
            <AltitudeMeters>1107.199951171875</AltitudeMeters>
            <DistanceMeters>NAN</DistanceMeters>
          </Trackpoint>
          <Trackpoint>
            <Time>2022-09-19T10:26:47.000Z</Time>
            <Position>
              <LatitudeDegrees>49.305313266813755035400390625</LatitudeDegrees>
              <LongitudeDegrees>19.91718166507780551910400390625</LongitudeDegrees>
            </Position>
            <AltitudeMeters>1107.4000244140625</AltitudeMeters>
            <DistanceMeters>NAN</DistanceMeters>
          </Trackpoint>
          <Trackpoint>
            <Time>2022-09-19T10:26:56.000Z</Time>
            <Position>
              <LatitudeDegrees>49.3052956648170948028564453125</LatitudeDegrees>
              <LongitudeDegrees>19.9170553497970104217529296875</LongitudeDegrees>
            </Position>
            <AltitudeMeters>1107.5999755859375</AltitudeMeters>
            <DistanceMeters>NAN</DistanceMeters>
          </Trackpoint>
          <Trackpoint>
            <Time>2022-09-19T10:27:08.000Z</Time>
            <Position>
              <LatitudeDegrees>49.30528736673295497894287109375</LatitudeDegrees>
              <LongitudeDegrees>19.91689550690352916717529296875</LongitudeDegrees>
            </Position>
            <AltitudeMeters>1107.800048828125</AltitudeMeters>
            <DistanceMeters>NAN</DistanceMeters>
          </Trackpoint>
          <Trackpoint>
            <Time>2022-09-19T10:27:17.000Z</Time>
            <Position>
              <LatitudeDegrees>49.3052792362868785858154296875</LatitudeDegrees>
              <LongitudeDegrees>19.91676994599401950836181640625</LongitudeDegrees>
            </Position>
            <AltitudeMeters>1107.5999755859375</AltitudeMeters>
            <DistanceMeters>NAN</DistanceMeters>
          </Trackpoint>
          <Trackpoint>
            <Time>2022-09-19T10:27:19.000Z</Time>
            <Position>
              <LatitudeDegrees>49.30527781136333942413330078125</LatitudeDegrees>
              <LongitudeDegrees>19.9167475663125514984130859375</LongitudeDegrees>
            </Position>
            <AltitudeMeters>1107.5999755859375</AltitudeMeters>
            <DistanceMeters>NAN</DistanceMeters>
          </Trackpoint>
          <Trackpoint>
            <Time>2022-09-19T10:27:26.000Z</Time>
            <Position>
              <LatitudeDegrees>49.30528468452394008636474609375</LatitudeDegrees>
              <LongitudeDegrees>19.91667590104043483734130859375</LongitudeDegrees>
            </Position>
            <AltitudeMeters>1107.5999755859375</AltitudeMeters>
            <DistanceMeters>NAN</DistanceMeters>
          </Trackpoint>
          <Trackpoint>
            <Time>2022-09-19T10:27:32.000Z</Time>
            <Position>
              <LatitudeDegrees>49.3052846007049083709716796875</LatitudeDegrees>
              <LongitudeDegrees>19.91666458547115325927734375</LongitudeDegrees>
            </Position>
            <AltitudeMeters>1107.800048828125</AltitudeMeters>
            <DistanceMeters>NAN</DistanceMeters>
          </Trackpoint>
          <Trackpoint>
            <Time>2022-09-19T10:27:40.000Z</Time>
            <Position>
              <LatitudeDegrees>49.3052846007049083709716796875</LatitudeDegrees>
              <LongitudeDegrees>19.91666458547115325927734375</LongitudeDegrees>
            </Position>
            <AltitudeMeters>1108</AltitudeMeters>
            <DistanceMeters>NAN</DistanceMeters>
          </Trackpoint>
          <Trackpoint>
            <Time>2022-09-19T10:27:46.000Z</Time>
            <Position>
              <LatitudeDegrees>49.3052846007049083709716796875</LatitudeDegrees>
              <LongitudeDegrees>19.91666458547115325927734375</LongitudeDegrees>
            </Position>
            <AltitudeMeters>1108</AltitudeMeters>
            <DistanceMeters>NAN</DistanceMeters>
          </Trackpoint>
          <Trackpoint>
            <Time>2022-09-19T10:27:52.000Z</Time>
            <Position>
              <LatitudeDegrees>49.3052846007049083709716796875</LatitudeDegrees>
              <LongitudeDegrees>19.91666458547115325927734375</LongitudeDegrees>
            </Position>
            <AltitudeMeters>1108</AltitudeMeters>
            <DistanceMeters>NAN</DistanceMeters>
          </Trackpoint>
          <Trackpoint>
            <Time>2022-09-19T10:27:58.000Z</Time>
            <Position>
              <LatitudeDegrees>49.3052846007049083709716796875</LatitudeDegrees>
              <LongitudeDegrees>19.916669614613056182861328125</LongitudeDegrees>
            </Position>
            <AltitudeMeters>1108</AltitudeMeters>
            <DistanceMeters>NAN</DistanceMeters>
          </Trackpoint>
          <Trackpoint>
            <Time>2022-09-19T10:28:06.000Z</Time>
            <Position>
              <LatitudeDegrees>49.30529155768454074859619140625</LatitudeDegrees>
              <LongitudeDegrees>19.91669450886547565460205078125</LongitudeDegrees>
            </Position>
            <AltitudeMeters>1108</AltitudeMeters>
            <DistanceMeters>NAN</DistanceMeters>
          </Trackpoint>
          <Trackpoint>
            <Time>2022-09-19T10:28:19.000Z</Time>
            <Position>
              <LatitudeDegrees>49.305289126932621002197265625</LatitudeDegrees>
              <LongitudeDegrees>19.91674362681806087493896484375</LongitudeDegrees>
            </Position>
            <AltitudeMeters>1108</AltitudeMeters>
            <DistanceMeters>NAN</DistanceMeters>
          </Trackpoint>
          <Trackpoint>
            <Time>2022-09-19T10:28:29.000Z</Time>
            <Position>
              <LatitudeDegrees>49.305291473865509033203125</LatitudeDegrees>
              <LongitudeDegrees>19.91674362681806087493896484375</LongitudeDegrees>
            </Position>
            <AltitudeMeters>1108</AltitudeMeters>
            <DistanceMeters>NAN</DistanceMeters>
          </Trackpoint>
          <Trackpoint>
            <Time>2022-09-19T10:28:30.000Z</Time>
            <Position>
              <LatitudeDegrees>49.305291473865509033203125</LatitudeDegrees>
              <LongitudeDegrees>19.91674362681806087493896484375</LongitudeDegrees>
            </Position>
            <AltitudeMeters>1108</AltitudeMeters>
            <DistanceMeters>NAN</DistanceMeters>
          </Trackpoint>
          <Trackpoint>
            <Time>2022-09-19T10:28:31.000Z</Time>
            <Position>
              <LatitudeDegrees>49.305291473865509033203125</LatitudeDegrees>
              <LongitudeDegrees>19.91674781776964664459228515625</LongitudeDegrees>
            </Position>
            <AltitudeMeters>1108</AltitudeMeters>
            <DistanceMeters>NAN</DistanceMeters>
          </Trackpoint>
          <Trackpoint>
            <Time>2022-09-19T10:28:35.000Z</Time>
            <Position>
              <LatitudeDegrees>49.305291473865509033203125</LatitudeDegrees>
              <LongitudeDegrees>19.91677614860236644744873046875</LongitudeDegrees>
            </Position>
            <AltitudeMeters>1108</AltitudeMeters>
            <DistanceMeters>NAN</DistanceMeters>
          </Trackpoint>
          <Trackpoint>
            <Time>2022-09-19T10:28:42.000Z</Time>
            <Position>
              <LatitudeDegrees>49.30529348552227020263671875</LatitudeDegrees>
              <LongitudeDegrees>19.9168491549789905548095703125</LongitudeDegrees>
            </Position>
            <AltitudeMeters>1108</AltitudeMeters>
            <DistanceMeters>NAN</DistanceMeters>
          </Trackpoint>
          <Trackpoint>
            <Time>2022-09-19T10:28:51.000Z</Time>
            <Position>
              <LatitudeDegrees>49.3052976764738559722900390625</LatitudeDegrees>
              <LongitudeDegrees>19.91697295568883419036865234375</LongitudeDegrees>
            </Position>
            <AltitudeMeters>1108</AltitudeMeters>
            <DistanceMeters>NAN</DistanceMeters>
          </Trackpoint>
          <Trackpoint>
            <Time>2022-09-19T10:29:00.000Z</Time>
            <Position>
              <LatitudeDegrees>49.30529658682644367218017578125</LatitudeDegrees>
              <LongitudeDegrees>19.91710371337831020355224609375</LongitudeDegrees>
            </Position>
            <AltitudeMeters>1108</AltitudeMeters>
            <DistanceMeters>NAN</DistanceMeters>
          </Trackpoint>
          <Trackpoint>
            <Time>2022-09-19T10:29:10.000Z</Time>
            <Position>
              <LatitudeDegrees>49.30532156489789485931396484375</LatitudeDegrees>
              <LongitudeDegrees>19.9172164499759674072265625</LongitudeDegrees>
            </Position>
            <AltitudeMeters>1108</AltitudeMeters>
            <DistanceMeters>NAN</DistanceMeters>
          </Trackpoint>
          <Trackpoint>
            <Time>2022-09-19T10:29:11.000Z</Time>
            <Position>
              <LatitudeDegrees>49.3053234927356243133544921875</LatitudeDegrees>
              <LongitudeDegrees>19.9172327108681201934814453125</LongitudeDegrees>
            </Position>
            <AltitudeMeters>1108</AltitudeMeters>
            <DistanceMeters>NAN</DistanceMeters>
          </Trackpoint>
          <Trackpoint>
            <Time>2022-09-19T10:29:18.000Z</Time>
            <Position>
              <LatitudeDegrees>49.30535224266350269317626953125</LatitudeDegrees>
              <LongitudeDegrees>19.91732063703238964080810546875</LongitudeDegrees>
            </Position>
            <AltitudeMeters>1108.199951171875</AltitudeMeters>
            <DistanceMeters>NAN</DistanceMeters>
          </Trackpoint>
          <Trackpoint>
            <Time>2022-09-19T10:29:26.000Z</Time>
            <Position>
              <LatitudeDegrees>49.30538442917168140411376953125</LatitudeDegrees>
              <LongitudeDegrees>19.9174154363572597503662109375</LongitudeDegrees>
            </Position>
            <AltitudeMeters>1108</AltitudeMeters>
            <DistanceMeters>NAN</DistanceMeters>
          </Trackpoint>
          <Trackpoint>
            <Time>2022-09-19T10:29:34.000Z</Time>
            <Position>
              <LatitudeDegrees>49.30541510693728923797607421875</LatitudeDegrees>
              <LongitudeDegrees>19.9175197072327136993408203125</LongitudeDegrees>
            </Position>
            <AltitudeMeters>1108</AltitudeMeters>
            <DistanceMeters>NAN</DistanceMeters>
          </Trackpoint>
          <Trackpoint>
            <Time>2022-09-19T10:29:46.000Z</Time>
            <Position>
              <LatitudeDegrees>49.30544729344546794891357421875</LatitudeDegrees>
              <LongitudeDegrees>19.9176585115492343902587890625</LongitudeDegrees>
            </Position>
            <AltitudeMeters>1107.4000244140625</AltitudeMeters>
            <DistanceMeters>NAN</DistanceMeters>
          </Trackpoint>
          <Trackpoint>
            <Time>2022-09-19T10:29:54.000Z</Time>
            <Position>
              <LatitudeDegrees>49.305480234324932098388671875</LatitudeDegrees>
              <LongitudeDegrees>19.917727746069431304931640625</LongitudeDegrees>
            </Position>
            <AltitudeMeters>1107.5999755859375</AltitudeMeters>
            <DistanceMeters>NAN</DistanceMeters>
          </Trackpoint>
          <Trackpoint>
            <Time>2022-09-19T10:30:01.000Z</Time>
            <Position>
              <LatitudeDegrees>49.30550294928252696990966796875</LatitudeDegrees>
              <LongitudeDegrees>19.917798154056072235107421875</LongitudeDegrees>
            </Position>
            <AltitudeMeters>1106.800048828125</AltitudeMeters>
            <DistanceMeters>NAN</DistanceMeters>
          </Trackpoint>
          <Trackpoint>
            <Time>2022-09-19T10:30:03.000Z</Time>
            <Position>
              <LatitudeDegrees>49.30550747551023960113525390625</LatitudeDegrees>
              <LongitudeDegrees>19.9178211204707622528076171875</LongitudeDegrees>
            </Position>
            <AltitudeMeters>1106.800048828125</AltitudeMeters>
            <DistanceMeters>NAN</DistanceMeters>
          </Trackpoint>
          <Trackpoint>
            <Time>2022-09-19T10:30:13.000Z</Time>
            <Position>
              <LatitudeDegrees>49.30552273057401180267333984375</LatitudeDegrees>
              <LongitudeDegrees>19.91794190369546413421630859375</LongitudeDegrees>
            </Position>
            <AltitudeMeters>1107</AltitudeMeters>
            <DistanceMeters>NAN</DistanceMeters>
          </Trackpoint>
          <Trackpoint>
            <Time>2022-09-19T10:30:25.000Z</Time>
            <Position>
              <LatitudeDegrees>49.3055561743676662445068359375</LatitudeDegrees>
              <LongitudeDegrees>19.91808355785906314849853515625</LongitudeDegrees>
            </Position>
            <AltitudeMeters>1107.4000244140625</AltitudeMeters>
            <DistanceMeters>NAN</DistanceMeters>
          </Trackpoint>
          <Trackpoint>
            <Time>2022-09-19T10:30:31.000Z</Time>
            <Position>
              <LatitudeDegrees>49.30556078441441059112548828125</LatitudeDegrees>
              <LongitudeDegrees>19.91815748624503612518310546875</LongitudeDegrees>
            </Position>
            <AltitudeMeters>1107.4000244140625</AltitudeMeters>
            <DistanceMeters>NAN</DistanceMeters>
          </Trackpoint>
          <Trackpoint>
            <Time>2022-09-19T10:30:40.000Z</Time>
            <Position>
              <LatitudeDegrees>49.30556028150022029876708984375</LatitudeDegrees>
              <LongitudeDegrees>19.918161593377590179443359375</LongitudeDegrees>
            </Position>
            <AltitudeMeters>1106.5999755859375</AltitudeMeters>
            <DistanceMeters>NAN</DistanceMeters>
          </Trackpoint>
          <Trackpoint>
            <Time>2022-09-19T10:31:14.000Z</Time>
            <Position>
              <LatitudeDegrees>49.30556028150022029876708984375</LatitudeDegrees>
              <LongitudeDegrees>19.918161593377590179443359375</LongitudeDegrees>
            </Position>
            <AltitudeMeters>1106.800048828125</AltitudeMeters>
            <DistanceMeters>NAN</DistanceMeters>
          </Trackpoint>
          <Trackpoint>
            <Time>2022-09-19T10:31:42.000Z</Time>
            <Position>
              <LatitudeDegrees>49.3055612035095691680908203125</LatitudeDegrees>
              <LongitudeDegrees>19.91816419176757335662841796875</LongitudeDegrees>
            </Position>
            <AltitudeMeters>1107</AltitudeMeters>
            <DistanceMeters>NAN</DistanceMeters>
          </Trackpoint>
          <Trackpoint>
            <Time>2022-09-19T10:31:46.000Z</Time>
            <Position>
              <LatitudeDegrees>49.3055809848010540008544921875</LatitudeDegrees>
              <LongitudeDegrees>19.91822185926139354705810546875</LongitudeDegrees>
            </Position>
            <AltitudeMeters>1107</AltitudeMeters>
            <DistanceMeters>NAN</DistanceMeters>
          </Trackpoint>
          <Trackpoint>
            <Time>2022-09-19T10:31:57.000Z</Time>
            <Position>
              <LatitudeDegrees>49.30562867783010005950927734375</LatitudeDegrees>
              <LongitudeDegrees>19.9184018187224864959716796875</LongitudeDegrees>
            </Position>
            <AltitudeMeters>1106.800048828125</AltitudeMeters>
            <DistanceMeters>NAN</DistanceMeters>
          </Trackpoint>
          <Trackpoint>
            <Time>2022-09-19T10:32:07.000Z</Time>
            <Position>
              <LatitudeDegrees>49.3056534044444561004638671875</LatitudeDegrees>
              <LongitudeDegrees>19.91853618063032627105712890625</LongitudeDegrees>
            </Position>
            <AltitudeMeters>1106.5999755859375</AltitudeMeters>
            <DistanceMeters>NAN</DistanceMeters>
          </Trackpoint>
          <Trackpoint>
            <Time>2022-09-19T10:32:09.000Z</Time>
            <Position>
              <LatitudeDegrees>49.30565667338669300079345703125</LatitudeDegrees>
              <LongitudeDegrees>19.91856551729142665863037109375</LongitudeDegrees>
            </Position>
            <AltitudeMeters>1106.5999755859375</AltitudeMeters>
            <DistanceMeters>NAN</DistanceMeters>
          </Trackpoint>
          <Trackpoint>
            <Time>2022-09-19T10:32:20.000Z</Time>
            <Position>
              <LatitudeDegrees>49.30568735115230083465576171875</LatitudeDegrees>
              <LongitudeDegrees>19.918724857270717620849609375</LongitudeDegrees>
            </Position>
            <AltitudeMeters>1106.4000244140625</AltitudeMeters>
            <DistanceMeters>NAN</DistanceMeters>
          </Trackpoint>
          <Trackpoint>
            <Time>2022-09-19T10:32:22.000Z</Time>
            <Position>
              <LatitudeDegrees>49.30568651296198368072509765625</LatitudeDegrees>
              <LongitudeDegrees>19.9187565408647060394287109375</LongitudeDegrees>
            </Position>
            <AltitudeMeters>1106.4000244140625</AltitudeMeters>
            <DistanceMeters>NAN</DistanceMeters>
          </Trackpoint>
          <Trackpoint>
            <Time>2022-09-19T10:32:27.000Z</Time>
            <Position>
              <LatitudeDegrees>49.3057020194828510284423828125</LatitudeDegrees>
              <LongitudeDegrees>19.91882636211812496185302734375</LongitudeDegrees>
            </Position>
            <AltitudeMeters>1106.199951171875</AltitudeMeters>
            <DistanceMeters>NAN</DistanceMeters>
          </Trackpoint>
          <Trackpoint>
            <Time>2022-09-19T10:32:34.000Z</Time>
            <Position>
              <LatitudeDegrees>49.3057167716324329376220703125</LatitudeDegrees>
              <LongitudeDegrees>19.91892577148973941802978515625</LongitudeDegrees>
            </Position>
            <AltitudeMeters>1106</AltitudeMeters>
            <DistanceMeters>NAN</DistanceMeters>
          </Trackpoint>
          <Trackpoint>
            <Time>2022-09-19T10:32:38.000Z</Time>
            <Position>
              <LatitudeDegrees>49.3057271651923656463623046875</LatitudeDegrees>
              <LongitudeDegrees>19.91898528300225734710693359375</LongitudeDegrees>
            </Position>
            <AltitudeMeters>1106</AltitudeMeters>
            <DistanceMeters>NAN</DistanceMeters>
          </Trackpoint>
          <Trackpoint>
            <Time>2022-09-19T10:32:44.000Z</Time>
            <Position>
              <LatitudeDegrees>49.305755831301212310791015625</LatitudeDegrees>
              <LongitudeDegrees>19.9190618097782135009765625</LongitudeDegrees>
            </Position>
            <AltitudeMeters>1105.800048828125</AltitudeMeters>
            <DistanceMeters>NAN</DistanceMeters>
          </Trackpoint>
          <Trackpoint>
            <Time>2022-09-19T10:32:49.000Z</Time>
            <Position>
              <LatitudeDegrees>49.305747114121913909912109375</LatitudeDegrees>
              <LongitudeDegrees>19.9191273562610149383544921875</LongitudeDegrees>
            </Position>
            <AltitudeMeters>1105.800048828125</AltitudeMeters>
            <DistanceMeters>NAN</DistanceMeters>
          </Trackpoint>
          <Trackpoint>
            <Time>2022-09-19T10:32:51.000Z</Time>
            <Position>
              <LatitudeDegrees>49.3057449348270893096923828125</LatitudeDegrees>
              <LongitudeDegrees>19.919147975742816925048828125</LongitudeDegrees>
            </Position>
            <AltitudeMeters>1105.800048828125</AltitudeMeters>
            <DistanceMeters>NAN</DistanceMeters>
          </Trackpoint>
          <Trackpoint>
            <Time>2022-09-19T10:32:52.000Z</Time>
            <Position>
              <LatitudeDegrees>49.3057439289987087249755859375</LatitudeDegrees>
              <LongitudeDegrees>19.91915895603597164154052734375</LongitudeDegrees>
            </Position>
            <AltitudeMeters>1105.800048828125</AltitudeMeters>
            <DistanceMeters>NAN</DistanceMeters>
          </Trackpoint>
          <Trackpoint>
            <Time>2022-09-19T10:32:56.000Z</Time>
            <Position>
              <LatitudeDegrees>49.3057499639689922332763671875</LatitudeDegrees>
              <LongitudeDegrees>19.91920731961727142333984375</LongitudeDegrees>
            </Position>
            <AltitudeMeters>1105.800048828125</AltitudeMeters>
            <DistanceMeters>NAN</DistanceMeters>
          </Trackpoint>
          <Trackpoint>
            <Time>2022-09-19T10:32:58.000Z</Time>
            <Position>
              <LatitudeDegrees>49.30575474165380001068115234375</LatitudeDegrees>
              <LongitudeDegrees>19.91923288442194461822509765625</LongitudeDegrees>
            </Position>
            <AltitudeMeters>1105.800048828125</AltitudeMeters>
            <DistanceMeters>NAN</DistanceMeters>
          </Trackpoint>
          <Trackpoint>
            <Time>2022-09-19T10:33:05.000Z</Time>
            <Position>
              <LatitudeDegrees>49.30576957762241363525390625</LatitudeDegrees>
              <LongitudeDegrees>19.9193130992352962493896484375</LongitudeDegrees>
            </Position>
            <AltitudeMeters>1104.800048828125</AltitudeMeters>
            <DistanceMeters>NAN</DistanceMeters>
          </Trackpoint>
          <Trackpoint>
            <Time>2022-09-19T10:33:07.000Z</Time>
            <Position>
              <LatitudeDegrees>49.30577150546014308929443359375</LatitudeDegrees>
              <LongitudeDegrees>19.91931687109172344207763671875</LongitudeDegrees>
            </Position>
            <AltitudeMeters>1104.800048828125</AltitudeMeters>
            <DistanceMeters>NAN</DistanceMeters>
          </Trackpoint>
          <Trackpoint>
            <Time>2022-09-19T10:33:10.000Z</Time>
            <Position>
              <LatitudeDegrees>49.30577150546014308929443359375</LatitudeDegrees>
              <LongitudeDegrees>19.91931687109172344207763671875</LongitudeDegrees>
            </Position>
            <AltitudeMeters>1104.5999755859375</AltitudeMeters>
            <DistanceMeters>NAN</DistanceMeters>
          </Trackpoint>
          <Trackpoint>
            <Time>2022-09-19T10:33:16.000Z</Time>
            <Position>
              <LatitudeDegrees>49.305777288973331451416015625</LatitudeDegrees>
              <LongitudeDegrees>19.91939214058220386505126953125</LongitudeDegrees>
            </Position>
            <AltitudeMeters>1104.5999755859375</AltitudeMeters>
            <DistanceMeters>NAN</DistanceMeters>
          </Trackpoint>
          <Trackpoint>
            <Time>2022-09-19T10:33:27.000Z</Time>
            <Position>
              <LatitudeDegrees>49.3057898618280887603759765625</LatitudeDegrees>
              <LongitudeDegrees>19.919551648199558258056640625</LongitudeDegrees>
            </Position>
            <AltitudeMeters>1105.199951171875</AltitudeMeters>
            <DistanceMeters>NAN</DistanceMeters>
          </Trackpoint>
          <Trackpoint>
            <Time>2022-09-19T10:33:32.000Z</Time>
            <Position>
              <LatitudeDegrees>49.305802099406719207763671875</LatitudeDegrees>
              <LongitudeDegrees>19.91962197236716747283935546875</LongitudeDegrees>
            </Position>
            <AltitudeMeters>1105.199951171875</AltitudeMeters>
            <DistanceMeters>NAN</DistanceMeters>
          </Trackpoint>
          <Trackpoint>
            <Time>2022-09-19T10:33:33.000Z</Time>
            <Position>
              <LatitudeDegrees>49.305806793272495269775390625</LatitudeDegrees>
              <LongitudeDegrees>19.91963454522192478179931640625</LongitudeDegrees>
            </Position>
            <AltitudeMeters>1105.199951171875</AltitudeMeters>
            <DistanceMeters>NAN</DistanceMeters>
          </Trackpoint>
          <Trackpoint>
            <Time>2022-09-19T10:33:40.000Z</Time>
            <Position>
              <LatitudeDegrees>49.30582146160304546356201171875</LatitudeDegrees>
              <LongitudeDegrees>19.91971098817884922027587890625</LongitudeDegrees>
            </Position>
            <AltitudeMeters>1104.5999755859375</AltitudeMeters>
            <DistanceMeters>NAN</DistanceMeters>
          </Trackpoint>
          <Trackpoint>
            <Time>2022-09-19T10:33:43.000Z</Time>
            <Position>
              <LatitudeDegrees>49.30581827647984027862548828125</LatitudeDegrees>
              <LongitudeDegrees>19.9197469465434551239013671875</LongitudeDegrees>
            </Position>
            <AltitudeMeters>1103.800048828125</AltitudeMeters>
            <DistanceMeters>NAN</DistanceMeters>
          </Trackpoint>
          <Trackpoint>
            <Time>2022-09-19T10:33:46.000Z</Time>
            <Position>
              <LatitudeDegrees>49.305826909840106964111328125</LatitudeDegrees>
              <LongitudeDegrees>19.91978659294545650482177734375</LongitudeDegrees>
            </Position>
            <AltitudeMeters>1103.5999755859375</AltitudeMeters>
            <DistanceMeters>NAN</DistanceMeters>
          </Trackpoint>
          <Trackpoint>
            <Time>2022-09-19T10:33:50.000Z</Time>
            <Position>
              <LatitudeDegrees>49.30583956651389598846435546875</LatitudeDegrees>
              <LongitudeDegrees>19.91984300315380096435546875</LongitudeDegrees>
            </Position>
            <AltitudeMeters>1103.4000244140625</AltitudeMeters>
            <DistanceMeters>NAN</DistanceMeters>
          </Trackpoint>
          <Trackpoint>
            <Time>2022-09-19T10:34:00.000Z</Time>
            <Position>
              <LatitudeDegrees>49.30588147602975368499755859375</LatitudeDegrees>
              <LongitudeDegrees>19.9199548177421092987060546875</LongitudeDegrees>
            </Position>
            <AltitudeMeters>1103.4000244140625</AltitudeMeters>
            <DistanceMeters>NAN</DistanceMeters>
          </Trackpoint>
          <Trackpoint>
            <Time>2022-09-19T10:34:06.000Z</Time>
            <Position>
              <LatitudeDegrees>49.3059035204350948333740234375</LatitudeDegrees>
              <LongitudeDegrees>19.92002463899552822113037109375</LongitudeDegrees>
            </Position>
            <AltitudeMeters>1103</AltitudeMeters>
            <DistanceMeters>NAN</DistanceMeters>
          </Trackpoint>
          <Trackpoint>
            <Time>2022-09-19T10:34:11.000Z</Time>
            <Position>
              <LatitudeDegrees>49.3059365451335906982421875</LatitudeDegrees>
              <LongitudeDegrees>19.9200765229761600494384765625</LongitudeDegrees>
            </Position>
            <AltitudeMeters>1102.5999755859375</AltitudeMeters>
            <DistanceMeters>NAN</DistanceMeters>
          </Trackpoint>
          <Trackpoint>
            <Time>2022-09-19T10:34:16.000Z</Time>
            <Position>
              <LatitudeDegrees>49.3059687316417694091796875</LatitudeDegrees>
              <LongitudeDegrees>19.9201415665447711944580078125</LongitudeDegrees>
            </Position>
            <AltitudeMeters>1102.4000244140625</AltitudeMeters>
            <DistanceMeters>NAN</DistanceMeters>
          </Trackpoint>
          <Trackpoint>
            <Time>2022-09-19T10:34:19.000Z</Time>
            <Position>
              <LatitudeDegrees>49.30598281323909759521484375</LatitudeDegrees>
              <LongitudeDegrees>19.92015338502824306488037109375</LongitudeDegrees>
            </Position>
            <AltitudeMeters>1102.199951171875</AltitudeMeters>
            <DistanceMeters>NAN</DistanceMeters>
          </Trackpoint>
          <Trackpoint>
            <Time>2022-09-19T10:34:23.000Z</Time>
            <Position>
              <LatitudeDegrees>49.305989854037761688232421875</LatitudeDegrees>
              <LongitudeDegrees>19.92016964592039585113525390625</LongitudeDegrees>
            </Position>
            <AltitudeMeters>1102</AltitudeMeters>
            <DistanceMeters>NAN</DistanceMeters>
          </Trackpoint>
          <Trackpoint>
            <Time>2022-09-19T10:34:32.000Z</Time>
            <Position>
              <LatitudeDegrees>49.30602162145078182220458984375</LatitudeDegrees>
              <LongitudeDegrees>19.920273162424564361572265625</LongitudeDegrees>
            </Position>
            <AltitudeMeters>1101.800048828125</AltitudeMeters>
            <DistanceMeters>NAN</DistanceMeters>
          </Trackpoint>
          <Trackpoint>
            <Time>2022-09-19T10:34:41.000Z</Time>
            <Position>
              <LatitudeDegrees>49.3060372956097126007080078125</LatitudeDegrees>
              <LongitudeDegrees>19.920373074710369110107421875</LongitudeDegrees>
            </Position>
            <AltitudeMeters>1101.5999755859375</AltitudeMeters>
            <DistanceMeters>NAN</DistanceMeters>
          </Trackpoint>
          <Trackpoint>
            <Time>2022-09-19T10:34:43.000Z</Time>
            <Position>
              <LatitudeDegrees>49.30604089982807636260986328125</LatitudeDegrees>
              <LongitudeDegrees>19.9203967116773128509521484375</LongitudeDegrees>
            </Position>
            <AltitudeMeters>1101.5999755859375</AltitudeMeters>
            <DistanceMeters>NAN</DistanceMeters>
          </Trackpoint>
          <Trackpoint>
            <Time>2022-09-19T10:34:46.000Z</Time>
            <Position>
              <LatitudeDegrees>49.306049533188343048095703125</LatitudeDegrees>
              <LongitudeDegrees>19.92043434642255306243896484375</LongitudeDegrees>
            </Position>
            <AltitudeMeters>1101.800048828125</AltitudeMeters>
            <DistanceMeters>NAN</DistanceMeters>
          </Trackpoint>
          <Trackpoint>
            <Time>2022-09-19T10:34:52.000Z</Time>
            <Position>
              <LatitudeDegrees>49.3060701526701450347900390625</LatitudeDegrees>
              <LongitudeDegrees>19.92051715962588787078857421875</LongitudeDegrees>
            </Position>
            <AltitudeMeters>1101</AltitudeMeters>
            <DistanceMeters>NAN</DistanceMeters>
          </Trackpoint>
          <Trackpoint>
            <Time>2022-09-19T10:34:55.000Z</Time>
            <Position>
              <LatitudeDegrees>49.306063950061798095703125</LatitudeDegrees>
              <LongitudeDegrees>19.9205405451357364654541015625</LongitudeDegrees>
            </Position>
            <AltitudeMeters>1101</AltitudeMeters>
            <DistanceMeters>NAN</DistanceMeters>
          </Trackpoint>
          <Trackpoint>
            <Time>2022-09-19T10:35:04.000Z</Time>
            <Position>
              <LatitudeDegrees>49.306092448532581329345703125</LatitudeDegrees>
              <LongitudeDegrees>19.9206226877868175506591796875</LongitudeDegrees>
            </Position>
            <AltitudeMeters>1100.5999755859375</AltitudeMeters>
            <DistanceMeters>NAN</DistanceMeters>
          </Trackpoint>
          <Trackpoint>
            <Time>2022-09-19T10:35:06.000Z</Time>
            <Position>
              <LatitudeDegrees>49.30609638802707195281982421875</LatitudeDegrees>
              <LongitudeDegrees>19.92063852958381175994873046875</LongitudeDegrees>
            </Position>
            <AltitudeMeters>1100.5999755859375</AltitudeMeters>
            <DistanceMeters>NAN</DistanceMeters>
          </Trackpoint>
          <Trackpoint>
            <Time>2022-09-19T10:35:12.000Z</Time>
            <Position>
              <LatitudeDegrees>49.306103177368640899658203125</LatitudeDegrees>
              <LongitudeDegrees>19.9207051657140254974365234375</LongitudeDegrees>
            </Position>
            <AltitudeMeters>1100.5999755859375</AltitudeMeters>
            <DistanceMeters>NAN</DistanceMeters>
          </Trackpoint>
          <Trackpoint>
            <Time>2022-09-19T10:35:20.000Z</Time>
            <Position>
              <LatitudeDegrees>49.3061020039021968841552734375</LatitudeDegrees>
              <LongitudeDegrees>19.92078538052737712860107421875</LongitudeDegrees>
            </Position>
            <AltitudeMeters>1100.800048828125</AltitudeMeters>
            <DistanceMeters>NAN</DistanceMeters>
          </Trackpoint>
          <Trackpoint>
            <Time>2022-09-19T10:35:27.000Z</Time>
            <Position>
              <LatitudeDegrees>49.306117929518222808837890625</LatitudeDegrees>
              <LongitudeDegrees>19.92088328115642070770263671875</LongitudeDegrees>
            </Position>
            <AltitudeMeters>1101.199951171875</AltitudeMeters>
            <DistanceMeters>NAN</DistanceMeters>
          </Trackpoint>
          <Trackpoint>
            <Time>2022-09-19T10:35:29.000Z</Time>
            <Position>
              <LatitudeDegrees>49.30612170137465000152587890625</LatitudeDegrees>
              <LongitudeDegrees>19.9209098517894744873046875</LongitudeDegrees>
            </Position>
            <AltitudeMeters>1101.199951171875</AltitudeMeters>
            <DistanceMeters>NAN</DistanceMeters>
          </Trackpoint>
          <Trackpoint>
            <Time>2022-09-19T10:35:38.000Z</Time>
            <Position>
              <LatitudeDegrees>49.3061412312090396881103515625</LatitudeDegrees>
              <LongitudeDegrees>19.920983277261257171630859375</LongitudeDegrees>
            </Position>
            <AltitudeMeters>1100.800048828125</AltitudeMeters>
            <DistanceMeters>NAN</DistanceMeters>
          </Trackpoint>
          <Trackpoint>
            <Time>2022-09-19T10:35:46.000Z</Time>
            <Position>
              <LatitudeDegrees>49.306154139339923858642578125</LatitudeDegrees>
              <LongitudeDegrees>19.92110104300081729888916015625</LongitudeDegrees>
            </Position>
            <AltitudeMeters>1100.800048828125</AltitudeMeters>
            <DistanceMeters>NAN</DistanceMeters>
          </Trackpoint>
          <Trackpoint>
            <Time>2022-09-19T10:35:52.000Z</Time>
            <Position>
              <LatitudeDegrees>49.30615288205444812774658203125</LatitudeDegrees>
              <LongitudeDegrees>19.921140186488628387451171875</LongitudeDegrees>
            </Position>
            <AltitudeMeters>1100.5999755859375</AltitudeMeters>
            <DistanceMeters>NAN</DistanceMeters>
          </Trackpoint>
          <Trackpoint>
            <Time>2022-09-19T10:35:54.000Z</Time>
            <Position>
              <LatitudeDegrees>49.3061512894928455352783203125</LatitudeDegrees>
              <LongitudeDegrees>19.9211782403290271759033203125</LongitudeDegrees>
            </Position>
            <AltitudeMeters>1100.5999755859375</AltitudeMeters>
            <DistanceMeters>NAN</DistanceMeters>
          </Trackpoint>
          <Trackpoint>
            <Time>2022-09-19T10:35:59.000Z</Time>
            <Position>
              <LatitudeDegrees>49.3061657063663005828857421875</LatitudeDegrees>
              <LongitudeDegrees>19.92126415483653545379638671875</LongitudeDegrees>
            </Position>
            <AltitudeMeters>1100.800048828125</AltitudeMeters>
            <DistanceMeters>NAN</DistanceMeters>
          </Trackpoint>
          <Trackpoint>
            <Time>2022-09-19T10:36:06.000Z</Time>
            <Position>
              <LatitudeDegrees>49.30618557147681713104248046875</LatitudeDegrees>
              <LongitudeDegrees>19.92137177847325801849365234375</LongitudeDegrees>
            </Position>
            <AltitudeMeters>1100.800048828125</AltitudeMeters>
            <DistanceMeters>NAN</DistanceMeters>
          </Trackpoint>
          <Trackpoint>
            <Time>2022-09-19T10:36:16.000Z</Time>
            <Position>
              <LatitudeDegrees>49.3061952106654644012451171875</LatitudeDegrees>
              <LongitudeDegrees>19.921513013541698455810546875</LongitudeDegrees>
            </Position>
            <AltitudeMeters>1101.199951171875</AltitudeMeters>
            <DistanceMeters>NAN</DistanceMeters>
          </Trackpoint>
          <Trackpoint>
            <Time>2022-09-19T10:36:22.000Z</Time>
            <Position>
              <LatitudeDegrees>49.30621038191020488739013671875</LatitudeDegrees>
              <LongitudeDegrees>19.9215708486735820770263671875</LongitudeDegrees>
            </Position>
            <AltitudeMeters>1101.4000244140625</AltitudeMeters>
            <DistanceMeters>NAN</DistanceMeters>
          </Trackpoint>
          <Trackpoint>
            <Time>2022-09-19T10:36:27.000Z</Time>
            <Position>
              <LatitudeDegrees>49.30622781626880168914794921875</LatitudeDegrees>
              <LongitudeDegrees>19.92163882590830326080322265625</LongitudeDegrees>
            </Position>
            <AltitudeMeters>1101.199951171875</AltitudeMeters>
            <DistanceMeters>NAN</DistanceMeters>
          </Trackpoint>
          <Trackpoint>
            <Time>2022-09-19T10:36:32.000Z</Time>
            <Position>
              <LatitudeDegrees>49.306232929229736328125</LatitudeDegrees>
              <LongitudeDegrees>19.921703450381755828857421875</LongitudeDegrees>
            </Position>
            <AltitudeMeters>1100.800048828125</AltitudeMeters>
            <DistanceMeters>NAN</DistanceMeters>
          </Trackpoint>
          <Trackpoint>
            <Time>2022-09-19T10:36:34.000Z</Time>
            <Position>
              <LatitudeDegrees>49.30623653344810009002685546875</LatitudeDegrees>
              <LongitudeDegrees>19.921727590262889862060546875</LongitudeDegrees>
            </Position>
            <AltitudeMeters>1100.800048828125</AltitudeMeters>
            <DistanceMeters>NAN</DistanceMeters>
          </Trackpoint>
          <Trackpoint>
            <Time>2022-09-19T10:36:36.000Z</Time>
            <Position>
              <LatitudeDegrees>49.306241311132907867431640625</LatitudeDegrees>
              <LongitudeDegrees>19.921753741800785064697265625</LongitudeDegrees>
            </Position>
            <AltitudeMeters>1100.800048828125</AltitudeMeters>
            <DistanceMeters>NAN</DistanceMeters>
          </Trackpoint>
          <Trackpoint>
            <Time>2022-09-19T10:36:38.000Z</Time>
            <Position>
              <LatitudeDegrees>49.30624893866479396820068359375</LatitudeDegrees>
              <LongitudeDegrees>19.92178492248058319091796875</LongitudeDegrees>
            </Position>
            <AltitudeMeters>1100.5999755859375</AltitudeMeters>
            <DistanceMeters>NAN</DistanceMeters>
          </Trackpoint>
          <Trackpoint>
            <Time>2022-09-19T10:36:40.000Z</Time>
            <Position>
              <LatitudeDegrees>49.3062619306147098541259765625</LatitudeDegrees>
              <LongitudeDegrees>19.92181132547557353973388671875</LongitudeDegrees>
            </Position>
            <AltitudeMeters>1100.4000244140625</AltitudeMeters>
            <DistanceMeters>NAN</DistanceMeters>
          </Trackpoint>
          <Trackpoint>
            <Time>2022-09-19T10:36:52.000Z</Time>
            <Position>
              <LatitudeDegrees>49.30629654787480831146240234375</LatitudeDegrees>
              <LongitudeDegrees>19.9219862557947635650634765625</LongitudeDegrees>
            </Position>
            <AltitudeMeters>1100.4000244140625</AltitudeMeters>
            <DistanceMeters>NAN</DistanceMeters>
          </Trackpoint>
          <Trackpoint>
            <Time>2022-09-19T10:37:02.000Z</Time>
            <Position>
              <LatitudeDegrees>49.30633493699133396148681640625</LatitudeDegrees>
              <LongitudeDegrees>19.92212531156837940216064453125</LongitudeDegrees>
            </Position>
            <AltitudeMeters>1100</AltitudeMeters>
            <DistanceMeters>NAN</DistanceMeters>
          </Trackpoint>
          <Trackpoint>
            <Time>2022-09-19T10:37:03.000Z</Time>
            <Position>
              <LatitudeDegrees>49.30633896030485630035400390625</LatitudeDegrees>
              <LongitudeDegrees>19.922137297689914703369140625</LongitudeDegrees>
            </Position>
            <AltitudeMeters>1100</AltitudeMeters>
            <DistanceMeters>NAN</DistanceMeters>
          </Trackpoint>
          <Trackpoint>
            <Time>2022-09-19T10:37:10.000Z</Time>
            <Position>
              <LatitudeDegrees>49.306362010538578033447265625</LatitudeDegrees>
              <LongitudeDegrees>19.92222019471228122711181640625</LongitudeDegrees>
            </Position>
            <AltitudeMeters>1100</AltitudeMeters>
            <DistanceMeters>NAN</DistanceMeters>
          </Trackpoint>
          <Trackpoint>
            <Time>2022-09-19T10:37:19.000Z</Time>
            <Position>
              <LatitudeDegrees>49.3063558079302310943603515625</LatitudeDegrees>
              <LongitudeDegrees>19.92233100347220897674560546875</LongitudeDegrees>
            </Position>
            <AltitudeMeters>1099.800048828125</AltitudeMeters>
            <DistanceMeters>NAN</DistanceMeters>
          </Trackpoint>
          <Trackpoint>
            <Time>2022-09-19T10:37:27.000Z</Time>
            <Position>
              <LatitudeDegrees>49.30637600831687450408935546875</LatitudeDegrees>
              <LongitudeDegrees>19.9224304966628551483154296875</LongitudeDegrees>
            </Position>
            <AltitudeMeters>1100</AltitudeMeters>
            <DistanceMeters>NAN</DistanceMeters>
          </Trackpoint>
          <Trackpoint>
            <Time>2022-09-19T10:37:31.000Z</Time>
            <Position>
              <LatitudeDegrees>49.30638070218265056610107421875</LatitudeDegrees>
              <LongitudeDegrees>19.9224801175296306610107421875</LongitudeDegrees>
            </Position>
            <AltitudeMeters>1100.199951171875</AltitudeMeters>
            <DistanceMeters>NAN</DistanceMeters>
          </Trackpoint>
          <Trackpoint>
            <Time>2022-09-19T10:37:35.000Z</Time>
            <Position>
              <LatitudeDegrees>49.306396543979644775390625</LatitudeDegrees>
              <LongitudeDegrees>19.92252579890191555023193359375</LongitudeDegrees>
            </Position>
            <AltitudeMeters>1100</AltitudeMeters>
            <DistanceMeters>NAN</DistanceMeters>
          </Trackpoint>
          <Trackpoint>
            <Time>2022-09-19T10:37:44.000Z</Time>
            <Position>
              <LatitudeDegrees>49.3063963763415813446044921875</LatitudeDegrees>
              <LongitudeDegrees>19.92263518273830413818359375</LongitudeDegrees>
            </Position>
            <AltitudeMeters>1100</AltitudeMeters>
            <DistanceMeters>NAN</DistanceMeters>
          </Trackpoint>
          <Trackpoint>
            <Time>2022-09-19T10:37:48.000Z</Time>
            <Position>
              <LatitudeDegrees>49.30640500970184803009033203125</LatitudeDegrees>
              <LongitudeDegrees>19.9226883240044116973876953125</LongitudeDegrees>
            </Position>
            <AltitudeMeters>1100.199951171875</AltitudeMeters>
            <DistanceMeters>NAN</DistanceMeters>
          </Trackpoint>
          <Trackpoint>
            <Time>2022-09-19T10:37:54.000Z</Time>
            <Position>
              <LatitudeDegrees>49.30641406215727329254150390625</LatitudeDegrees>
              <LongitudeDegrees>19.922766275703907012939453125</LongitudeDegrees>
            </Position>
            <AltitudeMeters>1100.199951171875</AltitudeMeters>
            <DistanceMeters>NAN</DistanceMeters>
          </Trackpoint>
          <Trackpoint>
            <Time>2022-09-19T10:38:03.000Z</Time>
            <Position>
              <LatitudeDegrees>49.3064342625439167022705078125</LatitudeDegrees>
              <LongitudeDegrees>19.9228643439710140228271484375</LongitudeDegrees>
            </Position>
            <AltitudeMeters>1100.4000244140625</AltitudeMeters>
            <DistanceMeters>NAN</DistanceMeters>
          </Trackpoint>
          <Trackpoint>
            <Time>2022-09-19T10:38:13.000Z</Time>
            <Position>
              <LatitudeDegrees>49.3064542114734649658203125</LatitudeDegrees>
              <LongitudeDegrees>19.92299250327050685882568359375</LongitudeDegrees>
            </Position>
            <AltitudeMeters>1100.4000244140625</AltitudeMeters>
            <DistanceMeters>NAN</DistanceMeters>
          </Trackpoint>
          <Trackpoint>
            <Time>2022-09-19T10:38:19.000Z</Time>
            <Position>
              <LatitudeDegrees>49.30645463056862354278564453125</LatitudeDegrees>
              <LongitudeDegrees>19.9230529367923736572265625</LongitudeDegrees>
            </Position>
            <AltitudeMeters>1100.5999755859375</AltitudeMeters>
            <DistanceMeters>NAN</DistanceMeters>
          </Trackpoint>
          <Trackpoint>
            <Time>2022-09-19T10:38:25.000Z</Time>
            <Position>
              <LatitudeDegrees>49.30646787397563457489013671875</LatitudeDegrees>
              <LongitudeDegrees>19.92315351963043212890625</LongitudeDegrees>
            </Position>
            <AltitudeMeters>1100.4000244140625</AltitudeMeters>
            <DistanceMeters>NAN</DistanceMeters>
          </Trackpoint>
          <Trackpoint>
            <Time>2022-09-19T10:38:33.000Z</Time>
            <Position>
              <LatitudeDegrees>49.30648229084908962249755859375</LatitudeDegrees>
              <LongitudeDegrees>19.92324781604111194610595703125</LongitudeDegrees>
            </Position>
            <AltitudeMeters>1100.800048828125</AltitudeMeters>
            <DistanceMeters>NAN</DistanceMeters>
          </Trackpoint>
          <Trackpoint>
            <Time>2022-09-19T10:38:44.000Z</Time>
            <Position>
              <LatitudeDegrees>49.30650877766311168670654296875</LatitudeDegrees>
              <LongitudeDegrees>19.92339332588016986846923828125</LongitudeDegrees>
            </Position>
            <AltitudeMeters>1100.5999755859375</AltitudeMeters>
            <DistanceMeters>NAN</DistanceMeters>
          </Trackpoint>
          <Trackpoint>
            <Time>2022-09-19T10:38:51.000Z</Time>
            <Position>
              <LatitudeDegrees>49.3065365217626094818115234375</LatitudeDegrees>
              <LongitudeDegrees>19.92346809245645999908447265625</LongitudeDegrees>
            </Position>
            <AltitudeMeters>1100.5999755859375</AltitudeMeters>
            <DistanceMeters>NAN</DistanceMeters>
          </Trackpoint>
          <Trackpoint>
            <Time>2022-09-19T10:38:59.000Z</Time>
            <Position>
              <LatitudeDegrees>49.30656326003372669219970703125</LatitudeDegrees>
              <LongitudeDegrees>19.923569597303867340087890625</LongitudeDegrees>
            </Position>
            <AltitudeMeters>1100.5999755859375</AltitudeMeters>
            <DistanceMeters>NAN</DistanceMeters>
          </Trackpoint>
          <Trackpoint>
            <Time>2022-09-19T10:39:06.000Z</Time>
            <Position>
              <LatitudeDegrees>49.306566528975963592529296875</LatitudeDegrees>
              <LongitudeDegrees>19.92367764003574848175048828125</LongitudeDegrees>
            </Position>
            <AltitudeMeters>1100.5999755859375</AltitudeMeters>
            <DistanceMeters>NAN</DistanceMeters>
          </Trackpoint>
          <Trackpoint>
            <Time>2022-09-19T10:39:14.000Z</Time>
            <Position>
              <LatitudeDegrees>49.30658320896327495574951171875</LatitudeDegrees>
              <LongitudeDegrees>19.923770427703857421875</LongitudeDegrees>
            </Position>
            <AltitudeMeters>1100.4000244140625</AltitudeMeters>
            <DistanceMeters>NAN</DistanceMeters>
          </Trackpoint>
          <Trackpoint>
            <Time>2022-09-19T10:39:19.000Z</Time>
            <Position>
              <LatitudeDegrees>49.30659678764641284942626953125</LatitudeDegrees>
              <LongitudeDegrees>19.9238332919776439666748046875</LongitudeDegrees>
            </Position>
            <AltitudeMeters>1100.199951171875</AltitudeMeters>
            <DistanceMeters>NAN</DistanceMeters>
          </Trackpoint>
          <Trackpoint>
            <Time>2022-09-19T10:39:24.000Z</Time>
            <Position>
              <LatitudeDegrees>49.30661405436694622039794921875</LatitudeDegrees>
              <LongitudeDegrees>19.9238909594714641571044921875</LongitudeDegrees>
            </Position>
            <AltitudeMeters>1100</AltitudeMeters>
            <DistanceMeters>NAN</DistanceMeters>
          </Trackpoint>
          <Trackpoint>
            <Time>2022-09-19T10:39:33.000Z</Time>
            <Position>
              <LatitudeDegrees>49.306649006903171539306640625</LatitudeDegrees>
              <LongitudeDegrees>19.9240126647055149078369140625</LongitudeDegrees>
            </Position>
            <AltitudeMeters>1099.800048828125</AltitudeMeters>
            <DistanceMeters>NAN</DistanceMeters>
          </Trackpoint>
          <Trackpoint>
            <Time>2022-09-19T10:39:37.000Z</Time>
            <Position>
              <LatitudeDegrees>49.3066729791462421417236328125</LatitudeDegrees>
              <LongitudeDegrees>19.92405717261135578155517578125</LongitudeDegrees>
            </Position>
            <AltitudeMeters>1099.800048828125</AltitudeMeters>
            <DistanceMeters>NAN</DistanceMeters>
          </Trackpoint>
          <Trackpoint>
            <Time>2022-09-19T10:39:42.000Z</Time>
            <Position>
              <LatitudeDegrees>49.306693933904170989990234375</LatitudeDegrees>
              <LongitudeDegrees>19.9241202883422374725341796875</LongitudeDegrees>
            </Position>
            <AltitudeMeters>1099.5999755859375</AltitudeMeters>
            <DistanceMeters>NAN</DistanceMeters>
          </Trackpoint>
          <Trackpoint>
            <Time>2022-09-19T10:39:49.000Z</Time>
            <Position>
              <LatitudeDegrees>49.30672201327979564666748046875</LatitudeDegrees>
              <LongitudeDegrees>19.92421341128647327423095703125</LongitudeDegrees>
            </Position>
            <AltitudeMeters>1100</AltitudeMeters>
            <DistanceMeters>NAN</DistanceMeters>
          </Trackpoint>
          <Trackpoint>
            <Time>2022-09-19T10:39:51.000Z</Time>
            <Position>
              <LatitudeDegrees>49.30672536604106426239013671875</LatitudeDegrees>
              <LongitudeDegrees>19.92424358613789081573486328125</LongitudeDegrees>
            </Position>
            <AltitudeMeters>1100</AltitudeMeters>
            <DistanceMeters>NAN</DistanceMeters>
          </Trackpoint>
          <Trackpoint>
            <Time>2022-09-19T10:39:53.000Z</Time>
            <Position>
              <LatitudeDegrees>49.30672721005976200103759765625</LatitudeDegrees>
              <LongitudeDegrees>19.924268312752246856689453125</LongitudeDegrees>
            </Position>
            <AltitudeMeters>1100</AltitudeMeters>
            <DistanceMeters>NAN</DistanceMeters>
          </Trackpoint>
          <Trackpoint>
            <Time>2022-09-19T10:40:01.000Z</Time>
            <Position>
              <LatitudeDegrees>49.30672519840300083160400390625</LatitudeDegrees>
              <LongitudeDegrees>19.9243566580116748809814453125</LongitudeDegrees>
            </Position>
            <AltitudeMeters>1100.4000244140625</AltitudeMeters>
            <DistanceMeters>NAN</DistanceMeters>
          </Trackpoint>
          <Trackpoint>
            <Time>2022-09-19T10:40:09.000Z</Time>
            <Position>
              <LatitudeDegrees>49.30673182010650634765625</LatitudeDegrees>
              <LongitudeDegrees>19.92446579039096832275390625</LongitudeDegrees>
            </Position>
            <AltitudeMeters>1100.800048828125</AltitudeMeters>
            <DistanceMeters>NAN</DistanceMeters>
          </Trackpoint>
          <Trackpoint>
            <Time>2022-09-19T10:40:17.000Z</Time>
            <Position>
              <LatitudeDegrees>49.3067358434200286865234375</LatitudeDegrees>
              <LongitudeDegrees>19.92456343956291675567626953125</LongitudeDegrees>
            </Position>
            <AltitudeMeters>1101.199951171875</AltitudeMeters>
            <DistanceMeters>NAN</DistanceMeters>
          </Trackpoint>
          <Trackpoint>
            <Time>2022-09-19T10:40:24.000Z</Time>
            <Position>
              <LatitudeDegrees>49.30674766190350055694580078125</LatitudeDegrees>
              <LongitudeDegrees>19.92464172653853893280029296875</LongitudeDegrees>
            </Position>
            <AltitudeMeters>1101.800048828125</AltitudeMeters>
            <DistanceMeters>NAN</DistanceMeters>
          </Trackpoint>
          <Trackpoint>
            <Time>2022-09-19T10:40:30.000Z</Time>
            <Position>
              <LatitudeDegrees>49.30676694028079509735107421875</LatitudeDegrees>
              <LongitudeDegrees>19.9247133918106555938720703125</LongitudeDegrees>
            </Position>
            <AltitudeMeters>1102.199951171875</AltitudeMeters>
            <DistanceMeters>NAN</DistanceMeters>
          </Trackpoint>
          <Trackpoint>
            <Time>2022-09-19T10:40:42.000Z</Time>
            <Position>
              <LatitudeDegrees>49.3067963607609272003173828125</LatitudeDegrees>
              <LongitudeDegrees>19.924881868064403533935546875</LongitudeDegrees>
            </Position>
            <AltitudeMeters>1102</AltitudeMeters>
            <DistanceMeters>NAN</DistanceMeters>
          </Trackpoint>
          <Trackpoint>
            <Time>2022-09-19T10:40:50.000Z</Time>
            <Position>
              <LatitudeDegrees>49.30680088698863983154296875</LatitudeDegrees>
              <LongitudeDegrees>19.92500365711748600006103515625</LongitudeDegrees>
            </Position>
            <AltitudeMeters>1102.199951171875</AltitudeMeters>
            <DistanceMeters>NAN</DistanceMeters>
          </Trackpoint>
          <Trackpoint>
            <Time>2022-09-19T10:41:02.000Z</Time>
            <Position>
              <LatitudeDegrees>49.306812286376953125</LatitudeDegrees>
              <LongitudeDegrees>19.9251700378954410552978515625</LongitudeDegrees>
            </Position>
            <AltitudeMeters>1102.800048828125</AltitudeMeters>
            <DistanceMeters>NAN</DistanceMeters>
          </Trackpoint>
          <Trackpoint>
            <Time>2022-09-19T10:41:08.000Z</Time>
            <Position>
              <LatitudeDegrees>49.30680499412119388580322265625</LatitudeDegrees>
              <LongitudeDegrees>19.92524723522365093231201171875</LongitudeDegrees>
            </Position>
            <AltitudeMeters>1102.800048828125</AltitudeMeters>
            <DistanceMeters>NAN</DistanceMeters>
          </Trackpoint>
          <Trackpoint>
            <Time>2022-09-19T10:41:19.000Z</Time>
            <Position>
              <LatitudeDegrees>49.306811280548572540283203125</LatitudeDegrees>
              <LongitudeDegrees>19.925386793911457061767578125</LongitudeDegrees>
            </Position>
            <AltitudeMeters>1103.199951171875</AltitudeMeters>
            <DistanceMeters>NAN</DistanceMeters>
          </Trackpoint>
          <Trackpoint>
            <Time>2022-09-19T10:41:27.000Z</Time>
            <Position>
              <LatitudeDegrees>49.30681957863271236419677734375</LatitudeDegrees>
              <LongitudeDegrees>19.9254895560443401336669921875</LongitudeDegrees>
            </Position>
            <AltitudeMeters>1103.4000244140625</AltitudeMeters>
            <DistanceMeters>NAN</DistanceMeters>
          </Trackpoint>
          <Trackpoint>
            <Time>2022-09-19T10:41:30.000Z</Time>
            <Position>
              <LatitudeDegrees>49.30682368576526641845703125</LatitudeDegrees>
              <LongitudeDegrees>19.92551461793482303619384765625</LongitudeDegrees>
            </Position>
            <AltitudeMeters>1103.5999755859375</AltitudeMeters>
            <DistanceMeters>NAN</DistanceMeters>
          </Trackpoint>
          <Trackpoint>
            <Time>2022-09-19T10:41:36.000Z</Time>
            <Position>
              <LatitudeDegrees>49.30682444013655185699462890625</LatitudeDegrees>
              <LongitudeDegrees>19.92559759877622127532958984375</LongitudeDegrees>
            </Position>
            <AltitudeMeters>1103.5999755859375</AltitudeMeters>
            <DistanceMeters>NAN</DistanceMeters>
          </Trackpoint>
          <Trackpoint>
            <Time>2022-09-19T10:41:44.000Z</Time>
            <Position>
              <LatitudeDegrees>49.3068506754934787750244140625</LatitudeDegrees>
              <LongitudeDegrees>19.92569734342396259307861328125</LongitudeDegrees>
            </Position>
            <AltitudeMeters>1103.800048828125</AltitudeMeters>
            <DistanceMeters>NAN</DistanceMeters>
          </Trackpoint>
          <Trackpoint>
            <Time>2022-09-19T10:41:47.000Z</Time>
            <Position>
              <LatitudeDegrees>49.3068520165979862213134765625</LatitudeDegrees>
              <LongitudeDegrees>19.92574294097721576690673828125</LongitudeDegrees>
            </Position>
            <AltitudeMeters>1103.800048828125</AltitudeMeters>
            <DistanceMeters>NAN</DistanceMeters>
          </Trackpoint>
          <Trackpoint>
            <Time>2022-09-19T10:41:54.000Z</Time>
            <Position>
              <LatitudeDegrees>49.3068489991128444671630859375</LatitudeDegrees>
              <LongitudeDegrees>19.92584134452044963836669921875</LongitudeDegrees>
            </Position>
            <AltitudeMeters>1103.800048828125</AltitudeMeters>
            <DistanceMeters>NAN</DistanceMeters>
          </Trackpoint>
          <Trackpoint>
            <Time>2022-09-19T10:42:05.000Z</Time>
            <Position>
              <LatitudeDegrees>49.30686785839498043060302734375</LatitudeDegrees>
              <LongitudeDegrees>19.92601350881159305572509765625</LongitudeDegrees>
            </Position>
            <AltitudeMeters>1104.4000244140625</AltitudeMeters>
            <DistanceMeters>NAN</DistanceMeters>
          </Trackpoint>
          <Trackpoint>
            <Time>2022-09-19T10:42:15.000Z</Time>
            <Position>
              <LatitudeDegrees>49.306880347430706024169921875</LatitudeDegrees>
              <LongitudeDegrees>19.92616773582994937896728515625</LongitudeDegrees>
            </Position>
            <AltitudeMeters>1104.5999755859375</AltitudeMeters>
            <DistanceMeters>NAN</DistanceMeters>
          </Trackpoint>
          <Trackpoint>
            <Time>2022-09-19T10:42:19.000Z</Time>
            <Position>
              <LatitudeDegrees>49.3068922497332096099853515625</LatitudeDegrees>
              <LongitudeDegrees>19.92621987126767635345458984375</LongitudeDegrees>
            </Position>
            <AltitudeMeters>1104.4000244140625</AltitudeMeters>
            <DistanceMeters>NAN</DistanceMeters>
          </Trackpoint>
          <Trackpoint>
            <Time>2022-09-19T10:42:22.000Z</Time>
            <Position>
              <LatitudeDegrees>49.3068996258080005645751953125</LatitudeDegrees>
              <LongitudeDegrees>19.92626287043094635009765625</LongitudeDegrees>
            </Position>
            <AltitudeMeters>1104.4000244140625</AltitudeMeters>
            <DistanceMeters>NAN</DistanceMeters>
          </Trackpoint>
          <Trackpoint>
            <Time>2022-09-19T10:42:23.000Z</Time>
            <Position>
              <LatitudeDegrees>49.306901134550571441650390625</LatitudeDegrees>
              <LongitudeDegrees>19.92627502419054508209228515625</LongitudeDegrees>
            </Position>
            <AltitudeMeters>1104.4000244140625</AltitudeMeters>
            <DistanceMeters>NAN</DistanceMeters>
          </Trackpoint>
          <Trackpoint>
            <Time>2022-09-19T10:42:33.000Z</Time>
            <Position>
              <LatitudeDegrees>49.30694170296192169189453125</LatitudeDegrees>
              <LongitudeDegrees>19.9264155887067317962646484375</LongitudeDegrees>
            </Position>
            <AltitudeMeters>1104.4000244140625</AltitudeMeters>
            <DistanceMeters>NAN</DistanceMeters>
          </Trackpoint>
          <Trackpoint>
            <Time>2022-09-19T10:42:35.000Z</Time>
            <Position>
              <LatitudeDegrees>49.30694815702736377716064453125</LatitudeDegrees>
              <LongitudeDegrees>19.9264397285878658294677734375</LongitudeDegrees>
            </Position>
            <AltitudeMeters>1104.4000244140625</AltitudeMeters>
            <DistanceMeters>NAN</DistanceMeters>
          </Trackpoint>
          <Trackpoint>
            <Time>2022-09-19T10:42:39.000Z</Time>
            <Position>
              <LatitudeDegrees>49.306956119835376739501953125</LatitudeDegrees>
              <LongitudeDegrees>19.9264534749090671539306640625</LongitudeDegrees>
            </Position>
            <AltitudeMeters>1104.5999755859375</AltitudeMeters>
            <DistanceMeters>NAN</DistanceMeters>
          </Trackpoint>
          <Trackpoint>
            <Time>2022-09-19T10:42:52.000Z</Time>
            <Position>
              <LatitudeDegrees>49.3069596402347087860107421875</LatitudeDegrees>
              <LongitudeDegrees>19.9264517985284328460693359375</LongitudeDegrees>
            </Position>
            <AltitudeMeters>1104.5999755859375</AltitudeMeters>
            <DistanceMeters>NAN</DistanceMeters>
          </Trackpoint>
          <Trackpoint>
            <Time>2022-09-19T10:42:58.000Z</Time>
            <Position>
              <LatitudeDegrees>49.3069596402347087860107421875</LatitudeDegrees>
              <LongitudeDegrees>19.9264517985284328460693359375</LongitudeDegrees>
            </Position>
            <AltitudeMeters>1104.4000244140625</AltitudeMeters>
            <DistanceMeters>NAN</DistanceMeters>
          </Trackpoint>
          <Trackpoint>
            <Time>2022-09-19T10:43:08.000Z</Time>
            <Position>
              <LatitudeDegrees>49.3069596402347087860107421875</LatitudeDegrees>
              <LongitudeDegrees>19.9264517985284328460693359375</LongitudeDegrees>
            </Position>
            <AltitudeMeters>1104.199951171875</AltitudeMeters>
            <DistanceMeters>NAN</DistanceMeters>
          </Trackpoint>
          <Trackpoint>
            <Time>2022-09-19T10:44:25.000Z</Time>
            <Position>
              <LatitudeDegrees>49.3069596402347087860107421875</LatitudeDegrees>
              <LongitudeDegrees>19.9264517985284328460693359375</LongitudeDegrees>
            </Position>
            <AltitudeMeters>1104.199951171875</AltitudeMeters>
            <DistanceMeters>NAN</DistanceMeters>
          </Trackpoint>
          <Trackpoint>
            <Time>2022-09-19T10:44:36.000Z</Time>
            <Position>
              <LatitudeDegrees>49.3069603107869625091552734375</LatitudeDegrees>
              <LongitudeDegrees>19.92645456455647945404052734375</LongitudeDegrees>
            </Position>
            <AltitudeMeters>1104.199951171875</AltitudeMeters>
            <DistanceMeters>NAN</DistanceMeters>
          </Trackpoint>
          <Trackpoint>
            <Time>2022-09-19T10:44:38.000Z</Time>
            <Position>
              <LatitudeDegrees>49.306963495910167694091796875</LatitudeDegrees>
              <LongitudeDegrees>19.92650317959487438201904296875</LongitudeDegrees>
            </Position>
            <AltitudeMeters>1104.199951171875</AltitudeMeters>
            <DistanceMeters>NAN</DistanceMeters>
          </Trackpoint>
          <Trackpoint>
            <Time>2022-09-19T10:44:39.000Z</Time>
            <Position>
              <LatitudeDegrees>49.306968189775943756103515625</LatitudeDegrees>
              <LongitudeDegrees>19.926530420780181884765625</LongitudeDegrees>
            </Position>
            <AltitudeMeters>1104.199951171875</AltitudeMeters>
            <DistanceMeters>NAN</DistanceMeters>
          </Trackpoint>
          <Trackpoint>
            <Time>2022-09-19T10:44:45.000Z</Time>
            <Position>
              <LatitudeDegrees>49.30702040903270244598388671875</LatitudeDegrees>
              <LongitudeDegrees>19.92669411934912204742431640625</LongitudeDegrees>
            </Position>
            <AltitudeMeters>1104</AltitudeMeters>
            <DistanceMeters>NAN</DistanceMeters>
          </Trackpoint>
          <Trackpoint>
            <Time>2022-09-19T10:44:51.000Z</Time>
            <Position>
              <LatitudeDegrees>49.3070816807448863983154296875</LatitudeDegrees>
              <LongitudeDegrees>19.92696225643157958984375</LongitudeDegrees>
            </Position>
            <AltitudeMeters>1103.800048828125</AltitudeMeters>
            <DistanceMeters>NAN</DistanceMeters>
          </Trackpoint>
          <Trackpoint>
            <Time>2022-09-19T10:44:57.000Z</Time>
            <Position>
              <LatitudeDegrees>49.3071437068283557891845703125</LatitudeDegrees>
              <LongitudeDegrees>19.92724112235009670257568359375</LongitudeDegrees>
            </Position>
            <AltitudeMeters>1104</AltitudeMeters>
            <DistanceMeters>NAN</DistanceMeters>
          </Trackpoint>
          <Trackpoint>
            <Time>2022-09-19T10:45:04.000Z</Time>
            <Position>
              <LatitudeDegrees>49.30720053613185882568359375</LatitudeDegrees>
              <LongitudeDegrees>19.92752493359148502349853515625</LongitudeDegrees>
            </Position>
            <AltitudeMeters>1104</AltitudeMeters>
            <DistanceMeters>NAN</DistanceMeters>
          </Trackpoint>
          <Trackpoint>
            <Time>2022-09-19T10:45:11.000Z</Time>
            <Position>
              <LatitudeDegrees>49.30728175677359104156494140625</LatitudeDegrees>
              <LongitudeDegrees>19.9278411827981472015380859375</LongitudeDegrees>
            </Position>
            <AltitudeMeters>1104.4000244140625</AltitudeMeters>
            <DistanceMeters>NAN</DistanceMeters>
          </Trackpoint>
          <Trackpoint>
            <Time>2022-09-19T10:45:19.000Z</Time>
            <Position>
              <LatitudeDegrees>49.3073696829378604888916015625</LatitudeDegrees>
              <LongitudeDegrees>19.92817603982985019683837890625</LongitudeDegrees>
            </Position>
            <AltitudeMeters>1104</AltitudeMeters>
            <DistanceMeters>NAN</DistanceMeters>
          </Trackpoint>
          <Trackpoint>
            <Time>2022-09-19T10:45:26.000Z</Time>
            <Position>
              <LatitudeDegrees>49.3074752949178218841552734375</LatitudeDegrees>
              <LongitudeDegrees>19.9285184405744075775146484375</LongitudeDegrees>
            </Position>
            <AltitudeMeters>1104.4000244140625</AltitudeMeters>
            <DistanceMeters>NAN</DistanceMeters>
          </Trackpoint>
          <Trackpoint>
            <Time>2022-09-19T10:45:32.000Z</Time>
            <Position>
              <LatitudeDegrees>49.3075970001518726348876953125</LatitudeDegrees>
              <LongitudeDegrees>19.9289093725383281707763671875</LongitudeDegrees>
            </Position>
            <AltitudeMeters>1104.199951171875</AltitudeMeters>
            <DistanceMeters>NAN</DistanceMeters>
          </Trackpoint>
          <Trackpoint>
            <Time>2022-09-19T10:45:41.000Z</Time>
            <Position>
              <LatitudeDegrees>49.3077425099909305572509765625</LatitudeDegrees>
              <LongitudeDegrees>19.92941589094698429107666015625</LongitudeDegrees>
            </Position>
            <AltitudeMeters>1104.5999755859375</AltitudeMeters>
            <DistanceMeters>NAN</DistanceMeters>
          </Trackpoint>
          <Trackpoint>
            <Time>2022-09-19T10:45:51.000Z</Time>
            <Position>
              <LatitudeDegrees>49.3078958988189697265625</LatitudeDegrees>
              <LongitudeDegrees>19.9299239180982112884521484375</LongitudeDegrees>
            </Position>
            <AltitudeMeters>1104.4000244140625</AltitudeMeters>
            <DistanceMeters>NAN</DistanceMeters>
          </Trackpoint>
          <Trackpoint>
            <Time>2022-09-19T10:45:56.000Z</Time>
            <Position>
              <LatitudeDegrees>49.3079510517418384552001953125</LatitudeDegrees>
              <LongitudeDegrees>19.930128268897533416748046875</LongitudeDegrees>
            </Position>
            <AltitudeMeters>1104.800048828125</AltitudeMeters>
            <DistanceMeters>NAN</DistanceMeters>
          </Trackpoint>
          <Trackpoint>
            <Time>2022-09-19T10:45:57.000Z</Time>
            <Position>
              <LatitudeDegrees>49.307968318462371826171875</LatitudeDegrees>
              <LongitudeDegrees>19.93016690947115421295166015625</LongitudeDegrees>
            </Position>
            <AltitudeMeters>1104.800048828125</AltitudeMeters>
            <DistanceMeters>NAN</DistanceMeters>
          </Trackpoint>
          <Trackpoint>
            <Time>2022-09-19T10:46:01.000Z</Time>
            <Position>
              <LatitudeDegrees>49.30803210474550724029541015625</LatitudeDegrees>
              <LongitudeDegrees>19.9303591065108776092529296875</LongitudeDegrees>
            </Position>
            <AltitudeMeters>1105</AltitudeMeters>
            <DistanceMeters>NAN</DistanceMeters>
          </Trackpoint>
          <Trackpoint>
            <Time>2022-09-19T10:46:02.000Z</Time>
            <Position>
              <LatitudeDegrees>49.308049790561199188232421875</LatitudeDegrees>
              <LongitudeDegrees>19.9304174445569515228271484375</LongitudeDegrees>
            </Position>
            <AltitudeMeters>1105</AltitudeMeters>
            <DistanceMeters>NAN</DistanceMeters>
          </Trackpoint>
          <Trackpoint>
            <Time>2022-09-19T10:46:08.000Z</Time>
            <Position>
              <LatitudeDegrees>49.30815179832279682159423828125</LatitudeDegrees>
              <LongitudeDegrees>19.93077593855559825897216796875</LongitudeDegrees>
            </Position>
            <AltitudeMeters>1104.800048828125</AltitudeMeters>
            <DistanceMeters>NAN</DistanceMeters>
          </Trackpoint>
          <Trackpoint>
            <Time>2022-09-19T10:46:11.000Z</Time>
            <Position>
              <LatitudeDegrees>49.30818716995418071746826171875</LatitudeDegrees>
              <LongitudeDegrees>19.93095229379832744598388671875</LongitudeDegrees>
            </Position>
            <AltitudeMeters>1104.5999755859375</AltitudeMeters>
            <DistanceMeters>NAN</DistanceMeters>
          </Trackpoint>
          <Trackpoint>
            <Time>2022-09-19T10:46:19.000Z</Time>
            <Position>
              <LatitudeDegrees>49.30829881690442562103271484375</LatitudeDegrees>
              <LongitudeDegrees>19.93139485828578472137451171875</LongitudeDegrees>
            </Position>
            <AltitudeMeters>1104.5999755859375</AltitudeMeters>
            <DistanceMeters>NAN</DistanceMeters>
          </Trackpoint>
          <Trackpoint>
            <Time>2022-09-19T10:46:22.000Z</Time>
            <Position>
              <LatitudeDegrees>49.308338798582553863525390625</LatitudeDegrees>
              <LongitudeDegrees>19.9315718002617359161376953125</LongitudeDegrees>
            </Position>
            <AltitudeMeters>1104.5999755859375</AltitudeMeters>
            <DistanceMeters>NAN</DistanceMeters>
          </Trackpoint>
          <Trackpoint>
            <Time>2022-09-19T10:46:27.000Z</Time>
            <Position>
              <LatitudeDegrees>49.30841063149273395538330078125</LatitudeDegrees>
              <LongitudeDegrees>19.9318145401775836944580078125</LongitudeDegrees>
            </Position>
            <AltitudeMeters>1106.5999755859375</AltitudeMeters>
            <DistanceMeters>NAN</DistanceMeters>
          </Trackpoint>
          <Trackpoint>
            <Time>2022-09-19T10:46:35.000Z</Time>
            <Position>
              <LatitudeDegrees>49.30855714716017246246337890625</LatitudeDegrees>
              <LongitudeDegrees>19.93224880658090114593505859375</LongitudeDegrees>
            </Position>
            <AltitudeMeters>1106.4000244140625</AltitudeMeters>
            <DistanceMeters>NAN</DistanceMeters>
          </Trackpoint>
          <Trackpoint>
            <Time>2022-09-19T10:46:43.000Z</Time>
            <Position>
              <LatitudeDegrees>49.30872537195682525634765625</LatitudeDegrees>
              <LongitudeDegrees>19.93273369967937469482421875</LongitudeDegrees>
            </Position>
            <AltitudeMeters>1105.4000244140625</AltitudeMeters>
            <DistanceMeters>NAN</DistanceMeters>
          </Trackpoint>
          <Trackpoint>
            <Time>2022-09-19T10:46:44.000Z</Time>
            <Position>
              <LatitudeDegrees>49.30874875746667385101318359375</LatitudeDegrees>
              <LongitudeDegrees>19.93282263167202472686767578125</LongitudeDegrees>
            </Position>
            <AltitudeMeters>1105.199951171875</AltitudeMeters>
            <DistanceMeters>NAN</DistanceMeters>
          </Trackpoint>
          <Trackpoint>
            <Time>2022-09-19T10:46:47.000Z</Time>
            <Position>
              <LatitudeDegrees>49.30885151959955692291259765625</LatitudeDegrees>
              <LongitudeDegrees>19.9331093765795230865478515625</LongitudeDegrees>
            </Position>
            <AltitudeMeters>1104.199951171875</AltitudeMeters>
            <DistanceMeters>NAN</DistanceMeters>
          </Trackpoint>
          <Trackpoint>
            <Time>2022-09-19T10:46:49.000Z</Time>
            <Position>
              <LatitudeDegrees>49.3089283816516399383544921875</LatitudeDegrees>
              <LongitudeDegrees>19.933294951915740966796875</LongitudeDegrees>
            </Position>
            <AltitudeMeters>1103.800048828125</AltitudeMeters>
            <DistanceMeters>NAN</DistanceMeters>
          </Trackpoint>
          <Trackpoint>
            <Time>2022-09-19T10:46:52.000Z</Time>
            <Position>
              <LatitudeDegrees>49.30902904830873012542724609375</LatitudeDegrees>
              <LongitudeDegrees>19.9335375241935253143310546875</LongitudeDegrees>
            </Position>
            <AltitudeMeters>1103.5999755859375</AltitudeMeters>
            <DistanceMeters>NAN</DistanceMeters>
          </Trackpoint>
          <Trackpoint>
            <Time>2022-09-19T10:46:54.000Z</Time>
            <Position>
              <LatitudeDegrees>49.30908671580255031585693359375</LatitudeDegrees>
              <LongitudeDegrees>19.9336756579577922821044921875</LongitudeDegrees>
            </Position>
            <AltitudeMeters>1103.4000244140625</AltitudeMeters>
            <DistanceMeters>NAN</DistanceMeters>
          </Trackpoint>
          <Trackpoint>
            <Time>2022-09-19T10:46:56.000Z</Time>
            <Position>
              <LatitudeDegrees>49.30912912823259830474853515625</LatitudeDegrees>
              <LongitudeDegrees>19.93380851112306118011474609375</LongitudeDegrees>
            </Position>
            <AltitudeMeters>1103.199951171875</AltitudeMeters>
            <DistanceMeters>NAN</DistanceMeters>
          </Trackpoint>
          <Trackpoint>
            <Time>2022-09-19T10:46:58.000Z</Time>
            <Position>
              <LatitudeDegrees>49.3091620691120624542236328125</LatitudeDegrees>
              <LongitudeDegrees>19.933912195265293121337890625</LongitudeDegrees>
            </Position>
            <AltitudeMeters>1103</AltitudeMeters>
            <DistanceMeters>NAN</DistanceMeters>
          </Trackpoint>
          <Trackpoint>
            <Time>2022-09-19T10:46:59.000Z</Time>
            <Position>
              <LatitudeDegrees>49.30917405523359775543212890625</LatitudeDegrees>
              <LongitudeDegrees>19.9339529313147068023681640625</LongitudeDegrees>
            </Position>
            <AltitudeMeters>1103</AltitudeMeters>
            <DistanceMeters>NAN</DistanceMeters>
          </Trackpoint>
          <Trackpoint>
            <Time>2022-09-19T10:47:01.000Z</Time>
            <Position>
              <LatitudeDegrees>49.30919651873409748077392578125</LatitudeDegrees>
              <LongitudeDegrees>19.9340231716632843017578125</LongitudeDegrees>
            </Position>
            <AltitudeMeters>1103</AltitudeMeters>
            <DistanceMeters>NAN</DistanceMeters>
          </Trackpoint>
          <Trackpoint>
            <Time>2022-09-19T10:47:03.000Z</Time>
            <Position>
              <LatitudeDegrees>49.3092358298599720001220703125</LatitudeDegrees>
              <LongitudeDegrees>19.93408645503222942352294921875</LongitudeDegrees>
            </Position>
            <AltitudeMeters>1103</AltitudeMeters>
            <DistanceMeters>NAN</DistanceMeters>
          </Trackpoint>
          <Trackpoint>
            <Time>2022-09-19T10:47:04.000Z</Time>
            <Position>
              <LatitudeDegrees>49.3092579580843448638916015625</LatitudeDegrees>
              <LongitudeDegrees>19.9341209046542644500732421875</LongitudeDegrees>
            </Position>
            <AltitudeMeters>1103</AltitudeMeters>
            <DistanceMeters>NAN</DistanceMeters>
          </Trackpoint>
          <Trackpoint>
            <Time>2022-09-19T10:47:10.000Z</Time>
            <Position>
              <LatitudeDegrees>49.3094019591808319091796875</LatitudeDegrees>
              <LongitudeDegrees>19.93441955186426639556884765625</LongitudeDegrees>
            </Position>
            <AltitudeMeters>1103.199951171875</AltitudeMeters>
            <DistanceMeters>NAN</DistanceMeters>
          </Trackpoint>
          <Trackpoint>
            <Time>2022-09-19T10:47:17.000Z</Time>
            <Position>
              <LatitudeDegrees>49.30956750176846981048583984375</LatitudeDegrees>
              <LongitudeDegrees>19.93482724763453006744384765625</LongitudeDegrees>
            </Position>
            <AltitudeMeters>1102.4000244140625</AltitudeMeters>
            <DistanceMeters>NAN</DistanceMeters>
          </Trackpoint>
          <Trackpoint>
            <Time>2022-09-19T10:47:20.000Z</Time>
            <Position>
              <LatitudeDegrees>49.30963757447898387908935546875</LatitudeDegrees>
              <LongitudeDegrees>19.934983737766742706298828125</LongitudeDegrees>
            </Position>
            <AltitudeMeters>1102.4000244140625</AltitudeMeters>
            <DistanceMeters>NAN</DistanceMeters>
          </Trackpoint>
          <Trackpoint>
            <Time>2022-09-19T10:47:23.000Z</Time>
            <Position>
              <LatitudeDegrees>49.309701360762119293212890625</LatitudeDegrees>
              <LongitudeDegrees>19.93512983433902263641357421875</LongitudeDegrees>
            </Position>
            <AltitudeMeters>1102.4000244140625</AltitudeMeters>
            <DistanceMeters>NAN</DistanceMeters>
          </Trackpoint>
          <Trackpoint>
            <Time>2022-09-19T10:47:25.000Z</Time>
            <Position>
              <LatitudeDegrees>49.30973899550735950469970703125</LatitudeDegrees>
              <LongitudeDegrees>19.935225807130336761474609375</LongitudeDegrees>
            </Position>
            <AltitudeMeters>1102.5999755859375</AltitudeMeters>
            <DistanceMeters>NAN</DistanceMeters>
          </Trackpoint>
          <Trackpoint>
            <Time>2022-09-19T10:47:28.000Z</Time>
            <Position>
              <LatitudeDegrees>49.309794567525386810302734375</LatitudeDegrees>
              <LongitudeDegrees>19.935373999178409576416015625</LongitudeDegrees>
            </Position>
            <AltitudeMeters>1102.5999755859375</AltitudeMeters>
            <DistanceMeters>NAN</DistanceMeters>
          </Trackpoint>
          <Trackpoint>
            <Time>2022-09-19T10:47:33.000Z</Time>
            <Position>
              <LatitudeDegrees>49.3098758719861507415771484375</LatitudeDegrees>
              <LongitudeDegrees>19.93560626171529293060302734375</LongitudeDegrees>
            </Position>
            <AltitudeMeters>1103</AltitudeMeters>
            <DistanceMeters>NAN</DistanceMeters>
          </Trackpoint>
          <Trackpoint>
            <Time>2022-09-19T10:47:43.000Z</Time>
            <Position>
              <LatitudeDegrees>49.31003697216510772705078125</LatitudeDegrees>
              <LongitudeDegrees>19.9360658414661884307861328125</LongitudeDegrees>
            </Position>
            <AltitudeMeters>1103</AltitudeMeters>
            <DistanceMeters>NAN</DistanceMeters>
          </Trackpoint>
          <Trackpoint>
            <Time>2022-09-19T10:47:51.000Z</Time>
            <Position>
              <LatitudeDegrees>49.31014602072536945343017578125</LatitudeDegrees>
              <LongitudeDegrees>19.93639298714697360992431640625</LongitudeDegrees>
            </Position>
            <AltitudeMeters>1103</AltitudeMeters>
            <DistanceMeters>NAN</DistanceMeters>
          </Trackpoint>
          <Trackpoint>
            <Time>2022-09-19T10:48:00.000Z</Time>
            <Position>
              <LatitudeDegrees>49.3103020079433917999267578125</LatitudeDegrees>
              <LongitudeDegrees>19.9367581866681575775146484375</LongitudeDegrees>
            </Position>
            <AltitudeMeters>1103</AltitudeMeters>
            <DistanceMeters>NAN</DistanceMeters>
          </Trackpoint>
          <Trackpoint>
            <Time>2022-09-19T10:48:02.000Z</Time>
            <Position>
              <LatitudeDegrees>49.3103077076375484466552734375</LatitudeDegrees>
              <LongitudeDegrees>19.936806969344615936279296875</LongitudeDegrees>
            </Position>
            <AltitudeMeters>1103.199951171875</AltitudeMeters>
            <DistanceMeters>NAN</DistanceMeters>
          </Trackpoint>
          <Trackpoint>
            <Time>2022-09-19T10:48:04.000Z</Time>
            <Position>
              <LatitudeDegrees>49.31030443869531154632568359375</LatitudeDegrees>
              <LongitudeDegrees>19.936831109225749969482421875</LongitudeDegrees>
            </Position>
            <AltitudeMeters>1103.199951171875</AltitudeMeters>
            <DistanceMeters>NAN</DistanceMeters>
          </Trackpoint>
          <Trackpoint>
            <Time>2022-09-19T10:48:11.000Z</Time>
            <Position>
              <LatitudeDegrees>49.3103073723614215850830078125</LatitudeDegrees>
              <LongitudeDegrees>19.936835803091526031494140625</LongitudeDegrees>
            </Position>
            <AltitudeMeters>1103.4000244140625</AltitudeMeters>
            <DistanceMeters>NAN</DistanceMeters>
          </Trackpoint>
          <Trackpoint>
            <Time>2022-09-19T10:48:21.000Z</Time>
            <Position>
              <LatitudeDegrees>49.3103073723614215850830078125</LatitudeDegrees>
              <LongitudeDegrees>19.936835803091526031494140625</LongitudeDegrees>
            </Position>
            <AltitudeMeters>1103.5999755859375</AltitudeMeters>
            <DistanceMeters>NAN</DistanceMeters>
          </Trackpoint>
          <Trackpoint>
            <Time>2022-09-19T10:48:34.000Z</Time>
            <Position>
              <LatitudeDegrees>49.31031282059848308563232421875</LatitudeDegrees>
              <LongitudeDegrees>19.93685818277299404144287109375</LongitudeDegrees>
            </Position>
            <AltitudeMeters>1103.199951171875</AltitudeMeters>
            <DistanceMeters>NAN</DistanceMeters>
          </Trackpoint>
          <Trackpoint>
            <Time>2022-09-19T10:48:37.000Z</Time>
            <Position>
              <LatitudeDegrees>49.3103358708322048187255859375</LatitudeDegrees>
              <LongitudeDegrees>19.93693864904344081878662109375</LongitudeDegrees>
            </Position>
            <AltitudeMeters>1103.4000244140625</AltitudeMeters>
            <DistanceMeters>NAN</DistanceMeters>
          </Trackpoint>
          <Trackpoint>
            <Time>2022-09-19T10:48:39.000Z</Time>
            <Position>
              <LatitudeDegrees>49.3103533051908016204833984375</LatitudeDegrees>
              <LongitudeDegrees>19.93699363432824611663818359375</LongitudeDegrees>
            </Position>
            <AltitudeMeters>1103.5999755859375</AltitudeMeters>
            <DistanceMeters>NAN</DistanceMeters>
          </Trackpoint>
          <Trackpoint>
            <Time>2022-09-19T10:48:42.000Z</Time>
            <Position>
              <LatitudeDegrees>49.31043033488094806671142578125</LatitudeDegrees>
              <LongitudeDegrees>19.9370837397873401641845703125</LongitudeDegrees>
            </Position>
            <AltitudeMeters>1103.4000244140625</AltitudeMeters>
            <DistanceMeters>NAN</DistanceMeters>
          </Trackpoint>
          <Trackpoint>
            <Time>2022-09-19T10:48:46.000Z</Time>
            <Position>
              <LatitudeDegrees>49.310562349855899810791015625</LatitudeDegrees>
              <LongitudeDegrees>19.93724324740469455718994140625</LongitudeDegrees>
            </Position>
            <AltitudeMeters>1102.5999755859375</AltitudeMeters>
            <DistanceMeters>NAN</DistanceMeters>
          </Trackpoint>
          <Trackpoint>
            <Time>2022-09-19T10:48:48.000Z</Time>
            <Position>
              <LatitudeDegrees>49.31063242256641387939453125</LatitudeDegrees>
              <LongitudeDegrees>19.9373422376811504364013671875</LongitudeDegrees>
            </Position>
            <AltitudeMeters>1102</AltitudeMeters>
            <DistanceMeters>NAN</DistanceMeters>
          </Trackpoint>
          <Trackpoint>
            <Time>2022-09-19T10:48:53.000Z</Time>
            <Position>
              <LatitudeDegrees>49.31087893433868885040283203125</LatitudeDegrees>
              <LongitudeDegrees>19.93757642805576324462890625</LongitudeDegrees>
            </Position>
            <AltitudeMeters>1101.199951171875</AltitudeMeters>
            <DistanceMeters>NAN</DistanceMeters>
          </Trackpoint>
          <Trackpoint>
            <Time>2022-09-19T10:48:55.000Z</Time>
            <Position>
              <LatitudeDegrees>49.3110054172575473785400390625</LatitudeDegrees>
              <LongitudeDegrees>19.9376681260764598846435546875</LongitudeDegrees>
            </Position>
            <AltitudeMeters>1100.5999755859375</AltitudeMeters>
            <DistanceMeters>NAN</DistanceMeters>
          </Trackpoint>
          <Trackpoint>
            <Time>2022-09-19T10:48:57.000Z</Time>
            <Position>
              <LatitudeDegrees>49.31114044971764087677001953125</LatitudeDegrees>
              <LongitudeDegrees>19.937774240970611572265625</LongitudeDegrees>
            </Position>
            <AltitudeMeters>1099.4000244140625</AltitudeMeters>
            <DistanceMeters>NAN</DistanceMeters>
          </Trackpoint>
          <Trackpoint>
            <Time>2022-09-19T10:48:58.000Z</Time>
            <Position>
              <LatitudeDegrees>49.31121102534234523773193359375</LatitudeDegrees>
              <LongitudeDegrees>19.9378364346921443939208984375</LongitudeDegrees>
            </Position>
            <AltitudeMeters>1098.800048828125</AltitudeMeters>
            <DistanceMeters>NAN</DistanceMeters>
          </Trackpoint>
          <Trackpoint>
            <Time>2022-09-19T10:48:59.000Z</Time>
            <Position>
              <LatitudeDegrees>49.31128545664250850677490234375</LatitudeDegrees>
              <LongitudeDegrees>19.93790223263204097747802734375</LongitudeDegrees>
            </Position>
            <AltitudeMeters>1098.4000244140625</AltitudeMeters>
            <DistanceMeters>NAN</DistanceMeters>
          </Trackpoint>
          <Trackpoint>
            <Time>2022-09-19T10:49:02.000Z</Time>
            <Position>
              <LatitudeDegrees>49.3115209043025970458984375</LatitudeDegrees>
              <LongitudeDegrees>19.93810591287910938262939453125</LongitudeDegrees>
            </Position>
            <AltitudeMeters>1097</AltitudeMeters>
            <DistanceMeters>NAN</DistanceMeters>
          </Trackpoint>
          <Trackpoint>
            <Time>2022-09-19T10:49:05.000Z</Time>
            <Position>
              <LatitudeDegrees>49.31177060119807720184326171875</LatitudeDegrees>
              <LongitudeDegrees>19.93830867111682891845703125</LongitudeDegrees>
            </Position>
            <AltitudeMeters>1095.199951171875</AltitudeMeters>
            <DistanceMeters>NAN</DistanceMeters>
          </Trackpoint>
          <Trackpoint>
            <Time>2022-09-19T10:49:08.000Z</Time>
            <Position>
              <LatitudeDegrees>49.31203530170023441314697265625</LatitudeDegrees>
              <LongitudeDegrees>19.9385374970734119415283203125</LongitudeDegrees>
            </Position>
            <AltitudeMeters>1093.5999755859375</AltitudeMeters>
            <DistanceMeters>NAN</DistanceMeters>
          </Trackpoint>
          <Trackpoint>
            <Time>2022-09-19T10:49:10.000Z</Time>
            <Position>
              <LatitudeDegrees>49.31222456507384777069091796875</LatitudeDegrees>
              <LongitudeDegrees>19.93869147263467311859130859375</LongitudeDegrees>
            </Position>
            <AltitudeMeters>1092</AltitudeMeters>
            <DistanceMeters>NAN</DistanceMeters>
          </Trackpoint>
          <Trackpoint>
            <Time>2022-09-19T10:49:12.000Z</Time>
            <Position>
              <LatitudeDegrees>49.3124259822070598602294921875</LatitudeDegrees>
              <LongitudeDegrees>19.9388509802520275115966796875</LongitudeDegrees>
            </Position>
            <AltitudeMeters>1090.5999755859375</AltitudeMeters>
            <DistanceMeters>NAN</DistanceMeters>
          </Trackpoint>
          <Trackpoint>
            <Time>2022-09-19T10:49:15.000Z</Time>
            <Position>
              <LatitudeDegrees>49.31271381676197052001953125</LatitudeDegrees>
              <LongitudeDegrees>19.9390697479248046875</LongitudeDegrees>
            </Position>
            <AltitudeMeters>1089</AltitudeMeters>
            <DistanceMeters>NAN</DistanceMeters>
          </Trackpoint>
          <Trackpoint>
            <Time>2022-09-19T10:49:17.000Z</Time>
            <Position>
              <LatitudeDegrees>49.312873743474483489990234375</LatitudeDegrees>
              <LongitudeDegrees>19.93920142762362957000732421875</LongitudeDegrees>
            </Position>
            <AltitudeMeters>1087.5999755859375</AltitudeMeters>
            <DistanceMeters>NAN</DistanceMeters>
          </Trackpoint>
          <Trackpoint>
            <Time>2022-09-19T10:49:18.000Z</Time>
            <Position>
              <LatitudeDegrees>49.3129397928714752197265625</LatitudeDegrees>
              <LongitudeDegrees>19.93925507180392742156982421875</LongitudeDegrees>
            </Position>
            <AltitudeMeters>1087.199951171875</AltitudeMeters>
            <DistanceMeters>NAN</DistanceMeters>
          </Trackpoint>
          <Trackpoint>
            <Time>2022-09-19T10:49:20.000Z</Time>
            <Position>
              <LatitudeDegrees>49.31306384503841400146484375</LatitudeDegrees>
              <LongitudeDegrees>19.93936604820191860198974609375</LongitudeDegrees>
            </Position>
            <AltitudeMeters>1086.5999755859375</AltitudeMeters>
            <DistanceMeters>NAN</DistanceMeters>
          </Trackpoint>
          <Trackpoint>
            <Time>2022-09-19T10:49:21.000Z</Time>
            <Position>
              <LatitudeDegrees>49.31312394328415393829345703125</LatitudeDegrees>
              <LongitudeDegrees>19.93942472152411937713623046875</LongitudeDegrees>
            </Position>
            <AltitudeMeters>1086.4000244140625</AltitudeMeters>
            <DistanceMeters>NAN</DistanceMeters>
          </Trackpoint>
          <Trackpoint>
            <Time>2022-09-19T10:49:24.000Z</Time>
            <Position>
              <LatitudeDegrees>49.31330926716327667236328125</LatitudeDegrees>
              <LongitudeDegrees>19.93960644118487834930419921875</LongitudeDegrees>
            </Position>
            <AltitudeMeters>1085.5999755859375</AltitudeMeters>
            <DistanceMeters>NAN</DistanceMeters>
          </Trackpoint>
          <Trackpoint>
            <Time>2022-09-19T10:49:28.000Z</Time>
            <Position>
              <LatitudeDegrees>49.31356214918196201324462890625</LatitudeDegrees>
              <LongitudeDegrees>19.939872734248638153076171875</LongitudeDegrees>
            </Position>
            <AltitudeMeters>1084.4000244140625</AltitudeMeters>
            <DistanceMeters>NAN</DistanceMeters>
          </Trackpoint>
          <Trackpoint>
            <Time>2022-09-19T10:49:30.000Z</Time>
            <Position>
              <LatitudeDegrees>49.31369072757661342620849609375</LatitudeDegrees>
              <LongitudeDegrees>19.9400093592703342437744140625</LongitudeDegrees>
            </Position>
            <AltitudeMeters>1084.199951171875</AltitudeMeters>
            <DistanceMeters>NAN</DistanceMeters>
          </Trackpoint>
          <Trackpoint>
            <Time>2022-09-19T10:49:33.000Z</Time>
            <Position>
              <LatitudeDegrees>49.3138596229255199432373046875</LatitudeDegrees>
              <LongitudeDegrees>19.94020759128034114837646484375</LongitudeDegrees>
            </Position>
            <AltitudeMeters>1083.199951171875</AltitudeMeters>
            <DistanceMeters>NAN</DistanceMeters>
          </Trackpoint>
          <Trackpoint>
            <Time>2022-09-19T10:49:36.000Z</Time>
            <Position>
              <LatitudeDegrees>49.3140406720340251922607421875</LatitudeDegrees>
              <LongitudeDegrees>19.940446726977825164794921875</LongitudeDegrees>
            </Position>
            <AltitudeMeters>1082.5999755859375</AltitudeMeters>
            <DistanceMeters>NAN</DistanceMeters>
          </Trackpoint>
          <Trackpoint>
            <Time>2022-09-19T10:49:39.000Z</Time>
            <Position>
              <LatitudeDegrees>49.31421183049678802490234375</LatitudeDegrees>
              <LongitudeDegrees>19.9406705237925052642822265625</LongitudeDegrees>
            </Position>
            <AltitudeMeters>1082</AltitudeMeters>
            <DistanceMeters>NAN</DistanceMeters>
          </Trackpoint>
          <Trackpoint>
            <Time>2022-09-19T10:49:44.000Z</Time>
            <Position>
              <LatitudeDegrees>49.31452740915119647979736328125</LatitudeDegrees>
              <LongitudeDegrees>19.9409655667841434478759765625</LongitudeDegrees>
            </Position>
            <AltitudeMeters>1080.800048828125</AltitudeMeters>
            <DistanceMeters>NAN</DistanceMeters>
          </Trackpoint>
          <Trackpoint>
            <Time>2022-09-19T10:49:48.000Z</Time>
            <Position>
              <LatitudeDegrees>49.31476579047739505767822265625</LatitudeDegrees>
              <LongitudeDegrees>19.941174946725368499755859375</LongitudeDegrees>
            </Position>
            <AltitudeMeters>1079.5999755859375</AltitudeMeters>
            <DistanceMeters>NAN</DistanceMeters>
          </Trackpoint>
          <Trackpoint>
            <Time>2022-09-19T10:49:51.000Z</Time>
            <Position>
              <LatitudeDegrees>49.31493979878723621368408203125</LatitudeDegrees>
              <LongitudeDegrees>19.9413635395467281341552734375</LongitudeDegrees>
            </Position>
            <AltitudeMeters>1078.800048828125</AltitudeMeters>
            <DistanceMeters>NAN</DistanceMeters>
          </Trackpoint>
          <Trackpoint>
            <Time>2022-09-19T10:49:52.000Z</Time>
            <Position>
              <LatitudeDegrees>49.315000064671039581298828125</LatitudeDegrees>
              <LongitudeDegrees>19.94143134914338588714599609375</LongitudeDegrees>
            </Position>
            <AltitudeMeters>1078.199951171875</AltitudeMeters>
            <DistanceMeters>NAN</DistanceMeters>
          </Trackpoint>
          <Trackpoint>
            <Time>2022-09-19T10:49:55.000Z</Time>
            <Position>
              <LatitudeDegrees>49.31518555618822574615478515625</LatitudeDegrees>
              <LongitudeDegrees>19.9416545592248439788818359375</LongitudeDegrees>
            </Position>
            <AltitudeMeters>1077.199951171875</AltitudeMeters>
            <DistanceMeters>NAN</DistanceMeters>
          </Trackpoint>
          <Trackpoint>
            <Time>2022-09-19T10:49:57.000Z</Time>
            <Position>
              <LatitudeDegrees>49.315319918096065521240234375</LatitudeDegrees>
              <LongitudeDegrees>19.94178439490497112274169921875</LongitudeDegrees>
            </Position>
            <AltitudeMeters>1076</AltitudeMeters>
            <DistanceMeters>NAN</DistanceMeters>
          </Trackpoint>
          <Trackpoint>
            <Time>2022-09-19T10:49:59.000Z</Time>
            <Position>
              <LatitudeDegrees>49.315457046031951904296875</LatitudeDegrees>
              <LongitudeDegrees>19.94186586700379848480224609375</LongitudeDegrees>
            </Position>
            <AltitudeMeters>1074.800048828125</AltitudeMeters>
            <DistanceMeters>NAN</DistanceMeters>
          </Trackpoint>
          <Trackpoint>
            <Time>2022-09-19T10:50:01.000Z</Time>
            <Position>
              <LatitudeDegrees>49.3155983649194240570068359375</LatitudeDegrees>
              <LongitudeDegrees>19.94190274737775325775146484375</LongitudeDegrees>
            </Position>
            <AltitudeMeters>1074</AltitudeMeters>
            <DistanceMeters>NAN</DistanceMeters>
          </Trackpoint>
          <Trackpoint>
            <Time>2022-09-19T10:50:02.000Z</Time>
            <Position>
              <LatitudeDegrees>49.31565175764262676239013671875</LatitudeDegrees>
              <LongitudeDegrees>19.9419167451560497283935546875</LongitudeDegrees>
            </Position>
            <AltitudeMeters>1073.800048828125</AltitudeMeters>
            <DistanceMeters>NAN</DistanceMeters>
          </Trackpoint>
          <Trackpoint>
            <Time>2022-09-19T10:50:03.000Z</Time>
            <Position>
              <LatitudeDegrees>49.31568562053143978118896484375</LatitudeDegrees>
              <LongitudeDegrees>19.94192437268793582916259765625</LongitudeDegrees>
            </Position>
            <AltitudeMeters>1073.4000244140625</AltitudeMeters>
            <DistanceMeters>NAN</DistanceMeters>
          </Trackpoint>
          <Trackpoint>
            <Time>2022-09-19T10:50:04.000Z</Time>
            <Position>
              <LatitudeDegrees>49.31570305489003658294677734375</LatitudeDegrees>
              <LongitudeDegrees>19.94192789308726787567138671875</LongitudeDegrees>
            </Position>
            <AltitudeMeters>1073</AltitudeMeters>
            <DistanceMeters>NAN</DistanceMeters>
          </Trackpoint>
          <Trackpoint>
            <Time>2022-09-19T10:50:05.000Z</Time>
            <Position>
              <LatitudeDegrees>49.31570808403193950653076171875</LatitudeDegrees>
              <LongitudeDegrees>19.94192923419177532196044921875</LongitudeDegrees>
            </Position>
            <AltitudeMeters>1072.800048828125</AltitudeMeters>
            <DistanceMeters>NAN</DistanceMeters>
          </Trackpoint>
          <Trackpoint>
            <Time>2022-09-19T10:50:08.000Z</Time>
            <Position>
              <LatitudeDegrees>49.31570808403193950653076171875</LatitudeDegrees>
              <LongitudeDegrees>19.94192923419177532196044921875</LongitudeDegrees>
            </Position>
            <AltitudeMeters>1072.800048828125</AltitudeMeters>
            <DistanceMeters>NAN</DistanceMeters>
          </Trackpoint>
          <Trackpoint>
            <Time>2022-09-19T10:50:16.000Z</Time>
            <Position>
              <LatitudeDegrees>49.31570808403193950653076171875</LatitudeDegrees>
              <LongitudeDegrees>19.94192923419177532196044921875</LongitudeDegrees>
            </Position>
            <AltitudeMeters>1072.5999755859375</AltitudeMeters>
            <DistanceMeters>NAN</DistanceMeters>
          </Trackpoint>
          <Trackpoint>
            <Time>2022-09-19T10:50:20.000Z</Time>
            <Position>
              <LatitudeDegrees>49.31570808403193950653076171875</LatitudeDegrees>
              <LongitudeDegrees>19.94192923419177532196044921875</LongitudeDegrees>
            </Position>
            <AltitudeMeters>1072.5999755859375</AltitudeMeters>
            <DistanceMeters>NAN</DistanceMeters>
          </Trackpoint>
          <Trackpoint>
            <Time>2022-09-19T10:50:32.000Z</Time>
            <Position>
              <LatitudeDegrees>49.31570808403193950653076171875</LatitudeDegrees>
              <LongitudeDegrees>19.94192923419177532196044921875</LongitudeDegrees>
            </Position>
            <AltitudeMeters>1072.800048828125</AltitudeMeters>
            <DistanceMeters>NAN</DistanceMeters>
          </Trackpoint>
          <Trackpoint>
            <Time>2022-09-19T10:50:49.000Z</Time>
            <Position>
              <LatitudeDegrees>49.31570808403193950653076171875</LatitudeDegrees>
              <LongitudeDegrees>19.94192923419177532196044921875</LongitudeDegrees>
            </Position>
            <AltitudeMeters>1072.4000244140625</AltitudeMeters>
            <DistanceMeters>NAN</DistanceMeters>
          </Trackpoint>
          <Trackpoint>
            <Time>2022-09-19T10:50:50.000Z</Time>
            <Position>
              <LatitudeDegrees>49.31570808403193950653076171875</LatitudeDegrees>
              <LongitudeDegrees>19.94192923419177532196044921875</LongitudeDegrees>
            </Position>
            <AltitudeMeters>1072.4000244140625</AltitudeMeters>
            <DistanceMeters>NAN</DistanceMeters>
          </Trackpoint>
          <Trackpoint>
            <Time>2022-09-19T10:51:17.000Z</Time>
            <Position>
              <LatitudeDegrees>49.315757118165493011474609375</LatitudeDegrees>
              <LongitudeDegrees>19.94189746677875518798828125</LongitudeDegrees>
            </Position>
            <AltitudeMeters>1072.4000244140625</AltitudeMeters>
            <DistanceMeters>NAN</DistanceMeters>
          </Trackpoint>
          <Trackpoint>
            <Time>2022-09-19T10:51:25.000Z</Time>
            <Position>
              <LatitudeDegrees>49.31591461412608623504638671875</LatitudeDegrees>
              <LongitudeDegrees>19.9418107978999614715576171875</LongitudeDegrees>
            </Position>
            <AltitudeMeters>1072.4000244140625</AltitudeMeters>
            <DistanceMeters>NAN</DistanceMeters>
          </Trackpoint>
          <Trackpoint>
            <Time>2022-09-19T10:51:30.000Z</Time>
            <Position>
              <LatitudeDegrees>49.31605308316648006439208984375</LatitudeDegrees>
              <LongitudeDegrees>19.94175405241549015045166015625</LongitudeDegrees>
            </Position>
            <AltitudeMeters>1072</AltitudeMeters>
            <DistanceMeters>NAN</DistanceMeters>
          </Trackpoint>
          <Trackpoint>
            <Time>2022-09-19T10:51:32.000Z</Time>
            <Position>
              <LatitudeDegrees>49.31611963547766208648681640625</LatitudeDegrees>
              <LongitudeDegrees>19.94174349121749401092529296875</LongitudeDegrees>
            </Position>
            <AltitudeMeters>1071.5999755859375</AltitudeMeters>
            <DistanceMeters>NAN</DistanceMeters>
          </Trackpoint>
          <Trackpoint>
            <Time>2022-09-19T10:51:37.000Z</Time>
            <Position>
              <LatitudeDegrees>49.3163381516933441162109375</LatitudeDegrees>
              <LongitudeDegrees>19.941770397126674652099609375</LongitudeDegrees>
            </Position>
            <AltitudeMeters>1071.199951171875</AltitudeMeters>
            <DistanceMeters>NAN</DistanceMeters>
          </Trackpoint>
          <Trackpoint>
            <Time>2022-09-19T10:51:41.000Z</Time>
            <Position>
              <LatitudeDegrees>49.316552393138408660888671875</LatitudeDegrees>
              <LongitudeDegrees>19.94183988310396671295166015625</LongitudeDegrees>
            </Position>
            <AltitudeMeters>1069.800048828125</AltitudeMeters>
            <DistanceMeters>NAN</DistanceMeters>
          </Trackpoint>
          <Trackpoint>
            <Time>2022-09-19T10:51:42.000Z</Time>
            <Position>
              <LatitudeDegrees>49.316610395908355712890625</LatitudeDegrees>
              <LongitudeDegrees>19.941868968307971954345703125</LongitudeDegrees>
            </Position>
            <AltitudeMeters>1069</AltitudeMeters>
            <DistanceMeters>NAN</DistanceMeters>
          </Trackpoint>
          <Trackpoint>
            <Time>2022-09-19T10:51:43.000Z</Time>
            <Position>
              <LatitudeDegrees>49.31667141616344451904296875</LatitudeDegrees>
              <LongitudeDegrees>19.941903166472911834716796875</LongitudeDegrees>
            </Position>
            <AltitudeMeters>1068.4000244140625</AltitudeMeters>
            <DistanceMeters>NAN</DistanceMeters>
          </Trackpoint>
          <Trackpoint>
            <Time>2022-09-19T10:51:46.000Z</Time>
            <Position>
              <LatitudeDegrees>49.31686051189899444580078125</LatitudeDegrees>
              <LongitudeDegrees>19.94202596135437488555908203125</LongitudeDegrees>
            </Position>
            <AltitudeMeters>1067</AltitudeMeters>
            <DistanceMeters>NAN</DistanceMeters>
          </Trackpoint>
          <Trackpoint>
            <Time>2022-09-19T10:51:48.000Z</Time>
            <Position>
              <LatitudeDegrees>49.316980205476284027099609375</LatitudeDegrees>
              <LongitudeDegrees>19.9421246163547039031982421875</LongitudeDegrees>
            </Position>
            <AltitudeMeters>1066</AltitudeMeters>
            <DistanceMeters>NAN</DistanceMeters>
          </Trackpoint>
          <Trackpoint>
            <Time>2022-09-19T10:51:49.000Z</Time>
            <Position>
              <LatitudeDegrees>49.31703443638980388641357421875</LatitudeDegrees>
              <LongitudeDegrees>19.9421762488782405853271484375</LongitudeDegrees>
            </Position>
            <AltitudeMeters>1065.800048828125</AltitudeMeters>
            <DistanceMeters>NAN</DistanceMeters>
          </Trackpoint>
          <Trackpoint>
            <Time>2022-09-19T10:51:52.000Z</Time>
            <Position>
              <LatitudeDegrees>49.3171979673206806182861328125</LatitudeDegrees>
              <LongitudeDegrees>19.94232184253633022308349609375</LongitudeDegrees>
            </Position>
            <AltitudeMeters>1064.5999755859375</AltitudeMeters>
            <DistanceMeters>NAN</DistanceMeters>
          </Trackpoint>
          <Trackpoint>
            <Time>2022-09-19T10:51:53.000Z</Time>
            <Position>
              <LatitudeDegrees>49.31725236587226390838623046875</LatitudeDegrees>
              <LongitudeDegrees>19.94236928410828113555908203125</LongitudeDegrees>
            </Position>
            <AltitudeMeters>1064.199951171875</AltitudeMeters>
            <DistanceMeters>NAN</DistanceMeters>
          </Trackpoint>
          <Trackpoint>
            <Time>2022-09-19T10:51:55.000Z</Time>
            <Position>
              <LatitudeDegrees>49.31736208498477935791015625</LatitudeDegrees>
              <LongitudeDegrees>19.94246617890894412994384765625</LongitudeDegrees>
            </Position>
            <AltitudeMeters>1063.199951171875</AltitudeMeters>
            <DistanceMeters>NAN</DistanceMeters>
          </Trackpoint>
          <Trackpoint>
            <Time>2022-09-19T10:51:57.000Z</Time>
            <Position>
              <LatitudeDegrees>49.31746023707091808319091796875</LatitudeDegrees>
              <LongitudeDegrees>19.94255418889224529266357421875</LongitudeDegrees>
            </Position>
            <AltitudeMeters>1062.199951171875</AltitudeMeters>
            <DistanceMeters>NAN</DistanceMeters>
          </Trackpoint>
          <Trackpoint>
            <Time>2022-09-19T10:51:58.000Z</Time>
            <Position>
              <LatitudeDegrees>49.31750357151031494140625</LatitudeDegrees>
              <LongitudeDegrees>19.94259618222713470458984375</LongitudeDegrees>
            </Position>
            <AltitudeMeters>1061.800048828125</AltitudeMeters>
            <DistanceMeters>NAN</DistanceMeters>
          </Trackpoint>
          <Trackpoint>
            <Time>2022-09-19T10:51:59.000Z</Time>
            <Position>
              <LatitudeDegrees>49.31754573248326778411865234375</LatitudeDegrees>
              <LongitudeDegrees>19.9426355771720409393310546875</LongitudeDegrees>
            </Position>
            <AltitudeMeters>1061</AltitudeMeters>
            <DistanceMeters>NAN</DistanceMeters>
          </Trackpoint>
          <Trackpoint>
            <Time>2022-09-19T10:52:01.000Z</Time>
            <Position>
              <LatitudeDegrees>49.31762837804853916168212890625</LatitudeDegrees>
              <LongitudeDegrees>19.94272551499307155609130859375</LongitudeDegrees>
            </Position>
            <AltitudeMeters>1060.199951171875</AltitudeMeters>
            <DistanceMeters>NAN</DistanceMeters>
          </Trackpoint>
          <Trackpoint>
            <Time>2022-09-19T10:52:02.000Z</Time>
            <Position>
              <LatitudeDegrees>49.31766693480312824249267578125</LatitudeDegrees>
              <LongitudeDegrees>19.9427814222872257232666015625</LongitudeDegrees>
            </Position>
            <AltitudeMeters>1059.5999755859375</AltitudeMeters>
            <DistanceMeters>NAN</DistanceMeters>
          </Trackpoint>
          <Trackpoint>
            <Time>2022-09-19T10:52:03.000Z</Time>
            <Position>
              <LatitudeDegrees>49.3177012167870998382568359375</LatitudeDegrees>
              <LongitudeDegrees>19.94284562766551971435546875</LongitudeDegrees>
            </Position>
            <AltitudeMeters>1059</AltitudeMeters>
            <DistanceMeters>NAN</DistanceMeters>
          </Trackpoint>
          <Trackpoint>
            <Time>2022-09-19T10:52:04.000Z</Time>
            <Position>
              <LatitudeDegrees>49.31772812269628047943115234375</LatitudeDegrees>
              <LongitudeDegrees>19.94291578419506549835205078125</LongitudeDegrees>
            </Position>
            <AltitudeMeters>1058.5999755859375</AltitudeMeters>
            <DistanceMeters>NAN</DistanceMeters>
          </Trackpoint>
          <Trackpoint>
            <Time>2022-09-19T10:52:06.000Z</Time>
            <Position>
              <LatitudeDegrees>49.31777120567858219146728515625</LatitudeDegrees>
              <LongitudeDegrees>19.9430603720247745513916015625</LongitudeDegrees>
            </Position>
            <AltitudeMeters>1057.5999755859375</AltitudeMeters>
            <DistanceMeters>NAN</DistanceMeters>
          </Trackpoint>
          <Trackpoint>
            <Time>2022-09-19T10:52:07.000Z</Time>
            <Position>
              <LatitudeDegrees>49.31779014877974987030029296875</LatitudeDegrees>
              <LongitudeDegrees>19.943136312067508697509765625</LongitudeDegrees>
            </Position>
            <AltitudeMeters>1056.800048828125</AltitudeMeters>
            <DistanceMeters>NAN</DistanceMeters>
          </Trackpoint>
          <Trackpoint>
            <Time>2022-09-19T10:52:08.000Z</Time>
            <Position>
              <LatitudeDegrees>49.3178105168044567108154296875</LatitudeDegrees>
              <LongitudeDegrees>19.94321216829121112823486328125</LongitudeDegrees>
            </Position>
            <AltitudeMeters>1056</AltitudeMeters>
            <DistanceMeters>NAN</DistanceMeters>
          </Trackpoint>
          <Trackpoint>
            <Time>2022-09-19T10:52:09.000Z</Time>
            <Position>
              <LatitudeDegrees>49.3178349919617176055908203125</LatitudeDegrees>
              <LongitudeDegrees>19.9432876892387866973876953125</LongitudeDegrees>
            </Position>
            <AltitudeMeters>1055</AltitudeMeters>
            <DistanceMeters>NAN</DistanceMeters>
          </Trackpoint>
          <Trackpoint>
            <Time>2022-09-19T10:52:11.000Z</Time>
            <Position>
              <LatitudeDegrees>49.3178980238735675811767578125</LatitudeDegrees>
              <LongitudeDegrees>19.94344132952392101287841796875</LongitudeDegrees>
            </Position>
            <AltitudeMeters>1053.5999755859375</AltitudeMeters>
            <DistanceMeters>NAN</DistanceMeters>
          </Trackpoint>
          <Trackpoint>
            <Time>2022-09-19T10:52:13.000Z</Time>
            <Position>
              <LatitudeDegrees>49.3179731257259845733642578125</LatitudeDegrees>
              <LongitudeDegrees>19.94360142387449741363525390625</LongitudeDegrees>
            </Position>
            <AltitudeMeters>1052.4000244140625</AltitudeMeters>
            <DistanceMeters>NAN</DistanceMeters>
          </Trackpoint>
          <Trackpoint>
            <Time>2022-09-19T10:52:15.000Z</Time>
            <Position>
              <LatitudeDegrees>49.3180596269667148590087890625</LatitudeDegrees>
              <LongitudeDegrees>19.943767972290515899658203125</LongitudeDegrees>
            </Position>
            <AltitudeMeters>1050.800048828125</AltitudeMeters>
            <DistanceMeters>NAN</DistanceMeters>
          </Trackpoint>
          <Trackpoint>
            <Time>2022-09-19T10:52:16.000Z</Time>
            <Position>
              <LatitudeDegrees>49.31811117567121982574462890625</LatitudeDegrees>
              <LongitudeDegrees>19.9438476003706455230712890625</LongitudeDegrees>
            </Position>
            <AltitudeMeters>1050.199951171875</AltitudeMeters>
            <DistanceMeters>NAN</DistanceMeters>
          </Trackpoint>
          <Trackpoint>
            <Time>2022-09-19T10:52:17.000Z</Time>
            <Position>
              <LatitudeDegrees>49.31816951371729373931884765625</LatitudeDegrees>
              <LongitudeDegrees>19.94392446242272853851318359375</LongitudeDegrees>
            </Position>
            <AltitudeMeters>1049</AltitudeMeters>
            <DistanceMeters>NAN</DistanceMeters>
          </Trackpoint>
          <Trackpoint>
            <Time>2022-09-19T10:52:18.000Z</Time>
            <Position>
              <LatitudeDegrees>49.3182265944778919219970703125</LatitudeDegrees>
              <LongitudeDegrees>19.9440055154263973236083984375</LongitudeDegrees>
            </Position>
            <AltitudeMeters>1048</AltitudeMeters>
            <DistanceMeters>NAN</DistanceMeters>
          </Trackpoint>
          <Trackpoint>
            <Time>2022-09-19T10:52:19.000Z</Time>
            <Position>
              <LatitudeDegrees>49.318287111818790435791015625</LatitudeDegrees>
              <LongitudeDegrees>19.944088496267795562744140625</LongitudeDegrees>
            </Position>
            <AltitudeMeters>1047.199951171875</AltitudeMeters>
            <DistanceMeters>NAN</DistanceMeters>
          </Trackpoint>
          <Trackpoint>
            <Time>2022-09-19T10:52:21.000Z</Time>
            <Position>
              <LatitudeDegrees>49.3184066377580165863037109375</LatitudeDegrees>
              <LongitudeDegrees>19.944258816540241241455078125</LongitudeDegrees>
            </Position>
            <AltitudeMeters>1046</AltitudeMeters>
            <DistanceMeters>NAN</DistanceMeters>
          </Trackpoint>
          <Trackpoint>
            <Time>2022-09-19T10:52:23.000Z</Time>
            <Position>
              <LatitudeDegrees>49.3185214698314666748046875</LatitudeDegrees>
              <LongitudeDegrees>19.94443927891552448272705078125</LongitudeDegrees>
            </Position>
            <AltitudeMeters>1044.800048828125</AltitudeMeters>
            <DistanceMeters>NAN</DistanceMeters>
          </Trackpoint>
          <Trackpoint>
            <Time>2022-09-19T10:52:24.000Z</Time>
            <Position>
              <LatitudeDegrees>49.3185749463737010955810546875</LatitudeDegrees>
              <LongitudeDegrees>19.944529049098491668701171875</LongitudeDegrees>
            </Position>
            <AltitudeMeters>1043.800048828125</AltitudeMeters>
            <DistanceMeters>NAN</DistanceMeters>
          </Trackpoint>
          <Trackpoint>
            <Time>2022-09-19T10:52:25.000Z</Time>
            <Position>
              <LatitudeDegrees>49.3186232261359691619873046875</LatitudeDegrees>
              <LongitudeDegrees>19.9446170590817928314208984375</LongitudeDegrees>
            </Position>
            <AltitudeMeters>1042.5999755859375</AltitudeMeters>
            <DistanceMeters>NAN</DistanceMeters>
          </Trackpoint>
          <Trackpoint>
            <Time>2022-09-19T10:52:27.000Z</Time>
            <Position>
              <LatitudeDegrees>49.31870721280574798583984375</LatitudeDegrees>
              <LongitudeDegrees>19.94478193111717700958251953125</LongitudeDegrees>
            </Position>
            <AltitudeMeters>1040.5999755859375</AltitudeMeters>
            <DistanceMeters>NAN</DistanceMeters>
          </Trackpoint>
          <Trackpoint>
            <Time>2022-09-19T10:52:29.000Z</Time>
            <Position>
              <LatitudeDegrees>49.3187737651169300079345703125</LatitudeDegrees>
              <LongitudeDegrees>19.9449100904166698455810546875</LongitudeDegrees>
            </Position>
            <AltitudeMeters>1039.4000244140625</AltitudeMeters>
            <DistanceMeters>NAN</DistanceMeters>
          </Trackpoint>
          <Trackpoint>
            <Time>2022-09-19T10:52:32.000Z</Time>
            <Position>
              <LatitudeDegrees>49.3188777007162570953369140625</LatitudeDegrees>
              <LongitudeDegrees>19.9450914748013019561767578125</LongitudeDegrees>
            </Position>
            <AltitudeMeters>1038.199951171875</AltitudeMeters>
            <DistanceMeters>NAN</DistanceMeters>
          </Trackpoint>
          <Trackpoint>
            <Time>2022-09-19T10:52:34.000Z</Time>
            <Position>
              <LatitudeDegrees>49.31894651614129543304443359375</LatitudeDegrees>
              <LongitudeDegrees>19.945236481726169586181640625</LongitudeDegrees>
            </Position>
            <AltitudeMeters>1037</AltitudeMeters>
            <DistanceMeters>NAN</DistanceMeters>
          </Trackpoint>
          <Trackpoint>
            <Time>2022-09-19T10:52:35.000Z</Time>
            <Position>
              <LatitudeDegrees>49.318969734013080596923828125</LatitudeDegrees>
              <LongitudeDegrees>19.94532742537558078765869140625</LongitudeDegrees>
            </Position>
            <AltitudeMeters>1036.5999755859375</AltitudeMeters>
            <DistanceMeters>NAN</DistanceMeters>
          </Trackpoint>
          <Trackpoint>
            <Time>2022-09-19T10:52:37.000Z</Time>
            <Position>
              <LatitudeDegrees>49.3190123140811920166015625</LatitudeDegrees>
              <LongitudeDegrees>19.94552272371947765350341796875</LongitudeDegrees>
            </Position>
            <AltitudeMeters>1035.4000244140625</AltitudeMeters>
            <DistanceMeters>NAN</DistanceMeters>
          </Trackpoint>
          <Trackpoint>
            <Time>2022-09-19T10:52:39.000Z</Time>
            <Position>
              <LatitudeDegrees>49.3190802074968814849853515625</LatitudeDegrees>
              <LongitudeDegrees>19.94570997543632984161376953125</LongitudeDegrees>
            </Position>
            <AltitudeMeters>1034.4000244140625</AltitudeMeters>
            <DistanceMeters>NAN</DistanceMeters>
          </Trackpoint>
          <Trackpoint>
            <Time>2022-09-19T10:52:40.000Z</Time>
            <Position>
              <LatitudeDegrees>49.3191274814307689666748046875</LatitudeDegrees>
              <LongitudeDegrees>19.9457922019064426422119140625</LongitudeDegrees>
            </Position>
            <AltitudeMeters>1034.199951171875</AltitudeMeters>
            <DistanceMeters>NAN</DistanceMeters>
          </Trackpoint>
          <Trackpoint>
            <Time>2022-09-19T10:52:41.000Z</Time>
            <Position>
              <LatitudeDegrees>49.3191791139543056488037109375</LatitudeDegrees>
              <LongitudeDegrees>19.94586713612079620361328125</LongitudeDegrees>
            </Position>
            <AltitudeMeters>1034</AltitudeMeters>
            <DistanceMeters>NAN</DistanceMeters>
          </Trackpoint>
          <Trackpoint>
            <Time>2022-09-19T10:52:43.000Z</Time>
            <Position>
              <LatitudeDegrees>49.31929017417132854461669921875</LatitudeDegrees>
              <LongitudeDegrees>19.94600082747638225555419921875</LongitudeDegrees>
            </Position>
            <AltitudeMeters>1033.4000244140625</AltitudeMeters>
            <DistanceMeters>NAN</DistanceMeters>
          </Trackpoint>
          <Trackpoint>
            <Time>2022-09-19T10:52:44.000Z</Time>
            <Position>
              <LatitudeDegrees>49.319351948797702789306640625</LatitudeDegrees>
              <LongitudeDegrees>19.9460641108453273773193359375</LongitudeDegrees>
            </Position>
            <AltitudeMeters>1033.199951171875</AltitudeMeters>
            <DistanceMeters>NAN</DistanceMeters>
          </Trackpoint>
          <Trackpoint>
            <Time>2022-09-19T10:52:45.000Z</Time>
            <Position>
              <LatitudeDegrees>49.31941053830087184906005859375</LatitudeDegrees>
              <LongitudeDegrees>19.94612789712846279144287109375</LongitudeDegrees>
            </Position>
            <AltitudeMeters>1033</AltitudeMeters>
            <DistanceMeters>NAN</DistanceMeters>
          </Trackpoint>
          <Trackpoint>
            <Time>2022-09-19T10:52:49.000Z</Time>
            <Position>
              <LatitudeDegrees>49.319666437804698944091796875</LatitudeDegrees>
              <LongitudeDegrees>19.94639812968671321868896484375</LongitudeDegrees>
            </Position>
            <AltitudeMeters>1032</AltitudeMeters>
            <DistanceMeters>NAN</DistanceMeters>
          </Trackpoint>
          <Trackpoint>
            <Time>2022-09-19T10:52:51.000Z</Time>
            <Position>
              <LatitudeDegrees>49.31980147026479244232177734375</LatitudeDegrees>
              <LongitudeDegrees>19.94653232395648956298828125</LongitudeDegrees>
            </Position>
            <AltitudeMeters>1031.800048828125</AltitudeMeters>
            <DistanceMeters>NAN</DistanceMeters>
          </Trackpoint>
          <Trackpoint>
            <Time>2022-09-19T10:52:53.000Z</Time>
            <Position>
              <LatitudeDegrees>49.31994237005710601806640625</LatitudeDegrees>
              <LongitudeDegrees>19.94667313992977142333984375</LongitudeDegrees>
            </Position>
            <AltitudeMeters>1031</AltitudeMeters>
            <DistanceMeters>NAN</DistanceMeters>
          </Trackpoint>
          <Trackpoint>
            <Time>2022-09-19T10:52:55.000Z</Time>
            <Position>
              <LatitudeDegrees>49.32006248272955417633056640625</LatitudeDegrees>
              <LongitudeDegrees>19.9468543566763401031494140625</LongitudeDegrees>
            </Position>
            <AltitudeMeters>1030.4000244140625</AltitudeMeters>
            <DistanceMeters>NAN</DistanceMeters>
          </Trackpoint>
          <Trackpoint>
            <Time>2022-09-19T10:52:57.000Z</Time>
            <Position>
              <LatitudeDegrees>49.32017379440367221832275390625</LatitudeDegrees>
              <LongitudeDegrees>19.947063066065311431884765625</LongitudeDegrees>
            </Position>
            <AltitudeMeters>1030</AltitudeMeters>
            <DistanceMeters>NAN</DistanceMeters>
          </Trackpoint>
          <Trackpoint>
            <Time>2022-09-19T10:52:59.000Z</Time>
            <Position>
              <LatitudeDegrees>49.3202667497098445892333984375</LatitudeDegrees>
              <LongitudeDegrees>19.9472732841968536376953125</LongitudeDegrees>
            </Position>
            <AltitudeMeters>1029.4000244140625</AltitudeMeters>
            <DistanceMeters>NAN</DistanceMeters>
          </Trackpoint>
          <Trackpoint>
            <Time>2022-09-19T10:53:00.000Z</Time>
            <Position>
              <LatitudeDegrees>49.3202989362180233001708984375</LatitudeDegrees>
              <LongitudeDegrees>19.9473703466355800628662109375</LongitudeDegrees>
            </Position>
            <AltitudeMeters>1029.199951171875</AltitudeMeters>
            <DistanceMeters>NAN</DistanceMeters>
          </Trackpoint>
          <Trackpoint>
            <Time>2022-09-19T10:53:01.000Z</Time>
            <Position>
              <LatitudeDegrees>49.32032818906009197235107421875</LatitudeDegrees>
              <LongitudeDegrees>19.94745877571403980255126953125</LongitudeDegrees>
            </Position>
            <AltitudeMeters>1029</AltitudeMeters>
            <DistanceMeters>NAN</DistanceMeters>
          </Trackpoint>
          <Trackpoint>
            <Time>2022-09-19T10:53:02.000Z</Time>
            <Position>
              <LatitudeDegrees>49.32035274803638458251953125</LatitudeDegrees>
              <LongitudeDegrees>19.9475265853106975555419921875</LongitudeDegrees>
            </Position>
            <AltitudeMeters>1028.800048828125</AltitudeMeters>
            <DistanceMeters>NAN</DistanceMeters>
          </Trackpoint>
          <Trackpoint>
            <Time>2022-09-19T10:53:04.000Z</Time>
            <Position>
              <LatitudeDegrees>49.32041175663471221923828125</LatitudeDegrees>
              <LongitudeDegrees>19.9477059580385684967041015625</LongitudeDegrees>
            </Position>
            <AltitudeMeters>1028.199951171875</AltitudeMeters>
            <DistanceMeters>NAN</DistanceMeters>
          </Trackpoint>
          <Trackpoint>
            <Time>2022-09-19T10:53:05.000Z</Time>
            <Position>
              <LatitudeDegrees>49.32043748907744884490966796875</LatitudeDegrees>
              <LongitudeDegrees>19.947782568633556365966796875</LongitudeDegrees>
            </Position>
            <AltitudeMeters>1028</AltitudeMeters>
            <DistanceMeters>NAN</DistanceMeters>
          </Trackpoint>
          <Trackpoint>
            <Time>2022-09-19T10:53:07.000Z</Time>
            <Position>
              <LatitudeDegrees>49.32049834169447422027587890625</LatitudeDegrees>
              <LongitudeDegrees>19.947923719882965087890625</LongitudeDegrees>
            </Position>
            <AltitudeMeters>1027.800048828125</AltitudeMeters>
            <DistanceMeters>NAN</DistanceMeters>
          </Trackpoint>
          <Trackpoint>
            <Time>2022-09-19T10:53:09.000Z</Time>
            <Position>
              <LatitudeDegrees>49.32054678909480571746826171875</LatitudeDegrees>
              <LongitudeDegrees>19.94807132519781589508056640625</LongitudeDegrees>
            </Position>
            <AltitudeMeters>1027.5999755859375</AltitudeMeters>
            <DistanceMeters>NAN</DistanceMeters>
          </Trackpoint>
          <Trackpoint>
            <Time>2022-09-19T10:53:12.000Z</Time>
            <Position>
              <LatitudeDegrees>49.32061082683503627777099609375</LatitudeDegrees>
              <LongitudeDegrees>19.94828456081449985504150390625</LongitudeDegrees>
            </Position>
            <AltitudeMeters>1027.4000244140625</AltitudeMeters>
            <DistanceMeters>NAN</DistanceMeters>
          </Trackpoint>
          <Trackpoint>
            <Time>2022-09-19T10:53:16.000Z</Time>
            <Position>
              <LatitudeDegrees>49.32071291841566562652587890625</LatitudeDegrees>
              <LongitudeDegrees>19.9485602416098117828369140625</LongitudeDegrees>
            </Position>
            <AltitudeMeters>1027.199951171875</AltitudeMeters>
            <DistanceMeters>NAN</DistanceMeters>
          </Trackpoint>
          <Trackpoint>
            <Time>2022-09-19T10:53:20.000Z</Time>
            <Position>
              <LatitudeDegrees>49.32082741521298885345458984375</LatitudeDegrees>
              <LongitudeDegrees>19.94885168038308620452880859375</LongitudeDegrees>
            </Position>
            <AltitudeMeters>1026.800048828125</AltitudeMeters>
            <DistanceMeters>NAN</DistanceMeters>
          </Trackpoint>
          <Trackpoint>
            <Time>2022-09-19T10:53:25.000Z</Time>
            <Position>
              <LatitudeDegrees>49.32098801247775554656982421875</LatitudeDegrees>
              <LongitudeDegrees>19.9492232501506805419921875</LongitudeDegrees>
            </Position>
            <AltitudeMeters>1026.199951171875</AltitudeMeters>
            <DistanceMeters>NAN</DistanceMeters>
          </Trackpoint>
          <Trackpoint>
            <Time>2022-09-19T10:53:28.000Z</Time>
            <Position>
              <LatitudeDegrees>49.32107769884169101715087890625</LatitudeDegrees>
              <LongitudeDegrees>19.94943539611995220184326171875</LongitudeDegrees>
            </Position>
            <AltitudeMeters>1026</AltitudeMeters>
            <DistanceMeters>NAN</DistanceMeters>
          </Trackpoint>
          <Trackpoint>
            <Time>2022-09-19T10:53:32.000Z</Time>
            <Position>
              <LatitudeDegrees>49.3211957998573780059814453125</LatitudeDegrees>
              <LongitudeDegrees>19.94968257844448089599609375</LongitudeDegrees>
            </Position>
            <AltitudeMeters>1025.5999755859375</AltitudeMeters>
            <DistanceMeters>NAN</DistanceMeters>
          </Trackpoint>
          <Trackpoint>
            <Time>2022-09-19T10:53:38.000Z</Time>
            <Position>
              <LatitudeDegrees>49.32135765440762042999267578125</LatitudeDegrees>
              <LongitudeDegrees>19.949972927570343017578125</LongitudeDegrees>
            </Position>
            <AltitudeMeters>1025.199951171875</AltitudeMeters>
            <DistanceMeters>NAN</DistanceMeters>
          </Trackpoint>
          <Trackpoint>
            <Time>2022-09-19T10:53:44.000Z</Time>
            <Position>
              <LatitudeDegrees>49.321475923061370849609375</LatitudeDegrees>
              <LongitudeDegrees>19.95016026310622692108154296875</LongitudeDegrees>
            </Position>
            <AltitudeMeters>1025.199951171875</AltitudeMeters>
            <DistanceMeters>NAN</DistanceMeters>
          </Trackpoint>
          <Trackpoint>
            <Time>2022-09-19T10:53:48.000Z</Time>
            <Position>
              <LatitudeDegrees>49.32153685949742794036865234375</LatitudeDegrees>
              <LongitudeDegrees>19.9502533860504627227783203125</LongitudeDegrees>
            </Position>
            <AltitudeMeters>1025.4000244140625</AltitudeMeters>
            <DistanceMeters>NAN</DistanceMeters>
          </Trackpoint>
          <Trackpoint>
            <Time>2022-09-19T10:53:49.000Z</Time>
            <Position>
              <LatitudeDegrees>49.32153685949742794036865234375</LatitudeDegrees>
              <LongitudeDegrees>19.9502533860504627227783203125</LongitudeDegrees>
            </Position>
            <AltitudeMeters>1025.4000244140625</AltitudeMeters>
            <DistanceMeters>NAN</DistanceMeters>
          </Trackpoint>
          <Trackpoint>
            <Time>2022-09-19T10:53:54.000Z</Time>
            <Position>
              <LatitudeDegrees>49.32153400965034961700439453125</LatitudeDegrees>
              <LongitudeDegrees>19.95025062002241611480712890625</LongitudeDegrees>
            </Position>
            <AltitudeMeters>1025.4000244140625</AltitudeMeters>
            <DistanceMeters>NAN</DistanceMeters>
          </Trackpoint>
          <Trackpoint>
            <Time>2022-09-19T10:54:01.000Z</Time>
            <Position>
              <LatitudeDegrees>49.32153400965034961700439453125</LatitudeDegrees>
              <LongitudeDegrees>19.95025062002241611480712890625</LongitudeDegrees>
            </Position>
            <AltitudeMeters>1025.199951171875</AltitudeMeters>
            <DistanceMeters>NAN</DistanceMeters>
          </Trackpoint>
          <Trackpoint>
            <Time>2022-09-19T10:54:02.000Z</Time>
            <Position>
              <LatitudeDegrees>49.32153400965034961700439453125</LatitudeDegrees>
              <LongitudeDegrees>19.95025062002241611480712890625</LongitudeDegrees>
            </Position>
            <AltitudeMeters>1025.199951171875</AltitudeMeters>
            <DistanceMeters>NAN</DistanceMeters>
          </Trackpoint>
          <Trackpoint>
            <Time>2022-09-19T10:54:10.000Z</Time>
            <Position>
              <LatitudeDegrees>49.3215632624924182891845703125</LatitudeDegrees>
              <LongitudeDegrees>19.95027325116097927093505859375</LongitudeDegrees>
            </Position>
            <AltitudeMeters>1025.199951171875</AltitudeMeters>
            <DistanceMeters>NAN</DistanceMeters>
          </Trackpoint>
          <Trackpoint>
            <Time>2022-09-19T10:54:12.000Z</Time>
            <Position>
              <LatitudeDegrees>49.32158916257321834564208984375</LatitudeDegrees>
              <LongitudeDegrees>19.95030845515429973602294921875</LongitudeDegrees>
            </Position>
            <AltitudeMeters>1025.4000244140625</AltitudeMeters>
            <DistanceMeters>NAN</DistanceMeters>
          </Trackpoint>
          <Trackpoint>
            <Time>2022-09-19T10:54:16.000Z</Time>
            <Position>
              <LatitudeDegrees>49.32165118865668773651123046875</LatitudeDegrees>
              <LongitudeDegrees>19.9504012428224086761474609375</LongitudeDegrees>
            </Position>
            <AltitudeMeters>1025.199951171875</AltitudeMeters>
            <DistanceMeters>NAN</DistanceMeters>
          </Trackpoint>
          <Trackpoint>
            <Time>2022-09-19T10:54:22.000Z</Time>
            <Position>
              <LatitudeDegrees>49.3217360973358154296875</LatitudeDegrees>
              <LongitudeDegrees>19.9505199305713176727294921875</LongitudeDegrees>
            </Position>
            <AltitudeMeters>1025.199951171875</AltitudeMeters>
            <DistanceMeters>NAN</DistanceMeters>
          </Trackpoint>
          <Trackpoint>
            <Time>2022-09-19T10:54:23.000Z</Time>
            <Position>
              <LatitudeDegrees>49.32175361551344394683837890625</LatitudeDegrees>
              <LongitudeDegrees>19.95055153034627437591552734375</LongitudeDegrees>
            </Position>
            <AltitudeMeters>1025.199951171875</AltitudeMeters>
            <DistanceMeters>NAN</DistanceMeters>
          </Trackpoint>
          <Trackpoint>
            <Time>2022-09-19T10:54:30.000Z</Time>
            <Position>
              <LatitudeDegrees>49.32188487611711025238037109375</LatitudeDegrees>
              <LongitudeDegrees>19.9507703818380832672119140625</LongitudeDegrees>
            </Position>
            <AltitudeMeters>1025.4000244140625</AltitudeMeters>
            <DistanceMeters>NAN</DistanceMeters>
          </Trackpoint>
          <Trackpoint>
            <Time>2022-09-19T10:54:33.000Z</Time>
            <Position>
              <LatitudeDegrees>49.32194807566702365875244140625</LatitudeDegrees>
              <LongitudeDegrees>19.9508754909038543701171875</LongitudeDegrees>
            </Position>
            <AltitudeMeters>1025.4000244140625</AltitudeMeters>
            <DistanceMeters>NAN</DistanceMeters>
          </Trackpoint>
          <Trackpoint>
            <Time>2022-09-19T10:54:37.000Z</Time>
            <Position>
              <LatitudeDegrees>49.3220326490700244903564453125</LatitudeDegrees>
              <LongitudeDegrees>19.95101052336394786834716796875</LongitudeDegrees>
            </Position>
            <AltitudeMeters>1025.800048828125</AltitudeMeters>
            <DistanceMeters>NAN</DistanceMeters>
          </Trackpoint>
          <Trackpoint>
            <Time>2022-09-19T10:54:45.000Z</Time>
            <Position>
              <LatitudeDegrees>49.32220975868403911590576171875</LatitudeDegrees>
              <LongitudeDegrees>19.95123985223472118377685546875</LongitudeDegrees>
            </Position>
            <AltitudeMeters>1026.4000244140625</AltitudeMeters>
            <DistanceMeters>NAN</DistanceMeters>
          </Trackpoint>
          <Trackpoint>
            <Time>2022-09-19T10:54:46.000Z</Time>
            <Position>
              <LatitudeDegrees>49.32223071344196796417236328125</LatitudeDegrees>
              <LongitudeDegrees>19.95126969181001186370849609375</LongitudeDegrees>
            </Position>
            <AltitudeMeters>1026.4000244140625</AltitudeMeters>
            <DistanceMeters>NAN</DistanceMeters>
          </Trackpoint>
          <Trackpoint>
            <Time>2022-09-19T10:54:56.000Z</Time>
            <Position>
              <LatitudeDegrees>49.32245886884629726409912109375</LatitudeDegrees>
              <LongitudeDegrees>19.95156087912619113922119140625</LongitudeDegrees>
            </Position>
            <AltitudeMeters>1026.199951171875</AltitudeMeters>
            <DistanceMeters>NAN</DistanceMeters>
          </Trackpoint>
          <Trackpoint>
            <Time>2022-09-19T10:55:06.000Z</Time>
            <Position>
              <LatitudeDegrees>49.322685264050960540771484375</LatitudeDegrees>
              <LongitudeDegrees>19.951819293200969696044921875</LongitudeDegrees>
            </Position>
            <AltitudeMeters>1026.4000244140625</AltitudeMeters>
            <DistanceMeters>NAN</DistanceMeters>
          </Trackpoint>
          <Trackpoint>
            <Time>2022-09-19T10:55:07.000Z</Time>
            <Position>
              <LatitudeDegrees>49.3227042071521282196044921875</LatitudeDegrees>
              <LongitudeDegrees>19.95184318162500858306884765625</LongitudeDegrees>
            </Position>
            <AltitudeMeters>1026.4000244140625</AltitudeMeters>
            <DistanceMeters>NAN</DistanceMeters>
          </Trackpoint>
          <Trackpoint>
            <Time>2022-09-19T10:55:14.000Z</Time>
            <Position>
              <LatitudeDegrees>49.3228758685290813446044921875</LatitudeDegrees>
              <LongitudeDegrees>19.95201886631548404693603515625</LongitudeDegrees>
            </Position>
            <AltitudeMeters>1026.199951171875</AltitudeMeters>
            <DistanceMeters>NAN</DistanceMeters>
          </Trackpoint>
          <Trackpoint>
            <Time>2022-09-19T10:55:22.000Z</Time>
            <Position>
              <LatitudeDegrees>49.3231031857430934906005859375</LatitudeDegrees>
              <LongitudeDegrees>19.95230619795620441436767578125</LongitudeDegrees>
            </Position>
            <AltitudeMeters>1025.800048828125</AltitudeMeters>
            <DistanceMeters>NAN</DistanceMeters>
          </Trackpoint>
          <Trackpoint>
            <Time>2022-09-19T10:55:26.000Z</Time>
            <Position>
              <LatitudeDegrees>49.32319588959217071533203125</LatitudeDegrees>
              <LongitudeDegrees>19.952479787170886993408203125</LongitudeDegrees>
            </Position>
            <AltitudeMeters>1025.4000244140625</AltitudeMeters>
            <DistanceMeters>NAN</DistanceMeters>
          </Trackpoint>
          <Trackpoint>
            <Time>2022-09-19T10:55:29.000Z</Time>
            <Position>
              <LatitudeDegrees>49.32324760593473911285400390625</LatitudeDegrees>
              <LongitudeDegrees>19.95258204638957977294921875</LongitudeDegrees>
            </Position>
            <AltitudeMeters>1025.199951171875</AltitudeMeters>
            <DistanceMeters>NAN</DistanceMeters>
          </Trackpoint>
          <Trackpoint>
            <Time>2022-09-19T10:55:34.000Z</Time>
            <Position>
              <LatitudeDegrees>49.32329647243022918701171875</LatitudeDegrees>
              <LongitudeDegrees>19.9526827968657016754150390625</LongitudeDegrees>
            </Position>
            <AltitudeMeters>1025.199951171875</AltitudeMeters>
            <DistanceMeters>NAN</DistanceMeters>
          </Trackpoint>
          <Trackpoint>
            <Time>2022-09-19T10:55:36.000Z</Time>
            <Position>
              <LatitudeDegrees>49.32330661453306674957275390625</LatitudeDegrees>
              <LongitudeDegrees>19.95270567946135997772216796875</LongitudeDegrees>
            </Position>
            <AltitudeMeters>1025</AltitudeMeters>
            <DistanceMeters>NAN</DistanceMeters>
          </Trackpoint>
          <Trackpoint>
            <Time>2022-09-19T10:55:39.000Z</Time>
            <Position>
              <LatitudeDegrees>49.32333142496645450592041015625</LatitudeDegrees>
              <LongitudeDegrees>19.95274960063397884368896484375</LongitudeDegrees>
            </Position>
            <AltitudeMeters>1024.800048828125</AltitudeMeters>
            <DistanceMeters>NAN</DistanceMeters>
          </Trackpoint>
          <Trackpoint>
            <Time>2022-09-19T10:55:42.000Z</Time>
            <Position>
              <LatitudeDegrees>49.32334064505994319915771484375</LatitudeDegrees>
              <LongitudeDegrees>19.95278765447437763214111328125</LongitudeDegrees>
            </Position>
            <AltitudeMeters>1024.5999755859375</AltitudeMeters>
            <DistanceMeters>NAN</DistanceMeters>
          </Trackpoint>
          <Trackpoint>
            <Time>2022-09-19T10:55:45.000Z</Time>
            <Position>
              <LatitudeDegrees>49.32334299199283123016357421875</LatitudeDegrees>
              <LongitudeDegrees>19.95280911214649677276611328125</LongitudeDegrees>
            </Position>
            <AltitudeMeters>1024.4000244140625</AltitudeMeters>
            <DistanceMeters>NAN</DistanceMeters>
          </Trackpoint>
          <Trackpoint>
            <Time>2022-09-19T10:55:48.000Z</Time>
            <Position>
              <LatitudeDegrees>49.32336461730301380157470703125</LatitudeDegrees>
              <LongitudeDegrees>19.95286409743130207061767578125</LongitudeDegrees>
            </Position>
            <AltitudeMeters>1024.4000244140625</AltitudeMeters>
            <DistanceMeters>NAN</DistanceMeters>
          </Trackpoint>
          <Trackpoint>
            <Time>2022-09-19T10:55:50.000Z</Time>
            <Position>
              <LatitudeDegrees>49.3233948759734630584716796875</LatitudeDegrees>
              <LongitudeDegrees>19.9528987146914005279541015625</LongitudeDegrees>
            </Position>
            <AltitudeMeters>1024.5999755859375</AltitudeMeters>
            <DistanceMeters>NAN</DistanceMeters>
          </Trackpoint>
          <Trackpoint>
            <Time>2022-09-19T10:55:51.000Z</Time>
            <Position>
              <LatitudeDegrees>49.32341658510267734527587890625</LatitudeDegrees>
              <LongitudeDegrees>19.95290793478488922119140625</LongitudeDegrees>
            </Position>
            <AltitudeMeters>1024.5999755859375</AltitudeMeters>
            <DistanceMeters>NAN</DistanceMeters>
          </Trackpoint>
          <Trackpoint>
            <Time>2022-09-19T10:55:55.000Z</Time>
            <Position>
              <LatitudeDegrees>49.32357684709131717681884765625</LatitudeDegrees>
              <LongitudeDegrees>19.95290148071944713592529296875</LongitudeDegrees>
            </Position>
            <AltitudeMeters>1024.4000244140625</AltitudeMeters>
            <DistanceMeters>NAN</DistanceMeters>
          </Trackpoint>
          <Trackpoint>
            <Time>2022-09-19T10:55:57.000Z</Time>
            <Position>
              <LatitudeDegrees>49.32366385124623775482177734375</LatitudeDegrees>
              <LongitudeDegrees>19.95290030725300312042236328125</LongitudeDegrees>
            </Position>
            <AltitudeMeters>1024.199951171875</AltitudeMeters>
            <DistanceMeters>NAN</DistanceMeters>
          </Trackpoint>
          <Trackpoint>
            <Time>2022-09-19T10:56:01.000Z</Time>
            <Position>
              <LatitudeDegrees>49.32383350096642971038818359375</LatitudeDegrees>
              <LongitudeDegrees>19.9529087729752063751220703125</LongitudeDegrees>
            </Position>
            <AltitudeMeters>1024</AltitudeMeters>
            <DistanceMeters>NAN</DistanceMeters>
          </Trackpoint>
          <Trackpoint>
            <Time>2022-09-19T10:56:10.000Z</Time>
            <Position>
              <LatitudeDegrees>49.32418235577642917633056640625</LatitudeDegrees>
              <LongitudeDegrees>19.952947832643985748291015625</LongitudeDegrees>
            </Position>
            <AltitudeMeters>1024</AltitudeMeters>
            <DistanceMeters>NAN</DistanceMeters>
          </Trackpoint>
          <Trackpoint>
            <Time>2022-09-19T10:56:19.000Z</Time>
            <Position>
              <LatitudeDegrees>49.32453121058642864227294921875</LatitudeDegrees>
              <LongitudeDegrees>19.95294657535851001739501953125</LongitudeDegrees>
            </Position>
            <AltitudeMeters>1024</AltitudeMeters>
            <DistanceMeters>NAN</DistanceMeters>
          </Trackpoint>
          <Trackpoint>
            <Time>2022-09-19T10:56:23.000Z</Time>
            <Position>
              <LatitudeDegrees>49.324696250259876251220703125</LatitudeDegrees>
              <LongitudeDegrees>19.95294406078755855560302734375</LongitudeDegrees>
            </Position>
            <AltitudeMeters>1025</AltitudeMeters>
            <DistanceMeters>NAN</DistanceMeters>
          </Trackpoint>
          <Trackpoint>
            <Time>2022-09-19T10:56:26.000Z</Time>
            <Position>
              <LatitudeDegrees>49.32479993440210819244384765625</LatitudeDegrees>
              <LongitudeDegrees>19.95294607244431972503662109375</LongitudeDegrees>
            </Position>
            <AltitudeMeters>1025.5999755859375</AltitudeMeters>
            <DistanceMeters>NAN</DistanceMeters>
          </Trackpoint>
          <Trackpoint>
            <Time>2022-09-19T10:56:29.000Z</Time>
            <Position>
              <LatitudeDegrees>49.3249130062758922576904296875</LatitudeDegrees>
              <LongitudeDegrees>19.95294791646301746368408203125</LongitudeDegrees>
            </Position>
            <AltitudeMeters>1024.800048828125</AltitudeMeters>
            <DistanceMeters>NAN</DistanceMeters>
          </Trackpoint>
          <Trackpoint>
            <Time>2022-09-19T10:56:34.000Z</Time>
            <Position>
              <LatitudeDegrees>49.32508760131895542144775390625</LatitudeDegrees>
              <LongitudeDegrees>19.9529376067221164703369140625</LongitudeDegrees>
            </Position>
            <AltitudeMeters>1024.4000244140625</AltitudeMeters>
            <DistanceMeters>NAN</DistanceMeters>
          </Trackpoint>
          <Trackpoint>
            <Time>2022-09-19T10:56:42.000Z</Time>
            <Position>
              <LatitudeDegrees>49.3253823928534984588623046875</LatitudeDegrees>
              <LongitudeDegrees>19.952957890927791595458984375</LongitudeDegrees>
            </Position>
            <AltitudeMeters>1024.800048828125</AltitudeMeters>
            <DistanceMeters>NAN</DistanceMeters>
          </Trackpoint>
          <Trackpoint>
            <Time>2022-09-19T10:56:49.000Z</Time>
            <Position>
              <LatitudeDegrees>49.3256388790905475616455078125</LatitudeDegrees>
              <LongitudeDegrees>19.9529595673084259033203125</LongitudeDegrees>
            </Position>
            <AltitudeMeters>1025.800048828125</AltitudeMeters>
            <DistanceMeters>NAN</DistanceMeters>
          </Trackpoint>
          <Trackpoint>
            <Time>2022-09-19T10:56:50.000Z</Time>
            <Position>
              <LatitudeDegrees>49.325671233236789703369140625</LatitudeDegrees>
              <LongitudeDegrees>19.9529607407748699188232421875</LongitudeDegrees>
            </Position>
            <AltitudeMeters>1025.800048828125</AltitudeMeters>
            <DistanceMeters>NAN</DistanceMeters>
          </Trackpoint>
          <Trackpoint>
            <Time>2022-09-19T10:56:56.000Z</Time>
            <Position>
              <LatitudeDegrees>49.32583241723477840423583984375</LatitudeDegrees>
              <LongitudeDegrees>19.95292059145867824554443359375</LongitudeDegrees>
            </Position>
            <AltitudeMeters>1026</AltitudeMeters>
            <DistanceMeters>NAN</DistanceMeters>
          </Trackpoint>
          <Trackpoint>
            <Time>2022-09-19T10:57:04.000Z</Time>
            <Position>
              <LatitudeDegrees>49.32610876858234405517578125</LatitudeDegrees>
              <LongitudeDegrees>19.95277524925768375396728515625</LongitudeDegrees>
            </Position>
            <AltitudeMeters>1026.4000244140625</AltitudeMeters>
            <DistanceMeters>NAN</DistanceMeters>
          </Trackpoint>
          <Trackpoint>
            <Time>2022-09-19T10:57:08.000Z</Time>
            <Position>
              <LatitudeDegrees>49.326218068599700927734375</LatitudeDegrees>
              <LongitudeDegrees>19.9526650272309780120849609375</LongitudeDegrees>
            </Position>
            <AltitudeMeters>1026.800048828125</AltitudeMeters>
            <DistanceMeters>NAN</DistanceMeters>
          </Trackpoint>
          <Trackpoint>
            <Time>2022-09-19T10:57:13.000Z</Time>
            <Position>
              <LatitudeDegrees>49.32636869139969348907470703125</LatitudeDegrees>
              <LongitudeDegrees>19.9524983949959278106689453125</LongitudeDegrees>
            </Position>
            <AltitudeMeters>1026.5999755859375</AltitudeMeters>
            <DistanceMeters>NAN</DistanceMeters>
          </Trackpoint>
          <Trackpoint>
            <Time>2022-09-19T10:57:20.000Z</Time>
            <Position>
              <LatitudeDegrees>49.326570443809032440185546875</LatitudeDegrees>
              <LongitudeDegrees>19.95225490070879459381103515625</LongitudeDegrees>
            </Position>
            <AltitudeMeters>1026</AltitudeMeters>
            <DistanceMeters>NAN</DistanceMeters>
          </Trackpoint>
          <Trackpoint>
            <Time>2022-09-19T10:57:23.000Z</Time>
            <Position>
              <LatitudeDegrees>49.32665971107780933380126953125</LatitudeDegrees>
              <LongitudeDegrees>19.9521580897271633148193359375</LongitudeDegrees>
            </Position>
            <AltitudeMeters>1025.800048828125</AltitudeMeters>
            <DistanceMeters>NAN</DistanceMeters>
          </Trackpoint>
          <Trackpoint>
            <Time>2022-09-19T10:57:27.000Z</Time>
            <Position>
              <LatitudeDegrees>49.3267811648547649383544921875</LatitudeDegrees>
              <LongitudeDegrees>19.95201610028743743896484375</LongitudeDegrees>
            </Position>
            <AltitudeMeters>1025.800048828125</AltitudeMeters>
            <DistanceMeters>NAN</DistanceMeters>
          </Trackpoint>
          <Trackpoint>
            <Time>2022-09-19T10:57:29.000Z</Time>
            <Position>
              <LatitudeDegrees>49.32684344239532947540283203125</LatitudeDegrees>
              <LongitudeDegrees>19.951960109174251556396484375</LongitudeDegrees>
            </Position>
            <AltitudeMeters>1025.800048828125</AltitudeMeters>
            <DistanceMeters>NAN</DistanceMeters>
          </Trackpoint>
          <Trackpoint>
            <Time>2022-09-19T10:57:33.000Z</Time>
            <Position>
              <LatitudeDegrees>49.32696917094290256500244140625</LatitudeDegrees>
              <LongitudeDegrees>19.95183664374053478240966796875</LongitudeDegrees>
            </Position>
            <AltitudeMeters>1025.5999755859375</AltitudeMeters>
            <DistanceMeters>NAN</DistanceMeters>
          </Trackpoint>
          <Trackpoint>
            <Time>2022-09-19T10:57:34.000Z</Time>
            <Position>
              <LatitudeDegrees>49.3270007707178592681884765625</LatitudeDegrees>
              <LongitudeDegrees>19.95179976336658000946044921875</LongitudeDegrees>
            </Position>
            <AltitudeMeters>1025.5999755859375</AltitudeMeters>
            <DistanceMeters>NAN</DistanceMeters>
          </Trackpoint>
          <Trackpoint>
            <Time>2022-09-19T10:57:40.000Z</Time>
            <Position>
              <LatitudeDegrees>49.32719514705240726470947265625</LatitudeDegrees>
              <LongitudeDegrees>19.95158770121634006500244140625</LongitudeDegrees>
            </Position>
            <AltitudeMeters>1025.199951171875</AltitudeMeters>
            <DistanceMeters>NAN</DistanceMeters>
          </Trackpoint>
          <Trackpoint>
            <Time>2022-09-19T10:57:43.000Z</Time>
            <Position>
              <LatitudeDegrees>49.3272911198437213897705078125</LatitudeDegrees>
              <LongitudeDegrees>19.95150103233754634857177734375</LongitudeDegrees>
            </Position>
            <AltitudeMeters>1025</AltitudeMeters>
            <DistanceMeters>NAN</DistanceMeters>
          </Trackpoint>
          <Trackpoint>
            <Time>2022-09-19T10:57:49.000Z</Time>
            <Position>
              <LatitudeDegrees>49.3274788744747638702392578125</LatitudeDegrees>
              <LongitudeDegrees>19.9513051472604274749755859375</LongitudeDegrees>
            </Position>
            <AltitudeMeters>1024.800048828125</AltitudeMeters>
            <DistanceMeters>NAN</DistanceMeters>
          </Trackpoint>
          <Trackpoint>
            <Time>2022-09-19T10:57:50.000Z</Time>
            <Position>
              <LatitudeDegrees>49.32750997133553028106689453125</LatitudeDegrees>
              <LongitudeDegrees>19.9512779898941516876220703125</LongitudeDegrees>
            </Position>
            <AltitudeMeters>1024.5999755859375</AltitudeMeters>
            <DistanceMeters>NAN</DistanceMeters>
          </Trackpoint>
          <Trackpoint>
            <Time>2022-09-19T10:57:56.000Z</Time>
            <Position>
              <LatitudeDegrees>49.3276830576360225677490234375</LatitudeDegrees>
              <LongitudeDegrees>19.95111563242971897125244140625</LongitudeDegrees>
            </Position>
            <AltitudeMeters>1024.4000244140625</AltitudeMeters>
            <DistanceMeters>NAN</DistanceMeters>
          </Trackpoint>
          <Trackpoint>
            <Time>2022-09-19T10:57:57.000Z</Time>
            <Position>
              <LatitudeDegrees>49.3277107179164886474609375</LatitudeDegrees>
              <LongitudeDegrees>19.95109182782471179962158203125</LongitudeDegrees>
            </Position>
            <AltitudeMeters>1024.4000244140625</AltitudeMeters>
            <DistanceMeters>NAN</DistanceMeters>
          </Trackpoint>
          <Trackpoint>
            <Time>2022-09-19T10:58:05.000Z</Time>
            <Position>
              <LatitudeDegrees>49.32794314809143543243408203125</LatitudeDegrees>
              <LongitudeDegrees>19.95089569129049777984619140625</LongitudeDegrees>
            </Position>
            <AltitudeMeters>1024.4000244140625</AltitudeMeters>
            <DistanceMeters>NAN</DistanceMeters>
          </Trackpoint>
          <Trackpoint>
            <Time>2022-09-19T10:58:08.000Z</Time>
            <Position>
              <LatitudeDegrees>49.3280414678156375885009765625</LatitudeDegrees>
              <LongitudeDegrees>19.95080835185945034027099609375</LongitudeDegrees>
            </Position>
            <AltitudeMeters>1024.199951171875</AltitudeMeters>
            <DistanceMeters>NAN</DistanceMeters>
          </Trackpoint>
          <Trackpoint>
            <Time>2022-09-19T10:58:10.000Z</Time>
            <Position>
              <LatitudeDegrees>49.3281157314777374267578125</LatitudeDegrees>
              <LongitudeDegrees>19.95074934326112270355224609375</LongitudeDegrees>
            </Position>
            <AltitudeMeters>1023.5999755859375</AltitudeMeters>
            <DistanceMeters>NAN</DistanceMeters>
          </Trackpoint>
          <Trackpoint>
            <Time>2022-09-19T10:58:11.000Z</Time>
            <Position>
              <LatitudeDegrees>49.32815663516521453857421875</LatitudeDegrees>
              <LongitudeDegrees>19.9507172405719757080078125</LongitudeDegrees>
            </Position>
            <AltitudeMeters>1023.4000244140625</AltitudeMeters>
            <DistanceMeters>NAN</DistanceMeters>
          </Trackpoint>
          <Trackpoint>
            <Time>2022-09-19T10:58:12.000Z</Time>
            <Position>
              <LatitudeDegrees>49.32819996960461139678955078125</LatitudeDegrees>
              <LongitudeDegrees>19.9506842158734798431396484375</LongitudeDegrees>
            </Position>
            <AltitudeMeters>1023.20001220703125</AltitudeMeters>
            <DistanceMeters>NAN</DistanceMeters>
          </Trackpoint>
          <Trackpoint>
            <Time>2022-09-19T10:58:13.000Z</Time>
            <Position>
              <LatitudeDegrees>49.32824338786303997039794921875</LatitudeDegrees>
              <LongitudeDegrees>19.9506501853466033935546875</LongitudeDegrees>
            </Position>
            <AltitudeMeters>1023</AltitudeMeters>
            <DistanceMeters>NAN</DistanceMeters>
          </Trackpoint>
          <Trackpoint>
            <Time>2022-09-19T10:58:16.000Z</Time>
            <Position>
              <LatitudeDegrees>49.328369200229644775390625</LatitudeDegrees>
              <LongitudeDegrees>19.9505477584898471832275390625</LongitudeDegrees>
            </Position>
            <AltitudeMeters>1023</AltitudeMeters>
            <DistanceMeters>NAN</DistanceMeters>
          </Trackpoint>
          <Trackpoint>
            <Time>2022-09-19T10:58:19.000Z</Time>
            <Position>
              <LatitudeDegrees>49.328502304852008819580078125</LatitudeDegrees>
              <LongitudeDegrees>19.95042948983609676361083984375</LongitudeDegrees>
            </Position>
            <AltitudeMeters>1022.4000244140625</AltitudeMeters>
            <DistanceMeters>NAN</DistanceMeters>
          </Trackpoint>
          <Trackpoint>
            <Time>2022-09-19T10:58:23.000Z</Time>
            <Position>
              <LatitudeDegrees>49.3287029676139354705810546875</LatitudeDegrees>
              <LongitudeDegrees>19.950281716883182525634765625</LongitudeDegrees>
            </Position>
            <AltitudeMeters>1021.4000244140625</AltitudeMeters>
            <DistanceMeters>NAN</DistanceMeters>
          </Trackpoint>
          <Trackpoint>
            <Time>2022-09-19T10:58:25.000Z</Time>
            <Position>
              <LatitudeDegrees>49.32881369255483150482177734375</LatitudeDegrees>
              <LongitudeDegrees>19.950212650001049041748046875</LongitudeDegrees>
            </Position>
            <AltitudeMeters>1020.20001220703125</AltitudeMeters>
            <DistanceMeters>NAN</DistanceMeters>
          </Trackpoint>
          <Trackpoint>
            <Time>2022-09-19T10:58:28.000Z</Time>
            <Position>
              <LatitudeDegrees>49.328985102474689483642578125</LatitudeDegrees>
              <LongitudeDegrees>19.95010930113494396209716796875</LongitudeDegrees>
            </Position>
            <AltitudeMeters>1018.5999755859375</AltitudeMeters>
            <DistanceMeters>NAN</DistanceMeters>
          </Trackpoint>
          <Trackpoint>
            <Time>2022-09-19T10:58:31.000Z</Time>
            <Position>
              <LatitudeDegrees>49.32912734337151050567626953125</LatitudeDegrees>
              <LongitudeDegrees>19.95003671385347843170166015625</LongitudeDegrees>
            </Position>
            <AltitudeMeters>1017.20001220703125</AltitudeMeters>
            <DistanceMeters>NAN</DistanceMeters>
          </Trackpoint>
          <Trackpoint>
            <Time>2022-09-19T10:58:33.000Z</Time>
            <Position>
              <LatitudeDegrees>49.3292145989835262298583984375</LatitudeDegrees>
              <LongitudeDegrees>19.94998633861541748046875</LongitudeDegrees>
            </Position>
            <AltitudeMeters>1016.4000244140625</AltitudeMeters>
            <DistanceMeters>NAN</DistanceMeters>
          </Trackpoint>
          <Trackpoint>
            <Time>2022-09-19T10:58:34.000Z</Time>
            <Position>
              <LatitudeDegrees>49.32925877161324024200439453125</LatitudeDegrees>
              <LongitudeDegrees>19.94996110908687114715576171875</LongitudeDegrees>
            </Position>
            <AltitudeMeters>1016</AltitudeMeters>
            <DistanceMeters>NAN</DistanceMeters>
          </Trackpoint>
          <Trackpoint>
            <Time>2022-09-19T10:58:36.000Z</Time>
            <Position>
              <LatitudeDegrees>49.329348541796207427978515625</LatitudeDegrees>
              <LongitudeDegrees>19.94990427978336811065673828125</LongitudeDegrees>
            </Position>
            <AltitudeMeters>1014.79998779296875</AltitudeMeters>
            <DistanceMeters>NAN</DistanceMeters>
          </Trackpoint>
          <Trackpoint>
            <Time>2022-09-19T10:58:39.000Z</Time>
            <Position>
              <LatitudeDegrees>49.32949916459619998931884765625</LatitudeDegrees>
              <LongitudeDegrees>19.94980051182210445404052734375</LongitudeDegrees>
            </Position>
            <AltitudeMeters>1013.79998779296875</AltitudeMeters>
            <DistanceMeters>NAN</DistanceMeters>
          </Trackpoint>
          <Trackpoint>
            <Time>2022-09-19T10:58:40.000Z</Time>
            <Position>
              <LatitudeDegrees>49.32955901138484477996826171875</LatitudeDegrees>
              <LongitudeDegrees>19.9497731029987335205078125</LongitudeDegrees>
            </Position>
            <AltitudeMeters>1013.4000244140625</AltitudeMeters>
            <DistanceMeters>NAN</DistanceMeters>
          </Trackpoint>
          <Trackpoint>
            <Time>2022-09-19T10:58:42.000Z</Time>
            <Position>
              <LatitudeDegrees>49.3296906910836696624755859375</LatitudeDegrees>
              <LongitudeDegrees>19.9497306905686855316162109375</LongitudeDegrees>
            </Position>
            <AltitudeMeters>1012.4000244140625</AltitudeMeters>
            <DistanceMeters>NAN</DistanceMeters>
          </Trackpoint>
          <Trackpoint>
            <Time>2022-09-19T10:58:43.000Z</Time>
            <Position>
              <LatitudeDegrees>49.3297624401748180389404296875</LatitudeDegrees>
              <LongitudeDegrees>19.94971065782010555267333984375</LongitudeDegrees>
            </Position>
            <AltitudeMeters>1012</AltitudeMeters>
            <DistanceMeters>NAN</DistanceMeters>
          </Trackpoint>
          <Trackpoint>
            <Time>2022-09-19T10:58:44.000Z</Time>
            <Position>
              <LatitudeDegrees>49.32983628474175930023193359375</LatitudeDegrees>
              <LongitudeDegrees>19.94969439692795276641845703125</LongitudeDegrees>
            </Position>
            <AltitudeMeters>1011.20001220703125</AltitudeMeters>
            <DistanceMeters>NAN</DistanceMeters>
          </Trackpoint>
          <Trackpoint>
            <Time>2022-09-19T10:58:46.000Z</Time>
            <Position>
              <LatitudeDegrees>49.3299793638288974761962890625</LatitudeDegrees>
              <LongitudeDegrees>19.94966690428555011749267578125</LongitudeDegrees>
            </Position>
            <AltitudeMeters>1010</AltitudeMeters>
            <DistanceMeters>NAN</DistanceMeters>
          </Trackpoint>
          <Trackpoint>
            <Time>2022-09-19T10:58:48.000Z</Time>
            <Position>
              <LatitudeDegrees>49.330127052962779998779296875</LatitudeDegrees>
              <LongitudeDegrees>19.94964578188955783843994140625</LongitudeDegrees>
            </Position>
            <AltitudeMeters>1008.79998779296875</AltitudeMeters>
            <DistanceMeters>NAN</DistanceMeters>
          </Trackpoint>
          <Trackpoint>
            <Time>2022-09-19T10:58:49.000Z</Time>
            <Position>
              <LatitudeDegrees>49.33021045289933681488037109375</LatitudeDegrees>
              <LongitudeDegrees>19.9496482126414775848388671875</LongitudeDegrees>
            </Position>
            <AltitudeMeters>1007.5999755859375</AltitudeMeters>
            <DistanceMeters>NAN</DistanceMeters>
          </Trackpoint>
          <Trackpoint>
            <Time>2022-09-19T10:58:51.000Z</Time>
            <Position>
              <LatitudeDegrees>49.3303816951811313629150390625</LatitudeDegrees>
              <LongitudeDegrees>19.9496462009847164154052734375</LongitudeDegrees>
            </Position>
            <AltitudeMeters>1006</AltitudeMeters>
            <DistanceMeters>NAN</DistanceMeters>
          </Trackpoint>
          <Trackpoint>
            <Time>2022-09-19T10:58:53.000Z</Time>
            <Position>
              <LatitudeDegrees>49.330572299659252166748046875</LatitudeDegrees>
              <LongitudeDegrees>19.949651062488555908203125</LongitudeDegrees>
            </Position>
            <AltitudeMeters>1004.79998779296875</AltitudeMeters>
            <DistanceMeters>NAN</DistanceMeters>
          </Trackpoint>
          <Trackpoint>
            <Time>2022-09-19T10:58:54.000Z</Time>
            <Position>
              <LatitudeDegrees>49.33067388832569122314453125</LatitudeDegrees>
              <LongitudeDegrees>19.9496411718428134918212890625</LongitudeDegrees>
            </Position>
            <AltitudeMeters>1004.20001220703125</AltitudeMeters>
            <DistanceMeters>NAN</DistanceMeters>
          </Trackpoint>
          <Trackpoint>
            <Time>2022-09-19T10:58:55.000Z</Time>
            <Position>
              <LatitudeDegrees>49.33077371679246425628662109375</LatitudeDegrees>
              <LongitudeDegrees>19.9496331252157688140869140625</LongitudeDegrees>
            </Position>
            <AltitudeMeters>1003.5999755859375</AltitudeMeters>
            <DistanceMeters>NAN</DistanceMeters>
          </Trackpoint>
          <Trackpoint>
            <Time>2022-09-19T10:58:57.000Z</Time>
            <Position>
              <LatitudeDegrees>49.33097287081182003021240234375</LatitudeDegrees>
              <LongitudeDegrees>19.949645698070526123046875</LongitudeDegrees>
            </Position>
            <AltitudeMeters>1002.20001220703125</AltitudeMeters>
            <DistanceMeters>NAN</DistanceMeters>
          </Trackpoint>
          <Trackpoint>
            <Time>2022-09-19T10:58:58.000Z</Time>
            <Position>
              <LatitudeDegrees>49.3310706876218318939208984375</LatitudeDegrees>
              <LongitudeDegrees>19.9496472068130970001220703125</LongitudeDegrees>
            </Position>
            <AltitudeMeters>1001.4000244140625</AltitudeMeters>
            <DistanceMeters>NAN</DistanceMeters>
          </Trackpoint>
          <Trackpoint>
            <Time>2022-09-19T10:58:59.000Z</Time>
            <Position>
              <LatitudeDegrees>49.33117168955504894256591796875</LatitudeDegrees>
              <LongitudeDegrees>19.94965081103146076202392578125</LongitudeDegrees>
            </Position>
            <AltitudeMeters>1000.79998779296875</AltitudeMeters>
            <DistanceMeters>NAN</DistanceMeters>
          </Trackpoint>
          <Trackpoint>
            <Time>2022-09-19T10:59:01.000Z</Time>
            <Position>
              <LatitudeDegrees>49.331370927393436431884765625</LatitudeDegrees>
              <LongitudeDegrees>19.94965751655399799346923828125</LongitudeDegrees>
            </Position>
            <AltitudeMeters>999.5999755859375</AltitudeMeters>
            <DistanceMeters>NAN</DistanceMeters>
          </Trackpoint>
          <Trackpoint>
            <Time>2022-09-19T10:59:03.000Z</Time>
            <Position>
              <LatitudeDegrees>49.3315712548792362213134765625</LatitudeDegrees>
              <LongitudeDegrees>19.949661456048488616943359375</LongitudeDegrees>
            </Position>
            <AltitudeMeters>998.4000244140625</AltitudeMeters>
            <DistanceMeters>NAN</DistanceMeters>
          </Trackpoint>
          <Trackpoint>
            <Time>2022-09-19T10:59:04.000Z</Time>
            <Position>
              <LatitudeDegrees>49.33167309500277042388916015625</LatitudeDegrees>
              <LongitudeDegrees>19.94966656900942325592041015625</LongitudeDegrees>
            </Position>
            <AltitudeMeters>997.79998779296875</AltitudeMeters>
            <DistanceMeters>NAN</DistanceMeters>
          </Trackpoint>
          <Trackpoint>
            <Time>2022-09-19T10:59:06.000Z</Time>
            <Position>
              <LatitudeDegrees>49.33186453767120838165283203125</LatitudeDegrees>
              <LongitudeDegrees>19.9496706761419773101806640625</LongitudeDegrees>
            </Position>
            <AltitudeMeters>997.4000244140625</AltitudeMeters>
            <DistanceMeters>NAN</DistanceMeters>
          </Trackpoint>
          <Trackpoint>
            <Time>2022-09-19T10:59:10.000Z</Time>
            <Position>
              <LatitudeDegrees>49.33223200030624866485595703125</LatitudeDegrees>
              <LongitudeDegrees>19.94964444078505039215087890625</LongitudeDegrees>
            </Position>
            <AltitudeMeters>997</AltitudeMeters>
            <DistanceMeters>NAN</DistanceMeters>
          </Trackpoint>
          <Trackpoint>
            <Time>2022-09-19T10:59:14.000Z</Time>
            <Position>
              <LatitudeDegrees>49.33256492950022220611572265625</LatitudeDegrees>
              <LongitudeDegrees>19.94961778633296489715576171875</LongitudeDegrees>
            </Position>
            <AltitudeMeters>996.4000244140625</AltitudeMeters>
            <DistanceMeters>NAN</DistanceMeters>
          </Trackpoint>
          <Trackpoint>
            <Time>2022-09-19T10:59:16.000Z</Time>
            <Position>
              <LatitudeDegrees>49.33271748013794422149658203125</LatitudeDegrees>
              <LongitudeDegrees>19.94960345327854156494140625</LongitudeDegrees>
            </Position>
            <AltitudeMeters>996</AltitudeMeters>
            <DistanceMeters>NAN</DistanceMeters>
          </Trackpoint>
          <Trackpoint>
            <Time>2022-09-19T10:59:22.000Z</Time>
            <Position>
              <LatitudeDegrees>49.3331383354961872100830078125</LatitudeDegrees>
              <LongitudeDegrees>19.94956280104815959930419921875</LongitudeDegrees>
            </Position>
            <AltitudeMeters>996</AltitudeMeters>
            <DistanceMeters>NAN</DistanceMeters>
          </Trackpoint>
          <Trackpoint>
            <Time>2022-09-19T10:59:28.000Z</Time>
            <Position>
              <LatitudeDegrees>49.3335208855569362640380859375</LatitudeDegrees>
              <LongitudeDegrees>19.94949817657470703125</LongitudeDegrees>
            </Position>
            <AltitudeMeters>995.4000244140625</AltitudeMeters>
            <DistanceMeters>NAN</DistanceMeters>
          </Trackpoint>
          <Trackpoint>
            <Time>2022-09-19T10:59:29.000Z</Time>
            <Position>
              <LatitudeDegrees>49.3335815705358982086181640625</LatitudeDegrees>
              <LongitudeDegrees>19.94948719628155231475830078125</LongitudeDegrees>
            </Position>
            <AltitudeMeters>995.4000244140625</AltitudeMeters>
            <DistanceMeters>NAN</DistanceMeters>
          </Trackpoint>
          <Trackpoint>
            <Time>2022-09-19T10:59:33.000Z</Time>
            <Position>
              <LatitudeDegrees>49.3338055349886417388916015625</LatitudeDegrees>
              <LongitudeDegrees>19.94946531951427459716796875</LongitudeDegrees>
            </Position>
            <AltitudeMeters>995.20001220703125</AltitudeMeters>
            <DistanceMeters>NAN</DistanceMeters>
          </Trackpoint>
          <Trackpoint>
            <Time>2022-09-19T10:59:39.000Z</Time>
            <Position>
              <LatitudeDegrees>49.3341203592717647552490234375</LatitudeDegrees>
              <LongitudeDegrees>19.94942718185484409332275390625</LongitudeDegrees>
            </Position>
            <AltitudeMeters>995.20001220703125</AltitudeMeters>
            <DistanceMeters>NAN</DistanceMeters>
          </Trackpoint>
          <Trackpoint>
            <Time>2022-09-19T10:59:46.000Z</Time>
            <Position>
              <LatitudeDegrees>49.3344211019575595855712890625</LatitudeDegrees>
              <LongitudeDegrees>19.94939331896603107452392578125</LongitudeDegrees>
            </Position>
            <AltitudeMeters>994.5999755859375</AltitudeMeters>
            <DistanceMeters>NAN</DistanceMeters>
          </Trackpoint>
          <Trackpoint>
            <Time>2022-09-19T10:59:51.000Z</Time>
            <Position>
              <LatitudeDegrees>49.3345951102674007415771484375</LatitudeDegrees>
              <LongitudeDegrees>19.94936448521912097930908203125</LongitudeDegrees>
            </Position>
            <AltitudeMeters>994.79998779296875</AltitudeMeters>
            <DistanceMeters>NAN</DistanceMeters>
          </Trackpoint>
          <Trackpoint>
            <Time>2022-09-19T10:59:58.000Z</Time>
            <Position>
              <LatitudeDegrees>49.33485922403633594512939453125</LatitudeDegrees>
              <LongitudeDegrees>19.94932643137872219085693359375</LongitudeDegrees>
            </Position>
            <AltitudeMeters>995</AltitudeMeters>
            <DistanceMeters>NAN</DistanceMeters>
          </Trackpoint>
          <Trackpoint>
            <Time>2022-09-19T11:00:00.000Z</Time>
            <Position>
              <LatitudeDegrees>49.3349446356296539306640625</LatitudeDegrees>
              <LongitudeDegrees>19.9493149481713771820068359375</LongitudeDegrees>
            </Position>
            <AltitudeMeters>995.20001220703125</AltitudeMeters>
            <DistanceMeters>NAN</DistanceMeters>
          </Trackpoint>
          <Trackpoint>
            <Time>2022-09-19T11:00:06.000Z</Time>
            <Position>
              <LatitudeDegrees>49.3351516686379909515380859375</LatitudeDegrees>
              <LongitudeDegrees>19.94924814440310001373291015625</LongitudeDegrees>
            </Position>
            <AltitudeMeters>995</AltitudeMeters>
            <DistanceMeters>NAN</DistanceMeters>
          </Trackpoint>
          <Trackpoint>
            <Time>2022-09-19T11:00:12.000Z</Time>
            <Position>
              <LatitudeDegrees>49.33533648960292339324951171875</LatitudeDegrees>
              <LongitudeDegrees>19.9491821788251399993896484375</LongitudeDegrees>
            </Position>
            <AltitudeMeters>995.5999755859375</AltitudeMeters>
            <DistanceMeters>NAN</DistanceMeters>
          </Trackpoint>
          <Trackpoint>
            <Time>2022-09-19T11:00:16.000Z</Time>
            <Position>
              <LatitudeDegrees>49.33548434637486934661865234375</LatitudeDegrees>
              <LongitudeDegrees>19.94911218993365764617919921875</LongitudeDegrees>
            </Position>
            <AltitudeMeters>995.79998779296875</AltitudeMeters>
            <DistanceMeters>NAN</DistanceMeters>
          </Trackpoint>
          <Trackpoint>
            <Time>2022-09-19T11:00:19.000Z</Time>
            <Position>
              <LatitudeDegrees>49.3355935625731945037841796875</LatitudeDegrees>
              <LongitudeDegrees>19.949055276811122894287109375</LongitudeDegrees>
            </Position>
            <AltitudeMeters>996.4000244140625</AltitudeMeters>
            <DistanceMeters>NAN</DistanceMeters>
          </Trackpoint>
          <Trackpoint>
            <Time>2022-09-19T11:00:20.000Z</Time>
            <Position>
              <LatitudeDegrees>49.335622899234294891357421875</LatitudeDegrees>
              <LongitudeDegrees>19.94903272949159145355224609375</LongitudeDegrees>
            </Position>
            <AltitudeMeters>996.5999755859375</AltitudeMeters>
            <DistanceMeters>NAN</DistanceMeters>
          </Trackpoint>
          <Trackpoint>
            <Time>2022-09-19T11:00:26.000Z</Time>
            <Position>
              <LatitudeDegrees>49.335816688835620880126953125</LatitudeDegrees>
              <LongitudeDegrees>19.94885645806789398193359375</LongitudeDegrees>
            </Position>
            <AltitudeMeters>997.20001220703125</AltitudeMeters>
            <DistanceMeters>NAN</DistanceMeters>
          </Trackpoint>
          <Trackpoint>
            <Time>2022-09-19T11:00:29.000Z</Time>
            <Position>
              <LatitudeDegrees>49.33589656837284564971923828125</LatitudeDegrees>
              <LongitudeDegrees>19.9487793445587158203125</LongitudeDegrees>
            </Position>
            <AltitudeMeters>997.4000244140625</AltitudeMeters>
            <DistanceMeters>NAN</DistanceMeters>
          </Trackpoint>
          <Trackpoint>
            <Time>2022-09-19T11:00:34.000Z</Time>
            <Position>
              <LatitudeDegrees>49.33603101409971714019775390625</LatitudeDegrees>
              <LongitudeDegrees>19.9486410431563854217529296875</LongitudeDegrees>
            </Position>
            <AltitudeMeters>997.20001220703125</AltitudeMeters>
            <DistanceMeters>NAN</DistanceMeters>
          </Trackpoint>
          <Trackpoint>
            <Time>2022-09-19T11:00:36.000Z</Time>
            <Position>
              <LatitudeDegrees>49.33608365245163440704345703125</LatitudeDegrees>
              <LongitudeDegrees>19.9485944397747516632080078125</LongitudeDegrees>
            </Position>
            <AltitudeMeters>997.20001220703125</AltitudeMeters>
            <DistanceMeters>NAN</DistanceMeters>
          </Trackpoint>
          <Trackpoint>
            <Time>2022-09-19T11:00:44.000Z</Time>
            <Position>
              <LatitudeDegrees>49.33629604987800121307373046875</LatitudeDegrees>
              <LongitudeDegrees>19.94840056635439395904541015625</LongitudeDegrees>
            </Position>
            <AltitudeMeters>997.4000244140625</AltitudeMeters>
            <DistanceMeters>NAN</DistanceMeters>
          </Trackpoint>
          <Trackpoint>
            <Time>2022-09-19T11:00:45.000Z</Time>
            <Position>
              <LatitudeDegrees>49.33632253669202327728271484375</LatitudeDegrees>
              <LongitudeDegrees>19.948374330997467041015625</LongitudeDegrees>
            </Position>
            <AltitudeMeters>997.4000244140625</AltitudeMeters>
            <DistanceMeters>NAN</DistanceMeters>
          </Trackpoint>
          <Trackpoint>
            <Time>2022-09-19T11:00:53.000Z</Time>
            <Position>
              <LatitudeDegrees>49.33650903403759002685546875</LatitudeDegrees>
              <LongitudeDegrees>19.94816570542752742767333984375</LongitudeDegrees>
            </Position>
            <AltitudeMeters>997.4000244140625</AltitudeMeters>
            <DistanceMeters>NAN</DistanceMeters>
          </Trackpoint>
          <Trackpoint>
            <Time>2022-09-19T11:01:01.000Z</Time>
            <Position>
              <LatitudeDegrees>49.33671145699918270111083984375</LatitudeDegrees>
              <LongitudeDegrees>19.94798147119581699371337890625</LongitudeDegrees>
            </Position>
            <AltitudeMeters>997.79998779296875</AltitudeMeters>
            <DistanceMeters>NAN</DistanceMeters>
          </Trackpoint>
          <Trackpoint>
            <Time>2022-09-19T11:01:06.000Z</Time>
            <Position>
              <LatitudeDegrees>49.3368049152195453643798828125</LatitudeDegrees>
              <LongitudeDegrees>19.9479031004011631011962890625</LongitudeDegrees>
            </Position>
            <AltitudeMeters>997.79998779296875</AltitudeMeters>
            <DistanceMeters>NAN</DistanceMeters>
          </Trackpoint>
          <Trackpoint>
            <Time>2022-09-19T11:01:14.000Z</Time>
            <Position>
              <LatitudeDegrees>49.33696341700851917266845703125</LatitudeDegrees>
              <LongitudeDegrees>19.94774870574474334716796875</LongitudeDegrees>
            </Position>
            <AltitudeMeters>998</AltitudeMeters>
            <DistanceMeters>NAN</DistanceMeters>
          </Trackpoint>
          <Trackpoint>
            <Time>2022-09-19T11:01:21.000Z</Time>
            <Position>
              <LatitudeDegrees>49.3370930850505828857421875</LatitudeDegrees>
              <LongitudeDegrees>19.94766061194241046905517578125</LongitudeDegrees>
            </Position>
            <AltitudeMeters>998.4000244140625</AltitudeMeters>
            <DistanceMeters>NAN</DistanceMeters>
          </Trackpoint>
          <Trackpoint>
            <Time>2022-09-19T11:01:23.000Z</Time>
            <Position>
              <LatitudeDegrees>49.3371306359767913818359375</LatitudeDegrees>
              <LongitudeDegrees>19.94763479568064212799072265625</LongitudeDegrees>
            </Position>
            <AltitudeMeters>998.4000244140625</AltitudeMeters>
            <DistanceMeters>NAN</DistanceMeters>
          </Trackpoint>
          <Trackpoint>
            <Time>2022-09-19T11:01:30.000Z</Time>
            <Position>
              <LatitudeDegrees>49.33731696568429470062255859375</LatitudeDegrees>
              <LongitudeDegrees>19.947580061852931976318359375</LongitudeDegrees>
            </Position>
            <AltitudeMeters>997.79998779296875</AltitudeMeters>
            <DistanceMeters>NAN</DistanceMeters>
          </Trackpoint>
          <Trackpoint>
            <Time>2022-09-19T11:01:32.000Z</Time>
            <Position>
              <LatitudeDegrees>49.337381757795810699462890625</LatitudeDegrees>
              <LongitudeDegrees>19.94757578708231449127197265625</LongitudeDegrees>
            </Position>
            <AltitudeMeters>997.4000244140625</AltitudeMeters>
            <DistanceMeters>NAN</DistanceMeters>
          </Trackpoint>
          <Trackpoint>
            <Time>2022-09-19T11:01:37.000Z</Time>
            <Position>
              <LatitudeDegrees>49.33753506280481815338134765625</LatitudeDegrees>
              <LongitudeDegrees>19.947555921971797943115234375</LongitudeDegrees>
            </Position>
            <AltitudeMeters>996.5999755859375</AltitudeMeters>
            <DistanceMeters>NAN</DistanceMeters>
          </Trackpoint>
          <Trackpoint>
            <Time>2022-09-19T11:01:38.000Z</Time>
            <Position>
              <LatitudeDegrees>49.337566830217838287353515625</LatitudeDegrees>
              <LongitudeDegrees>19.9475550837814807891845703125</LongitudeDegrees>
            </Position>
            <AltitudeMeters>996.5999755859375</AltitudeMeters>
            <DistanceMeters>NAN</DistanceMeters>
          </Trackpoint>
          <Trackpoint>
            <Time>2022-09-19T11:01:39.000Z</Time>
            <Position>
              <LatitudeDegrees>49.3375985138118267059326171875</LatitudeDegrees>
              <LongitudeDegrees>19.94756187312304973602294921875</LongitudeDegrees>
            </Position>
            <AltitudeMeters>996.4000244140625</AltitudeMeters>
            <DistanceMeters>NAN</DistanceMeters>
          </Trackpoint>
          <Trackpoint>
            <Time>2022-09-19T11:01:44.000Z</Time>
            <Position>
              <LatitudeDegrees>49.3377260863780975341796875</LatitudeDegrees>
              <LongitudeDegrees>19.94761048816144466400146484375</LongitudeDegrees>
            </Position>
            <AltitudeMeters>995.5999755859375</AltitudeMeters>
            <DistanceMeters>NAN</DistanceMeters>
          </Trackpoint>
          <Trackpoint>
            <Time>2022-09-19T11:01:48.000Z</Time>
            <Position>
              <LatitudeDegrees>49.33778668753802776336669921875</LatitudeDegrees>
              <LongitudeDegrees>19.9476338736712932586669921875</LongitudeDegrees>
            </Position>
            <AltitudeMeters>995.4000244140625</AltitudeMeters>
            <DistanceMeters>NAN</DistanceMeters>
          </Trackpoint>
          <Trackpoint>
            <Time>2022-09-19T11:01:50.000Z</Time>
            <Position>
              <LatitudeDegrees>49.33779741637408733367919921875</LatitudeDegrees>
              <LongitudeDegrees>19.94764954783022403717041015625</LongitudeDegrees>
            </Position>
            <AltitudeMeters>995.20001220703125</AltitudeMeters>
            <DistanceMeters>NAN</DistanceMeters>
          </Trackpoint>
          <Trackpoint>
            <Time>2022-09-19T11:01:55.000Z</Time>
            <Position>
              <LatitudeDegrees>49.33779741637408733367919921875</LatitudeDegrees>
              <LongitudeDegrees>19.94764954783022403717041015625</LongitudeDegrees>
            </Position>
            <AltitudeMeters>995</AltitudeMeters>
            <DistanceMeters>NAN</DistanceMeters>
          </Trackpoint>
          <Trackpoint>
            <Time>2022-09-19T11:01:56.000Z</Time>
            <Position>
              <LatitudeDegrees>49.33779741637408733367919921875</LatitudeDegrees>
              <LongitudeDegrees>19.94764954783022403717041015625</LongitudeDegrees>
            </Position>
            <AltitudeMeters>995</AltitudeMeters>
            <DistanceMeters>NAN</DistanceMeters>
          </Trackpoint>
          <Trackpoint>
            <Time>2022-09-19T11:02:07.000Z</Time>
            <Position>
              <LatitudeDegrees>49.33779247105121612548828125</LatitudeDegrees>
              <LongitudeDegrees>19.9476546607911586761474609375</LongitudeDegrees>
            </Position>
            <AltitudeMeters>995</AltitudeMeters>
            <DistanceMeters>NAN</DistanceMeters>
          </Trackpoint>
          <Trackpoint>
            <Time>2022-09-19T11:02:20.000Z</Time>
            <Position>
              <LatitudeDegrees>49.33779506944119930267333984375</LatitudeDegrees>
              <LongitudeDegrees>19.94766128249466419219970703125</LongitudeDegrees>
            </Position>
            <AltitudeMeters>995</AltitudeMeters>
            <DistanceMeters>NAN</DistanceMeters>
          </Trackpoint>
          <Trackpoint>
            <Time>2022-09-19T11:02:24.000Z</Time>
            <Position>
              <LatitudeDegrees>49.33779406361281871795654296875</LatitudeDegrees>
              <LongitudeDegrees>19.94766362942755222320556640625</LongitudeDegrees>
            </Position>
            <AltitudeMeters>995</AltitudeMeters>
            <DistanceMeters>NAN</DistanceMeters>
          </Trackpoint>
          <Trackpoint>
            <Time>2022-09-19T11:02:33.000Z</Time>
            <Position>
              <LatitudeDegrees>49.33779506944119930267333984375</LatitudeDegrees>
              <LongitudeDegrees>19.947665221989154815673828125</LongitudeDegrees>
            </Position>
            <AltitudeMeters>994.5999755859375</AltitudeMeters>
            <DistanceMeters>NAN</DistanceMeters>
          </Trackpoint>
          <Trackpoint>
            <Time>2022-09-19T11:02:34.000Z</Time>
            <Position>
              <LatitudeDegrees>49.33779506944119930267333984375</LatitudeDegrees>
              <LongitudeDegrees>19.947665221989154815673828125</LongitudeDegrees>
            </Position>
            <AltitudeMeters>994.5999755859375</AltitudeMeters>
            <DistanceMeters>NAN</DistanceMeters>
          </Trackpoint>
          <Trackpoint>
            <Time>2022-09-19T11:02:36.000Z</Time>
            <Position>
              <LatitudeDegrees>49.33780881576240062713623046875</LatitudeDegrees>
              <LongitudeDegrees>19.9476925469934940338134765625</LongitudeDegrees>
            </Position>
            <AltitudeMeters>994.5999755859375</AltitudeMeters>
            <DistanceMeters>NAN</DistanceMeters>
          </Trackpoint>
          <Trackpoint>
            <Time>2022-09-19T11:02:38.000Z</Time>
            <Position>
              <LatitudeDegrees>49.33782398700714111328125</LatitudeDegrees>
              <LongitudeDegrees>19.947741664946079254150390625</LongitudeDegrees>
            </Position>
            <AltitudeMeters>994.79998779296875</AltitudeMeters>
            <DistanceMeters>NAN</DistanceMeters>
          </Trackpoint>
          <Trackpoint>
            <Time>2022-09-19T11:02:43.000Z</Time>
            <Position>
              <LatitudeDegrees>49.33785625733435153961181640625</LatitudeDegrees>
              <LongitudeDegrees>19.9479326047003269195556640625</LongitudeDegrees>
            </Position>
            <AltitudeMeters>994.79998779296875</AltitudeMeters>
            <DistanceMeters>NAN</DistanceMeters>
          </Trackpoint>
          <Trackpoint>
            <Time>2022-09-19T11:02:46.000Z</Time>
            <Position>
              <LatitudeDegrees>49.337869584560394287109375</LatitudeDegrees>
              <LongitudeDegrees>19.948061518371105194091796875</LongitudeDegrees>
            </Position>
            <AltitudeMeters>994.5999755859375</AltitudeMeters>
            <DistanceMeters>NAN</DistanceMeters>
          </Trackpoint>
          <Trackpoint>
            <Time>2022-09-19T11:02:48.000Z</Time>
            <Position>
              <LatitudeDegrees>49.33787922374904155731201171875</LatitudeDegrees>
              <LongitudeDegrees>19.94815229438245296478271484375</LongitudeDegrees>
            </Position>
            <AltitudeMeters>994.5999755859375</AltitudeMeters>
            <DistanceMeters>NAN</DistanceMeters>
          </Trackpoint>
          <Trackpoint>
            <Time>2022-09-19T11:02:51.000Z</Time>
            <Position>
              <LatitudeDegrees>49.33789833448827266693115234375</LatitudeDegrees>
              <LongitudeDegrees>19.9483027495443820953369140625</LongitudeDegrees>
            </Position>
            <AltitudeMeters>994.5999755859375</AltitudeMeters>
            <DistanceMeters>NAN</DistanceMeters>
          </Trackpoint>
          <Trackpoint>
            <Time>2022-09-19T11:02:53.000Z</Time>
            <Position>
              <LatitudeDegrees>49.33791182935237884521484375</LatitudeDegrees>
              <LongitudeDegrees>19.9484029971063137054443359375</LongitudeDegrees>
            </Position>
            <AltitudeMeters>994.5999755859375</AltitudeMeters>
            <DistanceMeters>NAN</DistanceMeters>
          </Trackpoint>
          <Trackpoint>
            <Time>2022-09-19T11:02:58.000Z</Time>
            <Position>
              <LatitudeDegrees>49.3379364721477031707763671875</LatitudeDegrees>
              <LongitudeDegrees>19.94868923909962177276611328125</LongitudeDegrees>
            </Position>
            <AltitudeMeters>994.4000244140625</AltitudeMeters>
            <DistanceMeters>NAN</DistanceMeters>
          </Trackpoint>
          <Trackpoint>
            <Time>2022-09-19T11:02:59.000Z</Time>
            <Position>
              <LatitudeDegrees>49.33793990872800350189208984375</LatitudeDegrees>
              <LongitudeDegrees>19.9487543664872646331787109375</LongitudeDegrees>
            </Position>
            <AltitudeMeters>994.20001220703125</AltitudeMeters>
            <DistanceMeters>NAN</DistanceMeters>
          </Trackpoint>
          <Trackpoint>
            <Time>2022-09-19T11:03:03.000Z</Time>
            <Position>
              <LatitudeDegrees>49.3379639647901058197021484375</LatitudeDegrees>
              <LongitudeDegrees>19.9490142054855823516845703125</LongitudeDegrees>
            </Position>
            <AltitudeMeters>993.20001220703125</AltitudeMeters>
            <DistanceMeters>NAN</DistanceMeters>
          </Trackpoint>
          <Trackpoint>
            <Time>2022-09-19T11:03:06.000Z</Time>
            <Position>
              <LatitudeDegrees>49.3379844166338443756103515625</LatitudeDegrees>
              <LongitudeDegrees>19.9492044746875762939453125</LongitudeDegrees>
            </Position>
            <AltitudeMeters>992.79998779296875</AltitudeMeters>
            <DistanceMeters>NAN</DistanceMeters>
          </Trackpoint>
          <Trackpoint>
            <Time>2022-09-19T11:03:09.000Z</Time>
            <Position>
              <LatitudeDegrees>49.33801115490496158599853515625</LatitudeDegrees>
              <LongitudeDegrees>19.9494405090808868408203125</LongitudeDegrees>
            </Position>
            <AltitudeMeters>992</AltitudeMeters>
            <DistanceMeters>NAN</DistanceMeters>
          </Trackpoint>
          <Trackpoint>
            <Time>2022-09-19T11:03:11.000Z</Time>
            <Position>
              <LatitudeDegrees>49.33803797699511051177978515625</LatitudeDegrees>
              <LongitudeDegrees>19.9496217258274555206298828125</LongitudeDegrees>
            </Position>
            <AltitudeMeters>991.4000244140625</AltitudeMeters>
            <DistanceMeters>NAN</DistanceMeters>
          </Trackpoint>
          <Trackpoint>
            <Time>2022-09-19T11:03:12.000Z</Time>
            <Position>
              <LatitudeDegrees>49.33805407024919986724853515625</LatitudeDegrees>
              <LongitudeDegrees>19.94971116073429584503173828125</LongitudeDegrees>
            </Position>
            <AltitudeMeters>990.79998779296875</AltitudeMeters>
            <DistanceMeters>NAN</DistanceMeters>
          </Trackpoint>
          <Trackpoint>
            <Time>2022-09-19T11:03:14.000Z</Time>
            <Position>
              <LatitudeDegrees>49.33808843605220317840576171875</LatitudeDegrees>
              <LongitudeDegrees>19.94989556260406970977783203125</LongitudeDegrees>
            </Position>
            <AltitudeMeters>989.79998779296875</AltitudeMeters>
            <DistanceMeters>NAN</DistanceMeters>
          </Trackpoint>
          <Trackpoint>
            <Time>2022-09-19T11:03:15.000Z</Time>
            <Position>
              <LatitudeDegrees>49.3381114862859249114990234375</LatitudeDegrees>
              <LongitudeDegrees>19.94999103248119354248046875</LongitudeDegrees>
            </Position>
            <AltitudeMeters>989.5999755859375</AltitudeMeters>
            <DistanceMeters>NAN</DistanceMeters>
          </Trackpoint>
          <Trackpoint>
            <Time>2022-09-19T11:03:16.000Z</Time>
            <Position>
              <LatitudeDegrees>49.3381383083760738372802734375</LatitudeDegrees>
              <LongitudeDegrees>19.950090944766998291015625</LongitudeDegrees>
            </Position>
            <AltitudeMeters>989.20001220703125</AltitudeMeters>
            <DistanceMeters>NAN</DistanceMeters>
          </Trackpoint>
          <Trackpoint>
            <Time>2022-09-19T11:03:18.000Z</Time>
            <Position>
              <LatitudeDegrees>49.3382050283253192901611328125</LatitudeDegrees>
              <LongitudeDegrees>19.950310885906219482421875</LongitudeDegrees>
            </Position>
            <AltitudeMeters>988.79998779296875</AltitudeMeters>
            <DistanceMeters>NAN</DistanceMeters>
          </Trackpoint>
          <Trackpoint>
            <Time>2022-09-19T11:03:19.000Z</Time>
            <Position>
              <LatitudeDegrees>49.33824551291763782501220703125</LatitudeDegrees>
              <LongitudeDegrees>19.950431250035762786865234375</LongitudeDegrees>
            </Position>
            <AltitudeMeters>988.4000244140625</AltitudeMeters>
            <DistanceMeters>NAN</DistanceMeters>
          </Trackpoint>
          <Trackpoint>
            <Time>2022-09-19T11:03:21.000Z</Time>
            <Position>
              <LatitudeDegrees>49.33832623064517974853515625</LatitudeDegrees>
              <LongitudeDegrees>19.9506895802915096282958984375</LongitudeDegrees>
            </Position>
            <AltitudeMeters>986.79998779296875</AltitudeMeters>
            <DistanceMeters>NAN</DistanceMeters>
          </Trackpoint>
          <Trackpoint>
            <Time>2022-09-19T11:03:22.000Z</Time>
            <Position>
              <LatitudeDegrees>49.3383723311126232147216796875</LatitudeDegrees>
              <LongitudeDegrees>19.95083064772188663482666015625</LongitudeDegrees>
            </Position>
            <AltitudeMeters>985.5999755859375</AltitudeMeters>
            <DistanceMeters>NAN</DistanceMeters>
          </Trackpoint>
          <Trackpoint>
            <Time>2022-09-19T11:03:24.000Z</Time>
            <Position>
              <LatitudeDegrees>49.33847375214099884033203125</LatitudeDegrees>
              <LongitudeDegrees>19.95112828910350799560546875</LongitudeDegrees>
            </Position>
            <AltitudeMeters>984</AltitudeMeters>
            <DistanceMeters>NAN</DistanceMeters>
          </Trackpoint>
          <Trackpoint>
            <Time>2022-09-19T11:03:26.000Z</Time>
            <Position>
              <LatitudeDegrees>49.33858145959675312042236328125</LatitudeDegrees>
              <LongitudeDegrees>19.95144286192953586578369140625</LongitudeDegrees>
            </Position>
            <AltitudeMeters>982.4000244140625</AltitudeMeters>
            <DistanceMeters>NAN</DistanceMeters>
          </Trackpoint>
          <Trackpoint>
            <Time>2022-09-19T11:03:27.000Z</Time>
            <Position>
              <LatitudeDegrees>49.33863828890025615692138671875</LatitudeDegrees>
              <LongitudeDegrees>19.9516052193939685821533203125</LongitudeDegrees>
            </Position>
            <AltitudeMeters>981.20001220703125</AltitudeMeters>
            <DistanceMeters>NAN</DistanceMeters>
          </Trackpoint>
          <Trackpoint>
            <Time>2022-09-19T11:03:29.000Z</Time>
            <Position>
              <LatitudeDegrees>49.33876049704849720001220703125</LatitudeDegrees>
              <LongitudeDegrees>19.951947033405303955078125</LongitudeDegrees>
            </Position>
            <AltitudeMeters>979.5999755859375</AltitudeMeters>
            <DistanceMeters>NAN</DistanceMeters>
          </Trackpoint>
          <Trackpoint>
            <Time>2022-09-19T11:03:30.000Z</Time>
            <Position>
              <LatitudeDegrees>49.3388204276561737060546875</LatitudeDegrees>
              <LongitudeDegrees>19.9521218799054622650146484375</LongitudeDegrees>
            </Position>
            <AltitudeMeters>978.20001220703125</AltitudeMeters>
            <DistanceMeters>NAN</DistanceMeters>
          </Trackpoint>
          <Trackpoint>
            <Time>2022-09-19T11:03:31.000Z</Time>
            <Position>
              <LatitudeDegrees>49.338875748217105865478515625</LatitudeDegrees>
              <LongitudeDegrees>19.95229966007173061370849609375</LongitudeDegrees>
            </Position>
            <AltitudeMeters>977</AltitudeMeters>
            <DistanceMeters>NAN</DistanceMeters>
          </Trackpoint>
          <Trackpoint>
            <Time>2022-09-19T11:03:32.000Z</Time>
            <Position>
              <LatitudeDegrees>49.3389309011399745941162109375</LatitudeDegrees>
              <LongitudeDegrees>19.95248473249375820159912109375</LongitudeDegrees>
            </Position>
            <AltitudeMeters>976</AltitudeMeters>
            <DistanceMeters>NAN</DistanceMeters>
          </Trackpoint>
          <Trackpoint>
            <Time>2022-09-19T11:03:33.000Z</Time>
            <Position>
              <LatitudeDegrees>49.33898194693028926849365234375</LatitudeDegrees>
              <LongitudeDegrees>19.9526750855147838592529296875</LongitudeDegrees>
            </Position>
            <AltitudeMeters>975.4000244140625</AltitudeMeters>
            <DistanceMeters>NAN</DistanceMeters>
          </Trackpoint>
          <Trackpoint>
            <Time>2022-09-19T11:03:35.000Z</Time>
            <Position>
              <LatitudeDegrees>49.33905369602143764495849609375</LatitudeDegrees>
              <LongitudeDegrees>19.95307599194347858428955078125</LongitudeDegrees>
            </Position>
            <AltitudeMeters>973.4000244140625</AltitudeMeters>
            <DistanceMeters>NAN</DistanceMeters>
          </Trackpoint>
          <Trackpoint>
            <Time>2022-09-19T11:03:36.000Z</Time>
            <Position>
              <LatitudeDegrees>49.33908035047352313995361328125</LatitudeDegrees>
              <LongitudeDegrees>19.953280426561832427978515625</LongitudeDegrees>
            </Position>
            <AltitudeMeters>971.4000244140625</AltitudeMeters>
            <DistanceMeters>NAN</DistanceMeters>
          </Trackpoint>
          <Trackpoint>
            <Time>2022-09-19T11:03:37.000Z</Time>
            <Position>
              <LatitudeDegrees>49.3391139619052410125732421875</LatitudeDegrees>
              <LongitudeDegrees>19.95349139906466007232666015625</LongitudeDegrees>
            </Position>
            <AltitudeMeters>970</AltitudeMeters>
            <DistanceMeters>NAN</DistanceMeters>
          </Trackpoint>
          <Trackpoint>
            <Time>2022-09-19T11:03:39.000Z</Time>
            <Position>
              <LatitudeDegrees>49.33918587863445281982421875</LatitudeDegrees>
              <LongitudeDegrees>19.95390060357749462127685546875</LongitudeDegrees>
            </Position>
            <AltitudeMeters>967.4000244140625</AltitudeMeters>
            <DistanceMeters>NAN</DistanceMeters>
          </Trackpoint>
          <Trackpoint>
            <Time>2022-09-19T11:03:40.000Z</Time>
            <Position>
              <LatitudeDegrees>49.33921932242810726165771484375</LatitudeDegrees>
              <LongitudeDegrees>19.95409137569367885589599609375</LongitudeDegrees>
            </Position>
            <AltitudeMeters>966.20001220703125</AltitudeMeters>
            <DistanceMeters>NAN</DistanceMeters>
          </Trackpoint>
          <Trackpoint>
            <Time>2022-09-19T11:03:41.000Z</Time>
            <Position>
              <LatitudeDegrees>49.33925033546984195709228515625</LatitudeDegrees>
              <LongitudeDegrees>19.9542874284088611602783203125</LongitudeDegrees>
            </Position>
            <AltitudeMeters>964.5999755859375</AltitudeMeters>
            <DistanceMeters>NAN</DistanceMeters>
          </Trackpoint>
          <Trackpoint>
            <Time>2022-09-19T11:03:42.000Z</Time>
            <Position>
              <LatitudeDegrees>49.3392769061028957366943359375</LatitudeDegrees>
              <LongitudeDegrees>19.9544830620288848876953125</LongitudeDegrees>
            </Position>
            <AltitudeMeters>963.5999755859375</AltitudeMeters>
            <DistanceMeters>NAN</DistanceMeters>
          </Trackpoint>
          <Trackpoint>
            <Time>2022-09-19T11:03:44.000Z</Time>
            <Position>
              <LatitudeDegrees>49.3393131159245967864990234375</LatitudeDegrees>
              <LongitudeDegrees>19.95487810112535953521728515625</LongitudeDegrees>
            </Position>
            <AltitudeMeters>961.79998779296875</AltitudeMeters>
            <DistanceMeters>NAN</DistanceMeters>
          </Trackpoint>
          <Trackpoint>
            <Time>2022-09-19T11:03:45.000Z</Time>
            <Position>
              <LatitudeDegrees>49.3393154628574848175048828125</LatitudeDegrees>
              <LongitudeDegrees>19.9550656042993068695068359375</LongitudeDegrees>
            </Position>
            <AltitudeMeters>960.20001220703125</AltitudeMeters>
            <DistanceMeters>NAN</DistanceMeters>
          </Trackpoint>
          <Trackpoint>
            <Time>2022-09-19T11:03:46.000Z</Time>
            <Position>
              <LatitudeDegrees>49.339300878345966339111328125</LatitudeDegrees>
              <LongitudeDegrees>19.95524547994136810302734375</LongitudeDegrees>
            </Position>
            <AltitudeMeters>958.5999755859375</AltitudeMeters>
            <DistanceMeters>NAN</DistanceMeters>
          </Trackpoint>
          <Trackpoint>
            <Time>2022-09-19T11:03:47.000Z</Time>
            <Position>
              <LatitudeDegrees>49.3392702005803585052490234375</LatitudeDegrees>
              <LongitudeDegrees>19.95541521348059177398681640625</LongitudeDegrees>
            </Position>
            <AltitudeMeters>957.20001220703125</AltitudeMeters>
            <DistanceMeters>NAN</DistanceMeters>
          </Trackpoint>
          <Trackpoint>
            <Time>2022-09-19T11:03:48.000Z</Time>
            <Position>
              <LatitudeDegrees>49.3392259441316127777099609375</LatitudeDegrees>
              <LongitudeDegrees>19.95557396672666072845458984375</LongitudeDegrees>
            </Position>
            <AltitudeMeters>956.20001220703125</AltitudeMeters>
            <DistanceMeters>NAN</DistanceMeters>
          </Trackpoint>
          <Trackpoint>
            <Time>2022-09-19T11:03:49.000Z</Time>
            <Position>
              <LatitudeDegrees>49.33917372487485408782958984375</LatitudeDegrees>
              <LongitudeDegrees>19.9557257629930973052978515625</LongitudeDegrees>
            </Position>
            <AltitudeMeters>955.4000244140625</AltitudeMeters>
            <DistanceMeters>NAN</DistanceMeters>
          </Trackpoint>
          <Trackpoint>
            <Time>2022-09-19T11:03:50.000Z</Time>
            <Position>
              <LatitudeDegrees>49.33911706320941448211669921875</LatitudeDegrees>
              <LongitudeDegrees>19.9558719433844089508056640625</LongitudeDegrees>
            </Position>
            <AltitudeMeters>953.79998779296875</AltitudeMeters>
            <DistanceMeters>NAN</DistanceMeters>
          </Trackpoint>
          <Trackpoint>
            <Time>2022-09-19T11:03:52.000Z</Time>
            <Position>
              <LatitudeDegrees>49.33900080621242523193359375</LatitudeDegrees>
              <LongitudeDegrees>19.95613086037337779998779296875</LongitudeDegrees>
            </Position>
            <AltitudeMeters>951.79998779296875</AltitudeMeters>
            <DistanceMeters>NAN</DistanceMeters>
          </Trackpoint>
          <Trackpoint>
            <Time>2022-09-19T11:03:53.000Z</Time>
            <Position>
              <LatitudeDegrees>49.33893601410090923309326171875</LatitudeDegrees>
              <LongitudeDegrees>19.95624887757003307342529296875</LongitudeDegrees>
            </Position>
            <AltitudeMeters>950.4000244140625</AltitudeMeters>
            <DistanceMeters>NAN</DistanceMeters>
          </Trackpoint>
          <Trackpoint>
            <Time>2022-09-19T11:03:55.000Z</Time>
            <Position>
              <LatitudeDegrees>49.338788576424121856689453125</LatitudeDegrees>
              <LongitudeDegrees>19.95646714232861995697021484375</LongitudeDegrees>
            </Position>
            <AltitudeMeters>948.5999755859375</AltitudeMeters>
            <DistanceMeters>NAN</DistanceMeters>
          </Trackpoint>
          <Trackpoint>
            <Time>2022-09-19T11:03:57.000Z</Time>
            <Position>
              <LatitudeDegrees>49.3386361934244632720947265625</LatitudeDegrees>
              <LongitudeDegrees>19.95669764466583728790283203125</LongitudeDegrees>
            </Position>
            <AltitudeMeters>947.20001220703125</AltitudeMeters>
            <DistanceMeters>NAN</DistanceMeters>
          </Trackpoint>
          <Trackpoint>
            <Time>2022-09-19T11:03:58.000Z</Time>
            <Position>
              <LatitudeDegrees>49.3385651148855686187744140625</LatitudeDegrees>
              <LongitudeDegrees>19.95680694468319416046142578125</LongitudeDegrees>
            </Position>
            <AltitudeMeters>946.20001220703125</AltitudeMeters>
            <DistanceMeters>NAN</DistanceMeters>
          </Trackpoint>
          <Trackpoint>
            <Time>2022-09-19T11:03:59.000Z</Time>
            <Position>
              <LatitudeDegrees>49.338505603373050689697265625</LatitudeDegrees>
              <LongitudeDegrees>19.95691121555864810943603515625</LongitudeDegrees>
            </Position>
            <AltitudeMeters>945.4000244140625</AltitudeMeters>
            <DistanceMeters>NAN</DistanceMeters>
          </Trackpoint>
          <Trackpoint>
            <Time>2022-09-19T11:04:00.000Z</Time>
            <Position>
              <LatitudeDegrees>49.33845556341111660003662109375</LatitudeDegrees>
              <LongitudeDegrees>19.95701397769153118133544921875</LongitudeDegrees>
            </Position>
            <AltitudeMeters>944.5999755859375</AltitudeMeters>
            <DistanceMeters>NAN</DistanceMeters>
          </Trackpoint>
          <Trackpoint>
            <Time>2022-09-19T11:04:01.000Z</Time>
            <Position>
              <LatitudeDegrees>49.33841206133365631103515625</LatitudeDegrees>
              <LongitudeDegrees>19.9571235291659832000732421875</LongitudeDegrees>
            </Position>
            <AltitudeMeters>943.5999755859375</AltitudeMeters>
            <DistanceMeters>NAN</DistanceMeters>
          </Trackpoint>
          <Trackpoint>
            <Time>2022-09-19T11:04:02.000Z</Time>
            <Position>
              <LatitudeDegrees>49.3383743427693843841552734375</LatitudeDegrees>
              <LongitudeDegrees>19.957244396209716796875</LongitudeDegrees>
            </Position>
            <AltitudeMeters>942.79998779296875</AltitudeMeters>
            <DistanceMeters>NAN</DistanceMeters>
          </Trackpoint>
          <Trackpoint>
            <Time>2022-09-19T11:04:03.000Z</Time>
            <Position>
              <LatitudeDegrees>49.33834123425185680389404296875</LatitudeDegrees>
              <LongitudeDegrees>19.95737406425178050994873046875</LongitudeDegrees>
            </Position>
            <AltitudeMeters>942.20001220703125</AltitudeMeters>
            <DistanceMeters>NAN</DistanceMeters>
          </Trackpoint>
          <Trackpoint>
            <Time>2022-09-19T11:04:06.000Z</Time>
            <Position>
              <LatitudeDegrees>49.3382623605430126190185546875</LatitudeDegrees>
              <LongitudeDegrees>19.95779584161937236785888671875</LongitudeDegrees>
            </Position>
            <AltitudeMeters>941.20001220703125</AltitudeMeters>
            <DistanceMeters>NAN</DistanceMeters>
          </Trackpoint>
          <Trackpoint>
            <Time>2022-09-19T11:04:07.000Z</Time>
            <Position>
              <LatitudeDegrees>49.338234364986419677734375</LatitudeDegrees>
              <LongitudeDegrees>19.95795140974223613739013671875</LongitudeDegrees>
            </Position>
            <AltitudeMeters>940</AltitudeMeters>
            <DistanceMeters>NAN</DistanceMeters>
          </Trackpoint>
          <Trackpoint>
            <Time>2022-09-19T11:04:08.000Z</Time>
            <Position>
              <LatitudeDegrees>49.338204525411128997802734375</LatitudeDegrees>
              <LongitudeDegrees>19.95811007916927337646484375</LongitudeDegrees>
            </Position>
            <AltitudeMeters>938.79998779296875</AltitudeMeters>
            <DistanceMeters>NAN</DistanceMeters>
          </Trackpoint>
          <Trackpoint>
            <Time>2022-09-19T11:04:09.000Z</Time>
            <Position>
              <LatitudeDegrees>49.33817544020712375640869140625</LatitudeDegrees>
              <LongitudeDegrees>19.9582621268928050994873046875</LongitudeDegrees>
            </Position>
            <AltitudeMeters>937.79998779296875</AltitudeMeters>
            <DistanceMeters>NAN</DistanceMeters>
          </Trackpoint>
          <Trackpoint>
            <Time>2022-09-19T11:04:11.000Z</Time>
            <Position>
              <LatitudeDegrees>49.33812112547457218170166015625</LatitudeDegrees>
              <LongitudeDegrees>19.95854736305773258209228515625</LongitudeDegrees>
            </Position>
            <AltitudeMeters>936.5999755859375</AltitudeMeters>
            <DistanceMeters>NAN</DistanceMeters>
          </Trackpoint>
          <Trackpoint>
            <Time>2022-09-19T11:04:12.000Z</Time>
            <Position>
              <LatitudeDegrees>49.338095225393772125244140625</LatitudeDegrees>
              <LongitudeDegrees>19.95868013240396976470947265625</LongitudeDegrees>
            </Position>
            <AltitudeMeters>935.5999755859375</AltitudeMeters>
            <DistanceMeters>NAN</DistanceMeters>
          </Trackpoint>
          <Trackpoint>
            <Time>2022-09-19T11:04:13.000Z</Time>
            <Position>
              <LatitudeDegrees>49.3380705825984477996826171875</LatitudeDegrees>
              <LongitudeDegrees>19.95880820788443088531494140625</LongitudeDegrees>
            </Position>
            <AltitudeMeters>934.4000244140625</AltitudeMeters>
            <DistanceMeters>NAN</DistanceMeters>
          </Trackpoint>
          <Trackpoint>
            <Time>2022-09-19T11:04:14.000Z</Time>
            <Position>
              <LatitudeDegrees>49.33804786764085292816162109375</LatitudeDegrees>
              <LongitudeDegrees>19.95893745683133602142333984375</LongitudeDegrees>
            </Position>
            <AltitudeMeters>932.79998779296875</AltitudeMeters>
            <DistanceMeters>NAN</DistanceMeters>
          </Trackpoint>
          <Trackpoint>
            <Time>2022-09-19T11:04:15.000Z</Time>
            <Position>
              <LatitudeDegrees>49.33802607469260692596435546875</LatitudeDegrees>
              <LongitudeDegrees>19.95906628668308258056640625</LongitudeDegrees>
            </Position>
            <AltitudeMeters>931.4000244140625</AltitudeMeters>
            <DistanceMeters>NAN</DistanceMeters>
          </Trackpoint>
          <Trackpoint>
            <Time>2022-09-19T11:04:17.000Z</Time>
            <Position>
              <LatitudeDegrees>49.337988607585430145263671875</LatitudeDegrees>
              <LongitudeDegrees>19.95931573212146759033203125</LongitudeDegrees>
            </Position>
            <AltitudeMeters>930</AltitudeMeters>
            <DistanceMeters>NAN</DistanceMeters>
          </Trackpoint>
          <Trackpoint>
            <Time>2022-09-19T11:04:19.000Z</Time>
            <Position>
              <LatitudeDegrees>49.33795482851564884185791015625</LatitudeDegrees>
              <LongitudeDegrees>19.95956383645534515380859375</LongitudeDegrees>
            </Position>
            <AltitudeMeters>928.20001220703125</AltitudeMeters>
            <DistanceMeters>NAN</DistanceMeters>
          </Trackpoint>
          <Trackpoint>
            <Time>2022-09-19T11:04:20.000Z</Time>
            <Position>
              <LatitudeDegrees>49.33794326148927211761474609375</LatitudeDegrees>
              <LongitudeDegrees>19.95969534851610660552978515625</LongitudeDegrees>
            </Position>
            <AltitudeMeters>927.5999755859375</AltitudeMeters>
            <DistanceMeters>NAN</DistanceMeters>
          </Trackpoint>
          <Trackpoint>
            <Time>2022-09-19T11:04:21.000Z</Time>
            <Position>
              <LatitudeDegrees>49.3379391543567180633544921875</LatitudeDegrees>
              <LongitudeDegrees>19.95984303764998912811279296875</LongitudeDegrees>
            </Position>
            <AltitudeMeters>926.79998779296875</AltitudeMeters>
            <DistanceMeters>NAN</DistanceMeters>
          </Trackpoint>
          <Trackpoint>
            <Time>2022-09-19T11:04:23.000Z</Time>
            <Position>
              <LatitudeDegrees>49.33795331977307796478271484375</LatitudeDegrees>
              <LongitudeDegrees>19.96015618555247783660888671875</LongitudeDegrees>
            </Position>
            <AltitudeMeters>925</AltitudeMeters>
            <DistanceMeters>NAN</DistanceMeters>
          </Trackpoint>
          <Trackpoint>
            <Time>2022-09-19T11:04:25.000Z</Time>
            <Position>
              <LatitudeDegrees>49.33797544799745082855224609375</LatitudeDegrees>
              <LongitudeDegrees>19.96048785746097564697265625</LongitudeDegrees>
            </Position>
            <AltitudeMeters>923.79998779296875</AltitudeMeters>
            <DistanceMeters>NAN</DistanceMeters>
          </Trackpoint>
          <Trackpoint>
            <Time>2022-09-19T11:04:27.000Z</Time>
            <Position>
              <LatitudeDegrees>49.33799900114536285400390625</LatitudeDegrees>
              <LongitudeDegrees>19.96083964593708515167236328125</LongitudeDegrees>
            </Position>
            <AltitudeMeters>922.20001220703125</AltitudeMeters>
            <DistanceMeters>NAN</DistanceMeters>
          </Trackpoint>
          <Trackpoint>
            <Time>2022-09-19T11:04:28.000Z</Time>
            <Position>
              <LatitudeDegrees>49.33801115490496158599853515625</LatitudeDegrees>
              <LongitudeDegrees>19.96102220378816127777099609375</LongitudeDegrees>
            </Position>
            <AltitudeMeters>921.20001220703125</AltitudeMeters>
            <DistanceMeters>NAN</DistanceMeters>
          </Trackpoint>
          <Trackpoint>
            <Time>2022-09-19T11:04:29.000Z</Time>
            <Position>
              <LatitudeDegrees>49.33802624233067035675048828125</LatitudeDegrees>
              <LongitudeDegrees>19.9612055160105228424072265625</LongitudeDegrees>
            </Position>
            <AltitudeMeters>919.79998779296875</AltitudeMeters>
            <DistanceMeters>NAN</DistanceMeters>
          </Trackpoint>
          <Trackpoint>
            <Time>2022-09-19T11:04:31.000Z</Time>
            <Position>
              <LatitudeDegrees>49.33806069195270538330078125</LatitudeDegrees>
              <LongitudeDegrees>19.961589910089969635009765625</LongitudeDegrees>
            </Position>
            <AltitudeMeters>918.20001220703125</AltitudeMeters>
            <DistanceMeters>NAN</DistanceMeters>
          </Trackpoint>
          <Trackpoint>
            <Time>2022-09-19T11:04:32.000Z</Time>
            <Position>
              <LatitudeDegrees>49.33807183988392353057861328125</LatitudeDegrees>
              <LongitudeDegrees>19.9617912434041500091552734375</LongitudeDegrees>
            </Position>
            <AltitudeMeters>916.5999755859375</AltitudeMeters>
            <DistanceMeters>NAN</DistanceMeters>
          </Trackpoint>
          <Trackpoint>
            <Time>2022-09-19T11:04:33.000Z</Time>
            <Position>
              <LatitudeDegrees>49.3380732648074626922607421875</LatitudeDegrees>
              <LongitudeDegrees>19.96199752204120159149169921875</LongitudeDegrees>
            </Position>
            <AltitudeMeters>915.4000244140625</AltitudeMeters>
            <DistanceMeters>NAN</DistanceMeters>
          </Trackpoint>
          <Trackpoint>
            <Time>2022-09-19T11:04:34.000Z</Time>
            <Position>
              <LatitudeDegrees>49.3380640447139739990234375</LatitudeDegrees>
              <LongitudeDegrees>19.9622029624879360198974609375</LongitudeDegrees>
            </Position>
            <AltitudeMeters>914.20001220703125</AltitudeMeters>
            <DistanceMeters>NAN</DistanceMeters>
          </Trackpoint>
          <Trackpoint>
            <Time>2022-09-19T11:04:36.000Z</Time>
            <Position>
              <LatitudeDegrees>49.33802121318876743316650390625</LatitudeDegrees>
              <LongitudeDegrees>19.96261996217072010040283203125</LongitudeDegrees>
            </Position>
            <AltitudeMeters>912.79998779296875</AltitudeMeters>
            <DistanceMeters>NAN</DistanceMeters>
          </Trackpoint>
          <Trackpoint>
            <Time>2022-09-19T11:04:37.000Z</Time>
            <Position>
              <LatitudeDegrees>49.3379916250705718994140625</LatitudeDegrees>
              <LongitudeDegrees>19.96282783336937427520751953125</LongitudeDegrees>
            </Position>
            <AltitudeMeters>911.4000244140625</AltitudeMeters>
            <DistanceMeters>NAN</DistanceMeters>
          </Trackpoint>
          <Trackpoint>
            <Time>2022-09-19T11:04:38.000Z</Time>
            <Position>
              <LatitudeDegrees>49.3379589356482028961181640625</LatitudeDegrees>
              <LongitudeDegrees>19.9630337767302989959716796875</LongitudeDegrees>
            </Position>
            <AltitudeMeters>910.4000244140625</AltitudeMeters>
            <DistanceMeters>NAN</DistanceMeters>
          </Trackpoint>
          <Trackpoint>
            <Time>2022-09-19T11:04:40.000Z</Time>
            <Position>
              <LatitudeDegrees>49.337896741926670074462890625</LatitudeDegrees>
              <LongitudeDegrees>19.9634465016424655914306640625</LongitudeDegrees>
            </Position>
            <AltitudeMeters>909</AltitudeMeters>
            <DistanceMeters>NAN</DistanceMeters>
          </Trackpoint>
          <Trackpoint>
            <Time>2022-09-19T11:04:41.000Z</Time>
            <Position>
              <LatitudeDegrees>49.33786866255104541778564453125</LatitudeDegrees>
              <LongitudeDegrees>19.9636473320424556732177734375</LongitudeDegrees>
            </Position>
            <AltitudeMeters>907.20001220703125</AltitudeMeters>
            <DistanceMeters>NAN</DistanceMeters>
          </Trackpoint>
          <Trackpoint>
            <Time>2022-09-19T11:04:42.000Z</Time>
            <Position>
              <LatitudeDegrees>49.33784049935638904571533203125</LatitudeDegrees>
              <LongitudeDegrees>19.9638401158154010772705078125</LongitudeDegrees>
            </Position>
            <AltitudeMeters>905.5999755859375</AltitudeMeters>
            <DistanceMeters>NAN</DistanceMeters>
          </Trackpoint>
          <Trackpoint>
            <Time>2022-09-19T11:04:43.000Z</Time>
            <Position>
              <LatitudeDegrees>49.33781602419912815093994140625</LatitudeDegrees>
              <LongitudeDegrees>19.9640231765806674957275390625</LongitudeDegrees>
            </Position>
            <AltitudeMeters>904.5999755859375</AltitudeMeters>
            <DistanceMeters>NAN</DistanceMeters>
          </Trackpoint>
          <Trackpoint>
            <Time>2022-09-19T11:04:44.000Z</Time>
            <Position>
              <LatitudeDegrees>49.33779506944119930267333984375</LatitudeDegrees>
              <LongitudeDegrees>19.96418938972055912017822265625</LongitudeDegrees>
            </Position>
            <AltitudeMeters>903</AltitudeMeters>
            <DistanceMeters>NAN</DistanceMeters>
          </Trackpoint>
          <Trackpoint>
            <Time>2022-09-19T11:04:45.000Z</Time>
            <Position>
              <LatitudeDegrees>49.33777679689228534698486328125</LatitudeDegrees>
              <LongitudeDegrees>19.9643321335315704345703125</LongitudeDegrees>
            </Position>
            <AltitudeMeters>902.20001220703125</AltitudeMeters>
            <DistanceMeters>NAN</DistanceMeters>
          </Trackpoint>
          <Trackpoint>
            <Time>2022-09-19T11:04:46.000Z</Time>
            <Position>
              <LatitudeDegrees>49.33775936253368854522705078125</LatitudeDegrees>
              <LongitudeDegrees>19.96446180157363414764404296875</LongitudeDegrees>
            </Position>
            <AltitudeMeters>901.5999755859375</AltitudeMeters>
            <DistanceMeters>NAN</DistanceMeters>
          </Trackpoint>
          <Trackpoint>
            <Time>2022-09-19T11:04:48.000Z</Time>
            <Position>
              <LatitudeDegrees>49.3377229012548923492431640625</LatitudeDegrees>
              <LongitudeDegrees>19.96471510268747806549072265625</LongitudeDegrees>
            </Position>
            <AltitudeMeters>899.5999755859375</AltitudeMeters>
            <DistanceMeters>NAN</DistanceMeters>
          </Trackpoint>
          <Trackpoint>
            <Time>2022-09-19T11:04:49.000Z</Time>
            <Position>
              <LatitudeDegrees>49.33770420961081981658935546875</LatitudeDegrees>
              <LongitudeDegrees>19.9648412503302097320556640625</LongitudeDegrees>
            </Position>
            <AltitudeMeters>899</AltitudeMeters>
            <DistanceMeters>NAN</DistanceMeters>
          </Trackpoint>
          <Trackpoint>
            <Time>2022-09-19T11:04:50.000Z</Time>
            <Position>
              <LatitudeDegrees>49.3376846797764301300048828125</LatitudeDegrees>
              <LongitudeDegrees>19.9649743549525737762451171875</LongitudeDegrees>
            </Position>
            <AltitudeMeters>898</AltitudeMeters>
            <DistanceMeters>NAN</DistanceMeters>
          </Trackpoint>
          <Trackpoint>
            <Time>2022-09-19T11:04:52.000Z</Time>
            <Position>
              <LatitudeDegrees>49.33764285407960414886474609375</LatitudeDegrees>
              <LongitudeDegrees>19.96526177041232585906982421875</LongitudeDegrees>
            </Position>
            <AltitudeMeters>896.5999755859375</AltitudeMeters>
            <DistanceMeters>NAN</DistanceMeters>
          </Trackpoint>
          <Trackpoint>
            <Time>2022-09-19T11:04:54.000Z</Time>
            <Position>
              <LatitudeDegrees>49.33759490959346294403076171875</LatitudeDegrees>
              <LongitudeDegrees>19.9655805341899394989013671875</LongitudeDegrees>
            </Position>
            <AltitudeMeters>895.20001220703125</AltitudeMeters>
            <DistanceMeters>NAN</DistanceMeters>
          </Trackpoint>
          <Trackpoint>
            <Time>2022-09-19T11:04:55.000Z</Time>
            <Position>
              <LatitudeDegrees>49.33756942860782146453857421875</LatitudeDegrees>
              <LongitudeDegrees>19.96574725024402141571044921875</LongitudeDegrees>
            </Position>
            <AltitudeMeters>894.20001220703125</AltitudeMeters>
            <DistanceMeters>NAN</DistanceMeters>
          </Trackpoint>
          <Trackpoint>
            <Time>2022-09-19T11:04:57.000Z</Time>
            <Position>
              <LatitudeDegrees>49.33751888573169708251953125</LatitudeDegrees>
              <LongitudeDegrees>19.966087304055690765380859375</LongitudeDegrees>
            </Position>
            <AltitudeMeters>892.4000244140625</AltitudeMeters>
            <DistanceMeters>NAN</DistanceMeters>
          </Trackpoint>
          <Trackpoint>
            <Time>2022-09-19T11:04:59.000Z</Time>
            <Position>
              <LatitudeDegrees>49.337471611797809600830078125</LatitudeDegrees>
              <LongitudeDegrees>19.9664376676082611083984375</LongitudeDegrees>
            </Position>
            <AltitudeMeters>890.5999755859375</AltitudeMeters>
            <DistanceMeters>NAN</DistanceMeters>
          </Trackpoint>
          <Trackpoint>
            <Time>2022-09-19T11:05:00.000Z</Time>
            <Position>
              <LatitudeDegrees>49.337446130812168121337890625</LatitudeDegrees>
              <LongitudeDegrees>19.96661159209907054901123046875</LongitudeDegrees>
            </Position>
            <AltitudeMeters>889.5999755859375</AltitudeMeters>
            <DistanceMeters>NAN</DistanceMeters>
          </Trackpoint>
          <Trackpoint>
            <Time>2022-09-19T11:05:01.000Z</Time>
            <Position>
              <LatitudeDegrees>49.3374181352555751800537109375</LatitudeDegrees>
              <LongitudeDegrees>19.966786019504070281982421875</LongitudeDegrees>
            </Position>
            <AltitudeMeters>888.4000244140625</AltitudeMeters>
            <DistanceMeters>NAN</DistanceMeters>
          </Trackpoint>
          <Trackpoint>
            <Time>2022-09-19T11:05:02.000Z</Time>
            <Position>
              <LatitudeDegrees>49.337389469146728515625</LatitudeDegrees>
              <LongitudeDegrees>19.966960363090038299560546875</LongitudeDegrees>
            </Position>
            <AltitudeMeters>887.4000244140625</AltitudeMeters>
            <DistanceMeters>NAN</DistanceMeters>
          </Trackpoint>
          <Trackpoint>
            <Time>2022-09-19T11:05:04.000Z</Time>
            <Position>
              <LatitudeDegrees>49.3373410217463970184326171875</LatitudeDegrees>
              <LongitudeDegrees>19.96731382794678211212158203125</LongitudeDegrees>
            </Position>
            <AltitudeMeters>885.79998779296875</AltitudeMeters>
            <DistanceMeters>NAN</DistanceMeters>
          </Trackpoint>
          <Trackpoint>
            <Time>2022-09-19T11:05:06.000Z</Time>
            <Position>
              <LatitudeDegrees>49.3372853659093379974365234375</LatitudeDegrees>
              <LongitudeDegrees>19.96765731833875179290771484375</LongitudeDegrees>
            </Position>
            <AltitudeMeters>883.79998779296875</AltitudeMeters>
            <DistanceMeters>NAN</DistanceMeters>
          </Trackpoint>
          <Trackpoint>
            <Time>2022-09-19T11:05:07.000Z</Time>
            <Position>
              <LatitudeDegrees>49.33725795708596706390380859375</LatitudeDegrees>
              <LongitudeDegrees>19.96783082373440265655517578125</LongitudeDegrees>
            </Position>
            <AltitudeMeters>882.79998779296875</AltitudeMeters>
            <DistanceMeters>NAN</DistanceMeters>
          </Trackpoint>
          <Trackpoint>
            <Time>2022-09-19T11:05:09.000Z</Time>
            <Position>
              <LatitudeDegrees>49.33719693683087825775146484375</LatitudeDegrees>
              <LongitudeDegrees>19.968179762363433837890625</LongitudeDegrees>
            </Position>
            <AltitudeMeters>881.5999755859375</AltitudeMeters>
            <DistanceMeters>NAN</DistanceMeters>
          </Trackpoint>
          <Trackpoint>
            <Time>2022-09-19T11:05:11.000Z</Time>
            <Position>
              <LatitudeDegrees>49.33713675476610660552978515625</LatitudeDegrees>
              <LongitudeDegrees>19.968539513647556304931640625</LongitudeDegrees>
            </Position>
            <AltitudeMeters>879.4000244140625</AltitudeMeters>
            <DistanceMeters>NAN</DistanceMeters>
          </Trackpoint>
          <Trackpoint>
            <Time>2022-09-19T11:05:13.000Z</Time>
            <Position>
              <LatitudeDegrees>49.3370811827480792999267578125</LatitudeDegrees>
              <LongitudeDegrees>19.96891326270997524261474609375</LongitudeDegrees>
            </Position>
            <AltitudeMeters>878.4000244140625</AltitudeMeters>
            <DistanceMeters>NAN</DistanceMeters>
          </Trackpoint>
          <Trackpoint>
            <Time>2022-09-19T11:05:15.000Z</Time>
            <Position>
              <LatitudeDegrees>49.337029047310352325439453125</LatitudeDegrees>
              <LongitudeDegrees>19.96929564513266086578369140625</LongitudeDegrees>
            </Position>
            <AltitudeMeters>876.20001220703125</AltitudeMeters>
            <DistanceMeters>NAN</DistanceMeters>
          </Trackpoint>
          <Trackpoint>
            <Time>2022-09-19T11:05:17.000Z</Time>
            <Position>
              <LatitudeDegrees>49.336977414786815643310546875</LatitudeDegrees>
              <LongitudeDegrees>19.96967148967087268829345703125</LongitudeDegrees>
            </Position>
            <AltitudeMeters>874.79998779296875</AltitudeMeters>
            <DistanceMeters>NAN</DistanceMeters>
          </Trackpoint>
          <Trackpoint>
            <Time>2022-09-19T11:05:18.000Z</Time>
            <Position>
              <LatitudeDegrees>49.33695025742053985595703125</LatitudeDegrees>
              <LongitudeDegrees>19.9698507785797119140625</LongitudeDegrees>
            </Position>
            <AltitudeMeters>873.79998779296875</AltitudeMeters>
            <DistanceMeters>NAN</DistanceMeters>
          </Trackpoint>
          <Trackpoint>
            <Time>2022-09-19T11:05:20.000Z</Time>
            <Position>
              <LatitudeDegrees>49.33690088801085948944091796875</LatitudeDegrees>
              <LongitudeDegrees>19.97018228285014629364013671875</LongitudeDegrees>
            </Position>
            <AltitudeMeters>872.5999755859375</AltitudeMeters>
            <DistanceMeters>NAN</DistanceMeters>
          </Trackpoint>
          <Trackpoint>
            <Time>2022-09-19T11:05:23.000Z</Time>
            <Position>
              <LatitudeDegrees>49.336836598813533782958984375</LatitudeDegrees>
              <LongitudeDegrees>19.97065988369286060333251953125</LongitudeDegrees>
            </Position>
            <AltitudeMeters>871.20001220703125</AltitudeMeters>
            <DistanceMeters>NAN</DistanceMeters>
          </Trackpoint>
          <Trackpoint>
            <Time>2022-09-19T11:05:25.000Z</Time>
            <Position>
              <LatitudeDegrees>49.33679812587797641754150390625</LatitudeDegrees>
              <LongitudeDegrees>19.97095626778900623321533203125</LongitudeDegrees>
            </Position>
            <AltitudeMeters>869.79998779296875</AltitudeMeters>
            <DistanceMeters>NAN</DistanceMeters>
          </Trackpoint>
          <Trackpoint>
            <Time>2022-09-19T11:05:26.000Z</Time>
            <Position>
              <LatitudeDegrees>49.33677918277680873870849609375</LatitudeDegrees>
              <LongitudeDegrees>19.97110160999000072479248046875</LongitudeDegrees>
            </Position>
            <AltitudeMeters>869.20001220703125</AltitudeMeters>
            <DistanceMeters>NAN</DistanceMeters>
          </Trackpoint>
          <Trackpoint>
            <Time>2022-09-19T11:05:27.000Z</Time>
            <Position>
              <LatitudeDegrees>49.33675940148532390594482421875</LatitudeDegrees>
              <LongitudeDegrees>19.9712443538010120391845703125</LongitudeDegrees>
            </Position>
            <AltitudeMeters>868.79998779296875</AltitudeMeters>
            <DistanceMeters>NAN</DistanceMeters>
          </Trackpoint>
          <Trackpoint>
            <Time>2022-09-19T11:05:29.000Z</Time>
            <Position>
              <LatitudeDegrees>49.33672495186328887939453125</LatitudeDegrees>
              <LongitudeDegrees>19.97154383920133113861083984375</LongitudeDegrees>
            </Position>
            <AltitudeMeters>867.5999755859375</AltitudeMeters>
            <DistanceMeters>NAN</DistanceMeters>
          </Trackpoint>
          <Trackpoint>
            <Time>2022-09-19T11:05:32.000Z</Time>
            <Position>
              <LatitudeDegrees>49.3366724811494350433349609375</LatitudeDegrees>
              <LongitudeDegrees>19.97200165875256061553955078125</LongitudeDegrees>
            </Position>
            <AltitudeMeters>866.4000244140625</AltitudeMeters>
            <DistanceMeters>NAN</DistanceMeters>
          </Trackpoint>
          <Trackpoint>
            <Time>2022-09-19T11:05:35.000Z</Time>
            <Position>
              <LatitudeDegrees>49.33661657385528087615966796875</LatitudeDegrees>
              <LongitudeDegrees>19.9724422954022884368896484375</LongitudeDegrees>
            </Position>
            <AltitudeMeters>865</AltitudeMeters>
            <DistanceMeters>NAN</DistanceMeters>
          </Trackpoint>
          <Trackpoint>
            <Time>2022-09-19T11:05:37.000Z</Time>
            <Position>
              <LatitudeDegrees>49.3365729041397571563720703125</LatitudeDegrees>
              <LongitudeDegrees>19.9727676808834075927734375</LongitudeDegrees>
            </Position>
            <AltitudeMeters>863.20001220703125</AltitudeMeters>
            <DistanceMeters>NAN</DistanceMeters>
          </Trackpoint>
          <Trackpoint>
            <Time>2022-09-19T11:05:39.000Z</Time>
            <Position>
              <LatitudeDegrees>49.33653778396546840667724609375</LatitudeDegrees>
              <LongitudeDegrees>19.97303648851811885833740234375</LongitudeDegrees>
            </Position>
            <AltitudeMeters>861.79998779296875</AltitudeMeters>
            <DistanceMeters>NAN</DistanceMeters>
          </Trackpoint>
          <Trackpoint>
            <Time>2022-09-19T11:05:41.000Z</Time>
            <Position>
              <LatitudeDegrees>49.336503334343433380126953125</LatitudeDegrees>
              <LongitudeDegrees>19.9732912145555019378662109375</LongitudeDegrees>
            </Position>
            <AltitudeMeters>860.4000244140625</AltitudeMeters>
            <DistanceMeters>NAN</DistanceMeters>
          </Trackpoint>
          <Trackpoint>
            <Time>2022-09-19T11:05:43.000Z</Time>
            <Position>
              <LatitudeDegrees>49.336472488939762115478515625</LatitudeDegrees>
              <LongitudeDegrees>19.97353604994714260101318359375</LongitudeDegrees>
            </Position>
            <AltitudeMeters>859</AltitudeMeters>
            <DistanceMeters>NAN</DistanceMeters>
          </Trackpoint>
          <Trackpoint>
            <Time>2022-09-19T11:05:45.000Z</Time>
            <Position>
              <LatitudeDegrees>49.33644189499318599700927734375</LatitudeDegrees>
              <LongitudeDegrees>19.97378356754779815673828125</LongitudeDegrees>
            </Position>
            <AltitudeMeters>857.5999755859375</AltitudeMeters>
            <DistanceMeters>NAN</DistanceMeters>
          </Trackpoint>
          <Trackpoint>
            <Time>2022-09-19T11:05:47.000Z</Time>
            <Position>
              <LatitudeDegrees>49.33641641400754451751708984375</LatitudeDegrees>
              <LongitudeDegrees>19.974040724337100982666015625</LongitudeDegrees>
            </Position>
            <AltitudeMeters>856.4000244140625</AltitudeMeters>
            <DistanceMeters>NAN</DistanceMeters>
          </Trackpoint>
          <Trackpoint>
            <Time>2022-09-19T11:05:48.000Z</Time>
            <Position>
              <LatitudeDegrees>49.336402080953121185302734375</LatitudeDegrees>
              <LongitudeDegrees>19.97417257167398929595947265625</LongitudeDegrees>
            </Position>
            <AltitudeMeters>855.5999755859375</AltitudeMeters>
            <DistanceMeters>NAN</DistanceMeters>
          </Trackpoint>
          <Trackpoint>
            <Time>2022-09-19T11:05:49.000Z</Time>
            <Position>
              <LatitudeDegrees>49.33638699352741241455078125</LatitudeDegrees>
              <LongitudeDegrees>19.9743037484586238861083984375</LongitudeDegrees>
            </Position>
            <AltitudeMeters>855</AltitudeMeters>
            <DistanceMeters>NAN</DistanceMeters>
          </Trackpoint>
          <Trackpoint>
            <Time>2022-09-19T11:05:51.000Z</Time>
            <Position>
              <LatitudeDegrees>49.3363546393811702728271484375</LatitudeDegrees>
              <LongitudeDegrees>19.974558390676975250244140625</LongitudeDegrees>
            </Position>
            <AltitudeMeters>854</AltitudeMeters>
            <DistanceMeters>NAN</DistanceMeters>
          </Trackpoint>
          <Trackpoint>
            <Time>2022-09-19T11:05:54.000Z</Time>
            <Position>
              <LatitudeDegrees>49.33632387779653072357177734375</LatitudeDegrees>
              <LongitudeDegrees>19.97495108284056186676025390625</LongitudeDegrees>
            </Position>
            <AltitudeMeters>852.5999755859375</AltitudeMeters>
            <DistanceMeters>NAN</DistanceMeters>
          </Trackpoint>
          <Trackpoint>
            <Time>2022-09-19T11:05:55.000Z</Time>
            <Position>
              <LatitudeDegrees>49.33631566353142261505126953125</LatitudeDegrees>
              <LongitudeDegrees>19.97508586384356021881103515625</LongitudeDegrees>
            </Position>
            <AltitudeMeters>851.5999755859375</AltitudeMeters>
            <DistanceMeters>NAN</DistanceMeters>
          </Trackpoint>
          <Trackpoint>
            <Time>2022-09-19T11:05:57.000Z</Time>
            <Position>
              <LatitudeDegrees>49.33630250394344329833984375</LatitudeDegrees>
              <LongitudeDegrees>19.975368417799472808837890625</LongitudeDegrees>
            </Position>
            <AltitudeMeters>850.20001220703125</AltitudeMeters>
            <DistanceMeters>NAN</DistanceMeters>
          </Trackpoint>
          <Trackpoint>
            <Time>2022-09-19T11:05:58.000Z</Time>
            <Position>
              <LatitudeDegrees>49.336298145353794097900390625</LatitudeDegrees>
              <LongitudeDegrees>19.97552088461816310882568359375</LongitudeDegrees>
            </Position>
            <AltitudeMeters>849.20001220703125</AltitudeMeters>
            <DistanceMeters>NAN</DistanceMeters>
          </Trackpoint>
          <Trackpoint>
            <Time>2022-09-19T11:05:59.000Z</Time>
            <Position>
              <LatitudeDegrees>49.33629655279219150543212890625</LatitudeDegrees>
              <LongitudeDegrees>19.9756807275116443634033203125</LongitudeDegrees>
            </Position>
            <AltitudeMeters>848</AltitudeMeters>
            <DistanceMeters>NAN</DistanceMeters>
          </Trackpoint>
          <Trackpoint>
            <Time>2022-09-19T11:06:00.000Z</Time>
            <Position>
              <LatitudeDegrees>49.336293451488018035888671875</LatitudeDegrees>
              <LongitudeDegrees>19.97584576718509197235107421875</LongitudeDegrees>
            </Position>
            <AltitudeMeters>846.79998779296875</AltitudeMeters>
            <DistanceMeters>NAN</DistanceMeters>
          </Trackpoint>
          <Trackpoint>
            <Time>2022-09-19T11:06:02.000Z</Time>
            <Position>
              <LatitudeDegrees>49.336298815906047821044921875</LatitudeDegrees>
              <LongitudeDegrees>19.97618280351161956787109375</LongitudeDegrees>
            </Position>
            <AltitudeMeters>844.79998779296875</AltitudeMeters>
            <DistanceMeters>NAN</DistanceMeters>
          </Trackpoint>
          <Trackpoint>
            <Time>2022-09-19T11:06:04.000Z</Time>
            <Position>
              <LatitudeDegrees>49.3363107182085514068603515625</LatitudeDegrees>
              <LongitudeDegrees>19.97652880847454071044921875</LongitudeDegrees>
            </Position>
            <AltitudeMeters>843.5999755859375</AltitudeMeters>
            <DistanceMeters>NAN</DistanceMeters>
          </Trackpoint>
          <Trackpoint>
            <Time>2022-09-19T11:06:05.000Z</Time>
            <Position>
              <LatitudeDegrees>49.336316920816898345947265625</LatitudeDegrees>
              <LongitudeDegrees>19.9766956083476543426513671875</LongitudeDegrees>
            </Position>
            <AltitudeMeters>842.20001220703125</AltitudeMeters>
            <DistanceMeters>NAN</DistanceMeters>
          </Trackpoint>
          <Trackpoint>
            <Time>2022-09-19T11:06:06.000Z</Time>
            <Position>
              <LatitudeDegrees>49.33632069267332553863525390625</LatitudeDegrees>
              <LongitudeDegrees>19.97685947455465793609619140625</LongitudeDegrees>
            </Position>
            <AltitudeMeters>840.79998779296875</AltitudeMeters>
            <DistanceMeters>NAN</DistanceMeters>
          </Trackpoint>
          <Trackpoint>
            <Time>2022-09-19T11:06:07.000Z</Time>
            <Position>
              <LatitudeDegrees>49.33632773347198963165283203125</LatitudeDegrees>
              <LongitudeDegrees>19.9770164676010608673095703125</LongitudeDegrees>
            </Position>
            <AltitudeMeters>839.5999755859375</AltitudeMeters>
            <DistanceMeters>NAN</DistanceMeters>
          </Trackpoint>
          <Trackpoint>
            <Time>2022-09-19T11:06:08.000Z</Time>
            <Position>
              <LatitudeDegrees>49.33633477427065372467041015625</LatitudeDegrees>
              <LongitudeDegrees>19.9771693535149097442626953125</LongitudeDegrees>
            </Position>
            <AltitudeMeters>837.5999755859375</AltitudeMeters>
            <DistanceMeters>NAN</DistanceMeters>
          </Trackpoint>
          <Trackpoint>
            <Time>2022-09-19T11:06:09.000Z</Time>
            <Position>
              <LatitudeDegrees>49.33634114451706409454345703125</LatitudeDegrees>
              <LongitudeDegrees>19.977315030992031097412109375</LongitudeDegrees>
            </Position>
            <AltitudeMeters>836.4000244140625</AltitudeMeters>
            <DistanceMeters>NAN</DistanceMeters>
          </Trackpoint>
          <Trackpoint>
            <Time>2022-09-19T11:06:11.000Z</Time>
            <Position>
              <LatitudeDegrees>49.33635346591472625732421875</LatitudeDegrees>
              <LongitudeDegrees>19.97758300043642520904541015625</LongitudeDegrees>
            </Position>
            <AltitudeMeters>834.5999755859375</AltitudeMeters>
            <DistanceMeters>NAN</DistanceMeters>
          </Trackpoint>
          <Trackpoint>
            <Time>2022-09-19T11:06:13.000Z</Time>
            <Position>
              <LatitudeDegrees>49.33636017143726348876953125</LatitudeDegrees>
              <LongitudeDegrees>19.97782758437097072601318359375</LongitudeDegrees>
            </Position>
            <AltitudeMeters>832.79998779296875</AltitudeMeters>
            <DistanceMeters>NAN</DistanceMeters>
          </Trackpoint>
          <Trackpoint>
            <Time>2022-09-19T11:06:15.000Z</Time>
            <Position>
              <LatitudeDegrees>49.33637090027332305908203125</LatitudeDegrees>
              <LongitudeDegrees>19.978048615157604217529296875</LongitudeDegrees>
            </Position>
            <AltitudeMeters>831.20001220703125</AltitudeMeters>
            <DistanceMeters>NAN</DistanceMeters>
          </Trackpoint>
          <Trackpoint>
            <Time>2022-09-19T11:06:17.000Z</Time>
            <Position>
              <LatitudeDegrees>49.33637584559619426727294921875</LatitudeDegrees>
              <LongitudeDegrees>19.97825623489916324615478515625</LongitudeDegrees>
            </Position>
            <AltitudeMeters>829.5999755859375</AltitudeMeters>
            <DistanceMeters>NAN</DistanceMeters>
          </Trackpoint>
          <Trackpoint>
            <Time>2022-09-19T11:06:18.000Z</Time>
            <Position>
              <LatitudeDegrees>49.336381964385509490966796875</LatitudeDegrees>
              <LongitudeDegrees>19.978349022567272186279296875</LongitudeDegrees>
            </Position>
            <AltitudeMeters>828.79998779296875</AltitudeMeters>
            <DistanceMeters>NAN</DistanceMeters>
          </Trackpoint>
          <Trackpoint>
            <Time>2022-09-19T11:06:19.000Z</Time>
            <Position>
              <LatitudeDegrees>49.336388669908046722412109375</LatitudeDegrees>
              <LongitudeDegrees>19.978433512151241302490234375</LongitudeDegrees>
            </Position>
            <AltitudeMeters>828.20001220703125</AltitudeMeters>
            <DistanceMeters>NAN</DistanceMeters>
          </Trackpoint>
          <Trackpoint>
            <Time>2022-09-19T11:06:21.000Z</Time>
            <Position>
              <LatitudeDegrees>49.33638942427933216094970703125</LatitudeDegrees>
              <LongitudeDegrees>19.9786055088043212890625</LongitudeDegrees>
            </Position>
            <AltitudeMeters>827</AltitudeMeters>
            <DistanceMeters>NAN</DistanceMeters>
          </Trackpoint>
          <Trackpoint>
            <Time>2022-09-19T11:06:23.000Z</Time>
            <Position>
              <LatitudeDegrees>49.3363921903073787689208984375</LatitudeDegrees>
              <LongitudeDegrees>19.9787719734013080596923828125</LongitudeDegrees>
            </Position>
            <AltitudeMeters>825.79998779296875</AltitudeMeters>
            <DistanceMeters>NAN</DistanceMeters>
          </Trackpoint>
          <Trackpoint>
            <Time>2022-09-19T11:06:25.000Z</Time>
            <Position>
              <LatitudeDegrees>49.3363972194492816925048828125</LatitudeDegrees>
              <LongitudeDegrees>19.97894681990146636962890625</LongitudeDegrees>
            </Position>
            <AltitudeMeters>824.79998779296875</AltitudeMeters>
            <DistanceMeters>NAN</DistanceMeters>
          </Trackpoint>
          <Trackpoint>
            <Time>2022-09-19T11:06:27.000Z</Time>
            <Position>
              <LatitudeDegrees>49.33640551753342151641845703125</LatitudeDegrees>
              <LongitudeDegrees>19.97911236248910427093505859375</LongitudeDegrees>
            </Position>
            <AltitudeMeters>823.4000244140625</AltitudeMeters>
            <DistanceMeters>NAN</DistanceMeters>
          </Trackpoint>
          <Trackpoint>
            <Time>2022-09-19T11:06:29.000Z</Time>
            <Position>
              <LatitudeDegrees>49.3364143185317516326904296875</LatitudeDegrees>
              <LongitudeDegrees>19.979262314736843109130859375</LongitudeDegrees>
            </Position>
            <AltitudeMeters>822.4000244140625</AltitudeMeters>
            <DistanceMeters>NAN</DistanceMeters>
          </Trackpoint>
          <Trackpoint>
            <Time>2022-09-19T11:06:31.000Z</Time>
            <Position>
              <LatitudeDegrees>49.33641758747398853302001953125</LatitudeDegrees>
              <LongitudeDegrees>19.979393072426319122314453125</LongitudeDegrees>
            </Position>
            <AltitudeMeters>821.20001220703125</AltitudeMeters>
            <DistanceMeters>NAN</DistanceMeters>
          </Trackpoint>
          <Trackpoint>
            <Time>2022-09-19T11:06:34.000Z</Time>
            <Position>
              <LatitudeDegrees>49.33641247451305389404296875</LatitudeDegrees>
              <LongitudeDegrees>19.97956180013716220855712890625</LongitudeDegrees>
            </Position>
            <AltitudeMeters>820</AltitudeMeters>
            <DistanceMeters>NAN</DistanceMeters>
          </Trackpoint>
          <Trackpoint>
            <Time>2022-09-19T11:06:37.000Z</Time>
            <Position>
              <LatitudeDegrees>49.33640384115278720855712890625</LatitudeDegrees>
              <LongitudeDegrees>19.97973681427538394927978515625</LongitudeDegrees>
            </Position>
            <AltitudeMeters>819</AltitudeMeters>
            <DistanceMeters>NAN</DistanceMeters>
          </Trackpoint>
          <Trackpoint>
            <Time>2022-09-19T11:06:40.000Z</Time>
            <Position>
              <LatitudeDegrees>49.33637836016714572906494140625</LatitudeDegrees>
              <LongitudeDegrees>19.97994736768305301666259765625</LongitudeDegrees>
            </Position>
            <AltitudeMeters>817.79998779296875</AltitudeMeters>
            <DistanceMeters>NAN</DistanceMeters>
          </Trackpoint>
          <Trackpoint>
            <Time>2022-09-19T11:06:41.000Z</Time>
            <Position>
              <LatitudeDegrees>49.33637090027332305908203125</LatitudeDegrees>
              <LongitudeDegrees>19.98001593165099620819091796875</LongitudeDegrees>
            </Position>
            <AltitudeMeters>817.4000244140625</AltitudeMeters>
            <DistanceMeters>NAN</DistanceMeters>
          </Trackpoint>
          <Trackpoint>
            <Time>2022-09-19T11:06:44.000Z</Time>
            <Position>
              <LatitudeDegrees>49.33634466491639614105224609375</LatitudeDegrees>
              <LongitudeDegrees>19.9802307598292827606201171875</LongitudeDegrees>
            </Position>
            <AltitudeMeters>816.5999755859375</AltitudeMeters>
            <DistanceMeters>NAN</DistanceMeters>
          </Trackpoint>
          <Trackpoint>
            <Time>2022-09-19T11:06:46.000Z</Time>
            <Position>
              <LatitudeDegrees>49.3363194353878498077392578125</LatitudeDegrees>
              <LongitudeDegrees>19.98038859106600284576416015625</LongitudeDegrees>
            </Position>
            <AltitudeMeters>815.20001220703125</AltitudeMeters>
            <DistanceMeters>NAN</DistanceMeters>
          </Trackpoint>
          <Trackpoint>
            <Time>2022-09-19T11:06:48.000Z</Time>
            <Position>
              <LatitudeDegrees>49.33629604987800121307373046875</LatitudeDegrees>
              <LongitudeDegrees>19.98055019415915012359619140625</LongitudeDegrees>
            </Position>
            <AltitudeMeters>814</AltitudeMeters>
            <DistanceMeters>NAN</DistanceMeters>
          </Trackpoint>
          <Trackpoint>
            <Time>2022-09-19T11:06:51.000Z</Time>
            <Position>
              <LatitudeDegrees>49.3362803757190704345703125</LatitudeDegrees>
              <LongitudeDegrees>19.98077742755413055419921875</LongitudeDegrees>
            </Position>
            <AltitudeMeters>812.79998779296875</AltitudeMeters>
            <DistanceMeters>NAN</DistanceMeters>
          </Trackpoint>
          <Trackpoint>
            <Time>2022-09-19T11:06:53.000Z</Time>
            <Position>
              <LatitudeDegrees>49.33629135601222515106201171875</LatitudeDegrees>
              <LongitudeDegrees>19.9809350073337554931640625</LongitudeDegrees>
            </Position>
            <AltitudeMeters>811.79998779296875</AltitudeMeters>
            <DistanceMeters>NAN</DistanceMeters>
          </Trackpoint>
          <Trackpoint>
            <Time>2022-09-19T11:06:54.000Z</Time>
            <Position>
              <LatitudeDegrees>49.3363006599247455596923828125</LatitudeDegrees>
              <LongitudeDegrees>19.98101891018450260162353515625</LongitudeDegrees>
            </Position>
            <AltitudeMeters>811.4000244140625</AltitudeMeters>
            <DistanceMeters>NAN</DistanceMeters>
          </Trackpoint>
          <Trackpoint>
            <Time>2022-09-19T11:06:56.000Z</Time>
            <Position>
              <LatitudeDegrees>49.33632932603359222412109375</LatitudeDegrees>
              <LongitudeDegrees>19.981191493570804595947265625</LongitudeDegrees>
            </Position>
            <AltitudeMeters>810.20001220703125</AltitudeMeters>
            <DistanceMeters>NAN</DistanceMeters>
          </Trackpoint>
          <Trackpoint>
            <Time>2022-09-19T11:06:58.000Z</Time>
            <Position>
              <LatitudeDegrees>49.33636712841689586639404296875</LatitudeDegrees>
              <LongitudeDegrees>19.9813814274966716766357421875</LongitudeDegrees>
            </Position>
            <AltitudeMeters>809.4000244140625</AltitudeMeters>
            <DistanceMeters>NAN</DistanceMeters>
          </Trackpoint>
          <Trackpoint>
            <Time>2022-09-19T11:06:59.000Z</Time>
            <Position>
              <LatitudeDegrees>49.33638967573642730712890625</LatitudeDegrees>
              <LongitudeDegrees>19.98148444108664989471435546875</LongitudeDegrees>
            </Position>
            <AltitudeMeters>808.5999755859375</AltitudeMeters>
            <DistanceMeters>NAN</DistanceMeters>
          </Trackpoint>
          <Trackpoint>
            <Time>2022-09-19T11:07:02.000Z</Time>
            <Position>
              <LatitudeDegrees>49.336479194462299346923828125</LatitudeDegrees>
              <LongitudeDegrees>19.98183530755341053009033203125</LongitudeDegrees>
            </Position>
            <AltitudeMeters>807.4000244140625</AltitudeMeters>
            <DistanceMeters>NAN</DistanceMeters>
          </Trackpoint>
          <Trackpoint>
            <Time>2022-09-19T11:07:03.000Z</Time>
            <Position>
              <LatitudeDegrees>49.33651045896112918853759765625</LatitudeDegrees>
              <LongitudeDegrees>19.98195357620716094970703125</LongitudeDegrees>
            </Position>
            <AltitudeMeters>806.79998779296875</AltitudeMeters>
            <DistanceMeters>NAN</DistanceMeters>
          </Trackpoint>
          <Trackpoint>
            <Time>2022-09-19T11:07:04.000Z</Time>
            <Position>
              <LatitudeDegrees>49.336538203060626983642578125</LatitudeDegrees>
              <LongitudeDegrees>19.98206715099513530731201171875</LongitudeDegrees>
            </Position>
            <AltitudeMeters>805.5999755859375</AltitudeMeters>
            <DistanceMeters>NAN</DistanceMeters>
          </Trackpoint>
          <Trackpoint>
            <Time>2022-09-19T11:07:07.000Z</Time>
            <Position>
              <LatitudeDegrees>49.33662143535912036895751953125</LatitudeDegrees>
              <LongitudeDegrees>19.9824006669223308563232421875</LongitudeDegrees>
            </Position>
            <AltitudeMeters>804</AltitudeMeters>
            <DistanceMeters>NAN</DistanceMeters>
          </Trackpoint>
          <Trackpoint>
            <Time>2022-09-19T11:07:08.000Z</Time>
            <Position>
              <LatitudeDegrees>49.336654879152774810791015625</LatitudeDegrees>
              <LongitudeDegrees>19.982508122920989990234375</LongitudeDegrees>
            </Position>
            <AltitudeMeters>803.5999755859375</AltitudeMeters>
            <DistanceMeters>NAN</DistanceMeters>
          </Trackpoint>
          <Trackpoint>
            <Time>2022-09-19T11:07:09.000Z</Time>
            <Position>
              <LatitudeDegrees>49.3366875685751438140869140625</LatitudeDegrees>
              <LongitudeDegrees>19.98261884786188602447509765625</LongitudeDegrees>
            </Position>
            <AltitudeMeters>802.4000244140625</AltitudeMeters>
            <DistanceMeters>NAN</DistanceMeters>
          </Trackpoint>
          <Trackpoint>
            <Time>2022-09-19T11:07:11.000Z</Time>
            <Position>
              <LatitudeDegrees>49.33675403706729412078857421875</LatitudeDegrees>
              <LongitudeDegrees>19.98285613954067230224609375</LongitudeDegrees>
            </Position>
            <AltitudeMeters>801</AltitudeMeters>
            <DistanceMeters>NAN</DistanceMeters>
          </Trackpoint>
          <Trackpoint>
            <Time>2022-09-19T11:07:13.000Z</Time>
            <Position>
              <LatitudeDegrees>49.33682176284492015838623046875</LatitudeDegrees>
              <LongitudeDegrees>19.9831127934157848358154296875</LongitudeDegrees>
            </Position>
            <AltitudeMeters>800</AltitudeMeters>
            <DistanceMeters>NAN</DistanceMeters>
          </Trackpoint>
          <Trackpoint>
            <Time>2022-09-19T11:07:14.000Z</Time>
            <Position>
              <LatitudeDegrees>49.33685696683824062347412109375</LatitudeDegrees>
              <LongitudeDegrees>19.9832462333142757415771484375</LongitudeDegrees>
            </Position>
            <AltitudeMeters>799.4000244140625</AltitudeMeters>
            <DistanceMeters>NAN</DistanceMeters>
          </Trackpoint>
          <Trackpoint>
            <Time>2022-09-19T11:07:15.000Z</Time>
            <Position>
              <LatitudeDegrees>49.33689652942121028900146484375</LatitudeDegrees>
              <LongitudeDegrees>19.9833830259740352630615234375</LongitudeDegrees>
            </Position>
            <AltitudeMeters>798.79998779296875</AltitudeMeters>
            <DistanceMeters>NAN</DistanceMeters>
          </Trackpoint>
          <Trackpoint>
            <Time>2022-09-19T11:07:17.000Z</Time>
            <Position>
              <LatitudeDegrees>49.336976744234561920166015625</LatitudeDegrees>
              <LongitudeDegrees>19.9836629815399646759033203125</LongitudeDegrees>
            </Position>
            <AltitudeMeters>797.4000244140625</AltitudeMeters>
            <DistanceMeters>NAN</DistanceMeters>
          </Trackpoint>
          <Trackpoint>
            <Time>2022-09-19T11:07:19.000Z</Time>
            <Position>
              <LatitudeDegrees>49.33705410920083522796630859375</LatitudeDegrees>
              <LongitudeDegrees>19.9839469604194164276123046875</LongitudeDegrees>
            </Position>
            <AltitudeMeters>796.4000244140625</AltitudeMeters>
            <DistanceMeters>NAN</DistanceMeters>
          </Trackpoint>
          <Trackpoint>
            <Time>2022-09-19T11:07:20.000Z</Time>
            <Position>
              <LatitudeDegrees>49.33709266595542430877685546875</LatitudeDegrees>
              <LongitudeDegrees>19.9840871058404445648193359375</LongitudeDegrees>
            </Position>
            <AltitudeMeters>796</AltitudeMeters>
            <DistanceMeters>NAN</DistanceMeters>
          </Trackpoint>
          <Trackpoint>
            <Time>2022-09-19T11:07:22.000Z</Time>
            <Position>
              <LatitudeDegrees>49.33716491796076297760009765625</LatitudeDegrees>
              <LongitudeDegrees>19.984343759715557098388671875</LongitudeDegrees>
            </Position>
            <AltitudeMeters>795</AltitudeMeters>
            <DistanceMeters>NAN</DistanceMeters>
          </Trackpoint>
          <Trackpoint>
            <Time>2022-09-19T11:07:24.000Z</Time>
            <Position>
              <LatitudeDegrees>49.33722660876810550689697265625</LatitudeDegrees>
              <LongitudeDegrees>19.98456411994993686676025390625</LongitudeDegrees>
            </Position>
            <AltitudeMeters>793.5999755859375</AltitudeMeters>
            <DistanceMeters>NAN</DistanceMeters>
          </Trackpoint>
          <Trackpoint>
            <Time>2022-09-19T11:07:25.000Z</Time>
            <Position>
              <LatitudeDegrees>49.33726231567561626434326171875</LatitudeDegrees>
              <LongitudeDegrees>19.98466135002672672271728515625</LongitudeDegrees>
            </Position>
            <AltitudeMeters>793</AltitudeMeters>
            <DistanceMeters>NAN</DistanceMeters>
          </Trackpoint>
          <Trackpoint>
            <Time>2022-09-19T11:07:27.000Z</Time>
            <Position>
              <LatitudeDegrees>49.33732819743454456329345703125</LatitudeDegrees>
              <LongitudeDegrees>19.98484776355326175689697265625</LongitudeDegrees>
            </Position>
            <AltitudeMeters>792.4000244140625</AltitudeMeters>
            <DistanceMeters>NAN</DistanceMeters>
          </Trackpoint>
          <Trackpoint>
            <Time>2022-09-19T11:07:31.000Z</Time>
            <Position>
              <LatitudeDegrees>49.33744353242218494415283203125</LatitudeDegrees>
              <LongitudeDegrees>19.98526451177895069122314453125</LongitudeDegrees>
            </Position>
            <AltitudeMeters>791.5999755859375</AltitudeMeters>
            <DistanceMeters>NAN</DistanceMeters>
          </Trackpoint>
          <Trackpoint>
            <Time>2022-09-19T11:07:33.000Z</Time>
            <Position>
              <LatitudeDegrees>49.33751394040882587432861328125</LatitudeDegrees>
              <LongitudeDegrees>19.985506832599639892578125</LongitudeDegrees>
            </Position>
            <AltitudeMeters>791</AltitudeMeters>
            <DistanceMeters>NAN</DistanceMeters>
          </Trackpoint>
          <Trackpoint>
            <Time>2022-09-19T11:07:36.000Z</Time>
            <Position>
              <LatitudeDegrees>49.3376246653497219085693359375</LatitudeDegrees>
              <LongitudeDegrees>19.9859234131872653961181640625</LongitudeDegrees>
            </Position>
            <AltitudeMeters>789.4000244140625</AltitudeMeters>
            <DistanceMeters>NAN</DistanceMeters>
          </Trackpoint>
          <Trackpoint>
            <Time>2022-09-19T11:07:38.000Z</Time>
            <Position>
              <LatitudeDegrees>49.33768107555806636810302734375</LatitudeDegrees>
              <LongitudeDegrees>19.9861849285662174224853515625</LongitudeDegrees>
            </Position>
            <AltitudeMeters>787.5999755859375</AltitudeMeters>
            <DistanceMeters>NAN</DistanceMeters>
          </Trackpoint>
          <Trackpoint>
            <Time>2022-09-19T11:07:39.000Z</Time>
            <Position>
              <LatitudeDegrees>49.33770404197275638580322265625</LatitudeDegrees>
              <LongitudeDegrees>19.98629967682063579559326171875</LongitudeDegrees>
            </Position>
            <AltitudeMeters>786.5999755859375</AltitudeMeters>
            <DistanceMeters>NAN</DistanceMeters>
          </Trackpoint>
          <Trackpoint>
            <Time>2022-09-19T11:07:40.000Z</Time>
            <Position>
              <LatitudeDegrees>49.33772466145455837249755859375</LatitudeDegrees>
              <LongitudeDegrees>19.98640294186770915985107421875</LongitudeDegrees>
            </Position>
            <AltitudeMeters>785.5999755859375</AltitudeMeters>
            <DistanceMeters>NAN</DistanceMeters>
          </Trackpoint>
          <Trackpoint>
            <Time>2022-09-19T11:07:41.000Z</Time>
            <Position>
              <LatitudeDegrees>49.3377453647553920745849609375</LatitudeDegrees>
              <LongitudeDegrees>19.98649832792580127716064453125</LongitudeDegrees>
            </Position>
            <AltitudeMeters>784.79998779296875</AltitudeMeters>
            <DistanceMeters>NAN</DistanceMeters>
          </Trackpoint>
          <Trackpoint>
            <Time>2022-09-19T11:07:43.000Z</Time>
            <Position>
              <LatitudeDegrees>49.33778668753802776336669921875</LatitudeDegrees>
              <LongitudeDegrees>19.986690692603588104248046875</LongitudeDegrees>
            </Position>
            <AltitudeMeters>783.5999755859375</AltitudeMeters>
            <DistanceMeters>NAN</DistanceMeters>
          </Trackpoint>
          <Trackpoint>
            <Time>2022-09-19T11:07:46.000Z</Time>
            <Position>
              <LatitudeDegrees>49.3378494679927825927734375</LatitudeDegrees>
              <LongitudeDegrees>19.98699369840323925018310546875</LongitudeDegrees>
            </Position>
            <AltitudeMeters>782.5999755859375</AltitudeMeters>
            <DistanceMeters>NAN</DistanceMeters>
          </Trackpoint>
          <Trackpoint>
            <Time>2022-09-19T11:07:52.000Z</Time>
            <Position>
              <LatitudeDegrees>49.3379767052829265594482421875</LatitudeDegrees>
              <LongitudeDegrees>19.98758831061422824859619140625</LongitudeDegrees>
            </Position>
            <AltitudeMeters>781.5999755859375</AltitudeMeters>
            <DistanceMeters>NAN</DistanceMeters>
          </Trackpoint>
          <Trackpoint>
            <Time>2022-09-19T11:07:53.000Z</Time>
            <Position>
              <LatitudeDegrees>49.33799841441214084625244140625</LatitudeDegrees>
              <LongitudeDegrees>19.98768235556781291961669921875</LongitudeDegrees>
            </Position>
            <AltitudeMeters>781.4000244140625</AltitudeMeters>
            <DistanceMeters>NAN</DistanceMeters>
          </Trackpoint>
          <Trackpoint>
            <Time>2022-09-19T11:07:57.000Z</Time>
            <Position>
              <LatitudeDegrees>49.3380578421056270599365234375</LatitudeDegrees>
              <LongitudeDegrees>19.98807169497013092041015625</LongitudeDegrees>
            </Position>
            <AltitudeMeters>780.20001220703125</AltitudeMeters>
            <DistanceMeters>NAN</DistanceMeters>
          </Trackpoint>
          <Trackpoint>
            <Time>2022-09-19T11:07:59.000Z</Time>
            <Position>
              <LatitudeDegrees>49.338087849318981170654296875</LatitudeDegrees>
              <LongitudeDegrees>19.98827411793172359466552734375</LongitudeDegrees>
            </Position>
            <AltitudeMeters>780</AltitudeMeters>
            <DistanceMeters>NAN</DistanceMeters>
          </Trackpoint>
          <Trackpoint>
            <Time>2022-09-19T11:08:03.000Z</Time>
            <Position>
              <LatitudeDegrees>49.338148869574069976806640625</LatitudeDegrees>
              <LongitudeDegrees>19.98868784867227077484130859375</LongitudeDegrees>
            </Position>
            <AltitudeMeters>779.4000244140625</AltitudeMeters>
            <DistanceMeters>NAN</DistanceMeters>
          </Trackpoint>
          <Trackpoint>
            <Time>2022-09-19T11:08:04.000Z</Time>
            <Position>
              <LatitudeDegrees>49.33817644603550434112548828125</LatitudeDegrees>
              <LongitudeDegrees>19.98879681341350078582763671875</LongitudeDegrees>
            </Position>
            <AltitudeMeters>779.20001220703125</AltitudeMeters>
            <DistanceMeters>NAN</DistanceMeters>
          </Trackpoint>
          <Trackpoint>
            <Time>2022-09-19T11:08:05.000Z</Time>
            <Position>
              <LatitudeDegrees>49.33820896781980991363525390625</LatitudeDegrees>
              <LongitudeDegrees>19.98891047202050685882568359375</LongitudeDegrees>
            </Position>
            <AltitudeMeters>778.5999755859375</AltitudeMeters>
            <DistanceMeters>NAN</DistanceMeters>
          </Trackpoint>
          <Trackpoint>
            <Time>2022-09-19T11:08:07.000Z</Time>
            <Position>
              <LatitudeDegrees>49.3382730893790721893310546875</LatitudeDegrees>
              <LongitudeDegrees>19.989152960479259490966796875</LongitudeDegrees>
            </Position>
            <AltitudeMeters>777.79998779296875</AltitudeMeters>
            <DistanceMeters>NAN</DistanceMeters>
          </Trackpoint>
          <Trackpoint>
            <Time>2022-09-19T11:08:11.000Z</Time>
            <Position>
              <LatitudeDegrees>49.33841415680944919586181640625</LatitudeDegrees>
              <LongitudeDegrees>19.98964883387088775634765625</LongitudeDegrees>
            </Position>
            <AltitudeMeters>776.5999755859375</AltitudeMeters>
            <DistanceMeters>NAN</DistanceMeters>
          </Trackpoint>
          <Trackpoint>
            <Time>2022-09-19T11:08:14.000Z</Time>
            <Position>
              <LatitudeDegrees>49.33852546848356723785400390625</LatitudeDegrees>
              <LongitudeDegrees>19.99002962373197078704833984375</LongitudeDegrees>
            </Position>
            <AltitudeMeters>775.20001220703125</AltitudeMeters>
            <DistanceMeters>NAN</DistanceMeters>
          </Trackpoint>
          <Trackpoint>
            <Time>2022-09-19T11:08:17.000Z</Time>
            <Position>
              <LatitudeDegrees>49.3386462517082691192626953125</LatitudeDegrees>
              <LongitudeDegrees>19.99041804112493991851806640625</LongitudeDegrees>
            </Position>
            <AltitudeMeters>774</AltitudeMeters>
            <DistanceMeters>NAN</DistanceMeters>
          </Trackpoint>
          <Trackpoint>
            <Time>2022-09-19T11:08:19.000Z</Time>
            <Position>
              <LatitudeDegrees>49.33872722089290618896484375</LatitudeDegrees>
              <LongitudeDegrees>19.9906749464571475982666015625</LongitudeDegrees>
            </Position>
            <AltitudeMeters>773.20001220703125</AltitudeMeters>
            <DistanceMeters>NAN</DistanceMeters>
          </Trackpoint>
          <Trackpoint>
            <Time>2022-09-19T11:08:20.000Z</Time>
            <Position>
              <LatitudeDegrees>49.33876552619040012359619140625</LatitudeDegrees>
              <LongitudeDegrees>19.99080008827149868011474609375</LongitudeDegrees>
            </Position>
            <AltitudeMeters>772.5999755859375</AltitudeMeters>
            <DistanceMeters>NAN</DistanceMeters>
          </Trackpoint>
          <Trackpoint>
            <Time>2022-09-19T11:08:26.000Z</Time>
            <Position>
              <LatitudeDegrees>49.338989071547985076904296875</LatitudeDegrees>
              <LongitudeDegrees>19.99150500632822513580322265625</LongitudeDegrees>
            </Position>
            <AltitudeMeters>771.4000244140625</AltitudeMeters>
            <DistanceMeters>NAN</DistanceMeters>
          </Trackpoint>
          <Trackpoint>
            <Time>2022-09-19T11:08:31.000Z</Time>
            <Position>
              <LatitudeDegrees>49.33913231827318668365478515625</LatitudeDegrees>
              <LongitudeDegrees>19.9920267798006534576416015625</LongitudeDegrees>
            </Position>
            <AltitudeMeters>770.5999755859375</AltitudeMeters>
            <DistanceMeters>NAN</DistanceMeters>
          </Trackpoint>
          <Trackpoint>
            <Time>2022-09-19T11:08:32.000Z</Time>
            <Position>
              <LatitudeDegrees>49.3391474895179271697998046875</LatitudeDegrees>
              <LongitudeDegrees>19.992131553590297698974609375</LongitudeDegrees>
            </Position>
            <AltitudeMeters>770.4000244140625</AltitudeMeters>
            <DistanceMeters>NAN</DistanceMeters>
          </Trackpoint>
          <Trackpoint>
            <Time>2022-09-19T11:08:34.000Z</Time>
            <Position>
              <LatitudeDegrees>49.33915394358336925506591796875</LatitudeDegrees>
              <LongitudeDegrees>19.99234152026474475860595703125</LongitudeDegrees>
            </Position>
            <AltitudeMeters>769.20001220703125</AltitudeMeters>
            <DistanceMeters>NAN</DistanceMeters>
          </Trackpoint>
          <Trackpoint>
            <Time>2022-09-19T11:08:35.000Z</Time>
            <Position>
              <LatitudeDegrees>49.33914958499372005462646484375</LatitudeDegrees>
              <LongitudeDegrees>19.9924478866159915924072265625</LongitudeDegrees>
            </Position>
            <AltitudeMeters>768.79998779296875</AltitudeMeters>
            <DistanceMeters>NAN</DistanceMeters>
          </Trackpoint>
          <Trackpoint>
            <Time>2022-09-19T11:08:37.000Z</Time>
            <Position>
              <LatitudeDegrees>49.33913215063512325286865234375</LatitudeDegrees>
              <LongitudeDegrees>19.99265693128108978271484375</LongitudeDegrees>
            </Position>
            <AltitudeMeters>768</AltitudeMeters>
            <DistanceMeters>NAN</DistanceMeters>
          </Trackpoint>
          <Trackpoint>
            <Time>2022-09-19T11:08:39.000Z</Time>
            <Position>
              <LatitudeDegrees>49.33912192471325397491455078125</LatitudeDegrees>
              <LongitudeDegrees>19.99286287464201450347900390625</LongitudeDegrees>
            </Position>
            <AltitudeMeters>766.4000244140625</AltitudeMeters>
            <DistanceMeters>NAN</DistanceMeters>
          </Trackpoint>
          <Trackpoint>
            <Time>2022-09-19T11:08:41.000Z</Time>
            <Position>
              <LatitudeDegrees>49.33911488391458988189697265625</LatitudeDegrees>
              <LongitudeDegrees>19.99306806363165378570556640625</LongitudeDegrees>
            </Position>
            <AltitudeMeters>765</AltitudeMeters>
            <DistanceMeters>NAN</DistanceMeters>
          </Trackpoint>
          <Trackpoint>
            <Time>2022-09-19T11:08:42.000Z</Time>
            <Position>
              <LatitudeDegrees>49.339108765125274658203125</LatitudeDegrees>
              <LongitudeDegrees>19.9931697361171245574951171875</LongitudeDegrees>
            </Position>
            <AltitudeMeters>764.4000244140625</AltitudeMeters>
            <DistanceMeters>NAN</DistanceMeters>
          </Trackpoint>
          <Trackpoint>
            <Time>2022-09-19T11:08:43.000Z</Time>
            <Position>
              <LatitudeDegrees>49.3391022272408008575439453125</LatitudeDegrees>
              <LongitudeDegrees>19.9932632781565189361572265625</LongitudeDegrees>
            </Position>
            <AltitudeMeters>763.79998779296875</AltitudeMeters>
            <DistanceMeters>NAN</DistanceMeters>
          </Trackpoint>
          <Trackpoint>
            <Time>2022-09-19T11:08:45.000Z</Time>
            <Position>
              <LatitudeDegrees>49.3390824459493160247802734375</LatitudeDegrees>
              <LongitudeDegrees>19.99344709329307079315185546875</LongitudeDegrees>
            </Position>
            <AltitudeMeters>762.20001220703125</AltitudeMeters>
            <DistanceMeters>NAN</DistanceMeters>
          </Trackpoint>
          <Trackpoint>
            <Time>2022-09-19T11:08:46.000Z</Time>
            <Position>
              <LatitudeDegrees>49.3390764109790325164794921875</LatitudeDegrees>
              <LongitudeDegrees>19.99353040941059589385986328125</LongitudeDegrees>
            </Position>
            <AltitudeMeters>761.4000244140625</AltitudeMeters>
            <DistanceMeters>NAN</DistanceMeters>
          </Trackpoint>
          <Trackpoint>
            <Time>2022-09-19T11:08:47.000Z</Time>
            <Position>
              <LatitudeDegrees>49.33907180093228816986083984375</LatitudeDegrees>
              <LongitudeDegrees>19.99361003749072551727294921875</LongitudeDegrees>
            </Position>
            <AltitudeMeters>760.79998779296875</AltitudeMeters>
            <DistanceMeters>NAN</DistanceMeters>
          </Trackpoint>
          <Trackpoint>
            <Time>2022-09-19T11:08:49.000Z</Time>
            <Position>
              <LatitudeDegrees>49.33907012455165386199951171875</LatitudeDegrees>
              <LongitudeDegrees>19.99376560561358928680419921875</LongitudeDegrees>
            </Position>
            <AltitudeMeters>759.79998779296875</AltitudeMeters>
            <DistanceMeters>NAN</DistanceMeters>
          </Trackpoint>
          <Trackpoint>
            <Time>2022-09-19T11:08:50.000Z</Time>
            <Position>
              <LatitudeDegrees>49.33908387087285518646240234375</LatitudeDegrees>
              <LongitudeDegrees>19.99384322203695774078369140625</LongitudeDegrees>
            </Position>
            <AltitudeMeters>759.5999755859375</AltitudeMeters>
            <DistanceMeters>NAN</DistanceMeters>
          </Trackpoint>
          <Trackpoint>
            <Time>2022-09-19T11:08:51.000Z</Time>
            <Position>
              <LatitudeDegrees>49.33909895829856395721435546875</LatitudeDegrees>
              <LongitudeDegrees>19.9939160607755184173583984375</LongitudeDegrees>
            </Position>
            <AltitudeMeters>759.4000244140625</AltitudeMeters>
            <DistanceMeters>NAN</DistanceMeters>
          </Trackpoint>
          <Trackpoint>
            <Time>2022-09-19T11:08:54.000Z</Time>
            <Position>
              <LatitudeDegrees>49.33915629051625728607177734375</LatitudeDegrees>
              <LongitudeDegrees>19.99411429278552532196044921875</LongitudeDegrees>
            </Position>
            <AltitudeMeters>758.4000244140625</AltitudeMeters>
            <DistanceMeters>NAN</DistanceMeters>
          </Trackpoint>
          <Trackpoint>
            <Time>2022-09-19T11:08:58.000Z</Time>
            <Position>
              <LatitudeDegrees>49.339234828948974609375</LatitudeDegrees>
              <LongitudeDegrees>19.994380585849285125732421875</LongitudeDegrees>
            </Position>
            <AltitudeMeters>757.4000244140625</AltitudeMeters>
            <DistanceMeters>NAN</DistanceMeters>
          </Trackpoint>
          <Trackpoint>
            <Time>2022-09-19T11:09:04.000Z</Time>
            <Position>
              <LatitudeDegrees>49.33927665464580059051513671875</LatitudeDegrees>
              <LongitudeDegrees>19.99481133185327053070068359375</LongitudeDegrees>
            </Position>
            <AltitudeMeters>756.79998779296875</AltitudeMeters>
            <DistanceMeters>NAN</DistanceMeters>
          </Trackpoint>
          <Trackpoint>
            <Time>2022-09-19T11:09:08.000Z</Time>
            <Position>
              <LatitudeDegrees>49.33924765326082706451416015625</LatitudeDegrees>
              <LongitudeDegrees>19.99511978588998317718505859375</LongitudeDegrees>
            </Position>
            <AltitudeMeters>756.20001220703125</AltitudeMeters>
            <DistanceMeters>NAN</DistanceMeters>
          </Trackpoint>
          <Trackpoint>
            <Time>2022-09-19T11:09:11.000Z</Time>
            <Position>
              <LatitudeDegrees>49.33922099880874156951904296875</LatitudeDegrees>
              <LongitudeDegrees>19.995354898273944854736328125</LongitudeDegrees>
            </Position>
            <AltitudeMeters>755.79998779296875</AltitudeMeters>
            <DistanceMeters>NAN</DistanceMeters>
          </Trackpoint>
          <Trackpoint>
            <Time>2022-09-19T11:09:14.000Z</Time>
            <Position>
              <LatitudeDegrees>49.33921529911458492279052734375</LatitudeDegrees>
              <LongitudeDegrees>19.9955743364989757537841796875</LongitudeDegrees>
            </Position>
            <AltitudeMeters>755.20001220703125</AltitudeMeters>
            <DistanceMeters>NAN</DistanceMeters>
          </Trackpoint>
          <Trackpoint>
            <Time>2022-09-19T11:09:15.000Z</Time>
            <Position>
              <LatitudeDegrees>49.3392155505716800689697265625</LatitudeDegrees>
              <LongitudeDegrees>19.995648600161075592041015625</LongitudeDegrees>
            </Position>
            <AltitudeMeters>755.20001220703125</AltitudeMeters>
            <DistanceMeters>NAN</DistanceMeters>
          </Trackpoint>
          <Trackpoint>
            <Time>2022-09-19T11:09:17.000Z</Time>
            <Position>
              <LatitudeDegrees>49.339227117598056793212890625</LatitudeDegrees>
              <LongitudeDegrees>19.99579687602818012237548828125</LongitudeDegrees>
            </Position>
            <AltitudeMeters>755</AltitudeMeters>
            <DistanceMeters>NAN</DistanceMeters>
          </Trackpoint>
          <Trackpoint>
            <Time>2022-09-19T11:09:18.000Z</Time>
            <Position>
              <LatitudeDegrees>49.3392400257289409637451171875</LatitudeDegrees>
              <LongitudeDegrees>19.99587013386189937591552734375</LongitudeDegrees>
            </Position>
            <AltitudeMeters>754.79998779296875</AltitudeMeters>
            <DistanceMeters>NAN</DistanceMeters>
          </Trackpoint>
          <Trackpoint>
            <Time>2022-09-19T11:09:23.000Z</Time>
            <Position>
              <LatitudeDegrees>49.33932526968419551849365234375</LatitudeDegrees>
              <LongitudeDegrees>19.996277578175067901611328125</LongitudeDegrees>
            </Position>
            <AltitudeMeters>754</AltitudeMeters>
            <DistanceMeters>NAN</DistanceMeters>
          </Trackpoint>
          <Trackpoint>
            <Time>2022-09-19T11:09:24.000Z</Time>
            <Position>
              <LatitudeDegrees>49.3393434584140777587890625</LatitudeDegrees>
              <LongitudeDegrees>19.99636583961546421051025390625</LongitudeDegrees>
            </Position>
            <AltitudeMeters>753.79998779296875</AltitudeMeters>
            <DistanceMeters>NAN</DistanceMeters>
          </Trackpoint>
          <Trackpoint>
            <Time>2022-09-19T11:09:28.000Z</Time>
            <Position>
              <LatitudeDegrees>49.33939919807016849517822265625</LatitudeDegrees>
              <LongitudeDegrees>19.9967581965029239654541015625</LongitudeDegrees>
            </Position>
            <AltitudeMeters>752.79998779296875</AltitudeMeters>
            <DistanceMeters>NAN</DistanceMeters>
          </Trackpoint>
          <Trackpoint>
            <Time>2022-09-19T11:09:30.000Z</Time>
            <Position>
              <LatitudeDegrees>49.33940984308719635009765625</LatitudeDegrees>
              <LongitudeDegrees>19.996968246996402740478515625</LongitudeDegrees>
            </Position>
            <AltitudeMeters>752.4000244140625</AltitudeMeters>
            <DistanceMeters>NAN</DistanceMeters>
          </Trackpoint>
          <Trackpoint>
            <Time>2022-09-19T11:09:33.000Z</Time>
            <Position>
              <LatitudeDegrees>49.3394157104194164276123046875</LatitudeDegrees>
              <LongitudeDegrees>19.9972839094698429107666015625</LongitudeDegrees>
            </Position>
            <AltitudeMeters>751.79998779296875</AltitudeMeters>
            <DistanceMeters>NAN</DistanceMeters>
          </Trackpoint>
          <Trackpoint>
            <Time>2022-09-19T11:09:37.000Z</Time>
            <Position>
              <LatitudeDegrees>49.339431636035442352294921875</LatitudeDegrees>
              <LongitudeDegrees>19.9976808764040470123291015625</LongitudeDegrees>
            </Position>
            <AltitudeMeters>751.20001220703125</AltitudeMeters>
            <DistanceMeters>NAN</DistanceMeters>
          </Trackpoint>
          <Trackpoint>
            <Time>2022-09-19T11:09:41.000Z</Time>
            <Position>
              <LatitudeDegrees>49.33946340344846248626708984375</LatitudeDegrees>
              <LongitudeDegrees>19.9980409629642963409423828125</LongitudeDegrees>
            </Position>
            <AltitudeMeters>751</AltitudeMeters>
            <DistanceMeters>NAN</DistanceMeters>
          </Trackpoint>
          <Trackpoint>
            <Time>2022-09-19T11:09:42.000Z</Time>
            <Position>
              <LatitudeDegrees>49.33947782032191753387451171875</LatitudeDegrees>
              <LongitudeDegrees>19.99811966903507709503173828125</LongitudeDegrees>
            </Position>
            <AltitudeMeters>750.79998779296875</AltitudeMeters>
            <DistanceMeters>NAN</DistanceMeters>
          </Trackpoint>
          <Trackpoint>
            <Time>2022-09-19T11:09:46.000Z</Time>
            <Position>
              <LatitudeDegrees>49.33952190913259983062744140625</LatitudeDegrees>
              <LongitudeDegrees>19.99833223409950733184814453125</LongitudeDegrees>
            </Position>
            <AltitudeMeters>750.79998779296875</AltitudeMeters>
            <DistanceMeters>NAN</DistanceMeters>
          </Trackpoint>
          <Trackpoint>
            <Time>2022-09-19T11:09:49.000Z</Time>
            <Position>
              <LatitudeDegrees>49.3395159579813480377197265625</LatitudeDegrees>
              <LongitudeDegrees>19.99839895404875278472900390625</LongitudeDegrees>
            </Position>
            <AltitudeMeters>750.79998779296875</AltitudeMeters>
            <DistanceMeters>NAN</DistanceMeters>
          </Trackpoint>
          <Trackpoint>
            <Time>2022-09-19T11:09:50.000Z</Time>
            <Position>
              <LatitudeDegrees>49.339514784514904022216796875</LatitudeDegrees>
              <LongitudeDegrees>19.998413287103176116943359375</LongitudeDegrees>
            </Position>
            <AltitudeMeters>750.79998779296875</AltitudeMeters>
            <DistanceMeters>NAN</DistanceMeters>
          </Trackpoint>
          <Trackpoint>
            <Time>2022-09-19T11:09:56.000Z</Time>
            <Position>
              <LatitudeDegrees>49.3395089171826839447021484375</LatitudeDegrees>
              <LongitudeDegrees>19.99842158518731594085693359375</LongitudeDegrees>
            </Position>
            <AltitudeMeters>750.79998779296875</AltitudeMeters>
            <DistanceMeters>NAN</DistanceMeters>
          </Trackpoint>
          <Trackpoint>
            <Time>2022-09-19T11:10:04.000Z</Time>
            <Position>
              <LatitudeDegrees>49.3395089171826839447021484375</LatitudeDegrees>
              <LongitudeDegrees>19.99842158518731594085693359375</LongitudeDegrees>
            </Position>
            <AltitudeMeters>751</AltitudeMeters>
            <DistanceMeters>NAN</DistanceMeters>
          </Trackpoint>
          <Trackpoint>
            <Time>2022-09-19T11:10:10.000Z</Time>
            <Position>
              <LatitudeDegrees>49.3395089171826839447021484375</LatitudeDegrees>
              <LongitudeDegrees>19.99842158518731594085693359375</LongitudeDegrees>
            </Position>
            <AltitudeMeters>750.79998779296875</AltitudeMeters>
            <DistanceMeters>NAN</DistanceMeters>
          </Trackpoint>
          <Trackpoint>
            <Time>2022-09-19T11:10:11.000Z</Time>
            <Position>
              <LatitudeDegrees>49.3395089171826839447021484375</LatitudeDegrees>
              <LongitudeDegrees>19.99842158518731594085693359375</LongitudeDegrees>
            </Position>
            <AltitudeMeters>750.5999755859375</AltitudeMeters>
            <DistanceMeters>NAN</DistanceMeters>
          </Trackpoint>
          <Trackpoint>
            <Time>2022-09-19T11:10:16.000Z</Time>
            <Position>
              <LatitudeDegrees>49.3395089171826839447021484375</LatitudeDegrees>
              <LongitudeDegrees>19.99842158518731594085693359375</LongitudeDegrees>
            </Position>
            <AltitudeMeters>750.4000244140625</AltitudeMeters>
            <DistanceMeters>NAN</DistanceMeters>
          </Trackpoint>
          <Trackpoint>
            <Time>2022-09-19T11:10:26.000Z</Time>
            <Position>
              <LatitudeDegrees>49.3395089171826839447021484375</LatitudeDegrees>
              <LongitudeDegrees>19.99842158518731594085693359375</LongitudeDegrees>
            </Position>
            <AltitudeMeters>750.79998779296875</AltitudeMeters>
            <DistanceMeters>NAN</DistanceMeters>
          </Trackpoint>
          <Trackpoint>
            <Time>2022-09-19T11:10:28.000Z</Time>
            <Position>
              <LatitudeDegrees>49.3395089171826839447021484375</LatitudeDegrees>
              <LongitudeDegrees>19.99842158518731594085693359375</LongitudeDegrees>
            </Position>
            <AltitudeMeters>751</AltitudeMeters>
            <DistanceMeters>NAN</DistanceMeters>
          </Trackpoint>
          <Trackpoint>
            <Time>2022-09-19T11:10:32.000Z</Time>
            <Position>
              <LatitudeDegrees>49.3395089171826839447021484375</LatitudeDegrees>
              <LongitudeDegrees>19.99842158518731594085693359375</LongitudeDegrees>
            </Position>
            <AltitudeMeters>750.79998779296875</AltitudeMeters>
            <DistanceMeters>NAN</DistanceMeters>
          </Trackpoint>
          <Trackpoint>
            <Time>2022-09-19T11:10:33.000Z</Time>
            <Position>
              <LatitudeDegrees>49.33951034210622310638427734375</LatitudeDegrees>
              <LongitudeDegrees>19.99842166900634765625</LongitudeDegrees>
            </Position>
            <AltitudeMeters>750.5999755859375</AltitudeMeters>
            <DistanceMeters>NAN</DistanceMeters>
          </Trackpoint>
          <Trackpoint>
            <Time>2022-09-19T11:10:36.000Z</Time>
            <Position>
              <LatitudeDegrees>49.33953934349119663238525390625</LatitudeDegrees>
              <LongitudeDegrees>19.99846802093088626861572265625</LongitudeDegrees>
            </Position>
            <AltitudeMeters>750.5999755859375</AltitudeMeters>
            <DistanceMeters>NAN</DistanceMeters>
          </Trackpoint>
          <Trackpoint>
            <Time>2022-09-19T11:10:42.000Z</Time>
            <Position>
              <LatitudeDegrees>49.33958577923476696014404296875</LatitudeDegrees>
              <LongitudeDegrees>19.9986116029322147369384765625</LongitudeDegrees>
            </Position>
            <AltitudeMeters>750.5999755859375</AltitudeMeters>
            <DistanceMeters>NAN</DistanceMeters>
          </Trackpoint>
          <Trackpoint>
            <Time>2022-09-19T11:10:48.000Z</Time>
            <Position>
              <LatitudeDegrees>49.33965618722140789031982421875</LatitudeDegrees>
              <LongitudeDegrees>19.998913519084453582763671875</LongitudeDegrees>
            </Position>
            <AltitudeMeters>750.4000244140625</AltitudeMeters>
            <DistanceMeters>NAN</DistanceMeters>
          </Trackpoint>
          <Trackpoint>
            <Time>2022-09-19T11:10:51.000Z</Time>
            <Position>
              <LatitudeDegrees>49.339707903563976287841796875</LatitudeDegrees>
              <LongitudeDegrees>19.999131448566913604736328125</LongitudeDegrees>
            </Position>
            <AltitudeMeters>749.5999755859375</AltitudeMeters>
            <DistanceMeters>NAN</DistanceMeters>
          </Trackpoint>
          <Trackpoint>
            <Time>2022-09-19T11:10:53.000Z</Time>
            <Position>
              <LatitudeDegrees>49.33974352665245532989501953125</LatitudeDegrees>
              <LongitudeDegrees>19.99930084683001041412353515625</LongitudeDegrees>
            </Position>
            <AltitudeMeters>749</AltitudeMeters>
            <DistanceMeters>NAN</DistanceMeters>
          </Trackpoint>
          <Trackpoint>
            <Time>2022-09-19T11:10:55.000Z</Time>
            <Position>
              <LatitudeDegrees>49.33979331515729427337646484375</LatitudeDegrees>
              <LongitudeDegrees>19.9994896911084651947021484375</LongitudeDegrees>
            </Position>
            <AltitudeMeters>748</AltitudeMeters>
            <DistanceMeters>NAN</DistanceMeters>
          </Trackpoint>
          <Trackpoint>
            <Time>2022-09-19T11:10:57.000Z</Time>
            <Position>
              <LatitudeDegrees>49.339838325977325439453125</LatitudeDegrees>
              <LongitudeDegrees>19.999697394669055938720703125</LongitudeDegrees>
            </Position>
            <AltitudeMeters>746.79998779296875</AltitudeMeters>
            <DistanceMeters>NAN</DistanceMeters>
          </Trackpoint>
          <Trackpoint>
            <Time>2022-09-19T11:10:58.000Z</Time>
            <Position>
              <LatitudeDegrees>49.3398592807352542877197265625</LatitudeDegrees>
              <LongitudeDegrees>19.9998123943805694580078125</LongitudeDegrees>
            </Position>
            <AltitudeMeters>746.4000244140625</AltitudeMeters>
            <DistanceMeters>NAN</DistanceMeters>
          </Trackpoint>
          <Trackpoint>
            <Time>2022-09-19T11:10:59.000Z</Time>
            <Position>
              <LatitudeDegrees>49.33987478725612163543701171875</LatitudeDegrees>
              <LongitudeDegrees>19.99993108212947845458984375</LongitudeDegrees>
            </Position>
            <AltitudeMeters>745.5999755859375</AltitudeMeters>
            <DistanceMeters>NAN</DistanceMeters>
          </Trackpoint>
          <Trackpoint>
            <Time>2022-09-19T11:11:01.000Z</Time>
            <Position>
              <LatitudeDegrees>49.33990613557398319244384765625</LatitudeDegrees>
              <LongitudeDegrees>20.0001525320112705230712890625</LongitudeDegrees>
            </Position>
            <AltitudeMeters>744.5999755859375</AltitudeMeters>
            <DistanceMeters>NAN</DistanceMeters>
          </Trackpoint>
          <Trackpoint>
            <Time>2022-09-19T11:11:02.000Z</Time>
            <Position>
              <LatitudeDegrees>49.33991200290620326995849609375</LatitudeDegrees>
              <LongitudeDegrees>20.0002594850957393646240234375</LongitudeDegrees>
            </Position>
            <AltitudeMeters>744.20001220703125</AltitudeMeters>
            <DistanceMeters>NAN</DistanceMeters>
          </Trackpoint>
          <Trackpoint>
            <Time>2022-09-19T11:11:06.000Z</Time>
            <Position>
              <LatitudeDegrees>49.33994603343307971954345703125</LatitudeDegrees>
              <LongitudeDegrees>20.0006473995745182037353515625</LongitudeDegrees>
            </Position>
            <AltitudeMeters>743.20001220703125</AltitudeMeters>
            <DistanceMeters>NAN</DistanceMeters>
          </Trackpoint>
          <Trackpoint>
            <Time>2022-09-19T11:11:07.000Z</Time>
            <Position>
              <LatitudeDegrees>49.33995173312723636627197265625</LatitudeDegrees>
              <LongitudeDegrees>20.00074018724262714385986328125</LongitudeDegrees>
            </Position>
            <AltitudeMeters>743</AltitudeMeters>
            <DistanceMeters>NAN</DistanceMeters>
          </Trackpoint>
          <Trackpoint>
            <Time>2022-09-19T11:11:14.000Z</Time>
            <Position>
              <LatitudeDegrees>49.33997981250286102294921875</LatitudeDegrees>
              <LongitudeDegrees>20.0013417564332485198974609375</LongitudeDegrees>
            </Position>
            <AltitudeMeters>742.20001220703125</AltitudeMeters>
            <DistanceMeters>NAN</DistanceMeters>
          </Trackpoint>
          <Trackpoint>
            <Time>2022-09-19T11:11:20.000Z</Time>
            <Position>
              <LatitudeDegrees>49.33998115360736846923828125</LatitudeDegrees>
              <LongitudeDegrees>20.00173084437847137451171875</LongitudeDegrees>
            </Position>
            <AltitudeMeters>742.4000244140625</AltitudeMeters>
            <DistanceMeters>NAN</DistanceMeters>
          </Trackpoint>
          <Trackpoint>
            <Time>2022-09-19T11:11:25.000Z</Time>
            <Position>
              <LatitudeDegrees>49.339989535510540008544921875</LatitudeDegrees>
              <LongitudeDegrees>20.0020089559257030487060546875</LongitudeDegrees>
            </Position>
            <AltitudeMeters>742.5999755859375</AltitudeMeters>
            <DistanceMeters>NAN</DistanceMeters>
          </Trackpoint>
          <Trackpoint>
            <Time>2022-09-19T11:11:26.000Z</Time>
            <Position>
              <LatitudeDegrees>49.33998408727347850799560546875</LatitudeDegrees>
              <LongitudeDegrees>20.0020729936659336090087890625</LongitudeDegrees>
            </Position>
            <AltitudeMeters>742.4000244140625</AltitudeMeters>
            <DistanceMeters>NAN</DistanceMeters>
          </Trackpoint>
          <Trackpoint>
            <Time>2022-09-19T11:11:34.000Z</Time>
            <Position>
              <LatitudeDegrees>49.33995106257498264312744140625</LatitudeDegrees>
              <LongitudeDegrees>20.00243886373937129974365234375</LongitudeDegrees>
            </Position>
            <AltitudeMeters>742.5999755859375</AltitudeMeters>
            <DistanceMeters>NAN</DistanceMeters>
          </Trackpoint>
          <Trackpoint>
            <Time>2022-09-19T11:11:41.000Z</Time>
            <Position>
              <LatitudeDegrees>49.33992356993257999420166015625</LatitudeDegrees>
              <LongitudeDegrees>20.0026744790375232696533203125</LongitudeDegrees>
            </Position>
            <AltitudeMeters>742.5999755859375</AltitudeMeters>
            <DistanceMeters>NAN</DistanceMeters>
          </Trackpoint>
          <Trackpoint>
            <Time>2022-09-19T11:11:43.000Z</Time>
            <Position>
              <LatitudeDegrees>49.339908398687839508056640625</LatitudeDegrees>
              <LongitudeDegrees>20.00272753648459911346435546875</LongitudeDegrees>
            </Position>
            <AltitudeMeters>742.5999755859375</AltitudeMeters>
            <DistanceMeters>NAN</DistanceMeters>
          </Trackpoint>
          <Trackpoint>
            <Time>2022-09-19T11:11:45.000Z</Time>
            <Position>
              <LatitudeDegrees>49.33988325297832489013671875</LatitudeDegrees>
              <LongitudeDegrees>20.002745725214481353759765625</LongitudeDegrees>
            </Position>
            <AltitudeMeters>742.79998779296875</AltitudeMeters>
            <DistanceMeters>NAN</DistanceMeters>
          </Trackpoint>
          <Trackpoint>
            <Time>2022-09-19T11:11:49.000Z</Time>
            <Position>
              <LatitudeDegrees>49.339821226894855499267578125</LatitudeDegrees>
              <LongitudeDegrees>20.00274295918643474578857421875</LongitudeDegrees>
            </Position>
            <AltitudeMeters>742.79998779296875</AltitudeMeters>
            <DistanceMeters>NAN</DistanceMeters>
          </Trackpoint>
          <Trackpoint>
            <Time>2022-09-19T11:11:50.000Z</Time>
            <Position>
              <LatitudeDegrees>49.33980454690754413604736328125</LatitudeDegrees>
              <LongitudeDegrees>20.00274061225354671478271484375</LongitudeDegrees>
            </Position>
            <AltitudeMeters>742.79998779296875</AltitudeMeters>
            <DistanceMeters>NAN</DistanceMeters>
          </Trackpoint>
          <Trackpoint>
            <Time>2022-09-19T11:11:51.000Z</Time>
            <Position>
              <LatitudeDegrees>49.3397915549576282501220703125</LatitudeDegrees>
              <LongitudeDegrees>20.0027413666248321533203125</LongitudeDegrees>
            </Position>
            <AltitudeMeters>742.79998779296875</AltitudeMeters>
            <DistanceMeters>NAN</DistanceMeters>
          </Trackpoint>
          <Trackpoint>
            <Time>2022-09-19T11:11:57.000Z</Time>
            <Position>
              <LatitudeDegrees>49.33972097933292388916015625</LatitudeDegrees>
              <LongitudeDegrees>20.00276508741080760955810546875</LongitudeDegrees>
            </Position>
            <AltitudeMeters>742.4000244140625</AltitudeMeters>
            <DistanceMeters>NAN</DistanceMeters>
          </Trackpoint>
          <Trackpoint>
            <Time>2022-09-19T11:12:03.000Z</Time>
            <Position>
              <LatitudeDegrees>49.33972097933292388916015625</LatitudeDegrees>
              <LongitudeDegrees>20.00276508741080760955810546875</LongitudeDegrees>
            </Position>
            <AltitudeMeters>742.20001220703125</AltitudeMeters>
            <DistanceMeters>NAN</DistanceMeters>
          </Trackpoint>
          <Trackpoint>
            <Time>2022-09-19T11:12:05.000Z</Time>
            <Position>
              <LatitudeDegrees>49.33971963822841644287109375</LatitudeDegrees>
              <LongitudeDegrees>20.0027668476104736328125</LongitudeDegrees>
            </Position>
            <AltitudeMeters>742.20001220703125</AltitudeMeters>
            <DistanceMeters>NAN</DistanceMeters>
          </Trackpoint>
          <Trackpoint>
            <Time>2022-09-19T11:12:07.000Z</Time>
            <Position>
              <LatitudeDegrees>49.33969776146113872528076171875</LatitudeDegrees>
              <LongitudeDegrees>20.00278168357908725738525390625</LongitudeDegrees>
            </Position>
            <AltitudeMeters>742.20001220703125</AltitudeMeters>
            <DistanceMeters>NAN</DistanceMeters>
          </Trackpoint>
          <Trackpoint>
            <Time>2022-09-19T11:12:08.000Z</Time>
            <Position>
              <LatitudeDegrees>49.3396772257983684539794921875</LatitudeDegrees>
              <LongitudeDegrees>20.0027904845774173736572265625</LongitudeDegrees>
            </Position>
            <AltitudeMeters>742</AltitudeMeters>
            <DistanceMeters>NAN</DistanceMeters>
          </Trackpoint>
          <Trackpoint>
            <Time>2022-09-19T11:12:09.000Z</Time>
            <Position>
              <LatitudeDegrees>49.33965635485947132110595703125</LatitudeDegrees>
              <LongitudeDegrees>20.0028142891824245452880859375</LongitudeDegrees>
            </Position>
            <AltitudeMeters>742</AltitudeMeters>
            <DistanceMeters>NAN</DistanceMeters>
          </Trackpoint>
          <Trackpoint>
            <Time>2022-09-19T11:12:14.000Z</Time>
            <Position>
              <LatitudeDegrees>49.33957278728485107421875</LatitudeDegrees>
              <LongitudeDegrees>20.0029158778488636016845703125</LongitudeDegrees>
            </Position>
            <AltitudeMeters>741.5999755859375</AltitudeMeters>
            <DistanceMeters>NAN</DistanceMeters>
          </Trackpoint>
          <Trackpoint>
            <Time>2022-09-19T11:12:19.000Z</Time>
            <Position>
              <LatitudeDegrees>49.33957278728485107421875</LatitudeDegrees>
              <LongitudeDegrees>20.0029158778488636016845703125</LongitudeDegrees>
            </Position>
            <AltitudeMeters>741.5999755859375</AltitudeMeters>
            <DistanceMeters>NAN</DistanceMeters>
          </Trackpoint>
          <Trackpoint>
            <Time>2022-09-19T11:12:20.000Z</Time>
            <Position>
              <LatitudeDegrees>49.33957278728485107421875</LatitudeDegrees>
              <LongitudeDegrees>20.0029158778488636016845703125</LongitudeDegrees>
            </Position>
            <AltitudeMeters>741.5999755859375</AltitudeMeters>
            <DistanceMeters>NAN</DistanceMeters>
          </Trackpoint>
          <Trackpoint>
            <Time>2022-09-19T11:12:38.000Z</Time>
            <Position>
              <LatitudeDegrees>49.33957278728485107421875</LatitudeDegrees>
              <LongitudeDegrees>20.0029158778488636016845703125</LongitudeDegrees>
            </Position>
            <AltitudeMeters>741.5999755859375</AltitudeMeters>
            <DistanceMeters>NAN</DistanceMeters>
          </Trackpoint>
          <Trackpoint>
            <Time>2022-09-19T11:12:48.000Z</Time>
            <Position>
              <LatitudeDegrees>49.33957278728485107421875</LatitudeDegrees>
              <LongitudeDegrees>20.0029158778488636016845703125</LongitudeDegrees>
            </Position>
            <AltitudeMeters>741.20001220703125</AltitudeMeters>
            <DistanceMeters>NAN</DistanceMeters>
          </Trackpoint>
          <Trackpoint>
            <Time>2022-09-19T11:13:00.000Z</Time>
            <Position>
              <LatitudeDegrees>49.33956918306648731231689453125</LatitudeDegrees>
              <LongitudeDegrees>20.0029145367443561553955078125</LongitudeDegrees>
            </Position>
            <AltitudeMeters>741.4000244140625</AltitudeMeters>
            <DistanceMeters>NAN</DistanceMeters>
          </Trackpoint>
          <Trackpoint>
            <Time>2022-09-19T11:13:04.000Z</Time>
            <Position>
              <LatitudeDegrees>49.33956918306648731231689453125</LatitudeDegrees>
              <LongitudeDegrees>20.0029103457927703857421875</LongitudeDegrees>
            </Position>
            <AltitudeMeters>741.20001220703125</AltitudeMeters>
            <DistanceMeters>NAN</DistanceMeters>
          </Trackpoint>
          <Trackpoint>
            <Time>2022-09-19T11:13:14.000Z</Time>
            <Position>
              <LatitudeDegrees>49.33956918306648731231689453125</LatitudeDegrees>
              <LongitudeDegrees>20.0029101781547069549560546875</LongitudeDegrees>
            </Position>
            <AltitudeMeters>741.20001220703125</AltitudeMeters>
            <DistanceMeters>NAN</DistanceMeters>
          </Trackpoint>
          <Trackpoint>
            <Time>2022-09-19T11:13:33.000Z</Time>
            <Position>
              <LatitudeDegrees>49.33954537846148014068603515625</LatitudeDegrees>
              <LongitudeDegrees>20.00290540046989917755126953125</LongitudeDegrees>
            </Position>
            <AltitudeMeters>741.20001220703125</AltitudeMeters>
            <DistanceMeters>NAN</DistanceMeters>
          </Trackpoint>
          <Trackpoint>
            <Time>2022-09-19T11:13:36.000Z</Time>
            <Position>
              <LatitudeDegrees>49.33954537846148014068603515625</LatitudeDegrees>
              <LongitudeDegrees>20.00290540046989917755126953125</LongitudeDegrees>
            </Position>
            <AltitudeMeters>741.4000244140625</AltitudeMeters>
            <DistanceMeters>NAN</DistanceMeters>
          </Trackpoint>
          <Trackpoint>
            <Time>2022-09-19T11:13:41.000Z</Time>
            <Position>
              <LatitudeDegrees>49.33954537846148014068603515625</LatitudeDegrees>
              <LongitudeDegrees>20.00290540046989917755126953125</LongitudeDegrees>
            </Position>
            <AltitudeMeters>741.4000244140625</AltitudeMeters>
            <DistanceMeters>NAN</DistanceMeters>
          </Trackpoint>
          <Trackpoint>
            <Time>2022-09-19T11:13:45.000Z</Time>
            <Position>
              <LatitudeDegrees>49.33954537846148014068603515625</LatitudeDegrees>
              <LongitudeDegrees>20.0029170513153076171875</LongitudeDegrees>
            </Position>
            <AltitudeMeters>741.20001220703125</AltitudeMeters>
            <DistanceMeters>NAN</DistanceMeters>
          </Trackpoint>
          <Trackpoint>
            <Time>2022-09-19T11:13:47.000Z</Time>
            <Position>
              <LatitudeDegrees>49.339535236358642578125</LatitudeDegrees>
              <LongitudeDegrees>20.00291713513433933258056640625</LongitudeDegrees>
            </Position>
            <AltitudeMeters>741</AltitudeMeters>
            <DistanceMeters>NAN</DistanceMeters>
          </Trackpoint>
          <Trackpoint>
            <Time>2022-09-19T11:13:49.000Z</Time>
            <Position>
              <LatitudeDegrees>49.3395266868174076080322265625</LatitudeDegrees>
              <LongitudeDegrees>20.00291730277240276336669921875</LongitudeDegrees>
            </Position>
            <AltitudeMeters>741</AltitudeMeters>
            <DistanceMeters>NAN</DistanceMeters>
          </Trackpoint>
          <Trackpoint>
            <Time>2022-09-19T11:13:54.000Z</Time>
            <Position>
              <LatitudeDegrees>49.33946910314261913299560546875</LatitudeDegrees>
              <LongitudeDegrees>20.00289618037641048431396484375</LongitudeDegrees>
            </Position>
            <AltitudeMeters>740.79998779296875</AltitudeMeters>
            <DistanceMeters>NAN</DistanceMeters>
          </Trackpoint>
          <Trackpoint>
            <Time>2022-09-19T11:13:59.000Z</Time>
            <Position>
              <LatitudeDegrees>49.3394185602664947509765625</LatitudeDegrees>
              <LongitudeDegrees>20.00286877155303955078125</LongitudeDegrees>
            </Position>
            <AltitudeMeters>740.79998779296875</AltitudeMeters>
            <DistanceMeters>NAN</DistanceMeters>
          </Trackpoint>
          <Trackpoint>
            <Time>2022-09-19T11:14:03.000Z</Time>
            <Position>
              <LatitudeDegrees>49.33939031325280666351318359375</LatitudeDegrees>
              <LongitudeDegrees>20.0028541870415210723876953125</LongitudeDegrees>
            </Position>
            <AltitudeMeters>740.79998779296875</AltitudeMeters>
            <DistanceMeters>NAN</DistanceMeters>
          </Trackpoint>
          <Trackpoint>
            <Time>2022-09-19T11:14:05.000Z</Time>
            <Position>
              <LatitudeDegrees>49.339383356273174285888671875</LatitudeDegrees>
              <LongitudeDegrees>20.00285007990896701812744140625</LongitudeDegrees>
            </Position>
            <AltitudeMeters>740.79998779296875</AltitudeMeters>
            <DistanceMeters>NAN</DistanceMeters>
          </Trackpoint>
          <Trackpoint>
            <Time>2022-09-19T11:14:07.000Z</Time>
            <Position>
              <LatitudeDegrees>49.3393647484481334686279296875</LatitudeDegrees>
              <LongitudeDegrees>20.00283993780612945556640625</LongitudeDegrees>
            </Position>
            <AltitudeMeters>740.79998779296875</AltitudeMeters>
            <DistanceMeters>NAN</DistanceMeters>
          </Trackpoint>
          <Trackpoint>
            <Time>2022-09-19T11:14:13.000Z</Time>
            <Position>
              <LatitudeDegrees>49.33930255472660064697265625</LatitudeDegrees>
              <LongitudeDegrees>20.00282728113234043121337890625</LongitudeDegrees>
            </Position>
            <AltitudeMeters>740.5999755859375</AltitudeMeters>
            <DistanceMeters>NAN</DistanceMeters>
          </Trackpoint>
          <Trackpoint>
            <Time>2022-09-19T11:14:20.000Z</Time>
            <Position>
              <LatitudeDegrees>49.33929861523211002349853515625</LatitudeDegrees>
              <LongitudeDegrees>20.00282627530395984649658203125</LongitudeDegrees>
            </Position>
            <AltitudeMeters>740.5999755859375</AltitudeMeters>
            <DistanceMeters>NAN</DistanceMeters>
          </Trackpoint>
          <Trackpoint>
            <Time>2022-09-19T11:14:27.000Z</Time>
            <Position>
              <LatitudeDegrees>49.33929861523211002349853515625</LatitudeDegrees>
              <LongitudeDegrees>20.00282627530395984649658203125</LongitudeDegrees>
            </Position>
            <AltitudeMeters>740.4000244140625</AltitudeMeters>
            <DistanceMeters>NAN</DistanceMeters>
          </Trackpoint>
          <Trackpoint>
            <Time>2022-09-19T11:14:32.000Z</Time>
            <Position>
              <LatitudeDegrees>49.33929861523211002349853515625</LatitudeDegrees>
              <LongitudeDegrees>20.00282627530395984649658203125</LongitudeDegrees>
            </Position>
            <AltitudeMeters>740.20001220703125</AltitudeMeters>
            <DistanceMeters>NAN</DistanceMeters>
          </Trackpoint>
          <Trackpoint>
            <Time>2022-09-19T11:14:34.000Z</Time>
            <Position>
              <LatitudeDegrees>49.33929861523211002349853515625</LatitudeDegrees>
              <LongitudeDegrees>20.00282627530395984649658203125</LongitudeDegrees>
            </Position>
            <AltitudeMeters>740.20001220703125</AltitudeMeters>
            <DistanceMeters>NAN</DistanceMeters>
          </Trackpoint>
          <Trackpoint>
            <Time>2022-09-19T11:14:37.000Z</Time>
            <Position>
              <LatitudeDegrees>49.33929861523211002349853515625</LatitudeDegrees>
              <LongitudeDegrees>20.00282627530395984649658203125</LongitudeDegrees>
            </Position>
            <AltitudeMeters>740.20001220703125</AltitudeMeters>
            <DistanceMeters>NAN</DistanceMeters>
          </Trackpoint>
          <Trackpoint>
            <Time>2022-09-19T11:14:46.000Z</Time>
            <Position>
              <LatitudeDegrees>49.33929861523211002349853515625</LatitudeDegrees>
              <LongitudeDegrees>20.00282627530395984649658203125</LongitudeDegrees>
            </Position>
            <AltitudeMeters>739.79998779296875</AltitudeMeters>
            <DistanceMeters>NAN</DistanceMeters>
          </Trackpoint>
          <Trackpoint>
            <Time>2022-09-19T11:14:59.000Z</Time>
            <Position>
              <LatitudeDegrees>49.33929861523211002349853515625</LatitudeDegrees>
              <LongitudeDegrees>20.00282627530395984649658203125</LongitudeDegrees>
            </Position>
            <AltitudeMeters>739.79998779296875</AltitudeMeters>
            <DistanceMeters>NAN</DistanceMeters>
          </Trackpoint>
          <Trackpoint>
            <Time>2022-09-19T11:15:13.000Z</Time>
            <Position>
              <LatitudeDegrees>49.33929861523211002349853515625</LatitudeDegrees>
              <LongitudeDegrees>20.00282627530395984649658203125</LongitudeDegrees>
            </Position>
            <AltitudeMeters>739.5999755859375</AltitudeMeters>
            <DistanceMeters>NAN</DistanceMeters>
          </Trackpoint>
          <Trackpoint>
            <Time>2022-09-19T11:15:25.000Z</Time>
            <Position>
              <LatitudeDegrees>49.33929861523211002349853515625</LatitudeDegrees>
              <LongitudeDegrees>20.00282627530395984649658203125</LongitudeDegrees>
            </Position>
            <AltitudeMeters>739.4000244140625</AltitudeMeters>
            <DistanceMeters>NAN</DistanceMeters>
          </Trackpoint>
          <Trackpoint>
            <Time>2022-09-19T11:15:31.000Z</Time>
            <Position>
              <LatitudeDegrees>49.33929861523211002349853515625</LatitudeDegrees>
              <LongitudeDegrees>20.00282627530395984649658203125</LongitudeDegrees>
            </Position>
            <AltitudeMeters>739.4000244140625</AltitudeMeters>
            <DistanceMeters>NAN</DistanceMeters>
          </Trackpoint>
          <Trackpoint>
            <Time>2022-09-19T11:15:46.000Z</Time>
            <Position>
              <LatitudeDegrees>49.33929861523211002349853515625</LatitudeDegrees>
              <LongitudeDegrees>20.00282627530395984649658203125</LongitudeDegrees>
            </Position>
            <AltitudeMeters>739.20001220703125</AltitudeMeters>
            <DistanceMeters>NAN</DistanceMeters>
          </Trackpoint>
          <Trackpoint>
            <Time>2022-09-19T11:15:48.000Z</Time>
            <Position>
              <LatitudeDegrees>49.33929861523211002349853515625</LatitudeDegrees>
              <LongitudeDegrees>20.00282627530395984649658203125</LongitudeDegrees>
            </Position>
            <AltitudeMeters>739</AltitudeMeters>
            <DistanceMeters>NAN</DistanceMeters>
          </Trackpoint>
          <Trackpoint>
            <Time>2022-09-19T11:15:57.000Z</Time>
            <Position>
              <LatitudeDegrees>49.33929861523211002349853515625</LatitudeDegrees>
              <LongitudeDegrees>20.00282627530395984649658203125</LongitudeDegrees>
            </Position>
            <AltitudeMeters>739</AltitudeMeters>
            <DistanceMeters>NAN</DistanceMeters>
          </Trackpoint>
          <Trackpoint>
            <Time>2022-09-19T11:16:16.000Z</Time>
            <Position>
              <LatitudeDegrees>49.33929861523211002349853515625</LatitudeDegrees>
              <LongitudeDegrees>20.00282627530395984649658203125</LongitudeDegrees>
            </Position>
            <AltitudeMeters>738.79998779296875</AltitudeMeters>
            <DistanceMeters>NAN</DistanceMeters>
          </Trackpoint>
          <Trackpoint>
            <Time>2022-09-19T11:16:26.000Z</Time>
            <Position>
              <LatitudeDegrees>49.33929861523211002349853515625</LatitudeDegrees>
              <LongitudeDegrees>20.00282627530395984649658203125</LongitudeDegrees>
            </Position>
            <AltitudeMeters>738.4000244140625</AltitudeMeters>
            <DistanceMeters>NAN</DistanceMeters>
          </Trackpoint>
          <Trackpoint>
            <Time>2022-09-19T11:16:37.000Z</Time>
            <Position>
              <LatitudeDegrees>49.33929861523211002349853515625</LatitudeDegrees>
              <LongitudeDegrees>20.00282627530395984649658203125</LongitudeDegrees>
            </Position>
            <AltitudeMeters>738.4000244140625</AltitudeMeters>
            <DistanceMeters>NAN</DistanceMeters>
          </Trackpoint>
          <Trackpoint>
            <Time>2022-09-19T11:16:57.000Z</Time>
            <Position>
              <LatitudeDegrees>49.33929861523211002349853515625</LatitudeDegrees>
              <LongitudeDegrees>20.00282627530395984649658203125</LongitudeDegrees>
            </Position>
            <AltitudeMeters>738.20001220703125</AltitudeMeters>
            <DistanceMeters>NAN</DistanceMeters>
          </Trackpoint>
          <Trackpoint>
            <Time>2022-09-19T11:16:59.000Z</Time>
            <Position>
              <LatitudeDegrees>49.33929861523211002349853515625</LatitudeDegrees>
              <LongitudeDegrees>20.00282627530395984649658203125</LongitudeDegrees>
            </Position>
            <AltitudeMeters>738.20001220703125</AltitudeMeters>
            <DistanceMeters>NAN</DistanceMeters>
          </Trackpoint>
          <Trackpoint>
            <Time>2022-09-19T11:17:20.000Z</Time>
            <Position>
              <LatitudeDegrees>49.33929861523211002349853515625</LatitudeDegrees>
              <LongitudeDegrees>20.00282627530395984649658203125</LongitudeDegrees>
            </Position>
            <AltitudeMeters>738</AltitudeMeters>
            <DistanceMeters>NAN</DistanceMeters>
          </Trackpoint>
          <Trackpoint>
            <Time>2022-09-19T11:17:23.000Z</Time>
            <Position>
              <LatitudeDegrees>49.33929861523211002349853515625</LatitudeDegrees>
              <LongitudeDegrees>20.00282627530395984649658203125</LongitudeDegrees>
            </Position>
            <AltitudeMeters>738</AltitudeMeters>
            <DistanceMeters>NAN</DistanceMeters>
          </Trackpoint>
          <Trackpoint>
            <Time>2022-09-19T11:17:46.000Z</Time>
            <Position>
              <LatitudeDegrees>49.33929861523211002349853515625</LatitudeDegrees>
              <LongitudeDegrees>20.00282627530395984649658203125</LongitudeDegrees>
            </Position>
            <AltitudeMeters>737.79998779296875</AltitudeMeters>
            <DistanceMeters>NAN</DistanceMeters>
          </Trackpoint>
          <Trackpoint>
            <Time>2022-09-19T11:18:00.000Z</Time>
            <Position>
              <LatitudeDegrees>49.33929861523211002349853515625</LatitudeDegrees>
              <LongitudeDegrees>20.00282627530395984649658203125</LongitudeDegrees>
            </Position>
            <AltitudeMeters>737.79998779296875</AltitudeMeters>
            <DistanceMeters>NAN</DistanceMeters>
          </Trackpoint>
          <Trackpoint>
            <Time>2022-09-19T11:18:10.000Z</Time>
            <Position>
              <LatitudeDegrees>49.33929861523211002349853515625</LatitudeDegrees>
              <LongitudeDegrees>20.00282627530395984649658203125</LongitudeDegrees>
            </Position>
            <AltitudeMeters>737.5999755859375</AltitudeMeters>
            <DistanceMeters>NAN</DistanceMeters>
          </Trackpoint>
          <Trackpoint>
            <Time>2022-09-19T11:18:35.000Z</Time>
            <Position>
              <LatitudeDegrees>49.33929861523211002349853515625</LatitudeDegrees>
              <LongitudeDegrees>20.00282627530395984649658203125</LongitudeDegrees>
            </Position>
            <AltitudeMeters>737.4000244140625</AltitudeMeters>
            <DistanceMeters>NAN</DistanceMeters>
          </Trackpoint>
          <Trackpoint>
            <Time>2022-09-19T11:19:07.000Z</Time>
            <Position>
              <LatitudeDegrees>49.33929861523211002349853515625</LatitudeDegrees>
              <LongitudeDegrees>20.00282627530395984649658203125</LongitudeDegrees>
            </Position>
            <AltitudeMeters>737.5999755859375</AltitudeMeters>
            <DistanceMeters>NAN</DistanceMeters>
          </Trackpoint>
          <Trackpoint>
            <Time>2022-09-19T11:20:24.000Z</Time>
            <Position>
              <LatitudeDegrees>49.33929861523211002349853515625</LatitudeDegrees>
              <LongitudeDegrees>20.00282627530395984649658203125</LongitudeDegrees>
            </Position>
            <AltitudeMeters>737.5999755859375</AltitudeMeters>
            <DistanceMeters>NAN</DistanceMeters>
          </Trackpoint>
          <Trackpoint>
            <Time>2022-09-19T11:21:45.000Z</Time>
            <Position>
              <LatitudeDegrees>49.3393033929169178009033203125</LatitudeDegrees>
              <LongitudeDegrees>20.00282493419945240020751953125</LongitudeDegrees>
            </Position>
            <AltitudeMeters>737.5999755859375</AltitudeMeters>
            <DistanceMeters>NAN</DistanceMeters>
          </Trackpoint>
          <Trackpoint>
            <Time>2022-09-19T11:21:46.000Z</Time>
            <Position>
              <LatitudeDegrees>49.3393033929169178009033203125</LatitudeDegrees>
              <LongitudeDegrees>20.00282493419945240020751953125</LongitudeDegrees>
            </Position>
            <AltitudeMeters>737.5999755859375</AltitudeMeters>
            <DistanceMeters>NAN</DistanceMeters>
          </Trackpoint>
          <Trackpoint>
            <Time>2022-09-19T11:21:53.000Z</Time>
            <Position>
              <LatitudeDegrees>49.33932879008352756500244140625</LatitudeDegrees>
              <LongitudeDegrees>20.00283331610262393951416015625</LongitudeDegrees>
            </Position>
            <AltitudeMeters>737.5999755859375</AltitudeMeters>
            <DistanceMeters>NAN</DistanceMeters>
          </Trackpoint>
          <Trackpoint>
            <Time>2022-09-19T11:21:55.000Z</Time>
            <Position>
              <LatitudeDegrees>49.33935343287885189056396484375</LatitudeDegrees>
              <LongitudeDegrees>20.00284018926322460174560546875</LongitudeDegrees>
            </Position>
            <AltitudeMeters>737.5999755859375</AltitudeMeters>
            <DistanceMeters>NAN</DistanceMeters>
          </Trackpoint>
          <Trackpoint>
            <Time>2022-09-19T11:21:58.000Z</Time>
            <Position>
              <LatitudeDegrees>49.3393858708441257476806640625</LatitudeDegrees>
              <LongitudeDegrees>20.00285544432699680328369140625</LongitudeDegrees>
            </Position>
            <AltitudeMeters>737.5999755859375</AltitudeMeters>
            <DistanceMeters>NAN</DistanceMeters>
          </Trackpoint>
          <Trackpoint>
            <Time>2022-09-19T11:22:05.000Z</Time>
            <Position>
              <LatitudeDegrees>49.3394418619573116302490234375</LatitudeDegrees>
              <LongitudeDegrees>20.0028927437961101531982421875</LongitudeDegrees>
            </Position>
            <AltitudeMeters>737.5999755859375</AltitudeMeters>
            <DistanceMeters>NAN</DistanceMeters>
          </Trackpoint>
          <Trackpoint>
            <Time>2022-09-19T11:22:15.000Z</Time>
            <Position>
              <LatitudeDegrees>49.33951755054295063018798828125</LatitudeDegrees>
              <LongitudeDegrees>20.00292979180812835693359375</LongitudeDegrees>
            </Position>
            <AltitudeMeters>737.79998779296875</AltitudeMeters>
            <DistanceMeters>NAN</DistanceMeters>
          </Trackpoint>
          <Trackpoint>
            <Time>2022-09-19T11:22:25.000Z</Time>
            <Position>
              <LatitudeDegrees>49.33959282003343105316162109375</LatitudeDegrees>
              <LongitudeDegrees>20.002916716039180755615234375</LongitudeDegrees>
            </Position>
            <AltitudeMeters>738</AltitudeMeters>
            <DistanceMeters>NAN</DistanceMeters>
          </Trackpoint>
          <Trackpoint>
            <Time>2022-09-19T11:22:30.000Z</Time>
            <Position>
              <LatitudeDegrees>49.3396304547786712646484375</LatitudeDegrees>
              <LongitudeDegrees>20.00286902301013469696044921875</LongitudeDegrees>
            </Position>
            <AltitudeMeters>738</AltitudeMeters>
            <DistanceMeters>NAN</DistanceMeters>
          </Trackpoint>
          <Trackpoint>
            <Time>2022-09-19T11:22:32.000Z</Time>
            <Position>
              <LatitudeDegrees>49.33964462019503116607666015625</LatitudeDegrees>
              <LongitudeDegrees>20.0028513371944427490234375</LongitudeDegrees>
            </Position>
            <AltitudeMeters>738.20001220703125</AltitudeMeters>
            <DistanceMeters>NAN</DistanceMeters>
          </Trackpoint>
          <Trackpoint>
            <Time>2022-09-19T11:22:34.000Z</Time>
            <Position>
              <LatitudeDegrees>49.33965467847883701324462890625</LatitudeDegrees>
              <LongitudeDegrees>20.00283767469227313995361328125</LongitudeDegrees>
            </Position>
            <AltitudeMeters>738</AltitudeMeters>
            <DistanceMeters>NAN</DistanceMeters>
          </Trackpoint>
          <Trackpoint>
            <Time>2022-09-19T11:22:37.000Z</Time>
            <Position>
              <LatitudeDegrees>49.33967546559870243072509765625</LatitudeDegrees>
              <LongitudeDegrees>20.002812445163726806640625</LongitudeDegrees>
            </Position>
            <AltitudeMeters>738.20001220703125</AltitudeMeters>
            <DistanceMeters>NAN</DistanceMeters>
          </Trackpoint>
          <Trackpoint>
            <Time>2022-09-19T11:22:40.000Z</Time>
            <Position>
              <LatitudeDegrees>49.33970195241272449493408203125</LatitudeDegrees>
              <LongitudeDegrees>20.0027841143310070037841796875</LongitudeDegrees>
            </Position>
            <AltitudeMeters>738.4000244140625</AltitudeMeters>
            <DistanceMeters>NAN</DistanceMeters>
          </Trackpoint>
          <Trackpoint>
            <Time>2022-09-19T11:22:44.000Z</Time>
            <Position>
              <LatitudeDegrees>49.339729361236095428466796875</LatitudeDegrees>
              <LongitudeDegrees>20.0027589686214923858642578125</LongitudeDegrees>
            </Position>
            <AltitudeMeters>738.4000244140625</AltitudeMeters>
            <DistanceMeters>NAN</DistanceMeters>
          </Trackpoint>
          <Trackpoint>
            <Time>2022-09-19T11:22:48.000Z</Time>
            <Position>
              <LatitudeDegrees>49.33976079337298870086669921875</LatitudeDegrees>
              <LongitudeDegrees>20.0027494132518768310546875</LongitudeDegrees>
            </Position>
            <AltitudeMeters>738.5999755859375</AltitudeMeters>
            <DistanceMeters>NAN</DistanceMeters>
          </Trackpoint>
          <Trackpoint>
            <Time>2022-09-19T11:22:54.000Z</Time>
            <Position>
              <LatitudeDegrees>49.3398093245923519134521484375</LatitudeDegrees>
              <LongitudeDegrees>20.00274262391030788421630859375</LongitudeDegrees>
            </Position>
            <AltitudeMeters>738.79998779296875</AltitudeMeters>
            <DistanceMeters>NAN</DistanceMeters>
          </Trackpoint>
          <Trackpoint>
            <Time>2022-09-19T11:22:58.000Z</Time>
            <Position>
              <LatitudeDegrees>49.3398411758244037628173828125</LatitudeDegrees>
              <LongitudeDegrees>20.00274279154837131500244140625</LongitudeDegrees>
            </Position>
            <AltitudeMeters>739</AltitudeMeters>
            <DistanceMeters>NAN</DistanceMeters>
          </Trackpoint>
          <Trackpoint>
            <Time>2022-09-19T11:23:03.000Z</Time>
            <Position>
              <LatitudeDegrees>49.3398800678551197052001953125</LatitudeDegrees>
              <LongitudeDegrees>20.002736337482929229736328125</LongitudeDegrees>
            </Position>
            <AltitudeMeters>738.79998779296875</AltitudeMeters>
            <DistanceMeters>NAN</DistanceMeters>
          </Trackpoint>
          <Trackpoint>
            <Time>2022-09-19T11:23:04.000Z</Time>
            <Position>
              <LatitudeDegrees>49.33989037759602069854736328125</LatitudeDegrees>
              <LongitudeDegrees>20.00274128280580043792724609375</LongitudeDegrees>
            </Position>
            <AltitudeMeters>738.79998779296875</AltitudeMeters>
            <DistanceMeters>NAN</DistanceMeters>
          </Trackpoint>
          <Trackpoint>
            <Time>2022-09-19T11:23:05.000Z</Time>
            <Position>
              <LatitudeDegrees>49.33990278281271457672119140625</LatitudeDegrees>
              <LongitudeDegrees>20.0027440488338470458984375</LongitudeDegrees>
            </Position>
            <AltitudeMeters>738.79998779296875</AltitudeMeters>
            <DistanceMeters>NAN</DistanceMeters>
          </Trackpoint>
          <Trackpoint>
            <Time>2022-09-19T11:23:13.000Z</Time>
            <Position>
              <LatitudeDegrees>49.3399843387305736541748046875</LatitudeDegrees>
              <LongitudeDegrees>20.00278704799711704254150390625</LongitudeDegrees>
            </Position>
            <AltitudeMeters>738.79998779296875</AltitudeMeters>
            <DistanceMeters>NAN</DistanceMeters>
          </Trackpoint>
          <Trackpoint>
            <Time>2022-09-19T11:23:20.000Z</Time>
            <Position>
              <LatitudeDegrees>49.34002398513257503509521484375</LatitudeDegrees>
              <LongitudeDegrees>20.00288846902549266815185546875</LongitudeDegrees>
            </Position>
            <AltitudeMeters>739</AltitudeMeters>
            <DistanceMeters>NAN</DistanceMeters>
          </Trackpoint>
          <Trackpoint>
            <Time>2022-09-19T11:23:28.000Z</Time>
            <Position>
              <LatitudeDegrees>49.34005558490753173828125</LatitudeDegrees>
              <LongitudeDegrees>20.00301402993500232696533203125</LongitudeDegrees>
            </Position>
            <AltitudeMeters>739</AltitudeMeters>
            <DistanceMeters>NAN</DistanceMeters>
          </Trackpoint>
          <Trackpoint>
            <Time>2022-09-19T11:23:35.000Z</Time>
            <Position>
              <LatitudeDegrees>49.3400802277028560638427734375</LatitudeDegrees>
              <LongitudeDegrees>20.00309986062347888946533203125</LongitudeDegrees>
            </Position>
            <AltitudeMeters>738.79998779296875</AltitudeMeters>
            <DistanceMeters>NAN</DistanceMeters>
          </Trackpoint>
          <Trackpoint>
            <Time>2022-09-19T11:23:45.000Z</Time>
            <Position>
              <LatitudeDegrees>49.3401751108467578887939453125</LatitudeDegrees>
              <LongitudeDegrees>20.00315719284117221832275390625</LongitudeDegrees>
            </Position>
            <AltitudeMeters>738.4000244140625</AltitudeMeters>
            <DistanceMeters>NAN</DistanceMeters>
          </Trackpoint>
          <Trackpoint>
            <Time>2022-09-19T11:23:54.000Z</Time>
            <Position>
              <LatitudeDegrees>49.34021794237196445465087890625</LatitudeDegrees>
              <LongitudeDegrees>20.003194324672222137451171875</LongitudeDegrees>
            </Position>
            <AltitudeMeters>738</AltitudeMeters>
            <DistanceMeters>NAN</DistanceMeters>
          </Trackpoint>
          <Trackpoint>
            <Time>2022-09-19T11:23:59.000Z</Time>
            <Position>
              <LatitudeDegrees>49.340243004262447357177734375</LatitudeDegrees>
              <LongitudeDegrees>20.003209076821804046630859375</LongitudeDegrees>
            </Position>
            <AltitudeMeters>737.79998779296875</AltitudeMeters>
            <DistanceMeters>NAN</DistanceMeters>
          </Trackpoint>
          <Trackpoint>
            <Time>2022-09-19T11:24:00.000Z</Time>
            <Position>
              <LatitudeDegrees>49.34025817550718784332275390625</LatitudeDegrees>
              <LongitudeDegrees>20.00321536324918270111083984375</LongitudeDegrees>
            </Position>
            <AltitudeMeters>737.79998779296875</AltitudeMeters>
            <DistanceMeters>NAN</DistanceMeters>
          </Trackpoint>
          <Trackpoint>
            <Time>2022-09-19T11:24:05.000Z</Time>
            <Position>
              <LatitudeDegrees>49.34035842306911945343017578125</LatitudeDegrees>
              <LongitudeDegrees>20.0032333843410015106201171875</LongitudeDegrees>
            </Position>
            <AltitudeMeters>737.79998779296875</AltitudeMeters>
            <DistanceMeters>NAN</DistanceMeters>
          </Trackpoint>
          <Trackpoint>
            <Time>2022-09-19T11:24:09.000Z</Time>
            <Position>
              <LatitudeDegrees>49.3404698185622692108154296875</LatitudeDegrees>
              <LongitudeDegrees>20.0032536685466766357421875</LongitudeDegrees>
            </Position>
            <AltitudeMeters>737.4000244140625</AltitudeMeters>
            <DistanceMeters>NAN</DistanceMeters>
          </Trackpoint>
          <Trackpoint>
            <Time>2022-09-19T11:24:12.000Z</Time>
            <Position>
              <LatitudeDegrees>49.34056746773421764373779296875</LatitudeDegrees>
              <LongitudeDegrees>20.003276802599430084228515625</LongitudeDegrees>
            </Position>
            <AltitudeMeters>737.4000244140625</AltitudeMeters>
            <DistanceMeters>NAN</DistanceMeters>
          </Trackpoint>
          <Trackpoint>
            <Time>2022-09-19T11:24:15.000Z</Time>
            <Position>
              <LatitudeDegrees>49.34068028815090656280517578125</LatitudeDegrees>
              <LongitudeDegrees>20.00332675874233245849609375</LongitudeDegrees>
            </Position>
            <AltitudeMeters>737.20001220703125</AltitudeMeters>
            <DistanceMeters>NAN</DistanceMeters>
          </Trackpoint>
          <Trackpoint>
            <Time>2022-09-19T11:24:16.000Z</Time>
            <Position>
              <LatitudeDegrees>49.34072135947644710540771484375</LatitudeDegrees>
              <LongitudeDegrees>20.00332885421812534332275390625</LongitudeDegrees>
            </Position>
            <AltitudeMeters>737</AltitudeMeters>
            <DistanceMeters>NAN</DistanceMeters>
          </Trackpoint>
          <Trackpoint>
            <Time>2022-09-19T11:24:18.000Z</Time>
            <Position>
              <LatitudeDegrees>49.3408014066517353057861328125</LatitudeDegrees>
              <LongitudeDegrees>20.00332717783749103546142578125</LongitudeDegrees>
            </Position>
            <AltitudeMeters>736.79998779296875</AltitudeMeters>
            <DistanceMeters>NAN</DistanceMeters>
          </Trackpoint>
          <Trackpoint>
            <Time>2022-09-19T11:24:27.000Z</Time>
            <Position>
              <LatitudeDegrees>49.34115738607943058013916015625</LatitudeDegrees>
              <LongitudeDegrees>20.00332181341946125030517578125</LongitudeDegrees>
            </Position>
            <AltitudeMeters>736.20001220703125</AltitudeMeters>
            <DistanceMeters>NAN</DistanceMeters>
          </Trackpoint>
          <Trackpoint>
            <Time>2022-09-19T11:24:29.000Z</Time>
            <Position>
              <LatitudeDegrees>49.34123382903635501861572265625</LatitudeDegrees>
              <LongitudeDegrees>20.0033198855817317962646484375</LongitudeDegrees>
            </Position>
            <AltitudeMeters>736.20001220703125</AltitudeMeters>
            <DistanceMeters>NAN</DistanceMeters>
          </Trackpoint>
          <Trackpoint>
            <Time>2022-09-19T11:24:35.000Z</Time>
            <Position>
              <LatitudeDegrees>49.34141688980162143707275390625</LatitudeDegrees>
              <LongitudeDegrees>20.00330924056470394134521484375</LongitudeDegrees>
            </Position>
            <AltitudeMeters>736</AltitudeMeters>
            <DistanceMeters>NAN</DistanceMeters>
          </Trackpoint>
          <Trackpoint>
            <Time>2022-09-19T11:24:37.000Z</Time>
            <Position>
              <LatitudeDegrees>49.34147740714251995086669921875</LatitudeDegrees>
              <LongitudeDegrees>20.0033027864992618560791015625</LongitudeDegrees>
            </Position>
            <AltitudeMeters>736.20001220703125</AltitudeMeters>
            <DistanceMeters>NAN</DistanceMeters>
          </Trackpoint>
          <Trackpoint>
            <Time>2022-09-19T11:24:39.000Z</Time>
            <Position>
              <LatitudeDegrees>49.34153616428375244140625</LatitudeDegrees>
              <LongitudeDegrees>20.00329800881445407867431640625</LongitudeDegrees>
            </Position>
            <AltitudeMeters>736.4000244140625</AltitudeMeters>
            <DistanceMeters>NAN</DistanceMeters>
          </Trackpoint>
          <Trackpoint>
            <Time>2022-09-19T11:24:46.000Z</Time>
            <Position>
              <LatitudeDegrees>49.34172433800995349884033203125</LatitudeDegrees>
              <LongitudeDegrees>20.003286190330982208251953125</LongitudeDegrees>
            </Position>
            <AltitudeMeters>736.20001220703125</AltitudeMeters>
            <DistanceMeters>NAN</DistanceMeters>
          </Trackpoint>
          <Trackpoint>
            <Time>2022-09-19T11:24:54.000Z</Time>
            <Position>
              <LatitudeDegrees>49.341952912509441375732421875</LatitudeDegrees>
              <LongitudeDegrees>20.00327923335134983062744140625</LongitudeDegrees>
            </Position>
            <AltitudeMeters>736</AltitudeMeters>
            <DistanceMeters>NAN</DistanceMeters>
          </Trackpoint>
          <Trackpoint>
            <Time>2022-09-19T11:24:57.000Z</Time>
            <Position>
              <LatitudeDegrees>49.34203597716987133026123046875</LatitudeDegrees>
              <LongitudeDegrees>20.00327319838106632232666015625</LongitudeDegrees>
            </Position>
            <AltitudeMeters>735.79998779296875</AltitudeMeters>
            <DistanceMeters>NAN</DistanceMeters>
          </Trackpoint>
          <Trackpoint>
            <Time>2022-09-19T11:25:05.000Z</Time>
            <Position>
              <LatitudeDegrees>49.34231207706034183502197265625</LatitudeDegrees>
              <LongitudeDegrees>20.00326112844049930572509765625</LongitudeDegrees>
            </Position>
            <AltitudeMeters>736</AltitudeMeters>
            <DistanceMeters>NAN</DistanceMeters>
          </Trackpoint>
          <Trackpoint>
            <Time>2022-09-19T11:25:14.000Z</Time>
            <Position>
              <LatitudeDegrees>49.3425929546356201171875</LatitudeDegrees>
              <LongitudeDegrees>20.0032417662441730499267578125</LongitudeDegrees>
            </Position>
            <AltitudeMeters>736</AltitudeMeters>
            <DistanceMeters>NAN</DistanceMeters>
          </Trackpoint>
          <Trackpoint>
            <Time>2022-09-19T11:25:15.000Z</Time>
            <Position>
              <LatitudeDegrees>49.34262287802994251251220703125</LatitudeDegrees>
              <LongitudeDegrees>20.00323832966387271881103515625</LongitudeDegrees>
            </Position>
            <AltitudeMeters>736</AltitudeMeters>
            <DistanceMeters>NAN</DistanceMeters>
          </Trackpoint>
          <Trackpoint>
            <Time>2022-09-19T11:25:21.000Z</Time>
            <Position>
              <LatitudeDegrees>49.34282186441123485565185546875</LatitudeDegrees>
              <LongitudeDegrees>20.00318820588290691375732421875</LongitudeDegrees>
            </Position>
            <AltitudeMeters>736</AltitudeMeters>
            <DistanceMeters>NAN</DistanceMeters>
          </Trackpoint>
          <Trackpoint>
            <Time>2022-09-19T11:25:22.000Z</Time>
            <Position>
              <LatitudeDegrees>49.34285908006131649017333984375</LatitudeDegrees>
              <LongitudeDegrees>20.00318535603582859039306640625</LongitudeDegrees>
            </Position>
            <AltitudeMeters>736</AltitudeMeters>
            <DistanceMeters>NAN</DistanceMeters>
          </Trackpoint>
          <Trackpoint>
            <Time>2022-09-19T11:25:29.000Z</Time>
            <Position>
              <LatitudeDegrees>49.3430863134562969207763671875</LatitudeDegrees>
              <LongitudeDegrees>20.0031867809593677520751953125</LongitudeDegrees>
            </Position>
            <AltitudeMeters>735.79998779296875</AltitudeMeters>
            <DistanceMeters>NAN</DistanceMeters>
          </Trackpoint>
          <Trackpoint>
            <Time>2022-09-19T11:25:37.000Z</Time>
            <Position>
              <LatitudeDegrees>49.34334489516913890838623046875</LatitudeDegrees>
              <LongitudeDegrees>20.00320580787956714630126953125</LongitudeDegrees>
            </Position>
            <AltitudeMeters>735.4000244140625</AltitudeMeters>
            <DistanceMeters>NAN</DistanceMeters>
          </Trackpoint>
          <Trackpoint>
            <Time>2022-09-19T11:25:38.000Z</Time>
            <Position>
              <LatitudeDegrees>49.34337892569601535797119140625</LatitudeDegrees>
              <LongitudeDegrees>20.0032079033553600311279296875</LongitudeDegrees>
            </Position>
            <AltitudeMeters>735.4000244140625</AltitudeMeters>
            <DistanceMeters>NAN</DistanceMeters>
          </Trackpoint>
          <Trackpoint>
            <Time>2022-09-19T11:25:39.000Z</Time>
            <Position>
              <LatitudeDegrees>49.3434096872806549072265625</LatitudeDegrees>
              <LongitudeDegrees>20.003207735717296600341796875</LongitudeDegrees>
            </Position>
            <AltitudeMeters>735.4000244140625</AltitudeMeters>
            <DistanceMeters>NAN</DistanceMeters>
          </Trackpoint>
          <Trackpoint>
            <Time>2022-09-19T11:25:50.000Z</Time>
            <Position>
              <LatitudeDegrees>49.3437691032886505126953125</LatitudeDegrees>
              <LongitudeDegrees>20.00319558195769786834716796875</LongitudeDegrees>
            </Position>
            <AltitudeMeters>735.20001220703125</AltitudeMeters>
            <DistanceMeters>NAN</DistanceMeters>
          </Trackpoint>
          <Trackpoint>
            <Time>2022-09-19T11:25:52.000Z</Time>
            <Position>
              <LatitudeDegrees>49.3438329733908176422119140625</LatitudeDegrees>
              <LongitudeDegrees>20.00319608487188816070556640625</LongitudeDegrees>
            </Position>
            <AltitudeMeters>734.79998779296875</AltitudeMeters>
            <DistanceMeters>NAN</DistanceMeters>
          </Trackpoint>
          <Trackpoint>
            <Time>2022-09-19T11:25:58.000Z</Time>
            <Position>
              <LatitudeDegrees>49.34401595033705234527587890625</LatitudeDegrees>
              <LongitudeDegrees>20.0031854398548603057861328125</LongitudeDegrees>
            </Position>
            <AltitudeMeters>734.4000244140625</AltitudeMeters>
            <DistanceMeters>NAN</DistanceMeters>
          </Trackpoint>
          <Trackpoint>
            <Time>2022-09-19T11:26:01.000Z</Time>
            <Position>
              <LatitudeDegrees>49.344120807945728302001953125</LatitudeDegrees>
              <LongitudeDegrees>20.003178231418132781982421875</LongitudeDegrees>
            </Position>
            <AltitudeMeters>734.5999755859375</AltitudeMeters>
            <DistanceMeters>NAN</DistanceMeters>
          </Trackpoint>
          <Trackpoint>
            <Time>2022-09-19T11:26:10.000Z</Time>
            <Position>
              <LatitudeDegrees>49.344393722712993621826171875</LatitudeDegrees>
              <LongitudeDegrees>20.00317990779876708984375</LongitudeDegrees>
            </Position>
            <AltitudeMeters>735</AltitudeMeters>
            <DistanceMeters>NAN</DistanceMeters>
          </Trackpoint>
          <Trackpoint>
            <Time>2022-09-19T11:26:18.000Z</Time>
            <Position>
              <LatitudeDegrees>49.3446232192218303680419921875</LatitudeDegrees>
              <LongitudeDegrees>20.00318854115903377532958984375</LongitudeDegrees>
            </Position>
            <AltitudeMeters>735</AltitudeMeters>
            <DistanceMeters>NAN</DistanceMeters>
          </Trackpoint>
          <Trackpoint>
            <Time>2022-09-19T11:26:27.000Z</Time>
            <Position>
              <LatitudeDegrees>49.344895295798778533935546875</LatitudeDegrees>
              <LongitudeDegrees>20.00320027582347393035888671875</LongitudeDegrees>
            </Position>
            <AltitudeMeters>734.20001220703125</AltitudeMeters>
            <DistanceMeters>NAN</DistanceMeters>
          </Trackpoint>
          <Trackpoint>
            <Time>2022-09-19T11:26:29.000Z</Time>
            <Position>
              <LatitudeDegrees>49.34494399465620517730712890625</LatitudeDegrees>
              <LongitudeDegrees>20.00320798717439174652099609375</LongitudeDegrees>
            </Position>
            <AltitudeMeters>733.79998779296875</AltitudeMeters>
            <DistanceMeters>NAN</DistanceMeters>
          </Trackpoint>
          <Trackpoint>
            <Time>2022-09-19T11:26:30.000Z</Time>
            <Position>
              <LatitudeDegrees>49.3449641950428485870361328125</LatitudeDegrees>
              <LongitudeDegrees>20.00320614315569400787353515625</LongitudeDegrees>
            </Position>
            <AltitudeMeters>733.79998779296875</AltitudeMeters>
            <DistanceMeters>NAN</DistanceMeters>
          </Trackpoint>
          <Trackpoint>
            <Time>2022-09-19T11:26:32.000Z</Time>
            <Position>
              <LatitudeDegrees>49.344997890293598175048828125</LatitudeDegrees>
              <LongitudeDegrees>20.0031954981386661529541015625</LongitudeDegrees>
            </Position>
            <AltitudeMeters>733.5999755859375</AltitudeMeters>
            <DistanceMeters>NAN</DistanceMeters>
          </Trackpoint>
          <Trackpoint>
            <Time>2022-09-19T11:26:33.000Z</Time>
            <Position>
              <LatitudeDegrees>49.345011301338672637939453125</LatitudeDegrees>
              <LongitudeDegrees>20.00318200327455997467041015625</LongitudeDegrees>
            </Position>
            <AltitudeMeters>733.4000244140625</AltitudeMeters>
            <DistanceMeters>NAN</DistanceMeters>
          </Trackpoint>
          <Trackpoint>
            <Time>2022-09-19T11:26:37.000Z</Time>
            <Position>
              <LatitudeDegrees>49.345036782324314117431640625</LatitudeDegrees>
              <LongitudeDegrees>20.00308393500745296478271484375</LongitudeDegrees>
            </Position>
            <AltitudeMeters>733.4000244140625</AltitudeMeters>
            <DistanceMeters>NAN</DistanceMeters>
          </Trackpoint>
          <Trackpoint>
            <Time>2022-09-19T11:26:38.000Z</Time>
            <Position>
              <LatitudeDegrees>49.34504139237105846405029296875</LatitudeDegrees>
              <LongitudeDegrees>20.0030654110014438629150390625</LongitudeDegrees>
            </Position>
            <AltitudeMeters>733.20001220703125</AltitudeMeters>
            <DistanceMeters>NAN</DistanceMeters>
          </Trackpoint>
          <Trackpoint>
            <Time>2022-09-19T11:26:41.000Z</Time>
            <Position>
              <LatitudeDegrees>49.34508129023015499114990234375</LatitudeDegrees>
              <LongitudeDegrees>20.00303045846521854400634765625</LongitudeDegrees>
            </Position>
            <AltitudeMeters>732.79998779296875</AltitudeMeters>
            <DistanceMeters>NAN</DistanceMeters>
          </Trackpoint>
          <Trackpoint>
            <Time>2022-09-19T11:26:42.000Z</Time>
            <Position>
              <LatitudeDegrees>49.34509637765586376190185546875</LatitudeDegrees>
              <LongitudeDegrees>20.00302408821880817413330078125</LongitudeDegrees>
            </Position>
            <AltitudeMeters>732.5999755859375</AltitudeMeters>
            <DistanceMeters>NAN</DistanceMeters>
          </Trackpoint>
          <Trackpoint>
            <Time>2022-09-19T11:26:45.000Z</Time>
            <Position>
              <LatitudeDegrees>49.345116578042507171630859375</LatitudeDegrees>
              <LongitudeDegrees>20.00303749926388263702392578125</LongitudeDegrees>
            </Position>
            <AltitudeMeters>732.4000244140625</AltitudeMeters>
            <DistanceMeters>NAN</DistanceMeters>
          </Trackpoint>
          <Trackpoint>
            <Time>2022-09-19T11:26:51.000Z</Time>
            <Position>
              <LatitudeDegrees>49.3451182544231414794921875</LatitudeDegrees>
              <LongitudeDegrees>20.00306256115436553955078125</LongitudeDegrees>
            </Position>
            <AltitudeMeters>732.5999755859375</AltitudeMeters>
            <DistanceMeters>NAN</DistanceMeters>
          </Trackpoint>
          <Trackpoint>
            <Time>2022-09-19T11:26:54.000Z</Time>
            <Position>
              <LatitudeDegrees>49.34513158164918422698974609375</LatitudeDegrees>
              <LongitudeDegrees>20.0031168758869171142578125</LongitudeDegrees>
            </Position>
            <AltitudeMeters>732.79998779296875</AltitudeMeters>
            <DistanceMeters>NAN</DistanceMeters>
          </Trackpoint>
          <Trackpoint>
            <Time>2022-09-19T11:26:58.000Z</Time>
            <Position>
              <LatitudeDegrees>49.3451784364879131317138671875</LatitudeDegrees>
              <LongitudeDegrees>20.003156773746013641357421875</LongitudeDegrees>
            </Position>
            <AltitudeMeters>733.20001220703125</AltitudeMeters>
            <DistanceMeters>NAN</DistanceMeters>
          </Trackpoint>
          <Trackpoint>
            <Time>2022-09-19T11:27:00.000Z</Time>
            <Position>
              <LatitudeDegrees>49.34521707706153392791748046875</LatitudeDegrees>
              <LongitudeDegrees>20.00316758640110492706298828125</LongitudeDegrees>
            </Position>
            <AltitudeMeters>733.20001220703125</AltitudeMeters>
            <DistanceMeters>NAN</DistanceMeters>
          </Trackpoint>
          <Trackpoint>
            <Time>2022-09-19T11:27:06.000Z</Time>
            <Position>
              <LatitudeDegrees>49.3453980423510074615478515625</LatitudeDegrees>
              <LongitudeDegrees>20.0032038800418376922607421875</LongitudeDegrees>
            </Position>
            <AltitudeMeters>733</AltitudeMeters>
            <DistanceMeters>NAN</DistanceMeters>
          </Trackpoint>
          <Trackpoint>
            <Time>2022-09-19T11:27:15.000Z</Time>
            <Position>
              <LatitudeDegrees>49.34573675505816936492919921875</LatitudeDegrees>
              <LongitudeDegrees>20.00327671878039836883544921875</LongitudeDegrees>
            </Position>
            <AltitudeMeters>732.20001220703125</AltitudeMeters>
            <DistanceMeters>NAN</DistanceMeters>
          </Trackpoint>
          <Trackpoint>
            <Time>2022-09-19T11:27:18.000Z</Time>
            <Position>
              <LatitudeDegrees>49.34586013667285442352294921875</LatitudeDegrees>
              <LongitudeDegrees>20.00328660942614078521728515625</LongitudeDegrees>
            </Position>
            <AltitudeMeters>731.79998779296875</AltitudeMeters>
            <DistanceMeters>NAN</DistanceMeters>
          </Trackpoint>
          <Trackpoint>
            <Time>2022-09-19T11:27:23.000Z</Time>
            <Position>
              <LatitudeDegrees>49.34605878777801990509033203125</LatitudeDegrees>
              <LongitudeDegrees>20.0033058039844036102294921875</LongitudeDegrees>
            </Position>
            <AltitudeMeters>731.5999755859375</AltitudeMeters>
            <DistanceMeters>NAN</DistanceMeters>
          </Trackpoint>
          <Trackpoint>
            <Time>2022-09-19T11:27:25.000Z</Time>
            <Position>
              <LatitudeDegrees>49.3461141921579837799072265625</LatitudeDegrees>
              <LongitudeDegrees>20.00330622307956218719482421875</LongitudeDegrees>
            </Position>
            <AltitudeMeters>731.4000244140625</AltitudeMeters>
            <DistanceMeters>NAN</DistanceMeters>
          </Trackpoint>
          <Trackpoint>
            <Time>2022-09-19T11:27:27.000Z</Time>
            <Position>
              <LatitudeDegrees>49.34615534730255603790283203125</LatitudeDegrees>
              <LongitudeDegrees>20.003278814256191253662109375</LongitudeDegrees>
            </Position>
            <AltitudeMeters>731.20001220703125</AltitudeMeters>
            <DistanceMeters>NAN</DistanceMeters>
          </Trackpoint>
          <Trackpoint>
            <Time>2022-09-19T11:27:29.000Z</Time>
            <Position>
              <LatitudeDegrees>49.3461884558200836181640625</LatitudeDegrees>
              <LongitudeDegrees>20.0032340548932552337646484375</LongitudeDegrees>
            </Position>
            <AltitudeMeters>731.20001220703125</AltitudeMeters>
            <DistanceMeters>NAN</DistanceMeters>
          </Trackpoint>
          <Trackpoint>
            <Time>2022-09-19T11:27:30.000Z</Time>
            <Position>
              <LatitudeDegrees>49.34620731510221958160400390625</LatitudeDegrees>
              <LongitudeDegrees>20.00321335159242153167724609375</LongitudeDegrees>
            </Position>
            <AltitudeMeters>731</AltitudeMeters>
            <DistanceMeters>NAN</DistanceMeters>
          </Trackpoint>
          <Trackpoint>
            <Time>2022-09-19T11:27:31.000Z</Time>
            <Position>
              <LatitudeDegrees>49.34622609056532382965087890625</LatitudeDegrees>
              <LongitudeDegrees>20.00320069491863250732421875</LongitudeDegrees>
            </Position>
            <AltitudeMeters>731</AltitudeMeters>
            <DistanceMeters>NAN</DistanceMeters>
          </Trackpoint>
          <Trackpoint>
            <Time>2022-09-19T11:27:33.000Z</Time>
            <Position>
              <LatitudeDegrees>49.34627604670822620391845703125</LatitudeDegrees>
              <LongitudeDegrees>20.00322039239108562469482421875</LongitudeDegrees>
            </Position>
            <AltitudeMeters>730.79998779296875</AltitudeMeters>
            <DistanceMeters>NAN</DistanceMeters>
          </Trackpoint>
          <Trackpoint>
            <Time>2022-09-19T11:27:35.000Z</Time>
            <Position>
              <LatitudeDegrees>49.3463166989386081695556640625</LatitudeDegrees>
              <LongitudeDegrees>20.00326397828757762908935546875</LongitudeDegrees>
            </Position>
            <AltitudeMeters>730.5999755859375</AltitudeMeters>
            <DistanceMeters>NAN</DistanceMeters>
          </Trackpoint>
          <Trackpoint>
            <Time>2022-09-19T11:27:38.000Z</Time>
            <Position>
              <LatitudeDegrees>49.3464032001793384552001953125</LatitudeDegrees>
              <LongitudeDegrees>20.00328225083649158477783203125</LongitudeDegrees>
            </Position>
            <AltitudeMeters>730.4000244140625</AltitudeMeters>
            <DistanceMeters>NAN</DistanceMeters>
          </Trackpoint>
          <Trackpoint>
            <Time>2022-09-19T11:27:45.000Z</Time>
            <Position>
              <LatitudeDegrees>49.34667100198566913604736328125</LatitudeDegrees>
              <LongitudeDegrees>20.0033383257687091827392578125</LongitudeDegrees>
            </Position>
            <AltitudeMeters>729.79998779296875</AltitudeMeters>
            <DistanceMeters>NAN</DistanceMeters>
          </Trackpoint>
          <Trackpoint>
            <Time>2022-09-19T11:27:53.000Z</Time>
            <Position>
              <LatitudeDegrees>49.34697442688047885894775390625</LatitudeDegrees>
              <LongitudeDegrees>20.00340010039508342742919921875</LongitudeDegrees>
            </Position>
            <AltitudeMeters>729.5999755859375</AltitudeMeters>
            <DistanceMeters>NAN</DistanceMeters>
          </Trackpoint>
          <Trackpoint>
            <Time>2022-09-19T11:27:55.000Z</Time>
            <Position>
              <LatitudeDegrees>49.3470392189919948577880859375</LatitudeDegrees>
              <LongitudeDegrees>20.00340412370860576629638671875</LongitudeDegrees>
            </Position>
            <AltitudeMeters>729.5999755859375</AltitudeMeters>
            <DistanceMeters>NAN</DistanceMeters>
          </Trackpoint>
          <Trackpoint>
            <Time>2022-09-19T11:28:04.000Z</Time>
            <Position>
              <LatitudeDegrees>49.34737893752753734588623046875</LatitudeDegrees>
              <LongitudeDegrees>20.0034355558454990386962890625</LongitudeDegrees>
            </Position>
            <AltitudeMeters>729.20001220703125</AltitudeMeters>
            <DistanceMeters>NAN</DistanceMeters>
          </Trackpoint>
          <Trackpoint>
            <Time>2022-09-19T11:28:15.000Z</Time>
            <Position>
              <LatitudeDegrees>49.34778277762234210968017578125</LatitudeDegrees>
              <LongitudeDegrees>20.00346765853464603424072265625</LongitudeDegrees>
            </Position>
            <AltitudeMeters>728.79998779296875</AltitudeMeters>
            <DistanceMeters>NAN</DistanceMeters>
          </Trackpoint>
          <Trackpoint>
            <Time>2022-09-19T11:28:21.000Z</Time>
            <Position>
              <LatitudeDegrees>49.34798427857458591461181640625</LatitudeDegrees>
              <LongitudeDegrees>20.003497414290904998779296875</LongitudeDegrees>
            </Position>
            <AltitudeMeters>728.5999755859375</AltitudeMeters>
            <DistanceMeters>NAN</DistanceMeters>
          </Trackpoint>
          <Trackpoint>
            <Time>2022-09-19T11:28:27.000Z</Time>
            <Position>
              <LatitudeDegrees>49.348168931901454925537109375</LatitudeDegrees>
              <LongitudeDegrees>20.00351342372596263885498046875</LongitudeDegrees>
            </Position>
            <AltitudeMeters>728.4000244140625</AltitudeMeters>
            <DistanceMeters>NAN</DistanceMeters>
          </Trackpoint>
          <Trackpoint>
            <Time>2022-09-19T11:28:36.000Z</Time>
            <Position>
              <LatitudeDegrees>49.34845031239092350006103515625</LatitudeDegrees>
              <LongitudeDegrees>20.00353194773197174072265625</LongitudeDegrees>
            </Position>
            <AltitudeMeters>728</AltitudeMeters>
            <DistanceMeters>NAN</DistanceMeters>
          </Trackpoint>
          <Trackpoint>
            <Time>2022-09-19T11:28:43.000Z</Time>
            <Position>
              <LatitudeDegrees>49.34863873757421970367431640625</LatitudeDegrees>
              <LongitudeDegrees>20.003559775650501251220703125</LongitudeDegrees>
            </Position>
            <AltitudeMeters>728.20001220703125</AltitudeMeters>
            <DistanceMeters>NAN</DistanceMeters>
          </Trackpoint>
          <Trackpoint>
            <Time>2022-09-19T11:28:46.000Z</Time>
            <Position>
              <LatitudeDegrees>49.34873613528907299041748046875</LatitudeDegrees>
              <LongitudeDegrees>20.00357083976268768310546875</LongitudeDegrees>
            </Position>
            <AltitudeMeters>728.4000244140625</AltitudeMeters>
            <DistanceMeters>NAN</DistanceMeters>
          </Trackpoint>
          <Trackpoint>
            <Time>2022-09-19T11:28:50.000Z</Time>
            <Position>
              <LatitudeDegrees>49.34888818301260471343994140625</LatitudeDegrees>
              <LongitudeDegrees>20.003590621054172515869140625</LongitudeDegrees>
            </Position>
            <AltitudeMeters>728.5999755859375</AltitudeMeters>
            <DistanceMeters>NAN</DistanceMeters>
          </Trackpoint>
          <Trackpoint>
            <Time>2022-09-19T11:28:57.000Z</Time>
            <Position>
              <LatitudeDegrees>49.34919429011642932891845703125</LatitudeDegrees>
              <LongitudeDegrees>20.00362054444849491119384765625</LongitudeDegrees>
            </Position>
            <AltitudeMeters>729.5999755859375</AltitudeMeters>
            <DistanceMeters>NAN</DistanceMeters>
          </Trackpoint>
          <Trackpoint>
            <Time>2022-09-19T11:28:58.000Z</Time>
            <Position>
              <LatitudeDegrees>49.34923016466200351715087890625</LatitudeDegrees>
              <LongitudeDegrees>20.00362724997103214263916015625</LongitudeDegrees>
            </Position>
            <AltitudeMeters>729.79998779296875</AltitudeMeters>
            <DistanceMeters>NAN</DistanceMeters>
          </Trackpoint>
          <Trackpoint>
            <Time>2022-09-19T11:29:05.000Z</Time>
            <Position>
              <LatitudeDegrees>49.3495799414813518524169921875</LatitudeDegrees>
              <LongitudeDegrees>20.00366337597370147705078125</LongitudeDegrees>
            </Position>
            <AltitudeMeters>730.5999755859375</AltitudeMeters>
            <DistanceMeters>NAN</DistanceMeters>
          </Trackpoint>
          <Trackpoint>
            <Time>2022-09-19T11:29:07.000Z</Time>
            <Position>
              <LatitudeDegrees>49.349674992263317108154296875</LatitudeDegrees>
              <LongitudeDegrees>20.00366698019206523895263671875</LongitudeDegrees>
            </Position>
            <AltitudeMeters>731</AltitudeMeters>
            <DistanceMeters>NAN</DistanceMeters>
          </Trackpoint>
          <Trackpoint>
            <Time>2022-09-19T11:29:13.000Z</Time>
            <Position>
              <LatitudeDegrees>49.34994715265929698944091796875</LatitudeDegrees>
              <LongitudeDegrees>20.003699250519275665283203125</LongitudeDegrees>
            </Position>
            <AltitudeMeters>731.79998779296875</AltitudeMeters>
            <DistanceMeters>NAN</DistanceMeters>
          </Trackpoint>
          <Trackpoint>
            <Time>2022-09-19T11:29:15.000Z</Time>
            <Position>
              <LatitudeDegrees>49.35002711601555347442626953125</LatitudeDegrees>
              <LongitudeDegrees>20.00371442176401615142822265625</LongitudeDegrees>
            </Position>
            <AltitudeMeters>732</AltitudeMeters>
            <DistanceMeters>NAN</DistanceMeters>
          </Trackpoint>
          <Trackpoint>
            <Time>2022-09-19T11:29:20.000Z</Time>
            <Position>
              <LatitudeDegrees>49.350198693573474884033203125</LatitudeDegrees>
              <LongitudeDegrees>20.00377058051526546478271484375</LongitudeDegrees>
            </Position>
            <AltitudeMeters>732.20001220703125</AltitudeMeters>
            <DistanceMeters>NAN</DistanceMeters>
          </Trackpoint>
          <Trackpoint>
            <Time>2022-09-19T11:29:23.000Z</Time>
            <Position>
              <LatitudeDegrees>49.35030472464859485626220703125</LatitudeDegrees>
              <LongitudeDegrees>20.00381785444915294647216796875</LongitudeDegrees>
            </Position>
            <AltitudeMeters>732.20001220703125</AltitudeMeters>
            <DistanceMeters>NAN</DistanceMeters>
          </Trackpoint>
          <Trackpoint>
            <Time>2022-09-19T11:29:25.000Z</Time>
            <Position>
              <LatitudeDegrees>49.35037060640752315521240234375</LatitudeDegrees>
              <LongitudeDegrees>20.00384509563446044921875</LongitudeDegrees>
            </Position>
            <AltitudeMeters>732.20001220703125</AltitudeMeters>
            <DistanceMeters>NAN</DistanceMeters>
          </Trackpoint>
          <Trackpoint>
            <Time>2022-09-19T11:29:32.000Z</Time>
            <Position>
              <LatitudeDegrees>49.350578896701335906982421875</LatitudeDegrees>
              <LongitudeDegrees>20.00400493852794170379638671875</LongitudeDegrees>
            </Position>
            <AltitudeMeters>731.79998779296875</AltitudeMeters>
            <DistanceMeters>NAN</DistanceMeters>
          </Trackpoint>
          <Trackpoint>
            <Time>2022-09-19T11:29:34.000Z</Time>
            <Position>
              <LatitudeDegrees>49.3506283499300479888916015625</LatitudeDegrees>
              <LongitudeDegrees>20.00405154190957546234130859375</LongitudeDegrees>
            </Position>
            <AltitudeMeters>731.79998779296875</AltitudeMeters>
            <DistanceMeters>NAN</DistanceMeters>
          </Trackpoint>
          <Trackpoint>
            <Time>2022-09-19T11:29:35.000Z</Time>
            <Position>
              <LatitudeDegrees>49.350652992725372314453125</LatitudeDegrees>
              <LongitudeDegrees>20.0040769390761852264404296875</LongitudeDegrees>
            </Position>
            <AltitudeMeters>731.79998779296875</AltitudeMeters>
            <DistanceMeters>NAN</DistanceMeters>
          </Trackpoint>
          <Trackpoint>
            <Time>2022-09-19T11:29:39.000Z</Time>
            <Position>
              <LatitudeDegrees>49.35075282119214534759521484375</LatitudeDegrees>
              <LongitudeDegrees>20.00416838563978672027587890625</LongitudeDegrees>
            </Position>
            <AltitudeMeters>732</AltitudeMeters>
            <DistanceMeters>NAN</DistanceMeters>
          </Trackpoint>
          <Trackpoint>
            <Time>2022-09-19T11:29:43.000Z</Time>
            <Position>
              <LatitudeDegrees>49.3508446030318737030029296875</LatitudeDegrees>
              <LongitudeDegrees>20.00424809753894805908203125</LongitudeDegrees>
            </Position>
            <AltitudeMeters>732</AltitudeMeters>
            <DistanceMeters>NAN</DistanceMeters>
          </Trackpoint>
          <Trackpoint>
            <Time>2022-09-19T11:29:45.000Z</Time>
            <Position>
              <LatitudeDegrees>49.350883327424526214599609375</LatitudeDegrees>
              <LongitudeDegrees>20.00429235398769378662109375</LongitudeDegrees>
            </Position>
            <AltitudeMeters>732</AltitudeMeters>
            <DistanceMeters>NAN</DistanceMeters>
          </Trackpoint>
          <Trackpoint>
            <Time>2022-09-19T11:29:47.000Z</Time>
            <Position>
              <LatitudeDegrees>49.3509186990559101104736328125</LatitudeDegrees>
              <LongitudeDegrees>20.0043320842087268829345703125</LongitudeDegrees>
            </Position>
            <AltitudeMeters>732</AltitudeMeters>
            <DistanceMeters>NAN</DistanceMeters>
          </Trackpoint>
          <Trackpoint>
            <Time>2022-09-19T11:29:50.000Z</Time>
            <Position>
              <LatitudeDegrees>49.35098080895841121673583984375</LatitudeDegrees>
              <LongitudeDegrees>20.0043971277773380279541015625</LongitudeDegrees>
            </Position>
            <AltitudeMeters>732</AltitudeMeters>
            <DistanceMeters>NAN</DistanceMeters>
          </Trackpoint>
          <Trackpoint>
            <Time>2022-09-19T11:29:57.000Z</Time>
            <Position>
              <LatitudeDegrees>49.3511362932622432708740234375</LatitudeDegrees>
              <LongitudeDegrees>20.004574321210384368896484375</LongitudeDegrees>
            </Position>
            <AltitudeMeters>731.79998779296875</AltitudeMeters>
            <DistanceMeters>NAN</DistanceMeters>
          </Trackpoint>
          <Trackpoint>
            <Time>2022-09-19T11:30:06.000Z</Time>
            <Position>
              <LatitudeDegrees>49.3513683043420314788818359375</LatitudeDegrees>
              <LongitudeDegrees>20.0048075057566165924072265625</LongitudeDegrees>
            </Position>
            <AltitudeMeters>731.20001220703125</AltitudeMeters>
            <DistanceMeters>NAN</DistanceMeters>
          </Trackpoint>
          <Trackpoint>
            <Time>2022-09-19T11:30:11.000Z</Time>
            <Position>
              <LatitudeDegrees>49.351535774767398834228515625</LatitudeDegrees>
              <LongitudeDegrees>20.0049748085439205169677734375</LongitudeDegrees>
            </Position>
            <AltitudeMeters>730.79998779296875</AltitudeMeters>
            <DistanceMeters>NAN</DistanceMeters>
          </Trackpoint>
          <Trackpoint>
            <Time>2022-09-19T11:30:14.000Z</Time>
            <Position>
              <LatitudeDegrees>49.35164029709994792938232421875</LatitudeDegrees>
              <LongitudeDegrees>20.005084611475467681884765625</LongitudeDegrees>
            </Position>
            <AltitudeMeters>730</AltitudeMeters>
            <DistanceMeters>NAN</DistanceMeters>
          </Trackpoint>
          <Trackpoint>
            <Time>2022-09-19T11:30:16.000Z</Time>
            <Position>
              <LatitudeDegrees>49.35170902870595455169677734375</LatitudeDegrees>
              <LongitudeDegrees>20.005148984491825103759765625</LongitudeDegrees>
            </Position>
            <AltitudeMeters>729.4000244140625</AltitudeMeters>
            <DistanceMeters>NAN</DistanceMeters>
          </Trackpoint>
          <Trackpoint>
            <Time>2022-09-19T11:30:18.000Z</Time>
            <Position>
              <LatitudeDegrees>49.35177206061780452728271484375</LatitudeDegrees>
              <LongitudeDegrees>20.00521444715559482574462890625</LongitudeDegrees>
            </Position>
            <AltitudeMeters>729</AltitudeMeters>
            <DistanceMeters>NAN</DistanceMeters>
          </Trackpoint>
          <Trackpoint>
            <Time>2022-09-19T11:30:21.000Z</Time>
            <Position>
              <LatitudeDegrees>49.35186057351529598236083984375</LatitudeDegrees>
              <LongitudeDegrees>20.005300529301166534423828125</LongitudeDegrees>
            </Position>
            <AltitudeMeters>728.5999755859375</AltitudeMeters>
            <DistanceMeters>NAN</DistanceMeters>
          </Trackpoint>
          <Trackpoint>
            <Time>2022-09-19T11:30:22.000Z</Time>
            <Position>
              <LatitudeDegrees>49.35188756324350833892822265625</LatitudeDegrees>
              <LongitudeDegrees>20.0053275190293788909912109375</LongitudeDegrees>
            </Position>
            <AltitudeMeters>728.4000244140625</AltitudeMeters>
            <DistanceMeters>NAN</DistanceMeters>
          </Trackpoint>
          <Trackpoint>
            <Time>2022-09-19T11:30:24.000Z</Time>
            <Position>
              <LatitudeDegrees>49.351937770843505859375</LatitudeDegrees>
              <LongitudeDegrees>20.0053754635155200958251953125</LongitudeDegrees>
            </Position>
            <AltitudeMeters>728.20001220703125</AltitudeMeters>
            <DistanceMeters>NAN</DistanceMeters>
          </Trackpoint>
          <Trackpoint>
            <Time>2022-09-19T11:30:25.000Z</Time>
            <Position>
              <LatitudeDegrees>49.3519547022879123687744140625</LatitudeDegrees>
              <LongitudeDegrees>20.00539281405508518218994140625</LongitudeDegrees>
            </Position>
            <AltitudeMeters>728</AltitudeMeters>
            <DistanceMeters>NAN</DistanceMeters>
          </Trackpoint>
          <Trackpoint>
            <Time>2022-09-19T11:30:29.000Z</Time>
            <Position>
              <LatitudeDegrees>49.3520515970885753631591796875</LatitudeDegrees>
              <LongitudeDegrees>20.0054820813238620758056640625</LongitudeDegrees>
            </Position>
            <AltitudeMeters>727.20001220703125</AltitudeMeters>
            <DistanceMeters>NAN</DistanceMeters>
          </Trackpoint>
          <Trackpoint>
            <Time>2022-09-19T11:30:33.000Z</Time>
            <Position>
              <LatitudeDegrees>49.35214237309992313385009765625</LatitudeDegrees>
              <LongitudeDegrees>20.00556414015591144561767578125</LongitudeDegrees>
            </Position>
            <AltitudeMeters>726.5999755859375</AltitudeMeters>
            <DistanceMeters>NAN</DistanceMeters>
          </Trackpoint>
          <Trackpoint>
            <Time>2022-09-19T11:30:36.000Z</Time>
            <Position>
              <LatitudeDegrees>49.35220909304916858673095703125</LatitudeDegrees>
              <LongitudeDegrees>20.00560973770916461944580078125</LongitudeDegrees>
            </Position>
            <AltitudeMeters>726.20001220703125</AltitudeMeters>
            <DistanceMeters>NAN</DistanceMeters>
          </Trackpoint>
          <Trackpoint>
            <Time>2022-09-19T11:30:38.000Z</Time>
            <Position>
              <LatitudeDegrees>49.352243877947330474853515625</LatitudeDegrees>
              <LongitudeDegrees>20.00562516041100025177001953125</LongitudeDegrees>
            </Position>
            <AltitudeMeters>726</AltitudeMeters>
            <DistanceMeters>NAN</DistanceMeters>
          </Trackpoint>
          <Trackpoint>
            <Time>2022-09-19T11:30:39.000Z</Time>
            <Position>
              <LatitudeDegrees>49.3522529304027557373046875</LatitudeDegrees>
              <LongitudeDegrees>20.005634464323520660400390625</LongitudeDegrees>
            </Position>
            <AltitudeMeters>725.79998779296875</AltitudeMeters>
            <DistanceMeters>NAN</DistanceMeters>
          </Trackpoint>
          <Trackpoint>
            <Time>2022-09-19T11:30:42.000Z</Time>
            <Position>
              <LatitudeDegrees>49.35227212496101856231689453125</LatitudeDegrees>
              <LongitudeDegrees>20.0056312792003154754638671875</LongitudeDegrees>
            </Position>
            <AltitudeMeters>725.5999755859375</AltitudeMeters>
            <DistanceMeters>NAN</DistanceMeters>
          </Trackpoint>
          <Trackpoint>
            <Time>2022-09-19T11:30:44.000Z</Time>
            <Position>
              <LatitudeDegrees>49.35229249298572540283203125</LatitudeDegrees>
              <LongitudeDegrees>20.005571432411670684814453125</LongitudeDegrees>
            </Position>
            <AltitudeMeters>725.5999755859375</AltitudeMeters>
            <DistanceMeters>NAN</DistanceMeters>
          </Trackpoint>
          <Trackpoint>
            <Time>2022-09-19T11:30:45.000Z</Time>
            <Position>
              <LatitudeDegrees>49.35230900533497333526611328125</LatitudeDegrees>
              <LongitudeDegrees>20.00553497113287448883056640625</LongitudeDegrees>
            </Position>
            <AltitudeMeters>725.4000244140625</AltitudeMeters>
            <DistanceMeters>NAN</DistanceMeters>
          </Trackpoint>
          <Trackpoint>
            <Time>2022-09-19T11:30:46.000Z</Time>
            <Position>
              <LatitudeDegrees>49.35232945717871189117431640625</LatitudeDegrees>
              <LongitudeDegrees>20.00550605356693267822265625</LongitudeDegrees>
            </Position>
            <AltitudeMeters>725.20001220703125</AltitudeMeters>
            <DistanceMeters>NAN</DistanceMeters>
          </Trackpoint>
          <Trackpoint>
            <Time>2022-09-19T11:30:47.000Z</Time>
            <Position>
              <LatitudeDegrees>49.35235083103179931640625</LatitudeDegrees>
              <LongitudeDegrees>20.00546975992619991302490234375</LongitudeDegrees>
            </Position>
            <AltitudeMeters>725.20001220703125</AltitudeMeters>
            <DistanceMeters>NAN</DistanceMeters>
          </Trackpoint>
          <Trackpoint>
            <Time>2022-09-19T11:30:50.000Z</Time>
            <Position>
              <LatitudeDegrees>49.35238846577703952789306640625</LatitudeDegrees>
              <LongitudeDegrees>20.00530832447111606597900390625</LongitudeDegrees>
            </Position>
            <AltitudeMeters>724.5999755859375</AltitudeMeters>
            <DistanceMeters>NAN</DistanceMeters>
          </Trackpoint>
          <Trackpoint>
            <Time>2022-09-19T11:30:53.000Z</Time>
            <Position>
              <LatitudeDegrees>49.3524257652461528778076171875</LatitudeDegrees>
              <LongitudeDegrees>20.00511034391820430755615234375</LongitudeDegrees>
            </Position>
            <AltitudeMeters>724</AltitudeMeters>
            <DistanceMeters>NAN</DistanceMeters>
          </Trackpoint>
          <Trackpoint>
            <Time>2022-09-19T11:30:56.000Z</Time>
            <Position>
              <LatitudeDegrees>49.3524676747620105743408203125</LatitudeDegrees>
              <LongitudeDegrees>20.0049059092998504638671875</LongitudeDegrees>
            </Position>
            <AltitudeMeters>723.5999755859375</AltitudeMeters>
            <DistanceMeters>NAN</DistanceMeters>
          </Trackpoint>
          <Trackpoint>
            <Time>2022-09-19T11:30:57.000Z</Time>
            <Position>
              <LatitudeDegrees>49.35248334892094135284423828125</LatitudeDegrees>
              <LongitudeDegrees>20.00484379939734935760498046875</LongitudeDegrees>
            </Position>
            <AltitudeMeters>723.4000244140625</AltitudeMeters>
            <DistanceMeters>NAN</DistanceMeters>
          </Trackpoint>
          <Trackpoint>
            <Time>2022-09-19T11:30:59.000Z</Time>
            <Position>
              <LatitudeDegrees>49.35251377522945404052734375</LatitudeDegrees>
              <LongitudeDegrees>20.00472159124910831451416015625</LongitudeDegrees>
            </Position>
            <AltitudeMeters>723.20001220703125</AltitudeMeters>
            <DistanceMeters>NAN</DistanceMeters>
          </Trackpoint>
          <Trackpoint>
            <Time>2022-09-19T11:31:01.000Z</Time>
            <Position>
              <LatitudeDegrees>49.352571777999401092529296875</LatitudeDegrees>
              <LongitudeDegrees>20.0046194158494472503662109375</LongitudeDegrees>
            </Position>
            <AltitudeMeters>723</AltitudeMeters>
            <DistanceMeters>NAN</DistanceMeters>
          </Trackpoint>
          <Trackpoint>
            <Time>2022-09-19T11:31:02.000Z</Time>
            <Position>
              <LatitudeDegrees>49.35260958038270473480224609375</LatitudeDegrees>
              <LongitudeDegrees>20.00458178110420703887939453125</LongitudeDegrees>
            </Position>
            <AltitudeMeters>722.79998779296875</AltitudeMeters>
            <DistanceMeters>NAN</DistanceMeters>
          </Trackpoint>
          <Trackpoint>
            <Time>2022-09-19T11:31:03.000Z</Time>
            <Position>
              <LatitudeDegrees>49.35265249572694301605224609375</LatitudeDegrees>
              <LongitudeDegrees>20.004559569060802459716796875</LongitudeDegrees>
            </Position>
            <AltitudeMeters>722.5999755859375</AltitudeMeters>
            <DistanceMeters>NAN</DistanceMeters>
          </Trackpoint>
          <Trackpoint>
            <Time>2022-09-19T11:31:05.000Z</Time>
            <Position>
              <LatitudeDegrees>49.3527322076261043548583984375</LatitudeDegrees>
              <LongitudeDegrees>20.0045506842434406280517578125</LongitudeDegrees>
            </Position>
            <AltitudeMeters>722.4000244140625</AltitudeMeters>
            <DistanceMeters>NAN</DistanceMeters>
          </Trackpoint>
          <Trackpoint>
            <Time>2022-09-19T11:31:08.000Z</Time>
            <Position>
              <LatitudeDegrees>49.35286606661975383758544921875</LatitudeDegrees>
              <LongitudeDegrees>20.004576332867145538330078125</LongitudeDegrees>
            </Position>
            <AltitudeMeters>722.4000244140625</AltitudeMeters>
            <DistanceMeters>NAN</DistanceMeters>
          </Trackpoint>
          <Trackpoint>
            <Time>2022-09-19T11:31:11.000Z</Time>
            <Position>
              <LatitudeDegrees>49.352999590337276458740234375</LatitudeDegrees>
              <LongitudeDegrees>20.00462268479168415069580078125</LongitudeDegrees>
            </Position>
            <AltitudeMeters>722.20001220703125</AltitudeMeters>
            <DistanceMeters>NAN</DistanceMeters>
          </Trackpoint>
          <Trackpoint>
            <Time>2022-09-19T11:31:17.000Z</Time>
            <Position>
              <LatitudeDegrees>49.3532721698284149169921875</LatitudeDegrees>
              <LongitudeDegrees>20.00470046885311603546142578125</LongitudeDegrees>
            </Position>
            <AltitudeMeters>721.79998779296875</AltitudeMeters>
            <DistanceMeters>NAN</DistanceMeters>
          </Trackpoint>
          <Trackpoint>
            <Time>2022-09-19T11:31:21.000Z</Time>
            <Position>
              <LatitudeDegrees>49.35343402437865734100341796875</LatitudeDegrees>
              <LongitudeDegrees>20.00476132147014141082763671875</LongitudeDegrees>
            </Position>
            <AltitudeMeters>721.4000244140625</AltitudeMeters>
            <DistanceMeters>NAN</DistanceMeters>
          </Trackpoint>
          <Trackpoint>
            <Time>2022-09-19T11:31:22.000Z</Time>
            <Position>
              <LatitudeDegrees>49.35348699800670146942138671875</LatitudeDegrees>
              <LongitudeDegrees>20.00477992929518222808837890625</LongitudeDegrees>
            </Position>
            <AltitudeMeters>721.4000244140625</AltitudeMeters>
            <DistanceMeters>NAN</DistanceMeters>
          </Trackpoint>
          <Trackpoint>
            <Time>2022-09-19T11:31:28.000Z</Time>
            <Position>
              <LatitudeDegrees>49.3537299893796443939208984375</LatitudeDegrees>
              <LongitudeDegrees>20.004855953156948089599609375</LongitudeDegrees>
            </Position>
            <AltitudeMeters>721.20001220703125</AltitudeMeters>
            <DistanceMeters>NAN</DistanceMeters>
          </Trackpoint>
          <Trackpoint>
            <Time>2022-09-19T11:31:31.000Z</Time>
            <Position>
              <LatitudeDegrees>49.35385915450751781463623046875</LatitudeDegrees>
              <LongitudeDegrees>20.00490599311888217926025390625</LongitudeDegrees>
            </Position>
            <AltitudeMeters>721</AltitudeMeters>
            <DistanceMeters>NAN</DistanceMeters>
          </Trackpoint>
          <Trackpoint>
            <Time>2022-09-19T11:31:33.000Z</Time>
            <Position>
              <LatitudeDegrees>49.35393811203539371490478515625</LatitudeDegrees>
              <LongitudeDegrees>20.00494681298732757568359375</LongitudeDegrees>
            </Position>
            <AltitudeMeters>721</AltitudeMeters>
            <DistanceMeters>NAN</DistanceMeters>
          </Trackpoint>
          <Trackpoint>
            <Time>2022-09-19T11:31:34.000Z</Time>
            <Position>
              <LatitudeDegrees>49.35397566296160221099853515625</LatitudeDegrees>
              <LongitudeDegrees>20.0049555301666259765625</LongitudeDegrees>
            </Position>
            <AltitudeMeters>721</AltitudeMeters>
            <DistanceMeters>NAN</DistanceMeters>
          </Trackpoint>
          <Trackpoint>
            <Time>2022-09-19T11:31:40.000Z</Time>
            <Position>
              <LatitudeDegrees>49.3541651777923107147216796875</LatitudeDegrees>
              <LongitudeDegrees>20.0049984455108642578125</LongitudeDegrees>
            </Position>
            <AltitudeMeters>721</AltitudeMeters>
            <DistanceMeters>NAN</DistanceMeters>
          </Trackpoint>
          <Trackpoint>
            <Time>2022-09-19T11:31:42.000Z</Time>
            <Position>
              <LatitudeDegrees>49.354237429797649383544921875</LatitudeDegrees>
              <LongitudeDegrees>20.00501110218465328216552734375</LongitudeDegrees>
            </Position>
            <AltitudeMeters>720.79998779296875</AltitudeMeters>
            <DistanceMeters>NAN</DistanceMeters>
          </Trackpoint>
          <Trackpoint>
            <Time>2022-09-19T11:31:46.000Z</Time>
            <Position>
              <LatitudeDegrees>49.3543817661702632904052734375</LatitudeDegrees>
              <LongitudeDegrees>20.00506340526044368743896484375</LongitudeDegrees>
            </Position>
            <AltitudeMeters>720.4000244140625</AltitudeMeters>
            <DistanceMeters>NAN</DistanceMeters>
          </Trackpoint>
          <Trackpoint>
            <Time>2022-09-19T11:31:48.000Z</Time>
            <Position>
              <LatitudeDegrees>49.3544541858136653900146484375</LatitudeDegrees>
              <LongitudeDegrees>20.00507111661136150360107421875</LongitudeDegrees>
            </Position>
            <AltitudeMeters>720.4000244140625</AltitudeMeters>
            <DistanceMeters>NAN</DistanceMeters>
          </Trackpoint>
          <Trackpoint>
            <Time>2022-09-19T11:31:56.000Z</Time>
            <Position>
              <LatitudeDegrees>49.35473657213151454925537109375</LatitudeDegrees>
              <LongitudeDegrees>20.00515879131853580474853515625</LongitudeDegrees>
            </Position>
            <AltitudeMeters>719.79998779296875</AltitudeMeters>
            <DistanceMeters>NAN</DistanceMeters>
          </Trackpoint>
          <Trackpoint>
            <Time>2022-09-19T11:31:59.000Z</Time>
            <Position>
              <LatitudeDegrees>49.3548307009041309356689453125</LatitudeDegrees>
              <LongitudeDegrees>20.00518645159900188446044921875</LongitudeDegrees>
            </Position>
            <AltitudeMeters>719.79998779296875</AltitudeMeters>
            <DistanceMeters>NAN</DistanceMeters>
          </Trackpoint>
          <Trackpoint>
            <Time>2022-09-19T11:32:04.000Z</Time>
            <Position>
              <LatitudeDegrees>49.3549859337508678436279296875</LatitudeDegrees>
              <LongitudeDegrees>20.00521905720233917236328125</LongitudeDegrees>
            </Position>
            <AltitudeMeters>719.5999755859375</AltitudeMeters>
            <DistanceMeters>NAN</DistanceMeters>
          </Trackpoint>
          <Trackpoint>
            <Time>2022-09-19T11:32:13.000Z</Time>
            <Position>
              <LatitudeDegrees>49.3552528135478496551513671875</LatitudeDegrees>
              <LongitudeDegrees>20.00527228228747844696044921875</LongitudeDegrees>
            </Position>
            <AltitudeMeters>719.20001220703125</AltitudeMeters>
            <DistanceMeters>NAN</DistanceMeters>
          </Trackpoint>
          <Trackpoint>
            <Time>2022-09-19T11:32:17.000Z</Time>
            <Position>
              <LatitudeDegrees>49.35539337806403636932373046875</LatitudeDegrees>
              <LongitudeDegrees>20.00531452707946300506591796875</LongitudeDegrees>
            </Position>
            <AltitudeMeters>719.20001220703125</AltitudeMeters>
            <DistanceMeters>NAN</DistanceMeters>
          </Trackpoint>
          <Trackpoint>
            <Time>2022-09-19T11:32:21.000Z</Time>
            <Position>
              <LatitudeDegrees>49.35552966780960559844970703125</LatitudeDegrees>
              <LongitudeDegrees>20.00535744242370128631591796875</LongitudeDegrees>
            </Position>
            <AltitudeMeters>719.4000244140625</AltitudeMeters>
            <DistanceMeters>NAN</DistanceMeters>
          </Trackpoint>
          <Trackpoint>
            <Time>2022-09-19T11:32:30.000Z</Time>
            <Position>
              <LatitudeDegrees>49.35580409131944179534912109375</LatitudeDegrees>
              <LongitudeDegrees>20.0054606236517429351806640625</LongitudeDegrees>
            </Position>
            <AltitudeMeters>719.4000244140625</AltitudeMeters>
            <DistanceMeters>NAN</DistanceMeters>
          </Trackpoint>
          <Trackpoint>
            <Time>2022-09-19T11:32:38.000Z</Time>
            <Position>
              <LatitudeDegrees>49.3560534529387950897216796875</LatitudeDegrees>
              <LongitudeDegrees>20.0055327080190181732177734375</LongitudeDegrees>
            </Position>
            <AltitudeMeters>719.4000244140625</AltitudeMeters>
            <DistanceMeters>NAN</DistanceMeters>
          </Trackpoint>
          <Trackpoint>
            <Time>2022-09-19T11:32:43.000Z</Time>
            <Position>
              <LatitudeDegrees>49.35623726807534694671630859375</LatitudeDegrees>
              <LongitudeDegrees>20.00553421676158905029296875</LongitudeDegrees>
            </Position>
            <AltitudeMeters>719</AltitudeMeters>
            <DistanceMeters>NAN</DistanceMeters>
          </Trackpoint>
          <Trackpoint>
            <Time>2022-09-19T11:32:45.000Z</Time>
            <Position>
              <LatitudeDegrees>49.35630667023360729217529296875</LatitudeDegrees>
              <LongitudeDegrees>20.00551854260265827178955078125</LongitudeDegrees>
            </Position>
            <AltitudeMeters>718.79998779296875</AltitudeMeters>
            <DistanceMeters>NAN</DistanceMeters>
          </Trackpoint>
          <Trackpoint>
            <Time>2022-09-19T11:32:48.000Z</Time>
            <Position>
              <LatitudeDegrees>49.35641504824161529541015625</LatitudeDegrees>
              <LongitudeDegrees>20.00550161115825176239013671875</LongitudeDegrees>
            </Position>
            <AltitudeMeters>718.79998779296875</AltitudeMeters>
            <DistanceMeters>NAN</DistanceMeters>
          </Trackpoint>
          <Trackpoint>
            <Time>2022-09-19T11:32:54.000Z</Time>
            <Position>
              <LatitudeDegrees>49.3566348217427730560302734375</LatitudeDegrees>
              <LongitudeDegrees>20.00545802526175975799560546875</LongitudeDegrees>
            </Position>
            <AltitudeMeters>718.5999755859375</AltitudeMeters>
            <DistanceMeters>NAN</DistanceMeters>
          </Trackpoint>
          <Trackpoint>
            <Time>2022-09-19T11:32:58.000Z</Time>
            <Position>
              <LatitudeDegrees>49.35676801018416881561279296875</LatitudeDegrees>
              <LongitudeDegrees>20.00541058368980884552001953125</LongitudeDegrees>
            </Position>
            <AltitudeMeters>718.4000244140625</AltitudeMeters>
            <DistanceMeters>NAN</DistanceMeters>
          </Trackpoint>
          <Trackpoint>
            <Time>2022-09-19T11:33:01.000Z</Time>
            <Position>
              <LatitudeDegrees>49.35687261633574962615966796875</LatitudeDegrees>
              <LongitudeDegrees>20.0053811632096767425537109375</LongitudeDegrees>
            </Position>
            <AltitudeMeters>718.20001220703125</AltitudeMeters>
            <DistanceMeters>NAN</DistanceMeters>
          </Trackpoint>
          <Trackpoint>
            <Time>2022-09-19T11:33:04.000Z</Time>
            <Position>
              <LatitudeDegrees>49.3569640628993511199951171875</LatitudeDegrees>
              <LongitudeDegrees>20.00532357953488826751708984375</LongitudeDegrees>
            </Position>
            <AltitudeMeters>717.5999755859375</AltitudeMeters>
            <DistanceMeters>NAN</DistanceMeters>
          </Trackpoint>
          <Trackpoint>
            <Time>2022-09-19T11:33:07.000Z</Time>
            <Position>
              <LatitudeDegrees>49.3570498935878276824951171875</LatitudeDegrees>
              <LongitudeDegrees>20.00530145131051540374755859375</LongitudeDegrees>
            </Position>
            <AltitudeMeters>717.20001220703125</AltitudeMeters>
            <DistanceMeters>NAN</DistanceMeters>
          </Trackpoint>
          <Trackpoint>
            <Time>2022-09-19T11:33:12.000Z</Time>
            <Position>
              <LatitudeDegrees>49.35720453970134258270263671875</LatitudeDegrees>
              <LongitudeDegrees>20.00529373995959758758544921875</LongitudeDegrees>
            </Position>
            <AltitudeMeters>717.4000244140625</AltitudeMeters>
            <DistanceMeters>NAN</DistanceMeters>
          </Trackpoint>
          <Trackpoint>
            <Time>2022-09-19T11:33:20.000Z</Time>
            <Position>
              <LatitudeDegrees>49.3574780412018299102783203125</LatitudeDegrees>
              <LongitudeDegrees>20.005213357508182525634765625</LongitudeDegrees>
            </Position>
            <AltitudeMeters>718.5999755859375</AltitudeMeters>
            <DistanceMeters>NAN</DistanceMeters>
          </Trackpoint>
          <Trackpoint>
            <Time>2022-09-19T11:33:21.000Z</Time>
            <Position>
              <LatitudeDegrees>49.35750662349164485931396484375</LatitudeDegrees>
              <LongitudeDegrees>20.005211345851421356201171875</LongitudeDegrees>
            </Position>
            <AltitudeMeters>718.5999755859375</AltitudeMeters>
            <DistanceMeters>NAN</DistanceMeters>
          </Trackpoint>
          <Trackpoint>
            <Time>2022-09-19T11:33:28.000Z</Time>
            <Position>
              <LatitudeDegrees>49.357745759189128875732421875</LatitudeDegrees>
              <LongitudeDegrees>20.00517404638230800628662109375</LongitudeDegrees>
            </Position>
            <AltitudeMeters>717.5999755859375</AltitudeMeters>
            <DistanceMeters>NAN</DistanceMeters>
          </Trackpoint>
          <Trackpoint>
            <Time>2022-09-19T11:33:29.000Z</Time>
            <Position>
              <LatitudeDegrees>49.35777685604989528656005859375</LatitudeDegrees>
              <LongitudeDegrees>20.0051726214587688446044921875</LongitudeDegrees>
            </Position>
            <AltitudeMeters>717.5999755859375</AltitudeMeters>
            <DistanceMeters>NAN</DistanceMeters>
          </Trackpoint>
          <Trackpoint>
            <Time>2022-09-19T11:33:36.000Z</Time>
            <Position>
              <LatitudeDegrees>49.35798707418143749237060546875</LatitudeDegrees>
              <LongitudeDegrees>20.0051568634808063507080078125</LongitudeDegrees>
            </Position>
            <AltitudeMeters>717</AltitudeMeters>
            <DistanceMeters>NAN</DistanceMeters>
          </Trackpoint>
          <Trackpoint>
            <Time>2022-09-19T11:33:44.000Z</Time>
            <Position>
              <LatitudeDegrees>49.358226545155048370361328125</LatitudeDegrees>
              <LongitudeDegrees>20.00515401363372802734375</LongitudeDegrees>
            </Position>
            <AltitudeMeters>717</AltitudeMeters>
            <DistanceMeters>NAN</DistanceMeters>
          </Trackpoint>
          <Trackpoint>
            <Time>2022-09-19T11:33:49.000Z</Time>
            <Position>
              <LatitudeDegrees>49.35840901918709278106689453125</LatitudeDegrees>
              <LongitudeDegrees>20.0052048079669475555419921875</LongitudeDegrees>
            </Position>
            <AltitudeMeters>717</AltitudeMeters>
            <DistanceMeters>NAN</DistanceMeters>
          </Trackpoint>
          <Trackpoint>
            <Time>2022-09-19T11:33:55.000Z</Time>
            <Position>
              <LatitudeDegrees>49.35863415710628032684326171875</LatitudeDegrees>
              <LongitudeDegrees>20.00523305498063564300537109375</LongitudeDegrees>
            </Position>
            <AltitudeMeters>716.5999755859375</AltitudeMeters>
            <DistanceMeters>NAN</DistanceMeters>
          </Trackpoint>
          <Trackpoint>
            <Time>2022-09-19T11:33:56.000Z</Time>
            <Position>
              <LatitudeDegrees>49.358674474060535430908203125</LatitudeDegrees>
              <LongitudeDegrees>20.005236826837062835693359375</LongitudeDegrees>
            </Position>
            <AltitudeMeters>716.4000244140625</AltitudeMeters>
            <DistanceMeters>NAN</DistanceMeters>
          </Trackpoint>
          <Trackpoint>
            <Time>2022-09-19T11:34:06.000Z</Time>
            <Position>
              <LatitudeDegrees>49.3590364046394824981689453125</LatitudeDegrees>
              <LongitudeDegrees>20.005285106599330902099609375</LongitudeDegrees>
            </Position>
            <AltitudeMeters>716</AltitudeMeters>
            <DistanceMeters>NAN</DistanceMeters>
          </Trackpoint>
          <Trackpoint>
            <Time>2022-09-19T11:34:11.000Z</Time>
            <Position>
              <LatitudeDegrees>49.35920529998838901519775390625</LatitudeDegrees>
              <LongitudeDegrees>20.00529457814991474151611328125</LongitudeDegrees>
            </Position>
            <AltitudeMeters>715.79998779296875</AltitudeMeters>
            <DistanceMeters>NAN</DistanceMeters>
          </Trackpoint>
          <Trackpoint>
            <Time>2022-09-19T11:34:13.000Z</Time>
            <Position>
              <LatitudeDegrees>49.35927537269890308380126953125</LatitudeDegrees>
              <LongitudeDegrees>20.00530044548213481903076171875</LongitudeDegrees>
            </Position>
            <AltitudeMeters>715.79998779296875</AltitudeMeters>
            <DistanceMeters>NAN</DistanceMeters>
          </Trackpoint>
          <Trackpoint>
            <Time>2022-09-19T11:34:17.000Z</Time>
            <Position>
              <LatitudeDegrees>49.35942524112761020660400390625</LatitudeDegrees>
              <LongitudeDegrees>20.00532559119164943695068359375</LongitudeDegrees>
            </Position>
            <AltitudeMeters>715.4000244140625</AltitudeMeters>
            <DistanceMeters>NAN</DistanceMeters>
          </Trackpoint>
          <Trackpoint>
            <Time>2022-09-19T11:34:19.000Z</Time>
            <Position>
              <LatitudeDegrees>49.359497241675853729248046875</LatitudeDegrees>
              <LongitudeDegrees>20.0053476355969905853271484375</LongitudeDegrees>
            </Position>
            <AltitudeMeters>715.4000244140625</AltitudeMeters>
            <DistanceMeters>NAN</DistanceMeters>
          </Trackpoint>
          <Trackpoint>
            <Time>2022-09-19T11:34:27.000Z</Time>
            <Position>
              <LatitudeDegrees>49.35980058275163173675537109375</LatitudeDegrees>
              <LongitudeDegrees>20.00531720928847789764404296875</LongitudeDegrees>
            </Position>
            <AltitudeMeters>714.5999755859375</AltitudeMeters>
            <DistanceMeters>NAN</DistanceMeters>
          </Trackpoint>
          <Trackpoint>
            <Time>2022-09-19T11:34:31.000Z</Time>
            <Position>
              <LatitudeDegrees>49.35995816253125667572021484375</LatitudeDegrees>
              <LongitudeDegrees>20.0052688457071781158447265625</LongitudeDegrees>
            </Position>
            <AltitudeMeters>714.79998779296875</AltitudeMeters>
            <DistanceMeters>NAN</DistanceMeters>
          </Trackpoint>
          <Trackpoint>
            <Time>2022-09-19T11:34:35.000Z</Time>
            <Position>
              <LatitudeDegrees>49.3601029179990291595458984375</LatitudeDegrees>
              <LongitudeDegrees>20.00522349961102008819580078125</LongitudeDegrees>
            </Position>
            <AltitudeMeters>714.79998779296875</AltitudeMeters>
            <DistanceMeters>NAN</DistanceMeters>
          </Trackpoint>
          <Trackpoint>
            <Time>2022-09-19T11:34:42.000Z</Time>
            <Position>
              <LatitudeDegrees>49.36037491075694561004638671875</LatitudeDegrees>
              <LongitudeDegrees>20.00515376217663288116455078125</LongitudeDegrees>
            </Position>
            <AltitudeMeters>714.5999755859375</AltitudeMeters>
            <DistanceMeters>NAN</DistanceMeters>
          </Trackpoint>
          <Trackpoint>
            <Time>2022-09-19T11:34:43.000Z</Time>
            <Position>
              <LatitudeDegrees>49.36041464097797870635986328125</LatitudeDegrees>
              <LongitudeDegrees>20.00514185987412929534912109375</LongitudeDegrees>
            </Position>
            <AltitudeMeters>714.4000244140625</AltitudeMeters>
            <DistanceMeters>NAN</DistanceMeters>
          </Trackpoint>
          <Trackpoint>
            <Time>2022-09-19T11:34:49.000Z</Time>
            <Position>
              <LatitudeDegrees>49.36066006310284137725830078125</LatitudeDegrees>
              <LongitudeDegrees>20.0051102600991725921630859375</LongitudeDegrees>
            </Position>
            <AltitudeMeters>714.5999755859375</AltitudeMeters>
            <DistanceMeters>NAN</DistanceMeters>
          </Trackpoint>
          <Trackpoint>
            <Time>2022-09-19T11:34:58.000Z</Time>
            <Position>
              <LatitudeDegrees>49.36101344414055347442626953125</LatitudeDegrees>
              <LongitudeDegrees>20.0050190649926662445068359375</LongitudeDegrees>
            </Position>
            <AltitudeMeters>713.79998779296875</AltitudeMeters>
            <DistanceMeters>NAN</DistanceMeters>
          </Trackpoint>
          <Trackpoint>
            <Time>2022-09-19T11:35:05.000Z</Time>
            <Position>
              <LatitudeDegrees>49.3612378276884555816650390625</LatitudeDegrees>
              <LongitudeDegrees>20.0049354135990142822265625</LongitudeDegrees>
            </Position>
            <AltitudeMeters>713.79998779296875</AltitudeMeters>
            <DistanceMeters>NAN</DistanceMeters>
          </Trackpoint>
          <Trackpoint>
            <Time>2022-09-19T11:35:10.000Z</Time>
            <Position>
              <LatitudeDegrees>49.36132122762501239776611328125</LatitudeDegrees>
              <LongitudeDegrees>20.0048913247883319854736328125</LongitudeDegrees>
            </Position>
            <AltitudeMeters>713.5999755859375</AltitudeMeters>
            <DistanceMeters>NAN</DistanceMeters>
          </Trackpoint>
          <Trackpoint>
            <Time>2022-09-19T11:35:16.000Z</Time>
            <Position>
              <LatitudeDegrees>49.36137579381465911865234375</LatitudeDegrees>
              <LongitudeDegrees>20.00487330369651317596435546875</LongitudeDegrees>
            </Position>
            <AltitudeMeters>713.79998779296875</AltitudeMeters>
            <DistanceMeters>NAN</DistanceMeters>
          </Trackpoint>
          <Trackpoint>
            <Time>2022-09-19T11:35:24.000Z</Time>
            <Position>
              <LatitudeDegrees>49.36137579381465911865234375</LatitudeDegrees>
              <LongitudeDegrees>20.00487330369651317596435546875</LongitudeDegrees>
            </Position>
            <AltitudeMeters>713.5999755859375</AltitudeMeters>
            <DistanceMeters>NAN</DistanceMeters>
          </Trackpoint>
          <Trackpoint>
            <Time>2022-09-19T11:35:32.000Z</Time>
            <Position>
              <LatitudeDegrees>49.36137579381465911865234375</LatitudeDegrees>
              <LongitudeDegrees>20.00487330369651317596435546875</LongitudeDegrees>
            </Position>
            <AltitudeMeters>713.4000244140625</AltitudeMeters>
            <DistanceMeters>NAN</DistanceMeters>
          </Trackpoint>
          <Trackpoint>
            <Time>2022-09-19T11:35:36.000Z</Time>
            <Position>
              <LatitudeDegrees>49.36137579381465911865234375</LatitudeDegrees>
              <LongitudeDegrees>20.00487330369651317596435546875</LongitudeDegrees>
            </Position>
            <AltitudeMeters>713.4000244140625</AltitudeMeters>
            <DistanceMeters>NAN</DistanceMeters>
          </Trackpoint>
          <Trackpoint>
            <Time>2022-09-19T11:35:41.000Z</Time>
            <Position>
              <LatitudeDegrees>49.36137579381465911865234375</LatitudeDegrees>
              <LongitudeDegrees>20.00487330369651317596435546875</LongitudeDegrees>
            </Position>
            <AltitudeMeters>713.20001220703125</AltitudeMeters>
            <DistanceMeters>NAN</DistanceMeters>
          </Trackpoint>
          <Trackpoint>
            <Time>2022-09-19T11:36:00.000Z</Time>
            <Position>
              <LatitudeDegrees>49.36137537471950054168701171875</LatitudeDegrees>
              <LongitudeDegrees>20.004872381687164306640625</LongitudeDegrees>
            </Position>
            <AltitudeMeters>713.5999755859375</AltitudeMeters>
            <DistanceMeters>NAN</DistanceMeters>
          </Trackpoint>
          <Trackpoint>
            <Time>2022-09-19T11:36:16.000Z</Time>
            <Position>
              <LatitudeDegrees>49.36135676689445972442626953125</LatitudeDegrees>
              <LongitudeDegrees>20.00487707555294036865234375</LongitudeDegrees>
            </Position>
            <AltitudeMeters>713.4000244140625</AltitudeMeters>
            <DistanceMeters>NAN</DistanceMeters>
          </Trackpoint>
          <Trackpoint>
            <Time>2022-09-19T11:36:19.000Z</Time>
            <Position>
              <LatitudeDegrees>49.361333884298801422119140625</LatitudeDegrees>
              <LongitudeDegrees>20.00490046106278896331787109375</LongitudeDegrees>
            </Position>
            <AltitudeMeters>713.4000244140625</AltitudeMeters>
            <DistanceMeters>NAN</DistanceMeters>
          </Trackpoint>
          <Trackpoint>
            <Time>2022-09-19T11:36:26.000Z</Time>
            <Position>
              <LatitudeDegrees>49.3613079003989696502685546875</LatitudeDegrees>
              <LongitudeDegrees>20.00496583990752696990966796875</LongitudeDegrees>
            </Position>
            <AltitudeMeters>713.5999755859375</AltitudeMeters>
            <DistanceMeters>NAN</DistanceMeters>
          </Trackpoint>
          <Trackpoint>
            <Time>2022-09-19T11:36:32.000Z</Time>
            <Position>
              <LatitudeDegrees>49.361312091350555419921875</LatitudeDegrees>
              <LongitudeDegrees>20.00505452044308185577392578125</LongitudeDegrees>
            </Position>
            <AltitudeMeters>713.5999755859375</AltitudeMeters>
            <DistanceMeters>NAN</DistanceMeters>
          </Trackpoint>
          <Trackpoint>
            <Time>2022-09-19T11:36:35.000Z</Time>
            <Position>
              <LatitudeDegrees>49.36129800975322723388671875</LatitudeDegrees>
              <LongitudeDegrees>20.00508469529449939727783203125</LongitudeDegrees>
            </Position>
            <AltitudeMeters>713.5999755859375</AltitudeMeters>
            <DistanceMeters>NAN</DistanceMeters>
          </Trackpoint>
          <Trackpoint>
            <Time>2022-09-19T11:36:40.000Z</Time>
            <Position>
              <LatitudeDegrees>49.36123405583202838897705078125</LatitudeDegrees>
              <LongitudeDegrees>20.00517186708748340606689453125</LongitudeDegrees>
            </Position>
            <AltitudeMeters>713.79998779296875</AltitudeMeters>
            <DistanceMeters>NAN</DistanceMeters>
          </Trackpoint>
          <Trackpoint>
            <Time>2022-09-19T11:36:41.000Z</Time>
            <Position>
              <LatitudeDegrees>49.361229278147220611572265625</LatitudeDegrees>
              <LongitudeDegrees>20.00518946908414363861083984375</LongitudeDegrees>
            </Position>
            <AltitudeMeters>713.79998779296875</AltitudeMeters>
            <DistanceMeters>NAN</DistanceMeters>
          </Trackpoint>
          <Trackpoint>
            <Time>2022-09-19T11:36:50.000Z</Time>
            <Position>
              <LatitudeDegrees>49.3611566908657550811767578125</LatitudeDegrees>
              <LongitudeDegrees>20.00528301112353801727294921875</LongitudeDegrees>
            </Position>
            <AltitudeMeters>713.79998779296875</AltitudeMeters>
            <DistanceMeters>NAN</DistanceMeters>
          </Trackpoint>
          <Trackpoint>
            <Time>2022-09-19T11:36:57.000Z</Time>
            <Position>
              <LatitudeDegrees>49.36113464646041393280029296875</LatitudeDegrees>
              <LongitudeDegrees>20.00533363781869411468505859375</LongitudeDegrees>
            </Position>
            <AltitudeMeters>714</AltitudeMeters>
            <DistanceMeters>NAN</DistanceMeters>
          </Trackpoint>
          <Trackpoint>
            <Time>2022-09-19T11:37:00.000Z</Time>
            <Position>
              <LatitudeDegrees>49.3611538410186767578125</LatitudeDegrees>
              <LongitudeDegrees>20.0053664110600948333740234375</LongitudeDegrees>
            </Position>
            <AltitudeMeters>713.79998779296875</AltitudeMeters>
            <DistanceMeters>NAN</DistanceMeters>
          </Trackpoint>
          <Trackpoint>
            <Time>2022-09-19T11:37:04.000Z</Time>
            <Position>
              <LatitudeDegrees>49.361172951757907867431640625</LatitudeDegrees>
              <LongitudeDegrees>20.00536867417395114898681640625</LongitudeDegrees>
            </Position>
            <AltitudeMeters>714</AltitudeMeters>
            <DistanceMeters>NAN</DistanceMeters>
          </Trackpoint>
          <Trackpoint>
            <Time>2022-09-19T11:37:06.000Z</Time>
            <Position>
              <LatitudeDegrees>49.361187033355236053466796875</LatitudeDegrees>
              <LongitudeDegrees>20.00537252984941005706787109375</LongitudeDegrees>
            </Position>
            <AltitudeMeters>714.20001220703125</AltitudeMeters>
            <DistanceMeters>NAN</DistanceMeters>
          </Trackpoint>
          <Trackpoint>
            <Time>2022-09-19T11:37:08.000Z</Time>
            <Position>
              <LatitudeDegrees>49.3611996062099933624267578125</LatitudeDegrees>
              <LongitudeDegrees>20.0053565204143524169921875</LongitudeDegrees>
            </Position>
            <AltitudeMeters>714.4000244140625</AltitudeMeters>
            <DistanceMeters>NAN</DistanceMeters>
          </Trackpoint>
          <Trackpoint>
            <Time>2022-09-19T11:37:09.000Z</Time>
            <Position>
              <LatitudeDegrees>49.3612049706280231475830078125</LatitudeDegrees>
              <LongitudeDegrees>20.0053560175001621246337890625</LongitudeDegrees>
            </Position>
            <AltitudeMeters>714.4000244140625</AltitudeMeters>
            <DistanceMeters>NAN</DistanceMeters>
          </Trackpoint>
          <Trackpoint>
            <Time>2022-09-19T11:37:12.000Z</Time>
            <Position>
              <LatitudeDegrees>49.36120891012251377105712890625</LatitudeDegrees>
              <LongitudeDegrees>20.005343444645404815673828125</LongitudeDegrees>
            </Position>
            <AltitudeMeters>714.5999755859375</AltitudeMeters>
            <DistanceMeters>NAN</DistanceMeters>
          </Trackpoint>
          <Trackpoint>
            <Time>2022-09-19T11:37:16.000Z</Time>
            <Position>
              <LatitudeDegrees>49.36123422347009181976318359375</LatitudeDegrees>
              <LongitudeDegrees>20.0053040497004985809326171875</LongitudeDegrees>
            </Position>
            <AltitudeMeters>714.4000244140625</AltitudeMeters>
            <DistanceMeters>NAN</DistanceMeters>
          </Trackpoint>
          <Trackpoint>
            <Time>2022-09-19T11:37:17.000Z</Time>
            <Position>
              <LatitudeDegrees>49.36124025844037532806396484375</LatitudeDegrees>
              <LongitudeDegrees>20.0052946619689464569091796875</LongitudeDegrees>
            </Position>
            <AltitudeMeters>714.20001220703125</AltitudeMeters>
            <DistanceMeters>NAN</DistanceMeters>
          </Trackpoint>
          <Trackpoint>
            <Time>2022-09-19T11:37:24.000Z</Time>
            <Position>
              <LatitudeDegrees>49.36130127869546413421630859375</LatitudeDegrees>
              <LongitudeDegrees>20.00520975328981876373291015625</LongitudeDegrees>
            </Position>
            <AltitudeMeters>714.20001220703125</AltitudeMeters>
            <DistanceMeters>NAN</DistanceMeters>
          </Trackpoint>
          <Trackpoint>
            <Time>2022-09-19T11:37:32.000Z</Time>
            <Position>
              <LatitudeDegrees>49.36135425232350826263427734375</LatitudeDegrees>
              <LongitudeDegrees>20.0051250122487545013427734375</LongitudeDegrees>
            </Position>
            <AltitudeMeters>714.20001220703125</AltitudeMeters>
            <DistanceMeters>NAN</DistanceMeters>
          </Trackpoint>
          <Trackpoint>
            <Time>2022-09-19T11:37:34.000Z</Time>
            <Position>
              <LatitudeDegrees>49.3613702617585659027099609375</LatitudeDegrees>
              <LongitudeDegrees>20.0051015429198741912841796875</LongitudeDegrees>
            </Position>
            <AltitudeMeters>714.4000244140625</AltitudeMeters>
            <DistanceMeters>NAN</DistanceMeters>
          </Trackpoint>
          <Trackpoint>
            <Time>2022-09-19T11:37:37.000Z</Time>
            <Position>
              <LatitudeDegrees>49.36138425953686237335205078125</LatitudeDegrees>
              <LongitudeDegrees>20.00506139360368251800537109375</LongitudeDegrees>
            </Position>
            <AltitudeMeters>714.4000244140625</AltitudeMeters>
            <DistanceMeters>NAN</DistanceMeters>
          </Trackpoint>
          <Trackpoint>
            <Time>2022-09-19T11:37:39.000Z</Time>
            <Position>
              <LatitudeDegrees>49.36139901168644428253173828125</LatitudeDegrees>
              <LongitudeDegrees>20.00502987764775753021240234375</LongitudeDegrees>
            </Position>
            <AltitudeMeters>714.4000244140625</AltitudeMeters>
            <DistanceMeters>NAN</DistanceMeters>
          </Trackpoint>
          <Trackpoint>
            <Time>2022-09-19T11:37:41.000Z</Time>
            <Position>
              <LatitudeDegrees>49.361412338912487030029296875</LatitudeDegrees>
              <LongitudeDegrees>20.00501160509884357452392578125</LongitudeDegrees>
            </Position>
            <AltitudeMeters>714.20001220703125</AltitudeMeters>
            <DistanceMeters>NAN</DistanceMeters>
          </Trackpoint>
          <Trackpoint>
            <Time>2022-09-19T11:37:42.000Z</Time>
            <Position>
              <LatitudeDegrees>49.361419714987277984619140625</LatitudeDegrees>
              <LongitudeDegrees>20.0050006248056888580322265625</LongitudeDegrees>
            </Position>
            <AltitudeMeters>714.20001220703125</AltitudeMeters>
            <DistanceMeters>NAN</DistanceMeters>
          </Trackpoint>
          <Trackpoint>
            <Time>2022-09-19T11:37:43.000Z</Time>
            <Position>
              <LatitudeDegrees>49.36142432503402233123779296875</LatitudeDegrees>
              <LongitudeDegrees>20.00499031506478786468505859375</LongitudeDegrees>
            </Position>
            <AltitudeMeters>714.20001220703125</AltitudeMeters>
            <DistanceMeters>NAN</DistanceMeters>
          </Trackpoint>
          <Trackpoint>
            <Time>2022-09-19T11:37:45.000Z</Time>
            <Position>
              <LatitudeDegrees>49.3614285998046398162841796875</LatitudeDegrees>
              <LongitudeDegrees>20.00497070141136646270751953125</LongitudeDegrees>
            </Position>
            <AltitudeMeters>714.20001220703125</AltitudeMeters>
            <DistanceMeters>NAN</DistanceMeters>
          </Trackpoint>
          <Trackpoint>
            <Time>2022-09-19T11:37:48.000Z</Time>
            <Position>
              <LatitudeDegrees>49.3614534102380275726318359375</LatitudeDegrees>
              <LongitudeDegrees>20.004951171576976776123046875</LongitudeDegrees>
            </Position>
            <AltitudeMeters>714</AltitudeMeters>
            <DistanceMeters>NAN</DistanceMeters>
          </Trackpoint>
          <Trackpoint>
            <Time>2022-09-19T11:37:53.000Z</Time>
            <Position>
              <LatitudeDegrees>49.3615199625492095947265625</LatitudeDegrees>
              <LongitudeDegrees>20.00494723208248615264892578125</LongitudeDegrees>
            </Position>
            <AltitudeMeters>713.4000244140625</AltitudeMeters>
            <DistanceMeters>NAN</DistanceMeters>
          </Trackpoint>
          <Trackpoint>
            <Time>2022-09-19T11:37:57.000Z</Time>
            <Position>
              <LatitudeDegrees>49.3615601956844329833984375</LatitudeDegrees>
              <LongitudeDegrees>20.00495863147079944610595703125</LongitudeDegrees>
            </Position>
            <AltitudeMeters>713.20001220703125</AltitudeMeters>
            <DistanceMeters>NAN</DistanceMeters>
          </Trackpoint>
          <Trackpoint>
            <Time>2022-09-19T11:38:03.000Z</Time>
            <Position>
              <LatitudeDegrees>49.36161627061665058135986328125</LatitudeDegrees>
              <LongitudeDegrees>20.0049345754086971282958984375</LongitudeDegrees>
            </Position>
            <AltitudeMeters>713</AltitudeMeters>
            <DistanceMeters>NAN</DistanceMeters>
          </Trackpoint>
          <Trackpoint>
            <Time>2022-09-19T11:38:04.000Z</Time>
            <Position>
              <LatitudeDegrees>49.3616193719208240509033203125</LatitudeDegrees>
              <LongitudeDegrees>20.004927702248096466064453125</LongitudeDegrees>
            </Position>
            <AltitudeMeters>712.79998779296875</AltitudeMeters>
            <DistanceMeters>NAN</DistanceMeters>
          </Trackpoint>
          <Trackpoint>
            <Time>2022-09-19T11:38:07.000Z</Time>
            <Position>
              <LatitudeDegrees>49.3616193719208240509033203125</LatitudeDegrees>
              <LongitudeDegrees>20.004927702248096466064453125</LongitudeDegrees>
            </Position>
            <AltitudeMeters>712.20001220703125</AltitudeMeters>
            <DistanceMeters>NAN</DistanceMeters>
          </Trackpoint>
          <Trackpoint>
            <Time>2022-09-19T11:38:11.000Z</Time>
            <Position>
              <LatitudeDegrees>49.3616193719208240509033203125</LatitudeDegrees>
              <LongitudeDegrees>20.004927702248096466064453125</LongitudeDegrees>
            </Position>
            <AltitudeMeters>712</AltitudeMeters>
            <DistanceMeters>NAN</DistanceMeters>
          </Trackpoint>
          <Trackpoint>
            <Time>2022-09-19T11:38:20.000Z</Time>
            <Position>
              <LatitudeDegrees>49.3616193719208240509033203125</LatitudeDegrees>
              <LongitudeDegrees>20.004927702248096466064453125</LongitudeDegrees>
            </Position>
            <AltitudeMeters>712.20001220703125</AltitudeMeters>
            <DistanceMeters>NAN</DistanceMeters>
          </Trackpoint>
          <Trackpoint>
            <Time>2022-09-19T11:38:26.000Z</Time>
            <Position>
              <LatitudeDegrees>49.36161719262599945068359375</LatitudeDegrees>
              <LongitudeDegrees>20.00493247993290424346923828125</LongitudeDegrees>
            </Position>
            <AltitudeMeters>712.4000244140625</AltitudeMeters>
            <DistanceMeters>NAN</DistanceMeters>
          </Trackpoint>
          <Trackpoint>
            <Time>2022-09-19T11:38:55.000Z</Time>
            <Position>
              <LatitudeDegrees>49.361613504588603973388671875</LatitudeDegrees>
              <LongitudeDegrees>20.00494454987347126007080078125</LongitudeDegrees>
            </Position>
            <AltitudeMeters>712</AltitudeMeters>
            <DistanceMeters>NAN</DistanceMeters>
          </Trackpoint>
          <Trackpoint>
            <Time>2022-09-19T11:39:03.000Z</Time>
            <Position>
              <LatitudeDegrees>49.361613504588603973388671875</LatitudeDegrees>
              <LongitudeDegrees>20.00494454987347126007080078125</LongitudeDegrees>
            </Position>
            <AltitudeMeters>712</AltitudeMeters>
            <DistanceMeters>NAN</DistanceMeters>
          </Trackpoint>
          <Trackpoint>
            <Time>2022-09-19T11:39:11.000Z</Time>
            <Position>
              <LatitudeDegrees>49.36161325313150882720947265625</LatitudeDegrees>
              <LongitudeDegrees>20.0049456395208835601806640625</LongitudeDegrees>
            </Position>
            <AltitudeMeters>712.20001220703125</AltitudeMeters>
            <DistanceMeters>NAN</DistanceMeters>
          </Trackpoint>
          <Trackpoint>
            <Time>2022-09-19T11:39:16.000Z</Time>
            <Position>
              <LatitudeDegrees>49.36161107383668422698974609375</LatitudeDegrees>
              <LongitudeDegrees>20.00495527870953083038330078125</LongitudeDegrees>
            </Position>
            <AltitudeMeters>712.20001220703125</AltitudeMeters>
            <DistanceMeters>NAN</DistanceMeters>
          </Trackpoint>
          <Trackpoint>
            <Time>2022-09-19T11:39:21.000Z</Time>
            <Position>
              <LatitudeDegrees>49.3616109900176525115966796875</LatitudeDegrees>
              <LongitudeDegrees>20.0049553625285625457763671875</LongitudeDegrees>
            </Position>
            <AltitudeMeters>712.20001220703125</AltitudeMeters>
            <DistanceMeters>NAN</DistanceMeters>
          </Trackpoint>
          <Trackpoint>
            <Time>2022-09-19T11:39:28.000Z</Time>
            <Position>
              <LatitudeDegrees>49.3616106547415256500244140625</LatitudeDegrees>
              <LongitudeDegrees>20.00495561398565769195556640625</LongitudeDegrees>
            </Position>
            <AltitudeMeters>712.20001220703125</AltitudeMeters>
            <DistanceMeters>NAN</DistanceMeters>
          </Trackpoint>
          <Trackpoint>
            <Time>2022-09-19T11:39:36.000Z</Time>
            <Position>
              <LatitudeDegrees>49.3616106547415256500244140625</LatitudeDegrees>
              <LongitudeDegrees>20.00495561398565769195556640625</LongitudeDegrees>
            </Position>
            <AltitudeMeters>712.20001220703125</AltitudeMeters>
            <DistanceMeters>NAN</DistanceMeters>
          </Trackpoint>
          <Trackpoint>
            <Time>2022-09-19T11:39:39.000Z</Time>
            <Position>
              <LatitudeDegrees>49.3616106547415256500244140625</LatitudeDegrees>
              <LongitudeDegrees>20.00495561398565769195556640625</LongitudeDegrees>
            </Position>
            <AltitudeMeters>712.20001220703125</AltitudeMeters>
            <DistanceMeters>NAN</DistanceMeters>
          </Trackpoint>
          <Trackpoint>
            <Time>2022-09-19T11:39:40.000Z</Time>
            <Position>
              <LatitudeDegrees>49.3616106547415256500244140625</LatitudeDegrees>
              <LongitudeDegrees>20.00495561398565769195556640625</LongitudeDegrees>
            </Position>
            <AltitudeMeters>712.20001220703125</AltitudeMeters>
            <DistanceMeters>NAN</DistanceMeters>
          </Trackpoint>
          <Trackpoint>
            <Time>2022-09-19T11:39:41.000Z</Time>
            <Position>
              <LatitudeDegrees>49.3616106547415256500244140625</LatitudeDegrees>
              <LongitudeDegrees>20.00495561398565769195556640625</LongitudeDegrees>
            </Position>
            <AltitudeMeters>712.20001220703125</AltitudeMeters>
            <DistanceMeters>NAN</DistanceMeters>
          </Trackpoint>
          <Trackpoint>
            <Time>2022-09-19T11:39:43.000Z</Time>
            <Position>
              <LatitudeDegrees>49.3616106547415256500244140625</LatitudeDegrees>
              <LongitudeDegrees>20.00495561398565769195556640625</LongitudeDegrees>
            </Position>
            <AltitudeMeters>712.20001220703125</AltitudeMeters>
            <DistanceMeters>NAN</DistanceMeters>
          </Trackpoint>
          <Trackpoint>
            <Time>2022-09-19T11:39:51.000Z</Time>
            <Position>
              <LatitudeDegrees>49.3616106547415256500244140625</LatitudeDegrees>
              <LongitudeDegrees>20.00495561398565769195556640625</LongitudeDegrees>
            </Position>
            <AltitudeMeters>712.20001220703125</AltitudeMeters>
            <DistanceMeters>NAN</DistanceMeters>
          </Trackpoint>
          <Trackpoint>
            <Time>2022-09-19T11:39:52.000Z</Time>
            <Position>
              <LatitudeDegrees>49.3616106547415256500244140625</LatitudeDegrees>
              <LongitudeDegrees>20.00495561398565769195556640625</LongitudeDegrees>
            </Position>
            <AltitudeMeters>712.20001220703125</AltitudeMeters>
            <DistanceMeters>NAN</DistanceMeters>
          </Trackpoint>
          <Trackpoint>
            <Time>2022-09-19T11:39:54.000Z</Time>
            <Position>
              <LatitudeDegrees>49.3616106547415256500244140625</LatitudeDegrees>
              <LongitudeDegrees>20.00495561398565769195556640625</LongitudeDegrees>
            </Position>
            <AltitudeMeters>712.20001220703125</AltitudeMeters>
            <DistanceMeters>NAN</DistanceMeters>
          </Trackpoint>
          <Trackpoint>
            <Time>2022-09-19T11:40:02.000Z</Time>
            <Position>
              <LatitudeDegrees>49.3616106547415256500244140625</LatitudeDegrees>
              <LongitudeDegrees>20.00495561398565769195556640625</LongitudeDegrees>
            </Position>
            <AltitudeMeters>712.20001220703125</AltitudeMeters>
            <DistanceMeters>NAN</DistanceMeters>
          </Trackpoint>
          <Trackpoint>
            <Time>2022-09-19T11:40:10.000Z</Time>
            <Position>
              <LatitudeDegrees>49.3616106547415256500244140625</LatitudeDegrees>
              <LongitudeDegrees>20.00495561398565769195556640625</LongitudeDegrees>
            </Position>
            <AltitudeMeters>712.20001220703125</AltitudeMeters>
            <DistanceMeters>NAN</DistanceMeters>
          </Trackpoint>
          <Trackpoint>
            <Time>2022-09-19T11:40:33.000Z</Time>
            <Position>
              <LatitudeDegrees>49.3616106547415256500244140625</LatitudeDegrees>
              <LongitudeDegrees>20.00495561398565769195556640625</LongitudeDegrees>
            </Position>
            <AltitudeMeters>712.20001220703125</AltitudeMeters>
            <DistanceMeters>NAN</DistanceMeters>
          </Trackpoint>
          <Trackpoint>
            <Time>2022-09-19T11:40:54.000Z</Time>
            <Position>
              <LatitudeDegrees>49.36161442659795284271240234375</LatitudeDegrees>
              <LongitudeDegrees>20.0049556978046894073486328125</LongitudeDegrees>
            </Position>
            <AltitudeMeters>712.20001220703125</AltitudeMeters>
            <DistanceMeters>NAN</DistanceMeters>
          </Trackpoint>
          <Trackpoint>
            <Time>2022-09-19T11:40:56.000Z</Time>
            <Position>
              <LatitudeDegrees>49.3616146780550479888916015625</LatitudeDegrees>
              <LongitudeDegrees>20.00495628453791141510009765625</LongitudeDegrees>
            </Position>
            <AltitudeMeters>712.20001220703125</AltitudeMeters>
            <DistanceMeters>NAN</DistanceMeters>
          </Trackpoint>
          <Trackpoint>
            <Time>2022-09-19T11:40:59.000Z</Time>
            <Position>
              <LatitudeDegrees>49.3616146780550479888916015625</LatitudeDegrees>
              <LongitudeDegrees>20.00495628453791141510009765625</LongitudeDegrees>
            </Position>
            <AltitudeMeters>712.20001220703125</AltitudeMeters>
            <DistanceMeters>NAN</DistanceMeters>
          </Trackpoint>
          <Trackpoint>
            <Time>2022-09-19T11:41:29.000Z</Time>
            <Position>
              <LatitudeDegrees>49.3616146780550479888916015625</LatitudeDegrees>
              <LongitudeDegrees>20.00495628453791141510009765625</LongitudeDegrees>
            </Position>
            <AltitudeMeters>712.20001220703125</AltitudeMeters>
            <DistanceMeters>NAN</DistanceMeters>
          </Trackpoint>
          <Trackpoint>
            <Time>2022-09-19T11:41:34.000Z</Time>
            <Position>
              <LatitudeDegrees>49.36161945573985576629638671875</LatitudeDegrees>
              <LongitudeDegrees>20.00495494343340396881103515625</LongitudeDegrees>
            </Position>
            <AltitudeMeters>712.20001220703125</AltitudeMeters>
            <DistanceMeters>NAN</DistanceMeters>
          </Trackpoint>
          <Trackpoint>
            <Time>2022-09-19T11:41:36.000Z</Time>
            <Position>
              <LatitudeDegrees>49.361660778522491455078125</LatitudeDegrees>
              <LongitudeDegrees>20.0049461424350738525390625</LongitudeDegrees>
            </Position>
            <AltitudeMeters>712.20001220703125</AltitudeMeters>
            <DistanceMeters>NAN</DistanceMeters>
          </Trackpoint>
          <Trackpoint>
            <Time>2022-09-19T11:41:37.000Z</Time>
            <Position>
              <LatitudeDegrees>49.36168332584202289581298828125</LatitudeDegrees>
              <LongitudeDegrees>20.0049483217298984527587890625</LongitudeDegrees>
            </Position>
            <AltitudeMeters>712.20001220703125</AltitudeMeters>
            <DistanceMeters>NAN</DistanceMeters>
          </Trackpoint>
          <Trackpoint>
            <Time>2022-09-19T11:41:43.000Z</Time>
            <Position>
              <LatitudeDegrees>49.36186068691313266754150390625</LatitudeDegrees>
              <LongitudeDegrees>20.00493340194225311279296875</LongitudeDegrees>
            </Position>
            <AltitudeMeters>712.20001220703125</AltitudeMeters>
            <DistanceMeters>NAN</DistanceMeters>
          </Trackpoint>
          <Trackpoint>
            <Time>2022-09-19T11:41:50.000Z</Time>
            <Position>
              <LatitudeDegrees>49.36204609461128711700439453125</LatitudeDegrees>
              <LongitudeDegrees>20.00492275692522525787353515625</LongitudeDegrees>
            </Position>
            <AltitudeMeters>711.79998779296875</AltitudeMeters>
            <DistanceMeters>NAN</DistanceMeters>
          </Trackpoint>
          <Trackpoint>
            <Time>2022-09-19T11:41:57.000Z</Time>
            <Position>
              <LatitudeDegrees>49.3622307479381561279296875</LatitudeDegrees>
              <LongitudeDegrees>20.00492426566779613494873046875</LongitudeDegrees>
            </Position>
            <AltitudeMeters>711.79998779296875</AltitudeMeters>
            <DistanceMeters>NAN</DistanceMeters>
          </Trackpoint>
          <Trackpoint>
            <Time>2022-09-19T11:41:58.000Z</Time>
            <Position>
              <LatitudeDegrees>49.3622580729424953460693359375</LatitudeDegrees>
              <LongitudeDegrees>20.00493432395160198211669921875</LongitudeDegrees>
            </Position>
            <AltitudeMeters>711.79998779296875</AltitudeMeters>
            <DistanceMeters>NAN</DistanceMeters>
          </Trackpoint>
          <Trackpoint>
            <Time>2022-09-19T11:42:02.000Z</Time>
            <Position>
              <LatitudeDegrees>49.36240886338055133819580078125</LatitudeDegrees>
              <LongitudeDegrees>20.00499919988214969635009765625</LongitudeDegrees>
            </Position>
            <AltitudeMeters>712</AltitudeMeters>
            <DistanceMeters>NAN</DistanceMeters>
          </Trackpoint>
          <Trackpoint>
            <Time>2022-09-19T11:42:06.000Z</Time>
            <Position>
              <LatitudeDegrees>49.36253475956618785858154296875</LatitudeDegrees>
              <LongitudeDegrees>20.0050730444490909576416015625</LongitudeDegrees>
            </Position>
            <AltitudeMeters>712.20001220703125</AltitudeMeters>
            <DistanceMeters>NAN</DistanceMeters>
          </Trackpoint>
          <Trackpoint>
            <Time>2022-09-19T11:42:15.000Z</Time>
            <Position>
              <LatitudeDegrees>49.36279661022126674652099609375</LatitudeDegrees>
              <LongitudeDegrees>20.0052009522914886474609375</LongitudeDegrees>
            </Position>
            <AltitudeMeters>712.20001220703125</AltitudeMeters>
            <DistanceMeters>NAN</DistanceMeters>
          </Trackpoint>
          <Trackpoint>
            <Time>2022-09-19T11:42:20.000Z</Time>
            <Position>
              <LatitudeDegrees>49.3629748933017253875732421875</LatitudeDegrees>
              <LongitudeDegrees>20.00524043105542659759521484375</LongitudeDegrees>
            </Position>
            <AltitudeMeters>712</AltitudeMeters>
            <DistanceMeters>NAN</DistanceMeters>
          </Trackpoint>
          <Trackpoint>
            <Time>2022-09-19T11:42:28.000Z</Time>
            <Position>
              <LatitudeDegrees>49.36324671842157840728759765625</LatitudeDegrees>
              <LongitudeDegrees>20.00529742799699306488037109375</LongitudeDegrees>
            </Position>
            <AltitudeMeters>711.79998779296875</AltitudeMeters>
            <DistanceMeters>NAN</DistanceMeters>
          </Trackpoint>
          <Trackpoint>
            <Time>2022-09-19T11:42:36.000Z</Time>
            <Position>
              <LatitudeDegrees>49.3634848482906818389892578125</LatitudeDegrees>
              <LongitudeDegrees>20.00534721650183200836181640625</LongitudeDegrees>
            </Position>
            <AltitudeMeters>711.5999755859375</AltitudeMeters>
            <DistanceMeters>NAN</DistanceMeters>
          </Trackpoint>
          <Trackpoint>
            <Time>2022-09-19T11:42:42.000Z</Time>
            <Position>
              <LatitudeDegrees>49.36365156434476375579833984375</LatitudeDegrees>
              <LongitudeDegrees>20.00540488399565219879150390625</LongitudeDegrees>
            </Position>
            <AltitudeMeters>711.4000244140625</AltitudeMeters>
            <DistanceMeters>NAN</DistanceMeters>
          </Trackpoint>
          <Trackpoint>
            <Time>2022-09-19T11:42:43.000Z</Time>
            <Position>
              <LatitudeDegrees>49.363685511052608489990234375</LatitudeDegrees>
              <LongitudeDegrees>20.00542248599231243133544921875</LongitudeDegrees>
            </Position>
            <AltitudeMeters>711.4000244140625</AltitudeMeters>
            <DistanceMeters>NAN</DistanceMeters>
          </Trackpoint>
          <Trackpoint>
            <Time>2022-09-19T11:42:48.000Z</Time>
            <Position>
              <LatitudeDegrees>49.36383378691971302032470703125</LatitudeDegrees>
              <LongitudeDegrees>20.0054914690554141998291015625</LongitudeDegrees>
            </Position>
            <AltitudeMeters>711.20001220703125</AltitudeMeters>
            <DistanceMeters>NAN</DistanceMeters>
          </Trackpoint>
          <Trackpoint>
            <Time>2022-09-19T11:42:52.000Z</Time>
            <Position>
              <LatitudeDegrees>49.363960437476634979248046875</LatitudeDegrees>
              <LongitudeDegrees>20.00557051040232181549072265625</LongitudeDegrees>
            </Position>
            <AltitudeMeters>711.20001220703125</AltitudeMeters>
            <DistanceMeters>NAN</DistanceMeters>
          </Trackpoint>
          <Trackpoint>
            <Time>2022-09-19T11:42:59.000Z</Time>
            <Position>
              <LatitudeDegrees>49.364165961742401123046875</LatitudeDegrees>
              <LongitudeDegrees>20.00571727752685546875</LongitudeDegrees>
            </Position>
            <AltitudeMeters>711</AltitudeMeters>
            <DistanceMeters>NAN</DistanceMeters>
          </Trackpoint>
          <Trackpoint>
            <Time>2022-09-19T11:43:07.000Z</Time>
            <Position>
              <LatitudeDegrees>49.364393614232540130615234375</LatitudeDegrees>
              <LongitudeDegrees>20.00591777265071868896484375</LongitudeDegrees>
            </Position>
            <AltitudeMeters>710.79998779296875</AltitudeMeters>
            <DistanceMeters>NAN</DistanceMeters>
          </Trackpoint>
          <Trackpoint>
            <Time>2022-09-19T11:43:14.000Z</Time>
            <Position>
              <LatitudeDegrees>49.3645983003079891204833984375</LatitudeDegrees>
              <LongitudeDegrees>20.0060768611729145050048828125</LongitudeDegrees>
            </Position>
            <AltitudeMeters>710.79998779296875</AltitudeMeters>
            <DistanceMeters>NAN</DistanceMeters>
          </Trackpoint>
          <Trackpoint>
            <Time>2022-09-19T11:43:15.000Z</Time>
            <Position>
              <LatitudeDegrees>49.36462470330297946929931640625</LatitudeDegrees>
              <LongitudeDegrees>20.006094463169574737548828125</LongitudeDegrees>
            </Position>
            <AltitudeMeters>710.79998779296875</AltitudeMeters>
            <DistanceMeters>NAN</DistanceMeters>
          </Trackpoint>
          <Trackpoint>
            <Time>2022-09-19T11:43:21.000Z</Time>
            <Position>
              <LatitudeDegrees>49.36478714458644390106201171875</LatitudeDegrees>
              <LongitudeDegrees>20.006264783442020416259765625</LongitudeDegrees>
            </Position>
            <AltitudeMeters>710.5999755859375</AltitudeMeters>
            <DistanceMeters>NAN</DistanceMeters>
          </Trackpoint>
          <Trackpoint>
            <Time>2022-09-19T11:43:31.000Z</Time>
            <Position>
              <LatitudeDegrees>49.3650792539119720458984375</LatitudeDegrees>
              <LongitudeDegrees>20.00649168156087398529052734375</LongitudeDegrees>
            </Position>
            <AltitudeMeters>710.5999755859375</AltitudeMeters>
            <DistanceMeters>NAN</DistanceMeters>
          </Trackpoint>
          <Trackpoint>
            <Time>2022-09-19T11:43:37.000Z</Time>
            <Position>
              <LatitudeDegrees>49.3652896396815776824951171875</LatitudeDegrees>
              <LongitudeDegrees>20.00656812451779842376708984375</LongitudeDegrees>
            </Position>
            <AltitudeMeters>710.5999755859375</AltitudeMeters>
            <DistanceMeters>NAN</DistanceMeters>
          </Trackpoint>
          <Trackpoint>
            <Time>2022-09-19T11:43:42.000Z</Time>
            <Position>
              <LatitudeDegrees>49.36545350588858127593994140625</LatitudeDegrees>
              <LongitudeDegrees>20.006630234420299530029296875</LongitudeDegrees>
            </Position>
            <AltitudeMeters>710.20001220703125</AltitudeMeters>
            <DistanceMeters>NAN</DistanceMeters>
          </Trackpoint>
          <Trackpoint>
            <Time>2022-09-19T11:43:44.000Z</Time>
            <Position>
              <LatitudeDegrees>49.36550580896437168121337890625</LatitudeDegrees>
              <LongitudeDegrees>20.0066600739955902099609375</LongitudeDegrees>
            </Position>
            <AltitudeMeters>710</AltitudeMeters>
            <DistanceMeters>NAN</DistanceMeters>
          </Trackpoint>
          <Trackpoint>
            <Time>2022-09-19T11:43:50.000Z</Time>
            <Position>
              <LatitudeDegrees>49.36569037847220897674560546875</LatitudeDegrees>
              <LongitudeDegrees>20.0068262033164501190185546875</LongitudeDegrees>
            </Position>
            <AltitudeMeters>709.79998779296875</AltitudeMeters>
            <DistanceMeters>NAN</DistanceMeters>
          </Trackpoint>
          <Trackpoint>
            <Time>2022-09-19T11:43:51.000Z</Time>
            <Position>
              <LatitudeDegrees>49.3657278455793857574462890625</LatitudeDegrees>
              <LongitudeDegrees>20.0068624131381511688232421875</LongitudeDegrees>
            </Position>
            <AltitudeMeters>709.79998779296875</AltitudeMeters>
            <DistanceMeters>NAN</DistanceMeters>
          </Trackpoint>
          <Trackpoint>
            <Time>2022-09-19T11:43:55.000Z</Time>
            <Position>
              <LatitudeDegrees>49.36587360687553882598876953125</LatitudeDegrees>
              <LongitudeDegrees>20.00703030265867710113525390625</LongitudeDegrees>
            </Position>
            <AltitudeMeters>709.5999755859375</AltitudeMeters>
            <DistanceMeters>NAN</DistanceMeters>
          </Trackpoint>
          <Trackpoint>
            <Time>2022-09-19T11:43:56.000Z</Time>
            <Position>
              <LatitudeDegrees>49.36591275036334991455078125</LatitudeDegrees>
              <LongitudeDegrees>20.00706701539456844329833984375</LongitudeDegrees>
            </Position>
            <AltitudeMeters>709.5999755859375</AltitudeMeters>
            <DistanceMeters>NAN</DistanceMeters>
          </Trackpoint>
          <Trackpoint>
            <Time>2022-09-19T11:43:57.000Z</Time>
            <Position>
              <LatitudeDegrees>49.36595256440341472625732421875</LatitudeDegrees>
              <LongitudeDegrees>20.0071080029010772705078125</LongitudeDegrees>
            </Position>
            <AltitudeMeters>709.5999755859375</AltitudeMeters>
            <DistanceMeters>NAN</DistanceMeters>
          </Trackpoint>
          <Trackpoint>
            <Time>2022-09-19T11:44:00.000Z</Time>
            <Position>
              <LatitudeDegrees>49.36606840230524539947509765625</LatitudeDegrees>
              <LongitudeDegrees>20.00721017830073833465576171875</LongitudeDegrees>
            </Position>
            <AltitudeMeters>709.4000244140625</AltitudeMeters>
            <DistanceMeters>NAN</DistanceMeters>
          </Trackpoint>
          <Trackpoint>
            <Time>2022-09-19T11:44:02.000Z</Time>
            <Position>
              <LatitudeDegrees>49.3661523051559925079345703125</LatitudeDegrees>
              <LongitudeDegrees>20.00724948942661285400390625</LongitudeDegrees>
            </Position>
            <AltitudeMeters>709.20001220703125</AltitudeMeters>
            <DistanceMeters>NAN</DistanceMeters>
          </Trackpoint>
          <Trackpoint>
            <Time>2022-09-19T11:44:04.000Z</Time>
            <Position>
              <LatitudeDegrees>49.36622782610356807708740234375</LatitudeDegrees>
              <LongitudeDegrees>20.00728058628737926483154296875</LongitudeDegrees>
            </Position>
            <AltitudeMeters>709.20001220703125</AltitudeMeters>
            <DistanceMeters>NAN</DistanceMeters>
          </Trackpoint>
          <Trackpoint>
            <Time>2022-09-19T11:44:05.000Z</Time>
            <Position>
              <LatitudeDegrees>49.36626680195331573486328125</LatitudeDegrees>
              <LongitudeDegrees>20.0072962604463100433349609375</LongitudeDegrees>
            </Position>
            <AltitudeMeters>709.20001220703125</AltitudeMeters>
            <DistanceMeters>NAN</DistanceMeters>
          </Trackpoint>
          <Trackpoint>
            <Time>2022-09-19T11:44:08.000Z</Time>
            <Position>
              <LatitudeDegrees>49.36639060266315937042236328125</LatitudeDegrees>
              <LongitudeDegrees>20.0073257647454738616943359375</LongitudeDegrees>
            </Position>
            <AltitudeMeters>709.20001220703125</AltitudeMeters>
            <DistanceMeters>NAN</DistanceMeters>
          </Trackpoint>
          <Trackpoint>
            <Time>2022-09-19T11:44:09.000Z</Time>
            <Position>
              <LatitudeDegrees>49.366440810263156890869140625</LatitudeDegrees>
              <LongitudeDegrees>20.00734361819922924041748046875</LongitudeDegrees>
            </Position>
            <AltitudeMeters>709.20001220703125</AltitudeMeters>
            <DistanceMeters>NAN</DistanceMeters>
          </Trackpoint>
          <Trackpoint>
            <Time>2022-09-19T11:44:12.000Z</Time>
            <Position>
              <LatitudeDegrees>49.3665506131947040557861328125</LatitudeDegrees>
              <LongitudeDegrees>20.007389299571514129638671875</LongitudeDegrees>
            </Position>
            <AltitudeMeters>709.20001220703125</AltitudeMeters>
            <DistanceMeters>NAN</DistanceMeters>
          </Trackpoint>
          <Trackpoint>
            <Time>2022-09-19T11:44:13.000Z</Time>
            <Position>
              <LatitudeDegrees>49.36659260652959346771240234375</LatitudeDegrees>
              <LongitudeDegrees>20.0074109248816967010498046875</LongitudeDegrees>
            </Position>
            <AltitudeMeters>709</AltitudeMeters>
            <DistanceMeters>NAN</DistanceMeters>
          </Trackpoint>
          <Trackpoint>
            <Time>2022-09-19T11:44:21.000Z</Time>
            <Position>
              <LatitudeDegrees>49.36688379384577274322509765625</LatitudeDegrees>
              <LongitudeDegrees>20.00762994401156902313232421875</LongitudeDegrees>
            </Position>
            <AltitudeMeters>708.79998779296875</AltitudeMeters>
            <DistanceMeters>NAN</DistanceMeters>
          </Trackpoint>
          <Trackpoint>
            <Time>2022-09-19T11:44:29.000Z</Time>
            <Position>
              <LatitudeDegrees>49.3671816028654575347900390625</LatitudeDegrees>
              <LongitudeDegrees>20.00780328176915645599365234375</LongitudeDegrees>
            </Position>
            <AltitudeMeters>708.5999755859375</AltitudeMeters>
            <DistanceMeters>NAN</DistanceMeters>
          </Trackpoint>
          <Trackpoint>
            <Time>2022-09-19T11:44:32.000Z</Time>
            <Position>
              <LatitudeDegrees>49.36730104498565196990966796875</LatitudeDegrees>
              <LongitudeDegrees>20.00785977579653263092041015625</LongitudeDegrees>
            </Position>
            <AltitudeMeters>708.4000244140625</AltitudeMeters>
            <DistanceMeters>NAN</DistanceMeters>
          </Trackpoint>
          <Trackpoint>
            <Time>2022-09-19T11:44:35.000Z</Time>
            <Position>
              <LatitudeDegrees>49.367433227598667144775390625</LatitudeDegrees>
              <LongitudeDegrees>20.00791911967098712921142578125</LongitudeDegrees>
            </Position>
            <AltitudeMeters>708.20001220703125</AltitudeMeters>
            <DistanceMeters>NAN</DistanceMeters>
          </Trackpoint>
          <Trackpoint>
            <Time>2022-09-19T11:44:41.000Z</Time>
            <Position>
              <LatitudeDegrees>49.367688708007335662841796875</LatitudeDegrees>
              <LongitudeDegrees>20.00807887874543666839599609375</LongitudeDegrees>
            </Position>
            <AltitudeMeters>707.4000244140625</AltitudeMeters>
            <DistanceMeters>NAN</DistanceMeters>
          </Trackpoint>
          <Trackpoint>
            <Time>2022-09-19T11:44:42.000Z</Time>
            <Position>
              <LatitudeDegrees>49.36772726476192474365234375</LatitudeDegrees>
              <LongitudeDegrees>20.00812766142189502716064453125</LongitudeDegrees>
            </Position>
            <AltitudeMeters>707.4000244140625</AltitudeMeters>
            <DistanceMeters>NAN</DistanceMeters>
          </Trackpoint>
          <Trackpoint>
            <Time>2022-09-19T11:44:44.000Z</Time>
            <Position>
              <LatitudeDegrees>49.3678025342524051666259765625</LatitudeDegrees>
              <LongitudeDegrees>20.0082323513925075531005859375</LongitudeDegrees>
            </Position>
            <AltitudeMeters>707</AltitudeMeters>
            <DistanceMeters>NAN</DistanceMeters>
          </Trackpoint>
          <Trackpoint>
            <Time>2022-09-19T11:44:50.000Z</Time>
            <Position>
              <LatitudeDegrees>49.36801032163202762603759765625</LatitudeDegrees>
              <LongitudeDegrees>20.00856167636811733245849609375</LongitudeDegrees>
            </Position>
            <AltitudeMeters>706.4000244140625</AltitudeMeters>
            <DistanceMeters>NAN</DistanceMeters>
          </Trackpoint>
          <Trackpoint>
            <Time>2022-09-19T11:44:56.000Z</Time>
            <Position>
              <LatitudeDegrees>49.36818600632250308990478515625</LatitudeDegrees>
              <LongitudeDegrees>20.00890499912202358245849609375</LongitudeDegrees>
            </Position>
            <AltitudeMeters>706.4000244140625</AltitudeMeters>
            <DistanceMeters>NAN</DistanceMeters>
          </Trackpoint>
          <Trackpoint>
            <Time>2022-09-19T11:44:58.000Z</Time>
            <Position>
              <LatitudeDegrees>49.36822607181966304779052734375</LatitudeDegrees>
              <LongitudeDegrees>20.00902972184121608734130859375</LongitudeDegrees>
            </Position>
            <AltitudeMeters>706.20001220703125</AltitudeMeters>
            <DistanceMeters>NAN</DistanceMeters>
          </Trackpoint>
          <Trackpoint>
            <Time>2022-09-19T11:44:59.000Z</Time>
            <Position>
              <LatitudeDegrees>49.3682523071765899658203125</LatitudeDegrees>
              <LongitudeDegrees>20.009078085422515869140625</LongitudeDegrees>
            </Position>
            <AltitudeMeters>706.20001220703125</AltitudeMeters>
            <DistanceMeters>NAN</DistanceMeters>
          </Trackpoint>
          <Trackpoint>
            <Time>2022-09-19T11:45:02.000Z</Time>
            <Position>
              <LatitudeDegrees>49.36833235435187816619873046875</LatitudeDegrees>
              <LongitudeDegrees>20.009197108447551727294921875</LongitudeDegrees>
            </Position>
            <AltitudeMeters>706.4000244140625</AltitudeMeters>
            <DistanceMeters>NAN</DistanceMeters>
          </Trackpoint>
          <Trackpoint>
            <Time>2022-09-19T11:45:07.000Z</Time>
            <Position>
              <LatitudeDegrees>49.36849772930145263671875</LatitudeDegrees>
              <LongitudeDegrees>20.0093474797904491424560546875</LongitudeDegrees>
            </Position>
            <AltitudeMeters>706.79998779296875</AltitudeMeters>
            <DistanceMeters>NAN</DistanceMeters>
          </Trackpoint>
          <Trackpoint>
            <Time>2022-09-19T11:45:09.000Z</Time>
            <Position>
              <LatitudeDegrees>49.36857752501964569091796875</LatitudeDegrees>
              <LongitudeDegrees>20.0094254314899444580078125</LongitudeDegrees>
            </Position>
            <AltitudeMeters>706.79998779296875</AltitudeMeters>
            <DistanceMeters>NAN</DistanceMeters>
          </Trackpoint>
          <Trackpoint>
            <Time>2022-09-19T11:45:17.000Z</Time>
            <Position>
              <LatitudeDegrees>49.3688579834997653961181640625</LatitudeDegrees>
              <LongitudeDegrees>20.009713433682918548583984375</LongitudeDegrees>
            </Position>
            <AltitudeMeters>706.4000244140625</AltitudeMeters>
            <DistanceMeters>NAN</DistanceMeters>
          </Trackpoint>
          <Trackpoint>
            <Time>2022-09-19T11:45:22.000Z</Time>
            <Position>
              <LatitudeDegrees>49.368972145020961761474609375</LatitudeDegrees>
              <LongitudeDegrees>20.0099037028849124908447265625</LongitudeDegrees>
            </Position>
            <AltitudeMeters>706.4000244140625</AltitudeMeters>
            <DistanceMeters>NAN</DistanceMeters>
          </Trackpoint>
          <Trackpoint>
            <Time>2022-09-19T11:45:26.000Z</Time>
            <Position>
              <LatitudeDegrees>49.36908706091344356536865234375</LatitudeDegrees>
              <LongitudeDegrees>20.010121129453182220458984375</LongitudeDegrees>
            </Position>
            <AltitudeMeters>706.79998779296875</AltitudeMeters>
            <DistanceMeters>NAN</DistanceMeters>
          </Trackpoint>
          <Trackpoint>
            <Time>2022-09-19T11:45:27.000Z</Time>
            <Position>
              <LatitudeDegrees>49.36911187134683132171630859375</LatitudeDegrees>
              <LongitudeDegrees>20.01016345806419849395751953125</LongitudeDegrees>
            </Position>
            <AltitudeMeters>707</AltitudeMeters>
            <DistanceMeters>NAN</DistanceMeters>
          </Trackpoint>
          <Trackpoint>
            <Time>2022-09-19T11:45:28.000Z</Time>
            <Position>
              <LatitudeDegrees>49.36914774589240550994873046875</LatitudeDegrees>
              <LongitudeDegrees>20.010221041738986968994140625</LongitudeDegrees>
            </Position>
            <AltitudeMeters>707</AltitudeMeters>
            <DistanceMeters>NAN</DistanceMeters>
          </Trackpoint>
          <Trackpoint>
            <Time>2022-09-19T11:45:32.000Z</Time>
            <Position>
              <LatitudeDegrees>49.3692447245121002197265625</LatitudeDegrees>
              <LongitudeDegrees>20.0103378854691982269287109375</LongitudeDegrees>
            </Position>
            <AltitudeMeters>708</AltitudeMeters>
            <DistanceMeters>NAN</DistanceMeters>
          </Trackpoint>
          <Trackpoint>
            <Time>2022-09-19T11:45:33.000Z</Time>
            <Position>
              <LatitudeDegrees>49.3692634999752044677734375</LatitudeDegrees>
              <LongitudeDegrees>20.01035724766552448272705078125</LongitudeDegrees>
            </Position>
            <AltitudeMeters>708.20001220703125</AltitudeMeters>
            <DistanceMeters>NAN</DistanceMeters>
          </Trackpoint>
          <Trackpoint>
            <Time>2022-09-19T11:45:35.000Z</Time>
            <Position>
              <LatitudeDegrees>49.36930733732879161834716796875</LatitudeDegrees>
              <LongitudeDegrees>20.01039966009557247161865234375</LongitudeDegrees>
            </Position>
            <AltitudeMeters>708.79998779296875</AltitudeMeters>
            <DistanceMeters>NAN</DistanceMeters>
          </Trackpoint>
          <Trackpoint>
            <Time>2022-09-19T11:45:36.000Z</Time>
            <Position>
              <LatitudeDegrees>49.3693310581147670745849609375</LatitudeDegrees>
              <LongitudeDegrees>20.010412149131298065185546875</LongitudeDegrees>
            </Position>
            <AltitudeMeters>709.4000244140625</AltitudeMeters>
            <DistanceMeters>NAN</DistanceMeters>
          </Trackpoint>
          <Trackpoint>
            <Time>2022-09-19T11:45:38.000Z</Time>
            <Position>
              <LatitudeDegrees>49.369374811649322509765625</LatitudeDegrees>
              <LongitudeDegrees>20.01045229844748973846435546875</LongitudeDegrees>
            </Position>
            <AltitudeMeters>710.20001220703125</AltitudeMeters>
            <DistanceMeters>NAN</DistanceMeters>
          </Trackpoint>
          <Trackpoint>
            <Time>2022-09-19T11:45:42.000Z</Time>
            <Position>
              <LatitudeDegrees>49.36944798566401004791259765625</LatitudeDegrees>
              <LongitudeDegrees>20.01052371226251125335693359375</LongitudeDegrees>
            </Position>
            <AltitudeMeters>710.79998779296875</AltitudeMeters>
            <DistanceMeters>NAN</DistanceMeters>
          </Trackpoint>
          <Trackpoint>
            <Time>2022-09-19T11:45:44.000Z</Time>
            <Position>
              <LatitudeDegrees>49.36947883106768131256103515625</LatitudeDegrees>
              <LongitudeDegrees>20.010552965104579925537109375</LongitudeDegrees>
            </Position>
            <AltitudeMeters>711.20001220703125</AltitudeMeters>
            <DistanceMeters>NAN</DistanceMeters>
          </Trackpoint>
          <Trackpoint>
            <Time>2022-09-19T11:45:46.000Z</Time>
            <Position>
              <LatitudeDegrees>49.36951269395649433135986328125</LatitudeDegrees>
              <LongitudeDegrees>20.01057450659573078155517578125</LongitudeDegrees>
            </Position>
            <AltitudeMeters>712.20001220703125</AltitudeMeters>
            <DistanceMeters>NAN</DistanceMeters>
          </Trackpoint>
          <Trackpoint>
            <Time>2022-09-19T11:45:49.000Z</Time>
            <Position>
              <LatitudeDegrees>49.36957069672644138336181640625</LatitudeDegrees>
              <LongitudeDegrees>20.010611973702907562255859375</LongitudeDegrees>
            </Position>
            <AltitudeMeters>713.20001220703125</AltitudeMeters>
            <DistanceMeters>NAN</DistanceMeters>
          </Trackpoint>
          <Trackpoint>
            <Time>2022-09-19T11:45:50.000Z</Time>
            <Position>
              <LatitudeDegrees>49.36958595179021358489990234375</LatitudeDegrees>
              <LongitudeDegrees>20.01062043942511081695556640625</LongitudeDegrees>
            </Position>
            <AltitudeMeters>713.4000244140625</AltitudeMeters>
            <DistanceMeters>NAN</DistanceMeters>
          </Trackpoint>
          <Trackpoint>
            <Time>2022-09-19T11:45:51.000Z</Time>
            <Position>
              <LatitudeDegrees>49.3696063198149204254150390625</LatitudeDegrees>
              <LongitudeDegrees>20.01062781549990177154541015625</LongitudeDegrees>
            </Position>
            <AltitudeMeters>713.4000244140625</AltitudeMeters>
            <DistanceMeters>NAN</DistanceMeters>
          </Trackpoint>
          <Trackpoint>
            <Time>2022-09-19T11:45:57.000Z</Time>
            <Position>
              <LatitudeDegrees>49.3697169609367847442626953125</LatitudeDegrees>
              <LongitudeDegrees>20.010776259005069732666015625</LongitudeDegrees>
            </Position>
            <AltitudeMeters>713.4000244140625</AltitudeMeters>
            <DistanceMeters>NAN</DistanceMeters>
          </Trackpoint>
          <Trackpoint>
            <Time>2022-09-19T11:45:58.000Z</Time>
            <Position>
              <LatitudeDegrees>49.369732551276683807373046875</LatitudeDegrees>
              <LongitudeDegrees>20.0108389556407928466796875</LongitudeDegrees>
            </Position>
            <AltitudeMeters>713.4000244140625</AltitudeMeters>
            <DistanceMeters>NAN</DistanceMeters>
          </Trackpoint>
          <Trackpoint>
            <Time>2022-09-19T11:46:01.000Z</Time>
            <Position>
              <LatitudeDegrees>49.3697766400873661041259765625</LatitudeDegrees>
              <LongitudeDegrees>20.01107205636799335479736328125</LongitudeDegrees>
            </Position>
            <AltitudeMeters>712.20001220703125</AltitudeMeters>
            <DistanceMeters>NAN</DistanceMeters>
          </Trackpoint>
          <Trackpoint>
            <Time>2022-09-19T11:46:03.000Z</Time>
            <Position>
              <LatitudeDegrees>49.36981276609003543853759765625</LatitudeDegrees>
              <LongitudeDegrees>20.01122611574828624725341796875</LongitudeDegrees>
            </Position>
            <AltitudeMeters>711.79998779296875</AltitudeMeters>
            <DistanceMeters>NAN</DistanceMeters>
          </Trackpoint>
          <Trackpoint>
            <Time>2022-09-19T11:46:05.000Z</Time>
            <Position>
              <LatitudeDegrees>49.3698715232312679290771484375</LatitudeDegrees>
              <LongitudeDegrees>20.01133558340370655059814453125</LongitudeDegrees>
            </Position>
            <AltitudeMeters>711.5999755859375</AltitudeMeters>
            <DistanceMeters>NAN</DistanceMeters>
          </Trackpoint>
          <Trackpoint>
            <Time>2022-09-19T11:46:06.000Z</Time>
            <Position>
              <LatitudeDegrees>49.3699016980826854705810546875</LatitudeDegrees>
              <LongitudeDegrees>20.01136357896029949188232421875</LongitudeDegrees>
            </Position>
            <AltitudeMeters>711.5999755859375</AltitudeMeters>
            <DistanceMeters>NAN</DistanceMeters>
          </Trackpoint>
          <Trackpoint>
            <Time>2022-09-19T11:46:07.000Z</Time>
            <Position>
              <LatitudeDegrees>49.36992776580154895782470703125</LatitudeDegrees>
              <LongitudeDegrees>20.0113713741302490234375</LongitudeDegrees>
            </Position>
            <AltitudeMeters>711.4000244140625</AltitudeMeters>
            <DistanceMeters>NAN</DistanceMeters>
          </Trackpoint>
          <Trackpoint>
            <Time>2022-09-19T11:46:09.000Z</Time>
            <Position>
              <LatitudeDegrees>49.3699771352112293243408203125</LatitudeDegrees>
              <LongitudeDegrees>20.0113447196781635284423828125</LongitudeDegrees>
            </Position>
            <AltitudeMeters>711.4000244140625</AltitudeMeters>
            <DistanceMeters>NAN</DistanceMeters>
          </Trackpoint>
          <Trackpoint>
            <Time>2022-09-19T11:46:12.000Z</Time>
            <Position>
              <LatitudeDegrees>49.370036981999874114990234375</LatitudeDegrees>
              <LongitudeDegrees>20.01121723093092441558837890625</LongitudeDegrees>
            </Position>
            <AltitudeMeters>711</AltitudeMeters>
            <DistanceMeters>NAN</DistanceMeters>
          </Trackpoint>
          <Trackpoint>
            <Time>2022-09-19T11:46:13.000Z</Time>
            <Position>
              <LatitudeDegrees>49.3700606189668178558349609375</LatitudeDegrees>
              <LongitudeDegrees>20.01115637831389904022216796875</LongitudeDegrees>
            </Position>
            <AltitudeMeters>710.79998779296875</AltitudeMeters>
            <DistanceMeters>NAN</DistanceMeters>
          </Trackpoint>
          <Trackpoint>
            <Time>2022-09-19T11:46:15.000Z</Time>
            <Position>
              <LatitudeDegrees>49.3701256625354290008544921875</LatitudeDegrees>
              <LongitudeDegrees>20.0110267102718353271484375</LongitudeDegrees>
            </Position>
            <AltitudeMeters>709.79998779296875</AltitudeMeters>
            <DistanceMeters>NAN</DistanceMeters>
          </Trackpoint>
          <Trackpoint>
            <Time>2022-09-19T11:46:17.000Z</Time>
            <Position>
              <LatitudeDegrees>49.37021928839385509490966796875</LatitudeDegrees>
              <LongitudeDegrees>20.0109212659299373626708984375</LongitudeDegrees>
            </Position>
            <AltitudeMeters>708.5999755859375</AltitudeMeters>
            <DistanceMeters>NAN</DistanceMeters>
          </Trackpoint>
          <Trackpoint>
            <Time>2022-09-19T11:46:19.000Z</Time>
            <Position>
              <LatitudeDegrees>49.3703362159430980682373046875</LatitudeDegrees>
              <LongitudeDegrees>20.01085110940039157867431640625</LongitudeDegrees>
            </Position>
            <AltitudeMeters>707.5999755859375</AltitudeMeters>
            <DistanceMeters>NAN</DistanceMeters>
          </Trackpoint>
          <Trackpoint>
            <Time>2022-09-19T11:46:22.000Z</Time>
            <Position>
              <LatitudeDegrees>49.37049807049334049224853515625</LatitudeDegrees>
              <LongitudeDegrees>20.01073057763278484344482421875</LongitudeDegrees>
            </Position>
            <AltitudeMeters>706.5999755859375</AltitudeMeters>
            <DistanceMeters>NAN</DistanceMeters>
          </Trackpoint>
          <Trackpoint>
            <Time>2022-09-19T11:46:23.000Z</Time>
            <Position>
              <LatitudeDegrees>49.37055624090135097503662109375</LatitudeDegrees>
              <LongitudeDegrees>20.0106704793870449066162109375</LongitudeDegrees>
            </Position>
            <AltitudeMeters>706.20001220703125</AltitudeMeters>
            <DistanceMeters>NAN</DistanceMeters>
          </Trackpoint>
          <Trackpoint>
            <Time>2022-09-19T11:46:26.000Z</Time>
            <Position>
              <LatitudeDegrees>49.3706838972866535186767578125</LatitudeDegrees>
              <LongitudeDegrees>20.010537207126617431640625</LongitudeDegrees>
            </Position>
            <AltitudeMeters>705</AltitudeMeters>
            <DistanceMeters>NAN</DistanceMeters>
          </Trackpoint>
          <Trackpoint>
            <Time>2022-09-19T11:46:27.000Z</Time>
            <Position>
              <LatitudeDegrees>49.3707308359444141387939453125</LatitudeDegrees>
              <LongitudeDegrees>20.0105165876448154449462890625</LongitudeDegrees>
            </Position>
            <AltitudeMeters>704.4000244140625</AltitudeMeters>
            <DistanceMeters>NAN</DistanceMeters>
          </Trackpoint>
          <Trackpoint>
            <Time>2022-09-19T11:46:28.000Z</Time>
            <Position>
              <LatitudeDegrees>49.37078137882053852081298828125</LatitudeDegrees>
              <LongitudeDegrees>20.01050275750458240509033203125</LongitudeDegrees>
            </Position>
            <AltitudeMeters>704</AltitudeMeters>
            <DistanceMeters>NAN</DistanceMeters>
          </Trackpoint>
          <Trackpoint>
            <Time>2022-09-19T11:46:29.000Z</Time>
            <Position>
              <LatitudeDegrees>49.37083728611469268798828125</LatitudeDegrees>
              <LongitudeDegrees>20.01050057820975780487060546875</LongitudeDegrees>
            </Position>
            <AltitudeMeters>703.4000244140625</AltitudeMeters>
            <DistanceMeters>NAN</DistanceMeters>
          </Trackpoint>
          <Trackpoint>
            <Time>2022-09-19T11:46:31.000Z</Time>
            <Position>
              <LatitudeDegrees>49.37094633467495441436767578125</LatitudeDegrees>
              <LongitudeDegrees>20.0105122290551662445068359375</LongitudeDegrees>
            </Position>
            <AltitudeMeters>702.79998779296875</AltitudeMeters>
            <DistanceMeters>NAN</DistanceMeters>
          </Trackpoint>
          <Trackpoint>
            <Time>2022-09-19T11:46:32.000Z</Time>
            <Position>
              <LatitudeDegrees>49.37099763192236423492431640625</LatitudeDegrees>
              <LongitudeDegrees>20.010505020618438720703125</LongitudeDegrees>
            </Position>
            <AltitudeMeters>702</AltitudeMeters>
            <DistanceMeters>NAN</DistanceMeters>
          </Trackpoint>
          <Trackpoint>
            <Time>2022-09-19T11:46:33.000Z</Time>
            <Position>
              <LatitudeDegrees>49.37104188837110996246337890625</LatitudeDegrees>
              <LongitudeDegrees>20.010490603744983673095703125</LongitudeDegrees>
            </Position>
            <AltitudeMeters>701.5999755859375</AltitudeMeters>
            <DistanceMeters>NAN</DistanceMeters>
          </Trackpoint>
          <Trackpoint>
            <Time>2022-09-19T11:46:35.000Z</Time>
            <Position>
              <LatitudeDegrees>49.37110760249197483062744140625</LatitudeDegrees>
              <LongitudeDegrees>20.0104339420795440673828125</LongitudeDegrees>
            </Position>
            <AltitudeMeters>700.5999755859375</AltitudeMeters>
            <DistanceMeters>NAN</DistanceMeters>
          </Trackpoint>
          <Trackpoint>
            <Time>2022-09-19T11:46:38.000Z</Time>
            <Position>
              <LatitudeDegrees>49.3712107837200164794921875</LatitudeDegrees>
              <LongitudeDegrees>20.0103502906858921051025390625</LongitudeDegrees>
            </Position>
            <AltitudeMeters>699.4000244140625</AltitudeMeters>
            <DistanceMeters>NAN</DistanceMeters>
          </Trackpoint>
          <Trackpoint>
            <Time>2022-09-19T11:46:41.000Z</Time>
            <Position>
              <LatitudeDegrees>49.37131849117577075958251953125</LatitudeDegrees>
              <LongitudeDegrees>20.0103070400655269622802734375</LongitudeDegrees>
            </Position>
            <AltitudeMeters>698.5999755859375</AltitudeMeters>
            <DistanceMeters>NAN</DistanceMeters>
          </Trackpoint>
          <Trackpoint>
            <Time>2022-09-19T11:46:43.000Z</Time>
            <Position>
              <LatitudeDegrees>49.371386468410491943359375</LatitudeDegrees>
              <LongitudeDegrees>20.0102741830050945281982421875</LongitudeDegrees>
            </Position>
            <AltitudeMeters>698.4000244140625</AltitudeMeters>
            <DistanceMeters>NAN</DistanceMeters>
          </Trackpoint>
          <Trackpoint>
            <Time>2022-09-19T11:46:47.000Z</Time>
            <Position>
              <LatitudeDegrees>49.37154664658010005950927734375</LatitudeDegrees>
              <LongitudeDegrees>20.0102140009403228759765625</LongitudeDegrees>
            </Position>
            <AltitudeMeters>698.20001220703125</AltitudeMeters>
            <DistanceMeters>NAN</DistanceMeters>
          </Trackpoint>
          <Trackpoint>
            <Time>2022-09-19T11:46:49.000Z</Time>
            <Position>
              <LatitudeDegrees>49.37162124551832675933837890625</LatitudeDegrees>
              <LongitudeDegrees>20.0101886875927448272705078125</LongitudeDegrees>
            </Position>
            <AltitudeMeters>698</AltitudeMeters>
            <DistanceMeters>NAN</DistanceMeters>
          </Trackpoint>
          <Trackpoint>
            <Time>2022-09-19T11:46:56.000Z</Time>
            <Position>
              <LatitudeDegrees>49.371895082294940948486328125</LatitudeDegrees>
              <LongitudeDegrees>20.01012741588056087493896484375</LongitudeDegrees>
            </Position>
            <AltitudeMeters>697.4000244140625</AltitudeMeters>
            <DistanceMeters>NAN</DistanceMeters>
          </Trackpoint>
          <Trackpoint>
            <Time>2022-09-19T11:47:01.000Z</Time>
            <Position>
              <LatitudeDegrees>49.3720330484211444854736328125</LatitudeDegrees>
              <LongitudeDegrees>20.01007427461445331573486328125</LongitudeDegrees>
            </Position>
            <AltitudeMeters>697.5999755859375</AltitudeMeters>
            <DistanceMeters>NAN</DistanceMeters>
          </Trackpoint>
          <Trackpoint>
            <Time>2022-09-19T11:47:03.000Z</Time>
            <Position>
              <LatitudeDegrees>49.372088871896266937255859375</LatitudeDegrees>
              <LongitudeDegrees>20.0100575946271419525146484375</LongitudeDegrees>
            </Position>
            <AltitudeMeters>697.4000244140625</AltitudeMeters>
            <DistanceMeters>NAN</DistanceMeters>
          </Trackpoint>
          <Trackpoint>
            <Time>2022-09-19T11:47:07.000Z</Time>
            <Position>
              <LatitudeDegrees>49.37219423241913318634033203125</LatitudeDegrees>
              <LongitudeDegrees>20.0100047886371612548828125</LongitudeDegrees>
            </Position>
            <AltitudeMeters>697.4000244140625</AltitudeMeters>
            <DistanceMeters>NAN</DistanceMeters>
          </Trackpoint>
          <Trackpoint>
            <Time>2022-09-19T11:47:08.000Z</Time>
            <Position>
              <LatitudeDegrees>49.372218959033489227294921875</LatitudeDegrees>
              <LongitudeDegrees>20.01000168733298778533935546875</LongitudeDegrees>
            </Position>
            <AltitudeMeters>697.4000244140625</AltitudeMeters>
            <DistanceMeters>NAN</DistanceMeters>
          </Trackpoint>
          <Trackpoint>
            <Time>2022-09-19T11:47:15.000Z</Time>
            <Position>
              <LatitudeDegrees>49.3723857589066028594970703125</LatitudeDegrees>
              <LongitudeDegrees>20.00990563072264194488525390625</LongitudeDegrees>
            </Position>
            <AltitudeMeters>697.4000244140625</AltitudeMeters>
            <DistanceMeters>NAN</DistanceMeters>
          </Trackpoint>
          <Trackpoint>
            <Time>2022-09-19T11:47:18.000Z</Time>
            <Position>
              <LatitudeDegrees>49.37245189212262630462646484375</LatitudeDegrees>
              <LongitudeDegrees>20.0098949857056140899658203125</LongitudeDegrees>
            </Position>
            <AltitudeMeters>697.4000244140625</AltitudeMeters>
            <DistanceMeters>NAN</DistanceMeters>
          </Trackpoint>
          <Trackpoint>
            <Time>2022-09-19T11:47:22.000Z</Time>
            <Position>
              <LatitudeDegrees>49.37254426069557666778564453125</LatitudeDegrees>
              <LongitudeDegrees>20.0099184550344944000244140625</LongitudeDegrees>
            </Position>
            <AltitudeMeters>697.4000244140625</AltitudeMeters>
            <DistanceMeters>NAN</DistanceMeters>
          </Trackpoint>
          <Trackpoint>
            <Time>2022-09-19T11:47:29.000Z</Time>
            <Position>
              <LatitudeDegrees>49.37269471585750579833984375</LatitudeDegrees>
              <LongitudeDegrees>20.0100250728428363800048828125</LongitudeDegrees>
            </Position>
            <AltitudeMeters>697.4000244140625</AltitudeMeters>
            <DistanceMeters>NAN</DistanceMeters>
          </Trackpoint>
          <Trackpoint>
            <Time>2022-09-19T11:47:33.000Z</Time>
            <Position>
              <LatitudeDegrees>49.372798986732959747314453125</LatitudeDegrees>
              <LongitudeDegrees>20.01008131541311740875244140625</LongitudeDegrees>
            </Position>
            <AltitudeMeters>697.20001220703125</AltitudeMeters>
            <DistanceMeters>NAN</DistanceMeters>
          </Trackpoint>
          <Trackpoint>
            <Time>2022-09-19T11:47:36.000Z</Time>
            <Position>
              <LatitudeDegrees>49.3728856556117534637451171875</LatitudeDegrees>
              <LongitudeDegrees>20.01015071757137775421142578125</LongitudeDegrees>
            </Position>
            <AltitudeMeters>697</AltitudeMeters>
            <DistanceMeters>NAN</DistanceMeters>
          </Trackpoint>
          <Trackpoint>
            <Time>2022-09-19T11:47:40.000Z</Time>
            <Position>
              <LatitudeDegrees>49.37299244105815887451171875</LatitudeDegrees>
              <LongitudeDegrees>20.01025599427521228790283203125</LongitudeDegrees>
            </Position>
            <AltitudeMeters>696.20001220703125</AltitudeMeters>
            <DistanceMeters>NAN</DistanceMeters>
          </Trackpoint>
          <Trackpoint>
            <Time>2022-09-19T11:47:42.000Z</Time>
            <Position>
              <LatitudeDegrees>49.37303946353495121002197265625</LatitudeDegrees>
              <LongitudeDegrees>20.01029857434332370758056640625</LongitudeDegrees>
            </Position>
            <AltitudeMeters>696.20001220703125</AltitudeMeters>
            <DistanceMeters>NAN</DistanceMeters>
          </Trackpoint>
          <Trackpoint>
            <Time>2022-09-19T11:47:47.000Z</Time>
            <Position>
              <LatitudeDegrees>49.373124539852142333984375</LatitudeDegrees>
              <LongitudeDegrees>20.010411478579044342041015625</LongitudeDegrees>
            </Position>
            <AltitudeMeters>696.4000244140625</AltitudeMeters>
            <DistanceMeters>NAN</DistanceMeters>
          </Trackpoint>
          <Trackpoint>
            <Time>2022-09-19T11:47:53.000Z</Time>
            <Position>
              <LatitudeDegrees>49.37322621233761310577392578125</LatitudeDegrees>
              <LongitudeDegrees>20.0105853192508220672607421875</LongitudeDegrees>
            </Position>
            <AltitudeMeters>696.4000244140625</AltitudeMeters>
            <DistanceMeters>NAN</DistanceMeters>
          </Trackpoint>
          <Trackpoint>
            <Time>2022-09-19T11:48:00.000Z</Time>
            <Position>
              <LatitudeDegrees>49.37337021343410015106201171875</LatitudeDegrees>
              <LongitudeDegrees>20.0107727386057376861572265625</LongitudeDegrees>
            </Position>
            <AltitudeMeters>696.4000244140625</AltitudeMeters>
            <DistanceMeters>NAN</DistanceMeters>
          </Trackpoint>
          <Trackpoint>
            <Time>2022-09-19T11:48:05.000Z</Time>
            <Position>
              <LatitudeDegrees>49.37348990701138973236083984375</LatitudeDegrees>
              <LongitudeDegrees>20.010968036949634552001953125</LongitudeDegrees>
            </Position>
            <AltitudeMeters>696.4000244140625</AltitudeMeters>
            <DistanceMeters>NAN</DistanceMeters>
          </Trackpoint>
          <Trackpoint>
            <Time>2022-09-19T11:48:06.000Z</Time>
            <Position>
              <LatitudeDegrees>49.37351589091122150421142578125</LatitudeDegrees>
              <LongitudeDegrees>20.0110024027526378631591796875</LongitudeDegrees>
            </Position>
            <AltitudeMeters>696.20001220703125</AltitudeMeters>
            <DistanceMeters>NAN</DistanceMeters>
          </Trackpoint>
          <Trackpoint>
            <Time>2022-09-19T11:48:13.000Z</Time>
            <Position>
              <LatitudeDegrees>49.3736541084945201873779296875</LatitudeDegrees>
              <LongitudeDegrees>20.0112511776387691497802734375</LongitudeDegrees>
            </Position>
            <AltitudeMeters>696</AltitudeMeters>
            <DistanceMeters>NAN</DistanceMeters>
          </Trackpoint>
          <Trackpoint>
            <Time>2022-09-19T11:48:22.000Z</Time>
            <Position>
              <LatitudeDegrees>49.3738361634314060211181640625</LatitudeDegrees>
              <LongitudeDegrees>20.011666081845760345458984375</LongitudeDegrees>
            </Position>
            <AltitudeMeters>695.20001220703125</AltitudeMeters>
            <DistanceMeters>NAN</DistanceMeters>
          </Trackpoint>
          <Trackpoint>
            <Time>2022-09-19T11:48:25.000Z</Time>
            <Position>
              <LatitudeDegrees>49.37390506267547607421875</LatitudeDegrees>
              <LongitudeDegrees>20.01181368716061115264892578125</LongitudeDegrees>
            </Position>
            <AltitudeMeters>695</AltitudeMeters>
            <DistanceMeters>NAN</DistanceMeters>
          </Trackpoint>
          <Trackpoint>
            <Time>2022-09-19T11:48:29.000Z</Time>
            <Position>
              <LatitudeDegrees>49.37400539405643939971923828125</LatitudeDegrees>
              <LongitudeDegrees>20.0119815766811370849609375</LongitudeDegrees>
            </Position>
            <AltitudeMeters>695</AltitudeMeters>
            <DistanceMeters>NAN</DistanceMeters>
          </Trackpoint>
          <Trackpoint>
            <Time>2022-09-19T11:48:35.000Z</Time>
            <Position>
              <LatitudeDegrees>49.374099187552928924560546875</LatitudeDegrees>
              <LongitudeDegrees>20.01227284781634807586669921875</LongitudeDegrees>
            </Position>
            <AltitudeMeters>695.20001220703125</AltitudeMeters>
            <DistanceMeters>NAN</DistanceMeters>
          </Trackpoint>
          <Trackpoint>
            <Time>2022-09-19T11:48:40.000Z</Time>
            <Position>
              <LatitudeDegrees>49.374157525599002838134765625</LatitudeDegrees>
              <LongitudeDegrees>20.01245356164872646331787109375</LongitudeDegrees>
            </Position>
            <AltitudeMeters>694.79998779296875</AltitudeMeters>
            <DistanceMeters>NAN</DistanceMeters>
          </Trackpoint>
          <Trackpoint>
            <Time>2022-09-19T11:48:42.000Z</Time>
            <Position>
              <LatitudeDegrees>49.374170601367950439453125</LatitudeDegrees>
              <LongitudeDegrees>20.01250670291483402252197265625</LongitudeDegrees>
            </Position>
            <AltitudeMeters>694.79998779296875</AltitudeMeters>
            <DistanceMeters>NAN</DistanceMeters>
          </Trackpoint>
          <Trackpoint>
            <Time>2022-09-19T11:48:45.000Z</Time>
            <Position>
              <LatitudeDegrees>49.374216534197330474853515625</LatitudeDegrees>
              <LongitudeDegrees>20.0125745125114917755126953125</LongitudeDegrees>
            </Position>
            <AltitudeMeters>695.5999755859375</AltitudeMeters>
            <DistanceMeters>NAN</DistanceMeters>
          </Trackpoint>
          <Trackpoint>
            <Time>2022-09-19T11:48:51.000Z</Time>
            <Position>
              <LatitudeDegrees>49.37436816282570362091064453125</LatitudeDegrees>
              <LongitudeDegrees>20.012652464210987091064453125</LongitudeDegrees>
            </Position>
            <AltitudeMeters>696.20001220703125</AltitudeMeters>
            <DistanceMeters>NAN</DistanceMeters>
          </Trackpoint>
          <Trackpoint>
            <Time>2022-09-19T11:48:54.000Z</Time>
            <Position>
              <LatitudeDegrees>49.3744329549372196197509765625</LatitudeDegrees>
              <LongitudeDegrees>20.01260208897292613983154296875</LongitudeDegrees>
            </Position>
            <AltitudeMeters>696.79998779296875</AltitudeMeters>
            <DistanceMeters>NAN</DistanceMeters>
          </Trackpoint>
          <Trackpoint>
            <Time>2022-09-19T11:48:56.000Z</Time>
            <Position>
              <LatitudeDegrees>49.37446019612252712249755859375</LatitudeDegrees>
              <LongitudeDegrees>20.012551881372928619384765625</LongitudeDegrees>
            </Position>
            <AltitudeMeters>697.20001220703125</AltitudeMeters>
            <DistanceMeters>NAN</DistanceMeters>
          </Trackpoint>
          <Trackpoint>
            <Time>2022-09-19T11:48:57.000Z</Time>
            <Position>
              <LatitudeDegrees>49.3744751997292041778564453125</LatitudeDegrees>
              <LongitudeDegrees>20.01252246089279651641845703125</LongitudeDegrees>
            </Position>
            <AltitudeMeters>697.20001220703125</AltitudeMeters>
            <DistanceMeters>NAN</DistanceMeters>
          </Trackpoint>
          <Trackpoint>
            <Time>2022-09-19T11:49:03.000Z</Time>
            <Position>
              <LatitudeDegrees>49.37454384751617908477783203125</LatitudeDegrees>
              <LongitudeDegrees>20.0123522244393825531005859375</LongitudeDegrees>
            </Position>
            <AltitudeMeters>697.4000244140625</AltitudeMeters>
            <DistanceMeters>NAN</DistanceMeters>
          </Trackpoint>
          <Trackpoint>
            <Time>2022-09-19T11:49:07.000Z</Time>
            <Position>
              <LatitudeDegrees>49.37455357052385807037353515625</LatitudeDegrees>
              <LongitudeDegrees>20.0123341195285320281982421875</LongitudeDegrees>
            </Position>
            <AltitudeMeters>697.4000244140625</AltitudeMeters>
            <DistanceMeters>NAN</DistanceMeters>
          </Trackpoint>
          <Trackpoint>
            <Time>2022-09-19T11:49:12.000Z</Time>
            <Position>
              <LatitudeDegrees>49.37455357052385807037353515625</LatitudeDegrees>
              <LongitudeDegrees>20.0123341195285320281982421875</LongitudeDegrees>
            </Position>
            <AltitudeMeters>697.4000244140625</AltitudeMeters>
            <DistanceMeters>NAN</DistanceMeters>
          </Trackpoint>
          <Trackpoint>
            <Time>2022-09-19T11:49:14.000Z</Time>
            <Position>
              <LatitudeDegrees>49.37455357052385807037353515625</LatitudeDegrees>
              <LongitudeDegrees>20.0123341195285320281982421875</LongitudeDegrees>
            </Position>
            <AltitudeMeters>697.4000244140625</AltitudeMeters>
            <DistanceMeters>NAN</DistanceMeters>
          </Trackpoint>
          <Trackpoint>
            <Time>2022-09-19T11:49:20.000Z</Time>
            <Position>
              <LatitudeDegrees>49.37455357052385807037353515625</LatitudeDegrees>
              <LongitudeDegrees>20.0123341195285320281982421875</LongitudeDegrees>
            </Position>
            <AltitudeMeters>697.4000244140625</AltitudeMeters>
            <DistanceMeters>NAN</DistanceMeters>
          </Trackpoint>
          <Trackpoint>
            <Time>2022-09-19T11:49:35.000Z</Time>
            <Position>
              <LatitudeDegrees>49.37455482780933380126953125</LatitudeDegrees>
              <LongitudeDegrees>20.01233688555657863616943359375</LongitudeDegrees>
            </Position>
            <AltitudeMeters>697.20001220703125</AltitudeMeters>
            <DistanceMeters>NAN</DistanceMeters>
          </Trackpoint>
          <Trackpoint>
            <Time>2022-09-19T11:49:42.000Z</Time>
            <Position>
              <LatitudeDegrees>49.37455491162836551666259765625</LatitudeDegrees>
              <LongitudeDegrees>20.0123371370136737823486328125</LongitudeDegrees>
            </Position>
            <AltitudeMeters>697</AltitudeMeters>
            <DistanceMeters>NAN</DistanceMeters>
          </Trackpoint>
          <Trackpoint>
            <Time>2022-09-19T11:49:49.000Z</Time>
            <Position>
              <LatitudeDegrees>49.37455491162836551666259765625</LatitudeDegrees>
              <LongitudeDegrees>20.0123371370136737823486328125</LongitudeDegrees>
            </Position>
            <AltitudeMeters>697</AltitudeMeters>
            <DistanceMeters>NAN</DistanceMeters>
          </Trackpoint>
          <Trackpoint>
            <Time>2022-09-19T11:49:56.000Z</Time>
            <Position>
              <LatitudeDegrees>49.37455491162836551666259765625</LatitudeDegrees>
              <LongitudeDegrees>20.0123371370136737823486328125</LongitudeDegrees>
            </Position>
            <AltitudeMeters>697</AltitudeMeters>
            <DistanceMeters>NAN</DistanceMeters>
          </Trackpoint>
          <Trackpoint>
            <Time>2022-09-19T11:49:57.000Z</Time>
            <Position>
              <LatitudeDegrees>49.37455491162836551666259765625</LatitudeDegrees>
              <LongitudeDegrees>20.0123371370136737823486328125</LongitudeDegrees>
            </Position>
            <AltitudeMeters>697</AltitudeMeters>
            <DistanceMeters>NAN</DistanceMeters>
          </Trackpoint>
          <Trackpoint>
            <Time>2022-09-19T11:50:00.000Z</Time>
            <Position>
              <LatitudeDegrees>49.37455491162836551666259765625</LatitudeDegrees>
              <LongitudeDegrees>20.0123371370136737823486328125</LongitudeDegrees>
            </Position>
            <AltitudeMeters>696.79998779296875</AltitudeMeters>
            <DistanceMeters>NAN</DistanceMeters>
          </Trackpoint>
          <Trackpoint>
            <Time>2022-09-19T11:50:06.000Z</Time>
            <Position>
              <LatitudeDegrees>49.37455491162836551666259765625</LatitudeDegrees>
              <LongitudeDegrees>20.0123371370136737823486328125</LongitudeDegrees>
            </Position>
            <AltitudeMeters>697</AltitudeMeters>
            <DistanceMeters>NAN</DistanceMeters>
          </Trackpoint>
          <Trackpoint>
            <Time>2022-09-19T11:50:36.000Z</Time>
            <Position>
              <LatitudeDegrees>49.374551139771938323974609375</LatitudeDegrees>
              <LongitudeDegrees>20.0123458541929721832275390625</LongitudeDegrees>
            </Position>
            <AltitudeMeters>696.5999755859375</AltitudeMeters>
            <DistanceMeters>NAN</DistanceMeters>
          </Trackpoint>
          <Trackpoint>
            <Time>2022-09-19T11:50:48.000Z</Time>
            <Position>
              <LatitudeDegrees>49.374551139771938323974609375</LatitudeDegrees>
              <LongitudeDegrees>20.0123458541929721832275390625</LongitudeDegrees>
            </Position>
            <AltitudeMeters>696.5999755859375</AltitudeMeters>
            <DistanceMeters>NAN</DistanceMeters>
          </Trackpoint>
          <Trackpoint>
            <Time>2022-09-19T11:50:57.000Z</Time>
            <Position>
              <LatitudeDegrees>49.37455289997160434722900390625</LatitudeDegrees>
              <LongitudeDegrees>20.01234660856425762176513671875</LongitudeDegrees>
            </Position>
            <AltitudeMeters>696.79998779296875</AltitudeMeters>
            <DistanceMeters>NAN</DistanceMeters>
          </Trackpoint>
          <Trackpoint>
            <Time>2022-09-19T11:51:26.000Z</Time>
            <Position>
              <LatitudeDegrees>49.37455289997160434722900390625</LatitudeDegrees>
              <LongitudeDegrees>20.01234660856425762176513671875</LongitudeDegrees>
            </Position>
            <AltitudeMeters>696.4000244140625</AltitudeMeters>
            <DistanceMeters>NAN</DistanceMeters>
          </Trackpoint>
          <Trackpoint>
            <Time>2022-09-19T11:51:33.000Z</Time>
            <Position>
              <LatitudeDegrees>49.37455289997160434722900390625</LatitudeDegrees>
              <LongitudeDegrees>20.01234660856425762176513671875</LongitudeDegrees>
            </Position>
            <AltitudeMeters>696.4000244140625</AltitudeMeters>
            <DistanceMeters>NAN</DistanceMeters>
          </Trackpoint>
          <Trackpoint>
            <Time>2022-09-19T11:51:44.000Z</Time>
            <Position>
              <LatitudeDegrees>49.3745689094066619873046875</LatitudeDegrees>
              <LongitudeDegrees>20.01230671070516109466552734375</LongitudeDegrees>
            </Position>
            <AltitudeMeters>696.4000244140625</AltitudeMeters>
            <DistanceMeters>NAN</DistanceMeters>
          </Trackpoint>
          <Trackpoint>
            <Time>2022-09-19T11:51:46.000Z</Time>
            <Position>
              <LatitudeDegrees>49.3745777942240238189697265625</LatitudeDegrees>
              <LongitudeDegrees>20.0122680701315402984619140625</LongitudeDegrees>
            </Position>
            <AltitudeMeters>696.4000244140625</AltitudeMeters>
            <DistanceMeters>NAN</DistanceMeters>
          </Trackpoint>
          <Trackpoint>
            <Time>2022-09-19T11:51:55.000Z</Time>
            <Position>
              <LatitudeDegrees>49.37463185749948024749755859375</LatitudeDegrees>
              <LongitudeDegrees>20.0121322833001613616943359375</LongitudeDegrees>
            </Position>
            <AltitudeMeters>696.4000244140625</AltitudeMeters>
            <DistanceMeters>NAN</DistanceMeters>
          </Trackpoint>
          <Trackpoint>
            <Time>2022-09-19T11:51:57.000Z</Time>
            <Position>
              <LatitudeDegrees>49.3746455200016498565673828125</LatitudeDegrees>
              <LongitudeDegrees>20.0121141783893108367919921875</LongitudeDegrees>
            </Position>
            <AltitudeMeters>696.20001220703125</AltitudeMeters>
            <DistanceMeters>NAN</DistanceMeters>
          </Trackpoint>
          <Trackpoint>
            <Time>2022-09-19T11:52:03.000Z</Time>
            <Position>
              <LatitudeDegrees>49.37464828602969646453857421875</LatitudeDegrees>
              <LongitudeDegrees>20.0121104903519153594970703125</LongitudeDegrees>
            </Position>
            <AltitudeMeters>696</AltitudeMeters>
            <DistanceMeters>NAN</DistanceMeters>
          </Trackpoint>
          <Trackpoint>
            <Time>2022-09-19T11:52:12.000Z</Time>
            <Position>
              <LatitudeDegrees>49.37465331517159938812255859375</LatitudeDegrees>
              <LongitudeDegrees>20.01209557056427001953125</LongitudeDegrees>
            </Position>
            <AltitudeMeters>696</AltitudeMeters>
            <DistanceMeters>NAN</DistanceMeters>
          </Trackpoint>
          <Trackpoint>
            <Time>2022-09-19T11:52:13.000Z</Time>
            <Position>
              <LatitudeDegrees>49.37465499155223369598388671875</LatitudeDegrees>
              <LongitudeDegrees>20.0120903737843036651611328125</LongitudeDegrees>
            </Position>
            <AltitudeMeters>696</AltitudeMeters>
            <DistanceMeters>NAN</DistanceMeters>
          </Trackpoint>
          <Trackpoint>
            <Time>2022-09-19T11:52:15.000Z</Time>
            <Position>
              <LatitudeDegrees>49.37471131794154644012451171875</LatitudeDegrees>
              <LongitudeDegrees>20.012015439569950103759765625</LongitudeDegrees>
            </Position>
            <AltitudeMeters>695.79998779296875</AltitudeMeters>
            <DistanceMeters>NAN</DistanceMeters>
          </Trackpoint>
          <Trackpoint>
            <Time>2022-09-19T11:52:16.000Z</Time>
            <Position>
              <LatitudeDegrees>49.37475624494254589080810546875</LatitudeDegrees>
              <LongitudeDegrees>20.01198937185108661651611328125</LongitudeDegrees>
            </Position>
            <AltitudeMeters>695.79998779296875</AltitudeMeters>
            <DistanceMeters>NAN</DistanceMeters>
          </Trackpoint>
          <Trackpoint>
            <Time>2022-09-19T11:52:18.000Z</Time>
            <Position>
              <LatitudeDegrees>49.3748681433498859405517578125</LatitudeDegrees>
              <LongitudeDegrees>20.011976547539234161376953125</LongitudeDegrees>
            </Position>
            <AltitudeMeters>695.4000244140625</AltitudeMeters>
            <DistanceMeters>NAN</DistanceMeters>
          </Trackpoint>
          <Trackpoint>
            <Time>2022-09-19T11:52:19.000Z</Time>
            <Position>
              <LatitudeDegrees>49.37491365708410739898681640625</LatitudeDegrees>
              <LongitudeDegrees>20.0119896233081817626953125</LongitudeDegrees>
            </Position>
            <AltitudeMeters>695</AltitudeMeters>
            <DistanceMeters>NAN</DistanceMeters>
          </Trackpoint>
          <Trackpoint>
            <Time>2022-09-19T11:52:20.000Z</Time>
            <Position>
              <LatitudeDegrees>49.3749791197478771209716796875</LatitudeDegrees>
              <LongitudeDegrees>20.01201401464641094207763671875</LongitudeDegrees>
            </Position>
            <AltitudeMeters>694.5999755859375</AltitudeMeters>
            <DistanceMeters>NAN</DistanceMeters>
          </Trackpoint>
          <Trackpoint>
            <Time>2022-09-19T11:52:23.000Z</Time>
            <Position>
              <LatitudeDegrees>49.37512907199561595916748046875</LatitudeDegrees>
              <LongitudeDegrees>20.01210940070450305938720703125</LongitudeDegrees>
            </Position>
            <AltitudeMeters>694</AltitudeMeters>
            <DistanceMeters>NAN</DistanceMeters>
          </Trackpoint>
          <Trackpoint>
            <Time>2022-09-19T11:52:24.000Z</Time>
            <Position>
              <LatitudeDegrees>49.375170059502124786376953125</LatitudeDegrees>
              <LongitudeDegrees>20.01213848590850830078125</LongitudeDegrees>
            </Position>
            <AltitudeMeters>693.79998779296875</AltitudeMeters>
            <DistanceMeters>NAN</DistanceMeters>
          </Trackpoint>
          <Trackpoint>
            <Time>2022-09-19T11:52:27.000Z</Time>
            <Position>
              <LatitudeDegrees>49.37533493153750896453857421875</LatitudeDegrees>
              <LongitudeDegrees>20.012226663529872894287109375</LongitudeDegrees>
            </Position>
            <AltitudeMeters>693.5999755859375</AltitudeMeters>
            <DistanceMeters>NAN</DistanceMeters>
          </Trackpoint>
          <Trackpoint>
            <Time>2022-09-19T11:52:29.000Z</Time>
            <Position>
              <LatitudeDegrees>49.37543685548007488250732421875</LatitudeDegrees>
              <LongitudeDegrees>20.01226228661835193634033203125</LongitudeDegrees>
            </Position>
            <AltitudeMeters>693.4000244140625</AltitudeMeters>
            <DistanceMeters>NAN</DistanceMeters>
          </Trackpoint>
          <Trackpoint>
            <Time>2022-09-19T11:52:34.000Z</Time>
            <Position>
              <LatitudeDegrees>49.37563978135585784912109375</LatitudeDegrees>
              <LongitudeDegrees>20.01228005625307559967041015625</LongitudeDegrees>
            </Position>
            <AltitudeMeters>693.4000244140625</AltitudeMeters>
            <DistanceMeters>NAN</DistanceMeters>
          </Trackpoint>
          <Trackpoint>
            <Time>2022-09-19T11:52:40.000Z</Time>
            <Position>
              <LatitudeDegrees>49.37577229924499988555908203125</LatitudeDegrees>
              <LongitudeDegrees>20.012221969664096832275390625</LongitudeDegrees>
            </Position>
            <AltitudeMeters>693.4000244140625</AltitudeMeters>
            <DistanceMeters>NAN</DistanceMeters>
          </Trackpoint>
          <Trackpoint>
            <Time>2022-09-19T11:52:44.000Z</Time>
            <Position>
              <LatitudeDegrees>49.37586416490375995635986328125</LatitudeDegrees>
              <LongitudeDegrees>20.0121574290096759796142578125</LongitudeDegrees>
            </Position>
            <AltitudeMeters>693.79998779296875</AltitudeMeters>
            <DistanceMeters>NAN</DistanceMeters>
          </Trackpoint>
          <Trackpoint>
            <Time>2022-09-19T11:52:46.000Z</Time>
            <Position>
              <LatitudeDegrees>49.37590959481894969940185546875</LatitudeDegrees>
              <LongitudeDegrees>20.01209498383104801177978515625</LongitudeDegrees>
            </Position>
            <AltitudeMeters>693.79998779296875</AltitudeMeters>
            <DistanceMeters>NAN</DistanceMeters>
          </Trackpoint>
          <Trackpoint>
            <Time>2022-09-19T11:52:51.000Z</Time>
            <Position>
              <LatitudeDegrees>49.37595603056252002716064453125</LatitudeDegrees>
              <LongitudeDegrees>20.01190421171486377716064453125</LongitudeDegrees>
            </Position>
            <AltitudeMeters>693.79998779296875</AltitudeMeters>
            <DistanceMeters>NAN</DistanceMeters>
          </Trackpoint>
          <Trackpoint>
            <Time>2022-09-19T11:52:56.000Z</Time>
            <Position>
              <LatitudeDegrees>49.3759567849338054656982421875</LatitudeDegrees>
              <LongitudeDegrees>20.01164487563073635101318359375</LongitudeDegrees>
            </Position>
            <AltitudeMeters>693.79998779296875</AltitudeMeters>
            <DistanceMeters>NAN</DistanceMeters>
          </Trackpoint>
          <Trackpoint>
            <Time>2022-09-19T11:53:03.000Z</Time>
            <Position>
              <LatitudeDegrees>49.37598285265266895294189453125</LatitudeDegrees>
              <LongitudeDegrees>20.01121941022574901580810546875</LongitudeDegrees>
            </Position>
            <AltitudeMeters>694.20001220703125</AltitudeMeters>
            <DistanceMeters>NAN</DistanceMeters>
          </Trackpoint>
          <Trackpoint>
            <Time>2022-09-19T11:53:09.000Z</Time>
            <Position>
              <LatitudeDegrees>49.37598955817520618438720703125</LatitudeDegrees>
              <LongitudeDegrees>20.01092419959604740142822265625</LongitudeDegrees>
            </Position>
            <AltitudeMeters>694.5999755859375</AltitudeMeters>
            <DistanceMeters>NAN</DistanceMeters>
          </Trackpoint>
          <Trackpoint>
            <Time>2022-09-19T11:53:13.000Z</Time>
            <Position>
              <LatitudeDegrees>49.37601017765700817108154296875</LatitudeDegrees>
              <LongitudeDegrees>20.0107070244848728179931640625</LongitudeDegrees>
            </Position>
            <AltitudeMeters>695</AltitudeMeters>
            <DistanceMeters>NAN</DistanceMeters>
          </Trackpoint>
          <Trackpoint>
            <Time>2022-09-19T11:53:17.000Z</Time>
            <Position>
              <LatitudeDegrees>49.3760349042713642120361328125</LatitudeDegrees>
              <LongitudeDegrees>20.01053729094564914703369140625</LongitudeDegrees>
            </Position>
            <AltitudeMeters>695.4000244140625</AltitudeMeters>
            <DistanceMeters>NAN</DistanceMeters>
          </Trackpoint>
          <Trackpoint>
            <Time>2022-09-19T11:53:22.000Z</Time>
            <Position>
              <LatitudeDegrees>49.37609869055449962615966796875</LatitudeDegrees>
              <LongitudeDegrees>20.01047006808221340179443359375</LongitudeDegrees>
            </Position>
            <AltitudeMeters>696</AltitudeMeters>
            <DistanceMeters>NAN</DistanceMeters>
          </Trackpoint>
          <Trackpoint>
            <Time>2022-09-19T11:53:23.000Z</Time>
            <Position>
              <LatitudeDegrees>49.37611612491309642791748046875</LatitudeDegrees>
              <LongitudeDegrees>20.0104730017483234405517578125</LongitudeDegrees>
            </Position>
            <AltitudeMeters>696</AltitudeMeters>
            <DistanceMeters>NAN</DistanceMeters>
          </Trackpoint>
          <Trackpoint>
            <Time>2022-09-19T11:53:28.000Z</Time>
            <Position>
              <LatitudeDegrees>49.37625576741993427276611328125</LatitudeDegrees>
              <LongitudeDegrees>20.01052304171025753021240234375</LongitudeDegrees>
            </Position>
            <AltitudeMeters>696</AltitudeMeters>
            <DistanceMeters>NAN</DistanceMeters>
          </Trackpoint>
          <Trackpoint>
            <Time>2022-09-19T11:53:32.000Z</Time>
            <Position>
              <LatitudeDegrees>49.376391135156154632568359375</LatitudeDegrees>
              <LongitudeDegrees>20.01056260429322719573974609375</LongitudeDegrees>
            </Position>
            <AltitudeMeters>696</AltitudeMeters>
            <DistanceMeters>NAN</DistanceMeters>
          </Trackpoint>
          <Trackpoint>
            <Time>2022-09-19T11:53:34.000Z</Time>
            <Position>
              <LatitudeDegrees>49.3764560110867023468017578125</LatitudeDegrees>
              <LongitudeDegrees>20.0105772726237773895263671875</LongitudeDegrees>
            </Position>
            <AltitudeMeters>696</AltitudeMeters>
            <DistanceMeters>NAN</DistanceMeters>
          </Trackpoint>
          <Trackpoint>
            <Time>2022-09-19T11:53:36.000Z</Time>
            <Position>
              <LatitudeDegrees>49.37653203494846820831298828125</LatitudeDegrees>
              <LongitudeDegrees>20.0105913542211055755615234375</LongitudeDegrees>
            </Position>
            <AltitudeMeters>695.79998779296875</AltitudeMeters>
            <DistanceMeters>NAN</DistanceMeters>
          </Trackpoint>
          <Trackpoint>
            <Time>2022-09-19T11:53:43.000Z</Time>
            <Position>
              <LatitudeDegrees>49.37681484036147594451904296875</LatitudeDegrees>
              <LongitudeDegrees>20.01062630675733089447021484375</LongitudeDegrees>
            </Position>
            <AltitudeMeters>695.20001220703125</AltitudeMeters>
            <DistanceMeters>NAN</DistanceMeters>
          </Trackpoint>
          <Trackpoint>
            <Time>2022-09-19T11:53:44.000Z</Time>
            <Position>
              <LatitudeDegrees>49.37685306183993816375732421875</LatitudeDegrees>
              <LongitudeDegrees>20.010630749166011810302734375</LongitudeDegrees>
            </Position>
            <AltitudeMeters>695.20001220703125</AltitudeMeters>
            <DistanceMeters>NAN</DistanceMeters>
          </Trackpoint>
          <Trackpoint>
            <Time>2022-09-19T11:53:52.000Z</Time>
            <Position>
              <LatitudeDegrees>49.3771222047507762908935546875</LatitudeDegrees>
              <LongitudeDegrees>20.01071599312126636505126953125</LongitudeDegrees>
            </Position>
            <AltitudeMeters>695</AltitudeMeters>
            <DistanceMeters>NAN</DistanceMeters>
          </Trackpoint>
          <Trackpoint>
            <Time>2022-09-19T11:53:53.000Z</Time>
            <Position>
              <LatitudeDegrees>49.37715682201087474822998046875</LatitudeDegrees>
              <LongitudeDegrees>20.01073007471859455108642578125</LongitudeDegrees>
            </Position>
            <AltitudeMeters>694.79998779296875</AltitudeMeters>
            <DistanceMeters>NAN</DistanceMeters>
          </Trackpoint>
          <Trackpoint>
            <Time>2022-09-19T11:54:01.000Z</Time>
            <Position>
              <LatitudeDegrees>49.37740475870668888092041015625</LatitudeDegrees>
              <LongitudeDegrees>20.010842643678188323974609375</LongitudeDegrees>
            </Position>
            <AltitudeMeters>695</AltitudeMeters>
            <DistanceMeters>NAN</DistanceMeters>
          </Trackpoint>
          <Trackpoint>
            <Time>2022-09-19T11:54:05.000Z</Time>
            <Position>
              <LatitudeDegrees>49.37752009369432926177978515625</LatitudeDegrees>
              <LongitudeDegrees>20.0108984671533107757568359375</LongitudeDegrees>
            </Position>
            <AltitudeMeters>694.5999755859375</AltitudeMeters>
            <DistanceMeters>NAN</DistanceMeters>
          </Trackpoint>
          <Trackpoint>
            <Time>2022-09-19T11:54:07.000Z</Time>
            <Position>
              <LatitudeDegrees>49.37757876701653003692626953125</LatitudeDegrees>
              <LongitudeDegrees>20.0109303183853626251220703125</LongitudeDegrees>
            </Position>
            <AltitudeMeters>694.4000244140625</AltitudeMeters>
            <DistanceMeters>NAN</DistanceMeters>
          </Trackpoint>
          <Trackpoint>
            <Time>2022-09-19T11:54:11.000Z</Time>
            <Position>
              <LatitudeDegrees>49.37769259326159954071044921875</LatitudeDegrees>
              <LongitudeDegrees>20.01099896617233753204345703125</LongitudeDegrees>
            </Position>
            <AltitudeMeters>694.20001220703125</AltitudeMeters>
            <DistanceMeters>NAN</DistanceMeters>
          </Trackpoint>
          <Trackpoint>
            <Time>2022-09-19T11:54:15.000Z</Time>
            <Position>
              <LatitudeDegrees>49.3778170645236968994140625</LatitudeDegrees>
              <LongitudeDegrees>20.0110811926424503326416015625</LongitudeDegrees>
            </Position>
            <AltitudeMeters>694.4000244140625</AltitudeMeters>
            <DistanceMeters>NAN</DistanceMeters>
          </Trackpoint>
          <Trackpoint>
            <Time>2022-09-19T11:54:23.000Z</Time>
            <Position>
              <LatitudeDegrees>49.37805687077343463897705078125</LatitudeDegrees>
              <LongitudeDegrees>20.011273808777332305908203125</LongitudeDegrees>
            </Position>
            <AltitudeMeters>694.5999755859375</AltitudeMeters>
            <DistanceMeters>NAN</DistanceMeters>
          </Trackpoint>
          <Trackpoint>
            <Time>2022-09-19T11:54:25.000Z</Time>
            <Position>
              <LatitudeDegrees>49.378106407821178436279296875</LatitudeDegrees>
              <LongitudeDegrees>20.0113172270357608795166015625</LongitudeDegrees>
            </Position>
            <AltitudeMeters>694.79998779296875</AltitudeMeters>
            <DistanceMeters>NAN</DistanceMeters>
          </Trackpoint>
          <Trackpoint>
            <Time>2022-09-19T11:54:33.000Z</Time>
            <Position>
              <LatitudeDegrees>49.3783375807106494903564453125</LatitudeDegrees>
              <LongitudeDegrees>20.01149282790720462799072265625</LongitudeDegrees>
            </Position>
            <AltitudeMeters>694.4000244140625</AltitudeMeters>
            <DistanceMeters>NAN</DistanceMeters>
          </Trackpoint>
          <Trackpoint>
            <Time>2022-09-19T11:54:40.000Z</Time>
            <Position>
              <LatitudeDegrees>49.37858342193067073822021484375</LatitudeDegrees>
              <LongitudeDegrees>20.01167387701570987701416015625</LongitudeDegrees>
            </Position>
            <AltitudeMeters>694.20001220703125</AltitudeMeters>
            <DistanceMeters>NAN</DistanceMeters>
          </Trackpoint>
          <Trackpoint>
            <Time>2022-09-19T11:54:44.000Z</Time>
            <Position>
              <LatitudeDegrees>49.378762878477573394775390625</LatitudeDegrees>
              <LongitudeDegrees>20.01181988976895809173583984375</LongitudeDegrees>
            </Position>
            <AltitudeMeters>693.79998779296875</AltitudeMeters>
            <DistanceMeters>NAN</DistanceMeters>
          </Trackpoint>
          <Trackpoint>
            <Time>2022-09-19T11:54:47.000Z</Time>
            <Position>
              <LatitudeDegrees>49.378881566226482391357421875</LatitudeDegrees>
              <LongitudeDegrees>20.01192131079733371734619140625</LongitudeDegrees>
            </Position>
            <AltitudeMeters>693.4000244140625</AltitudeMeters>
            <DistanceMeters>NAN</DistanceMeters>
          </Trackpoint>
          <Trackpoint>
            <Time>2022-09-19T11:54:53.000Z</Time>
            <Position>
              <LatitudeDegrees>49.3790916167199611663818359375</LatitudeDegrees>
              <LongitudeDegrees>20.01209632493555545806884765625</LongitudeDegrees>
            </Position>
            <AltitudeMeters>693</AltitudeMeters>
            <DistanceMeters>NAN</DistanceMeters>
          </Trackpoint>
          <Trackpoint>
            <Time>2022-09-19T11:55:00.000Z</Time>
            <Position>
              <LatitudeDegrees>49.3793164193630218505859375</LatitudeDegrees>
              <LongitudeDegrees>20.01228667795658111572265625</LongitudeDegrees>
            </Position>
            <AltitudeMeters>692.79998779296875</AltitudeMeters>
            <DistanceMeters>NAN</DistanceMeters>
          </Trackpoint>
          <Trackpoint>
            <Time>2022-09-19T11:55:01.000Z</Time>
            <Position>
              <LatitudeDegrees>49.37934634275734424591064453125</LatitudeDegrees>
              <LongitudeDegrees>20.01231056638062000274658203125</LongitudeDegrees>
            </Position>
            <AltitudeMeters>692.79998779296875</AltitudeMeters>
            <DistanceMeters>NAN</DistanceMeters>
          </Trackpoint>
          <Trackpoint>
            <Time>2022-09-19T11:55:08.000Z</Time>
            <Position>
              <LatitudeDegrees>49.37961758114397525787353515625</LatitudeDegrees>
              <LongitudeDegrees>20.0125248916447162628173828125</LongitudeDegrees>
            </Position>
            <AltitudeMeters>692.4000244140625</AltitudeMeters>
            <DistanceMeters>NAN</DistanceMeters>
          </Trackpoint>
          <Trackpoint>
            <Time>2022-09-19T11:55:17.000Z</Time>
            <Position>
              <LatitudeDegrees>49.37991656363010406494140625</LatitudeDegrees>
              <LongitudeDegrees>20.01273184083402156829833984375</LongitudeDegrees>
            </Position>
            <AltitudeMeters>692</AltitudeMeters>
            <DistanceMeters>NAN</DistanceMeters>
          </Trackpoint>
          <Trackpoint>
            <Time>2022-09-19T11:55:24.000Z</Time>
            <Position>
              <LatitudeDegrees>49.38014932908117771148681640625</LatitudeDegrees>
              <LongitudeDegrees>20.01283493824303150177001953125</LongitudeDegrees>
            </Position>
            <AltitudeMeters>692</AltitudeMeters>
            <DistanceMeters>NAN</DistanceMeters>
          </Trackpoint>
          <Trackpoint>
            <Time>2022-09-19T11:55:26.000Z</Time>
            <Position>
              <LatitudeDegrees>49.38020565547049045562744140625</LatitudeDegrees>
              <LongitudeDegrees>20.01284885220229625701904296875</LongitudeDegrees>
            </Position>
            <AltitudeMeters>691.79998779296875</AltitudeMeters>
            <DistanceMeters>NAN</DistanceMeters>
          </Trackpoint>
          <Trackpoint>
            <Time>2022-09-19T11:55:33.000Z</Time>
            <Position>
              <LatitudeDegrees>49.38042811118066310882568359375</LatitudeDegrees>
              <LongitudeDegrees>20.01289612613618373870849609375</LongitudeDegrees>
            </Position>
            <AltitudeMeters>691.79998779296875</AltitudeMeters>
            <DistanceMeters>NAN</DistanceMeters>
          </Trackpoint>
          <Trackpoint>
            <Time>2022-09-19T11:55:42.000Z</Time>
            <Position>
              <LatitudeDegrees>49.380747377872467041015625</LatitudeDegrees>
              <LongitudeDegrees>20.0129486806690692901611328125</LongitudeDegrees>
            </Position>
            <AltitudeMeters>691.20001220703125</AltitudeMeters>
            <DistanceMeters>NAN</DistanceMeters>
          </Trackpoint>
          <Trackpoint>
            <Time>2022-09-19T11:55:46.000Z</Time>
            <Position>
              <LatitudeDegrees>49.3809091486036777496337890625</LatitudeDegrees>
              <LongitudeDegrees>20.01298296265304088592529296875</LongitudeDegrees>
            </Position>
            <AltitudeMeters>691.4000244140625</AltitudeMeters>
            <DistanceMeters>NAN</DistanceMeters>
          </Trackpoint>
          <Trackpoint>
            <Time>2022-09-19T11:55:52.000Z</Time>
            <Position>
              <LatitudeDegrees>49.38114359043538570404052734375</LatitudeDegrees>
              <LongitudeDegrees>20.01303099095821380615234375</LongitudeDegrees>
            </Position>
            <AltitudeMeters>691.20001220703125</AltitudeMeters>
            <DistanceMeters>NAN</DistanceMeters>
          </Trackpoint>
          <Trackpoint>
            <Time>2022-09-19T11:55:53.000Z</Time>
            <Position>
              <LatitudeDegrees>49.38118566758930683135986328125</LatitudeDegrees>
              <LongitudeDegrees>20.01304398290812969207763671875</LongitudeDegrees>
            </Position>
            <AltitudeMeters>691.20001220703125</AltitudeMeters>
            <DistanceMeters>NAN</DistanceMeters>
          </Trackpoint>
          <Trackpoint>
            <Time>2022-09-19T11:56:00.000Z</Time>
            <Position>
              <LatitudeDegrees>49.381471574306488037109375</LatitudeDegrees>
              <LongitudeDegrees>20.0130791030824184417724609375</LongitudeDegrees>
            </Position>
            <AltitudeMeters>690.5999755859375</AltitudeMeters>
            <DistanceMeters>NAN</DistanceMeters>
          </Trackpoint>
          <Trackpoint>
            <Time>2022-09-19T11:56:02.000Z</Time>
            <Position>
              <LatitudeDegrees>49.3815515376627445220947265625</LatitudeDegrees>
              <LongitudeDegrees>20.01309628598392009735107421875</LongitudeDegrees>
            </Position>
            <AltitudeMeters>690.5999755859375</AltitudeMeters>
            <DistanceMeters>NAN</DistanceMeters>
          </Trackpoint>
          <Trackpoint>
            <Time>2022-09-19T11:56:12.000Z</Time>
            <Position>
              <LatitudeDegrees>49.3819181621074676513671875</LatitudeDegrees>
              <LongitudeDegrees>20.01316451467573642730712890625</LongitudeDegrees>
            </Position>
            <AltitudeMeters>690.20001220703125</AltitudeMeters>
            <DistanceMeters>NAN</DistanceMeters>
          </Trackpoint>
          <Trackpoint>
            <Time>2022-09-19T11:56:16.000Z</Time>
            <Position>
              <LatitudeDegrees>49.3820536136627197265625</LatitudeDegrees>
              <LongitudeDegrees>20.01319536007940769195556640625</LongitudeDegrees>
            </Position>
            <AltitudeMeters>689.5999755859375</AltitudeMeters>
            <DistanceMeters>NAN</DistanceMeters>
          </Trackpoint>
          <Trackpoint>
            <Time>2022-09-19T11:56:21.000Z</Time>
            <Position>
              <LatitudeDegrees>49.3822207488119602203369140625</LatitudeDegrees>
              <LongitudeDegrees>20.01323676668107509613037109375</LongitudeDegrees>
            </Position>
            <AltitudeMeters>688.79998779296875</AltitudeMeters>
            <DistanceMeters>NAN</DistanceMeters>
          </Trackpoint>
          <Trackpoint>
            <Time>2022-09-19T11:56:22.000Z</Time>
            <Position>
              <LatitudeDegrees>49.3822492472827434539794921875</LatitudeDegrees>
              <LongitudeDegrees>20.0132450647652149200439453125</LongitudeDegrees>
            </Position>
            <AltitudeMeters>688.4000244140625</AltitudeMeters>
            <DistanceMeters>NAN</DistanceMeters>
          </Trackpoint>
          <Trackpoint>
            <Time>2022-09-19T11:56:28.000Z</Time>
            <Position>
              <LatitudeDegrees>49.3824259378015995025634765625</LatitudeDegrees>
              <LongitudeDegrees>20.0133012235164642333984375</LongitudeDegrees>
            </Position>
            <AltitudeMeters>688</AltitudeMeters>
            <DistanceMeters>NAN</DistanceMeters>
          </Trackpoint>
          <Trackpoint>
            <Time>2022-09-19T11:56:30.000Z</Time>
            <Position>
              <LatitudeDegrees>49.382483772933483123779296875</LatitudeDegrees>
              <LongitudeDegrees>20.013305582106113433837890625</LongitudeDegrees>
            </Position>
            <AltitudeMeters>688.4000244140625</AltitudeMeters>
            <DistanceMeters>NAN</DistanceMeters>
          </Trackpoint>
          <Trackpoint>
            <Time>2022-09-19T11:56:36.000Z</Time>
            <Position>
              <LatitudeDegrees>49.3826378323137760162353515625</LatitudeDegrees>
              <LongitudeDegrees>20.01332276500761508941650390625</LongitudeDegrees>
            </Position>
            <AltitudeMeters>688.79998779296875</AltitudeMeters>
            <DistanceMeters>NAN</DistanceMeters>
          </Trackpoint>
          <Trackpoint>
            <Time>2022-09-19T11:56:37.000Z</Time>
            <Position>
              <LatitudeDegrees>49.38266373239457607269287109375</LatitudeDegrees>
              <LongitudeDegrees>20.0133235193789005279541015625</LongitudeDegrees>
            </Position>
            <AltitudeMeters>688.79998779296875</AltitudeMeters>
            <DistanceMeters>NAN</DistanceMeters>
          </Trackpoint>
          <Trackpoint>
            <Time>2022-09-19T11:56:47.000Z</Time>
            <Position>
              <LatitudeDegrees>49.38292306847870349884033203125</LatitudeDegrees>
              <LongitudeDegrees>20.01330248080193996429443359375</LongitudeDegrees>
            </Position>
            <AltitudeMeters>689</AltitudeMeters>
            <DistanceMeters>NAN</DistanceMeters>
          </Trackpoint>
          <Trackpoint>
            <Time>2022-09-19T11:56:51.000Z</Time>
            <Position>
              <LatitudeDegrees>49.383015520870685577392578125</LatitudeDegrees>
              <LongitudeDegrees>20.0133020617067813873291015625</LongitudeDegrees>
            </Position>
            <AltitudeMeters>689.20001220703125</AltitudeMeters>
            <DistanceMeters>NAN</DistanceMeters>
          </Trackpoint>
          <Trackpoint>
            <Time>2022-09-19T11:56:54.000Z</Time>
            <Position>
              <LatitudeDegrees>49.3831105716526508331298828125</LatitudeDegrees>
              <LongitudeDegrees>20.01329275779426097869873046875</LongitudeDegrees>
            </Position>
            <AltitudeMeters>688.79998779296875</AltitudeMeters>
            <DistanceMeters>NAN</DistanceMeters>
          </Trackpoint>
          <Trackpoint>
            <Time>2022-09-19T11:57:00.000Z</Time>
            <Position>
              <LatitudeDegrees>49.3833087198436260223388671875</LatitudeDegrees>
              <LongitudeDegrees>20.01326610334217548370361328125</LongitudeDegrees>
            </Position>
            <AltitudeMeters>688.5999755859375</AltitudeMeters>
            <DistanceMeters>NAN</DistanceMeters>
          </Trackpoint>
          <Trackpoint>
            <Time>2022-09-19T11:57:03.000Z</Time>
            <Position>
              <LatitudeDegrees>49.38340854831039905548095703125</LatitudeDegrees>
              <LongitudeDegrees>20.01325470395386219024658203125</LongitudeDegrees>
            </Position>
            <AltitudeMeters>688.4000244140625</AltitudeMeters>
            <DistanceMeters>NAN</DistanceMeters>
          </Trackpoint>
          <Trackpoint>
            <Time>2022-09-19T11:57:08.000Z</Time>
            <Position>
              <LatitudeDegrees>49.38357970677316188812255859375</LatitudeDegrees>
              <LongitudeDegrees>20.01323911361396312713623046875</LongitudeDegrees>
            </Position>
            <AltitudeMeters>688.20001220703125</AltitudeMeters>
            <DistanceMeters>NAN</DistanceMeters>
          </Trackpoint>
          <Trackpoint>
            <Time>2022-09-19T11:57:09.000Z</Time>
            <Position>
              <LatitudeDegrees>49.3836218677461147308349609375</LatitudeDegrees>
              <LongitudeDegrees>20.01323559321463108062744140625</LongitudeDegrees>
            </Position>
            <AltitudeMeters>688.20001220703125</AltitudeMeters>
            <DistanceMeters>NAN</DistanceMeters>
          </Trackpoint>
          <Trackpoint>
            <Time>2022-09-19T11:57:17.000Z</Time>
            <Position>
              <LatitudeDegrees>49.38390609808266162872314453125</LatitudeDegrees>
              <LongitudeDegrees>20.0131984613835811614990234375</LongitudeDegrees>
            </Position>
            <AltitudeMeters>688.5999755859375</AltitudeMeters>
            <DistanceMeters>NAN</DistanceMeters>
          </Trackpoint>
          <Trackpoint>
            <Time>2022-09-19T11:57:23.000Z</Time>
            <Position>
              <LatitudeDegrees>49.38409502618014812469482421875</LatitudeDegrees>
              <LongitudeDegrees>20.01321011222898960113525390625</LongitudeDegrees>
            </Position>
            <AltitudeMeters>688.79998779296875</AltitudeMeters>
            <DistanceMeters>NAN</DistanceMeters>
          </Trackpoint>
          <Trackpoint>
            <Time>2022-09-19T11:57:30.000Z</Time>
            <Position>
              <LatitudeDegrees>49.38429703004658222198486328125</LatitudeDegrees>
              <LongitudeDegrees>20.01323274336755275726318359375</LongitudeDegrees>
            </Position>
            <AltitudeMeters>688</AltitudeMeters>
            <DistanceMeters>NAN</DistanceMeters>
          </Trackpoint>
          <Trackpoint>
            <Time>2022-09-19T11:57:35.000Z</Time>
            <Position>
              <LatitudeDegrees>49.384467266499996185302734375</LatitudeDegrees>
              <LongitudeDegrees>20.0132789276540279388427734375</LongitudeDegrees>
            </Position>
            <AltitudeMeters>688</AltitudeMeters>
            <DistanceMeters>NAN</DistanceMeters>
          </Trackpoint>
          <Trackpoint>
            <Time>2022-09-19T11:57:37.000Z</Time>
            <Position>
              <LatitudeDegrees>49.3845427036285400390625</LatitudeDegrees>
              <LongitudeDegrees>20.0133091025054454803466796875</LongitudeDegrees>
            </Position>
            <AltitudeMeters>688</AltitudeMeters>
            <DistanceMeters>NAN</DistanceMeters>
          </Trackpoint>
          <Trackpoint>
            <Time>2022-09-19T11:57:42.000Z</Time>
            <Position>
              <LatitudeDegrees>49.38471310772001743316650390625</LatitudeDegrees>
              <LongitudeDegrees>20.0134157203137874603271484375</LongitudeDegrees>
            </Position>
            <AltitudeMeters>687.4000244140625</AltitudeMeters>
            <DistanceMeters>NAN</DistanceMeters>
          </Trackpoint>
          <Trackpoint>
            <Time>2022-09-19T11:57:45.000Z</Time>
            <Position>
              <LatitudeDegrees>49.384805895388126373291015625</LatitudeDegrees>
              <LongitudeDegrees>20.01349207945168018341064453125</LongitudeDegrees>
            </Position>
            <AltitudeMeters>687.20001220703125</AltitudeMeters>
            <DistanceMeters>NAN</DistanceMeters>
          </Trackpoint>
          <Trackpoint>
            <Time>2022-09-19T11:57:50.000Z</Time>
            <Position>
              <LatitudeDegrees>49.38497261144220829010009765625</LatitudeDegrees>
              <LongitudeDegrees>20.0136445462703704833984375</LongitudeDegrees>
            </Position>
            <AltitudeMeters>687.79998779296875</AltitudeMeters>
            <DistanceMeters>NAN</DistanceMeters>
          </Trackpoint>
          <Trackpoint>
            <Time>2022-09-19T11:57:52.000Z</Time>
            <Position>
              <LatitudeDegrees>49.38504402525722980499267578125</LatitudeDegrees>
              <LongitudeDegrees>20.0137087516486644744873046875</LongitudeDegrees>
            </Position>
            <AltitudeMeters>688.20001220703125</AltitudeMeters>
            <DistanceMeters>NAN</DistanceMeters>
          </Trackpoint>
          <Trackpoint>
            <Time>2022-09-19T11:57:59.000Z</Time>
            <Position>
              <LatitudeDegrees>49.38533169217407703399658203125</LatitudeDegrees>
              <LongitudeDegrees>20.01405836082994937896728515625</LongitudeDegrees>
            </Position>
            <AltitudeMeters>688</AltitudeMeters>
            <DistanceMeters>NAN</DistanceMeters>
          </Trackpoint>
          <Trackpoint>
            <Time>2022-09-19T11:58:00.000Z</Time>
            <Position>
              <LatitudeDegrees>49.38536991365253925323486328125</LatitudeDegrees>
              <LongitudeDegrees>20.01411460340023040771484375</LongitudeDegrees>
            </Position>
            <AltitudeMeters>687.79998779296875</AltitudeMeters>
            <DistanceMeters>NAN</DistanceMeters>
          </Trackpoint>
          <Trackpoint>
            <Time>2022-09-19T11:58:07.000Z</Time>
            <Position>
              <LatitudeDegrees>49.38561969436705112457275390625</LatitudeDegrees>
              <LongitudeDegrees>20.014422722160816192626953125</LongitudeDegrees>
            </Position>
            <AltitudeMeters>686.5999755859375</AltitudeMeters>
            <DistanceMeters>NAN</DistanceMeters>
          </Trackpoint>
          <Trackpoint>
            <Time>2022-09-19T11:58:13.000Z</Time>
            <Position>
              <LatitudeDegrees>49.38582739792764186859130859375</LatitudeDegrees>
              <LongitudeDegrees>20.0146361254155635833740234375</LongitudeDegrees>
            </Position>
            <AltitudeMeters>686.79998779296875</AltitudeMeters>
            <DistanceMeters>NAN</DistanceMeters>
          </Trackpoint>
          <Trackpoint>
            <Time>2022-09-19T11:58:16.000Z</Time>
            <Position>
              <LatitudeDegrees>49.3859329260885715484619140625</LatitudeDegrees>
              <LongitudeDegrees>20.014716088771820068359375</LongitudeDegrees>
            </Position>
            <AltitudeMeters>687</AltitudeMeters>
            <DistanceMeters>NAN</DistanceMeters>
          </Trackpoint>
          <Trackpoint>
            <Time>2022-09-19T11:58:20.000Z</Time>
            <Position>
              <LatitudeDegrees>49.38605010509490966796875</LatitudeDegrees>
              <LongitudeDegrees>20.01481541432440280914306640625</LongitudeDegrees>
            </Position>
            <AltitudeMeters>686.79998779296875</AltitudeMeters>
            <DistanceMeters>NAN</DistanceMeters>
          </Trackpoint>
          <Trackpoint>
            <Time>2022-09-19T11:58:28.000Z</Time>
            <Position>
              <LatitudeDegrees>49.38634405843913555145263671875</LatitudeDegrees>
              <LongitudeDegrees>20.015010125935077667236328125</LongitudeDegrees>
            </Position>
            <AltitudeMeters>686.4000244140625</AltitudeMeters>
            <DistanceMeters>NAN</DistanceMeters>
          </Trackpoint>
          <Trackpoint>
            <Time>2022-09-19T11:58:30.000Z</Time>
            <Position>
              <LatitudeDegrees>49.38642092049121856689453125</LatitudeDegrees>
              <LongitudeDegrees>20.01505178399384021759033203125</LongitudeDegrees>
            </Position>
            <AltitudeMeters>686.20001220703125</AltitudeMeters>
            <DistanceMeters>NAN</DistanceMeters>
          </Trackpoint>
          <Trackpoint>
            <Time>2022-09-19T11:58:35.000Z</Time>
            <Position>
              <LatitudeDegrees>49.386635161936283111572265625</LatitudeDegrees>
              <LongitudeDegrees>20.0151511095464229583740234375</LongitudeDegrees>
            </Position>
            <AltitudeMeters>685.79998779296875</AltitudeMeters>
            <DistanceMeters>NAN</DistanceMeters>
          </Trackpoint>
          <Trackpoint>
            <Time>2022-09-19T11:58:41.000Z</Time>
            <Position>
              <LatitudeDegrees>49.38686071895062923431396484375</LatitudeDegrees>
              <LongitudeDegrees>20.01525999046862125396728515625</LongitudeDegrees>
            </Position>
            <AltitudeMeters>686</AltitudeMeters>
            <DistanceMeters>NAN</DistanceMeters>
          </Trackpoint>
          <Trackpoint>
            <Time>2022-09-19T11:58:43.000Z</Time>
            <Position>
              <LatitudeDegrees>49.3869374133646488189697265625</LatitudeDegrees>
              <LongitudeDegrees>20.0153036601841449737548828125</LongitudeDegrees>
            </Position>
            <AltitudeMeters>685.79998779296875</AltitudeMeters>
            <DistanceMeters>NAN</DistanceMeters>
          </Trackpoint>
          <Trackpoint>
            <Time>2022-09-19T11:58:44.000Z</Time>
            <Position>
              <LatitudeDegrees>49.3869742937386035919189453125</LatitudeDegrees>
              <LongitudeDegrees>20.01532352529466152191162109375</LongitudeDegrees>
            </Position>
            <AltitudeMeters>685.79998779296875</AltitudeMeters>
            <DistanceMeters>NAN</DistanceMeters>
          </Trackpoint>
          <Trackpoint>
            <Time>2022-09-19T11:58:50.000Z</Time>
            <Position>
              <LatitudeDegrees>49.38719264231622219085693359375</LatitudeDegrees>
              <LongitudeDegrees>20.015417821705341339111328125</LongitudeDegrees>
            </Position>
            <AltitudeMeters>685.20001220703125</AltitudeMeters>
            <DistanceMeters>NAN</DistanceMeters>
          </Trackpoint>
          <Trackpoint>
            <Time>2022-09-19T11:58:51.000Z</Time>
            <Position>
              <LatitudeDegrees>49.3872210569679737091064453125</LatitudeDegrees>
              <LongitudeDegrees>20.01543031074106693267822265625</LongitudeDegrees>
            </Position>
            <AltitudeMeters>685.20001220703125</AltitudeMeters>
            <DistanceMeters>NAN</DistanceMeters>
          </Trackpoint>
          <Trackpoint>
            <Time>2022-09-19T11:58:59.000Z</Time>
            <Position>
              <LatitudeDegrees>49.38750629313290119171142578125</LatitudeDegrees>
              <LongitudeDegrees>20.0155757367610931396484375</LongitudeDegrees>
            </Position>
            <AltitudeMeters>685.20001220703125</AltitudeMeters>
            <DistanceMeters>NAN</DistanceMeters>
          </Trackpoint>
          <Trackpoint>
            <Time>2022-09-19T11:59:03.000Z</Time>
            <Position>
              <LatitudeDegrees>49.38765951432287693023681640625</LatitudeDegrees>
              <LongitudeDegrees>20.01566567458212375640869140625</LongitudeDegrees>
            </Position>
            <AltitudeMeters>685.4000244140625</AltitudeMeters>
            <DistanceMeters>NAN</DistanceMeters>
          </Trackpoint>
          <Trackpoint>
            <Time>2022-09-19T11:59:09.000Z</Time>
            <Position>
              <LatitudeDegrees>49.3878651224076747894287109375</LatitudeDegrees>
              <LongitudeDegrees>20.0157928280532360076904296875</LongitudeDegrees>
            </Position>
            <AltitudeMeters>685</AltitudeMeters>
            <DistanceMeters>NAN</DistanceMeters>
          </Trackpoint>
          <Trackpoint>
            <Time>2022-09-19T11:59:14.000Z</Time>
            <Position>
              <LatitudeDegrees>49.38805597834289073944091796875</LatitudeDegrees>
              <LongitudeDegrees>20.01590036787092685699462890625</LongitudeDegrees>
            </Position>
            <AltitudeMeters>684.20001220703125</AltitudeMeters>
            <DistanceMeters>NAN</DistanceMeters>
          </Trackpoint>
          <Trackpoint>
            <Time>2022-09-19T11:59:18.000Z</Time>
            <Position>
              <LatitudeDegrees>49.3882034160196781158447265625</LatitudeDegrees>
              <LongitudeDegrees>20.01598301343619823455810546875</LongitudeDegrees>
            </Position>
            <AltitudeMeters>683.79998779296875</AltitudeMeters>
            <DistanceMeters>NAN</DistanceMeters>
          </Trackpoint>
          <Trackpoint>
            <Time>2022-09-19T11:59:25.000Z</Time>
            <Position>
              <LatitudeDegrees>49.3884770013391971588134765625</LatitudeDegrees>
              <LongitudeDegrees>20.01610388047993183135986328125</LongitudeDegrees>
            </Position>
            <AltitudeMeters>683.79998779296875</AltitudeMeters>
            <DistanceMeters>NAN</DistanceMeters>
          </Trackpoint>
          <Trackpoint>
            <Time>2022-09-19T11:59:31.000Z</Time>
            <Position>
              <LatitudeDegrees>49.3887753970921039581298828125</LatitudeDegrees>
              <LongitudeDegrees>20.0162310339510440826416015625</LongitudeDegrees>
            </Position>
            <AltitudeMeters>684.20001220703125</AltitudeMeters>
            <DistanceMeters>NAN</DistanceMeters>
          </Trackpoint>
          <Trackpoint>
            <Time>2022-09-19T11:59:42.000Z</Time>
            <Position>
              <LatitudeDegrees>49.38927101902663707733154296875</LatitudeDegrees>
              <LongitudeDegrees>20.01644737087190151214599609375</LongitudeDegrees>
            </Position>
            <AltitudeMeters>684</AltitudeMeters>
            <DistanceMeters>NAN</DistanceMeters>
          </Trackpoint>
          <Trackpoint>
            <Time>2022-09-19T11:59:47.000Z</Time>
            <Position>
              <LatitudeDegrees>49.389475286006927490234375</LatitudeDegrees>
              <LongitudeDegrees>20.0165368057787418365478515625</LongitudeDegrees>
            </Position>
            <AltitudeMeters>683.5999755859375</AltitudeMeters>
            <DistanceMeters>NAN</DistanceMeters>
          </Trackpoint>
          <Trackpoint>
            <Time>2022-09-19T11:59:50.000Z</Time>
            <Position>
              <LatitudeDegrees>49.389594309031963348388671875</LatitudeDegrees>
              <LongitudeDegrees>20.01659774221479892730712890625</LongitudeDegrees>
            </Position>
            <AltitudeMeters>683.4000244140625</AltitudeMeters>
            <DistanceMeters>NAN</DistanceMeters>
          </Trackpoint>
          <Trackpoint>
            <Time>2022-09-19T11:59:53.000Z</Time>
            <Position>
              <LatitudeDegrees>49.38973453827202320098876953125</LatitudeDegrees>
              <LongitudeDegrees>20.016638897359371185302734375</LongitudeDegrees>
            </Position>
            <AltitudeMeters>683.20001220703125</AltitudeMeters>
            <DistanceMeters>NAN</DistanceMeters>
          </Trackpoint>
          <Trackpoint>
            <Time>2022-09-19T11:59:54.000Z</Time>
            <Position>
              <LatitudeDegrees>49.3897627852857112884521484375</LatitudeDegrees>
              <LongitudeDegrees>20.01664032228291034698486328125</LongitudeDegrees>
            </Position>
            <AltitudeMeters>683.20001220703125</AltitudeMeters>
            <DistanceMeters>NAN</DistanceMeters>
          </Trackpoint>
          <Trackpoint>
            <Time>2022-09-19T11:59:56.000Z</Time>
            <Position>
              <LatitudeDegrees>49.3898683972656726837158203125</LatitudeDegrees>
              <LongitudeDegrees>20.01666697673499584197998046875</LongitudeDegrees>
            </Position>
            <AltitudeMeters>683.20001220703125</AltitudeMeters>
            <DistanceMeters>NAN</DistanceMeters>
          </Trackpoint>
          <Trackpoint>
            <Time>2022-09-19T11:59:59.000Z</Time>
            <Position>
              <LatitudeDegrees>49.3899996578693389892578125</LatitudeDegrees>
              <LongitudeDegrees>20.016692541539669036865234375</LongitudeDegrees>
            </Position>
            <AltitudeMeters>683.20001220703125</AltitudeMeters>
            <DistanceMeters>NAN</DistanceMeters>
          </Trackpoint>
          <Trackpoint>
            <Time>2022-09-19T12:00:02.000Z</Time>
            <Position>
              <LatitudeDegrees>49.3901337683200836181640625</LatitudeDegrees>
              <LongitudeDegrees>20.0167317688465118408203125</LongitudeDegrees>
            </Position>
            <AltitudeMeters>683.20001220703125</AltitudeMeters>
            <DistanceMeters>NAN</DistanceMeters>
          </Trackpoint>
          <Trackpoint>
            <Time>2022-09-19T12:00:09.000Z</Time>
            <Position>
              <LatitudeDegrees>49.3904511071741580963134765625</LatitudeDegrees>
              <LongitudeDegrees>20.01679857261478900909423828125</LongitudeDegrees>
            </Position>
            <AltitudeMeters>683</AltitudeMeters>
            <DistanceMeters>NAN</DistanceMeters>
          </Trackpoint>
          <Trackpoint>
            <Time>2022-09-19T12:00:16.000Z</Time>
            <Position>
              <LatitudeDegrees>49.39070843160152435302734375</LatitudeDegrees>
              <LongitudeDegrees>20.01693092286586761474609375</LongitudeDegrees>
            </Position>
            <AltitudeMeters>682.79998779296875</AltitudeMeters>
            <DistanceMeters>NAN</DistanceMeters>
          </Trackpoint>
          <Trackpoint>
            <Time>2022-09-19T12:00:23.000Z</Time>
            <Position>
              <LatitudeDegrees>49.390961565077304840087890625</LatitudeDegrees>
              <LongitudeDegrees>20.01717776991426944732666015625</LongitudeDegrees>
            </Position>
            <AltitudeMeters>682.20001220703125</AltitudeMeters>
            <DistanceMeters>NAN</DistanceMeters>
          </Trackpoint>
          <Trackpoint>
            <Time>2022-09-19T12:00:24.000Z</Time>
            <Position>
              <LatitudeDegrees>49.3910009600222110748291015625</LatitudeDegrees>
              <LongitudeDegrees>20.01721967943012714385986328125</LongitudeDegrees>
            </Position>
            <AltitudeMeters>682</AltitudeMeters>
            <DistanceMeters>NAN</DistanceMeters>
          </Trackpoint>
          <Trackpoint>
            <Time>2022-09-19T12:00:27.000Z</Time>
            <Position>
              <LatitudeDegrees>49.3911126069724559783935546875</LatitudeDegrees>
              <LongitudeDegrees>20.01733995974063873291015625</LongitudeDegrees>
            </Position>
            <AltitudeMeters>681.79998779296875</AltitudeMeters>
            <DistanceMeters>NAN</DistanceMeters>
          </Trackpoint>
          <Trackpoint>
            <Time>2022-09-19T12:00:32.000Z</Time>
            <Position>
              <LatitudeDegrees>49.391322322189807891845703125</LatitudeDegrees>
              <LongitudeDegrees>20.01754757948219776153564453125</LongitudeDegrees>
            </Position>
            <AltitudeMeters>681.4000244140625</AltitudeMeters>
            <DistanceMeters>NAN</DistanceMeters>
          </Trackpoint>
          <Trackpoint>
            <Time>2022-09-19T12:00:35.000Z</Time>
            <Position>
              <LatitudeDegrees>49.39144201576709747314453125</LatitudeDegrees>
              <LongitudeDegrees>20.0176747329533100128173828125</LongitudeDegrees>
            </Position>
            <AltitudeMeters>681.4000244140625</AltitudeMeters>
            <DistanceMeters>NAN</DistanceMeters>
          </Trackpoint>
          <Trackpoint>
            <Time>2022-09-19T12:00:38.000Z</Time>
            <Position>
              <LatitudeDegrees>49.391568414866924285888671875</LatitudeDegrees>
              <LongitudeDegrees>20.0177917443215847015380859375</LongitudeDegrees>
            </Position>
            <AltitudeMeters>681.20001220703125</AltitudeMeters>
            <DistanceMeters>NAN</DistanceMeters>
          </Trackpoint>
          <Trackpoint>
            <Time>2022-09-19T12:00:41.000Z</Time>
            <Position>
              <LatitudeDegrees>49.3916959874331951141357421875</LatitudeDegrees>
              <LongitudeDegrees>20.0179168023169040679931640625</LongitudeDegrees>
            </Position>
            <AltitudeMeters>681.20001220703125</AltitudeMeters>
            <DistanceMeters>NAN</DistanceMeters>
          </Trackpoint>
          <Trackpoint>
            <Time>2022-09-19T12:00:45.000Z</Time>
            <Position>
              <LatitudeDegrees>49.39187292940914630889892578125</LatitudeDegrees>
              <LongitudeDegrees>20.01808351837098598480224609375</LongitudeDegrees>
            </Position>
            <AltitudeMeters>681</AltitudeMeters>
            <DistanceMeters>NAN</DistanceMeters>
          </Trackpoint>
          <Trackpoint>
            <Time>2022-09-19T12:00:50.000Z</Time>
            <Position>
              <LatitudeDegrees>49.3920865841209888458251953125</LatitudeDegrees>
              <LongitudeDegrees>20.01831653527915477752685546875</LongitudeDegrees>
            </Position>
            <AltitudeMeters>680.4000244140625</AltitudeMeters>
            <DistanceMeters>NAN</DistanceMeters>
          </Trackpoint>
          <Trackpoint>
            <Time>2022-09-19T12:00:54.000Z</Time>
            <Position>
              <LatitudeDegrees>49.39225363545119762420654296875</LatitudeDegrees>
              <LongitudeDegrees>20.018534548580646514892578125</LongitudeDegrees>
            </Position>
            <AltitudeMeters>680</AltitudeMeters>
            <DistanceMeters>NAN</DistanceMeters>
          </Trackpoint>
          <Trackpoint>
            <Time>2022-09-19T12:00:58.000Z</Time>
            <Position>
              <LatitudeDegrees>49.3924128077924251556396484375</LatitudeDegrees>
              <LongitudeDegrees>20.01876664347946643829345703125</LongitudeDegrees>
            </Position>
            <AltitudeMeters>679.4000244140625</AltitudeMeters>
            <DistanceMeters>NAN</DistanceMeters>
          </Trackpoint>
          <Trackpoint>
            <Time>2022-09-19T12:01:03.000Z</Time>
            <Position>
              <LatitudeDegrees>49.3925879895687103271484375</LatitudeDegrees>
              <LongitudeDegrees>20.01902170479297637939453125</LongitudeDegrees>
            </Position>
            <AltitudeMeters>679</AltitudeMeters>
            <DistanceMeters>NAN</DistanceMeters>
          </Trackpoint>
          <Trackpoint>
            <Time>2022-09-19T12:01:04.000Z</Time>
            <Position>
              <LatitudeDegrees>49.3926094472408294677734375</LatitudeDegrees>
              <LongitudeDegrees>20.01905866898596286773681640625</LongitudeDegrees>
            </Position>
            <AltitudeMeters>678.79998779296875</AltitudeMeters>
            <DistanceMeters>NAN</DistanceMeters>
          </Trackpoint>
          <Trackpoint>
            <Time>2022-09-19T12:01:10.000Z</Time>
            <Position>
              <LatitudeDegrees>49.3927014805376529693603515625</LatitudeDegrees>
              <LongitudeDegrees>20.0192240439355373382568359375</LongitudeDegrees>
            </Position>
            <AltitudeMeters>678.20001220703125</AltitudeMeters>
            <DistanceMeters>NAN</DistanceMeters>
          </Trackpoint>
          <Trackpoint>
            <Time>2022-09-19T12:01:11.000Z</Time>
            <Position>
              <LatitudeDegrees>49.39270961098372936248779296875</LatitudeDegrees>
              <LongitudeDegrees>20.01924240030348300933837890625</LongitudeDegrees>
            </Position>
            <AltitudeMeters>678.20001220703125</AltitudeMeters>
            <DistanceMeters>NAN</DistanceMeters>
          </Trackpoint>
          <Trackpoint>
            <Time>2022-09-19T12:01:15.000Z</Time>
            <Position>
              <LatitudeDegrees>49.39271464012563228607177734375</LatitudeDegrees>
              <LongitudeDegrees>20.0192602537572383880615234375</LongitudeDegrees>
            </Position>
            <AltitudeMeters>678.20001220703125</AltitudeMeters>
            <DistanceMeters>NAN</DistanceMeters>
          </Trackpoint>
          <Trackpoint>
            <Time>2022-09-19T12:01:20.000Z</Time>
            <Position>
              <LatitudeDegrees>49.39272545278072357177734375</LatitudeDegrees>
              <LongitudeDegrees>20.01926670782268047332763671875</LongitudeDegrees>
            </Position>
            <AltitudeMeters>678</AltitudeMeters>
            <DistanceMeters>NAN</DistanceMeters>
          </Trackpoint>
          <Trackpoint>
            <Time>2022-09-19T12:01:21.000Z</Time>
            <Position>
              <LatitudeDegrees>49.39273894764482975006103515625</LatitudeDegrees>
              <LongitudeDegrees>20.01927324570715427398681640625</LongitudeDegrees>
            </Position>
            <AltitudeMeters>678.20001220703125</AltitudeMeters>
            <DistanceMeters>NAN</DistanceMeters>
          </Trackpoint>
          <Trackpoint>
            <Time>2022-09-19T12:01:25.000Z</Time>
            <Position>
              <LatitudeDegrees>49.3927946873009204864501953125</LatitudeDegrees>
              <LongitudeDegrees>20.0193356908857822418212890625</LongitudeDegrees>
            </Position>
            <AltitudeMeters>678.20001220703125</AltitudeMeters>
            <DistanceMeters>NAN</DistanceMeters>
          </Trackpoint>
          <Trackpoint>
            <Time>2022-09-19T12:01:31.000Z</Time>
            <Position>
              <LatitudeDegrees>49.392905496060848236083984375</LatitudeDegrees>
              <LongitudeDegrees>20.01944272778928279876708984375</LongitudeDegrees>
            </Position>
            <AltitudeMeters>677.79998779296875</AltitudeMeters>
            <DistanceMeters>NAN</DistanceMeters>
          </Trackpoint>
          <Trackpoint>
            <Time>2022-09-19T12:01:35.000Z</Time>
            <Position>
              <LatitudeDegrees>49.3929795920848846435546875</LatitudeDegrees>
              <LongitudeDegrees>20.01952319405972957611083984375</LongitudeDegrees>
            </Position>
            <AltitudeMeters>677.79998779296875</AltitudeMeters>
            <DistanceMeters>NAN</DistanceMeters>
          </Trackpoint>
          <Trackpoint>
            <Time>2022-09-19T12:01:39.000Z</Time>
            <Position>
              <LatitudeDegrees>49.39304455183446407318115234375</LatitudeDegrees>
              <LongitudeDegrees>20.01956351101398468017578125</LongitudeDegrees>
            </Position>
            <AltitudeMeters>677.5999755859375</AltitudeMeters>
            <DistanceMeters>NAN</DistanceMeters>
          </Trackpoint>
          <Trackpoint>
            <Time>2022-09-19T12:01:41.000Z</Time>
            <Position>
              <LatitudeDegrees>49.3930481560528278350830078125</LatitudeDegrees>
              <LongitudeDegrees>20.01957113854587078094482421875</LongitudeDegrees>
            </Position>
            <AltitudeMeters>677.4000244140625</AltitudeMeters>
            <DistanceMeters>NAN</DistanceMeters>
          </Trackpoint>
          <Trackpoint>
            <Time>2022-09-19T12:01:45.000Z</Time>
            <Position>
              <LatitudeDegrees>49.3930481560528278350830078125</LatitudeDegrees>
              <LongitudeDegrees>20.01957113854587078094482421875</LongitudeDegrees>
            </Position>
            <AltitudeMeters>677.4000244140625</AltitudeMeters>
            <DistanceMeters>NAN</DistanceMeters>
          </Trackpoint>
          <Trackpoint>
            <Time>2022-09-19T12:01:52.000Z</Time>
            <Position>
              <LatitudeDegrees>49.39304656349122524261474609375</LatitudeDegrees>
              <LongitudeDegrees>20.01957600004971027374267578125</LongitudeDegrees>
            </Position>
            <AltitudeMeters>677.4000244140625</AltitudeMeters>
            <DistanceMeters>NAN</DistanceMeters>
          </Trackpoint>
          <Trackpoint>
            <Time>2022-09-19T12:01:56.000Z</Time>
            <Position>
              <LatitudeDegrees>49.39304656349122524261474609375</LatitudeDegrees>
              <LongitudeDegrees>20.01957600004971027374267578125</LongitudeDegrees>
            </Position>
            <AltitudeMeters>677.20001220703125</AltitudeMeters>
            <DistanceMeters>NAN</DistanceMeters>
          </Trackpoint>
          <Trackpoint>
            <Time>2022-09-19T12:02:07.000Z</Time>
            <Position>
              <LatitudeDegrees>49.3930961005389690399169921875</LatitudeDegrees>
              <LongitudeDegrees>20.01958974637091159820556640625</LongitudeDegrees>
            </Position>
            <AltitudeMeters>677.20001220703125</AltitudeMeters>
            <DistanceMeters>NAN</DistanceMeters>
          </Trackpoint>
          <Trackpoint>
            <Time>2022-09-19T12:02:14.000Z</Time>
            <Position>
              <LatitudeDegrees>49.39315670169889926910400390625</LatitudeDegrees>
              <LongitudeDegrees>20.01960349269211292266845703125</LongitudeDegrees>
            </Position>
            <AltitudeMeters>676.79998779296875</AltitudeMeters>
            <DistanceMeters>NAN</DistanceMeters>
          </Trackpoint>
          <Trackpoint>
            <Time>2022-09-19T12:02:18.000Z</Time>
            <Position>
              <LatitudeDegrees>49.3931888043880462646484375</LatitudeDegrees>
              <LongitudeDegrees>20.01963953487575054168701171875</LongitudeDegrees>
            </Position>
            <AltitudeMeters>676.79998779296875</AltitudeMeters>
            <DistanceMeters>NAN</DistanceMeters>
          </Trackpoint>
          <Trackpoint>
            <Time>2022-09-19T12:02:22.000Z</Time>
            <Position>
              <LatitudeDegrees>49.39319659955799579620361328125</LatitudeDegrees>
              <LongitudeDegrees>20.01968848519027233123779296875</LongitudeDegrees>
            </Position>
            <AltitudeMeters>677</AltitudeMeters>
            <DistanceMeters>NAN</DistanceMeters>
          </Trackpoint>
          <Trackpoint>
            <Time>2022-09-19T12:02:28.000Z</Time>
            <Position>
              <LatitudeDegrees>49.39323264174163341522216796875</LatitudeDegrees>
              <LongitudeDegrees>20.0197224318981170654296875</LongitudeDegrees>
            </Position>
            <AltitudeMeters>677.20001220703125</AltitudeMeters>
            <DistanceMeters>NAN</DistanceMeters>
          </Trackpoint>
          <Trackpoint>
            <Time>2022-09-19T12:02:30.000Z</Time>
            <Position>
              <LatitudeDegrees>49.39324982464313507080078125</LatitudeDegrees>
              <LongitudeDegrees>20.01973458565771579742431640625</LongitudeDegrees>
            </Position>
            <AltitudeMeters>677.20001220703125</AltitudeMeters>
            <DistanceMeters>NAN</DistanceMeters>
          </Trackpoint>
          <Trackpoint>
            <Time>2022-09-19T12:02:35.000Z</Time>
            <Position>
              <LatitudeDegrees>49.39329567365348339080810546875</LatitudeDegrees>
              <LongitudeDegrees>20.01976744271814823150634765625</LongitudeDegrees>
            </Position>
            <AltitudeMeters>677</AltitudeMeters>
            <DistanceMeters>NAN</DistanceMeters>
          </Trackpoint>
          <Trackpoint>
            <Time>2022-09-19T12:02:36.000Z</Time>
            <Position>
              <LatitudeDegrees>49.3933068215847015380859375</LatitudeDegrees>
              <LongitudeDegrees>20.01977096311748027801513671875</LongitudeDegrees>
            </Position>
            <AltitudeMeters>677</AltitudeMeters>
            <DistanceMeters>NAN</DistanceMeters>
          </Trackpoint>
          <Trackpoint>
            <Time>2022-09-19T12:02:41.000Z</Time>
            <Position>
              <LatitudeDegrees>49.3933636508882045745849609375</LatitudeDegrees>
              <LongitudeDegrees>20.01979661174118518829345703125</LongitudeDegrees>
            </Position>
            <AltitudeMeters>677</AltitudeMeters>
            <DistanceMeters>NAN</DistanceMeters>
          </Trackpoint>
          <Trackpoint>
            <Time>2022-09-19T12:02:44.000Z</Time>
            <Position>
              <LatitudeDegrees>49.39339256845414638519287109375</LatitudeDegrees>
              <LongitudeDegrees>20.01981605775654315948486328125</LongitudeDegrees>
            </Position>
            <AltitudeMeters>677</AltitudeMeters>
            <DistanceMeters>NAN</DistanceMeters>
          </Trackpoint>
          <Trackpoint>
            <Time>2022-09-19T12:02:45.000Z</Time>
            <Position>
              <LatitudeDegrees>49.39339256845414638519287109375</LatitudeDegrees>
              <LongitudeDegrees>20.01981605775654315948486328125</LongitudeDegrees>
            </Position>
            <AltitudeMeters>677</AltitudeMeters>
            <DistanceMeters>NAN</DistanceMeters>
          </Trackpoint>
          <Trackpoint>
            <Time>2022-09-19T12:02:54.000Z</Time>
            <Position>
              <LatitudeDegrees>49.39348124898970127105712890625</LatitudeDegrees>
              <LongitudeDegrees>20.01989074051380157470703125</LongitudeDegrees>
            </Position>
            <AltitudeMeters>677.20001220703125</AltitudeMeters>
            <DistanceMeters>NAN</DistanceMeters>
          </Trackpoint>
          <Trackpoint>
            <Time>2022-09-19T12:03:05.000Z</Time>
            <Position>
              <LatitudeDegrees>49.3935830891132354736328125</LatitudeDegrees>
              <LongitudeDegrees>20.019940026104450225830078125</LongitudeDegrees>
            </Position>
            <AltitudeMeters>677</AltitudeMeters>
            <DistanceMeters>NAN</DistanceMeters>
          </Trackpoint>
          <Trackpoint>
            <Time>2022-09-19T12:03:07.000Z</Time>
            <Position>
              <LatitudeDegrees>49.3936208076775074005126953125</LatitudeDegrees>
              <LongitudeDegrees>20.01994212158024311065673828125</LongitudeDegrees>
            </Position>
            <AltitudeMeters>677</AltitudeMeters>
            <DistanceMeters>NAN</DistanceMeters>
          </Trackpoint>
          <Trackpoint>
            <Time>2022-09-19T12:03:17.000Z</Time>
            <Position>
              <LatitudeDegrees>49.39375936053693294525146484375</LatitudeDegrees>
              <LongitudeDegrees>20.02000079490244388580322265625</LongitudeDegrees>
            </Position>
            <AltitudeMeters>677.4000244140625</AltitudeMeters>
            <DistanceMeters>NAN</DistanceMeters>
          </Trackpoint>
          <Trackpoint>
            <Time>2022-09-19T12:03:22.000Z</Time>
            <Position>
              <LatitudeDegrees>49.39375542104244232177734375</LatitudeDegrees>
              <LongitudeDegrees>20.02001278102397918701171875</LongitudeDegrees>
            </Position>
            <AltitudeMeters>677.20001220703125</AltitudeMeters>
            <DistanceMeters>NAN</DistanceMeters>
          </Trackpoint>
          <Trackpoint>
            <Time>2022-09-19T12:03:25.000Z</Time>
            <Position>
              <LatitudeDegrees>49.39378400333225727081298828125</LatitudeDegrees>
              <LongitudeDegrees>20.02002845518290996551513671875</LongitudeDegrees>
            </Position>
            <AltitudeMeters>677</AltitudeMeters>
            <DistanceMeters>NAN</DistanceMeters>
          </Trackpoint>
          <Trackpoint>
            <Time>2022-09-19T12:03:33.000Z</Time>
            <Position>
              <LatitudeDegrees>49.3938259966671466827392578125</LatitudeDegrees>
              <LongitudeDegrees>20.0200496613979339599609375</LongitudeDegrees>
            </Position>
            <AltitudeMeters>677.20001220703125</AltitudeMeters>
            <DistanceMeters>NAN</DistanceMeters>
          </Trackpoint>
          <Trackpoint>
            <Time>2022-09-19T12:03:42.000Z</Time>
            <Position>
              <LatitudeDegrees>49.3938860110938549041748046875</LatitudeDegrees>
              <LongitudeDegrees>20.02006449736654758453369140625</LongitudeDegrees>
            </Position>
            <AltitudeMeters>677.4000244140625</AltitudeMeters>
            <DistanceMeters>NAN</DistanceMeters>
          </Trackpoint>
          <Trackpoint>
            <Time>2022-09-19T12:03:49.000Z</Time>
            <Position>
              <LatitudeDegrees>49.39396454952657222747802734375</LatitudeDegrees>
              <LongitudeDegrees>20.02010238356888294219970703125</LongitudeDegrees>
            </Position>
            <AltitudeMeters>677.4000244140625</AltitudeMeters>
            <DistanceMeters>NAN</DistanceMeters>
          </Trackpoint>
          <Trackpoint>
            <Time>2022-09-19T12:04:01.000Z</Time>
            <Position>
              <LatitudeDegrees>49.3939778767526149749755859375</LatitudeDegrees>
              <LongitudeDegrees>20.020106993615627288818359375</LongitudeDegrees>
            </Position>
            <AltitudeMeters>677.20001220703125</AltitudeMeters>
            <DistanceMeters>NAN</DistanceMeters>
          </Trackpoint>
          <Trackpoint>
            <Time>2022-09-19T12:04:09.000Z</Time>
            <Position>
              <LatitudeDegrees>49.39402506686747074127197265625</LatitudeDegrees>
              <LongitudeDegrees>20.02010171301662921905517578125</LongitudeDegrees>
            </Position>
            <AltitudeMeters>677.20001220703125</AltitudeMeters>
            <DistanceMeters>NAN</DistanceMeters>
          </Trackpoint>
          <Trackpoint>
            <Time>2022-09-19T12:04:23.000Z</Time>
            <Position>
              <LatitudeDegrees>49.3940496258437633514404296875</LatitudeDegrees>
              <LongitudeDegrees>20.02010858617722988128662109375</LongitudeDegrees>
            </Position>
            <AltitudeMeters>677.20001220703125</AltitudeMeters>
            <DistanceMeters>NAN</DistanceMeters>
          </Trackpoint>
          <Trackpoint>
            <Time>2022-09-19T12:04:25.000Z</Time>
            <Position>
              <LatitudeDegrees>49.39409983344376087188720703125</LatitudeDegrees>
              <LongitudeDegrees>20.02011663280427455902099609375</LongitudeDegrees>
            </Position>
            <AltitudeMeters>677.20001220703125</AltitudeMeters>
            <DistanceMeters>NAN</DistanceMeters>
          </Trackpoint>
          <Trackpoint>
            <Time>2022-09-19T12:04:30.000Z</Time>
            <Position>
              <LatitudeDegrees>49.394264034926891326904296875</LatitudeDegrees>
              <LongitudeDegrees>20.02013809047639369964599609375</LongitudeDegrees>
            </Position>
            <AltitudeMeters>677.20001220703125</AltitudeMeters>
            <DistanceMeters>NAN</DistanceMeters>
          </Trackpoint>
          <Trackpoint>
            <Time>2022-09-19T12:04:38.000Z</Time>
            <Position>
              <LatitudeDegrees>49.394501745700836181640625</LatitudeDegrees>
              <LongitudeDegrees>20.02019240520894527435302734375</LongitudeDegrees>
            </Position>
            <AltitudeMeters>677.20001220703125</AltitudeMeters>
            <DistanceMeters>NAN</DistanceMeters>
          </Trackpoint>
          <Trackpoint>
            <Time>2022-09-19T12:04:44.000Z</Time>
            <Position>
              <LatitudeDegrees>49.3946869857609272003173828125</LatitudeDegrees>
              <LongitudeDegrees>20.020218305289745330810546875</LongitudeDegrees>
            </Position>
            <AltitudeMeters>677.20001220703125</AltitudeMeters>
            <DistanceMeters>NAN</DistanceMeters>
          </Trackpoint>
          <Trackpoint>
            <Time>2022-09-19T12:04:52.000Z</Time>
            <Position>
              <LatitudeDegrees>49.3949977867305278778076171875</LatitudeDegrees>
              <LongitudeDegrees>20.02024571411311626434326171875</LongitudeDegrees>
            </Position>
            <AltitudeMeters>676.79998779296875</AltitudeMeters>
            <DistanceMeters>NAN</DistanceMeters>
          </Trackpoint>
          <Trackpoint>
            <Time>2022-09-19T12:04:59.000Z</Time>
            <Position>
              <LatitudeDegrees>49.39529366791248321533203125</LatitudeDegrees>
              <LongitudeDegrees>20.02026666887104511260986328125</LongitudeDegrees>
            </Position>
            <AltitudeMeters>676.79998779296875</AltitudeMeters>
            <DistanceMeters>NAN</DistanceMeters>
          </Trackpoint>
          <Trackpoint>
            <Time>2022-09-19T12:05:06.000Z</Time>
            <Position>
              <LatitudeDegrees>49.39548946917057037353515625</LatitudeDegrees>
              <LongitudeDegrees>20.02030891366302967071533203125</LongitudeDegrees>
            </Position>
            <AltitudeMeters>676.79998779296875</AltitudeMeters>
            <DistanceMeters>NAN</DistanceMeters>
          </Trackpoint>
          <Trackpoint>
            <Time>2022-09-19T12:05:08.000Z</Time>
            <Position>
              <LatitudeDegrees>49.39555577002465724945068359375</LatitudeDegrees>
              <LongitudeDegrees>20.0203247554600238800048828125</LongitudeDegrees>
            </Position>
            <AltitudeMeters>676.79998779296875</AltitudeMeters>
            <DistanceMeters>NAN</DistanceMeters>
          </Trackpoint>
          <Trackpoint>
            <Time>2022-09-19T12:05:15.000Z</Time>
            <Position>
              <LatitudeDegrees>49.39575039781630039215087890625</LatitudeDegrees>
              <LongitudeDegrees>20.0203914754092693328857421875</LongitudeDegrees>
            </Position>
            <AltitudeMeters>676.4000244140625</AltitudeMeters>
            <DistanceMeters>NAN</DistanceMeters>
          </Trackpoint>
          <Trackpoint>
            <Time>2022-09-19T12:05:20.000Z</Time>
            <Position>
              <LatitudeDegrees>49.39577638171613216400146484375</LatitudeDegrees>
              <LongitudeDegrees>20.020409412682056427001953125</LongitudeDegrees>
            </Position>
            <AltitudeMeters>676.4000244140625</AltitudeMeters>
            <DistanceMeters>NAN</DistanceMeters>
          </Trackpoint>
          <Trackpoint>
            <Time>2022-09-19T12:05:27.000Z</Time>
            <Position>
              <LatitudeDegrees>49.39590881578624248504638671875</LatitudeDegrees>
              <LongitudeDegrees>20.020450986921787261962890625</LongitudeDegrees>
            </Position>
            <AltitudeMeters>676.20001220703125</AltitudeMeters>
            <DistanceMeters>NAN</DistanceMeters>
          </Trackpoint>
          <Trackpoint>
            <Time>2022-09-19T12:05:28.000Z</Time>
            <Position>
              <LatitudeDegrees>49.3959335424005985260009765625</LatitudeDegrees>
              <LongitudeDegrees>20.020457021892070770263671875</LongitudeDegrees>
            </Position>
            <AltitudeMeters>676.20001220703125</AltitudeMeters>
            <DistanceMeters>NAN</DistanceMeters>
          </Trackpoint>
          <Trackpoint>
            <Time>2022-09-19T12:05:33.000Z</Time>
            <Position>
              <LatitudeDegrees>49.396102689206600189208984375</LatitudeDegrees>
              <LongitudeDegrees>20.0205172039568424224853515625</LongitudeDegrees>
            </Position>
            <AltitudeMeters>676.20001220703125</AltitudeMeters>
            <DistanceMeters>NAN</DistanceMeters>
          </Trackpoint>
          <Trackpoint>
            <Time>2022-09-19T12:05:35.000Z</Time>
            <Position>
              <LatitudeDegrees>49.3961620330810546875</LatitudeDegrees>
              <LongitudeDegrees>20.02053002826869487762451171875</LongitudeDegrees>
            </Position>
            <AltitudeMeters>676.20001220703125</AltitudeMeters>
            <DistanceMeters>NAN</DistanceMeters>
          </Trackpoint>
          <Trackpoint>
            <Time>2022-09-19T12:05:42.000Z</Time>
            <Position>
              <LatitudeDegrees>49.39644777216017246246337890625</LatitudeDegrees>
              <LongitudeDegrees>20.02062164247035980224609375</LongitudeDegrees>
            </Position>
            <AltitudeMeters>675.79998779296875</AltitudeMeters>
            <DistanceMeters>NAN</DistanceMeters>
          </Trackpoint>
          <Trackpoint>
            <Time>2022-09-19T12:05:43.000Z</Time>
            <Position>
              <LatitudeDegrees>49.3964927829802036285400390625</LatitudeDegrees>
              <LongitudeDegrees>20.0206358917057514190673828125</LongitudeDegrees>
            </Position>
            <AltitudeMeters>675.79998779296875</AltitudeMeters>
            <DistanceMeters>NAN</DistanceMeters>
          </Trackpoint>
          <Trackpoint>
            <Time>2022-09-19T12:05:54.000Z</Time>
            <Position>
              <LatitudeDegrees>49.3968661129474639892578125</LatitudeDegrees>
              <LongitudeDegrees>20.0207562558352947235107421875</LongitudeDegrees>
            </Position>
            <AltitudeMeters>675.5999755859375</AltitudeMeters>
            <DistanceMeters>NAN</DistanceMeters>
          </Trackpoint>
          <Trackpoint>
            <Time>2022-09-19T12:05:58.000Z</Time>
            <Position>
              <LatitudeDegrees>49.3970201723277568817138671875</LatitudeDegrees>
              <LongitudeDegrees>20.0208099000155925750732421875</LongitudeDegrees>
            </Position>
            <AltitudeMeters>675.5999755859375</AltitudeMeters>
            <DistanceMeters>NAN</DistanceMeters>
          </Trackpoint>
          <Trackpoint>
            <Time>2022-09-19T12:06:03.000Z</Time>
            <Position>
              <LatitudeDegrees>49.3972059153020381927490234375</LatitudeDegrees>
              <LongitudeDegrees>20.0208611972630023956298828125</LongitudeDegrees>
            </Position>
            <AltitudeMeters>675.5999755859375</AltitudeMeters>
            <DistanceMeters>NAN</DistanceMeters>
          </Trackpoint>
          <Trackpoint>
            <Time>2022-09-19T12:06:12.000Z</Time>
            <Position>
              <LatitudeDegrees>49.3975059874355792999267578125</LatitudeDegrees>
              <LongitudeDegrees>20.0209580920636653900146484375</LongitudeDegrees>
            </Position>
            <AltitudeMeters>675.20001220703125</AltitudeMeters>
            <DistanceMeters>NAN</DistanceMeters>
          </Trackpoint>
          <Trackpoint>
            <Time>2022-09-19T12:06:20.000Z</Time>
            <Position>
              <LatitudeDegrees>49.39781670458614826202392578125</LatitudeDegrees>
              <LongitudeDegrees>20.02105054445564746856689453125</LongitudeDegrees>
            </Position>
            <AltitudeMeters>675.79998779296875</AltitudeMeters>
            <DistanceMeters>NAN</DistanceMeters>
          </Trackpoint>
          <Trackpoint>
            <Time>2022-09-19T12:06:29.000Z</Time>
            <Position>
              <LatitudeDegrees>49.39815432764589786529541015625</LatitudeDegrees>
              <LongitudeDegrees>20.02116520889103412628173828125</LongitudeDegrees>
            </Position>
            <AltitudeMeters>675.79998779296875</AltitudeMeters>
            <DistanceMeters>NAN</DistanceMeters>
          </Trackpoint>
          <Trackpoint>
            <Time>2022-09-19T12:06:34.000Z</Time>
            <Position>
              <LatitudeDegrees>49.39838767983019351959228515625</LatitudeDegrees>
              <LongitudeDegrees>20.02126545645296573638916015625</LongitudeDegrees>
            </Position>
            <AltitudeMeters>675</AltitudeMeters>
            <DistanceMeters>NAN</DistanceMeters>
          </Trackpoint>
          <Trackpoint>
            <Time>2022-09-19T12:06:35.000Z</Time>
            <Position>
              <LatitudeDegrees>49.39844031818211078643798828125</LatitudeDegrees>
              <LongitudeDegrees>20.02128875814378261566162109375</LongitudeDegrees>
            </Position>
            <AltitudeMeters>674.5999755859375</AltitudeMeters>
            <DistanceMeters>NAN</DistanceMeters>
          </Trackpoint>
          <Trackpoint>
            <Time>2022-09-19T12:06:41.000Z</Time>
            <Position>
              <LatitudeDegrees>49.39876033924520015716552734375</LatitudeDegrees>
              <LongitudeDegrees>20.02146461047232151031494140625</LongitudeDegrees>
            </Position>
            <AltitudeMeters>673.79998779296875</AltitudeMeters>
            <DistanceMeters>NAN</DistanceMeters>
          </Trackpoint>
          <Trackpoint>
            <Time>2022-09-19T12:06:43.000Z</Time>
            <Position>
              <LatitudeDegrees>49.398861341178417205810546875</LatitudeDegrees>
              <LongitudeDegrees>20.02151875756680965423583984375</LongitudeDegrees>
            </Position>
            <AltitudeMeters>673.5999755859375</AltitudeMeters>
            <DistanceMeters>NAN</DistanceMeters>
          </Trackpoint>
          <Trackpoint>
            <Time>2022-09-19T12:06:49.000Z</Time>
            <Position>
              <LatitudeDegrees>49.39911849796772003173828125</LatitudeDegrees>
              <LongitudeDegrees>20.02164624631404876708984375</LongitudeDegrees>
            </Position>
            <AltitudeMeters>673</AltitudeMeters>
            <DistanceMeters>NAN</DistanceMeters>
          </Trackpoint>
          <Trackpoint>
            <Time>2022-09-19T12:06:52.000Z</Time>
            <Position>
              <LatitudeDegrees>49.39931237138807773590087890625</LatitudeDegrees>
              <LongitudeDegrees>20.0216708891093730926513671875</LongitudeDegrees>
            </Position>
            <AltitudeMeters>672.79998779296875</AltitudeMeters>
            <DistanceMeters>NAN</DistanceMeters>
          </Trackpoint>
          <Trackpoint>
            <Time>2022-09-19T12:06:56.000Z</Time>
            <Position>
              <LatitudeDegrees>49.3995159678161144256591796875</LatitudeDegrees>
              <LongitudeDegrees>20.021657645702362060546875</LongitudeDegrees>
            </Position>
            <AltitudeMeters>672.5999755859375</AltitudeMeters>
            <DistanceMeters>NAN</DistanceMeters>
          </Trackpoint>
          <Trackpoint>
            <Time>2022-09-19T12:06:57.000Z</Time>
            <Position>
              <LatitudeDegrees>49.39956198446452617645263671875</LatitudeDegrees>
              <LongitudeDegrees>20.02165085636079311370849609375</LongitudeDegrees>
            </Position>
            <AltitudeMeters>672.4000244140625</AltitudeMeters>
            <DistanceMeters>NAN</DistanceMeters>
          </Trackpoint>
          <Trackpoint>
            <Time>2022-09-19T12:07:04.000Z</Time>
            <Position>
              <LatitudeDegrees>49.3998835980892181396484375</LatitudeDegrees>
              <LongitudeDegrees>20.0216034986078739166259765625</LongitudeDegrees>
            </Position>
            <AltitudeMeters>672.20001220703125</AltitudeMeters>
            <DistanceMeters>NAN</DistanceMeters>
          </Trackpoint>
          <Trackpoint>
            <Time>2022-09-19T12:07:14.000Z</Time>
            <Position>
              <LatitudeDegrees>49.40026958473026752471923828125</LatitudeDegrees>
              <LongitudeDegrees>20.021614730358123779296875</LongitudeDegrees>
            </Position>
            <AltitudeMeters>671.79998779296875</AltitudeMeters>
            <DistanceMeters>NAN</DistanceMeters>
          </Trackpoint>
          <Trackpoint>
            <Time>2022-09-19T12:07:15.000Z</Time>
            <Position>
              <LatitudeDegrees>49.40030311234295368194580078125</LatitudeDegrees>
              <LongitudeDegrees>20.02161749638617038726806640625</LongitudeDegrees>
            </Position>
            <AltitudeMeters>671.5999755859375</AltitudeMeters>
            <DistanceMeters>NAN</DistanceMeters>
          </Trackpoint>
          <Trackpoint>
            <Time>2022-09-19T12:07:19.000Z</Time>
            <Position>
              <LatitudeDegrees>49.400472342967987060546875</LatitudeDegrees>
              <LongitudeDegrees>20.021639876067638397216796875</LongitudeDegrees>
            </Position>
            <AltitudeMeters>671.4000244140625</AltitudeMeters>
            <DistanceMeters>NAN</DistanceMeters>
          </Trackpoint>
          <Trackpoint>
            <Time>2022-09-19T12:07:25.000Z</Time>
            <Position>
              <LatitudeDegrees>49.40072405152022838592529296875</LatitudeDegrees>
              <LongitudeDegrees>20.021670721471309661865234375</LongitudeDegrees>
            </Position>
            <AltitudeMeters>671.20001220703125</AltitudeMeters>
            <DistanceMeters>NAN</DistanceMeters>
          </Trackpoint>
          <Trackpoint>
            <Time>2022-09-19T12:07:36.000Z</Time>
            <Position>
              <LatitudeDegrees>49.40119343809783458709716796875</LatitudeDegrees>
              <LongitudeDegrees>20.02175093628466129302978515625</LongitudeDegrees>
            </Position>
            <AltitudeMeters>670.79998779296875</AltitudeMeters>
            <DistanceMeters>NAN</DistanceMeters>
          </Trackpoint>
          <Trackpoint>
            <Time>2022-09-19T12:07:43.000Z</Time>
            <Position>
              <LatitudeDegrees>49.40150306560099124908447265625</LatitudeDegrees>
              <LongitudeDegrees>20.02180256880819797515869140625</LongitudeDegrees>
            </Position>
            <AltitudeMeters>670.4000244140625</AltitudeMeters>
            <DistanceMeters>NAN</DistanceMeters>
          </Trackpoint>
          <Trackpoint>
            <Time>2022-09-19T12:07:44.000Z</Time>
            <Position>
              <LatitudeDegrees>49.4015464000403881072998046875</LatitudeDegrees>
              <LongitudeDegrees>20.0218060053884983062744140625</LongitudeDegrees>
            </Position>
            <AltitudeMeters>670.4000244140625</AltitudeMeters>
            <DistanceMeters>NAN</DistanceMeters>
          </Trackpoint>
          <Trackpoint>
            <Time>2022-09-19T12:07:45.000Z</Time>
            <Position>
              <LatitudeDegrees>49.4015873037278652191162109375</LatitudeDegrees>
              <LongitudeDegrees>20.02180927433073520660400390625</LongitudeDegrees>
            </Position>
            <AltitudeMeters>670.4000244140625</AltitudeMeters>
            <DistanceMeters>NAN</DistanceMeters>
          </Trackpoint>
          <Trackpoint>
            <Time>2022-09-19T12:07:53.000Z</Time>
            <Position>
              <LatitudeDegrees>49.40191461704671382904052734375</LatitudeDegrees>
              <LongitudeDegrees>20.02186224795877933502197265625</LongitudeDegrees>
            </Position>
            <AltitudeMeters>670.20001220703125</AltitudeMeters>
            <DistanceMeters>NAN</DistanceMeters>
          </Trackpoint>
          <Trackpoint>
            <Time>2022-09-19T12:07:58.000Z</Time>
            <Position>
              <LatitudeDegrees>49.4021029584109783172607421875</LatitudeDegrees>
              <LongitudeDegrees>20.021892674267292022705078125</LongitudeDegrees>
            </Position>
            <AltitudeMeters>670.20001220703125</AltitudeMeters>
            <DistanceMeters>NAN</DistanceMeters>
          </Trackpoint>
          <Trackpoint>
            <Time>2022-09-19T12:08:02.000Z</Time>
            <Position>
              <LatitudeDegrees>49.40224469639360904693603515625</LatitudeDegrees>
              <LongitudeDegrees>20.0219199992716312408447265625</LongitudeDegrees>
            </Position>
            <AltitudeMeters>670</AltitudeMeters>
            <DistanceMeters>NAN</DistanceMeters>
          </Trackpoint>
          <Trackpoint>
            <Time>2022-09-19T12:08:04.000Z</Time>
            <Position>
              <LatitudeDegrees>49.40232331864535808563232421875</LatitudeDegrees>
              <LongitudeDegrees>20.02193056046962738037109375</LongitudeDegrees>
            </Position>
            <AltitudeMeters>670</AltitudeMeters>
            <DistanceMeters>NAN</DistanceMeters>
          </Trackpoint>
          <Trackpoint>
            <Time>2022-09-19T12:08:09.000Z</Time>
            <Position>
              <LatitudeDegrees>49.40253269858658313751220703125</LatitudeDegrees>
              <LongitudeDegrees>20.02196836285293102264404296875</LongitudeDegrees>
            </Position>
            <AltitudeMeters>670</AltitudeMeters>
            <DistanceMeters>NAN</DistanceMeters>
          </Trackpoint>
          <Trackpoint>
            <Time>2022-09-19T12:08:16.000Z</Time>
            <Position>
              <LatitudeDegrees>49.40280913375318050384521484375</LatitudeDegrees>
              <LongitudeDegrees>20.022018738090991973876953125</LongitudeDegrees>
            </Position>
            <AltitudeMeters>670</AltitudeMeters>
            <DistanceMeters>NAN</DistanceMeters>
          </Trackpoint>
          <Trackpoint>
            <Time>2022-09-19T12:08:23.000Z</Time>
            <Position>
              <LatitudeDegrees>49.40310702659189701080322265625</LatitudeDegrees>
              <LongitudeDegrees>20.0220480747520923614501953125</LongitudeDegrees>
            </Position>
            <AltitudeMeters>669.79998779296875</AltitudeMeters>
            <DistanceMeters>NAN</DistanceMeters>
          </Trackpoint>
          <Trackpoint>
            <Time>2022-09-19T12:08:24.000Z</Time>
            <Position>
              <LatitudeDegrees>49.403153546154499053955078125</LatitudeDegrees>
              <LongitudeDegrees>20.02205486409366130828857421875</LongitudeDegrees>
            </Position>
            <AltitudeMeters>670</AltitudeMeters>
            <DistanceMeters>NAN</DistanceMeters>
          </Trackpoint>
          <Trackpoint>
            <Time>2022-09-19T12:08:33.000Z</Time>
            <Position>
              <LatitudeDegrees>49.40355897881090641021728515625</LatitudeDegrees>
              <LongitudeDegrees>20.0220946781337261199951171875</LongitudeDegrees>
            </Position>
            <AltitudeMeters>669.5999755859375</AltitudeMeters>
            <DistanceMeters>NAN</DistanceMeters>
          </Trackpoint>
          <Trackpoint>
            <Time>2022-09-19T12:08:36.000Z</Time>
            <Position>
              <LatitudeDegrees>49.4036898203194141387939453125</LatitudeDegrees>
              <LongitudeDegrees>20.02210398204624652862548828125</LongitudeDegrees>
            </Position>
            <AltitudeMeters>669.4000244140625</AltitudeMeters>
            <DistanceMeters>NAN</DistanceMeters>
          </Trackpoint>
          <Trackpoint>
            <Time>2022-09-19T12:08:40.000Z</Time>
            <Position>
              <LatitudeDegrees>49.40385930240154266357421875</LatitudeDegrees>
              <LongitudeDegrees>20.0220846198499202728271484375</LongitudeDegrees>
            </Position>
            <AltitudeMeters>669</AltitudeMeters>
            <DistanceMeters>NAN</DistanceMeters>
          </Trackpoint>
          <Trackpoint>
            <Time>2022-09-19T12:08:47.000Z</Time>
            <Position>
              <LatitudeDegrees>49.40425417385995388031005859375</LatitudeDegrees>
              <LongitudeDegrees>20.02208839170634746551513671875</LongitudeDegrees>
            </Position>
            <AltitudeMeters>668.20001220703125</AltitudeMeters>
            <DistanceMeters>NAN</DistanceMeters>
          </Trackpoint>
          <Trackpoint>
            <Time>2022-09-19T12:08:49.000Z</Time>
            <Position>
              <LatitudeDegrees>49.404356181621551513671875</LatitudeDegrees>
              <LongitudeDegrees>20.022091828286647796630859375</LongitudeDegrees>
            </Position>
            <AltitudeMeters>668.20001220703125</AltitudeMeters>
            <DistanceMeters>NAN</DistanceMeters>
          </Trackpoint>
          <Trackpoint>
            <Time>2022-09-19T12:08:54.000Z</Time>
            <Position>
              <LatitudeDegrees>49.404611326754093170166015625</LatitudeDegrees>
              <LongitudeDegrees>20.0220936723053455352783203125</LongitudeDegrees>
            </Position>
            <AltitudeMeters>668.20001220703125</AltitudeMeters>
            <DistanceMeters>NAN</DistanceMeters>
          </Trackpoint>
          <Trackpoint>
            <Time>2022-09-19T12:08:59.000Z</Time>
            <Position>
              <LatitudeDegrees>49.4048740155994892120361328125</LatitudeDegrees>
              <LongitudeDegrees>20.022081099450588226318359375</LongitudeDegrees>
            </Position>
            <AltitudeMeters>667.4000244140625</AltitudeMeters>
            <DistanceMeters>NAN</DistanceMeters>
          </Trackpoint>
          <Trackpoint>
            <Time>2022-09-19T12:09:01.000Z</Time>
            <Position>
              <LatitudeDegrees>49.40498440526425838470458984375</LatitudeDegrees>
              <LongitudeDegrees>20.0220752321183681488037109375</LongitudeDegrees>
            </Position>
            <AltitudeMeters>667.20001220703125</AltitudeMeters>
            <DistanceMeters>NAN</DistanceMeters>
          </Trackpoint>
          <Trackpoint>
            <Time>2022-09-19T12:09:08.000Z</Time>
            <Position>
              <LatitudeDegrees>49.40529696643352508544921875</LatitudeDegrees>
              <LongitudeDegrees>20.02206592820584774017333984375</LongitudeDegrees>
            </Position>
            <AltitudeMeters>666.5999755859375</AltitudeMeters>
            <DistanceMeters>NAN</DistanceMeters>
          </Trackpoint>
          <Trackpoint>
            <Time>2022-09-19T12:09:13.000Z</Time>
            <Position>
              <LatitudeDegrees>49.40563064999878406524658203125</LatitudeDegrees>
              <LongitudeDegrees>20.02206257544457912445068359375</LongitudeDegrees>
            </Position>
            <AltitudeMeters>666.20001220703125</AltitudeMeters>
            <DistanceMeters>NAN</DistanceMeters>
          </Trackpoint>
          <Trackpoint>
            <Time>2022-09-19T12:09:17.000Z</Time>
            <Position>
              <LatitudeDegrees>49.40579929389059543609619140625</LatitudeDegrees>
              <LongitudeDegrees>20.02204782329499721527099609375</LongitudeDegrees>
            </Position>
            <AltitudeMeters>665.4000244140625</AltitudeMeters>
            <DistanceMeters>NAN</DistanceMeters>
          </Trackpoint>
          <Trackpoint>
            <Time>2022-09-19T12:09:20.000Z</Time>
            <Position>
              <LatitudeDegrees>49.4059643335640430450439453125</LatitudeDegrees>
              <LongitudeDegrees>20.0220400281250476837158203125</LongitudeDegrees>
            </Position>
            <AltitudeMeters>665.20001220703125</AltitudeMeters>
            <DistanceMeters>NAN</DistanceMeters>
          </Trackpoint>
          <Trackpoint>
            <Time>2022-09-19T12:09:25.000Z</Time>
            <Position>
              <LatitudeDegrees>49.4062677584588527679443359375</LatitudeDegrees>
              <LongitudeDegrees>20.02203742973506450653076171875</LongitudeDegrees>
            </Position>
            <AltitudeMeters>664.20001220703125</AltitudeMeters>
            <DistanceMeters>NAN</DistanceMeters>
          </Trackpoint>
          <Trackpoint>
            <Time>2022-09-19T12:09:27.000Z</Time>
            <Position>
              <LatitudeDegrees>49.40639323554933071136474609375</LatitudeDegrees>
              <LongitudeDegrees>20.022038184106349945068359375</LongitudeDegrees>
            </Position>
            <AltitudeMeters>664</AltitudeMeters>
            <DistanceMeters>NAN</DistanceMeters>
          </Trackpoint>
          <Trackpoint>
            <Time>2022-09-19T12:09:33.000Z</Time>
            <Position>
              <LatitudeDegrees>49.406771175563335418701171875</LatitudeDegrees>
              <LongitudeDegrees>20.02203173004090785980224609375</LongitudeDegrees>
            </Position>
            <AltitudeMeters>663.79998779296875</AltitudeMeters>
            <DistanceMeters>NAN</DistanceMeters>
          </Trackpoint>
          <Trackpoint>
            <Time>2022-09-19T12:09:40.000Z</Time>
            <Position>
              <LatitudeDegrees>49.4072004966437816619873046875</LatitudeDegrees>
              <LongitudeDegrees>20.02201328985393047332763671875</LongitudeDegrees>
            </Position>
            <AltitudeMeters>663</AltitudeMeters>
            <DistanceMeters>NAN</DistanceMeters>
          </Trackpoint>
          <Trackpoint>
            <Time>2022-09-19T12:09:44.000Z</Time>
            <Position>
              <LatitudeDegrees>49.4074420630931854248046875</LatitudeDegrees>
              <LongitudeDegrees>20.022020079195499420166015625</LongitudeDegrees>
            </Position>
            <AltitudeMeters>662.5999755859375</AltitudeMeters>
            <DistanceMeters>NAN</DistanceMeters>
          </Trackpoint>
          <Trackpoint>
            <Time>2022-09-19T12:09:46.000Z</Time>
            <Position>
              <LatitudeDegrees>49.40762571059167385101318359375</LatitudeDegrees>
              <LongitudeDegrees>20.02201932482421398162841796875</LongitudeDegrees>
            </Position>
            <AltitudeMeters>662.4000244140625</AltitudeMeters>
            <DistanceMeters>NAN</DistanceMeters>
          </Trackpoint>
          <Trackpoint>
            <Time>2022-09-19T12:09:50.000Z</Time>
            <Position>
              <LatitudeDegrees>49.40778764896094799041748046875</LatitudeDegrees>
              <LongitudeDegrees>20.022013373672962188720703125</LongitudeDegrees>
            </Position>
            <AltitudeMeters>661.79998779296875</AltitudeMeters>
            <DistanceMeters>NAN</DistanceMeters>
          </Trackpoint>
          <Trackpoint>
            <Time>2022-09-19T12:09:51.000Z</Time>
            <Position>
              <LatitudeDegrees>49.40783291123807430267333984375</LatitudeDegrees>
              <LongitudeDegrees>20.02201362513005733489990234375</LongitudeDegrees>
            </Position>
            <AltitudeMeters>661.79998779296875</AltitudeMeters>
            <DistanceMeters>NAN</DistanceMeters>
          </Trackpoint>
          <Trackpoint>
            <Time>2022-09-19T12:09:52.000Z</Time>
            <Position>
              <LatitudeDegrees>49.40787297673523426055908203125</LatitudeDegrees>
              <LongitudeDegrees>20.0220152176916599273681640625</LongitudeDegrees>
            </Position>
            <AltitudeMeters>661.5999755859375</AltitudeMeters>
            <DistanceMeters>NAN</DistanceMeters>
          </Trackpoint>
          <Trackpoint>
            <Time>2022-09-19T12:09:55.000Z</Time>
            <Position>
              <LatitudeDegrees>49.4079518504440784454345703125</LatitudeDegrees>
              <LongitudeDegrees>20.0220158882439136505126953125</LongitudeDegrees>
            </Position>
            <AltitudeMeters>661.4000244140625</AltitudeMeters>
            <DistanceMeters>NAN</DistanceMeters>
          </Trackpoint>
          <Trackpoint>
            <Time>2022-09-19T12:10:01.000Z</Time>
            <Position>
              <LatitudeDegrees>49.40801530145108699798583984375</LatitudeDegrees>
              <LongitudeDegrees>20.0220225937664508819580078125</LongitudeDegrees>
            </Position>
            <AltitudeMeters>661.20001220703125</AltitudeMeters>
            <DistanceMeters>NAN</DistanceMeters>
          </Trackpoint>
          <Trackpoint>
            <Time>2022-09-19T12:10:04.000Z</Time>
            <Position>
              <LatitudeDegrees>49.40801966004073619842529296875</LatitudeDegrees>
              <LongitudeDegrees>20.0220048241317272186279296875</LongitudeDegrees>
            </Position>
            <AltitudeMeters>661.20001220703125</AltitudeMeters>
            <DistanceMeters>NAN</DistanceMeters>
          </Trackpoint>
          <Trackpoint>
            <Time>2022-09-19T12:10:07.000Z</Time>
            <Position>
              <LatitudeDegrees>49.4080401957035064697265625</LatitudeDegrees>
              <LongitudeDegrees>20.021921508014202117919921875</LongitudeDegrees>
            </Position>
            <AltitudeMeters>661.20001220703125</AltitudeMeters>
            <DistanceMeters>NAN</DistanceMeters>
          </Trackpoint>
          <Trackpoint>
            <Time>2022-09-19T12:10:09.000Z</Time>
            <Position>
              <LatitudeDegrees>49.4080547802150249481201171875</LatitudeDegrees>
              <LongitudeDegrees>20.02191404812037944793701171875</LongitudeDegrees>
            </Position>
            <AltitudeMeters>661.20001220703125</AltitudeMeters>
            <DistanceMeters>NAN</DistanceMeters>
          </Trackpoint>
          <Trackpoint>
            <Time>2022-09-19T12:10:12.000Z</Time>
            <Position>
              <LatitudeDegrees>49.40814069472253322601318359375</LatitudeDegrees>
              <LongitudeDegrees>20.02192695625126361846923828125</LongitudeDegrees>
            </Position>
            <AltitudeMeters>661.20001220703125</AltitudeMeters>
            <DistanceMeters>NAN</DistanceMeters>
          </Trackpoint>
          <Trackpoint>
            <Time>2022-09-19T12:10:16.000Z</Time>
            <Position>
              <LatitudeDegrees>49.4082951731979846954345703125</LatitudeDegrees>
              <LongitudeDegrees>20.02192796207964420318603515625</LongitudeDegrees>
            </Position>
            <AltitudeMeters>661.4000244140625</AltitudeMeters>
            <DistanceMeters>NAN</DistanceMeters>
          </Trackpoint>
          <Trackpoint>
            <Time>2022-09-19T12:10:21.000Z</Time>
            <Position>
              <LatitudeDegrees>49.4084537588059902191162109375</LatitudeDegrees>
              <LongitudeDegrees>20.021967105567455291748046875</LongitudeDegrees>
            </Position>
            <AltitudeMeters>661.5999755859375</AltitudeMeters>
            <DistanceMeters>NAN</DistanceMeters>
          </Trackpoint>
          <Trackpoint>
            <Time>2022-09-19T12:10:22.000Z</Time>
            <Position>
              <LatitudeDegrees>49.40847848542034626007080078125</LatitudeDegrees>
              <LongitudeDegrees>20.02198026515543460845947265625</LongitudeDegrees>
            </Position>
            <AltitudeMeters>661.5999755859375</AltitudeMeters>
            <DistanceMeters>NAN</DistanceMeters>
          </Trackpoint>
          <Trackpoint>
            <Time>2022-09-19T12:10:27.000Z</Time>
            <Position>
              <LatitudeDegrees>49.408593736588954925537109375</LatitudeDegrees>
              <LongitudeDegrees>20.02208990044891834259033203125</LongitudeDegrees>
            </Position>
            <AltitudeMeters>661.79998779296875</AltitudeMeters>
            <DistanceMeters>NAN</DistanceMeters>
          </Trackpoint>
          <Trackpoint>
            <Time>2022-09-19T12:10:34.000Z</Time>
            <Position>
              <LatitudeDegrees>49.40875089727342128753662109375</LatitudeDegrees>
              <LongitudeDegrees>20.02232811413705348968505859375</LongitudeDegrees>
            </Position>
            <AltitudeMeters>662.4000244140625</AltitudeMeters>
            <DistanceMeters>NAN</DistanceMeters>
          </Trackpoint>
          <Trackpoint>
            <Time>2022-09-19T12:10:41.000Z</Time>
            <Position>
              <LatitudeDegrees>49.4088963232934474945068359375</LatitudeDegrees>
              <LongitudeDegrees>20.0225722789764404296875</LongitudeDegrees>
            </Position>
            <AltitudeMeters>662.79998779296875</AltitudeMeters>
            <DistanceMeters>NAN</DistanceMeters>
          </Trackpoint>
          <Trackpoint>
            <Time>2022-09-19T12:10:43.000Z</Time>
            <Position>
              <LatitudeDegrees>49.40893596969544887542724609375</LatitudeDegrees>
              <LongitudeDegrees>20.02263505943119525909423828125</LongitudeDegrees>
            </Position>
            <AltitudeMeters>663</AltitudeMeters>
            <DistanceMeters>NAN</DistanceMeters>
          </Trackpoint>
          <Trackpoint>
            <Time>2022-09-19T12:10:51.000Z</Time>
            <Position>
              <LatitudeDegrees>49.409081898629665374755859375</LatitudeDegrees>
              <LongitudeDegrees>20.02287712879478931427001953125</LongitudeDegrees>
            </Position>
            <AltitudeMeters>663</AltitudeMeters>
            <DistanceMeters>NAN</DistanceMeters>
          </Trackpoint>
          <Trackpoint>
            <Time>2022-09-19T12:11:00.000Z</Time>
            <Position>
              <LatitudeDegrees>49.40928314812481403350830078125</LatitudeDegrees>
              <LongitudeDegrees>20.02316043712198734283447265625</LongitudeDegrees>
            </Position>
            <AltitudeMeters>662.20001220703125</AltitudeMeters>
            <DistanceMeters>NAN</DistanceMeters>
          </Trackpoint>
          <Trackpoint>
            <Time>2022-09-19T12:11:04.000Z</Time>
            <Position>
              <LatitudeDegrees>49.409431926906108856201171875</LatitudeDegrees>
              <LongitudeDegrees>20.02325967885553836822509765625</LongitudeDegrees>
            </Position>
            <AltitudeMeters>661.79998779296875</AltitudeMeters>
            <DistanceMeters>NAN</DistanceMeters>
          </Trackpoint>
          <Trackpoint>
            <Time>2022-09-19T12:11:05.000Z</Time>
            <Position>
              <LatitudeDegrees>49.40947224386036396026611328125</LatitudeDegrees>
              <LongitudeDegrees>20.0232714973390102386474609375</LongitudeDegrees>
            </Position>
            <AltitudeMeters>661.5999755859375</AltitudeMeters>
            <DistanceMeters>NAN</DistanceMeters>
          </Trackpoint>
          <Trackpoint>
            <Time>2022-09-19T12:11:08.000Z</Time>
            <Position>
              <LatitudeDegrees>49.409584812819957733154296875</LatitudeDegrees>
              <LongitudeDegrees>20.023263953626155853271484375</LongitudeDegrees>
            </Position>
            <AltitudeMeters>661.4000244140625</AltitudeMeters>
            <DistanceMeters>NAN</DistanceMeters>
          </Trackpoint>
          <Trackpoint>
            <Time>2022-09-19T12:11:11.000Z</Time>
            <Position>
              <LatitudeDegrees>49.4097040034830570220947265625</LatitudeDegrees>
              <LongitudeDegrees>20.0232171826064586639404296875</LongitudeDegrees>
            </Position>
            <AltitudeMeters>661</AltitudeMeters>
            <DistanceMeters>NAN</DistanceMeters>
          </Trackpoint>
          <Trackpoint>
            <Time>2022-09-19T12:11:13.000Z</Time>
            <Position>
              <LatitudeDegrees>49.40976242534816265106201171875</LatitudeDegrees>
              <LongitudeDegrees>20.02314752899110317230224609375</LongitudeDegrees>
            </Position>
            <AltitudeMeters>660.79998779296875</AltitudeMeters>
            <DistanceMeters>NAN</DistanceMeters>
          </Trackpoint>
          <Trackpoint>
            <Time>2022-09-19T12:11:16.000Z</Time>
            <Position>
              <LatitudeDegrees>49.4098589010536670684814453125</LatitudeDegrees>
              <LongitudeDegrees>20.02301995642483234405517578125</LongitudeDegrees>
            </Position>
            <AltitudeMeters>660.4000244140625</AltitudeMeters>
            <DistanceMeters>NAN</DistanceMeters>
          </Trackpoint>
          <Trackpoint>
            <Time>2022-09-19T12:11:24.000Z</Time>
            <Position>
              <LatitudeDegrees>49.41013164818286895751953125</LatitudeDegrees>
              <LongitudeDegrees>20.02268065698444843292236328125</LongitudeDegrees>
            </Position>
            <AltitudeMeters>659.79998779296875</AltitudeMeters>
            <DistanceMeters>NAN</DistanceMeters>
          </Trackpoint>
          <Trackpoint>
            <Time>2022-09-19T12:11:29.000Z</Time>
            <Position>
              <LatitudeDegrees>49.410326443612575531005859375</LatitudeDegrees>
              <LongitudeDegrees>20.02246675081551074981689453125</LongitudeDegrees>
            </Position>
            <AltitudeMeters>659.20001220703125</AltitudeMeters>
            <DistanceMeters>NAN</DistanceMeters>
          </Trackpoint>
          <Trackpoint>
            <Time>2022-09-19T12:11:32.000Z</Time>
            <Position>
              <LatitudeDegrees>49.41046231426298618316650390625</LatitudeDegrees>
              <LongitudeDegrees>20.02238645218312740325927734375</LongitudeDegrees>
            </Position>
            <AltitudeMeters>658.79998779296875</AltitudeMeters>
            <DistanceMeters>NAN</DistanceMeters>
          </Trackpoint>
          <Trackpoint>
            <Time>2022-09-19T12:11:34.000Z</Time>
            <Position>
              <LatitudeDegrees>49.41054428927600383758544921875</LatitudeDegrees>
              <LongitudeDegrees>20.02234320156276226043701171875</LongitudeDegrees>
            </Position>
            <AltitudeMeters>658.5999755859375</AltitudeMeters>
            <DistanceMeters>NAN</DistanceMeters>
          </Trackpoint>
          <Trackpoint>
            <Time>2022-09-19T12:11:38.000Z</Time>
            <Position>
              <LatitudeDegrees>49.41073589958250522613525390625</LatitudeDegrees>
              <LongitudeDegrees>20.022257454693317413330078125</LongitudeDegrees>
            </Position>
            <AltitudeMeters>658.4000244140625</AltitudeMeters>
            <DistanceMeters>NAN</DistanceMeters>
          </Trackpoint>
          <Trackpoint>
            <Time>2022-09-19T12:11:42.000Z</Time>
            <Position>
              <LatitudeDegrees>49.4109244085848331451416015625</LatitudeDegrees>
              <LongitudeDegrees>20.0221882201731204986572265625</LongitudeDegrees>
            </Position>
            <AltitudeMeters>658.20001220703125</AltitudeMeters>
            <DistanceMeters>NAN</DistanceMeters>
          </Trackpoint>
          <Trackpoint>
            <Time>2022-09-19T12:11:47.000Z</Time>
            <Position>
              <LatitudeDegrees>49.41116773523390293121337890625</LatitudeDegrees>
              <LongitudeDegrees>20.02208889462053775787353515625</LongitudeDegrees>
            </Position>
            <AltitudeMeters>657.5999755859375</AltitudeMeters>
            <DistanceMeters>NAN</DistanceMeters>
          </Trackpoint>
          <Trackpoint>
            <Time>2022-09-19T12:11:51.000Z</Time>
            <Position>
              <LatitudeDegrees>49.411341659724712371826171875</LatitudeDegrees>
              <LongitudeDegrees>20.0220202468335628509521484375</LongitudeDegrees>
            </Position>
            <AltitudeMeters>657.5999755859375</AltitudeMeters>
            <DistanceMeters>NAN</DistanceMeters>
          </Trackpoint>
          <Trackpoint>
            <Time>2022-09-19T12:11:58.000Z</Time>
            <Position>
              <LatitudeDegrees>49.411635696887969970703125</LatitudeDegrees>
              <LongitudeDegrees>20.02190373837947845458984375</LongitudeDegrees>
            </Position>
            <AltitudeMeters>657.20001220703125</AltitudeMeters>
            <DistanceMeters>NAN</DistanceMeters>
          </Trackpoint>
          <Trackpoint>
            <Time>2022-09-19T12:11:59.000Z</Time>
            <Position>
              <LatitudeDegrees>49.4116760976612567901611328125</LatitudeDegrees>
              <LongitudeDegrees>20.02188789658248424530029296875</LongitudeDegrees>
            </Position>
            <AltitudeMeters>657.20001220703125</AltitudeMeters>
            <DistanceMeters>NAN</DistanceMeters>
          </Trackpoint>
          <Trackpoint>
            <Time>2022-09-19T12:12:05.000Z</Time>
            <Position>
              <LatitudeDegrees>49.4119262136518955230712890625</LatitudeDegrees>
              <LongitudeDegrees>20.0217915885150432586669921875</LongitudeDegrees>
            </Position>
            <AltitudeMeters>656.79998779296875</AltitudeMeters>
            <DistanceMeters>NAN</DistanceMeters>
          </Trackpoint>
          <Trackpoint>
            <Time>2022-09-19T12:12:07.000Z</Time>
            <Position>
              <LatitudeDegrees>49.4120050035417079925537109375</LatitudeDegrees>
              <LongitudeDegrees>20.02175487577915191650390625</LongitudeDegrees>
            </Position>
            <AltitudeMeters>656.5999755859375</AltitudeMeters>
            <DistanceMeters>NAN</DistanceMeters>
          </Trackpoint>
          <Trackpoint>
            <Time>2022-09-19T12:12:08.000Z</Time>
            <Position>
              <LatitudeDegrees>49.41204347647726535797119140625</LatitudeDegrees>
              <LongitudeDegrees>20.021741129457950592041015625</LongitudeDegrees>
            </Position>
            <AltitudeMeters>656.79998779296875</AltitudeMeters>
            <DistanceMeters>NAN</DistanceMeters>
          </Trackpoint>
          <Trackpoint>
            <Time>2022-09-19T12:12:17.000Z</Time>
            <Position>
              <LatitudeDegrees>49.4123811833560466766357421875</LatitudeDegrees>
              <LongitudeDegrees>20.021614395081996917724609375</LongitudeDegrees>
            </Position>
            <AltitudeMeters>656</AltitudeMeters>
            <DistanceMeters>NAN</DistanceMeters>
          </Trackpoint>
          <Trackpoint>
            <Time>2022-09-19T12:12:27.000Z</Time>
            <Position>
              <LatitudeDegrees>49.412745796144008636474609375</LatitudeDegrees>
              <LongitudeDegrees>20.021601654589176177978515625</LongitudeDegrees>
            </Position>
            <AltitudeMeters>655.79998779296875</AltitudeMeters>
            <DistanceMeters>NAN</DistanceMeters>
          </Trackpoint>
          <Trackpoint>
            <Time>2022-09-19T12:12:32.000Z</Time>
            <Position>
              <LatitudeDegrees>49.4129303656518459320068359375</LatitudeDegrees>
              <LongitudeDegrees>20.0216554664075374603271484375</LongitudeDegrees>
            </Position>
            <AltitudeMeters>655.5999755859375</AltitudeMeters>
            <DistanceMeters>NAN</DistanceMeters>
          </Trackpoint>
          <Trackpoint>
            <Time>2022-09-19T12:12:33.000Z</Time>
            <Position>
              <LatitudeDegrees>49.41296028904616832733154296875</LatitudeDegrees>
              <LongitudeDegrees>20.021662674844264984130859375</LongitudeDegrees>
            </Position>
            <AltitudeMeters>655.5999755859375</AltitudeMeters>
            <DistanceMeters>NAN</DistanceMeters>
          </Trackpoint>
          <Trackpoint>
            <Time>2022-09-19T12:12:36.000Z</Time>
            <Position>
              <LatitudeDegrees>49.41306891851127147674560546875</LatitudeDegrees>
              <LongitudeDegrees>20.0216884911060333251953125</LongitudeDegrees>
            </Position>
            <AltitudeMeters>655.5999755859375</AltitudeMeters>
            <DistanceMeters>NAN</DistanceMeters>
          </Trackpoint>
          <Trackpoint>
            <Time>2022-09-19T12:12:44.000Z</Time>
            <Position>
              <LatitudeDegrees>49.41333479247987270355224609375</LatitudeDegrees>
              <LongitudeDegrees>20.02173006534576416015625</LongitudeDegrees>
            </Position>
            <AltitudeMeters>655.20001220703125</AltitudeMeters>
            <DistanceMeters>NAN</DistanceMeters>
          </Trackpoint>
          <Trackpoint>
            <Time>2022-09-19T12:12:49.000Z</Time>
            <Position>
              <LatitudeDegrees>49.41350779496133327484130859375</LatitudeDegrees>
              <LongitudeDegrees>20.0217718072235584259033203125</LongitudeDegrees>
            </Position>
            <AltitudeMeters>655</AltitudeMeters>
            <DistanceMeters>NAN</DistanceMeters>
          </Trackpoint>
          <Trackpoint>
            <Time>2022-09-19T12:12:51.000Z</Time>
            <Position>
              <LatitudeDegrees>49.4135761074721813201904296875</LatitudeDegrees>
              <LongitudeDegrees>20.021798126399517059326171875</LongitudeDegrees>
            </Position>
            <AltitudeMeters>655</AltitudeMeters>
            <DistanceMeters>NAN</DistanceMeters>
          </Trackpoint>
          <Trackpoint>
            <Time>2022-09-19T12:12:55.000Z</Time>
            <Position>
              <LatitudeDegrees>49.41371298395097255706787109375</LatitudeDegrees>
              <LongitudeDegrees>20.02185638062655925750732421875</LongitudeDegrees>
            </Position>
            <AltitudeMeters>654.79998779296875</AltitudeMeters>
            <DistanceMeters>NAN</DistanceMeters>
          </Trackpoint>
          <Trackpoint>
            <Time>2022-09-19T12:12:57.000Z</Time>
            <Position>
              <LatitudeDegrees>49.413776434957981109619140625</LatitudeDegrees>
              <LongitudeDegrees>20.0218881480395793914794921875</LongitudeDegrees>
            </Position>
            <AltitudeMeters>654.79998779296875</AltitudeMeters>
            <DistanceMeters>NAN</DistanceMeters>
          </Trackpoint>
          <Trackpoint>
            <Time>2022-09-19T12:13:02.000Z</Time>
            <Position>
              <LatitudeDegrees>49.41392571665346622467041015625</LatitudeDegrees>
              <LongitudeDegrees>20.02195947803556919097900390625</LongitudeDegrees>
            </Position>
            <AltitudeMeters>654.5999755859375</AltitudeMeters>
            <DistanceMeters>NAN</DistanceMeters>
          </Trackpoint>
          <Trackpoint>
            <Time>2022-09-19T12:13:06.000Z</Time>
            <Position>
              <LatitudeDegrees>49.414047338068485260009765625</LatitudeDegrees>
              <LongitudeDegrees>20.02202167175710201263427734375</LongitudeDegrees>
            </Position>
            <AltitudeMeters>654.4000244140625</AltitudeMeters>
            <DistanceMeters>NAN</DistanceMeters>
          </Trackpoint>
          <Trackpoint>
            <Time>2022-09-19T12:13:11.000Z</Time>
            <Position>
              <LatitudeDegrees>49.41419092006981372833251953125</LatitudeDegrees>
              <LongitudeDegrees>20.02208168618381023406982421875</LongitudeDegrees>
            </Position>
            <AltitudeMeters>654.20001220703125</AltitudeMeters>
            <DistanceMeters>NAN</DistanceMeters>
          </Trackpoint>
          <Trackpoint>
            <Time>2022-09-19T12:13:19.000Z</Time>
            <Position>
              <LatitudeDegrees>49.41440449096262454986572265625</LatitudeDegrees>
              <LongitudeDegrees>20.02220221795141696929931640625</LongitudeDegrees>
            </Position>
            <AltitudeMeters>654</AltitudeMeters>
            <DistanceMeters>NAN</DistanceMeters>
          </Trackpoint>
          <Trackpoint>
            <Time>2022-09-19T12:13:28.000Z</Time>
            <Position>
              <LatitudeDegrees>49.41465385258197784423828125</LatitudeDegrees>
              <LongitudeDegrees>20.0222965143620967864990234375</LongitudeDegrees>
            </Position>
            <AltitudeMeters>654</AltitudeMeters>
            <DistanceMeters>NAN</DistanceMeters>
          </Trackpoint>
          <Trackpoint>
            <Time>2022-09-19T12:13:34.000Z</Time>
            <Position>
              <LatitudeDegrees>49.4148342311382293701171875</LatitudeDegrees>
              <LongitudeDegrees>20.02238863147795200347900390625</LongitudeDegrees>
            </Position>
            <AltitudeMeters>653.5999755859375</AltitudeMeters>
            <DistanceMeters>NAN</DistanceMeters>
          </Trackpoint>
          <Trackpoint>
            <Time>2022-09-19T12:13:35.000Z</Time>
            <Position>
              <LatitudeDegrees>49.414854682981967926025390625</LatitudeDegrees>
              <LongitudeDegrees>20.02239416353404521942138671875</LongitudeDegrees>
            </Position>
            <AltitudeMeters>653.5999755859375</AltitudeMeters>
            <DistanceMeters>NAN</DistanceMeters>
          </Trackpoint>
          <Trackpoint>
            <Time>2022-09-19T12:13:36.000Z</Time>
            <Position>
              <LatitudeDegrees>49.4148806668817996978759765625</LatitudeDegrees>
              <LongitudeDegrees>20.02240137197077274322509765625</LongitudeDegrees>
            </Position>
            <AltitudeMeters>653.5999755859375</AltitudeMeters>
            <DistanceMeters>NAN</DistanceMeters>
          </Trackpoint>
          <Trackpoint>
            <Time>2022-09-19T12:13:41.000Z</Time>
            <Position>
              <LatitudeDegrees>49.41501989029347896575927734375</LatitudeDegrees>
              <LongitudeDegrees>20.02247504889965057373046875</LongitudeDegrees>
            </Position>
            <AltitudeMeters>653.4000244140625</AltitudeMeters>
            <DistanceMeters>NAN</DistanceMeters>
          </Trackpoint>
          <Trackpoint>
            <Time>2022-09-19T12:13:43.000Z</Time>
            <Position>
              <LatitudeDegrees>49.4150627218186855316162109375</LatitudeDegrees>
              <LongitudeDegrees>20.022503547370433807373046875</LongitudeDegrees>
            </Position>
            <AltitudeMeters>653.4000244140625</AltitudeMeters>
            <DistanceMeters>NAN</DistanceMeters>
          </Trackpoint>
          <Trackpoint>
            <Time>2022-09-19T12:13:50.000Z</Time>
            <Position>
              <LatitudeDegrees>49.41526413895189762115478515625</LatitudeDegrees>
              <LongitudeDegrees>20.02259633503854274749755859375</LongitudeDegrees>
            </Position>
            <AltitudeMeters>653.20001220703125</AltitudeMeters>
            <DistanceMeters>NAN</DistanceMeters>
          </Trackpoint>
          <Trackpoint>
            <Time>2022-09-19T12:13:57.000Z</Time>
            <Position>
              <LatitudeDegrees>49.41550143063068389892578125</LatitudeDegrees>
              <LongitudeDegrees>20.02268216572701930999755859375</LongitudeDegrees>
            </Position>
            <AltitudeMeters>653.20001220703125</AltitudeMeters>
            <DistanceMeters>NAN</DistanceMeters>
          </Trackpoint>
          <Trackpoint>
            <Time>2022-09-19T12:14:05.000Z</Time>
            <Position>
              <LatitudeDegrees>49.41576026380062103271484375</LatitudeDegrees>
              <LongitudeDegrees>20.0228607840836048126220703125</LongitudeDegrees>
            </Position>
            <AltitudeMeters>653</AltitudeMeters>
            <DistanceMeters>NAN</DistanceMeters>
          </Trackpoint>
          <Trackpoint>
            <Time>2022-09-19T12:14:13.000Z</Time>
            <Position>
              <LatitudeDegrees>49.41602705977857112884521484375</LatitudeDegrees>
              <LongitudeDegrees>20.02300889231264591217041015625</LongitudeDegrees>
            </Position>
            <AltitudeMeters>653</AltitudeMeters>
            <DistanceMeters>NAN</DistanceMeters>
          </Trackpoint>
          <Trackpoint>
            <Time>2022-09-19T12:14:20.000Z</Time>
            <Position>
              <LatitudeDegrees>49.41622470505535602569580078125</LatitudeDegrees>
              <LongitudeDegrees>20.023089945316314697265625</LongitudeDegrees>
            </Position>
            <AltitudeMeters>652.5999755859375</AltitudeMeters>
            <DistanceMeters>NAN</DistanceMeters>
          </Trackpoint>
          <Trackpoint>
            <Time>2022-09-19T12:14:27.000Z</Time>
            <Position>
              <LatitudeDegrees>49.41637457348406314849853515625</LatitudeDegrees>
              <LongitudeDegrees>20.02311333082616329193115234375</LongitudeDegrees>
            </Position>
            <AltitudeMeters>652.5999755859375</AltitudeMeters>
            <DistanceMeters>NAN</DistanceMeters>
          </Trackpoint>
          <Trackpoint>
            <Time>2022-09-19T12:14:30.000Z</Time>
            <Position>
              <LatitudeDegrees>49.41643995232880115509033203125</LatitudeDegrees>
              <LongitudeDegrees>20.023101009428501129150390625</LongitudeDegrees>
            </Position>
            <AltitudeMeters>652.5999755859375</AltitudeMeters>
            <DistanceMeters>NAN</DistanceMeters>
          </Trackpoint>
          <Trackpoint>
            <Time>2022-09-19T12:14:33.000Z</Time>
            <Position>
              <LatitudeDegrees>49.4165084324777126312255859375</LatitudeDegrees>
              <LongitudeDegrees>20.02311718650162220001220703125</LongitudeDegrees>
            </Position>
            <AltitudeMeters>652.4000244140625</AltitudeMeters>
            <DistanceMeters>NAN</DistanceMeters>
          </Trackpoint>
          <Trackpoint>
            <Time>2022-09-19T12:14:39.000Z</Time>
            <Position>
              <LatitudeDegrees>49.4166834466159343719482421875</LatitudeDegrees>
              <LongitudeDegrees>20.02316077239811420440673828125</LongitudeDegrees>
            </Position>
            <AltitudeMeters>652.4000244140625</AltitudeMeters>
            <DistanceMeters>NAN</DistanceMeters>
          </Trackpoint>
          <Trackpoint>
            <Time>2022-09-19T12:14:50.000Z</Time>
            <Position>
              <LatitudeDegrees>49.4169959239661693572998046875</LatitudeDegrees>
              <LongitudeDegrees>20.0232285819947719573974609375</LongitudeDegrees>
            </Position>
            <AltitudeMeters>652.20001220703125</AltitudeMeters>
            <DistanceMeters>NAN</DistanceMeters>
          </Trackpoint>
          <Trackpoint>
            <Time>2022-09-19T12:14:56.000Z</Time>
            <Position>
              <LatitudeDegrees>49.41716372966766357421875</LatitudeDegrees>
              <LongitudeDegrees>20.02330678515136241912841796875</LongitudeDegrees>
            </Position>
            <AltitudeMeters>652</AltitudeMeters>
            <DistanceMeters>NAN</DistanceMeters>
          </Trackpoint>
          <Trackpoint>
            <Time>2022-09-19T12:15:06.000Z</Time>
            <Position>
              <LatitudeDegrees>49.41748819313943386077880859375</LatitudeDegrees>
              <LongitudeDegrees>20.0233854912221431732177734375</LongitudeDegrees>
            </Position>
            <AltitudeMeters>651.5999755859375</AltitudeMeters>
            <DistanceMeters>NAN</DistanceMeters>
          </Trackpoint>
          <Trackpoint>
            <Time>2022-09-19T12:15:15.000Z</Time>
            <Position>
              <LatitudeDegrees>49.41774300299584865570068359375</LatitudeDegrees>
              <LongitudeDegrees>20.02344374544918537139892578125</LongitudeDegrees>
            </Position>
            <AltitudeMeters>652</AltitudeMeters>
            <DistanceMeters>NAN</DistanceMeters>
          </Trackpoint>
          <Trackpoint>
            <Time>2022-09-19T12:15:21.000Z</Time>
            <Position>
              <LatitudeDegrees>49.4179078750312328338623046875</LatitudeDegrees>
              <LongitudeDegrees>20.02346352674067020416259765625</LongitudeDegrees>
            </Position>
            <AltitudeMeters>652</AltitudeMeters>
            <DistanceMeters>NAN</DistanceMeters>
          </Trackpoint>
          <Trackpoint>
            <Time>2022-09-19T12:15:31.000Z</Time>
            <Position>
              <LatitudeDegrees>49.41815841011703014373779296875</LatitudeDegrees>
              <LongitudeDegrees>20.0235269777476787567138671875</LongitudeDegrees>
            </Position>
            <AltitudeMeters>652</AltitudeMeters>
            <DistanceMeters>NAN</DistanceMeters>
          </Trackpoint>
          <Trackpoint>
            <Time>2022-09-19T12:15:37.000Z</Time>
            <Position>
              <LatitudeDegrees>49.41829503513872623443603515625</LatitudeDegrees>
              <LongitudeDegrees>20.0235427357256412506103515625</LongitudeDegrees>
            </Position>
            <AltitudeMeters>652.20001220703125</AltitudeMeters>
            <DistanceMeters>NAN</DistanceMeters>
          </Trackpoint>
          <Trackpoint>
            <Time>2022-09-19T12:15:38.000Z</Time>
            <Position>
              <LatitudeDegrees>49.41830593161284923553466796875</LatitudeDegrees>
              <LongitudeDegrees>20.0235464237630367279052734375</LongitudeDegrees>
            </Position>
            <AltitudeMeters>652.20001220703125</AltitudeMeters>
            <DistanceMeters>NAN</DistanceMeters>
          </Trackpoint>
          <Trackpoint>
            <Time>2022-09-19T12:15:41.000Z</Time>
            <Position>
              <LatitudeDegrees>49.41832336597144603729248046875</LatitudeDegrees>
              <LongitudeDegrees>20.02355472184717655181884765625</LongitudeDegrees>
            </Position>
            <AltitudeMeters>652.20001220703125</AltitudeMeters>
            <DistanceMeters>NAN</DistanceMeters>
          </Trackpoint>
          <Trackpoint>
            <Time>2022-09-19T12:15:48.000Z</Time>
            <Position>
              <LatitudeDegrees>49.41833225078880786895751953125</LatitudeDegrees>
              <LongitudeDegrees>20.02355840988457202911376953125</LongitudeDegrees>
            </Position>
            <AltitudeMeters>652</AltitudeMeters>
            <DistanceMeters>NAN</DistanceMeters>
          </Trackpoint>
          <Trackpoint>
            <Time>2022-09-19T12:15:55.000Z</Time>
            <Position>
              <LatitudeDegrees>49.41833225078880786895751953125</LatitudeDegrees>
              <LongitudeDegrees>20.02355840988457202911376953125</LongitudeDegrees>
            </Position>
            <AltitudeMeters>651.79998779296875</AltitudeMeters>
            <DistanceMeters>NAN</DistanceMeters>
          </Trackpoint>
          <Trackpoint>
            <Time>2022-09-19T12:16:01.000Z</Time>
            <Position>
              <LatitudeDegrees>49.41839293576776981353759765625</LatitudeDegrees>
              <LongitudeDegrees>20.023590512573719024658203125</LongitudeDegrees>
            </Position>
            <AltitudeMeters>651.79998779296875</AltitudeMeters>
            <DistanceMeters>NAN</DistanceMeters>
          </Trackpoint>
          <Trackpoint>
            <Time>2022-09-19T12:16:07.000Z</Time>
            <Position>
              <LatitudeDegrees>49.41854439675807952880859375</LatitudeDegrees>
              <LongitudeDegrees>20.02363703213632106781005859375</LongitudeDegrees>
            </Position>
            <AltitudeMeters>651.79998779296875</AltitudeMeters>
            <DistanceMeters>NAN</DistanceMeters>
          </Trackpoint>
          <Trackpoint>
            <Time>2022-09-19T12:16:12.000Z</Time>
            <Position>
              <LatitudeDegrees>49.41868864931166172027587890625</LatitudeDegrees>
              <LongitudeDegrees>20.02368564717471599578857421875</LongitudeDegrees>
            </Position>
            <AltitudeMeters>651.5999755859375</AltitudeMeters>
            <DistanceMeters>NAN</DistanceMeters>
          </Trackpoint>
          <Trackpoint>
            <Time>2022-09-19T12:16:13.000Z</Time>
            <Position>
              <LatitudeDegrees>49.41871128045022487640380859375</LatitudeDegrees>
              <LongitudeDegrees>20.0236929394304752349853515625</LongitudeDegrees>
            </Position>
            <AltitudeMeters>651.5999755859375</AltitudeMeters>
            <DistanceMeters>NAN</DistanceMeters>
          </Trackpoint>
          <Trackpoint>
            <Time>2022-09-19T12:16:15.000Z</Time>
            <Position>
              <LatitudeDegrees>49.41877816803753376007080078125</LatitudeDegrees>
              <LongitudeDegrees>20.02371632494032382965087890625</LongitudeDegrees>
            </Position>
            <AltitudeMeters>651.5999755859375</AltitudeMeters>
            <DistanceMeters>NAN</DistanceMeters>
          </Trackpoint>
          <Trackpoint>
            <Time>2022-09-19T12:16:21.000Z</Time>
            <Position>
              <LatitudeDegrees>49.41896776668727397918701171875</LatitudeDegrees>
              <LongitudeDegrees>20.0238190032541751861572265625</LongitudeDegrees>
            </Position>
            <AltitudeMeters>651</AltitudeMeters>
            <DistanceMeters>NAN</DistanceMeters>
          </Trackpoint>
          <Trackpoint>
            <Time>2022-09-19T12:16:23.000Z</Time>
            <Position>
              <LatitudeDegrees>49.41904194653034210205078125</LatitudeDegrees>
              <LongitudeDegrees>20.023864768445491790771484375</LongitudeDegrees>
            </Position>
            <AltitudeMeters>650.79998779296875</AltitudeMeters>
            <DistanceMeters>NAN</DistanceMeters>
          </Trackpoint>
          <Trackpoint>
            <Time>2022-09-19T12:16:28.000Z</Time>
            <Position>
              <LatitudeDegrees>49.4192429445683956146240234375</LatitudeDegrees>
              <LongitudeDegrees>20.0239695422351360321044921875</LongitudeDegrees>
            </Position>
            <AltitudeMeters>650.4000244140625</AltitudeMeters>
            <DistanceMeters>NAN</DistanceMeters>
          </Trackpoint>
          <Trackpoint>
            <Time>2022-09-19T12:16:31.000Z</Time>
            <Position>
              <LatitudeDegrees>49.419369511306285858154296875</LatitudeDegrees>
              <LongitudeDegrees>20.02402896992862224578857421875</LongitudeDegrees>
            </Position>
            <AltitudeMeters>650.20001220703125</AltitudeMeters>
            <DistanceMeters>NAN</DistanceMeters>
          </Trackpoint>
          <Trackpoint>
            <Time>2022-09-19T12:16:34.000Z</Time>
            <Position>
              <LatitudeDegrees>49.41950689069926738739013671875</LatitudeDegrees>
              <LongitudeDegrees>20.02409451641142368316650390625</LongitudeDegrees>
            </Position>
            <AltitudeMeters>649.79998779296875</AltitudeMeters>
            <DistanceMeters>NAN</DistanceMeters>
          </Trackpoint>
          <Trackpoint>
            <Time>2022-09-19T12:16:37.000Z</Time>
            <Position>
              <LatitudeDegrees>49.4196487963199615478515625</LatitudeDegrees>
              <LongitudeDegrees>20.02414849586784839630126953125</LongitudeDegrees>
            </Position>
            <AltitudeMeters>649.4000244140625</AltitudeMeters>
            <DistanceMeters>NAN</DistanceMeters>
          </Trackpoint>
          <Trackpoint>
            <Time>2022-09-19T12:16:40.000Z</Time>
            <Position>
              <LatitudeDegrees>49.419803358614444732666015625</LatitudeDegrees>
              <LongitudeDegrees>20.0241727195680141448974609375</LongitudeDegrees>
            </Position>
            <AltitudeMeters>649.20001220703125</AltitudeMeters>
            <DistanceMeters>NAN</DistanceMeters>
          </Trackpoint>
          <Trackpoint>
            <Time>2022-09-19T12:16:46.000Z</Time>
            <Position>
              <LatitudeDegrees>49.42010234110057353973388671875</LatitudeDegrees>
              <LongitudeDegrees>20.02419166266918182373046875</LongitudeDegrees>
            </Position>
            <AltitudeMeters>648.4000244140625</AltitudeMeters>
            <DistanceMeters>NAN</DistanceMeters>
          </Trackpoint>
          <Trackpoint>
            <Time>2022-09-19T12:16:47.000Z</Time>
            <Position>
              <LatitudeDegrees>49.4201502017676830291748046875</LatitudeDegrees>
              <LongitudeDegrees>20.02419828437268733978271484375</LongitudeDegrees>
            </Position>
            <AltitudeMeters>648.20001220703125</AltitudeMeters>
            <DistanceMeters>NAN</DistanceMeters>
          </Trackpoint>
          <Trackpoint>
            <Time>2022-09-19T12:16:49.000Z</Time>
            <Position>
              <LatitudeDegrees>49.42024751566350460052490234375</LatitudeDegrees>
              <LongitudeDegrees>20.0242448039352893829345703125</LongitudeDegrees>
            </Position>
            <AltitudeMeters>648.20001220703125</AltitudeMeters>
            <DistanceMeters>NAN</DistanceMeters>
          </Trackpoint>
          <Trackpoint>
            <Time>2022-09-19T12:16:56.000Z</Time>
            <Position>
              <LatitudeDegrees>49.420524537563323974609375</LatitudeDegrees>
              <LongitudeDegrees>20.02449936233460903167724609375</LongitudeDegrees>
            </Position>
            <AltitudeMeters>647.79998779296875</AltitudeMeters>
            <DistanceMeters>NAN</DistanceMeters>
          </Trackpoint>
          <Trackpoint>
            <Time>2022-09-19T12:17:00.000Z</Time>
            <Position>
              <LatitudeDegrees>49.42066912539303302764892578125</LatitudeDegrees>
              <LongitudeDegrees>20.024625174701213836669921875</LongitudeDegrees>
            </Position>
            <AltitudeMeters>647.5999755859375</AltitudeMeters>
            <DistanceMeters>NAN</DistanceMeters>
          </Trackpoint>
          <Trackpoint>
            <Time>2022-09-19T12:17:02.000Z</Time>
            <Position>
              <LatitudeDegrees>49.4207350909709930419921875</LatitudeDegrees>
              <LongitudeDegrees>20.02468057908117771148681640625</LongitudeDegrees>
            </Position>
            <AltitudeMeters>647.79998779296875</AltitudeMeters>
            <DistanceMeters>NAN</DistanceMeters>
          </Trackpoint>
          <Trackpoint>
            <Time>2022-09-19T12:17:07.000Z</Time>
            <Position>
              <LatitudeDegrees>49.42087867297232151031494140625</LatitudeDegrees>
              <LongitudeDegrees>20.02481552772223949432373046875</LongitudeDegrees>
            </Position>
            <AltitudeMeters>648</AltitudeMeters>
            <DistanceMeters>NAN</DistanceMeters>
          </Trackpoint>
          <Trackpoint>
            <Time>2022-09-19T12:17:17.000Z</Time>
            <Position>
              <LatitudeDegrees>49.42116432823240756988525390625</LatitudeDegrees>
              <LongitudeDegrees>20.02518114633858203887939453125</LongitudeDegrees>
            </Position>
            <AltitudeMeters>647.79998779296875</AltitudeMeters>
            <DistanceMeters>NAN</DistanceMeters>
          </Trackpoint>
          <Trackpoint>
            <Time>2022-09-19T12:17:22.000Z</Time>
            <Position>
              <LatitudeDegrees>49.42129827104508876800537109375</LatitudeDegrees>
              <LongitudeDegrees>20.0253709964454174041748046875</LongitudeDegrees>
            </Position>
            <AltitudeMeters>647.5999755859375</AltitudeMeters>
            <DistanceMeters>NAN</DistanceMeters>
          </Trackpoint>
          <Trackpoint>
            <Time>2022-09-19T12:17:27.000Z</Time>
            <Position>
              <LatitudeDegrees>49.42142383195459842681884765625</LatitudeDegrees>
              <LongitudeDegrees>20.0255678035318851470947265625</LongitudeDegrees>
            </Position>
            <AltitudeMeters>647.20001220703125</AltitudeMeters>
            <DistanceMeters>NAN</DistanceMeters>
          </Trackpoint>
          <Trackpoint>
            <Time>2022-09-19T12:17:35.000Z</Time>
            <Position>
              <LatitudeDegrees>49.4216579385101795196533203125</LatitudeDegrees>
              <LongitudeDegrees>20.02585119567811489105224609375</LongitudeDegrees>
            </Position>
            <AltitudeMeters>647</AltitudeMeters>
            <DistanceMeters>NAN</DistanceMeters>
          </Trackpoint>
          <Trackpoint>
            <Time>2022-09-19T12:17:42.000Z</Time>
            <Position>
              <LatitudeDegrees>49.42186723463237285614013671875</LatitudeDegrees>
              <LongitudeDegrees>20.02603123895823955535888671875</LongitudeDegrees>
            </Position>
            <AltitudeMeters>646.79998779296875</AltitudeMeters>
            <DistanceMeters>NAN</DistanceMeters>
          </Trackpoint>
          <Trackpoint>
            <Time>2022-09-19T12:17:49.000Z</Time>
            <Position>
              <LatitudeDegrees>49.422043003141880035400390625</LatitudeDegrees>
              <LongitudeDegrees>20.02615881152451038360595703125</LongitudeDegrees>
            </Position>
            <AltitudeMeters>647</AltitudeMeters>
            <DistanceMeters>NAN</DistanceMeters>
          </Trackpoint>
          <Trackpoint>
            <Time>2022-09-19T12:17:57.000Z</Time>
            <Position>
              <LatitudeDegrees>49.4222111441195011138916015625</LatitudeDegrees>
              <LongitudeDegrees>20.02627716399729251861572265625</LongitudeDegrees>
            </Position>
            <AltitudeMeters>647</AltitudeMeters>
            <DistanceMeters>NAN</DistanceMeters>
          </Trackpoint>
          <Trackpoint>
            <Time>2022-09-19T12:18:03.000Z</Time>
            <Position>
              <LatitudeDegrees>49.42232371307909488677978515625</LatitudeDegrees>
              <LongitudeDegrees>20.026318319141864776611328125</LongitudeDegrees>
            </Position>
            <AltitudeMeters>647.20001220703125</AltitudeMeters>
            <DistanceMeters>NAN</DistanceMeters>
          </Trackpoint>
          <Trackpoint>
            <Time>2022-09-19T12:18:06.000Z</Time>
            <Position>
              <LatitudeDegrees>49.42236243747174739837646484375</LatitudeDegrees>
              <LongitudeDegrees>20.02635058946907520294189453125</LongitudeDegrees>
            </Position>
            <AltitudeMeters>647.20001220703125</AltitudeMeters>
            <DistanceMeters>NAN</DistanceMeters>
          </Trackpoint>
          <Trackpoint>
            <Time>2022-09-19T12:18:08.000Z</Time>
            <Position>
              <LatitudeDegrees>49.42236662842333316802978515625</LatitudeDegrees>
              <LongitudeDegrees>20.026364587247371673583984375</LongitudeDegrees>
            </Position>
            <AltitudeMeters>647</AltitudeMeters>
            <DistanceMeters>NAN</DistanceMeters>
          </Trackpoint>
          <Trackpoint>
            <Time>2022-09-19T12:18:13.000Z</Time>
            <Position>
              <LatitudeDegrees>49.42237266339361667633056640625</LatitudeDegrees>
              <LongitudeDegrees>20.02644446678459644317626953125</LongitudeDegrees>
            </Position>
            <AltitudeMeters>646.79998779296875</AltitudeMeters>
            <DistanceMeters>NAN</DistanceMeters>
          </Trackpoint>
          <Trackpoint>
            <Time>2022-09-19T12:18:15.000Z</Time>
            <Position>
              <LatitudeDegrees>49.4223685562610626220703125</LatitudeDegrees>
              <LongitudeDegrees>20.0264603085815906524658203125</LongitudeDegrees>
            </Position>
            <AltitudeMeters>646.79998779296875</AltitudeMeters>
            <DistanceMeters>NAN</DistanceMeters>
          </Trackpoint>
          <Trackpoint>
            <Time>2022-09-19T12:18:24.000Z</Time>
            <Position>
              <LatitudeDegrees>49.4223685562610626220703125</LatitudeDegrees>
              <LongitudeDegrees>20.0264603085815906524658203125</LongitudeDegrees>
            </Position>
            <AltitudeMeters>647.20001220703125</AltitudeMeters>
            <DistanceMeters>NAN</DistanceMeters>
          </Trackpoint>
          <Trackpoint>
            <Time>2022-09-19T12:18:29.000Z</Time>
            <Position>
              <LatitudeDegrees>49.4223685562610626220703125</LatitudeDegrees>
              <LongitudeDegrees>20.0264603085815906524658203125</LongitudeDegrees>
            </Position>
            <AltitudeMeters>647.20001220703125</AltitudeMeters>
            <DistanceMeters>NAN</DistanceMeters>
          </Trackpoint>
          <Trackpoint>
            <Time>2022-09-19T12:18:46.000Z</Time>
            <Position>
              <LatitudeDegrees>49.4223685562610626220703125</LatitudeDegrees>
              <LongitudeDegrees>20.0264603085815906524658203125</LongitudeDegrees>
            </Position>
            <AltitudeMeters>647.4000244140625</AltitudeMeters>
            <DistanceMeters>NAN</DistanceMeters>
          </Trackpoint>
          <Trackpoint>
            <Time>2022-09-19T12:18:50.000Z</Time>
            <Position>
              <LatitudeDegrees>49.42237065173685550689697265625</LatitudeDegrees>
              <LongitudeDegrees>20.02646257169544696807861328125</LongitudeDegrees>
            </Position>
            <AltitudeMeters>647.4000244140625</AltitudeMeters>
            <DistanceMeters>NAN</DistanceMeters>
          </Trackpoint>
          <Trackpoint>
            <Time>2022-09-19T12:18:53.000Z</Time>
            <Position>
              <LatitudeDegrees>49.4224099628627300262451171875</LatitudeDegrees>
              <LongitudeDegrees>20.0264874659478664398193359375</LongitudeDegrees>
            </Position>
            <AltitudeMeters>647.4000244140625</AltitudeMeters>
            <DistanceMeters>NAN</DistanceMeters>
          </Trackpoint>
          <Trackpoint>
            <Time>2022-09-19T12:18:55.000Z</Time>
            <Position>
              <LatitudeDegrees>49.422451369464397430419921875</LatitudeDegrees>
              <LongitudeDegrees>20.02649308182299137115478515625</LongitudeDegrees>
            </Position>
            <AltitudeMeters>647.4000244140625</AltitudeMeters>
            <DistanceMeters>NAN</DistanceMeters>
          </Trackpoint>
          <Trackpoint>
            <Time>2022-09-19T12:18:58.000Z</Time>
            <Position>
              <LatitudeDegrees>49.422547258436679840087890625</LatitudeDegrees>
              <LongitudeDegrees>20.02649039961397647857666015625</LongitudeDegrees>
            </Position>
            <AltitudeMeters>647.4000244140625</AltitudeMeters>
            <DistanceMeters>NAN</DistanceMeters>
          </Trackpoint>
          <Trackpoint>
            <Time>2022-09-19T12:19:03.000Z</Time>
            <Position>
              <LatitudeDegrees>49.422713220119476318359375</LatitudeDegrees>
              <LongitudeDegrees>20.0264968536794185638427734375</LongitudeDegrees>
            </Position>
            <AltitudeMeters>647.20001220703125</AltitudeMeters>
            <DistanceMeters>NAN</DistanceMeters>
          </Trackpoint>
          <Trackpoint>
            <Time>2022-09-19T12:19:10.000Z</Time>
            <Position>
              <LatitudeDegrees>49.422947578132152557373046875</LatitudeDegrees>
              <LongitudeDegrees>20.02633416093885898590087890625</LongitudeDegrees>
            </Position>
            <AltitudeMeters>646.79998779296875</AltitudeMeters>
            <DistanceMeters>NAN</DistanceMeters>
          </Trackpoint>
          <Trackpoint>
            <Time>2022-09-19T12:19:14.000Z</Time>
            <Position>
              <LatitudeDegrees>49.42307640798389911651611328125</LatitudeDegrees>
              <LongitudeDegrees>20.02624682150781154632568359375</LongitudeDegrees>
            </Position>
            <AltitudeMeters>646.20001220703125</AltitudeMeters>
            <DistanceMeters>NAN</DistanceMeters>
          </Trackpoint>
          <Trackpoint>
            <Time>2022-09-19T12:19:15.000Z</Time>
            <Position>
              <LatitudeDegrees>49.42310105077922344207763671875</LatitudeDegrees>
              <LongitudeDegrees>20.02624179236590862274169921875</LongitudeDegrees>
            </Position>
            <AltitudeMeters>646</AltitudeMeters>
            <DistanceMeters>NAN</DistanceMeters>
          </Trackpoint>
          <Trackpoint>
            <Time>2022-09-19T12:19:22.000Z</Time>
            <Position>
              <LatitudeDegrees>49.4232920743525028228759765625</LatitudeDegrees>
              <LongitudeDegrees>20.026207678020000457763671875</LongitudeDegrees>
            </Position>
            <AltitudeMeters>645.20001220703125</AltitudeMeters>
            <DistanceMeters>NAN</DistanceMeters>
          </Trackpoint>
          <Trackpoint>
            <Time>2022-09-19T12:19:27.000Z</Time>
            <Position>
              <LatitudeDegrees>49.42347672767937183380126953125</LatitudeDegrees>
              <LongitudeDegrees>20.02622075378894805908203125</LongitudeDegrees>
            </Position>
            <AltitudeMeters>644.5999755859375</AltitudeMeters>
            <DistanceMeters>NAN</DistanceMeters>
          </Trackpoint>
          <Trackpoint>
            <Time>2022-09-19T12:19:33.000Z</Time>
            <Position>
              <LatitudeDegrees>49.42371041513979434967041015625</LatitudeDegrees>
              <LongitudeDegrees>20.0262350030243396759033203125</LongitudeDegrees>
            </Position>
            <AltitudeMeters>644.20001220703125</AltitudeMeters>
            <DistanceMeters>NAN</DistanceMeters>
          </Trackpoint>
          <Trackpoint>
            <Time>2022-09-19T12:19:35.000Z</Time>
            <Position>
              <LatitudeDegrees>49.4237919710576534271240234375</LatitudeDegrees>
              <LongitudeDegrees>20.02624916844069957733154296875</LongitudeDegrees>
            </Position>
            <AltitudeMeters>644</AltitudeMeters>
            <DistanceMeters>NAN</DistanceMeters>
          </Trackpoint>
          <Trackpoint>
            <Time>2022-09-19T12:19:43.000Z</Time>
            <Position>
              <LatitudeDegrees>49.42411375232040882110595703125</LatitudeDegrees>
              <LongitudeDegrees>20.02630566246807575225830078125</LongitudeDegrees>
            </Position>
            <AltitudeMeters>643.79998779296875</AltitudeMeters>
            <DistanceMeters>NAN</DistanceMeters>
          </Trackpoint>
          <Trackpoint>
            <Time>2022-09-19T12:19:45.000Z</Time>
            <Position>
              <LatitudeDegrees>49.42419555969536304473876953125</LatitudeDegrees>
              <LongitudeDegrees>20.0263292156159877777099609375</LongitudeDegrees>
            </Position>
            <AltitudeMeters>643.5999755859375</AltitudeMeters>
            <DistanceMeters>NAN</DistanceMeters>
          </Trackpoint>
          <Trackpoint>
            <Time>2022-09-19T12:19:53.000Z</Time>
            <Position>
              <LatitudeDegrees>49.42446746863424777984619140625</LatitudeDegrees>
              <LongitudeDegrees>20.02648537047207355499267578125</LongitudeDegrees>
            </Position>
            <AltitudeMeters>643.20001220703125</AltitudeMeters>
            <DistanceMeters>NAN</DistanceMeters>
          </Trackpoint>
          <Trackpoint>
            <Time>2022-09-19T12:19:55.000Z</Time>
            <Position>
              <LatitudeDegrees>49.42452211864292621612548828125</LatitudeDegrees>
              <LongitudeDegrees>20.02652644179761409759521484375</LongitudeDegrees>
            </Position>
            <AltitudeMeters>643.20001220703125</AltitudeMeters>
            <DistanceMeters>NAN</DistanceMeters>
          </Trackpoint>
          <Trackpoint>
            <Time>2022-09-19T12:19:58.000Z</Time>
            <Position>
              <LatitudeDegrees>49.4246083684265613555908203125</LatitudeDegrees>
              <LongitudeDegrees>20.02660104073584079742431640625</LongitudeDegrees>
            </Position>
            <AltitudeMeters>643.20001220703125</AltitudeMeters>
            <DistanceMeters>NAN</DistanceMeters>
          </Trackpoint>
          <Trackpoint>
            <Time>2022-09-19T12:20:01.000Z</Time>
            <Position>
              <LatitudeDegrees>49.42468992434442043304443359375</LatitudeDegrees>
              <LongitudeDegrees>20.0266836024820804595947265625</LongitudeDegrees>
            </Position>
            <AltitudeMeters>643</AltitudeMeters>
            <DistanceMeters>NAN</DistanceMeters>
          </Trackpoint>
          <Trackpoint>
            <Time>2022-09-19T12:20:05.000Z</Time>
            <Position>
              <LatitudeDegrees>49.42474474199116230010986328125</LatitudeDegrees>
              <LongitudeDegrees>20.026754848659038543701171875</LongitudeDegrees>
            </Position>
            <AltitudeMeters>642.5999755859375</AltitudeMeters>
            <DistanceMeters>NAN</DistanceMeters>
          </Trackpoint>
          <Trackpoint>
            <Time>2022-09-19T12:20:09.000Z</Time>
            <Position>
              <LatitudeDegrees>49.42476754076778888702392578125</LatitudeDegrees>
              <LongitudeDegrees>20.02678644843399524688720703125</LongitudeDegrees>
            </Position>
            <AltitudeMeters>642.5999755859375</AltitudeMeters>
            <DistanceMeters>NAN</DistanceMeters>
          </Trackpoint>
          <Trackpoint>
            <Time>2022-09-19T12:20:11.000Z</Time>
            <Position>
              <LatitudeDegrees>49.42478329874575138092041015625</LatitudeDegrees>
              <LongitudeDegrees>20.02681679092347621917724609375</LongitudeDegrees>
            </Position>
            <AltitudeMeters>642.5999755859375</AltitudeMeters>
            <DistanceMeters>NAN</DistanceMeters>
          </Trackpoint>
          <Trackpoint>
            <Time>2022-09-19T12:20:17.000Z</Time>
            <Position>
              <LatitudeDegrees>49.42489595152437686920166015625</LatitudeDegrees>
              <LongitudeDegrees>20.026973783969879150390625</LongitudeDegrees>
            </Position>
            <AltitudeMeters>643</AltitudeMeters>
            <DistanceMeters>NAN</DistanceMeters>
          </Trackpoint>
          <Trackpoint>
            <Time>2022-09-19T12:20:24.000Z</Time>
            <Position>
              <LatitudeDegrees>49.42507767118513584136962890625</LatitudeDegrees>
              <LongitudeDegrees>20.02718827687203884124755859375</LongitudeDegrees>
            </Position>
            <AltitudeMeters>643</AltitudeMeters>
            <DistanceMeters>NAN</DistanceMeters>
          </Trackpoint>
          <Trackpoint>
            <Time>2022-09-19T12:20:30.000Z</Time>
            <Position>
              <LatitudeDegrees>49.42523927427828311920166015625</LatitudeDegrees>
              <LongitudeDegrees>20.02737418748438358306884765625</LongitudeDegrees>
            </Position>
            <AltitudeMeters>642.5999755859375</AltitudeMeters>
            <DistanceMeters>NAN</DistanceMeters>
          </Trackpoint>
          <Trackpoint>
            <Time>2022-09-19T12:20:31.000Z</Time>
            <Position>
              <LatitudeDegrees>49.425265677273273468017578125</LatitudeDegrees>
              <LongitudeDegrees>20.02741173841059207916259765625</LongitudeDegrees>
            </Position>
            <AltitudeMeters>642.5999755859375</AltitudeMeters>
            <DistanceMeters>NAN</DistanceMeters>
          </Trackpoint>
          <Trackpoint>
            <Time>2022-09-19T12:20:36.000Z</Time>
            <Position>
              <LatitudeDegrees>49.4253808446228504180908203125</LatitudeDegrees>
              <LongitudeDegrees>20.02756143920123577117919921875</LongitudeDegrees>
            </Position>
            <AltitudeMeters>642.20001220703125</AltitudeMeters>
            <DistanceMeters>NAN</DistanceMeters>
          </Trackpoint>
          <Trackpoint>
            <Time>2022-09-19T12:20:42.000Z</Time>
            <Position>
              <LatitudeDegrees>49.42551948130130767822265625</LatitudeDegrees>
              <LongitudeDegrees>20.02775070257484912872314453125</LongitudeDegrees>
            </Position>
            <AltitudeMeters>642.20001220703125</AltitudeMeters>
            <DistanceMeters>NAN</DistanceMeters>
          </Trackpoint>
          <Trackpoint>
            <Time>2022-09-19T12:20:47.000Z</Time>
            <Position>
              <LatitudeDegrees>49.4255628995597362518310546875</LatitudeDegrees>
              <LongitudeDegrees>20.02779847942292690277099609375</LongitudeDegrees>
            </Position>
            <AltitudeMeters>641.79998779296875</AltitudeMeters>
            <DistanceMeters>NAN</DistanceMeters>
          </Trackpoint>
          <Trackpoint>
            <Time>2022-09-19T12:20:54.000Z</Time>
            <Position>
              <LatitudeDegrees>49.4255682639777660369873046875</LatitudeDegrees>
              <LongitudeDegrees>20.0277987308800220489501953125</LongitudeDegrees>
            </Position>
            <AltitudeMeters>641.79998779296875</AltitudeMeters>
            <DistanceMeters>NAN</DistanceMeters>
          </Trackpoint>
          <Trackpoint>
            <Time>2022-09-19T12:20:58.000Z</Time>
            <Position>
              <LatitudeDegrees>49.42557505331933498382568359375</LatitudeDegrees>
              <LongitudeDegrees>20.0278148241341114044189453125</LongitudeDegrees>
            </Position>
            <AltitudeMeters>641.79998779296875</AltitudeMeters>
            <DistanceMeters>NAN</DistanceMeters>
          </Trackpoint>
          <Trackpoint>
            <Time>2022-09-19T12:21:01.000Z</Time>
            <Position>
              <LatitudeDegrees>49.42561679519712924957275390625</LatitudeDegrees>
              <LongitudeDegrees>20.02784055657684803009033203125</LongitudeDegrees>
            </Position>
            <AltitudeMeters>641.79998779296875</AltitudeMeters>
            <DistanceMeters>NAN</DistanceMeters>
          </Trackpoint>
          <Trackpoint>
            <Time>2022-09-19T12:21:02.000Z</Time>
            <Position>
              <LatitudeDegrees>49.425637163221836090087890625</LatitudeDegrees>
              <LongitudeDegrees>20.02784290350973606109619140625</LongitudeDegrees>
            </Position>
            <AltitudeMeters>641.79998779296875</AltitudeMeters>
            <DistanceMeters>NAN</DistanceMeters>
          </Trackpoint>
          <Trackpoint>
            <Time>2022-09-19T12:21:06.000Z</Time>
            <Position>
              <LatitudeDegrees>49.425722658634185791015625</LatitudeDegrees>
              <LongitudeDegrees>20.02787106670439243316650390625</LongitudeDegrees>
            </Position>
            <AltitudeMeters>642</AltitudeMeters>
            <DistanceMeters>NAN</DistanceMeters>
          </Trackpoint>
          <Trackpoint>
            <Time>2022-09-19T12:21:12.000Z</Time>
            <Position>
              <LatitudeDegrees>49.42588149569928646087646484375</LatitudeDegrees>
              <LongitudeDegrees>20.0279891677200794219970703125</LongitudeDegrees>
            </Position>
            <AltitudeMeters>641.5999755859375</AltitudeMeters>
            <DistanceMeters>NAN</DistanceMeters>
          </Trackpoint>
          <Trackpoint>
            <Time>2022-09-19T12:21:16.000Z</Time>
            <Position>
              <LatitudeDegrees>49.4259732775390148162841796875</LatitudeDegrees>
              <LongitudeDegrees>20.0280525349080562591552734375</LongitudeDegrees>
            </Position>
            <AltitudeMeters>641.5999755859375</AltitudeMeters>
            <DistanceMeters>NAN</DistanceMeters>
          </Trackpoint>
          <Trackpoint>
            <Time>2022-09-19T12:21:20.000Z</Time>
            <Position>
              <LatitudeDegrees>49.42608249373733997344970703125</LatitudeDegrees>
              <LongitudeDegrees>20.0281172432005405426025390625</LongitudeDegrees>
            </Position>
            <AltitudeMeters>641.5999755859375</AltitudeMeters>
            <DistanceMeters>NAN</DistanceMeters>
          </Trackpoint>
          <Trackpoint>
            <Time>2022-09-19T12:21:21.000Z</Time>
            <Position>
              <LatitudeDegrees>49.42610646598041057586669921875</LatitudeDegrees>
              <LongitudeDegrees>20.02813576720654964447021484375</LongitudeDegrees>
            </Position>
            <AltitudeMeters>641.79998779296875</AltitudeMeters>
            <DistanceMeters>NAN</DistanceMeters>
          </Trackpoint>
          <Trackpoint>
            <Time>2022-09-19T12:21:26.000Z</Time>
            <Position>
              <LatitudeDegrees>49.4262693263590335845947265625</LatitudeDegrees>
              <LongitudeDegrees>20.02813224680721759796142578125</LongitudeDegrees>
            </Position>
            <AltitudeMeters>642.20001220703125</AltitudeMeters>
            <DistanceMeters>NAN</DistanceMeters>
          </Trackpoint>
          <Trackpoint>
            <Time>2022-09-19T12:21:30.000Z</Time>
            <Position>
              <LatitudeDegrees>49.42641257308423519134521484375</LatitudeDegrees>
              <LongitudeDegrees>20.028018839657306671142578125</LongitudeDegrees>
            </Position>
            <AltitudeMeters>642.5999755859375</AltitudeMeters>
            <DistanceMeters>NAN</DistanceMeters>
          </Trackpoint>
          <Trackpoint>
            <Time>2022-09-19T12:21:35.000Z</Time>
            <Position>
              <LatitudeDegrees>49.4265506230294704437255859375</LatitudeDegrees>
              <LongitudeDegrees>20.02781256102025508880615234375</LongitudeDegrees>
            </Position>
            <AltitudeMeters>643</AltitudeMeters>
            <DistanceMeters>NAN</DistanceMeters>
          </Trackpoint>
          <Trackpoint>
            <Time>2022-09-19T12:21:36.000Z</Time>
            <Position>
              <LatitudeDegrees>49.426575936377048492431640625</LatitudeDegrees>
              <LongitudeDegrees>20.02776704728603363037109375</LongitudeDegrees>
            </Position>
            <AltitudeMeters>643.20001220703125</AltitudeMeters>
            <DistanceMeters>NAN</DistanceMeters>
          </Trackpoint>
          <Trackpoint>
            <Time>2022-09-19T12:21:37.000Z</Time>
            <Position>
              <LatitudeDegrees>49.42660041153430938720703125</LatitudeDegrees>
              <LongitudeDegrees>20.027719102799892425537109375</LongitudeDegrees>
            </Position>
            <AltitudeMeters>643.4000244140625</AltitudeMeters>
            <DistanceMeters>NAN</DistanceMeters>
          </Trackpoint>
          <Trackpoint>
            <Time>2022-09-19T12:21:42.000Z</Time>
            <Position>
              <LatitudeDegrees>49.42671247757971286773681640625</LatitudeDegrees>
              <LongitudeDegrees>20.0275010056793689727783203125</LongitudeDegrees>
            </Position>
            <AltitudeMeters>643.20001220703125</AltitudeMeters>
            <DistanceMeters>NAN</DistanceMeters>
          </Trackpoint>
          <Trackpoint>
            <Time>2022-09-19T12:21:45.000Z</Time>
            <Position>
              <LatitudeDegrees>49.42678037099540233612060546875</LatitudeDegrees>
              <LongitudeDegrees>20.0273524783551692962646484375</LongitudeDegrees>
            </Position>
            <AltitudeMeters>643.20001220703125</AltitudeMeters>
            <DistanceMeters>NAN</DistanceMeters>
          </Trackpoint>
          <Trackpoint>
            <Time>2022-09-19T12:21:47.000Z</Time>
            <Position>
              <LatitudeDegrees>49.42682663910090923309326171875</LatitudeDegrees>
              <LongitudeDegrees>20.0272552482783794403076171875</LongitudeDegrees>
            </Position>
            <AltitudeMeters>643.4000244140625</AltitudeMeters>
            <DistanceMeters>NAN</DistanceMeters>
          </Trackpoint>
          <Trackpoint>
            <Time>2022-09-19T12:21:55.000Z</Time>
            <Position>
              <LatitudeDegrees>49.42700534127652645111083984375</LatitudeDegrees>
              <LongitudeDegrees>20.02694427967071533203125</LongitudeDegrees>
            </Position>
            <AltitudeMeters>643</AltitudeMeters>
            <DistanceMeters>NAN</DistanceMeters>
          </Trackpoint>
          <Trackpoint>
            <Time>2022-09-19T12:22:03.000Z</Time>
            <Position>
              <LatitudeDegrees>49.4271911680698394775390625</LatitudeDegrees>
              <LongitudeDegrees>20.02668955363333225250244140625</LongitudeDegrees>
            </Position>
            <AltitudeMeters>642.4000244140625</AltitudeMeters>
            <DistanceMeters>NAN</DistanceMeters>
          </Trackpoint>
          <Trackpoint>
            <Time>2022-09-19T12:22:05.000Z</Time>
            <Position>
              <LatitudeDegrees>49.427224695682525634765625</LatitudeDegrees>
              <LongitudeDegrees>20.026646554470062255859375</LongitudeDegrees>
            </Position>
            <AltitudeMeters>642.20001220703125</AltitudeMeters>
            <DistanceMeters>NAN</DistanceMeters>
          </Trackpoint>
          <Trackpoint>
            <Time>2022-09-19T12:22:08.000Z</Time>
            <Position>
              <LatitudeDegrees>49.42724556662142276763916015625</LatitudeDegrees>
              <LongitudeDegrees>20.02662451006472110748291015625</LongitudeDegrees>
            </Position>
            <AltitudeMeters>642.20001220703125</AltitudeMeters>
            <DistanceMeters>NAN</DistanceMeters>
          </Trackpoint>
          <Trackpoint>
            <Time>2022-09-19T12:22:15.000Z</Time>
            <Position>
              <LatitudeDegrees>49.4272662699222564697265625</LatitudeDegrees>
              <LongitudeDegrees>20.0265942513942718505859375</LongitudeDegrees>
            </Position>
            <AltitudeMeters>642</AltitudeMeters>
            <DistanceMeters>NAN</DistanceMeters>
          </Trackpoint>
          <Trackpoint>
            <Time>2022-09-19T12:22:16.000Z</Time>
            <Position>
              <LatitudeDegrees>49.42727942951023578643798828125</LatitudeDegrees>
              <LongitudeDegrees>20.026576481759548187255859375</LongitudeDegrees>
            </Position>
            <AltitudeMeters>642</AltitudeMeters>
            <DistanceMeters>NAN</DistanceMeters>
          </Trackpoint>
          <Trackpoint>
            <Time>2022-09-19T12:22:20.000Z</Time>
            <Position>
              <LatitudeDegrees>49.42736559547483921051025390625</LatitudeDegrees>
              <LongitudeDegrees>20.026521496474742889404296875</LongitudeDegrees>
            </Position>
            <AltitudeMeters>641.79998779296875</AltitudeMeters>
            <DistanceMeters>NAN</DistanceMeters>
          </Trackpoint>
          <Trackpoint>
            <Time>2022-09-19T12:22:26.000Z</Time>
            <Position>
              <LatitudeDegrees>49.4275584630668163299560546875</LatitudeDegrees>
              <LongitudeDegrees>20.02639031969010829925537109375</LongitudeDegrees>
            </Position>
            <AltitudeMeters>641.79998779296875</AltitudeMeters>
            <DistanceMeters>NAN</DistanceMeters>
          </Trackpoint>
          <Trackpoint>
            <Time>2022-09-19T12:22:34.000Z</Time>
            <Position>
              <LatitudeDegrees>49.42782810889184474945068359375</LatitudeDegrees>
              <LongitudeDegrees>20.02621849067509174346923828125</LongitudeDegrees>
            </Position>
            <AltitudeMeters>641.4000244140625</AltitudeMeters>
            <DistanceMeters>NAN</DistanceMeters>
          </Trackpoint>
          <Trackpoint>
            <Time>2022-09-19T12:22:41.000Z</Time>
            <Position>
              <LatitudeDegrees>49.42808895371854305267333984375</LatitudeDegrees>
              <LongitudeDegrees>20.02606627531349658966064453125</LongitudeDegrees>
            </Position>
            <AltitudeMeters>641</AltitudeMeters>
            <DistanceMeters>NAN</DistanceMeters>
          </Trackpoint>
          <Trackpoint>
            <Time>2022-09-19T12:22:43.000Z</Time>
            <Position>
              <LatitudeDegrees>49.42816640250384807586669921875</LatitudeDegrees>
              <LongitudeDegrees>20.02602034248411655426025390625</LongitudeDegrees>
            </Position>
            <AltitudeMeters>640.79998779296875</AltitudeMeters>
            <DistanceMeters>NAN</DistanceMeters>
          </Trackpoint>
          <Trackpoint>
            <Time>2022-09-19T12:22:53.000Z</Time>
            <Position>
              <LatitudeDegrees>49.42854342050850391387939453125</LatitudeDegrees>
              <LongitudeDegrees>20.02579352818429470062255859375</LongitudeDegrees>
            </Position>
            <AltitudeMeters>640.4000244140625</AltitudeMeters>
            <DistanceMeters>NAN</DistanceMeters>
          </Trackpoint>
          <Trackpoint>
            <Time>2022-09-19T12:23:00.000Z</Time>
            <Position>
              <LatitudeDegrees>49.42878833971917629241943359375</LatitudeDegrees>
              <LongitudeDegrees>20.02564047463238239288330078125</LongitudeDegrees>
            </Position>
            <AltitudeMeters>640</AltitudeMeters>
            <DistanceMeters>NAN</DistanceMeters>
          </Trackpoint>
          <Trackpoint>
            <Time>2022-09-19T12:23:03.000Z</Time>
            <Position>
              <LatitudeDegrees>49.428882636129856109619140625</LatitudeDegrees>
              <LongitudeDegrees>20.025589764118194580078125</LongitudeDegrees>
            </Position>
            <AltitudeMeters>639.79998779296875</AltitudeMeters>
            <DistanceMeters>NAN</DistanceMeters>
          </Trackpoint>
          <Trackpoint>
            <Time>2022-09-19T12:23:10.000Z</Time>
            <Position>
              <LatitudeDegrees>49.42909645847976207733154296875</LatitudeDegrees>
              <LongitudeDegrees>20.025461353361606597900390625</LongitudeDegrees>
            </Position>
            <AltitudeMeters>639.4000244140625</AltitudeMeters>
            <DistanceMeters>NAN</DistanceMeters>
          </Trackpoint>
          <Trackpoint>
            <Time>2022-09-19T12:23:11.000Z</Time>
            <Position>
              <LatitudeDegrees>49.42912613041698932647705078125</LatitudeDegrees>
              <LongitudeDegrees>20.02544500865042209625244140625</LongitudeDegrees>
            </Position>
            <AltitudeMeters>639.4000244140625</AltitudeMeters>
            <DistanceMeters>NAN</DistanceMeters>
          </Trackpoint>
          <Trackpoint>
            <Time>2022-09-19T12:23:20.000Z</Time>
            <Position>
              <LatitudeDegrees>49.42940440960228443145751953125</LatitudeDegrees>
              <LongitudeDegrees>20.02526949159801006317138671875</LongitudeDegrees>
            </Position>
            <AltitudeMeters>639.4000244140625</AltitudeMeters>
            <DistanceMeters>NAN</DistanceMeters>
          </Trackpoint>
          <Trackpoint>
            <Time>2022-09-19T12:23:28.000Z</Time>
            <Position>
              <LatitudeDegrees>49.4296871311962604522705078125</LatitudeDegrees>
              <LongitudeDegrees>20.025113336741924285888671875</LongitudeDegrees>
            </Position>
            <AltitudeMeters>639.20001220703125</AltitudeMeters>
            <DistanceMeters>NAN</DistanceMeters>
          </Trackpoint>
          <Trackpoint>
            <Time>2022-09-19T12:23:36.000Z</Time>
            <Position>
              <LatitudeDegrees>49.429960213601589202880859375</LatitudeDegrees>
              <LongitudeDegrees>20.02495952881872653961181640625</LongitudeDegrees>
            </Position>
            <AltitudeMeters>638.79998779296875</AltitudeMeters>
            <DistanceMeters>NAN</DistanceMeters>
          </Trackpoint>
          <Trackpoint>
            <Time>2022-09-19T12:23:39.000Z</Time>
            <Position>
              <LatitudeDegrees>49.43004696629941463470458984375</LatitudeDegrees>
              <LongitudeDegrees>20.02491108141839504241943359375</LongitudeDegrees>
            </Position>
            <AltitudeMeters>638.5999755859375</AltitudeMeters>
            <DistanceMeters>NAN</DistanceMeters>
          </Trackpoint>
          <Trackpoint>
            <Time>2022-09-19T12:23:41.000Z</Time>
            <Position>
              <LatitudeDegrees>49.43011670373380184173583984375</LatitudeDegrees>
              <LongitudeDegrees>20.0248710997402667999267578125</LongitudeDegrees>
            </Position>
            <AltitudeMeters>638.5999755859375</AltitudeMeters>
            <DistanceMeters>NAN</DistanceMeters>
          </Trackpoint>
          <Trackpoint>
            <Time>2022-09-19T12:23:42.000Z</Time>
            <Position>
              <LatitudeDegrees>49.43015123717486858367919921875</LatitudeDegrees>
              <LongitudeDegrees>20.0248483009636402130126953125</LongitudeDegrees>
            </Position>
            <AltitudeMeters>638.5999755859375</AltitudeMeters>
            <DistanceMeters>NAN</DistanceMeters>
          </Trackpoint>
          <Trackpoint>
            <Time>2022-09-19T12:23:47.000Z</Time>
            <Position>
              <LatitudeDegrees>49.430314935743808746337890625</LatitudeDegrees>
              <LongitudeDegrees>20.024732463061809539794921875</LongitudeDegrees>
            </Position>
            <AltitudeMeters>638.5999755859375</AltitudeMeters>
            <DistanceMeters>NAN</DistanceMeters>
          </Trackpoint>
          <Trackpoint>
            <Time>2022-09-19T12:23:51.000Z</Time>
            <Position>
              <LatitudeDegrees>49.4304260797798633575439453125</LatitudeDegrees>
              <LongitudeDegrees>20.02462073229253292083740234375</LongitudeDegrees>
            </Position>
            <AltitudeMeters>638.4000244140625</AltitudeMeters>
            <DistanceMeters>NAN</DistanceMeters>
          </Trackpoint>
          <Trackpoint>
            <Time>2022-09-19T12:23:58.000Z</Time>
            <Position>
              <LatitudeDegrees>49.430622048676013946533203125</LatitudeDegrees>
              <LongitudeDegrees>20.02439081668853759765625</LongitudeDegrees>
            </Position>
            <AltitudeMeters>638.20001220703125</AltitudeMeters>
            <DistanceMeters>NAN</DistanceMeters>
          </Trackpoint>
          <Trackpoint>
            <Time>2022-09-19T12:24:01.000Z</Time>
            <Position>
              <LatitudeDegrees>49.43070243112742900848388671875</LatitudeDegrees>
              <LongitudeDegrees>20.02429283224046230316162109375</LongitudeDegrees>
            </Position>
            <AltitudeMeters>638.20001220703125</AltitudeMeters>
            <DistanceMeters>NAN</DistanceMeters>
          </Trackpoint>
          <Trackpoint>
            <Time>2022-09-19T12:24:09.000Z</Time>
            <Position>
              <LatitudeDegrees>49.43094148300588130950927734375</LatitudeDegrees>
              <LongitudeDegrees>20.02408948726952075958251953125</LongitudeDegrees>
            </Position>
            <AltitudeMeters>638.20001220703125</AltitudeMeters>
            <DistanceMeters>NAN</DistanceMeters>
          </Trackpoint>
          <Trackpoint>
            <Time>2022-09-19T12:24:16.000Z</Time>
            <Position>
              <LatitudeDegrees>49.43109453655779361724853515625</LatitudeDegrees>
              <LongitudeDegrees>20.02400499768555164337158203125</LongitudeDegrees>
            </Position>
            <AltitudeMeters>638.4000244140625</AltitudeMeters>
            <DistanceMeters>NAN</DistanceMeters>
          </Trackpoint>
          <Trackpoint>
            <Time>2022-09-19T12:24:21.000Z</Time>
            <Position>
              <LatitudeDegrees>49.4312220253050327301025390625</LatitudeDegrees>
              <LongitudeDegrees>20.02396040596067905426025390625</LongitudeDegrees>
            </Position>
            <AltitudeMeters>638.20001220703125</AltitudeMeters>
            <DistanceMeters>NAN</DistanceMeters>
          </Trackpoint>
          <Trackpoint>
            <Time>2022-09-19T12:24:25.000Z</Time>
            <Position>
              <LatitudeDegrees>49.43133811466395854949951171875</LatitudeDegrees>
              <LongitudeDegrees>20.0239229388535022735595703125</LongitudeDegrees>
            </Position>
            <AltitudeMeters>638.4000244140625</AltitudeMeters>
            <DistanceMeters>NAN</DistanceMeters>
          </Trackpoint>
          <Trackpoint>
            <Time>2022-09-19T12:24:31.000Z</Time>
            <Position>
              <LatitudeDegrees>49.431527294218540191650390625</LatitudeDegrees>
              <LongitudeDegrees>20.02384188584983348846435546875</LongitudeDegrees>
            </Position>
            <AltitudeMeters>638.20001220703125</AltitudeMeters>
            <DistanceMeters>NAN</DistanceMeters>
          </Trackpoint>
          <Trackpoint>
            <Time>2022-09-19T12:24:37.000Z</Time>
            <Position>
              <LatitudeDegrees>49.43170758895576000213623046875</LatitudeDegrees>
              <LongitudeDegrees>20.02379092387855052947998046875</LongitudeDegrees>
            </Position>
            <AltitudeMeters>637.79998779296875</AltitudeMeters>
            <DistanceMeters>NAN</DistanceMeters>
          </Trackpoint>
          <Trackpoint>
            <Time>2022-09-19T12:24:46.000Z</Time>
            <Position>
              <LatitudeDegrees>49.4320578686892986297607421875</LatitudeDegrees>
              <LongitudeDegrees>20.02365522086620330810546875</LongitudeDegrees>
            </Position>
            <AltitudeMeters>638.20001220703125</AltitudeMeters>
            <DistanceMeters>NAN</DistanceMeters>
          </Trackpoint>
          <Trackpoint>
            <Time>2022-09-19T12:24:47.000Z</Time>
            <Position>
              <LatitudeDegrees>49.43210028111934661865234375</LatitudeDegrees>
              <LongitudeDegrees>20.02364541403949260711669921875</LongitudeDegrees>
            </Position>
            <AltitudeMeters>638.4000244140625</AltitudeMeters>
            <DistanceMeters>NAN</DistanceMeters>
          </Trackpoint>
          <Trackpoint>
            <Time>2022-09-19T12:24:53.000Z</Time>
            <Position>
              <LatitudeDegrees>49.43231443874537944793701171875</LatitudeDegrees>
              <LongitudeDegrees>20.023577772080898284912109375</LongitudeDegrees>
            </Position>
            <AltitudeMeters>638.79998779296875</AltitudeMeters>
            <DistanceMeters>NAN</DistanceMeters>
          </Trackpoint>
          <Trackpoint>
            <Time>2022-09-19T12:24:59.000Z</Time>
            <Position>
              <LatitudeDegrees>49.4324893690645694732666015625</LatitudeDegrees>
              <LongitudeDegrees>20.023517422378063201904296875</LongitudeDegrees>
            </Position>
            <AltitudeMeters>639</AltitudeMeters>
            <DistanceMeters>NAN</DistanceMeters>
          </Trackpoint>
          <Trackpoint>
            <Time>2022-09-19T12:25:01.000Z</Time>
            <Position>
              <LatitudeDegrees>49.43254552781581878662109375</LatitudeDegrees>
              <LongitudeDegrees>20.02350761555135250091552734375</LongitudeDegrees>
            </Position>
            <AltitudeMeters>639</AltitudeMeters>
            <DistanceMeters>NAN</DistanceMeters>
          </Trackpoint>
          <Trackpoint>
            <Time>2022-09-19T12:25:10.000Z</Time>
            <Position>
              <LatitudeDegrees>49.4328357093036174774169921875</LatitudeDegrees>
              <LongitudeDegrees>20.02341927029192447662353515625</LongitudeDegrees>
            </Position>
            <AltitudeMeters>638.79998779296875</AltitudeMeters>
            <DistanceMeters>NAN</DistanceMeters>
          </Trackpoint>
          <Trackpoint>
            <Time>2022-09-19T12:25:11.000Z</Time>
            <Position>
              <LatitudeDegrees>49.43286697380244731903076171875</LatitudeDegrees>
              <LongitudeDegrees>20.0234032608568668365478515625</LongitudeDegrees>
            </Position>
            <AltitudeMeters>638.79998779296875</AltitudeMeters>
            <DistanceMeters>NAN</DistanceMeters>
          </Trackpoint>
          <Trackpoint>
            <Time>2022-09-19T12:25:15.000Z</Time>
            <Position>
              <LatitudeDegrees>49.4330020062625408172607421875</LatitudeDegrees>
              <LongitudeDegrees>20.023362524807453155517578125</LongitudeDegrees>
            </Position>
            <AltitudeMeters>638.4000244140625</AltitudeMeters>
            <DistanceMeters>NAN</DistanceMeters>
          </Trackpoint>
          <Trackpoint>
            <Time>2022-09-19T12:25:19.000Z</Time>
            <Position>
              <LatitudeDegrees>49.43312731571495532989501953125</LatitudeDegrees>
              <LongitudeDegrees>20.023317597806453704833984375</LongitudeDegrees>
            </Position>
            <AltitudeMeters>638.20001220703125</AltitudeMeters>
            <DistanceMeters>NAN</DistanceMeters>
          </Trackpoint>
          <Trackpoint>
            <Time>2022-09-19T12:25:21.000Z</Time>
            <Position>
              <LatitudeDegrees>49.43318213336169719696044921875</LatitudeDegrees>
              <LongitudeDegrees>20.02328985370695590972900390625</LongitudeDegrees>
            </Position>
            <AltitudeMeters>638.20001220703125</AltitudeMeters>
            <DistanceMeters>NAN</DistanceMeters>
          </Trackpoint>
          <Trackpoint>
            <Time>2022-09-19T12:25:27.000Z</Time>
            <Position>
              <LatitudeDegrees>49.43339939229190349578857421875</LatitudeDegrees>
              <LongitudeDegrees>20.02321106381714344024658203125</LongitudeDegrees>
            </Position>
            <AltitudeMeters>638.4000244140625</AltitudeMeters>
            <DistanceMeters>NAN</DistanceMeters>
          </Trackpoint>
          <Trackpoint>
            <Time>2022-09-19T12:25:36.000Z</Time>
            <Position>
              <LatitudeDegrees>49.43372997455298900604248046875</LatitudeDegrees>
              <LongitudeDegrees>20.02311903052031993865966796875</LongitudeDegrees>
            </Position>
            <AltitudeMeters>637.79998779296875</AltitudeMeters>
            <DistanceMeters>NAN</DistanceMeters>
          </Trackpoint>
          <Trackpoint>
            <Time>2022-09-19T12:25:39.000Z</Time>
            <Position>
              <LatitudeDegrees>49.43384715355932712554931640625</LatitudeDegrees>
              <LongitudeDegrees>20.0230897776782512664794921875</LongitudeDegrees>
            </Position>
            <AltitudeMeters>637.4000244140625</AltitudeMeters>
            <DistanceMeters>NAN</DistanceMeters>
          </Trackpoint>
          <Trackpoint>
            <Time>2022-09-19T12:25:41.000Z</Time>
            <Position>
              <LatitudeDegrees>49.43392242304980754852294921875</LatitudeDegrees>
              <LongitudeDegrees>20.02306605689227581024169921875</LongitudeDegrees>
            </Position>
            <AltitudeMeters>637.4000244140625</AltitudeMeters>
            <DistanceMeters>NAN</DistanceMeters>
          </Trackpoint>
          <Trackpoint>
            <Time>2022-09-19T12:25:44.000Z</Time>
            <Position>
              <LatitudeDegrees>49.434027113020420074462890625</LatitudeDegrees>
              <LongitudeDegrees>20.02302532084286212921142578125</LongitudeDegrees>
            </Position>
            <AltitudeMeters>637.4000244140625</AltitudeMeters>
            <DistanceMeters>NAN</DistanceMeters>
          </Trackpoint>
          <Trackpoint>
            <Time>2022-09-19T12:25:52.000Z</Time>
            <Position>
              <LatitudeDegrees>49.43429768085479736328125</LatitudeDegrees>
              <LongitudeDegrees>20.02294384874403476715087890625</LongitudeDegrees>
            </Position>
            <AltitudeMeters>637</AltitudeMeters>
            <DistanceMeters>NAN</DistanceMeters>
          </Trackpoint>
          <Trackpoint>
            <Time>2022-09-19T12:25:55.000Z</Time>
            <Position>
              <LatitudeDegrees>49.43439231254160404205322265625</LatitudeDegrees>
              <LongitudeDegrees>20.0229016877710819244384765625</LongitudeDegrees>
            </Position>
            <AltitudeMeters>637.20001220703125</AltitudeMeters>
            <DistanceMeters>NAN</DistanceMeters>
          </Trackpoint>
          <Trackpoint>
            <Time>2022-09-19T12:25:59.000Z</Time>
            <Position>
              <LatitudeDegrees>49.4345224834978580474853515625</LatitudeDegrees>
              <LongitudeDegrees>20.02285164780914783477783203125</LongitudeDegrees>
            </Position>
            <AltitudeMeters>637</AltitudeMeters>
            <DistanceMeters>NAN</DistanceMeters>
          </Trackpoint>
          <Trackpoint>
            <Time>2022-09-19T12:26:05.000Z</Time>
            <Position>
              <LatitudeDegrees>49.4347303546965122222900390625</LatitudeDegrees>
              <LongitudeDegrees>20.02277872525155544281005859375</LongitudeDegrees>
            </Position>
            <AltitudeMeters>636.79998779296875</AltitudeMeters>
            <DistanceMeters>NAN</DistanceMeters>
          </Trackpoint>
          <Trackpoint>
            <Time>2022-09-19T12:26:08.000Z</Time>
            <Position>
              <LatitudeDegrees>49.43484342657029628753662109375</LatitudeDegrees>
              <LongitudeDegrees>20.02274620346724987030029296875</LongitudeDegrees>
            </Position>
            <AltitudeMeters>636.5999755859375</AltitudeMeters>
            <DistanceMeters>NAN</DistanceMeters>
          </Trackpoint>
          <Trackpoint>
            <Time>2022-09-19T12:26:16.000Z</Time>
            <Position>
              <LatitudeDegrees>49.43515942431986331939697265625</LatitudeDegrees>
              <LongitudeDegrees>20.02263103611767292022705078125</LongitudeDegrees>
            </Position>
            <AltitudeMeters>635.5999755859375</AltitudeMeters>
            <DistanceMeters>NAN</DistanceMeters>
          </Trackpoint>
          <Trackpoint>
            <Time>2022-09-19T12:26:18.000Z</Time>
            <Position>
              <LatitudeDegrees>49.43522647954523563385009765625</LatitudeDegrees>
              <LongitudeDegrees>20.02257504500448703765869140625</LongitudeDegrees>
            </Position>
            <AltitudeMeters>635.4000244140625</AltitudeMeters>
            <DistanceMeters>NAN</DistanceMeters>
          </Trackpoint>
          <Trackpoint>
            <Time>2022-09-19T12:26:22.000Z</Time>
            <Position>
              <LatitudeDegrees>49.43537903018295764923095703125</LatitudeDegrees>
              <LongitudeDegrees>20.02252022735774517059326171875</LongitudeDegrees>
            </Position>
            <AltitudeMeters>635.20001220703125</AltitudeMeters>
            <DistanceMeters>NAN</DistanceMeters>
          </Trackpoint>
          <Trackpoint>
            <Time>2022-09-19T12:26:30.000Z</Time>
            <Position>
              <LatitudeDegrees>49.4356875680387020111083984375</LatitudeDegrees>
              <LongitudeDegrees>20.022433809936046600341796875</LongitudeDegrees>
            </Position>
            <AltitudeMeters>634.79998779296875</AltitudeMeters>
            <DistanceMeters>NAN</DistanceMeters>
          </Trackpoint>
          <Trackpoint>
            <Time>2022-09-19T12:26:38.000Z</Time>
            <Position>
              <LatitudeDegrees>49.435943551361560821533203125</LatitudeDegrees>
              <LongitudeDegrees>20.02237337641417980194091796875</LongitudeDegrees>
            </Position>
            <AltitudeMeters>634.5999755859375</AltitudeMeters>
            <DistanceMeters>NAN</DistanceMeters>
          </Trackpoint>
          <Trackpoint>
            <Time>2022-09-19T12:26:41.000Z</Time>
            <Position>
              <LatitudeDegrees>49.436011277139186859130859375</LatitudeDegrees>
              <LongitudeDegrees>20.0223431177437305450439453125</LongitudeDegrees>
            </Position>
            <AltitudeMeters>634.4000244140625</AltitudeMeters>
            <DistanceMeters>NAN</DistanceMeters>
          </Trackpoint>
          <Trackpoint>
            <Time>2022-09-19T12:26:43.000Z</Time>
            <Position>
              <LatitudeDegrees>49.4360478222370147705078125</LatitudeDegrees>
              <LongitudeDegrees>20.02232559956610202789306640625</LongitudeDegrees>
            </Position>
            <AltitudeMeters>634.20001220703125</AltitudeMeters>
            <DistanceMeters>NAN</DistanceMeters>
          </Trackpoint>
          <Trackpoint>
            <Time>2022-09-19T12:26:47.000Z</Time>
            <Position>
              <LatitudeDegrees>49.43606634624302387237548828125</LatitudeDegrees>
              <LongitudeDegrees>20.02232325263321399688720703125</LongitudeDegrees>
            </Position>
            <AltitudeMeters>634</AltitudeMeters>
            <DistanceMeters>NAN</DistanceMeters>
          </Trackpoint>
          <Trackpoint>
            <Time>2022-09-19T12:26:48.000Z</Time>
            <Position>
              <LatitudeDegrees>49.43606634624302387237548828125</LatitudeDegrees>
              <LongitudeDegrees>20.02232325263321399688720703125</LongitudeDegrees>
            </Position>
            <AltitudeMeters>634</AltitudeMeters>
            <DistanceMeters>NAN</DistanceMeters>
          </Trackpoint>
          <Trackpoint>
            <Time>2022-09-19T12:27:01.000Z</Time>
            <Position>
              <LatitudeDegrees>49.43606634624302387237548828125</LatitudeDegrees>
              <LongitudeDegrees>20.02232325263321399688720703125</LongitudeDegrees>
            </Position>
            <AltitudeMeters>634</AltitudeMeters>
            <DistanceMeters>NAN</DistanceMeters>
          </Trackpoint>
          <Trackpoint>
            <Time>2022-09-19T12:27:03.000Z</Time>
            <Position>
              <LatitudeDegrees>49.43606634624302387237548828125</LatitudeDegrees>
              <LongitudeDegrees>20.02232325263321399688720703125</LongitudeDegrees>
            </Position>
            <AltitudeMeters>634</AltitudeMeters>
            <DistanceMeters>NAN</DistanceMeters>
          </Trackpoint>
          <Trackpoint>
            <Time>2022-09-19T12:27:05.000Z</Time>
            <Position>
              <LatitudeDegrees>49.43606634624302387237548828125</LatitudeDegrees>
              <LongitudeDegrees>20.02232325263321399688720703125</LongitudeDegrees>
            </Position>
            <AltitudeMeters>634</AltitudeMeters>
            <DistanceMeters>NAN</DistanceMeters>
          </Trackpoint>
          <Trackpoint>
            <Time>2022-09-19T12:27:06.000Z</Time>
            <Position>
              <LatitudeDegrees>49.4360681064426898956298828125</LatitudeDegrees>
              <LongitudeDegrees>20.02232484519481658935546875</LongitudeDegrees>
            </Position>
            <AltitudeMeters>634</AltitudeMeters>
            <DistanceMeters>NAN</DistanceMeters>
          </Trackpoint>
          <Trackpoint>
            <Time>2022-09-19T12:27:09.000Z</Time>
            <Position>
              <LatitudeDegrees>49.43611554801464080810546875</LatitudeDegrees>
              <LongitudeDegrees>20.02234772779047489166259765625</LongitudeDegrees>
            </Position>
            <AltitudeMeters>634</AltitudeMeters>
            <DistanceMeters>NAN</DistanceMeters>
          </Trackpoint>
          <Trackpoint>
            <Time>2022-09-19T12:27:14.000Z</Time>
            <Position>
              <LatitudeDegrees>49.43621789105236530303955078125</LatitudeDegrees>
              <LongitudeDegrees>20.02241008915007114410400390625</LongitudeDegrees>
            </Position>
            <AltitudeMeters>633.5999755859375</AltitudeMeters>
            <DistanceMeters>NAN</DistanceMeters>
          </Trackpoint>
          <Trackpoint>
            <Time>2022-09-19T12:27:16.000Z</Time>
            <Position>
              <LatitudeDegrees>49.436262063682079315185546875</LatitudeDegrees>
              <LongitudeDegrees>20.02244378440082073211669921875</LongitudeDegrees>
            </Position>
            <AltitudeMeters>633.4000244140625</AltitudeMeters>
            <DistanceMeters>NAN</DistanceMeters>
          </Trackpoint>
          <Trackpoint>
            <Time>2022-09-19T12:27:20.000Z</Time>
            <Position>
              <LatitudeDegrees>49.4363353215157985687255859375</LatitudeDegrees>
              <LongitudeDegrees>20.0224846042692661285400390625</LongitudeDegrees>
            </Position>
            <AltitudeMeters>633.20001220703125</AltitudeMeters>
            <DistanceMeters>NAN</DistanceMeters>
          </Trackpoint>
          <Trackpoint>
            <Time>2022-09-19T12:27:22.000Z</Time>
            <Position>
              <LatitudeDegrees>49.436371363699436187744140625</LatitudeDegrees>
              <LongitudeDegrees>20.02245719544589519500732421875</LongitudeDegrees>
            </Position>
            <AltitudeMeters>633</AltitudeMeters>
            <DistanceMeters>NAN</DistanceMeters>
          </Trackpoint>
          <Trackpoint>
            <Time>2022-09-19T12:27:27.000Z</Time>
            <Position>
              <LatitudeDegrees>49.436410255730152130126953125</LatitudeDegrees>
              <LongitudeDegrees>20.02241059206426143646240234375</LongitudeDegrees>
            </Position>
            <AltitudeMeters>632.79998779296875</AltitudeMeters>
            <DistanceMeters>NAN</DistanceMeters>
          </Trackpoint>
          <Trackpoint>
            <Time>2022-09-19T12:27:37.000Z</Time>
            <Position>
              <LatitudeDegrees>49.436416961252689361572265625</LatitudeDegrees>
              <LongitudeDegrees>20.02238628454506397247314453125</LongitudeDegrees>
            </Position>
            <AltitudeMeters>633</AltitudeMeters>
            <DistanceMeters>NAN</DistanceMeters>
          </Trackpoint>
          <Trackpoint>
            <Time>2022-09-19T12:27:43.000Z</Time>
            <Position>
              <LatitudeDegrees>49.4363938271999359130859375</LatitudeDegrees>
              <LongitudeDegrees>20.0224460475146770477294921875</LongitudeDegrees>
            </Position>
            <AltitudeMeters>633</AltitudeMeters>
            <DistanceMeters>NAN</DistanceMeters>
          </Trackpoint>
          <Trackpoint>
            <Time>2022-09-19T12:27:52.000Z</Time>
            <Position>
              <LatitudeDegrees>49.4362991116940975189208984375</LatitudeDegrees>
              <LongitudeDegrees>20.0224797427654266357421875</LongitudeDegrees>
            </Position>
            <AltitudeMeters>633.4000244140625</AltitudeMeters>
            <DistanceMeters>NAN</DistanceMeters>
          </Trackpoint>
          <Trackpoint>
            <Time>2022-09-19T12:28:00.000Z</Time>
            <Position>
              <LatitudeDegrees>49.436219148337841033935546875</LatitudeDegrees>
              <LongitudeDegrees>20.02247982658445835113525390625</LongitudeDegrees>
            </Position>
            <AltitudeMeters>633.4000244140625</AltitudeMeters>
            <DistanceMeters>NAN</DistanceMeters>
          </Trackpoint>
          <Trackpoint>
            <Time>2022-09-19T12:28:07.000Z</Time>
            <Position>
              <LatitudeDegrees>49.4361546076834201812744140625</LatitudeDegrees>
              <LongitudeDegrees>20.0224100053310394287109375</LongitudeDegrees>
            </Position>
            <AltitudeMeters>633.4000244140625</AltitudeMeters>
            <DistanceMeters>NAN</DistanceMeters>
          </Trackpoint>
          <Trackpoint>
            <Time>2022-09-19T12:28:13.000Z</Time>
            <Position>
              <LatitudeDegrees>49.43617078475654125213623046875</LatitudeDegrees>
              <LongitudeDegrees>20.02233280800282955169677734375</LongitudeDegrees>
            </Position>
            <AltitudeMeters>633.4000244140625</AltitudeMeters>
            <DistanceMeters>NAN</DistanceMeters>
          </Trackpoint>
          <Trackpoint>
            <Time>2022-09-19T12:28:22.000Z</Time>
            <Position>
              <LatitudeDegrees>49.4362417794764041900634765625</LatitudeDegrees>
              <LongitudeDegrees>20.02225955016911029815673828125</LongitudeDegrees>
            </Position>
            <AltitudeMeters>633.4000244140625</AltitudeMeters>
            <DistanceMeters>NAN</DistanceMeters>
          </Trackpoint>
          <Trackpoint>
            <Time>2022-09-19T12:28:29.000Z</Time>
            <Position>
              <LatitudeDegrees>49.43631378002464771270751953125</LatitudeDegrees>
              <LongitudeDegrees>20.02219299785792827606201171875</LongitudeDegrees>
            </Position>
            <AltitudeMeters>632.79998779296875</AltitudeMeters>
            <DistanceMeters>NAN</DistanceMeters>
          </Trackpoint>
          <Trackpoint>
            <Time>2022-09-19T12:28:30.000Z</Time>
            <Position>
              <LatitudeDegrees>49.43632719106972217559814453125</LatitudeDegrees>
              <LongitudeDegrees>20.022171624004840850830078125</LongitudeDegrees>
            </Position>
            <AltitudeMeters>632.79998779296875</AltitudeMeters>
            <DistanceMeters>NAN</DistanceMeters>
          </Trackpoint>
          <Trackpoint>
            <Time>2022-09-19T12:28:33.000Z</Time>
            <Position>
              <LatitudeDegrees>49.43634579889476299285888671875</LatitudeDegrees>
              <LongitudeDegrees>20.022173635661602020263671875</LongitudeDegrees>
            </Position>
            <AltitudeMeters>632.5999755859375</AltitudeMeters>
            <DistanceMeters>NAN</DistanceMeters>
          </Trackpoint>
          <Trackpoint>
            <Time>2022-09-19T12:28:35.000Z</Time>
            <Position>
              <LatitudeDegrees>49.43633691407740116119384765625</LatitudeDegrees>
              <LongitudeDegrees>20.02213038504123687744140625</LongitudeDegrees>
            </Position>
            <AltitudeMeters>632.5999755859375</AltitudeMeters>
            <DistanceMeters>NAN</DistanceMeters>
          </Trackpoint>
          <Trackpoint>
            <Time>2022-09-19T12:28:38.000Z</Time>
            <Position>
              <LatitudeDegrees>49.43634563125669956207275390625</LatitudeDegrees>
              <LongitudeDegrees>20.0220360048115253448486328125</LongitudeDegrees>
            </Position>
            <AltitudeMeters>632.5999755859375</AltitudeMeters>
            <DistanceMeters>NAN</DistanceMeters>
          </Trackpoint>
          <Trackpoint>
            <Time>2022-09-19T12:28:43.000Z</Time>
            <Position>
              <LatitudeDegrees>49.43639307282865047454833984375</LatitudeDegrees>
              <LongitudeDegrees>20.0219942629337310791015625</LongitudeDegrees>
            </Position>
            <AltitudeMeters>632.5999755859375</AltitudeMeters>
            <DistanceMeters>NAN</DistanceMeters>
          </Trackpoint>
          <Trackpoint>
            <Time>2022-09-19T12:28:44.000Z</Time>
            <Position>
              <LatitudeDegrees>49.43640246056020259857177734375</LatitudeDegrees>
              <LongitudeDegrees>20.0220051594078540802001953125</LongitudeDegrees>
            </Position>
            <AltitudeMeters>632.4000244140625</AltitudeMeters>
            <DistanceMeters>NAN</DistanceMeters>
          </Trackpoint>
          <Trackpoint>
            <Time>2022-09-19T12:28:49.000Z</Time>
            <Position>
              <LatitudeDegrees>49.43644738756120204925537109375</LatitudeDegrees>
              <LongitudeDegrees>20.02196534536778926849365234375</LongitudeDegrees>
            </Position>
            <AltitudeMeters>632.4000244140625</AltitudeMeters>
            <DistanceMeters>NAN</DistanceMeters>
          </Trackpoint>
          <Trackpoint>
            <Time>2022-09-19T12:28:51.000Z</Time>
            <Position>
              <LatitudeDegrees>49.4364690966904163360595703125</LatitudeDegrees>
              <LongitudeDegrees>20.02196081914007663726806640625</LongitudeDegrees>
            </Position>
            <AltitudeMeters>632.4000244140625</AltitudeMeters>
            <DistanceMeters>NAN</DistanceMeters>
          </Trackpoint>
          <Trackpoint>
            <Time>2022-09-19T12:28:52.000Z</Time>
            <Position>
              <LatitudeDegrees>49.4364791549742221832275390625</LatitudeDegrees>
              <LongitudeDegrees>20.02195092849433422088623046875</LongitudeDegrees>
            </Position>
            <AltitudeMeters>632.5999755859375</AltitudeMeters>
            <DistanceMeters>NAN</DistanceMeters>
          </Trackpoint>
          <Trackpoint>
            <Time>2022-09-19T12:29:00.000Z</Time>
            <Position>
              <LatitudeDegrees>49.43655685521662235260009765625</LatitudeDegrees>
              <LongitudeDegrees>20.0219253636896610260009765625</LongitudeDegrees>
            </Position>
            <AltitudeMeters>632.79998779296875</AltitudeMeters>
            <DistanceMeters>NAN</DistanceMeters>
          </Trackpoint>
          <Trackpoint>
            <Time>2022-09-19T12:29:08.000Z</Time>
            <Position>
              <LatitudeDegrees>49.43663547746837139129638671875</LatitudeDegrees>
              <LongitudeDegrees>20.0219213403761386871337890625</LongitudeDegrees>
            </Position>
            <AltitudeMeters>632.5999755859375</AltitudeMeters>
            <DistanceMeters>NAN</DistanceMeters>
          </Trackpoint>
          <Trackpoint>
            <Time>2022-09-19T12:29:14.000Z</Time>
            <Position>
              <LatitudeDegrees>49.43666808307170867919921875</LatitudeDegrees>
              <LongitudeDegrees>20.02193885855376720428466796875</LongitudeDegrees>
            </Position>
            <AltitudeMeters>632.5999755859375</AltitudeMeters>
            <DistanceMeters>NAN</DistanceMeters>
          </Trackpoint>
          <Trackpoint>
            <Time>2022-09-19T12:29:16.000Z</Time>
            <Position>
              <LatitudeDegrees>49.43668149411678314208984375</LatitudeDegrees>
              <LongitudeDegrees>20.0219320692121982574462890625</LongitudeDegrees>
            </Position>
            <AltitudeMeters>632.5999755859375</AltitudeMeters>
            <DistanceMeters>NAN</DistanceMeters>
          </Trackpoint>
          <Trackpoint>
            <Time>2022-09-19T12:29:26.000Z</Time>
            <Position>
              <LatitudeDegrees>49.43677880801260471343994140625</LatitudeDegrees>
              <LongitudeDegrees>20.02189862541854381561279296875</LongitudeDegrees>
            </Position>
            <AltitudeMeters>632.4000244140625</AltitudeMeters>
            <DistanceMeters>NAN</DistanceMeters>
          </Trackpoint>
          <Trackpoint>
            <Time>2022-09-19T12:29:35.000Z</Time>
            <Position>
              <LatitudeDegrees>49.4368777982890605926513671875</LatitudeDegrees>
              <LongitudeDegrees>20.02187398262321949005126953125</LongitudeDegrees>
            </Position>
            <AltitudeMeters>632</AltitudeMeters>
            <DistanceMeters>NAN</DistanceMeters>
          </Trackpoint>
          <Trackpoint>
            <Time>2022-09-19T12:29:43.000Z</Time>
            <Position>
              <LatitudeDegrees>49.43694971501827239990234375</LatitudeDegrees>
              <LongitudeDegrees>20.021868534386157989501953125</LongitudeDegrees>
            </Position>
            <AltitudeMeters>631.79998779296875</AltitudeMeters>
            <DistanceMeters>NAN</DistanceMeters>
          </Trackpoint>
          <Trackpoint>
            <Time>2022-09-19T12:29:48.000Z</Time>
            <Position>
              <LatitudeDegrees>49.43699053488671779632568359375</LatitudeDegrees>
              <LongitudeDegrees>20.02185956574976444244384765625</LongitudeDegrees>
            </Position>
            <AltitudeMeters>631.79998779296875</AltitudeMeters>
            <DistanceMeters>NAN</DistanceMeters>
          </Trackpoint>
          <Trackpoint>
            <Time>2022-09-19T12:29:51.000Z</Time>
            <Position>
              <LatitudeDegrees>49.43702037446200847625732421875</LatitudeDegrees>
              <LongitudeDegrees>20.021840035915374755859375</LongitudeDegrees>
            </Position>
            <AltitudeMeters>632</AltitudeMeters>
            <DistanceMeters>NAN</DistanceMeters>
          </Trackpoint>
          <Trackpoint>
            <Time>2022-09-19T12:29:56.000Z</Time>
            <Position>
              <LatitudeDegrees>49.43707100115716457366943359375</LatitudeDegrees>
              <LongitudeDegrees>20.02181966789066791534423828125</LongitudeDegrees>
            </Position>
            <AltitudeMeters>632.20001220703125</AltitudeMeters>
            <DistanceMeters>NAN</DistanceMeters>
          </Trackpoint>
          <Trackpoint>
            <Time>2022-09-19T12:29:58.000Z</Time>
            <Position>
              <LatitudeDegrees>49.4370886869728565216064453125</LatitudeDegrees>
              <LongitudeDegrees>20.02182067371904850006103515625</LongitudeDegrees>
            </Position>
            <AltitudeMeters>632.20001220703125</AltitudeMeters>
            <DistanceMeters>NAN</DistanceMeters>
          </Trackpoint>
          <Trackpoint>
            <Time>2022-09-19T12:30:03.000Z</Time>
            <Position>
              <LatitudeDegrees>49.43714509718120098114013671875</LatitudeDegrees>
              <LongitudeDegrees>20.021806843578815460205078125</LongitudeDegrees>
            </Position>
            <AltitudeMeters>632</AltitudeMeters>
            <DistanceMeters>NAN</DistanceMeters>
          </Trackpoint>
          <Trackpoint>
            <Time>2022-09-19T12:30:06.000Z</Time>
            <Position>
              <LatitudeDegrees>49.4371624477207660675048828125</LatitudeDegrees>
              <LongitudeDegrees>20.02181296236813068389892578125</LongitudeDegrees>
            </Position>
            <AltitudeMeters>632</AltitudeMeters>
            <DistanceMeters>NAN</DistanceMeters>
          </Trackpoint>
          <Trackpoint>
            <Time>2022-09-19T12:30:08.000Z</Time>
            <Position>
              <LatitudeDegrees>49.4371815584599971771240234375</LatitudeDegrees>
              <LongitudeDegrees>20.02180793322622776031494140625</LongitudeDegrees>
            </Position>
            <AltitudeMeters>632.20001220703125</AltitudeMeters>
            <DistanceMeters>NAN</DistanceMeters>
          </Trackpoint>
          <Trackpoint>
            <Time>2022-09-19T12:30:11.000Z</Time>
            <Position>
              <LatitudeDegrees>49.43721349351108074188232421875</LatitudeDegrees>
              <LongitudeDegrees>20.021798126399517059326171875</LongitudeDegrees>
            </Position>
            <AltitudeMeters>632.20001220703125</AltitudeMeters>
            <DistanceMeters>NAN</DistanceMeters>
          </Trackpoint>
          <Trackpoint>
            <Time>2022-09-19T12:30:18.000Z</Time>
            <Position>
              <LatitudeDegrees>49.43729706108570098876953125</LatitudeDegrees>
              <LongitudeDegrees>20.02177541144192218780517578125</LongitudeDegrees>
            </Position>
            <AltitudeMeters>632.20001220703125</AltitudeMeters>
            <DistanceMeters>NAN</DistanceMeters>
          </Trackpoint>
          <Trackpoint>
            <Time>2022-09-19T12:30:22.000Z</Time>
            <Position>
              <LatitudeDegrees>49.43734609521925449371337890625</LatitudeDegrees>
              <LongitudeDegrees>20.0217520259320735931396484375</LongitudeDegrees>
            </Position>
            <AltitudeMeters>632.20001220703125</AltitudeMeters>
            <DistanceMeters>NAN</DistanceMeters>
          </Trackpoint>
          <Trackpoint>
            <Time>2022-09-19T12:30:23.000Z</Time>
            <Position>
              <LatitudeDegrees>49.43735850043594837188720703125</LatitudeDegrees>
              <LongitudeDegrees>20.021747164428234100341796875</LongitudeDegrees>
            </Position>
            <AltitudeMeters>632.20001220703125</AltitudeMeters>
            <DistanceMeters>NAN</DistanceMeters>
          </Trackpoint>
          <Trackpoint>
            <Time>2022-09-19T12:30:26.000Z</Time>
            <Position>
              <LatitudeDegrees>49.43738834001123905181884765625</LatitudeDegrees>
              <LongitudeDegrees>20.02173735760152339935302734375</LongitudeDegrees>
            </Position>
            <AltitudeMeters>632.20001220703125</AltitudeMeters>
            <DistanceMeters>NAN</DistanceMeters>
          </Trackpoint>
          <Trackpoint>
            <Time>2022-09-19T12:30:30.000Z</Time>
            <Position>
              <LatitudeDegrees>49.4374313391745090484619140625</LatitudeDegrees>
              <LongitudeDegrees>20.02171707339584827423095703125</LongitudeDegrees>
            </Position>
            <AltitudeMeters>632.20001220703125</AltitudeMeters>
            <DistanceMeters>NAN</DistanceMeters>
          </Trackpoint>
          <Trackpoint>
            <Time>2022-09-19T12:30:34.000Z</Time>
            <Position>
              <LatitudeDegrees>49.4374853186309337615966796875</LatitudeDegrees>
              <LongitudeDegrees>20.02169997431337833404541015625</LongitudeDegrees>
            </Position>
            <AltitudeMeters>632</AltitudeMeters>
            <DistanceMeters>NAN</DistanceMeters>
          </Trackpoint>
          <Trackpoint>
            <Time>2022-09-19T12:30:38.000Z</Time>
            <Position>
              <LatitudeDegrees>49.43752563558518886566162109375</LatitudeDegrees>
              <LongitudeDegrees>20.02168807201087474822998046875</LongitudeDegrees>
            </Position>
            <AltitudeMeters>631.79998779296875</AltitudeMeters>
            <DistanceMeters>NAN</DistanceMeters>
          </Trackpoint>
          <Trackpoint>
            <Time>2022-09-19T12:30:45.000Z</Time>
            <Position>
              <LatitudeDegrees>49.43759344518184661865234375</LatitudeDegrees>
              <LongitudeDegrees>20.0216615013778209686279296875</LongitudeDegrees>
            </Position>
            <AltitudeMeters>632</AltitudeMeters>
            <DistanceMeters>NAN</DistanceMeters>
          </Trackpoint>
          <Trackpoint>
            <Time>2022-09-19T12:30:56.000Z</Time>
            <Position>
              <LatitudeDegrees>49.43770769052207469940185546875</LatitudeDegrees>
              <LongitudeDegrees>20.02162269316613674163818359375</LongitudeDegrees>
            </Position>
            <AltitudeMeters>631.79998779296875</AltitudeMeters>
            <DistanceMeters>NAN</DistanceMeters>
          </Trackpoint>
          <Trackpoint>
            <Time>2022-09-19T12:31:04.000Z</Time>
            <Position>
              <LatitudeDegrees>49.4377827085554599761962890625</LatitudeDegrees>
              <LongitudeDegrees>20.02161012031137943267822265625</LongitudeDegrees>
            </Position>
            <AltitudeMeters>631.5999755859375</AltitudeMeters>
            <DistanceMeters>NAN</DistanceMeters>
          </Trackpoint>
          <Trackpoint>
            <Time>2022-09-19T12:31:13.000Z</Time>
            <Position>
              <LatitudeDegrees>49.437859989702701568603515625</LatitudeDegrees>
              <LongitudeDegrees>20.0215666182339191436767578125</LongitudeDegrees>
            </Position>
            <AltitudeMeters>631.5999755859375</AltitudeMeters>
            <DistanceMeters>NAN</DistanceMeters>
          </Trackpoint>
          <Trackpoint>
            <Time>2022-09-19T12:31:14.000Z</Time>
            <Position>
              <LatitudeDegrees>49.4378690421581268310546875</LatitudeDegrees>
              <LongitudeDegrees>20.02156133763492107391357421875</LongitudeDegrees>
            </Position>
            <AltitudeMeters>631.4000244140625</AltitudeMeters>
            <DistanceMeters>NAN</DistanceMeters>
          </Trackpoint>
          <Trackpoint>
            <Time>2022-09-19T12:31:18.000Z</Time>
            <Position>
              <LatitudeDegrees>49.43790701217949390411376953125</LatitudeDegrees>
              <LongitudeDegrees>20.02153635956346988677978515625</LongitudeDegrees>
            </Position>
            <AltitudeMeters>631.5999755859375</AltitudeMeters>
            <DistanceMeters>NAN</DistanceMeters>
          </Trackpoint>
          <Trackpoint>
            <Time>2022-09-19T12:31:22.000Z</Time>
            <Position>
              <LatitudeDegrees>49.43795411847531795501708984375</LatitudeDegrees>
              <LongitudeDegrees>20.02152278088033199310302734375</LongitudeDegrees>
            </Position>
            <AltitudeMeters>631.4000244140625</AltitudeMeters>
            <DistanceMeters>NAN</DistanceMeters>
          </Trackpoint>
          <Trackpoint>
            <Time>2022-09-19T12:31:26.000Z</Time>
            <Position>
              <LatitudeDegrees>49.43799736909568309783935546875</LatitudeDegrees>
              <LongitudeDegrees>20.02151641063392162322998046875</LongitudeDegrees>
            </Position>
            <AltitudeMeters>631.4000244140625</AltitudeMeters>
            <DistanceMeters>NAN</DistanceMeters>
          </Trackpoint>
          <Trackpoint>
            <Time>2022-09-19T12:31:28.000Z</Time>
            <Position>
              <LatitudeDegrees>49.438016228377819061279296875</LatitudeDegrees>
              <LongitudeDegrees>20.02150635235011577606201171875</LongitudeDegrees>
            </Position>
            <AltitudeMeters>631.4000244140625</AltitudeMeters>
            <DistanceMeters>NAN</DistanceMeters>
          </Trackpoint>
          <Trackpoint>
            <Time>2022-09-19T12:31:31.000Z</Time>
            <Position>
              <LatitudeDegrees>49.438053779304027557373046875</LatitudeDegrees>
              <LongitudeDegrees>20.02149964682757854461669921875</LongitudeDegrees>
            </Position>
            <AltitudeMeters>631.20001220703125</AltitudeMeters>
            <DistanceMeters>NAN</DistanceMeters>
          </Trackpoint>
          <Trackpoint>
            <Time>2022-09-19T12:31:33.000Z</Time>
            <Position>
              <LatitudeDegrees>49.43808001466095447540283203125</LatitudeDegrees>
              <LongitudeDegrees>20.0214848108589649200439453125</LongitudeDegrees>
            </Position>
            <AltitudeMeters>631</AltitudeMeters>
            <DistanceMeters>NAN</DistanceMeters>
          </Trackpoint>
          <Trackpoint>
            <Time>2022-09-19T12:31:34.000Z</Time>
            <Position>
              <LatitudeDegrees>49.43808990530669689178466796875</LatitudeDegrees>
              <LongitudeDegrees>20.02147282473742961883544921875</LongitudeDegrees>
            </Position>
            <AltitudeMeters>631.20001220703125</AltitudeMeters>
            <DistanceMeters>NAN</DistanceMeters>
          </Trackpoint>
          <Trackpoint>
            <Time>2022-09-19T12:31:40.000Z</Time>
            <Position>
              <LatitudeDegrees>49.43817355670034885406494140625</LatitudeDegrees>
              <LongitudeDegrees>20.02146561630070209503173828125</LongitudeDegrees>
            </Position>
            <AltitudeMeters>631.20001220703125</AltitudeMeters>
            <DistanceMeters>NAN</DistanceMeters>
          </Trackpoint>
          <Trackpoint>
            <Time>2022-09-19T12:31:43.000Z</Time>
            <Position>
              <LatitudeDegrees>49.438208676874637603759765625</LatitudeDegrees>
              <LongitudeDegrees>20.0214596651494503021240234375</LongitudeDegrees>
            </Position>
            <AltitudeMeters>631.20001220703125</AltitudeMeters>
            <DistanceMeters>NAN</DistanceMeters>
          </Trackpoint>
          <Trackpoint>
            <Time>2022-09-19T12:31:46.000Z</Time>
            <Position>
              <LatitudeDegrees>49.43825595080852508544921875</LatitudeDegrees>
              <LongitudeDegrees>20.0214325077831745147705078125</LongitudeDegrees>
            </Position>
            <AltitudeMeters>631</AltitudeMeters>
            <DistanceMeters>NAN</DistanceMeters>
          </Trackpoint>
          <Trackpoint>
            <Time>2022-09-19T12:31:55.000Z</Time>
            <Position>
              <LatitudeDegrees>49.4383372552692890167236328125</LatitudeDegrees>
              <LongitudeDegrees>20.02140006981790065765380859375</LongitudeDegrees>
            </Position>
            <AltitudeMeters>631</AltitudeMeters>
            <DistanceMeters>NAN</DistanceMeters>
          </Trackpoint>
          <Trackpoint>
            <Time>2022-09-19T12:31:56.000Z</Time>
            <Position>
              <LatitudeDegrees>49.438354186713695526123046875</LatitudeDegrees>
              <LongitudeDegrees>20.0213934481143951416015625</LongitudeDegrees>
            </Position>
            <AltitudeMeters>631</AltitudeMeters>
            <DistanceMeters>NAN</DistanceMeters>
          </Trackpoint>
          <Trackpoint>
            <Time>2022-09-19T12:32:00.000Z</Time>
            <Position>
              <LatitudeDegrees>49.4383907318115234375</LatitudeDegrees>
              <LongitudeDegrees>20.02137207426130771636962890625</LongitudeDegrees>
            </Position>
            <AltitudeMeters>631.20001220703125</AltitudeMeters>
            <DistanceMeters>NAN</DistanceMeters>
          </Trackpoint>
          <Trackpoint>
            <Time>2022-09-19T12:32:06.000Z</Time>
            <Position>
              <LatitudeDegrees>49.4384556077420711517333984375</LatitudeDegrees>
              <LongitudeDegrees>20.0213644467294216156005859375</LongitudeDegrees>
            </Position>
            <AltitudeMeters>631</AltitudeMeters>
            <DistanceMeters>NAN</DistanceMeters>
          </Trackpoint>
          <Trackpoint>
            <Time>2022-09-19T12:32:11.000Z</Time>
            <Position>
              <LatitudeDegrees>49.438469521701335906982421875</LatitudeDegrees>
              <LongitudeDegrees>20.02136528491973876953125</LongitudeDegrees>
            </Position>
            <AltitudeMeters>630.79998779296875</AltitudeMeters>
            <DistanceMeters>NAN</DistanceMeters>
          </Trackpoint>
          <Trackpoint>
            <Time>2022-09-19T12:32:13.000Z</Time>
            <Position>
              <LatitudeDegrees>49.43848117254674434661865234375</LatitudeDegrees>
              <LongitudeDegrees>20.02136352472007274627685546875</LongitudeDegrees>
            </Position>
            <AltitudeMeters>630.79998779296875</AltitudeMeters>
            <DistanceMeters>NAN</DistanceMeters>
          </Trackpoint>
          <Trackpoint>
            <Time>2022-09-19T12:32:17.000Z</Time>
            <Position>
              <LatitudeDegrees>49.4385404326021671295166015625</LatitudeDegrees>
              <LongitudeDegrees>20.02137190662324428558349609375</LongitudeDegrees>
            </Position>
            <AltitudeMeters>630.79998779296875</AltitudeMeters>
            <DistanceMeters>NAN</DistanceMeters>
          </Trackpoint>
          <Trackpoint>
            <Time>2022-09-19T12:32:22.000Z</Time>
            <Position>
              <LatitudeDegrees>49.43858812563121318817138671875</LatitudeDegrees>
              <LongitudeDegrees>20.02134055830538272857666015625</LongitudeDegrees>
            </Position>
            <AltitudeMeters>631</AltitudeMeters>
            <DistanceMeters>NAN</DistanceMeters>
          </Trackpoint>
          <Trackpoint>
            <Time>2022-09-19T12:32:23.000Z</Time>
            <Position>
              <LatitudeDegrees>49.4385945796966552734375</LatitudeDegrees>
              <LongitudeDegrees>20.0213302485644817352294921875</LongitudeDegrees>
            </Position>
            <AltitudeMeters>631</AltitudeMeters>
            <DistanceMeters>NAN</DistanceMeters>
          </Trackpoint>
          <Trackpoint>
            <Time>2022-09-19T12:32:24.000Z</Time>
            <Position>
              <LatitudeDegrees>49.43860757164657115936279296875</LatitudeDegrees>
              <LongitudeDegrees>20.0213198550045490264892578125</LongitudeDegrees>
            </Position>
            <AltitudeMeters>630.79998779296875</AltitudeMeters>
            <DistanceMeters>NAN</DistanceMeters>
          </Trackpoint>
          <Trackpoint>
            <Time>2022-09-19T12:32:28.000Z</Time>
            <Position>
              <LatitudeDegrees>49.4386473856866359710693359375</LatitudeDegrees>
              <LongitudeDegrees>20.02129663713276386260986328125</LongitudeDegrees>
            </Position>
            <AltitudeMeters>630.79998779296875</AltitudeMeters>
            <DistanceMeters>NAN</DistanceMeters>
          </Trackpoint>
          <Trackpoint>
            <Time>2022-09-19T12:32:35.000Z</Time>
            <Position>
              <LatitudeDegrees>49.438696838915348052978515625</LatitudeDegrees>
              <LongitudeDegrees>20.02124399878084659576416015625</LongitudeDegrees>
            </Position>
            <AltitudeMeters>630.5999755859375</AltitudeMeters>
            <DistanceMeters>NAN</DistanceMeters>
          </Trackpoint>
          <Trackpoint>
            <Time>2022-09-19T12:32:36.000Z</Time>
            <Position>
              <LatitudeDegrees>49.4387094117701053619384765625</LatitudeDegrees>
              <LongitudeDegrees>20.0212403945624828338623046875</LongitudeDegrees>
            </Position>
            <AltitudeMeters>630.79998779296875</AltitudeMeters>
            <DistanceMeters>NAN</DistanceMeters>
          </Trackpoint>
          <Trackpoint>
            <Time>2022-09-19T12:32:41.000Z</Time>
            <Position>
              <LatitudeDegrees>49.43876598961651325225830078125</LatitudeDegrees>
              <LongitudeDegrees>20.02122036181390285491943359375</LongitudeDegrees>
            </Position>
            <AltitudeMeters>630.79998779296875</AltitudeMeters>
            <DistanceMeters>NAN</DistanceMeters>
          </Trackpoint>
          <Trackpoint>
            <Time>2022-09-19T12:32:45.000Z</Time>
            <Position>
              <LatitudeDegrees>49.43879046477377414703369140625</LatitudeDegrees>
              <LongitudeDegrees>20.02116956748068332672119140625</LongitudeDegrees>
            </Position>
            <AltitudeMeters>630.79998779296875</AltitudeMeters>
            <DistanceMeters>NAN</DistanceMeters>
          </Trackpoint>
          <Trackpoint>
            <Time>2022-09-19T12:32:47.000Z</Time>
            <Position>
              <LatitudeDegrees>49.4387989304959774017333984375</LatitudeDegrees>
              <LongitudeDegrees>20.02116604708135128021240234375</LongitudeDegrees>
            </Position>
            <AltitudeMeters>630.79998779296875</AltitudeMeters>
            <DistanceMeters>NAN</DistanceMeters>
          </Trackpoint>
          <Trackpoint>
            <Time>2022-09-19T12:32:53.000Z</Time>
            <Position>
              <LatitudeDegrees>49.43885349668562412261962890625</LatitudeDegrees>
              <LongitudeDegrees>20.0210982374846935272216796875</LongitudeDegrees>
            </Position>
            <AltitudeMeters>630.5999755859375</AltitudeMeters>
            <DistanceMeters>NAN</DistanceMeters>
          </Trackpoint>
          <Trackpoint>
            <Time>2022-09-19T12:32:59.000Z</Time>
            <Position>
              <LatitudeDegrees>49.4389226473867893218994140625</LatitudeDegrees>
              <LongitudeDegrees>20.021100081503391265869140625</LongitudeDegrees>
            </Position>
            <AltitudeMeters>630.5999755859375</AltitudeMeters>
            <DistanceMeters>NAN</DistanceMeters>
          </Trackpoint>
          <Trackpoint>
            <Time>2022-09-19T12:33:00.000Z</Time>
            <Position>
              <LatitudeDegrees>49.4389313645660877227783203125</LatitudeDegrees>
              <LongitudeDegrees>20.02109429799020290374755859375</LongitudeDegrees>
            </Position>
            <AltitudeMeters>630.5999755859375</AltitudeMeters>
            <DistanceMeters>NAN</DistanceMeters>
          </Trackpoint>
          <Trackpoint>
            <Time>2022-09-19T12:33:03.000Z</Time>
            <Position>
              <LatitudeDegrees>49.43894620053470134735107421875</LatitudeDegrees>
              <LongitudeDegrees>20.02108524553477764129638671875</LongitudeDegrees>
            </Position>
            <AltitudeMeters>630.4000244140625</AltitudeMeters>
            <DistanceMeters>NAN</DistanceMeters>
          </Trackpoint>
          <Trackpoint>
            <Time>2022-09-19T12:33:07.000Z</Time>
            <Position>
              <LatitudeDegrees>49.4389687478542327880859375</LatitudeDegrees>
              <LongitudeDegrees>20.0210804678499698638916015625</LongitudeDegrees>
            </Position>
            <AltitudeMeters>630.5999755859375</AltitudeMeters>
            <DistanceMeters>NAN</DistanceMeters>
          </Trackpoint>
          <Trackpoint>
            <Time>2022-09-19T12:33:08.000Z</Time>
            <Position>
              <LatitudeDegrees>49.4389722682535648345947265625</LatitudeDegrees>
              <LongitudeDegrees>20.02107895910739898681640625</LongitudeDegrees>
            </Position>
            <AltitudeMeters>630.79998779296875</AltitudeMeters>
            <DistanceMeters>NAN</DistanceMeters>
          </Trackpoint>
          <Trackpoint>
            <Time>2022-09-19T12:33:13.000Z</Time>
            <Position>
              <LatitudeDegrees>49.4389722682535648345947265625</LatitudeDegrees>
              <LongitudeDegrees>20.021095387637615203857421875</LongitudeDegrees>
            </Position>
            <AltitudeMeters>630.79998779296875</AltitudeMeters>
            <DistanceMeters>NAN</DistanceMeters>
          </Trackpoint>
          <Trackpoint>
            <Time>2022-09-19T12:33:22.000Z</Time>
            <Position>
              <LatitudeDegrees>49.4389722682535648345947265625</LatitudeDegrees>
              <LongitudeDegrees>20.021095387637615203857421875</LongitudeDegrees>
            </Position>
            <AltitudeMeters>631</AltitudeMeters>
            <DistanceMeters>NAN</DistanceMeters>
          </Trackpoint>
          <Trackpoint>
            <Time>2022-09-19T12:33:36.000Z</Time>
            <Position>
              <LatitudeDegrees>49.43897386081516742706298828125</LatitudeDegrees>
              <LongitudeDegrees>20.02109505236148834228515625</LongitudeDegrees>
            </Position>
            <AltitudeMeters>631</AltitudeMeters>
            <DistanceMeters>NAN</DistanceMeters>
          </Trackpoint>
          <Trackpoint>
            <Time>2022-09-19T12:33:41.000Z</Time>
            <Position>
              <LatitudeDegrees>49.43900973536074161529541015625</LatitudeDegrees>
              <LongitudeDegrees>20.021117515861988067626953125</LongitudeDegrees>
            </Position>
            <AltitudeMeters>631</AltitudeMeters>
            <DistanceMeters>NAN</DistanceMeters>
          </Trackpoint>
          <Trackpoint>
            <Time>2022-09-19T12:33:42.000Z</Time>
            <Position>
              <LatitudeDegrees>49.43902063183486461639404296875</LatitudeDegrees>
              <LongitudeDegrees>20.02113528549671173095703125</LongitudeDegrees>
            </Position>
            <AltitudeMeters>631</AltitudeMeters>
            <DistanceMeters>NAN</DistanceMeters>
          </Trackpoint>
          <Trackpoint>
            <Time>2022-09-19T12:33:46.000Z</Time>
            <Position>
              <LatitudeDegrees>49.43904845975339412689208984375</LatitudeDegrees>
              <LongitudeDegrees>20.02122782170772552490234375</LongitudeDegrees>
            </Position>
            <AltitudeMeters>631</AltitudeMeters>
            <DistanceMeters>NAN</DistanceMeters>
          </Trackpoint>
          <Trackpoint>
            <Time>2022-09-19T12:33:50.000Z</Time>
            <Position>
              <LatitudeDegrees>49.4390611164271831512451171875</LatitudeDegrees>
              <LongitudeDegrees>20.02129353582859039306640625</LongitudeDegrees>
            </Position>
            <AltitudeMeters>631</AltitudeMeters>
            <DistanceMeters>NAN</DistanceMeters>
          </Trackpoint>
          <Trackpoint>
            <Time>2022-09-19T12:33:53.000Z</Time>
            <Position>
              <LatitudeDegrees>49.4390814006328582763671875</LatitudeDegrees>
              <LongitudeDegrees>20.0213185139000415802001953125</LongitudeDegrees>
            </Position>
            <AltitudeMeters>631</AltitudeMeters>
            <DistanceMeters>NAN</DistanceMeters>
          </Trackpoint>
          <Trackpoint>
            <Time>2022-09-19T12:33:56.000Z</Time>
            <Position>
              <LatitudeDegrees>49.43911719135940074920654296875</LatitudeDegrees>
              <LongitudeDegrees>20.02133485861122608184814453125</LongitudeDegrees>
            </Position>
            <AltitudeMeters>631</AltitudeMeters>
            <DistanceMeters>NAN</DistanceMeters>
          </Trackpoint>
          <Trackpoint>
            <Time>2022-09-19T12:33:58.000Z</Time>
            <Position>
              <LatitudeDegrees>49.43913747556507587432861328125</LatitudeDegrees>
              <LongitudeDegrees>20.02132572233676910400390625</LongitudeDegrees>
            </Position>
            <AltitudeMeters>631</AltitudeMeters>
            <DistanceMeters>NAN</DistanceMeters>
          </Trackpoint>
          <Trackpoint>
            <Time>2022-09-19T12:33:59.000Z</Time>
            <Position>
              <LatitudeDegrees>49.43915088661015033721923828125</LatitudeDegrees>
              <LongitudeDegrees>20.02131457440555095672607421875</LongitudeDegrees>
            </Position>
            <AltitudeMeters>631.20001220703125</AltitudeMeters>
            <DistanceMeters>NAN</DistanceMeters>
          </Trackpoint>
          <Trackpoint>
            <Time>2022-09-19T12:34:07.000Z</Time>
            <Position>
              <LatitudeDegrees>49.4392431713640689849853515625</LatitudeDegrees>
              <LongitudeDegrees>20.02127249725162982940673828125</LongitudeDegrees>
            </Position>
            <AltitudeMeters>631.4000244140625</AltitudeMeters>
            <DistanceMeters>NAN</DistanceMeters>
          </Trackpoint>
          <Trackpoint>
            <Time>2022-09-19T12:34:13.000Z</Time>
            <Position>
              <LatitudeDegrees>49.43927292712032794952392578125</LatitudeDegrees>
              <LongitudeDegrees>20.02125070430338382720947265625</LongitudeDegrees>
            </Position>
            <AltitudeMeters>631</AltitudeMeters>
            <DistanceMeters>NAN</DistanceMeters>
          </Trackpoint>
          <Trackpoint>
            <Time>2022-09-19T12:34:20.000Z</Time>
            <Position>
              <LatitudeDegrees>49.43921743892133235931396484375</LatitudeDegrees>
              <LongitudeDegrees>20.02131423912942409515380859375</LongitudeDegrees>
            </Position>
            <AltitudeMeters>631</AltitudeMeters>
            <DistanceMeters>NAN</DistanceMeters>
          </Trackpoint>
          <Trackpoint>
            <Time>2022-09-19T12:34:24.000Z</Time>
            <Position>
              <LatitudeDegrees>49.4391720928251743316650390625</LatitudeDegrees>
              <LongitudeDegrees>20.02133117057383060455322265625</LongitudeDegrees>
            </Position>
            <AltitudeMeters>631.20001220703125</AltitudeMeters>
            <DistanceMeters>NAN</DistanceMeters>
          </Trackpoint>
          <Trackpoint>
            <Time>2022-09-19T12:34:25.000Z</Time>
            <Position>
              <LatitudeDegrees>49.43915742449462413787841796875</LatitudeDegrees>
              <LongitudeDegrees>20.02133234404027462005615234375</LongitudeDegrees>
            </Position>
            <AltitudeMeters>631.20001220703125</AltitudeMeters>
            <DistanceMeters>NAN</DistanceMeters>
          </Trackpoint>
          <Trackpoint>
            <Time>2022-09-19T12:34:27.000Z</Time>
            <Position>
              <LatitudeDegrees>49.43913395516574382781982421875</LatitudeDegrees>
              <LongitudeDegrees>20.02134307287633419036865234375</LongitudeDegrees>
            </Position>
            <AltitudeMeters>631</AltitudeMeters>
            <DistanceMeters>NAN</DistanceMeters>
          </Trackpoint>
          <Trackpoint>
            <Time>2022-09-19T12:34:34.000Z</Time>
            <Position>
              <LatitudeDegrees>49.43907846696674823760986328125</LatitudeDegrees>
              <LongitudeDegrees>20.02137400209903717041015625</LongitudeDegrees>
            </Position>
            <AltitudeMeters>631</AltitudeMeters>
            <DistanceMeters>NAN</DistanceMeters>
          </Trackpoint>
          <Trackpoint>
            <Time>2022-09-19T12:34:38.000Z</Time>
            <Position>
              <LatitudeDegrees>49.4390681572258472442626953125</LatitudeDegrees>
              <LongitudeDegrees>20.02135849557816982269287109375</LongitudeDegrees>
            </Position>
            <AltitudeMeters>631</AltitudeMeters>
            <DistanceMeters>NAN</DistanceMeters>
          </Trackpoint>
          <Trackpoint>
            <Time>2022-09-19T12:34:40.000Z</Time>
            <Position>
              <LatitudeDegrees>49.43906187079846858978271484375</LatitudeDegrees>
              <LongitudeDegrees>20.02132178284227848052978515625</LongitudeDegrees>
            </Position>
            <AltitudeMeters>630.79998779296875</AltitudeMeters>
            <DistanceMeters>NAN</DistanceMeters>
          </Trackpoint>
          <Trackpoint>
            <Time>2022-09-19T12:34:48.000Z</Time>
            <Position>
              <LatitudeDegrees>49.43905214779078960418701171875</LatitudeDegrees>
              <LongitudeDegrees>20.02117074094712734222412109375</LongitudeDegrees>
            </Position>
            <AltitudeMeters>630.79998779296875</AltitudeMeters>
            <DistanceMeters>NAN</DistanceMeters>
          </Trackpoint>
          <Trackpoint>
            <Time>2022-09-19T12:34:50.000Z</Time>
            <Position>
              <LatitudeDegrees>49.43906656466424465179443359375</LatitudeDegrees>
              <LongitudeDegrees>20.0211525522172451019287109375</LongitudeDegrees>
            </Position>
            <AltitudeMeters>630.79998779296875</AltitudeMeters>
            <DistanceMeters>NAN</DistanceMeters>
          </Trackpoint>
          <Trackpoint>
            <Time>2022-09-19T12:34:53.000Z</Time>
            <Position>
              <LatitudeDegrees>49.43907913751900196075439453125</LatitudeDegrees>
              <LongitudeDegrees>20.02114492468535900115966796875</LongitudeDegrees>
            </Position>
            <AltitudeMeters>630.5999755859375</AltitudeMeters>
            <DistanceMeters>NAN</DistanceMeters>
          </Trackpoint>
          <Trackpoint>
            <Time>2022-09-19T12:34:57.000Z</Time>
            <Position>
              <LatitudeDegrees>49.4391087256371974945068359375</LatitudeDegrees>
              <LongitudeDegrees>20.02111894078552722930908203125</LongitudeDegrees>
            </Position>
            <AltitudeMeters>630.4000244140625</AltitudeMeters>
            <DistanceMeters>NAN</DistanceMeters>
          </Trackpoint>
          <Trackpoint>
            <Time>2022-09-19T12:35:00.000Z</Time>
            <Position>
              <LatitudeDegrees>49.43914518691599369049072265625</LatitudeDegrees>
              <LongitudeDegrees>20.02110251225531101226806640625</LongitudeDegrees>
            </Position>
            <AltitudeMeters>630.20001220703125</AltitudeMeters>
            <DistanceMeters>NAN</DistanceMeters>
          </Trackpoint>
          <Trackpoint>
            <Time>2022-09-19T12:35:03.000Z</Time>
            <Position>
              <LatitudeDegrees>49.43917904980480670928955078125</LatitudeDegrees>
              <LongitudeDegrees>20.02108138985931873321533203125</LongitudeDegrees>
            </Position>
            <AltitudeMeters>630</AltitudeMeters>
            <DistanceMeters>NAN</DistanceMeters>
          </Trackpoint>
          <Trackpoint>
            <Time>2022-09-19T12:35:05.000Z</Time>
            <Position>
              <LatitudeDegrees>49.439209811389446258544921875</LatitudeDegrees>
              <LongitudeDegrees>20.02107401378452777862548828125</LongitudeDegrees>
            </Position>
            <AltitudeMeters>630</AltitudeMeters>
            <DistanceMeters>NAN</DistanceMeters>
          </Trackpoint>
          <Trackpoint>
            <Time>2022-09-19T12:35:06.000Z</Time>
            <Position>
              <LatitudeDegrees>49.4392235577106475830078125</LatitudeDegrees>
              <LongitudeDegrees>20.021065212786197662353515625</LongitudeDegrees>
            </Position>
            <AltitudeMeters>630.20001220703125</AltitudeMeters>
            <DistanceMeters>NAN</DistanceMeters>
          </Trackpoint>
          <Trackpoint>
            <Time>2022-09-19T12:35:07.000Z</Time>
            <Position>
              <LatitudeDegrees>49.4392351247370243072509765625</LatitudeDegrees>
              <LongitudeDegrees>20.021055154502391815185546875</LongitudeDegrees>
            </Position>
            <AltitudeMeters>630.20001220703125</AltitudeMeters>
            <DistanceMeters>NAN</DistanceMeters>
          </Trackpoint>
          <Trackpoint>
            <Time>2022-09-19T12:35:17.000Z</Time>
            <Position>
              <LatitudeDegrees>49.43935574032366275787353515625</LatitudeDegrees>
              <LongitudeDegrees>20.02103746868669986724853515625</LongitudeDegrees>
            </Position>
            <AltitudeMeters>630.4000244140625</AltitudeMeters>
            <DistanceMeters>NAN</DistanceMeters>
          </Trackpoint>
          <Trackpoint>
            <Time>2022-09-19T12:35:24.000Z</Time>
            <Position>
              <LatitudeDegrees>49.43937283940613269805908203125</LatitudeDegrees>
              <LongitudeDegrees>20.02103009261190891265869140625</LongitudeDegrees>
            </Position>
            <AltitudeMeters>630.4000244140625</AltitudeMeters>
            <DistanceMeters>NAN</DistanceMeters>
          </Trackpoint>
          <Trackpoint>
            <Time>2022-09-19T12:35:30.000Z</Time>
            <Position>
              <LatitudeDegrees>49.4394059479236602783203125</LatitudeDegrees>
              <LongitudeDegrees>20.02098348923027515411376953125</LongitudeDegrees>
            </Position>
            <AltitudeMeters>630.4000244140625</AltitudeMeters>
            <DistanceMeters>NAN</DistanceMeters>
          </Trackpoint>
          <Trackpoint>
            <Time>2022-09-19T12:35:35.000Z</Time>
            <Position>
              <LatitudeDegrees>49.4395234622061252593994140625</LatitudeDegrees>
              <LongitudeDegrees>20.020940490067005157470703125</LongitudeDegrees>
            </Position>
            <AltitudeMeters>630.4000244140625</AltitudeMeters>
            <DistanceMeters>NAN</DistanceMeters>
          </Trackpoint>
          <Trackpoint>
            <Time>2022-09-19T12:35:40.000Z</Time>
            <Position>
              <LatitudeDegrees>49.4396579079329967498779296875</LatitudeDegrees>
              <LongitudeDegrees>20.02089296467602252960205078125</LongitudeDegrees>
            </Position>
            <AltitudeMeters>630.20001220703125</AltitudeMeters>
            <DistanceMeters>NAN</DistanceMeters>
          </Trackpoint>
          <Trackpoint>
            <Time>2022-09-19T12:35:44.000Z</Time>
            <Position>
              <LatitudeDegrees>49.4397584907710552215576171875</LatitudeDegrees>
              <LongitudeDegrees>20.0208534859120845794677734375</LongitudeDegrees>
            </Position>
            <AltitudeMeters>630.20001220703125</AltitudeMeters>
            <DistanceMeters>NAN</DistanceMeters>
          </Trackpoint>
          <Trackpoint>
            <Time>2022-09-19T12:35:51.000Z</Time>
            <Position>
              <LatitudeDegrees>49.4399324990808963775634765625</LatitudeDegrees>
              <LongitudeDegrees>20.0208011828362941741943359375</LongitudeDegrees>
            </Position>
            <AltitudeMeters>630</AltitudeMeters>
            <DistanceMeters>NAN</DistanceMeters>
          </Trackpoint>
          <Trackpoint>
            <Time>2022-09-19T12:36:00.000Z</Time>
            <Position>
              <LatitudeDegrees>49.4401601515710353851318359375</LatitudeDegrees>
              <LongitudeDegrees>20.02073764801025390625</LongitudeDegrees>
            </Position>
            <AltitudeMeters>629.5999755859375</AltitudeMeters>
            <DistanceMeters>NAN</DistanceMeters>
          </Trackpoint>
          <Trackpoint>
            <Time>2022-09-19T12:36:05.000Z</Time>
            <Position>
              <LatitudeDegrees>49.4402704574167728424072265625</LatitudeDegrees>
              <LongitudeDegrees>20.0207009352743625640869140625</LongitudeDegrees>
            </Position>
            <AltitudeMeters>629.4000244140625</AltitudeMeters>
            <DistanceMeters>NAN</DistanceMeters>
          </Trackpoint>
          <Trackpoint>
            <Time>2022-09-19T12:36:08.000Z</Time>
            <Position>
              <LatitudeDegrees>49.44032284431159496307373046875</LatitudeDegrees>
              <LongitudeDegrees>20.02069733105599880218505859375</LongitudeDegrees>
            </Position>
            <AltitudeMeters>629.20001220703125</AltitudeMeters>
            <DistanceMeters>NAN</DistanceMeters>
          </Trackpoint>
          <Trackpoint>
            <Time>2022-09-19T12:36:13.000Z</Time>
            <Position>
              <LatitudeDegrees>49.44042309187352657318115234375</LatitudeDegrees>
              <LongitudeDegrees>20.0206918828189373016357421875</LongitudeDegrees>
            </Position>
            <AltitudeMeters>629.20001220703125</AltitudeMeters>
            <DistanceMeters>NAN</DistanceMeters>
          </Trackpoint>
          <Trackpoint>
            <Time>2022-09-19T12:36:16.000Z</Time>
            <Position>
              <LatitudeDegrees>49.44047070108354091644287109375</LatitudeDegrees>
              <LongitudeDegrees>20.02067436464130878448486328125</LongitudeDegrees>
            </Position>
            <AltitudeMeters>629</AltitudeMeters>
            <DistanceMeters>NAN</DistanceMeters>
          </Trackpoint>
          <Trackpoint>
            <Time>2022-09-19T12:36:21.000Z</Time>
            <Position>
              <LatitudeDegrees>49.4405752234160900115966796875</LatitudeDegrees>
              <LongitudeDegrees>20.0206504762172698974609375</LongitudeDegrees>
            </Position>
            <AltitudeMeters>629</AltitudeMeters>
            <DistanceMeters>NAN</DistanceMeters>
          </Trackpoint>
          <Trackpoint>
            <Time>2022-09-19T12:36:28.000Z</Time>
            <Position>
              <LatitudeDegrees>49.44073992781341075897216796875</LatitudeDegrees>
              <LongitudeDegrees>20.020607896149158477783203125</LongitudeDegrees>
            </Position>
            <AltitudeMeters>628.79998779296875</AltitudeMeters>
            <DistanceMeters>NAN</DistanceMeters>
          </Trackpoint>
          <Trackpoint>
            <Time>2022-09-19T12:36:35.000Z</Time>
            <Position>
              <LatitudeDegrees>49.4408836774528026580810546875</LatitudeDegrees>
              <LongitudeDegrees>20.02056104131042957305908203125</LongitudeDegrees>
            </Position>
            <AltitudeMeters>628.79998779296875</AltitudeMeters>
            <DistanceMeters>NAN</DistanceMeters>
          </Trackpoint>
          <Trackpoint>
            <Time>2022-09-19T12:36:41.000Z</Time>
            <Position>
              <LatitudeDegrees>49.4409648142755031585693359375</LatitudeDegrees>
              <LongitudeDegrees>20.0205389969050884246826171875</LongitudeDegrees>
            </Position>
            <AltitudeMeters>628.79998779296875</AltitudeMeters>
            <DistanceMeters>NAN</DistanceMeters>
          </Trackpoint>
          <Trackpoint>
            <Time>2022-09-19T12:36:42.000Z</Time>
            <Position>
              <LatitudeDegrees>49.44097663275897502899169921875</LatitudeDegrees>
              <LongitudeDegrees>20.0205363146960735321044921875</LongitudeDegrees>
            </Position>
            <AltitudeMeters>628.79998779296875</AltitudeMeters>
            <DistanceMeters>NAN</DistanceMeters>
          </Trackpoint>
          <Trackpoint>
            <Time>2022-09-19T12:36:45.000Z</Time>
            <Position>
              <LatitudeDegrees>49.4410087354481220245361328125</LatitudeDegrees>
              <LongitudeDegrees>20.02052382566034793853759765625</LongitudeDegrees>
            </Position>
            <AltitudeMeters>628.79998779296875</AltitudeMeters>
            <DistanceMeters>NAN</DistanceMeters>
          </Trackpoint>
          <Trackpoint>
            <Time>2022-09-19T12:36:47.000Z</Time>
            <Position>
              <LatitudeDegrees>49.441020973026752471923828125</LatitudeDegrees>
              <LongitudeDegrees>20.02050756476819515228271484375</LongitudeDegrees>
            </Position>
            <AltitudeMeters>628.79998779296875</AltitudeMeters>
            <DistanceMeters>NAN</DistanceMeters>
          </Trackpoint>
          <Trackpoint>
            <Time>2022-09-19T12:36:50.000Z</Time>
            <Position>
              <LatitudeDegrees>49.4410362280905246734619140625</LatitudeDegrees>
              <LongitudeDegrees>20.02049423754215240478515625</LongitudeDegrees>
            </Position>
            <AltitudeMeters>628.79998779296875</AltitudeMeters>
            <DistanceMeters>NAN</DistanceMeters>
          </Trackpoint>
          <Trackpoint>
            <Time>2022-09-19T12:36:53.000Z</Time>
            <Position>
              <LatitudeDegrees>49.44106413982808589935302734375</LatitudeDegrees>
              <LongitudeDegrees>20.020466409623622894287109375</LongitudeDegrees>
            </Position>
            <AltitudeMeters>628.5999755859375</AltitudeMeters>
            <DistanceMeters>NAN</DistanceMeters>
          </Trackpoint>
          <Trackpoint>
            <Time>2022-09-19T12:36:54.000Z</Time>
            <Position>
              <LatitudeDegrees>49.44107587449252605438232421875</LatitudeDegrees>
              <LongitudeDegrees>20.0204491429030895233154296875</LongitudeDegrees>
            </Position>
            <AltitudeMeters>628.5999755859375</AltitudeMeters>
            <DistanceMeters>NAN</DistanceMeters>
          </Trackpoint>
          <Trackpoint>
            <Time>2022-09-19T12:36:55.000Z</Time>
            <Position>
              <LatitudeDegrees>49.441093392670154571533203125</LatitudeDegrees>
              <LongitudeDegrees>20.0204313732683658599853515625</LongitudeDegrees>
            </Position>
            <AltitudeMeters>628.4000244140625</AltitudeMeters>
            <DistanceMeters>NAN</DistanceMeters>
          </Trackpoint>
          <Trackpoint>
            <Time>2022-09-19T12:36:58.000Z</Time>
            <Position>
              <LatitudeDegrees>49.44114896468818187713623046875</LatitudeDegrees>
              <LongitudeDegrees>20.02043313346803188323974609375</LongitudeDegrees>
            </Position>
            <AltitudeMeters>628.4000244140625</AltitudeMeters>
            <DistanceMeters>NAN</DistanceMeters>
          </Trackpoint>
          <Trackpoint>
            <Time>2022-09-19T12:36:59.000Z</Time>
            <Position>
              <LatitudeDegrees>49.4411627948284149169921875</LatitudeDegrees>
              <LongitudeDegrees>20.0204377435147762298583984375</LongitudeDegrees>
            </Position>
            <AltitudeMeters>628.4000244140625</AltitudeMeters>
            <DistanceMeters>NAN</DistanceMeters>
          </Trackpoint>
          <Trackpoint>
            <Time>2022-09-19T12:37:02.000Z</Time>
            <Position>
              <LatitudeDegrees>49.4411814026534557342529296875</LatitudeDegrees>
              <LongitudeDegrees>20.0204524956643581390380859375</LongitudeDegrees>
            </Position>
            <AltitudeMeters>628.20001220703125</AltitudeMeters>
            <DistanceMeters>NAN</DistanceMeters>
          </Trackpoint>
          <Trackpoint>
            <Time>2022-09-19T12:37:11.000Z</Time>
            <Position>
              <LatitudeDegrees>49.44119221530854701995849609375</LatitudeDegrees>
              <LongitudeDegrees>20.02046280540525913238525390625</LongitudeDegrees>
            </Position>
            <AltitudeMeters>628.4000244140625</AltitudeMeters>
            <DistanceMeters>NAN</DistanceMeters>
          </Trackpoint>
          <Trackpoint>
            <Time>2022-09-19T12:37:14.000Z</Time>
            <Position>
              <LatitudeDegrees>49.4412233121693134307861328125</LatitudeDegrees>
              <LongitudeDegrees>20.020459704101085662841796875</LongitudeDegrees>
            </Position>
            <AltitudeMeters>628.5999755859375</AltitudeMeters>
            <DistanceMeters>NAN</DistanceMeters>
          </Trackpoint>
          <Trackpoint>
            <Time>2022-09-19T12:37:16.000Z</Time>
            <Position>
              <LatitudeDegrees>49.44125977344810962677001953125</LatitudeDegrees>
              <LongitudeDegrees>20.0204635597765445709228515625</LongitudeDegrees>
            </Position>
            <AltitudeMeters>628.79998779296875</AltitudeMeters>
            <DistanceMeters>NAN</DistanceMeters>
          </Trackpoint>
          <Trackpoint>
            <Time>2022-09-19T12:37:21.000Z</Time>
            <Position>
              <LatitudeDegrees>49.44138399325311183929443359375</LatitudeDegrees>
              <LongitudeDegrees>20.0204350613057613372802734375</LongitudeDegrees>
            </Position>
            <AltitudeMeters>628.5999755859375</AltitudeMeters>
            <DistanceMeters>NAN</DistanceMeters>
          </Trackpoint>
          <Trackpoint>
            <Time>2022-09-19T12:37:23.000Z</Time>
            <Position>
              <LatitudeDegrees>49.44143839180469512939453125</LatitudeDegrees>
              <LongitudeDegrees>20.0204156152904033660888671875</LongitudeDegrees>
            </Position>
            <AltitudeMeters>628.4000244140625</AltitudeMeters>
            <DistanceMeters>NAN</DistanceMeters>
          </Trackpoint>
          <Trackpoint>
            <Time>2022-09-19T12:37:25.000Z</Time>
            <Position>
              <LatitudeDegrees>49.44150335155427455902099609375</LatitudeDegrees>
              <LongitudeDegrees>20.02040195278823375701904296875</LongitudeDegrees>
            </Position>
            <AltitudeMeters>628.4000244140625</AltitudeMeters>
            <DistanceMeters>NAN</DistanceMeters>
          </Trackpoint>
          <Trackpoint>
            <Time>2022-09-19T12:37:26.000Z</Time>
            <Position>
              <LatitudeDegrees>49.44152782671153545379638671875</LatitudeDegrees>
              <LongitudeDegrees>20.02039826475083827972412109375</LongitudeDegrees>
            </Position>
            <AltitudeMeters>628.4000244140625</AltitudeMeters>
            <DistanceMeters>NAN</DistanceMeters>
          </Trackpoint>
          <Trackpoint>
            <Time>2022-09-19T12:37:28.000Z</Time>
            <Position>
              <LatitudeDegrees>49.44158851169049739837646484375</LatitudeDegrees>
              <LongitudeDegrees>20.02040379680693149566650390625</LongitudeDegrees>
            </Position>
            <AltitudeMeters>628.20001220703125</AltitudeMeters>
            <DistanceMeters>NAN</DistanceMeters>
          </Trackpoint>
          <Trackpoint>
            <Time>2022-09-19T12:37:35.000Z</Time>
            <Position>
              <LatitudeDegrees>49.4417735002934932708740234375</LatitudeDegrees>
              <LongitudeDegrees>20.02042961306869983673095703125</LongitudeDegrees>
            </Position>
            <AltitudeMeters>627.5999755859375</AltitudeMeters>
            <DistanceMeters>NAN</DistanceMeters>
          </Trackpoint>
          <Trackpoint>
            <Time>2022-09-19T12:37:42.000Z</Time>
            <Position>
              <LatitudeDegrees>49.4419458322227001190185546875</LatitudeDegrees>
              <LongitudeDegrees>20.0204330496490001678466796875</LongitudeDegrees>
            </Position>
            <AltitudeMeters>627.4000244140625</AltitudeMeters>
            <DistanceMeters>NAN</DistanceMeters>
          </Trackpoint>
          <Trackpoint>
            <Time>2022-09-19T12:37:44.000Z</Time>
            <Position>
              <LatitudeDegrees>49.4419937767088413238525390625</LatitudeDegrees>
              <LongitudeDegrees>20.02042760141193866729736328125</LongitudeDegrees>
            </Position>
            <AltitudeMeters>627.4000244140625</AltitudeMeters>
            <DistanceMeters>NAN</DistanceMeters>
          </Trackpoint>
          <Trackpoint>
            <Time>2022-09-19T12:37:51.000Z</Time>
            <Position>
              <LatitudeDegrees>49.4421523623168468475341796875</LatitudeDegrees>
              <LongitudeDegrees>20.02041050232946872711181640625</LongitudeDegrees>
            </Position>
            <AltitudeMeters>626.79998779296875</AltitudeMeters>
            <DistanceMeters>NAN</DistanceMeters>
          </Trackpoint>
          <Trackpoint>
            <Time>2022-09-19T12:37:58.000Z</Time>
            <Position>
              <LatitudeDegrees>49.44233031012117862701416015625</LatitudeDegrees>
              <LongitudeDegrees>20.02040245570242404937744140625</LongitudeDegrees>
            </Position>
            <AltitudeMeters>627</AltitudeMeters>
            <DistanceMeters>NAN</DistanceMeters>
          </Trackpoint>
          <Trackpoint>
            <Time>2022-09-19T12:38:00.000Z</Time>
            <Position>
              <LatitudeDegrees>49.44239862263202667236328125</LatitudeDegrees>
              <LongitudeDegrees>20.02040304243564605712890625</LongitudeDegrees>
            </Position>
            <AltitudeMeters>626.79998779296875</AltitudeMeters>
            <DistanceMeters>NAN</DistanceMeters>
          </Trackpoint>
          <Trackpoint>
            <Time>2022-09-19T12:38:08.000Z</Time>
            <Position>
              <LatitudeDegrees>49.4426140375435352325439453125</LatitudeDegrees>
              <LongitudeDegrees>20.0203742086887359619140625</LongitudeDegrees>
            </Position>
            <AltitudeMeters>626.4000244140625</AltitudeMeters>
            <DistanceMeters>NAN</DistanceMeters>
          </Trackpoint>
          <Trackpoint>
            <Time>2022-09-19T12:38:09.000Z</Time>
            <Position>
              <LatitudeDegrees>49.44263792596757411956787109375</LatitudeDegrees>
              <LongitudeDegrees>20.02037026919424533843994140625</LongitudeDegrees>
            </Position>
            <AltitudeMeters>626.20001220703125</AltitudeMeters>
            <DistanceMeters>NAN</DistanceMeters>
          </Trackpoint>
          <Trackpoint>
            <Time>2022-09-19T12:38:16.000Z</Time>
            <Position>
              <LatitudeDegrees>49.44280656985938549041748046875</LatitudeDegrees>
              <LongitudeDegrees>20.02037814818322658538818359375</LongitudeDegrees>
            </Position>
            <AltitudeMeters>626</AltitudeMeters>
            <DistanceMeters>NAN</DistanceMeters>
          </Trackpoint>
          <Trackpoint>
            <Time>2022-09-19T12:38:25.000Z</Time>
            <Position>
              <LatitudeDegrees>49.44303522817790508270263671875</LatitudeDegrees>
              <LongitudeDegrees>20.0203742086887359619140625</LongitudeDegrees>
            </Position>
            <AltitudeMeters>626</AltitudeMeters>
            <DistanceMeters>NAN</DistanceMeters>
          </Trackpoint>
          <Trackpoint>
            <Time>2022-09-19T12:38:33.000Z</Time>
            <Position>
              <LatitudeDegrees>49.4432550854980945587158203125</LatitudeDegrees>
              <LongitudeDegrees>20.02036272548139095306396484375</LongitudeDegrees>
            </Position>
            <AltitudeMeters>625.5999755859375</AltitudeMeters>
            <DistanceMeters>NAN</DistanceMeters>
          </Trackpoint>
          <Trackpoint>
            <Time>2022-09-19T12:38:41.000Z</Time>
            <Position>
              <LatitudeDegrees>49.443490616977214813232421875</LatitudeDegrees>
              <LongitudeDegrees>20.02034763805568218231201171875</LongitudeDegrees>
            </Position>
            <AltitudeMeters>625.4000244140625</AltitudeMeters>
            <DistanceMeters>NAN</DistanceMeters>
          </Trackpoint>
          <Trackpoint>
            <Time>2022-09-19T12:38:45.000Z</Time>
            <Position>
              <LatitudeDegrees>49.443594552576541900634765625</LatitudeDegrees>
              <LongitudeDegrees>20.02034378238022327423095703125</LongitudeDegrees>
            </Position>
            <AltitudeMeters>625.20001220703125</AltitudeMeters>
            <DistanceMeters>NAN</DistanceMeters>
          </Trackpoint>
          <Trackpoint>
            <Time>2022-09-19T12:38:49.000Z</Time>
            <Position>
              <LatitudeDegrees>49.44370259530842304229736328125</LatitudeDegrees>
              <LongitudeDegrees>20.02033825032413005828857421875</LongitudeDegrees>
            </Position>
            <AltitudeMeters>625.20001220703125</AltitudeMeters>
            <DistanceMeters>NAN</DistanceMeters>
          </Trackpoint>
          <Trackpoint>
            <Time>2022-09-19T12:38:52.000Z</Time>
            <Position>
              <LatitudeDegrees>49.4437730871140956878662109375</LatitudeDegrees>
              <LongitudeDegrees>20.02033196389675140380859375</LongitudeDegrees>
            </Position>
            <AltitudeMeters>625</AltitudeMeters>
            <DistanceMeters>NAN</DistanceMeters>
          </Trackpoint>
          <Trackpoint>
            <Time>2022-09-19T12:38:54.000Z</Time>
            <Position>
              <LatitudeDegrees>49.44382530637085437774658203125</LatitudeDegrees>
              <LongitudeDegrees>20.02032928168773651123046875</LongitudeDegrees>
            </Position>
            <AltitudeMeters>625.20001220703125</AltitudeMeters>
            <DistanceMeters>NAN</DistanceMeters>
          </Trackpoint>
          <Trackpoint>
            <Time>2022-09-19T12:38:58.000Z</Time>
            <Position>
              <LatitudeDegrees>49.443913064897060394287109375</LatitudeDegrees>
              <LongitudeDegrees>20.02032785676419734954833984375</LongitudeDegrees>
            </Position>
            <AltitudeMeters>625.4000244140625</AltitudeMeters>
            <DistanceMeters>NAN</DistanceMeters>
          </Trackpoint>
          <Trackpoint>
            <Time>2022-09-19T12:39:01.000Z</Time>
            <Position>
              <LatitudeDegrees>49.44399713538587093353271484375</LatitudeDegrees>
              <LongitudeDegrees>20.02030388452112674713134765625</LongitudeDegrees>
            </Position>
            <AltitudeMeters>625</AltitudeMeters>
            <DistanceMeters>NAN</DistanceMeters>
          </Trackpoint>
          <Trackpoint>
            <Time>2022-09-19T12:39:07.000Z</Time>
            <Position>
              <LatitudeDegrees>49.44418136961758136749267578125</LatitudeDegrees>
              <LongitudeDegrees>20.02028712071478366851806640625</LongitudeDegrees>
            </Position>
            <AltitudeMeters>624.79998779296875</AltitudeMeters>
            <DistanceMeters>NAN</DistanceMeters>
          </Trackpoint>
          <Trackpoint>
            <Time>2022-09-19T12:39:14.000Z</Time>
            <Position>
              <LatitudeDegrees>49.44438873790204524993896484375</LatitudeDegrees>
              <LongitudeDegrees>20.020292736589908599853515625</LongitudeDegrees>
            </Position>
            <AltitudeMeters>624.5999755859375</AltitudeMeters>
            <DistanceMeters>NAN</DistanceMeters>
          </Trackpoint>
          <Trackpoint>
            <Time>2022-09-19T12:39:21.000Z</Time>
            <Position>
              <LatitudeDegrees>49.4446106068789958953857421875</LatitudeDegrees>
              <LongitudeDegrees>20.020286701619625091552734375</LongitudeDegrees>
            </Position>
            <AltitudeMeters>624.4000244140625</AltitudeMeters>
            <DistanceMeters>NAN</DistanceMeters>
          </Trackpoint>
          <Trackpoint>
            <Time>2022-09-19T12:39:26.000Z</Time>
            <Position>
              <LatitudeDegrees>49.444765336811542510986328125</LatitudeDegrees>
              <LongitudeDegrees>20.0202768109738826751708984375</LongitudeDegrees>
            </Position>
            <AltitudeMeters>624.4000244140625</AltitudeMeters>
            <DistanceMeters>NAN</DistanceMeters>
          </Trackpoint>
          <Trackpoint>
            <Time>2022-09-19T12:39:30.000Z</Time>
            <Position>
              <LatitudeDegrees>49.4448818452656269073486328125</LatitudeDegrees>
              <LongitudeDegrees>20.0202674232423305511474609375</LongitudeDegrees>
            </Position>
            <AltitudeMeters>624.20001220703125</AltitudeMeters>
            <DistanceMeters>NAN</DistanceMeters>
          </Trackpoint>
          <Trackpoint>
            <Time>2022-09-19T12:39:39.000Z</Time>
            <Position>
              <LatitudeDegrees>49.44514092989265918731689453125</LatitudeDegrees>
              <LongitudeDegrees>20.02025241963565349578857421875</LongitudeDegrees>
            </Position>
            <AltitudeMeters>623.5999755859375</AltitudeMeters>
            <DistanceMeters>NAN</DistanceMeters>
          </Trackpoint>
          <Trackpoint>
            <Time>2022-09-19T12:39:40.000Z</Time>
            <Position>
              <LatitudeDegrees>49.44517328403890132904052734375</LatitudeDegrees>
              <LongitudeDegrees>20.02025627531111240386962890625</LongitudeDegrees>
            </Position>
            <AltitudeMeters>623.5999755859375</AltitudeMeters>
            <DistanceMeters>NAN</DistanceMeters>
          </Trackpoint>
          <Trackpoint>
            <Time>2022-09-19T12:39:48.000Z</Time>
            <Position>
              <LatitudeDegrees>49.44536807946860790252685546875</LatitudeDegrees>
              <LongitudeDegrees>20.02024102024734020233154296875</LongitudeDegrees>
            </Position>
            <AltitudeMeters>623.4000244140625</AltitudeMeters>
            <DistanceMeters>NAN</DistanceMeters>
          </Trackpoint>
          <Trackpoint>
            <Time>2022-09-19T12:39:56.000Z</Time>
            <Position>
              <LatitudeDegrees>49.4455669820308685302734375</LatitudeDegrees>
              <LongitudeDegrees>20.02019475214183330535888671875</LongitudeDegrees>
            </Position>
            <AltitudeMeters>623.5999755859375</AltitudeMeters>
            <DistanceMeters>NAN</DistanceMeters>
          </Trackpoint>
          <Trackpoint>
            <Time>2022-09-19T12:40:03.000Z</Time>
            <Position>
              <LatitudeDegrees>49.445769153535366058349609375</LatitudeDegrees>
              <LongitudeDegrees>20.02015602774918079376220703125</LongitudeDegrees>
            </Position>
            <AltitudeMeters>623.20001220703125</AltitudeMeters>
            <DistanceMeters>NAN</DistanceMeters>
          </Trackpoint>
          <Trackpoint>
            <Time>2022-09-19T12:40:05.000Z</Time>
            <Position>
              <LatitudeDegrees>49.44582489319145679473876953125</LatitudeDegrees>
              <LongitudeDegrees>20.02014613710343837738037109375</LongitudeDegrees>
            </Position>
            <AltitudeMeters>623.20001220703125</AltitudeMeters>
            <DistanceMeters>NAN</DistanceMeters>
          </Trackpoint>
          <Trackpoint>
            <Time>2022-09-19T12:40:12.000Z</Time>
            <Position>
              <LatitudeDegrees>49.4460023380815982818603515625</LatitudeDegrees>
              <LongitudeDegrees>20.02011646516621112823486328125</LongitudeDegrees>
            </Position>
            <AltitudeMeters>623</AltitudeMeters>
            <DistanceMeters>NAN</DistanceMeters>
          </Trackpoint>
          <Trackpoint>
            <Time>2022-09-19T12:40:20.000Z</Time>
            <Position>
              <LatitudeDegrees>49.4461766816675662994384765625</LatitudeDegrees>
              <LongitudeDegrees>20.0201142020523548126220703125</LongitudeDegrees>
            </Position>
            <AltitudeMeters>622.79998779296875</AltitudeMeters>
            <DistanceMeters>NAN</DistanceMeters>
          </Trackpoint>
          <Trackpoint>
            <Time>2022-09-19T12:40:24.000Z</Time>
            <Position>
              <LatitudeDegrees>49.44623711518943309783935546875</LatitudeDegrees>
              <LongitudeDegrees>20.02010758034884929656982421875</LongitudeDegrees>
            </Position>
            <AltitudeMeters>622.79998779296875</AltitudeMeters>
            <DistanceMeters>NAN</DistanceMeters>
          </Trackpoint>
          <Trackpoint>
            <Time>2022-09-19T12:40:27.000Z</Time>
            <Position>
              <LatitudeDegrees>49.44625052623450756072998046875</LatitudeDegrees>
              <LongitudeDegrees>20.0201059877872467041015625</LongitudeDegrees>
            </Position>
            <AltitudeMeters>622.5999755859375</AltitudeMeters>
            <DistanceMeters>NAN</DistanceMeters>
          </Trackpoint>
          <Trackpoint>
            <Time>2022-09-19T12:40:34.000Z</Time>
            <Position>
              <LatitudeDegrees>49.4462544657289981842041015625</LatitudeDegrees>
              <LongitudeDegrees>20.020093582570552825927734375</LongitudeDegrees>
            </Position>
            <AltitudeMeters>622.5999755859375</AltitudeMeters>
            <DistanceMeters>NAN</DistanceMeters>
          </Trackpoint>
          <Trackpoint>
            <Time>2022-09-19T12:40:40.000Z</Time>
            <Position>
              <LatitudeDegrees>49.44625538773834705352783203125</LatitudeDegrees>
              <LongitudeDegrees>20.02009668387472629547119140625</LongitudeDegrees>
            </Position>
            <AltitudeMeters>622.5999755859375</AltitudeMeters>
            <DistanceMeters>NAN</DistanceMeters>
          </Trackpoint>
          <Trackpoint>
            <Time>2022-09-19T12:40:42.000Z</Time>
            <Position>
              <LatitudeDegrees>49.44626192562282085418701171875</LatitudeDegrees>
              <LongitudeDegrees>20.02014915458858013153076171875</LongitudeDegrees>
            </Position>
            <AltitudeMeters>622.5999755859375</AltitudeMeters>
            <DistanceMeters>NAN</DistanceMeters>
          </Trackpoint>
          <Trackpoint>
            <Time>2022-09-19T12:40:49.000Z</Time>
            <Position>
              <LatitudeDegrees>49.44626745767891407012939453125</LatitudeDegrees>
              <LongitudeDegrees>20.02029399387538433074951171875</LongitudeDegrees>
            </Position>
            <AltitudeMeters>622.79998779296875</AltitudeMeters>
            <DistanceMeters>NAN</DistanceMeters>
          </Trackpoint>
          <Trackpoint>
            <Time>2022-09-19T12:40:55.000Z</Time>
            <Position>
              <LatitudeDegrees>49.44629059173166751861572265625</LatitudeDegrees>
              <LongitudeDegrees>20.0203884579241275787353515625</LongitudeDegrees>
            </Position>
            <AltitudeMeters>622.5999755859375</AltitudeMeters>
            <DistanceMeters>NAN</DistanceMeters>
          </Trackpoint>
          <Trackpoint>
            <Time>2022-09-19T12:40:57.000Z</Time>
            <Position>
              <LatitudeDegrees>49.44630852900445461273193359375</LatitudeDegrees>
              <LongitudeDegrees>20.0204042159020900726318359375</LongitudeDegrees>
            </Position>
            <AltitudeMeters>622.5999755859375</AltitudeMeters>
            <DistanceMeters>NAN</DistanceMeters>
          </Trackpoint>
          <Trackpoint>
            <Time>2022-09-19T12:41:02.000Z</Time>
            <Position>
              <LatitudeDegrees>49.44634817540645599365234375</LatitudeDegrees>
              <LongitudeDegrees>20.02045459114015102386474609375</LongitudeDegrees>
            </Position>
            <AltitudeMeters>622.5999755859375</AltitudeMeters>
            <DistanceMeters>NAN</DistanceMeters>
          </Trackpoint>
          <Trackpoint>
            <Time>2022-09-19T12:41:06.000Z</Time>
            <Position>
              <LatitudeDegrees>49.4463808648288249969482421875</LatitudeDegrees>
              <LongitudeDegrees>20.02049515955150127410888671875</LongitudeDegrees>
            </Position>
            <AltitudeMeters>622.4000244140625</AltitudeMeters>
            <DistanceMeters>NAN</DistanceMeters>
          </Trackpoint>
          <Trackpoint>
            <Time>2022-09-19T12:41:08.000Z</Time>
            <Position>
              <LatitudeDegrees>49.4463982991874217987060546875</LatitudeDegrees>
              <LongitudeDegrees>20.02051879651844501495361328125</LongitudeDegrees>
            </Position>
            <AltitudeMeters>622.4000244140625</AltitudeMeters>
            <DistanceMeters>NAN</DistanceMeters>
          </Trackpoint>
          <Trackpoint>
            <Time>2022-09-19T12:41:11.000Z</Time>
            <Position>
              <LatitudeDegrees>49.44641120731830596923828125</LatitudeDegrees>
              <LongitudeDegrees>20.0205646455287933349609375</LongitudeDegrees>
            </Position>
            <AltitudeMeters>622.20001220703125</AltitudeMeters>
            <DistanceMeters>NAN</DistanceMeters>
          </Trackpoint>
          <Trackpoint>
            <Time>2022-09-19T12:41:15.000Z</Time>
            <Position>
              <LatitudeDegrees>49.4464301504194736480712890625</LatitudeDegrees>
              <LongitudeDegrees>20.02059440128505229949951171875</LongitudeDegrees>
            </Position>
            <AltitudeMeters>622</AltitudeMeters>
            <DistanceMeters>NAN</DistanceMeters>
          </Trackpoint>
          <Trackpoint>
            <Time>2022-09-19T12:41:19.000Z</Time>
            <Position>
              <LatitudeDegrees>49.446468539535999298095703125</LatitudeDegrees>
              <LongitudeDegrees>20.0206013582646846771240234375</LongitudeDegrees>
            </Position>
            <AltitudeMeters>621.5999755859375</AltitudeMeters>
            <DistanceMeters>NAN</DistanceMeters>
          </Trackpoint>
          <Trackpoint>
            <Time>2022-09-19T12:41:21.000Z</Time>
            <Position>
              <LatitudeDegrees>49.44649192504584789276123046875</LatitudeDegrees>
              <LongitudeDegrees>20.02058677375316619873046875</LongitudeDegrees>
            </Position>
            <AltitudeMeters>621.5999755859375</AltitudeMeters>
            <DistanceMeters>NAN</DistanceMeters>
          </Trackpoint>
          <Trackpoint>
            <Time>2022-09-19T12:41:26.000Z</Time>
            <Position>
              <LatitudeDegrees>49.4465339183807373046875</LatitudeDegrees>
              <LongitudeDegrees>20.02054008655250072479248046875</LongitudeDegrees>
            </Position>
            <AltitudeMeters>622</AltitudeMeters>
            <DistanceMeters>NAN</DistanceMeters>
          </Trackpoint>
          <Trackpoint>
            <Time>2022-09-19T12:41:31.000Z</Time>
            <Position>
              <LatitudeDegrees>49.4465780071914196014404296875</LatitudeDegrees>
              <LongitudeDegrees>20.02049549482762813568115234375</LongitudeDegrees>
            </Position>
            <AltitudeMeters>621.79998779296875</AltitudeMeters>
            <DistanceMeters>NAN</DistanceMeters>
          </Trackpoint>
          <Trackpoint>
            <Time>2022-09-19T12:41:37.000Z</Time>
            <Position>
              <LatitudeDegrees>49.446633160114288330078125</LatitudeDegrees>
              <LongitudeDegrees>20.0204407609999179840087890625</LongitudeDegrees>
            </Position>
            <AltitudeMeters>621.79998779296875</AltitudeMeters>
            <DistanceMeters>NAN</DistanceMeters>
          </Trackpoint>
          <Trackpoint>
            <Time>2022-09-19T12:41:45.000Z</Time>
            <Position>
              <LatitudeDegrees>49.44669879041612148284912109375</LatitudeDegrees>
              <LongitudeDegrees>20.0203720293939113616943359375</LongitudeDegrees>
            </Position>
            <AltitudeMeters>621.79998779296875</AltitudeMeters>
            <DistanceMeters>NAN</DistanceMeters>
          </Trackpoint>
          <Trackpoint>
            <Time>2022-09-19T12:41:51.000Z</Time>
            <Position>
              <LatitudeDegrees>49.44670197553932666778564453125</LatitudeDegrees>
              <LongitudeDegrees>20.02036993391811847686767578125</LongitudeDegrees>
            </Position>
            <AltitudeMeters>621.5999755859375</AltitudeMeters>
            <DistanceMeters>NAN</DistanceMeters>
          </Trackpoint>
          <Trackpoint>
            <Time>2022-09-19T12:41:59.000Z</Time>
            <Position>
              <LatitudeDegrees>49.446706585586071014404296875</LatitudeDegrees>
              <LongitudeDegrees>20.0203723646700382232666015625</LongitudeDegrees>
            </Position>
            <AltitudeMeters>621.5999755859375</AltitudeMeters>
            <DistanceMeters>NAN</DistanceMeters>
          </Trackpoint>
          <Trackpoint>
            <Time>2022-09-19T12:42:21.000Z</Time>
            <Position>
              <LatitudeDegrees>49.446706585586071014404296875</LatitudeDegrees>
              <LongitudeDegrees>20.0203723646700382232666015625</LongitudeDegrees>
            </Position>
            <AltitudeMeters>621.5999755859375</AltitudeMeters>
            <DistanceMeters>NAN</DistanceMeters>
          </Trackpoint>
          <Trackpoint>
            <Time>2022-09-19T12:42:28.000Z</Time>
            <Position>
              <LatitudeDegrees>49.446706585586071014404296875</LatitudeDegrees>
              <LongitudeDegrees>20.0203723646700382232666015625</LongitudeDegrees>
            </Position>
            <AltitudeMeters>621.5999755859375</AltitudeMeters>
            <DistanceMeters>NAN</DistanceMeters>
          </Trackpoint>
          <Trackpoint>
            <Time>2022-09-19T12:42:40.000Z</Time>
            <Position>
              <LatitudeDegrees>49.4467469863593578338623046875</LatitudeDegrees>
              <LongitudeDegrees>20.0203569419682025909423828125</LongitudeDegrees>
            </Position>
            <AltitudeMeters>621.5999755859375</AltitudeMeters>
            <DistanceMeters>NAN</DistanceMeters>
          </Trackpoint>
          <Trackpoint>
            <Time>2022-09-19T12:42:42.000Z</Time>
            <Position>
              <LatitudeDegrees>49.4467768259346485137939453125</LatitudeDegrees>
              <LongitudeDegrees>20.0203659944236278533935546875</LongitudeDegrees>
            </Position>
            <AltitudeMeters>621.5999755859375</AltitudeMeters>
            <DistanceMeters>NAN</DistanceMeters>
          </Trackpoint>
          <Trackpoint>
            <Time>2022-09-19T12:42:46.000Z</Time>
            <Position>
              <LatitudeDegrees>49.4468291290104389190673828125</LatitudeDegrees>
              <LongitudeDegrees>20.02040094695985317230224609375</LongitudeDegrees>
            </Position>
            <AltitudeMeters>621.4000244140625</AltitudeMeters>
            <DistanceMeters>NAN</DistanceMeters>
          </Trackpoint>
          <Trackpoint>
            <Time>2022-09-19T12:42:49.000Z</Time>
            <Position>
              <LatitudeDegrees>49.4468616507947444915771484375</LatitudeDegrees>
              <LongitudeDegrees>20.02040161751210689544677734375</LongitudeDegrees>
            </Position>
            <AltitudeMeters>621.4000244140625</AltitudeMeters>
            <DistanceMeters>NAN</DistanceMeters>
          </Trackpoint>
          <Trackpoint>
            <Time>2022-09-19T12:42:52.000Z</Time>
            <Position>
              <LatitudeDegrees>49.44688822142779827117919921875</LatitudeDegrees>
              <LongitudeDegrees>20.0203968398272991180419921875</LongitudeDegrees>
            </Position>
            <AltitudeMeters>621.4000244140625</AltitudeMeters>
            <DistanceMeters>NAN</DistanceMeters>
          </Trackpoint>
          <Trackpoint>
            <Time>2022-09-19T12:42:53.000Z</Time>
            <Position>
              <LatitudeDegrees>49.4468995369970798492431640625</LatitudeDegrees>
              <LongitudeDegrees>20.020401366055011749267578125</LongitudeDegrees>
            </Position>
            <AltitudeMeters>621.4000244140625</AltitudeMeters>
            <DistanceMeters>NAN</DistanceMeters>
          </Trackpoint>
          <Trackpoint>
            <Time>2022-09-19T12:42:55.000Z</Time>
            <Position>
              <LatitudeDegrees>49.44692241959273815155029296875</LatitudeDegrees>
              <LongitudeDegrees>20.0204090774059295654296875</LongitudeDegrees>
            </Position>
            <AltitudeMeters>621.4000244140625</AltitudeMeters>
            <DistanceMeters>NAN</DistanceMeters>
          </Trackpoint>
          <Trackpoint>
            <Time>2022-09-19T12:42:58.000Z</Time>
            <Position>
              <LatitudeDegrees>49.44697170518338680267333984375</LatitudeDegrees>
              <LongitudeDegrees>20.0204229913651943206787109375</LongitudeDegrees>
            </Position>
            <AltitudeMeters>621.4000244140625</AltitudeMeters>
            <DistanceMeters>NAN</DistanceMeters>
          </Trackpoint>
          <Trackpoint>
            <Time>2022-09-19T12:43:01.000Z</Time>
            <Position>
              <LatitudeDegrees>49.4470178894698619842529296875</LatitudeDegrees>
              <LongitudeDegrees>20.02042408101260662078857421875</LongitudeDegrees>
            </Position>
            <AltitudeMeters>621.20001220703125</AltitudeMeters>
            <DistanceMeters>NAN</DistanceMeters>
          </Trackpoint>
          <Trackpoint>
            <Time>2022-09-19T12:43:02.000Z</Time>
            <Position>
              <LatitudeDegrees>49.44702115841209888458251953125</LatitudeDegrees>
              <LongitudeDegrees>20.02042056061327457427978515625</LongitudeDegrees>
            </Position>
            <AltitudeMeters>621.20001220703125</AltitudeMeters>
            <DistanceMeters>NAN</DistanceMeters>
          </Trackpoint>
          <Trackpoint>
            <Time>2022-09-19T12:43:03.000Z</Time>
            <Position>
              <LatitudeDegrees>49.4470239244401454925537109375</LatitudeDegrees>
              <LongitudeDegrees>20.020418465137481689453125</LongitudeDegrees>
            </Position>
            <AltitudeMeters>621.20001220703125</AltitudeMeters>
            <DistanceMeters>NAN</DistanceMeters>
          </Trackpoint>
          <Trackpoint>
            <Time>2022-09-19T12:43:06.000Z</Time>
            <Position>
              <LatitudeDegrees>49.44703658111393451690673828125</LatitudeDegrees>
              <LongitudeDegrees>20.02041335217654705047607421875</LongitudeDegrees>
            </Position>
            <AltitudeMeters>621.20001220703125</AltitudeMeters>
            <DistanceMeters>NAN</DistanceMeters>
          </Trackpoint>
          <Trackpoint>
            <Time>2022-09-19T12:43:08.000Z</Time>
            <Position>
              <LatitudeDegrees>49.44705870933830738067626953125</LatitudeDegrees>
              <LongitudeDegrees>20.0204179622232913970947265625</LongitudeDegrees>
            </Position>
            <AltitudeMeters>621</AltitudeMeters>
            <DistanceMeters>NAN</DistanceMeters>
          </Trackpoint>
          <Trackpoint>
            <Time>2022-09-19T12:43:13.000Z</Time>
            <Position>
              <LatitudeDegrees>49.4471053965389728546142578125</LatitudeDegrees>
              <LongitudeDegrees>20.02040438354015350341796875</LongitudeDegrees>
            </Position>
            <AltitudeMeters>621</AltitudeMeters>
            <DistanceMeters>NAN</DistanceMeters>
          </Trackpoint>
          <Trackpoint>
            <Time>2022-09-19T12:43:16.000Z</Time>
            <Position>
              <LatitudeDegrees>49.44713934324681758880615234375</LatitudeDegrees>
              <LongitudeDegrees>20.020394660532474517822265625</LongitudeDegrees>
            </Position>
            <AltitudeMeters>621.20001220703125</AltitudeMeters>
            <DistanceMeters>NAN</DistanceMeters>
          </Trackpoint>
          <Trackpoint>
            <Time>2022-09-19T12:43:21.000Z</Time>
            <Position>
              <LatitudeDegrees>49.447187371551990509033203125</LatitudeDegrees>
              <LongitudeDegrees>20.0203716941177845001220703125</LongitudeDegrees>
            </Position>
            <AltitudeMeters>621</AltitudeMeters>
            <DistanceMeters>NAN</DistanceMeters>
          </Trackpoint>
          <Trackpoint>
            <Time>2022-09-19T12:43:22.000Z</Time>
            <Position>
              <LatitudeDegrees>49.44719575345516204833984375</LatitudeDegrees>
              <LongitudeDegrees>20.02037244848906993865966796875</LongitudeDegrees>
            </Position>
            <AltitudeMeters>621</AltitudeMeters>
            <DistanceMeters>NAN</DistanceMeters>
          </Trackpoint>
          <Trackpoint>
            <Time>2022-09-19T12:43:26.000Z</Time>
            <Position>
              <LatitudeDegrees>49.44723489694297313690185546875</LatitudeDegrees>
              <LongitudeDegrees>20.0203777290880680084228515625</LongitudeDegrees>
            </Position>
            <AltitudeMeters>620.79998779296875</AltitudeMeters>
            <DistanceMeters>NAN</DistanceMeters>
          </Trackpoint>
          <Trackpoint>
            <Time>2022-09-19T12:43:29.000Z</Time>
            <Position>
              <LatitudeDegrees>49.44726222194731235504150390625</LatitudeDegrees>
              <LongitudeDegrees>20.02039432525634765625</LongitudeDegrees>
            </Position>
            <AltitudeMeters>620.79998779296875</AltitudeMeters>
            <DistanceMeters>NAN</DistanceMeters>
          </Trackpoint>
          <Trackpoint>
            <Time>2022-09-19T12:43:30.000Z</Time>
            <Position>
              <LatitudeDegrees>49.44727026857435703277587890625</LatitudeDegrees>
              <LongitudeDegrees>20.02039633691310882568359375</LongitudeDegrees>
            </Position>
            <AltitudeMeters>620.79998779296875</AltitudeMeters>
            <DistanceMeters>NAN</DistanceMeters>
          </Trackpoint>
          <Trackpoint>
            <Time>2022-09-19T12:43:34.000Z</Time>
            <Position>
              <LatitudeDegrees>49.44731779396533966064453125</LatitudeDegrees>
              <LongitudeDegrees>20.0203824229538440704345703125</LongitudeDegrees>
            </Position>
            <AltitudeMeters>620.79998779296875</AltitudeMeters>
            <DistanceMeters>NAN</DistanceMeters>
          </Trackpoint>
          <Trackpoint>
            <Time>2022-09-19T12:43:36.000Z</Time>
            <Position>
              <LatitudeDegrees>49.44733665324747562408447265625</LatitudeDegrees>
              <LongitudeDegrees>20.0203760527074337005615234375</LongitudeDegrees>
            </Position>
            <AltitudeMeters>620.79998779296875</AltitudeMeters>
            <DistanceMeters>NAN</DistanceMeters>
          </Trackpoint>
          <Trackpoint>
            <Time>2022-09-19T12:43:42.000Z</Time>
            <Position>
              <LatitudeDegrees>49.44739934988319873809814453125</LatitudeDegrees>
              <LongitudeDegrees>20.02038233913481235504150390625</LongitudeDegrees>
            </Position>
            <AltitudeMeters>620.4000244140625</AltitudeMeters>
            <DistanceMeters>NAN</DistanceMeters>
          </Trackpoint>
          <Trackpoint>
            <Time>2022-09-19T12:43:43.000Z</Time>
            <Position>
              <LatitudeDegrees>49.4474078156054019927978515625</LatitudeDegrees>
              <LongitudeDegrees>20.02038518898189067840576171875</LongitudeDegrees>
            </Position>
            <AltitudeMeters>620.4000244140625</AltitudeMeters>
            <DistanceMeters>NAN</DistanceMeters>
          </Trackpoint>
          <Trackpoint>
            <Time>2022-09-19T12:43:44.000Z</Time>
            <Position>
              <LatitudeDegrees>49.44741879589855670928955078125</LatitudeDegrees>
              <LongitudeDegrees>20.02039072103798389434814453125</LongitudeDegrees>
            </Position>
            <AltitudeMeters>620.4000244140625</AltitudeMeters>
            <DistanceMeters>NAN</DistanceMeters>
          </Trackpoint>
          <Trackpoint>
            <Time>2022-09-19T12:43:48.000Z</Time>
            <Position>
              <LatitudeDegrees>49.44745349697768688201904296875</LatitudeDegrees>
              <LongitudeDegrees>20.02040245570242404937744140625</LongitudeDegrees>
            </Position>
            <AltitudeMeters>620.79998779296875</AltitudeMeters>
            <DistanceMeters>NAN</DistanceMeters>
          </Trackpoint>
          <Trackpoint>
            <Time>2022-09-19T12:43:49.000Z</Time>
            <Position>
              <LatitudeDegrees>49.447454251348972320556640625</LatitudeDegrees>
              <LongitudeDegrees>20.02039843238890171051025390625</LongitudeDegrees>
            </Position>
            <AltitudeMeters>620.79998779296875</AltitudeMeters>
            <DistanceMeters>NAN</DistanceMeters>
          </Trackpoint>
          <Trackpoint>
            <Time>2022-09-19T12:43:50.000Z</Time>
            <Position>
              <LatitudeDegrees>49.44746003486216068267822265625</LatitudeDegrees>
              <LongitudeDegrees>20.0204010307788848876953125</LongitudeDegrees>
            </Position>
            <AltitudeMeters>620.5999755859375</AltitudeMeters>
            <DistanceMeters>NAN</DistanceMeters>
          </Trackpoint>
          <Trackpoint>
            <Time>2022-09-19T12:43:54.000Z</Time>
            <Position>
              <LatitudeDegrees>49.4475023634731769561767578125</LatitudeDegrees>
              <LongitudeDegrees>20.0204042159020900726318359375</LongitudeDegrees>
            </Position>
            <AltitudeMeters>620.4000244140625</AltitudeMeters>
            <DistanceMeters>NAN</DistanceMeters>
          </Trackpoint>
          <Trackpoint>
            <Time>2022-09-19T12:43:58.000Z</Time>
            <Position>
              <LatitudeDegrees>49.44755190052092075347900390625</LatitudeDegrees>
              <LongitudeDegrees>20.0203995220363140106201171875</LongitudeDegrees>
            </Position>
            <AltitudeMeters>620.20001220703125</AltitudeMeters>
            <DistanceMeters>NAN</DistanceMeters>
          </Trackpoint>
          <Trackpoint>
            <Time>2022-09-19T12:44:02.000Z</Time>
            <Position>
              <LatitudeDegrees>49.4475898705422878265380859375</LatitudeDegrees>
              <LongitudeDegrees>20.020393319427967071533203125</LongitudeDegrees>
            </Position>
            <AltitudeMeters>620.20001220703125</AltitudeMeters>
            <DistanceMeters>NAN</DistanceMeters>
          </Trackpoint>
          <Trackpoint>
            <Time>2022-09-19T12:44:10.000Z</Time>
            <Position>
              <LatitudeDegrees>49.44768550805747509002685546875</LatitudeDegrees>
              <LongitudeDegrees>20.02038015983998775482177734375</LongitudeDegrees>
            </Position>
            <AltitudeMeters>620.4000244140625</AltitudeMeters>
            <DistanceMeters>NAN</DistanceMeters>
          </Trackpoint>
          <Trackpoint>
            <Time>2022-09-19T12:44:13.000Z</Time>
            <Position>
              <LatitudeDegrees>49.44772012531757354736328125</LatitudeDegrees>
              <LongitudeDegrees>20.02036440186202526092529296875</LongitudeDegrees>
            </Position>
            <AltitudeMeters>620.20001220703125</AltitudeMeters>
            <DistanceMeters>NAN</DistanceMeters>
          </Trackpoint>
          <Trackpoint>
            <Time>2022-09-19T12:44:17.000Z</Time>
            <Position>
              <LatitudeDegrees>49.44774753414094448089599609375</LatitudeDegrees>
              <LongitudeDegrees>20.02036859281361103057861328125</LongitudeDegrees>
            </Position>
            <AltitudeMeters>620.4000244140625</AltitudeMeters>
            <DistanceMeters>NAN</DistanceMeters>
          </Trackpoint>
          <Trackpoint>
            <Time>2022-09-19T12:44:18.000Z</Time>
            <Position>
              <LatitudeDegrees>49.44774501956999301910400390625</LatitudeDegrees>
              <LongitudeDegrees>20.02036750316619873046875</LongitudeDegrees>
            </Position>
            <AltitudeMeters>620.4000244140625</AltitudeMeters>
            <DistanceMeters>NAN</DistanceMeters>
          </Trackpoint>
          <Trackpoint>
            <Time>2022-09-19T12:44:21.000Z</Time>
            <Position>
              <LatitudeDegrees>49.44775097072124481201171875</LatitudeDegrees>
              <LongitudeDegrees>20.02036825753748416900634765625</LongitudeDegrees>
            </Position>
            <AltitudeMeters>620</AltitudeMeters>
            <DistanceMeters>NAN</DistanceMeters>
          </Trackpoint>
          <Trackpoint>
            <Time>2022-09-19T12:44:23.000Z</Time>
            <Position>
              <LatitudeDegrees>49.44779044948518276214599609375</LatitudeDegrees>
              <LongitudeDegrees>20.02035417594015598297119140625</LongitudeDegrees>
            </Position>
            <AltitudeMeters>620</AltitudeMeters>
            <DistanceMeters>NAN</DistanceMeters>
          </Trackpoint>
          <Trackpoint>
            <Time>2022-09-19T12:44:26.000Z</Time>
            <Position>
              <LatitudeDegrees>49.44785155355930328369140625</LatitudeDegrees>
              <LongitudeDegrees>20.02032299526035785675048828125</LongitudeDegrees>
            </Position>
            <AltitudeMeters>620</AltitudeMeters>
            <DistanceMeters>NAN</DistanceMeters>
          </Trackpoint>
          <Trackpoint>
            <Time>2022-09-19T12:44:33.000Z</Time>
            <Position>
              <LatitudeDegrees>49.44804861210286617279052734375</LatitudeDegrees>
              <LongitudeDegrees>20.02033322118222713470458984375</LongitudeDegrees>
            </Position>
            <AltitudeMeters>619.79998779296875</AltitudeMeters>
            <DistanceMeters>NAN</DistanceMeters>
          </Trackpoint>
          <Trackpoint>
            <Time>2022-09-19T12:44:38.000Z</Time>
            <Position>
              <LatitudeDegrees>49.4482277333736419677734375</LatitudeDegrees>
              <LongitudeDegrees>20.02034579403698444366455078125</LongitudeDegrees>
            </Position>
            <AltitudeMeters>619.5999755859375</AltitudeMeters>
            <DistanceMeters>NAN</DistanceMeters>
          </Trackpoint>
          <Trackpoint>
            <Time>2022-09-19T12:44:39.000Z</Time>
            <Position>
              <LatitudeDegrees>49.4482681341469287872314453125</LatitudeDegrees>
              <LongitudeDegrees>20.0203475542366504669189453125</LongitudeDegrees>
            </Position>
            <AltitudeMeters>619.4000244140625</AltitudeMeters>
            <DistanceMeters>NAN</DistanceMeters>
          </Trackpoint>
          <Trackpoint>
            <Time>2022-09-19T12:44:42.000Z</Time>
            <Position>
              <LatitudeDegrees>49.44838724099099636077880859375</LatitudeDegrees>
              <LongitudeDegrees>20.020348392426967620849609375</LongitudeDegrees>
            </Position>
            <AltitudeMeters>619</AltitudeMeters>
            <DistanceMeters>NAN</DistanceMeters>
          </Trackpoint>
          <Trackpoint>
            <Time>2022-09-19T12:44:48.000Z</Time>
            <Position>
              <LatitudeDegrees>49.44860466755926609039306640625</LatitudeDegrees>
              <LongitudeDegrees>20.02035350538790225982666015625</LongitudeDegrees>
            </Position>
            <AltitudeMeters>619</AltitudeMeters>
            <DistanceMeters>NAN</DistanceMeters>
          </Trackpoint>
          <Trackpoint>
            <Time>2022-09-19T12:44:58.000Z</Time>
            <Position>
              <LatitudeDegrees>49.4489775784313678741455078125</LatitudeDegrees>
              <LongitudeDegrees>20.02037580125033855438232421875</LongitudeDegrees>
            </Position>
            <AltitudeMeters>618.4000244140625</AltitudeMeters>
            <DistanceMeters>NAN</DistanceMeters>
          </Trackpoint>
          <Trackpoint>
            <Time>2022-09-19T12:45:07.000Z</Time>
            <Position>
              <LatitudeDegrees>49.4493205659091472625732421875</LatitudeDegrees>
              <LongitudeDegrees>20.0203884579241275787353515625</LongitudeDegrees>
            </Position>
            <AltitudeMeters>618.5999755859375</AltitudeMeters>
            <DistanceMeters>NAN</DistanceMeters>
          </Trackpoint>
          <Trackpoint>
            <Time>2022-09-19T12:45:09.000Z</Time>
            <Position>
              <LatitudeDegrees>49.4494037143886089324951171875</LatitudeDegrees>
              <LongitudeDegrees>20.02039021812379360198974609375</LongitudeDegrees>
            </Position>
            <AltitudeMeters>618.79998779296875</AltitudeMeters>
            <DistanceMeters>NAN</DistanceMeters>
          </Trackpoint>
          <Trackpoint>
            <Time>2022-09-19T12:45:13.000Z</Time>
            <Position>
              <LatitudeDegrees>49.44959574379026889801025390625</LatitudeDegrees>
              <LongitudeDegrees>20.0203929841518402099609375</LongitudeDegrees>
            </Position>
            <AltitudeMeters>618.79998779296875</AltitudeMeters>
            <DistanceMeters>NAN</DistanceMeters>
          </Trackpoint>
          <Trackpoint>
            <Time>2022-09-19T12:45:19.000Z</Time>
            <Position>
              <LatitudeDegrees>49.44982674904167652130126953125</LatitudeDegrees>
              <LongitudeDegrees>20.0203891284763813018798828125</LongitudeDegrees>
            </Position>
            <AltitudeMeters>618.4000244140625</AltitudeMeters>
            <DistanceMeters>NAN</DistanceMeters>
          </Trackpoint>
          <Trackpoint>
            <Time>2022-09-19T12:45:21.000Z</Time>
            <Position>
              <LatitudeDegrees>49.449901096522808074951171875</LatitudeDegrees>
              <LongitudeDegrees>20.020384602248668670654296875</LongitudeDegrees>
            </Position>
            <AltitudeMeters>618.4000244140625</AltitudeMeters>
            <DistanceMeters>NAN</DistanceMeters>
          </Trackpoint>
          <Trackpoint>
            <Time>2022-09-19T12:45:30.000Z</Time>
            <Position>
              <LatitudeDegrees>49.4502529688179492950439453125</LatitudeDegrees>
              <LongitudeDegrees>20.02039474435150623321533203125</LongitudeDegrees>
            </Position>
            <AltitudeMeters>618</AltitudeMeters>
            <DistanceMeters>NAN</DistanceMeters>
          </Trackpoint>
          <Trackpoint>
            <Time>2022-09-19T12:45:33.000Z</Time>
            <Position>
              <LatitudeDegrees>49.450374506413936614990234375</LatitudeDegrees>
              <LongitudeDegrees>20.0203921459615230560302734375</LongitudeDegrees>
            </Position>
            <AltitudeMeters>617.79998779296875</AltitudeMeters>
            <DistanceMeters>NAN</DistanceMeters>
          </Trackpoint>
          <Trackpoint>
            <Time>2022-09-19T12:45:42.000Z</Time>
            <Position>
              <LatitudeDegrees>49.45072009228169918060302734375</LatitudeDegrees>
              <LongitudeDegrees>20.020395331084728240966796875</LongitudeDegrees>
            </Position>
            <AltitudeMeters>617.4000244140625</AltitudeMeters>
            <DistanceMeters>NAN</DistanceMeters>
          </Trackpoint>
          <Trackpoint>
            <Time>2022-09-19T12:45:44.000Z</Time>
            <Position>
              <LatitudeDegrees>49.45079301483929157257080078125</LatitudeDegrees>
              <LongitudeDegrees>20.02039273269474506378173828125</LongitudeDegrees>
            </Position>
            <AltitudeMeters>617.4000244140625</AltitudeMeters>
            <DistanceMeters>NAN</DistanceMeters>
          </Trackpoint>
          <Trackpoint>
            <Time>2022-09-19T12:45:45.000Z</Time>
            <Position>
              <LatitudeDegrees>49.450825788080692291259765625</LatitudeDegrees>
              <LongitudeDegrees>20.02039499580860137939453125</LongitudeDegrees>
            </Position>
            <AltitudeMeters>617.4000244140625</AltitudeMeters>
            <DistanceMeters>NAN</DistanceMeters>
          </Trackpoint>
          <Trackpoint>
            <Time>2022-09-19T12:45:50.000Z</Time>
            <Position>
              <LatitudeDegrees>49.45098814554512500762939453125</LatitudeDegrees>
              <LongitudeDegrees>20.02040329389274120330810546875</LongitudeDegrees>
            </Position>
            <AltitudeMeters>617.20001220703125</AltitudeMeters>
            <DistanceMeters>NAN</DistanceMeters>
          </Trackpoint>
          <Trackpoint>
            <Time>2022-09-19T12:45:57.000Z</Time>
            <Position>
              <LatitudeDegrees>49.45120632648468017578125</LatitudeDegrees>
              <LongitudeDegrees>20.02042056061327457427978515625</LongitudeDegrees>
            </Position>
            <AltitudeMeters>616.79998779296875</AltitudeMeters>
            <DistanceMeters>NAN</DistanceMeters>
          </Trackpoint>
          <Trackpoint>
            <Time>2022-09-19T12:46:05.000Z</Time>
            <Position>
              <LatitudeDegrees>49.4514760561287403106689453125</LatitudeDegrees>
              <LongitudeDegrees>20.02043162472546100616455078125</LongitudeDegrees>
            </Position>
            <AltitudeMeters>616.4000244140625</AltitudeMeters>
            <DistanceMeters>NAN</DistanceMeters>
          </Trackpoint>
          <Trackpoint>
            <Time>2022-09-19T12:46:06.000Z</Time>
            <Position>
              <LatitudeDegrees>49.4515048898756504058837890625</LatitudeDegrees>
              <LongitudeDegrees>20.02043028362095355987548828125</LongitudeDegrees>
            </Position>
            <AltitudeMeters>616.20001220703125</AltitudeMeters>
            <DistanceMeters>NAN</DistanceMeters>
          </Trackpoint>
          <Trackpoint>
            <Time>2022-09-19T12:46:15.000Z</Time>
            <Position>
              <LatitudeDegrees>49.4517467916011810302734375</LatitudeDegrees>
              <LongitudeDegrees>20.0204156152904033660888671875</LongitudeDegrees>
            </Position>
            <AltitudeMeters>616.20001220703125</AltitudeMeters>
            <DistanceMeters>NAN</DistanceMeters>
          </Trackpoint>
          <Trackpoint>
            <Time>2022-09-19T12:46:23.000Z</Time>
            <Position>
              <LatitudeDegrees>49.45197067223489284515380859375</LatitudeDegrees>
              <LongitudeDegrees>20.0204290263354778289794921875</LongitudeDegrees>
            </Position>
            <AltitudeMeters>616</AltitudeMeters>
            <DistanceMeters>NAN</DistanceMeters>
          </Trackpoint>
          <Trackpoint>
            <Time>2022-09-19T12:46:24.000Z</Time>
            <Position>
              <LatitudeDegrees>49.45199958980083465576171875</LatitudeDegrees>
              <LongitudeDegrees>20.0204327143728733062744140625</LongitudeDegrees>
            </Position>
            <AltitudeMeters>616</AltitudeMeters>
            <DistanceMeters>NAN</DistanceMeters>
          </Trackpoint>
          <Trackpoint>
            <Time>2022-09-19T12:46:28.000Z</Time>
            <Position>
              <LatitudeDegrees>49.45210126228630542755126953125</LatitudeDegrees>
              <LongitudeDegrees>20.02043413929641246795654296875</LongitudeDegrees>
            </Position>
            <AltitudeMeters>615.79998779296875</AltitudeMeters>
            <DistanceMeters>NAN</DistanceMeters>
          </Trackpoint>
          <Trackpoint>
            <Time>2022-09-19T12:46:32.000Z</Time>
            <Position>
              <LatitudeDegrees>49.45220637135207653045654296875</LatitudeDegrees>
              <LongitudeDegrees>20.02044470049440860748291015625</LongitudeDegrees>
            </Position>
            <AltitudeMeters>615.5999755859375</AltitudeMeters>
            <DistanceMeters>NAN</DistanceMeters>
          </Trackpoint>
          <Trackpoint>
            <Time>2022-09-19T12:46:39.000Z</Time>
            <Position>
              <LatitudeDegrees>49.45239110849797725677490234375</LatitudeDegrees>
              <LongitudeDegrees>20.02045727334916591644287109375</LongitudeDegrees>
            </Position>
            <AltitudeMeters>615.4000244140625</AltitudeMeters>
            <DistanceMeters>NAN</DistanceMeters>
          </Trackpoint>
          <Trackpoint>
            <Time>2022-09-19T12:46:40.000Z</Time>
            <Position>
              <LatitudeDegrees>49.4524201937019824981689453125</LatitudeDegrees>
              <LongitudeDegrees>20.020459033548831939697265625</LongitudeDegrees>
            </Position>
            <AltitudeMeters>615.4000244140625</AltitudeMeters>
            <DistanceMeters>NAN</DistanceMeters>
          </Trackpoint>
          <Trackpoint>
            <Time>2022-09-19T12:46:50.000Z</Time>
            <Position>
              <LatitudeDegrees>49.45267022587358951568603515625</LatitudeDegrees>
              <LongitudeDegrees>20.020473115146160125732421875</LongitudeDegrees>
            </Position>
            <AltitudeMeters>615.20001220703125</AltitudeMeters>
            <DistanceMeters>NAN</DistanceMeters>
          </Trackpoint>
          <Trackpoint>
            <Time>2022-09-19T12:46:57.000Z</Time>
            <Position>
              <LatitudeDegrees>49.452831409871578216552734375</LatitudeDegrees>
              <LongitudeDegrees>20.02048191614449024200439453125</LongitudeDegrees>
            </Position>
            <AltitudeMeters>615</AltitudeMeters>
            <DistanceMeters>NAN</DistanceMeters>
          </Trackpoint>
          <Trackpoint>
            <Time>2022-09-19T12:47:05.000Z</Time>
            <Position>
              <LatitudeDegrees>49.45307674817740917205810546875</LatitudeDegrees>
              <LongitudeDegrees>20.02047722227871417999267578125</LongitudeDegrees>
            </Position>
            <AltitudeMeters>614.5999755859375</AltitudeMeters>
            <DistanceMeters>NAN</DistanceMeters>
          </Trackpoint>
          <Trackpoint>
            <Time>2022-09-19T12:47:06.000Z</Time>
            <Position>
              <LatitudeDegrees>49.45310843177139759063720703125</LatitudeDegrees>
              <LongitudeDegrees>20.02047789283096790313720703125</LongitudeDegrees>
            </Position>
            <AltitudeMeters>614.5999755859375</AltitudeMeters>
            <DistanceMeters>NAN</DistanceMeters>
          </Trackpoint>
          <Trackpoint>
            <Time>2022-09-19T12:47:15.000Z</Time>
            <Position>
              <LatitudeDegrees>49.45340397767722606658935546875</LatitudeDegrees>
              <LongitudeDegrees>20.0204627215862274169921875</LongitudeDegrees>
            </Position>
            <AltitudeMeters>614.4000244140625</AltitudeMeters>
            <DistanceMeters>NAN</DistanceMeters>
          </Trackpoint>
          <Trackpoint>
            <Time>2022-09-19T12:47:22.000Z</Time>
            <Position>
              <LatitudeDegrees>49.45369541645050048828125</LatitudeDegrees>
              <LongitudeDegrees>20.0204742886126041412353515625</LongitudeDegrees>
            </Position>
            <AltitudeMeters>614.4000244140625</AltitudeMeters>
            <DistanceMeters>NAN</DistanceMeters>
          </Trackpoint>
          <Trackpoint>
            <Time>2022-09-19T12:47:23.000Z</Time>
            <Position>
              <LatitudeDegrees>49.45373506285250186920166015625</LatitudeDegrees>
              <LongitudeDegrees>20.02047403715550899505615234375</LongitudeDegrees>
            </Position>
            <AltitudeMeters>614.4000244140625</AltitudeMeters>
            <DistanceMeters>NAN</DistanceMeters>
          </Trackpoint>
          <Trackpoint>
            <Time>2022-09-19T12:47:31.000Z</Time>
            <Position>
              <LatitudeDegrees>49.45404385216534137725830078125</LatitudeDegrees>
              <LongitudeDegrees>20.02047479152679443359375</LongitudeDegrees>
            </Position>
            <AltitudeMeters>614.20001220703125</AltitudeMeters>
            <DistanceMeters>NAN</DistanceMeters>
          </Trackpoint>
          <Trackpoint>
            <Time>2022-09-19T12:47:42.000Z</Time>
            <Position>
              <LatitudeDegrees>49.45445188321173191070556640625</LatitudeDegrees>
              <LongitudeDegrees>20.02047655172646045684814453125</LongitudeDegrees>
            </Position>
            <AltitudeMeters>614</AltitudeMeters>
            <DistanceMeters>NAN</DistanceMeters>
          </Trackpoint>
          <Trackpoint>
            <Time>2022-09-19T12:47:43.000Z</Time>
            <Position>
              <LatitudeDegrees>49.45449295453727245330810546875</LatitudeDegrees>
              <LongitudeDegrees>20.0204793177545070648193359375</LongitudeDegrees>
            </Position>
            <AltitudeMeters>614</AltitudeMeters>
            <DistanceMeters>NAN</DistanceMeters>
          </Trackpoint>
          <Trackpoint>
            <Time>2022-09-19T12:47:54.000Z</Time>
            <Position>
              <LatitudeDegrees>49.45489327423274517059326171875</LatitudeDegrees>
              <LongitudeDegrees>20.02047755755484104156494140625</LongitudeDegrees>
            </Position>
            <AltitudeMeters>613.5999755859375</AltitudeMeters>
            <DistanceMeters>NAN</DistanceMeters>
          </Trackpoint>
          <Trackpoint>
            <Time>2022-09-19T12:47:56.000Z</Time>
            <Position>
              <LatitudeDegrees>49.45495915599167346954345703125</LatitudeDegrees>
              <LongitudeDegrees>20.02048057503998279571533203125</LongitudeDegrees>
            </Position>
            <AltitudeMeters>613.5999755859375</AltitudeMeters>
            <DistanceMeters>NAN</DistanceMeters>
          </Trackpoint>
          <Trackpoint>
            <Time>2022-09-19T12:48:06.000Z</Time>
            <Position>
              <LatitudeDegrees>49.4552485831081867218017578125</LatitudeDegrees>
              <LongitudeDegrees>20.02048560418188571929931640625</LongitudeDegrees>
            </Position>
            <AltitudeMeters>613.4000244140625</AltitudeMeters>
            <DistanceMeters>NAN</DistanceMeters>
          </Trackpoint>
          <Trackpoint>
            <Time>2022-09-19T12:48:16.000Z</Time>
            <Position>
              <LatitudeDegrees>49.4555365853011608123779296875</LatitudeDegrees>
              <LongitudeDegrees>20.02047479152679443359375</LongitudeDegrees>
            </Position>
            <AltitudeMeters>613.4000244140625</AltitudeMeters>
            <DistanceMeters>NAN</DistanceMeters>
          </Trackpoint>
          <Trackpoint>
            <Time>2022-09-19T12:48:28.000Z</Time>
            <Position>
              <LatitudeDegrees>49.4558530859649181365966796875</LatitudeDegrees>
              <LongitudeDegrees>20.02048526890575885772705078125</LongitudeDegrees>
            </Position>
            <AltitudeMeters>613.20001220703125</AltitudeMeters>
            <DistanceMeters>NAN</DistanceMeters>
          </Trackpoint>
          <Trackpoint>
            <Time>2022-09-19T12:48:34.000Z</Time>
            <Position>
              <LatitudeDegrees>49.45597252808511257171630859375</LatitudeDegrees>
              <LongitudeDegrees>20.0205242447555065155029296875</LongitudeDegrees>
            </Position>
            <AltitudeMeters>613.20001220703125</AltitudeMeters>
            <DistanceMeters>NAN</DistanceMeters>
          </Trackpoint>
          <Trackpoint>
            <Time>2022-09-19T12:48:37.000Z</Time>
            <Position>
              <LatitudeDegrees>49.45601158775389194488525390625</LatitudeDegrees>
              <LongitudeDegrees>20.02054913900792598724365234375</LongitudeDegrees>
            </Position>
            <AltitudeMeters>613</AltitudeMeters>
            <DistanceMeters>NAN</DistanceMeters>
          </Trackpoint>
          <Trackpoint>
            <Time>2022-09-19T12:48:39.000Z</Time>
            <Position>
              <LatitudeDegrees>49.4560143537819385528564453125</LatitudeDegrees>
              <LongitudeDegrees>20.02055601216852664947509765625</LongitudeDegrees>
            </Position>
            <AltitudeMeters>612.79998779296875</AltitudeMeters>
            <DistanceMeters>NAN</DistanceMeters>
          </Trackpoint>
          <Trackpoint>
            <Time>2022-09-19T12:48:47.000Z</Time>
            <Position>
              <LatitudeDegrees>49.4560123421251773834228515625</LatitudeDegrees>
              <LongitudeDegrees>20.02055483870208263397216796875</LongitudeDegrees>
            </Position>
            <AltitudeMeters>613</AltitudeMeters>
            <DistanceMeters>NAN</DistanceMeters>
          </Trackpoint>
          <Trackpoint>
            <Time>2022-09-19T12:48:51.000Z</Time>
            <Position>
              <LatitudeDegrees>49.4560123421251773834228515625</LatitudeDegrees>
              <LongitudeDegrees>20.02055483870208263397216796875</LongitudeDegrees>
            </Position>
            <AltitudeMeters>613</AltitudeMeters>
            <DistanceMeters>NAN</DistanceMeters>
          </Trackpoint>
          <Trackpoint>
            <Time>2022-09-19T12:48:53.000Z</Time>
            <Position>
              <LatitudeDegrees>49.45602080784738063812255859375</LatitudeDegrees>
              <LongitudeDegrees>20.02056724391877651214599609375</LongitudeDegrees>
            </Position>
            <AltitudeMeters>612.79998779296875</AltitudeMeters>
            <DistanceMeters>NAN</DistanceMeters>
          </Trackpoint>
          <Trackpoint>
            <Time>2022-09-19T12:48:55.000Z</Time>
            <Position>
              <LatitudeDegrees>49.456036984920501708984375</LatitudeDegrees>
              <LongitudeDegrees>20.02059540711343288421630859375</LongitudeDegrees>
            </Position>
            <AltitudeMeters>612.79998779296875</AltitudeMeters>
            <DistanceMeters>NAN</DistanceMeters>
          </Trackpoint>
          <Trackpoint>
            <Time>2022-09-19T12:48:56.000Z</Time>
            <Position>
              <LatitudeDegrees>49.45604033768177032470703125</LatitudeDegrees>
              <LongitudeDegrees>20.020601190626621246337890625</LongitudeDegrees>
            </Position>
            <AltitudeMeters>612.79998779296875</AltitudeMeters>
            <DistanceMeters>NAN</DistanceMeters>
          </Trackpoint>
          <Trackpoint>
            <Time>2022-09-19T12:49:01.000Z</Time>
            <Position>
              <LatitudeDegrees>49.45605953224003314971923828125</LatitudeDegrees>
              <LongitudeDegrees>20.02063128165900707244873046875</LongitudeDegrees>
            </Position>
            <AltitudeMeters>612.79998779296875</AltitudeMeters>
            <DistanceMeters>NAN</DistanceMeters>
          </Trackpoint>
          <Trackpoint>
            <Time>2022-09-19T12:49:08.000Z</Time>
            <Position>
              <LatitudeDegrees>49.45610529743134975433349609375</LatitudeDegrees>
              <LongitudeDegrees>20.02068408764898777008056640625</LongitudeDegrees>
            </Position>
            <AltitudeMeters>612.79998779296875</AltitudeMeters>
            <DistanceMeters>NAN</DistanceMeters>
          </Trackpoint>
          <Trackpoint>
            <Time>2022-09-19T12:49:09.000Z</Time>
            <Position>
              <LatitudeDegrees>49.4561078958213329315185546875</LatitudeDegrees>
              <LongitudeDegrees>20.020680986344814300537109375</LongitudeDegrees>
            </Position>
            <AltitudeMeters>612.79998779296875</AltitudeMeters>
            <DistanceMeters>NAN</DistanceMeters>
          </Trackpoint>
          <Trackpoint>
            <Time>2022-09-19T12:49:11.000Z</Time>
            <Position>
              <LatitudeDegrees>49.45610999129712581634521484375</LatitudeDegrees>
              <LongitudeDegrees>20.02068107016384601593017578125</LongitudeDegrees>
            </Position>
            <AltitudeMeters>612.79998779296875</AltitudeMeters>
            <DistanceMeters>NAN</DistanceMeters>
          </Trackpoint>
          <Trackpoint>
            <Time>2022-09-19T12:49:16.000Z</Time>
            <Position>
              <LatitudeDegrees>49.4561729393899440765380859375</LatitudeDegrees>
              <LongitudeDegrees>20.0207029469311237335205078125</LongitudeDegrees>
            </Position>
            <AltitudeMeters>612.79998779296875</AltitudeMeters>
            <DistanceMeters>NAN</DistanceMeters>
          </Trackpoint>
          <Trackpoint>
            <Time>2022-09-19T12:49:17.000Z</Time>
            <Position>
              <LatitudeDegrees>49.45619749836623668670654296875</LatitudeDegrees>
              <LongitudeDegrees>20.02070286311209201812744140625</LongitudeDegrees>
            </Position>
            <AltitudeMeters>612.79998779296875</AltitudeMeters>
            <DistanceMeters>NAN</DistanceMeters>
          </Trackpoint>
          <Trackpoint>
            <Time>2022-09-19T12:49:22.000Z</Time>
            <Position>
              <LatitudeDegrees>49.45634049363434314727783203125</LatitudeDegrees>
              <LongitudeDegrees>20.0207260809838771820068359375</LongitudeDegrees>
            </Position>
            <AltitudeMeters>612.79998779296875</AltitudeMeters>
            <DistanceMeters>NAN</DistanceMeters>
          </Trackpoint>
          <Trackpoint>
            <Time>2022-09-19T12:49:28.000Z</Time>
            <Position>
              <LatitudeDegrees>49.456516765058040618896484375</LatitudeDegrees>
              <LongitudeDegrees>20.02075918950140476226806640625</LongitudeDegrees>
            </Position>
            <AltitudeMeters>612.5999755859375</AltitudeMeters>
            <DistanceMeters>NAN</DistanceMeters>
          </Trackpoint>
          <Trackpoint>
            <Time>2022-09-19T12:49:30.000Z</Time>
            <Position>
              <LatitudeDegrees>49.4565849937498569488525390625</LatitudeDegrees>
              <LongitudeDegrees>20.02076782286167144775390625</LongitudeDegrees>
            </Position>
            <AltitudeMeters>612.4000244140625</AltitudeMeters>
            <DistanceMeters>NAN</DistanceMeters>
          </Trackpoint>
          <Trackpoint>
            <Time>2022-09-19T12:49:35.000Z</Time>
            <Position>
              <LatitudeDegrees>49.45674098096787929534912109375</LatitudeDegrees>
              <LongitudeDegrees>20.0207964889705181121826171875</LongitudeDegrees>
            </Position>
            <AltitudeMeters>612.4000244140625</AltitudeMeters>
            <DistanceMeters>NAN</DistanceMeters>
          </Trackpoint>
          <Trackpoint>
            <Time>2022-09-19T12:49:38.000Z</Time>
            <Position>
              <LatitudeDegrees>49.45683821104466915130615234375</LatitudeDegrees>
              <LongitudeDegrees>20.02080646343529224395751953125</LongitudeDegrees>
            </Position>
            <AltitudeMeters>612.4000244140625</AltitudeMeters>
            <DistanceMeters>NAN</DistanceMeters>
          </Trackpoint>
          <Trackpoint>
            <Time>2022-09-19T12:49:45.000Z</Time>
            <Position>
              <LatitudeDegrees>49.4570392929017543792724609375</LatitudeDegrees>
              <LongitudeDegrees>20.0208467803895473480224609375</LongitudeDegrees>
            </Position>
            <AltitudeMeters>612.20001220703125</AltitudeMeters>
            <DistanceMeters>NAN</DistanceMeters>
          </Trackpoint>
          <Trackpoint>
            <Time>2022-09-19T12:49:55.000Z</Time>
            <Position>
              <LatitudeDegrees>49.45731572806835174560546875</LatitudeDegrees>
              <LongitudeDegrees>20.02090017311275005340576171875</LongitudeDegrees>
            </Position>
            <AltitudeMeters>611.79998779296875</AltitudeMeters>
            <DistanceMeters>NAN</DistanceMeters>
          </Trackpoint>
          <Trackpoint>
            <Time>2022-09-19T12:49:56.000Z</Time>
            <Position>
              <LatitudeDegrees>49.45733944885432720184326171875</LatitudeDegrees>
              <LongitudeDegrees>20.0209074653685092926025390625</LongitudeDegrees>
            </Position>
            <AltitudeMeters>611.79998779296875</AltitudeMeters>
            <DistanceMeters>NAN</DistanceMeters>
          </Trackpoint>
          <Trackpoint>
            <Time>2022-09-19T12:50:00.000Z</Time>
            <Position>
              <LatitudeDegrees>49.45743651129305362701416015625</LatitudeDegrees>
              <LongitudeDegrees>20.02093034796416759490966796875</LongitudeDegrees>
            </Position>
            <AltitudeMeters>611.5999755859375</AltitudeMeters>
            <DistanceMeters>NAN</DistanceMeters>
          </Trackpoint>
          <Trackpoint>
            <Time>2022-09-19T12:50:02.000Z</Time>
            <Position>
              <LatitudeDegrees>49.45748378522694110870361328125</LatitudeDegrees>
              <LongitudeDegrees>20.02093370072543621063232421875</LongitudeDegrees>
            </Position>
            <AltitudeMeters>611.5999755859375</AltitudeMeters>
            <DistanceMeters>NAN</DistanceMeters>
          </Trackpoint>
          <Trackpoint>
            <Time>2022-09-19T12:50:08.000Z</Time>
            <Position>
              <LatitudeDegrees>49.4576168060302734375</LatitudeDegrees>
              <LongitudeDegrees>20.02095683477818965911865234375</LongitudeDegrees>
            </Position>
            <AltitudeMeters>611.4000244140625</AltitudeMeters>
            <DistanceMeters>NAN</DistanceMeters>
          </Trackpoint>
          <Trackpoint>
            <Time>2022-09-19T12:50:10.000Z</Time>
            <Position>
              <LatitudeDegrees>49.4576602242887020111083984375</LatitudeDegrees>
              <LongitudeDegrees>20.020969323813915252685546875</LongitudeDegrees>
            </Position>
            <AltitudeMeters>611.4000244140625</AltitudeMeters>
            <DistanceMeters>NAN</DistanceMeters>
          </Trackpoint>
          <Trackpoint>
            <Time>2022-09-19T12:50:14.000Z</Time>
            <Position>
              <LatitudeDegrees>49.45775032974779605865478515625</LatitudeDegrees>
              <LongitudeDegrees>20.02099178731441497802734375</LongitudeDegrees>
            </Position>
            <AltitudeMeters>611.4000244140625</AltitudeMeters>
            <DistanceMeters>NAN</DistanceMeters>
          </Trackpoint>
          <Trackpoint>
            <Time>2022-09-19T12:50:18.000Z</Time>
            <Position>
              <LatitudeDegrees>49.4578526727855205535888671875</LatitudeDegrees>
              <LongitudeDegrees>20.02103646285831928253173828125</LongitudeDegrees>
            </Position>
            <AltitudeMeters>611.20001220703125</AltitudeMeters>
            <DistanceMeters>NAN</DistanceMeters>
          </Trackpoint>
          <Trackpoint>
            <Time>2022-09-19T12:50:25.000Z</Time>
            <Position>
              <LatitudeDegrees>49.45801670663058757781982421875</LatitudeDegrees>
              <LongitudeDegrees>20.02112992107868194580078125</LongitudeDegrees>
            </Position>
            <AltitudeMeters>611.20001220703125</AltitudeMeters>
            <DistanceMeters>NAN</DistanceMeters>
          </Trackpoint>
          <Trackpoint>
            <Time>2022-09-19T12:50:29.000Z</Time>
            <Position>
              <LatitudeDegrees>49.45812332443892955780029296875</LatitudeDegrees>
              <LongitudeDegrees>20.02120845951139926910400390625</LongitudeDegrees>
            </Position>
            <AltitudeMeters>611</AltitudeMeters>
            <DistanceMeters>NAN</DistanceMeters>
          </Trackpoint>
          <Trackpoint>
            <Time>2022-09-19T12:50:33.000Z</Time>
            <Position>
              <LatitudeDegrees>49.4582291878759860992431640625</LatitudeDegrees>
              <LongitudeDegrees>20.02127182669937610626220703125</LongitudeDegrees>
            </Position>
            <AltitudeMeters>611</AltitudeMeters>
            <DistanceMeters>NAN</DistanceMeters>
          </Trackpoint>
          <Trackpoint>
            <Time>2022-09-19T12:50:41.000Z</Time>
            <Position>
              <LatitudeDegrees>49.45837997831404209136962890625</LatitudeDegrees>
              <LongitudeDegrees>20.0213379599153995513916015625</LongitudeDegrees>
            </Position>
            <AltitudeMeters>610.5999755859375</AltitudeMeters>
            <DistanceMeters>NAN</DistanceMeters>
          </Trackpoint>
          <Trackpoint>
            <Time>2022-09-19T12:50:43.000Z</Time>
            <Position>
              <LatitudeDegrees>49.4583847559988498687744140625</LatitudeDegrees>
              <LongitudeDegrees>20.02133988775312900543212890625</LongitudeDegrees>
            </Position>
            <AltitudeMeters>610.5999755859375</AltitudeMeters>
            <DistanceMeters>NAN</DistanceMeters>
          </Trackpoint>
          <Trackpoint>
            <Time>2022-09-19T12:50:46.000Z</Time>
            <Position>
              <LatitudeDegrees>49.4583847559988498687744140625</LatitudeDegrees>
              <LongitudeDegrees>20.02133988775312900543212890625</LongitudeDegrees>
            </Position>
            <AltitudeMeters>610.4000244140625</AltitudeMeters>
            <DistanceMeters>NAN</DistanceMeters>
          </Trackpoint>
          <Trackpoint>
            <Time>2022-09-19T12:50:55.000Z</Time>
            <Position>
              <LatitudeDegrees>49.4583847559988498687744140625</LatitudeDegrees>
              <LongitudeDegrees>20.02133988775312900543212890625</LongitudeDegrees>
            </Position>
            <AltitudeMeters>610.4000244140625</AltitudeMeters>
            <DistanceMeters>NAN</DistanceMeters>
          </Trackpoint>
          <Trackpoint>
            <Time>2022-09-19T12:51:27.000Z</Time>
            <Position>
              <LatitudeDegrees>49.4583847559988498687744140625</LatitudeDegrees>
              <LongitudeDegrees>20.02133988775312900543212890625</LongitudeDegrees>
            </Position>
            <AltitudeMeters>610.4000244140625</AltitudeMeters>
            <DistanceMeters>NAN</DistanceMeters>
          </Trackpoint>
          <Trackpoint>
            <Time>2022-09-19T12:51:47.000Z</Time>
            <Position>
              <LatitudeDegrees>49.4583847559988498687744140625</LatitudeDegrees>
              <LongitudeDegrees>20.02133988775312900543212890625</LongitudeDegrees>
            </Position>
            <AltitudeMeters>610.5999755859375</AltitudeMeters>
            <DistanceMeters>NAN</DistanceMeters>
          </Trackpoint>
          <Trackpoint>
            <Time>2022-09-19T12:52:32.000Z</Time>
            <Position>
              <LatitudeDegrees>49.4584471173584461212158203125</LatitudeDegrees>
              <LongitudeDegrees>20.0213557295501232147216796875</LongitudeDegrees>
            </Position>
            <AltitudeMeters>610.5999755859375</AltitudeMeters>
            <DistanceMeters>NAN</DistanceMeters>
          </Trackpoint>
          <Trackpoint>
            <Time>2022-09-19T12:52:37.000Z</Time>
            <Position>
              <LatitudeDegrees>49.4585916213691234588623046875</LatitudeDegrees>
              <LongitudeDegrees>20.021404512226581573486328125</LongitudeDegrees>
            </Position>
            <AltitudeMeters>610.4000244140625</AltitudeMeters>
            <DistanceMeters>NAN</DistanceMeters>
          </Trackpoint>
          <Trackpoint>
            <Time>2022-09-19T12:52:46.000Z</Time>
            <Position>
              <LatitudeDegrees>49.458839893341064453125</LatitudeDegrees>
              <LongitudeDegrees>20.02150031737983226776123046875</LongitudeDegrees>
            </Position>
            <AltitudeMeters>610.20001220703125</AltitudeMeters>
            <DistanceMeters>NAN</DistanceMeters>
          </Trackpoint>
          <Trackpoint>
            <Time>2022-09-19T12:52:50.000Z</Time>
            <Position>
              <LatitudeDegrees>49.45895078592002391815185546875</LatitudeDegrees>
              <LongitudeDegrees>20.0215381197631359100341796875</LongitudeDegrees>
            </Position>
            <AltitudeMeters>610</AltitudeMeters>
            <DistanceMeters>NAN</DistanceMeters>
          </Trackpoint>
          <Trackpoint>
            <Time>2022-09-19T12:52:53.000Z</Time>
            <Position>
              <LatitudeDegrees>49.45902421139180660247802734375</LatitudeDegrees>
              <LongitudeDegrees>20.0215585716068744659423828125</LongitudeDegrees>
            </Position>
            <AltitudeMeters>609.79998779296875</AltitudeMeters>
            <DistanceMeters>NAN</DistanceMeters>
          </Trackpoint>
          <Trackpoint>
            <Time>2022-09-19T12:52:59.000Z</Time>
            <Position>
              <LatitudeDegrees>49.45914767682552337646484375</LatitudeDegrees>
              <LongitudeDegrees>20.021637864410877227783203125</LongitudeDegrees>
            </Position>
            <AltitudeMeters>609.5999755859375</AltitudeMeters>
            <DistanceMeters>NAN</DistanceMeters>
          </Trackpoint>
          <Trackpoint>
            <Time>2022-09-19T12:53:03.000Z</Time>
            <Position>
              <LatitudeDegrees>49.45924029685556888580322265625</LatitudeDegrees>
              <LongitudeDegrees>20.0216993875801563262939453125</LongitudeDegrees>
            </Position>
            <AltitudeMeters>609.4000244140625</AltitudeMeters>
            <DistanceMeters>NAN</DistanceMeters>
          </Trackpoint>
          <Trackpoint>
            <Time>2022-09-19T12:53:04.000Z</Time>
            <Position>
              <LatitudeDegrees>49.4592645205557346343994140625</LatitudeDegrees>
              <LongitudeDegrees>20.0217171572148799896240234375</LongitudeDegrees>
            </Position>
            <AltitudeMeters>609.4000244140625</AltitudeMeters>
            <DistanceMeters>NAN</DistanceMeters>
          </Trackpoint>
          <Trackpoint>
            <Time>2022-09-19T12:53:07.000Z</Time>
            <Position>
              <LatitudeDegrees>49.45933870039880275726318359375</LatitudeDegrees>
              <LongitudeDegrees>20.02176694571971893310546875</LongitudeDegrees>
            </Position>
            <AltitudeMeters>609.4000244140625</AltitudeMeters>
            <DistanceMeters>NAN</DistanceMeters>
          </Trackpoint>
          <Trackpoint>
            <Time>2022-09-19T12:53:11.000Z</Time>
            <Position>
              <LatitudeDegrees>49.4594355113804340362548828125</LatitudeDegrees>
              <LongitudeDegrees>20.021861828863620758056640625</LongitudeDegrees>
            </Position>
            <AltitudeMeters>609</AltitudeMeters>
            <DistanceMeters>NAN</DistanceMeters>
          </Trackpoint>
          <Trackpoint>
            <Time>2022-09-19T12:53:16.000Z</Time>
            <Position>
              <LatitudeDegrees>49.4595528580248355865478515625</LatitudeDegrees>
              <LongitudeDegrees>20.021943636238574981689453125</LongitudeDegrees>
            </Position>
            <AltitudeMeters>609.20001220703125</AltitudeMeters>
            <DistanceMeters>NAN</DistanceMeters>
          </Trackpoint>
          <Trackpoint>
            <Time>2022-09-19T12:53:19.000Z</Time>
            <Position>
              <LatitudeDegrees>49.45961915887892246246337890625</LatitudeDegrees>
              <LongitudeDegrees>20.021990574896335601806640625</LongitudeDegrees>
            </Position>
            <AltitudeMeters>609.20001220703125</AltitudeMeters>
            <DistanceMeters>NAN</DistanceMeters>
          </Trackpoint>
          <Trackpoint>
            <Time>2022-09-19T12:53:28.000Z</Time>
            <Position>
              <LatitudeDegrees>49.45980858989059925079345703125</LatitudeDegrees>
              <LongitudeDegrees>20.02209442667663097381591796875</LongitudeDegrees>
            </Position>
            <AltitudeMeters>609.20001220703125</AltitudeMeters>
            <DistanceMeters>NAN</DistanceMeters>
          </Trackpoint>
          <Trackpoint>
            <Time>2022-09-19T12:53:34.000Z</Time>
            <Position>
              <LatitudeDegrees>49.45981554687023162841796875</LatitudeDegrees>
              <LongitudeDegrees>20.02209694124758243560791015625</LongitudeDegrees>
            </Position>
            <AltitudeMeters>609</AltitudeMeters>
            <DistanceMeters>NAN</DistanceMeters>
          </Trackpoint>
          <Trackpoint>
            <Time>2022-09-19T12:53:48.000Z</Time>
            <Position>
              <LatitudeDegrees>49.4598167203366756439208984375</LatitudeDegrees>
              <LongitudeDegrees>20.02209551632404327392578125</LongitudeDegrees>
            </Position>
            <AltitudeMeters>608.79998779296875</AltitudeMeters>
            <DistanceMeters>NAN</DistanceMeters>
          </Trackpoint>
          <Trackpoint>
            <Time>2022-09-19T12:53:51.000Z</Time>
            <Position>
              <LatitudeDegrees>49.45987262763082981109619140625</LatitudeDegrees>
              <LongitudeDegrees>20.02212594263255596160888671875</LongitudeDegrees>
            </Position>
            <AltitudeMeters>608.79998779296875</AltitudeMeters>
            <DistanceMeters>NAN</DistanceMeters>
          </Trackpoint>
          <Trackpoint>
            <Time>2022-09-19T12:53:55.000Z</Time>
            <Position>
              <LatitudeDegrees>49.4599528424441814422607421875</LatitudeDegrees>
              <LongitudeDegrees>20.02219500951468944549560546875</LongitudeDegrees>
            </Position>
            <AltitudeMeters>608.79998779296875</AltitudeMeters>
            <DistanceMeters>NAN</DistanceMeters>
          </Trackpoint>
          <Trackpoint>
            <Time>2022-09-19T12:53:57.000Z</Time>
            <Position>
              <LatitudeDegrees>49.46000841446220874786376953125</LatitudeDegrees>
              <LongitudeDegrees>20.02222820185124874114990234375</LongitudeDegrees>
            </Position>
            <AltitudeMeters>608.79998779296875</AltitudeMeters>
            <DistanceMeters>NAN</DistanceMeters>
          </Trackpoint>
          <Trackpoint>
            <Time>2022-09-19T12:54:02.000Z</Time>
            <Position>
              <LatitudeDegrees>49.46013263426721096038818359375</LatitudeDegrees>
              <LongitudeDegrees>20.022317133843898773193359375</LongitudeDegrees>
            </Position>
            <AltitudeMeters>609</AltitudeMeters>
            <DistanceMeters>NAN</DistanceMeters>
          </Trackpoint>
          <Trackpoint>
            <Time>2022-09-19T12:54:04.000Z</Time>
            <Position>
              <LatitudeDegrees>49.4601731188595294952392578125</LatitudeDegrees>
              <LongitudeDegrees>20.0223483145236968994140625</LongitudeDegrees>
            </Position>
            <AltitudeMeters>609</AltitudeMeters>
            <DistanceMeters>NAN</DistanceMeters>
          </Trackpoint>
          <Trackpoint>
            <Time>2022-09-19T12:54:08.000Z</Time>
            <Position>
              <LatitudeDegrees>49.460184685885906219482421875</LatitudeDegrees>
              <LongitudeDegrees>20.0223749689757823944091796875</LongitudeDegrees>
            </Position>
            <AltitudeMeters>608.5999755859375</AltitudeMeters>
            <DistanceMeters>NAN</DistanceMeters>
          </Trackpoint>
          <Trackpoint>
            <Time>2022-09-19T12:54:17.000Z</Time>
            <Position>
              <LatitudeDegrees>49.46018971502780914306640625</LatitudeDegrees>
              <LongitudeDegrees>20.02237907610833644866943359375</LongitudeDegrees>
            </Position>
            <AltitudeMeters>608.5999755859375</AltitudeMeters>
            <DistanceMeters>NAN</DistanceMeters>
          </Trackpoint>
          <Trackpoint>
            <Time>2022-09-19T12:54:30.000Z</Time>
            <Position>
              <LatitudeDegrees>49.460188709199428558349609375</LatitudeDegrees>
              <LongitudeDegrees>20.02237974666059017181396484375</LongitudeDegrees>
            </Position>
            <AltitudeMeters>608.5999755859375</AltitudeMeters>
            <DistanceMeters>NAN</DistanceMeters>
          </Trackpoint>
          <Trackpoint>
            <Time>2022-09-19T12:54:38.000Z</Time>
            <Position>
              <LatitudeDegrees>49.4601861946284770965576171875</LatitudeDegrees>
              <LongitudeDegrees>20.022385530173778533935546875</LongitudeDegrees>
            </Position>
            <AltitudeMeters>608.5999755859375</AltitudeMeters>
            <DistanceMeters>NAN</DistanceMeters>
          </Trackpoint>
          <Trackpoint>
            <Time>2022-09-19T12:54:41.000Z</Time>
            <Position>
              <LatitudeDegrees>49.4601861946284770965576171875</LatitudeDegrees>
              <LongitudeDegrees>20.02238561399281024932861328125</LongitudeDegrees>
            </Position>
            <AltitudeMeters>608.5999755859375</AltitudeMeters>
            <DistanceMeters>NAN</DistanceMeters>
          </Trackpoint>
          <Trackpoint>
            <Time>2022-09-19T12:54:51.000Z</Time>
            <Position>
              <LatitudeDegrees>49.4601855240762233734130859375</LatitudeDegrees>
              <LongitudeDegrees>20.0223900564014911651611328125</LongitudeDegrees>
            </Position>
            <AltitudeMeters>608.4000244140625</AltitudeMeters>
            <DistanceMeters>NAN</DistanceMeters>
          </Trackpoint>
          <Trackpoint>
            <Time>2022-09-19T12:55:07.000Z</Time>
            <Position>
              <LatitudeDegrees>49.4601855240762233734130859375</LatitudeDegrees>
              <LongitudeDegrees>20.0223900564014911651611328125</LongitudeDegrees>
            </Position>
            <AltitudeMeters>608.4000244140625</AltitudeMeters>
            <DistanceMeters>NAN</DistanceMeters>
          </Trackpoint>
          <Trackpoint>
            <Time>2022-09-19T12:55:20.000Z</Time>
            <Position>
              <LatitudeDegrees>49.4601855240762233734130859375</LatitudeDegrees>
              <LongitudeDegrees>20.0223900564014911651611328125</LongitudeDegrees>
            </Position>
            <AltitudeMeters>608.4000244140625</AltitudeMeters>
            <DistanceMeters>NAN</DistanceMeters>
          </Trackpoint>
          <Trackpoint>
            <Time>2022-09-19T12:55:29.000Z</Time>
            <Position>
              <LatitudeDegrees>49.4601855240762233734130859375</LatitudeDegrees>
              <LongitudeDegrees>20.0223900564014911651611328125</LongitudeDegrees>
            </Position>
            <AltitudeMeters>608.5999755859375</AltitudeMeters>
            <DistanceMeters>NAN</DistanceMeters>
          </Trackpoint>
          <Trackpoint>
            <Time>2022-09-19T12:55:44.000Z</Time>
            <Position>
              <LatitudeDegrees>49.46018703281879425048828125</LatitudeDegrees>
              <LongitudeDegrees>20.02239030785858631134033203125</LongitudeDegrees>
            </Position>
            <AltitudeMeters>608.5999755859375</AltitudeMeters>
            <DistanceMeters>NAN</DistanceMeters>
          </Trackpoint>
          <Trackpoint>
            <Time>2022-09-19T12:55:46.000Z</Time>
            <Position>
              <LatitudeDegrees>49.4602277688682079315185546875</LatitudeDegrees>
              <LongitudeDegrees>20.022408664226531982421875</LongitudeDegrees>
            </Position>
            <AltitudeMeters>608.5999755859375</AltitudeMeters>
            <DistanceMeters>NAN</DistanceMeters>
          </Trackpoint>
          <Trackpoint>
            <Time>2022-09-19T12:55:47.000Z</Time>
            <Position>
              <LatitudeDegrees>49.46025006473064422607421875</LatitudeDegrees>
              <LongitudeDegrees>20.02241813577711582183837890625</LongitudeDegrees>
            </Position>
            <AltitudeMeters>608.5999755859375</AltitudeMeters>
            <DistanceMeters>NAN</DistanceMeters>
          </Trackpoint>
          <Trackpoint>
            <Time>2022-09-19T12:55:53.000Z</Time>
            <Position>
              <LatitudeDegrees>49.4604215584695339202880859375</LatitudeDegrees>
              <LongitudeDegrees>20.0225107558071613311767578125</LongitudeDegrees>
            </Position>
            <AltitudeMeters>608.4000244140625</AltitudeMeters>
            <DistanceMeters>NAN</DistanceMeters>
          </Trackpoint>
          <Trackpoint>
            <Time>2022-09-19T12:56:00.000Z</Time>
            <Position>
              <LatitudeDegrees>49.46065952070057392120361328125</LatitudeDegrees>
              <LongitudeDegrees>20.022618882358074188232421875</LongitudeDegrees>
            </Position>
            <AltitudeMeters>608</AltitudeMeters>
            <DistanceMeters>NAN</DistanceMeters>
          </Trackpoint>
          <Trackpoint>
            <Time>2022-09-19T12:56:04.000Z</Time>
            <Position>
              <LatitudeDegrees>49.4607839919626712799072265625</LatitudeDegrees>
              <LongitudeDegrees>20.02270077355206012725830078125</LongitudeDegrees>
            </Position>
            <AltitudeMeters>608</AltitudeMeters>
            <DistanceMeters>NAN</DistanceMeters>
          </Trackpoint>
          <Trackpoint>
            <Time>2022-09-19T12:56:07.000Z</Time>
            <Position>
              <LatitudeDegrees>49.46087493561208248138427734375</LatitudeDegrees>
              <LongitudeDegrees>20.02275190316140651702880859375</LongitudeDegrees>
            </Position>
            <AltitudeMeters>607.79998779296875</AltitudeMeters>
            <DistanceMeters>NAN</DistanceMeters>
          </Trackpoint>
          <Trackpoint>
            <Time>2022-09-19T12:56:09.000Z</Time>
            <Position>
              <LatitudeDegrees>49.46093712933361530303955078125</LatitudeDegrees>
              <LongitudeDegrees>20.0227870233356952667236328125</LongitudeDegrees>
            </Position>
            <AltitudeMeters>607.79998779296875</AltitudeMeters>
            <DistanceMeters>NAN</DistanceMeters>
          </Trackpoint>
          <Trackpoint>
            <Time>2022-09-19T12:56:15.000Z</Time>
            <Position>
              <LatitudeDegrees>49.46115874685347080230712890625</LatitudeDegrees>
              <LongitudeDegrees>20.0229281745851039886474609375</LongitudeDegrees>
            </Position>
            <AltitudeMeters>607.79998779296875</AltitudeMeters>
            <DistanceMeters>NAN</DistanceMeters>
          </Trackpoint>
          <Trackpoint>
            <Time>2022-09-19T12:56:17.000Z</Time>
            <Position>
              <LatitudeDegrees>49.461239464581012725830078125</LatitudeDegrees>
              <LongitudeDegrees>20.02297653816640377044677734375</LongitudeDegrees>
            </Position>
            <AltitudeMeters>607.5999755859375</AltitudeMeters>
            <DistanceMeters>NAN</DistanceMeters>
          </Trackpoint>
          <Trackpoint>
            <Time>2022-09-19T12:56:18.000Z</Time>
            <Position>
              <LatitudeDegrees>49.4612793624401092529296875</LatitudeDegrees>
              <LongitudeDegrees>20.0230012647807598114013671875</LongitudeDegrees>
            </Position>
            <AltitudeMeters>607.5999755859375</AltitudeMeters>
            <DistanceMeters>NAN</DistanceMeters>
          </Trackpoint>
          <Trackpoint>
            <Time>2022-09-19T12:56:26.000Z</Time>
            <Position>
              <LatitudeDegrees>49.46158169768750667572021484375</LatitudeDegrees>
              <LongitudeDegrees>20.02319195307791233062744140625</LongitudeDegrees>
            </Position>
            <AltitudeMeters>607.5999755859375</AltitudeMeters>
            <DistanceMeters>NAN</DistanceMeters>
          </Trackpoint>
          <Trackpoint>
            <Time>2022-09-19T12:56:28.000Z</Time>
            <Position>
              <LatitudeDegrees>49.461658895015716552734375</LatitudeDegrees>
              <LongitudeDegrees>20.0232369638979434967041015625</LongitudeDegrees>
            </Position>
            <AltitudeMeters>607.4000244140625</AltitudeMeters>
            <DistanceMeters>NAN</DistanceMeters>
          </Trackpoint>
          <Trackpoint>
            <Time>2022-09-19T12:56:32.000Z</Time>
            <Position>
              <LatitudeDegrees>49.46180566214025020599365234375</LatitudeDegrees>
              <LongitudeDegrees>20.02334048040211200714111328125</LongitudeDegrees>
            </Position>
            <AltitudeMeters>607.20001220703125</AltitudeMeters>
            <DistanceMeters>NAN</DistanceMeters>
          </Trackpoint>
          <Trackpoint>
            <Time>2022-09-19T12:56:34.000Z</Time>
            <Position>
              <LatitudeDegrees>49.46187011897563934326171875</LatitudeDegrees>
              <LongitudeDegrees>20.02339932136237621307373046875</LongitudeDegrees>
            </Position>
            <AltitudeMeters>607.20001220703125</AltitudeMeters>
            <DistanceMeters>NAN</DistanceMeters>
          </Trackpoint>
          <Trackpoint>
            <Time>2022-09-19T12:56:37.000Z</Time>
            <Position>
              <LatitudeDegrees>49.46197950281202793121337890625</LatitudeDegrees>
              <LongitudeDegrees>20.023463778197765350341796875</LongitudeDegrees>
            </Position>
            <AltitudeMeters>607.20001220703125</AltitudeMeters>
            <DistanceMeters>NAN</DistanceMeters>
          </Trackpoint>
          <Trackpoint>
            <Time>2022-09-19T12:56:46.000Z</Time>
            <Position>
              <LatitudeDegrees>49.4622991047799587249755859375</LatitudeDegrees>
              <LongitudeDegrees>20.02367642708122730255126953125</LongitudeDegrees>
            </Position>
            <AltitudeMeters>606.79998779296875</AltitudeMeters>
            <DistanceMeters>NAN</DistanceMeters>
          </Trackpoint>
          <Trackpoint>
            <Time>2022-09-19T12:56:54.000Z</Time>
            <Position>
              <LatitudeDegrees>49.4625830836594104766845703125</LatitudeDegrees>
              <LongitudeDegrees>20.02386015839874744415283203125</LongitudeDegrees>
            </Position>
            <AltitudeMeters>606.5999755859375</AltitudeMeters>
            <DistanceMeters>NAN</DistanceMeters>
          </Trackpoint>
          <Trackpoint>
            <Time>2022-09-19T12:56:57.000Z</Time>
            <Position>
              <LatitudeDegrees>49.4626903720200061798095703125</LatitudeDegrees>
              <LongitudeDegrees>20.0239269621670246124267578125</LongitudeDegrees>
            </Position>
            <AltitudeMeters>606.4000244140625</AltitudeMeters>
            <DistanceMeters>NAN</DistanceMeters>
          </Trackpoint>
          <Trackpoint>
            <Time>2022-09-19T12:57:05.000Z</Time>
            <Position>
              <LatitudeDegrees>49.46295280940830707550048828125</LatitudeDegrees>
              <LongitudeDegrees>20.02409736625850200653076171875</LongitudeDegrees>
            </Position>
            <AltitudeMeters>606.20001220703125</AltitudeMeters>
            <DistanceMeters>NAN</DistanceMeters>
          </Trackpoint>
          <Trackpoint>
            <Time>2022-09-19T12:57:10.000Z</Time>
            <Position>
              <LatitudeDegrees>49.46314022876322269439697265625</LatitudeDegrees>
              <LongitudeDegrees>20.02421672455966472625732421875</LongitudeDegrees>
            </Position>
            <AltitudeMeters>606.20001220703125</AltitudeMeters>
            <DistanceMeters>NAN</DistanceMeters>
          </Trackpoint>
          <Trackpoint>
            <Time>2022-09-19T12:57:11.000Z</Time>
            <Position>
              <LatitudeDegrees>49.46317710913717746734619140625</LatitudeDegrees>
              <LongitudeDegrees>20.02424153499305248260498046875</LongitudeDegrees>
            </Position>
            <AltitudeMeters>606.20001220703125</AltitudeMeters>
            <DistanceMeters>NAN</DistanceMeters>
          </Trackpoint>
          <Trackpoint>
            <Time>2022-09-19T12:57:19.000Z</Time>
            <Position>
              <LatitudeDegrees>49.46347064338624477386474609375</LatitudeDegrees>
              <LongitudeDegrees>20.0244308821856975555419921875</LongitudeDegrees>
            </Position>
            <AltitudeMeters>605.5999755859375</AltitudeMeters>
            <DistanceMeters>NAN</DistanceMeters>
          </Trackpoint>
          <Trackpoint>
            <Time>2022-09-19T12:57:23.000Z</Time>
            <Position>
              <LatitudeDegrees>49.46361087262630462646484375</LatitudeDegrees>
              <LongitudeDegrees>20.0245190598070621490478515625</LongitudeDegrees>
            </Position>
            <AltitudeMeters>605.5999755859375</AltitudeMeters>
            <DistanceMeters>NAN</DistanceMeters>
          </Trackpoint>
          <Trackpoint>
            <Time>2022-09-19T12:57:26.000Z</Time>
            <Position>
              <LatitudeDegrees>49.463718831539154052734375</LatitudeDegrees>
              <LongitudeDegrees>20.0245770625770092010498046875</LongitudeDegrees>
            </Position>
            <AltitudeMeters>605.5999755859375</AltitudeMeters>
            <DistanceMeters>NAN</DistanceMeters>
          </Trackpoint>
          <Trackpoint>
            <Time>2022-09-19T12:57:31.000Z</Time>
            <Position>
              <LatitudeDegrees>49.46387372910976409912109375</LatitudeDegrees>
              <LongitudeDegrees>20.02468384802341461181640625</LongitudeDegrees>
            </Position>
            <AltitudeMeters>605.20001220703125</AltitudeMeters>
            <DistanceMeters>NAN</DistanceMeters>
          </Trackpoint>
          <Trackpoint>
            <Time>2022-09-19T12:57:34.000Z</Time>
            <Position>
              <LatitudeDegrees>49.463959224522113800048828125</LatitudeDegrees>
              <LongitudeDegrees>20.02474612556397914886474609375</LongitudeDegrees>
            </Position>
            <AltitudeMeters>605.20001220703125</AltitudeMeters>
            <DistanceMeters>NAN</DistanceMeters>
          </Trackpoint>
          <Trackpoint>
            <Time>2022-09-19T12:57:38.000Z</Time>
            <Position>
              <LatitudeDegrees>49.46408855728805065155029296875</LatitudeDegrees>
              <LongitudeDegrees>20.0248218141496181488037109375</LongitudeDegrees>
            </Position>
            <AltitudeMeters>605.20001220703125</AltitudeMeters>
            <DistanceMeters>NAN</DistanceMeters>
          </Trackpoint>
          <Trackpoint>
            <Time>2022-09-19T12:57:42.000Z</Time>
            <Position>
              <LatitudeDegrees>49.46420288644731044769287109375</LatitudeDegrees>
              <LongitudeDegrees>20.02489649690687656402587890625</LongitudeDegrees>
            </Position>
            <AltitudeMeters>605</AltitudeMeters>
            <DistanceMeters>NAN</DistanceMeters>
          </Trackpoint>
          <Trackpoint>
            <Time>2022-09-19T12:57:52.000Z</Time>
            <Position>
              <LatitudeDegrees>49.4644904695451259613037109375</LatitudeDegrees>
              <LongitudeDegrees>20.0250652246177196502685546875</LongitudeDegrees>
            </Position>
            <AltitudeMeters>604.5999755859375</AltitudeMeters>
            <DistanceMeters>NAN</DistanceMeters>
          </Trackpoint>
          <Trackpoint>
            <Time>2022-09-19T12:57:56.000Z</Time>
            <Position>
              <LatitudeDegrees>49.464545287191867828369140625</LatitudeDegrees>
              <LongitudeDegrees>20.025120042264461517333984375</LongitudeDegrees>
            </Position>
            <AltitudeMeters>604.5999755859375</AltitudeMeters>
            <DistanceMeters>NAN</DistanceMeters>
          </Trackpoint>
          <Trackpoint>
            <Time>2022-09-19T12:58:04.000Z</Time>
            <Position>
              <LatitudeDegrees>49.46454637683928012847900390625</LatitudeDegrees>
              <LongitudeDegrees>20.02512481994926929473876953125</LongitudeDegrees>
            </Position>
            <AltitudeMeters>604.79998779296875</AltitudeMeters>
            <DistanceMeters>NAN</DistanceMeters>
          </Trackpoint>
          <Trackpoint>
            <Time>2022-09-19T12:58:05.000Z</Time>
            <Position>
              <LatitudeDegrees>49.46454637683928012847900390625</LatitudeDegrees>
              <LongitudeDegrees>20.02512481994926929473876953125</LongitudeDegrees>
            </Position>
            <AltitudeMeters>604.79998779296875</AltitudeMeters>
            <DistanceMeters>NAN</DistanceMeters>
          </Trackpoint>
          <Trackpoint>
            <Time>2022-09-19T12:58:10.000Z</Time>
            <Position>
              <LatitudeDegrees>49.46456297300755977630615234375</LatitudeDegrees>
              <LongitudeDegrees>20.02508810721337795257568359375</LongitudeDegrees>
            </Position>
            <AltitudeMeters>604.5999755859375</AltitudeMeters>
            <DistanceMeters>NAN</DistanceMeters>
          </Trackpoint>
          <Trackpoint>
            <Time>2022-09-19T12:58:11.000Z</Time>
            <Position>
              <LatitudeDegrees>49.464571438729763031005859375</LatitudeDegrees>
              <LongitudeDegrees>20.025069080293178558349609375</LongitudeDegrees>
            </Position>
            <AltitudeMeters>604.5999755859375</AltitudeMeters>
            <DistanceMeters>NAN</DistanceMeters>
          </Trackpoint>
          <Trackpoint>
            <Time>2022-09-19T12:58:15.000Z</Time>
            <Position>
              <LatitudeDegrees>49.46459884755313396453857421875</LatitudeDegrees>
              <LongitudeDegrees>20.02501015551388263702392578125</LongitudeDegrees>
            </Position>
            <AltitudeMeters>604.79998779296875</AltitudeMeters>
            <DistanceMeters>NAN</DistanceMeters>
          </Trackpoint>
          <Trackpoint>
            <Time>2022-09-19T12:58:17.000Z</Time>
            <Position>
              <LatitudeDegrees>49.46461510844528675079345703125</LatitudeDegrees>
              <LongitudeDegrees>20.0249850936233997344970703125</LongitudeDegrees>
            </Position>
            <AltitudeMeters>604.5999755859375</AltitudeMeters>
            <DistanceMeters>NAN</DistanceMeters>
          </Trackpoint>
          <Trackpoint>
            <Time>2022-09-19T12:58:21.000Z</Time>
            <Position>
              <LatitudeDegrees>49.46464813314378261566162109375</LatitudeDegrees>
              <LongitudeDegrees>20.02498500980436801910400390625</LongitudeDegrees>
            </Position>
            <AltitudeMeters>604.5999755859375</AltitudeMeters>
            <DistanceMeters>NAN</DistanceMeters>
          </Trackpoint>
          <Trackpoint>
            <Time>2022-09-19T12:58:22.000Z</Time>
            <Position>
              <LatitudeDegrees>49.46464813314378261566162109375</LatitudeDegrees>
              <LongitudeDegrees>20.02498500980436801910400390625</LongitudeDegrees>
            </Position>
            <AltitudeMeters>604.5999755859375</AltitudeMeters>
            <DistanceMeters>NAN</DistanceMeters>
          </Trackpoint>
          <Trackpoint>
            <Time>2022-09-19T12:58:23.000Z</Time>
            <Position>
              <LatitudeDegrees>49.46464813314378261566162109375</LatitudeDegrees>
              <LongitudeDegrees>20.02498500980436801910400390625</LongitudeDegrees>
            </Position>
            <AltitudeMeters>604.5999755859375</AltitudeMeters>
            <DistanceMeters>NAN</DistanceMeters>
          </Trackpoint>
          <Trackpoint>
            <Time>2022-09-19T12:58:28.000Z</Time>
            <Position>
              <LatitudeDegrees>49.464670009911060333251953125</LatitudeDegrees>
              <LongitudeDegrees>20.024993307888507843017578125</LongitudeDegrees>
            </Position>
            <AltitudeMeters>604.79998779296875</AltitudeMeters>
            <DistanceMeters>NAN</DistanceMeters>
          </Trackpoint>
          <Trackpoint>
            <Time>2022-09-19T12:58:31.000Z</Time>
            <Position>
              <LatitudeDegrees>49.46467529051005840301513671875</LatitudeDegrees>
              <LongitudeDegrees>20.02499238587915897369384765625</LongitudeDegrees>
            </Position>
            <AltitudeMeters>604.5999755859375</AltitudeMeters>
            <DistanceMeters>NAN</DistanceMeters>
          </Trackpoint>
          <Trackpoint>
            <Time>2022-09-19T12:58:36.000Z</Time>
            <Position>
              <LatitudeDegrees>49.46473128162324428558349609375</LatitudeDegrees>
              <LongitudeDegrees>20.02500864677131175994873046875</LongitudeDegrees>
            </Position>
            <AltitudeMeters>604.20001220703125</AltitudeMeters>
            <DistanceMeters>NAN</DistanceMeters>
          </Trackpoint>
          <Trackpoint>
            <Time>2022-09-19T12:58:38.000Z</Time>
            <Position>
              <LatitudeDegrees>49.46477553807199001312255859375</LatitudeDegrees>
              <LongitudeDegrees>20.02504552714526653289794921875</LongitudeDegrees>
            </Position>
            <AltitudeMeters>604.20001220703125</AltitudeMeters>
            <DistanceMeters>NAN</DistanceMeters>
          </Trackpoint>
          <Trackpoint>
            <Time>2022-09-19T12:58:41.000Z</Time>
            <Position>
              <LatitudeDegrees>49.464847706258296966552734375</LatitudeDegrees>
              <LongitudeDegrees>20.02510101534426212310791015625</LongitudeDegrees>
            </Position>
            <AltitudeMeters>604</AltitudeMeters>
            <DistanceMeters>NAN</DistanceMeters>
          </Trackpoint>
          <Trackpoint>
            <Time>2022-09-19T12:58:48.000Z</Time>
            <Position>
              <LatitudeDegrees>49.46502665989100933074951171875</LatitudeDegrees>
              <LongitudeDegrees>20.02519707195460796356201171875</LongitudeDegrees>
            </Position>
            <AltitudeMeters>604</AltitudeMeters>
            <DistanceMeters>NAN</DistanceMeters>
          </Trackpoint>
          <Trackpoint>
            <Time>2022-09-19T12:58:55.000Z</Time>
            <Position>
              <LatitudeDegrees>49.4651885144412517547607421875</LatitudeDegrees>
              <LongitudeDegrees>20.02530436031520366668701171875</LongitudeDegrees>
            </Position>
            <AltitudeMeters>604</AltitudeMeters>
            <DistanceMeters>NAN</DistanceMeters>
          </Trackpoint>
          <Trackpoint>
            <Time>2022-09-19T12:58:58.000Z</Time>
            <Position>
              <LatitudeDegrees>49.46526437066495418548583984375</LatitudeDegrees>
              <LongitudeDegrees>20.02534844912588596343994140625</LongitudeDegrees>
            </Position>
            <AltitudeMeters>604</AltitudeMeters>
            <DistanceMeters>NAN</DistanceMeters>
          </Trackpoint>
          <Trackpoint>
            <Time>2022-09-19T12:59:01.000Z</Time>
            <Position>
              <LatitudeDegrees>49.465354979038238525390625</LatitudeDegrees>
              <LongitudeDegrees>20.025400333106517791748046875</LongitudeDegrees>
            </Position>
            <AltitudeMeters>604</AltitudeMeters>
            <DistanceMeters>NAN</DistanceMeters>
          </Trackpoint>
          <Trackpoint>
            <Time>2022-09-19T12:59:07.000Z</Time>
            <Position>
              <LatitudeDegrees>49.46553728543221950531005859375</LatitudeDegrees>
              <LongitudeDegrees>20.0255054421722888946533203125</LongitudeDegrees>
            </Position>
            <AltitudeMeters>603.5999755859375</AltitudeMeters>
            <DistanceMeters>NAN</DistanceMeters>
          </Trackpoint>
          <Trackpoint>
            <Time>2022-09-19T12:59:10.000Z</Time>
            <Position>
              <LatitudeDegrees>49.46563049219548702239990234375</LatitudeDegrees>
              <LongitudeDegrees>20.02556352876126766204833984375</LongitudeDegrees>
            </Position>
            <AltitudeMeters>603.5999755859375</AltitudeMeters>
            <DistanceMeters>NAN</DistanceMeters>
          </Trackpoint>
          <Trackpoint>
            <Time>2022-09-19T12:59:15.000Z</Time>
            <Position>
              <LatitudeDegrees>49.46577901951968669891357421875</LatitudeDegrees>
              <LongitudeDegrees>20.02566109411418437957763671875</LongitudeDegrees>
            </Position>
            <AltitudeMeters>603.5999755859375</AltitudeMeters>
            <DistanceMeters>NAN</DistanceMeters>
          </Trackpoint>
          <Trackpoint>
            <Time>2022-09-19T12:59:20.000Z</Time>
            <Position>
              <LatitudeDegrees>49.46593123488128185272216796875</LatitudeDegrees>
              <LongitudeDegrees>20.02576352097094058990478515625</LongitudeDegrees>
            </Position>
            <AltitudeMeters>603.20001220703125</AltitudeMeters>
            <DistanceMeters>NAN</DistanceMeters>
          </Trackpoint>
          <Trackpoint>
            <Time>2022-09-19T12:59:23.000Z</Time>
            <Position>
              <LatitudeDegrees>49.46601706556975841522216796875</LatitudeDegrees>
              <LongitudeDegrees>20.02581347711384296417236328125</LongitudeDegrees>
            </Position>
            <AltitudeMeters>602.79998779296875</AltitudeMeters>
            <DistanceMeters>NAN</DistanceMeters>
          </Trackpoint>
          <Trackpoint>
            <Time>2022-09-19T12:59:31.000Z</Time>
            <Position>
              <LatitudeDegrees>49.4662285409867763519287109375</LatitudeDegrees>
              <LongitudeDegrees>20.02593669109046459197998046875</LongitudeDegrees>
            </Position>
            <AltitudeMeters>602.79998779296875</AltitudeMeters>
            <DistanceMeters>NAN</DistanceMeters>
          </Trackpoint>
          <Trackpoint>
            <Time>2022-09-19T12:59:38.000Z</Time>
            <Position>
              <LatitudeDegrees>49.46639961563050746917724609375</LatitudeDegrees>
              <LongitudeDegrees>20.0260378606617450714111328125</LongitudeDegrees>
            </Position>
            <AltitudeMeters>602.5999755859375</AltitudeMeters>
            <DistanceMeters>NAN</DistanceMeters>
          </Trackpoint>
          <Trackpoint>
            <Time>2022-09-19T12:59:40.000Z</Time>
            <Position>
              <LatitudeDegrees>49.46642316877841949462890625</LatitudeDegrees>
              <LongitudeDegrees>20.0260573066771030426025390625</LongitudeDegrees>
            </Position>
            <AltitudeMeters>602.5999755859375</AltitudeMeters>
            <DistanceMeters>NAN</DistanceMeters>
          </Trackpoint>
          <Trackpoint>
            <Time>2022-09-19T12:59:44.000Z</Time>
            <Position>
              <LatitudeDegrees>49.46643331088125705718994140625</LatitudeDegrees>
              <LongitudeDegrees>20.02606778405606746673583984375</LongitudeDegrees>
            </Position>
            <AltitudeMeters>602.5999755859375</AltitudeMeters>
            <DistanceMeters>NAN</DistanceMeters>
          </Trackpoint>
          <Trackpoint>
            <Time>2022-09-19T12:59:45.000Z</Time>
            <Position>
              <LatitudeDegrees>49.46643331088125705718994140625</LatitudeDegrees>
              <LongitudeDegrees>20.02606778405606746673583984375</LongitudeDegrees>
            </Position>
            <AltitudeMeters>602.5999755859375</AltitudeMeters>
            <DistanceMeters>NAN</DistanceMeters>
          </Trackpoint>
          <Trackpoint>
            <Time>2022-09-19T12:59:57.000Z</Time>
            <Position>
              <LatitudeDegrees>49.46647756733000278472900390625</LatitudeDegrees>
              <LongitudeDegrees>20.0260801054537296295166015625</LongitudeDegrees>
            </Position>
            <AltitudeMeters>602.4000244140625</AltitudeMeters>
            <DistanceMeters>NAN</DistanceMeters>
          </Trackpoint>
          <Trackpoint>
            <Time>2022-09-19T13:00:01.000Z</Time>
            <Position>
              <LatitudeDegrees>49.46654386818408966064453125</LatitudeDegrees>
              <LongitudeDegrees>20.02612276934087276458740234375</LongitudeDegrees>
            </Position>
            <AltitudeMeters>602</AltitudeMeters>
            <DistanceMeters>NAN</DistanceMeters>
          </Trackpoint>
          <Trackpoint>
            <Time>2022-09-19T13:00:02.000Z</Time>
            <Position>
              <LatitudeDegrees>49.46656339801847934722900390625</LatitudeDegrees>
              <LongitudeDegrees>20.0261344201862812042236328125</LongitudeDegrees>
            </Position>
            <AltitudeMeters>602</AltitudeMeters>
            <DistanceMeters>NAN</DistanceMeters>
          </Trackpoint>
          <Trackpoint>
            <Time>2022-09-19T13:00:09.000Z</Time>
            <Position>
              <LatitudeDegrees>49.46670882403850555419921875</LatitudeDegrees>
              <LongitudeDegrees>20.02624397166073322296142578125</LongitudeDegrees>
            </Position>
            <AltitudeMeters>602.4000244140625</AltitudeMeters>
            <DistanceMeters>NAN</DistanceMeters>
          </Trackpoint>
          <Trackpoint>
            <Time>2022-09-19T13:00:17.000Z</Time>
            <Position>
              <LatitudeDegrees>49.46686707437038421630859375</LatitudeDegrees>
              <LongitudeDegrees>20.02632175572216510772705078125</LongitudeDegrees>
            </Position>
            <AltitudeMeters>602.20001220703125</AltitudeMeters>
            <DistanceMeters>NAN</DistanceMeters>
          </Trackpoint>
          <Trackpoint>
            <Time>2022-09-19T13:00:26.000Z</Time>
            <Position>
              <LatitudeDegrees>49.46709598414599895477294921875</LatitudeDegrees>
              <LongitudeDegrees>20.0263768248260021209716796875</LongitudeDegrees>
            </Position>
            <AltitudeMeters>602</AltitudeMeters>
            <DistanceMeters>NAN</DistanceMeters>
          </Trackpoint>
          <Trackpoint>
            <Time>2022-09-19T13:00:36.000Z</Time>
            <Position>
              <LatitudeDegrees>49.4673409871757030487060546875</LatitudeDegrees>
              <LongitudeDegrees>20.02640071325004100799560546875</LongitudeDegrees>
            </Position>
            <AltitudeMeters>601.5999755859375</AltitudeMeters>
            <DistanceMeters>NAN</DistanceMeters>
          </Trackpoint>
          <Trackpoint>
            <Time>2022-09-19T13:00:42.000Z</Time>
            <Position>
              <LatitudeDegrees>49.46747618727385997772216796875</LatitudeDegrees>
              <LongitudeDegrees>20.0264254398643970489501953125</LongitudeDegrees>
            </Position>
            <AltitudeMeters>601.5999755859375</AltitudeMeters>
            <DistanceMeters>NAN</DistanceMeters>
          </Trackpoint>
          <Trackpoint>
            <Time>2022-09-19T13:00:48.000Z</Time>
            <Position>
              <LatitudeDegrees>49.46759906597435474395751953125</LatitudeDegrees>
              <LongitudeDegrees>20.02650967799127101898193359375</LongitudeDegrees>
            </Position>
            <AltitudeMeters>601.4000244140625</AltitudeMeters>
            <DistanceMeters>NAN</DistanceMeters>
          </Trackpoint>
          <Trackpoint>
            <Time>2022-09-19T13:00:53.000Z</Time>
            <Position>
              <LatitudeDegrees>49.46763125248253345489501953125</LatitudeDegrees>
              <LongitudeDegrees>20.0265137851238250732421875</LongitudeDegrees>
            </Position>
            <AltitudeMeters>601.5999755859375</AltitudeMeters>
            <DistanceMeters>NAN</DistanceMeters>
          </Trackpoint>
          <Trackpoint>
            <Time>2022-09-19T13:01:06.000Z</Time>
            <Position>
              <LatitudeDegrees>49.46763125248253345489501953125</LatitudeDegrees>
              <LongitudeDegrees>20.0265137851238250732421875</LongitudeDegrees>
            </Position>
            <AltitudeMeters>601.5999755859375</AltitudeMeters>
            <DistanceMeters>NAN</DistanceMeters>
          </Trackpoint>
          <Trackpoint>
            <Time>2022-09-19T13:01:14.000Z</Time>
            <Position>
              <LatitudeDegrees>49.46763125248253345489501953125</LatitudeDegrees>
              <LongitudeDegrees>20.0265137851238250732421875</LongitudeDegrees>
            </Position>
            <AltitudeMeters>601.79998779296875</AltitudeMeters>
            <DistanceMeters>NAN</DistanceMeters>
          </Trackpoint>
          <Trackpoint>
            <Time>2022-09-19T13:01:17.000Z</Time>
            <Position>
              <LatitudeDegrees>49.46763125248253345489501953125</LatitudeDegrees>
              <LongitudeDegrees>20.0265137851238250732421875</LongitudeDegrees>
            </Position>
            <AltitudeMeters>601.5999755859375</AltitudeMeters>
            <DistanceMeters>NAN</DistanceMeters>
          </Trackpoint>
          <Trackpoint>
            <Time>2022-09-19T13:01:39.000Z</Time>
            <Position>
              <LatitudeDegrees>49.46763175539672374725341796875</LatitudeDegrees>
              <LongitudeDegrees>20.02651445567607879638671875</LongitudeDegrees>
            </Position>
            <AltitudeMeters>601.20001220703125</AltitudeMeters>
            <DistanceMeters>NAN</DistanceMeters>
          </Trackpoint>
          <Trackpoint>
            <Time>2022-09-19T13:01:41.000Z</Time>
            <Position>
              <LatitudeDegrees>49.46763477288186550140380859375</LatitudeDegrees>
              <LongitudeDegrees>20.026510767638683319091796875</LongitudeDegrees>
            </Position>
            <AltitudeMeters>601.4000244140625</AltitudeMeters>
            <DistanceMeters>NAN</DistanceMeters>
          </Trackpoint>
          <Trackpoint>
            <Time>2022-09-19T13:01:42.000Z</Time>
            <Position>
              <LatitudeDegrees>49.4676464237272739410400390625</LatitudeDegrees>
              <LongitudeDegrees>20.0264861248433589935302734375</LongitudeDegrees>
            </Position>
            <AltitudeMeters>601.4000244140625</AltitudeMeters>
            <DistanceMeters>NAN</DistanceMeters>
          </Trackpoint>
          <Trackpoint>
            <Time>2022-09-19T13:01:43.000Z</Time>
            <Position>
              <LatitudeDegrees>49.4676625169813632965087890625</LatitudeDegrees>
              <LongitudeDegrees>20.0264599733054637908935546875</LongitudeDegrees>
            </Position>
            <AltitudeMeters>601.4000244140625</AltitudeMeters>
            <DistanceMeters>NAN</DistanceMeters>
          </Trackpoint>
          <Trackpoint>
            <Time>2022-09-19T13:01:44.000Z</Time>
            <Position>
              <LatitudeDegrees>49.46768037043511867523193359375</LatitudeDegrees>
              <LongitudeDegrees>20.0264334864914417266845703125</LongitudeDegrees>
            </Position>
            <AltitudeMeters>601.4000244140625</AltitudeMeters>
            <DistanceMeters>NAN</DistanceMeters>
          </Trackpoint>
          <Trackpoint>
            <Time>2022-09-19T13:01:48.000Z</Time>
            <Position>
              <LatitudeDegrees>49.467753879725933074951171875</LatitudeDegrees>
              <LongitudeDegrees>20.02635813318192958831787109375</LongitudeDegrees>
            </Position>
            <AltitudeMeters>601.5999755859375</AltitudeMeters>
            <DistanceMeters>NAN</DistanceMeters>
          </Trackpoint>
          <Trackpoint>
            <Time>2022-09-19T13:01:54.000Z</Time>
            <Position>
              <LatitudeDegrees>49.46790416724979877471923828125</LatitudeDegrees>
              <LongitudeDegrees>20.02630733884871006011962890625</LongitudeDegrees>
            </Position>
            <AltitudeMeters>601.5999755859375</AltitudeMeters>
            <DistanceMeters>NAN</DistanceMeters>
          </Trackpoint>
          <Trackpoint>
            <Time>2022-09-19T13:01:56.000Z</Time>
            <Position>
              <LatitudeDegrees>49.46796636097133159637451171875</LatitudeDegrees>
              <LongitudeDegrees>20.02629778347909450531005859375</LongitudeDegrees>
            </Position>
            <AltitudeMeters>601.4000244140625</AltitudeMeters>
            <DistanceMeters>NAN</DistanceMeters>
          </Trackpoint>
          <Trackpoint>
            <Time>2022-09-19T13:01:59.000Z</Time>
            <Position>
              <LatitudeDegrees>49.46807130239903926849365234375</LatitudeDegrees>
              <LongitudeDegrees>20.02626693807542324066162109375</LongitudeDegrees>
            </Position>
            <AltitudeMeters>601.4000244140625</AltitudeMeters>
            <DistanceMeters>NAN</DistanceMeters>
          </Trackpoint>
          <Trackpoint>
            <Time>2022-09-19T13:02:07.000Z</Time>
            <Position>
              <LatitudeDegrees>49.46830884553492069244384765625</LatitudeDegrees>
              <LongitudeDegrees>20.026170127093791961669921875</LongitudeDegrees>
            </Position>
            <AltitudeMeters>601.4000244140625</AltitudeMeters>
            <DistanceMeters>NAN</DistanceMeters>
          </Trackpoint>
          <Trackpoint>
            <Time>2022-09-19T13:02:16.000Z</Time>
            <Position>
              <LatitudeDegrees>49.46854186244308948516845703125</LatitudeDegrees>
              <LongitudeDegrees>20.02605889923870563507080078125</LongitudeDegrees>
            </Position>
            <AltitudeMeters>601</AltitudeMeters>
            <DistanceMeters>NAN</DistanceMeters>
          </Trackpoint>
          <Trackpoint>
            <Time>2022-09-19T13:02:21.000Z</Time>
            <Position>
              <LatitudeDegrees>49.46865350939333438873291015625</LatitudeDegrees>
              <LongitudeDegrees>20.02599301747977733612060546875</LongitudeDegrees>
            </Position>
            <AltitudeMeters>600.79998779296875</AltitudeMeters>
            <DistanceMeters>NAN</DistanceMeters>
          </Trackpoint>
          <Trackpoint>
            <Time>2022-09-19T13:02:24.000Z</Time>
            <Position>
              <LatitudeDegrees>49.46870681829750537872314453125</LatitudeDegrees>
              <LongitudeDegrees>20.02598983235657215118408203125</LongitudeDegrees>
            </Position>
            <AltitudeMeters>600.5999755859375</AltitudeMeters>
            <DistanceMeters>NAN</DistanceMeters>
          </Trackpoint>
          <Trackpoint>
            <Time>2022-09-19T13:02:25.000Z</Time>
            <Position>
              <LatitudeDegrees>49.46872224099934101104736328125</LatitudeDegrees>
              <LongitudeDegrees>20.02600139938294887542724609375</LongitudeDegrees>
            </Position>
            <AltitudeMeters>600.5999755859375</AltitudeMeters>
            <DistanceMeters>NAN</DistanceMeters>
          </Trackpoint>
          <Trackpoint>
            <Time>2022-09-19T13:02:28.000Z</Time>
            <Position>
              <LatitudeDegrees>49.46874923072755336761474609375</LatitudeDegrees>
              <LongitudeDegrees>20.0260698795318603515625</LongitudeDegrees>
            </Position>
            <AltitudeMeters>600.5999755859375</AltitudeMeters>
            <DistanceMeters>NAN</DistanceMeters>
          </Trackpoint>
          <Trackpoint>
            <Time>2022-09-19T13:02:31.000Z</Time>
            <Position>
              <LatitudeDegrees>49.4687627255916595458984375</LatitudeDegrees>
              <LongitudeDegrees>20.02615462057292461395263671875</LongitudeDegrees>
            </Position>
            <AltitudeMeters>600.5999755859375</AltitudeMeters>
            <DistanceMeters>NAN</DistanceMeters>
          </Trackpoint>
          <Trackpoint>
            <Time>2022-09-19T13:02:33.000Z</Time>
            <Position>
              <LatitudeDegrees>49.468729197978973388671875</LatitudeDegrees>
              <LongitudeDegrees>20.026198960840702056884765625</LongitudeDegrees>
            </Position>
            <AltitudeMeters>600.5999755859375</AltitudeMeters>
            <DistanceMeters>NAN</DistanceMeters>
          </Trackpoint>
          <Trackpoint>
            <Time>2022-09-19T13:02:43.000Z</Time>
            <Position>
              <LatitudeDegrees>49.468569271266460418701171875</LatitudeDegrees>
              <LongitudeDegrees>20.0262899883091449737548828125</LongitudeDegrees>
            </Position>
            <AltitudeMeters>600.79998779296875</AltitudeMeters>
            <DistanceMeters>NAN</DistanceMeters>
          </Trackpoint>
          <Trackpoint>
            <Time>2022-09-19T13:02:50.000Z</Time>
            <Position>
              <LatitudeDegrees>49.46855820715427398681640625</LatitudeDegrees>
              <LongitudeDegrees>20.02629543654620647430419921875</LongitudeDegrees>
            </Position>
            <AltitudeMeters>600.5999755859375</AltitudeMeters>
            <DistanceMeters>NAN</DistanceMeters>
          </Trackpoint>
          <Trackpoint>
            <Time>2022-09-19T13:02:58.000Z</Time>
            <Position>
              <LatitudeDegrees>49.46855820715427398681640625</LatitudeDegrees>
              <LongitudeDegrees>20.02629543654620647430419921875</LongitudeDegrees>
            </Position>
            <AltitudeMeters>600.5999755859375</AltitudeMeters>
            <DistanceMeters>NAN</DistanceMeters>
          </Trackpoint>
          <Trackpoint>
            <Time>2022-09-19T13:03:04.000Z</Time>
            <Position>
              <LatitudeDegrees>49.46855820715427398681640625</LatitudeDegrees>
              <LongitudeDegrees>20.02629543654620647430419921875</LongitudeDegrees>
            </Position>
            <AltitudeMeters>600.5999755859375</AltitudeMeters>
            <DistanceMeters>NAN</DistanceMeters>
          </Trackpoint>
          <Trackpoint>
            <Time>2022-09-19T13:03:05.000Z</Time>
            <Position>
              <LatitudeDegrees>49.46855820715427398681640625</LatitudeDegrees>
              <LongitudeDegrees>20.02629543654620647430419921875</LongitudeDegrees>
            </Position>
            <AltitudeMeters>600.5999755859375</AltitudeMeters>
            <DistanceMeters>NAN</DistanceMeters>
          </Trackpoint>
          <Trackpoint>
            <Time>2022-09-19T13:03:13.000Z</Time>
            <Position>
              <LatitudeDegrees>49.46855820715427398681640625</LatitudeDegrees>
              <LongitudeDegrees>20.02629543654620647430419921875</LongitudeDegrees>
            </Position>
            <AltitudeMeters>600.5999755859375</AltitudeMeters>
            <DistanceMeters>NAN</DistanceMeters>
          </Trackpoint>
          <Trackpoint>
            <Time>2022-09-19T13:03:30.000Z</Time>
            <Position>
              <LatitudeDegrees>49.468532390892505645751953125</LatitudeDegrees>
              <LongitudeDegrees>20.026319660246372222900390625</LongitudeDegrees>
            </Position>
            <AltitudeMeters>600.5999755859375</AltitudeMeters>
            <DistanceMeters>NAN</DistanceMeters>
          </Trackpoint>
          <Trackpoint>
            <Time>2022-09-19T13:03:31.000Z</Time>
            <Position>
              <LatitudeDegrees>49.46851889602839946746826171875</LatitudeDegrees>
              <LongitudeDegrees>20.02634086646139621734619140625</LongitudeDegrees>
            </Position>
            <AltitudeMeters>600.5999755859375</AltitudeMeters>
            <DistanceMeters>NAN</DistanceMeters>
          </Trackpoint>
          <Trackpoint>
            <Time>2022-09-19T13:03:36.000Z</Time>
            <Position>
              <LatitudeDegrees>49.46844287216663360595703125</LatitudeDegrees>
              <LongitudeDegrees>20.02648352645337581634521484375</LongitudeDegrees>
            </Position>
            <AltitudeMeters>600.5999755859375</AltitudeMeters>
            <DistanceMeters>NAN</DistanceMeters>
          </Trackpoint>
          <Trackpoint>
            <Time>2022-09-19T13:03:44.000Z</Time>
            <Position>
              <LatitudeDegrees>49.468358047306537628173828125</LatitudeDegrees>
              <LongitudeDegrees>20.0267771445214748382568359375</LongitudeDegrees>
            </Position>
            <AltitudeMeters>600.4000244140625</AltitudeMeters>
            <DistanceMeters>NAN</DistanceMeters>
          </Trackpoint>
          <Trackpoint>
            <Time>2022-09-19T13:03:46.000Z</Time>
            <Position>
              <LatitudeDegrees>49.46834354661405086517333984375</LatitudeDegrees>
              <LongitudeDegrees>20.0268505699932575225830078125</LongitudeDegrees>
            </Position>
            <AltitudeMeters>600.4000244140625</AltitudeMeters>
            <DistanceMeters>NAN</DistanceMeters>
          </Trackpoint>
          <Trackpoint>
            <Time>2022-09-19T13:03:51.000Z</Time>
            <Position>
              <LatitudeDegrees>49.46830666624009609222412109375</LatitudeDegrees>
              <LongitudeDegrees>20.0270046293735504150390625</LongitudeDegrees>
            </Position>
            <AltitudeMeters>600.4000244140625</AltitudeMeters>
            <DistanceMeters>NAN</DistanceMeters>
          </Trackpoint>
          <Trackpoint>
            <Time>2022-09-19T13:03:55.000Z</Time>
            <Position>
              <LatitudeDegrees>49.468297027051448822021484375</LatitudeDegrees>
              <LongitudeDegrees>20.027129687368869781494140625</LongitudeDegrees>
            </Position>
            <AltitudeMeters>600</AltitudeMeters>
            <DistanceMeters>NAN</DistanceMeters>
          </Trackpoint>
          <Trackpoint>
            <Time>2022-09-19T13:03:56.000Z</Time>
            <Position>
              <LatitudeDegrees>49.46830867789685726165771484375</LatitudeDegrees>
              <LongitudeDegrees>20.02715776674449443817138671875</LongitudeDegrees>
            </Position>
            <AltitudeMeters>600</AltitudeMeters>
            <DistanceMeters>NAN</DistanceMeters>
          </Trackpoint>
          <Trackpoint>
            <Time>2022-09-19T13:03:57.000Z</Time>
            <Position>
              <LatitudeDegrees>49.4683250226080417633056640625</LatitudeDegrees>
              <LongitudeDegrees>20.02718559466302394866943359375</LongitudeDegrees>
            </Position>
            <AltitudeMeters>599.79998779296875</AltitudeMeters>
            <DistanceMeters>NAN</DistanceMeters>
          </Trackpoint>
          <Trackpoint>
            <Time>2022-09-19T13:04:04.000Z</Time>
            <Position>
              <LatitudeDegrees>49.468477070331573486328125</LatitudeDegrees>
              <LongitudeDegrees>20.02736681140959262847900390625</LongitudeDegrees>
            </Position>
            <AltitudeMeters>600</AltitudeMeters>
            <DistanceMeters>NAN</DistanceMeters>
          </Trackpoint>
          <Trackpoint>
            <Time>2022-09-19T13:04:13.000Z</Time>
            <Position>
              <LatitudeDegrees>49.4687022082507610321044921875</LatitudeDegrees>
              <LongitudeDegrees>20.0275130756199359893798828125</LongitudeDegrees>
            </Position>
            <AltitudeMeters>599.5999755859375</AltitudeMeters>
            <DistanceMeters>NAN</DistanceMeters>
          </Trackpoint>
          <Trackpoint>
            <Time>2022-09-19T13:04:19.000Z</Time>
            <Position>
              <LatitudeDegrees>49.46884788572788238525390625</LatitudeDegrees>
              <LongitudeDegrees>20.0275499559938907623291015625</LongitudeDegrees>
            </Position>
            <AltitudeMeters>599.5999755859375</AltitudeMeters>
            <DistanceMeters>NAN</DistanceMeters>
          </Trackpoint>
          <Trackpoint>
            <Time>2022-09-19T13:04:27.000Z</Time>
            <Position>
              <LatitudeDegrees>49.4690696708858013153076171875</LatitudeDegrees>
              <LongitudeDegrees>20.02764978446066379547119140625</LongitudeDegrees>
            </Position>
            <AltitudeMeters>599.5999755859375</AltitudeMeters>
            <DistanceMeters>NAN</DistanceMeters>
          </Trackpoint>
          <Trackpoint>
            <Time>2022-09-19T13:04:34.000Z</Time>
            <Position>
              <LatitudeDegrees>49.46917000226676464080810546875</LatitudeDegrees>
              <LongitudeDegrees>20.02772203646600246429443359375</LongitudeDegrees>
            </Position>
            <AltitudeMeters>599.5999755859375</AltitudeMeters>
            <DistanceMeters>NAN</DistanceMeters>
          </Trackpoint>
          <Trackpoint>
            <Time>2022-09-19T13:04:40.000Z</Time>
            <Position>
              <LatitudeDegrees>49.46929313242435455322265625</LatitudeDegrees>
              <LongitudeDegrees>20.02779747359454631805419921875</LongitudeDegrees>
            </Position>
            <AltitudeMeters>599.4000244140625</AltitudeMeters>
            <DistanceMeters>NAN</DistanceMeters>
          </Trackpoint>
          <Trackpoint>
            <Time>2022-09-19T13:04:43.000Z</Time>
            <Position>
              <LatitudeDegrees>49.4693509675562381744384765625</LatitudeDegrees>
              <LongitudeDegrees>20.02785497345030307769775390625</LongitudeDegrees>
            </Position>
            <AltitudeMeters>599.5999755859375</AltitudeMeters>
            <DistanceMeters>NAN</DistanceMeters>
          </Trackpoint>
          <Trackpoint>
            <Time>2022-09-19T13:04:46.000Z</Time>
            <Position>
              <LatitudeDegrees>49.46943671442568302154541015625</LatitudeDegrees>
              <LongitudeDegrees>20.02790509723126888275146484375</LongitudeDegrees>
            </Position>
            <AltitudeMeters>599.79998779296875</AltitudeMeters>
            <DistanceMeters>NAN</DistanceMeters>
          </Trackpoint>
          <Trackpoint>
            <Time>2022-09-19T13:04:55.000Z</Time>
            <Position>
              <LatitudeDegrees>49.46965732611715793609619140625</LatitudeDegrees>
              <LongitudeDegrees>20.0280471704900264739990234375</LongitudeDegrees>
            </Position>
            <AltitudeMeters>599.4000244140625</AltitudeMeters>
            <DistanceMeters>NAN</DistanceMeters>
          </Trackpoint>
          <Trackpoint>
            <Time>2022-09-19T13:05:04.000Z</Time>
            <Position>
              <LatitudeDegrees>49.46987559087574481964111328125</LatitudeDegrees>
              <LongitudeDegrees>20.028205923736095428466796875</LongitudeDegrees>
            </Position>
            <AltitudeMeters>599.4000244140625</AltitudeMeters>
            <DistanceMeters>NAN</DistanceMeters>
          </Trackpoint>
          <Trackpoint>
            <Time>2022-09-19T13:05:09.000Z</Time>
            <Position>
              <LatitudeDegrees>49.469964690506458282470703125</LatitudeDegrees>
              <LongitudeDegrees>20.028278343379497528076171875</LongitudeDegrees>
            </Position>
            <AltitudeMeters>599</AltitudeMeters>
            <DistanceMeters>NAN</DistanceMeters>
          </Trackpoint>
          <Trackpoint>
            <Time>2022-09-19T13:05:13.000Z</Time>
            <Position>
              <LatitudeDegrees>49.47003551758825778961181640625</LatitudeDegrees>
              <LongitudeDegrees>20.02833274193108081817626953125</LongitudeDegrees>
            </Position>
            <AltitudeMeters>599</AltitudeMeters>
            <DistanceMeters>NAN</DistanceMeters>
          </Trackpoint>
          <Trackpoint>
            <Time>2022-09-19T13:05:15.000Z</Time>
            <Position>
              <LatitudeDegrees>49.47008111514151096343994140625</LatitudeDegrees>
              <LongitudeDegrees>20.02834565006196498870849609375</LongitudeDegrees>
            </Position>
            <AltitudeMeters>599.20001220703125</AltitudeMeters>
            <DistanceMeters>NAN</DistanceMeters>
          </Trackpoint>
          <Trackpoint>
            <Time>2022-09-19T13:05:22.000Z</Time>
            <Position>
              <LatitudeDegrees>49.47021581232547760009765625</LatitudeDegrees>
              <LongitudeDegrees>20.02840264700353145599365234375</LongitudeDegrees>
            </Position>
            <AltitudeMeters>598.79998779296875</AltitudeMeters>
            <DistanceMeters>NAN</DistanceMeters>
          </Trackpoint>
          <Trackpoint>
            <Time>2022-09-19T13:05:23.000Z</Time>
            <Position>
              <LatitudeDegrees>49.47022159583866596221923828125</LatitudeDegrees>
              <LongitudeDegrees>20.0284028984606266021728515625</LongitudeDegrees>
            </Position>
            <AltitudeMeters>598.79998779296875</AltitudeMeters>
            <DistanceMeters>NAN</DistanceMeters>
          </Trackpoint>
          <Trackpoint>
            <Time>2022-09-19T13:05:26.000Z</Time>
            <Position>
              <LatitudeDegrees>49.470230229198932647705078125</LatitudeDegrees>
              <LongitudeDegrees>20.028407089412212371826171875</LongitudeDegrees>
            </Position>
            <AltitudeMeters>598.5999755859375</AltitudeMeters>
            <DistanceMeters>NAN</DistanceMeters>
          </Trackpoint>
          <Trackpoint>
            <Time>2022-09-19T13:05:30.000Z</Time>
            <Position>
              <LatitudeDegrees>49.470230229198932647705078125</LatitudeDegrees>
              <LongitudeDegrees>20.028407089412212371826171875</LongitudeDegrees>
            </Position>
            <AltitudeMeters>598.4000244140625</AltitudeMeters>
            <DistanceMeters>NAN</DistanceMeters>
          </Trackpoint>
          <Trackpoint>
            <Time>2022-09-19T13:05:33.000Z</Time>
            <Position>
              <LatitudeDegrees>49.47025394998490810394287109375</LatitudeDegrees>
              <LongitudeDegrees>20.02842360176146030426025390625</LongitudeDegrees>
            </Position>
            <AltitudeMeters>598.4000244140625</AltitudeMeters>
            <DistanceMeters>NAN</DistanceMeters>
          </Trackpoint>
          <Trackpoint>
            <Time>2022-09-19T13:05:35.000Z</Time>
            <Position>
              <LatitudeDegrees>49.4702816940844058990478515625</LatitudeDegrees>
              <LongitudeDegrees>20.02843852154910564422607421875</LongitudeDegrees>
            </Position>
            <AltitudeMeters>598.4000244140625</AltitudeMeters>
            <DistanceMeters>NAN</DistanceMeters>
          </Trackpoint>
          <Trackpoint>
            <Time>2022-09-19T13:05:37.000Z</Time>
            <Position>
              <LatitudeDegrees>49.4703098572790622711181640625</LatitudeDegrees>
              <LongitudeDegrees>20.02845461480319499969482421875</LongitudeDegrees>
            </Position>
            <AltitudeMeters>598.5999755859375</AltitudeMeters>
            <DistanceMeters>NAN</DistanceMeters>
          </Trackpoint>
          <Trackpoint>
            <Time>2022-09-19T13:05:38.000Z</Time>
            <Position>
              <LatitudeDegrees>49.47031882591545581817626953125</LatitudeDegrees>
              <LongitudeDegrees>20.02846903167665004730224609375</LongitudeDegrees>
            </Position>
            <AltitudeMeters>598.5999755859375</AltitudeMeters>
            <DistanceMeters>NAN</DistanceMeters>
          </Trackpoint>
          <Trackpoint>
            <Time>2022-09-19T13:05:39.000Z</Time>
            <Position>
              <LatitudeDegrees>49.470325447618961334228515625</LatitudeDegrees>
              <LongitudeDegrees>20.02848328091204166412353515625</LongitudeDegrees>
            </Position>
            <AltitudeMeters>598.5999755859375</AltitudeMeters>
            <DistanceMeters>NAN</DistanceMeters>
          </Trackpoint>
          <Trackpoint>
            <Time>2022-09-19T13:05:43.000Z</Time>
            <Position>
              <LatitudeDegrees>49.47037247009575366973876953125</LatitudeDegrees>
              <LongitudeDegrees>20.02851010300219058990478515625</LongitudeDegrees>
            </Position>
            <AltitudeMeters>598.79998779296875</AltitudeMeters>
            <DistanceMeters>NAN</DistanceMeters>
          </Trackpoint>
          <Trackpoint>
            <Time>2022-09-19T13:05:49.000Z</Time>
            <Position>
              <LatitudeDegrees>49.47046332992613315582275390625</LatitudeDegrees>
              <LongitudeDegrees>20.02855838276445865631103515625</LongitudeDegrees>
            </Position>
            <AltitudeMeters>598.5999755859375</AltitudeMeters>
            <DistanceMeters>NAN</DistanceMeters>
          </Trackpoint>
          <Trackpoint>
            <Time>2022-09-19T13:05:52.000Z</Time>
            <Position>
              <LatitudeDegrees>49.47052837349474430084228515625</LatitudeDegrees>
              <LongitudeDegrees>20.02859123982489109039306640625</LongitudeDegrees>
            </Position>
            <AltitudeMeters>598.4000244140625</AltitudeMeters>
            <DistanceMeters>NAN</DistanceMeters>
          </Trackpoint>
          <Trackpoint>
            <Time>2022-09-19T13:05:58.000Z</Time>
            <Position>
              <LatitudeDegrees>49.470719397068023681640625</LatitudeDegrees>
              <LongitudeDegrees>20.02868302166461944580078125</LongitudeDegrees>
            </Position>
            <AltitudeMeters>598.4000244140625</AltitudeMeters>
            <DistanceMeters>NAN</DistanceMeters>
          </Trackpoint>
          <Trackpoint>
            <Time>2022-09-19T13:06:04.000Z</Time>
            <Position>
              <LatitudeDegrees>49.4709234125912189483642578125</LatitudeDegrees>
              <LongitudeDegrees>20.028776563704013824462890625</LongitudeDegrees>
            </Position>
            <AltitudeMeters>598.20001220703125</AltitudeMeters>
            <DistanceMeters>NAN</DistanceMeters>
          </Trackpoint>
          <Trackpoint>
            <Time>2022-09-19T13:06:10.000Z</Time>
            <Position>
              <LatitudeDegrees>49.47114109061658382415771484375</LatitudeDegrees>
              <LongitudeDegrees>20.0288551859557628631591796875</LongitudeDegrees>
            </Position>
            <AltitudeMeters>597.79998779296875</AltitudeMeters>
            <DistanceMeters>NAN</DistanceMeters>
          </Trackpoint>
          <Trackpoint>
            <Time>2022-09-19T13:06:13.000Z</Time>
            <Position>
              <LatitudeDegrees>49.4712472893297672271728515625</LatitudeDegrees>
              <LongitudeDegrees>20.02890103496611118316650390625</LongitudeDegrees>
            </Position>
            <AltitudeMeters>597.5999755859375</AltitudeMeters>
            <DistanceMeters>NAN</DistanceMeters>
          </Trackpoint>
          <Trackpoint>
            <Time>2022-09-19T13:06:20.000Z</Time>
            <Position>
              <LatitudeDegrees>49.471455998718738555908203125</LatitudeDegrees>
              <LongitudeDegrees>20.029013939201831817626953125</LongitudeDegrees>
            </Position>
            <AltitudeMeters>597.4000244140625</AltitudeMeters>
            <DistanceMeters>NAN</DistanceMeters>
          </Trackpoint>
          <Trackpoint>
            <Time>2022-09-19T13:06:26.000Z</Time>
            <Position>
              <LatitudeDegrees>49.47163495235145092010498046875</LatitudeDegrees>
              <LongitudeDegrees>20.02908895723521709442138671875</LongitudeDegrees>
            </Position>
            <AltitudeMeters>597.20001220703125</AltitudeMeters>
            <DistanceMeters>NAN</DistanceMeters>
          </Trackpoint>
          <Trackpoint>
            <Time>2022-09-19T13:06:30.000Z</Time>
            <Position>
              <LatitudeDegrees>49.471768476068973541259765625</LatitudeDegrees>
              <LongitudeDegrees>20.02915433607995510101318359375</LongitudeDegrees>
            </Position>
            <AltitudeMeters>597</AltitudeMeters>
            <DistanceMeters>NAN</DistanceMeters>
          </Trackpoint>
          <Trackpoint>
            <Time>2022-09-19T13:06:33.000Z</Time>
            <Position>
              <LatitudeDegrees>49.4718849845230579376220703125</LatitudeDegrees>
              <LongitudeDegrees>20.02919758670032024383544921875</LongitudeDegrees>
            </Position>
            <AltitudeMeters>597.20001220703125</AltitudeMeters>
            <DistanceMeters>NAN</DistanceMeters>
          </Trackpoint>
          <Trackpoint>
            <Time>2022-09-19T13:06:37.000Z</Time>
            <Position>
              <LatitudeDegrees>49.47200844995677471160888671875</LatitudeDegrees>
              <LongitudeDegrees>20.029266737401485443115234375</LongitudeDegrees>
            </Position>
            <AltitudeMeters>596.79998779296875</AltitudeMeters>
            <DistanceMeters>NAN</DistanceMeters>
          </Trackpoint>
          <Trackpoint>
            <Time>2022-09-19T13:06:39.000Z</Time>
            <Position>
              <LatitudeDegrees>49.47206762619316577911376953125</LatitudeDegrees>
              <LongitudeDegrees>20.02929029054939746856689453125</LongitudeDegrees>
            </Position>
            <AltitudeMeters>596.79998779296875</AltitudeMeters>
            <DistanceMeters>NAN</DistanceMeters>
          </Trackpoint>
          <Trackpoint>
            <Time>2022-09-19T13:06:45.000Z</Time>
            <Position>
              <LatitudeDegrees>49.4722450710833072662353515625</LatitudeDegrees>
              <LongitudeDegrees>20.02937796525657176971435546875</LongitudeDegrees>
            </Position>
            <AltitudeMeters>596.79998779296875</AltitudeMeters>
            <DistanceMeters>NAN</DistanceMeters>
          </Trackpoint>
          <Trackpoint>
            <Time>2022-09-19T13:06:53.000Z</Time>
            <Position>
              <LatitudeDegrees>49.472469203174114227294921875</LatitudeDegrees>
              <LongitudeDegrees>20.029477290809154510498046875</LongitudeDegrees>
            </Position>
            <AltitudeMeters>596.79998779296875</AltitudeMeters>
            <DistanceMeters>NAN</DistanceMeters>
          </Trackpoint>
          <Trackpoint>
            <Time>2022-09-19T13:07:02.000Z</Time>
            <Position>
              <LatitudeDegrees>49.47271320037543773651123046875</LatitudeDegrees>
              <LongitudeDegrees>20.02957753837108612060546875</LongitudeDegrees>
            </Position>
            <AltitudeMeters>596.4000244140625</AltitudeMeters>
            <DistanceMeters>NAN</DistanceMeters>
          </Trackpoint>
          <Trackpoint>
            <Time>2022-09-19T13:07:07.000Z</Time>
            <Position>
              <LatitudeDegrees>49.4728410243988037109375</LatitudeDegrees>
              <LongitudeDegrees>20.0296189449727535247802734375</LongitudeDegrees>
            </Position>
            <AltitudeMeters>596.4000244140625</AltitudeMeters>
            <DistanceMeters>NAN</DistanceMeters>
          </Trackpoint>
          <Trackpoint>
            <Time>2022-09-19T13:07:14.000Z</Time>
            <Position>
              <LatitudeDegrees>49.47295543737709522247314453125</LatitudeDegrees>
              <LongitudeDegrees>20.0296786241233348846435546875</LongitudeDegrees>
            </Position>
            <AltitudeMeters>596.20001220703125</AltitudeMeters>
            <DistanceMeters>NAN</DistanceMeters>
          </Trackpoint>
          <Trackpoint>
            <Time>2022-09-19T13:07:19.000Z</Time>
            <Position>
              <LatitudeDegrees>49.4730272702872753143310546875</LatitudeDegrees>
              <LongitudeDegrees>20.02969061024487018585205078125</LongitudeDegrees>
            </Position>
            <AltitudeMeters>596.20001220703125</AltitudeMeters>
            <DistanceMeters>NAN</DistanceMeters>
          </Trackpoint>
          <Trackpoint>
            <Time>2022-09-19T13:07:21.000Z</Time>
            <Position>
              <LatitudeDegrees>49.47305484674870967864990234375</LatitudeDegrees>
              <LongitudeDegrees>20.029667057096958160400390625</LongitudeDegrees>
            </Position>
            <AltitudeMeters>596</AltitudeMeters>
            <DistanceMeters>NAN</DistanceMeters>
          </Trackpoint>
          <Trackpoint>
            <Time>2022-09-19T13:07:23.000Z</Time>
            <Position>
              <LatitudeDegrees>49.47307948954403400421142578125</LatitudeDegrees>
              <LongitudeDegrees>20.02963788807392120361328125</LongitudeDegrees>
            </Position>
            <AltitudeMeters>596</AltitudeMeters>
            <DistanceMeters>NAN</DistanceMeters>
          </Trackpoint>
          <Trackpoint>
            <Time>2022-09-19T13:07:24.000Z</Time>
            <Position>
              <LatitudeDegrees>49.473092816770076751708984375</LatitudeDegrees>
              <LongitudeDegrees>20.02962623722851276397705078125</LongitudeDegrees>
            </Position>
            <AltitudeMeters>595.79998779296875</AltitudeMeters>
            <DistanceMeters>NAN</DistanceMeters>
          </Trackpoint>
          <Trackpoint>
            <Time>2022-09-19T13:07:25.000Z</Time>
            <Position>
              <LatitudeDegrees>49.473095498979091644287109375</LatitudeDegrees>
              <LongitudeDegrees>20.02962321974337100982666015625</LongitudeDegrees>
            </Position>
            <AltitudeMeters>595.79998779296875</AltitudeMeters>
            <DistanceMeters>NAN</DistanceMeters>
          </Trackpoint>
          <Trackpoint>
            <Time>2022-09-19T13:07:28.000Z</Time>
            <Position>
              <LatitudeDegrees>49.473095498979091644287109375</LatitudeDegrees>
              <LongitudeDegrees>20.02962321974337100982666015625</LongitudeDegrees>
            </Position>
            <AltitudeMeters>595.5999755859375</AltitudeMeters>
            <DistanceMeters>NAN</DistanceMeters>
          </Trackpoint>
          <Trackpoint>
            <Time>2022-09-19T13:07:33.000Z</Time>
            <Position>
              <LatitudeDegrees>49.47311955504119396209716796875</LatitudeDegrees>
              <LongitudeDegrees>20.02963243983685970306396484375</LongitudeDegrees>
            </Position>
            <AltitudeMeters>595.5999755859375</AltitudeMeters>
            <DistanceMeters>NAN</DistanceMeters>
          </Trackpoint>
          <Trackpoint>
            <Time>2022-09-19T13:07:35.000Z</Time>
            <Position>
              <LatitudeDegrees>49.4731580279767513275146484375</LatitudeDegrees>
              <LongitudeDegrees>20.02965909428894519805908203125</LongitudeDegrees>
            </Position>
            <AltitudeMeters>595.5999755859375</AltitudeMeters>
            <DistanceMeters>NAN</DistanceMeters>
          </Trackpoint>
          <Trackpoint>
            <Time>2022-09-19T13:07:37.000Z</Time>
            <Position>
              <LatitudeDegrees>49.47319976985454559326171875</LatitudeDegrees>
              <LongitudeDegrees>20.02969882450997829437255859375</LongitudeDegrees>
            </Position>
            <AltitudeMeters>595.79998779296875</AltitudeMeters>
            <DistanceMeters>NAN</DistanceMeters>
          </Trackpoint>
          <Trackpoint>
            <Time>2022-09-19T13:07:39.000Z</Time>
            <Position>
              <LatitudeDegrees>49.473219215869903564453125</LatitudeDegrees>
              <LongitudeDegrees>20.02977090887725353240966796875</LongitudeDegrees>
            </Position>
            <AltitudeMeters>595.79998779296875</AltitudeMeters>
            <DistanceMeters>NAN</DistanceMeters>
          </Trackpoint>
          <Trackpoint>
            <Time>2022-09-19T13:07:43.000Z</Time>
            <Position>
              <LatitudeDegrees>49.4732730276882648468017578125</LatitudeDegrees>
              <LongitudeDegrees>20.02985137514770030975341796875</LongitudeDegrees>
            </Position>
            <AltitudeMeters>596</AltitudeMeters>
            <DistanceMeters>NAN</DistanceMeters>
          </Trackpoint>
          <Trackpoint>
            <Time>2022-09-19T13:07:44.000Z</Time>
            <Position>
              <LatitudeDegrees>49.4732902944087982177734375</LatitudeDegrees>
              <LongitudeDegrees>20.0298683904111385345458984375</LongitudeDegrees>
            </Position>
            <AltitudeMeters>596.20001220703125</AltitudeMeters>
            <DistanceMeters>NAN</DistanceMeters>
          </Trackpoint>
          <Trackpoint>
            <Time>2022-09-19T13:07:47.000Z</Time>
            <Position>
              <LatitudeDegrees>49.47336866520345211029052734375</LatitudeDegrees>
              <LongitudeDegrees>20.0299133174121379852294921875</LongitudeDegrees>
            </Position>
            <AltitudeMeters>596</AltitudeMeters>
            <DistanceMeters>NAN</DistanceMeters>
          </Trackpoint>
          <Trackpoint>
            <Time>2022-09-19T13:07:51.000Z</Time>
            <Position>
              <LatitudeDegrees>49.4734839163720607757568359375</LatitudeDegrees>
              <LongitudeDegrees>20.02996067516505718231201171875</LongitudeDegrees>
            </Position>
            <AltitudeMeters>595.79998779296875</AltitudeMeters>
            <DistanceMeters>NAN</DistanceMeters>
          </Trackpoint>
          <Trackpoint>
            <Time>2022-09-19T13:07:59.000Z</Time>
            <Position>
              <LatitudeDegrees>49.47368801571428775787353515625</LatitudeDegrees>
              <LongitudeDegrees>20.0300558097660541534423828125</LongitudeDegrees>
            </Position>
            <AltitudeMeters>595.4000244140625</AltitudeMeters>
            <DistanceMeters>NAN</DistanceMeters>
          </Trackpoint>
          <Trackpoint>
            <Time>2022-09-19T13:08:01.000Z</Time>
            <Position>
              <LatitudeDegrees>49.47373629547655582427978515625</LatitudeDegrees>
              <LongitudeDegrees>20.0300890021026134490966796875</LongitudeDegrees>
            </Position>
            <AltitudeMeters>595.4000244140625</AltitudeMeters>
            <DistanceMeters>NAN</DistanceMeters>
          </Trackpoint>
          <Trackpoint>
            <Time>2022-09-19T13:08:06.000Z</Time>
            <Position>
              <LatitudeDegrees>49.4738669693470001220703125</LatitudeDegrees>
              <LongitudeDegrees>20.0301584042608737945556640625</LongitudeDegrees>
            </Position>
            <AltitudeMeters>595.20001220703125</AltitudeMeters>
            <DistanceMeters>NAN</DistanceMeters>
          </Trackpoint>
          <Trackpoint>
            <Time>2022-09-19T13:08:08.000Z</Time>
            <Position>
              <LatitudeDegrees>49.47392321191728115081787109375</LatitudeDegrees>
              <LongitudeDegrees>20.0302053429186344146728515625</LongitudeDegrees>
            </Position>
            <AltitudeMeters>595.20001220703125</AltitudeMeters>
            <DistanceMeters>NAN</DistanceMeters>
          </Trackpoint>
          <Trackpoint>
            <Time>2022-09-19T13:08:17.000Z</Time>
            <Position>
              <LatitudeDegrees>49.47414793074131011962890625</LatitudeDegrees>
              <LongitudeDegrees>20.03032746724784374237060546875</LongitudeDegrees>
            </Position>
            <AltitudeMeters>595</AltitudeMeters>
            <DistanceMeters>NAN</DistanceMeters>
          </Trackpoint>
          <Trackpoint>
            <Time>2022-09-19T13:08:22.000Z</Time>
            <Position>
              <LatitudeDegrees>49.4741953723132610321044921875</LatitudeDegrees>
              <LongitudeDegrees>20.03035747446119785308837890625</LongitudeDegrees>
            </Position>
            <AltitudeMeters>594.79998779296875</AltitudeMeters>
            <DistanceMeters>NAN</DistanceMeters>
          </Trackpoint>
          <Trackpoint>
            <Time>2022-09-19T13:08:23.000Z</Time>
            <Position>
              <LatitudeDegrees>49.474197886884212493896484375</LatitudeDegrees>
              <LongitudeDegrees>20.030359737575054168701171875</LongitudeDegrees>
            </Position>
            <AltitudeMeters>594.79998779296875</AltitudeMeters>
            <DistanceMeters>NAN</DistanceMeters>
          </Trackpoint>
          <Trackpoint>
            <Time>2022-09-19T13:08:29.000Z</Time>
            <Position>
              <LatitudeDegrees>49.474211297929286956787109375</LatitudeDegrees>
              <LongitudeDegrees>20.03036610782146453857421875</LongitudeDegrees>
            </Position>
            <AltitudeMeters>594.5999755859375</AltitudeMeters>
            <DistanceMeters>NAN</DistanceMeters>
          </Trackpoint>
          <Trackpoint>
            <Time>2022-09-19T13:08:32.000Z</Time>
            <Position>
              <LatitudeDegrees>49.4742362760007381439208984375</LatitudeDegrees>
              <LongitudeDegrees>20.030370466411113739013671875</LongitudeDegrees>
            </Position>
            <AltitudeMeters>594.79998779296875</AltitudeMeters>
            <DistanceMeters>NAN</DistanceMeters>
          </Trackpoint>
          <Trackpoint>
            <Time>2022-09-19T13:08:33.000Z</Time>
            <Position>
              <LatitudeDegrees>49.474253542721271514892578125</LatitudeDegrees>
              <LongitudeDegrees>20.0303726457059383392333984375</LongitudeDegrees>
            </Position>
            <AltitudeMeters>595</AltitudeMeters>
            <DistanceMeters>NAN</DistanceMeters>
          </Trackpoint>
          <Trackpoint>
            <Time>2022-09-19T13:08:39.000Z</Time>
            <Position>
              <LatitudeDegrees>49.4743787683546543121337890625</LatitudeDegrees>
              <LongitudeDegrees>20.03046174533665180206298828125</LongitudeDegrees>
            </Position>
            <AltitudeMeters>595</AltitudeMeters>
            <DistanceMeters>NAN</DistanceMeters>
          </Trackpoint>
          <Trackpoint>
            <Time>2022-09-19T13:08:44.000Z</Time>
            <Position>
              <LatitudeDegrees>49.47448999620974063873291015625</LatitudeDegrees>
              <LongitudeDegrees>20.03051136620342731475830078125</LongitudeDegrees>
            </Position>
            <AltitudeMeters>595</AltitudeMeters>
            <DistanceMeters>NAN</DistanceMeters>
          </Trackpoint>
          <Trackpoint>
            <Time>2022-09-19T13:08:50.000Z</Time>
            <Position>
              <LatitudeDegrees>49.4746536947786808013916015625</LatitudeDegrees>
              <LongitudeDegrees>20.0306173972785472869873046875</LongitudeDegrees>
            </Position>
            <AltitudeMeters>594.79998779296875</AltitudeMeters>
            <DistanceMeters>NAN</DistanceMeters>
          </Trackpoint>
          <Trackpoint>
            <Time>2022-09-19T13:08:58.000Z</Time>
            <Position>
              <LatitudeDegrees>49.474857710301876068115234375</LatitudeDegrees>
              <LongitudeDegrees>20.03074698150157928466796875</LongitudeDegrees>
            </Position>
            <AltitudeMeters>594.79998779296875</AltitudeMeters>
            <DistanceMeters>NAN</DistanceMeters>
          </Trackpoint>
          <Trackpoint>
            <Time>2022-09-19T13:09:05.000Z</Time>
            <Position>
              <LatitudeDegrees>49.47502090595662593841552734375</LatitudeDegrees>
              <LongitudeDegrees>20.03087732009589672088623046875</LongitudeDegrees>
            </Position>
            <AltitudeMeters>594.79998779296875</AltitudeMeters>
            <DistanceMeters>NAN</DistanceMeters>
          </Trackpoint>
          <Trackpoint>
            <Time>2022-09-19T13:09:11.000Z</Time>
            <Position>
              <LatitudeDegrees>49.47511914186179637908935546875</LatitudeDegrees>
              <LongitudeDegrees>20.0309741310775279998779296875</LongitudeDegrees>
            </Position>
            <AltitudeMeters>594.79998779296875</AltitudeMeters>
            <DistanceMeters>NAN</DistanceMeters>
          </Trackpoint>
          <Trackpoint>
            <Time>2022-09-19T13:09:12.000Z</Time>
            <Position>
              <LatitudeDegrees>49.475146718323230743408203125</LatitudeDegrees>
              <LongitudeDegrees>20.03098167479038238525390625</LongitudeDegrees>
            </Position>
            <AltitudeMeters>594.79998779296875</AltitudeMeters>
            <DistanceMeters>NAN</DistanceMeters>
          </Trackpoint>
          <Trackpoint>
            <Time>2022-09-19T13:09:16.000Z</Time>
            <Position>
              <LatitudeDegrees>49.4752763025462627410888671875</LatitudeDegrees>
              <LongitudeDegrees>20.0310338102281093597412109375</LongitudeDegrees>
            </Position>
            <AltitudeMeters>594.79998779296875</AltitudeMeters>
            <DistanceMeters>NAN</DistanceMeters>
          </Trackpoint>
          <Trackpoint>
            <Time>2022-09-19T13:09:18.000Z</Time>
            <Position>
              <LatitudeDegrees>49.47532986290752887725830078125</LatitudeDegrees>
              <LongitudeDegrees>20.0310623086988925933837890625</LongitudeDegrees>
            </Position>
            <AltitudeMeters>594.5999755859375</AltitudeMeters>
            <DistanceMeters>NAN</DistanceMeters>
          </Trackpoint>
          <Trackpoint>
            <Time>2022-09-19T13:09:26.000Z</Time>
            <Position>
              <LatitudeDegrees>49.47551879100501537322998046875</LatitudeDegrees>
              <LongitudeDegrees>20.0311796553432941436767578125</LongitudeDegrees>
            </Position>
            <AltitudeMeters>594.20001220703125</AltitudeMeters>
            <DistanceMeters>NAN</DistanceMeters>
          </Trackpoint>
          <Trackpoint>
            <Time>2022-09-19T13:09:35.000Z</Time>
            <Position>
              <LatitudeDegrees>49.475700594484806060791015625</LatitudeDegrees>
              <LongitudeDegrees>20.0312956608831882476806640625</LongitudeDegrees>
            </Position>
            <AltitudeMeters>594.20001220703125</AltitudeMeters>
            <DistanceMeters>NAN</DistanceMeters>
          </Trackpoint>
          <Trackpoint>
            <Time>2022-09-19T13:09:44.000Z</Time>
            <Position>
              <LatitudeDegrees>49.47583864443004131317138671875</LatitudeDegrees>
              <LongitudeDegrees>20.03136799670755863189697265625</LongitudeDegrees>
            </Position>
            <AltitudeMeters>594</AltitudeMeters>
            <DistanceMeters>NAN</DistanceMeters>
          </Trackpoint>
          <Trackpoint>
            <Time>2022-09-19T13:09:45.000Z</Time>
            <Position>
              <LatitudeDegrees>49.4758509658277034759521484375</LatitudeDegrees>
              <LongitudeDegrees>20.03135877661406993865966796875</LongitudeDegrees>
            </Position>
            <AltitudeMeters>594</AltitudeMeters>
            <DistanceMeters>NAN</DistanceMeters>
          </Trackpoint>
          <Trackpoint>
            <Time>2022-09-19T13:09:48.000Z</Time>
            <Position>
              <LatitudeDegrees>49.47588759474456310272216796875</LatitudeDegrees>
              <LongitudeDegrees>20.03131569363176822662353515625</LongitudeDegrees>
            </Position>
            <AltitudeMeters>594</AltitudeMeters>
            <DistanceMeters>NAN</DistanceMeters>
          </Trackpoint>
          <Trackpoint>
            <Time>2022-09-19T13:09:49.000Z</Time>
            <Position>
              <LatitudeDegrees>49.47588876821100711822509765625</LatitudeDegrees>
              <LongitudeDegrees>20.03130781464278697967529296875</LongitudeDegrees>
            </Position>
            <AltitudeMeters>594.20001220703125</AltitudeMeters>
            <DistanceMeters>NAN</DistanceMeters>
          </Trackpoint>
          <Trackpoint>
            <Time>2022-09-19T13:09:54.000Z</Time>
            <Position>
              <LatitudeDegrees>49.47590477764606475830078125</LatitudeDegrees>
              <LongitudeDegrees>20.031232126057147979736328125</LongitudeDegrees>
            </Position>
            <AltitudeMeters>594.20001220703125</AltitudeMeters>
            <DistanceMeters>NAN</DistanceMeters>
          </Trackpoint>
          <Trackpoint>
            <Time>2022-09-19T13:10:00.000Z</Time>
            <Position>
              <LatitudeDegrees>49.47595096193253993988037109375</LatitudeDegrees>
              <LongitudeDegrees>20.030990056693553924560546875</LongitudeDegrees>
            </Position>
            <AltitudeMeters>594.20001220703125</AltitudeMeters>
            <DistanceMeters>NAN</DistanceMeters>
          </Trackpoint>
          <Trackpoint>
            <Time>2022-09-19T13:10:07.000Z</Time>
            <Position>
              <LatitudeDegrees>49.47598482482135295867919921875</LatitudeDegrees>
              <LongitudeDegrees>20.03074538893997669219970703125</LongitudeDegrees>
            </Position>
            <AltitudeMeters>594.4000244140625</AltitudeMeters>
            <DistanceMeters>NAN</DistanceMeters>
          </Trackpoint>
          <Trackpoint>
            <Time>2022-09-19T13:10:12.000Z</Time>
            <Position>
              <LatitudeDegrees>49.47601013816893100738525390625</LatitudeDegrees>
              <LongitudeDegrees>20.03071806393563747406005859375</LongitudeDegrees>
            </Position>
            <AltitudeMeters>594</AltitudeMeters>
            <DistanceMeters>NAN</DistanceMeters>
          </Trackpoint>
          <Trackpoint>
            <Time>2022-09-19T13:10:19.000Z</Time>
            <Position>
              <LatitudeDegrees>49.4760125689208507537841796875</LatitudeDegrees>
              <LongitudeDegrees>20.03071211278438568115234375</LongitudeDegrees>
            </Position>
            <AltitudeMeters>594.20001220703125</AltitudeMeters>
            <DistanceMeters>NAN</DistanceMeters>
          </Trackpoint>
          <Trackpoint>
            <Time>2022-09-19T13:10:22.000Z</Time>
            <Position>
              <LatitudeDegrees>49.47604198940098285675048828125</LatitudeDegrees>
              <LongitudeDegrees>20.03069660626351833343505859375</LongitudeDegrees>
            </Position>
            <AltitudeMeters>594.20001220703125</AltitudeMeters>
            <DistanceMeters>NAN</DistanceMeters>
          </Trackpoint>
          <Trackpoint>
            <Time>2022-09-19T13:10:25.000Z</Time>
            <Position>
              <LatitudeDegrees>49.4760799594223499298095703125</LatitudeDegrees>
              <LongitudeDegrees>20.0306432135403156280517578125</LongitudeDegrees>
            </Position>
            <AltitudeMeters>594.20001220703125</AltitudeMeters>
            <DistanceMeters>NAN</DistanceMeters>
          </Trackpoint>
          <Trackpoint>
            <Time>2022-09-19T13:10:27.000Z</Time>
            <Position>
              <LatitudeDegrees>49.4760943762958049774169921875</LatitudeDegrees>
              <LongitudeDegrees>20.03057825379073619842529296875</LongitudeDegrees>
            </Position>
            <AltitudeMeters>594.20001220703125</AltitudeMeters>
            <DistanceMeters>NAN</DistanceMeters>
          </Trackpoint>
          <Trackpoint>
            <Time>2022-09-19T13:10:32.000Z</Time>
            <Position>
              <LatitudeDegrees>49.4761386327445507049560546875</LatitudeDegrees>
              <LongitudeDegrees>20.03035261295735836029052734375</LongitudeDegrees>
            </Position>
            <AltitudeMeters>594.5999755859375</AltitudeMeters>
            <DistanceMeters>NAN</DistanceMeters>
          </Trackpoint>
          <Trackpoint>
            <Time>2022-09-19T13:10:38.000Z</Time>
            <Position>
              <LatitudeDegrees>49.47623108513653278350830078125</LatitudeDegrees>
              <LongitudeDegrees>20.02999596297740936279296875</LongitudeDegrees>
            </Position>
            <AltitudeMeters>594.5999755859375</AltitudeMeters>
            <DistanceMeters>NAN</DistanceMeters>
          </Trackpoint>
          <Trackpoint>
            <Time>2022-09-19T13:10:43.000Z</Time>
            <Position>
              <LatitudeDegrees>49.47630199603736400604248046875</LatitudeDegrees>
              <LongitudeDegrees>20.02973050810396671295166015625</LongitudeDegrees>
            </Position>
            <AltitudeMeters>594.79998779296875</AltitudeMeters>
            <DistanceMeters>NAN</DistanceMeters>
          </Trackpoint>
          <Trackpoint>
            <Time>2022-09-19T13:10:45.000Z</Time>
            <Position>
              <LatitudeDegrees>49.47632814757525920867919921875</LatitudeDegrees>
              <LongitudeDegrees>20.0296491198241710662841796875</LongitudeDegrees>
            </Position>
            <AltitudeMeters>594.79998779296875</AltitudeMeters>
            <DistanceMeters>NAN</DistanceMeters>
          </Trackpoint>
          <Trackpoint>
            <Time>2022-09-19T13:10:49.000Z</Time>
            <Position>
              <LatitudeDegrees>49.4763803668320178985595703125</LatitudeDegrees>
              <LongitudeDegrees>20.029426999390125274658203125</LongitudeDegrees>
            </Position>
            <AltitudeMeters>594.79998779296875</AltitudeMeters>
            <DistanceMeters>NAN</DistanceMeters>
          </Trackpoint>
          <Trackpoint>
            <Time>2022-09-19T13:10:53.000Z</Time>
            <Position>
              <LatitudeDegrees>49.47643862105906009674072265625</LatitudeDegrees>
              <LongitudeDegrees>20.02920513041317462921142578125</LongitudeDegrees>
            </Position>
            <AltitudeMeters>594.79998779296875</AltitudeMeters>
            <DistanceMeters>NAN</DistanceMeters>
          </Trackpoint>
          <Trackpoint>
            <Time>2022-09-19T13:10:54.000Z</Time>
            <Position>
              <LatitudeDegrees>49.47645236738026142120361328125</LatitudeDegrees>
              <LongitudeDegrees>20.02915618009865283966064453125</LongitudeDegrees>
            </Position>
            <AltitudeMeters>594.79998779296875</AltitudeMeters>
            <DistanceMeters>NAN</DistanceMeters>
          </Trackpoint>
          <Trackpoint>
            <Time>2022-09-19T13:10:55.000Z</Time>
            <Position>
              <LatitudeDegrees>49.47646141983568668365478515625</LatitudeDegrees>
              <LongitudeDegrees>20.02910756506025791168212890625</LongitudeDegrees>
            </Position>
            <AltitudeMeters>595</AltitudeMeters>
            <DistanceMeters>NAN</DistanceMeters>
          </Trackpoint>
          <Trackpoint>
            <Time>2022-09-19T13:10:59.000Z</Time>
            <Position>
              <LatitudeDegrees>49.476507268846035003662109375</LatitudeDegrees>
              <LongitudeDegrees>20.02891159616410732269287109375</LongitudeDegrees>
            </Position>
            <AltitudeMeters>595</AltitudeMeters>
            <DistanceMeters>NAN</DistanceMeters>
          </Trackpoint>
          <Trackpoint>
            <Time>2022-09-19T13:11:03.000Z</Time>
            <Position>
              <LatitudeDegrees>49.4765483401715755462646484375</LatitudeDegrees>
              <LongitudeDegrees>20.02870506606996059417724609375</LongitudeDegrees>
            </Position>
            <AltitudeMeters>595</AltitudeMeters>
            <DistanceMeters>NAN</DistanceMeters>
          </Trackpoint>
          <Trackpoint>
            <Time>2022-09-19T13:11:08.000Z</Time>
            <Position>
              <LatitudeDegrees>49.47660475037992000579833984375</LatitudeDegrees>
              <LongitudeDegrees>20.02845746465027332305908203125</LongitudeDegrees>
            </Position>
            <AltitudeMeters>594.79998779296875</AltitudeMeters>
            <DistanceMeters>NAN</DistanceMeters>
          </Trackpoint>
          <Trackpoint>
            <Time>2022-09-19T13:11:10.000Z</Time>
            <Position>
              <LatitudeDegrees>49.47662520222365856170654296875</LatitudeDegrees>
              <LongitudeDegrees>20.028356127440929412841796875</LongitudeDegrees>
            </Position>
            <AltitudeMeters>594.79998779296875</AltitudeMeters>
            <DistanceMeters>NAN</DistanceMeters>
          </Trackpoint>
          <Trackpoint>
            <Time>2022-09-19T13:11:11.000Z</Time>
            <Position>
              <LatitudeDegrees>49.47663777507841587066650390625</LatitudeDegrees>
              <LongitudeDegrees>20.02830524928867816925048828125</LongitudeDegrees>
            </Position>
            <AltitudeMeters>594.79998779296875</AltitudeMeters>
            <DistanceMeters>NAN</DistanceMeters>
          </Trackpoint>
          <Trackpoint>
            <Time>2022-09-19T13:11:13.000Z</Time>
            <Position>
              <LatitudeDegrees>49.476664848625659942626953125</LatitudeDegrees>
              <LongitudeDegrees>20.02819997258484363555908203125</LongitudeDegrees>
            </Position>
            <AltitudeMeters>594.5999755859375</AltitudeMeters>
            <DistanceMeters>NAN</DistanceMeters>
          </Trackpoint>
          <Trackpoint>
            <Time>2022-09-19T13:11:20.000Z</Time>
            <Position>
              <LatitudeDegrees>49.4767464883625507354736328125</LatitudeDegrees>
              <LongitudeDegrees>20.0278768502175807952880859375</LongitudeDegrees>
            </Position>
            <AltitudeMeters>594.20001220703125</AltitudeMeters>
            <DistanceMeters>NAN</DistanceMeters>
          </Trackpoint>
          <Trackpoint>
            <Time>2022-09-19T13:11:23.000Z</Time>
            <Position>
              <LatitudeDegrees>49.476777501404285430908203125</LatitudeDegrees>
              <LongitudeDegrees>20.02775589935481548309326171875</LongitudeDegrees>
            </Position>
            <AltitudeMeters>594</AltitudeMeters>
            <DistanceMeters>NAN</DistanceMeters>
          </Trackpoint>
          <Trackpoint>
            <Time>2022-09-19T13:11:27.000Z</Time>
            <Position>
              <LatitudeDegrees>49.4768195785582065582275390625</LatitudeDegrees>
              <LongitudeDegrees>20.02761357463896274566650390625</LongitudeDegrees>
            </Position>
            <AltitudeMeters>593.79998779296875</AltitudeMeters>
            <DistanceMeters>NAN</DistanceMeters>
          </Trackpoint>
          <Trackpoint>
            <Time>2022-09-19T13:11:29.000Z</Time>
            <Position>
              <LatitudeDegrees>49.47684296406805515289306640625</LatitudeDegrees>
              <LongitudeDegrees>20.0275539793074131011962890625</LongitudeDegrees>
            </Position>
            <AltitudeMeters>593.79998779296875</AltitudeMeters>
            <DistanceMeters>NAN</DistanceMeters>
          </Trackpoint>
          <Trackpoint>
            <Time>2022-09-19T13:11:34.000Z</Time>
            <Position>
              <LatitudeDegrees>49.4769630767405033111572265625</LatitudeDegrees>
              <LongitudeDegrees>20.02745130099356174468994140625</LongitudeDegrees>
            </Position>
            <AltitudeMeters>593.5999755859375</AltitudeMeters>
            <DistanceMeters>NAN</DistanceMeters>
          </Trackpoint>
          <Trackpoint>
            <Time>2022-09-19T13:11:41.000Z</Time>
            <Position>
              <LatitudeDegrees>49.47711311280727386474609375</LatitudeDegrees>
              <LongitudeDegrees>20.0274359621107578277587890625</LongitudeDegrees>
            </Position>
            <AltitudeMeters>593.5999755859375</AltitudeMeters>
            <DistanceMeters>NAN</DistanceMeters>
          </Trackpoint>
          <Trackpoint>
            <Time>2022-09-19T13:11:42.000Z</Time>
            <Position>
              <LatitudeDegrees>49.47712208144366741180419921875</LatitudeDegrees>
              <LongitudeDegrees>20.02743302844464778900146484375</LongitudeDegrees>
            </Position>
            <AltitudeMeters>593.4000244140625</AltitudeMeters>
            <DistanceMeters>NAN</DistanceMeters>
          </Trackpoint>
          <Trackpoint>
            <Time>2022-09-19T13:11:48.000Z</Time>
            <Position>
              <LatitudeDegrees>49.4771260209381580352783203125</LatitudeDegrees>
              <LongitudeDegrees>20.02743219025433063507080078125</LongitudeDegrees>
            </Position>
            <AltitudeMeters>593.20001220703125</AltitudeMeters>
            <DistanceMeters>NAN</DistanceMeters>
          </Trackpoint>
          <Trackpoint>
            <Time>2022-09-19T13:11:55.000Z</Time>
            <Position>
              <LatitudeDegrees>49.4771260209381580352783203125</LatitudeDegrees>
              <LongitudeDegrees>20.02743219025433063507080078125</LongitudeDegrees>
            </Position>
            <AltitudeMeters>593</AltitudeMeters>
            <DistanceMeters>NAN</DistanceMeters>
          </Trackpoint>
          <Trackpoint>
            <Time>2022-09-19T13:11:59.000Z</Time>
            <Position>
              <LatitudeDegrees>49.4771260209381580352783203125</LatitudeDegrees>
              <LongitudeDegrees>20.02743219025433063507080078125</LongitudeDegrees>
            </Position>
            <AltitudeMeters>593</AltitudeMeters>
            <DistanceMeters>NAN</DistanceMeters>
          </Trackpoint>
          <Trackpoint>
            <Time>2022-09-19T13:12:04.000Z</Time>
            <Position>
              <LatitudeDegrees>49.4771260209381580352783203125</LatitudeDegrees>
              <LongitudeDegrees>20.02743219025433063507080078125</LongitudeDegrees>
            </Position>
            <AltitudeMeters>593</AltitudeMeters>
            <DistanceMeters>NAN</DistanceMeters>
          </Trackpoint>
          <Trackpoint>
            <Time>2022-09-19T13:12:11.000Z</Time>
            <Position>
              <LatitudeDegrees>49.4771260209381580352783203125</LatitudeDegrees>
              <LongitudeDegrees>20.02743219025433063507080078125</LongitudeDegrees>
            </Position>
            <AltitudeMeters>593</AltitudeMeters>
            <DistanceMeters>NAN</DistanceMeters>
          </Trackpoint>
          <Trackpoint>
            <Time>2022-09-19T13:12:26.000Z</Time>
            <Position>
              <LatitudeDegrees>49.4771260209381580352783203125</LatitudeDegrees>
              <LongitudeDegrees>20.02743219025433063507080078125</LongitudeDegrees>
            </Position>
            <AltitudeMeters>593</AltitudeMeters>
            <DistanceMeters>NAN</DistanceMeters>
          </Trackpoint>
          <Trackpoint>
            <Time>2022-09-19T13:12:37.000Z</Time>
            <Position>
              <LatitudeDegrees>49.47716734372079372406005859375</LatitudeDegrees>
              <LongitudeDegrees>20.02742531709372997283935546875</LongitudeDegrees>
            </Position>
            <AltitudeMeters>592.79998779296875</AltitudeMeters>
            <DistanceMeters>NAN</DistanceMeters>
          </Trackpoint>
          <Trackpoint>
            <Time>2022-09-19T13:12:38.000Z</Time>
            <Position>
              <LatitudeDegrees>49.47719089686870574951171875</LatitudeDegrees>
              <LongitudeDegrees>20.0274242274463176727294921875</LongitudeDegrees>
            </Position>
            <AltitudeMeters>592.79998779296875</AltitudeMeters>
            <DistanceMeters>NAN</DistanceMeters>
          </Trackpoint>
          <Trackpoint>
            <Time>2022-09-19T13:12:39.000Z</Time>
            <Position>
              <LatitudeDegrees>49.477215707302093505859375</LatitudeDegrees>
              <LongitudeDegrees>20.02742364071309566497802734375</LongitudeDegrees>
            </Position>
            <AltitudeMeters>592.79998779296875</AltitudeMeters>
            <DistanceMeters>NAN</DistanceMeters>
          </Trackpoint>
          <Trackpoint>
            <Time>2022-09-19T13:12:44.000Z</Time>
            <Position>
              <LatitudeDegrees>49.47736331261694431304931640625</LatitudeDegrees>
              <LongitudeDegrees>20.02741291187703609466552734375</LongitudeDegrees>
            </Position>
            <AltitudeMeters>592.5999755859375</AltitudeMeters>
            <DistanceMeters>NAN</DistanceMeters>
          </Trackpoint>
          <Trackpoint>
            <Time>2022-09-19T13:12:49.000Z</Time>
            <Position>
              <LatitudeDegrees>49.4774700142443180084228515625</LatitudeDegrees>
              <LongitudeDegrees>20.027454905211925506591796875</LongitudeDegrees>
            </Position>
            <AltitudeMeters>592.79998779296875</AltitudeMeters>
            <DistanceMeters>NAN</DistanceMeters>
          </Trackpoint>
          <Trackpoint>
            <Time>2022-09-19T13:12:51.000Z</Time>
            <Position>
              <LatitudeDegrees>49.477510415017604827880859375</LatitudeDegrees>
              <LongitudeDegrees>20.02750813029706478118896484375</LongitudeDegrees>
            </Position>
            <AltitudeMeters>592.79998779296875</AltitudeMeters>
            <DistanceMeters>NAN</DistanceMeters>
          </Trackpoint>
          <Trackpoint>
            <Time>2022-09-19T13:12:53.000Z</Time>
            <Position>
              <LatitudeDegrees>49.477547965943813323974609375</LatitudeDegrees>
              <LongitudeDegrees>20.0274993292987346649169921875</LongitudeDegrees>
            </Position>
            <AltitudeMeters>593</AltitudeMeters>
            <DistanceMeters>NAN</DistanceMeters>
          </Trackpoint>
          <Trackpoint>
            <Time>2022-09-19T13:12:55.000Z</Time>
            <Position>
              <LatitudeDegrees>49.4775628857314586639404296875</LatitudeDegrees>
              <LongitudeDegrees>20.0274604372680187225341796875</LongitudeDegrees>
            </Position>
            <AltitudeMeters>593.4000244140625</AltitudeMeters>
            <DistanceMeters>NAN</DistanceMeters>
          </Trackpoint>
          <Trackpoint>
            <Time>2022-09-19T13:12:57.000Z</Time>
            <Position>
              <LatitudeDegrees>49.47757168672978878021240234375</LatitudeDegrees>
              <LongitudeDegrees>20.0274403207004070281982421875</LongitudeDegrees>
            </Position>
            <AltitudeMeters>593.20001220703125</AltitudeMeters>
            <DistanceMeters>NAN</DistanceMeters>
          </Trackpoint>
          <Trackpoint>
            <Time>2022-09-19T13:13:00.000Z</Time>
            <Position>
              <LatitudeDegrees>49.47758928872644901275634765625</LatitudeDegrees>
              <LongitudeDegrees>20.027413666248321533203125</LongitudeDegrees>
            </Position>
            <AltitudeMeters>593</AltitudeMeters>
            <DistanceMeters>NAN</DistanceMeters>
          </Trackpoint>
          <Trackpoint>
            <Time>2022-09-19T13:13:02.000Z</Time>
            <Position>
              <LatitudeDegrees>49.4775980897247791290283203125</LatitudeDegrees>
              <LongitudeDegrees>20.02738877199590206146240234375</LongitudeDegrees>
            </Position>
            <AltitudeMeters>592.79998779296875</AltitudeMeters>
            <DistanceMeters>NAN</DistanceMeters>
          </Trackpoint>
          <Trackpoint>
            <Time>2022-09-19T13:13:03.000Z</Time>
            <Position>
              <LatitudeDegrees>49.4775977544486522674560546875</LatitudeDegrees>
              <LongitudeDegrees>20.0273581780493259429931640625</LongitudeDegrees>
            </Position>
            <AltitudeMeters>592.79998779296875</AltitudeMeters>
            <DistanceMeters>NAN</DistanceMeters>
          </Trackpoint>
          <Trackpoint>
            <Time>2022-09-19T13:13:06.000Z</Time>
            <Position>
              <LatitudeDegrees>49.47759951464831829071044921875</LatitudeDegrees>
              <LongitudeDegrees>20.02727762795984745025634765625</LongitudeDegrees>
            </Position>
            <AltitudeMeters>592.79998779296875</AltitudeMeters>
            <DistanceMeters>NAN</DistanceMeters>
          </Trackpoint>
          <Trackpoint>
            <Time>2022-09-19T13:13:07.000Z</Time>
            <Position>
              <LatitudeDegrees>49.47759867645800113677978515625</LatitudeDegrees>
              <LongitudeDegrees>20.0272545777261257171630859375</LongitudeDegrees>
            </Position>
            <AltitudeMeters>592.79998779296875</AltitudeMeters>
            <DistanceMeters>NAN</DistanceMeters>
          </Trackpoint>
          <Trackpoint>
            <Time>2022-09-19T13:13:08.000Z</Time>
            <Position>
              <LatitudeDegrees>49.4776032865047454833984375</LatitudeDegrees>
              <LongitudeDegrees>20.0272297672927379608154296875</LongitudeDegrees>
            </Position>
            <AltitudeMeters>592.79998779296875</AltitudeMeters>
            <DistanceMeters>NAN</DistanceMeters>
          </Trackpoint>
          <Trackpoint>
            <Time>2022-09-19T13:13:09.000Z</Time>
            <Position>
              <LatitudeDegrees>49.47761259041726589202880859375</LatitudeDegrees>
              <LongitudeDegrees>20.02720973454415798187255859375</LongitudeDegrees>
            </Position>
            <AltitudeMeters>592.79998779296875</AltitudeMeters>
            <DistanceMeters>NAN</DistanceMeters>
          </Trackpoint>
          <Trackpoint>
            <Time>2022-09-19T13:13:12.000Z</Time>
            <Position>
              <LatitudeDegrees>49.477666318416595458984375</LatitudeDegrees>
              <LongitudeDegrees>20.02720554359257221221923828125</LongitudeDegrees>
            </Position>
            <AltitudeMeters>592.79998779296875</AltitudeMeters>
            <DistanceMeters>NAN</DistanceMeters>
          </Trackpoint>
          <Trackpoint>
            <Time>2022-09-19T13:13:18.000Z</Time>
            <Position>
              <LatitudeDegrees>49.47782968170940876007080078125</LatitudeDegrees>
              <LongitudeDegrees>20.02718173898756504058837890625</LongitudeDegrees>
            </Position>
            <AltitudeMeters>592.79998779296875</AltitudeMeters>
            <DistanceMeters>NAN</DistanceMeters>
          </Trackpoint>
          <Trackpoint>
            <Time>2022-09-19T13:13:21.000Z</Time>
            <Position>
              <LatitudeDegrees>49.47791836224496364593505859375</LatitudeDegrees>
              <LongitudeDegrees>20.0271509774029254913330078125</LongitudeDegrees>
            </Position>
            <AltitudeMeters>593.4000244140625</AltitudeMeters>
            <DistanceMeters>NAN</DistanceMeters>
          </Trackpoint>
          <Trackpoint>
            <Time>2022-09-19T13:13:25.000Z</Time>
            <Position>
              <LatitudeDegrees>49.47800402529537677764892578125</LatitudeDegrees>
              <LongitudeDegrees>20.027139745652675628662109375</LongitudeDegrees>
            </Position>
            <AltitudeMeters>593.4000244140625</AltitudeMeters>
            <DistanceMeters>NAN</DistanceMeters>
          </Trackpoint>
          <Trackpoint>
            <Time>2022-09-19T13:13:30.000Z</Time>
            <Position>
              <LatitudeDegrees>49.4780949689447879791259765625</LatitudeDegrees>
              <LongitudeDegrees>20.02713077701628208160400390625</LongitudeDegrees>
            </Position>
            <AltitudeMeters>593</AltitudeMeters>
            <DistanceMeters>NAN</DistanceMeters>
          </Trackpoint>
          <Trackpoint>
            <Time>2022-09-19T13:13:39.000Z</Time>
            <Position>
              <LatitudeDegrees>49.4782914407551288604736328125</LatitudeDegrees>
              <LongitudeDegrees>20.0271563418209552764892578125</LongitudeDegrees>
            </Position>
            <AltitudeMeters>592.79998779296875</AltitudeMeters>
            <DistanceMeters>NAN</DistanceMeters>
          </Trackpoint>
          <Trackpoint>
            <Time>2022-09-19T13:13:45.000Z</Time>
            <Position>
              <LatitudeDegrees>49.478410966694355010986328125</LatitudeDegrees>
              <LongitudeDegrees>20.027127675712108612060546875</LongitudeDegrees>
            </Position>
            <AltitudeMeters>592.5999755859375</AltitudeMeters>
            <DistanceMeters>NAN</DistanceMeters>
          </Trackpoint>
          <Trackpoint>
            <Time>2022-09-19T13:13:47.000Z</Time>
            <Position>
              <LatitudeDegrees>49.47843116708099842071533203125</LatitudeDegrees>
              <LongitudeDegrees>20.0271151028573513031005859375</LongitudeDegrees>
            </Position>
            <AltitudeMeters>592.5999755859375</AltitudeMeters>
            <DistanceMeters>NAN</DistanceMeters>
          </Trackpoint>
          <Trackpoint>
            <Time>2022-09-19T13:13:51.000Z</Time>
            <Position>
              <LatitudeDegrees>49.4784369505941867828369140625</LatitudeDegrees>
              <LongitudeDegrees>20.0271134264767169952392578125</LongitudeDegrees>
            </Position>
            <AltitudeMeters>592</AltitudeMeters>
            <DistanceMeters>NAN</DistanceMeters>
          </Trackpoint>
          <Trackpoint>
            <Time>2022-09-19T13:14:02.000Z</Time>
            <Position>
              <LatitudeDegrees>49.47843770496547222137451171875</LatitudeDegrees>
              <LongitudeDegrees>20.0271134264767169952392578125</LongitudeDegrees>
            </Position>
            <AltitudeMeters>592</AltitudeMeters>
            <DistanceMeters>NAN</DistanceMeters>
          </Trackpoint>
          <Trackpoint>
            <Time>2022-09-19T13:14:11.000Z</Time>
            <Position>
              <LatitudeDegrees>49.47843770496547222137451171875</LatitudeDegrees>
              <LongitudeDegrees>20.02711334265768527984619140625</LongitudeDegrees>
            </Position>
            <AltitudeMeters>592</AltitudeMeters>
            <DistanceMeters>NAN</DistanceMeters>
          </Trackpoint>
          <Trackpoint>
            <Time>2022-09-19T13:14:15.000Z</Time>
            <Position>
              <LatitudeDegrees>49.4784386269748210906982421875</LatitudeDegrees>
              <LongitudeDegrees>20.02711258828639984130859375</LongitudeDegrees>
            </Position>
            <AltitudeMeters>592</AltitudeMeters>
            <DistanceMeters>NAN</DistanceMeters>
          </Trackpoint>
          <Trackpoint>
            <Time>2022-09-19T13:14:18.000Z</Time>
            <Position>
              <LatitudeDegrees>49.4784386269748210906982421875</LatitudeDegrees>
              <LongitudeDegrees>20.02711258828639984130859375</LongitudeDegrees>
            </Position>
            <AltitudeMeters>592</AltitudeMeters>
            <DistanceMeters>NAN</DistanceMeters>
          </Trackpoint>
          <Trackpoint>
            <Time>2022-09-19T13:14:25.000Z</Time>
            <Position>
              <LatitudeDegrees>49.4784443266689777374267578125</LatitudeDegrees>
              <LongitudeDegrees>20.0271110795438289642333984375</LongitudeDegrees>
            </Position>
            <AltitudeMeters>592</AltitudeMeters>
            <DistanceMeters>NAN</DistanceMeters>
          </Trackpoint>
          <Trackpoint>
            <Time>2022-09-19T13:14:29.000Z</Time>
            <Position>
              <LatitudeDegrees>49.47844692505896091461181640625</LatitudeDegrees>
              <LongitudeDegrees>20.02710588276386260986328125</LongitudeDegrees>
            </Position>
            <AltitudeMeters>592</AltitudeMeters>
            <DistanceMeters>NAN</DistanceMeters>
          </Trackpoint>
          <Trackpoint>
            <Time>2022-09-19T13:14:34.000Z</Time>
            <Position>
              <LatitudeDegrees>49.47844617068767547607421875</LatitudeDegrees>
              <LongitudeDegrees>20.0271067209541797637939453125</LongitudeDegrees>
            </Position>
            <AltitudeMeters>592</AltitudeMeters>
            <DistanceMeters>NAN</DistanceMeters>
          </Trackpoint>
          <Trackpoint>
            <Time>2022-09-19T13:14:37.000Z</Time>
            <Position>
              <LatitudeDegrees>49.47840987704694271087646484375</LatitudeDegrees>
              <LongitudeDegrees>20.0271379016339778900146484375</LongitudeDegrees>
            </Position>
            <AltitudeMeters>592</AltitudeMeters>
            <DistanceMeters>NAN</DistanceMeters>
          </Trackpoint>
          <Trackpoint>
            <Time>2022-09-19T13:14:42.000Z</Time>
            <Position>
              <LatitudeDegrees>49.47838640771806240081787109375</LatitudeDegrees>
              <LongitudeDegrees>20.02714879810810089111328125</LongitudeDegrees>
            </Position>
            <AltitudeMeters>592.4000244140625</AltitudeMeters>
            <DistanceMeters>NAN</DistanceMeters>
          </Trackpoint>
          <Trackpoint>
            <Time>2022-09-19T13:14:43.000Z</Time>
            <Position>
              <LatitudeDegrees>49.4783762656152248382568359375</LatitudeDegrees>
              <LongitudeDegrees>20.0271603651344776153564453125</LongitudeDegrees>
            </Position>
            <AltitudeMeters>592.4000244140625</AltitudeMeters>
            <DistanceMeters>NAN</DistanceMeters>
          </Trackpoint>
          <Trackpoint>
            <Time>2022-09-19T13:14:44.000Z</Time>
            <Position>
              <LatitudeDegrees>49.47836444713175296783447265625</LatitudeDegrees>
              <LongitudeDegrees>20.0271677412092685699462890625</LongitudeDegrees>
            </Position>
            <AltitudeMeters>592.5999755859375</AltitudeMeters>
            <DistanceMeters>NAN</DistanceMeters>
          </Trackpoint>
          <Trackpoint>
            <Time>2022-09-19T13:14:46.000Z</Time>
            <Position>
              <LatitudeDegrees>49.4783249683678150177001953125</LatitudeDegrees>
              <LongitudeDegrees>20.0271856784820556640625</LongitudeDegrees>
            </Position>
            <AltitudeMeters>592.5999755859375</AltitudeMeters>
            <DistanceMeters>NAN</DistanceMeters>
          </Trackpoint>
          <Trackpoint>
            <Time>2022-09-19T13:14:49.000Z</Time>
            <Position>
              <LatitudeDegrees>49.478290937840938568115234375</LatitudeDegrees>
              <LongitudeDegrees>20.0272109918296337127685546875</LongitudeDegrees>
            </Position>
            <AltitudeMeters>592.79998779296875</AltitudeMeters>
            <DistanceMeters>NAN</DistanceMeters>
          </Trackpoint>
          <Trackpoint>
            <Time>2022-09-19T13:14:56.000Z</Time>
            <Position>
              <LatitudeDegrees>49.4782237149775028228759765625</LatitudeDegrees>
              <LongitudeDegrees>20.02720990218222141265869140625</LongitudeDegrees>
            </Position>
            <AltitudeMeters>592.5999755859375</AltitudeMeters>
            <DistanceMeters>NAN</DistanceMeters>
          </Trackpoint>
          <Trackpoint>
            <Time>2022-09-19T13:15:03.000Z</Time>
            <Position>
              <LatitudeDegrees>49.47817535139620304107666015625</LatitudeDegrees>
              <LongitudeDegrees>20.0271841697394847869873046875</LongitudeDegrees>
            </Position>
            <AltitudeMeters>592.4000244140625</AltitudeMeters>
            <DistanceMeters>NAN</DistanceMeters>
          </Trackpoint>
          <Trackpoint>
            <Time>2022-09-19T13:15:08.000Z</Time>
            <Position>
              <LatitudeDegrees>49.47818473912775516510009765625</LatitudeDegrees>
              <LongitudeDegrees>20.027112923562526702880859375</LongitudeDegrees>
            </Position>
            <AltitudeMeters>592.20001220703125</AltitudeMeters>
            <DistanceMeters>NAN</DistanceMeters>
          </Trackpoint>
          <Trackpoint>
            <Time>2022-09-19T13:15:17.000Z</Time>
            <Position>
              <LatitudeDegrees>49.4781781174242496490478515625</LatitudeDegrees>
              <LongitudeDegrees>20.0270332954823970794677734375</LongitudeDegrees>
            </Position>
            <AltitudeMeters>592.20001220703125</AltitudeMeters>
            <DistanceMeters>NAN</DistanceMeters>
          </Trackpoint>
          <Trackpoint>
            <Time>2022-09-19T13:15:28.000Z</Time>
            <Position>
              <LatitudeDegrees>49.4781791232526302337646484375</LatitudeDegrees>
              <LongitudeDegrees>20.02686540596187114715576171875</LongitudeDegrees>
            </Position>
            <AltitudeMeters>592.20001220703125</AltitudeMeters>
            <DistanceMeters>NAN</DistanceMeters>
          </Trackpoint>
          <Trackpoint>
            <Time>2022-09-19T13:15:32.000Z</Time>
            <Position>
              <LatitudeDegrees>49.478201754391193389892578125</LatitudeDegrees>
              <LongitudeDegrees>20.026827938854694366455078125</LongitudeDegrees>
            </Position>
            <AltitudeMeters>592.5999755859375</AltitudeMeters>
            <DistanceMeters>NAN</DistanceMeters>
          </Trackpoint>
          <Trackpoint>
            <Time>2022-09-19T13:15:36.000Z</Time>
            <Position>
              <LatitudeDegrees>49.47824676521122455596923828125</LatitudeDegrees>
              <LongitudeDegrees>20.0268143601715564727783203125</LongitudeDegrees>
            </Position>
            <AltitudeMeters>592.5999755859375</AltitudeMeters>
            <DistanceMeters>NAN</DistanceMeters>
          </Trackpoint>
          <Trackpoint>
            <Time>2022-09-19T13:15:37.000Z</Time>
            <Position>
              <LatitudeDegrees>49.47824676521122455596923828125</LatitudeDegrees>
              <LongitudeDegrees>20.0268143601715564727783203125</LongitudeDegrees>
            </Position>
            <AltitudeMeters>592.79998779296875</AltitudeMeters>
            <DistanceMeters>NAN</DistanceMeters>
          </Trackpoint>
          <Trackpoint>
            <Time>2022-09-19T13:15:41.000Z</Time>
            <Position>
              <LatitudeDegrees>49.47825573384761810302734375</LatitudeDegrees>
              <LongitudeDegrees>20.026806481182575225830078125</LongitudeDegrees>
            </Position>
            <AltitudeMeters>593.20001220703125</AltitudeMeters>
            <DistanceMeters>NAN</DistanceMeters>
          </Trackpoint>
          <Trackpoint>
            <Time>2022-09-19T13:15:44.000Z</Time>
            <Position>
              <LatitudeDegrees>49.4782792031764984130859375</LatitudeDegrees>
              <LongitudeDegrees>20.0268059782683849334716796875</LongitudeDegrees>
            </Position>
            <AltitudeMeters>593.4000244140625</AltitudeMeters>
            <DistanceMeters>NAN</DistanceMeters>
          </Trackpoint>
          <Trackpoint>
            <Time>2022-09-19T13:15:45.000Z</Time>
            <Position>
              <LatitudeDegrees>49.47828247211873531341552734375</LatitudeDegrees>
              <LongitudeDegrees>20.0268032960593700408935546875</LongitudeDegrees>
            </Position>
            <AltitudeMeters>593.4000244140625</AltitudeMeters>
            <DistanceMeters>NAN</DistanceMeters>
          </Trackpoint>
          <Trackpoint>
            <Time>2022-09-19T13:15:50.000Z</Time>
            <Position>
              <LatitudeDegrees>49.47829085402190685272216796875</LatitudeDegrees>
              <LongitudeDegrees>20.02681008540093898773193359375</LongitudeDegrees>
            </Position>
            <AltitudeMeters>593.79998779296875</AltitudeMeters>
            <DistanceMeters>NAN</DistanceMeters>
          </Trackpoint>
          <Trackpoint>
            <Time>2022-09-19T13:15:51.000Z</Time>
            <Position>
              <LatitudeDegrees>49.47829194366931915283203125</LatitudeDegrees>
              <LongitudeDegrees>20.02682433463633060455322265625</LongitudeDegrees>
            </Position>
            <AltitudeMeters>594</AltitudeMeters>
            <DistanceMeters>NAN</DistanceMeters>
          </Trackpoint>
          <Trackpoint>
            <Time>2022-09-19T13:15:58.000Z</Time>
            <Position>
              <LatitudeDegrees>49.4783041812479496002197265625</LatitudeDegrees>
              <LongitudeDegrees>20.02684495411813259124755859375</LongitudeDegrees>
            </Position>
            <AltitudeMeters>594</AltitudeMeters>
            <DistanceMeters>NAN</DistanceMeters>
          </Trackpoint>
          <Trackpoint>
            <Time>2022-09-19T13:16:01.000Z</Time>
            <Position>
              <LatitudeDegrees>49.4783041812479496002197265625</LatitudeDegrees>
              <LongitudeDegrees>20.02684495411813259124755859375</LongitudeDegrees>
            </Position>
            <AltitudeMeters>594</AltitudeMeters>
            <DistanceMeters>NAN</DistanceMeters>
          </Trackpoint>
          <Trackpoint>
            <Time>2022-09-19T13:16:03.000Z</Time>
            <Position>
              <LatitudeDegrees>49.4783041812479496002197265625</LatitudeDegrees>
              <LongitudeDegrees>20.02684495411813259124755859375</LongitudeDegrees>
            </Position>
            <AltitudeMeters>594</AltitudeMeters>
            <DistanceMeters>NAN</DistanceMeters>
          </Trackpoint>
          <Trackpoint>
            <Time>2022-09-19T13:16:19.000Z</Time>
            <Position>
              <LatitudeDegrees>49.4783041812479496002197265625</LatitudeDegrees>
              <LongitudeDegrees>20.02684495411813259124755859375</LongitudeDegrees>
            </Position>
            <AltitudeMeters>594</AltitudeMeters>
            <DistanceMeters>NAN</DistanceMeters>
          </Trackpoint>
          <Trackpoint>
            <Time>2022-09-19T13:16:24.000Z</Time>
            <Position>
              <LatitudeDegrees>49.47831231169402599334716796875</LatitudeDegrees>
              <LongitudeDegrees>20.02683908678591251373291015625</LongitudeDegrees>
            </Position>
            <AltitudeMeters>593.79998779296875</AltitudeMeters>
            <DistanceMeters>NAN</DistanceMeters>
          </Trackpoint>
          <Trackpoint>
            <Time>2022-09-20T07:10:58.000Z</Time>
            <Position>
              <LatitudeDegrees>49.47876543737947940826416015625</LatitudeDegrees>
              <LongitudeDegrees>20.026282109320163726806640625</LongitudeDegrees>
            </Position>
            <AltitudeMeters>584</AltitudeMeters>
            <DistanceMeters>NAN</DistanceMeters>
          </Trackpoint>
          <Trackpoint>
            <Time>2022-09-20T07:11:01.000Z</Time>
            <Position>
              <LatitudeDegrees>49.4785382039844989776611328125</LatitudeDegrees>
              <LongitudeDegrees>20.02701946534216403961181640625</LongitudeDegrees>
            </Position>
            <AltitudeMeters>584.20001220703125</AltitudeMeters>
            <DistanceMeters>NAN</DistanceMeters>
          </Trackpoint>
          <Trackpoint>
            <Time>2022-09-20T07:11:11.000Z</Time>
            <Position>
              <LatitudeDegrees>49.47852672077715396881103515625</LatitudeDegrees>
              <LongitudeDegrees>20.0270430184900760650634765625</LongitudeDegrees>
            </Position>
            <AltitudeMeters>584.20001220703125</AltitudeMeters>
            <DistanceMeters>NAN</DistanceMeters>
          </Trackpoint>
          <Trackpoint>
            <Time>2022-09-20T07:11:20.000Z</Time>
            <Position>
              <LatitudeDegrees>49.47850920259952545166015625</LatitudeDegrees>
              <LongitudeDegrees>20.02703773789107799530029296875</LongitudeDegrees>
            </Position>
            <AltitudeMeters>584</AltitudeMeters>
            <DistanceMeters>NAN</DistanceMeters>
          </Trackpoint>
          <Trackpoint>
            <Time>2022-09-20T07:11:26.000Z</Time>
            <Position>
              <LatitudeDegrees>49.47851029224693775177001953125</LatitudeDegrees>
              <LongitudeDegrees>20.02692441456019878387451171875</LongitudeDegrees>
            </Position>
            <AltitudeMeters>584.4000244140625</AltitudeMeters>
            <DistanceMeters>NAN</DistanceMeters>
          </Trackpoint>
          <Trackpoint>
            <Time>2022-09-20T07:11:28.000Z</Time>
            <Position>
              <LatitudeDegrees>49.47851029224693775177001953125</LatitudeDegrees>
              <LongitudeDegrees>20.02692441456019878387451171875</LongitudeDegrees>
            </Position>
            <AltitudeMeters>584.4000244140625</AltitudeMeters>
            <DistanceMeters>NAN</DistanceMeters>
          </Trackpoint>
          <Trackpoint>
            <Time>2022-09-20T07:11:37.000Z</Time>
            <Position>
              <LatitudeDegrees>49.47850048542022705078125</LatitudeDegrees>
              <LongitudeDegrees>20.02688325941562652587890625</LongitudeDegrees>
            </Position>
            <AltitudeMeters>584.4000244140625</AltitudeMeters>
            <DistanceMeters>NAN</DistanceMeters>
          </Trackpoint>
          <Trackpoint>
            <Time>2022-09-20T07:11:39.000Z</Time>
            <Position>
              <LatitudeDegrees>49.4784791953861713409423828125</LatitudeDegrees>
              <LongitudeDegrees>20.02681192941963672637939453125</LongitudeDegrees>
            </Position>
            <AltitudeMeters>584.4000244140625</AltitudeMeters>
            <DistanceMeters>NAN</DistanceMeters>
          </Trackpoint>
          <Trackpoint>
            <Time>2022-09-20T07:11:40.000Z</Time>
            <Position>
              <LatitudeDegrees>49.47846419177949428558349609375</LatitudeDegrees>
              <LongitudeDegrees>20.026773624122142791748046875</LongitudeDegrees>
            </Position>
            <AltitudeMeters>584.4000244140625</AltitudeMeters>
            <DistanceMeters>NAN</DistanceMeters>
          </Trackpoint>
          <Trackpoint>
            <Time>2022-09-20T07:11:43.000Z</Time>
            <Position>
              <LatitudeDegrees>49.4784133136272430419921875</LatitudeDegrees>
              <LongitudeDegrees>20.026681087911128997802734375</LongitudeDegrees>
            </Position>
            <AltitudeMeters>584.5999755859375</AltitudeMeters>
            <DistanceMeters>NAN</DistanceMeters>
          </Trackpoint>
          <Trackpoint>
            <Time>2022-09-20T07:11:45.000Z</Time>
            <Position>
              <LatitudeDegrees>49.4783631898462772369384765625</LatitudeDegrees>
              <LongitudeDegrees>20.02664781175553798675537109375</LongitudeDegrees>
            </Position>
            <AltitudeMeters>584.5999755859375</AltitudeMeters>
            <DistanceMeters>NAN</DistanceMeters>
          </Trackpoint>
          <Trackpoint>
            <Time>2022-09-20T07:11:48.000Z</Time>
            <Position>
              <LatitudeDegrees>49.47829806245863437652587890625</LatitudeDegrees>
              <LongitudeDegrees>20.0266209058463573455810546875</LongitudeDegrees>
            </Position>
            <AltitudeMeters>584.20001220703125</AltitudeMeters>
            <DistanceMeters>NAN</DistanceMeters>
          </Trackpoint>
          <Trackpoint>
            <Time>2022-09-20T07:11:51.000Z</Time>
            <Position>
              <LatitudeDegrees>49.47825296781957149505615234375</LatitudeDegrees>
              <LongitudeDegrees>20.02661143429577350616455078125</LongitudeDegrees>
            </Position>
            <AltitudeMeters>583.79998779296875</AltitudeMeters>
            <DistanceMeters>NAN</DistanceMeters>
          </Trackpoint>
          <Trackpoint>
            <Time>2022-09-20T07:11:52.000Z</Time>
            <Position>
              <LatitudeDegrees>49.478241987526416778564453125</LatitudeDegrees>
              <LongitudeDegrees>20.02661428414285182952880859375</LongitudeDegrees>
            </Position>
            <AltitudeMeters>583.79998779296875</AltitudeMeters>
            <DistanceMeters>NAN</DistanceMeters>
          </Trackpoint>
          <Trackpoint>
            <Time>2022-09-20T07:11:54.000Z</Time>
            <Position>
              <LatitudeDegrees>49.47821591980755329132080078125</LatitudeDegrees>
              <LongitudeDegrees>20.026612691581249237060546875</LongitudeDegrees>
            </Position>
            <AltitudeMeters>583.79998779296875</AltitudeMeters>
            <DistanceMeters>NAN</DistanceMeters>
          </Trackpoint>
          <Trackpoint>
            <Time>2022-09-20T07:11:58.000Z</Time>
            <Position>
              <LatitudeDegrees>49.4781854934990406036376953125</LatitudeDegrees>
              <LongitudeDegrees>20.0266188941895961761474609375</LongitudeDegrees>
            </Position>
            <AltitudeMeters>583.5999755859375</AltitudeMeters>
            <DistanceMeters>NAN</DistanceMeters>
          </Trackpoint>
          <Trackpoint>
            <Time>2022-09-20T07:11:59.000Z</Time>
            <Position>
              <LatitudeDegrees>49.4781854934990406036376953125</LatitudeDegrees>
              <LongitudeDegrees>20.0266188941895961761474609375</LongitudeDegrees>
            </Position>
            <AltitudeMeters>583.4000244140625</AltitudeMeters>
            <DistanceMeters>NAN</DistanceMeters>
          </Trackpoint>
          <Trackpoint>
            <Time>2022-09-20T07:12:00.000Z</Time>
            <Position>
              <LatitudeDegrees>49.4781799614429473876953125</LatitudeDegrees>
              <LongitudeDegrees>20.02662870101630687713623046875</LongitudeDegrees>
            </Position>
            <AltitudeMeters>583.4000244140625</AltitudeMeters>
            <DistanceMeters>NAN</DistanceMeters>
          </Trackpoint>
          <Trackpoint>
            <Time>2022-09-20T07:12:03.000Z</Time>
            <Position>
              <LatitudeDegrees>49.47816730476915836334228515625</LatitudeDegrees>
              <LongitudeDegrees>20.026708580553531646728515625</LongitudeDegrees>
            </Position>
            <AltitudeMeters>583.4000244140625</AltitudeMeters>
            <DistanceMeters>NAN</DistanceMeters>
          </Trackpoint>
          <Trackpoint>
            <Time>2022-09-20T07:12:04.000Z</Time>
            <Position>
              <LatitudeDegrees>49.47816881351172924041748046875</LatitudeDegrees>
              <LongitudeDegrees>20.02674336545169353485107421875</LongitudeDegrees>
            </Position>
            <AltitudeMeters>583.4000244140625</AltitudeMeters>
            <DistanceMeters>NAN</DistanceMeters>
          </Trackpoint>
          <Trackpoint>
            <Time>2022-09-20T07:12:06.000Z</Time>
            <Position>
              <LatitudeDegrees>49.47817149572074413299560546875</LatitudeDegrees>
              <LongitudeDegrees>20.0268126837909221649169921875</LongitudeDegrees>
            </Position>
            <AltitudeMeters>583.4000244140625</AltitudeMeters>
            <DistanceMeters>NAN</DistanceMeters>
          </Trackpoint>
          <Trackpoint>
            <Time>2022-09-20T07:12:07.000Z</Time>
            <Position>
              <LatitudeDegrees>49.4781653769314289093017578125</LatitudeDegrees>
              <LongitudeDegrees>20.0268475525081157684326171875</LongitudeDegrees>
            </Position>
            <AltitudeMeters>583.4000244140625</AltitudeMeters>
            <DistanceMeters>NAN</DistanceMeters>
          </Trackpoint>
          <Trackpoint>
            <Time>2022-09-20T07:12:08.000Z</Time>
            <Position>
              <LatitudeDegrees>49.47815246880054473876953125</LatitudeDegrees>
              <LongitudeDegrees>20.02688501961529254913330078125</LongitudeDegrees>
            </Position>
            <AltitudeMeters>583.4000244140625</AltitudeMeters>
            <DistanceMeters>NAN</DistanceMeters>
          </Trackpoint>
          <Trackpoint>
            <Time>2022-09-20T07:12:09.000Z</Time>
            <Position>
              <LatitudeDegrees>49.47813310660421848297119140625</LatitudeDegrees>
              <LongitudeDegrees>20.0269172899425029754638671875</LongitudeDegrees>
            </Position>
            <AltitudeMeters>583.20001220703125</AltitudeMeters>
            <DistanceMeters>NAN</DistanceMeters>
          </Trackpoint>
          <Trackpoint>
            <Time>2022-09-20T07:12:10.000Z</Time>
            <Position>
              <LatitudeDegrees>49.4781182706356048583984375</LatitudeDegrees>
              <LongitudeDegrees>20.02693799324333667755126953125</LongitudeDegrees>
            </Position>
            <AltitudeMeters>583.20001220703125</AltitudeMeters>
            <DistanceMeters>NAN</DistanceMeters>
          </Trackpoint>
          <Trackpoint>
            <Time>2022-09-20T07:12:11.000Z</Time>
            <Position>
              <LatitudeDegrees>49.478103183209896087646484375</LatitudeDegrees>
              <LongitudeDegrees>20.026954673230648040771484375</LongitudeDegrees>
            </Position>
            <AltitudeMeters>583</AltitudeMeters>
            <DistanceMeters>NAN</DistanceMeters>
          </Trackpoint>
          <Trackpoint>
            <Time>2022-09-20T07:12:14.000Z</Time>
            <Position>
              <LatitudeDegrees>49.47804073803126811981201171875</LatitudeDegrees>
              <LongitudeDegrees>20.0269974209368228912353515625</LongitudeDegrees>
            </Position>
            <AltitudeMeters>583</AltitudeMeters>
            <DistanceMeters>NAN</DistanceMeters>
          </Trackpoint>
          <Trackpoint>
            <Time>2022-09-20T07:12:15.000Z</Time>
            <Position>
              <LatitudeDegrees>49.47801978327333927154541015625</LatitudeDegrees>
              <LongitudeDegrees>20.0270078144967555999755859375</LongitudeDegrees>
            </Position>
            <AltitudeMeters>583</AltitudeMeters>
            <DistanceMeters>NAN</DistanceMeters>
          </Trackpoint>
          <Trackpoint>
            <Time>2022-09-20T07:12:17.000Z</Time>
            <Position>
              <LatitudeDegrees>49.477970413863658905029296875</LatitudeDegrees>
              <LongitudeDegrees>20.02704662270843982696533203125</LongitudeDegrees>
            </Position>
            <AltitudeMeters>583</AltitudeMeters>
            <DistanceMeters>NAN</DistanceMeters>
          </Trackpoint>
          <Trackpoint>
            <Time>2022-09-20T07:12:18.000Z</Time>
            <Position>
              <LatitudeDegrees>49.47794719599187374114990234375</LatitudeDegrees>
              <LongitudeDegrees>20.027054585516452789306640625</LongitudeDegrees>
            </Position>
            <AltitudeMeters>583.20001220703125</AltitudeMeters>
            <DistanceMeters>NAN</DistanceMeters>
          </Trackpoint>
          <Trackpoint>
            <Time>2022-09-20T07:12:20.000Z</Time>
            <Position>
              <LatitudeDegrees>49.4778974913060665130615234375</LatitudeDegrees>
              <LongitudeDegrees>20.0270691700279712677001953125</LongitudeDegrees>
            </Position>
            <AltitudeMeters>583.4000244140625</AltitudeMeters>
            <DistanceMeters>NAN</DistanceMeters>
          </Trackpoint>
          <Trackpoint>
            <Time>2022-09-20T07:12:25.000Z</Time>
            <Position>
              <LatitudeDegrees>49.47780638001859188079833984375</LatitudeDegrees>
              <LongitudeDegrees>20.02711988054215908050537109375</LongitudeDegrees>
            </Position>
            <AltitudeMeters>584</AltitudeMeters>
            <DistanceMeters>NAN</DistanceMeters>
          </Trackpoint>
          <Trackpoint>
            <Time>2022-09-20T07:12:27.000Z</Time>
            <Position>
              <LatitudeDegrees>49.4777764566242694854736328125</LatitudeDegrees>
              <LongitudeDegrees>20.0271405838429927825927734375</LongitudeDegrees>
            </Position>
            <AltitudeMeters>584</AltitudeMeters>
            <DistanceMeters>NAN</DistanceMeters>
          </Trackpoint>
          <Trackpoint>
            <Time>2022-09-20T07:12:28.000Z</Time>
            <Position>
              <LatitudeDegrees>49.47775960899889469146728515625</LatitudeDegrees>
              <LongitudeDegrees>20.027155168354511260986328125</LongitudeDegrees>
            </Position>
            <AltitudeMeters>584</AltitudeMeters>
            <DistanceMeters>NAN</DistanceMeters>
          </Trackpoint>
          <Trackpoint>
            <Time>2022-09-20T07:12:30.000Z</Time>
            <Position>
              <LatitudeDegrees>49.4777213037014007568359375</LatitudeDegrees>
              <LongitudeDegrees>20.0271781347692012786865234375</LongitudeDegrees>
            </Position>
            <AltitudeMeters>584</AltitudeMeters>
            <DistanceMeters>NAN</DistanceMeters>
          </Trackpoint>
          <Trackpoint>
            <Time>2022-09-20T07:12:33.000Z</Time>
            <Position>
              <LatitudeDegrees>49.47765357792377471923828125</LatitudeDegrees>
              <LongitudeDegrees>20.0271905399858951568603515625</LongitudeDegrees>
            </Position>
            <AltitudeMeters>584.20001220703125</AltitudeMeters>
            <DistanceMeters>NAN</DistanceMeters>
          </Trackpoint>
          <Trackpoint>
            <Time>2022-09-20T07:12:38.000Z</Time>
            <Position>
              <LatitudeDegrees>49.47760169394314289093017578125</LatitudeDegrees>
              <LongitudeDegrees>20.027159191668033599853515625</LongitudeDegrees>
            </Position>
            <AltitudeMeters>584.20001220703125</AltitudeMeters>
            <DistanceMeters>NAN</DistanceMeters>
          </Trackpoint>
          <Trackpoint>
            <Time>2022-09-20T07:12:39.000Z</Time>
            <Position>
              <LatitudeDegrees>49.477589540183544158935546875</LatitudeDegrees>
              <LongitudeDegrees>20.02715558744966983795166015625</LongitudeDegrees>
            </Position>
            <AltitudeMeters>584.20001220703125</AltitudeMeters>
            <DistanceMeters>NAN</DistanceMeters>
          </Trackpoint>
          <Trackpoint>
            <Time>2022-09-20T07:12:44.000Z</Time>
            <Position>
              <LatitudeDegrees>49.477549307048320770263671875</LatitudeDegrees>
              <LongitudeDegrees>20.02712608315050601959228515625</LongitudeDegrees>
            </Position>
            <AltitudeMeters>584.4000244140625</AltitudeMeters>
            <DistanceMeters>NAN</DistanceMeters>
          </Trackpoint>
          <Trackpoint>
            <Time>2022-09-20T07:12:45.000Z</Time>
            <Position>
              <LatitudeDegrees>49.47754888795316219329833984375</LatitudeDegrees>
              <LongitudeDegrees>20.02712943591177463531494140625</LongitudeDegrees>
            </Position>
            <AltitudeMeters>584.4000244140625</AltitudeMeters>
            <DistanceMeters>NAN</DistanceMeters>
          </Trackpoint>
          <Trackpoint>
            <Time>2022-09-20T07:12:47.000Z</Time>
            <Position>
              <LatitudeDegrees>49.47754452936351299285888671875</LatitudeDegrees>
              <LongitudeDegrees>20.02713672816753387451171875</LongitudeDegrees>
            </Position>
            <AltitudeMeters>584.20001220703125</AltitudeMeters>
            <DistanceMeters>NAN</DistanceMeters>
          </Trackpoint>
          <Trackpoint>
            <Time>2022-09-20T07:12:54.000Z</Time>
            <Position>
              <LatitudeDegrees>49.47753899730741977691650390625</LatitudeDegrees>
              <LongitudeDegrees>20.02713765017688274383544921875</LongitudeDegrees>
            </Position>
            <AltitudeMeters>584.20001220703125</AltitudeMeters>
            <DistanceMeters>NAN</DistanceMeters>
          </Trackpoint>
          <Trackpoint>
            <Time>2022-09-20T07:12:58.000Z</Time>
            <Position>
              <LatitudeDegrees>49.47753899730741977691650390625</LatitudeDegrees>
              <LongitudeDegrees>20.02713765017688274383544921875</LongitudeDegrees>
            </Position>
            <AltitudeMeters>584.20001220703125</AltitudeMeters>
            <DistanceMeters>NAN</DistanceMeters>
          </Trackpoint>
          <Trackpoint>
            <Time>2022-09-20T07:12:59.000Z</Time>
            <Position>
              <LatitudeDegrees>49.47753899730741977691650390625</LatitudeDegrees>
              <LongitudeDegrees>20.02713765017688274383544921875</LongitudeDegrees>
            </Position>
            <AltitudeMeters>584.20001220703125</AltitudeMeters>
            <DistanceMeters>NAN</DistanceMeters>
          </Trackpoint>
          <Trackpoint>
            <Time>2022-09-20T07:13:00.000Z</Time>
            <Position>
              <LatitudeDegrees>49.47753899730741977691650390625</LatitudeDegrees>
              <LongitudeDegrees>20.02713765017688274383544921875</LongitudeDegrees>
            </Position>
            <AltitudeMeters>584.20001220703125</AltitudeMeters>
            <DistanceMeters>NAN</DistanceMeters>
          </Trackpoint>
          <Trackpoint>
            <Time>2022-09-20T07:13:02.000Z</Time>
            <Position>
              <LatitudeDegrees>49.47753899730741977691650390625</LatitudeDegrees>
              <LongitudeDegrees>20.02713765017688274383544921875</LongitudeDegrees>
            </Position>
            <AltitudeMeters>584.20001220703125</AltitudeMeters>
            <DistanceMeters>NAN</DistanceMeters>
          </Trackpoint>
          <Trackpoint>
            <Time>2022-09-20T07:13:10.000Z</Time>
            <Position>
              <LatitudeDegrees>49.47753732092678546905517578125</LatitudeDegrees>
              <LongitudeDegrees>20.0271414220333099365234375</LongitudeDegrees>
            </Position>
            <AltitudeMeters>584.20001220703125</AltitudeMeters>
            <DistanceMeters>NAN</DistanceMeters>
          </Trackpoint>
          <Trackpoint>
            <Time>2022-09-20T07:13:16.000Z</Time>
            <Position>
              <LatitudeDegrees>49.47753530927002429962158203125</LatitudeDegrees>
              <LongitudeDegrees>20.02714787609875202178955078125</LongitudeDegrees>
            </Position>
            <AltitudeMeters>584.20001220703125</AltitudeMeters>
            <DistanceMeters>NAN</DistanceMeters>
          </Trackpoint>
          <Trackpoint>
            <Time>2022-09-20T07:13:23.000Z</Time>
            <Position>
              <LatitudeDegrees>49.47753497399389743804931640625</LatitudeDegrees>
              <LongitudeDegrees>20.02715106122195720672607421875</LongitudeDegrees>
            </Position>
            <AltitudeMeters>584.20001220703125</AltitudeMeters>
            <DistanceMeters>NAN</DistanceMeters>
          </Trackpoint>
          <Trackpoint>
            <Time>2022-09-20T07:13:30.000Z</Time>
            <Position>
              <LatitudeDegrees>49.4775340519845485687255859375</LatitudeDegrees>
              <LongitudeDegrees>20.027153156697750091552734375</LongitudeDegrees>
            </Position>
            <AltitudeMeters>584.20001220703125</AltitudeMeters>
            <DistanceMeters>NAN</DistanceMeters>
          </Trackpoint>
          <Trackpoint>
            <Time>2022-09-20T07:13:32.000Z</Time>
            <Position>
              <LatitudeDegrees>49.47753061540424823760986328125</LatitudeDegrees>
              <LongitudeDegrees>20.02715424634516239166259765625</LongitudeDegrees>
            </Position>
            <AltitudeMeters>584.20001220703125</AltitudeMeters>
            <DistanceMeters>NAN</DistanceMeters>
          </Trackpoint>
          <Trackpoint>
            <Time>2022-09-20T07:13:36.000Z</Time>
            <Position>
              <LatitudeDegrees>49.47747244499623775482177734375</LatitudeDegrees>
              <LongitudeDegrees>20.02716413699090480804443359375</LongitudeDegrees>
            </Position>
            <AltitudeMeters>584.20001220703125</AltitudeMeters>
            <DistanceMeters>NAN</DistanceMeters>
          </Trackpoint>
          <Trackpoint>
            <Time>2022-09-20T07:13:42.000Z</Time>
            <Position>
              <LatitudeDegrees>49.47739583440124988555908203125</LatitudeDegrees>
              <LongitudeDegrees>20.02718308009207248687744140625</LongitudeDegrees>
            </Position>
            <AltitudeMeters>584.20001220703125</AltitudeMeters>
            <DistanceMeters>NAN</DistanceMeters>
          </Trackpoint>
          <Trackpoint>
            <Time>2022-09-20T07:13:43.000Z</Time>
            <Position>
              <LatitudeDegrees>49.4773794896900653839111328125</LatitudeDegrees>
              <LongitudeDegrees>20.0271912105381488800048828125</LongitudeDegrees>
            </Position>
            <AltitudeMeters>584.20001220703125</AltitudeMeters>
            <DistanceMeters>NAN</DistanceMeters>
          </Trackpoint>
          <Trackpoint>
            <Time>2022-09-20T07:13:45.000Z</Time>
            <Position>
              <LatitudeDegrees>49.47734973393380641937255859375</LatitudeDegrees>
              <LongitudeDegrees>20.027213506400585174560546875</LongitudeDegrees>
            </Position>
            <AltitudeMeters>584.20001220703125</AltitudeMeters>
            <DistanceMeters>NAN</DistanceMeters>
          </Trackpoint>
          <Trackpoint>
            <Time>2022-09-20T07:13:47.000Z</Time>
            <Position>
              <LatitudeDegrees>49.477317966520786285400390625</LatitudeDegrees>
              <LongitudeDegrees>20.02722415141761302947998046875</LongitudeDegrees>
            </Position>
            <AltitudeMeters>584.4000244140625</AltitudeMeters>
            <DistanceMeters>NAN</DistanceMeters>
          </Trackpoint>
          <Trackpoint>
            <Time>2022-09-20T07:13:49.000Z</Time>
            <Position>
              <LatitudeDegrees>49.47729491628706455230712890625</LatitudeDegrees>
              <LongitudeDegrees>20.027247704565525054931640625</LongitudeDegrees>
            </Position>
            <AltitudeMeters>584.4000244140625</AltitudeMeters>
            <DistanceMeters>NAN</DistanceMeters>
          </Trackpoint>
          <Trackpoint>
            <Time>2022-09-20T07:13:50.000Z</Time>
            <Position>
              <LatitudeDegrees>49.47728603146970272064208984375</LatitudeDegrees>
              <LongitudeDegrees>20.0272622890770435333251953125</LongitudeDegrees>
            </Position>
            <AltitudeMeters>584.20001220703125</AltitudeMeters>
            <DistanceMeters>NAN</DistanceMeters>
          </Trackpoint>
          <Trackpoint>
            <Time>2022-09-20T07:13:53.000Z</Time>
            <Position>
              <LatitudeDegrees>49.47728200815618038177490234375</LatitudeDegrees>
              <LongitudeDegrees>20.0272914581000804901123046875</LongitudeDegrees>
            </Position>
            <AltitudeMeters>584.20001220703125</AltitudeMeters>
            <DistanceMeters>NAN</DistanceMeters>
          </Trackpoint>
          <Trackpoint>
            <Time>2022-09-20T07:14:00.000Z</Time>
            <Position>
              <LatitudeDegrees>49.47728469036519527435302734375</LatitudeDegrees>
              <LongitudeDegrees>20.02729975618422031402587890625</LongitudeDegrees>
            </Position>
            <AltitudeMeters>584.20001220703125</AltitudeMeters>
            <DistanceMeters>NAN</DistanceMeters>
          </Trackpoint>
          <Trackpoint>
            <Time>2022-09-20T07:14:01.000Z</Time>
            <Position>
              <LatitudeDegrees>49.4772859476506710052490234375</LatitudeDegrees>
              <LongitudeDegrees>20.02731970511376857757568359375</LongitudeDegrees>
            </Position>
            <AltitudeMeters>584.20001220703125</AltitudeMeters>
            <DistanceMeters>NAN</DistanceMeters>
          </Trackpoint>
          <Trackpoint>
            <Time>2022-09-20T07:14:04.000Z</Time>
            <Position>
              <LatitudeDegrees>49.477281756699085235595703125</LatitudeDegrees>
              <LongitudeDegrees>20.0274096429347991943359375</LongitudeDegrees>
            </Position>
            <AltitudeMeters>584</AltitudeMeters>
            <DistanceMeters>NAN</DistanceMeters>
          </Trackpoint>
          <Trackpoint>
            <Time>2022-09-20T07:14:07.000Z</Time>
            <Position>
              <LatitudeDegrees>49.47728686966001987457275390625</LatitudeDegrees>
              <LongitudeDegrees>20.02753159962594509124755859375</LongitudeDegrees>
            </Position>
            <AltitudeMeters>583.79998779296875</AltitudeMeters>
            <DistanceMeters>NAN</DistanceMeters>
          </Trackpoint>
          <Trackpoint>
            <Time>2022-09-20T07:14:09.000Z</Time>
            <Position>
              <LatitudeDegrees>49.4772906415164470672607421875</LatitudeDegrees>
              <LongitudeDegrees>20.0276109762489795684814453125</LongitudeDegrees>
            </Position>
            <AltitudeMeters>584</AltitudeMeters>
            <DistanceMeters>NAN</DistanceMeters>
          </Trackpoint>
          <Trackpoint>
            <Time>2022-09-20T07:14:10.000Z</Time>
            <Position>
              <LatitudeDegrees>49.47729089297354221343994140625</LatitudeDegrees>
              <LongitudeDegrees>20.027646012604236602783203125</LongitudeDegrees>
            </Position>
            <AltitudeMeters>584.20001220703125</AltitudeMeters>
            <DistanceMeters>NAN</DistanceMeters>
          </Trackpoint>
          <Trackpoint>
            <Time>2022-09-20T07:14:11.000Z</Time>
            <Position>
              <LatitudeDegrees>49.4772943295538425445556640625</LatitudeDegrees>
              <LongitudeDegrees>20.027681887149810791015625</LongitudeDegrees>
            </Position>
            <AltitudeMeters>584.20001220703125</AltitudeMeters>
            <DistanceMeters>NAN</DistanceMeters>
          </Trackpoint>
          <Trackpoint>
            <Time>2022-09-20T07:14:16.000Z</Time>
            <Position>
              <LatitudeDegrees>49.47729608975350856781005859375</LatitudeDegrees>
              <LongitudeDegrees>20.02791934646666049957275390625</LongitudeDegrees>
            </Position>
            <AltitudeMeters>584.4000244140625</AltitudeMeters>
            <DistanceMeters>NAN</DistanceMeters>
          </Trackpoint>
          <Trackpoint>
            <Time>2022-09-20T07:14:22.000Z</Time>
            <Position>
              <LatitudeDegrees>49.4772867858409881591796875</LatitudeDegrees>
              <LongitudeDegrees>20.02824188210070133209228515625</LongitudeDegrees>
            </Position>
            <AltitudeMeters>584.20001220703125</AltitudeMeters>
            <DistanceMeters>NAN</DistanceMeters>
          </Trackpoint>
          <Trackpoint>
            <Time>2022-09-20T07:14:29.000Z</Time>
            <Position>
              <LatitudeDegrees>49.47728435508906841278076171875</LatitudeDegrees>
              <LongitudeDegrees>20.02865494228899478912353515625</LongitudeDegrees>
            </Position>
            <AltitudeMeters>584.20001220703125</AltitudeMeters>
            <DistanceMeters>NAN</DistanceMeters>
          </Trackpoint>
          <Trackpoint>
            <Time>2022-09-20T07:14:31.000Z</Time>
            <Position>
              <LatitudeDegrees>49.4772836007177829742431640625</LatitudeDegrees>
              <LongitudeDegrees>20.02876088954508304595947265625</LongitudeDegrees>
            </Position>
            <AltitudeMeters>584.20001220703125</AltitudeMeters>
            <DistanceMeters>NAN</DistanceMeters>
          </Trackpoint>
          <Trackpoint>
            <Time>2022-09-20T07:14:35.000Z</Time>
            <Position>
              <LatitudeDegrees>49.4772812537848949432373046875</LatitudeDegrees>
              <LongitudeDegrees>20.02896557562053203582763671875</LongitudeDegrees>
            </Position>
            <AltitudeMeters>584.20001220703125</AltitudeMeters>
            <DistanceMeters>NAN</DistanceMeters>
          </Trackpoint>
          <Trackpoint>
            <Time>2022-09-20T07:14:38.000Z</Time>
            <Position>
              <LatitudeDegrees>49.47728569619357585906982421875</LatitudeDegrees>
              <LongitudeDegrees>20.029111169278621673583984375</LongitudeDegrees>
            </Position>
            <AltitudeMeters>584.4000244140625</AltitudeMeters>
            <DistanceMeters>NAN</DistanceMeters>
          </Trackpoint>
          <Trackpoint>
            <Time>2022-09-20T07:14:43.000Z</Time>
            <Position>
              <LatitudeDegrees>49.47728837840259075164794921875</LatitudeDegrees>
              <LongitudeDegrees>20.02936505712568759918212890625</LongitudeDegrees>
            </Position>
            <AltitudeMeters>584.4000244140625</AltitudeMeters>
            <DistanceMeters>NAN</DistanceMeters>
          </Trackpoint>
          <Trackpoint>
            <Time>2022-09-20T07:14:45.000Z</Time>
            <Position>
              <LatitudeDegrees>49.47728603146970272064208984375</LatitudeDegrees>
              <LongitudeDegrees>20.0294834934175014495849609375</LongitudeDegrees>
            </Position>
            <AltitudeMeters>584.20001220703125</AltitudeMeters>
            <DistanceMeters>NAN</DistanceMeters>
          </Trackpoint>
          <Trackpoint>
            <Time>2022-09-20T07:14:48.000Z</Time>
            <Position>
              <LatitudeDegrees>49.4772856123745441436767578125</LatitudeDegrees>
              <LongitudeDegrees>20.02966747619211673736572265625</LongitudeDegrees>
            </Position>
            <AltitudeMeters>584.20001220703125</AltitudeMeters>
            <DistanceMeters>NAN</DistanceMeters>
          </Trackpoint>
          <Trackpoint>
            <Time>2022-09-20T07:14:50.000Z</Time>
            <Position>
              <LatitudeDegrees>49.4772827625274658203125</LatitudeDegrees>
              <LongitudeDegrees>20.02978264354169368743896484375</LongitudeDegrees>
            </Position>
            <AltitudeMeters>584.20001220703125</AltitudeMeters>
            <DistanceMeters>NAN</DistanceMeters>
          </Trackpoint>
          <Trackpoint>
            <Time>2022-09-20T07:14:53.000Z</Time>
            <Position>
              <LatitudeDegrees>49.4772862829267978668212890625</LatitudeDegrees>
              <LongitudeDegrees>20.0299501977860927581787109375</LongitudeDegrees>
            </Position>
            <AltitudeMeters>584.5999755859375</AltitudeMeters>
            <DistanceMeters>NAN</DistanceMeters>
          </Trackpoint>
          <Trackpoint>
            <Time>2022-09-20T07:14:57.000Z</Time>
            <Position>
              <LatitudeDegrees>49.4772882945835590362548828125</LatitudeDegrees>
              <LongitudeDegrees>20.03016519360244274139404296875</LongitudeDegrees>
            </Position>
            <AltitudeMeters>584.5999755859375</AltitudeMeters>
            <DistanceMeters>NAN</DistanceMeters>
          </Trackpoint>
          <Trackpoint>
            <Time>2022-09-20T07:14:58.000Z</Time>
            <Position>
              <LatitudeDegrees>49.4772896356880664825439453125</LatitudeDegrees>
              <LongitudeDegrees>20.03022520802915096282958984375</LongitudeDegrees>
            </Position>
            <AltitudeMeters>584.4000244140625</AltitudeMeters>
            <DistanceMeters>NAN</DistanceMeters>
          </Trackpoint>
          <Trackpoint>
            <Time>2022-09-20T07:15:06.000Z</Time>
            <Position>
              <LatitudeDegrees>49.4772867858409881591796875</LatitudeDegrees>
              <LongitudeDegrees>20.03064430318772792816162109375</LongitudeDegrees>
            </Position>
            <AltitudeMeters>584.79998779296875</AltitudeMeters>
            <DistanceMeters>NAN</DistanceMeters>
          </Trackpoint>
          <Trackpoint>
            <Time>2022-09-20T07:15:10.000Z</Time>
            <Position>
              <LatitudeDegrees>49.47728837840259075164794921875</LatitudeDegrees>
              <LongitudeDegrees>20.030857957899570465087890625</LongitudeDegrees>
            </Position>
            <AltitudeMeters>584.5999755859375</AltitudeMeters>
            <DistanceMeters>NAN</DistanceMeters>
          </Trackpoint>
          <Trackpoint>
            <Time>2022-09-20T07:15:14.000Z</Time>
            <Position>
              <LatitudeDegrees>49.4772960059344768524169921875</LatitudeDegrees>
              <LongitudeDegrees>20.0310613028705120086669921875</LongitudeDegrees>
            </Position>
            <AltitudeMeters>584.5999755859375</AltitudeMeters>
            <DistanceMeters>NAN</DistanceMeters>
          </Trackpoint>
          <Trackpoint>
            <Time>2022-09-20T07:15:15.000Z</Time>
            <Position>
              <LatitudeDegrees>49.47729659266769886016845703125</LatitudeDegrees>
              <LongitudeDegrees>20.0311075709760189056396484375</LongitudeDegrees>
            </Position>
            <AltitudeMeters>584.5999755859375</AltitudeMeters>
            <DistanceMeters>NAN</DistanceMeters>
          </Trackpoint>
          <Trackpoint>
            <Time>2022-09-20T07:15:19.000Z</Time>
            <Position>
              <LatitudeDegrees>49.47729592211544513702392578125</LatitudeDegrees>
              <LongitudeDegrees>20.0312591157853603363037109375</LongitudeDegrees>
            </Position>
            <AltitudeMeters>584.79998779296875</AltitudeMeters>
            <DistanceMeters>NAN</DistanceMeters>
          </Trackpoint>
          <Trackpoint>
            <Time>2022-09-20T07:15:21.000Z</Time>
            <Position>
              <LatitudeDegrees>49.47729692794382572174072265625</LatitudeDegrees>
              <LongitudeDegrees>20.0313117541372776031494140625</LongitudeDegrees>
            </Position>
            <AltitudeMeters>585</AltitudeMeters>
            <DistanceMeters>NAN</DistanceMeters>
          </Trackpoint>
          <Trackpoint>
            <Time>2022-09-20T07:15:28.000Z</Time>
            <Position>
              <LatitudeDegrees>49.47732727043330669403076171875</LatitudeDegrees>
              <LongitudeDegrees>20.0314190424978733062744140625</LongitudeDegrees>
            </Position>
            <AltitudeMeters>584.5999755859375</AltitudeMeters>
            <DistanceMeters>NAN</DistanceMeters>
          </Trackpoint>
          <Trackpoint>
            <Time>2022-09-20T07:15:33.000Z</Time>
            <Position>
              <LatitudeDegrees>49.4773318804800510406494140625</LatitudeDegrees>
              <LongitudeDegrees>20.0314793922007083892822265625</LongitudeDegrees>
            </Position>
            <AltitudeMeters>584.79998779296875</AltitudeMeters>
            <DistanceMeters>NAN</DistanceMeters>
          </Trackpoint>
          <Trackpoint>
            <Time>2022-09-20T07:15:34.000Z</Time>
            <Position>
              <LatitudeDegrees>49.47733364067971706390380859375</LatitudeDegrees>
              <LongitudeDegrees>20.03150403499603271484375</LongitudeDegrees>
            </Position>
            <AltitudeMeters>584.79998779296875</AltitudeMeters>
            <DistanceMeters>NAN</DistanceMeters>
          </Trackpoint>
          <Trackpoint>
            <Time>2022-09-20T07:15:39.000Z</Time>
            <Position>
              <LatitudeDegrees>49.47734336368739604949951171875</LatitudeDegrees>
              <LongitudeDegrees>20.03170394338667392730712890625</LongitudeDegrees>
            </Position>
            <AltitudeMeters>584.79998779296875</AltitudeMeters>
            <DistanceMeters>NAN</DistanceMeters>
          </Trackpoint>
          <Trackpoint>
            <Time>2022-09-20T07:15:47.000Z</Time>
            <Position>
              <LatitudeDegrees>49.47730958461761474609375</LatitudeDegrees>
              <LongitudeDegrees>20.03204173408448696136474609375</LongitudeDegrees>
            </Position>
            <AltitudeMeters>584.5999755859375</AltitudeMeters>
            <DistanceMeters>NAN</DistanceMeters>
          </Trackpoint>
          <Trackpoint>
            <Time>2022-09-20T07:15:52.000Z</Time>
            <Position>
              <LatitudeDegrees>49.47728519327938556671142578125</LatitudeDegrees>
              <LongitudeDegrees>20.03224776126444339752197265625</LongitudeDegrees>
            </Position>
            <AltitudeMeters>584.4000244140625</AltitudeMeters>
            <DistanceMeters>NAN</DistanceMeters>
          </Trackpoint>
          <Trackpoint>
            <Time>2022-09-20T07:15:56.000Z</Time>
            <Position>
              <LatitudeDegrees>49.47731704451143741607666015625</LatitudeDegrees>
              <LongitudeDegrees>20.03238975070416927337646484375</LongitudeDegrees>
            </Position>
            <AltitudeMeters>584.4000244140625</AltitudeMeters>
            <DistanceMeters>NAN</DistanceMeters>
          </Trackpoint>
          <Trackpoint>
            <Time>2022-09-20T07:16:02.000Z</Time>
            <Position>
              <LatitudeDegrees>49.47733104228973388671875</LatitudeDegrees>
              <LongitudeDegrees>20.03264707513153553009033203125</LongitudeDegrees>
            </Position>
            <AltitudeMeters>584.5999755859375</AltitudeMeters>
            <DistanceMeters>NAN</DistanceMeters>
          </Trackpoint>
          <Trackpoint>
            <Time>2022-09-20T07:16:08.000Z</Time>
            <Position>
              <LatitudeDegrees>49.47733104228973388671875</LatitudeDegrees>
              <LongitudeDegrees>20.03297547809779644012451171875</LongitudeDegrees>
            </Position>
            <AltitudeMeters>583.79998779296875</AltitudeMeters>
            <DistanceMeters>NAN</DistanceMeters>
          </Trackpoint>
          <Trackpoint>
            <Time>2022-09-20T07:16:09.000Z</Time>
            <Position>
              <LatitudeDegrees>49.4773322157561779022216796875</LatitudeDegrees>
              <LongitudeDegrees>20.03302417695522308349609375</LongitudeDegrees>
            </Position>
            <AltitudeMeters>583.79998779296875</AltitudeMeters>
            <DistanceMeters>NAN</DistanceMeters>
          </Trackpoint>
          <Trackpoint>
            <Time>2022-09-20T07:16:20.000Z</Time>
            <Position>
              <LatitudeDegrees>49.4773466326296329498291015625</LatitudeDegrees>
              <LongitudeDegrees>20.0336395762860774993896484375</LongitudeDegrees>
            </Position>
            <AltitudeMeters>583.4000244140625</AltitudeMeters>
            <DistanceMeters>NAN</DistanceMeters>
          </Trackpoint>
          <Trackpoint>
            <Time>2022-09-20T07:16:27.000Z</Time>
            <Position>
              <LatitudeDegrees>49.4773456268012523651123046875</LatitudeDegrees>
              <LongitudeDegrees>20.03401366062462329864501953125</LongitudeDegrees>
            </Position>
            <AltitudeMeters>583</AltitudeMeters>
            <DistanceMeters>NAN</DistanceMeters>
          </Trackpoint>
          <Trackpoint>
            <Time>2022-09-20T07:16:31.000Z</Time>
            <Position>
              <LatitudeDegrees>49.477322660386562347412109375</LatitudeDegrees>
              <LongitudeDegrees>20.03417811356484889984130859375</LongitudeDegrees>
            </Position>
            <AltitudeMeters>583</AltitudeMeters>
            <DistanceMeters>NAN</DistanceMeters>
          </Trackpoint>
          <Trackpoint>
            <Time>2022-09-20T07:16:33.000Z</Time>
            <Position>
              <LatitudeDegrees>49.47732768952846527099609375</LatitudeDegrees>
              <LongitudeDegrees>20.03424801863729953765869140625</LongitudeDegrees>
            </Position>
            <AltitudeMeters>582.79998779296875</AltitudeMeters>
            <DistanceMeters>NAN</DistanceMeters>
          </Trackpoint>
          <Trackpoint>
            <Time>2022-09-20T07:16:34.000Z</Time>
            <Position>
              <LatitudeDegrees>49.47732978500425815582275390625</LatitudeDegrees>
              <LongitudeDegrees>20.0342833064496517181396484375</LongitudeDegrees>
            </Position>
            <AltitudeMeters>582.79998779296875</AltitudeMeters>
            <DistanceMeters>NAN</DistanceMeters>
          </Trackpoint>
          <Trackpoint>
            <Time>2022-09-20T07:16:38.000Z</Time>
            <Position>
              <LatitudeDegrees>49.47732224129140377044677734375</LatitudeDegrees>
              <LongitudeDegrees>20.0344128906726837158203125</LongitudeDegrees>
            </Position>
            <AltitudeMeters>582.79998779296875</AltitudeMeters>
            <DistanceMeters>NAN</DistanceMeters>
          </Trackpoint>
          <Trackpoint>
            <Time>2022-09-20T07:16:40.000Z</Time>
            <Position>
              <LatitudeDegrees>49.4773087464272975921630859375</LatitudeDegrees>
              <LongitudeDegrees>20.03445957787334918975830078125</LongitudeDegrees>
            </Position>
            <AltitudeMeters>582.5999755859375</AltitudeMeters>
            <DistanceMeters>NAN</DistanceMeters>
          </Trackpoint>
          <Trackpoint>
            <Time>2022-09-20T07:16:42.000Z</Time>
            <Position>
              <LatitudeDegrees>49.47731151245534420013427734375</LatitudeDegrees>
              <LongitudeDegrees>20.03449193201959133148193359375</LongitudeDegrees>
            </Position>
            <AltitudeMeters>582.5999755859375</AltitudeMeters>
            <DistanceMeters>NAN</DistanceMeters>
          </Trackpoint>
          <Trackpoint>
            <Time>2022-09-20T07:16:44.000Z</Time>
            <Position>
              <LatitudeDegrees>49.47731017135083675384521484375</LatitudeDegrees>
              <LongitudeDegrees>20.0345112942159175872802734375</LongitudeDegrees>
            </Position>
            <AltitudeMeters>582.5999755859375</AltitudeMeters>
            <DistanceMeters>NAN</DistanceMeters>
          </Trackpoint>
          <Trackpoint>
            <Time>2022-09-20T07:16:50.000Z</Time>
            <Position>
              <LatitudeDegrees>49.47731553576886653900146484375</LatitudeDegrees>
              <LongitudeDegrees>20.03450869582593441009521484375</LongitudeDegrees>
            </Position>
            <AltitudeMeters>582.4000244140625</AltitudeMeters>
            <DistanceMeters>NAN</DistanceMeters>
          </Trackpoint>
          <Trackpoint>
            <Time>2022-09-20T07:16:59.000Z</Time>
            <Position>
              <LatitudeDegrees>49.47731486521661281585693359375</LatitudeDegrees>
              <LongitudeDegrees>20.03451372496783733367919921875</LongitudeDegrees>
            </Position>
            <AltitudeMeters>582.20001220703125</AltitudeMeters>
            <DistanceMeters>NAN</DistanceMeters>
          </Trackpoint>
          <Trackpoint>
            <Time>2022-09-20T07:17:06.000Z</Time>
            <Position>
              <LatitudeDegrees>49.477315954864025115966796875</LatitudeDegrees>
              <LongitudeDegrees>20.034517161548137664794921875</LongitudeDegrees>
            </Position>
            <AltitudeMeters>582</AltitudeMeters>
            <DistanceMeters>NAN</DistanceMeters>
          </Trackpoint>
          <Trackpoint>
            <Time>2022-09-20T07:17:09.000Z</Time>
            <Position>
              <LatitudeDegrees>49.4773550145328044891357421875</LatitudeDegrees>
              <LongitudeDegrees>20.034594945609569549560546875</LongitudeDegrees>
            </Position>
            <AltitudeMeters>582</AltitudeMeters>
            <DistanceMeters>NAN</DistanceMeters>
          </Trackpoint>
          <Trackpoint>
            <Time>2022-09-20T07:17:15.000Z</Time>
            <Position>
              <LatitudeDegrees>49.47737035341560840606689453125</LatitudeDegrees>
              <LongitudeDegrees>20.0348567962646484375</LongitudeDegrees>
            </Position>
            <AltitudeMeters>581.79998779296875</AltitudeMeters>
            <DistanceMeters>NAN</DistanceMeters>
          </Trackpoint>
          <Trackpoint>
            <Time>2022-09-20T07:17:16.000Z</Time>
            <Position>
              <LatitudeDegrees>49.47736867703497409820556640625</LatitudeDegrees>
              <LongitudeDegrees>20.03489728085696697235107421875</LongitudeDegrees>
            </Position>
            <AltitudeMeters>581.79998779296875</AltitudeMeters>
            <DistanceMeters>NAN</DistanceMeters>
          </Trackpoint>
          <Trackpoint>
            <Time>2022-09-20T07:17:21.000Z</Time>
            <Position>
              <LatitudeDegrees>49.47738401591777801513671875</LatitudeDegrees>
              <LongitudeDegrees>20.03509190864861011505126953125</LongitudeDegrees>
            </Position>
            <AltitudeMeters>581.4000244140625</AltitudeMeters>
            <DistanceMeters>NAN</DistanceMeters>
          </Trackpoint>
          <Trackpoint>
            <Time>2022-09-20T07:17:23.000Z</Time>
            <Position>
              <LatitudeDegrees>49.4774123467504978179931640625</LatitudeDegrees>
              <LongitudeDegrees>20.03515460528433322906494140625</LongitudeDegrees>
            </Position>
            <AltitudeMeters>581.4000244140625</AltitudeMeters>
            <DistanceMeters>NAN</DistanceMeters>
          </Trackpoint>
          <Trackpoint>
            <Time>2022-09-20T07:17:25.000Z</Time>
            <Position>
              <LatitudeDegrees>49.47742081247270107269287109375</LatitudeDegrees>
              <LongitudeDegrees>20.035245716571807861328125</LongitudeDegrees>
            </Position>
            <AltitudeMeters>581.4000244140625</AltitudeMeters>
            <DistanceMeters>NAN</DistanceMeters>
          </Trackpoint>
          <Trackpoint>
            <Time>2022-09-20T07:17:34.000Z</Time>
            <Position>
              <LatitudeDegrees>49.47743405587971210479736328125</LatitudeDegrees>
              <LongitudeDegrees>20.035653747618198394775390625</LongitudeDegrees>
            </Position>
            <AltitudeMeters>581</AltitudeMeters>
            <DistanceMeters>NAN</DistanceMeters>
          </Trackpoint>
          <Trackpoint>
            <Time>2022-09-20T07:17:42.000Z</Time>
            <Position>
              <LatitudeDegrees>49.47745199315249919891357421875</LatitudeDegrees>
              <LongitudeDegrees>20.03599581308662891387939453125</LongitudeDegrees>
            </Position>
            <AltitudeMeters>581.20001220703125</AltitudeMeters>
            <DistanceMeters>NAN</DistanceMeters>
          </Trackpoint>
          <Trackpoint>
            <Time>2022-09-20T07:17:44.000Z</Time>
            <Position>
              <LatitudeDegrees>49.47746221907436847686767578125</LatitudeDegrees>
              <LongitudeDegrees>20.0360934622585773468017578125</LongitudeDegrees>
            </Position>
            <AltitudeMeters>581.20001220703125</AltitudeMeters>
            <DistanceMeters>NAN</DistanceMeters>
          </Trackpoint>
          <Trackpoint>
            <Time>2022-09-20T07:17:50.000Z</Time>
            <Position>
              <LatitudeDegrees>49.47746674530208110809326171875</LatitudeDegrees>
              <LongitudeDegrees>20.03642161376774311065673828125</LongitudeDegrees>
            </Position>
            <AltitudeMeters>581</AltitudeMeters>
            <DistanceMeters>NAN</DistanceMeters>
          </Trackpoint>
          <Trackpoint>
            <Time>2022-09-20T07:17:57.000Z</Time>
            <Position>
              <LatitudeDegrees>49.477447383105754852294921875</LatitudeDegrees>
              <LongitudeDegrees>20.03675378859043121337890625</LongitudeDegrees>
            </Position>
            <AltitudeMeters>581.20001220703125</AltitudeMeters>
            <DistanceMeters>NAN</DistanceMeters>
          </Trackpoint>
          <Trackpoint>
            <Time>2022-09-20T07:18:01.000Z</Time>
            <Position>
              <LatitudeDegrees>49.4774063117802143096923828125</LatitudeDegrees>
              <LongitudeDegrees>20.03685328178107738494873046875</LongitudeDegrees>
            </Position>
            <AltitudeMeters>581</AltitudeMeters>
            <DistanceMeters>NAN</DistanceMeters>
          </Trackpoint>
          <Trackpoint>
            <Time>2022-09-20T07:18:04.000Z</Time>
            <Position>
              <LatitudeDegrees>49.4773768074810504913330078125</LatitudeDegrees>
              <LongitudeDegrees>20.0368934310972690582275390625</LongitudeDegrees>
            </Position>
            <AltitudeMeters>581</AltitudeMeters>
            <DistanceMeters>NAN</DistanceMeters>
          </Trackpoint>
          <Trackpoint>
            <Time>2022-09-20T07:18:06.000Z</Time>
            <Position>
              <LatitudeDegrees>49.4773650728166103363037109375</LatitudeDegrees>
              <LongitudeDegrees>20.03692938946187496185302734375</LongitudeDegrees>
            </Position>
            <AltitudeMeters>581</AltitudeMeters>
            <DistanceMeters>NAN</DistanceMeters>
          </Trackpoint>
          <Trackpoint>
            <Time>2022-09-20T07:18:07.000Z</Time>
            <Position>
              <LatitudeDegrees>49.47736683301627635955810546875</LatitudeDegrees>
              <LongitudeDegrees>20.03695185296237468719482421875</LongitudeDegrees>
            </Position>
            <AltitudeMeters>581</AltitudeMeters>
            <DistanceMeters>NAN</DistanceMeters>
          </Trackpoint>
          <Trackpoint>
            <Time>2022-09-20T07:18:10.000Z</Time>
            <Position>
              <LatitudeDegrees>49.4773627258837223052978515625</LatitudeDegrees>
              <LongitudeDegrees>20.0370205007493495941162109375</LongitudeDegrees>
            </Position>
            <AltitudeMeters>580.79998779296875</AltitudeMeters>
            <DistanceMeters>NAN</DistanceMeters>
          </Trackpoint>
          <Trackpoint>
            <Time>2022-09-20T07:18:12.000Z</Time>
            <Position>
              <LatitudeDegrees>49.4773395918309688568115234375</LatitudeDegrees>
              <LongitudeDegrees>20.037029050290584564208984375</LongitudeDegrees>
            </Position>
            <AltitudeMeters>580.79998779296875</AltitudeMeters>
            <DistanceMeters>NAN</DistanceMeters>
          </Trackpoint>
          <Trackpoint>
            <Time>2022-09-20T07:18:16.000Z</Time>
            <Position>
              <LatitudeDegrees>49.477326013147830963134765625</LatitudeDegrees>
              <LongitudeDegrees>20.03703516907989978790283203125</LongitudeDegrees>
            </Position>
            <AltitudeMeters>581</AltitudeMeters>
            <DistanceMeters>NAN</DistanceMeters>
          </Trackpoint>
          <Trackpoint>
            <Time>2022-09-20T07:18:19.000Z</Time>
            <Position>
              <LatitudeDegrees>49.47729910723865032196044921875</LatitudeDegrees>
              <LongitudeDegrees>20.03705780021846294403076171875</LongitudeDegrees>
            </Position>
            <AltitudeMeters>580.79998779296875</AltitudeMeters>
            <DistanceMeters>NAN</DistanceMeters>
          </Trackpoint>
          <Trackpoint>
            <Time>2022-09-20T07:18:21.000Z</Time>
            <Position>
              <LatitudeDegrees>49.4772772304713726043701171875</LatitudeDegrees>
              <LongitudeDegrees>20.0370915792882442474365234375</LongitudeDegrees>
            </Position>
            <AltitudeMeters>580.79998779296875</AltitudeMeters>
            <DistanceMeters>NAN</DistanceMeters>
          </Trackpoint>
          <Trackpoint>
            <Time>2022-09-20T07:18:22.000Z</Time>
            <Position>
              <LatitudeDegrees>49.4772678427398204803466796875</LatitudeDegrees>
              <LongitudeDegrees>20.03711613826453685760498046875</LongitudeDegrees>
            </Position>
            <AltitudeMeters>580.79998779296875</AltitudeMeters>
            <DistanceMeters>NAN</DistanceMeters>
          </Trackpoint>
          <Trackpoint>
            <Time>2022-09-20T07:18:26.000Z</Time>
            <Position>
              <LatitudeDegrees>49.47725954465568065643310546875</LatitudeDegrees>
              <LongitudeDegrees>20.037216804921627044677734375</LongitudeDegrees>
            </Position>
            <AltitudeMeters>580.5999755859375</AltitudeMeters>
            <DistanceMeters>NAN</DistanceMeters>
          </Trackpoint>
          <Trackpoint>
            <Time>2022-09-20T07:18:28.000Z</Time>
            <Position>
              <LatitudeDegrees>49.47726356796920299530029296875</LatitudeDegrees>
              <LongitudeDegrees>20.03724354319274425506591796875</LongitudeDegrees>
            </Position>
            <AltitudeMeters>580.5999755859375</AltitudeMeters>
            <DistanceMeters>NAN</DistanceMeters>
          </Trackpoint>
          <Trackpoint>
            <Time>2022-09-20T07:18:31.000Z</Time>
            <Position>
              <LatitudeDegrees>49.4772805832326412200927734375</LatitudeDegrees>
              <LongitudeDegrees>20.03726248629391193389892578125</LongitudeDegrees>
            </Position>
            <AltitudeMeters>580.5999755859375</AltitudeMeters>
            <DistanceMeters>NAN</DistanceMeters>
          </Trackpoint>
          <Trackpoint>
            <Time>2022-09-20T07:18:34.000Z</Time>
            <Position>
              <LatitudeDegrees>49.47729374282062053680419921875</LatitudeDegrees>
              <LongitudeDegrees>20.03728528507053852081298828125</LongitudeDegrees>
            </Position>
            <AltitudeMeters>580.79998779296875</AltitudeMeters>
            <DistanceMeters>NAN</DistanceMeters>
          </Trackpoint>
          <Trackpoint>
            <Time>2022-09-20T07:18:41.000Z</Time>
            <Position>
              <LatitudeDegrees>49.477341435849666595458984375</LatitudeDegrees>
              <LongitudeDegrees>20.03741118125617504119873046875</LongitudeDegrees>
            </Position>
            <AltitudeMeters>580.5999755859375</AltitudeMeters>
            <DistanceMeters>NAN</DistanceMeters>
          </Trackpoint>
          <Trackpoint>
            <Time>2022-09-20T07:18:43.000Z</Time>
            <Position>
              <LatitudeDegrees>49.4773513264954090118408203125</LatitudeDegrees>
              <LongitudeDegrees>20.03748343326151371002197265625</LongitudeDegrees>
            </Position>
            <AltitudeMeters>580.79998779296875</AltitudeMeters>
            <DistanceMeters>NAN</DistanceMeters>
          </Trackpoint>
          <Trackpoint>
            <Time>2022-09-20T07:18:46.000Z</Time>
            <Position>
              <LatitudeDegrees>49.47733498178422451019287109375</LatitudeDegrees>
              <LongitudeDegrees>20.0375805795192718505859375</LongitudeDegrees>
            </Position>
            <AltitudeMeters>580.79998779296875</AltitudeMeters>
            <DistanceMeters>NAN</DistanceMeters>
          </Trackpoint>
          <Trackpoint>
            <Time>2022-09-20T07:18:54.000Z</Time>
            <Position>
              <LatitudeDegrees>49.47726457379758358001708984375</LatitudeDegrees>
              <LongitudeDegrees>20.03786765970289707183837890625</LongitudeDegrees>
            </Position>
            <AltitudeMeters>581</AltitudeMeters>
            <DistanceMeters>NAN</DistanceMeters>
          </Trackpoint>
          <Trackpoint>
            <Time>2022-09-20T07:19:01.000Z</Time>
            <Position>
              <LatitudeDegrees>49.47721445001661777496337890625</LatitudeDegrees>
              <LongitudeDegrees>20.03803320229053497314453125</LongitudeDegrees>
            </Position>
            <AltitudeMeters>581</AltitudeMeters>
            <DistanceMeters>NAN</DistanceMeters>
          </Trackpoint>
          <Trackpoint>
            <Time>2022-09-20T07:19:06.000Z</Time>
            <Position>
              <LatitudeDegrees>49.4772017933428287506103515625</LatitudeDegrees>
              <LongitudeDegrees>20.03807284869253635406494140625</LongitudeDegrees>
            </Position>
            <AltitudeMeters>581</AltitudeMeters>
            <DistanceMeters>NAN</DistanceMeters>
          </Trackpoint>
          <Trackpoint>
            <Time>2022-09-20T07:19:11.000Z</Time>
            <Position>
              <LatitudeDegrees>49.4772024638950824737548828125</LatitudeDegrees>
              <LongitudeDegrees>20.038051642477512359619140625</LongitudeDegrees>
            </Position>
            <AltitudeMeters>581</AltitudeMeters>
            <DistanceMeters>NAN</DistanceMeters>
          </Trackpoint>
          <Trackpoint>
            <Time>2022-09-20T07:19:15.000Z</Time>
            <Position>
              <LatitudeDegrees>49.47720522992312908172607421875</LatitudeDegrees>
              <LongitudeDegrees>20.0380102358758449554443359375</LongitudeDegrees>
            </Position>
            <AltitudeMeters>580.79998779296875</AltitudeMeters>
            <DistanceMeters>NAN</DistanceMeters>
          </Trackpoint>
          <Trackpoint>
            <Time>2022-09-20T07:19:17.000Z</Time>
            <Position>
              <LatitudeDegrees>49.477216042578220367431640625</LatitudeDegrees>
              <LongitudeDegrees>20.03796271048486232757568359375</LongitudeDegrees>
            </Position>
            <AltitudeMeters>580.5999755859375</AltitudeMeters>
            <DistanceMeters>NAN</DistanceMeters>
          </Trackpoint>
          <Trackpoint>
            <Time>2022-09-20T07:19:20.000Z</Time>
            <Position>
              <LatitudeDegrees>49.47724780999124050140380859375</LatitudeDegrees>
              <LongitudeDegrees>20.03788542933762073516845703125</LongitudeDegrees>
            </Position>
            <AltitudeMeters>581</AltitudeMeters>
            <DistanceMeters>NAN</DistanceMeters>
          </Trackpoint>
          <Trackpoint>
            <Time>2022-09-20T07:19:23.000Z</Time>
            <Position>
              <LatitudeDegrees>49.47727412916719913482666015625</LatitudeDegrees>
              <LongitudeDegrees>20.03780848346650600433349609375</LongitudeDegrees>
            </Position>
            <AltitudeMeters>581</AltitudeMeters>
            <DistanceMeters>NAN</DistanceMeters>
          </Trackpoint>
          <Trackpoint>
            <Time>2022-09-20T07:19:31.000Z</Time>
            <Position>
              <LatitudeDegrees>49.4773385860025882720947265625</LatitudeDegrees>
              <LongitudeDegrees>20.03757228143513202667236328125</LongitudeDegrees>
            </Position>
            <AltitudeMeters>580.79998779296875</AltitudeMeters>
            <DistanceMeters>NAN</DistanceMeters>
          </Trackpoint>
          <Trackpoint>
            <Time>2022-09-20T07:19:32.000Z</Time>
            <Position>
              <LatitudeDegrees>49.4773540087044239044189453125</LatitudeDegrees>
              <LongitudeDegrees>20.0375495664775371551513671875</LongitudeDegrees>
            </Position>
            <AltitudeMeters>580.79998779296875</AltitudeMeters>
            <DistanceMeters>NAN</DistanceMeters>
          </Trackpoint>
          <Trackpoint>
            <Time>2022-09-20T07:19:35.000Z</Time>
            <Position>
              <LatitudeDegrees>49.47740639559924602508544921875</LatitudeDegrees>
              <LongitudeDegrees>20.037563145160675048828125</LongitudeDegrees>
            </Position>
            <AltitudeMeters>580.79998779296875</AltitudeMeters>
            <DistanceMeters>NAN</DistanceMeters>
          </Trackpoint>
          <Trackpoint>
            <Time>2022-09-20T07:19:36.000Z</Time>
            <Position>
              <LatitudeDegrees>49.47742768563330173492431640625</LatitudeDegrees>
              <LongitudeDegrees>20.0375723652541637420654296875</LongitudeDegrees>
            </Position>
            <AltitudeMeters>580.79998779296875</AltitudeMeters>
            <DistanceMeters>NAN</DistanceMeters>
          </Trackpoint>
          <Trackpoint>
            <Time>2022-09-20T07:19:39.000Z</Time>
            <Position>
              <LatitudeDegrees>49.47748862206935882568359375</LatitudeDegrees>
              <LongitudeDegrees>20.0375408492982387542724609375</LongitudeDegrees>
            </Position>
            <AltitudeMeters>580.79998779296875</AltitudeMeters>
            <DistanceMeters>NAN</DistanceMeters>
          </Trackpoint>
          <Trackpoint>
            <Time>2022-09-20T07:19:48.000Z</Time>
            <Position>
              <LatitudeDegrees>49.4776936434209346771240234375</LatitudeDegrees>
              <LongitudeDegrees>20.0374245084822177886962890625</LongitudeDegrees>
            </Position>
            <AltitudeMeters>580.79998779296875</AltitudeMeters>
            <DistanceMeters>NAN</DistanceMeters>
          </Trackpoint>
          <Trackpoint>
            <Time>2022-09-20T07:19:53.000Z</Time>
            <Position>
              <LatitudeDegrees>49.477870501577854156494140625</LatitudeDegrees>
              <LongitudeDegrees>20.0374503247439861297607421875</LongitudeDegrees>
            </Position>
            <AltitudeMeters>580</AltitudeMeters>
            <DistanceMeters>NAN</DistanceMeters>
          </Trackpoint>
          <Trackpoint>
            <Time>2022-09-20T07:19:56.000Z</Time>
            <Position>
              <LatitudeDegrees>49.47799094952642917633056640625</LatitudeDegrees>
              <LongitudeDegrees>20.03747932612895965576171875</LongitudeDegrees>
            </Position>
            <AltitudeMeters>579.5999755859375</AltitudeMeters>
            <DistanceMeters>NAN</DistanceMeters>
          </Trackpoint>
          <Trackpoint>
            <Time>2022-09-20T07:19:59.000Z</Time>
            <Position>
              <LatitudeDegrees>49.478127993643283843994140625</LatitudeDegrees>
              <LongitudeDegrees>20.0375240854918956756591796875</LongitudeDegrees>
            </Position>
            <AltitudeMeters>579</AltitudeMeters>
            <DistanceMeters>NAN</DistanceMeters>
          </Trackpoint>
          <Trackpoint>
            <Time>2022-09-20T07:20:00.000Z</Time>
            <Position>
              <LatitudeDegrees>49.47817862033843994140625</LatitudeDegrees>
              <LongitudeDegrees>20.0375395081937313079833984375</LongitudeDegrees>
            </Position>
            <AltitudeMeters>578.5999755859375</AltitudeMeters>
            <DistanceMeters>NAN</DistanceMeters>
          </Trackpoint>
          <Trackpoint>
            <Time>2022-09-20T07:20:03.000Z</Time>
            <Position>
              <LatitudeDegrees>49.4783450849354267120361328125</LatitudeDegrees>
              <LongitudeDegrees>20.03757856786251068115234375</LongitudeDegrees>
            </Position>
            <AltitudeMeters>577.4000244140625</AltitudeMeters>
            <DistanceMeters>NAN</DistanceMeters>
          </Trackpoint>
          <Trackpoint>
            <Time>2022-09-20T07:20:05.000Z</Time>
            <Position>
              <LatitudeDegrees>49.47847425006330013275146484375</LatitudeDegrees>
              <LongitudeDegrees>20.037594325840473175048828125</LongitudeDegrees>
            </Position>
            <AltitudeMeters>576.79998779296875</AltitudeMeters>
            <DistanceMeters>NAN</DistanceMeters>
          </Trackpoint>
          <Trackpoint>
            <Time>2022-09-20T07:20:06.000Z</Time>
            <Position>
              <LatitudeDegrees>49.4785422272980213165283203125</LatitudeDegrees>
              <LongitudeDegrees>20.0376018695533275604248046875</LongitudeDegrees>
            </Position>
            <AltitudeMeters>576.20001220703125</AltitudeMeters>
            <DistanceMeters>NAN</DistanceMeters>
          </Trackpoint>
          <Trackpoint>
            <Time>2022-09-20T07:20:09.000Z</Time>
            <Position>
              <LatitudeDegrees>49.4787393696606159210205078125</LatitudeDegrees>
              <LongitudeDegrees>20.03764562308788299560546875</LongitudeDegrees>
            </Position>
            <AltitudeMeters>575</AltitudeMeters>
            <DistanceMeters>NAN</DistanceMeters>
          </Trackpoint>
          <Trackpoint>
            <Time>2022-09-20T07:20:10.000Z</Time>
            <Position>
              <LatitudeDegrees>49.47880282066762447357177734375</LatitudeDegrees>
              <LongitudeDegrees>20.03767051734030246734619140625</LongitudeDegrees>
            </Position>
            <AltitudeMeters>574.5999755859375</AltitudeMeters>
            <DistanceMeters>NAN</DistanceMeters>
          </Trackpoint>
          <Trackpoint>
            <Time>2022-09-20T07:20:11.000Z</Time>
            <Position>
              <LatitudeDegrees>49.47886082343757152557373046875</LatitudeDegrees>
              <LongitudeDegrees>20.03769851289689540863037109375</LongitudeDegrees>
            </Position>
            <AltitudeMeters>574.5999755859375</AltitudeMeters>
            <DistanceMeters>NAN</DistanceMeters>
          </Trackpoint>
          <Trackpoint>
            <Time>2022-09-20T07:20:15.000Z</Time>
            <Position>
              <LatitudeDegrees>49.4790850393474102020263671875</LatitudeDegrees>
              <LongitudeDegrees>20.03787252120673656463623046875</LongitudeDegrees>
            </Position>
            <AltitudeMeters>575</AltitudeMeters>
            <DistanceMeters>NAN</DistanceMeters>
          </Trackpoint>
          <Trackpoint>
            <Time>2022-09-20T07:20:16.000Z</Time>
            <Position>
              <LatitudeDegrees>49.47913558222353458404541015625</LatitudeDegrees>
              <LongitudeDegrees>20.0379207171499729156494140625</LongitudeDegrees>
            </Position>
            <AltitudeMeters>575.20001220703125</AltitudeMeters>
            <DistanceMeters>NAN</DistanceMeters>
          </Trackpoint>
          <Trackpoint>
            <Time>2022-09-20T07:20:18.000Z</Time>
            <Position>
              <LatitudeDegrees>49.47923147119581699371337890625</LatitudeDegrees>
              <LongitudeDegrees>20.03800981678068637847900390625</LongitudeDegrees>
            </Position>
            <AltitudeMeters>575.4000244140625</AltitudeMeters>
            <DistanceMeters>NAN</DistanceMeters>
          </Trackpoint>
          <Trackpoint>
            <Time>2022-09-20T07:20:22.000Z</Time>
            <Position>
              <LatitudeDegrees>49.4794129393994808197021484375</LatitudeDegrees>
              <LongitudeDegrees>20.038156919181346893310546875</LongitudeDegrees>
            </Position>
            <AltitudeMeters>575.5999755859375</AltitudeMeters>
            <DistanceMeters>NAN</DistanceMeters>
          </Trackpoint>
          <Trackpoint>
            <Time>2022-09-20T07:20:24.000Z</Time>
            <Position>
              <LatitudeDegrees>49.479486532509326934814453125</LatitudeDegrees>
              <LongitudeDegrees>20.03820955753326416015625</LongitudeDegrees>
            </Position>
            <AltitudeMeters>576</AltitudeMeters>
            <DistanceMeters>NAN</DistanceMeters>
          </Trackpoint>
          <Trackpoint>
            <Time>2022-09-20T07:20:25.000Z</Time>
            <Position>
              <LatitudeDegrees>49.47952173650264739990234375</LatitudeDegrees>
              <LongitudeDegrees>20.038231350481510162353515625</LongitudeDegrees>
            </Position>
            <AltitudeMeters>576</AltitudeMeters>
            <DistanceMeters>NAN</DistanceMeters>
          </Trackpoint>
          <Trackpoint>
            <Time>2022-09-20T07:20:28.000Z</Time>
            <Position>
              <LatitudeDegrees>49.47960698045790195465087890625</LatitudeDegrees>
              <LongitudeDegrees>20.03827569074928760528564453125</LongitudeDegrees>
            </Position>
            <AltitudeMeters>576.20001220703125</AltitudeMeters>
            <DistanceMeters>NAN</DistanceMeters>
          </Trackpoint>
          <Trackpoint>
            <Time>2022-09-20T07:20:33.000Z</Time>
            <Position>
              <LatitudeDegrees>49.479734636843204498291015625</LatitudeDegrees>
              <LongitudeDegrees>20.03837049007415771484375</LongitudeDegrees>
            </Position>
            <AltitudeMeters>576.20001220703125</AltitudeMeters>
            <DistanceMeters>NAN</DistanceMeters>
          </Trackpoint>
          <Trackpoint>
            <Time>2022-09-20T07:20:41.000Z</Time>
            <Position>
              <LatitudeDegrees>49.47993588633835315704345703125</LatitudeDegrees>
              <LongitudeDegrees>20.03842907957732677459716796875</LongitudeDegrees>
            </Position>
            <AltitudeMeters>576</AltitudeMeters>
            <DistanceMeters>NAN</DistanceMeters>
          </Trackpoint>
          <Trackpoint>
            <Time>2022-09-20T07:20:51.000Z</Time>
            <Position>
              <LatitudeDegrees>49.4801579229533672332763671875</LatitudeDegrees>
              <LongitudeDegrees>20.03847501240670680999755859375</LongitudeDegrees>
            </Position>
            <AltitudeMeters>575.79998779296875</AltitudeMeters>
            <DistanceMeters>NAN</DistanceMeters>
          </Trackpoint>
          <Trackpoint>
            <Time>2022-09-20T07:20:58.000Z</Time>
            <Position>
              <LatitudeDegrees>49.4803051091730594635009765625</LatitudeDegrees>
              <LongitudeDegrees>20.03849093802273273468017578125</LongitudeDegrees>
            </Position>
            <AltitudeMeters>575.79998779296875</AltitudeMeters>
            <DistanceMeters>NAN</DistanceMeters>
          </Trackpoint>
          <Trackpoint>
            <Time>2022-09-20T07:21:02.000Z</Time>
            <Position>
              <LatitudeDegrees>49.4803983159363269805908203125</LatitudeDegrees>
              <LongitudeDegrees>20.03851574845612049102783203125</LongitudeDegrees>
            </Position>
            <AltitudeMeters>575.79998779296875</AltitudeMeters>
            <DistanceMeters>NAN</DistanceMeters>
          </Trackpoint>
          <Trackpoint>
            <Time>2022-09-20T07:21:04.000Z</Time>
            <Position>
              <LatitudeDegrees>49.48043980635702610015869140625</LatitudeDegrees>
              <LongitudeDegrees>20.03853016532957553863525390625</LongitudeDegrees>
            </Position>
            <AltitudeMeters>575.79998779296875</AltitudeMeters>
            <DistanceMeters>NAN</DistanceMeters>
          </Trackpoint>
          <Trackpoint>
            <Time>2022-09-20T07:21:06.000Z</Time>
            <Position>
              <LatitudeDegrees>49.4804764352738857269287109375</LatitudeDegrees>
              <LongitudeDegrees>20.03856553696095943450927734375</LongitudeDegrees>
            </Position>
            <AltitudeMeters>575.79998779296875</AltitudeMeters>
            <DistanceMeters>NAN</DistanceMeters>
          </Trackpoint>
          <Trackpoint>
            <Time>2022-09-20T07:21:13.000Z</Time>
            <Position>
              <LatitudeDegrees>49.48061884380877017974853515625</LatitudeDegrees>
              <LongitudeDegrees>20.03861180506646633148193359375</LongitudeDegrees>
            </Position>
            <AltitudeMeters>575.79998779296875</AltitudeMeters>
            <DistanceMeters>NAN</DistanceMeters>
          </Trackpoint>
          <Trackpoint>
            <Time>2022-09-20T07:21:17.000Z</Time>
            <Position>
              <LatitudeDegrees>49.48069260455667972564697265625</LatitudeDegrees>
              <LongitudeDegrees>20.03861046396195888519287109375</LongitudeDegrees>
            </Position>
            <AltitudeMeters>575.79998779296875</AltitudeMeters>
            <DistanceMeters>NAN</DistanceMeters>
          </Trackpoint>
          <Trackpoint>
            <Time>2022-09-20T07:21:19.000Z</Time>
            <Position>
              <LatitudeDegrees>49.4807092845439910888671875</LatitudeDegrees>
              <LongitudeDegrees>20.03861884586513042449951171875</LongitudeDegrees>
            </Position>
            <AltitudeMeters>575.79998779296875</AltitudeMeters>
            <DistanceMeters>NAN</DistanceMeters>
          </Trackpoint>
          <Trackpoint>
            <Time>2022-09-20T07:21:22.000Z</Time>
            <Position>
              <LatitudeDegrees>49.48072680272161960601806640625</LatitudeDegrees>
              <LongitudeDegrees>20.03863879479467868804931640625</LongitudeDegrees>
            </Position>
            <AltitudeMeters>575.79998779296875</AltitudeMeters>
            <DistanceMeters>NAN</DistanceMeters>
          </Trackpoint>
          <Trackpoint>
            <Time>2022-09-20T07:21:26.000Z</Time>
            <Position>
              <LatitudeDegrees>49.4807292334735393524169921875</LatitudeDegrees>
              <LongitudeDegrees>20.03869327716529369354248046875</LongitudeDegrees>
            </Position>
            <AltitudeMeters>575.4000244140625</AltitudeMeters>
            <DistanceMeters>NAN</DistanceMeters>
          </Trackpoint>
          <Trackpoint>
            <Time>2022-09-20T07:21:34.000Z</Time>
            <Position>
              <LatitudeDegrees>49.4807292334735393524169921875</LatitudeDegrees>
              <LongitudeDegrees>20.03869327716529369354248046875</LongitudeDegrees>
            </Position>
            <AltitudeMeters>575.20001220703125</AltitudeMeters>
            <DistanceMeters>NAN</DistanceMeters>
          </Trackpoint>
          <Trackpoint>
            <Time>2022-09-20T07:21:35.000Z</Time>
            <Position>
              <LatitudeDegrees>49.4807292334735393524169921875</LatitudeDegrees>
              <LongitudeDegrees>20.03869327716529369354248046875</LongitudeDegrees>
            </Position>
            <AltitudeMeters>575</AltitudeMeters>
            <DistanceMeters>NAN</DistanceMeters>
          </Trackpoint>
          <Trackpoint>
            <Time>2022-09-20T07:21:41.000Z</Time>
            <Position>
              <LatitudeDegrees>49.4807292334735393524169921875</LatitudeDegrees>
              <LongitudeDegrees>20.03869327716529369354248046875</LongitudeDegrees>
            </Position>
            <AltitudeMeters>575.20001220703125</AltitudeMeters>
            <DistanceMeters>NAN</DistanceMeters>
          </Trackpoint>
          <Trackpoint>
            <Time>2022-09-20T07:21:43.000Z</Time>
            <Position>
              <LatitudeDegrees>49.4807307422161102294921875</LatitudeDegrees>
              <LongitudeDegrees>20.038694031536579132080078125</LongitudeDegrees>
            </Position>
            <AltitudeMeters>575</AltitudeMeters>
            <DistanceMeters>NAN</DistanceMeters>
          </Trackpoint>
          <Trackpoint>
            <Time>2022-09-20T07:21:45.000Z</Time>
            <Position>
              <LatitudeDegrees>49.4807584024965763092041015625</LatitudeDegrees>
              <LongitudeDegrees>20.03870308399200439453125</LongitudeDegrees>
            </Position>
            <AltitudeMeters>575</AltitudeMeters>
            <DistanceMeters>NAN</DistanceMeters>
          </Trackpoint>
          <Trackpoint>
            <Time>2022-09-20T07:21:46.000Z</Time>
            <Position>
              <LatitudeDegrees>49.48077491484582424163818359375</LatitudeDegrees>
              <LongitudeDegrees>20.03869813866913318634033203125</LongitudeDegrees>
            </Position>
            <AltitudeMeters>575</AltitudeMeters>
            <DistanceMeters>NAN</DistanceMeters>
          </Trackpoint>
          <Trackpoint>
            <Time>2022-09-20T07:21:47.000Z</Time>
            <Position>
              <LatitudeDegrees>49.48078413493931293487548828125</LatitudeDegrees>
              <LongitudeDegrees>20.03868238069117069244384765625</LongitudeDegrees>
            </Position>
            <AltitudeMeters>575.20001220703125</AltitudeMeters>
            <DistanceMeters>NAN</DistanceMeters>
          </Trackpoint>
          <Trackpoint>
            <Time>2022-09-20T07:21:49.000Z</Time>
            <Position>
              <LatitudeDegrees>49.48081095702946186065673828125</LatitudeDegrees>
              <LongitudeDegrees>20.03864784725010395050048828125</LongitudeDegrees>
            </Position>
            <AltitudeMeters>575.4000244140625</AltitudeMeters>
            <DistanceMeters>NAN</DistanceMeters>
          </Trackpoint>
          <Trackpoint>
            <Time>2022-09-20T07:21:50.000Z</Time>
            <Position>
              <LatitudeDegrees>49.48082906194031238555908203125</LatitudeDegrees>
              <LongitudeDegrees>20.0386355258524417877197265625</LongitudeDegrees>
            </Position>
            <AltitudeMeters>575.4000244140625</AltitudeMeters>
            <DistanceMeters>NAN</DistanceMeters>
          </Trackpoint>
          <Trackpoint>
            <Time>2022-09-20T07:21:53.000Z</Time>
            <Position>
              <LatitudeDegrees>49.480904750525951385498046875</LatitudeDegrees>
              <LongitudeDegrees>20.03864935599267482757568359375</LongitudeDegrees>
            </Position>
            <AltitudeMeters>575.4000244140625</AltitudeMeters>
            <DistanceMeters>NAN</DistanceMeters>
          </Trackpoint>
          <Trackpoint>
            <Time>2022-09-20T07:21:59.000Z</Time>
            <Position>
              <LatitudeDegrees>49.48109091259539127349853515625</LatitudeDegrees>
              <LongitudeDegrees>20.0387079454958438873291015625</LongitudeDegrees>
            </Position>
            <AltitudeMeters>575.4000244140625</AltitudeMeters>
            <DistanceMeters>NAN</DistanceMeters>
          </Trackpoint>
          <Trackpoint>
            <Time>2022-09-20T07:22:03.000Z</Time>
            <Position>
              <LatitudeDegrees>49.481207169592380523681640625</LatitudeDegrees>
              <LongitudeDegrees>20.03874541260302066802978515625</LongitudeDegrees>
            </Position>
            <AltitudeMeters>575.4000244140625</AltitudeMeters>
            <DistanceMeters>NAN</DistanceMeters>
          </Trackpoint>
          <Trackpoint>
            <Time>2022-09-20T07:22:06.000Z</Time>
            <Position>
              <LatitudeDegrees>49.4812861271202564239501953125</LatitudeDegrees>
              <LongitudeDegrees>20.0387837179005146026611328125</LongitudeDegrees>
            </Position>
            <AltitudeMeters>575.4000244140625</AltitudeMeters>
            <DistanceMeters>NAN</DistanceMeters>
          </Trackpoint>
          <Trackpoint>
            <Time>2022-09-20T07:22:12.000Z</Time>
            <Position>
              <LatitudeDegrees>49.4814095087349414825439453125</LatitudeDegrees>
              <LongitudeDegrees>20.03889310173690319061279296875</LongitudeDegrees>
            </Position>
            <AltitudeMeters>575.4000244140625</AltitudeMeters>
            <DistanceMeters>NAN</DistanceMeters>
          </Trackpoint>
          <Trackpoint>
            <Time>2022-09-20T07:22:18.000Z</Time>
            <Position>
              <LatitudeDegrees>49.4814856164157390594482421875</LatitudeDegrees>
              <LongitudeDegrees>20.03904012031853199005126953125</LongitudeDegrees>
            </Position>
            <AltitudeMeters>575.5999755859375</AltitudeMeters>
            <DistanceMeters>NAN</DistanceMeters>
          </Trackpoint>
          <Trackpoint>
            <Time>2022-09-20T07:22:24.000Z</Time>
            <Position>
              <LatitudeDegrees>49.48155107907950878143310546875</LatitudeDegrees>
              <LongitudeDegrees>20.03916769288480281829833984375</LongitudeDegrees>
            </Position>
            <AltitudeMeters>575.79998779296875</AltitudeMeters>
            <DistanceMeters>NAN</DistanceMeters>
          </Trackpoint>
          <Trackpoint>
            <Time>2022-09-20T07:22:31.000Z</Time>
            <Position>
              <LatitudeDegrees>49.4815099239349365234375</LatitudeDegrees>
              <LongitudeDegrees>20.03928001038730144500732421875</LongitudeDegrees>
            </Position>
            <AltitudeMeters>575.79998779296875</AltitudeMeters>
            <DistanceMeters>NAN</DistanceMeters>
          </Trackpoint>
          <Trackpoint>
            <Time>2022-09-20T07:22:36.000Z</Time>
            <Position>
              <LatitudeDegrees>49.4815090857446193695068359375</LatitudeDegrees>
              <LongitudeDegrees>20.039306581020355224609375</LongitudeDegrees>
            </Position>
            <AltitudeMeters>575.79998779296875</AltitudeMeters>
            <DistanceMeters>NAN</DistanceMeters>
          </Trackpoint>
          <Trackpoint>
            <Time>2022-09-20T07:22:40.000Z</Time>
            <Position>
              <LatitudeDegrees>49.4815090857446193695068359375</LatitudeDegrees>
              <LongitudeDegrees>20.039306581020355224609375</LongitudeDegrees>
            </Position>
            <AltitudeMeters>575.79998779296875</AltitudeMeters>
            <DistanceMeters>NAN</DistanceMeters>
          </Trackpoint>
          <Trackpoint>
            <Time>2022-09-20T07:22:42.000Z</Time>
            <Position>
              <LatitudeDegrees>49.4815090857446193695068359375</LatitudeDegrees>
              <LongitudeDegrees>20.039306581020355224609375</LongitudeDegrees>
            </Position>
            <AltitudeMeters>575.79998779296875</AltitudeMeters>
            <DistanceMeters>NAN</DistanceMeters>
          </Trackpoint>
          <Trackpoint>
            <Time>2022-09-20T07:22:56.000Z</Time>
            <Position>
              <LatitudeDegrees>49.4815090857446193695068359375</LatitudeDegrees>
              <LongitudeDegrees>20.039306581020355224609375</LongitudeDegrees>
            </Position>
            <AltitudeMeters>575.79998779296875</AltitudeMeters>
            <DistanceMeters>NAN</DistanceMeters>
          </Trackpoint>
          <Trackpoint>
            <Time>2022-09-20T07:22:58.000Z</Time>
            <Position>
              <LatitudeDegrees>49.4815090857446193695068359375</LatitudeDegrees>
              <LongitudeDegrees>20.039306581020355224609375</LongitudeDegrees>
            </Position>
            <AltitudeMeters>575.79998779296875</AltitudeMeters>
            <DistanceMeters>NAN</DistanceMeters>
          </Trackpoint>
          <Trackpoint>
            <Time>2022-09-20T07:23:08.000Z</Time>
            <Position>
              <LatitudeDegrees>49.48151185177266597747802734375</LatitudeDegrees>
              <LongitudeDegrees>20.0393064133822917938232421875</LongitudeDegrees>
            </Position>
            <AltitudeMeters>575.5999755859375</AltitudeMeters>
            <DistanceMeters>NAN</DistanceMeters>
          </Trackpoint>
          <Trackpoint>
            <Time>2022-09-20T07:23:12.000Z</Time>
            <Position>
              <LatitudeDegrees>49.48151185177266597747802734375</LatitudeDegrees>
              <LongitudeDegrees>20.0393064133822917938232421875</LongitudeDegrees>
            </Position>
            <AltitudeMeters>575.5999755859375</AltitudeMeters>
            <DistanceMeters>NAN</DistanceMeters>
          </Trackpoint>
          <Trackpoint>
            <Time>2022-09-20T07:23:26.000Z</Time>
            <Position>
              <LatitudeDegrees>49.4815255142748355865478515625</LatitudeDegrees>
              <LongitudeDegrees>20.039305575191974639892578125</LongitudeDegrees>
            </Position>
            <AltitudeMeters>575.4000244140625</AltitudeMeters>
            <DistanceMeters>NAN</DistanceMeters>
          </Trackpoint>
          <Trackpoint>
            <Time>2022-09-20T07:23:30.000Z</Time>
            <Position>
              <LatitudeDegrees>49.4815255142748355865478515625</LatitudeDegrees>
              <LongitudeDegrees>20.039305575191974639892578125</LongitudeDegrees>
            </Position>
            <AltitudeMeters>575.4000244140625</AltitudeMeters>
            <DistanceMeters>NAN</DistanceMeters>
          </Trackpoint>
          <Trackpoint>
            <Time>2022-09-20T07:23:49.000Z</Time>
            <Position>
              <LatitudeDegrees>49.4815255142748355865478515625</LatitudeDegrees>
              <LongitudeDegrees>20.039305575191974639892578125</LongitudeDegrees>
            </Position>
            <AltitudeMeters>575.5999755859375</AltitudeMeters>
            <DistanceMeters>NAN</DistanceMeters>
          </Trackpoint>
          <Trackpoint>
            <Time>2022-09-20T07:23:56.000Z</Time>
            <Position>
              <LatitudeDegrees>49.4815255142748355865478515625</LatitudeDegrees>
              <LongitudeDegrees>20.039305575191974639892578125</LongitudeDegrees>
            </Position>
            <AltitudeMeters>575.5999755859375</AltitudeMeters>
            <DistanceMeters>NAN</DistanceMeters>
          </Trackpoint>
          <Trackpoint>
            <Time>2022-09-20T07:23:58.000Z</Time>
            <Position>
              <LatitudeDegrees>49.4815255142748355865478515625</LatitudeDegrees>
              <LongitudeDegrees>20.039305575191974639892578125</LongitudeDegrees>
            </Position>
            <AltitudeMeters>575.5999755859375</AltitudeMeters>
            <DistanceMeters>NAN</DistanceMeters>
          </Trackpoint>
          <Trackpoint>
            <Time>2022-09-20T07:24:12.000Z</Time>
            <Position>
              <LatitudeDegrees>49.48152744211256504058837890625</LatitudeDegrees>
              <LongitudeDegrees>20.03930649720132350921630859375</LongitudeDegrees>
            </Position>
            <AltitudeMeters>575.5999755859375</AltitudeMeters>
            <DistanceMeters>NAN</DistanceMeters>
          </Trackpoint>
          <Trackpoint>
            <Time>2022-09-20T07:24:15.000Z</Time>
            <Position>
              <LatitudeDegrees>49.48156557977199554443359375</LatitudeDegrees>
              <LongitudeDegrees>20.03933315165340900421142578125</LongitudeDegrees>
            </Position>
            <AltitudeMeters>575.5999755859375</AltitudeMeters>
            <DistanceMeters>NAN</DistanceMeters>
          </Trackpoint>
          <Trackpoint>
            <Time>2022-09-20T07:24:20.000Z</Time>
            <Position>
              <LatitudeDegrees>49.48165266774594783782958984375</LatitudeDegrees>
              <LongitudeDegrees>20.0393587164580821990966796875</LongitudeDegrees>
            </Position>
            <AltitudeMeters>575.4000244140625</AltitudeMeters>
            <DistanceMeters>NAN</DistanceMeters>
          </Trackpoint>
          <Trackpoint>
            <Time>2022-09-20T07:24:22.000Z</Time>
            <Position>
              <LatitudeDegrees>49.4816837646067142486572265625</LatitudeDegrees>
              <LongitudeDegrees>20.03934689797461032867431640625</LongitudeDegrees>
            </Position>
            <AltitudeMeters>575.4000244140625</AltitudeMeters>
            <DistanceMeters>NAN</DistanceMeters>
          </Trackpoint>
          <Trackpoint>
            <Time>2022-09-20T07:24:23.000Z</Time>
            <Position>
              <LatitudeDegrees>49.48170245625078678131103515625</LatitudeDegrees>
              <LongitudeDegrees>20.03934656269848346710205078125</LongitudeDegrees>
            </Position>
            <AltitudeMeters>575.4000244140625</AltitudeMeters>
            <DistanceMeters>NAN</DistanceMeters>
          </Trackpoint>
          <Trackpoint>
            <Time>2022-09-20T07:24:27.000Z</Time>
            <Position>
              <LatitudeDegrees>49.48177504353225231170654296875</LatitudeDegrees>
              <LongitudeDegrees>20.039380006492137908935546875</LongitudeDegrees>
            </Position>
            <AltitudeMeters>575.5999755859375</AltitudeMeters>
            <DistanceMeters>NAN</DistanceMeters>
          </Trackpoint>
          <Trackpoint>
            <Time>2022-09-20T07:24:28.000Z</Time>
            <Position>
              <LatitudeDegrees>49.48179314844310283660888671875</LatitudeDegrees>
              <LongitudeDegrees>20.03939031623303890228271484375</LongitudeDegrees>
            </Position>
            <AltitudeMeters>575.5999755859375</AltitudeMeters>
            <DistanceMeters>NAN</DistanceMeters>
          </Trackpoint>
          <Trackpoint>
            <Time>2022-09-20T07:24:35.000Z</Time>
            <Position>
              <LatitudeDegrees>49.4818980060517787933349609375</LatitudeDegrees>
              <LongitudeDegrees>20.03946474753320217132568359375</LongitudeDegrees>
            </Position>
            <AltitudeMeters>575.4000244140625</AltitudeMeters>
            <DistanceMeters>NAN</DistanceMeters>
          </Trackpoint>
          <Trackpoint>
            <Time>2022-09-20T07:24:41.000Z</Time>
            <Position>
              <LatitudeDegrees>49.48198408819735050201416015625</LatitudeDegrees>
              <LongitudeDegrees>20.03951403312385082244873046875</LongitudeDegrees>
            </Position>
            <AltitudeMeters>574.79998779296875</AltitudeMeters>
            <DistanceMeters>NAN</DistanceMeters>
          </Trackpoint>
          <Trackpoint>
            <Time>2022-09-20T07:24:43.000Z</Time>
            <Position>
              <LatitudeDegrees>49.48200185783207416534423828125</LatitudeDegrees>
              <LongitudeDegrees>20.0395253486931324005126953125</LongitudeDegrees>
            </Position>
            <AltitudeMeters>574.79998779296875</AltitudeMeters>
            <DistanceMeters>NAN</DistanceMeters>
          </Trackpoint>
          <Trackpoint>
            <Time>2022-09-20T07:24:47.000Z</Time>
            <Position>
              <LatitudeDegrees>49.4820021092891693115234375</LatitudeDegrees>
              <LongitudeDegrees>20.03952844999730587005615234375</LongitudeDegrees>
            </Position>
            <AltitudeMeters>574.79998779296875</AltitudeMeters>
            <DistanceMeters>NAN</DistanceMeters>
          </Trackpoint>
          <Trackpoint>
            <Time>2022-09-20T07:24:52.000Z</Time>
            <Position>
              <LatitudeDegrees>49.48200319893658161163330078125</LatitudeDegrees>
              <LongitudeDegrees>20.039536915719509124755859375</LongitudeDegrees>
            </Position>
            <AltitudeMeters>574.79998779296875</AltitudeMeters>
            <DistanceMeters>NAN</DistanceMeters>
          </Trackpoint>
          <Trackpoint>
            <Time>2022-09-20T07:24:55.000Z</Time>
            <Position>
              <LatitudeDegrees>49.48200319893658161163330078125</LatitudeDegrees>
              <LongitudeDegrees>20.039536915719509124755859375</LongitudeDegrees>
            </Position>
            <AltitudeMeters>574.79998779296875</AltitudeMeters>
            <DistanceMeters>NAN</DistanceMeters>
          </Trackpoint>
          <Trackpoint>
            <Time>2022-09-20T07:25:04.000Z</Time>
            <Position>
              <LatitudeDegrees>49.48200319893658161163330078125</LatitudeDegrees>
              <LongitudeDegrees>20.039536915719509124755859375</LongitudeDegrees>
            </Position>
            <AltitudeMeters>575</AltitudeMeters>
            <DistanceMeters>NAN</DistanceMeters>
          </Trackpoint>
          <Trackpoint>
            <Time>2022-09-20T07:25:09.000Z</Time>
            <Position>
              <LatitudeDegrees>49.48200386948883533477783203125</LatitudeDegrees>
              <LongitudeDegrees>20.03953733481466770172119140625</LongitudeDegrees>
            </Position>
            <AltitudeMeters>575</AltitudeMeters>
            <DistanceMeters>NAN</DistanceMeters>
          </Trackpoint>
          <Trackpoint>
            <Time>2022-09-20T07:25:15.000Z</Time>
            <Position>
              <LatitudeDegrees>49.48200386948883533477783203125</LatitudeDegrees>
              <LongitudeDegrees>20.03953733481466770172119140625</LongitudeDegrees>
            </Position>
            <AltitudeMeters>575.20001220703125</AltitudeMeters>
            <DistanceMeters>NAN</DistanceMeters>
          </Trackpoint>
          <Trackpoint>
            <Time>2022-09-20T07:25:40.000Z</Time>
            <Position>
              <LatitudeDegrees>49.4820101559162139892578125</LatitudeDegrees>
              <LongitudeDegrees>20.0395411066710948944091796875</LongitudeDegrees>
            </Position>
            <AltitudeMeters>574.5999755859375</AltitudeMeters>
            <DistanceMeters>NAN</DistanceMeters>
          </Trackpoint>
          <Trackpoint>
            <Time>2022-09-20T07:25:42.000Z</Time>
            <Position>
              <LatitudeDegrees>49.4820101559162139892578125</LatitudeDegrees>
              <LongitudeDegrees>20.0395411066710948944091796875</LongitudeDegrees>
            </Position>
            <AltitudeMeters>574.5999755859375</AltitudeMeters>
            <DistanceMeters>NAN</DistanceMeters>
          </Trackpoint>
          <Trackpoint>
            <Time>2022-09-20T07:25:58.000Z</Time>
            <Position>
              <LatitudeDegrees>49.4820101559162139892578125</LatitudeDegrees>
              <LongitudeDegrees>20.0395411066710948944091796875</LongitudeDegrees>
            </Position>
            <AltitudeMeters>574.20001220703125</AltitudeMeters>
            <DistanceMeters>NAN</DistanceMeters>
          </Trackpoint>
          <Trackpoint>
            <Time>2022-09-20T07:26:05.000Z</Time>
            <Position>
              <LatitudeDegrees>49.4820101559162139892578125</LatitudeDegrees>
              <LongitudeDegrees>20.0395411066710948944091796875</LongitudeDegrees>
            </Position>
            <AltitudeMeters>574.20001220703125</AltitudeMeters>
            <DistanceMeters>NAN</DistanceMeters>
          </Trackpoint>
          <Trackpoint>
            <Time>2022-09-20T07:26:23.000Z</Time>
            <Position>
              <LatitudeDegrees>49.4820101559162139892578125</LatitudeDegrees>
              <LongitudeDegrees>20.0395411066710948944091796875</LongitudeDegrees>
            </Position>
            <AltitudeMeters>574.20001220703125</AltitudeMeters>
            <DistanceMeters>NAN</DistanceMeters>
          </Trackpoint>
          <Trackpoint>
            <Time>2022-09-20T07:26:56.000Z</Time>
            <Position>
              <LatitudeDegrees>49.48203035630285739898681640625</LatitudeDegrees>
              <LongitudeDegrees>20.03954739309847354888916015625</LongitudeDegrees>
            </Position>
            <AltitudeMeters>574.20001220703125</AltitudeMeters>
            <DistanceMeters>NAN</DistanceMeters>
          </Trackpoint>
          <Trackpoint>
            <Time>2022-09-20T07:26:58.000Z</Time>
            <Position>
              <LatitudeDegrees>49.4820678234100341796875</LatitudeDegrees>
              <LongitudeDegrees>20.039559043943881988525390625</LongitudeDegrees>
            </Position>
            <AltitudeMeters>574.20001220703125</AltitudeMeters>
            <DistanceMeters>NAN</DistanceMeters>
          </Trackpoint>
          <Trackpoint>
            <Time>2022-09-20T07:27:03.000Z</Time>
            <Position>
              <LatitudeDegrees>49.4821665622293949127197265625</LatitudeDegrees>
              <LongitudeDegrees>20.0395850278437137603759765625</LongitudeDegrees>
            </Position>
            <AltitudeMeters>574.20001220703125</AltitudeMeters>
            <DistanceMeters>NAN</DistanceMeters>
          </Trackpoint>
          <Trackpoint>
            <Time>2022-09-20T07:27:05.000Z</Time>
            <Position>
              <LatitudeDegrees>49.48220017366111278533935546875</LatitudeDegrees>
              <LongitudeDegrees>20.03959651105105876922607421875</LongitudeDegrees>
            </Position>
            <AltitudeMeters>574.4000244140625</AltitudeMeters>
            <DistanceMeters>NAN</DistanceMeters>
          </Trackpoint>
          <Trackpoint>
            <Time>2022-09-20T07:27:06.000Z</Time>
            <Position>
              <LatitudeDegrees>49.4822202064096927642822265625</LatitudeDegrees>
              <LongitudeDegrees>20.0396027974784374237060546875</LongitudeDegrees>
            </Position>
            <AltitudeMeters>574.4000244140625</AltitudeMeters>
            <DistanceMeters>NAN</DistanceMeters>
          </Trackpoint>
          <Trackpoint>
            <Time>2022-09-20T07:27:08.000Z</Time>
            <Position>
              <LatitudeDegrees>49.48225884698331356048583984375</LatitudeDegrees>
              <LongitudeDegrees>20.0396096706390380859375</LongitudeDegrees>
            </Position>
            <AltitudeMeters>574.20001220703125</AltitudeMeters>
            <DistanceMeters>NAN</DistanceMeters>
          </Trackpoint>
          <Trackpoint>
            <Time>2022-09-20T07:27:14.000Z</Time>
            <Position>
              <LatitudeDegrees>49.48237753473222255706787109375</LatitudeDegrees>
              <LongitudeDegrees>20.03962132148444652557373046875</LongitudeDegrees>
            </Position>
            <AltitudeMeters>574</AltitudeMeters>
            <DistanceMeters>NAN</DistanceMeters>
          </Trackpoint>
          <Trackpoint>
            <Time>2022-09-20T07:27:18.000Z</Time>
            <Position>
              <LatitudeDegrees>49.48249890469014644622802734375</LatitudeDegrees>
              <LongitudeDegrees>20.03960791043937206268310546875</LongitudeDegrees>
            </Position>
            <AltitudeMeters>573.79998779296875</AltitudeMeters>
            <DistanceMeters>NAN</DistanceMeters>
          </Trackpoint>
          <Trackpoint>
            <Time>2022-09-20T07:27:19.000Z</Time>
            <Position>
              <LatitudeDegrees>49.48253494687378406524658203125</LatitudeDegrees>
              <LongitudeDegrees>20.039599277079105377197265625</LongitudeDegrees>
            </Position>
            <AltitudeMeters>573.79998779296875</AltitudeMeters>
            <DistanceMeters>NAN</DistanceMeters>
          </Trackpoint>
          <Trackpoint>
            <Time>2022-09-20T07:27:26.000Z</Time>
            <Position>
              <LatitudeDegrees>49.48276209644973278045654296875</LatitudeDegrees>
              <LongitudeDegrees>20.03952006809413433074951171875</LongitudeDegrees>
            </Position>
            <AltitudeMeters>573.5999755859375</AltitudeMeters>
            <DistanceMeters>NAN</DistanceMeters>
          </Trackpoint>
          <Trackpoint>
            <Time>2022-09-20T07:27:27.000Z</Time>
            <Position>
              <LatitudeDegrees>49.48279378004372119903564453125</LatitudeDegrees>
              <LongitudeDegrees>20.03950146026909351348876953125</LongitudeDegrees>
            </Position>
            <AltitudeMeters>573.5999755859375</AltitudeMeters>
            <DistanceMeters>NAN</DistanceMeters>
          </Trackpoint>
          <Trackpoint>
            <Time>2022-09-20T07:27:30.000Z</Time>
            <Position>
              <LatitudeDegrees>49.48288279585540294647216796875</LatitudeDegrees>
              <LongitudeDegrees>20.03944798372685909271240234375</LongitudeDegrees>
            </Position>
            <AltitudeMeters>573.4000244140625</AltitudeMeters>
            <DistanceMeters>NAN</DistanceMeters>
          </Trackpoint>
          <Trackpoint>
            <Time>2022-09-20T07:27:33.000Z</Time>
            <Position>
              <LatitudeDegrees>49.48297977447509765625</LatitudeDegrees>
              <LongitudeDegrees>20.03938662819564342498779296875</LongitudeDegrees>
            </Position>
            <AltitudeMeters>573.4000244140625</AltitudeMeters>
            <DistanceMeters>NAN</DistanceMeters>
          </Trackpoint>
          <Trackpoint>
            <Time>2022-09-20T07:27:39.000Z</Time>
            <Position>
              <LatitudeDegrees>49.48317666538059711456298828125</LatitudeDegrees>
              <LongitudeDegrees>20.03926173783838748931884765625</LongitudeDegrees>
            </Position>
            <AltitudeMeters>573.5999755859375</AltitudeMeters>
            <DistanceMeters>NAN</DistanceMeters>
          </Trackpoint>
          <Trackpoint>
            <Time>2022-09-20T07:27:43.000Z</Time>
            <Position>
              <LatitudeDegrees>49.4832464866340160369873046875</LatitudeDegrees>
              <LongitudeDegrees>20.039216391742229461669921875</LongitudeDegrees>
            </Position>
            <AltitudeMeters>573.5999755859375</AltitudeMeters>
            <DistanceMeters>NAN</DistanceMeters>
          </Trackpoint>
          <Trackpoint>
            <Time>2022-09-20T07:27:46.000Z</Time>
            <Position>
              <LatitudeDegrees>49.4832464866340160369873046875</LatitudeDegrees>
              <LongitudeDegrees>20.039216391742229461669921875</LongitudeDegrees>
            </Position>
            <AltitudeMeters>573.5999755859375</AltitudeMeters>
            <DistanceMeters>NAN</DistanceMeters>
          </Trackpoint>
          <Trackpoint>
            <Time>2022-09-20T07:27:53.000Z</Time>
            <Position>
              <LatitudeDegrees>49.4832464866340160369873046875</LatitudeDegrees>
              <LongitudeDegrees>20.039216391742229461669921875</LongitudeDegrees>
            </Position>
            <AltitudeMeters>573.79998779296875</AltitudeMeters>
            <DistanceMeters>NAN</DistanceMeters>
          </Trackpoint>
          <Trackpoint>
            <Time>2022-09-20T07:27:55.000Z</Time>
            <Position>
              <LatitudeDegrees>49.4832464866340160369873046875</LatitudeDegrees>
              <LongitudeDegrees>20.039216391742229461669921875</LongitudeDegrees>
            </Position>
            <AltitudeMeters>573.79998779296875</AltitudeMeters>
            <DistanceMeters>NAN</DistanceMeters>
          </Trackpoint>
          <Trackpoint>
            <Time>2022-09-20T07:28:03.000Z</Time>
            <Position>
              <LatitudeDegrees>49.4832464866340160369873046875</LatitudeDegrees>
              <LongitudeDegrees>20.039216391742229461669921875</LongitudeDegrees>
            </Position>
            <AltitudeMeters>573.5999755859375</AltitudeMeters>
            <DistanceMeters>NAN</DistanceMeters>
          </Trackpoint>
          <Trackpoint>
            <Time>2022-09-20T07:28:12.000Z</Time>
            <Position>
              <LatitudeDegrees>49.48327607475221157073974609375</LatitudeDegrees>
              <LongitudeDegrees>20.03919233568012714385986328125</LongitudeDegrees>
            </Position>
            <AltitudeMeters>573.4000244140625</AltitudeMeters>
            <DistanceMeters>NAN</DistanceMeters>
          </Trackpoint>
          <Trackpoint>
            <Time>2022-09-20T07:28:16.000Z</Time>
            <Position>
              <LatitudeDegrees>49.48338545858860015869140625</LatitudeDegrees>
              <LongitudeDegrees>20.03910340368747711181640625</LongitudeDegrees>
            </Position>
            <AltitudeMeters>573</AltitudeMeters>
            <DistanceMeters>NAN</DistanceMeters>
          </Trackpoint>
          <Trackpoint>
            <Time>2022-09-20T07:28:24.000Z</Time>
            <Position>
              <LatitudeDegrees>49.4836555235087871551513671875</LatitudeDegrees>
              <LongitudeDegrees>20.03895864821970462799072265625</LongitudeDegrees>
            </Position>
            <AltitudeMeters>573.4000244140625</AltitudeMeters>
            <DistanceMeters>NAN</DistanceMeters>
          </Trackpoint>
          <Trackpoint>
            <Time>2022-09-20T07:28:35.000Z</Time>
            <Position>
              <LatitudeDegrees>49.4840239919722080230712890625</LatitudeDegrees>
              <LongitudeDegrees>20.038764774799346923828125</LongitudeDegrees>
            </Position>
            <AltitudeMeters>573.79998779296875</AltitudeMeters>
            <DistanceMeters>NAN</DistanceMeters>
          </Trackpoint>
          <Trackpoint>
            <Time>2022-09-20T07:28:40.000Z</Time>
            <Position>
              <LatitudeDegrees>49.48420696891844272613525390625</LatitudeDegrees>
              <LongitudeDegrees>20.03869947977364063262939453125</LongitudeDegrees>
            </Position>
            <AltitudeMeters>575</AltitudeMeters>
            <DistanceMeters>NAN</DistanceMeters>
          </Trackpoint>
          <Trackpoint>
            <Time>2022-09-20T07:28:42.000Z</Time>
            <Position>
              <LatitudeDegrees>49.48427134193480014801025390625</LatitudeDegrees>
              <LongitudeDegrees>20.03867785446345806121826171875</LongitudeDegrees>
            </Position>
            <AltitudeMeters>575.4000244140625</AltitudeMeters>
            <DistanceMeters>NAN</DistanceMeters>
          </Trackpoint>
          <Trackpoint>
            <Time>2022-09-20T07:28:45.000Z</Time>
            <Position>
              <LatitudeDegrees>49.48435767553746700286865234375</LatitudeDegrees>
              <LongitudeDegrees>20.03865773789584636688232421875</LongitudeDegrees>
            </Position>
            <AltitudeMeters>575.79998779296875</AltitudeMeters>
            <DistanceMeters>NAN</DistanceMeters>
          </Trackpoint>
          <Trackpoint>
            <Time>2022-09-20T07:28:46.000Z</Time>
            <Position>
              <LatitudeDegrees>49.484384916722774505615234375</LatitudeDegrees>
              <LongitudeDegrees>20.03864835016429424285888671875</LongitudeDegrees>
            </Position>
            <AltitudeMeters>576</AltitudeMeters>
            <DistanceMeters>NAN</DistanceMeters>
          </Trackpoint>
          <Trackpoint>
            <Time>2022-09-20T07:28:47.000Z</Time>
            <Position>
              <LatitudeDegrees>49.48441349901258945465087890625</LatitudeDegrees>
              <LongitudeDegrees>20.03864197991788387298583984375</LongitudeDegrees>
            </Position>
            <AltitudeMeters>576.20001220703125</AltitudeMeters>
            <DistanceMeters>NAN</DistanceMeters>
          </Trackpoint>
          <Trackpoint>
            <Time>2022-09-20T07:28:51.000Z</Time>
            <Position>
              <LatitudeDegrees>49.48450787924230098724365234375</LatitudeDegrees>
              <LongitudeDegrees>20.038632340729236602783203125</LongitudeDegrees>
            </Position>
            <AltitudeMeters>576.79998779296875</AltitudeMeters>
            <DistanceMeters>NAN</DistanceMeters>
          </Trackpoint>
          <Trackpoint>
            <Time>2022-09-20T07:28:53.000Z</Time>
            <Position>
              <LatitudeDegrees>49.48454593308269977569580078125</LatitudeDegrees>
              <LongitudeDegrees>20.03863141871988773345947265625</LongitudeDegrees>
            </Position>
            <AltitudeMeters>577.20001220703125</AltitudeMeters>
            <DistanceMeters>NAN</DistanceMeters>
          </Trackpoint>
          <Trackpoint>
            <Time>2022-09-20T07:28:54.000Z</Time>
            <Position>
              <LatitudeDegrees>49.48456269688904285430908203125</LatitudeDegrees>
              <LongitudeDegrees>20.038626305758953094482421875</LongitudeDegrees>
            </Position>
            <AltitudeMeters>577.4000244140625</AltitudeMeters>
            <DistanceMeters>NAN</DistanceMeters>
          </Trackpoint>
          <Trackpoint>
            <Time>2022-09-20T07:29:01.000Z</Time>
            <Position>
              <LatitudeDegrees>49.48467560112476348876953125</LatitudeDegrees>
              <LongitudeDegrees>20.0385959632694721221923828125</LongitudeDegrees>
            </Position>
            <AltitudeMeters>578</AltitudeMeters>
            <DistanceMeters>NAN</DistanceMeters>
          </Trackpoint>
          <Trackpoint>
            <Time>2022-09-20T07:29:04.000Z</Time>
            <Position>
              <LatitudeDegrees>49.48473393917083740234375</LatitudeDegrees>
              <LongitudeDegrees>20.03859017975628376007080078125</LongitudeDegrees>
            </Position>
            <AltitudeMeters>578.20001220703125</AltitudeMeters>
            <DistanceMeters>NAN</DistanceMeters>
          </Trackpoint>
          <Trackpoint>
            <Time>2022-09-20T07:29:10.000Z</Time>
            <Position>
              <LatitudeDegrees>49.48485522530972957611083984375</LatitudeDegrees>
              <LongitudeDegrees>20.038573332130908966064453125</LongitudeDegrees>
            </Position>
            <AltitudeMeters>578.5999755859375</AltitudeMeters>
            <DistanceMeters>NAN</DistanceMeters>
          </Trackpoint>
          <Trackpoint>
            <Time>2022-09-20T07:29:11.000Z</Time>
            <Position>
              <LatitudeDegrees>49.48487408459186553955078125</LatitudeDegrees>
              <LongitudeDegrees>20.038568973541259765625</LongitudeDegrees>
            </Position>
            <AltitudeMeters>578.79998779296875</AltitudeMeters>
            <DistanceMeters>NAN</DistanceMeters>
          </Trackpoint>
          <Trackpoint>
            <Time>2022-09-20T07:29:21.000Z</Time>
            <Position>
              <LatitudeDegrees>49.4850506074726581573486328125</LatitudeDegrees>
              <LongitudeDegrees>20.03856159746646881103515625</LongitudeDegrees>
            </Position>
            <AltitudeMeters>578.79998779296875</AltitudeMeters>
            <DistanceMeters>NAN</DistanceMeters>
          </Trackpoint>
          <Trackpoint>
            <Time>2022-09-20T07:29:28.000Z</Time>
            <Position>
              <LatitudeDegrees>49.48511087335646152496337890625</LatitudeDegrees>
              <LongitudeDegrees>20.0385510362684726715087890625</LongitudeDegrees>
            </Position>
            <AltitudeMeters>579</AltitudeMeters>
            <DistanceMeters>NAN</DistanceMeters>
          </Trackpoint>
          <Trackpoint>
            <Time>2022-09-20T07:29:46.000Z</Time>
            <Position>
              <LatitudeDegrees>49.48511087335646152496337890625</LatitudeDegrees>
              <LongitudeDegrees>20.0385510362684726715087890625</LongitudeDegrees>
            </Position>
            <AltitudeMeters>579.20001220703125</AltitudeMeters>
            <DistanceMeters>NAN</DistanceMeters>
          </Trackpoint>
          <Trackpoint>
            <Time>2022-09-20T07:30:03.000Z</Time>
            <Position>
              <LatitudeDegrees>49.48511087335646152496337890625</LatitudeDegrees>
              <LongitudeDegrees>20.0385510362684726715087890625</LongitudeDegrees>
            </Position>
            <AltitudeMeters>579</AltitudeMeters>
            <DistanceMeters>NAN</DistanceMeters>
          </Trackpoint>
          <Trackpoint>
            <Time>2022-09-20T07:30:07.000Z</Time>
            <Position>
              <LatitudeDegrees>49.4851146452128887176513671875</LatitudeDegrees>
              <LongitudeDegrees>20.03855749033391475677490234375</LongitudeDegrees>
            </Position>
            <AltitudeMeters>579</AltitudeMeters>
            <DistanceMeters>NAN</DistanceMeters>
          </Trackpoint>
          <Trackpoint>
            <Time>2022-09-20T07:30:15.000Z</Time>
            <Position>
              <LatitudeDegrees>49.4851146452128887176513671875</LatitudeDegrees>
              <LongitudeDegrees>20.03855749033391475677490234375</LongitudeDegrees>
            </Position>
            <AltitudeMeters>579</AltitudeMeters>
            <DistanceMeters>NAN</DistanceMeters>
          </Trackpoint>
          <Trackpoint>
            <Time>2022-09-20T07:30:55.000Z</Time>
            <Position>
              <LatitudeDegrees>49.48511950671672821044921875</LatitudeDegrees>
              <LongitudeDegrees>20.0385543890297412872314453125</LongitudeDegrees>
            </Position>
            <AltitudeMeters>579.20001220703125</AltitudeMeters>
            <DistanceMeters>NAN</DistanceMeters>
          </Trackpoint>
          <Trackpoint>
            <Time>2022-09-20T07:31:17.000Z</Time>
            <Position>
              <LatitudeDegrees>49.48511950671672821044921875</LatitudeDegrees>
              <LongitudeDegrees>20.0385543890297412872314453125</LongitudeDegrees>
            </Position>
            <AltitudeMeters>579.20001220703125</AltitudeMeters>
            <DistanceMeters>NAN</DistanceMeters>
          </Trackpoint>
          <Trackpoint>
            <Time>2022-09-20T07:31:41.000Z</Time>
            <Position>
              <LatitudeDegrees>49.48511950671672821044921875</LatitudeDegrees>
              <LongitudeDegrees>20.0385543890297412872314453125</LongitudeDegrees>
            </Position>
            <AltitudeMeters>579.20001220703125</AltitudeMeters>
            <DistanceMeters>NAN</DistanceMeters>
          </Trackpoint>
          <Trackpoint>
            <Time>2022-09-20T07:31:48.000Z</Time>
            <Position>
              <LatitudeDegrees>49.48511950671672821044921875</LatitudeDegrees>
              <LongitudeDegrees>20.0385543890297412872314453125</LongitudeDegrees>
            </Position>
            <AltitudeMeters>579.20001220703125</AltitudeMeters>
            <DistanceMeters>NAN</DistanceMeters>
          </Trackpoint>
          <Trackpoint>
            <Time>2022-09-20T07:31:51.000Z</Time>
            <Position>
              <LatitudeDegrees>49.4851190038025379180908203125</LatitudeDegrees>
              <LongitudeDegrees>20.03855464048683643341064453125</LongitudeDegrees>
            </Position>
            <AltitudeMeters>579.20001220703125</AltitudeMeters>
            <DistanceMeters>NAN</DistanceMeters>
          </Trackpoint>
          <Trackpoint>
            <Time>2022-09-20T07:31:52.000Z</Time>
            <Position>
              <LatitudeDegrees>49.4851190038025379180908203125</LatitudeDegrees>
              <LongitudeDegrees>20.03855464048683643341064453125</LongitudeDegrees>
            </Position>
            <AltitudeMeters>579.20001220703125</AltitudeMeters>
            <DistanceMeters>NAN</DistanceMeters>
          </Trackpoint>
          <Trackpoint>
            <Time>2022-09-20T07:31:55.000Z</Time>
            <Position>
              <LatitudeDegrees>49.4851190038025379180908203125</LatitudeDegrees>
              <LongitudeDegrees>20.03855464048683643341064453125</LongitudeDegrees>
            </Position>
            <AltitudeMeters>579.20001220703125</AltitudeMeters>
            <DistanceMeters>NAN</DistanceMeters>
          </Trackpoint>
          <Trackpoint>
            <Time>2022-09-20T07:32:00.000Z</Time>
            <Position>
              <LatitudeDegrees>49.4851156510412693023681640625</LatitudeDegrees>
              <LongitudeDegrees>20.038555227220058441162109375</LongitudeDegrees>
            </Position>
            <AltitudeMeters>579.20001220703125</AltitudeMeters>
            <DistanceMeters>NAN</DistanceMeters>
          </Trackpoint>
          <Trackpoint>
            <Time>2022-09-20T07:32:07.000Z</Time>
            <Position>
              <LatitudeDegrees>49.48511271737515926361083984375</LatitudeDegrees>
              <LongitudeDegrees>20.0385553948581218719482421875</LongitudeDegrees>
            </Position>
            <AltitudeMeters>579.20001220703125</AltitudeMeters>
            <DistanceMeters>NAN</DistanceMeters>
          </Trackpoint>
          <Trackpoint>
            <Time>2022-09-20T07:32:10.000Z</Time>
            <Position>
              <LatitudeDegrees>49.48504750616848468780517578125</LatitudeDegrees>
              <LongitudeDegrees>20.0385644473135471343994140625</LongitudeDegrees>
            </Position>
            <AltitudeMeters>578.79998779296875</AltitudeMeters>
            <DistanceMeters>NAN</DistanceMeters>
          </Trackpoint>
          <Trackpoint>
            <Time>2022-09-20T07:32:13.000Z</Time>
            <Position>
              <LatitudeDegrees>49.48496662080287933349609375</LatitudeDegrees>
              <LongitudeDegrees>20.0385778583586215972900390625</LongitudeDegrees>
            </Position>
            <AltitudeMeters>578.79998779296875</AltitudeMeters>
            <DistanceMeters>NAN</DistanceMeters>
          </Trackpoint>
          <Trackpoint>
            <Time>2022-09-20T07:32:17.000Z</Time>
            <Position>
              <LatitudeDegrees>49.48486712761223316192626953125</LatitudeDegrees>
              <LongitudeDegrees>20.0385996513068675994873046875</LongitudeDegrees>
            </Position>
            <AltitudeMeters>578.5999755859375</AltitudeMeters>
            <DistanceMeters>NAN</DistanceMeters>
          </Trackpoint>
          <Trackpoint>
            <Time>2022-09-20T07:32:26.000Z</Time>
            <Position>
              <LatitudeDegrees>49.4846663810312747955322265625</LatitudeDegrees>
              <LongitudeDegrees>20.0386320054531097412109375</LongitudeDegrees>
            </Position>
            <AltitudeMeters>578.20001220703125</AltitudeMeters>
            <DistanceMeters>NAN</DistanceMeters>
          </Trackpoint>
          <Trackpoint>
            <Time>2022-09-20T07:32:31.000Z</Time>
            <Position>
              <LatitudeDegrees>49.48452631942927837371826171875</LatitudeDegrees>
              <LongitudeDegrees>20.03865949809551239013671875</LongitudeDegrees>
            </Position>
            <AltitudeMeters>577.79998779296875</AltitudeMeters>
            <DistanceMeters>NAN</DistanceMeters>
          </Trackpoint>
          <Trackpoint>
            <Time>2022-09-20T07:32:33.000Z</Time>
            <Position>
              <LatitudeDegrees>49.48446027003228664398193359375</LatitudeDegrees>
              <LongitudeDegrees>20.03866913728415966033935546875</LongitudeDegrees>
            </Position>
            <AltitudeMeters>577.5999755859375</AltitudeMeters>
            <DistanceMeters>NAN</DistanceMeters>
          </Trackpoint>
          <Trackpoint>
            <Time>2022-09-20T07:32:34.000Z</Time>
            <Position>
              <LatitudeDegrees>49.48442288674414157867431640625</LatitudeDegrees>
              <LongitudeDegrees>20.03867567516863346099853515625</LongitudeDegrees>
            </Position>
            <AltitudeMeters>577.5999755859375</AltitudeMeters>
            <DistanceMeters>NAN</DistanceMeters>
          </Trackpoint>
          <Trackpoint>
            <Time>2022-09-20T07:32:36.000Z</Time>
            <Position>
              <LatitudeDegrees>49.48433906771242618560791015625</LatitudeDegrees>
              <LongitudeDegrees>20.038688667118549346923828125</LongitudeDegrees>
            </Position>
            <AltitudeMeters>577.4000244140625</AltitudeMeters>
            <DistanceMeters>NAN</DistanceMeters>
          </Trackpoint>
          <Trackpoint>
            <Time>2022-09-20T07:32:37.000Z</Time>
            <Position>
              <LatitudeDegrees>49.48429531417787075042724609375</LatitudeDegrees>
              <LongitudeDegrees>20.0386982224881649017333984375</LongitudeDegrees>
            </Position>
            <AltitudeMeters>577.20001220703125</AltitudeMeters>
            <DistanceMeters>NAN</DistanceMeters>
          </Trackpoint>
          <Trackpoint>
            <Time>2022-09-20T07:32:40.000Z</Time>
            <Position>
              <LatitudeDegrees>49.4841550849378108978271484375</LatitudeDegrees>
              <LongitudeDegrees>20.038743317127227783203125</LongitudeDegrees>
            </Position>
            <AltitudeMeters>576</AltitudeMeters>
            <DistanceMeters>NAN</DistanceMeters>
          </Trackpoint>
          <Trackpoint>
            <Time>2022-09-20T07:32:45.000Z</Time>
            <Position>
              <LatitudeDegrees>49.4839064776897430419921875</LatitudeDegrees>
              <LongitudeDegrees>20.0388626754283905029296875</LongitudeDegrees>
            </Position>
            <AltitudeMeters>575.4000244140625</AltitudeMeters>
            <DistanceMeters>NAN</DistanceMeters>
          </Trackpoint>
          <Trackpoint>
            <Time>2022-09-20T07:32:46.000Z</Time>
            <Position>
              <LatitudeDegrees>49.48385761119425296783447265625</LatitudeDegrees>
              <LongitudeDegrees>20.03888589330017566680908203125</LongitudeDegrees>
            </Position>
            <AltitudeMeters>575</AltitudeMeters>
            <DistanceMeters>NAN</DistanceMeters>
          </Trackpoint>
          <Trackpoint>
            <Time>2022-09-20T07:32:47.000Z</Time>
            <Position>
              <LatitudeDegrees>49.48380849324166774749755859375</LatitudeDegrees>
              <LongitudeDegrees>20.03891254775226116180419921875</LongitudeDegrees>
            </Position>
            <AltitudeMeters>574.5999755859375</AltitudeMeters>
            <DistanceMeters>NAN</DistanceMeters>
          </Trackpoint>
          <Trackpoint>
            <Time>2022-09-20T07:32:54.000Z</Time>
            <Position>
              <LatitudeDegrees>49.4835046492516994476318359375</LatitudeDegrees>
              <LongitudeDegrees>20.03909141756594181060791015625</LongitudeDegrees>
            </Position>
            <AltitudeMeters>574.4000244140625</AltitudeMeters>
            <DistanceMeters>NAN</DistanceMeters>
          </Trackpoint>
          <Trackpoint>
            <Time>2022-09-20T07:32:56.000Z</Time>
            <Position>
              <LatitudeDegrees>49.4834285415709018707275390625</LatitudeDegrees>
              <LongitudeDegrees>20.0391354225575923919677734375</LongitudeDegrees>
            </Position>
            <AltitudeMeters>574</AltitudeMeters>
            <DistanceMeters>NAN</DistanceMeters>
          </Trackpoint>
          <Trackpoint>
            <Time>2022-09-20T07:32:58.000Z</Time>
            <Position>
              <LatitudeDegrees>49.48335100896656513214111328125</LatitudeDegrees>
              <LongitudeDegrees>20.03918110392987728118896484375</LongitudeDegrees>
            </Position>
            <AltitudeMeters>573.79998779296875</AltitudeMeters>
            <DistanceMeters>NAN</DistanceMeters>
          </Trackpoint>
          <Trackpoint>
            <Time>2022-09-20T07:32:59.000Z</Time>
            <Position>
              <LatitudeDegrees>49.4833115302026271820068359375</LatitudeDegrees>
              <LongitudeDegrees>20.03920390270650386810302734375</LongitudeDegrees>
            </Position>
            <AltitudeMeters>573.79998779296875</AltitudeMeters>
            <DistanceMeters>NAN</DistanceMeters>
          </Trackpoint>
          <Trackpoint>
            <Time>2022-09-20T07:33:03.000Z</Time>
            <Position>
              <LatitudeDegrees>49.48318018577992916107177734375</LatitudeDegrees>
              <LongitudeDegrees>20.03928772173821926116943359375</LongitudeDegrees>
            </Position>
            <AltitudeMeters>574</AltitudeMeters>
            <DistanceMeters>NAN</DistanceMeters>
          </Trackpoint>
          <Trackpoint>
            <Time>2022-09-20T07:33:08.000Z</Time>
            <Position>
              <LatitudeDegrees>49.48300584219396114349365234375</LatitudeDegrees>
              <LongitudeDegrees>20.0393915735185146331787109375</LongitudeDegrees>
            </Position>
            <AltitudeMeters>574.20001220703125</AltitudeMeters>
            <DistanceMeters>NAN</DistanceMeters>
          </Trackpoint>
          <Trackpoint>
            <Time>2022-09-20T07:33:11.000Z</Time>
            <Position>
              <LatitudeDegrees>49.4829068519175052642822265625</LatitudeDegrees>
              <LongitudeDegrees>20.0394581258296966552734375</LongitudeDegrees>
            </Position>
            <AltitudeMeters>574.20001220703125</AltitudeMeters>
            <DistanceMeters>NAN</DistanceMeters>
          </Trackpoint>
          <Trackpoint>
            <Time>2022-09-20T07:33:13.000Z</Time>
            <Position>
              <LatitudeDegrees>49.48284172452986240386962890625</LatitudeDegrees>
              <LongitudeDegrees>20.0394928269088268280029296875</LongitudeDegrees>
            </Position>
            <AltitudeMeters>574</AltitudeMeters>
            <DistanceMeters>NAN</DistanceMeters>
          </Trackpoint>
          <Trackpoint>
            <Time>2022-09-20T07:33:18.000Z</Time>
            <Position>
              <LatitudeDegrees>49.48267844505608081817626953125</LatitudeDegrees>
              <LongitudeDegrees>20.039571113884449005126953125</LongitudeDegrees>
            </Position>
            <AltitudeMeters>574.20001220703125</AltitudeMeters>
            <DistanceMeters>NAN</DistanceMeters>
          </Trackpoint>
          <Trackpoint>
            <Time>2022-09-20T07:33:19.000Z</Time>
            <Position>
              <LatitudeDegrees>49.48264391161501407623291015625</LatitudeDegrees>
              <LongitudeDegrees>20.03958678804337978363037109375</LongitudeDegrees>
            </Position>
            <AltitudeMeters>574.20001220703125</AltitudeMeters>
            <DistanceMeters>NAN</DistanceMeters>
          </Trackpoint>
          <Trackpoint>
            <Time>2022-09-20T07:33:22.000Z</Time>
            <Position>
              <LatitudeDegrees>49.48253695853054523468017578125</LatitudeDegrees>
              <LongitudeDegrees>20.0396198965609073638916015625</LongitudeDegrees>
            </Position>
            <AltitudeMeters>574.5999755859375</AltitudeMeters>
            <DistanceMeters>NAN</DistanceMeters>
          </Trackpoint>
          <Trackpoint>
            <Time>2022-09-20T07:33:27.000Z</Time>
            <Position>
              <LatitudeDegrees>49.48235607706010341644287109375</LatitudeDegrees>
              <LongitudeDegrees>20.03964118659496307373046875</LongitudeDegrees>
            </Position>
            <AltitudeMeters>574</AltitudeMeters>
            <DistanceMeters>NAN</DistanceMeters>
          </Trackpoint>
          <Trackpoint>
            <Time>2022-09-20T07:33:34.000Z</Time>
            <Position>
              <LatitudeDegrees>49.48211266659200191497802734375</LatitudeDegrees>
              <LongitudeDegrees>20.0396084971725940704345703125</LongitudeDegrees>
            </Position>
            <AltitudeMeters>575</AltitudeMeters>
            <DistanceMeters>NAN</DistanceMeters>
          </Trackpoint>
          <Trackpoint>
            <Time>2022-09-20T07:33:36.000Z</Time>
            <Position>
              <LatitudeDegrees>49.48205466382205486297607421875</LatitudeDegrees>
              <LongitudeDegrees>20.0395870395004749298095703125</LongitudeDegrees>
            </Position>
            <AltitudeMeters>575</AltitudeMeters>
            <DistanceMeters>NAN</DistanceMeters>
          </Trackpoint>
          <Trackpoint>
            <Time>2022-09-20T07:33:38.000Z</Time>
            <Position>
              <LatitudeDegrees>49.48199934326112270355224609375</LatitudeDegrees>
              <LongitudeDegrees>20.03955946303904056549072265625</LongitudeDegrees>
            </Position>
            <AltitudeMeters>575</AltitudeMeters>
            <DistanceMeters>NAN</DistanceMeters>
          </Trackpoint>
          <Trackpoint>
            <Time>2022-09-20T07:33:43.000Z</Time>
            <Position>
              <LatitudeDegrees>49.48184561915695667266845703125</LatitudeDegrees>
              <LongitudeDegrees>20.03946960903704166412353515625</LongitudeDegrees>
            </Position>
            <AltitudeMeters>575</AltitudeMeters>
            <DistanceMeters>NAN</DistanceMeters>
          </Trackpoint>
          <Trackpoint>
            <Time>2022-09-20T07:33:50.000Z</Time>
            <Position>
              <LatitudeDegrees>49.48168552480638027191162109375</LatitudeDegrees>
              <LongitudeDegrees>20.0393714569509029388427734375</LongitudeDegrees>
            </Position>
            <AltitudeMeters>576</AltitudeMeters>
            <DistanceMeters>NAN</DistanceMeters>
          </Trackpoint>
          <Trackpoint>
            <Time>2022-09-20T07:33:51.000Z</Time>
            <Position>
              <LatitudeDegrees>49.48167211376130580902099609375</LatitudeDegrees>
              <LongitudeDegrees>20.03937439061701297760009765625</LongitudeDegrees>
            </Position>
            <AltitudeMeters>576</AltitudeMeters>
            <DistanceMeters>NAN</DistanceMeters>
          </Trackpoint>
          <Trackpoint>
            <Time>2022-09-20T07:33:54.000Z</Time>
            <Position>
              <LatitudeDegrees>49.48164411820471286773681640625</LatitudeDegrees>
              <LongitudeDegrees>20.03939081914722919464111328125</LongitudeDegrees>
            </Position>
            <AltitudeMeters>576.20001220703125</AltitudeMeters>
            <DistanceMeters>NAN</DistanceMeters>
          </Trackpoint>
          <Trackpoint>
            <Time>2022-09-20T07:33:55.000Z</Time>
            <Position>
              <LatitudeDegrees>49.481641352176666259765625</LatitudeDegrees>
              <LongitudeDegrees>20.03938998095691204071044921875</LongitudeDegrees>
            </Position>
            <AltitudeMeters>576.20001220703125</AltitudeMeters>
            <DistanceMeters>NAN</DistanceMeters>
          </Trackpoint>
          <Trackpoint>
            <Time>2022-09-20T07:33:57.000Z</Time>
            <Position>
              <LatitudeDegrees>49.481641352176666259765625</LatitudeDegrees>
              <LongitudeDegrees>20.03938998095691204071044921875</LongitudeDegrees>
            </Position>
            <AltitudeMeters>576.20001220703125</AltitudeMeters>
            <DistanceMeters>NAN</DistanceMeters>
          </Trackpoint>
          <Trackpoint>
            <Time>2022-09-20T07:34:00.000Z</Time>
            <Position>
              <LatitudeDegrees>49.481641352176666259765625</LatitudeDegrees>
              <LongitudeDegrees>20.03938998095691204071044921875</LongitudeDegrees>
            </Position>
            <AltitudeMeters>576.20001220703125</AltitudeMeters>
            <DistanceMeters>NAN</DistanceMeters>
          </Trackpoint>
          <Trackpoint>
            <Time>2022-09-20T07:34:04.000Z</Time>
            <Position>
              <LatitudeDegrees>49.481641352176666259765625</LatitudeDegrees>
              <LongitudeDegrees>20.03938998095691204071044921875</LongitudeDegrees>
            </Position>
            <AltitudeMeters>576.20001220703125</AltitudeMeters>
            <DistanceMeters>NAN</DistanceMeters>
          </Trackpoint>
          <Trackpoint>
            <Time>2022-09-20T07:34:10.000Z</Time>
            <Position>
              <LatitudeDegrees>49.481641352176666259765625</LatitudeDegrees>
              <LongitudeDegrees>20.03938998095691204071044921875</LongitudeDegrees>
            </Position>
            <AltitudeMeters>576</AltitudeMeters>
            <DistanceMeters>NAN</DistanceMeters>
          </Trackpoint>
          <Trackpoint>
            <Time>2022-09-20T07:34:13.000Z</Time>
            <Position>
              <LatitudeDegrees>49.48160908184945583343505859375</LatitudeDegrees>
              <LongitudeDegrees>20.0393704511225223541259765625</LongitudeDegrees>
            </Position>
            <AltitudeMeters>576</AltitudeMeters>
            <DistanceMeters>NAN</DistanceMeters>
          </Trackpoint>
          <Trackpoint>
            <Time>2022-09-20T07:34:14.000Z</Time>
            <Position>
              <LatitudeDegrees>49.4815939106047153472900390625</LatitudeDegrees>
              <LongitudeDegrees>20.03935930319130420684814453125</LongitudeDegrees>
            </Position>
            <AltitudeMeters>576</AltitudeMeters>
            <DistanceMeters>NAN</DistanceMeters>
          </Trackpoint>
          <Trackpoint>
            <Time>2022-09-20T07:34:17.000Z</Time>
            <Position>
              <LatitudeDegrees>49.48154143989086151123046875</LatitudeDegrees>
              <LongitudeDegrees>20.0393610633909702301025390625</LongitudeDegrees>
            </Position>
            <AltitudeMeters>576.20001220703125</AltitudeMeters>
            <DistanceMeters>NAN</DistanceMeters>
          </Trackpoint>
          <Trackpoint>
            <Time>2022-09-20T07:34:19.000Z</Time>
            <Position>
              <LatitudeDegrees>49.48151436634361743927001953125</LatitudeDegrees>
              <LongitudeDegrees>20.0394086726009845733642578125</LongitudeDegrees>
            </Position>
            <AltitudeMeters>576.20001220703125</AltitudeMeters>
            <DistanceMeters>NAN</DistanceMeters>
          </Trackpoint>
          <Trackpoint>
            <Time>2022-09-20T07:34:26.000Z</Time>
            <Position>
              <LatitudeDegrees>49.48146843351423740386962890625</LatitudeDegrees>
              <LongitudeDegrees>20.03964797593653202056884765625</LongitudeDegrees>
            </Position>
            <AltitudeMeters>576.4000244140625</AltitudeMeters>
            <DistanceMeters>NAN</DistanceMeters>
          </Trackpoint>
          <Trackpoint>
            <Time>2022-09-20T07:34:33.000Z</Time>
            <Position>
              <LatitudeDegrees>49.48141076602041721343994140625</LatitudeDegrees>
              <LongitudeDegrees>20.0399471260607242584228515625</LongitudeDegrees>
            </Position>
            <AltitudeMeters>576.20001220703125</AltitudeMeters>
            <DistanceMeters>NAN</DistanceMeters>
          </Trackpoint>
          <Trackpoint>
            <Time>2022-09-20T07:34:39.000Z</Time>
            <Position>
              <LatitudeDegrees>49.48135309852659702301025390625</LatitudeDegrees>
              <LongitudeDegrees>20.04021249711513519287109375</LongitudeDegrees>
            </Position>
            <AltitudeMeters>576.5999755859375</AltitudeMeters>
            <DistanceMeters>NAN</DistanceMeters>
          </Trackpoint>
          <Trackpoint>
            <Time>2022-09-20T07:34:41.000Z</Time>
            <Position>
              <LatitudeDegrees>49.48132820427417755126953125</LatitudeDegrees>
              <LongitudeDegrees>20.040303356945514678955078125</LongitudeDegrees>
            </Position>
            <AltitudeMeters>577</AltitudeMeters>
            <DistanceMeters>NAN</DistanceMeters>
          </Trackpoint>
          <Trackpoint>
            <Time>2022-09-20T07:34:43.000Z</Time>
            <Position>
              <LatitudeDegrees>49.48130699805915355682373046875</LatitudeDegrees>
              <LongitudeDegrees>20.04039832390844821929931640625</LongitudeDegrees>
            </Position>
            <AltitudeMeters>577.5999755859375</AltitudeMeters>
            <DistanceMeters>NAN</DistanceMeters>
          </Trackpoint>
          <Trackpoint>
            <Time>2022-09-20T07:34:54.000Z</Time>
            <Position>
              <LatitudeDegrees>49.4811624102294445037841796875</LatitudeDegrees>
              <LongitudeDegrees>20.04097902216017246246337890625</LongitudeDegrees>
            </Position>
            <AltitudeMeters>578</AltitudeMeters>
            <DistanceMeters>NAN</DistanceMeters>
          </Trackpoint>
          <Trackpoint>
            <Time>2022-09-20T07:34:58.000Z</Time>
            <Position>
              <LatitudeDegrees>49.48110935278236865997314453125</LatitudeDegrees>
              <LongitudeDegrees>20.04120835103094577789306640625</LongitudeDegrees>
            </Position>
            <AltitudeMeters>578</AltitudeMeters>
            <DistanceMeters>NAN</DistanceMeters>
          </Trackpoint>
          <Trackpoint>
            <Time>2022-09-20T07:35:02.000Z</Time>
            <Position>
              <LatitudeDegrees>49.48105604387819766998291015625</LatitudeDegrees>
              <LongitudeDegrees>20.04142175428569316864013671875</LongitudeDegrees>
            </Position>
            <AltitudeMeters>578</AltitudeMeters>
            <DistanceMeters>NAN</DistanceMeters>
          </Trackpoint>
          <Trackpoint>
            <Time>2022-09-20T07:35:05.000Z</Time>
            <Position>
              <LatitudeDegrees>49.481027461588382720947265625</LatitudeDegrees>
              <LongitudeDegrees>20.04151747561991214752197265625</LongitudeDegrees>
            </Position>
            <AltitudeMeters>577.5999755859375</AltitudeMeters>
            <DistanceMeters>NAN</DistanceMeters>
          </Trackpoint>
          <Trackpoint>
            <Time>2022-09-20T07:35:10.000Z</Time>
            <Position>
              <LatitudeDegrees>49.48101329617202281951904296875</LatitudeDegrees>
              <LongitudeDegrees>20.04153273068368434906005859375</LongitudeDegrees>
            </Position>
            <AltitudeMeters>577.4000244140625</AltitudeMeters>
            <DistanceMeters>NAN</DistanceMeters>
          </Trackpoint>
          <Trackpoint>
            <Time>2022-09-20T07:35:22.000Z</Time>
            <Position>
              <LatitudeDegrees>49.48101329617202281951904296875</LatitudeDegrees>
              <LongitudeDegrees>20.04153273068368434906005859375</LongitudeDegrees>
            </Position>
            <AltitudeMeters>577.20001220703125</AltitudeMeters>
            <DistanceMeters>NAN</DistanceMeters>
          </Trackpoint>
          <Trackpoint>
            <Time>2022-09-20T07:35:27.000Z</Time>
            <Position>
              <LatitudeDegrees>49.48101329617202281951904296875</LatitudeDegrees>
              <LongitudeDegrees>20.04153273068368434906005859375</LongitudeDegrees>
            </Position>
            <AltitudeMeters>577.20001220703125</AltitudeMeters>
            <DistanceMeters>NAN</DistanceMeters>
          </Trackpoint>
          <Trackpoint>
            <Time>2022-09-20T07:35:31.000Z</Time>
            <Position>
              <LatitudeDegrees>49.48101329617202281951904296875</LatitudeDegrees>
              <LongitudeDegrees>20.04153273068368434906005859375</LongitudeDegrees>
            </Position>
            <AltitudeMeters>577.20001220703125</AltitudeMeters>
            <DistanceMeters>NAN</DistanceMeters>
          </Trackpoint>
          <Trackpoint>
            <Time>2022-09-20T07:35:38.000Z</Time>
            <Position>
              <LatitudeDegrees>49.48101329617202281951904296875</LatitudeDegrees>
              <LongitudeDegrees>20.04153273068368434906005859375</LongitudeDegrees>
            </Position>
            <AltitudeMeters>577.20001220703125</AltitudeMeters>
            <DistanceMeters>NAN</DistanceMeters>
          </Trackpoint>
          <Trackpoint>
            <Time>2022-09-20T07:35:46.000Z</Time>
            <Position>
              <LatitudeDegrees>49.48101329617202281951904296875</LatitudeDegrees>
              <LongitudeDegrees>20.04153273068368434906005859375</LongitudeDegrees>
            </Position>
            <AltitudeMeters>577</AltitudeMeters>
            <DistanceMeters>NAN</DistanceMeters>
          </Trackpoint>
          <Trackpoint>
            <Time>2022-09-20T07:36:02.000Z</Time>
            <Position>
              <LatitudeDegrees>49.4810145534574985504150390625</LatitudeDegrees>
              <LongitudeDegrees>20.04153423942625522613525390625</LongitudeDegrees>
            </Position>
            <AltitudeMeters>576.79998779296875</AltitudeMeters>
            <DistanceMeters>NAN</DistanceMeters>
          </Trackpoint>
          <Trackpoint>
            <Time>2022-09-20T07:36:05.000Z</Time>
            <Position>
              <LatitudeDegrees>49.48105570860207080841064453125</LatitudeDegrees>
              <LongitudeDegrees>20.04158017225563526153564453125</LongitudeDegrees>
            </Position>
            <AltitudeMeters>576.79998779296875</AltitudeMeters>
            <DistanceMeters>NAN</DistanceMeters>
          </Trackpoint>
          <Trackpoint>
            <Time>2022-09-20T07:36:12.000Z</Time>
            <Position>
              <LatitudeDegrees>49.48117909021675586700439453125</LatitudeDegrees>
              <LongitudeDegrees>20.0417220778763294219970703125</LongitudeDegrees>
            </Position>
            <AltitudeMeters>576.20001220703125</AltitudeMeters>
            <DistanceMeters>NAN</DistanceMeters>
          </Trackpoint>
          <Trackpoint>
            <Time>2022-09-20T07:36:13.000Z</Time>
            <Position>
              <LatitudeDegrees>49.4812063314020633697509765625</LatitudeDegrees>
              <LongitudeDegrees>20.0417636521160602569580078125</LongitudeDegrees>
            </Position>
            <AltitudeMeters>576</AltitudeMeters>
            <DistanceMeters>NAN</DistanceMeters>
          </Trackpoint>
          <Trackpoint>
            <Time>2022-09-20T07:36:16.000Z</Time>
            <Position>
              <LatitudeDegrees>49.4813199900090694427490234375</LatitudeDegrees>
              <LongitudeDegrees>20.04191410727798938751220703125</LongitudeDegrees>
            </Position>
            <AltitudeMeters>574.79998779296875</AltitudeMeters>
            <DistanceMeters>NAN</DistanceMeters>
          </Trackpoint>
          <Trackpoint>
            <Time>2022-09-20T07:36:19.000Z</Time>
            <Position>
              <LatitudeDegrees>49.481454603374004364013671875</LatitudeDegrees>
              <LongitudeDegrees>20.04206213168799877166748046875</LongitudeDegrees>
            </Position>
            <AltitudeMeters>573.4000244140625</AltitudeMeters>
            <DistanceMeters>NAN</DistanceMeters>
          </Trackpoint>
          <Trackpoint>
            <Time>2022-09-20T07:36:24.000Z</Time>
            <Position>
              <LatitudeDegrees>49.481670856475830078125</LatitudeDegrees>
              <LongitudeDegrees>20.04228341393172740936279296875</LongitudeDegrees>
            </Position>
            <AltitudeMeters>573</AltitudeMeters>
            <DistanceMeters>NAN</DistanceMeters>
          </Trackpoint>
          <Trackpoint>
            <Time>2022-09-20T07:36:28.000Z</Time>
            <Position>
              <LatitudeDegrees>49.48183086700737476348876953125</LatitudeDegrees>
              <LongitudeDegrees>20.0424380600452423095703125</LongitudeDegrees>
            </Position>
            <AltitudeMeters>573</AltitudeMeters>
            <DistanceMeters>NAN</DistanceMeters>
          </Trackpoint>
          <Trackpoint>
            <Time>2022-09-20T07:36:33.000Z</Time>
            <Position>
              <LatitudeDegrees>49.48201376013457775115966796875</LatitudeDegrees>
              <LongitudeDegrees>20.0426137447357177734375</LongitudeDegrees>
            </Position>
            <AltitudeMeters>573.4000244140625</AltitudeMeters>
            <DistanceMeters>NAN</DistanceMeters>
          </Trackpoint>
          <Trackpoint>
            <Time>2022-09-20T07:36:35.000Z</Time>
            <Position>
              <LatitudeDegrees>49.482093639671802520751953125</LatitudeDegrees>
              <LongitudeDegrees>20.04266596399247646331787109375</LongitudeDegrees>
            </Position>
            <AltitudeMeters>573.5999755859375</AltitudeMeters>
            <DistanceMeters>NAN</DistanceMeters>
          </Trackpoint>
          <Trackpoint>
            <Time>2022-09-20T07:36:41.000Z</Time>
            <Position>
              <LatitudeDegrees>49.48235523886978626251220703125</LatitudeDegrees>
              <LongitudeDegrees>20.04285313189029693603515625</LongitudeDegrees>
            </Position>
            <AltitudeMeters>573.5999755859375</AltitudeMeters>
            <DistanceMeters>NAN</DistanceMeters>
          </Trackpoint>
          <Trackpoint>
            <Time>2022-09-20T07:36:50.000Z</Time>
            <Position>
              <LatitudeDegrees>49.4827496074140071868896484375</LatitudeDegrees>
              <LongitudeDegrees>20.04316066391766071319580078125</LongitudeDegrees>
            </Position>
            <AltitudeMeters>573.20001220703125</AltitudeMeters>
            <DistanceMeters>NAN</DistanceMeters>
          </Trackpoint>
          <Trackpoint>
            <Time>2022-09-20T07:36:59.000Z</Time>
            <Position>
              <LatitudeDegrees>49.48314263485372066497802734375</LatitudeDegrees>
              <LongitudeDegrees>20.04344112239778041839599609375</LongitudeDegrees>
            </Position>
            <AltitudeMeters>572.5999755859375</AltitudeMeters>
            <DistanceMeters>NAN</DistanceMeters>
          </Trackpoint>
          <Trackpoint>
            <Time>2022-09-20T07:37:07.000Z</Time>
            <Position>
              <LatitudeDegrees>49.483475983142852783203125</LatitudeDegrees>
              <LongitudeDegrees>20.04363742657005786895751953125</LongitudeDegrees>
            </Position>
            <AltitudeMeters>572.5999755859375</AltitudeMeters>
            <DistanceMeters>NAN</DistanceMeters>
          </Trackpoint>
          <Trackpoint>
            <Time>2022-09-20T07:37:11.000Z</Time>
            <Position>
              <LatitudeDegrees>49.48363163508474826812744140625</LatitudeDegrees>
              <LongitudeDegrees>20.0437374226748943328857421875</LongitudeDegrees>
            </Position>
            <AltitudeMeters>572.4000244140625</AltitudeMeters>
            <DistanceMeters>NAN</DistanceMeters>
          </Trackpoint>
          <Trackpoint>
            <Time>2022-09-20T07:37:15.000Z</Time>
            <Position>
              <LatitudeDegrees>49.48379826731979846954345703125</LatitudeDegrees>
              <LongitudeDegrees>20.0438328087329864501953125</LongitudeDegrees>
            </Position>
            <AltitudeMeters>572</AltitudeMeters>
            <DistanceMeters>NAN</DistanceMeters>
          </Trackpoint>
          <Trackpoint>
            <Time>2022-09-20T07:37:17.000Z</Time>
            <Position>
              <LatitudeDegrees>49.4838804937899112701416015625</LatitudeDegrees>
              <LongitudeDegrees>20.04388041794300079345703125</LongitudeDegrees>
            </Position>
            <AltitudeMeters>572</AltitudeMeters>
            <DistanceMeters>NAN</DistanceMeters>
          </Trackpoint>
          <Trackpoint>
            <Time>2022-09-20T07:37:21.000Z</Time>
            <Position>
              <LatitudeDegrees>49.48405844159424304962158203125</LatitudeDegrees>
              <LongitudeDegrees>20.0440073199570178985595703125</LongitudeDegrees>
            </Position>
            <AltitudeMeters>572.20001220703125</AltitudeMeters>
            <DistanceMeters>NAN</DistanceMeters>
          </Trackpoint>
          <Trackpoint>
            <Time>2022-09-20T07:37:24.000Z</Time>
            <Position>
              <LatitudeDegrees>49.48420713655650615692138671875</LatitudeDegrees>
              <LongitudeDegrees>20.04410530440509319305419921875</LongitudeDegrees>
            </Position>
            <AltitudeMeters>572.20001220703125</AltitudeMeters>
            <DistanceMeters>NAN</DistanceMeters>
          </Trackpoint>
          <Trackpoint>
            <Time>2022-09-20T07:37:31.000Z</Time>
            <Position>
              <LatitudeDegrees>49.48456018231809139251708984375</LatitudeDegrees>
              <LongitudeDegrees>20.0444022752344608306884765625</LongitudeDegrees>
            </Position>
            <AltitudeMeters>572.20001220703125</AltitudeMeters>
            <DistanceMeters>NAN</DistanceMeters>
          </Trackpoint>
          <Trackpoint>
            <Time>2022-09-20T07:37:34.000Z</Time>
            <Position>
              <LatitudeDegrees>49.48470108211040496826171875</LatitudeDegrees>
              <LongitudeDegrees>20.04455356858670711517333984375</LongitudeDegrees>
            </Position>
            <AltitudeMeters>572.20001220703125</AltitudeMeters>
            <DistanceMeters>NAN</DistanceMeters>
          </Trackpoint>
          <Trackpoint>
            <Time>2022-09-20T07:37:37.000Z</Time>
            <Position>
              <LatitudeDegrees>49.48483527638018131256103515625</LatitudeDegrees>
              <LongitudeDegrees>20.0447375513613224029541015625</LongitudeDegrees>
            </Position>
            <AltitudeMeters>572.4000244140625</AltitudeMeters>
            <DistanceMeters>NAN</DistanceMeters>
          </Trackpoint>
          <Trackpoint>
            <Time>2022-09-20T07:37:41.000Z</Time>
            <Position>
              <LatitudeDegrees>49.48500392027199268341064453125</LatitudeDegrees>
              <LongitudeDegrees>20.044994540512561798095703125</LongitudeDegrees>
            </Position>
            <AltitudeMeters>572.5999755859375</AltitudeMeters>
            <DistanceMeters>NAN</DistanceMeters>
          </Trackpoint>
          <Trackpoint>
            <Time>2022-09-20T07:37:44.000Z</Time>
            <Position>
              <LatitudeDegrees>49.485118500888347625732421875</LatitudeDegrees>
              <LongitudeDegrees>20.04519109614193439483642578125</LongitudeDegrees>
            </Position>
            <AltitudeMeters>572.5999755859375</AltitudeMeters>
            <DistanceMeters>NAN</DistanceMeters>
          </Trackpoint>
          <Trackpoint>
            <Time>2022-09-20T07:37:45.000Z</Time>
            <Position>
              <LatitudeDegrees>49.48515462689101696014404296875</LatitudeDegrees>
              <LongitudeDegrees>20.04525094293057918548583984375</LongitudeDegrees>
            </Position>
            <AltitudeMeters>572.5999755859375</AltitudeMeters>
            <DistanceMeters>NAN</DistanceMeters>
          </Trackpoint>
          <Trackpoint>
            <Time>2022-09-20T07:37:52.000Z</Time>
            <Position>
              <LatitudeDegrees>49.48541228659451007843017578125</LatitudeDegrees>
              <LongitudeDegrees>20.0456555373966693878173828125</LongitudeDegrees>
            </Position>
            <AltitudeMeters>572.5999755859375</AltitudeMeters>
            <DistanceMeters>NAN</DistanceMeters>
          </Trackpoint>
          <Trackpoint>
            <Time>2022-09-20T07:38:00.000Z</Time>
            <Position>
              <LatitudeDegrees>49.485691152513027191162109375</LatitudeDegrees>
              <LongitudeDegrees>20.0460870377719402313232421875</LongitudeDegrees>
            </Position>
            <AltitudeMeters>572.79998779296875</AltitudeMeters>
            <DistanceMeters>NAN</DistanceMeters>
          </Trackpoint>
          <Trackpoint>
            <Time>2022-09-20T07:38:08.000Z</Time>
            <Position>
              <LatitudeDegrees>49.48599658906459808349609375</LatitudeDegrees>
              <LongitudeDegrees>20.046603865921497344970703125</LongitudeDegrees>
            </Position>
            <AltitudeMeters>572.79998779296875</AltitudeMeters>
            <DistanceMeters>NAN</DistanceMeters>
          </Trackpoint>
          <Trackpoint>
            <Time>2022-09-20T07:38:14.000Z</Time>
            <Position>
              <LatitudeDegrees>49.4862210564315319061279296875</LatitudeDegrees>
              <LongitudeDegrees>20.04698147065937519073486328125</LongitudeDegrees>
            </Position>
            <AltitudeMeters>572.5999755859375</AltitudeMeters>
            <DistanceMeters>NAN</DistanceMeters>
          </Trackpoint>
          <Trackpoint>
            <Time>2022-09-20T07:38:18.000Z</Time>
            <Position>
              <LatitudeDegrees>49.486370086669921875</LatitudeDegrees>
              <LongitudeDegrees>20.04723577760159969329833984375</LongitudeDegrees>
            </Position>
            <AltitudeMeters>572.4000244140625</AltitudeMeters>
            <DistanceMeters>NAN</DistanceMeters>
          </Trackpoint>
          <Trackpoint>
            <Time>2022-09-20T07:38:22.000Z</Time>
            <Position>
              <LatitudeDegrees>49.48650059290230274200439453125</LatitudeDegrees>
              <LongitudeDegrees>20.04749863408505916595458984375</LongitudeDegrees>
            </Position>
            <AltitudeMeters>572.4000244140625</AltitudeMeters>
            <DistanceMeters>NAN</DistanceMeters>
          </Trackpoint>
          <Trackpoint>
            <Time>2022-09-20T07:38:23.000Z</Time>
            <Position>
              <LatitudeDegrees>49.486534036695957183837890625</LatitudeDegrees>
              <LongitudeDegrees>20.047569461166858673095703125</LongitudeDegrees>
            </Position>
            <AltitudeMeters>572.5999755859375</AltitudeMeters>
            <DistanceMeters>NAN</DistanceMeters>
          </Trackpoint>
          <Trackpoint>
            <Time>2022-09-20T07:38:27.000Z</Time>
            <Position>
              <LatitudeDegrees>49.4866485334932804107666015625</LatitudeDegrees>
              <LongitudeDegrees>20.04788923077285289764404296875</LongitudeDegrees>
            </Position>
            <AltitudeMeters>572.5999755859375</AltitudeMeters>
            <DistanceMeters>NAN</DistanceMeters>
          </Trackpoint>
          <Trackpoint>
            <Time>2022-09-20T07:38:29.000Z</Time>
            <Position>
              <LatitudeDegrees>49.486674182116985321044921875</LatitudeDegrees>
              <LongitudeDegrees>20.0480591319501399993896484375</LongitudeDegrees>
            </Position>
            <AltitudeMeters>572.5999755859375</AltitudeMeters>
            <DistanceMeters>NAN</DistanceMeters>
          </Trackpoint>
          <Trackpoint>
            <Time>2022-09-20T07:38:32.000Z</Time>
            <Position>
              <LatitudeDegrees>49.48668750934302806854248046875</LatitudeDegrees>
              <LongitudeDegrees>20.0482928194105625152587890625</LongitudeDegrees>
            </Position>
            <AltitudeMeters>572.5999755859375</AltitudeMeters>
            <DistanceMeters>NAN</DistanceMeters>
          </Trackpoint>
          <Trackpoint>
            <Time>2022-09-20T07:38:34.000Z</Time>
            <Position>
              <LatitudeDegrees>49.486698321998119354248046875</LatitudeDegrees>
              <LongitudeDegrees>20.04842366091907024383544921875</LongitudeDegrees>
            </Position>
            <AltitudeMeters>572.5999755859375</AltitudeMeters>
            <DistanceMeters>NAN</DistanceMeters>
          </Trackpoint>
          <Trackpoint>
            <Time>2022-09-20T07:38:38.000Z</Time>
            <Position>
              <LatitudeDegrees>49.486702345311641693115234375</LatitudeDegrees>
              <LongitudeDegrees>20.04856447689235210418701171875</LongitudeDegrees>
            </Position>
            <AltitudeMeters>572.5999755859375</AltitudeMeters>
            <DistanceMeters>NAN</DistanceMeters>
          </Trackpoint>
          <Trackpoint>
            <Time>2022-09-20T07:38:44.000Z</Time>
            <Position>
              <LatitudeDegrees>49.48670544661581516265869140625</LatitudeDegrees>
              <LongitudeDegrees>20.048567242920398712158203125</LongitudeDegrees>
            </Position>
            <AltitudeMeters>572.4000244140625</AltitudeMeters>
            <DistanceMeters>NAN</DistanceMeters>
          </Trackpoint>
          <Trackpoint>
            <Time>2022-09-20T07:38:48.000Z</Time>
            <Position>
              <LatitudeDegrees>49.48670544661581516265869140625</LatitudeDegrees>
              <LongitudeDegrees>20.048567242920398712158203125</LongitudeDegrees>
            </Position>
            <AltitudeMeters>572.4000244140625</AltitudeMeters>
            <DistanceMeters>NAN</DistanceMeters>
          </Trackpoint>
          <Trackpoint>
            <Time>2022-09-20T07:38:52.000Z</Time>
            <Position>
              <LatitudeDegrees>49.48670913465321063995361328125</LatitudeDegrees>
              <LongitudeDegrees>20.04856288433074951171875</LongitudeDegrees>
            </Position>
            <AltitudeMeters>572.4000244140625</AltitudeMeters>
            <DistanceMeters>NAN</DistanceMeters>
          </Trackpoint>
          <Trackpoint>
            <Time>2022-09-20T07:39:11.000Z</Time>
            <Position>
              <LatitudeDegrees>49.48670913465321063995361328125</LatitudeDegrees>
              <LongitudeDegrees>20.04856288433074951171875</LongitudeDegrees>
            </Position>
            <AltitudeMeters>572</AltitudeMeters>
            <DistanceMeters>NAN</DistanceMeters>
          </Trackpoint>
          <Trackpoint>
            <Time>2022-09-20T07:39:14.000Z</Time>
            <Position>
              <LatitudeDegrees>49.48670913465321063995361328125</LatitudeDegrees>
              <LongitudeDegrees>20.04856288433074951171875</LongitudeDegrees>
            </Position>
            <AltitudeMeters>572</AltitudeMeters>
            <DistanceMeters>NAN</DistanceMeters>
          </Trackpoint>
          <Trackpoint>
            <Time>2022-09-20T07:39:23.000Z</Time>
            <Position>
              <LatitudeDegrees>49.48670913465321063995361328125</LatitudeDegrees>
              <LongitudeDegrees>20.04856288433074951171875</LongitudeDegrees>
            </Position>
            <AltitudeMeters>572</AltitudeMeters>
            <DistanceMeters>NAN</DistanceMeters>
          </Trackpoint>
          <Trackpoint>
            <Time>2022-09-20T07:39:38.000Z</Time>
            <Position>
              <LatitudeDegrees>49.48671315796673297882080078125</LatitudeDegrees>
              <LongitudeDegrees>20.048569254577159881591796875</LongitudeDegrees>
            </Position>
            <AltitudeMeters>572</AltitudeMeters>
            <DistanceMeters>NAN</DistanceMeters>
          </Trackpoint>
          <Trackpoint>
            <Time>2022-09-20T07:39:41.000Z</Time>
            <Position>
              <LatitudeDegrees>49.48671047575771808624267578125</LatitudeDegrees>
              <LongitudeDegrees>20.04866455681622028350830078125</LongitudeDegrees>
            </Position>
            <AltitudeMeters>572</AltitudeMeters>
            <DistanceMeters>NAN</DistanceMeters>
          </Trackpoint>
          <Trackpoint>
            <Time>2022-09-20T07:39:46.000Z</Time>
            <Position>
              <LatitudeDegrees>49.48671718128025531768798828125</LatitudeDegrees>
              <LongitudeDegrees>20.04890193231403827667236328125</LongitudeDegrees>
            </Position>
            <AltitudeMeters>571.79998779296875</AltitudeMeters>
            <DistanceMeters>NAN</DistanceMeters>
          </Trackpoint>
          <Trackpoint>
            <Time>2022-09-20T07:39:52.000Z</Time>
            <Position>
              <LatitudeDegrees>49.486705362796783447265625</LatitudeDegrees>
              <LongitudeDegrees>20.04925782792270183563232421875</LongitudeDegrees>
            </Position>
            <AltitudeMeters>571.79998779296875</AltitudeMeters>
            <DistanceMeters>NAN</DistanceMeters>
          </Trackpoint>
          <Trackpoint>
            <Time>2022-09-20T07:39:55.000Z</Time>
            <Position>
              <LatitudeDegrees>49.48669320903718471527099609375</LatitudeDegrees>
              <LongitudeDegrees>20.04946209490299224853515625</LongitudeDegrees>
            </Position>
            <AltitudeMeters>571.79998779296875</AltitudeMeters>
            <DistanceMeters>NAN</DistanceMeters>
          </Trackpoint>
          <Trackpoint>
            <Time>2022-09-20T07:39:58.000Z</Time>
            <Position>
              <LatitudeDegrees>49.486674852669239044189453125</LatitudeDegrees>
              <LongitudeDegrees>20.04967910237610340118408203125</LongitudeDegrees>
            </Position>
            <AltitudeMeters>572</AltitudeMeters>
            <DistanceMeters>NAN</DistanceMeters>
          </Trackpoint>
          <Trackpoint>
            <Time>2022-09-20T07:40:00.000Z</Time>
            <Position>
              <LatitudeDegrees>49.4866595976054668426513671875</LatitudeDegrees>
              <LongitudeDegrees>20.04981857724487781524658203125</LongitudeDegrees>
            </Position>
            <AltitudeMeters>572.20001220703125</AltitudeMeters>
            <DistanceMeters>NAN</DistanceMeters>
          </Trackpoint>
          <Trackpoint>
            <Time>2022-09-20T07:40:04.000Z</Time>
            <Position>
              <LatitudeDegrees>49.486640989780426025390625</LatitudeDegrees>
              <LongitudeDegrees>20.0501063279807567596435546875</LongitudeDegrees>
            </Position>
            <AltitudeMeters>572.20001220703125</AltitudeMeters>
            <DistanceMeters>NAN</DistanceMeters>
          </Trackpoint>
          <Trackpoint>
            <Time>2022-09-20T07:40:06.000Z</Time>
            <Position>
              <LatitudeDegrees>49.4866210408508777618408203125</LatitudeDegrees>
              <LongitudeDegrees>20.0502535142004489898681640625</LongitudeDegrees>
            </Position>
            <AltitudeMeters>572.20001220703125</AltitudeMeters>
            <DistanceMeters>NAN</DistanceMeters>
          </Trackpoint>
          <Trackpoint>
            <Time>2022-09-20T07:40:15.000Z</Time>
            <Position>
              <LatitudeDegrees>49.486569575965404510498046875</LatitudeDegrees>
              <LongitudeDegrees>20.0509314425289630889892578125</LongitudeDegrees>
            </Position>
            <AltitudeMeters>571.4000244140625</AltitudeMeters>
            <DistanceMeters>NAN</DistanceMeters>
          </Trackpoint>
          <Trackpoint>
            <Time>2022-09-20T07:40:24.000Z</Time>
            <Position>
              <LatitudeDegrees>49.48653361760079860687255859375</LatitudeDegrees>
              <LongitudeDegrees>20.05159051157534122467041015625</LongitudeDegrees>
            </Position>
            <AltitudeMeters>571.79998779296875</AltitudeMeters>
            <DistanceMeters>NAN</DistanceMeters>
          </Trackpoint>
          <Trackpoint>
            <Time>2022-09-20T07:40:31.000Z</Time>
            <Position>
              <LatitudeDegrees>49.486522637307643890380859375</LatitudeDegrees>
              <LongitudeDegrees>20.0520698726177215576171875</LongitudeDegrees>
            </Position>
            <AltitudeMeters>571.4000244140625</AltitudeMeters>
            <DistanceMeters>NAN</DistanceMeters>
          </Trackpoint>
          <Trackpoint>
            <Time>2022-09-20T07:40:33.000Z</Time>
            <Position>
              <LatitudeDegrees>49.4865243136882781982421875</LatitudeDegrees>
              <LongitudeDegrees>20.05220063030719757080078125</LongitudeDegrees>
            </Position>
            <AltitudeMeters>571.4000244140625</AltitudeMeters>
            <DistanceMeters>NAN</DistanceMeters>
          </Trackpoint>
          <Trackpoint>
            <Time>2022-09-20T07:40:34.000Z</Time>
            <Position>
              <LatitudeDegrees>49.4865231402218341827392578125</LatitudeDegrees>
              <LongitudeDegrees>20.05226391367614269256591796875</LongitudeDegrees>
            </Position>
            <AltitudeMeters>571.4000244140625</AltitudeMeters>
            <DistanceMeters>NAN</DistanceMeters>
          </Trackpoint>
          <Trackpoint>
            <Time>2022-09-20T07:40:42.000Z</Time>
            <Position>
              <LatitudeDegrees>49.48653227649629116058349609375</LatitudeDegrees>
              <LongitudeDegrees>20.05276565439999103546142578125</LongitudeDegrees>
            </Position>
            <AltitudeMeters>571</AltitudeMeters>
            <DistanceMeters>NAN</DistanceMeters>
          </Trackpoint>
          <Trackpoint>
            <Time>2022-09-20T07:40:43.000Z</Time>
            <Position>
              <LatitudeDegrees>49.48653210885822772979736328125</LatitudeDegrees>
              <LongitudeDegrees>20.05282533355057239532470703125</LongitudeDegrees>
            </Position>
            <AltitudeMeters>571</AltitudeMeters>
            <DistanceMeters>NAN</DistanceMeters>
          </Trackpoint>
          <Trackpoint>
            <Time>2022-09-20T07:40:51.000Z</Time>
            <Position>
              <LatitudeDegrees>49.48652925901114940643310546875</LatitudeDegrees>
              <LongitudeDegrees>20.05329656414687633514404296875</LongitudeDegrees>
            </Position>
            <AltitudeMeters>571</AltitudeMeters>
            <DistanceMeters>NAN</DistanceMeters>
          </Trackpoint>
          <Trackpoint>
            <Time>2022-09-20T07:40:57.000Z</Time>
            <Position>
              <LatitudeDegrees>49.48652842082083225250244140625</LatitudeDegrees>
              <LongitudeDegrees>20.05366637371480464935302734375</LongitudeDegrees>
            </Position>
            <AltitudeMeters>570.5999755859375</AltitudeMeters>
            <DistanceMeters>NAN</DistanceMeters>
          </Trackpoint>
          <Trackpoint>
            <Time>2022-09-20T07:41:04.000Z</Time>
            <Position>
              <LatitudeDegrees>49.48652389459311962127685546875</LatitudeDegrees>
              <LongitudeDegrees>20.05407373420894145965576171875</LongitudeDegrees>
            </Position>
            <AltitudeMeters>570.5999755859375</AltitudeMeters>
            <DistanceMeters>NAN</DistanceMeters>
          </Trackpoint>
          <Trackpoint>
            <Time>2022-09-20T07:41:05.000Z</Time>
            <Position>
              <LatitudeDegrees>49.48652557097375392913818359375</LatitudeDegrees>
              <LongitudeDegrees>20.0541296415030956268310546875</LongitudeDegrees>
            </Position>
            <AltitudeMeters>570.5999755859375</AltitudeMeters>
            <DistanceMeters>NAN</DistanceMeters>
          </Trackpoint>
          <Trackpoint>
            <Time>2022-09-20T07:41:12.000Z</Time>
            <Position>
              <LatitudeDegrees>49.48652892373502254486083984375</LatitudeDegrees>
              <LongitudeDegrees>20.05449316464364528656005859375</LongitudeDegrees>
            </Position>
            <AltitudeMeters>570.5999755859375</AltitudeMeters>
            <DistanceMeters>NAN</DistanceMeters>
          </Trackpoint>
          <Trackpoint>
            <Time>2022-09-20T07:41:18.000Z</Time>
            <Position>
              <LatitudeDegrees>49.4865348748862743377685546875</LatitudeDegrees>
              <LongitudeDegrees>20.0548353977501392364501953125</LongitudeDegrees>
            </Position>
            <AltitudeMeters>570.5999755859375</AltitudeMeters>
            <DistanceMeters>NAN</DistanceMeters>
          </Trackpoint>
          <Trackpoint>
            <Time>2022-09-20T07:41:20.000Z</Time>
            <Position>
              <LatitudeDegrees>49.4865358807146549224853515625</LatitudeDegrees>
              <LongitudeDegrees>20.05495383404195308685302734375</LongitudeDegrees>
            </Position>
            <AltitudeMeters>570.5999755859375</AltitudeMeters>
            <DistanceMeters>NAN</DistanceMeters>
          </Trackpoint>
          <Trackpoint>
            <Time>2022-09-20T07:41:28.000Z</Time>
            <Position>
              <LatitudeDegrees>49.486542083323001861572265625</LatitudeDegrees>
              <LongitudeDegrees>20.05547694861888885498046875</LongitudeDegrees>
            </Position>
            <AltitudeMeters>570.4000244140625</AltitudeMeters>
            <DistanceMeters>NAN</DistanceMeters>
          </Trackpoint>
          <Trackpoint>
            <Time>2022-09-20T07:41:31.000Z</Time>
            <Position>
              <LatitudeDegrees>49.4865449331700801849365234375</LatitudeDegrees>
              <LongitudeDegrees>20.0556963868439197540283203125</LongitudeDegrees>
            </Position>
            <AltitudeMeters>570.5999755859375</AltitudeMeters>
            <DistanceMeters>NAN</DistanceMeters>
          </Trackpoint>
          <Trackpoint>
            <Time>2022-09-20T07:41:35.000Z</Time>
            <Position>
              <LatitudeDegrees>49.48654510080814361572265625</LatitudeDegrees>
              <LongitudeDegrees>20.05599134601652622222900390625</LongitudeDegrees>
            </Position>
            <AltitudeMeters>570.4000244140625</AltitudeMeters>
            <DistanceMeters>NAN</DistanceMeters>
          </Trackpoint>
          <Trackpoint>
            <Time>2022-09-20T07:41:43.000Z</Time>
            <Position>
              <LatitudeDegrees>49.486550129950046539306640625</LatitudeDegrees>
              <LongitudeDegrees>20.056569613516330718994140625</LongitudeDegrees>
            </Position>
            <AltitudeMeters>570</AltitudeMeters>
            <DistanceMeters>NAN</DistanceMeters>
          </Trackpoint>
          <Trackpoint>
            <Time>2022-09-20T07:41:48.000Z</Time>
            <Position>
              <LatitudeDegrees>49.48655180633068084716796875</LatitudeDegrees>
              <LongitudeDegrees>20.0569067336618900299072265625</LongitudeDegrees>
            </Position>
            <AltitudeMeters>570</AltitudeMeters>
            <DistanceMeters>NAN</DistanceMeters>
          </Trackpoint>
          <Trackpoint>
            <Time>2022-09-20T07:41:51.000Z</Time>
            <Position>
              <LatitudeDegrees>49.4865645468235015869140625</LatitudeDegrees>
              <LongitudeDegrees>20.05710831843316555023193359375</LongitudeDegrees>
            </Position>
            <AltitudeMeters>570.20001220703125</AltitudeMeters>
            <DistanceMeters>NAN</DistanceMeters>
          </Trackpoint>
          <Trackpoint>
            <Time>2022-09-20T07:41:56.000Z</Time>
            <Position>
              <LatitudeDegrees>49.48656982742249965667724609375</LatitudeDegrees>
              <LongitudeDegrees>20.0574423372745513916015625</LongitudeDegrees>
            </Position>
            <AltitudeMeters>570</AltitudeMeters>
            <DistanceMeters>NAN</DistanceMeters>
          </Trackpoint>
          <Trackpoint>
            <Time>2022-09-20T07:41:58.000Z</Time>
            <Position>
              <LatitudeDegrees>49.486581645905971527099609375</LatitudeDegrees>
              <LongitudeDegrees>20.05758625455200672149658203125</LongitudeDegrees>
            </Position>
            <AltitudeMeters>569.79998779296875</AltitudeMeters>
            <DistanceMeters>NAN</DistanceMeters>
          </Trackpoint>
          <Trackpoint>
            <Time>2022-09-20T07:42:00.000Z</Time>
            <Position>
              <LatitudeDegrees>49.4865965656936168670654296875</LatitudeDegrees>
              <LongitudeDegrees>20.05773360840976238250732421875</LongitudeDegrees>
            </Position>
            <AltitudeMeters>569.5999755859375</AltitudeMeters>
            <DistanceMeters>NAN</DistanceMeters>
          </Trackpoint>
          <Trackpoint>
            <Time>2022-09-20T07:42:01.000Z</Time>
            <Position>
              <LatitudeDegrees>49.48661106638610363006591796875</LatitudeDegrees>
              <LongitudeDegrees>20.057809464633464813232421875</LongitudeDegrees>
            </Position>
            <AltitudeMeters>569.4000244140625</AltitudeMeters>
            <DistanceMeters>NAN</DistanceMeters>
          </Trackpoint>
          <Trackpoint>
            <Time>2022-09-20T07:42:05.000Z</Time>
            <Position>
              <LatitudeDegrees>49.486683569848537445068359375</LatitudeDegrees>
              <LongitudeDegrees>20.0581066869199275970458984375</LongitudeDegrees>
            </Position>
            <AltitudeMeters>569.20001220703125</AltitudeMeters>
            <DistanceMeters>NAN</DistanceMeters>
          </Trackpoint>
          <Trackpoint>
            <Time>2022-09-20T07:42:15.000Z</Time>
            <Position>
              <LatitudeDegrees>49.486918933689594268798828125</LatitudeDegrees>
              <LongitudeDegrees>20.0587673485279083251953125</LongitudeDegrees>
            </Position>
            <AltitudeMeters>569.20001220703125</AltitudeMeters>
            <DistanceMeters>NAN</DistanceMeters>
          </Trackpoint>
          <Trackpoint>
            <Time>2022-09-20T07:42:16.000Z</Time>
            <Position>
              <LatitudeDegrees>49.48694474995136260986328125</LatitudeDegrees>
              <LongitudeDegrees>20.05883448757231235504150390625</LongitudeDegrees>
            </Position>
            <AltitudeMeters>569.20001220703125</AltitudeMeters>
            <DistanceMeters>NAN</DistanceMeters>
          </Trackpoint>
          <Trackpoint>
            <Time>2022-09-20T07:42:22.000Z</Time>
            <Position>
              <LatitudeDegrees>49.4870796985924243927001953125</LatitudeDegrees>
              <LongitudeDegrees>20.0592459551990032196044921875</LongitudeDegrees>
            </Position>
            <AltitudeMeters>569</AltitudeMeters>
            <DistanceMeters>NAN</DistanceMeters>
          </Trackpoint>
          <Trackpoint>
            <Time>2022-09-20T07:42:25.000Z</Time>
            <Position>
              <LatitudeDegrees>49.48715069331228733062744140625</LatitudeDegrees>
              <LongitudeDegrees>20.05943714641034603118896484375</LongitudeDegrees>
            </Position>
            <AltitudeMeters>568.79998779296875</AltitudeMeters>
            <DistanceMeters>NAN</DistanceMeters>
          </Trackpoint>
          <Trackpoint>
            <Time>2022-09-20T07:42:33.000Z</Time>
            <Position>
              <LatitudeDegrees>49.48733191005885601043701171875</LatitudeDegrees>
              <LongitudeDegrees>20.05998347885906696319580078125</LongitudeDegrees>
            </Position>
            <AltitudeMeters>569</AltitudeMeters>
            <DistanceMeters>NAN</DistanceMeters>
          </Trackpoint>
          <Trackpoint>
            <Time>2022-09-20T07:42:39.000Z</Time>
            <Position>
              <LatitudeDegrees>49.4874558784067630767822265625</LatitudeDegrees>
              <LongitudeDegrees>20.0604003109037876129150390625</LongitudeDegrees>
            </Position>
            <AltitudeMeters>569.20001220703125</AltitudeMeters>
            <DistanceMeters>NAN</DistanceMeters>
          </Trackpoint>
          <Trackpoint>
            <Time>2022-09-20T07:42:40.000Z</Time>
            <Position>
              <LatitudeDegrees>49.48747674934566020965576171875</LatitudeDegrees>
              <LongitudeDegrees>20.0604653544723987579345703125</LongitudeDegrees>
            </Position>
            <AltitudeMeters>569.20001220703125</AltitudeMeters>
            <DistanceMeters>NAN</DistanceMeters>
          </Trackpoint>
          <Trackpoint>
            <Time>2022-09-20T07:42:43.000Z</Time>
            <Position>
              <LatitudeDegrees>49.4875328242778778076171875</LatitudeDegrees>
              <LongitudeDegrees>20.060670040547847747802734375</LongitudeDegrees>
            </Position>
            <AltitudeMeters>569.4000244140625</AltitudeMeters>
            <DistanceMeters>NAN</DistanceMeters>
          </Trackpoint>
          <Trackpoint>
            <Time>2022-09-20T07:42:51.000Z</Time>
            <Position>
              <LatitudeDegrees>49.48763583786785602569580078125</LatitudeDegrees>
              <LongitudeDegrees>20.06128049455583095550537109375</LongitudeDegrees>
            </Position>
            <AltitudeMeters>569.20001220703125</AltitudeMeters>
            <DistanceMeters>NAN</DistanceMeters>
          </Trackpoint>
          <Trackpoint>
            <Time>2022-09-20T07:42:52.000Z</Time>
            <Position>
              <LatitudeDegrees>49.4876325689256191253662109375</LatitudeDegrees>
              <LongitudeDegrees>20.06136062555015087127685546875</LongitudeDegrees>
            </Position>
            <AltitudeMeters>569.20001220703125</AltitudeMeters>
            <DistanceMeters>NAN</DistanceMeters>
          </Trackpoint>
          <Trackpoint>
            <Time>2022-09-20T07:42:54.000Z</Time>
            <Position>
              <LatitudeDegrees>49.48761404491961002349853515625</LatitudeDegrees>
              <LongitudeDegrees>20.06151921115815639495849609375</LongitudeDegrees>
            </Position>
            <AltitudeMeters>569.4000244140625</AltitudeMeters>
            <DistanceMeters>NAN</DistanceMeters>
          </Trackpoint>
          <Trackpoint>
            <Time>2022-09-20T07:42:56.000Z</Time>
            <Position>
              <LatitudeDegrees>49.4875822775065898895263671875</LatitudeDegrees>
              <LongitudeDegrees>20.06167662329971790313720703125</LongitudeDegrees>
            </Position>
            <AltitudeMeters>569.20001220703125</AltitudeMeters>
            <DistanceMeters>NAN</DistanceMeters>
          </Trackpoint>
          <Trackpoint>
            <Time>2022-09-20T07:42:58.000Z</Time>
            <Position>
              <LatitudeDegrees>49.487542212009429931640625</LatitudeDegrees>
              <LongitudeDegrees>20.06182364188134670257568359375</LongitudeDegrees>
            </Position>
            <AltitudeMeters>569.4000244140625</AltitudeMeters>
            <DistanceMeters>NAN</DistanceMeters>
          </Trackpoint>
          <Trackpoint>
            <Time>2022-09-20T07:43:02.000Z</Time>
            <Position>
              <LatitudeDegrees>49.4874391146004199981689453125</LatitudeDegrees>
              <LongitudeDegrees>20.0620756857097148895263671875</LongitudeDegrees>
            </Position>
            <AltitudeMeters>569.4000244140625</AltitudeMeters>
            <DistanceMeters>NAN</DistanceMeters>
          </Trackpoint>
          <Trackpoint>
            <Time>2022-09-20T07:43:04.000Z</Time>
            <Position>
              <LatitudeDegrees>49.4873817823827266693115234375</LatitudeDegrees>
              <LongitudeDegrees>20.06219227798283100128173828125</LongitudeDegrees>
            </Position>
            <AltitudeMeters>569.20001220703125</AltitudeMeters>
            <DistanceMeters>NAN</DistanceMeters>
          </Trackpoint>
          <Trackpoint>
            <Time>2022-09-20T07:43:05.000Z</Time>
            <Position>
              <LatitudeDegrees>49.48735152371227741241455078125</LatitudeDegrees>
              <LongitudeDegrees>20.06224558688700199127197265625</LongitudeDegrees>
            </Position>
            <AltitudeMeters>569.20001220703125</AltitudeMeters>
            <DistanceMeters>NAN</DistanceMeters>
          </Trackpoint>
          <Trackpoint>
            <Time>2022-09-20T07:43:08.000Z</Time>
            <Position>
              <LatitudeDegrees>49.48725261725485324859619140625</LatitudeDegrees>
              <LongitudeDegrees>20.06239570677280426025390625</LongitudeDegrees>
            </Position>
            <AltitudeMeters>569.4000244140625</AltitudeMeters>
            <DistanceMeters>NAN</DistanceMeters>
          </Trackpoint>
          <Trackpoint>
            <Time>2022-09-20T07:43:10.000Z</Time>
            <Position>
              <LatitudeDegrees>49.487177096307277679443359375</LatitudeDegrees>
              <LongitudeDegrees>20.06248313002288341522216796875</LongitudeDegrees>
            </Position>
            <AltitudeMeters>569.4000244140625</AltitudeMeters>
            <DistanceMeters>NAN</DistanceMeters>
          </Trackpoint>
          <Trackpoint>
            <Time>2022-09-20T07:43:12.000Z</Time>
            <Position>
              <LatitudeDegrees>49.48709906078875064849853515625</LatitudeDegrees>
              <LongitudeDegrees>20.06256778724491596221923828125</LongitudeDegrees>
            </Position>
            <AltitudeMeters>569.4000244140625</AltitudeMeters>
            <DistanceMeters>NAN</DistanceMeters>
          </Trackpoint>
          <Trackpoint>
            <Time>2022-09-20T07:43:13.000Z</Time>
            <Position>
              <LatitudeDegrees>49.48706720955669879913330078125</LatitudeDegrees>
              <LongitudeDegrees>20.06261237896978855133056640625</LongitudeDegrees>
            </Position>
            <AltitudeMeters>569.20001220703125</AltitudeMeters>
            <DistanceMeters>NAN</DistanceMeters>
          </Trackpoint>
          <Trackpoint>
            <Time>2022-09-20T07:43:15.000Z</Time>
            <Position>
              <LatitudeDegrees>49.48702714405953884124755859375</LatitudeDegrees>
              <LongitudeDegrees>20.06272888742387294769287109375</LongitudeDegrees>
            </Position>
            <AltitudeMeters>568.79998779296875</AltitudeMeters>
            <DistanceMeters>NAN</DistanceMeters>
          </Trackpoint>
          <Trackpoint>
            <Time>2022-09-20T07:43:17.000Z</Time>
            <Position>
              <LatitudeDegrees>49.4870285689830780029296875</LatitudeDegrees>
              <LongitudeDegrees>20.0628957711160182952880859375</LongitudeDegrees>
            </Position>
            <AltitudeMeters>568.5999755859375</AltitudeMeters>
            <DistanceMeters>NAN</DistanceMeters>
          </Trackpoint>
          <Trackpoint>
            <Time>2022-09-20T07:43:18.000Z</Time>
            <Position>
              <LatitudeDegrees>49.4870485179126262664794921875</LatitudeDegrees>
              <LongitudeDegrees>20.0629799254238605499267578125</LongitudeDegrees>
            </Position>
            <AltitudeMeters>568.20001220703125</AltitudeMeters>
            <DistanceMeters>NAN</DistanceMeters>
          </Trackpoint>
          <Trackpoint>
            <Time>2022-09-20T07:43:19.000Z</Time>
            <Position>
              <LatitudeDegrees>49.48708028532564640045166015625</LatitudeDegrees>
              <LongitudeDegrees>20.0630562007427215576171875</LongitudeDegrees>
            </Position>
            <AltitudeMeters>567.5999755859375</AltitudeMeters>
            <DistanceMeters>NAN</DistanceMeters>
          </Trackpoint>
          <Trackpoint>
            <Time>2022-09-20T07:43:21.000Z</Time>
            <Position>
              <LatitudeDegrees>49.48715530335903167724609375</LatitudeDegrees>
              <LongitudeDegrees>20.0632037222385406494140625</LongitudeDegrees>
            </Position>
            <AltitudeMeters>567</AltitudeMeters>
            <DistanceMeters>NAN</DistanceMeters>
          </Trackpoint>
          <Trackpoint>
            <Time>2022-09-20T07:43:23.000Z</Time>
            <Position>
              <LatitudeDegrees>49.4872262142598628997802734375</LatitudeDegrees>
              <LongitudeDegrees>20.0633574463427066802978515625</LongitudeDegrees>
            </Position>
            <AltitudeMeters>566.5999755859375</AltitudeMeters>
            <DistanceMeters>NAN</DistanceMeters>
          </Trackpoint>
          <Trackpoint>
            <Time>2022-09-20T07:43:25.000Z</Time>
            <Position>
              <LatitudeDegrees>49.48729771189391613006591796875</LatitudeDegrees>
              <LongitudeDegrees>20.0635210610926151275634765625</LongitudeDegrees>
            </Position>
            <AltitudeMeters>566.5999755859375</AltitudeMeters>
            <DistanceMeters>NAN</DistanceMeters>
          </Trackpoint>
          <Trackpoint>
            <Time>2022-09-20T07:43:29.000Z</Time>
            <Position>
              <LatitudeDegrees>49.48741874657571315765380859375</LatitudeDegrees>
              <LongitudeDegrees>20.06385751068592071533203125</LongitudeDegrees>
            </Position>
            <AltitudeMeters>566.4000244140625</AltitudeMeters>
            <DistanceMeters>NAN</DistanceMeters>
          </Trackpoint>
          <Trackpoint>
            <Time>2022-09-20T07:43:31.000Z</Time>
            <Position>
              <LatitudeDegrees>49.48747507296502590179443359375</LatitudeDegrees>
              <LongitudeDegrees>20.06402171216905117034912109375</LongitudeDegrees>
            </Position>
            <AltitudeMeters>566.20001220703125</AltitudeMeters>
            <DistanceMeters>NAN</DistanceMeters>
          </Trackpoint>
          <Trackpoint>
            <Time>2022-09-20T07:43:34.000Z</Time>
            <Position>
              <LatitudeDegrees>49.48758152313530445098876953125</LatitudeDegrees>
              <LongitudeDegrees>20.0642647035419940948486328125</LongitudeDegrees>
            </Position>
            <AltitudeMeters>565.79998779296875</AltitudeMeters>
            <DistanceMeters>NAN</DistanceMeters>
          </Trackpoint>
          <Trackpoint>
            <Time>2022-09-20T07:43:36.000Z</Time>
            <Position>
              <LatitudeDegrees>49.4876570440828800201416015625</LatitudeDegrees>
              <LongitudeDegrees>20.0644403882324695587158203125</LongitudeDegrees>
            </Position>
            <AltitudeMeters>565.4000244140625</AltitudeMeters>
            <DistanceMeters>NAN</DistanceMeters>
          </Trackpoint>
          <Trackpoint>
            <Time>2022-09-20T07:43:37.000Z</Time>
            <Position>
              <LatitudeDegrees>49.48768638074398040771484375</LatitudeDegrees>
              <LongitudeDegrees>20.064539797604084014892578125</LongitudeDegrees>
            </Position>
            <AltitudeMeters>565.20001220703125</AltitudeMeters>
            <DistanceMeters>NAN</DistanceMeters>
          </Trackpoint>
          <Trackpoint>
            <Time>2022-09-20T07:43:38.000Z</Time>
            <Position>
              <LatitudeDegrees>49.48770641349256038665771484375</LatitudeDegrees>
              <LongitudeDegrees>20.06463996134698390960693359375</LongitudeDegrees>
            </Position>
            <AltitudeMeters>565</AltitudeMeters>
            <DistanceMeters>NAN</DistanceMeters>
          </Trackpoint>
          <Trackpoint>
            <Time>2022-09-20T07:43:40.000Z</Time>
            <Position>
              <LatitudeDegrees>49.48771680705249309539794921875</LatitudeDegrees>
              <LongitudeDegrees>20.06482084281742572784423828125</LongitudeDegrees>
            </Position>
            <AltitudeMeters>565</AltitudeMeters>
            <DistanceMeters>NAN</DistanceMeters>
          </Trackpoint>
          <Trackpoint>
            <Time>2022-09-20T07:43:41.000Z</Time>
            <Position>
              <LatitudeDegrees>49.4877100177109241485595703125</LatitudeDegrees>
              <LongitudeDegrees>20.0649010576307773590087890625</LongitudeDegrees>
            </Position>
            <AltitudeMeters>565</AltitudeMeters>
            <DistanceMeters>NAN</DistanceMeters>
          </Trackpoint>
          <Trackpoint>
            <Time>2022-09-20T07:43:42.000Z</Time>
            <Position>
              <LatitudeDegrees>49.487699456512928009033203125</LatitudeDegrees>
              <LongitudeDegrees>20.0649820268154144287109375</LongitudeDegrees>
            </Position>
            <AltitudeMeters>565.20001220703125</AltitudeMeters>
            <DistanceMeters>NAN</DistanceMeters>
          </Trackpoint>
          <Trackpoint>
            <Time>2022-09-20T07:43:45.000Z</Time>
            <Position>
              <LatitudeDegrees>49.48765796609222888946533203125</LatitudeDegrees>
              <LongitudeDegrees>20.06519450806081295013427734375</LongitudeDegrees>
            </Position>
            <AltitudeMeters>565.4000244140625</AltitudeMeters>
            <DistanceMeters>NAN</DistanceMeters>
          </Trackpoint>
          <Trackpoint>
            <Time>2022-09-20T07:43:48.000Z</Time>
            <Position>
              <LatitudeDegrees>49.487627036869525909423828125</LatitudeDegrees>
              <LongitudeDegrees>20.06540070287883281707763671875</LongitudeDegrees>
            </Position>
            <AltitudeMeters>565.4000244140625</AltitudeMeters>
            <DistanceMeters>NAN</DistanceMeters>
          </Trackpoint>
          <Trackpoint>
            <Time>2022-09-20T07:43:51.000Z</Time>
            <Position>
              <LatitudeDegrees>49.4876025617122650146484375</LatitudeDegrees>
              <LongitudeDegrees>20.0656091608107089996337890625</LongitudeDegrees>
            </Position>
            <AltitudeMeters>565.4000244140625</AltitudeMeters>
            <DistanceMeters>NAN</DistanceMeters>
          </Trackpoint>
          <Trackpoint>
            <Time>2022-09-20T07:43:59.000Z</Time>
            <Position>
              <LatitudeDegrees>49.487514384090900421142578125</LatitudeDegrees>
              <LongitudeDegrees>20.06613328121602535247802734375</LongitudeDegrees>
            </Position>
            <AltitudeMeters>565.5999755859375</AltitudeMeters>
            <DistanceMeters>NAN</DistanceMeters>
          </Trackpoint>
          <Trackpoint>
            <Time>2022-09-20T07:44:06.000Z</Time>
            <Position>
              <LatitudeDegrees>49.48743249289691448211669921875</LatitudeDegrees>
              <LongitudeDegrees>20.06660618819296360015869140625</LongitudeDegrees>
            </Position>
            <AltitudeMeters>565.79998779296875</AltitudeMeters>
            <DistanceMeters>NAN</DistanceMeters>
          </Trackpoint>
          <Trackpoint>
            <Time>2022-09-20T07:44:08.000Z</Time>
            <Position>
              <LatitudeDegrees>49.48740340769290924072265625</LatitudeDegrees>
              <LongitudeDegrees>20.06673820316791534423828125</LongitudeDegrees>
            </Position>
            <AltitudeMeters>565.79998779296875</AltitudeMeters>
            <DistanceMeters>NAN</DistanceMeters>
          </Trackpoint>
          <Trackpoint>
            <Time>2022-09-20T07:44:12.000Z</Time>
            <Position>
              <LatitudeDegrees>49.48733224533498287200927734375</LatitudeDegrees>
              <LongitudeDegrees>20.06704858504235744476318359375</LongitudeDegrees>
            </Position>
            <AltitudeMeters>565.4000244140625</AltitudeMeters>
            <DistanceMeters>NAN</DistanceMeters>
          </Trackpoint>
          <Trackpoint>
            <Time>2022-09-20T07:44:14.000Z</Time>
            <Position>
              <LatitudeDegrees>49.48728798888623714447021484375</LatitudeDegrees>
              <LongitudeDegrees>20.06720934994518756866455078125</LongitudeDegrees>
            </Position>
            <AltitudeMeters>565</AltitudeMeters>
            <DistanceMeters>NAN</DistanceMeters>
          </Trackpoint>
          <Trackpoint>
            <Time>2022-09-20T07:44:23.000Z</Time>
            <Position>
              <LatitudeDegrees>49.48707072995603084564208984375</LatitudeDegrees>
              <LongitudeDegrees>20.06788493134081363677978515625</LongitudeDegrees>
            </Position>
            <AltitudeMeters>565</AltitudeMeters>
            <DistanceMeters>NAN</DistanceMeters>
          </Trackpoint>
          <Trackpoint>
            <Time>2022-09-20T07:44:27.000Z</Time>
            <Position>
              <LatitudeDegrees>49.48698171414434909820556640625</LatitudeDegrees>
              <LongitudeDegrees>20.06816639564931392669677734375</LongitudeDegrees>
            </Position>
            <AltitudeMeters>564.79998779296875</AltitudeMeters>
            <DistanceMeters>NAN</DistanceMeters>
          </Trackpoint>
          <Trackpoint>
            <Time>2022-09-20T07:44:31.000Z</Time>
            <Position>
              <LatitudeDegrees>49.48689688928425312042236328125</LatitudeDegrees>
              <LongitudeDegrees>20.06841919384896755218505859375</LongitudeDegrees>
            </Position>
            <AltitudeMeters>564.79998779296875</AltitudeMeters>
            <DistanceMeters>NAN</DistanceMeters>
          </Trackpoint>
          <Trackpoint>
            <Time>2022-09-20T07:44:39.000Z</Time>
            <Position>
              <LatitudeDegrees>49.486745931208133697509765625</LatitudeDegrees>
              <LongitudeDegrees>20.068982541561126708984375</LongitudeDegrees>
            </Position>
            <AltitudeMeters>564.4000244140625</AltitudeMeters>
            <DistanceMeters>NAN</DistanceMeters>
          </Trackpoint>
          <Trackpoint>
            <Time>2022-09-20T07:44:45.000Z</Time>
            <Position>
              <LatitudeDegrees>49.48661358095705509185791015625</LatitudeDegrees>
              <LongitudeDegrees>20.06942284293472766876220703125</LongitudeDegrees>
            </Position>
            <AltitudeMeters>564.4000244140625</AltitudeMeters>
            <DistanceMeters>NAN</DistanceMeters>
          </Trackpoint>
          <Trackpoint>
            <Time>2022-09-20T07:44:46.000Z</Time>
            <Position>
              <LatitudeDegrees>49.48658977635204792022705078125</LatitudeDegrees>
              <LongitudeDegrees>20.06949224509298801422119140625</LongitudeDegrees>
            </Position>
            <AltitudeMeters>564.4000244140625</AltitudeMeters>
            <DistanceMeters>NAN</DistanceMeters>
          </Trackpoint>
          <Trackpoint>
            <Time>2022-09-20T07:44:48.000Z</Time>
            <Position>
              <LatitudeDegrees>49.486544094979763031005859375</LatitudeDegrees>
              <LongitudeDegrees>20.0696257688105106353759765625</LongitudeDegrees>
            </Position>
            <AltitudeMeters>564.5999755859375</AltitudeMeters>
            <DistanceMeters>NAN</DistanceMeters>
          </Trackpoint>
          <Trackpoint>
            <Time>2022-09-20T07:44:56.000Z</Time>
            <Position>
              <LatitudeDegrees>49.48635575361549854278564453125</LatitudeDegrees>
              <LongitudeDegrees>20.07012943737208843231201171875</LongitudeDegrees>
            </Position>
            <AltitudeMeters>565.20001220703125</AltitudeMeters>
            <DistanceMeters>NAN</DistanceMeters>
          </Trackpoint>
          <Trackpoint>
            <Time>2022-09-20T07:44:57.000Z</Time>
            <Position>
              <LatitudeDegrees>49.48633052408695220947265625</LatitudeDegrees>
              <LongitudeDegrees>20.07019330747425556182861328125</LongitudeDegrees>
            </Position>
            <AltitudeMeters>565.20001220703125</AltitudeMeters>
            <DistanceMeters>NAN</DistanceMeters>
          </Trackpoint>
          <Trackpoint>
            <Time>2022-09-20T07:45:06.000Z</Time>
            <Position>
              <LatitudeDegrees>49.48609407059848308563232421875</LatitudeDegrees>
              <LongitudeDegrees>20.0707978941500186920166015625</LongitudeDegrees>
            </Position>
            <AltitudeMeters>564.4000244140625</AltitudeMeters>
            <DistanceMeters>NAN</DistanceMeters>
          </Trackpoint>
          <Trackpoint>
            <Time>2022-09-20T07:45:16.000Z</Time>
            <Position>
              <LatitudeDegrees>49.48590028099715709686279296875</LatitudeDegrees>
              <LongitudeDegrees>20.07147573865950107574462890625</LongitudeDegrees>
            </Position>
            <AltitudeMeters>563.79998779296875</AltitudeMeters>
            <DistanceMeters>NAN</DistanceMeters>
          </Trackpoint>
          <Trackpoint>
            <Time>2022-09-20T07:45:25.000Z</Time>
            <Position>
              <LatitudeDegrees>49.48574186302721500396728515625</LatitudeDegrees>
              <LongitudeDegrees>20.07209281437098979949951171875</LongitudeDegrees>
            </Position>
            <AltitudeMeters>563.4000244140625</AltitudeMeters>
            <DistanceMeters>NAN</DistanceMeters>
          </Trackpoint>
          <Trackpoint>
            <Time>2022-09-20T07:45:29.000Z</Time>
            <Position>
              <LatitudeDegrees>49.4856292940676212310791015625</LatitudeDegrees>
              <LongitudeDegrees>20.07234879769384860992431640625</LongitudeDegrees>
            </Position>
            <AltitudeMeters>563.4000244140625</AltitudeMeters>
            <DistanceMeters>NAN</DistanceMeters>
          </Trackpoint>
          <Trackpoint>
            <Time>2022-09-20T07:45:31.000Z</Time>
            <Position>
              <LatitudeDegrees>49.48559291660785675048828125</LatitudeDegrees>
              <LongitudeDegrees>20.07249196060001850128173828125</LongitudeDegrees>
            </Position>
            <AltitudeMeters>563.4000244140625</AltitudeMeters>
            <DistanceMeters>NAN</DistanceMeters>
          </Trackpoint>
          <Trackpoint>
            <Time>2022-09-20T07:45:38.000Z</Time>
            <Position>
              <LatitudeDegrees>49.48547565378248691558837890625</LatitudeDegrees>
              <LongitudeDegrees>20.0730110518634319305419921875</LongitudeDegrees>
            </Position>
            <AltitudeMeters>563.79998779296875</AltitudeMeters>
            <DistanceMeters>NAN</DistanceMeters>
          </Trackpoint>
          <Trackpoint>
            <Time>2022-09-20T07:45:43.000Z</Time>
            <Position>
              <LatitudeDegrees>49.4853516854345798492431640625</LatitudeDegrees>
              <LongitudeDegrees>20.07325706072151660919189453125</LongitudeDegrees>
            </Position>
            <AltitudeMeters>563.79998779296875</AltitudeMeters>
            <DistanceMeters>NAN</DistanceMeters>
          </Trackpoint>
          <Trackpoint>
            <Time>2022-09-20T07:45:49.000Z</Time>
            <Position>
              <LatitudeDegrees>49.48523844592273235321044921875</LatitudeDegrees>
              <LongitudeDegrees>20.0735843740403652191162109375</LongitudeDegrees>
            </Position>
            <AltitudeMeters>564</AltitudeMeters>
            <DistanceMeters>NAN</DistanceMeters>
          </Trackpoint>
          <Trackpoint>
            <Time>2022-09-20T07:45:51.000Z</Time>
            <Position>
              <LatitudeDegrees>49.48520424775779247283935546875</LatitudeDegrees>
              <LongitudeDegrees>20.07370834238827228546142578125</LongitudeDegrees>
            </Position>
            <AltitudeMeters>564</AltitudeMeters>
            <DistanceMeters>NAN</DistanceMeters>
          </Trackpoint>
          <Trackpoint>
            <Time>2022-09-20T07:45:57.000Z</Time>
            <Position>
              <LatitudeDegrees>49.48511975817382335662841796875</LatitudeDegrees>
              <LongitudeDegrees>20.0741151161491870880126953125</LongitudeDegrees>
            </Position>
            <AltitudeMeters>563.79998779296875</AltitudeMeters>
            <DistanceMeters>NAN</DistanceMeters>
          </Trackpoint>
          <Trackpoint>
            <Time>2022-09-20T07:45:59.000Z</Time>
            <Position>
              <LatitudeDegrees>49.48508522473275661468505859375</LatitudeDegrees>
              <LongitudeDegrees>20.07425467483699321746826171875</LongitudeDegrees>
            </Position>
            <AltitudeMeters>563.79998779296875</AltitudeMeters>
            <DistanceMeters>NAN</DistanceMeters>
          </Trackpoint>
          <Trackpoint>
            <Time>2022-09-20T07:46:09.000Z</Time>
            <Position>
              <LatitudeDegrees>49.48492798022925853729248046875</LatitudeDegrees>
              <LongitudeDegrees>20.0749311782419681549072265625</LongitudeDegrees>
            </Position>
            <AltitudeMeters>564.20001220703125</AltitudeMeters>
            <DistanceMeters>NAN</DistanceMeters>
          </Trackpoint>
          <Trackpoint>
            <Time>2022-09-20T07:46:18.000Z</Time>
            <Position>
              <LatitudeDegrees>49.4847602583467960357666015625</LatitudeDegrees>
              <LongitudeDegrees>20.07541992701590061187744140625</LongitudeDegrees>
            </Position>
            <AltitudeMeters>563.5999755859375</AltitudeMeters>
            <DistanceMeters>NAN</DistanceMeters>
          </Trackpoint>
          <Trackpoint>
            <Time>2022-09-20T07:46:22.000Z</Time>
            <Position>
              <LatitudeDegrees>49.4846875034272670745849609375</LatitudeDegrees>
              <LongitudeDegrees>20.07565696723759174346923828125</LongitudeDegrees>
            </Position>
            <AltitudeMeters>563.5999755859375</AltitudeMeters>
            <DistanceMeters>NAN</DistanceMeters>
          </Trackpoint>
          <Trackpoint>
            <Time>2022-09-20T07:46:24.000Z</Time>
            <Position>
              <LatitudeDegrees>49.48465154506266117095947265625</LatitudeDegrees>
              <LongitudeDegrees>20.0757928378880023956298828125</LongitudeDegrees>
            </Position>
            <AltitudeMeters>563.5999755859375</AltitudeMeters>
            <DistanceMeters>NAN</DistanceMeters>
          </Trackpoint>
          <Trackpoint>
            <Time>2022-09-20T07:46:26.000Z</Time>
            <Position>
              <LatitudeDegrees>49.48461952619254589080810546875</LatitudeDegrees>
              <LongitudeDegrees>20.07593273185193538665771484375</LongitudeDegrees>
            </Position>
            <AltitudeMeters>563.5999755859375</AltitudeMeters>
            <DistanceMeters>NAN</DistanceMeters>
          </Trackpoint>
          <Trackpoint>
            <Time>2022-09-20T07:46:27.000Z</Time>
            <Position>
              <LatitudeDegrees>49.48460309766232967376708984375</LatitudeDegrees>
              <LongitudeDegrees>20.076002888381481170654296875</LongitudeDegrees>
            </Position>
            <AltitudeMeters>563.5999755859375</AltitudeMeters>
            <DistanceMeters>NAN</DistanceMeters>
          </Trackpoint>
          <Trackpoint>
            <Time>2022-09-20T07:46:31.000Z</Time>
            <Position>
              <LatitudeDegrees>49.48452271521091461181640625</LatitudeDegrees>
              <LongitudeDegrees>20.07628778927028179168701171875</LongitudeDegrees>
            </Position>
            <AltitudeMeters>563.5999755859375</AltitudeMeters>
            <DistanceMeters>NAN</DistanceMeters>
          </Trackpoint>
          <Trackpoint>
            <Time>2022-09-20T07:46:34.000Z</Time>
            <Position>
              <LatitudeDegrees>49.48446144349873065948486328125</LatitudeDegrees>
              <LongitudeDegrees>20.07649465464055538177490234375</LongitudeDegrees>
            </Position>
            <AltitudeMeters>563.5999755859375</AltitudeMeters>
            <DistanceMeters>NAN</DistanceMeters>
          </Trackpoint>
          <Trackpoint>
            <Time>2022-09-20T07:46:36.000Z</Time>
            <Position>
              <LatitudeDegrees>49.4844172708690166473388671875</LatitudeDegrees>
              <LongitudeDegrees>20.076628513634204864501953125</LongitudeDegrees>
            </Position>
            <AltitudeMeters>563.79998779296875</AltitudeMeters>
            <DistanceMeters>NAN</DistanceMeters>
          </Trackpoint>
          <Trackpoint>
            <Time>2022-09-20T07:46:42.000Z</Time>
            <Position>
              <LatitudeDegrees>49.484285674989223480224609375</LatitudeDegrees>
              <LongitudeDegrees>20.0770367123186588287353515625</LongitudeDegrees>
            </Position>
            <AltitudeMeters>563.5999755859375</AltitudeMeters>
            <DistanceMeters>NAN</DistanceMeters>
          </Trackpoint>
          <Trackpoint>
            <Time>2022-09-20T07:46:44.000Z</Time>
            <Position>
              <LatitudeDegrees>49.4842358864843845367431640625</LatitudeDegrees>
              <LongitudeDegrees>20.0771741755306720733642578125</LongitudeDegrees>
            </Position>
            <AltitudeMeters>563.5999755859375</AltitudeMeters>
            <DistanceMeters>NAN</DistanceMeters>
          </Trackpoint>
          <Trackpoint>
            <Time>2022-09-20T07:46:47.000Z</Time>
            <Position>
              <LatitudeDegrees>49.4841601140797138214111328125</LatitudeDegrees>
              <LongitudeDegrees>20.077352710068225860595703125</LongitudeDegrees>
            </Position>
            <AltitudeMeters>563.79998779296875</AltitudeMeters>
            <DistanceMeters>NAN</DistanceMeters>
          </Trackpoint>
          <Trackpoint>
            <Time>2022-09-20T07:46:52.000Z</Time>
            <Position>
              <LatitudeDegrees>49.48403581045567989349365234375</LatitudeDegrees>
              <LongitudeDegrees>20.0776633433997631072998046875</LongitudeDegrees>
            </Position>
            <AltitudeMeters>563.5999755859375</AltitudeMeters>
            <DistanceMeters>NAN</DistanceMeters>
          </Trackpoint>
          <Trackpoint>
            <Time>2022-09-20T07:46:58.000Z</Time>
            <Position>
              <LatitudeDegrees>49.48384202085435390472412109375</LatitudeDegrees>
              <LongitudeDegrees>20.07809643633663654327392578125</LongitudeDegrees>
            </Position>
            <AltitudeMeters>562.5999755859375</AltitudeMeters>
            <DistanceMeters>NAN</DistanceMeters>
          </Trackpoint>
          <Trackpoint>
            <Time>2022-09-20T07:46:59.000Z</Time>
            <Position>
              <LatitudeDegrees>49.48380262590944766998291015625</LatitudeDegrees>
              <LongitudeDegrees>20.0781682692468166351318359375</LongitudeDegrees>
            </Position>
            <AltitudeMeters>562.4000244140625</AltitudeMeters>
            <DistanceMeters>NAN</DistanceMeters>
          </Trackpoint>
          <Trackpoint>
            <Time>2022-09-20T07:47:01.000Z</Time>
            <Position>
              <LatitudeDegrees>49.48372920043766498565673828125</LatitudeDegrees>
              <LongitudeDegrees>20.078308582305908203125</LongitudeDegrees>
            </Position>
            <AltitudeMeters>562</AltitudeMeters>
            <DistanceMeters>NAN</DistanceMeters>
          </Trackpoint>
          <Trackpoint>
            <Time>2022-09-20T07:47:06.000Z</Time>
            <Position>
              <LatitudeDegrees>49.48355804197490215301513671875</LatitudeDegrees>
              <LongitudeDegrees>20.07864193059504032135009765625</LongitudeDegrees>
            </Position>
            <AltitudeMeters>561.5999755859375</AltitudeMeters>
            <DistanceMeters>NAN</DistanceMeters>
          </Trackpoint>
          <Trackpoint>
            <Time>2022-09-20T07:47:08.000Z</Time>
            <Position>
              <LatitudeDegrees>49.48348780162632465362548828125</LatitudeDegrees>
              <LongitudeDegrees>20.07877201773226261138916015625</LongitudeDegrees>
            </Position>
            <AltitudeMeters>561.4000244140625</AltitudeMeters>
            <DistanceMeters>NAN</DistanceMeters>
          </Trackpoint>
          <Trackpoint>
            <Time>2022-09-20T07:47:09.000Z</Time>
            <Position>
              <LatitudeDegrees>49.48345092125236988067626953125</LatitudeDegrees>
              <LongitudeDegrees>20.078831277787685394287109375</LongitudeDegrees>
            </Position>
            <AltitudeMeters>561.4000244140625</AltitudeMeters>
            <DistanceMeters>NAN</DistanceMeters>
          </Trackpoint>
          <Trackpoint>
            <Time>2022-09-20T07:47:12.000Z</Time>
            <Position>
              <LatitudeDegrees>49.48334497399628162384033203125</LatitudeDegrees>
              <LongitudeDegrees>20.0789923779666423797607421875</LongitudeDegrees>
            </Position>
            <AltitudeMeters>561.4000244140625</AltitudeMeters>
            <DistanceMeters>NAN</DistanceMeters>
          </Trackpoint>
          <Trackpoint>
            <Time>2022-09-20T07:47:13.000Z</Time>
            <Position>
              <LatitudeDegrees>49.48331178165972232818603515625</LatitudeDegrees>
              <LongitudeDegrees>20.079041160643100738525390625</LongitudeDegrees>
            </Position>
            <AltitudeMeters>561.4000244140625</AltitudeMeters>
            <DistanceMeters>NAN</DistanceMeters>
          </Trackpoint>
          <Trackpoint>
            <Time>2022-09-20T07:47:16.000Z</Time>
            <Position>
              <LatitudeDegrees>49.48322209529578685760498046875</LatitudeDegrees>
              <LongitudeDegrees>20.0791717506945133209228515625</LongitudeDegrees>
            </Position>
            <AltitudeMeters>561.79998779296875</AltitudeMeters>
            <DistanceMeters>NAN</DistanceMeters>
          </Trackpoint>
          <Trackpoint>
            <Time>2022-09-20T07:47:17.000Z</Time>
            <Position>
              <LatitudeDegrees>49.483196698129177093505859375</LatitudeDegrees>
              <LongitudeDegrees>20.079206116497516632080078125</LongitudeDegrees>
            </Position>
            <AltitudeMeters>562.20001220703125</AltitudeMeters>
            <DistanceMeters>NAN</DistanceMeters>
          </Trackpoint>
          <Trackpoint>
            <Time>2022-09-20T07:47:19.000Z</Time>
            <Position>
              <LatitudeDegrees>49.4831546209752559661865234375</LatitudeDegrees>
              <LongitudeDegrees>20.079250037670135498046875</LongitudeDegrees>
            </Position>
            <AltitudeMeters>562.5999755859375</AltitudeMeters>
            <DistanceMeters>NAN</DistanceMeters>
          </Trackpoint>
          <Trackpoint>
            <Time>2022-09-20T07:47:21.000Z</Time>
            <Position>
              <LatitudeDegrees>49.48312461376190185546875</LatitudeDegrees>
              <LongitudeDegrees>20.0792803801596164703369140625</LongitudeDegrees>
            </Position>
            <AltitudeMeters>562.5999755859375</AltitudeMeters>
            <DistanceMeters>NAN</DistanceMeters>
          </Trackpoint>
          <Trackpoint>
            <Time>2022-09-20T07:47:26.000Z</Time>
            <Position>
              <LatitudeDegrees>49.48306015692651271820068359375</LatitudeDegrees>
              <LongitudeDegrees>20.07937165908515453338623046875</LongitudeDegrees>
            </Position>
            <AltitudeMeters>563.5999755859375</AltitudeMeters>
            <DistanceMeters>NAN</DistanceMeters>
          </Trackpoint>
          <Trackpoint>
            <Time>2022-09-20T07:47:29.000Z</Time>
            <Position>
              <LatitudeDegrees>49.483025707304477691650390625</LatitudeDegrees>
              <LongitudeDegrees>20.07941524498164653778076171875</LongitudeDegrees>
            </Position>
            <AltitudeMeters>564</AltitudeMeters>
            <DistanceMeters>NAN</DistanceMeters>
          </Trackpoint>
          <Trackpoint>
            <Time>2022-09-20T07:47:30.000Z</Time>
            <Position>
              <LatitudeDegrees>49.4830154813826084136962890625</LatitudeDegrees>
              <LongitudeDegrees>20.0794305838644504547119140625</LongitudeDegrees>
            </Position>
            <AltitudeMeters>564.20001220703125</AltitudeMeters>
            <DistanceMeters>NAN</DistanceMeters>
          </Trackpoint>
          <Trackpoint>
            <Time>2022-09-20T07:47:32.000Z</Time>
            <Position>
              <LatitudeDegrees>49.48299393989145755767822265625</LatitudeDegrees>
              <LongitudeDegrees>20.07945883087813854217529296875</LongitudeDegrees>
            </Position>
            <AltitudeMeters>564.4000244140625</AltitudeMeters>
            <DistanceMeters>NAN</DistanceMeters>
          </Trackpoint>
          <Trackpoint>
            <Time>2022-09-20T07:47:38.000Z</Time>
            <Position>
              <LatitudeDegrees>49.482939206063747406005859375</LatitudeDegrees>
              <LongitudeDegrees>20.079549439251422882080078125</LongitudeDegrees>
            </Position>
            <AltitudeMeters>564.5999755859375</AltitudeMeters>
            <DistanceMeters>NAN</DistanceMeters>
          </Trackpoint>
          <Trackpoint>
            <Time>2022-09-20T07:47:40.000Z</Time>
            <Position>
              <LatitudeDegrees>49.48292386718094348907470703125</LatitudeDegrees>
              <LongitudeDegrees>20.07958137430250644683837890625</LongitudeDegrees>
            </Position>
            <AltitudeMeters>564.5999755859375</AltitudeMeters>
            <DistanceMeters>NAN</DistanceMeters>
          </Trackpoint>
          <Trackpoint>
            <Time>2022-09-20T07:47:41.000Z</Time>
            <Position>
              <LatitudeDegrees>49.4829185865819454193115234375</LatitudeDegrees>
              <LongitudeDegrees>20.07959671318531036376953125</LongitudeDegrees>
            </Position>
            <AltitudeMeters>564.5999755859375</AltitudeMeters>
            <DistanceMeters>NAN</DistanceMeters>
          </Trackpoint>
          <Trackpoint>
            <Time>2022-09-20T07:47:45.000Z</Time>
            <Position>
              <LatitudeDegrees>49.4828947819769382476806640625</LatitudeDegrees>
              <LongitudeDegrees>20.07964767515659332275390625</LongitudeDegrees>
            </Position>
            <AltitudeMeters>564.5999755859375</AltitudeMeters>
            <DistanceMeters>NAN</DistanceMeters>
          </Trackpoint>
          <Trackpoint>
            <Time>2022-09-20T07:47:53.000Z</Time>
            <Position>
              <LatitudeDegrees>49.4828059338033199310302734375</LatitudeDegrees>
              <LongitudeDegrees>20.0797775946557521820068359375</LongitudeDegrees>
            </Position>
            <AltitudeMeters>563.79998779296875</AltitudeMeters>
            <DistanceMeters>NAN</DistanceMeters>
          </Trackpoint>
          <Trackpoint>
            <Time>2022-09-20T07:47:54.000Z</Time>
            <Position>
              <LatitudeDegrees>49.48278875090181827545166015625</LatitudeDegrees>
              <LongitudeDegrees>20.0798020698130130767822265625</LongitudeDegrees>
            </Position>
            <AltitudeMeters>563.5999755859375</AltitudeMeters>
            <DistanceMeters>NAN</DistanceMeters>
          </Trackpoint>
          <Trackpoint>
            <Time>2022-09-20T07:47:59.000Z</Time>
            <Position>
              <LatitudeDegrees>49.48269613087177276611328125</LatitudeDegrees>
              <LongitudeDegrees>20.079943053424358367919921875</LongitudeDegrees>
            </Position>
            <AltitudeMeters>562.4000244140625</AltitudeMeters>
            <DistanceMeters>NAN</DistanceMeters>
          </Trackpoint>
          <Trackpoint>
            <Time>2022-09-20T07:48:00.000Z</Time>
            <Position>
              <LatitudeDegrees>49.4826714880764484405517578125</LatitudeDegrees>
              <LongitudeDegrees>20.0799837894737720489501953125</LongitudeDegrees>
            </Position>
            <AltitudeMeters>562.20001220703125</AltitudeMeters>
            <DistanceMeters>NAN</DistanceMeters>
          </Trackpoint>
          <Trackpoint>
            <Time>2022-09-20T07:48:06.000Z</Time>
            <Position>
              <LatitudeDegrees>49.482515752315521240234375</LatitudeDegrees>
              <LongitudeDegrees>20.0802290439605712890625</LongitudeDegrees>
            </Position>
            <AltitudeMeters>561.4000244140625</AltitudeMeters>
            <DistanceMeters>NAN</DistanceMeters>
          </Trackpoint>
          <Trackpoint>
            <Time>2022-09-20T07:48:08.000Z</Time>
            <Position>
              <LatitudeDegrees>49.48246520943939685821533203125</LatitudeDegrees>
              <LongitudeDegrees>20.08030590601265430450439453125</LongitudeDegrees>
            </Position>
            <AltitudeMeters>561.4000244140625</AltitudeMeters>
            <DistanceMeters>NAN</DistanceMeters>
          </Trackpoint>
          <Trackpoint>
            <Time>2022-09-20T07:48:17.000Z</Time>
            <Position>
              <LatitudeDegrees>49.48224308900535106658935546875</LatitudeDegrees>
              <LongitudeDegrees>20.08071921765804290771484375</LongitudeDegrees>
            </Position>
            <AltitudeMeters>561.20001220703125</AltitudeMeters>
            <DistanceMeters>NAN</DistanceMeters>
          </Trackpoint>
          <Trackpoint>
            <Time>2022-09-20T07:48:24.000Z</Time>
            <Position>
              <LatitudeDegrees>49.48203857056796550750732421875</LatitudeDegrees>
              <LongitudeDegrees>20.08103412576019763946533203125</LongitudeDegrees>
            </Position>
            <AltitudeMeters>561</AltitudeMeters>
            <DistanceMeters>NAN</DistanceMeters>
          </Trackpoint>
          <Trackpoint>
            <Time>2022-09-20T07:48:33.000Z</Time>
            <Position>
              <LatitudeDegrees>49.4817068986594676971435546875</LatitudeDegrees>
              <LongitudeDegrees>20.08145087398588657379150390625</LongitudeDegrees>
            </Position>
            <AltitudeMeters>560.79998779296875</AltitudeMeters>
            <DistanceMeters>NAN</DistanceMeters>
          </Trackpoint>
          <Trackpoint>
            <Time>2022-09-20T07:48:41.000Z</Time>
            <Position>
              <LatitudeDegrees>49.48144110850989818572998046875</LatitudeDegrees>
              <LongitudeDegrees>20.08181079290807247161865234375</LongitudeDegrees>
            </Position>
            <AltitudeMeters>560.79998779296875</AltitudeMeters>
            <DistanceMeters>NAN</DistanceMeters>
          </Trackpoint>
          <Trackpoint>
            <Time>2022-09-20T07:48:42.000Z</Time>
            <Position>
              <LatitudeDegrees>49.481411688029766082763671875</LatitudeDegrees>
              <LongitudeDegrees>20.08185739628970623016357421875</LongitudeDegrees>
            </Position>
            <AltitudeMeters>560.79998779296875</AltitudeMeters>
            <DistanceMeters>NAN</DistanceMeters>
          </Trackpoint>
          <Trackpoint>
            <Time>2022-09-20T07:48:44.000Z</Time>
            <Position>
              <LatitudeDegrees>49.48135477490723133087158203125</LatitudeDegrees>
              <LongitudeDegrees>20.081951357424259185791015625</LongitudeDegrees>
            </Position>
            <AltitudeMeters>561</AltitudeMeters>
            <DistanceMeters>NAN</DistanceMeters>
          </Trackpoint>
          <Trackpoint>
            <Time>2022-09-20T07:48:51.000Z</Time>
            <Position>
              <LatitudeDegrees>49.48111739940941333770751953125</LatitudeDegrees>
              <LongitudeDegrees>20.082249082624912261962890625</LongitudeDegrees>
            </Position>
            <AltitudeMeters>560.79998779296875</AltitudeMeters>
            <DistanceMeters>NAN</DistanceMeters>
          </Trackpoint>
          <Trackpoint>
            <Time>2022-09-20T07:49:00.000Z</Time>
            <Position>
              <LatitudeDegrees>49.48084364645183086395263671875</LatitudeDegrees>
              <LongitudeDegrees>20.0825952552258968353271484375</LongitudeDegrees>
            </Position>
            <AltitudeMeters>560.79998779296875</AltitudeMeters>
            <DistanceMeters>NAN</DistanceMeters>
          </Trackpoint>
          <Trackpoint>
            <Time>2022-09-20T07:49:04.000Z</Time>
            <Position>
              <LatitudeDegrees>49.48072898201644420623779296875</LatitudeDegrees>
              <LongitudeDegrees>20.08282969705760478973388671875</LongitudeDegrees>
            </Position>
            <AltitudeMeters>560.79998779296875</AltitudeMeters>
            <DistanceMeters>NAN</DistanceMeters>
          </Trackpoint>
          <Trackpoint>
            <Time>2022-09-20T07:49:06.000Z</Time>
            <Position>
              <LatitudeDegrees>49.48066226206719875335693359375</LatitudeDegrees>
              <LongitudeDegrees>20.0829412601888179779052734375</LongitudeDegrees>
            </Position>
            <AltitudeMeters>561</AltitudeMeters>
            <DistanceMeters>NAN</DistanceMeters>
          </Trackpoint>
          <Trackpoint>
            <Time>2022-09-20T07:49:10.000Z</Time>
            <Position>
              <LatitudeDegrees>49.48052563704550266265869140625</LatitudeDegrees>
              <LongitudeDegrees>20.0831575132906436920166015625</LongitudeDegrees>
            </Position>
            <AltitudeMeters>560.4000244140625</AltitudeMeters>
            <DistanceMeters>NAN</DistanceMeters>
          </Trackpoint>
          <Trackpoint>
            <Time>2022-09-20T07:49:11.000Z</Time>
            <Position>
              <LatitudeDegrees>49.48048532009124755859375</LatitudeDegrees>
              <LongitudeDegrees>20.08320235647261142730712890625</LongitudeDegrees>
            </Position>
            <AltitudeMeters>560.20001220703125</AltitudeMeters>
            <DistanceMeters>NAN</DistanceMeters>
          </Trackpoint>
          <Trackpoint>
            <Time>2022-09-20T07:49:13.000Z</Time>
            <Position>
              <LatitudeDegrees>49.48041214607656002044677734375</LatitudeDegrees>
              <LongitudeDegrees>20.08329874835908412933349609375</LongitudeDegrees>
            </Position>
            <AltitudeMeters>560</AltitudeMeters>
            <DistanceMeters>NAN</DistanceMeters>
          </Trackpoint>
          <Trackpoint>
            <Time>2022-09-20T07:49:14.000Z</Time>
            <Position>
              <LatitudeDegrees>49.4803781993687152862548828125</LatitudeDegrees>
              <LongitudeDegrees>20.083347447216510772705078125</LongitudeDegrees>
            </Position>
            <AltitudeMeters>560</AltitudeMeters>
            <DistanceMeters>NAN</DistanceMeters>
          </Trackpoint>
          <Trackpoint>
            <Time>2022-09-20T07:49:16.000Z</Time>
            <Position>
              <LatitudeDegrees>49.48031156323850154876708984375</LatitudeDegrees>
              <LongitudeDegrees>20.08345104753971099853515625</LongitudeDegrees>
            </Position>
            <AltitudeMeters>559.79998779296875</AltitudeMeters>
            <DistanceMeters>NAN</DistanceMeters>
          </Trackpoint>
          <Trackpoint>
            <Time>2022-09-20T07:49:20.000Z</Time>
            <Position>
              <LatitudeDegrees>49.4801817275583744049072265625</LatitudeDegrees>
              <LongitudeDegrees>20.08365397341549396514892578125</LongitudeDegrees>
            </Position>
            <AltitudeMeters>560</AltitudeMeters>
            <DistanceMeters>NAN</DistanceMeters>
          </Trackpoint>
          <Trackpoint>
            <Time>2022-09-20T07:49:27.000Z</Time>
            <Position>
              <LatitudeDegrees>49.4799597747623920440673828125</LatitudeDegrees>
              <LongitudeDegrees>20.08404557593166828155517578125</LongitudeDegrees>
            </Position>
            <AltitudeMeters>560.4000244140625</AltitudeMeters>
            <DistanceMeters>NAN</DistanceMeters>
          </Trackpoint>
          <Trackpoint>
            <Time>2022-09-20T07:49:29.000Z</Time>
            <Position>
              <LatitudeDegrees>49.47991778142750263214111328125</LatitudeDegrees>
              <LongitudeDegrees>20.08416577242314815521240234375</LongitudeDegrees>
            </Position>
            <AltitudeMeters>560.20001220703125</AltitudeMeters>
            <DistanceMeters>NAN</DistanceMeters>
          </Trackpoint>
          <Trackpoint>
            <Time>2022-09-20T07:49:32.000Z</Time>
            <Position>
              <LatitudeDegrees>49.4798709265887737274169921875</LatitudeDegrees>
              <LongitudeDegrees>20.084364004433155059814453125</LongitudeDegrees>
            </Position>
            <AltitudeMeters>560</AltitudeMeters>
            <DistanceMeters>NAN</DistanceMeters>
          </Trackpoint>
          <Trackpoint>
            <Time>2022-09-20T07:49:34.000Z</Time>
            <Position>
              <LatitudeDegrees>49.47983982972800731658935546875</LatitudeDegrees>
              <LongitudeDegrees>20.08449367247521877288818359375</LongitudeDegrees>
            </Position>
            <AltitudeMeters>560</AltitudeMeters>
            <DistanceMeters>NAN</DistanceMeters>
          </Trackpoint>
          <Trackpoint>
            <Time>2022-09-20T07:49:36.000Z</Time>
            <Position>
              <LatitudeDegrees>49.47981636039912700653076171875</LatitudeDegrees>
              <LongitudeDegrees>20.08462560363113880157470703125</LongitudeDegrees>
            </Position>
            <AltitudeMeters>560</AltitudeMeters>
            <DistanceMeters>NAN</DistanceMeters>
          </Trackpoint>
          <Trackpoint>
            <Time>2022-09-20T07:49:43.000Z</Time>
            <Position>
              <LatitudeDegrees>49.4797773845493793487548828125</LatitudeDegrees>
              <LongitudeDegrees>20.08513639681041240692138671875</LongitudeDegrees>
            </Position>
            <AltitudeMeters>560</AltitudeMeters>
            <DistanceMeters>NAN</DistanceMeters>
          </Trackpoint>
          <Trackpoint>
            <Time>2022-09-20T07:49:47.000Z</Time>
            <Position>
              <LatitudeDegrees>49.479778222739696502685546875</LatitudeDegrees>
              <LongitudeDegrees>20.08542858995497226715087890625</LongitudeDegrees>
            </Position>
            <AltitudeMeters>560.20001220703125</AltitudeMeters>
            <DistanceMeters>NAN</DistanceMeters>
          </Trackpoint>
          <Trackpoint>
            <Time>2022-09-20T07:49:51.000Z</Time>
            <Position>
              <LatitudeDegrees>49.47977378033101558685302734375</LatitudeDegrees>
              <LongitudeDegrees>20.08569261990487575531005859375</LongitudeDegrees>
            </Position>
            <AltitudeMeters>560.20001220703125</AltitudeMeters>
            <DistanceMeters>NAN</DistanceMeters>
          </Trackpoint>
          <Trackpoint>
            <Time>2022-09-20T07:49:53.000Z</Time>
            <Position>
              <LatitudeDegrees>49.47977193631231784820556640625</LatitudeDegrees>
              <LongitudeDegrees>20.08581943809986114501953125</LongitudeDegrees>
            </Position>
            <AltitudeMeters>560.20001220703125</AltitudeMeters>
            <DistanceMeters>NAN</DistanceMeters>
          </Trackpoint>
          <Trackpoint>
            <Time>2022-09-20T07:49:55.000Z</Time>
            <Position>
              <LatitudeDegrees>49.4797679968178272247314453125</LatitudeDegrees>
              <LongitudeDegrees>20.0859488546848297119140625</LongitudeDegrees>
            </Position>
            <AltitudeMeters>560</AltitudeMeters>
            <DistanceMeters>NAN</DistanceMeters>
          </Trackpoint>
          <Trackpoint>
            <Time>2022-09-20T07:49:56.000Z</Time>
            <Position>
              <LatitudeDegrees>49.47976724244654178619384765625</LatitudeDegrees>
              <LongitudeDegrees>20.08601381443440914154052734375</LongitudeDegrees>
            </Position>
            <AltitudeMeters>560</AltitudeMeters>
            <DistanceMeters>NAN</DistanceMeters>
          </Trackpoint>
          <Trackpoint>
            <Time>2022-09-20T07:50:00.000Z</Time>
            <Position>
              <LatitudeDegrees>49.47975777089595794677734375</LatitudeDegrees>
              <LongitudeDegrees>20.0862618349492549896240234375</LongitudeDegrees>
            </Position>
            <AltitudeMeters>559.79998779296875</AltitudeMeters>
            <DistanceMeters>NAN</DistanceMeters>
          </Trackpoint>
          <Trackpoint>
            <Time>2022-09-20T07:50:01.000Z</Time>
            <Position>
              <LatitudeDegrees>49.4797651469707489013671875</LatitudeDegrees>
              <LongitudeDegrees>20.0863215140998363494873046875</LongitudeDegrees>
            </Position>
            <AltitudeMeters>559.79998779296875</AltitudeMeters>
            <DistanceMeters>NAN</DistanceMeters>
          </Trackpoint>
          <Trackpoint>
            <Time>2022-09-20T07:50:05.000Z</Time>
            <Position>
              <LatitudeDegrees>49.47982206009328365325927734375</LatitudeDegrees>
              <LongitudeDegrees>20.08653969503939151763916015625</LongitudeDegrees>
            </Position>
            <AltitudeMeters>559.5999755859375</AltitudeMeters>
            <DistanceMeters>NAN</DistanceMeters>
          </Trackpoint>
          <Trackpoint>
            <Time>2022-09-20T07:50:09.000Z</Time>
            <Position>
              <LatitudeDegrees>49.4798565097153186798095703125</LatitudeDegrees>
              <LongitudeDegrees>20.08664748631417751312255859375</LongitudeDegrees>
            </Position>
            <AltitudeMeters>559.5999755859375</AltitudeMeters>
            <DistanceMeters>NAN</DistanceMeters>
          </Trackpoint>
          <Trackpoint>
            <Time>2022-09-20T07:50:17.000Z</Time>
            <Position>
              <LatitudeDegrees>49.4798565097153186798095703125</LatitudeDegrees>
              <LongitudeDegrees>20.08664748631417751312255859375</LongitudeDegrees>
            </Position>
            <AltitudeMeters>559.4000244140625</AltitudeMeters>
            <DistanceMeters>NAN</DistanceMeters>
          </Trackpoint>
          <Trackpoint>
            <Time>2022-09-20T07:50:30.000Z</Time>
            <Position>
              <LatitudeDegrees>49.4798565097153186798095703125</LatitudeDegrees>
              <LongitudeDegrees>20.08664748631417751312255859375</LongitudeDegrees>
            </Position>
            <AltitudeMeters>559.20001220703125</AltitudeMeters>
            <DistanceMeters>NAN</DistanceMeters>
          </Trackpoint>
          <Trackpoint>
            <Time>2022-09-20T07:50:31.000Z</Time>
            <Position>
              <LatitudeDegrees>49.4798565097153186798095703125</LatitudeDegrees>
              <LongitudeDegrees>20.08664748631417751312255859375</LongitudeDegrees>
            </Position>
            <AltitudeMeters>559.20001220703125</AltitudeMeters>
            <DistanceMeters>NAN</DistanceMeters>
          </Trackpoint>
          <Trackpoint>
            <Time>2022-09-20T07:50:35.000Z</Time>
            <Position>
              <LatitudeDegrees>49.47985701262950897216796875</LatitudeDegrees>
              <LongitudeDegrees>20.08664983324706554412841796875</LongitudeDegrees>
            </Position>
            <AltitudeMeters>559.20001220703125</AltitudeMeters>
            <DistanceMeters>NAN</DistanceMeters>
          </Trackpoint>
          <Trackpoint>
            <Time>2022-09-20T07:50:39.000Z</Time>
            <Position>
              <LatitudeDegrees>49.47986950166523456573486328125</LatitudeDegrees>
              <LongitudeDegrees>20.08675309829413890838623046875</LongitudeDegrees>
            </Position>
            <AltitudeMeters>559.20001220703125</AltitudeMeters>
            <DistanceMeters>NAN</DistanceMeters>
          </Trackpoint>
          <Trackpoint>
            <Time>2022-09-20T07:50:44.000Z</Time>
            <Position>
              <LatitudeDegrees>49.47989967651665210723876953125</LatitudeDegrees>
              <LongitudeDegrees>20.08693817071616649627685546875</LongitudeDegrees>
            </Position>
            <AltitudeMeters>559.20001220703125</AltitudeMeters>
            <DistanceMeters>NAN</DistanceMeters>
          </Trackpoint>
          <Trackpoint>
            <Time>2022-09-20T07:50:47.000Z</Time>
            <Position>
              <LatitudeDegrees>49.47992800734937191009521484375</LatitudeDegrees>
              <LongitudeDegrees>20.0870566070079803466796875</LongitudeDegrees>
            </Position>
            <AltitudeMeters>559.4000244140625</AltitudeMeters>
            <DistanceMeters>NAN</DistanceMeters>
          </Trackpoint>
          <Trackpoint>
            <Time>2022-09-20T07:50:51.000Z</Time>
            <Position>
              <LatitudeDegrees>49.47998064570128917694091796875</LatitudeDegrees>
              <LongitudeDegrees>20.08722416125237941741943359375</LongitudeDegrees>
            </Position>
            <AltitudeMeters>559.4000244140625</AltitudeMeters>
            <DistanceMeters>NAN</DistanceMeters>
          </Trackpoint>
          <Trackpoint>
            <Time>2022-09-20T07:50:58.000Z</Time>
            <Position>
              <LatitudeDegrees>49.48007837869226932525634765625</LatitudeDegrees>
              <LongitudeDegrees>20.08756379596889019012451171875</LongitudeDegrees>
            </Position>
            <AltitudeMeters>559</AltitudeMeters>
            <DistanceMeters>NAN</DistanceMeters>
          </Trackpoint>
          <Trackpoint>
            <Time>2022-09-20T07:51:06.000Z</Time>
            <Position>
              <LatitudeDegrees>49.4801733456552028656005859375</LatitudeDegrees>
              <LongitudeDegrees>20.087915919721126556396484375</LongitudeDegrees>
            </Position>
            <AltitudeMeters>559</AltitudeMeters>
            <DistanceMeters>NAN</DistanceMeters>
          </Trackpoint>
          <Trackpoint>
            <Time>2022-09-20T07:51:13.000Z</Time>
            <Position>
              <LatitudeDegrees>49.48027417995035648345947265625</LatitudeDegrees>
              <LongitudeDegrees>20.0881833024322986602783203125</LongitudeDegrees>
            </Position>
            <AltitudeMeters>559.20001220703125</AltitudeMeters>
            <DistanceMeters>NAN</DistanceMeters>
          </Trackpoint>
          <Trackpoint>
            <Time>2022-09-20T07:51:22.000Z</Time>
            <Position>
              <LatitudeDegrees>49.480472914874553680419921875</LatitudeDegrees>
              <LongitudeDegrees>20.088523440062999725341796875</LongitudeDegrees>
            </Position>
            <AltitudeMeters>559</AltitudeMeters>
            <DistanceMeters>NAN</DistanceMeters>
          </Trackpoint>
          <Trackpoint>
            <Time>2022-09-20T07:51:27.000Z</Time>
            <Position>
              <LatitudeDegrees>49.48050635866820812225341796875</LatitudeDegrees>
              <LongitudeDegrees>20.08874027989804744720458984375</LongitudeDegrees>
            </Position>
            <AltitudeMeters>559.20001220703125</AltitudeMeters>
            <DistanceMeters>NAN</DistanceMeters>
          </Trackpoint>
          <Trackpoint>
            <Time>2022-09-20T07:51:32.000Z</Time>
            <Position>
              <LatitudeDegrees>49.4805227033793926239013671875</LatitudeDegrees>
              <LongitudeDegrees>20.08892585523426532745361328125</LongitudeDegrees>
            </Position>
            <AltitudeMeters>559.20001220703125</AltitudeMeters>
            <DistanceMeters>NAN</DistanceMeters>
          </Trackpoint>
          <Trackpoint>
            <Time>2022-09-20T07:51:37.000Z</Time>
            <Position>
              <LatitudeDegrees>49.4806179217994213104248046875</LatitudeDegrees>
              <LongitudeDegrees>20.089029036462306976318359375</LongitudeDegrees>
            </Position>
            <AltitudeMeters>559</AltitudeMeters>
            <DistanceMeters>NAN</DistanceMeters>
          </Trackpoint>
          <Trackpoint>
            <Time>2022-09-20T07:51:40.000Z</Time>
            <Position>
              <LatitudeDegrees>49.4806702248752117156982421875</LatitudeDegrees>
              <LongitudeDegrees>20.0891287811100482940673828125</LongitudeDegrees>
            </Position>
            <AltitudeMeters>558.79998779296875</AltitudeMeters>
            <DistanceMeters>NAN</DistanceMeters>
          </Trackpoint>
          <Trackpoint>
            <Time>2022-09-20T07:51:43.000Z</Time>
            <Position>
              <LatitudeDegrees>49.48073141276836395263671875</LatitudeDegrees>
              <LongitudeDegrees>20.0892575271427631378173828125</LongitudeDegrees>
            </Position>
            <AltitudeMeters>558.5999755859375</AltitudeMeters>
            <DistanceMeters>NAN</DistanceMeters>
          </Trackpoint>
          <Trackpoint>
            <Time>2022-09-20T07:51:44.000Z</Time>
            <Position>
              <LatitudeDegrees>49.48075664229691028594970703125</LatitudeDegrees>
              <LongitudeDegrees>20.0893004424870014190673828125</LongitudeDegrees>
            </Position>
            <AltitudeMeters>558.5999755859375</AltitudeMeters>
            <DistanceMeters>NAN</DistanceMeters>
          </Trackpoint>
          <Trackpoint>
            <Time>2022-09-20T07:51:47.000Z</Time>
            <Position>
              <LatitudeDegrees>49.48082570917904376983642578125</LatitudeDegrees>
              <LongitudeDegrees>20.0894358940422534942626953125</LongitudeDegrees>
            </Position>
            <AltitudeMeters>558.4000244140625</AltitudeMeters>
            <DistanceMeters>NAN</DistanceMeters>
          </Trackpoint>
          <Trackpoint>
            <Time>2022-09-20T07:51:50.000Z</Time>
            <Position>
              <LatitudeDegrees>49.480895362794399261474609375</LatitudeDegrees>
              <LongitudeDegrees>20.089577548205852508544921875</LongitudeDegrees>
            </Position>
            <AltitudeMeters>558.4000244140625</AltitudeMeters>
            <DistanceMeters>NAN</DistanceMeters>
          </Trackpoint>
          <Trackpoint>
            <Time>2022-09-20T07:51:56.000Z</Time>
            <Position>
              <LatitudeDegrees>49.4810749031603336334228515625</LatitudeDegrees>
              <LongitudeDegrees>20.0898650474846363067626953125</LongitudeDegrees>
            </Position>
            <AltitudeMeters>558.4000244140625</AltitudeMeters>
            <DistanceMeters>NAN</DistanceMeters>
          </Trackpoint>
          <Trackpoint>
            <Time>2022-09-20T07:51:58.000Z</Time>
            <Position>
              <LatitudeDegrees>49.48113265447318553924560546875</LatitudeDegrees>
              <LongitudeDegrees>20.089968144893646240234375</LongitudeDegrees>
            </Position>
            <AltitudeMeters>558.20001220703125</AltitudeMeters>
            <DistanceMeters>NAN</DistanceMeters>
          </Trackpoint>
          <Trackpoint>
            <Time>2022-09-20T07:51:59.000Z</Time>
            <Position>
              <LatitudeDegrees>49.48115997947752475738525390625</LatitudeDegrees>
              <LongitudeDegrees>20.09001885540783405303955078125</LongitudeDegrees>
            </Position>
            <AltitudeMeters>558.20001220703125</AltitudeMeters>
            <DistanceMeters>NAN</DistanceMeters>
          </Trackpoint>
          <Trackpoint>
            <Time>2022-09-20T07:52:00.000Z</Time>
            <Position>
              <LatitudeDegrees>49.48118445463478565216064453125</LatitudeDegrees>
              <LongitudeDegrees>20.0900714099407196044921875</LongitudeDegrees>
            </Position>
            <AltitudeMeters>558.20001220703125</AltitudeMeters>
            <DistanceMeters>NAN</DistanceMeters>
          </Trackpoint>
          <Trackpoint>
            <Time>2022-09-20T07:52:04.000Z</Time>
            <Position>
              <LatitudeDegrees>49.48126123286783695220947265625</LatitudeDegrees>
              <LongitudeDegrees>20.0903035886585712432861328125</LongitudeDegrees>
            </Position>
            <AltitudeMeters>558</AltitudeMeters>
            <DistanceMeters>NAN</DistanceMeters>
          </Trackpoint>
          <Trackpoint>
            <Time>2022-09-20T07:52:07.000Z</Time>
            <Position>
              <LatitudeDegrees>49.481294341385364532470703125</LatitudeDegrees>
              <LongitudeDegrees>20.0905034132301807403564453125</LongitudeDegrees>
            </Position>
            <AltitudeMeters>557.79998779296875</AltitudeMeters>
            <DistanceMeters>NAN</DistanceMeters>
          </Trackpoint>
          <Trackpoint>
            <Time>2022-09-20T07:52:10.000Z</Time>
            <Position>
              <LatitudeDegrees>49.4813112728297710418701171875</LatitudeDegrees>
              <LongitudeDegrees>20.09072025306522846221923828125</LongitudeDegrees>
            </Position>
            <AltitudeMeters>557.5999755859375</AltitudeMeters>
            <DistanceMeters>NAN</DistanceMeters>
          </Trackpoint>
          <Trackpoint>
            <Time>2022-09-20T07:52:16.000Z</Time>
            <Position>
              <LatitudeDegrees>49.4813414476811885833740234375</LatitudeDegrees>
              <LongitudeDegrees>20.0911541841924190521240234375</LongitudeDegrees>
            </Position>
            <AltitudeMeters>557.5999755859375</AltitudeMeters>
            <DistanceMeters>NAN</DistanceMeters>
          </Trackpoint>
          <Trackpoint>
            <Time>2022-09-20T07:52:21.000Z</Time>
            <Position>
              <LatitudeDegrees>49.481344632804393768310546875</LatitudeDegrees>
              <LongitudeDegrees>20.09154503233730792999267578125</LongitudeDegrees>
            </Position>
            <AltitudeMeters>557.79998779296875</AltitudeMeters>
            <DistanceMeters>NAN</DistanceMeters>
          </Trackpoint>
          <Trackpoint>
            <Time>2022-09-20T07:52:32.000Z</Time>
            <Position>
              <LatitudeDegrees>49.48135226033627986907958984375</LatitudeDegrees>
              <LongitudeDegrees>20.092406608164310455322265625</LongitudeDegrees>
            </Position>
            <AltitudeMeters>557.5999755859375</AltitudeMeters>
            <DistanceMeters>NAN</DistanceMeters>
          </Trackpoint>
          <Trackpoint>
            <Time>2022-09-20T07:52:35.000Z</Time>
            <Position>
              <LatitudeDegrees>49.48133893311023712158203125</LatitudeDegrees>
              <LongitudeDegrees>20.09261422790586948394775390625</LongitudeDegrees>
            </Position>
            <AltitudeMeters>557.5999755859375</AltitudeMeters>
            <DistanceMeters>NAN</DistanceMeters>
          </Trackpoint>
          <Trackpoint>
            <Time>2022-09-20T07:52:37.000Z</Time>
            <Position>
              <LatitudeDegrees>49.48131345212459564208984375</LatitudeDegrees>
              <LongitudeDegrees>20.09275839664041996002197265625</LongitudeDegrees>
            </Position>
            <AltitudeMeters>557.4000244140625</AltitudeMeters>
            <DistanceMeters>NAN</DistanceMeters>
          </Trackpoint>
          <Trackpoint>
            <Time>2022-09-20T07:52:38.000Z</Time>
            <Position>
              <LatitudeDegrees>49.4812953472137451171875</LatitudeDegrees>
              <LongitudeDegrees>20.092828385531902313232421875</LongitudeDegrees>
            </Position>
            <AltitudeMeters>557.4000244140625</AltitudeMeters>
            <DistanceMeters>NAN</DistanceMeters>
          </Trackpoint>
          <Trackpoint>
            <Time>2022-09-20T07:52:46.000Z</Time>
            <Position>
              <LatitudeDegrees>49.48109812103211879730224609375</LatitudeDegrees>
              <LongitudeDegrees>20.0933834351599216461181640625</LongitudeDegrees>
            </Position>
            <AltitudeMeters>557.20001220703125</AltitudeMeters>
            <DistanceMeters>NAN</DistanceMeters>
          </Trackpoint>
          <Trackpoint>
            <Time>2022-09-20T07:52:48.000Z</Time>
            <Position>
              <LatitudeDegrees>49.48106174357235431671142578125</LatitudeDegrees>
              <LongitudeDegrees>20.09352542459964752197265625</LongitudeDegrees>
            </Position>
            <AltitudeMeters>557.20001220703125</AltitudeMeters>
            <DistanceMeters>NAN</DistanceMeters>
          </Trackpoint>
          <Trackpoint>
            <Time>2022-09-20T07:52:54.000Z</Time>
            <Position>
              <LatitudeDegrees>49.4809723086655139923095703125</LatitudeDegrees>
              <LongitudeDegrees>20.09394980035722255706787109375</LongitudeDegrees>
            </Position>
            <AltitudeMeters>557</AltitudeMeters>
            <DistanceMeters>NAN</DistanceMeters>
          </Trackpoint>
          <Trackpoint>
            <Time>2022-09-20T07:53:02.000Z</Time>
            <Position>
              <LatitudeDegrees>49.48083526454865932464599609375</LatitudeDegrees>
              <LongitudeDegrees>20.09452446363866329193115234375</LongitudeDegrees>
            </Position>
            <AltitudeMeters>557.20001220703125</AltitudeMeters>
            <DistanceMeters>NAN</DistanceMeters>
          </Trackpoint>
          <Trackpoint>
            <Time>2022-09-20T07:53:03.000Z</Time>
            <Position>
              <LatitudeDegrees>49.48082352988421916961669921875</LatitudeDegrees>
              <LongitudeDegrees>20.09458799846470355987548828125</LongitudeDegrees>
            </Position>
            <AltitudeMeters>557.20001220703125</AltitudeMeters>
            <DistanceMeters>NAN</DistanceMeters>
          </Trackpoint>
          <Trackpoint>
            <Time>2022-09-20T07:53:06.000Z</Time>
            <Position>
              <LatitudeDegrees>49.4807701371610164642333984375</LatitudeDegrees>
              <LongitudeDegrees>20.0948304869234561920166015625</LongitudeDegrees>
            </Position>
            <AltitudeMeters>557.20001220703125</AltitudeMeters>
            <DistanceMeters>NAN</DistanceMeters>
          </Trackpoint>
          <Trackpoint>
            <Time>2022-09-20T07:53:12.000Z</Time>
            <Position>
              <LatitudeDegrees>49.48067449964582920074462890625</LatitudeDegrees>
              <LongitudeDegrees>20.0952549465000629425048828125</LongitudeDegrees>
            </Position>
            <AltitudeMeters>557</AltitudeMeters>
            <DistanceMeters>NAN</DistanceMeters>
          </Trackpoint>
          <Trackpoint>
            <Time>2022-09-20T07:53:20.000Z</Time>
            <Position>
              <LatitudeDegrees>49.480531923472881317138671875</LatitudeDegrees>
              <LongitudeDegrees>20.0959151051938533782958984375</LongitudeDegrees>
            </Position>
            <AltitudeMeters>556.5999755859375</AltitudeMeters>
            <DistanceMeters>NAN</DistanceMeters>
          </Trackpoint>
          <Trackpoint>
            <Time>2022-09-20T07:53:28.000Z</Time>
            <Position>
              <LatitudeDegrees>49.4804061949253082275390625</LatitudeDegrees>
              <LongitudeDegrees>20.09660619311034679412841796875</LongitudeDegrees>
            </Position>
            <AltitudeMeters>556.20001220703125</AltitudeMeters>
            <DistanceMeters>NAN</DistanceMeters>
          </Trackpoint>
          <Trackpoint>
            <Time>2022-09-20T07:53:29.000Z</Time>
            <Position>
              <LatitudeDegrees>49.48039689101278781890869140625</LatitudeDegrees>
              <LongitudeDegrees>20.096692107617855072021484375</LongitudeDegrees>
            </Position>
            <AltitudeMeters>556.20001220703125</AltitudeMeters>
            <DistanceMeters>NAN</DistanceMeters>
          </Trackpoint>
          <Trackpoint>
            <Time>2022-09-20T07:53:33.000Z</Time>
            <Position>
              <LatitudeDegrees>49.48035816662013530731201171875</LatitudeDegrees>
              <LongitudeDegrees>20.0970236957073211669921875</LongitudeDegrees>
            </Position>
            <AltitudeMeters>556</AltitudeMeters>
            <DistanceMeters>NAN</DistanceMeters>
          </Trackpoint>
          <Trackpoint>
            <Time>2022-09-20T07:53:36.000Z</Time>
            <Position>
              <LatitudeDegrees>49.4803372956812381744384765625</LatitudeDegrees>
              <LongitudeDegrees>20.0972736440598964691162109375</LongitudeDegrees>
            </Position>
            <AltitudeMeters>555.79998779296875</AltitudeMeters>
            <DistanceMeters>NAN</DistanceMeters>
          </Trackpoint>
          <Trackpoint>
            <Time>2022-09-20T07:53:44.000Z</Time>
            <Position>
              <LatitudeDegrees>49.48028926737606525421142578125</LatitudeDegrees>
              <LongitudeDegrees>20.0979847647249698638916015625</LongitudeDegrees>
            </Position>
            <AltitudeMeters>555.5999755859375</AltitudeMeters>
            <DistanceMeters>NAN</DistanceMeters>
          </Trackpoint>
          <Trackpoint>
            <Time>2022-09-20T07:53:50.000Z</Time>
            <Position>
              <LatitudeDegrees>49.4802350364625453948974609375</LatitudeDegrees>
              <LongitudeDegrees>20.09848306886851787567138671875</LongitudeDegrees>
            </Position>
            <AltitudeMeters>555.5999755859375</AltitudeMeters>
            <DistanceMeters>NAN</DistanceMeters>
          </Trackpoint>
          <Trackpoint>
            <Time>2022-09-20T07:53:55.000Z</Time>
            <Position>
              <LatitudeDegrees>49.48019471950829029083251953125</LatitudeDegrees>
              <LongitudeDegrees>20.09886964224278926849365234375</LongitudeDegrees>
            </Position>
            <AltitudeMeters>555.79998779296875</AltitudeMeters>
            <DistanceMeters>NAN</DistanceMeters>
          </Trackpoint>
          <Trackpoint>
            <Time>2022-09-20T07:54:03.000Z</Time>
            <Position>
              <LatitudeDegrees>49.4801378063857555389404296875</LatitudeDegrees>
              <LongitudeDegrees>20.09945268742740154266357421875</LongitudeDegrees>
            </Position>
            <AltitudeMeters>555.79998779296875</AltitudeMeters>
            <DistanceMeters>NAN</DistanceMeters>
          </Trackpoint>
          <Trackpoint>
            <Time>2022-09-20T07:54:10.000Z</Time>
            <Position>
              <LatitudeDegrees>49.4800727628171443939208984375</LatitudeDegrees>
              <LongitudeDegrees>20.09991176426410675048828125</LongitudeDegrees>
            </Position>
            <AltitudeMeters>555.5999755859375</AltitudeMeters>
            <DistanceMeters>NAN</DistanceMeters>
          </Trackpoint>
          <Trackpoint>
            <Time>2022-09-20T07:54:13.000Z</Time>
            <Position>
              <LatitudeDegrees>49.4800392352044582366943359375</LatitudeDegrees>
              <LongitudeDegrees>20.1000698469579219818115234375</LongitudeDegrees>
            </Position>
            <AltitudeMeters>555.5999755859375</AltitudeMeters>
            <DistanceMeters>NAN</DistanceMeters>
          </Trackpoint>
          <Trackpoint>
            <Time>2022-09-20T07:54:16.000Z</Time>
            <Position>
              <LatitudeDegrees>49.4799926318228244781494140625</LatitudeDegrees>
              <LongitudeDegrees>20.1001845113933086395263671875</LongitudeDegrees>
            </Position>
            <AltitudeMeters>556</AltitudeMeters>
            <DistanceMeters>NAN</DistanceMeters>
          </Trackpoint>
          <Trackpoint>
            <Time>2022-09-20T07:54:17.000Z</Time>
            <Position>
              <LatitudeDegrees>49.4799812324345111846923828125</LatitudeDegrees>
              <LongitudeDegrees>20.1002083159983158111572265625</LongitudeDegrees>
            </Position>
            <AltitudeMeters>556.4000244140625</AltitudeMeters>
            <DistanceMeters>NAN</DistanceMeters>
          </Trackpoint>
          <Trackpoint>
            <Time>2022-09-20T07:54:21.000Z</Time>
            <Position>
              <LatitudeDegrees>49.4799394905567169189453125</LatitudeDegrees>
              <LongitudeDegrees>20.10027294047176837921142578125</LongitudeDegrees>
            </Position>
            <AltitudeMeters>557</AltitudeMeters>
            <DistanceMeters>NAN</DistanceMeters>
          </Trackpoint>
          <Trackpoint>
            <Time>2022-09-20T07:54:22.000Z</Time>
            <Position>
              <LatitudeDegrees>49.47994175367057323455810546875</LatitudeDegrees>
              <LongitudeDegrees>20.1003156043589115142822265625</LongitudeDegrees>
            </Position>
            <AltitudeMeters>557.20001220703125</AltitudeMeters>
            <DistanceMeters>NAN</DistanceMeters>
          </Trackpoint>
          <Trackpoint>
            <Time>2022-09-20T07:54:25.000Z</Time>
            <Position>
              <LatitudeDegrees>49.47995516471564769744873046875</LatitudeDegrees>
              <LongitudeDegrees>20.10035701096057891845703125</LongitudeDegrees>
            </Position>
            <AltitudeMeters>557.4000244140625</AltitudeMeters>
            <DistanceMeters>NAN</DistanceMeters>
          </Trackpoint>
          <Trackpoint>
            <Time>2022-09-20T07:54:26.000Z</Time>
            <Position>
              <LatitudeDegrees>49.4799681566655635833740234375</LatitudeDegrees>
              <LongitudeDegrees>20.10036597959697246551513671875</LongitudeDegrees>
            </Position>
            <AltitudeMeters>557.4000244140625</AltitudeMeters>
            <DistanceMeters>NAN</DistanceMeters>
          </Trackpoint>
          <Trackpoint>
            <Time>2022-09-20T07:54:30.000Z</Time>
            <Position>
              <LatitudeDegrees>49.480016939342021942138671875</LatitudeDegrees>
              <LongitudeDegrees>20.100413672626018524169921875</LongitudeDegrees>
            </Position>
            <AltitudeMeters>557.79998779296875</AltitudeMeters>
            <DistanceMeters>NAN</DistanceMeters>
          </Trackpoint>
          <Trackpoint>
            <Time>2022-09-20T07:54:32.000Z</Time>
            <Position>
              <LatitudeDegrees>49.48004879057407379150390625</LatitudeDegrees>
              <LongitudeDegrees>20.10044476948678493499755859375</LongitudeDegrees>
            </Position>
            <AltitudeMeters>557.79998779296875</AltitudeMeters>
            <DistanceMeters>NAN</DistanceMeters>
          </Trackpoint>
          <Trackpoint>
            <Time>2022-09-20T07:54:37.000Z</Time>
            <Position>
              <LatitudeDegrees>49.48013059794902801513671875</LatitudeDegrees>
              <LongitudeDegrees>20.10055172257125377655029296875</LongitudeDegrees>
            </Position>
            <AltitudeMeters>558</AltitudeMeters>
            <DistanceMeters>NAN</DistanceMeters>
          </Trackpoint>
          <Trackpoint>
            <Time>2022-09-20T07:54:39.000Z</Time>
            <Position>
              <LatitudeDegrees>49.480181895196437835693359375</LatitudeDegrees>
              <LongitudeDegrees>20.10061307810246944427490234375</LongitudeDegrees>
            </Position>
            <AltitudeMeters>558</AltitudeMeters>
            <DistanceMeters>NAN</DistanceMeters>
          </Trackpoint>
          <Trackpoint>
            <Time>2022-09-20T07:54:47.000Z</Time>
            <Position>
              <LatitudeDegrees>49.48031005449593067169189453125</LatitudeDegrees>
              <LongitudeDegrees>20.1007645390927791595458984375</LongitudeDegrees>
            </Position>
            <AltitudeMeters>558</AltitudeMeters>
            <DistanceMeters>NAN</DistanceMeters>
          </Trackpoint>
          <Trackpoint>
            <Time>2022-09-20T07:54:48.000Z</Time>
            <Position>
              <LatitudeDegrees>49.480328746140003204345703125</LatitudeDegrees>
              <LongitudeDegrees>20.10078507475554943084716796875</LongitudeDegrees>
            </Position>
            <AltitudeMeters>558</AltitudeMeters>
            <DistanceMeters>NAN</DistanceMeters>
          </Trackpoint>
          <Trackpoint>
            <Time>2022-09-20T07:54:51.000Z</Time>
            <Position>
              <LatitudeDegrees>49.4803927838802337646484375</LatitudeDegrees>
              <LongitudeDegrees>20.10085590183734893798828125</LongitudeDegrees>
            </Position>
            <AltitudeMeters>558.20001220703125</AltitudeMeters>
            <DistanceMeters>NAN</DistanceMeters>
          </Trackpoint>
          <Trackpoint>
            <Time>2022-09-20T07:54:54.000Z</Time>
            <Position>
              <LatitudeDegrees>49.4804536364972591400146484375</LatitudeDegrees>
              <LongitudeDegrees>20.1009331829845905303955078125</LongitudeDegrees>
            </Position>
            <AltitudeMeters>558.20001220703125</AltitudeMeters>
            <DistanceMeters>NAN</DistanceMeters>
          </Trackpoint>
          <Trackpoint>
            <Time>2022-09-20T07:54:57.000Z</Time>
            <Position>
              <LatitudeDegrees>49.4804942049086093902587890625</LatitudeDegrees>
              <LongitudeDegrees>20.10103167034685611724853515625</LongitudeDegrees>
            </Position>
            <AltitudeMeters>558</AltitudeMeters>
            <DistanceMeters>NAN</DistanceMeters>
          </Trackpoint>
          <Trackpoint>
            <Time>2022-09-20T07:55:00.000Z</Time>
            <Position>
              <LatitudeDegrees>49.480531252920627593994140625</LatitudeDegrees>
              <LongitudeDegrees>20.101153962314128875732421875</LongitudeDegrees>
            </Position>
            <AltitudeMeters>557.79998779296875</AltitudeMeters>
            <DistanceMeters>NAN</DistanceMeters>
          </Trackpoint>
          <Trackpoint>
            <Time>2022-09-20T07:55:02.000Z</Time>
            <Position>
              <LatitudeDegrees>49.48053016327321529388427734375</LatitudeDegrees>
              <LongitudeDegrees>20.10125177912414073944091796875</LongitudeDegrees>
            </Position>
            <AltitudeMeters>557.5999755859375</AltitudeMeters>
            <DistanceMeters>NAN</DistanceMeters>
          </Trackpoint>
          <Trackpoint>
            <Time>2022-09-20T07:55:03.000Z</Time>
            <Position>
              <LatitudeDegrees>49.4805136509239673614501953125</LatitudeDegrees>
              <LongitudeDegrees>20.10130190290510654449462890625</LongitudeDegrees>
            </Position>
            <AltitudeMeters>557.5999755859375</AltitudeMeters>
            <DistanceMeters>NAN</DistanceMeters>
          </Trackpoint>
          <Trackpoint>
            <Time>2022-09-20T07:55:06.000Z</Time>
            <Position>
              <LatitudeDegrees>49.48041499592363834381103515625</LatitudeDegrees>
              <LongitudeDegrees>20.10145227424800395965576171875</LongitudeDegrees>
            </Position>
            <AltitudeMeters>557</AltitudeMeters>
            <DistanceMeters>NAN</DistanceMeters>
          </Trackpoint>
          <Trackpoint>
            <Time>2022-09-20T07:55:07.000Z</Time>
            <Position>
              <LatitudeDegrees>49.48037945665419101715087890625</LatitudeDegrees>
              <LongitudeDegrees>20.10150499641895294189453125</LongitudeDegrees>
            </Position>
            <AltitudeMeters>556.5999755859375</AltitudeMeters>
            <DistanceMeters>NAN</DistanceMeters>
          </Trackpoint>
          <Trackpoint>
            <Time>2022-09-20T07:55:10.000Z</Time>
            <Position>
              <LatitudeDegrees>49.4802890159189701080322265625</LatitudeDegrees>
              <LongitudeDegrees>20.10169920511543750762939453125</LongitudeDegrees>
            </Position>
            <AltitudeMeters>556</AltitudeMeters>
            <DistanceMeters>NAN</DistanceMeters>
          </Trackpoint>
          <Trackpoint>
            <Time>2022-09-20T07:55:11.000Z</Time>
            <Position>
              <LatitudeDegrees>49.48025934398174285888671875</LatitudeDegrees>
              <LongitudeDegrees>20.1017646677792072296142578125</LongitudeDegrees>
            </Position>
            <AltitudeMeters>556</AltitudeMeters>
            <DistanceMeters>NAN</DistanceMeters>
          </Trackpoint>
          <Trackpoint>
            <Time>2022-09-20T07:55:13.000Z</Time>
            <Position>
              <LatitudeDegrees>49.48020276613533496856689453125</LatitudeDegrees>
              <LongitudeDegrees>20.10189500637352466583251953125</LongitudeDegrees>
            </Position>
            <AltitudeMeters>555.79998779296875</AltitudeMeters>
            <DistanceMeters>NAN</DistanceMeters>
          </Trackpoint>
          <Trackpoint>
            <Time>2022-09-20T07:55:23.000Z</Time>
            <Position>
              <LatitudeDegrees>49.47995583526790142059326171875</LatitudeDegrees>
              <LongitudeDegrees>20.10256706736981868743896484375</LongitudeDegrees>
            </Position>
            <AltitudeMeters>555.4000244140625</AltitudeMeters>
            <DistanceMeters>NAN</DistanceMeters>
          </Trackpoint>
          <Trackpoint>
            <Time>2022-09-20T07:55:24.000Z</Time>
            <Position>
              <LatitudeDegrees>49.4799285940825939178466796875</LatitudeDegrees>
              <LongitudeDegrees>20.102627836167812347412109375</LongitudeDegrees>
            </Position>
            <AltitudeMeters>555.20001220703125</AltitudeMeters>
            <DistanceMeters>NAN</DistanceMeters>
          </Trackpoint>
          <Trackpoint>
            <Time>2022-09-20T07:55:31.000Z</Time>
            <Position>
              <LatitudeDegrees>49.479753412306308746337890625</LatitudeDegrees>
              <LongitudeDegrees>20.10304114781320095062255859375</LongitudeDegrees>
            </Position>
            <AltitudeMeters>555</AltitudeMeters>
            <DistanceMeters>NAN</DistanceMeters>
          </Trackpoint>
          <Trackpoint>
            <Time>2022-09-20T07:55:34.000Z</Time>
            <Position>
              <LatitudeDegrees>49.4796828366816043853759765625</LatitudeDegrees>
              <LongitudeDegrees>20.10320778004825115203857421875</LongitudeDegrees>
            </Position>
            <AltitudeMeters>555</AltitudeMeters>
            <DistanceMeters>NAN</DistanceMeters>
          </Trackpoint>
          <Trackpoint>
            <Time>2022-09-20T07:55:36.000Z</Time>
            <Position>
              <LatitudeDegrees>49.47963464073836803436279296875</LatitudeDegrees>
              <LongitudeDegrees>20.10331674478948116302490234375</LongitudeDegrees>
            </Position>
            <AltitudeMeters>554.79998779296875</AltitudeMeters>
            <DistanceMeters>NAN</DistanceMeters>
          </Trackpoint>
          <Trackpoint>
            <Time>2022-09-20T07:55:39.000Z</Time>
            <Position>
              <LatitudeDegrees>49.4795651547610759735107421875</LatitudeDegrees>
              <LongitudeDegrees>20.10348103009164333343505859375</LongitudeDegrees>
            </Position>
            <AltitudeMeters>554.79998779296875</AltitudeMeters>
            <DistanceMeters>NAN</DistanceMeters>
          </Trackpoint>
          <Trackpoint>
            <Time>2022-09-20T07:55:49.000Z</Time>
            <Position>
              <LatitudeDegrees>49.47930640541017055511474609375</LatitudeDegrees>
              <LongitudeDegrees>20.1041092537343502044677734375</LongitudeDegrees>
            </Position>
            <AltitudeMeters>554.79998779296875</AltitudeMeters>
            <DistanceMeters>NAN</DistanceMeters>
          </Trackpoint>
          <Trackpoint>
            <Time>2022-09-20T07:55:52.000Z</Time>
            <Position>
              <LatitudeDegrees>49.47918000631034374237060546875</LatitudeDegrees>
              <LongitudeDegrees>20.10438778437674045562744140625</LongitudeDegrees>
            </Position>
            <AltitudeMeters>554.79998779296875</AltitudeMeters>
            <DistanceMeters>NAN</DistanceMeters>
          </Trackpoint>
          <Trackpoint>
            <Time>2022-09-20T07:55:53.000Z</Time>
            <Position>
              <LatitudeDegrees>49.47918000631034374237060546875</LatitudeDegrees>
              <LongitudeDegrees>20.10438778437674045562744140625</LongitudeDegrees>
            </Position>
            <AltitudeMeters>554.79998779296875</AltitudeMeters>
            <DistanceMeters>NAN</DistanceMeters>
          </Trackpoint>
          <Trackpoint>
            <Time>2022-09-20T07:55:57.000Z</Time>
            <Position>
              <LatitudeDegrees>49.4790263660252094268798828125</LatitudeDegrees>
              <LongitudeDegrees>20.104714930057525634765625</LongitudeDegrees>
            </Position>
            <AltitudeMeters>554.5999755859375</AltitudeMeters>
            <DistanceMeters>NAN</DistanceMeters>
          </Trackpoint>
          <Trackpoint>
            <Time>2022-09-20T07:56:01.000Z</Time>
            <Position>
              <LatitudeDegrees>49.4789395295083522796630859375</LatitudeDegrees>
              <LongitudeDegrees>20.10490000247955322265625</LongitudeDegrees>
            </Position>
            <AltitudeMeters>554.5999755859375</AltitudeMeters>
            <DistanceMeters>NAN</DistanceMeters>
          </Trackpoint>
          <Trackpoint>
            <Time>2022-09-20T07:56:06.000Z</Time>
            <Position>
              <LatitudeDegrees>49.47879217565059661865234375</LatitudeDegrees>
              <LongitudeDegrees>20.1052277348935604095458984375</LongitudeDegrees>
            </Position>
            <AltitudeMeters>554.4000244140625</AltitudeMeters>
            <DistanceMeters>NAN</DistanceMeters>
          </Trackpoint>
          <Trackpoint>
            <Time>2022-09-20T07:56:14.000Z</Time>
            <Position>
              <LatitudeDegrees>49.47855840437114238739013671875</LatitudeDegrees>
              <LongitudeDegrees>20.105769373476505279541015625</LongitudeDegrees>
            </Position>
            <AltitudeMeters>554.4000244140625</AltitudeMeters>
            <DistanceMeters>NAN</DistanceMeters>
          </Trackpoint>
          <Trackpoint>
            <Time>2022-09-20T07:56:19.000Z</Time>
            <Position>
              <LatitudeDegrees>49.47844591923058032989501953125</LatitudeDegrees>
              <LongitudeDegrees>20.10612116195261478424072265625</LongitudeDegrees>
            </Position>
            <AltitudeMeters>554.20001220703125</AltitudeMeters>
            <DistanceMeters>NAN</DistanceMeters>
          </Trackpoint>
          <Trackpoint>
            <Time>2022-09-20T07:56:22.000Z</Time>
            <Position>
              <LatitudeDegrees>49.4783806242048740386962890625</LatitudeDegrees>
              <LongitudeDegrees>20.1063304580748081207275390625</LongitudeDegrees>
            </Position>
            <AltitudeMeters>553.79998779296875</AltitudeMeters>
            <DistanceMeters>NAN</DistanceMeters>
          </Trackpoint>
          <Trackpoint>
            <Time>2022-09-20T07:56:24.000Z</Time>
            <Position>
              <LatitudeDegrees>49.47833175770938396453857421875</LatitudeDegrees>
              <LongitudeDegrees>20.10646867565810680389404296875</LongitudeDegrees>
            </Position>
            <AltitudeMeters>553.5999755859375</AltitudeMeters>
            <DistanceMeters>NAN</DistanceMeters>
          </Trackpoint>
          <Trackpoint>
            <Time>2022-09-20T07:56:30.000Z</Time>
            <Position>
              <LatitudeDegrees>49.47819077409803867340087890625</LatitudeDegrees>
              <LongitudeDegrees>20.10689112357795238494873046875</LongitudeDegrees>
            </Position>
            <AltitudeMeters>553.4000244140625</AltitudeMeters>
            <DistanceMeters>NAN</DistanceMeters>
          </Trackpoint>
          <Trackpoint>
            <Time>2022-09-20T07:56:32.000Z</Time>
            <Position>
              <LatitudeDegrees>49.47816965170204639434814453125</LatitudeDegrees>
              <LongitudeDegrees>20.107034705579280853271484375</LongitudeDegrees>
            </Position>
            <AltitudeMeters>553.5999755859375</AltitudeMeters>
            <DistanceMeters>NAN</DistanceMeters>
          </Trackpoint>
          <Trackpoint>
            <Time>2022-09-20T07:56:33.000Z</Time>
            <Position>
              <LatitudeDegrees>49.47815657593309879302978515625</LatitudeDegrees>
              <LongitudeDegrees>20.10709941387176513671875</LongitudeDegrees>
            </Position>
            <AltitudeMeters>553.5999755859375</AltitudeMeters>
            <DistanceMeters>NAN</DistanceMeters>
          </Trackpoint>
          <Trackpoint>
            <Time>2022-09-20T07:56:35.000Z</Time>
            <Position>
              <LatitudeDegrees>49.478099830448627471923828125</LatitudeDegrees>
              <LongitudeDegrees>20.10719538666307926177978515625</LongitudeDegrees>
            </Position>
            <AltitudeMeters>553.79998779296875</AltitudeMeters>
            <DistanceMeters>NAN</DistanceMeters>
          </Trackpoint>
          <Trackpoint>
            <Time>2022-09-20T07:56:37.000Z</Time>
            <Position>
              <LatitudeDegrees>49.47803872637450695037841796875</LatitudeDegrees>
              <LongitudeDegrees>20.107286833226680755615234375</LongitudeDegrees>
            </Position>
            <AltitudeMeters>553.79998779296875</AltitudeMeters>
            <DistanceMeters>NAN</DistanceMeters>
          </Trackpoint>
          <Trackpoint>
            <Time>2022-09-20T07:56:39.000Z</Time>
            <Position>
              <LatitudeDegrees>49.4780002534389495849609375</LatitudeDegrees>
              <LongitudeDegrees>20.10740585625171661376953125</LongitudeDegrees>
            </Position>
            <AltitudeMeters>553.79998779296875</AltitudeMeters>
            <DistanceMeters>NAN</DistanceMeters>
          </Trackpoint>
          <Trackpoint>
            <Time>2022-09-20T07:56:44.000Z</Time>
            <Position>
              <LatitudeDegrees>49.47790729813277721405029296875</LatitudeDegrees>
              <LongitudeDegrees>20.10775865055620670318603515625</LongitudeDegrees>
            </Position>
            <AltitudeMeters>553.79998779296875</AltitudeMeters>
            <DistanceMeters>NAN</DistanceMeters>
          </Trackpoint>
          <Trackpoint>
            <Time>2022-09-20T07:56:47.000Z</Time>
            <Position>
              <LatitudeDegrees>49.4778569228947162628173828125</LatitudeDegrees>
              <LongitudeDegrees>20.10797926224768161773681640625</LongitudeDegrees>
            </Position>
            <AltitudeMeters>553.5999755859375</AltitudeMeters>
            <DistanceMeters>NAN</DistanceMeters>
          </Trackpoint>
          <Trackpoint>
            <Time>2022-09-20T07:56:53.000Z</Time>
            <Position>
              <LatitudeDegrees>49.4777620397508144378662109375</LatitudeDegrees>
              <LongitudeDegrees>20.10840095579624176025390625</LongitudeDegrees>
            </Position>
            <AltitudeMeters>553.4000244140625</AltitudeMeters>
            <DistanceMeters>NAN</DistanceMeters>
          </Trackpoint>
          <Trackpoint>
            <Time>2022-09-20T07:56:56.000Z</Time>
            <Position>
              <LatitudeDegrees>49.47770697064697742462158203125</LatitudeDegrees>
              <LongitudeDegrees>20.108618550002574920654296875</LongitudeDegrees>
            </Position>
            <AltitudeMeters>553.20001220703125</AltitudeMeters>
            <DistanceMeters>NAN</DistanceMeters>
          </Trackpoint>
          <Trackpoint>
            <Time>2022-09-20T07:57:03.000Z</Time>
            <Position>
              <LatitudeDegrees>49.47760588489472866058349609375</LatitudeDegrees>
              <LongitudeDegrees>20.10909656994044780731201171875</LongitudeDegrees>
            </Position>
            <AltitudeMeters>553.20001220703125</AltitudeMeters>
            <DistanceMeters>NAN</DistanceMeters>
          </Trackpoint>
          <Trackpoint>
            <Time>2022-09-20T07:57:04.000Z</Time>
            <Position>
              <LatitudeDegrees>49.4775937311351299285888671875</LatitudeDegrees>
              <LongitudeDegrees>20.10915876366198062896728515625</LongitudeDegrees>
            </Position>
            <AltitudeMeters>553.20001220703125</AltitudeMeters>
            <DistanceMeters>NAN</DistanceMeters>
          </Trackpoint>
          <Trackpoint>
            <Time>2022-09-20T07:57:10.000Z</Time>
            <Position>
              <LatitudeDegrees>49.4774978421628475189208984375</LatitudeDegrees>
              <LongitudeDegrees>20.10950342752039432525634765625</LongitudeDegrees>
            </Position>
            <AltitudeMeters>553.4000244140625</AltitudeMeters>
            <DistanceMeters>NAN</DistanceMeters>
          </Trackpoint>
          <Trackpoint>
            <Time>2022-09-20T07:57:18.000Z</Time>
            <Position>
              <LatitudeDegrees>49.4773868657648563385009765625</LatitudeDegrees>
              <LongitudeDegrees>20.109931491315364837646484375</LongitudeDegrees>
            </Position>
            <AltitudeMeters>554.20001220703125</AltitudeMeters>
            <DistanceMeters>NAN</DistanceMeters>
          </Trackpoint>
          <Trackpoint>
            <Time>2022-09-20T07:57:22.000Z</Time>
            <Position>
              <LatitudeDegrees>49.47729910723865032196044921875</LatitudeDegrees>
              <LongitudeDegrees>20.1102320663630962371826171875</LongitudeDegrees>
            </Position>
            <AltitudeMeters>554.20001220703125</AltitudeMeters>
            <DistanceMeters>NAN</DistanceMeters>
          </Trackpoint>
          <Trackpoint>
            <Time>2022-09-20T07:57:24.000Z</Time>
            <Position>
              <LatitudeDegrees>49.477287121117115020751953125</LatitudeDegrees>
              <LongitudeDegrees>20.11030524037778377532958984375</LongitudeDegrees>
            </Position>
            <AltitudeMeters>554.20001220703125</AltitudeMeters>
            <DistanceMeters>NAN</DistanceMeters>
          </Trackpoint>
          <Trackpoint>
            <Time>2022-09-20T07:57:27.000Z</Time>
            <Position>
              <LatitudeDegrees>49.47724596597254276275634765625</LatitudeDegrees>
              <LongitudeDegrees>20.1105421967804431915283203125</LongitudeDegrees>
            </Position>
            <AltitudeMeters>554</AltitudeMeters>
            <DistanceMeters>NAN</DistanceMeters>
          </Trackpoint>
          <Trackpoint>
            <Time>2022-09-20T07:57:30.000Z</Time>
            <Position>
              <LatitudeDegrees>49.47720137424767017364501953125</LatitudeDegrees>
              <LongitudeDegrees>20.1108154468238353729248046875</LongitudeDegrees>
            </Position>
            <AltitudeMeters>553.79998779296875</AltitudeMeters>
            <DistanceMeters>NAN</DistanceMeters>
          </Trackpoint>
          <Trackpoint>
            <Time>2022-09-20T07:57:33.000Z</Time>
            <Position>
              <LatitudeDegrees>49.47717756964266300201416015625</LatitudeDegrees>
              <LongitudeDegrees>20.1109631359577178955078125</LongitudeDegrees>
            </Position>
            <AltitudeMeters>553.5999755859375</AltitudeMeters>
            <DistanceMeters>NAN</DistanceMeters>
          </Trackpoint>
          <Trackpoint>
            <Time>2022-09-20T07:57:38.000Z</Time>
            <Position>
              <LatitudeDegrees>49.47714395821094512939453125</LatitudeDegrees>
              <LongitudeDegrees>20.1113252341747283935546875</LongitudeDegrees>
            </Position>
            <AltitudeMeters>553.4000244140625</AltitudeMeters>
            <DistanceMeters>NAN</DistanceMeters>
          </Trackpoint>
          <Trackpoint>
            <Time>2022-09-20T07:57:45.000Z</Time>
            <Position>
              <LatitudeDegrees>49.477092325687408447265625</LatitudeDegrees>
              <LongitudeDegrees>20.1118564791977405548095703125</LongitudeDegrees>
            </Position>
            <AltitudeMeters>553.4000244140625</AltitudeMeters>
            <DistanceMeters>NAN</DistanceMeters>
          </Trackpoint>
          <Trackpoint>
            <Time>2022-09-20T07:57:46.000Z</Time>
            <Position>
              <LatitudeDegrees>49.4770824350416660308837890625</LatitudeDegrees>
              <LongitudeDegrees>20.11193602345883846282958984375</LongitudeDegrees>
            </Position>
            <AltitudeMeters>553.4000244140625</AltitudeMeters>
            <DistanceMeters>NAN</DistanceMeters>
          </Trackpoint>
          <Trackpoint>
            <Time>2022-09-20T07:57:51.000Z</Time>
            <Position>
              <LatitudeDegrees>49.4770576246082782745361328125</LatitudeDegrees>
              <LongitudeDegrees>20.112397111952304840087890625</LongitudeDegrees>
            </Position>
            <AltitudeMeters>553.20001220703125</AltitudeMeters>
            <DistanceMeters>NAN</DistanceMeters>
          </Trackpoint>
          <Trackpoint>
            <Time>2022-09-20T07:57:53.000Z</Time>
            <Position>
              <LatitudeDegrees>49.47705209255218505859375</LatitudeDegrees>
              <LongitudeDegrees>20.112470202147960662841796875</LongitudeDegrees>
            </Position>
            <AltitudeMeters>553.20001220703125</AltitudeMeters>
            <DistanceMeters>NAN</DistanceMeters>
          </Trackpoint>
          <Trackpoint>
            <Time>2022-09-20T07:57:59.000Z</Time>
            <Position>
              <LatitudeDegrees>49.47699953801929950714111328125</LatitudeDegrees>
              <LongitudeDegrees>20.112908743321895599365234375</LongitudeDegrees>
            </Position>
            <AltitudeMeters>552.79998779296875</AltitudeMeters>
            <DistanceMeters>NAN</DistanceMeters>
          </Trackpoint>
          <Trackpoint>
            <Time>2022-09-20T07:58:00.000Z</Time>
            <Position>
              <LatitudeDegrees>49.47699266485869884490966796875</LatitudeDegrees>
              <LongitudeDegrees>20.11296900920569896697998046875</LongitudeDegrees>
            </Position>
            <AltitudeMeters>552.79998779296875</AltitudeMeters>
            <DistanceMeters>NAN</DistanceMeters>
          </Trackpoint>
          <Trackpoint>
            <Time>2022-09-20T07:58:04.000Z</Time>
            <Position>
              <LatitudeDegrees>49.47695888578891754150390625</LatitudeDegrees>
              <LongitudeDegrees>20.11328433640301227569580078125</LongitudeDegrees>
            </Position>
            <AltitudeMeters>552.4000244140625</AltitudeMeters>
            <DistanceMeters>NAN</DistanceMeters>
          </Trackpoint>
          <Trackpoint>
            <Time>2022-09-20T07:58:06.000Z</Time>
            <Position>
              <LatitudeDegrees>49.4769493304193019866943359375</LatitudeDegrees>
              <LongitudeDegrees>20.113416351377964019775390625</LongitudeDegrees>
            </Position>
            <AltitudeMeters>552.20001220703125</AltitudeMeters>
            <DistanceMeters>NAN</DistanceMeters>
          </Trackpoint>
          <Trackpoint>
            <Time>2022-09-20T07:58:09.000Z</Time>
            <Position>
              <LatitudeDegrees>49.47694673202931880950927734375</LatitudeDegrees>
              <LongitudeDegrees>20.11368415318429470062255859375</LongitudeDegrees>
            </Position>
            <AltitudeMeters>551.79998779296875</AltitudeMeters>
            <DistanceMeters>NAN</DistanceMeters>
          </Trackpoint>
          <Trackpoint>
            <Time>2022-09-20T07:58:10.000Z</Time>
            <Position>
              <LatitudeDegrees>49.47694941423833370208740234375</LatitudeDegrees>
              <LongitudeDegrees>20.1137735880911350250244140625</LongitudeDegrees>
            </Position>
            <AltitudeMeters>551.79998779296875</AltitudeMeters>
            <DistanceMeters>NAN</DistanceMeters>
          </Trackpoint>
          <Trackpoint>
            <Time>2022-09-20T07:58:11.000Z</Time>
            <Position>
              <LatitudeDegrees>49.47695444338023662567138671875</LatitudeDegrees>
              <LongitudeDegrees>20.11384525336325168609619140625</LongitudeDegrees>
            </Position>
            <AltitudeMeters>551.79998779296875</AltitudeMeters>
            <DistanceMeters>NAN</DistanceMeters>
          </Trackpoint>
          <Trackpoint>
            <Time>2022-09-20T07:58:17.000Z</Time>
            <Position>
              <LatitudeDegrees>49.47699182666838169097900390625</LatitudeDegrees>
              <LongitudeDegrees>20.1143968664109706878662109375</LongitudeDegrees>
            </Position>
            <AltitudeMeters>551.5999755859375</AltitudeMeters>
            <DistanceMeters>NAN</DistanceMeters>
          </Trackpoint>
          <Trackpoint>
            <Time>2022-09-20T07:58:27.000Z</Time>
            <Position>
              <LatitudeDegrees>49.47707824409008026123046875</LatitudeDegrees>
              <LongitudeDegrees>20.11519390158355236053466796875</LongitudeDegrees>
            </Position>
            <AltitudeMeters>551.5999755859375</AltitudeMeters>
            <DistanceMeters>NAN</DistanceMeters>
          </Trackpoint>
          <Trackpoint>
            <Time>2022-09-20T07:58:35.000Z</Time>
            <Position>
              <LatitudeDegrees>49.47716549970209598541259765625</LatitudeDegrees>
              <LongitudeDegrees>20.115759931504726409912109375</LongitudeDegrees>
            </Position>
            <AltitudeMeters>551.5999755859375</AltitudeMeters>
            <DistanceMeters>NAN</DistanceMeters>
          </Trackpoint>
          <Trackpoint>
            <Time>2022-09-20T07:58:38.000Z</Time>
            <Position>
              <LatitudeDegrees>49.47719031013548374176025390625</LatitudeDegrees>
              <LongitudeDegrees>20.115951709449291229248046875</LongitudeDegrees>
            </Position>
            <AltitudeMeters>551.79998779296875</AltitudeMeters>
            <DistanceMeters>NAN</DistanceMeters>
          </Trackpoint>
          <Trackpoint>
            <Time>2022-09-20T07:58:40.000Z</Time>
            <Position>
              <LatitudeDegrees>49.4772054813802242279052734375</LatitudeDegrees>
              <LongitudeDegrees>20.11606494896113872528076171875</LongitudeDegrees>
            </Position>
            <AltitudeMeters>551.79998779296875</AltitudeMeters>
            <DistanceMeters>NAN</DistanceMeters>
          </Trackpoint>
          <Trackpoint>
            <Time>2022-09-20T07:58:43.000Z</Time>
            <Position>
              <LatitudeDegrees>49.477234147489070892333984375</LatitudeDegrees>
              <LongitudeDegrees>20.11627734638750553131103515625</LongitudeDegrees>
            </Position>
            <AltitudeMeters>551.5999755859375</AltitudeMeters>
            <DistanceMeters>NAN</DistanceMeters>
          </Trackpoint>
          <Trackpoint>
            <Time>2022-09-20T07:58:50.000Z</Time>
            <Position>
              <LatitudeDegrees>49.47737471200525760650634765625</LatitudeDegrees>
              <LongitudeDegrees>20.11673516593873500823974609375</LongitudeDegrees>
            </Position>
            <AltitudeMeters>551</AltitudeMeters>
            <DistanceMeters>NAN</DistanceMeters>
          </Trackpoint>
          <Trackpoint>
            <Time>2022-09-20T07:58:54.000Z</Time>
            <Position>
              <LatitudeDegrees>49.47747386991977691650390625</LatitudeDegrees>
              <LongitudeDegrees>20.11698670685291290283203125</LongitudeDegrees>
            </Position>
            <AltitudeMeters>550.79998779296875</AltitudeMeters>
            <DistanceMeters>NAN</DistanceMeters>
          </Trackpoint>
          <Trackpoint>
            <Time>2022-09-20T07:58:56.000Z</Time>
            <Position>
              <LatitudeDegrees>49.4775035418570041656494140625</LatitudeDegrees>
              <LongitudeDegrees>20.11711754836142063140869140625</LongitudeDegrees>
            </Position>
            <AltitudeMeters>551</AltitudeMeters>
            <DistanceMeters>NAN</DistanceMeters>
          </Trackpoint>
          <Trackpoint>
            <Time>2022-09-20T07:58:59.000Z</Time>
            <Position>
              <LatitudeDegrees>49.4775508157908916473388671875</LatitudeDegrees>
              <LongitudeDegrees>20.1173566840589046478271484375</LongitudeDegrees>
            </Position>
            <AltitudeMeters>551.20001220703125</AltitudeMeters>
            <DistanceMeters>NAN</DistanceMeters>
          </Trackpoint>
          <Trackpoint>
            <Time>2022-09-20T07:59:02.000Z</Time>
            <Position>
              <LatitudeDegrees>49.47757286019623279571533203125</LatitudeDegrees>
              <LongitudeDegrees>20.11759548448026180267333984375</LongitudeDegrees>
            </Position>
            <AltitudeMeters>551.20001220703125</AltitudeMeters>
            <DistanceMeters>NAN</DistanceMeters>
          </Trackpoint>
          <Trackpoint>
            <Time>2022-09-20T07:59:06.000Z</Time>
            <Position>
              <LatitudeDegrees>49.47760219685733318328857421875</LatitudeDegrees>
              <LongitudeDegrees>20.11798507533967494964599609375</LongitudeDegrees>
            </Position>
            <AltitudeMeters>551.20001220703125</AltitudeMeters>
            <DistanceMeters>NAN</DistanceMeters>
          </Trackpoint>
          <Trackpoint>
            <Time>2022-09-20T07:59:09.000Z</Time>
            <Position>
              <LatitudeDegrees>49.47762616910040378570556640625</LatitudeDegrees>
              <LongitudeDegrees>20.11813377030193805694580078125</LongitudeDegrees>
            </Position>
            <AltitudeMeters>551</AltitudeMeters>
            <DistanceMeters>NAN</DistanceMeters>
          </Trackpoint>
          <Trackpoint>
            <Time>2022-09-20T07:59:12.000Z</Time>
            <Position>
              <LatitudeDegrees>49.47766757570207118988037109375</LatitudeDegrees>
              <LongitudeDegrees>20.1183477602899074554443359375</LongitudeDegrees>
            </Position>
            <AltitudeMeters>550.79998779296875</AltitudeMeters>
            <DistanceMeters>NAN</DistanceMeters>
          </Trackpoint>
          <Trackpoint>
            <Time>2022-09-20T07:59:15.000Z</Time>
            <Position>
              <LatitudeDegrees>49.47772826068103313446044921875</LatitudeDegrees>
              <LongitudeDegrees>20.118550769984722137451171875</LongitudeDegrees>
            </Position>
            <AltitudeMeters>550.79998779296875</AltitudeMeters>
            <DistanceMeters>NAN</DistanceMeters>
          </Trackpoint>
          <Trackpoint>
            <Time>2022-09-20T07:59:16.000Z</Time>
            <Position>
              <LatitudeDegrees>49.47774334810674190521240234375</LatitudeDegrees>
              <LongitudeDegrees>20.11860516853630542755126953125</LongitudeDegrees>
            </Position>
            <AltitudeMeters>550.79998779296875</AltitudeMeters>
            <DistanceMeters>NAN</DistanceMeters>
          </Trackpoint>
          <Trackpoint>
            <Time>2022-09-20T07:59:25.000Z</Time>
            <Position>
              <LatitudeDegrees>49.47797602973878383636474609375</LatitudeDegrees>
              <LongitudeDegrees>20.11921587400138378143310546875</LongitudeDegrees>
            </Position>
            <AltitudeMeters>550.79998779296875</AltitudeMeters>
            <DistanceMeters>NAN</DistanceMeters>
          </Trackpoint>
          <Trackpoint>
            <Time>2022-09-20T07:59:26.000Z</Time>
            <Position>
              <LatitudeDegrees>49.47800335474312305450439453125</LatitudeDegrees>
              <LongitudeDegrees>20.1192744635045528411865234375</LongitudeDegrees>
            </Position>
            <AltitudeMeters>550.5999755859375</AltitudeMeters>
            <DistanceMeters>NAN</DistanceMeters>
          </Trackpoint>
          <Trackpoint>
            <Time>2022-09-20T07:59:28.000Z</Time>
            <Position>
              <LatitudeDegrees>49.478069655597209930419921875</LatitudeDegrees>
              <LongitudeDegrees>20.11937529779970645904541015625</LongitudeDegrees>
            </Position>
            <AltitudeMeters>550.4000244140625</AltitudeMeters>
            <DistanceMeters>NAN</DistanceMeters>
          </Trackpoint>
          <Trackpoint>
            <Time>2022-09-20T07:59:30.000Z</Time>
            <Position>
              <LatitudeDegrees>49.47814500890672206878662109375</LatitudeDegrees>
              <LongitudeDegrees>20.11945475824177265167236328125</LongitudeDegrees>
            </Position>
            <AltitudeMeters>550</AltitudeMeters>
            <DistanceMeters>NAN</DistanceMeters>
          </Trackpoint>
          <Trackpoint>
            <Time>2022-09-20T07:59:33.000Z</Time>
            <Position>
              <LatitudeDegrees>49.478252045810222625732421875</LatitudeDegrees>
              <LongitudeDegrees>20.11956967413425445556640625</LongitudeDegrees>
            </Position>
            <AltitudeMeters>550</AltitudeMeters>
            <DistanceMeters>NAN</DistanceMeters>
          </Trackpoint>
          <Trackpoint>
            <Time>2022-09-20T07:59:35.000Z</Time>
            <Position>
              <LatitudeDegrees>49.47830795310437679290771484375</LatitudeDegrees>
              <LongitudeDegrees>20.11967168189585208892822265625</LongitudeDegrees>
            </Position>
            <AltitudeMeters>550</AltitudeMeters>
            <DistanceMeters>NAN</DistanceMeters>
          </Trackpoint>
          <Trackpoint>
            <Time>2022-09-20T07:59:36.000Z</Time>
            <Position>
              <LatitudeDegrees>49.4783320091664791107177734375</LatitudeDegrees>
              <LongitudeDegrees>20.11973052285611629486083984375</LongitudeDegrees>
            </Position>
            <AltitudeMeters>550</AltitudeMeters>
            <DistanceMeters>NAN</DistanceMeters>
          </Trackpoint>
          <Trackpoint>
            <Time>2022-09-20T07:59:38.000Z</Time>
            <Position>
              <LatitudeDegrees>49.47837953455746173858642578125</LatitudeDegrees>
              <LongitudeDegrees>20.1198451034724712371826171875</LongitudeDegrees>
            </Position>
            <AltitudeMeters>549.5999755859375</AltitudeMeters>
            <DistanceMeters>NAN</DistanceMeters>
          </Trackpoint>
          <Trackpoint>
            <Time>2022-09-20T07:59:40.000Z</Time>
            <Position>
              <LatitudeDegrees>49.47846067138016223907470703125</LatitudeDegrees>
              <LongitudeDegrees>20.119993127882480621337890625</LongitudeDegrees>
            </Position>
            <AltitudeMeters>549.5999755859375</AltitudeMeters>
            <DistanceMeters>NAN</DistanceMeters>
          </Trackpoint>
          <Trackpoint>
            <Time>2022-09-20T07:59:42.000Z</Time>
            <Position>
              <LatitudeDegrees>49.4785244576632976531982421875</LatitudeDegrees>
              <LongitudeDegrees>20.1200613565742969512939453125</LongitudeDegrees>
            </Position>
            <AltitudeMeters>549.4000244140625</AltitudeMeters>
            <DistanceMeters>NAN</DistanceMeters>
          </Trackpoint>
          <Trackpoint>
            <Time>2022-09-20T07:59:47.000Z</Time>
            <Position>
              <LatitudeDegrees>49.478618837893009185791015625</LatitudeDegrees>
              <LongitudeDegrees>20.12012933380901813507080078125</LongitudeDegrees>
            </Position>
            <AltitudeMeters>550</AltitudeMeters>
            <DistanceMeters>NAN</DistanceMeters>
          </Trackpoint>
          <Trackpoint>
            <Time>2022-09-20T07:59:54.000Z</Time>
            <Position>
              <LatitudeDegrees>49.4787941873073577880859375</LatitudeDegrees>
              <LongitudeDegrees>20.12022187002003192901611328125</LongitudeDegrees>
            </Position>
            <AltitudeMeters>550.20001220703125</AltitudeMeters>
            <DistanceMeters>NAN</DistanceMeters>
          </Trackpoint>
          <Trackpoint>
            <Time>2022-09-20T07:59:59.000Z</Time>
            <Position>
              <LatitudeDegrees>49.47886870242655277252197265625</LatitudeDegrees>
              <LongitudeDegrees>20.1204232871532440185546875</LongitudeDegrees>
            </Position>
            <AltitudeMeters>550.5999755859375</AltitudeMeters>
            <DistanceMeters>NAN</DistanceMeters>
          </Trackpoint>
          <Trackpoint>
            <Time>2022-09-20T08:00:03.000Z</Time>
            <Position>
              <LatitudeDegrees>49.4789177365601062774658203125</LatitudeDegrees>
              <LongitudeDegrees>20.1206646859645843505859375</LongitudeDegrees>
            </Position>
            <AltitudeMeters>550.5999755859375</AltitudeMeters>
            <DistanceMeters>NAN</DistanceMeters>
          </Trackpoint>
          <Trackpoint>
            <Time>2022-09-20T08:00:05.000Z</Time>
            <Position>
              <LatitudeDegrees>49.47898504324257373809814453125</LatitudeDegrees>
              <LongitudeDegrees>20.12083970010280609130859375</LongitudeDegrees>
            </Position>
            <AltitudeMeters>550.4000244140625</AltitudeMeters>
            <DistanceMeters>NAN</DistanceMeters>
          </Trackpoint>
          <Trackpoint>
            <Time>2022-09-20T08:00:13.000Z</Time>
            <Position>
              <LatitudeDegrees>49.47923297993838787078857421875</LatitudeDegrees>
              <LongitudeDegrees>20.1212143711745738983154296875</LongitudeDegrees>
            </Position>
            <AltitudeMeters>550</AltitudeMeters>
            <DistanceMeters>NAN</DistanceMeters>
          </Trackpoint>
          <Trackpoint>
            <Time>2022-09-20T08:00:15.000Z</Time>
            <Position>
              <LatitudeDegrees>49.47932300157845020294189453125</LatitudeDegrees>
              <LongitudeDegrees>20.12135258875787258148193359375</LongitudeDegrees>
            </Position>
            <AltitudeMeters>550.4000244140625</AltitudeMeters>
            <DistanceMeters>NAN</DistanceMeters>
          </Trackpoint>
          <Trackpoint>
            <Time>2022-09-20T08:00:17.000Z</Time>
            <Position>
              <LatitudeDegrees>49.4793639890849590301513671875</LatitudeDegrees>
              <LongitudeDegrees>20.1214621402323246002197265625</LongitudeDegrees>
            </Position>
            <AltitudeMeters>550.5999755859375</AltitudeMeters>
            <DistanceMeters>NAN</DistanceMeters>
          </Trackpoint>
          <Trackpoint>
            <Time>2022-09-20T08:00:18.000Z</Time>
            <Position>
              <LatitudeDegrees>49.47938033379614353179931640625</LatitudeDegrees>
              <LongitudeDegrees>20.12152575887739658355712890625</LongitudeDegrees>
            </Position>
            <AltitudeMeters>550.79998779296875</AltitudeMeters>
            <DistanceMeters>NAN</DistanceMeters>
          </Trackpoint>
          <Trackpoint>
            <Time>2022-09-20T08:00:19.000Z</Time>
            <Position>
              <LatitudeDegrees>49.47938033379614353179931640625</LatitudeDegrees>
              <LongitudeDegrees>20.12152575887739658355712890625</LongitudeDegrees>
            </Position>
            <AltitudeMeters>550.79998779296875</AltitudeMeters>
            <DistanceMeters>NAN</DistanceMeters>
          </Trackpoint>
          <Trackpoint>
            <Time>2022-09-20T08:00:22.000Z</Time>
            <Position>
              <LatitudeDegrees>49.47944772429764270782470703125</LatitudeDegrees>
              <LongitudeDegrees>20.12181091122329235076904296875</LongitudeDegrees>
            </Position>
            <AltitudeMeters>550.5999755859375</AltitudeMeters>
            <DistanceMeters>NAN</DistanceMeters>
          </Trackpoint>
          <Trackpoint>
            <Time>2022-09-20T08:00:25.000Z</Time>
            <Position>
              <LatitudeDegrees>49.4794727861881256103515625</LatitudeDegrees>
              <LongitudeDegrees>20.12204191647469997406005859375</LongitudeDegrees>
            </Position>
            <AltitudeMeters>550.4000244140625</AltitudeMeters>
            <DistanceMeters>NAN</DistanceMeters>
          </Trackpoint>
          <Trackpoint>
            <Time>2022-09-20T08:00:31.000Z</Time>
            <Position>
              <LatitudeDegrees>49.47948393411934375762939453125</LatitudeDegrees>
              <LongitudeDegrees>20.1223761029541492462158203125</LongitudeDegrees>
            </Position>
            <AltitudeMeters>550.79998779296875</AltitudeMeters>
            <DistanceMeters>NAN</DistanceMeters>
          </Trackpoint>
          <Trackpoint>
            <Time>2022-09-20T08:00:33.000Z</Time>
            <Position>
              <LatitudeDegrees>49.4794893823564052581787109375</LatitudeDegrees>
              <LongitudeDegrees>20.12250761501491069793701171875</LongitudeDegrees>
            </Position>
            <AltitudeMeters>551.20001220703125</AltitudeMeters>
            <DistanceMeters>NAN</DistanceMeters>
          </Trackpoint>
          <Trackpoint>
            <Time>2022-09-20T08:00:35.000Z</Time>
            <Position>
              <LatitudeDegrees>49.47949281893670558929443359375</LatitudeDegrees>
              <LongitudeDegrees>20.1226282306015491485595703125</LongitudeDegrees>
            </Position>
            <AltitudeMeters>551.79998779296875</AltitudeMeters>
            <DistanceMeters>NAN</DistanceMeters>
          </Trackpoint>
          <Trackpoint>
            <Time>2022-09-20T08:00:36.000Z</Time>
            <Position>
              <LatitudeDegrees>49.47949650697410106658935546875</LatitudeDegrees>
              <LongitudeDegrees>20.122685730457305908203125</LongitudeDegrees>
            </Position>
            <AltitudeMeters>552</AltitudeMeters>
            <DistanceMeters>NAN</DistanceMeters>
          </Trackpoint>
          <Trackpoint>
            <Time>2022-09-20T08:00:38.000Z</Time>
            <Position>
              <LatitudeDegrees>49.47949759662151336669921875</LatitudeDegrees>
              <LongitudeDegrees>20.122825205326080322265625</LongitudeDegrees>
            </Position>
            <AltitudeMeters>552.79998779296875</AltitudeMeters>
            <DistanceMeters>NAN</DistanceMeters>
          </Trackpoint>
          <Trackpoint>
            <Time>2022-09-20T08:00:39.000Z</Time>
            <Position>
              <LatitudeDegrees>49.47949759662151336669921875</LatitudeDegrees>
              <LongitudeDegrees>20.122825205326080322265625</LongitudeDegrees>
            </Position>
            <AltitudeMeters>553.20001220703125</AltitudeMeters>
            <DistanceMeters>NAN</DistanceMeters>
          </Trackpoint>
          <Trackpoint>
            <Time>2022-09-20T08:00:40.000Z</Time>
            <Position>
              <LatitudeDegrees>49.47949223220348358154296875</LatitudeDegrees>
              <LongitudeDegrees>20.12289226055145263671875</LongitudeDegrees>
            </Position>
            <AltitudeMeters>553.4000244140625</AltitudeMeters>
            <DistanceMeters>NAN</DistanceMeters>
          </Trackpoint>
          <Trackpoint>
            <Time>2022-09-20T08:00:42.000Z</Time>
            <Position>
              <LatitudeDegrees>49.47949013672769069671630859375</LatitudeDegrees>
              <LongitudeDegrees>20.1229477487504482269287109375</LongitudeDegrees>
            </Position>
            <AltitudeMeters>554.20001220703125</AltitudeMeters>
            <DistanceMeters>NAN</DistanceMeters>
          </Trackpoint>
          <Trackpoint>
            <Time>2022-09-20T08:00:45.000Z</Time>
            <Position>
              <LatitudeDegrees>49.47949198074638843536376953125</LatitudeDegrees>
              <LongitudeDegrees>20.12308110482990741729736328125</LongitudeDegrees>
            </Position>
            <AltitudeMeters>554.5999755859375</AltitudeMeters>
            <DistanceMeters>NAN</DistanceMeters>
          </Trackpoint>
          <Trackpoint>
            <Time>2022-09-20T08:00:46.000Z</Time>
            <Position>
              <LatitudeDegrees>49.47948913089931011199951171875</LatitudeDegrees>
              <LongitudeDegrees>20.1231422089040279388427734375</LongitudeDegrees>
            </Position>
            <AltitudeMeters>554.5999755859375</AltitudeMeters>
            <DistanceMeters>NAN</DistanceMeters>
          </Trackpoint>
          <Trackpoint>
            <Time>2022-09-20T08:00:51.000Z</Time>
            <Position>
              <LatitudeDegrees>49.479418806731700897216796875</LatitudeDegrees>
              <LongitudeDegrees>20.12353037483990192413330078125</LongitudeDegrees>
            </Position>
            <AltitudeMeters>553</AltitudeMeters>
            <DistanceMeters>NAN</DistanceMeters>
          </Trackpoint>
          <Trackpoint>
            <Time>2022-09-20T08:00:56.000Z</Time>
            <Position>
              <LatitudeDegrees>49.4793552719056606292724609375</LatitudeDegrees>
              <LongitudeDegrees>20.12380622327327728271484375</LongitudeDegrees>
            </Position>
            <AltitudeMeters>552.4000244140625</AltitudeMeters>
            <DistanceMeters>NAN</DistanceMeters>
          </Trackpoint>
          <Trackpoint>
            <Time>2022-09-20T08:00:58.000Z</Time>
            <Position>
              <LatitudeDegrees>49.47933733463287353515625</LatitudeDegrees>
              <LongitudeDegrees>20.123917870223522186279296875</LongitudeDegrees>
            </Position>
            <AltitudeMeters>552.5999755859375</AltitudeMeters>
            <DistanceMeters>NAN</DistanceMeters>
          </Trackpoint>
          <Trackpoint>
            <Time>2022-09-20T08:01:05.000Z</Time>
            <Position>
              <LatitudeDegrees>49.47926349006593227386474609375</LatitudeDegrees>
              <LongitudeDegrees>20.12428239919245243072509765625</LongitudeDegrees>
            </Position>
            <AltitudeMeters>553.79998779296875</AltitudeMeters>
            <DistanceMeters>NAN</DistanceMeters>
          </Trackpoint>
          <Trackpoint>
            <Time>2022-09-20T08:01:15.000Z</Time>
            <Position>
              <LatitudeDegrees>49.479126445949077606201171875</LatitudeDegrees>
              <LongitudeDegrees>20.12466360814869403839111328125</LongitudeDegrees>
            </Position>
            <AltitudeMeters>553.79998779296875</AltitudeMeters>
            <DistanceMeters>NAN</DistanceMeters>
          </Trackpoint>
          <Trackpoint>
            <Time>2022-09-20T08:01:18.000Z</Time>
            <Position>
              <LatitudeDegrees>49.47897582314908504486083984375</LatitudeDegrees>
              <LongitudeDegrees>20.12495798058807849884033203125</LongitudeDegrees>
            </Position>
            <AltitudeMeters>552.4000244140625</AltitudeMeters>
            <DistanceMeters>NAN</DistanceMeters>
          </Trackpoint>
          <Trackpoint>
            <Time>2022-09-20T08:01:19.000Z</Time>
            <Position>
              <LatitudeDegrees>49.47893693111836910247802734375</LatitudeDegrees>
              <LongitudeDegrees>20.12504179961979389190673828125</LongitudeDegrees>
            </Position>
            <AltitudeMeters>551.79998779296875</AltitudeMeters>
            <DistanceMeters>NAN</DistanceMeters>
          </Trackpoint>
          <Trackpoint>
            <Time>2022-09-20T08:01:23.000Z</Time>
            <Position>
              <LatitudeDegrees>49.4787846319377422332763671875</LatitudeDegrees>
              <LongitudeDegrees>20.1253692805767059326171875</LongitudeDegrees>
            </Position>
            <AltitudeMeters>550.5999755859375</AltitudeMeters>
            <DistanceMeters>NAN</DistanceMeters>
          </Trackpoint>
          <Trackpoint>
            <Time>2022-09-20T08:01:25.000Z</Time>
            <Position>
              <LatitudeDegrees>49.47871581651270389556884765625</LatitudeDegrees>
              <LongitudeDegrees>20.12553800828754901885986328125</LongitudeDegrees>
            </Position>
            <AltitudeMeters>550.4000244140625</AltitudeMeters>
            <DistanceMeters>NAN</DistanceMeters>
          </Trackpoint>
          <Trackpoint>
            <Time>2022-09-20T08:01:27.000Z</Time>
            <Position>
              <LatitudeDegrees>49.47865043766796588897705078125</LatitudeDegrees>
              <LongitudeDegrees>20.1257010363042354583740234375</LongitudeDegrees>
            </Position>
            <AltitudeMeters>550.4000244140625</AltitudeMeters>
            <DistanceMeters>NAN</DistanceMeters>
          </Trackpoint>
          <Trackpoint>
            <Time>2022-09-20T08:01:30.000Z</Time>
            <Position>
              <LatitudeDegrees>49.47855287231504917144775390625</LatitudeDegrees>
              <LongitudeDegrees>20.125942267477512359619140625</LongitudeDegrees>
            </Position>
            <AltitudeMeters>550</AltitudeMeters>
            <DistanceMeters>NAN</DistanceMeters>
          </Trackpoint>
          <Trackpoint>
            <Time>2022-09-20T08:01:32.000Z</Time>
            <Position>
              <LatitudeDegrees>49.478496797382831573486328125</LatitudeDegrees>
              <LongitudeDegrees>20.12609540484845638275146484375</LongitudeDegrees>
            </Position>
            <AltitudeMeters>550</AltitudeMeters>
            <DistanceMeters>NAN</DistanceMeters>
          </Trackpoint>
          <Trackpoint>
            <Time>2022-09-20T08:01:35.000Z</Time>
            <Position>
              <LatitudeDegrees>49.47842580266296863555908203125</LatitudeDegrees>
              <LongitudeDegrees>20.126231946051120758056640625</LongitudeDegrees>
            </Position>
            <AltitudeMeters>550</AltitudeMeters>
            <DistanceMeters>NAN</DistanceMeters>
          </Trackpoint>
          <Trackpoint>
            <Time>2022-09-20T08:01:39.000Z</Time>
            <Position>
              <LatitudeDegrees>49.47831247933208942413330078125</LatitudeDegrees>
              <LongitudeDegrees>20.1264993287622928619384765625</LongitudeDegrees>
            </Position>
            <AltitudeMeters>549.79998779296875</AltitudeMeters>
            <DistanceMeters>NAN</DistanceMeters>
          </Trackpoint>
          <Trackpoint>
            <Time>2022-09-20T08:01:40.000Z</Time>
            <Position>
              <LatitudeDegrees>49.47825917042791843414306640625</LatitudeDegrees>
              <LongitudeDegrees>20.12662799097597599029541015625</LongitudeDegrees>
            </Position>
            <AltitudeMeters>549.5999755859375</AltitudeMeters>
            <DistanceMeters>NAN</DistanceMeters>
          </Trackpoint>
          <Trackpoint>
            <Time>2022-09-20T08:01:42.000Z</Time>
            <Position>
              <LatitudeDegrees>49.47822463698685169219970703125</LatitudeDegrees>
              <LongitudeDegrees>20.12668767012655735015869140625</LongitudeDegrees>
            </Position>
            <AltitudeMeters>549.5999755859375</AltitudeMeters>
            <DistanceMeters>NAN</DistanceMeters>
          </Trackpoint>
          <Trackpoint>
            <Time>2022-09-20T08:01:44.000Z</Time>
            <Position>
              <LatitudeDegrees>49.4781224615871906280517578125</LatitudeDegrees>
              <LongitudeDegrees>20.12685111723840236663818359375</LongitudeDegrees>
            </Position>
            <AltitudeMeters>549.4000244140625</AltitudeMeters>
            <DistanceMeters>NAN</DistanceMeters>
          </Trackpoint>
          <Trackpoint>
            <Time>2022-09-20T08:01:45.000Z</Time>
            <Position>
              <LatitudeDegrees>49.4781224615871906280517578125</LatitudeDegrees>
              <LongitudeDegrees>20.12685111723840236663818359375</LongitudeDegrees>
            </Position>
            <AltitudeMeters>549.4000244140625</AltitudeMeters>
            <DistanceMeters>NAN</DistanceMeters>
          </Trackpoint>
          <Trackpoint>
            <Time>2022-09-20T08:01:49.000Z</Time>
            <Position>
              <LatitudeDegrees>49.477960355579853057861328125</LatitudeDegrees>
              <LongitudeDegrees>20.12712453491985797882080078125</LongitudeDegrees>
            </Position>
            <AltitudeMeters>549.5999755859375</AltitudeMeters>
            <DistanceMeters>NAN</DistanceMeters>
          </Trackpoint>
          <Trackpoint>
            <Time>2022-09-20T08:01:52.000Z</Time>
            <Position>
              <LatitudeDegrees>49.4778716750442981719970703125</LatitudeDegrees>
              <LongitudeDegrees>20.12728027068078517913818359375</LongitudeDegrees>
            </Position>
            <AltitudeMeters>550</AltitudeMeters>
            <DistanceMeters>NAN</DistanceMeters>
          </Trackpoint>
          <Trackpoint>
            <Time>2022-09-20T08:01:56.000Z</Time>
            <Position>
              <LatitudeDegrees>49.477770589292049407958984375</LatitudeDegrees>
              <LongitudeDegrees>20.12744656763970851898193359375</LongitudeDegrees>
            </Position>
            <AltitudeMeters>550.5999755859375</AltitudeMeters>
            <DistanceMeters>NAN</DistanceMeters>
          </Trackpoint>
          <Trackpoint>
            <Time>2022-09-20T08:01:57.000Z</Time>
            <Position>
              <LatitudeDegrees>49.477770589292049407958984375</LatitudeDegrees>
              <LongitudeDegrees>20.12744656763970851898193359375</LongitudeDegrees>
            </Position>
            <AltitudeMeters>550.5999755859375</AltitudeMeters>
            <DistanceMeters>NAN</DistanceMeters>
          </Trackpoint>
          <Trackpoint>
            <Time>2022-09-20T08:02:04.000Z</Time>
            <Position>
              <LatitudeDegrees>49.477570094168186187744140625</LatitudeDegrees>
              <LongitudeDegrees>20.12773842550814151763916015625</LongitudeDegrees>
            </Position>
            <AltitudeMeters>550.5999755859375</AltitudeMeters>
            <DistanceMeters>NAN</DistanceMeters>
          </Trackpoint>
          <Trackpoint>
            <Time>2022-09-20T08:02:09.000Z</Time>
            <Position>
              <LatitudeDegrees>49.47742902673780918121337890625</LatitudeDegrees>
              <LongitudeDegrees>20.1278997771441936492919921875</LongitudeDegrees>
            </Position>
            <AltitudeMeters>551.20001220703125</AltitudeMeters>
            <DistanceMeters>NAN</DistanceMeters>
          </Trackpoint>
          <Trackpoint>
            <Time>2022-09-20T08:02:11.000Z</Time>
            <Position>
              <LatitudeDegrees>49.47736515663564205169677734375</LatitudeDegrees>
              <LongitudeDegrees>20.1279856078326702117919921875</LongitudeDegrees>
            </Position>
            <AltitudeMeters>551.20001220703125</AltitudeMeters>
            <DistanceMeters>NAN</DistanceMeters>
          </Trackpoint>
          <Trackpoint>
            <Time>2022-09-20T08:02:13.000Z</Time>
            <Position>
              <LatitudeDegrees>49.4772889651358127593994140625</LatitudeDegrees>
              <LongitudeDegrees>20.12809968553483486175537109375</LongitudeDegrees>
            </Position>
            <AltitudeMeters>550.79998779296875</AltitudeMeters>
            <DistanceMeters>NAN</DistanceMeters>
          </Trackpoint>
          <Trackpoint>
            <Time>2022-09-20T08:02:15.000Z</Time>
            <Position>
              <LatitudeDegrees>49.4772068224847316741943359375</LatitudeDegrees>
              <LongitudeDegrees>20.128227509558200836181640625</LongitudeDegrees>
            </Position>
            <AltitudeMeters>550</AltitudeMeters>
            <DistanceMeters>NAN</DistanceMeters>
          </Trackpoint>
          <Trackpoint>
            <Time>2022-09-20T08:02:18.000Z</Time>
            <Position>
              <LatitudeDegrees>49.4770722091197967529296875</LatitudeDegrees>
              <LongitudeDegrees>20.1283637993037700653076171875</LongitudeDegrees>
            </Position>
            <AltitudeMeters>549.79998779296875</AltitudeMeters>
            <DistanceMeters>NAN</DistanceMeters>
          </Trackpoint>
          <Trackpoint>
            <Time>2022-09-20T08:02:20.000Z</Time>
            <Position>
              <LatitudeDegrees>49.4770043157041072845458984375</LatitudeDegrees>
              <LongitudeDegrees>20.12844719924032688140869140625</LongitudeDegrees>
            </Position>
            <AltitudeMeters>550</AltitudeMeters>
            <DistanceMeters>NAN</DistanceMeters>
          </Trackpoint>
          <Trackpoint>
            <Time>2022-09-20T08:02:26.000Z</Time>
            <Position>
              <LatitudeDegrees>49.47674640454351902008056640625</LatitudeDegrees>
              <LongitudeDegrees>20.12875867076218128204345703125</LongitudeDegrees>
            </Position>
            <AltitudeMeters>550.79998779296875</AltitudeMeters>
            <DistanceMeters>NAN</DistanceMeters>
          </Trackpoint>
          <Trackpoint>
            <Time>2022-09-20T08:02:32.000Z</Time>
            <Position>
              <LatitudeDegrees>49.476561583578586578369140625</LatitudeDegrees>
              <LongitudeDegrees>20.12895916588604450225830078125</LongitudeDegrees>
            </Position>
            <AltitudeMeters>550.4000244140625</AltitudeMeters>
            <DistanceMeters>NAN</DistanceMeters>
          </Trackpoint>
          <Trackpoint>
            <Time>2022-09-20T08:02:34.000Z</Time>
            <Position>
              <LatitudeDegrees>49.476458989083766937255859375</LatitudeDegrees>
              <LongitudeDegrees>20.12905664741992950439453125</LongitudeDegrees>
            </Position>
            <AltitudeMeters>550</AltitudeMeters>
            <DistanceMeters>NAN</DistanceMeters>
          </Trackpoint>
          <Trackpoint>
            <Time>2022-09-20T08:02:38.000Z</Time>
            <Position>
              <LatitudeDegrees>49.47625170461833477020263671875</LatitudeDegrees>
              <LongitudeDegrees>20.129224620759487152099609375</LongitudeDegrees>
            </Position>
            <AltitudeMeters>549.4000244140625</AltitudeMeters>
            <DistanceMeters>NAN</DistanceMeters>
          </Trackpoint>
          <Trackpoint>
            <Time>2022-09-20T08:02:39.000Z</Time>
            <Position>
              <LatitudeDegrees>49.47618146426975727081298828125</LatitudeDegrees>
              <LongitudeDegrees>20.12928731739521026611328125</LongitudeDegrees>
            </Position>
            <AltitudeMeters>549.20001220703125</AltitudeMeters>
            <DistanceMeters>NAN</DistanceMeters>
          </Trackpoint>
          <Trackpoint>
            <Time>2022-09-20T08:02:42.000Z</Time>
            <Position>
              <LatitudeDegrees>49.47602950036525726318359375</LatitudeDegrees>
              <LongitudeDegrees>20.1294510997831821441650390625</LongitudeDegrees>
            </Position>
            <AltitudeMeters>548.79998779296875</AltitudeMeters>
            <DistanceMeters>NAN</DistanceMeters>
          </Trackpoint>
          <Trackpoint>
            <Time>2022-09-20T08:02:43.000Z</Time>
            <Position>
              <LatitudeDegrees>49.476009719073772430419921875</LatitudeDegrees>
              <LongitudeDegrees>20.1295171491801738739013671875</LongitudeDegrees>
            </Position>
            <AltitudeMeters>548.79998779296875</AltitudeMeters>
            <DistanceMeters>NAN</DistanceMeters>
          </Trackpoint>
          <Trackpoint>
            <Time>2022-09-20T08:02:44.000Z</Time>
            <Position>
              <LatitudeDegrees>49.47599739767611026763916015625</LatitudeDegrees>
              <LongitudeDegrees>20.12961228378117084503173828125</LongitudeDegrees>
            </Position>
            <AltitudeMeters>548.79998779296875</AltitudeMeters>
            <DistanceMeters>NAN</DistanceMeters>
          </Trackpoint>
          <Trackpoint>
            <Time>2022-09-20T08:02:46.000Z</Time>
            <Position>
              <LatitudeDegrees>49.4759907759726047515869140625</LatitudeDegrees>
              <LongitudeDegrees>20.12975326739251613616943359375</LongitudeDegrees>
            </Position>
            <AltitudeMeters>549</AltitudeMeters>
            <DistanceMeters>NAN</DistanceMeters>
          </Trackpoint>
          <Trackpoint>
            <Time>2022-09-20T08:02:48.000Z</Time>
            <Position>
              <LatitudeDegrees>49.47596822865307331085205078125</LatitudeDegrees>
              <LongitudeDegrees>20.12997589074075222015380859375</LongitudeDegrees>
            </Position>
            <AltitudeMeters>549.20001220703125</AltitudeMeters>
            <DistanceMeters>NAN</DistanceMeters>
          </Trackpoint>
          <Trackpoint>
            <Time>2022-09-20T08:02:50.000Z</Time>
            <Position>
              <LatitudeDegrees>49.47595666162669658660888671875</LatitudeDegrees>
              <LongitudeDegrees>20.1300401799380779266357421875</LongitudeDegrees>
            </Position>
            <AltitudeMeters>549.20001220703125</AltitudeMeters>
            <DistanceMeters>NAN</DistanceMeters>
          </Trackpoint>
          <Trackpoint>
            <Time>2022-09-20T08:02:55.000Z</Time>
            <Position>
              <LatitudeDegrees>49.4759250618517398834228515625</LatitudeDegrees>
              <LongitudeDegrees>20.1303442753851413726806640625</LongitudeDegrees>
            </Position>
            <AltitudeMeters>549.4000244140625</AltitudeMeters>
            <DistanceMeters>NAN</DistanceMeters>
          </Trackpoint>
          <Trackpoint>
            <Time>2022-09-20T08:03:01.000Z</Time>
            <Position>
              <LatitudeDegrees>49.47588977403938770294189453125</LatitudeDegrees>
              <LongitudeDegrees>20.13073378242552280426025390625</LongitudeDegrees>
            </Position>
            <AltitudeMeters>550</AltitudeMeters>
            <DistanceMeters>NAN</DistanceMeters>
          </Trackpoint>
          <Trackpoint>
            <Time>2022-09-20T08:03:04.000Z</Time>
            <Position>
              <LatitudeDegrees>49.47588826529681682586669921875</LatitudeDegrees>
              <LongitudeDegrees>20.13083637692034244537353515625</LongitudeDegrees>
            </Position>
            <AltitudeMeters>550.4000244140625</AltitudeMeters>
            <DistanceMeters>NAN</DistanceMeters>
          </Trackpoint>
          <Trackpoint>
            <Time>2022-09-20T08:03:09.000Z</Time>
            <Position>
              <LatitudeDegrees>49.47585574351251125335693359375</LatitudeDegrees>
              <LongitudeDegrees>20.1310604251921176910400390625</LongitudeDegrees>
            </Position>
            <AltitudeMeters>551</AltitudeMeters>
            <DistanceMeters>NAN</DistanceMeters>
          </Trackpoint>
          <Trackpoint>
            <Time>2022-09-20T08:03:13.000Z</Time>
            <Position>
              <LatitudeDegrees>49.475877285003662109375</LatitudeDegrees>
              <LongitudeDegrees>20.13121775351464748382568359375</LongitudeDegrees>
            </Position>
            <AltitudeMeters>551.4000244140625</AltitudeMeters>
            <DistanceMeters>NAN</DistanceMeters>
          </Trackpoint>
          <Trackpoint>
            <Time>2022-09-20T08:03:15.000Z</Time>
            <Position>
              <LatitudeDegrees>49.475913830101490020751953125</LatitudeDegrees>
              <LongitudeDegrees>20.13128614984452724456787109375</LongitudeDegrees>
            </Position>
            <AltitudeMeters>551.5999755859375</AltitudeMeters>
            <DistanceMeters>NAN</DistanceMeters>
          </Trackpoint>
          <Trackpoint>
            <Time>2022-09-20T08:03:22.000Z</Time>
            <Position>
              <LatitudeDegrees>49.4760583341121673583984375</LatitudeDegrees>
              <LongitudeDegrees>20.1314993016421794891357421875</LongitudeDegrees>
            </Position>
            <AltitudeMeters>552.20001220703125</AltitudeMeters>
            <DistanceMeters>NAN</DistanceMeters>
          </Trackpoint>
          <Trackpoint>
            <Time>2022-09-20T08:03:26.000Z</Time>
            <Position>
              <LatitudeDegrees>49.47611709125339984893798828125</LatitudeDegrees>
              <LongitudeDegrees>20.131560824811458587646484375</LongitudeDegrees>
            </Position>
            <AltitudeMeters>552.5999755859375</AltitudeMeters>
            <DistanceMeters>NAN</DistanceMeters>
          </Trackpoint>
          <Trackpoint>
            <Time>2022-09-20T08:03:35.000Z</Time>
            <Position>
              <LatitudeDegrees>49.476117007434368133544921875</LatitudeDegrees>
              <LongitudeDegrees>20.13154464773833751678466796875</LongitudeDegrees>
            </Position>
            <AltitudeMeters>552.79998779296875</AltitudeMeters>
            <DistanceMeters>NAN</DistanceMeters>
          </Trackpoint>
          <Trackpoint>
            <Time>2022-09-20T08:03:36.000Z</Time>
            <Position>
              <LatitudeDegrees>49.476109631359577178955078125</LatitudeDegrees>
              <LongitudeDegrees>20.13153500854969024658203125</LongitudeDegrees>
            </Position>
            <AltitudeMeters>552.79998779296875</AltitudeMeters>
            <DistanceMeters>NAN</DistanceMeters>
          </Trackpoint>
          <Trackpoint>
            <Time>2022-09-20T08:03:40.000Z</Time>
            <Position>
              <LatitudeDegrees>49.4760487787425518035888671875</LatitudeDegrees>
              <LongitudeDegrees>20.13148379512131214141845703125</LongitudeDegrees>
            </Position>
            <AltitudeMeters>552.4000244140625</AltitudeMeters>
            <DistanceMeters>NAN</DistanceMeters>
          </Trackpoint>
          <Trackpoint>
            <Time>2022-09-20T08:03:44.000Z</Time>
            <Position>
              <LatitudeDegrees>49.475983567535877227783203125</LatitudeDegrees>
              <LongitudeDegrees>20.13138421811163425445556640625</LongitudeDegrees>
            </Position>
            <AltitudeMeters>552.20001220703125</AltitudeMeters>
            <DistanceMeters>NAN</DistanceMeters>
          </Trackpoint>
          <Trackpoint>
            <Time>2022-09-20T08:03:48.000Z</Time>
            <Position>
              <LatitudeDegrees>49.47590670548379421234130859375</LatitudeDegrees>
              <LongitudeDegrees>20.1312540471553802490234375</LongitudeDegrees>
            </Position>
            <AltitudeMeters>551.79998779296875</AltitudeMeters>
            <DistanceMeters>NAN</DistanceMeters>
          </Trackpoint>
          <Trackpoint>
            <Time>2022-09-20T08:03:49.000Z</Time>
            <Position>
              <LatitudeDegrees>49.47588340379297733306884765625</LatitudeDegrees>
              <LongitudeDegrees>20.1312183402478694915771484375</LongitudeDegrees>
            </Position>
            <AltitudeMeters>551.5999755859375</AltitudeMeters>
            <DistanceMeters>NAN</DistanceMeters>
          </Trackpoint>
          <Trackpoint>
            <Time>2022-09-20T08:03:51.000Z</Time>
            <Position>
              <LatitudeDegrees>49.47580008767545223236083984375</LatitudeDegrees>
              <LongitudeDegrees>20.1311601698398590087890625</LongitudeDegrees>
            </Position>
            <AltitudeMeters>551.4000244140625</AltitudeMeters>
            <DistanceMeters>NAN</DistanceMeters>
          </Trackpoint>
          <Trackpoint>
            <Time>2022-09-20T08:03:52.000Z</Time>
            <Position>
              <LatitudeDegrees>49.47580008767545223236083984375</LatitudeDegrees>
              <LongitudeDegrees>20.1311601698398590087890625</LongitudeDegrees>
            </Position>
            <AltitudeMeters>551.4000244140625</AltitudeMeters>
            <DistanceMeters>NAN</DistanceMeters>
          </Trackpoint>
          <Trackpoint>
            <Time>2022-09-20T08:03:56.000Z</Time>
            <Position>
              <LatitudeDegrees>49.4756561703979969024658203125</LatitudeDegrees>
              <LongitudeDegrees>20.131247341632843017578125</LongitudeDegrees>
            </Position>
            <AltitudeMeters>551.20001220703125</AltitudeMeters>
            <DistanceMeters>NAN</DistanceMeters>
          </Trackpoint>
          <Trackpoint>
            <Time>2022-09-20T08:03:59.000Z</Time>
            <Position>
              <LatitudeDegrees>49.47558961808681488037109375</LatitudeDegrees>
              <LongitudeDegrees>20.13130593113601207733154296875</LongitudeDegrees>
            </Position>
            <AltitudeMeters>551</AltitudeMeters>
            <DistanceMeters>NAN</DistanceMeters>
          </Trackpoint>
          <Trackpoint>
            <Time>2022-09-20T08:04:01.000Z</Time>
            <Position>
              <LatitudeDegrees>49.47555609047412872314453125</LatitudeDegrees>
              <LongitudeDegrees>20.13130643405020236968994140625</LongitudeDegrees>
            </Position>
            <AltitudeMeters>551</AltitudeMeters>
            <DistanceMeters>NAN</DistanceMeters>
          </Trackpoint>
          <Trackpoint>
            <Time>2022-09-20T08:04:02.000Z</Time>
            <Position>
              <LatitudeDegrees>49.4755482114851474761962890625</LatitudeDegrees>
              <LongitudeDegrees>20.131307356059551239013671875</LongitudeDegrees>
            </Position>
            <AltitudeMeters>551</AltitudeMeters>
            <DistanceMeters>NAN</DistanceMeters>
          </Trackpoint>
          <Trackpoint>
            <Time>2022-09-20T08:04:05.000Z</Time>
            <Position>
              <LatitudeDegrees>49.4755468703806400299072265625</LatitudeDegrees>
              <LongitudeDegrees>20.1313108764588832855224609375</LongitudeDegrees>
            </Position>
            <AltitudeMeters>550.79998779296875</AltitudeMeters>
            <DistanceMeters>NAN</DistanceMeters>
          </Trackpoint>
          <Trackpoint>
            <Time>2022-09-20T08:04:14.000Z</Time>
            <Position>
              <LatitudeDegrees>49.4755468703806400299072265625</LatitudeDegrees>
              <LongitudeDegrees>20.1313108764588832855224609375</LongitudeDegrees>
            </Position>
            <AltitudeMeters>550.79998779296875</AltitudeMeters>
            <DistanceMeters>NAN</DistanceMeters>
          </Trackpoint>
          <Trackpoint>
            <Time>2022-09-20T08:04:21.000Z</Time>
            <Position>
              <LatitudeDegrees>49.4755468703806400299072265625</LatitudeDegrees>
              <LongitudeDegrees>20.1313108764588832855224609375</LongitudeDegrees>
            </Position>
            <AltitudeMeters>550.79998779296875</AltitudeMeters>
            <DistanceMeters>NAN</DistanceMeters>
          </Trackpoint>
          <Trackpoint>
            <Time>2022-09-20T08:04:25.000Z</Time>
            <Position>
              <LatitudeDegrees>49.4755468703806400299072265625</LatitudeDegrees>
              <LongitudeDegrees>20.1313108764588832855224609375</LongitudeDegrees>
            </Position>
            <AltitudeMeters>550.5999755859375</AltitudeMeters>
            <DistanceMeters>NAN</DistanceMeters>
          </Trackpoint>
          <Trackpoint>
            <Time>2022-09-20T08:04:27.000Z</Time>
            <Position>
              <LatitudeDegrees>49.4755468703806400299072265625</LatitudeDegrees>
              <LongitudeDegrees>20.1313108764588832855224609375</LongitudeDegrees>
            </Position>
            <AltitudeMeters>550.5999755859375</AltitudeMeters>
            <DistanceMeters>NAN</DistanceMeters>
          </Trackpoint>
          <Trackpoint>
            <Time>2022-09-20T08:04:41.000Z</Time>
            <Position>
              <LatitudeDegrees>49.4755468703806400299072265625</LatitudeDegrees>
              <LongitudeDegrees>20.1313108764588832855224609375</LongitudeDegrees>
            </Position>
            <AltitudeMeters>550.5999755859375</AltitudeMeters>
            <DistanceMeters>NAN</DistanceMeters>
          </Trackpoint>
          <Trackpoint>
            <Time>2022-09-20T08:04:43.000Z</Time>
            <Position>
              <LatitudeDegrees>49.4755468703806400299072265625</LatitudeDegrees>
              <LongitudeDegrees>20.1313108764588832855224609375</LongitudeDegrees>
            </Position>
            <AltitudeMeters>550.5999755859375</AltitudeMeters>
            <DistanceMeters>NAN</DistanceMeters>
          </Trackpoint>
          <Trackpoint>
            <Time>2022-09-20T08:05:00.000Z</Time>
            <Position>
              <LatitudeDegrees>49.4755468703806400299072265625</LatitudeDegrees>
              <LongitudeDegrees>20.1313108764588832855224609375</LongitudeDegrees>
            </Position>
            <AltitudeMeters>550.5999755859375</AltitudeMeters>
            <DistanceMeters>NAN</DistanceMeters>
          </Trackpoint>
          <Trackpoint>
            <Time>2022-09-20T08:05:06.000Z</Time>
            <Position>
              <LatitudeDegrees>49.4755468703806400299072265625</LatitudeDegrees>
              <LongitudeDegrees>20.1313108764588832855224609375</LongitudeDegrees>
            </Position>
            <AltitudeMeters>550.5999755859375</AltitudeMeters>
            <DistanceMeters>NAN</DistanceMeters>
          </Trackpoint>
          <Trackpoint>
            <Time>2022-09-20T08:05:10.000Z</Time>
            <Position>
              <LatitudeDegrees>49.4755468703806400299072265625</LatitudeDegrees>
              <LongitudeDegrees>20.1313108764588832855224609375</LongitudeDegrees>
            </Position>
            <AltitudeMeters>550.4000244140625</AltitudeMeters>
            <DistanceMeters>NAN</DistanceMeters>
          </Trackpoint>
          <Trackpoint>
            <Time>2022-09-20T08:05:20.000Z</Time>
            <Position>
              <LatitudeDegrees>49.4755468703806400299072265625</LatitudeDegrees>
              <LongitudeDegrees>20.1313108764588832855224609375</LongitudeDegrees>
            </Position>
            <AltitudeMeters>550.4000244140625</AltitudeMeters>
            <DistanceMeters>NAN</DistanceMeters>
          </Trackpoint>
          <Trackpoint>
            <Time>2022-09-20T08:05:23.000Z</Time>
            <Position>
              <LatitudeDegrees>49.4755468703806400299072265625</LatitudeDegrees>
              <LongitudeDegrees>20.1313108764588832855224609375</LongitudeDegrees>
            </Position>
            <AltitudeMeters>550.20001220703125</AltitudeMeters>
            <DistanceMeters>NAN</DistanceMeters>
          </Trackpoint>
          <Trackpoint>
            <Time>2022-09-20T08:05:43.000Z</Time>
            <Position>
              <LatitudeDegrees>49.4755468703806400299072265625</LatitudeDegrees>
              <LongitudeDegrees>20.1313108764588832855224609375</LongitudeDegrees>
            </Position>
            <AltitudeMeters>550.20001220703125</AltitudeMeters>
            <DistanceMeters>NAN</DistanceMeters>
          </Trackpoint>
          <Trackpoint>
            <Time>2022-09-20T08:05:51.000Z</Time>
            <Position>
              <LatitudeDegrees>49.4755468703806400299072265625</LatitudeDegrees>
              <LongitudeDegrees>20.1313108764588832855224609375</LongitudeDegrees>
            </Position>
            <AltitudeMeters>550.20001220703125</AltitudeMeters>
            <DistanceMeters>NAN</DistanceMeters>
          </Trackpoint>
          <Trackpoint>
            <Time>2022-09-20T08:05:56.000Z</Time>
            <Position>
              <LatitudeDegrees>49.4755455292761325836181640625</LatitudeDegrees>
              <LongitudeDegrees>20.13130945153534412384033203125</LongitudeDegrees>
            </Position>
            <AltitudeMeters>550.20001220703125</AltitudeMeters>
            <DistanceMeters>NAN</DistanceMeters>
          </Trackpoint>
          <Trackpoint>
            <Time>2022-09-20T08:06:00.000Z</Time>
            <Position>
              <LatitudeDegrees>49.475543014705181121826171875</LatitudeDegrees>
              <LongitudeDegrees>20.13130442239344120025634765625</LongitudeDegrees>
            </Position>
            <AltitudeMeters>550.20001220703125</AltitudeMeters>
            <DistanceMeters>NAN</DistanceMeters>
          </Trackpoint>
          <Trackpoint>
            <Time>2022-09-20T08:06:06.000Z</Time>
            <Position>
              <LatitudeDegrees>49.4755398295819759368896484375</LatitudeDegrees>
              <LongitudeDegrees>20.13130366802215576171875</LongitudeDegrees>
            </Position>
            <AltitudeMeters>550.20001220703125</AltitudeMeters>
            <DistanceMeters>NAN</DistanceMeters>
          </Trackpoint>
          <Trackpoint>
            <Time>2022-09-20T08:06:08.000Z</Time>
            <Position>
              <LatitudeDegrees>49.4754959084093570709228515625</LatitudeDegrees>
              <LongitudeDegrees>20.13127860613167285919189453125</LongitudeDegrees>
            </Position>
            <AltitudeMeters>550.20001220703125</AltitudeMeters>
            <DistanceMeters>NAN</DistanceMeters>
          </Trackpoint>
          <Trackpoint>
            <Time>2022-09-20T08:06:12.000Z</Time>
            <Position>
              <LatitudeDegrees>49.4754201360046863555908203125</LatitudeDegrees>
              <LongitudeDegrees>20.13125278986990451812744140625</LongitudeDegrees>
            </Position>
            <AltitudeMeters>550.20001220703125</AltitudeMeters>
            <DistanceMeters>NAN</DistanceMeters>
          </Trackpoint>
          <Trackpoint>
            <Time>2022-09-20T08:06:13.000Z</Time>
            <Position>
              <LatitudeDegrees>49.47539691813290119171142578125</LatitudeDegrees>
              <LongitudeDegrees>20.13127751648426055908203125</LongitudeDegrees>
            </Position>
            <AltitudeMeters>550</AltitudeMeters>
            <DistanceMeters>NAN</DistanceMeters>
          </Trackpoint>
          <Trackpoint>
            <Time>2022-09-20T08:06:19.000Z</Time>
            <Position>
              <LatitudeDegrees>49.475321732461452484130859375</LatitudeDegrees>
              <LongitudeDegrees>20.13147574849426746368408203125</LongitudeDegrees>
            </Position>
            <AltitudeMeters>550.20001220703125</AltitudeMeters>
            <DistanceMeters>NAN</DistanceMeters>
          </Trackpoint>
          <Trackpoint>
            <Time>2022-09-20T08:06:26.000Z</Time>
            <Position>
              <LatitudeDegrees>49.47529080323874950408935546875</LatitudeDegrees>
              <LongitudeDegrees>20.1315495930612087249755859375</LongitudeDegrees>
            </Position>
            <AltitudeMeters>550.5999755859375</AltitudeMeters>
            <DistanceMeters>NAN</DistanceMeters>
          </Trackpoint>
          <Trackpoint>
            <Time>2022-09-20T08:06:33.000Z</Time>
            <Position>
              <LatitudeDegrees>49.47529080323874950408935546875</LatitudeDegrees>
              <LongitudeDegrees>20.1315495930612087249755859375</LongitudeDegrees>
            </Position>
            <AltitudeMeters>550.4000244140625</AltitudeMeters>
            <DistanceMeters>NAN</DistanceMeters>
          </Trackpoint>
          <Trackpoint>
            <Time>2022-09-20T08:06:36.000Z</Time>
            <Position>
              <LatitudeDegrees>49.4752689264714717864990234375</LatitudeDegrees>
              <LongitudeDegrees>20.13156677596271038055419921875</LongitudeDegrees>
            </Position>
            <AltitudeMeters>550.4000244140625</AltitudeMeters>
            <DistanceMeters>NAN</DistanceMeters>
          </Trackpoint>
          <Trackpoint>
            <Time>2022-09-20T08:06:40.000Z</Time>
            <Position>
              <LatitudeDegrees>49.4751770608127117156982421875</LatitudeDegrees>
              <LongitudeDegrees>20.13152159750461578369140625</LongitudeDegrees>
            </Position>
            <AltitudeMeters>550.20001220703125</AltitudeMeters>
            <DistanceMeters>NAN</DistanceMeters>
          </Trackpoint>
          <Trackpoint>
            <Time>2022-09-20T08:06:41.000Z</Time>
            <Position>
              <LatitudeDegrees>49.475151412189006805419921875</LatitudeDegrees>
              <LongitudeDegrees>20.13150089420378208160400390625</LongitudeDegrees>
            </Position>
            <AltitudeMeters>550.20001220703125</AltitudeMeters>
            <DistanceMeters>NAN</DistanceMeters>
          </Trackpoint>
          <Trackpoint>
            <Time>2022-09-20T08:06:43.000Z</Time>
            <Position>
              <LatitudeDegrees>49.47510455735027790069580078125</LatitudeDegrees>
              <LongitudeDegrees>20.13143844902515411376953125</LongitudeDegrees>
            </Position>
            <AltitudeMeters>550.20001220703125</AltitudeMeters>
            <DistanceMeters>NAN</DistanceMeters>
          </Trackpoint>
          <Trackpoint>
            <Time>2022-09-20T08:06:44.000Z</Time>
            <Position>
              <LatitudeDegrees>49.475079663097858428955078125</LatitudeDegrees>
              <LongitudeDegrees>20.13142369687557220458984375</LongitudeDegrees>
            </Position>
            <AltitudeMeters>550.20001220703125</AltitudeMeters>
            <DistanceMeters>NAN</DistanceMeters>
          </Trackpoint>
          <Trackpoint>
            <Time>2022-09-20T08:06:47.000Z</Time>
            <Position>
              <LatitudeDegrees>49.47501889429986476898193359375</LatitudeDegrees>
              <LongitudeDegrees>20.13138975016772747039794921875</LongitudeDegrees>
            </Position>
            <AltitudeMeters>550.4000244140625</AltitudeMeters>
            <DistanceMeters>NAN</DistanceMeters>
          </Trackpoint>
          <Trackpoint>
            <Time>2022-09-20T08:06:53.000Z</Time>
            <Position>
              <LatitudeDegrees>49.47488361038267612457275390625</LatitudeDegrees>
              <LongitudeDegrees>20.13130576349794864654541015625</LongitudeDegrees>
            </Position>
            <AltitudeMeters>550.5999755859375</AltitudeMeters>
            <DistanceMeters>NAN</DistanceMeters>
          </Trackpoint>
          <Trackpoint>
            <Time>2022-09-20T08:06:56.000Z</Time>
            <Position>
              <LatitudeDegrees>49.474816806614398956298828125</LatitudeDegrees>
              <LongitudeDegrees>20.131258070468902587890625</LongitudeDegrees>
            </Position>
            <AltitudeMeters>551</AltitudeMeters>
            <DistanceMeters>NAN</DistanceMeters>
          </Trackpoint>
          <Trackpoint>
            <Time>2022-09-20T08:07:03.000Z</Time>
            <Position>
              <LatitudeDegrees>49.4746614061295986175537109375</LatitudeDegrees>
              <LongitudeDegrees>20.1311144046485424041748046875</LongitudeDegrees>
            </Position>
            <AltitudeMeters>551.4000244140625</AltitudeMeters>
            <DistanceMeters>NAN</DistanceMeters>
          </Trackpoint>
          <Trackpoint>
            <Time>2022-09-20T08:07:04.000Z</Time>
            <Position>
              <LatitudeDegrees>49.474636428058147430419921875</LatitudeDegrees>
              <LongitudeDegrees>20.13109152205288410186767578125</LongitudeDegrees>
            </Position>
            <AltitudeMeters>551.5999755859375</AltitudeMeters>
            <DistanceMeters>NAN</DistanceMeters>
          </Trackpoint>
          <Trackpoint>
            <Time>2022-09-20T08:07:10.000Z</Time>
            <Position>
              <LatitudeDegrees>49.4744907505810260772705078125</LatitudeDegrees>
              <LongitudeDegrees>20.13093444518744945526123046875</LongitudeDegrees>
            </Position>
            <AltitudeMeters>552.20001220703125</AltitudeMeters>
            <DistanceMeters>NAN</DistanceMeters>
          </Trackpoint>
          <Trackpoint>
            <Time>2022-09-20T08:07:17.000Z</Time>
            <Position>
              <LatitudeDegrees>49.4743117131292819976806640625</LatitudeDegrees>
              <LongitudeDegrees>20.130750797688961029052734375</LongitudeDegrees>
            </Position>
            <AltitudeMeters>552.4000244140625</AltitudeMeters>
            <DistanceMeters>NAN</DistanceMeters>
          </Trackpoint>
          <Trackpoint>
            <Time>2022-09-20T08:07:24.000Z</Time>
            <Position>
              <LatitudeDegrees>49.4741511158645153045654296875</LatitudeDegrees>
              <LongitudeDegrees>20.13058148324489593505859375</LongitudeDegrees>
            </Position>
            <AltitudeMeters>552.20001220703125</AltitudeMeters>
            <DistanceMeters>NAN</DistanceMeters>
          </Trackpoint>
          <Trackpoint>
            <Time>2022-09-20T08:07:29.000Z</Time>
            <Position>
              <LatitudeDegrees>49.47405329905450344085693359375</LatitudeDegrees>
              <LongitudeDegrees>20.13048760592937469482421875</LongitudeDegrees>
            </Position>
            <AltitudeMeters>552</AltitudeMeters>
            <DistanceMeters>NAN</DistanceMeters>
          </Trackpoint>
          <Trackpoint>
            <Time>2022-09-20T08:07:31.000Z</Time>
            <Position>
              <LatitudeDegrees>49.47401759214699268341064453125</LatitudeDegrees>
              <LongitudeDegrees>20.13045005500316619873046875</LongitudeDegrees>
            </Position>
            <AltitudeMeters>552.20001220703125</AltitudeMeters>
            <DistanceMeters>NAN</DistanceMeters>
          </Trackpoint>
          <Trackpoint>
            <Time>2022-09-20T08:07:34.000Z</Time>
            <Position>
              <LatitudeDegrees>49.47396897710859775543212890625</LatitudeDegrees>
              <LongitudeDegrees>20.1303798146545886993408203125</LongitudeDegrees>
            </Position>
            <AltitudeMeters>552</AltitudeMeters>
            <DistanceMeters>NAN</DistanceMeters>
          </Trackpoint>
          <Trackpoint>
            <Time>2022-09-20T08:07:41.000Z</Time>
            <Position>
              <LatitudeDegrees>49.47385615669190883636474609375</LatitudeDegrees>
              <LongitudeDegrees>20.13021192513406276702880859375</LongitudeDegrees>
            </Position>
            <AltitudeMeters>551.4000244140625</AltitudeMeters>
            <DistanceMeters>NAN</DistanceMeters>
          </Trackpoint>
          <Trackpoint>
            <Time>2022-09-20T08:07:45.000Z</Time>
            <Position>
              <LatitudeDegrees>49.47377770207822322845458984375</LatitudeDegrees>
              <LongitudeDegrees>20.1300371624529361724853515625</LongitudeDegrees>
            </Position>
            <AltitudeMeters>550.5999755859375</AltitudeMeters>
            <DistanceMeters>NAN</DistanceMeters>
          </Trackpoint>
          <Trackpoint>
            <Time>2022-09-20T08:07:47.000Z</Time>
            <Position>
              <LatitudeDegrees>49.47373512201011180877685546875</LatitudeDegrees>
              <LongitudeDegrees>20.12995409779250621795654296875</LongitudeDegrees>
            </Position>
            <AltitudeMeters>550</AltitudeMeters>
            <DistanceMeters>NAN</DistanceMeters>
          </Trackpoint>
          <Trackpoint>
            <Time>2022-09-20T08:07:50.000Z</Time>
            <Position>
              <LatitudeDegrees>49.473684243857860565185546875</LatitudeDegrees>
              <LongitudeDegrees>20.12983272783458232879638671875</LongitudeDegrees>
            </Position>
            <AltitudeMeters>549.5999755859375</AltitudeMeters>
            <DistanceMeters>NAN</DistanceMeters>
          </Trackpoint>
          <Trackpoint>
            <Time>2022-09-20T08:07:55.000Z</Time>
            <Position>
              <LatitudeDegrees>49.473597742617130279541015625</LatitudeDegrees>
              <LongitudeDegrees>20.129619576036930084228515625</LongitudeDegrees>
            </Position>
            <AltitudeMeters>549.4000244140625</AltitudeMeters>
            <DistanceMeters>NAN</DistanceMeters>
          </Trackpoint>
          <Trackpoint>
            <Time>2022-09-20T08:07:56.000Z</Time>
            <Position>
              <LatitudeDegrees>49.47357351891696453094482421875</LatitudeDegrees>
              <LongitudeDegrees>20.12958462350070476531982421875</LongitudeDegrees>
            </Position>
            <AltitudeMeters>549.4000244140625</AltitudeMeters>
            <DistanceMeters>NAN</DistanceMeters>
          </Trackpoint>
          <Trackpoint>
            <Time>2022-09-20T08:07:58.000Z</Time>
            <Position>
              <LatitudeDegrees>49.47352490387856960296630859375</LatitudeDegrees>
              <LongitudeDegrees>20.1295523531734943389892578125</LongitudeDegrees>
            </Position>
            <AltitudeMeters>549.4000244140625</AltitudeMeters>
            <DistanceMeters>NAN</DistanceMeters>
          </Trackpoint>
          <Trackpoint>
            <Time>2022-09-20T08:08:00.000Z</Time>
            <Position>
              <LatitudeDegrees>49.4734807312488555908203125</LatitudeDegrees>
              <LongitudeDegrees>20.12953449971973896026611328125</LongitudeDegrees>
            </Position>
            <AltitudeMeters>549.5999755859375</AltitudeMeters>
            <DistanceMeters>NAN</DistanceMeters>
          </Trackpoint>
          <Trackpoint>
            <Time>2022-09-20T08:08:05.000Z</Time>
            <Position>
              <LatitudeDegrees>49.4733273424208164215087890625</LatitudeDegrees>
              <LongitudeDegrees>20.12947783805429935455322265625</LongitudeDegrees>
            </Position>
            <AltitudeMeters>549.4000244140625</AltitudeMeters>
            <DistanceMeters>NAN</DistanceMeters>
          </Trackpoint>
          <Trackpoint>
            <Time>2022-09-20T08:08:10.000Z</Time>
            <Position>
              <LatitudeDegrees>49.473150484263896942138671875</LatitudeDegrees>
              <LongitudeDegrees>20.12947113253176212310791015625</LongitudeDegrees>
            </Position>
            <AltitudeMeters>549.5999755859375</AltitudeMeters>
            <DistanceMeters>NAN</DistanceMeters>
          </Trackpoint>
          <Trackpoint>
            <Time>2022-09-20T08:08:14.000Z</Time>
            <Position>
              <LatitudeDegrees>49.47301293723285198211669921875</LatitudeDegrees>
              <LongitudeDegrees>20.12948806397616863250732421875</LongitudeDegrees>
            </Position>
            <AltitudeMeters>549.79998779296875</AltitudeMeters>
            <DistanceMeters>NAN</DistanceMeters>
          </Trackpoint>
          <Trackpoint>
            <Time>2022-09-20T08:08:18.000Z</Time>
            <Position>
              <LatitudeDegrees>49.4728971831500530242919921875</LatitudeDegrees>
              <LongitudeDegrees>20.12950315140187740325927734375</LongitudeDegrees>
            </Position>
            <AltitudeMeters>550.20001220703125</AltitudeMeters>
            <DistanceMeters>NAN</DistanceMeters>
          </Trackpoint>
          <Trackpoint>
            <Time>2022-09-20T08:08:24.000Z</Time>
            <Position>
              <LatitudeDegrees>49.47272158227860927581787109375</LatitudeDegrees>
              <LongitudeDegrees>20.12958345003426074981689453125</LongitudeDegrees>
            </Position>
            <AltitudeMeters>550.5999755859375</AltitudeMeters>
            <DistanceMeters>NAN</DistanceMeters>
          </Trackpoint>
          <Trackpoint>
            <Time>2022-09-20T08:08:25.000Z</Time>
            <Position>
              <LatitudeDegrees>49.4726893119513988494873046875</LatitudeDegrees>
              <LongitudeDegrees>20.12961513362824916839599609375</LongitudeDegrees>
            </Position>
            <AltitudeMeters>550.5999755859375</AltitudeMeters>
            <DistanceMeters>NAN</DistanceMeters>
          </Trackpoint>
          <Trackpoint>
            <Time>2022-09-20T08:08:33.000Z</Time>
            <Position>
              <LatitudeDegrees>49.472504742443561553955078125</LatitudeDegrees>
              <LongitudeDegrees>20.1298222504556179046630859375</LongitudeDegrees>
            </Position>
            <AltitudeMeters>551.5999755859375</AltitudeMeters>
            <DistanceMeters>NAN</DistanceMeters>
          </Trackpoint>
          <Trackpoint>
            <Time>2022-09-20T08:08:39.000Z</Time>
            <Position>
              <LatitudeDegrees>49.472337774932384490966796875</LatitudeDegrees>
              <LongitudeDegrees>20.13002349995076656341552734375</LongitudeDegrees>
            </Position>
            <AltitudeMeters>552</AltitudeMeters>
            <DistanceMeters>NAN</DistanceMeters>
          </Trackpoint>
          <Trackpoint>
            <Time>2022-09-20T08:08:40.000Z</Time>
            <Position>
              <LatitudeDegrees>49.472337774932384490966796875</LatitudeDegrees>
              <LongitudeDegrees>20.13002349995076656341552734375</LongitudeDegrees>
            </Position>
            <AltitudeMeters>552</AltitudeMeters>
            <DistanceMeters>NAN</DistanceMeters>
          </Trackpoint>
          <Trackpoint>
            <Time>2022-09-20T08:08:47.000Z</Time>
            <Position>
              <LatitudeDegrees>49.47216385044157505035400390625</LatitudeDegrees>
              <LongitudeDegrees>20.1302068121731281280517578125</LongitudeDegrees>
            </Position>
            <AltitudeMeters>552.4000244140625</AltitudeMeters>
            <DistanceMeters>NAN</DistanceMeters>
          </Trackpoint>
          <Trackpoint>
            <Time>2022-09-20T08:08:52.000Z</Time>
            <Position>
              <LatitudeDegrees>49.472054801881313323974609375</LatitudeDegrees>
              <LongitudeDegrees>20.1303474605083465576171875</LongitudeDegrees>
            </Position>
            <AltitudeMeters>552.4000244140625</AltitudeMeters>
            <DistanceMeters>NAN</DistanceMeters>
          </Trackpoint>
          <Trackpoint>
            <Time>2022-09-20T08:08:54.000Z</Time>
            <Position>
              <LatitudeDegrees>49.47200216352939605712890625</LatitudeDegrees>
              <LongitudeDegrees>20.130415521562099456787109375</LongitudeDegrees>
            </Position>
            <AltitudeMeters>552.4000244140625</AltitudeMeters>
            <DistanceMeters>NAN</DistanceMeters>
          </Trackpoint>
          <Trackpoint>
            <Time>2022-09-20T08:09:00.000Z</Time>
            <Position>
              <LatitudeDegrees>49.47185891680419445037841796875</LatitudeDegrees>
              <LongitudeDegrees>20.1305940560996532440185546875</LongitudeDegrees>
            </Position>
            <AltitudeMeters>552.79998779296875</AltitudeMeters>
            <DistanceMeters>NAN</DistanceMeters>
          </Trackpoint>
          <Trackpoint>
            <Time>2022-09-20T08:09:01.000Z</Time>
            <Position>
              <LatitudeDegrees>49.47183192707598209381103515625</LatitudeDegrees>
              <LongitudeDegrees>20.130628757178783416748046875</LongitudeDegrees>
            </Position>
            <AltitudeMeters>552.79998779296875</AltitudeMeters>
            <DistanceMeters>NAN</DistanceMeters>
          </Trackpoint>
          <Trackpoint>
            <Time>2022-09-20T08:09:10.000Z</Time>
            <Position>
              <LatitudeDegrees>49.471635036170482635498046875</LatitudeDegrees>
              <LongitudeDegrees>20.13090200722217559814453125</LongitudeDegrees>
            </Position>
            <AltitudeMeters>553</AltitudeMeters>
            <DistanceMeters>NAN</DistanceMeters>
          </Trackpoint>
          <Trackpoint>
            <Time>2022-09-20T08:09:14.000Z</Time>
            <Position>
              <LatitudeDegrees>49.4715332798659801483154296875</LatitudeDegrees>
              <LongitudeDegrees>20.13102564029395580291748046875</LongitudeDegrees>
            </Position>
            <AltitudeMeters>553.20001220703125</AltitudeMeters>
            <DistanceMeters>NAN</DistanceMeters>
          </Trackpoint>
          <Trackpoint>
            <Time>2022-09-20T08:09:18.000Z</Time>
            <Position>
              <LatitudeDegrees>49.47143043391406536102294921875</LatitudeDegrees>
              <LongitudeDegrees>20.13111851178109645843505859375</LongitudeDegrees>
            </Position>
            <AltitudeMeters>553.5999755859375</AltitudeMeters>
            <DistanceMeters>NAN</DistanceMeters>
          </Trackpoint>
          <Trackpoint>
            <Time>2022-09-20T08:09:20.000Z</Time>
            <Position>
              <LatitudeDegrees>49.4713850878179073333740234375</LatitudeDegrees>
              <LongitudeDegrees>20.13118154369294643402099609375</LongitudeDegrees>
            </Position>
            <AltitudeMeters>553.5999755859375</AltitudeMeters>
            <DistanceMeters>NAN</DistanceMeters>
          </Trackpoint>
          <Trackpoint>
            <Time>2022-09-20T08:09:26.000Z</Time>
            <Position>
              <LatitudeDegrees>49.47124552913010120391845703125</LatitudeDegrees>
              <LongitudeDegrees>20.13138522394001483917236328125</LongitudeDegrees>
            </Position>
            <AltitudeMeters>553.4000244140625</AltitudeMeters>
            <DistanceMeters>NAN</DistanceMeters>
          </Trackpoint>
          <Trackpoint>
            <Time>2022-09-20T08:09:34.000Z</Time>
            <Position>
              <LatitudeDegrees>49.47106917388737201690673828125</LatitudeDegrees>
              <LongitudeDegrees>20.1316662691533565521240234375</LongitudeDegrees>
            </Position>
            <AltitudeMeters>553</AltitudeMeters>
            <DistanceMeters>NAN</DistanceMeters>
          </Trackpoint>
          <Trackpoint>
            <Time>2022-09-20T08:09:40.000Z</Time>
            <Position>
              <LatitudeDegrees>49.47094738483428955078125</LatitudeDegrees>
              <LongitudeDegrees>20.13178152032196521759033203125</LongitudeDegrees>
            </Position>
            <AltitudeMeters>553.20001220703125</AltitudeMeters>
            <DistanceMeters>NAN</DistanceMeters>
          </Trackpoint>
          <Trackpoint>
            <Time>2022-09-20T08:09:46.000Z</Time>
            <Position>
              <LatitudeDegrees>49.4708191417157649993896484375</LatitudeDegrees>
              <LongitudeDegrees>20.13179040513932704925537109375</LongitudeDegrees>
            </Position>
            <AltitudeMeters>553.4000244140625</AltitudeMeters>
            <DistanceMeters>NAN</DistanceMeters>
          </Trackpoint>
          <Trackpoint>
            <Time>2022-09-20T08:09:51.000Z</Time>
            <Position>
              <LatitudeDegrees>49.47075082920491695404052734375</LatitudeDegrees>
              <LongitudeDegrees>20.13176961801946163177490234375</LongitudeDegrees>
            </Position>
            <AltitudeMeters>553.79998779296875</AltitudeMeters>
            <DistanceMeters>NAN</DistanceMeters>
          </Trackpoint>
          <Trackpoint>
            <Time>2022-09-20T08:09:58.000Z</Time>
            <Position>
              <LatitudeDegrees>49.47074345313012599945068359375</LatitudeDegrees>
              <LongitudeDegrees>20.13176643289625644683837890625</LongitudeDegrees>
            </Position>
            <AltitudeMeters>554</AltitudeMeters>
            <DistanceMeters>NAN</DistanceMeters>
          </Trackpoint>
          <Trackpoint>
            <Time>2022-09-20T08:10:06.000Z</Time>
            <Position>
              <LatitudeDegrees>49.47073976509273052215576171875</LatitudeDegrees>
              <LongitudeDegrees>20.13176609762012958526611328125</LongitudeDegrees>
            </Position>
            <AltitudeMeters>554</AltitudeMeters>
            <DistanceMeters>NAN</DistanceMeters>
          </Trackpoint>
          <Trackpoint>
            <Time>2022-09-20T08:10:08.000Z</Time>
            <Position>
              <LatitudeDegrees>49.47073976509273052215576171875</LatitudeDegrees>
              <LongitudeDegrees>20.13176609762012958526611328125</LongitudeDegrees>
            </Position>
            <AltitudeMeters>554.20001220703125</AltitudeMeters>
            <DistanceMeters>NAN</DistanceMeters>
          </Trackpoint>
          <Trackpoint>
            <Time>2022-09-20T08:10:10.000Z</Time>
            <Position>
              <LatitudeDegrees>49.47073792107403278350830078125</LatitudeDegrees>
              <LongitudeDegrees>20.13175101019442081451416015625</LongitudeDegrees>
            </Position>
            <AltitudeMeters>554</AltitudeMeters>
            <DistanceMeters>NAN</DistanceMeters>
          </Trackpoint>
          <Trackpoint>
            <Time>2022-09-20T08:10:17.000Z</Time>
            <Position>
              <LatitudeDegrees>49.4707421958446502685546875</LatitudeDegrees>
              <LongitudeDegrees>20.131650678813457489013671875</LongitudeDegrees>
            </Position>
            <AltitudeMeters>554.4000244140625</AltitudeMeters>
            <DistanceMeters>NAN</DistanceMeters>
          </Trackpoint>
          <Trackpoint>
            <Time>2022-09-20T08:10:27.000Z</Time>
            <Position>
              <LatitudeDegrees>49.47073775343596935272216796875</LatitudeDegrees>
              <LongitudeDegrees>20.1316059194505214691162109375</LongitudeDegrees>
            </Position>
            <AltitudeMeters>554.4000244140625</AltitudeMeters>
            <DistanceMeters>NAN</DistanceMeters>
          </Trackpoint>
          <Trackpoint>
            <Time>2022-09-20T08:10:32.000Z</Time>
            <Position>
              <LatitudeDegrees>49.47068260051310062408447265625</LatitudeDegrees>
              <LongitudeDegrees>20.13164120726287364959716796875</LongitudeDegrees>
            </Position>
            <AltitudeMeters>554.20001220703125</AltitudeMeters>
            <DistanceMeters>NAN</DistanceMeters>
          </Trackpoint>
          <Trackpoint>
            <Time>2022-09-20T08:10:38.000Z</Time>
            <Position>
              <LatitudeDegrees>49.470664076507091522216796875</LatitudeDegrees>
              <LongitudeDegrees>20.13172812759876251220703125</LongitudeDegrees>
            </Position>
            <AltitudeMeters>554.4000244140625</AltitudeMeters>
            <DistanceMeters>NAN</DistanceMeters>
          </Trackpoint>
          <Trackpoint>
            <Time>2022-09-20T08:10:39.000Z</Time>
            <Position>
              <LatitudeDegrees>49.470661394298076629638671875</LatitudeDegrees>
              <LongitudeDegrees>20.13173089362680912017822265625</LongitudeDegrees>
            </Position>
            <AltitudeMeters>554.4000244140625</AltitudeMeters>
            <DistanceMeters>NAN</DistanceMeters>
          </Trackpoint>
          <Trackpoint>
            <Time>2022-09-20T08:10:48.000Z</Time>
            <Position>
              <LatitudeDegrees>49.47062141261994838714599609375</LatitudeDegrees>
              <LongitudeDegrees>20.131816975772380828857421875</LongitudeDegrees>
            </Position>
            <AltitudeMeters>554.4000244140625</AltitudeMeters>
            <DistanceMeters>NAN</DistanceMeters>
          </Trackpoint>
          <Trackpoint>
            <Time>2022-09-20T08:10:56.000Z</Time>
            <Position>
              <LatitudeDegrees>49.470597691833972930908203125</LatitudeDegrees>
              <LongitudeDegrees>20.13189719058573246002197265625</LongitudeDegrees>
            </Position>
            <AltitudeMeters>554.4000244140625</AltitudeMeters>
            <DistanceMeters>NAN</DistanceMeters>
          </Trackpoint>
          <Trackpoint>
            <Time>2022-09-20T08:11:01.000Z</Time>
            <Position>
              <LatitudeDegrees>49.4705676846206188201904296875</LatitudeDegrees>
              <LongitudeDegrees>20.13193524442613124847412109375</LongitudeDegrees>
            </Position>
            <AltitudeMeters>554.20001220703125</AltitudeMeters>
            <DistanceMeters>NAN</DistanceMeters>
          </Trackpoint>
          <Trackpoint>
            <Time>2022-09-20T08:11:05.000Z</Time>
            <Position>
              <LatitudeDegrees>49.47054061107337474822998046875</LatitudeDegrees>
              <LongitudeDegrees>20.13194681145250797271728515625</LongitudeDegrees>
            </Position>
            <AltitudeMeters>554.20001220703125</AltitudeMeters>
            <DistanceMeters>NAN</DistanceMeters>
          </Trackpoint>
          <Trackpoint>
            <Time>2022-09-20T08:11:09.000Z</Time>
            <Position>
              <LatitudeDegrees>49.4704801775515079498291015625</LatitudeDegrees>
              <LongitudeDegrees>20.13199827633798122406005859375</LongitudeDegrees>
            </Position>
            <AltitudeMeters>554.20001220703125</AltitudeMeters>
            <DistanceMeters>NAN</DistanceMeters>
          </Trackpoint>
          <Trackpoint>
            <Time>2022-09-20T08:11:18.000Z</Time>
            <Position>
              <LatitudeDegrees>49.47038076817989349365234375</LatitudeDegrees>
              <LongitudeDegrees>20.1319847814738750457763671875</LongitudeDegrees>
            </Position>
            <AltitudeMeters>554.20001220703125</AltitudeMeters>
            <DistanceMeters>NAN</DistanceMeters>
          </Trackpoint>
          <Trackpoint>
            <Time>2022-09-20T08:11:25.000Z</Time>
            <Position>
              <LatitudeDegrees>49.47036392055451869964599609375</LatitudeDegrees>
              <LongitudeDegrees>20.13198369182646274566650390625</LongitudeDegrees>
            </Position>
            <AltitudeMeters>554.20001220703125</AltitudeMeters>
            <DistanceMeters>NAN</DistanceMeters>
          </Trackpoint>
          <Trackpoint>
            <Time>2022-09-20T08:11:33.000Z</Time>
            <Position>
              <LatitudeDegrees>49.47036392055451869964599609375</LatitudeDegrees>
              <LongitudeDegrees>20.13198369182646274566650390625</LongitudeDegrees>
            </Position>
            <AltitudeMeters>554.20001220703125</AltitudeMeters>
            <DistanceMeters>NAN</DistanceMeters>
          </Trackpoint>
          <Trackpoint>
            <Time>2022-09-20T08:11:40.000Z</Time>
            <Position>
              <LatitudeDegrees>49.47036392055451869964599609375</LatitudeDegrees>
              <LongitudeDegrees>20.13198369182646274566650390625</LongitudeDegrees>
            </Position>
            <AltitudeMeters>554.20001220703125</AltitudeMeters>
            <DistanceMeters>NAN</DistanceMeters>
          </Trackpoint>
          <Trackpoint>
            <Time>2022-09-20T08:11:49.000Z</Time>
            <Position>
              <LatitudeDegrees>49.47036392055451869964599609375</LatitudeDegrees>
              <LongitudeDegrees>20.13198369182646274566650390625</LongitudeDegrees>
            </Position>
            <AltitudeMeters>554.20001220703125</AltitudeMeters>
            <DistanceMeters>NAN</DistanceMeters>
          </Trackpoint>
          <Trackpoint>
            <Time>2022-09-20T08:12:02.000Z</Time>
            <Position>
              <LatitudeDegrees>49.47036392055451869964599609375</LatitudeDegrees>
              <LongitudeDegrees>20.13198369182646274566650390625</LongitudeDegrees>
            </Position>
            <AltitudeMeters>554.20001220703125</AltitudeMeters>
            <DistanceMeters>NAN</DistanceMeters>
          </Trackpoint>
          <Trackpoint>
            <Time>2022-09-20T08:12:22.000Z</Time>
            <Position>
              <LatitudeDegrees>49.47036392055451869964599609375</LatitudeDegrees>
              <LongitudeDegrees>20.13198369182646274566650390625</LongitudeDegrees>
            </Position>
            <AltitudeMeters>554.20001220703125</AltitudeMeters>
            <DistanceMeters>NAN</DistanceMeters>
          </Trackpoint>
          <Trackpoint>
            <Time>2022-09-20T08:12:31.000Z</Time>
            <Position>
              <LatitudeDegrees>49.47036392055451869964599609375</LatitudeDegrees>
              <LongitudeDegrees>20.13198369182646274566650390625</LongitudeDegrees>
            </Position>
            <AltitudeMeters>554.20001220703125</AltitudeMeters>
            <DistanceMeters>NAN</DistanceMeters>
          </Trackpoint>
          <Trackpoint>
            <Time>2022-09-20T08:12:43.000Z</Time>
            <Position>
              <LatitudeDegrees>49.47036392055451869964599609375</LatitudeDegrees>
              <LongitudeDegrees>20.13198369182646274566650390625</LongitudeDegrees>
            </Position>
            <AltitudeMeters>554.20001220703125</AltitudeMeters>
            <DistanceMeters>NAN</DistanceMeters>
          </Trackpoint>
          <Trackpoint>
            <Time>2022-09-20T08:12:49.000Z</Time>
            <Position>
              <LatitudeDegrees>49.47036392055451869964599609375</LatitudeDegrees>
              <LongitudeDegrees>20.13198369182646274566650390625</LongitudeDegrees>
            </Position>
            <AltitudeMeters>554.20001220703125</AltitudeMeters>
            <DistanceMeters>NAN</DistanceMeters>
          </Trackpoint>
          <Trackpoint>
            <Time>2022-09-20T08:13:05.000Z</Time>
            <Position>
              <LatitudeDegrees>49.47036392055451869964599609375</LatitudeDegrees>
              <LongitudeDegrees>20.13198369182646274566650390625</LongitudeDegrees>
            </Position>
            <AltitudeMeters>554.20001220703125</AltitudeMeters>
            <DistanceMeters>NAN</DistanceMeters>
          </Trackpoint>
          <Trackpoint>
            <Time>2022-09-20T08:13:18.000Z</Time>
            <Position>
              <LatitudeDegrees>49.47036392055451869964599609375</LatitudeDegrees>
              <LongitudeDegrees>20.13198369182646274566650390625</LongitudeDegrees>
            </Position>
            <AltitudeMeters>554.20001220703125</AltitudeMeters>
            <DistanceMeters>NAN</DistanceMeters>
          </Trackpoint>
          <Trackpoint>
            <Time>2022-09-20T08:13:21.000Z</Time>
            <Position>
              <LatitudeDegrees>49.47036392055451869964599609375</LatitudeDegrees>
              <LongitudeDegrees>20.13198369182646274566650390625</LongitudeDegrees>
            </Position>
            <AltitudeMeters>554.20001220703125</AltitudeMeters>
            <DistanceMeters>NAN</DistanceMeters>
          </Trackpoint>
          <Trackpoint>
            <Time>2022-09-20T08:13:30.000Z</Time>
            <Position>
              <LatitudeDegrees>49.47036392055451869964599609375</LatitudeDegrees>
              <LongitudeDegrees>20.13198369182646274566650390625</LongitudeDegrees>
            </Position>
            <AltitudeMeters>554.20001220703125</AltitudeMeters>
            <DistanceMeters>NAN</DistanceMeters>
          </Trackpoint>
          <Trackpoint>
            <Time>2022-09-20T08:13:48.000Z</Time>
            <Position>
              <LatitudeDegrees>49.47036392055451869964599609375</LatitudeDegrees>
              <LongitudeDegrees>20.13198369182646274566650390625</LongitudeDegrees>
            </Position>
            <AltitudeMeters>554.20001220703125</AltitudeMeters>
            <DistanceMeters>NAN</DistanceMeters>
          </Trackpoint>
          <Trackpoint>
            <Time>2022-09-20T08:13:51.000Z</Time>
            <Position>
              <LatitudeDegrees>49.47036392055451869964599609375</LatitudeDegrees>
              <LongitudeDegrees>20.13198369182646274566650390625</LongitudeDegrees>
            </Position>
            <AltitudeMeters>554.20001220703125</AltitudeMeters>
            <DistanceMeters>NAN</DistanceMeters>
          </Trackpoint>
          <Trackpoint>
            <Time>2022-09-20T08:14:14.000Z</Time>
            <Position>
              <LatitudeDegrees>49.4703640043735504150390625</LatitudeDegrees>
              <LongitudeDegrees>20.13198369182646274566650390625</LongitudeDegrees>
            </Position>
            <AltitudeMeters>554.20001220703125</AltitudeMeters>
            <DistanceMeters>NAN</DistanceMeters>
          </Trackpoint>
          <Trackpoint>
            <Time>2022-09-20T08:14:15.000Z</Time>
            <Position>
              <LatitudeDegrees>49.4703640043735504150390625</LatitudeDegrees>
              <LongitudeDegrees>20.13198369182646274566650390625</LongitudeDegrees>
            </Position>
            <AltitudeMeters>554.20001220703125</AltitudeMeters>
            <DistanceMeters>NAN</DistanceMeters>
          </Trackpoint>
          <Trackpoint>
            <Time>2022-09-20T08:14:16.000Z</Time>
            <Position>
              <LatitudeDegrees>49.4703640043735504150390625</LatitudeDegrees>
              <LongitudeDegrees>20.13198369182646274566650390625</LongitudeDegrees>
            </Position>
            <AltitudeMeters>554.20001220703125</AltitudeMeters>
            <DistanceMeters>NAN</DistanceMeters>
          </Trackpoint>
          <Trackpoint>
            <Time>2022-09-20T08:14:58.000Z</Time>
            <Position>
              <LatitudeDegrees>49.4703640043735504150390625</LatitudeDegrees>
              <LongitudeDegrees>20.13198369182646274566650390625</LongitudeDegrees>
            </Position>
            <AltitudeMeters>554.20001220703125</AltitudeMeters>
            <DistanceMeters>NAN</DistanceMeters>
          </Trackpoint>
          <Trackpoint>
            <Time>2022-09-20T08:14:59.000Z</Time>
            <Position>
              <LatitudeDegrees>49.4703640043735504150390625</LatitudeDegrees>
              <LongitudeDegrees>20.13198369182646274566650390625</LongitudeDegrees>
            </Position>
            <AltitudeMeters>554.20001220703125</AltitudeMeters>
            <DistanceMeters>NAN</DistanceMeters>
          </Trackpoint>
          <Trackpoint>
            <Time>2022-09-20T08:15:01.000Z</Time>
            <Position>
              <LatitudeDegrees>49.4703640043735504150390625</LatitudeDegrees>
              <LongitudeDegrees>20.13198369182646274566650390625</LongitudeDegrees>
            </Position>
            <AltitudeMeters>554.20001220703125</AltitudeMeters>
            <DistanceMeters>NAN</DistanceMeters>
          </Trackpoint>
          <Trackpoint>
            <Time>2022-09-20T08:15:10.000Z</Time>
            <Position>
              <LatitudeDegrees>49.4703640043735504150390625</LatitudeDegrees>
              <LongitudeDegrees>20.13198369182646274566650390625</LongitudeDegrees>
            </Position>
            <AltitudeMeters>554.20001220703125</AltitudeMeters>
            <DistanceMeters>NAN</DistanceMeters>
          </Trackpoint>
          <Trackpoint>
            <Time>2022-09-20T08:15:19.000Z</Time>
            <Position>
              <LatitudeDegrees>49.4703640043735504150390625</LatitudeDegrees>
              <LongitudeDegrees>20.13198369182646274566650390625</LongitudeDegrees>
            </Position>
            <AltitudeMeters>554.20001220703125</AltitudeMeters>
            <DistanceMeters>NAN</DistanceMeters>
          </Trackpoint>
          <Trackpoint>
            <Time>2022-09-20T08:15:34.000Z</Time>
            <Position>
              <LatitudeDegrees>49.4703640043735504150390625</LatitudeDegrees>
              <LongitudeDegrees>20.13198369182646274566650390625</LongitudeDegrees>
            </Position>
            <AltitudeMeters>554.20001220703125</AltitudeMeters>
            <DistanceMeters>NAN</DistanceMeters>
          </Trackpoint>
          <Trackpoint>
            <Time>2022-09-20T08:15:47.000Z</Time>
            <Position>
              <LatitudeDegrees>49.4703640043735504150390625</LatitudeDegrees>
              <LongitudeDegrees>20.13198369182646274566650390625</LongitudeDegrees>
            </Position>
            <AltitudeMeters>554.20001220703125</AltitudeMeters>
            <DistanceMeters>NAN</DistanceMeters>
          </Trackpoint>
          <Trackpoint>
            <Time>2022-09-20T08:15:50.000Z</Time>
            <Position>
              <LatitudeDegrees>49.4703640043735504150390625</LatitudeDegrees>
              <LongitudeDegrees>20.13198369182646274566650390625</LongitudeDegrees>
            </Position>
            <AltitudeMeters>554.20001220703125</AltitudeMeters>
            <DistanceMeters>NAN</DistanceMeters>
          </Trackpoint>
          <Trackpoint>
            <Time>2022-09-20T08:16:00.000Z</Time>
            <Position>
              <LatitudeDegrees>49.4703640043735504150390625</LatitudeDegrees>
              <LongitudeDegrees>20.13198369182646274566650390625</LongitudeDegrees>
            </Position>
            <AltitudeMeters>554.20001220703125</AltitudeMeters>
            <DistanceMeters>NAN</DistanceMeters>
          </Trackpoint>
          <Trackpoint>
            <Time>2022-09-20T08:16:05.000Z</Time>
            <Position>
              <LatitudeDegrees>49.4703640043735504150390625</LatitudeDegrees>
              <LongitudeDegrees>20.13198369182646274566650390625</LongitudeDegrees>
            </Position>
            <AltitudeMeters>554.20001220703125</AltitudeMeters>
            <DistanceMeters>NAN</DistanceMeters>
          </Trackpoint>
          <Trackpoint>
            <Time>2022-09-20T08:16:08.000Z</Time>
            <Position>
              <LatitudeDegrees>49.4703640043735504150390625</LatitudeDegrees>
              <LongitudeDegrees>20.13198369182646274566650390625</LongitudeDegrees>
            </Position>
            <AltitudeMeters>554.20001220703125</AltitudeMeters>
            <DistanceMeters>NAN</DistanceMeters>
          </Trackpoint>
          <Trackpoint>
            <Time>2022-09-20T08:16:12.000Z</Time>
            <Position>
              <LatitudeDegrees>49.4703640043735504150390625</LatitudeDegrees>
              <LongitudeDegrees>20.13198369182646274566650390625</LongitudeDegrees>
            </Position>
            <AltitudeMeters>554.20001220703125</AltitudeMeters>
            <DistanceMeters>NAN</DistanceMeters>
          </Trackpoint>
          <Trackpoint>
            <Time>2022-09-20T08:16:30.000Z</Time>
            <Position>
              <LatitudeDegrees>49.4703640043735504150390625</LatitudeDegrees>
              <LongitudeDegrees>20.13198369182646274566650390625</LongitudeDegrees>
            </Position>
            <AltitudeMeters>554.20001220703125</AltitudeMeters>
            <DistanceMeters>NAN</DistanceMeters>
          </Trackpoint>
          <Trackpoint>
            <Time>2022-09-20T08:16:45.000Z</Time>
            <Position>
              <LatitudeDegrees>49.4703640043735504150390625</LatitudeDegrees>
              <LongitudeDegrees>20.13198369182646274566650390625</LongitudeDegrees>
            </Position>
            <AltitudeMeters>554.20001220703125</AltitudeMeters>
            <DistanceMeters>NAN</DistanceMeters>
          </Trackpoint>
          <Trackpoint>
            <Time>2022-09-20T08:16:58.000Z</Time>
            <Position>
              <LatitudeDegrees>49.47036408819258213043212890625</LatitudeDegrees>
              <LongitudeDegrees>20.1319836080074310302734375</LongitudeDegrees>
            </Position>
            <AltitudeMeters>554.20001220703125</AltitudeMeters>
            <DistanceMeters>NAN</DistanceMeters>
          </Trackpoint>
          <Trackpoint>
            <Time>2022-09-20T08:17:00.000Z</Time>
            <Position>
              <LatitudeDegrees>49.47036408819258213043212890625</LatitudeDegrees>
              <LongitudeDegrees>20.1319836080074310302734375</LongitudeDegrees>
            </Position>
            <AltitudeMeters>554.20001220703125</AltitudeMeters>
            <DistanceMeters>NAN</DistanceMeters>
          </Trackpoint>
          <Trackpoint>
            <Time>2022-09-20T08:17:01.000Z</Time>
            <Position>
              <LatitudeDegrees>49.47036408819258213043212890625</LatitudeDegrees>
              <LongitudeDegrees>20.1319836080074310302734375</LongitudeDegrees>
            </Position>
            <AltitudeMeters>554.20001220703125</AltitudeMeters>
            <DistanceMeters>NAN</DistanceMeters>
          </Trackpoint>
          <Trackpoint>
            <Time>2022-09-20T08:17:11.000Z</Time>
            <Position>
              <LatitudeDegrees>49.4703641720116138458251953125</LatitudeDegrees>
              <LongitudeDegrees>20.13198352418839931488037109375</LongitudeDegrees>
            </Position>
            <AltitudeMeters>554.20001220703125</AltitudeMeters>
            <DistanceMeters>NAN</DistanceMeters>
          </Trackpoint>
          <Trackpoint>
            <Time>2022-09-20T08:17:59.000Z</Time>
            <Position>
              <LatitudeDegrees>49.47036459110677242279052734375</LatitudeDegrees>
              <LongitudeDegrees>20.13198293745517730712890625</LongitudeDegrees>
            </Position>
            <AltitudeMeters>554.20001220703125</AltitudeMeters>
            <DistanceMeters>NAN</DistanceMeters>
          </Trackpoint>
          <Trackpoint>
            <Time>2022-09-20T08:18:00.000Z</Time>
            <Position>
              <LatitudeDegrees>49.47036467492580413818359375</LatitudeDegrees>
              <LongitudeDegrees>20.13198293745517730712890625</LongitudeDegrees>
            </Position>
            <AltitudeMeters>554.20001220703125</AltitudeMeters>
            <DistanceMeters>NAN</DistanceMeters>
          </Trackpoint>
          <Trackpoint>
            <Time>2022-09-20T08:18:11.000Z</Time>
            <Position>
              <LatitudeDegrees>49.47036475874483585357666015625</LatitudeDegrees>
              <LongitudeDegrees>20.13198285363614559173583984375</LongitudeDegrees>
            </Position>
            <AltitudeMeters>554.20001220703125</AltitudeMeters>
            <DistanceMeters>NAN</DistanceMeters>
          </Trackpoint>
          <Trackpoint>
            <Time>2022-09-20T08:18:29.000Z</Time>
            <Position>
              <LatitudeDegrees>49.47036492638289928436279296875</LatitudeDegrees>
              <LongitudeDegrees>20.131982602179050445556640625</LongitudeDegrees>
            </Position>
            <AltitudeMeters>554.20001220703125</AltitudeMeters>
            <DistanceMeters>NAN</DistanceMeters>
          </Trackpoint>
          <Trackpoint>
            <Time>2022-09-20T08:18:31.000Z</Time>
            <Position>
              <LatitudeDegrees>49.47036492638289928436279296875</LatitudeDegrees>
              <LongitudeDegrees>20.131982602179050445556640625</LongitudeDegrees>
            </Position>
            <AltitudeMeters>554.20001220703125</AltitudeMeters>
            <DistanceMeters>NAN</DistanceMeters>
          </Trackpoint>
          <Trackpoint>
            <Time>2022-09-20T08:18:50.000Z</Time>
            <Position>
              <LatitudeDegrees>49.47036509402096271514892578125</LatitudeDegrees>
              <LongitudeDegrees>20.13198235072195529937744140625</LongitudeDegrees>
            </Position>
            <AltitudeMeters>554.20001220703125</AltitudeMeters>
            <DistanceMeters>NAN</DistanceMeters>
          </Trackpoint>
          <Trackpoint>
            <Time>2022-09-20T08:18:54.000Z</Time>
            <Position>
              <LatitudeDegrees>49.4703651778399944305419921875</LatitudeDegrees>
              <LongitudeDegrees>20.131982266902923583984375</LongitudeDegrees>
            </Position>
            <AltitudeMeters>554.20001220703125</AltitudeMeters>
            <DistanceMeters>NAN</DistanceMeters>
          </Trackpoint>
          <Trackpoint>
            <Time>2022-09-20T08:19:01.000Z</Time>
            <Position>
              <LatitudeDegrees>49.47036526165902614593505859375</LatitudeDegrees>
              <LongitudeDegrees>20.13198218308389186859130859375</LongitudeDegrees>
            </Position>
            <AltitudeMeters>554.20001220703125</AltitudeMeters>
            <DistanceMeters>NAN</DistanceMeters>
          </Trackpoint>
          <Trackpoint>
            <Time>2022-09-20T08:19:22.000Z</Time>
            <Position>
              <LatitudeDegrees>49.47036542929708957672119140625</LatitudeDegrees>
              <LongitudeDegrees>20.131981931626796722412109375</LongitudeDegrees>
            </Position>
            <AltitudeMeters>554.20001220703125</AltitudeMeters>
            <DistanceMeters>NAN</DistanceMeters>
          </Trackpoint>
          <Trackpoint>
            <Time>2022-09-20T08:19:30.000Z</Time>
            <Position>
              <LatitudeDegrees>49.4703655131161212921142578125</LatitudeDegrees>
              <LongitudeDegrees>20.131981931626796722412109375</LongitudeDegrees>
            </Position>
            <AltitudeMeters>554.20001220703125</AltitudeMeters>
            <DistanceMeters>NAN</DistanceMeters>
          </Trackpoint>
          <Trackpoint>
            <Time>2022-09-20T08:19:37.000Z</Time>
            <Position>
              <LatitudeDegrees>49.47036559693515300750732421875</LatitudeDegrees>
              <LongitudeDegrees>20.13198184780776500701904296875</LongitudeDegrees>
            </Position>
            <AltitudeMeters>554.20001220703125</AltitudeMeters>
            <DistanceMeters>NAN</DistanceMeters>
          </Trackpoint>
          <Trackpoint>
            <Time>2022-09-20T08:19:41.000Z</Time>
            <Position>
              <LatitudeDegrees>49.470365680754184722900390625</LatitudeDegrees>
              <LongitudeDegrees>20.13198184780776500701904296875</LongitudeDegrees>
            </Position>
            <AltitudeMeters>554.20001220703125</AltitudeMeters>
            <DistanceMeters>NAN</DistanceMeters>
          </Trackpoint>
          <Trackpoint>
            <Time>2022-09-20T08:19:52.000Z</Time>
            <Position>
              <LatitudeDegrees>49.4703658483922481536865234375</LatitudeDegrees>
              <LongitudeDegrees>20.1319817639887332916259765625</LongitudeDegrees>
            </Position>
            <AltitudeMeters>554.20001220703125</AltitudeMeters>
            <DistanceMeters>NAN</DistanceMeters>
          </Trackpoint>
          <Trackpoint>
            <Time>2022-09-20T08:19:59.000Z</Time>
            <Position>
              <LatitudeDegrees>49.47036677040159702301025390625</LatitudeDegrees>
              <LongitudeDegrees>20.1319810934364795684814453125</LongitudeDegrees>
            </Position>
            <AltitudeMeters>554.20001220703125</AltitudeMeters>
            <DistanceMeters>NAN</DistanceMeters>
          </Trackpoint>
          <Trackpoint>
            <Time>2022-09-20T08:20:03.000Z</Time>
            <Position>
              <LatitudeDegrees>49.4703749008476734161376953125</LatitudeDegrees>
              <LongitudeDegrees>20.13197564519941806793212890625</LongitudeDegrees>
            </Position>
            <AltitudeMeters>554.20001220703125</AltitudeMeters>
            <DistanceMeters>NAN</DistanceMeters>
          </Trackpoint>
          <Trackpoint>
            <Time>2022-09-20T08:20:19.000Z</Time>
            <Position>
              <LatitudeDegrees>49.4703749008476734161376953125</LatitudeDegrees>
              <LongitudeDegrees>20.13197564519941806793212890625</LongitudeDegrees>
            </Position>
            <AltitudeMeters>554.20001220703125</AltitudeMeters>
            <DistanceMeters>NAN</DistanceMeters>
          </Trackpoint>
          <Trackpoint>
            <Time>2022-09-20T08:20:23.000Z</Time>
            <Position>
              <LatitudeDegrees>49.4703749008476734161376953125</LatitudeDegrees>
              <LongitudeDegrees>20.13197564519941806793212890625</LongitudeDegrees>
            </Position>
            <AltitudeMeters>554.20001220703125</AltitudeMeters>
            <DistanceMeters>NAN</DistanceMeters>
          </Trackpoint>
          <Trackpoint>
            <Time>2022-09-20T08:20:38.000Z</Time>
            <Position>
              <LatitudeDegrees>49.4703749008476734161376953125</LatitudeDegrees>
              <LongitudeDegrees>20.13197564519941806793212890625</LongitudeDegrees>
            </Position>
            <AltitudeMeters>554.20001220703125</AltitudeMeters>
            <DistanceMeters>NAN</DistanceMeters>
          </Trackpoint>
          <Trackpoint>
            <Time>2022-09-20T08:21:00.000Z</Time>
            <Position>
              <LatitudeDegrees>49.47037766687572002410888671875</LatitudeDegrees>
              <LongitudeDegrees>20.13197564519941806793212890625</LongitudeDegrees>
            </Position>
            <AltitudeMeters>554.20001220703125</AltitudeMeters>
            <DistanceMeters>NAN</DistanceMeters>
          </Trackpoint>
          <Trackpoint>
            <Time>2022-09-20T08:21:02.000Z</Time>
            <Position>
              <LatitudeDegrees>49.4703795947134494781494140625</LatitudeDegrees>
              <LongitudeDegrees>20.13197732158005237579345703125</LongitudeDegrees>
            </Position>
            <AltitudeMeters>554.20001220703125</AltitudeMeters>
            <DistanceMeters>NAN</DistanceMeters>
          </Trackpoint>
          <Trackpoint>
            <Time>2022-09-20T08:21:04.000Z</Time>
            <Position>
              <LatitudeDegrees>49.47038051672279834747314453125</LatitudeDegrees>
              <LongitudeDegrees>20.1319780759513378143310546875</LongitudeDegrees>
            </Position>
            <AltitudeMeters>554.20001220703125</AltitudeMeters>
            <DistanceMeters>NAN</DistanceMeters>
          </Trackpoint>
          <Trackpoint>
            <Time>2022-09-20T08:21:15.000Z</Time>
            <Position>
              <LatitudeDegrees>49.4703806005418300628662109375</LatitudeDegrees>
              <LongitudeDegrees>20.1319780759513378143310546875</LongitudeDegrees>
            </Position>
            <AltitudeMeters>554.20001220703125</AltitudeMeters>
            <DistanceMeters>NAN</DistanceMeters>
          </Trackpoint>
          <Trackpoint>
            <Time>2022-09-20T08:21:22.000Z</Time>
            <Position>
              <LatitudeDegrees>49.4703806005418300628662109375</LatitudeDegrees>
              <LongitudeDegrees>20.1319780759513378143310546875</LongitudeDegrees>
            </Position>
            <AltitudeMeters>554.20001220703125</AltitudeMeters>
            <DistanceMeters>NAN</DistanceMeters>
          </Trackpoint>
          <Trackpoint>
            <Time>2022-09-20T08:21:32.000Z</Time>
            <Position>
              <LatitudeDegrees>49.4703806005418300628662109375</LatitudeDegrees>
              <LongitudeDegrees>20.1319780759513378143310546875</LongitudeDegrees>
            </Position>
            <AltitudeMeters>554.20001220703125</AltitudeMeters>
            <DistanceMeters>NAN</DistanceMeters>
          </Trackpoint>
          <Trackpoint>
            <Time>2022-09-20T08:21:33.000Z</Time>
            <Position>
              <LatitudeDegrees>49.4703806005418300628662109375</LatitudeDegrees>
              <LongitudeDegrees>20.1319780759513378143310546875</LongitudeDegrees>
            </Position>
            <AltitudeMeters>554.20001220703125</AltitudeMeters>
            <DistanceMeters>NAN</DistanceMeters>
          </Trackpoint>
          <Trackpoint>
            <Time>2022-09-20T08:21:36.000Z</Time>
            <Position>
              <LatitudeDegrees>49.4703806005418300628662109375</LatitudeDegrees>
              <LongitudeDegrees>20.1319780759513378143310546875</LongitudeDegrees>
            </Position>
            <AltitudeMeters>554.20001220703125</AltitudeMeters>
            <DistanceMeters>NAN</DistanceMeters>
          </Trackpoint>
          <Trackpoint>
            <Time>2022-09-20T08:21:45.000Z</Time>
            <Position>
              <LatitudeDegrees>49.47033978067338466644287109375</LatitudeDegrees>
              <LongitudeDegrees>20.13199090026319026947021484375</LongitudeDegrees>
            </Position>
            <AltitudeMeters>554.20001220703125</AltitudeMeters>
            <DistanceMeters>NAN</DistanceMeters>
          </Trackpoint>
          <Trackpoint>
            <Time>2022-09-20T08:21:47.000Z</Time>
            <Position>
              <LatitudeDegrees>49.47033978067338466644287109375</LatitudeDegrees>
              <LongitudeDegrees>20.13199090026319026947021484375</LongitudeDegrees>
            </Position>
            <AltitudeMeters>554.20001220703125</AltitudeMeters>
            <DistanceMeters>NAN</DistanceMeters>
          </Trackpoint>
          <Trackpoint>
            <Time>2022-09-20T08:21:58.000Z</Time>
            <Position>
              <LatitudeDegrees>49.4702411256730556488037109375</LatitudeDegrees>
              <LongitudeDegrees>20.13200498186051845550537109375</LongitudeDegrees>
            </Position>
            <AltitudeMeters>554.20001220703125</AltitudeMeters>
            <DistanceMeters>NAN</DistanceMeters>
          </Trackpoint>
          <Trackpoint>
            <Time>2022-09-20T08:22:05.000Z</Time>
            <Position>
              <LatitudeDegrees>49.470033086836338043212890625</LatitudeDegrees>
              <LongitudeDegrees>20.1320022158324718475341796875</LongitudeDegrees>
            </Position>
            <AltitudeMeters>554.5999755859375</AltitudeMeters>
            <DistanceMeters>NAN</DistanceMeters>
          </Trackpoint>
          <Trackpoint>
            <Time>2022-09-20T08:22:07.000Z</Time>
            <Position>
              <LatitudeDegrees>49.46997516788542270660400390625</LatitudeDegrees>
              <LongitudeDegrees>20.131998360157012939453125</LongitudeDegrees>
            </Position>
            <AltitudeMeters>554.79998779296875</AltitudeMeters>
            <DistanceMeters>NAN</DistanceMeters>
          </Trackpoint>
          <Trackpoint>
            <Time>2022-09-20T08:22:08.000Z</Time>
            <Position>
              <LatitudeDegrees>49.46997516788542270660400390625</LatitudeDegrees>
              <LongitudeDegrees>20.131998360157012939453125</LongitudeDegrees>
            </Position>
            <AltitudeMeters>555</AltitudeMeters>
            <DistanceMeters>NAN</DistanceMeters>
          </Trackpoint>
          <Trackpoint>
            <Time>2022-09-20T08:22:18.000Z</Time>
            <Position>
              <LatitudeDegrees>49.4696802087128162384033203125</LatitudeDegrees>
              <LongitudeDegrees>20.13201244175434112548828125</LongitudeDegrees>
            </Position>
            <AltitudeMeters>555.5999755859375</AltitudeMeters>
            <DistanceMeters>NAN</DistanceMeters>
          </Trackpoint>
          <Trackpoint>
            <Time>2022-09-20T08:22:26.000Z</Time>
            <Position>
              <LatitudeDegrees>49.4693865068256855010986328125</LatitudeDegrees>
              <LongitudeDegrees>20.13199727050960063934326171875</LongitudeDegrees>
            </Position>
            <AltitudeMeters>556</AltitudeMeters>
            <DistanceMeters>NAN</DistanceMeters>
          </Trackpoint>
          <Trackpoint>
            <Time>2022-09-20T08:22:27.000Z</Time>
            <Position>
              <LatitudeDegrees>49.46932020597159862518310546875</LatitudeDegrees>
              <LongitudeDegrees>20.1320022158324718475341796875</LongitudeDegrees>
            </Position>
            <AltitudeMeters>556</AltitudeMeters>
            <DistanceMeters>NAN</DistanceMeters>
          </Trackpoint>
          <Trackpoint>
            <Time>2022-09-20T08:22:28.000Z</Time>
            <Position>
              <LatitudeDegrees>49.469288773834705352783203125</LatitudeDegrees>
              <LongitudeDegrees>20.1320042274892330169677734375</LongitudeDegrees>
            </Position>
            <AltitudeMeters>556.20001220703125</AltitudeMeters>
            <DistanceMeters>NAN</DistanceMeters>
          </Trackpoint>
          <Trackpoint>
            <Time>2022-09-20T08:22:34.000Z</Time>
            <Position>
              <LatitudeDegrees>49.46911501698195934295654296875</LatitudeDegrees>
              <LongitudeDegrees>20.1320179738104343414306640625</LongitudeDegrees>
            </Position>
            <AltitudeMeters>556.4000244140625</AltitudeMeters>
            <DistanceMeters>NAN</DistanceMeters>
          </Trackpoint>
          <Trackpoint>
            <Time>2022-09-20T08:22:38.000Z</Time>
            <Position>
              <LatitudeDegrees>49.46896246634423732757568359375</LatitudeDegrees>
              <LongitudeDegrees>20.1320290379226207733154296875</LongitudeDegrees>
            </Position>
            <AltitudeMeters>556.4000244140625</AltitudeMeters>
            <DistanceMeters>NAN</DistanceMeters>
          </Trackpoint>
          <Trackpoint>
            <Time>2022-09-20T08:22:41.000Z</Time>
            <Position>
              <LatitudeDegrees>49.46888116188347339630126953125</LatitudeDegrees>
              <LongitudeDegrees>20.13203582726418972015380859375</LongitudeDegrees>
            </Position>
            <AltitudeMeters>556.4000244140625</AltitudeMeters>
            <DistanceMeters>NAN</DistanceMeters>
          </Trackpoint>
          <Trackpoint>
            <Time>2022-09-20T08:22:46.000Z</Time>
            <Position>
              <LatitudeDegrees>49.4686800800263881683349609375</LatitudeDegrees>
              <LongitudeDegrees>20.132042951881885528564453125</LongitudeDegrees>
            </Position>
            <AltitudeMeters>556.4000244140625</AltitudeMeters>
            <DistanceMeters>NAN</DistanceMeters>
          </Trackpoint>
          <Trackpoint>
            <Time>2022-09-20T08:22:51.000Z</Time>
            <Position>
              <LatitudeDegrees>49.46851688437163829803466796875</LatitudeDegrees>
              <LongitudeDegrees>20.13203331269323825836181640625</LongitudeDegrees>
            </Position>
            <AltitudeMeters>556.5999755859375</AltitudeMeters>
            <DistanceMeters>NAN</DistanceMeters>
          </Trackpoint>
          <Trackpoint>
            <Time>2022-09-20T08:22:52.000Z</Time>
            <Position>
              <LatitudeDegrees>49.46851688437163829803466796875</LatitudeDegrees>
              <LongitudeDegrees>20.13203331269323825836181640625</LongitudeDegrees>
            </Position>
            <AltitudeMeters>556.5999755859375</AltitudeMeters>
            <DistanceMeters>NAN</DistanceMeters>
          </Trackpoint>
          <Trackpoint>
            <Time>2022-09-20T08:22:58.000Z</Time>
            <Position>
              <LatitudeDegrees>49.46829811669886112213134765625</LatitudeDegrees>
              <LongitudeDegrees>20.1320461370050907135009765625</LongitudeDegrees>
            </Position>
            <AltitudeMeters>556.79998779296875</AltitudeMeters>
            <DistanceMeters>NAN</DistanceMeters>
          </Trackpoint>
          <Trackpoint>
            <Time>2022-09-20T08:23:01.000Z</Time>
            <Position>
              <LatitudeDegrees>49.46817875839769840240478515625</LatitudeDegrees>
              <LongitudeDegrees>20.13205158524215221405029296875</LongitudeDegrees>
            </Position>
            <AltitudeMeters>557</AltitudeMeters>
            <DistanceMeters>NAN</DistanceMeters>
          </Trackpoint>
          <Trackpoint>
            <Time>2022-09-20T08:23:04.000Z</Time>
            <Position>
              <LatitudeDegrees>49.4680765829980373382568359375</LatitudeDegrees>
              <LongitudeDegrees>20.13205594383180141448974609375</LongitudeDegrees>
            </Position>
            <AltitudeMeters>557.20001220703125</AltitudeMeters>
            <DistanceMeters>NAN</DistanceMeters>
          </Trackpoint>
          <Trackpoint>
            <Time>2022-09-20T08:23:14.000Z</Time>
            <Position>
              <LatitudeDegrees>49.467771984636783599853515625</LatitudeDegrees>
              <LongitudeDegrees>20.1320789940655231475830078125</LongitudeDegrees>
            </Position>
            <AltitudeMeters>557.4000244140625</AltitudeMeters>
            <DistanceMeters>NAN</DistanceMeters>
          </Trackpoint>
          <Trackpoint>
            <Time>2022-09-20T08:23:20.000Z</Time>
            <Position>
              <LatitudeDegrees>49.4675315916538238525390625</LatitudeDegrees>
              <LongitudeDegrees>20.13208712451159954071044921875</LongitudeDegrees>
            </Position>
            <AltitudeMeters>557.79998779296875</AltitudeMeters>
            <DistanceMeters>NAN</DistanceMeters>
          </Trackpoint>
          <Trackpoint>
            <Time>2022-09-20T08:23:29.000Z</Time>
            <Position>
              <LatitudeDegrees>49.467243589460849761962890625</LatitudeDegrees>
              <LongitudeDegrees>20.13209617696702480316162109375</LongitudeDegrees>
            </Position>
            <AltitudeMeters>558</AltitudeMeters>
            <DistanceMeters>NAN</DistanceMeters>
          </Trackpoint>
          <Trackpoint>
            <Time>2022-09-20T08:23:31.000Z</Time>
            <Position>
              <LatitudeDegrees>49.46721014566719532012939453125</LatitudeDegrees>
              <LongitudeDegrees>20.13209919445216655731201171875</LongitudeDegrees>
            </Position>
            <AltitudeMeters>558</AltitudeMeters>
            <DistanceMeters>NAN</DistanceMeters>
          </Trackpoint>
          <Trackpoint>
            <Time>2022-09-20T08:23:37.000Z</Time>
            <Position>
              <LatitudeDegrees>49.4670358859002590179443359375</LatitudeDegrees>
              <LongitudeDegrees>20.13211159966886043548583984375</LongitudeDegrees>
            </Position>
            <AltitudeMeters>558.20001220703125</AltitudeMeters>
            <DistanceMeters>NAN</DistanceMeters>
          </Trackpoint>
          <Trackpoint>
            <Time>2022-09-20T08:23:46.000Z</Time>
            <Position>
              <LatitudeDegrees>49.466686360538005828857421875</LatitudeDegrees>
              <LongitudeDegrees>20.132153593003749847412109375</LongitudeDegrees>
            </Position>
            <AltitudeMeters>559</AltitudeMeters>
            <DistanceMeters>NAN</DistanceMeters>
          </Trackpoint>
          <Trackpoint>
            <Time>2022-09-20T08:23:49.000Z</Time>
            <Position>
              <LatitudeDegrees>49.46659860201179981231689453125</LatitudeDegrees>
              <LongitudeDegrees>20.13216222636401653289794921875</LongitudeDegrees>
            </Position>
            <AltitudeMeters>559</AltitudeMeters>
            <DistanceMeters>NAN</DistanceMeters>
          </Trackpoint>
          <Trackpoint>
            <Time>2022-09-20T08:23:53.000Z</Time>
            <Position>
              <LatitudeDegrees>49.4664883799850940704345703125</LatitudeDegrees>
              <LongitudeDegrees>20.13217396102845668792724609375</LongitudeDegrees>
            </Position>
            <AltitudeMeters>559.20001220703125</AltitudeMeters>
            <DistanceMeters>NAN</DistanceMeters>
          </Trackpoint>
          <Trackpoint>
            <Time>2022-09-20T08:24:03.000Z</Time>
            <Position>
              <LatitudeDegrees>49.4661904871463775634765625</LatitudeDegrees>
              <LongitudeDegrees>20.132196843624114990234375</LongitudeDegrees>
            </Position>
            <AltitudeMeters>560</AltitudeMeters>
            <DistanceMeters>NAN</DistanceMeters>
          </Trackpoint>
          <Trackpoint>
            <Time>2022-09-20T08:24:06.000Z</Time>
            <Position>
              <LatitudeDegrees>49.466098286211490631103515625</LatitudeDegrees>
              <LongitudeDegrees>20.1322127692401409149169921875</LongitudeDegrees>
            </Position>
            <AltitudeMeters>560</AltitudeMeters>
            <DistanceMeters>NAN</DistanceMeters>
          </Trackpoint>
          <Trackpoint>
            <Time>2022-09-20T08:24:11.000Z</Time>
            <Position>
              <LatitudeDegrees>49.46593307889997959136962890625</LatitudeDegrees>
              <LongitudeDegrees>20.13222358189523220062255859375</LongitudeDegrees>
            </Position>
            <AltitudeMeters>560.20001220703125</AltitudeMeters>
            <DistanceMeters>NAN</DistanceMeters>
          </Trackpoint>
          <Trackpoint>
            <Time>2022-09-20T08:24:15.000Z</Time>
            <Position>
              <LatitudeDegrees>49.4658074341714382171630859375</LatitudeDegrees>
              <LongitudeDegrees>20.1322382502257823944091796875</LongitudeDegrees>
            </Position>
            <AltitudeMeters>560.4000244140625</AltitudeMeters>
            <DistanceMeters>NAN</DistanceMeters>
          </Trackpoint>
          <Trackpoint>
            <Time>2022-09-20T08:24:18.000Z</Time>
            <Position>
              <LatitudeDegrees>49.4657130539417266845703125</LatitudeDegrees>
              <LongitudeDegrees>20.13225040398538112640380859375</LongitudeDegrees>
            </Position>
            <AltitudeMeters>561</AltitudeMeters>
            <DistanceMeters>NAN</DistanceMeters>
          </Trackpoint>
          <Trackpoint>
            <Time>2022-09-20T08:24:20.000Z</Time>
            <Position>
              <LatitudeDegrees>49.465658403933048248291015625</LatitudeDegrees>
              <LongitudeDegrees>20.13225476257503032684326171875</LongitudeDegrees>
            </Position>
            <AltitudeMeters>561.20001220703125</AltitudeMeters>
            <DistanceMeters>NAN</DistanceMeters>
          </Trackpoint>
          <Trackpoint>
            <Time>2022-09-20T08:24:24.000Z</Time>
            <Position>
              <LatitudeDegrees>49.46554340422153472900390625</LatitudeDegrees>
              <LongitudeDegrees>20.13225811533629894256591796875</LongitudeDegrees>
            </Position>
            <AltitudeMeters>561.5999755859375</AltitudeMeters>
            <DistanceMeters>NAN</DistanceMeters>
          </Trackpoint>
          <Trackpoint>
            <Time>2022-09-20T08:24:25.000Z</Time>
            <Position>
              <LatitudeDegrees>49.46554340422153472900390625</LatitudeDegrees>
              <LongitudeDegrees>20.13225811533629894256591796875</LongitudeDegrees>
            </Position>
            <AltitudeMeters>561.79998779296875</AltitudeMeters>
            <DistanceMeters>NAN</DistanceMeters>
          </Trackpoint>
          <Trackpoint>
            <Time>2022-09-20T08:24:33.000Z</Time>
            <Position>
              <LatitudeDegrees>49.4652937911450862884521484375</LatitudeDegrees>
              <LongitudeDegrees>20.13228225521743297576904296875</LongitudeDegrees>
            </Position>
            <AltitudeMeters>561.79998779296875</AltitudeMeters>
            <DistanceMeters>NAN</DistanceMeters>
          </Trackpoint>
          <Trackpoint>
            <Time>2022-09-20T08:24:45.000Z</Time>
            <Position>
              <LatitudeDegrees>49.4649290107190608978271484375</LatitudeDegrees>
              <LongitudeDegrees>20.13231494463980197906494140625</LongitudeDegrees>
            </Position>
            <AltitudeMeters>562.20001220703125</AltitudeMeters>
            <DistanceMeters>NAN</DistanceMeters>
          </Trackpoint>
          <Trackpoint>
            <Time>2022-09-20T08:24:56.000Z</Time>
            <Position>
              <LatitudeDegrees>49.46455157361924648284912109375</LatitudeDegrees>
              <LongitudeDegrees>20.13235618360340595245361328125</LongitudeDegrees>
            </Position>
            <AltitudeMeters>562.79998779296875</AltitudeMeters>
            <DistanceMeters>NAN</DistanceMeters>
          </Trackpoint>
          <Trackpoint>
            <Time>2022-09-20T08:25:03.000Z</Time>
            <Position>
              <LatitudeDegrees>49.46438929997384548187255859375</LatitudeDegrees>
              <LongitudeDegrees>20.13236992992460727691650390625</LongitudeDegrees>
            </Position>
            <AltitudeMeters>563.20001220703125</AltitudeMeters>
            <DistanceMeters>NAN</DistanceMeters>
          </Trackpoint>
          <Trackpoint>
            <Time>2022-09-20T08:25:04.000Z</Time>
            <Position>
              <LatitudeDegrees>49.46431604214012622833251953125</LatitudeDegrees>
              <LongitudeDegrees>20.13237596489489078521728515625</LongitudeDegrees>
            </Position>
            <AltitudeMeters>563.20001220703125</AltitudeMeters>
            <DistanceMeters>NAN</DistanceMeters>
          </Trackpoint>
          <Trackpoint>
            <Time>2022-09-20T08:25:06.000Z</Time>
            <Position>
              <LatitudeDegrees>49.46424932219088077545166015625</LatitudeDegrees>
              <LongitudeDegrees>20.13237948529422283172607421875</LongitudeDegrees>
            </Position>
            <AltitudeMeters>563.4000244140625</AltitudeMeters>
            <DistanceMeters>NAN</DistanceMeters>
          </Trackpoint>
          <Trackpoint>
            <Time>2022-09-20T08:25:14.000Z</Time>
            <Position>
              <LatitudeDegrees>49.46400373242795467376708984375</LatitudeDegrees>
              <LongitudeDegrees>20.13240136206150054931640625</LongitudeDegrees>
            </Position>
            <AltitudeMeters>563.5999755859375</AltitudeMeters>
            <DistanceMeters>NAN</DistanceMeters>
          </Trackpoint>
          <Trackpoint>
            <Time>2022-09-20T08:25:21.000Z</Time>
            <Position>
              <LatitudeDegrees>49.46379720233380794525146484375</LatitudeDegrees>
              <LongitudeDegrees>20.132421143352985382080078125</LongitudeDegrees>
            </Position>
            <AltitudeMeters>563.5999755859375</AltitudeMeters>
            <DistanceMeters>NAN</DistanceMeters>
          </Trackpoint>
          <Trackpoint>
            <Time>2022-09-20T08:25:23.000Z</Time>
            <Position>
              <LatitudeDegrees>49.46372344158589839935302734375</LatitudeDegrees>
              <LongitudeDegrees>20.132427178323268890380859375</LongitudeDegrees>
            </Position>
            <AltitudeMeters>563.5999755859375</AltitudeMeters>
            <DistanceMeters>NAN</DistanceMeters>
          </Trackpoint>
          <Trackpoint>
            <Time>2022-09-20T08:25:24.000Z</Time>
            <Position>
              <LatitudeDegrees>49.4636864773929119110107421875</LatitudeDegrees>
              <LongitudeDegrees>20.13242525048553943634033203125</LongitudeDegrees>
            </Position>
            <AltitudeMeters>563.79998779296875</AltitudeMeters>
            <DistanceMeters>NAN</DistanceMeters>
          </Trackpoint>
          <Trackpoint>
            <Time>2022-09-20T08:25:32.000Z</Time>
            <Position>
              <LatitudeDegrees>49.46343728341162204742431640625</LatitudeDegrees>
              <LongitudeDegrees>20.13244804926216602325439453125</LongitudeDegrees>
            </Position>
            <AltitudeMeters>563.79998779296875</AltitudeMeters>
            <DistanceMeters>NAN</DistanceMeters>
          </Trackpoint>
          <Trackpoint>
            <Time>2022-09-20T08:25:38.000Z</Time>
            <Position>
              <LatitudeDegrees>49.46322673000395298004150390625</LatitudeDegrees>
              <LongitudeDegrees>20.13246062211692333221435546875</LongitudeDegrees>
            </Position>
            <AltitudeMeters>564.20001220703125</AltitudeMeters>
            <DistanceMeters>NAN</DistanceMeters>
          </Trackpoint>
          <Trackpoint>
            <Time>2022-09-20T08:25:41.000Z</Time>
            <Position>
              <LatitudeDegrees>49.4631220400333404541015625</LatitudeDegrees>
              <LongitudeDegrees>20.13246732763946056365966796875</LongitudeDegrees>
            </Position>
            <AltitudeMeters>564.4000244140625</AltitudeMeters>
            <DistanceMeters>NAN</DistanceMeters>
          </Trackpoint>
          <Trackpoint>
            <Time>2022-09-20T08:25:46.000Z</Time>
            <Position>
              <LatitudeDegrees>49.46297787129878997802734375</LatitudeDegrees>
              <LongitudeDegrees>20.13248761184513568878173828125</LongitudeDegrees>
            </Position>
            <AltitudeMeters>564.4000244140625</AltitudeMeters>
            <DistanceMeters>NAN</DistanceMeters>
          </Trackpoint>
          <Trackpoint>
            <Time>2022-09-20T08:25:53.000Z</Time>
            <Position>
              <LatitudeDegrees>49.46276907809078693389892578125</LatitudeDegrees>
              <LongitudeDegrees>20.13253010809421539306640625</LongitudeDegrees>
            </Position>
            <AltitudeMeters>564.79998779296875</AltitudeMeters>
            <DistanceMeters>NAN</DistanceMeters>
          </Trackpoint>
          <Trackpoint>
            <Time>2022-09-20T08:26:00.000Z</Time>
            <Position>
              <LatitudeDegrees>49.4625924713909626007080078125</LatitudeDegrees>
              <LongitudeDegrees>20.13260294683277606964111328125</LongitudeDegrees>
            </Position>
            <AltitudeMeters>565.4000244140625</AltitudeMeters>
            <DistanceMeters>NAN</DistanceMeters>
          </Trackpoint>
          <Trackpoint>
            <Time>2022-09-20T08:26:04.000Z</Time>
            <Position>
              <LatitudeDegrees>49.46244704537093639373779296875</LatitudeDegrees>
              <LongitudeDegrees>20.13270168565213680267333984375</LongitudeDegrees>
            </Position>
            <AltitudeMeters>565.4000244140625</AltitudeMeters>
            <DistanceMeters>NAN</DistanceMeters>
          </Trackpoint>
          <Trackpoint>
            <Time>2022-09-20T08:26:10.000Z</Time>
            <Position>
              <LatitudeDegrees>49.462271444499492645263671875</LatitudeDegrees>
              <LongitudeDegrees>20.1328109018504619598388671875</LongitudeDegrees>
            </Position>
            <AltitudeMeters>565.20001220703125</AltitudeMeters>
            <DistanceMeters>NAN</DistanceMeters>
          </Trackpoint>
          <Trackpoint>
            <Time>2022-09-20T08:26:12.000Z</Time>
            <Position>
              <LatitudeDegrees>49.46221880614757537841796875</LatitudeDegrees>
              <LongitudeDegrees>20.1328432559967041015625</LongitudeDegrees>
            </Position>
            <AltitudeMeters>565.20001220703125</AltitudeMeters>
            <DistanceMeters>NAN</DistanceMeters>
          </Trackpoint>
          <Trackpoint>
            <Time>2022-09-20T08:26:15.000Z</Time>
            <Position>
              <LatitudeDegrees>49.46215711534023284912109375</LatitudeDegrees>
              <LongitudeDegrees>20.13287619687616825103759765625</LongitudeDegrees>
            </Position>
            <AltitudeMeters>565.4000244140625</AltitudeMeters>
            <DistanceMeters>NAN</DistanceMeters>
          </Trackpoint>
          <Trackpoint>
            <Time>2022-09-20T08:26:18.000Z</Time>
            <Position>
              <LatitudeDegrees>49.4620754756033420562744140625</LatitudeDegrees>
              <LongitudeDegrees>20.13291995041072368621826171875</LongitudeDegrees>
            </Position>
            <AltitudeMeters>565.4000244140625</AltitudeMeters>
            <DistanceMeters>NAN</DistanceMeters>
          </Trackpoint>
          <Trackpoint>
            <Time>2022-09-20T08:26:22.000Z</Time>
            <Position>
              <LatitudeDegrees>49.461921751499176025390625</LatitudeDegrees>
              <LongitudeDegrees>20.13297577388584613800048828125</LongitudeDegrees>
            </Position>
            <AltitudeMeters>565.5999755859375</AltitudeMeters>
            <DistanceMeters>NAN</DistanceMeters>
          </Trackpoint>
          <Trackpoint>
            <Time>2022-09-20T08:26:32.000Z</Time>
            <Position>
              <LatitudeDegrees>49.46158773265779018402099609375</LatitudeDegrees>
              <LongitudeDegrees>20.1330305077135562896728515625</LongitudeDegrees>
            </Position>
            <AltitudeMeters>566</AltitudeMeters>
            <DistanceMeters>NAN</DistanceMeters>
          </Trackpoint>
          <Trackpoint>
            <Time>2022-09-20T08:26:37.000Z</Time>
            <Position>
              <LatitudeDegrees>49.46144440211355686187744140625</LatitudeDegrees>
              <LongitudeDegrees>20.1330455951392650604248046875</LongitudeDegrees>
            </Position>
            <AltitudeMeters>566.20001220703125</AltitudeMeters>
            <DistanceMeters>NAN</DistanceMeters>
          </Trackpoint>
          <Trackpoint>
            <Time>2022-09-20T08:26:39.000Z</Time>
            <Position>
              <LatitudeDegrees>49.46138069964945316314697265625</LatitudeDegrees>
              <LongitudeDegrees>20.1330543123185634613037109375</LongitudeDegrees>
            </Position>
            <AltitudeMeters>566.20001220703125</AltitudeMeters>
            <DistanceMeters>NAN</DistanceMeters>
          </Trackpoint>
          <Trackpoint>
            <Time>2022-09-20T08:26:41.000Z</Time>
            <Position>
              <LatitudeDegrees>49.461306519806385040283203125</LatitudeDegrees>
              <LongitudeDegrees>20.133061520755290985107421875</LongitudeDegrees>
            </Position>
            <AltitudeMeters>566.20001220703125</AltitudeMeters>
            <DistanceMeters>NAN</DistanceMeters>
          </Trackpoint>
          <Trackpoint>
            <Time>2022-09-20T08:26:43.000Z</Time>
            <Position>
              <LatitudeDegrees>49.46125178597867488861083984375</LatitudeDegrees>
              <LongitudeDegrees>20.13306629844009876251220703125</LongitudeDegrees>
            </Position>
            <AltitudeMeters>566.20001220703125</AltitudeMeters>
            <DistanceMeters>NAN</DistanceMeters>
          </Trackpoint>
          <Trackpoint>
            <Time>2022-09-20T08:26:51.000Z</Time>
            <Position>
              <LatitudeDegrees>49.46101591922342777252197265625</LatitudeDegrees>
              <LongitudeDegrees>20.13309429399669170379638671875</LongitudeDegrees>
            </Position>
            <AltitudeMeters>566.4000244140625</AltitudeMeters>
            <DistanceMeters>NAN</DistanceMeters>
          </Trackpoint>
          <Trackpoint>
            <Time>2022-09-20T08:26:53.000Z</Time>
            <Position>
              <LatitudeDegrees>49.46095020510256290435791015625</LatitudeDegrees>
              <LongitudeDegrees>20.133098065853118896484375</LongitudeDegrees>
            </Position>
            <AltitudeMeters>566.4000244140625</AltitudeMeters>
            <DistanceMeters>NAN</DistanceMeters>
          </Trackpoint>
          <Trackpoint>
            <Time>2022-09-20T08:26:57.000Z</Time>
            <Position>
              <LatitudeDegrees>49.46081508882343769073486328125</LatitudeDegrees>
              <LongitudeDegrees>20.1331133209168910980224609375</LongitudeDegrees>
            </Position>
            <AltitudeMeters>566.5999755859375</AltitudeMeters>
            <DistanceMeters>NAN</DistanceMeters>
          </Trackpoint>
          <Trackpoint>
            <Time>2022-09-20T08:27:03.000Z</Time>
            <Position>
              <LatitudeDegrees>49.460661448538303375244140625</LatitudeDegrees>
              <LongitudeDegrees>20.1331247203052043914794921875</LongitudeDegrees>
            </Position>
            <AltitudeMeters>566.79998779296875</AltitudeMeters>
            <DistanceMeters>NAN</DistanceMeters>
          </Trackpoint>
          <Trackpoint>
            <Time>2022-09-20T08:27:07.000Z</Time>
            <Position>
              <LatitudeDegrees>49.460661448538303375244140625</LatitudeDegrees>
              <LongitudeDegrees>20.1331247203052043914794921875</LongitudeDegrees>
            </Position>
            <AltitudeMeters>566.5999755859375</AltitudeMeters>
            <DistanceMeters>NAN</DistanceMeters>
          </Trackpoint>
          <Trackpoint>
            <Time>2022-09-20T08:27:10.000Z</Time>
            <Position>
              <LatitudeDegrees>49.460661448538303375244140625</LatitudeDegrees>
              <LongitudeDegrees>20.1331247203052043914794921875</LongitudeDegrees>
            </Position>
            <AltitudeMeters>566.5999755859375</AltitudeMeters>
            <DistanceMeters>NAN</DistanceMeters>
          </Trackpoint>
          <Trackpoint>
            <Time>2022-09-20T08:27:26.000Z</Time>
            <Position>
              <LatitudeDegrees>49.460620880126953125</LatitudeDegrees>
              <LongitudeDegrees>20.13313452713191509246826171875</LongitudeDegrees>
            </Position>
            <AltitudeMeters>566.5999755859375</AltitudeMeters>
            <DistanceMeters>NAN</DistanceMeters>
          </Trackpoint>
          <Trackpoint>
            <Time>2022-09-20T08:27:27.000Z</Time>
            <Position>
              <LatitudeDegrees>49.4606007635593414306640625</LatitudeDegrees>
              <LongitudeDegrees>20.13314324431121349334716796875</LongitudeDegrees>
            </Position>
            <AltitudeMeters>566.5999755859375</AltitudeMeters>
            <DistanceMeters>NAN</DistanceMeters>
          </Trackpoint>
          <Trackpoint>
            <Time>2022-09-20T08:27:30.000Z</Time>
            <Position>
              <LatitudeDegrees>49.46052306331694126129150390625</LatitudeDegrees>
              <LongitudeDegrees>20.13316637836396694183349609375</LongitudeDegrees>
            </Position>
            <AltitudeMeters>567</AltitudeMeters>
            <DistanceMeters>NAN</DistanceMeters>
          </Trackpoint>
          <Trackpoint>
            <Time>2022-09-20T08:27:33.000Z</Time>
            <Position>
              <LatitudeDegrees>49.4604359753429889678955078125</LatitudeDegrees>
              <LongitudeDegrees>20.13317593373358249664306640625</LongitudeDegrees>
            </Position>
            <AltitudeMeters>567.20001220703125</AltitudeMeters>
            <DistanceMeters>NAN</DistanceMeters>
          </Trackpoint>
          <Trackpoint>
            <Time>2022-09-20T08:27:39.000Z</Time>
            <Position>
              <LatitudeDegrees>49.460224248468875885009765625</LatitudeDegrees>
              <LongitudeDegrees>20.1332415640354156494140625</LongitudeDegrees>
            </Position>
            <AltitudeMeters>567.4000244140625</AltitudeMeters>
            <DistanceMeters>NAN</DistanceMeters>
          </Trackpoint>
          <Trackpoint>
            <Time>2022-09-20T08:27:40.000Z</Time>
            <Position>
              <LatitudeDegrees>49.460224248468875885009765625</LatitudeDegrees>
              <LongitudeDegrees>20.1332415640354156494140625</LongitudeDegrees>
            </Position>
            <AltitudeMeters>567.4000244140625</AltitudeMeters>
            <DistanceMeters>NAN</DistanceMeters>
          </Trackpoint>
          <Trackpoint>
            <Time>2022-09-20T08:27:48.000Z</Time>
            <Position>
              <LatitudeDegrees>49.4599240086972713470458984375</LatitudeDegrees>
              <LongitudeDegrees>20.1333808712661266326904296875</LongitudeDegrees>
            </Position>
            <AltitudeMeters>567.20001220703125</AltitudeMeters>
            <DistanceMeters>NAN</DistanceMeters>
          </Trackpoint>
          <Trackpoint>
            <Time>2022-09-20T08:27:49.000Z</Time>
            <Position>
              <LatitudeDegrees>49.45989844389259815216064453125</LatitudeDegrees>
              <LongitudeDegrees>20.13339336030185222625732421875</LongitudeDegrees>
            </Position>
            <AltitudeMeters>567.20001220703125</AltitudeMeters>
            <DistanceMeters>NAN</DistanceMeters>
          </Trackpoint>
          <Trackpoint>
            <Time>2022-09-20T08:27:52.000Z</Time>
            <Position>
              <LatitudeDegrees>49.45980213582515716552734375</LatitudeDegrees>
              <LongitudeDegrees>20.1334308274090290069580078125</LongitudeDegrees>
            </Position>
            <AltitudeMeters>567.20001220703125</AltitudeMeters>
            <DistanceMeters>NAN</DistanceMeters>
          </Trackpoint>
          <Trackpoint>
            <Time>2022-09-20T08:27:56.000Z</Time>
            <Position>
              <LatitudeDegrees>49.459680430591106414794921875</LatitudeDegrees>
              <LongitudeDegrees>20.13348204083740711212158203125</LongitudeDegrees>
            </Position>
            <AltitudeMeters>567.5999755859375</AltitudeMeters>
            <DistanceMeters>NAN</DistanceMeters>
          </Trackpoint>
          <Trackpoint>
            <Time>2022-09-20T08:28:02.000Z</Time>
            <Position>
              <LatitudeDegrees>49.4594603218138217926025390625</LatitudeDegrees>
              <LongitudeDegrees>20.13356552459299564361572265625</LongitudeDegrees>
            </Position>
            <AltitudeMeters>568.20001220703125</AltitudeMeters>
            <DistanceMeters>NAN</DistanceMeters>
          </Trackpoint>
          <Trackpoint>
            <Time>2022-09-20T08:28:09.000Z</Time>
            <Position>
              <LatitudeDegrees>49.45922805927693843841552734375</LatitudeDegrees>
              <LongitudeDegrees>20.13364682905375957489013671875</LongitudeDegrees>
            </Position>
            <AltitudeMeters>568.4000244140625</AltitudeMeters>
            <DistanceMeters>NAN</DistanceMeters>
          </Trackpoint>
          <Trackpoint>
            <Time>2022-09-20T08:28:11.000Z</Time>
            <Position>
              <LatitudeDegrees>49.45915974676609039306640625</LatitudeDegrees>
              <LongitudeDegrees>20.13366661034524440765380859375</LongitudeDegrees>
            </Position>
            <AltitudeMeters>568.4000244140625</AltitudeMeters>
            <DistanceMeters>NAN</DistanceMeters>
          </Trackpoint>
          <Trackpoint>
            <Time>2022-09-20T08:28:13.000Z</Time>
            <Position>
              <LatitudeDegrees>49.459091685712337493896484375</LatitudeDegrees>
              <LongitudeDegrees>20.13369477353990077972412109375</LongitudeDegrees>
            </Position>
            <AltitudeMeters>568.4000244140625</AltitudeMeters>
            <DistanceMeters>NAN</DistanceMeters>
          </Trackpoint>
          <Trackpoint>
            <Time>2022-09-20T08:28:16.000Z</Time>
            <Position>
              <LatitudeDegrees>49.4590026699006557464599609375</LatitudeDegrees>
              <LongitudeDegrees>20.13372696004807949066162109375</LongitudeDegrees>
            </Position>
            <AltitudeMeters>568.79998779296875</AltitudeMeters>
            <DistanceMeters>NAN</DistanceMeters>
          </Trackpoint>
          <Trackpoint>
            <Time>2022-09-20T08:28:18.000Z</Time>
            <Position>
              <LatitudeDegrees>49.45894106291234493255615234375</LatitudeDegrees>
              <LongitudeDegrees>20.13374858535826206207275390625</LongitudeDegrees>
            </Position>
            <AltitudeMeters>568.79998779296875</AltitudeMeters>
            <DistanceMeters>NAN</DistanceMeters>
          </Trackpoint>
          <Trackpoint>
            <Time>2022-09-20T08:28:29.000Z</Time>
            <Position>
              <LatitudeDegrees>49.4585510529577732086181640625</LatitudeDegrees>
              <LongitudeDegrees>20.13402082957327365875244140625</LongitudeDegrees>
            </Position>
            <AltitudeMeters>569.4000244140625</AltitudeMeters>
            <DistanceMeters>NAN</DistanceMeters>
          </Trackpoint>
          <Trackpoint>
            <Time>2022-09-20T08:28:34.000Z</Time>
            <Position>
              <LatitudeDegrees>49.4583787210285663604736328125</LatitudeDegrees>
              <LongitudeDegrees>20.13419575989246368408203125</LongitudeDegrees>
            </Position>
            <AltitudeMeters>569.4000244140625</AltitudeMeters>
            <DistanceMeters>NAN</DistanceMeters>
          </Trackpoint>
          <Trackpoint>
            <Time>2022-09-20T08:28:37.000Z</Time>
            <Position>
              <LatitudeDegrees>49.45828677155077457427978515625</LatitudeDegrees>
              <LongitudeDegrees>20.134300030767917633056640625</LongitudeDegrees>
            </Position>
            <AltitudeMeters>569.4000244140625</AltitudeMeters>
            <DistanceMeters>NAN</DistanceMeters>
          </Trackpoint>
          <Trackpoint>
            <Time>2022-09-20T08:28:38.000Z</Time>
            <Position>
              <LatitudeDegrees>49.4582543335855007171630859375</LatitudeDegrees>
              <LongitudeDegrees>20.13432852923870086669921875</LongitudeDegrees>
            </Position>
            <AltitudeMeters>569.4000244140625</AltitudeMeters>
            <DistanceMeters>NAN</DistanceMeters>
          </Trackpoint>
          <Trackpoint>
            <Time>2022-09-20T08:28:43.000Z</Time>
            <Position>
              <LatitudeDegrees>49.45807605050504207611083984375</LatitudeDegrees>
              <LongitudeDegrees>20.1344849355518817901611328125</LongitudeDegrees>
            </Position>
            <AltitudeMeters>569.79998779296875</AltitudeMeters>
            <DistanceMeters>NAN</DistanceMeters>
          </Trackpoint>
          <Trackpoint>
            <Time>2022-09-20T08:28:44.000Z</Time>
            <Position>
              <LatitudeDegrees>49.45803456008434295654296875</LatitudeDegrees>
              <LongitudeDegrees>20.13451636768877506256103515625</LongitudeDegrees>
            </Position>
            <AltitudeMeters>569.79998779296875</AltitudeMeters>
            <DistanceMeters>NAN</DistanceMeters>
          </Trackpoint>
          <Trackpoint>
            <Time>2022-09-20T08:28:48.000Z</Time>
            <Position>
              <LatitudeDegrees>49.457903467118740081787109375</LatitudeDegrees>
              <LongitudeDegrees>20.1346287690103054046630859375</LongitudeDegrees>
            </Position>
            <AltitudeMeters>569.79998779296875</AltitudeMeters>
            <DistanceMeters>NAN</DistanceMeters>
          </Trackpoint>
          <Trackpoint>
            <Time>2022-09-20T08:28:51.000Z</Time>
            <Position>
              <LatitudeDegrees>49.45780481211841106414794921875</LatitudeDegrees>
              <LongitudeDegrees>20.13471652753651142120361328125</LongitudeDegrees>
            </Position>
            <AltitudeMeters>570</AltitudeMeters>
            <DistanceMeters>NAN</DistanceMeters>
          </Trackpoint>
          <Trackpoint>
            <Time>2022-09-20T08:28:56.000Z</Time>
            <Position>
              <LatitudeDegrees>49.4576310552656650543212890625</LatitudeDegrees>
              <LongitudeDegrees>20.13486455194652080535888671875</LongitudeDegrees>
            </Position>
            <AltitudeMeters>570.4000244140625</AltitudeMeters>
            <DistanceMeters>NAN</DistanceMeters>
          </Trackpoint>
          <Trackpoint>
            <Time>2022-09-20T08:29:05.000Z</Time>
            <Position>
              <LatitudeDegrees>49.45733710192143917083740234375</LatitudeDegrees>
              <LongitudeDegrees>20.1351139135658740997314453125</LongitudeDegrees>
            </Position>
            <AltitudeMeters>570.4000244140625</AltitudeMeters>
            <DistanceMeters>NAN</DistanceMeters>
          </Trackpoint>
          <Trackpoint>
            <Time>2022-09-20T08:29:11.000Z</Time>
            <Position>
              <LatitudeDegrees>49.457145743072032928466796875</LatitudeDegrees>
              <LongitudeDegrees>20.13523218221962451934814453125</LongitudeDegrees>
            </Position>
            <AltitudeMeters>570.79998779296875</AltitudeMeters>
            <DistanceMeters>NAN</DistanceMeters>
          </Trackpoint>
          <Trackpoint>
            <Time>2022-09-20T08:29:15.000Z</Time>
            <Position>
              <LatitudeDegrees>49.4570267200469970703125</LatitudeDegrees>
              <LongitudeDegrees>20.13531030155718326568603515625</LongitudeDegrees>
            </Position>
            <AltitudeMeters>571</AltitudeMeters>
            <DistanceMeters>NAN</DistanceMeters>
          </Trackpoint>
          <Trackpoint>
            <Time>2022-09-20T08:29:23.000Z</Time>
            <Position>
              <LatitudeDegrees>49.45675514638423919677734375</LatitudeDegrees>
              <LongitudeDegrees>20.13546369038522243499755859375</LongitudeDegrees>
            </Position>
            <AltitudeMeters>571.20001220703125</AltitudeMeters>
            <DistanceMeters>NAN</DistanceMeters>
          </Trackpoint>
          <Trackpoint>
            <Time>2022-09-20T08:29:32.000Z</Time>
            <Position>
              <LatitudeDegrees>49.4563999213278293609619140625</LatitudeDegrees>
              <LongitudeDegrees>20.1356553845107555389404296875</LongitudeDegrees>
            </Position>
            <AltitudeMeters>571.79998779296875</AltitudeMeters>
            <DistanceMeters>NAN</DistanceMeters>
          </Trackpoint>
          <Trackpoint>
            <Time>2022-09-20T08:29:36.000Z</Time>
            <Position>
              <LatitudeDegrees>49.45628617890179157257080078125</LatitudeDegrees>
              <LongitudeDegrees>20.13571296818554401397705078125</LongitudeDegrees>
            </Position>
            <AltitudeMeters>572.20001220703125</AltitudeMeters>
            <DistanceMeters>NAN</DistanceMeters>
          </Trackpoint>
          <Trackpoint>
            <Time>2022-09-20T08:29:39.000Z</Time>
            <Position>
              <LatitudeDegrees>49.4561514817178249359130859375</LatitudeDegrees>
              <LongitudeDegrees>20.1357925124466419219970703125</LongitudeDegrees>
            </Position>
            <AltitudeMeters>572.4000244140625</AltitudeMeters>
            <DistanceMeters>NAN</DistanceMeters>
          </Trackpoint>
          <Trackpoint>
            <Time>2022-09-20T08:29:44.000Z</Time>
            <Position>
              <LatitudeDegrees>49.45600622333586215972900390625</LatitudeDegrees>
              <LongitudeDegrees>20.13588747940957546234130859375</LongitudeDegrees>
            </Position>
            <AltitudeMeters>572.79998779296875</AltitudeMeters>
            <DistanceMeters>NAN</DistanceMeters>
          </Trackpoint>
          <Trackpoint>
            <Time>2022-09-20T08:29:45.000Z</Time>
            <Position>
              <LatitudeDegrees>49.45597671903669834136962890625</LatitudeDegrees>
              <LongitudeDegrees>20.13590709306299686431884765625</LongitudeDegrees>
            </Position>
            <AltitudeMeters>573</AltitudeMeters>
            <DistanceMeters>NAN</DistanceMeters>
          </Trackpoint>
          <Trackpoint>
            <Time>2022-09-20T08:29:50.000Z</Time>
            <Position>
              <LatitudeDegrees>49.45582182146608829498291015625</LatitudeDegrees>
              <LongitudeDegrees>20.13601857237517833709716796875</LongitudeDegrees>
            </Position>
            <AltitudeMeters>573.20001220703125</AltitudeMeters>
            <DistanceMeters>NAN</DistanceMeters>
          </Trackpoint>
          <Trackpoint>
            <Time>2022-09-20T08:29:53.000Z</Time>
            <Position>
              <LatitudeDegrees>49.455750994384288787841796875</LatitudeDegrees>
              <LongitudeDegrees>20.13605427928268909454345703125</LongitudeDegrees>
            </Position>
            <AltitudeMeters>573.20001220703125</AltitudeMeters>
            <DistanceMeters>NAN</DistanceMeters>
          </Trackpoint>
          <Trackpoint>
            <Time>2022-09-20T08:29:54.000Z</Time>
            <Position>
              <LatitudeDegrees>49.45569441653788089752197265625</LatitudeDegrees>
              <LongitudeDegrees>20.13610272668302059173583984375</LongitudeDegrees>
            </Position>
            <AltitudeMeters>573.20001220703125</AltitudeMeters>
            <DistanceMeters>NAN</DistanceMeters>
          </Trackpoint>
          <Trackpoint>
            <Time>2022-09-20T08:30:01.000Z</Time>
            <Position>
              <LatitudeDegrees>49.455482102930545806884765625</LatitudeDegrees>
              <LongitudeDegrees>20.13627053238451480865478515625</LongitudeDegrees>
            </Position>
            <AltitudeMeters>573.20001220703125</AltitudeMeters>
            <DistanceMeters>NAN</DistanceMeters>
          </Trackpoint>
          <Trackpoint>
            <Time>2022-09-20T08:30:10.000Z</Time>
            <Position>
              <LatitudeDegrees>49.45518697611987590789794921875</LatitudeDegrees>
              <LongitudeDegrees>20.13648561201989650726318359375</LongitudeDegrees>
            </Position>
            <AltitudeMeters>573.5999755859375</AltitudeMeters>
            <DistanceMeters>NAN</DistanceMeters>
          </Trackpoint>
          <Trackpoint>
            <Time>2022-09-20T08:30:18.000Z</Time>
            <Position>
              <LatitudeDegrees>49.4549198448657989501953125</LatitudeDegrees>
              <LongitudeDegrees>20.13664252124726772308349609375</LongitudeDegrees>
            </Position>
            <AltitudeMeters>573.79998779296875</AltitudeMeters>
            <DistanceMeters>NAN</DistanceMeters>
          </Trackpoint>
          <Trackpoint>
            <Time>2022-09-20T08:30:21.000Z</Time>
            <Position>
              <LatitudeDegrees>49.4547991454601287841796875</LatitudeDegrees>
              <LongitudeDegrees>20.136706642806529998779296875</LongitudeDegrees>
            </Position>
            <AltitudeMeters>573.79998779296875</AltitudeMeters>
            <DistanceMeters>NAN</DistanceMeters>
          </Trackpoint>
          <Trackpoint>
            <Time>2022-09-20T08:30:26.000Z</Time>
            <Position>
              <LatitudeDegrees>49.4546648673713207244873046875</LatitudeDegrees>
              <LongitudeDegrees>20.136756263673305511474609375</LongitudeDegrees>
            </Position>
            <AltitudeMeters>574.20001220703125</AltitudeMeters>
            <DistanceMeters>NAN</DistanceMeters>
          </Trackpoint>
          <Trackpoint>
            <Time>2022-09-20T08:30:36.000Z</Time>
            <Position>
              <LatitudeDegrees>49.454278461635112762451171875</LatitudeDegrees>
              <LongitudeDegrees>20.13695382513105869293212890625</LongitudeDegrees>
            </Position>
            <AltitudeMeters>574.79998779296875</AltitudeMeters>
            <DistanceMeters>NAN</DistanceMeters>
          </Trackpoint>
          <Trackpoint>
            <Time>2022-09-20T08:30:45.000Z</Time>
            <Position>
              <LatitudeDegrees>49.45397906005382537841796875</LatitudeDegrees>
              <LongitudeDegrees>20.137161277234554290771484375</LongitudeDegrees>
            </Position>
            <AltitudeMeters>575.20001220703125</AltitudeMeters>
            <DistanceMeters>NAN</DistanceMeters>
          </Trackpoint>
          <Trackpoint>
            <Time>2022-09-20T08:30:55.000Z</Time>
            <Position>
              <LatitudeDegrees>49.45363665930926799774169921875</LatitudeDegrees>
              <LongitudeDegrees>20.137394964694976806640625</LongitudeDegrees>
            </Position>
            <AltitudeMeters>575</AltitudeMeters>
            <DistanceMeters>NAN</DistanceMeters>
          </Trackpoint>
          <Trackpoint>
            <Time>2022-09-20T08:31:04.000Z</Time>
            <Position>
              <LatitudeDegrees>49.45335854776203632354736328125</LatitudeDegrees>
              <LongitudeDegrees>20.137593448162078857421875</LongitudeDegrees>
            </Position>
            <AltitudeMeters>575.4000244140625</AltitudeMeters>
            <DistanceMeters>NAN</DistanceMeters>
          </Trackpoint>
          <Trackpoint>
            <Time>2022-09-20T08:31:08.000Z</Time>
            <Position>
              <LatitudeDegrees>49.4532174803316593170166015625</LatitudeDegrees>
              <LongitudeDegrees>20.137684643268585205078125</LongitudeDegrees>
            </Position>
            <AltitudeMeters>575.5999755859375</AltitudeMeters>
            <DistanceMeters>NAN</DistanceMeters>
          </Trackpoint>
          <Trackpoint>
            <Time>2022-09-20T08:31:12.000Z</Time>
            <Position>
              <LatitudeDegrees>49.45311496965587139129638671875</LatitudeDegrees>
              <LongitudeDegrees>20.1377431489527225494384765625</LongitudeDegrees>
            </Position>
            <AltitudeMeters>575.79998779296875</AltitudeMeters>
            <DistanceMeters>NAN</DistanceMeters>
          </Trackpoint>
          <Trackpoint>
            <Time>2022-09-20T08:31:13.000Z</Time>
            <Position>
              <LatitudeDegrees>49.4530860520899295806884765625</LatitudeDegrees>
              <LongitudeDegrees>20.13776041567325592041015625</LongitudeDegrees>
            </Position>
            <AltitudeMeters>575.79998779296875</AltitudeMeters>
            <DistanceMeters>NAN</DistanceMeters>
          </Trackpoint>
          <Trackpoint>
            <Time>2022-09-20T08:31:16.000Z</Time>
            <Position>
              <LatitudeDegrees>49.45297247730195522308349609375</LatitudeDegrees>
              <LongitudeDegrees>20.137819088995456695556640625</LongitudeDegrees>
            </Position>
            <AltitudeMeters>575.79998779296875</AltitudeMeters>
            <DistanceMeters>NAN</DistanceMeters>
          </Trackpoint>
          <Trackpoint>
            <Time>2022-09-20T08:31:20.000Z</Time>
            <Position>
              <LatitudeDegrees>49.45283719338476657867431640625</LatitudeDegrees>
              <LongitudeDegrees>20.1378675363957881927490234375</LongitudeDegrees>
            </Position>
            <AltitudeMeters>576</AltitudeMeters>
            <DistanceMeters>NAN</DistanceMeters>
          </Trackpoint>
          <Trackpoint>
            <Time>2022-09-20T08:31:31.000Z</Time>
            <Position>
              <LatitudeDegrees>49.4524688087403774261474609375</LatitudeDegrees>
              <LongitudeDegrees>20.13802436180412769317626953125</LongitudeDegrees>
            </Position>
            <AltitudeMeters>576.79998779296875</AltitudeMeters>
            <DistanceMeters>NAN</DistanceMeters>
          </Trackpoint>
          <Trackpoint>
            <Time>2022-09-20T08:31:36.000Z</Time>
            <Position>
              <LatitudeDegrees>49.45230997167527675628662109375</LatitudeDegrees>
              <LongitudeDegrees>20.138080604374408721923828125</LongitudeDegrees>
            </Position>
            <AltitudeMeters>577</AltitudeMeters>
            <DistanceMeters>NAN</DistanceMeters>
          </Trackpoint>
          <Trackpoint>
            <Time>2022-09-20T08:31:41.000Z</Time>
            <Position>
              <LatitudeDegrees>49.45217301137745380401611328125</LatitudeDegrees>
              <LongitudeDegrees>20.13814187608659267425537109375</LongitudeDegrees>
            </Position>
            <AltitudeMeters>577.4000244140625</AltitudeMeters>
            <DistanceMeters>NAN</DistanceMeters>
          </Trackpoint>
          <Trackpoint>
            <Time>2022-09-20T08:31:44.000Z</Time>
            <Position>
              <LatitudeDegrees>49.45210821926593780517578125</LatitudeDegrees>
              <LongitudeDegrees>20.13816618360579013824462890625</LongitudeDegrees>
            </Position>
            <AltitudeMeters>577.4000244140625</AltitudeMeters>
            <DistanceMeters>NAN</DistanceMeters>
          </Trackpoint>
          <Trackpoint>
            <Time>2022-09-20T08:31:49.000Z</Time>
            <Position>
              <LatitudeDegrees>49.4519799761474132537841796875</LatitudeDegrees>
              <LongitudeDegrees>20.1382168941199779510498046875</LongitudeDegrees>
            </Position>
            <AltitudeMeters>577.79998779296875</AltitudeMeters>
            <DistanceMeters>NAN</DistanceMeters>
          </Trackpoint>
          <Trackpoint>
            <Time>2022-09-20T08:31:53.000Z</Time>
            <Position>
              <LatitudeDegrees>49.45189188234508037567138671875</LatitudeDegrees>
              <LongitudeDegrees>20.1382611505687236785888671875</LongitudeDegrees>
            </Position>
            <AltitudeMeters>578</AltitudeMeters>
            <DistanceMeters>NAN</DistanceMeters>
          </Trackpoint>
          <Trackpoint>
            <Time>2022-09-20T08:31:57.000Z</Time>
            <Position>
              <LatitudeDegrees>49.45176648907363414764404296875</LatitudeDegrees>
              <LongitudeDegrees>20.13831772841513156890869140625</LongitudeDegrees>
            </Position>
            <AltitudeMeters>578</AltitudeMeters>
            <DistanceMeters>NAN</DistanceMeters>
          </Trackpoint>
          <Trackpoint>
            <Time>2022-09-20T08:32:04.000Z</Time>
            <Position>
              <LatitudeDegrees>49.45158074609935283660888671875</LatitudeDegrees>
              <LongitudeDegrees>20.138388387858867645263671875</LongitudeDegrees>
            </Position>
            <AltitudeMeters>578.20001220703125</AltitudeMeters>
            <DistanceMeters>NAN</DistanceMeters>
          </Trackpoint>
          <Trackpoint>
            <Time>2022-09-20T08:32:09.000Z</Time>
            <Position>
              <LatitudeDegrees>49.4514344818890094757080078125</LatitudeDegrees>
              <LongitudeDegrees>20.1384477317333221435546875</LongitudeDegrees>
            </Position>
            <AltitudeMeters>578.4000244140625</AltitudeMeters>
            <DistanceMeters>NAN</DistanceMeters>
          </Trackpoint>
          <Trackpoint>
            <Time>2022-09-20T08:32:18.000Z</Time>
            <Position>
              <LatitudeDegrees>49.45118931122124195098876953125</LatitudeDegrees>
              <LongitudeDegrees>20.138541273772716522216796875</LongitudeDegrees>
            </Position>
            <AltitudeMeters>578.79998779296875</AltitudeMeters>
            <DistanceMeters>NAN</DistanceMeters>
          </Trackpoint>
          <Trackpoint>
            <Time>2022-09-20T08:32:26.000Z</Time>
            <Position>
              <LatitudeDegrees>49.450956545770168304443359375</LatitudeDegrees>
              <LongitudeDegrees>20.13863406144082546234130859375</LongitudeDegrees>
            </Position>
            <AltitudeMeters>579</AltitudeMeters>
            <DistanceMeters>NAN</DistanceMeters>
          </Trackpoint>
          <Trackpoint>
            <Time>2022-09-20T08:32:28.000Z</Time>
            <Position>
              <LatitudeDegrees>49.450874067842960357666015625</LatitudeDegrees>
              <LongitudeDegrees>20.13866976834833621978759765625</LongitudeDegrees>
            </Position>
            <AltitudeMeters>579.20001220703125</AltitudeMeters>
            <DistanceMeters>NAN</DistanceMeters>
          </Trackpoint>
          <Trackpoint>
            <Time>2022-09-20T08:32:37.000Z</Time>
            <Position>
              <LatitudeDegrees>49.45057508535683155059814453125</LatitudeDegrees>
              <LongitudeDegrees>20.1387680880725383758544921875</LongitudeDegrees>
            </Position>
            <AltitudeMeters>579.79998779296875</AltitudeMeters>
            <DistanceMeters>NAN</DistanceMeters>
          </Trackpoint>
          <Trackpoint>
            <Time>2022-09-20T08:32:42.000Z</Time>
            <Position>
              <LatitudeDegrees>49.450418762862682342529296875</LatitudeDegrees>
              <LongitudeDegrees>20.1388039626181125640869140625</LongitudeDegrees>
            </Position>
            <AltitudeMeters>580</AltitudeMeters>
            <DistanceMeters>NAN</DistanceMeters>
          </Trackpoint>
          <Trackpoint>
            <Time>2022-09-20T08:32:46.000Z</Time>
            <Position>
              <LatitudeDegrees>49.45027895271778106689453125</LatitudeDegrees>
              <LongitudeDegrees>20.1388374902307987213134765625</LongitudeDegrees>
            </Position>
            <AltitudeMeters>580.20001220703125</AltitudeMeters>
            <DistanceMeters>NAN</DistanceMeters>
          </Trackpoint>
          <Trackpoint>
            <Time>2022-09-20T08:32:55.000Z</Time>
            <Position>
              <LatitudeDegrees>49.45002280175685882568359375</LatitudeDegrees>
              <LongitudeDegrees>20.1389065571129322052001953125</LongitudeDegrees>
            </Position>
            <AltitudeMeters>580.79998779296875</AltitudeMeters>
            <DistanceMeters>NAN</DistanceMeters>
          </Trackpoint>
          <Trackpoint>
            <Time>2022-09-20T08:32:57.000Z</Time>
            <Position>
              <LatitudeDegrees>49.44994376040995121002197265625</LatitudeDegrees>
              <LongitudeDegrees>20.13891938142478466033935546875</LongitudeDegrees>
            </Position>
            <AltitudeMeters>580.79998779296875</AltitudeMeters>
            <DistanceMeters>NAN</DistanceMeters>
          </Trackpoint>
          <Trackpoint>
            <Time>2022-09-20T08:33:00.000Z</Time>
            <Position>
              <LatitudeDegrees>49.44985575042665004730224609375</LatitudeDegrees>
              <LongitudeDegrees>20.1389514841139316558837890625</LongitudeDegrees>
            </Position>
            <AltitudeMeters>580.79998779296875</AltitudeMeters>
            <DistanceMeters>NAN</DistanceMeters>
          </Trackpoint>
          <Trackpoint>
            <Time>2022-09-20T08:33:07.000Z</Time>
            <Position>
              <LatitudeDegrees>49.4496669061481952667236328125</LatitudeDegrees>
              <LongitudeDegrees>20.13899716548621654510498046875</LongitudeDegrees>
            </Position>
            <AltitudeMeters>581</AltitudeMeters>
            <DistanceMeters>NAN</DistanceMeters>
          </Trackpoint>
          <Trackpoint>
            <Time>2022-09-20T08:33:09.000Z</Time>
            <Position>
              <LatitudeDegrees>49.4495822489261627197265625</LatitudeDegrees>
              <LongitudeDegrees>20.1390155218541622161865234375</LongitudeDegrees>
            </Position>
            <AltitudeMeters>581</AltitudeMeters>
            <DistanceMeters>NAN</DistanceMeters>
          </Trackpoint>
          <Trackpoint>
            <Time>2022-09-20T08:33:13.000Z</Time>
            <Position>
              <LatitudeDegrees>49.4495163671672344207763671875</LatitudeDegrees>
              <LongitudeDegrees>20.13902750797569751739501953125</LongitudeDegrees>
            </Position>
            <AltitudeMeters>581.20001220703125</AltitudeMeters>
            <DistanceMeters>NAN</DistanceMeters>
          </Trackpoint>
          <Trackpoint>
            <Time>2022-09-20T08:33:18.000Z</Time>
            <Position>
              <LatitudeDegrees>49.4494037143886089324951171875</LatitudeDegrees>
              <LongitudeDegrees>20.13905483298003673553466796875</LongitudeDegrees>
            </Position>
            <AltitudeMeters>581.4000244140625</AltitudeMeters>
            <DistanceMeters>NAN</DistanceMeters>
          </Trackpoint>
          <Trackpoint>
            <Time>2022-09-20T08:33:22.000Z</Time>
            <Position>
              <LatitudeDegrees>49.4492615573108196258544921875</LatitudeDegrees>
              <LongitudeDegrees>20.1391073875129222869873046875</LongitudeDegrees>
            </Position>
            <AltitudeMeters>581.5999755859375</AltitudeMeters>
            <DistanceMeters>NAN</DistanceMeters>
          </Trackpoint>
          <Trackpoint>
            <Time>2022-09-20T08:33:31.000Z</Time>
            <Position>
              <LatitudeDegrees>49.44905779324471950531005859375</LatitudeDegrees>
              <LongitudeDegrees>20.1391928829252719879150390625</LongitudeDegrees>
            </Position>
            <AltitudeMeters>581.79998779296875</AltitudeMeters>
            <DistanceMeters>NAN</DistanceMeters>
          </Trackpoint>
          <Trackpoint>
            <Time>2022-09-20T08:33:36.000Z</Time>
            <Position>
              <LatitudeDegrees>49.44899191148579120635986328125</LatitudeDegrees>
              <LongitudeDegrees>20.1392255723476409912109375</LongitudeDegrees>
            </Position>
            <AltitudeMeters>582</AltitudeMeters>
            <DistanceMeters>NAN</DistanceMeters>
          </Trackpoint>
          <Trackpoint>
            <Time>2022-09-20T08:33:39.000Z</Time>
            <Position>
              <LatitudeDegrees>49.44894530810415744781494140625</LatitudeDegrees>
              <LongitudeDegrees>20.13924795202910900115966796875</LongitudeDegrees>
            </Position>
            <AltitudeMeters>582.20001220703125</AltitudeMeters>
            <DistanceMeters>NAN</DistanceMeters>
          </Trackpoint>
          <Trackpoint>
            <Time>2022-09-20T08:33:44.000Z</Time>
            <Position>
              <LatitudeDegrees>49.4489390216767787933349609375</LatitudeDegrees>
              <LongitudeDegrees>20.1392482034862041473388671875</LongitudeDegrees>
            </Position>
            <AltitudeMeters>582.4000244140625</AltitudeMeters>
            <DistanceMeters>NAN</DistanceMeters>
          </Trackpoint>
          <Trackpoint>
            <Time>2022-09-20T08:33:54.000Z</Time>
            <Position>
              <LatitudeDegrees>49.4489390216767787933349609375</LatitudeDegrees>
              <LongitudeDegrees>20.1392482034862041473388671875</LongitudeDegrees>
            </Position>
            <AltitudeMeters>582.5999755859375</AltitudeMeters>
            <DistanceMeters>NAN</DistanceMeters>
          </Trackpoint>
          <Trackpoint>
            <Time>2022-09-20T08:34:13.000Z</Time>
            <Position>
              <LatitudeDegrees>49.44888889789581298828125</LatitudeDegrees>
              <LongitudeDegrees>20.13927192427217960357666015625</LongitudeDegrees>
            </Position>
            <AltitudeMeters>582.20001220703125</AltitudeMeters>
            <DistanceMeters>NAN</DistanceMeters>
          </Trackpoint>
          <Trackpoint>
            <Time>2022-09-20T08:34:15.000Z</Time>
            <Position>
              <LatitudeDegrees>49.44883282296359539031982421875</LatitudeDegrees>
              <LongitudeDegrees>20.13930209912359714508056640625</LongitudeDegrees>
            </Position>
            <AltitudeMeters>582.4000244140625</AltitudeMeters>
            <DistanceMeters>NAN</DistanceMeters>
          </Trackpoint>
          <Trackpoint>
            <Time>2022-09-20T08:34:17.000Z</Time>
            <Position>
              <LatitudeDegrees>49.44876928813755512237548828125</LatitudeDegrees>
              <LongitudeDegrees>20.13933160342276096343994140625</LongitudeDegrees>
            </Position>
            <AltitudeMeters>582.4000244140625</AltitudeMeters>
            <DistanceMeters>NAN</DistanceMeters>
          </Trackpoint>
          <Trackpoint>
            <Time>2022-09-20T08:34:18.000Z</Time>
            <Position>
              <LatitudeDegrees>49.44873400032520294189453125</LatitudeDegrees>
              <LongitudeDegrees>20.1393461041152477264404296875</LongitudeDegrees>
            </Position>
            <AltitudeMeters>582.5999755859375</AltitudeMeters>
            <DistanceMeters>NAN</DistanceMeters>
          </Trackpoint>
          <Trackpoint>
            <Time>2022-09-20T08:34:25.000Z</Time>
            <Position>
              <LatitudeDegrees>49.44847441278398036956787109375</LatitudeDegrees>
              <LongitudeDegrees>20.13945632614195346832275390625</LongitudeDegrees>
            </Position>
            <AltitudeMeters>582.79998779296875</AltitudeMeters>
            <DistanceMeters>NAN</DistanceMeters>
          </Trackpoint>
          <Trackpoint>
            <Time>2022-09-20T08:34:31.000Z</Time>
            <Position>
              <LatitudeDegrees>49.44825028069317340850830078125</LatitudeDegrees>
              <LongitudeDegrees>20.13956998474895954132080078125</LongitudeDegrees>
            </Position>
            <AltitudeMeters>582.79998779296875</AltitudeMeters>
            <DistanceMeters>NAN</DistanceMeters>
          </Trackpoint>
          <Trackpoint>
            <Time>2022-09-20T08:34:32.000Z</Time>
            <Position>
              <LatitudeDegrees>49.44821457378566265106201171875</LatitudeDegrees>
              <LongitudeDegrees>20.13958691619336605072021484375</LongitudeDegrees>
            </Position>
            <AltitudeMeters>583</AltitudeMeters>
            <DistanceMeters>NAN</DistanceMeters>
          </Trackpoint>
          <Trackpoint>
            <Time>2022-09-20T08:34:35.000Z</Time>
            <Position>
              <LatitudeDegrees>49.44814567454159259796142578125</LatitudeDegrees>
              <LongitudeDegrees>20.13962161727249622344970703125</LongitudeDegrees>
            </Position>
            <AltitudeMeters>583.20001220703125</AltitudeMeters>
            <DistanceMeters>NAN</DistanceMeters>
          </Trackpoint>
          <Trackpoint>
            <Time>2022-09-20T08:34:41.000Z</Time>
            <Position>
              <LatitudeDegrees>49.447872005403041839599609375</LatitudeDegrees>
              <LongitudeDegrees>20.13975941576063632965087890625</LongitudeDegrees>
            </Position>
            <AltitudeMeters>583.4000244140625</AltitudeMeters>
            <DistanceMeters>NAN</DistanceMeters>
          </Trackpoint>
          <Trackpoint>
            <Time>2022-09-20T08:34:45.000Z</Time>
            <Position>
              <LatitudeDegrees>49.44770210422575473785400390625</LatitudeDegrees>
              <LongitudeDegrees>20.1398429833352565765380859375</LongitudeDegrees>
            </Position>
            <AltitudeMeters>583.4000244140625</AltitudeMeters>
            <DistanceMeters>NAN</DistanceMeters>
          </Trackpoint>
          <Trackpoint>
            <Time>2022-09-20T08:34:51.000Z</Time>
            <Position>
              <LatitudeDegrees>49.44747227244079113006591796875</LatitudeDegrees>
              <LongitudeDegrees>20.1399485953152179718017578125</LongitudeDegrees>
            </Position>
            <AltitudeMeters>583.79998779296875</AltitudeMeters>
            <DistanceMeters>NAN</DistanceMeters>
          </Trackpoint>
          <Trackpoint>
            <Time>2022-09-20T08:34:52.000Z</Time>
            <Position>
              <LatitudeDegrees>49.4474337995052337646484375</LatitudeDegrees>
              <LongitudeDegrees>20.1399673707783222198486328125</LongitudeDegrees>
            </Position>
            <AltitudeMeters>583.79998779296875</AltitudeMeters>
            <DistanceMeters>NAN</DistanceMeters>
          </Trackpoint>
          <Trackpoint>
            <Time>2022-09-20T08:34:57.000Z</Time>
            <Position>
              <LatitudeDegrees>49.4472368247807025909423828125</LatitudeDegrees>
              <LongitudeDegrees>20.14006652869284152984619140625</LongitudeDegrees>
            </Position>
            <AltitudeMeters>583.79998779296875</AltitudeMeters>
            <DistanceMeters>NAN</DistanceMeters>
          </Trackpoint>
          <Trackpoint>
            <Time>2022-09-20T08:35:01.000Z</Time>
            <Position>
              <LatitudeDegrees>49.4470805861055850982666015625</LatitudeDegrees>
              <LongitudeDegrees>20.14013417065143585205078125</LongitudeDegrees>
            </Position>
            <AltitudeMeters>584.20001220703125</AltitudeMeters>
            <DistanceMeters>NAN</DistanceMeters>
          </Trackpoint>
          <Trackpoint>
            <Time>2022-09-20T08:35:02.000Z</Time>
            <Position>
              <LatitudeDegrees>49.44704077206552028656005859375</LatitudeDegrees>
              <LongitudeDegrees>20.14015386812388896942138671875</LongitudeDegrees>
            </Position>
            <AltitudeMeters>584.20001220703125</AltitudeMeters>
            <DistanceMeters>NAN</DistanceMeters>
          </Trackpoint>
          <Trackpoint>
            <Time>2022-09-20T08:35:10.000Z</Time>
            <Position>
              <LatitudeDegrees>49.44672209210693836212158203125</LatitudeDegrees>
              <LongitudeDegrees>20.14030021615326404571533203125</LongitudeDegrees>
            </Position>
            <AltitudeMeters>584.79998779296875</AltitudeMeters>
            <DistanceMeters>NAN</DistanceMeters>
          </Trackpoint>
          <Trackpoint>
            <Time>2022-09-20T08:35:16.000Z</Time>
            <Position>
              <LatitudeDegrees>49.44654054008424282073974609375</LatitudeDegrees>
              <LongitudeDegrees>20.14036525972187519073486328125</LongitudeDegrees>
            </Position>
            <AltitudeMeters>585.20001220703125</AltitudeMeters>
            <DistanceMeters>NAN</DistanceMeters>
          </Trackpoint>
          <Trackpoint>
            <Time>2022-09-20T08:35:17.000Z</Time>
            <Position>
              <LatitudeDegrees>49.4465005584061145782470703125</LatitudeDegrees>
              <LongitudeDegrees>20.140381269156932830810546875</LongitudeDegrees>
            </Position>
            <AltitudeMeters>585.20001220703125</AltitudeMeters>
            <DistanceMeters>NAN</DistanceMeters>
          </Trackpoint>
          <Trackpoint>
            <Time>2022-09-20T08:35:27.000Z</Time>
            <Position>
              <LatitudeDegrees>49.44605045020580291748046875</LatitudeDegrees>
              <LongitudeDegrees>20.14055393636226654052734375</LongitudeDegrees>
            </Position>
            <AltitudeMeters>585.5999755859375</AltitudeMeters>
            <DistanceMeters>NAN</DistanceMeters>
          </Trackpoint>
          <Trackpoint>
            <Time>2022-09-20T08:35:28.000Z</Time>
            <Position>
              <LatitudeDegrees>49.44605045020580291748046875</LatitudeDegrees>
              <LongitudeDegrees>20.14055393636226654052734375</LongitudeDegrees>
            </Position>
            <AltitudeMeters>585.5999755859375</AltitudeMeters>
            <DistanceMeters>NAN</DistanceMeters>
          </Trackpoint>
          <Trackpoint>
            <Time>2022-09-20T08:35:38.000Z</Time>
            <Position>
              <LatitudeDegrees>49.44565004669129848480224609375</LatitudeDegrees>
              <LongitudeDegrees>20.14070548117160797119140625</LongitudeDegrees>
            </Position>
            <AltitudeMeters>586</AltitudeMeters>
            <DistanceMeters>NAN</DistanceMeters>
          </Trackpoint>
          <Trackpoint>
            <Time>2022-09-20T08:35:45.000Z</Time>
            <Position>
              <LatitudeDegrees>49.4453673250973224639892578125</LatitudeDegrees>
              <LongitudeDegrees>20.1408136077225208282470703125</LongitudeDegrees>
            </Position>
            <AltitudeMeters>586.20001220703125</AltitudeMeters>
            <DistanceMeters>NAN</DistanceMeters>
          </Trackpoint>
          <Trackpoint>
            <Time>2022-09-20T08:35:48.000Z</Time>
            <Position>
              <LatitudeDegrees>49.4452466256916522979736328125</LatitudeDegrees>
              <LongitudeDegrees>20.1408618874847888946533203125</LongitudeDegrees>
            </Position>
            <AltitudeMeters>586.4000244140625</AltitudeMeters>
            <DistanceMeters>NAN</DistanceMeters>
          </Trackpoint>
          <Trackpoint>
            <Time>2022-09-20T08:36:01.000Z</Time>
            <Position>
              <LatitudeDegrees>49.44476542063057422637939453125</LatitudeDegrees>
              <LongitudeDegrees>20.14105307869613170623779296875</LongitudeDegrees>
            </Position>
            <AltitudeMeters>586.79998779296875</AltitudeMeters>
            <DistanceMeters>NAN</DistanceMeters>
          </Trackpoint>
          <Trackpoint>
            <Time>2022-09-20T08:36:06.000Z</Time>
            <Position>
              <LatitudeDegrees>49.4446028955280780792236328125</LatitudeDegrees>
              <LongitudeDegrees>20.14111426658928394317626953125</LongitudeDegrees>
            </Position>
            <AltitudeMeters>587.20001220703125</AltitudeMeters>
            <DistanceMeters>NAN</DistanceMeters>
          </Trackpoint>
          <Trackpoint>
            <Time>2022-09-20T08:36:07.000Z</Time>
            <Position>
              <LatitudeDegrees>49.4445673562586307525634765625</LatitudeDegrees>
              <LongitudeDegrees>20.14113061130046844482421875</LongitudeDegrees>
            </Position>
            <AltitudeMeters>587.20001220703125</AltitudeMeters>
            <DistanceMeters>NAN</DistanceMeters>
          </Trackpoint>
          <Trackpoint>
            <Time>2022-09-20T08:36:08.000Z</Time>
            <Position>
              <LatitudeDegrees>49.44448747672140598297119140625</LatitudeDegrees>
              <LongitudeDegrees>20.14116321690380573272705078125</LongitudeDegrees>
            </Position>
            <AltitudeMeters>587.20001220703125</AltitudeMeters>
            <DistanceMeters>NAN</DistanceMeters>
          </Trackpoint>
          <Trackpoint>
            <Time>2022-09-20T08:36:11.000Z</Time>
            <Position>
              <LatitudeDegrees>49.4443769194185733795166015625</LatitudeDegrees>
              <LongitudeDegrees>20.1412104070186614990234375</LongitudeDegrees>
            </Position>
            <AltitudeMeters>587.20001220703125</AltitudeMeters>
            <DistanceMeters>NAN</DistanceMeters>
          </Trackpoint>
          <Trackpoint>
            <Time>2022-09-20T08:36:19.000Z</Time>
            <Position>
              <LatitudeDegrees>49.44405681453645229339599609375</LatitudeDegrees>
              <LongitudeDegrees>20.1413564197719097137451171875</LongitudeDegrees>
            </Position>
            <AltitudeMeters>587.5999755859375</AltitudeMeters>
            <DistanceMeters>NAN</DistanceMeters>
          </Trackpoint>
          <Trackpoint>
            <Time>2022-09-20T08:36:27.000Z</Time>
            <Position>
              <LatitudeDegrees>49.4437596760690212249755859375</LatitudeDegrees>
              <LongitudeDegrees>20.14147871173918247222900390625</LongitudeDegrees>
            </Position>
            <AltitudeMeters>588</AltitudeMeters>
            <DistanceMeters>NAN</DistanceMeters>
          </Trackpoint>
          <Trackpoint>
            <Time>2022-09-20T08:36:36.000Z</Time>
            <Position>
              <LatitudeDegrees>49.443410821259021759033203125</LatitudeDegrees>
              <LongitudeDegrees>20.14163595624268054962158203125</LongitudeDegrees>
            </Position>
            <AltitudeMeters>588.20001220703125</AltitudeMeters>
            <DistanceMeters>NAN</DistanceMeters>
          </Trackpoint>
          <Trackpoint>
            <Time>2022-09-20T08:36:37.000Z</Time>
            <Position>
              <LatitudeDegrees>49.44337536580860614776611328125</LatitudeDegrees>
              <LongitudeDegrees>20.14164852909743785858154296875</LongitudeDegrees>
            </Position>
            <AltitudeMeters>588.20001220703125</AltitudeMeters>
            <DistanceMeters>NAN</DistanceMeters>
          </Trackpoint>
          <Trackpoint>
            <Time>2022-09-20T08:36:42.000Z</Time>
            <Position>
              <LatitudeDegrees>49.4431910477578639984130859375</LatitudeDegrees>
              <LongitudeDegrees>20.14172329567372798919677734375</LongitudeDegrees>
            </Position>
            <AltitudeMeters>588.5999755859375</AltitudeMeters>
            <DistanceMeters>NAN</DistanceMeters>
          </Trackpoint>
          <Trackpoint>
            <Time>2022-09-20T08:36:44.000Z</Time>
            <Position>
              <LatitudeDegrees>49.44310546852648258209228515625</LatitudeDegrees>
              <LongitudeDegrees>20.1417533867061138153076171875</LongitudeDegrees>
            </Position>
            <AltitudeMeters>588.5999755859375</AltitudeMeters>
            <DistanceMeters>NAN</DistanceMeters>
          </Trackpoint>
          <Trackpoint>
            <Time>2022-09-20T08:36:54.000Z</Time>
            <Position>
              <LatitudeDegrees>49.4426918216049671173095703125</LatitudeDegrees>
              <LongitudeDegrees>20.1419319212436676025390625</LongitudeDegrees>
            </Position>
            <AltitudeMeters>588.79998779296875</AltitudeMeters>
            <DistanceMeters>NAN</DistanceMeters>
          </Trackpoint>
          <Trackpoint>
            <Time>2022-09-20T08:36:59.000Z</Time>
            <Position>
              <LatitudeDegrees>49.4425064139068126678466796875</LatitudeDegrees>
              <LongitudeDegrees>20.14201062731444835662841796875</LongitudeDegrees>
            </Position>
            <AltitudeMeters>589</AltitudeMeters>
            <DistanceMeters>NAN</DistanceMeters>
          </Trackpoint>
          <Trackpoint>
            <Time>2022-09-20T08:37:01.000Z</Time>
            <Position>
              <LatitudeDegrees>49.44243474863469600677490234375</LatitudeDegrees>
              <LongitudeDegrees>20.1420380361378192901611328125</LongitudeDegrees>
            </Position>
            <AltitudeMeters>589.20001220703125</AltitudeMeters>
            <DistanceMeters>NAN</DistanceMeters>
          </Trackpoint>
          <Trackpoint>
            <Time>2022-09-20T08:37:02.000Z</Time>
            <Position>
              <LatitudeDegrees>49.4424028135836124420166015625</LatitudeDegrees>
              <LongitudeDegrees>20.1420521177351474761962890625</LongitudeDegrees>
            </Position>
            <AltitudeMeters>589.4000244140625</AltitudeMeters>
            <DistanceMeters>NAN</DistanceMeters>
          </Trackpoint>
          <Trackpoint>
            <Time>2022-09-20T08:37:06.000Z</Time>
            <Position>
              <LatitudeDegrees>49.4422509334981441497802734375</LatitudeDegrees>
              <LongitudeDegrees>20.14211674220860004425048828125</LongitudeDegrees>
            </Position>
            <AltitudeMeters>589.4000244140625</AltitudeMeters>
            <DistanceMeters>NAN</DistanceMeters>
          </Trackpoint>
          <Trackpoint>
            <Time>2022-09-20T08:37:11.000Z</Time>
            <Position>
              <LatitudeDegrees>49.442078769207000732421875</LatitudeDegrees>
              <LongitudeDegrees>20.14219938777387142181396484375</LongitudeDegrees>
            </Position>
            <AltitudeMeters>589.5999755859375</AltitudeMeters>
            <DistanceMeters>NAN</DistanceMeters>
          </Trackpoint>
          <Trackpoint>
            <Time>2022-09-20T08:37:20.000Z</Time>
            <Position>
              <LatitudeDegrees>49.44182923994958400726318359375</LatitudeDegrees>
              <LongitudeDegrees>20.1424061693251132965087890625</LongitudeDegrees>
            </Position>
            <AltitudeMeters>590</AltitudeMeters>
            <DistanceMeters>NAN</DistanceMeters>
          </Trackpoint>
          <Trackpoint>
            <Time>2022-09-20T08:37:27.000Z</Time>
            <Position>
              <LatitudeDegrees>49.441601000726222991943359375</LatitudeDegrees>
              <LongitudeDegrees>20.14271470718085765838623046875</LongitudeDegrees>
            </Position>
            <AltitudeMeters>589.79998779296875</AltitudeMeters>
            <DistanceMeters>NAN</DistanceMeters>
          </Trackpoint>
          <Trackpoint>
            <Time>2022-09-20T08:37:33.000Z</Time>
            <Position>
              <LatitudeDegrees>49.441394470632076263427734375</LatitudeDegrees>
              <LongitudeDegrees>20.1430069841444492340087890625</LongitudeDegrees>
            </Position>
            <AltitudeMeters>589.5999755859375</AltitudeMeters>
            <DistanceMeters>NAN</DistanceMeters>
          </Trackpoint>
          <Trackpoint>
            <Time>2022-09-20T08:37:35.000Z</Time>
            <Position>
              <LatitudeDegrees>49.44135951809585094451904296875</LatitudeDegrees>
              <LongitudeDegrees>20.1430545933544635772705078125</LongitudeDegrees>
            </Position>
            <AltitudeMeters>589.5999755859375</AltitudeMeters>
            <DistanceMeters>NAN</DistanceMeters>
          </Trackpoint>
          <Trackpoint>
            <Time>2022-09-20T08:37:44.000Z</Time>
            <Position>
              <LatitudeDegrees>49.44103530608117580413818359375</LatitudeDegrees>
              <LongitudeDegrees>20.14355725608766078948974609375</LongitudeDegrees>
            </Position>
            <AltitudeMeters>589.79998779296875</AltitudeMeters>
            <DistanceMeters>NAN</DistanceMeters>
          </Trackpoint>
          <Trackpoint>
            <Time>2022-09-20T08:37:51.000Z</Time>
            <Position>
              <LatitudeDegrees>49.44089164026081562042236328125</LatitudeDegrees>
              <LongitudeDegrees>20.14379915781319141387939453125</LongitudeDegrees>
            </Position>
            <AltitudeMeters>589.5999755859375</AltitudeMeters>
            <DistanceMeters>NAN</DistanceMeters>
          </Trackpoint>
          <Trackpoint>
            <Time>2022-09-20T08:37:54.000Z</Time>
            <Position>
              <LatitudeDegrees>49.4407918117940425872802734375</LatitudeDegrees>
              <LongitudeDegrees>20.14392170123755931854248046875</LongitudeDegrees>
            </Position>
            <AltitudeMeters>589.5999755859375</AltitudeMeters>
            <DistanceMeters>NAN</DistanceMeters>
          </Trackpoint>
          <Trackpoint>
            <Time>2022-09-20T08:37:56.000Z</Time>
            <Position>
              <LatitudeDegrees>49.44074076600372791290283203125</LatitudeDegrees>
              <LongitudeDegrees>20.14391114003956317901611328125</LongitudeDegrees>
            </Position>
            <AltitudeMeters>589.79998779296875</AltitudeMeters>
            <DistanceMeters>NAN</DistanceMeters>
          </Trackpoint>
          <Trackpoint>
            <Time>2022-09-20T08:38:01.000Z</Time>
            <Position>
              <LatitudeDegrees>49.4406536780297756195068359375</LatitudeDegrees>
              <LongitudeDegrees>20.1437719166278839111328125</LongitudeDegrees>
            </Position>
            <AltitudeMeters>589.79998779296875</AltitudeMeters>
            <DistanceMeters>NAN</DistanceMeters>
          </Trackpoint>
          <Trackpoint>
            <Time>2022-09-20T08:38:02.000Z</Time>
            <Position>
              <LatitudeDegrees>49.44063146598637104034423828125</LatitudeDegrees>
              <LongitudeDegrees>20.14374216087162494659423828125</LongitudeDegrees>
            </Position>
            <AltitudeMeters>589.5999755859375</AltitudeMeters>
            <DistanceMeters>NAN</DistanceMeters>
          </Trackpoint>
          <Trackpoint>
            <Time>2022-09-20T08:38:09.000Z</Time>
            <Position>
              <LatitudeDegrees>49.44052400998771190643310546875</LatitudeDegrees>
              <LongitudeDegrees>20.14351702295243740081787109375</LongitudeDegrees>
            </Position>
            <AltitudeMeters>589.79998779296875</AltitudeMeters>
            <DistanceMeters>NAN</DistanceMeters>
          </Trackpoint>
          <Trackpoint>
            <Time>2022-09-20T08:38:14.000Z</Time>
            <Position>
              <LatitudeDegrees>49.44043390452861785888671875</LatitudeDegrees>
              <LongitudeDegrees>20.14333941042423248291015625</LongitudeDegrees>
            </Position>
            <AltitudeMeters>590</AltitudeMeters>
            <DistanceMeters>NAN</DistanceMeters>
          </Trackpoint>
          <Trackpoint>
            <Time>2022-09-20T08:38:19.000Z</Time>
            <Position>
              <LatitudeDegrees>49.44034161977469921112060546875</LatitudeDegrees>
              <LongitudeDegrees>20.143147297203540802001953125</LongitudeDegrees>
            </Position>
            <AltitudeMeters>590.20001220703125</AltitudeMeters>
            <DistanceMeters>NAN</DistanceMeters>
          </Trackpoint>
          <Trackpoint>
            <Time>2022-09-20T08:38:20.000Z</Time>
            <Position>
              <LatitudeDegrees>49.4403237663209438323974609375</LatitudeDegrees>
              <LongitudeDegrees>20.1431186310946941375732421875</LongitudeDegrees>
            </Position>
            <AltitudeMeters>590.4000244140625</AltitudeMeters>
            <DistanceMeters>NAN</DistanceMeters>
          </Trackpoint>
          <Trackpoint>
            <Time>2022-09-20T08:38:25.000Z</Time>
            <Position>
              <LatitudeDegrees>49.440214969217777252197265625</LatitudeDegrees>
              <LongitudeDegrees>20.14292056672275066375732421875</LongitudeDegrees>
            </Position>
            <AltitudeMeters>590.4000244140625</AltitudeMeters>
            <DistanceMeters>NAN</DistanceMeters>
          </Trackpoint>
          <Trackpoint>
            <Time>2022-09-20T08:38:26.000Z</Time>
            <Position>
              <LatitudeDegrees>49.44019426591694355010986328125</LatitudeDegrees>
              <LongitudeDegrees>20.142881087958812713623046875</LongitudeDegrees>
            </Position>
            <AltitudeMeters>590.5999755859375</AltitudeMeters>
            <DistanceMeters>NAN</DistanceMeters>
          </Trackpoint>
          <Trackpoint>
            <Time>2022-09-20T08:38:35.000Z</Time>
            <Position>
              <LatitudeDegrees>49.43999796174466609954833984375</LatitudeDegrees>
              <LongitudeDegrees>20.1424816064536571502685546875</LongitudeDegrees>
            </Position>
            <AltitudeMeters>591</AltitudeMeters>
            <DistanceMeters>NAN</DistanceMeters>
          </Trackpoint>
          <Trackpoint>
            <Time>2022-09-20T08:38:42.000Z</Time>
            <Position>
              <LatitudeDegrees>49.43985144607722759246826171875</LatitudeDegrees>
              <LongitudeDegrees>20.14219301752746105194091796875</LongitudeDegrees>
            </Position>
            <AltitudeMeters>591</AltitudeMeters>
            <DistanceMeters>NAN</DistanceMeters>
          </Trackpoint>
          <Trackpoint>
            <Time>2022-09-20T08:38:44.000Z</Time>
            <Position>
              <LatitudeDegrees>49.43980920128524303436279296875</LatitudeDegrees>
              <LongitudeDegrees>20.14210299588739871978759765625</LongitudeDegrees>
            </Position>
            <AltitudeMeters>591.4000244140625</AltitudeMeters>
            <DistanceMeters>NAN</DistanceMeters>
          </Trackpoint>
          <Trackpoint>
            <Time>2022-09-20T08:38:45.000Z</Time>
            <Position>
              <LatitudeDegrees>49.4397921860218048095703125</LatitudeDegrees>
              <LongitudeDegrees>20.14207131229341030120849609375</LongitudeDegrees>
            </Position>
            <AltitudeMeters>591.5999755859375</AltitudeMeters>
            <DistanceMeters>NAN</DistanceMeters>
          </Trackpoint>
          <Trackpoint>
            <Time>2022-09-20T08:38:49.000Z</Time>
            <Position>
              <LatitudeDegrees>49.4397323392331600189208984375</LatitudeDegrees>
              <LongitudeDegrees>20.1419535465538501739501953125</LongitudeDegrees>
            </Position>
            <AltitudeMeters>591.79998779296875</AltitudeMeters>
            <DistanceMeters>NAN</DistanceMeters>
          </Trackpoint>
          <Trackpoint>
            <Time>2022-09-20T08:38:51.000Z</Time>
            <Position>
              <LatitudeDegrees>49.43967391736805438995361328125</LatitudeDegrees>
              <LongitudeDegrees>20.141828320920467376708984375</LongitudeDegrees>
            </Position>
            <AltitudeMeters>591.79998779296875</AltitudeMeters>
            <DistanceMeters>NAN</DistanceMeters>
          </Trackpoint>
          <Trackpoint>
            <Time>2022-09-20T08:38:52.000Z</Time>
            <Position>
              <LatitudeDegrees>49.43967391736805438995361328125</LatitudeDegrees>
              <LongitudeDegrees>20.141828320920467376708984375</LongitudeDegrees>
            </Position>
            <AltitudeMeters>592</AltitudeMeters>
            <DistanceMeters>NAN</DistanceMeters>
          </Trackpoint>
          <Trackpoint>
            <Time>2022-09-20T08:38:55.000Z</Time>
            <Position>
              <LatitudeDegrees>49.4396304152905941009521484375</LatitudeDegrees>
              <LongitudeDegrees>20.14172279275953769683837890625</LongitudeDegrees>
            </Position>
            <AltitudeMeters>592.20001220703125</AltitudeMeters>
            <DistanceMeters>NAN</DistanceMeters>
          </Trackpoint>
          <Trackpoint>
            <Time>2022-09-20T08:38:58.000Z</Time>
            <Position>
              <LatitudeDegrees>49.43956076167523860931396484375</LatitudeDegrees>
              <LongitudeDegrees>20.1415800489485263824462890625</LongitudeDegrees>
            </Position>
            <AltitudeMeters>592.4000244140625</AltitudeMeters>
            <DistanceMeters>NAN</DistanceMeters>
          </Trackpoint>
          <Trackpoint>
            <Time>2022-09-20T08:39:04.000Z</Time>
            <Position>
              <LatitudeDegrees>49.43946587853133678436279296875</LatitudeDegrees>
              <LongitudeDegrees>20.1414003409445285797119140625</LongitudeDegrees>
            </Position>
            <AltitudeMeters>592.79998779296875</AltitudeMeters>
            <DistanceMeters>NAN</DistanceMeters>
          </Trackpoint>
          <Trackpoint>
            <Time>2022-09-20T08:39:14.000Z</Time>
            <Position>
              <LatitudeDegrees>49.43925297819077968597412109375</LatitudeDegrees>
              <LongitudeDegrees>20.1409540884196758270263671875</LongitudeDegrees>
            </Position>
            <AltitudeMeters>593.4000244140625</AltitudeMeters>
            <DistanceMeters>NAN</DistanceMeters>
          </Trackpoint>
          <Trackpoint>
            <Time>2022-09-20T08:39:18.000Z</Time>
            <Position>
              <LatitudeDegrees>49.43917972035706043243408203125</LatitudeDegrees>
              <LongitudeDegrees>20.14079106040298938751220703125</LongitudeDegrees>
            </Position>
            <AltitudeMeters>593.5999755859375</AltitudeMeters>
            <DistanceMeters>NAN</DistanceMeters>
          </Trackpoint>
          <Trackpoint>
            <Time>2022-09-20T08:39:23.000Z</Time>
            <Position>
              <LatitudeDegrees>49.43909338675439357757568359375</LatitudeDegrees>
              <LongitudeDegrees>20.14058612287044525146484375</LongitudeDegrees>
            </Position>
            <AltitudeMeters>593.79998779296875</AltitudeMeters>
            <DistanceMeters>NAN</DistanceMeters>
          </Trackpoint>
          <Trackpoint>
            <Time>2022-09-20T08:39:30.000Z</Time>
            <Position>
              <LatitudeDegrees>49.43895240314304828643798828125</LatitudeDegrees>
              <LongitudeDegrees>20.14026719145476818084716796875</LongitudeDegrees>
            </Position>
            <AltitudeMeters>594</AltitudeMeters>
            <DistanceMeters>NAN</DistanceMeters>
          </Trackpoint>
          <Trackpoint>
            <Time>2022-09-20T08:39:31.000Z</Time>
            <Position>
              <LatitudeDegrees>49.43893186748027801513671875</LatitudeDegrees>
              <LongitudeDegrees>20.14022075571119785308837890625</LongitudeDegrees>
            </Position>
            <AltitudeMeters>594.20001220703125</AltitudeMeters>
            <DistanceMeters>NAN</DistanceMeters>
          </Trackpoint>
          <Trackpoint>
            <Time>2022-09-20T08:39:32.000Z</Time>
            <Position>
              <LatitudeDegrees>49.438914768397808074951171875</LatitudeDegrees>
              <LongitudeDegrees>20.14017566107213497161865234375</LongitudeDegrees>
            </Position>
            <AltitudeMeters>594.20001220703125</AltitudeMeters>
            <DistanceMeters>NAN</DistanceMeters>
          </Trackpoint>
          <Trackpoint>
            <Time>2022-09-20T08:39:42.000Z</Time>
            <Position>
              <LatitudeDegrees>49.4387300312519073486328125</LatitudeDegrees>
              <LongitudeDegrees>20.13970174826681613922119140625</LongitudeDegrees>
            </Position>
            <AltitudeMeters>594.5999755859375</AltitudeMeters>
            <DistanceMeters>NAN</DistanceMeters>
          </Trackpoint>
          <Trackpoint>
            <Time>2022-09-20T08:39:43.000Z</Time>
            <Position>
              <LatitudeDegrees>49.4387300312519073486328125</LatitudeDegrees>
              <LongitudeDegrees>20.13970174826681613922119140625</LongitudeDegrees>
            </Position>
            <AltitudeMeters>594.5999755859375</AltitudeMeters>
            <DistanceMeters>NAN</DistanceMeters>
          </Trackpoint>
          <Trackpoint>
            <Time>2022-09-20T08:39:52.000Z</Time>
            <Position>
              <LatitudeDegrees>49.438559710979461669921875</LatitudeDegrees>
              <LongitudeDegrees>20.13933110050857067108154296875</LongitudeDegrees>
            </Position>
            <AltitudeMeters>594.4000244140625</AltitudeMeters>
            <DistanceMeters>NAN</DistanceMeters>
          </Trackpoint>
          <Trackpoint>
            <Time>2022-09-20T08:39:58.000Z</Time>
            <Position>
              <LatitudeDegrees>49.43847798742353916168212890625</LatitudeDegrees>
              <LongitudeDegrees>20.1391191221773624420166015625</LongitudeDegrees>
            </Position>
            <AltitudeMeters>594.5999755859375</AltitudeMeters>
            <DistanceMeters>NAN</DistanceMeters>
          </Trackpoint>
          <Trackpoint>
            <Time>2022-09-20T08:40:09.000Z</Time>
            <Position>
              <LatitudeDegrees>49.4383023865520954132080078125</LatitudeDegrees>
              <LongitudeDegrees>20.13876548968255519866943359375</LongitudeDegrees>
            </Position>
            <AltitudeMeters>594.5999755859375</AltitudeMeters>
            <DistanceMeters>NAN</DistanceMeters>
          </Trackpoint>
          <Trackpoint>
            <Time>2022-09-20T08:40:16.000Z</Time>
            <Position>
              <LatitudeDegrees>49.43817607127130031585693359375</LatitudeDegrees>
              <LongitudeDegrees>20.13850682415068149566650390625</LongitudeDegrees>
            </Position>
            <AltitudeMeters>594.79998779296875</AltitudeMeters>
            <DistanceMeters>NAN</DistanceMeters>
          </Trackpoint>
          <Trackpoint>
            <Time>2022-09-20T08:40:23.000Z</Time>
            <Position>
              <LatitudeDegrees>49.43802335299551486968994140625</LatitudeDegrees>
              <LongitudeDegrees>20.13822653330862522125244140625</LongitudeDegrees>
            </Position>
            <AltitudeMeters>595.20001220703125</AltitudeMeters>
            <DistanceMeters>NAN</DistanceMeters>
          </Trackpoint>
          <Trackpoint>
            <Time>2022-09-20T08:40:26.000Z</Time>
            <Position>
              <LatitudeDegrees>49.43797021172940731048583984375</LatitudeDegrees>
              <LongitudeDegrees>20.13812075369060039520263671875</LongitudeDegrees>
            </Position>
            <AltitudeMeters>595.5999755859375</AltitudeMeters>
            <DistanceMeters>NAN</DistanceMeters>
          </Trackpoint>
          <Trackpoint>
            <Time>2022-09-20T08:40:27.000Z</Time>
            <Position>
              <LatitudeDegrees>49.43795210681855678558349609375</LatitudeDegrees>
              <LongitudeDegrees>20.138089656829833984375</LongitudeDegrees>
            </Position>
            <AltitudeMeters>595.79998779296875</AltitudeMeters>
            <DistanceMeters>NAN</DistanceMeters>
          </Trackpoint>
          <Trackpoint>
            <Time>2022-09-20T08:40:30.000Z</Time>
            <Position>
              <LatitudeDegrees>49.4379074312746524810791015625</LatitudeDegrees>
              <LongitudeDegrees>20.137990750372409820556640625</LongitudeDegrees>
            </Position>
            <AltitudeMeters>596</AltitudeMeters>
            <DistanceMeters>NAN</DistanceMeters>
          </Trackpoint>
          <Trackpoint>
            <Time>2022-09-20T08:40:36.000Z</Time>
            <Position>
              <LatitudeDegrees>49.43780709989368915557861328125</LatitudeDegrees>
              <LongitudeDegrees>20.1378034986555576324462890625</LongitudeDegrees>
            </Position>
            <AltitudeMeters>596</AltitudeMeters>
            <DistanceMeters>NAN</DistanceMeters>
          </Trackpoint>
          <Trackpoint>
            <Time>2022-09-20T08:40:41.000Z</Time>
            <Position>
              <LatitudeDegrees>49.4377662800252437591552734375</LatitudeDegrees>
              <LongitudeDegrees>20.1377173326909542083740234375</LongitudeDegrees>
            </Position>
            <AltitudeMeters>596.20001220703125</AltitudeMeters>
            <DistanceMeters>NAN</DistanceMeters>
          </Trackpoint>
          <Trackpoint>
            <Time>2022-09-20T08:40:43.000Z</Time>
            <Position>
              <LatitudeDegrees>49.4377739913761615753173828125</LatitudeDegrees>
              <LongitudeDegrees>20.13773233629763126373291015625</LongitudeDegrees>
            </Position>
            <AltitudeMeters>596</AltitudeMeters>
            <DistanceMeters>NAN</DistanceMeters>
          </Trackpoint>
          <Trackpoint>
            <Time>2022-09-20T08:40:44.000Z</Time>
            <Position>
              <LatitudeDegrees>49.4377810321748256683349609375</LatitudeDegrees>
              <LongitudeDegrees>20.13775077648460865020751953125</LongitudeDegrees>
            </Position>
            <AltitudeMeters>596</AltitudeMeters>
            <DistanceMeters>NAN</DistanceMeters>
          </Trackpoint>
          <Trackpoint>
            <Time>2022-09-20T08:40:45.000Z</Time>
            <Position>
              <LatitudeDegrees>49.4377890788018703460693359375</LatitudeDegrees>
              <LongitudeDegrees>20.13777776621282100677490234375</LongitudeDegrees>
            </Position>
            <AltitudeMeters>596</AltitudeMeters>
            <DistanceMeters>NAN</DistanceMeters>
          </Trackpoint>
          <Trackpoint>
            <Time>2022-09-20T08:40:49.000Z</Time>
            <Position>
              <LatitudeDegrees>49.43779922090470790863037109375</LatitudeDegrees>
              <LongitudeDegrees>20.13793936930596828460693359375</LongitudeDegrees>
            </Position>
            <AltitudeMeters>595.79998779296875</AltitudeMeters>
            <DistanceMeters>NAN</DistanceMeters>
          </Trackpoint>
          <Trackpoint>
            <Time>2022-09-20T08:40:50.000Z</Time>
            <Position>
              <LatitudeDegrees>49.43779922090470790863037109375</LatitudeDegrees>
              <LongitudeDegrees>20.13793936930596828460693359375</LongitudeDegrees>
            </Position>
            <AltitudeMeters>595.79998779296875</AltitudeMeters>
            <DistanceMeters>NAN</DistanceMeters>
          </Trackpoint>
          <Trackpoint>
            <Time>2022-09-20T08:40:55.000Z</Time>
            <Position>
              <LatitudeDegrees>49.4376978836953639984130859375</LatitudeDegrees>
              <LongitudeDegrees>20.13819359242916107177734375</LongitudeDegrees>
            </Position>
            <AltitudeMeters>595.5999755859375</AltitudeMeters>
            <DistanceMeters>NAN</DistanceMeters>
          </Trackpoint>
          <Trackpoint>
            <Time>2022-09-20T08:41:01.000Z</Time>
            <Position>
              <LatitudeDegrees>49.43760710768401622772216796875</LatitudeDegrees>
              <LongitudeDegrees>20.1383593864738941192626953125</LongitudeDegrees>
            </Position>
            <AltitudeMeters>595.4000244140625</AltitudeMeters>
            <DistanceMeters>NAN</DistanceMeters>
          </Trackpoint>
          <Trackpoint>
            <Time>2022-09-20T08:41:07.000Z</Time>
            <Position>
              <LatitudeDegrees>49.43752060644328594207763671875</LatitudeDegrees>
              <LongitudeDegrees>20.1383687742054462432861328125</LongitudeDegrees>
            </Position>
            <AltitudeMeters>595.20001220703125</AltitudeMeters>
            <DistanceMeters>NAN</DistanceMeters>
          </Trackpoint>
          <Trackpoint>
            <Time>2022-09-20T08:41:08.000Z</Time>
            <Position>
              <LatitudeDegrees>49.4375007413327693939208984375</LatitudeDegrees>
              <LongitudeDegrees>20.13835326768457889556884765625</LongitudeDegrees>
            </Position>
            <AltitudeMeters>595.20001220703125</AltitudeMeters>
            <DistanceMeters>NAN</DistanceMeters>
          </Trackpoint>
          <Trackpoint>
            <Time>2022-09-20T08:41:12.000Z</Time>
            <Position>
              <LatitudeDegrees>49.4374273158609867095947265625</LatitudeDegrees>
              <LongitudeDegrees>20.1382373459637165069580078125</LongitudeDegrees>
            </Position>
            <AltitudeMeters>595.4000244140625</AltitudeMeters>
            <DistanceMeters>NAN</DistanceMeters>
          </Trackpoint>
          <Trackpoint>
            <Time>2022-09-20T08:41:20.000Z</Time>
            <Position>
              <LatitudeDegrees>49.43725707940757274627685546875</LatitudeDegrees>
              <LongitudeDegrees>20.13797004707157611846923828125</LongitudeDegrees>
            </Position>
            <AltitudeMeters>595.5999755859375</AltitudeMeters>
            <DistanceMeters>NAN</DistanceMeters>
          </Trackpoint>
          <Trackpoint>
            <Time>2022-09-20T08:41:31.000Z</Time>
            <Position>
              <LatitudeDegrees>49.43699455820024013519287109375</LatitudeDegrees>
              <LongitudeDegrees>20.13771389611065387725830078125</LongitudeDegrees>
            </Position>
            <AltitudeMeters>596.20001220703125</AltitudeMeters>
            <DistanceMeters>NAN</DistanceMeters>
          </Trackpoint>
          <Trackpoint>
            <Time>2022-09-20T08:41:39.000Z</Time>
            <Position>
              <LatitudeDegrees>49.43678651936352252960205078125</LatitudeDegrees>
              <LongitudeDegrees>20.137512646615505218505859375</LongitudeDegrees>
            </Position>
            <AltitudeMeters>596.20001220703125</AltitudeMeters>
            <DistanceMeters>NAN</DistanceMeters>
          </Trackpoint>
          <Trackpoint>
            <Time>2022-09-20T08:41:46.000Z</Time>
            <Position>
              <LatitudeDegrees>49.43658987991511821746826171875</LatitudeDegrees>
              <LongitudeDegrees>20.137336291372776031494140625</LongitudeDegrees>
            </Position>
            <AltitudeMeters>596.79998779296875</AltitudeMeters>
            <DistanceMeters>NAN</DistanceMeters>
          </Trackpoint>
          <Trackpoint>
            <Time>2022-09-20T08:41:47.000Z</Time>
            <Position>
              <LatitudeDegrees>49.43655920214951038360595703125</LatitudeDegrees>
              <LongitudeDegrees>20.13731407932937145233154296875</LongitudeDegrees>
            </Position>
            <AltitudeMeters>596.79998779296875</AltitudeMeters>
            <DistanceMeters>NAN</DistanceMeters>
          </Trackpoint>
          <Trackpoint>
            <Time>2022-09-20T08:41:54.000Z</Time>
            <Position>
              <LatitudeDegrees>49.43637228570878505706787109375</LatitudeDegrees>
              <LongitudeDegrees>20.137119702994823455810546875</LongitudeDegrees>
            </Position>
            <AltitudeMeters>596.79998779296875</AltitudeMeters>
            <DistanceMeters>NAN</DistanceMeters>
          </Trackpoint>
          <Trackpoint>
            <Time>2022-09-20T08:41:55.000Z</Time>
            <Position>
              <LatitudeDegrees>49.43633993156254291534423828125</LatitudeDegrees>
              <LongitudeDegrees>20.13708760030567646026611328125</LongitudeDegrees>
            </Position>
            <AltitudeMeters>596.5999755859375</AltitudeMeters>
            <DistanceMeters>NAN</DistanceMeters>
          </Trackpoint>
          <Trackpoint>
            <Time>2022-09-20T08:41:56.000Z</Time>
            <Position>
              <LatitudeDegrees>49.43631470203399658203125</LatitudeDegrees>
              <LongitudeDegrees>20.1370595209300518035888671875</LongitudeDegrees>
            </Position>
            <AltitudeMeters>596.5999755859375</AltitudeMeters>
            <DistanceMeters>NAN</DistanceMeters>
          </Trackpoint>
          <Trackpoint>
            <Time>2022-09-20T08:42:00.000Z</Time>
            <Position>
              <LatitudeDegrees>49.4362310506403446197509765625</LatitudeDegrees>
              <LongitudeDegrees>20.13697394169867038726806640625</LongitudeDegrees>
            </Position>
            <AltitudeMeters>596.4000244140625</AltitudeMeters>
            <DistanceMeters>NAN</DistanceMeters>
          </Trackpoint>
          <Trackpoint>
            <Time>2022-09-20T08:42:08.000Z</Time>
            <Position>
              <LatitudeDegrees>49.43603374063968658447265625</LatitudeDegrees>
              <LongitudeDegrees>20.13678417541086673736572265625</LongitudeDegrees>
            </Position>
            <AltitudeMeters>597</AltitudeMeters>
            <DistanceMeters>NAN</DistanceMeters>
          </Trackpoint>
          <Trackpoint>
            <Time>2022-09-20T08:42:16.000Z</Time>
            <Position>
              <LatitudeDegrees>49.43585679866373538970947265625</LatitudeDegrees>
              <LongitudeDegrees>20.13654411770403385162353515625</LongitudeDegrees>
            </Position>
            <AltitudeMeters>597.4000244140625</AltitudeMeters>
            <DistanceMeters>NAN</DistanceMeters>
          </Trackpoint>
          <Trackpoint>
            <Time>2022-09-20T08:42:18.000Z</Time>
            <Position>
              <LatitudeDegrees>49.435835592448711395263671875</LatitudeDegrees>
              <LongitudeDegrees>20.136504136025905609130859375</LongitudeDegrees>
            </Position>
            <AltitudeMeters>597.4000244140625</AltitudeMeters>
            <DistanceMeters>NAN</DistanceMeters>
          </Trackpoint>
          <Trackpoint>
            <Time>2022-09-20T08:42:20.000Z</Time>
            <Position>
              <LatitudeDegrees>49.43578219972550868988037109375</LatitudeDegrees>
              <LongitudeDegrees>20.13640196062624454498291015625</LongitudeDegrees>
            </Position>
            <AltitudeMeters>597.4000244140625</AltitudeMeters>
            <DistanceMeters>NAN</DistanceMeters>
          </Trackpoint>
          <Trackpoint>
            <Time>2022-09-20T08:42:21.000Z</Time>
            <Position>
              <LatitudeDegrees>49.43578219972550868988037109375</LatitudeDegrees>
              <LongitudeDegrees>20.13640196062624454498291015625</LongitudeDegrees>
            </Position>
            <AltitudeMeters>597.5999755859375</AltitudeMeters>
            <DistanceMeters>NAN</DistanceMeters>
          </Trackpoint>
          <Trackpoint>
            <Time>2022-09-20T08:42:22.000Z</Time>
            <Position>
              <LatitudeDegrees>49.4357643462717533111572265625</LatitudeDegrees>
              <LongitudeDegrees>20.13636223040521144866943359375</LongitudeDegrees>
            </Position>
            <AltitudeMeters>597.5999755859375</AltitudeMeters>
            <DistanceMeters>NAN</DistanceMeters>
          </Trackpoint>
          <Trackpoint>
            <Time>2022-09-20T08:42:23.000Z</Time>
            <Position>
              <LatitudeDegrees>49.4357278011739253997802734375</LatitudeDegrees>
              <LongitudeDegrees>20.13628394342958927154541015625</LongitudeDegrees>
            </Position>
            <AltitudeMeters>597.79998779296875</AltitudeMeters>
            <DistanceMeters>NAN</DistanceMeters>
          </Trackpoint>
          <Trackpoint>
            <Time>2022-09-20T08:42:26.000Z</Time>
            <Position>
              <LatitudeDegrees>49.4356721453368663787841796875</LatitudeDegrees>
              <LongitudeDegrees>20.13615100644528865814208984375</LongitudeDegrees>
            </Position>
            <AltitudeMeters>598</AltitudeMeters>
            <DistanceMeters>NAN</DistanceMeters>
          </Trackpoint>
          <Trackpoint>
            <Time>2022-09-20T08:42:30.000Z</Time>
            <Position>
              <LatitudeDegrees>49.4355983845889568328857421875</LatitudeDegrees>
              <LongitudeDegrees>20.1359940133988857269287109375</LongitudeDegrees>
            </Position>
            <AltitudeMeters>598.20001220703125</AltitudeMeters>
            <DistanceMeters>NAN</DistanceMeters>
          </Trackpoint>
          <Trackpoint>
            <Time>2022-09-20T08:42:35.000Z</Time>
            <Position>
              <LatitudeDegrees>49.4355182535946369171142578125</LatitudeDegrees>
              <LongitudeDegrees>20.13579276390373706817626953125</LongitudeDegrees>
            </Position>
            <AltitudeMeters>598.5999755859375</AltitudeMeters>
            <DistanceMeters>NAN</DistanceMeters>
          </Trackpoint>
          <Trackpoint>
            <Time>2022-09-20T08:42:37.000Z</Time>
            <Position>
              <LatitudeDegrees>49.435486234724521636962890625</LatitudeDegrees>
              <LongitudeDegrees>20.13572487048804759979248046875</LongitudeDegrees>
            </Position>
            <AltitudeMeters>598.5999755859375</AltitudeMeters>
            <DistanceMeters>NAN</DistanceMeters>
          </Trackpoint>
          <Trackpoint>
            <Time>2022-09-20T08:42:43.000Z</Time>
            <Position>
              <LatitudeDegrees>49.43538665771484375</LatitudeDegrees>
              <LongitudeDegrees>20.13551565818488597869873046875</LongitudeDegrees>
            </Position>
            <AltitudeMeters>598.4000244140625</AltitudeMeters>
            <DistanceMeters>NAN</DistanceMeters>
          </Trackpoint>
          <Trackpoint>
            <Time>2022-09-20T08:42:50.000Z</Time>
            <Position>
              <LatitudeDegrees>49.43527308292686939239501953125</LatitudeDegrees>
              <LongitudeDegrees>20.13522665016353130340576171875</LongitudeDegrees>
            </Position>
            <AltitudeMeters>599</AltitudeMeters>
            <DistanceMeters>NAN</DistanceMeters>
          </Trackpoint>
          <Trackpoint>
            <Time>2022-09-20T08:43:02.000Z</Time>
            <Position>
              <LatitudeDegrees>49.43506814539432525634765625</LatitudeDegrees>
              <LongitudeDegrees>20.1347541622817516326904296875</LongitudeDegrees>
            </Position>
            <AltitudeMeters>599.20001220703125</AltitudeMeters>
            <DistanceMeters>NAN</DistanceMeters>
          </Trackpoint>
          <Trackpoint>
            <Time>2022-09-20T08:43:06.000Z</Time>
            <Position>
              <LatitudeDegrees>49.4350002519786357879638671875</LatitudeDegrees>
              <LongitudeDegrees>20.13459146954119205474853515625</LongitudeDegrees>
            </Position>
            <AltitudeMeters>599.5999755859375</AltitudeMeters>
            <DistanceMeters>NAN</DistanceMeters>
          </Trackpoint>
          <Trackpoint>
            <Time>2022-09-20T08:43:11.000Z</Time>
            <Position>
              <LatitudeDegrees>49.43492724560201168060302734375</LatitudeDegrees>
              <LongitudeDegrees>20.1344111748039722442626953125</LongitudeDegrees>
            </Position>
            <AltitudeMeters>599.5999755859375</AltitudeMeters>
            <DistanceMeters>NAN</DistanceMeters>
          </Trackpoint>
          <Trackpoint>
            <Time>2022-09-20T08:43:17.000Z</Time>
            <Position>
              <LatitudeDegrees>49.43483755923807621002197265625</LatitudeDegrees>
              <LongitudeDegrees>20.1342224143445491790771484375</LongitudeDegrees>
            </Position>
            <AltitudeMeters>599.79998779296875</AltitudeMeters>
            <DistanceMeters>NAN</DistanceMeters>
          </Trackpoint>
          <Trackpoint>
            <Time>2022-09-20T08:43:18.000Z</Time>
            <Position>
              <LatitudeDegrees>49.43481559865176677703857421875</LatitudeDegrees>
              <LongitudeDegrees>20.13418997637927532196044921875</LongitudeDegrees>
            </Position>
            <AltitudeMeters>600</AltitudeMeters>
            <DistanceMeters>NAN</DistanceMeters>
          </Trackpoint>
          <Trackpoint>
            <Time>2022-09-20T08:43:19.000Z</Time>
            <Position>
              <LatitudeDegrees>49.43477486260235309600830078125</LatitudeDegrees>
              <LongitudeDegrees>20.134116299450397491455078125</LongitudeDegrees>
            </Position>
            <AltitudeMeters>600</AltitudeMeters>
            <DistanceMeters>NAN</DistanceMeters>
          </Trackpoint>
          <Trackpoint>
            <Time>2022-09-20T08:43:25.000Z</Time>
            <Position>
              <LatitudeDegrees>49.4346398301422595977783203125</LatitudeDegrees>
              <LongitudeDegrees>20.1339444704353809356689453125</LongitudeDegrees>
            </Position>
            <AltitudeMeters>600.79998779296875</AltitudeMeters>
            <DistanceMeters>NAN</DistanceMeters>
          </Trackpoint>
          <Trackpoint>
            <Time>2022-09-20T08:43:30.000Z</Time>
            <Position>
              <LatitudeDegrees>49.43452239967882633209228515625</LatitudeDegrees>
              <LongitudeDegrees>20.13381781987845897674560546875</LongitudeDegrees>
            </Position>
            <AltitudeMeters>600.5999755859375</AltitudeMeters>
            <DistanceMeters>NAN</DistanceMeters>
          </Trackpoint>
          <Trackpoint>
            <Time>2022-09-20T08:43:33.000Z</Time>
            <Position>
              <LatitudeDegrees>49.43444210104644298553466796875</LatitudeDegrees>
              <LongitudeDegrees>20.1337449811398983001708984375</LongitudeDegrees>
            </Position>
            <AltitudeMeters>600.5999755859375</AltitudeMeters>
            <DistanceMeters>NAN</DistanceMeters>
          </Trackpoint>
          <Trackpoint>
            <Time>2022-09-20T08:43:40.000Z</Time>
            <Position>
              <LatitudeDegrees>49.43428787402808666229248046875</LatitudeDegrees>
              <LongitudeDegrees>20.1335956156253814697265625</LongitudeDegrees>
            </Position>
            <AltitudeMeters>601</AltitudeMeters>
            <DistanceMeters>NAN</DistanceMeters>
          </Trackpoint>
          <Trackpoint>
            <Time>2022-09-20T08:43:41.000Z</Time>
            <Position>
              <LatitudeDegrees>49.43423003889620304107666015625</LatitudeDegrees>
              <LongitudeDegrees>20.13354934751987457275390625</LongitudeDegrees>
            </Position>
            <AltitudeMeters>601</AltitudeMeters>
            <DistanceMeters>NAN</DistanceMeters>
          </Trackpoint>
          <Trackpoint>
            <Time>2022-09-20T08:43:50.000Z</Time>
            <Position>
              <LatitudeDegrees>49.4339853711426258087158203125</LatitudeDegrees>
              <LongitudeDegrees>20.13331121765077114105224609375</LongitudeDegrees>
            </Position>
            <AltitudeMeters>601.5999755859375</AltitudeMeters>
            <DistanceMeters>NAN</DistanceMeters>
          </Trackpoint>
          <Trackpoint>
            <Time>2022-09-20T08:43:59.000Z</Time>
            <Position>
              <LatitudeDegrees>49.43376517854630947113037109375</LatitudeDegrees>
              <LongitudeDegrees>20.13310267589986324310302734375</LongitudeDegrees>
            </Position>
            <AltitudeMeters>601.79998779296875</AltitudeMeters>
            <DistanceMeters>NAN</DistanceMeters>
          </Trackpoint>
          <Trackpoint>
            <Time>2022-09-20T08:44:01.000Z</Time>
            <Position>
              <LatitudeDegrees>49.4337335787713527679443359375</LatitudeDegrees>
              <LongitudeDegrees>20.13307015411555767059326171875</LongitudeDegrees>
            </Position>
            <AltitudeMeters>602</AltitudeMeters>
            <DistanceMeters>NAN</DistanceMeters>
          </Trackpoint>
          <Trackpoint>
            <Time>2022-09-20T08:44:05.000Z</Time>
            <Position>
              <LatitudeDegrees>49.4336484186351299285888671875</LatitudeDegrees>
              <LongitudeDegrees>20.1329828985035419464111328125</LongitudeDegrees>
            </Position>
            <AltitudeMeters>602</AltitudeMeters>
            <DistanceMeters>NAN</DistanceMeters>
          </Trackpoint>
          <Trackpoint>
            <Time>2022-09-20T08:44:08.000Z</Time>
            <Position>
              <LatitudeDegrees>49.4335739873349666595458984375</LatitudeDegrees>
              <LongitudeDegrees>20.1329188607633113861083984375</LongitudeDegrees>
            </Position>
            <AltitudeMeters>601.79998779296875</AltitudeMeters>
            <DistanceMeters>NAN</DistanceMeters>
          </Trackpoint>
          <Trackpoint>
            <Time>2022-09-20T08:44:11.000Z</Time>
            <Position>
              <LatitudeDegrees>49.43349075503647327423095703125</LatitudeDegrees>
              <LongitudeDegrees>20.13283479027450084686279296875</LongitudeDegrees>
            </Position>
            <AltitudeMeters>602</AltitudeMeters>
            <DistanceMeters>NAN</DistanceMeters>
          </Trackpoint>
          <Trackpoint>
            <Time>2022-09-20T08:44:13.000Z</Time>
            <Position>
              <LatitudeDegrees>49.43346493877470493316650390625</LatitudeDegrees>
              <LongitudeDegrees>20.13280243612825870513916015625</LongitudeDegrees>
            </Position>
            <AltitudeMeters>602</AltitudeMeters>
            <DistanceMeters>NAN</DistanceMeters>
          </Trackpoint>
          <Trackpoint>
            <Time>2022-09-20T08:44:22.000Z</Time>
            <Position>
              <LatitudeDegrees>49.4331890903413295745849609375</LatitudeDegrees>
              <LongitudeDegrees>20.1325473748147487640380859375</LongitudeDegrees>
            </Position>
            <AltitudeMeters>602.5999755859375</AltitudeMeters>
            <DistanceMeters>NAN</DistanceMeters>
          </Trackpoint>
          <Trackpoint>
            <Time>2022-09-20T08:44:24.000Z</Time>
            <Position>
              <LatitudeDegrees>49.4331599213182926177978515625</LatitudeDegrees>
              <LongitudeDegrees>20.132513679563999176025390625</LongitudeDegrees>
            </Position>
            <AltitudeMeters>602.5999755859375</AltitudeMeters>
            <DistanceMeters>NAN</DistanceMeters>
          </Trackpoint>
          <Trackpoint>
            <Time>2022-09-20T08:44:35.000Z</Time>
            <Position>
              <LatitudeDegrees>49.4328407384455204010009765625</LatitudeDegrees>
              <LongitudeDegrees>20.1321319676935672760009765625</LongitudeDegrees>
            </Position>
            <AltitudeMeters>603</AltitudeMeters>
            <DistanceMeters>NAN</DistanceMeters>
          </Trackpoint>
          <Trackpoint>
            <Time>2022-09-20T08:44:37.000Z</Time>
            <Position>
              <LatitudeDegrees>49.43279639817774295806884765625</LatitudeDegrees>
              <LongitudeDegrees>20.1320558600127696990966796875</LongitudeDegrees>
            </Position>
            <AltitudeMeters>603</AltitudeMeters>
            <DistanceMeters>NAN</DistanceMeters>
          </Trackpoint>
          <Trackpoint>
            <Time>2022-09-20T08:44:44.000Z</Time>
            <Position>
              <LatitudeDegrees>49.43266731686890125274658203125</LatitudeDegrees>
              <LongitudeDegrees>20.13176542706787586212158203125</LongitudeDegrees>
            </Position>
            <AltitudeMeters>603.79998779296875</AltitudeMeters>
            <DistanceMeters>NAN</DistanceMeters>
          </Trackpoint>
          <Trackpoint>
            <Time>2022-09-20T08:44:46.000Z</Time>
            <Position>
              <LatitudeDegrees>49.43265541456639766693115234375</LatitudeDegrees>
              <LongitudeDegrees>20.13173173181712627410888671875</LongitudeDegrees>
            </Position>
            <AltitudeMeters>604</AltitudeMeters>
            <DistanceMeters>NAN</DistanceMeters>
          </Trackpoint>
          <Trackpoint>
            <Time>2022-09-20T08:44:47.000Z</Time>
            <Position>
              <LatitudeDegrees>49.4326440989971160888671875</LatitudeDegrees>
              <LongitudeDegrees>20.13168730773031711578369140625</LongitudeDegrees>
            </Position>
            <AltitudeMeters>604.20001220703125</AltitudeMeters>
            <DistanceMeters>NAN</DistanceMeters>
          </Trackpoint>
          <Trackpoint>
            <Time>2022-09-20T08:44:48.000Z</Time>
            <Position>
              <LatitudeDegrees>49.43264476954936981201171875</LatitudeDegrees>
              <LongitudeDegrees>20.13167708180844783782958984375</LongitudeDegrees>
            </Position>
            <AltitudeMeters>604.20001220703125</AltitudeMeters>
            <DistanceMeters>NAN</DistanceMeters>
          </Trackpoint>
          <Trackpoint>
            <Time>2022-09-20T08:44:50.000Z</Time>
            <Position>
              <LatitudeDegrees>49.43264476954936981201171875</LatitudeDegrees>
              <LongitudeDegrees>20.13167708180844783782958984375</LongitudeDegrees>
            </Position>
            <AltitudeMeters>604</AltitudeMeters>
            <DistanceMeters>NAN</DistanceMeters>
          </Trackpoint>
          <Trackpoint>
            <Time>2022-09-20T08:44:53.000Z</Time>
            <Position>
              <LatitudeDegrees>49.43264476954936981201171875</LatitudeDegrees>
              <LongitudeDegrees>20.13167708180844783782958984375</LongitudeDegrees>
            </Position>
            <AltitudeMeters>604</AltitudeMeters>
            <DistanceMeters>NAN</DistanceMeters>
          </Trackpoint>
          <Trackpoint>
            <Time>2022-09-20T08:44:54.000Z</Time>
            <Position>
              <LatitudeDegrees>49.43264476954936981201171875</LatitudeDegrees>
              <LongitudeDegrees>20.13167708180844783782958984375</LongitudeDegrees>
            </Position>
            <AltitudeMeters>603.79998779296875</AltitudeMeters>
            <DistanceMeters>NAN</DistanceMeters>
          </Trackpoint>
          <Trackpoint>
            <Time>2022-09-20T08:44:58.000Z</Time>
            <Position>
              <LatitudeDegrees>49.43264476954936981201171875</LatitudeDegrees>
              <LongitudeDegrees>20.13167708180844783782958984375</LongitudeDegrees>
            </Position>
            <AltitudeMeters>604</AltitudeMeters>
            <DistanceMeters>NAN</DistanceMeters>
          </Trackpoint>
          <Trackpoint>
            <Time>2022-09-20T08:45:07.000Z</Time>
            <Position>
              <LatitudeDegrees>49.43264476954936981201171875</LatitudeDegrees>
              <LongitudeDegrees>20.13167708180844783782958984375</LongitudeDegrees>
            </Position>
            <AltitudeMeters>604</AltitudeMeters>
            <DistanceMeters>NAN</DistanceMeters>
          </Trackpoint>
          <Trackpoint>
            <Time>2022-09-20T08:45:09.000Z</Time>
            <Position>
              <LatitudeDegrees>49.43264476954936981201171875</LatitudeDegrees>
              <LongitudeDegrees>20.13167708180844783782958984375</LongitudeDegrees>
            </Position>
            <AltitudeMeters>604</AltitudeMeters>
            <DistanceMeters>NAN</DistanceMeters>
          </Trackpoint>
          <Trackpoint>
            <Time>2022-09-20T08:45:34.000Z</Time>
            <Position>
              <LatitudeDegrees>49.43264502100646495819091796875</LatitudeDegrees>
              <LongitudeDegrees>20.1316780038177967071533203125</LongitudeDegrees>
            </Position>
            <AltitudeMeters>604</AltitudeMeters>
            <DistanceMeters>NAN</DistanceMeters>
          </Trackpoint>
          <Trackpoint>
            <Time>2022-09-20T08:45:39.000Z</Time>
            <Position>
              <LatitudeDegrees>49.432647116482257843017578125</LatitudeDegrees>
              <LongitudeDegrees>20.13168663717806339263916015625</LongitudeDegrees>
            </Position>
            <AltitudeMeters>604</AltitudeMeters>
            <DistanceMeters>NAN</DistanceMeters>
          </Trackpoint>
          <Trackpoint>
            <Time>2022-09-20T08:45:42.000Z</Time>
            <Position>
              <LatitudeDegrees>49.432647116482257843017578125</LatitudeDegrees>
              <LongitudeDegrees>20.13168663717806339263916015625</LongitudeDegrees>
            </Position>
            <AltitudeMeters>603.79998779296875</AltitudeMeters>
            <DistanceMeters>NAN</DistanceMeters>
          </Trackpoint>
          <Trackpoint>
            <Time>2022-09-20T08:45:53.000Z</Time>
            <Position>
              <LatitudeDegrees>49.432647116482257843017578125</LatitudeDegrees>
              <LongitudeDegrees>20.13168663717806339263916015625</LongitudeDegrees>
            </Position>
            <AltitudeMeters>604</AltitudeMeters>
            <DistanceMeters>NAN</DistanceMeters>
          </Trackpoint>
          <Trackpoint>
            <Time>2022-09-20T08:46:02.000Z</Time>
            <Position>
              <LatitudeDegrees>49.432647116482257843017578125</LatitudeDegrees>
              <LongitudeDegrees>20.13168663717806339263916015625</LongitudeDegrees>
            </Position>
            <AltitudeMeters>604</AltitudeMeters>
            <DistanceMeters>NAN</DistanceMeters>
          </Trackpoint>
          <Trackpoint>
            <Time>2022-09-20T08:46:04.000Z</Time>
            <Position>
              <LatitudeDegrees>49.432647116482257843017578125</LatitudeDegrees>
              <LongitudeDegrees>20.13168663717806339263916015625</LongitudeDegrees>
            </Position>
            <AltitudeMeters>604</AltitudeMeters>
            <DistanceMeters>NAN</DistanceMeters>
          </Trackpoint>
          <Trackpoint>
            <Time>2022-09-20T08:46:07.000Z</Time>
            <Position>
              <LatitudeDegrees>49.432647116482257843017578125</LatitudeDegrees>
              <LongitudeDegrees>20.13168663717806339263916015625</LongitudeDegrees>
            </Position>
            <AltitudeMeters>604</AltitudeMeters>
            <DistanceMeters>NAN</DistanceMeters>
          </Trackpoint>
          <Trackpoint>
            <Time>2022-09-20T08:46:10.000Z</Time>
            <Position>
              <LatitudeDegrees>49.432647116482257843017578125</LatitudeDegrees>
              <LongitudeDegrees>20.13168663717806339263916015625</LongitudeDegrees>
            </Position>
            <AltitudeMeters>604</AltitudeMeters>
            <DistanceMeters>NAN</DistanceMeters>
          </Trackpoint>
          <Trackpoint>
            <Time>2022-09-20T08:46:11.000Z</Time>
            <Position>
              <LatitudeDegrees>49.432647116482257843017578125</LatitudeDegrees>
              <LongitudeDegrees>20.13168663717806339263916015625</LongitudeDegrees>
            </Position>
            <AltitudeMeters>604</AltitudeMeters>
            <DistanceMeters>NAN</DistanceMeters>
          </Trackpoint>
          <Trackpoint>
            <Time>2022-09-20T08:46:12.000Z</Time>
            <Position>
              <LatitudeDegrees>49.432647116482257843017578125</LatitudeDegrees>
              <LongitudeDegrees>20.13168663717806339263916015625</LongitudeDegrees>
            </Position>
            <AltitudeMeters>604</AltitudeMeters>
            <DistanceMeters>NAN</DistanceMeters>
          </Trackpoint>
          <Trackpoint>
            <Time>2022-09-20T08:46:25.000Z</Time>
            <Position>
              <LatitudeDegrees>49.432647116482257843017578125</LatitudeDegrees>
              <LongitudeDegrees>20.13168663717806339263916015625</LongitudeDegrees>
            </Position>
            <AltitudeMeters>604</AltitudeMeters>
            <DistanceMeters>NAN</DistanceMeters>
          </Trackpoint>
          <Trackpoint>
            <Time>2022-09-20T08:46:29.000Z</Time>
            <Position>
              <LatitudeDegrees>49.432647116482257843017578125</LatitudeDegrees>
              <LongitudeDegrees>20.13168663717806339263916015625</LongitudeDegrees>
            </Position>
            <AltitudeMeters>604</AltitudeMeters>
            <DistanceMeters>NAN</DistanceMeters>
          </Trackpoint>
          <Trackpoint>
            <Time>2022-09-20T08:46:36.000Z</Time>
            <Position>
              <LatitudeDegrees>49.43264535628259181976318359375</LatitudeDegrees>
              <LongitudeDegrees>20.13168294914066791534423828125</LongitudeDegrees>
            </Position>
            <AltitudeMeters>604</AltitudeMeters>
            <DistanceMeters>NAN</DistanceMeters>
          </Trackpoint>
          <Trackpoint>
            <Time>2022-09-20T08:46:51.000Z</Time>
            <Position>
              <LatitudeDegrees>49.43264476954936981201171875</LatitudeDegrees>
              <LongitudeDegrees>20.13169032521545886993408203125</LongitudeDegrees>
            </Position>
            <AltitudeMeters>604</AltitudeMeters>
            <DistanceMeters>NAN</DistanceMeters>
          </Trackpoint>
          <Trackpoint>
            <Time>2022-09-20T08:46:59.000Z</Time>
            <Position>
              <LatitudeDegrees>49.43264032714068889617919921875</LatitudeDegrees>
              <LongitudeDegrees>20.13169250451028347015380859375</LongitudeDegrees>
            </Position>
            <AltitudeMeters>604</AltitudeMeters>
            <DistanceMeters>NAN</DistanceMeters>
          </Trackpoint>
          <Trackpoint>
            <Time>2022-09-20T08:47:15.000Z</Time>
            <Position>
              <LatitudeDegrees>49.432633705437183380126953125</LatitudeDegrees>
              <LongitudeDegrees>20.13170273043215274810791015625</LongitudeDegrees>
            </Position>
            <AltitudeMeters>604</AltitudeMeters>
            <DistanceMeters>NAN</DistanceMeters>
          </Trackpoint>
          <Trackpoint>
            <Time>2022-09-20T08:47:21.000Z</Time>
            <Position>
              <LatitudeDegrees>49.432633705437183380126953125</LatitudeDegrees>
              <LongitudeDegrees>20.13170273043215274810791015625</LongitudeDegrees>
            </Position>
            <AltitudeMeters>604</AltitudeMeters>
            <DistanceMeters>NAN</DistanceMeters>
          </Trackpoint>
          <Trackpoint>
            <Time>2022-09-20T08:47:38.000Z</Time>
            <Position>
              <LatitudeDegrees>49.432633705437183380126953125</LatitudeDegrees>
              <LongitudeDegrees>20.1317046582698822021484375</LongitudeDegrees>
            </Position>
            <AltitudeMeters>604</AltitudeMeters>
            <DistanceMeters>NAN</DistanceMeters>
          </Trackpoint>
          <Trackpoint>
            <Time>2022-09-20T08:47:58.000Z</Time>
            <Position>
              <LatitudeDegrees>49.4326378963887691497802734375</LatitudeDegrees>
              <LongitudeDegrees>20.13170264661312103271484375</LongitudeDegrees>
            </Position>
            <AltitudeMeters>604</AltitudeMeters>
            <DistanceMeters>NAN</DistanceMeters>
          </Trackpoint>
          <Trackpoint>
            <Time>2022-09-20T08:48:17.000Z</Time>
            <Position>
              <LatitudeDegrees>49.4326378963887691497802734375</LatitudeDegrees>
              <LongitudeDegrees>20.13170264661312103271484375</LongitudeDegrees>
            </Position>
            <AltitudeMeters>604</AltitudeMeters>
            <DistanceMeters>NAN</DistanceMeters>
          </Trackpoint>
          <Trackpoint>
            <Time>2022-09-20T08:48:25.000Z</Time>
            <Position>
              <LatitudeDegrees>49.43263630382716655731201171875</LatitudeDegrees>
              <LongitudeDegrees>20.1317046582698822021484375</LongitudeDegrees>
            </Position>
            <AltitudeMeters>604</AltitudeMeters>
            <DistanceMeters>NAN</DistanceMeters>
          </Trackpoint>
          <Trackpoint>
            <Time>2022-09-20T08:48:29.000Z</Time>
            <Position>
              <LatitudeDegrees>49.4326389022171497344970703125</LatitudeDegrees>
              <LongitudeDegrees>20.13170532882213592529296875</LongitudeDegrees>
            </Position>
            <AltitudeMeters>604</AltitudeMeters>
            <DistanceMeters>NAN</DistanceMeters>
          </Trackpoint>
          <Trackpoint>
            <Time>2022-09-20T08:48:32.000Z</Time>
            <Position>
              <LatitudeDegrees>49.4326657243072986602783203125</LatitudeDegrees>
              <LongitudeDegrees>20.13180264271795749664306640625</LongitudeDegrees>
            </Position>
            <AltitudeMeters>604</AltitudeMeters>
            <DistanceMeters>NAN</DistanceMeters>
          </Trackpoint>
          <Trackpoint>
            <Time>2022-09-20T08:48:38.000Z</Time>
            <Position>
              <LatitudeDegrees>49.43272498436272144317626953125</LatitudeDegrees>
              <LongitudeDegrees>20.13202426023781299591064453125</LongitudeDegrees>
            </Position>
            <AltitudeMeters>603.5999755859375</AltitudeMeters>
            <DistanceMeters>NAN</DistanceMeters>
          </Trackpoint>
          <Trackpoint>
            <Time>2022-09-20T08:48:46.000Z</Time>
            <Position>
              <LatitudeDegrees>49.432922042906284332275390625</LatitudeDegrees>
              <LongitudeDegrees>20.13232232071459293365478515625</LongitudeDegrees>
            </Position>
            <AltitudeMeters>603.20001220703125</AltitudeMeters>
            <DistanceMeters>NAN</DistanceMeters>
          </Trackpoint>
          <Trackpoint>
            <Time>2022-09-20T08:48:49.000Z</Time>
            <Position>
              <LatitudeDegrees>49.43304240703582763671875</LatitudeDegrees>
              <LongitudeDegrees>20.13246347196400165557861328125</LongitudeDegrees>
            </Position>
            <AltitudeMeters>603</AltitudeMeters>
            <DistanceMeters>NAN</DistanceMeters>
          </Trackpoint>
          <Trackpoint>
            <Time>2022-09-20T08:48:53.000Z</Time>
            <Position>
              <LatitudeDegrees>49.43317442201077938079833984375</LatitudeDegrees>
              <LongitudeDegrees>20.13261049054563045501708984375</LongitudeDegrees>
            </Position>
            <AltitudeMeters>602.79998779296875</AltitudeMeters>
            <DistanceMeters>NAN</DistanceMeters>
          </Trackpoint>
          <Trackpoint>
            <Time>2022-09-20T08:49:01.000Z</Time>
            <Position>
              <LatitudeDegrees>49.433458149433135986328125</LatitudeDegrees>
              <LongitudeDegrees>20.13288055546581745147705078125</LongitudeDegrees>
            </Position>
            <AltitudeMeters>602.20001220703125</AltitudeMeters>
            <DistanceMeters>NAN</DistanceMeters>
          </Trackpoint>
          <Trackpoint>
            <Time>2022-09-20T08:49:02.000Z</Time>
            <Position>
              <LatitudeDegrees>49.43349234759807586669921875</LatitudeDegrees>
              <LongitudeDegrees>20.13291358016431331634521484375</LongitudeDegrees>
            </Position>
            <AltitudeMeters>602.20001220703125</AltitudeMeters>
            <DistanceMeters>NAN</DistanceMeters>
          </Trackpoint>
          <Trackpoint>
            <Time>2022-09-20T08:49:04.000Z</Time>
            <Position>
              <LatitudeDegrees>49.43356015719473361968994140625</LatitudeDegrees>
              <LongitudeDegrees>20.1329771988093852996826171875</LongitudeDegrees>
            </Position>
            <AltitudeMeters>602</AltitudeMeters>
            <DistanceMeters>NAN</DistanceMeters>
          </Trackpoint>
          <Trackpoint>
            <Time>2022-09-20T08:49:11.000Z</Time>
            <Position>
              <LatitudeDegrees>49.43380708806216716766357421875</LatitudeDegrees>
              <LongitudeDegrees>20.133212395012378692626953125</LongitudeDegrees>
            </Position>
            <AltitudeMeters>601.5999755859375</AltitudeMeters>
            <DistanceMeters>NAN</DistanceMeters>
          </Trackpoint>
          <Trackpoint>
            <Time>2022-09-20T08:49:17.000Z</Time>
            <Position>
              <LatitudeDegrees>49.4340363331139087677001953125</LatitudeDegrees>
              <LongitudeDegrees>20.13341951183974742889404296875</LongitudeDegrees>
            </Position>
            <AltitudeMeters>601.4000244140625</AltitudeMeters>
            <DistanceMeters>NAN</DistanceMeters>
          </Trackpoint>
          <Trackpoint>
            <Time>2022-09-20T08:49:18.000Z</Time>
            <Position>
              <LatitudeDegrees>49.4340363331139087677001953125</LatitudeDegrees>
              <LongitudeDegrees>20.13341951183974742889404296875</LongitudeDegrees>
            </Position>
            <AltitudeMeters>601.4000244140625</AltitudeMeters>
            <DistanceMeters>NAN</DistanceMeters>
          </Trackpoint>
          <Trackpoint>
            <Time>2022-09-20T08:49:19.000Z</Time>
            <Position>
              <LatitudeDegrees>49.4341124407947063446044921875</LatitudeDegrees>
              <LongitudeDegrees>20.13347784988582134246826171875</LongitudeDegrees>
            </Position>
            <AltitudeMeters>601.4000244140625</AltitudeMeters>
            <DistanceMeters>NAN</DistanceMeters>
          </Trackpoint>
          <Trackpoint>
            <Time>2022-09-20T08:49:21.000Z</Time>
            <Position>
              <LatitudeDegrees>49.43418561480939388275146484375</LatitudeDegrees>
              <LongitudeDegrees>20.1335513591766357421875</LongitudeDegrees>
            </Position>
            <AltitudeMeters>601.20001220703125</AltitudeMeters>
            <DistanceMeters>NAN</DistanceMeters>
          </Trackpoint>
          <Trackpoint>
            <Time>2022-09-20T08:49:26.000Z</Time>
            <Position>
              <LatitudeDegrees>49.43437219597399234771728515625</LatitudeDegrees>
              <LongitudeDegrees>20.13374405913054943084716796875</LongitudeDegrees>
            </Position>
            <AltitudeMeters>601</AltitudeMeters>
            <DistanceMeters>NAN</DistanceMeters>
          </Trackpoint>
          <Trackpoint>
            <Time>2022-09-20T08:49:28.000Z</Time>
            <Position>
              <LatitudeDegrees>49.43444612435996532440185546875</LatitudeDegrees>
              <LongitudeDegrees>20.1338254474103450775146484375</LongitudeDegrees>
            </Position>
            <AltitudeMeters>601</AltitudeMeters>
            <DistanceMeters>NAN</DistanceMeters>
          </Trackpoint>
          <Trackpoint>
            <Time>2022-09-20T08:49:36.000Z</Time>
            <Position>
              <LatitudeDegrees>49.43474083207547664642333984375</LatitudeDegrees>
              <LongitudeDegrees>20.134200789034366607666015625</LongitudeDegrees>
            </Position>
            <AltitudeMeters>600.5999755859375</AltitudeMeters>
            <DistanceMeters>NAN</DistanceMeters>
          </Trackpoint>
          <Trackpoint>
            <Time>2022-09-20T08:49:37.000Z</Time>
            <Position>
              <LatitudeDegrees>49.43477067165076732635498046875</LatitudeDegrees>
              <LongitudeDegrees>20.1342609710991382598876953125</LongitudeDegrees>
            </Position>
            <AltitudeMeters>600.5999755859375</AltitudeMeters>
            <DistanceMeters>NAN</DistanceMeters>
          </Trackpoint>
          <Trackpoint>
            <Time>2022-09-20T08:49:42.000Z</Time>
            <Position>
              <LatitudeDegrees>49.43492171354591846466064453125</LatitudeDegrees>
              <LongitudeDegrees>20.13457621447741985321044921875</LongitudeDegrees>
            </Position>
            <AltitudeMeters>600</AltitudeMeters>
            <DistanceMeters>NAN</DistanceMeters>
          </Trackpoint>
          <Trackpoint>
            <Time>2022-09-20T08:49:43.000Z</Time>
            <Position>
              <LatitudeDegrees>49.4349519722163677215576171875</LatitudeDegrees>
              <LongitudeDegrees>20.13463824056088924407958984375</LongitudeDegrees>
            </Position>
            <AltitudeMeters>600</AltitudeMeters>
            <DistanceMeters>NAN</DistanceMeters>
          </Trackpoint>
          <Trackpoint>
            <Time>2022-09-20T08:49:44.000Z</Time>
            <Position>
              <LatitudeDegrees>49.4349794648587703704833984375</LatitudeDegrees>
              <LongitudeDegrees>20.1347042061388492584228515625</LongitudeDegrees>
            </Position>
            <AltitudeMeters>600</AltitudeMeters>
            <DistanceMeters>NAN</DistanceMeters>
          </Trackpoint>
          <Trackpoint>
            <Time>2022-09-20T08:49:45.000Z</Time>
            <Position>
              <LatitudeDegrees>49.43500301800668239593505859375</LatitudeDegrees>
              <LongitudeDegrees>20.134774111211299896240234375</LongitudeDegrees>
            </Position>
            <AltitudeMeters>599.79998779296875</AltitudeMeters>
            <DistanceMeters>NAN</DistanceMeters>
          </Trackpoint>
          <Trackpoint>
            <Time>2022-09-20T08:49:47.000Z</Time>
            <Position>
              <LatitudeDegrees>49.43505942821502685546875</LatitudeDegrees>
              <LongitudeDegrees>20.13491031713783740997314453125</LongitudeDegrees>
            </Position>
            <AltitudeMeters>599.5999755859375</AltitudeMeters>
            <DistanceMeters>NAN</DistanceMeters>
          </Trackpoint>
          <Trackpoint>
            <Time>2022-09-20T08:49:56.000Z</Time>
            <Position>
              <LatitudeDegrees>49.43532672710716724395751953125</LatitudeDegrees>
              <LongitudeDegrees>20.13545949943363666534423828125</LongitudeDegrees>
            </Position>
            <AltitudeMeters>599</AltitudeMeters>
            <DistanceMeters>NAN</DistanceMeters>
          </Trackpoint>
          <Trackpoint>
            <Time>2022-09-20T08:50:00.000Z</Time>
            <Position>
              <LatitudeDegrees>49.43543384782969951629638671875</LatitudeDegrees>
              <LongitudeDegrees>20.13570240698754787445068359375</LongitudeDegrees>
            </Position>
            <AltitudeMeters>598.79998779296875</AltitudeMeters>
            <DistanceMeters>NAN</DistanceMeters>
          </Trackpoint>
          <Trackpoint>
            <Time>2022-09-20T08:50:02.000Z</Time>
            <Position>
              <LatitudeDegrees>49.43548631854355335235595703125</LatitudeDegrees>
              <LongitudeDegrees>20.13582377694547176361083984375</LongitudeDegrees>
            </Position>
            <AltitudeMeters>598.5999755859375</AltitudeMeters>
            <DistanceMeters>NAN</DistanceMeters>
          </Trackpoint>
          <Trackpoint>
            <Time>2022-09-20T08:50:05.000Z</Time>
            <Position>
              <LatitudeDegrees>49.43556963466107845306396484375</LatitudeDegrees>
              <LongitudeDegrees>20.13598906807601451873779296875</LongitudeDegrees>
            </Position>
            <AltitudeMeters>598.5999755859375</AltitudeMeters>
            <DistanceMeters>NAN</DistanceMeters>
          </Trackpoint>
          <Trackpoint>
            <Time>2022-09-20T08:50:06.000Z</Time>
            <Position>
              <LatitudeDegrees>49.43556963466107845306396484375</LatitudeDegrees>
              <LongitudeDegrees>20.13598906807601451873779296875</LongitudeDegrees>
            </Position>
            <AltitudeMeters>598.5999755859375</AltitudeMeters>
            <DistanceMeters>NAN</DistanceMeters>
          </Trackpoint>
          <Trackpoint>
            <Time>2022-09-20T08:50:08.000Z</Time>
            <Position>
              <LatitudeDegrees>49.43564138375222682952880859375</LatitudeDegrees>
              <LongitudeDegrees>20.13616316020488739013671875</LongitudeDegrees>
            </Position>
            <AltitudeMeters>598.4000244140625</AltitudeMeters>
            <DistanceMeters>NAN</DistanceMeters>
          </Trackpoint>
          <Trackpoint>
            <Time>2022-09-20T08:50:13.000Z</Time>
            <Position>
              <LatitudeDegrees>49.435759820044040679931640625</LatitudeDegrees>
              <LongitudeDegrees>20.13643280602991580963134765625</LongitudeDegrees>
            </Position>
            <AltitudeMeters>597.79998779296875</AltitudeMeters>
            <DistanceMeters>NAN</DistanceMeters>
          </Trackpoint>
          <Trackpoint>
            <Time>2022-09-20T08:50:14.000Z</Time>
            <Position>
              <LatitudeDegrees>49.435759820044040679931640625</LatitudeDegrees>
              <LongitudeDegrees>20.13643280602991580963134765625</LongitudeDegrees>
            </Position>
            <AltitudeMeters>597.79998779296875</AltitudeMeters>
            <DistanceMeters>NAN</DistanceMeters>
          </Trackpoint>
          <Trackpoint>
            <Time>2022-09-20T08:50:15.000Z</Time>
            <Position>
              <LatitudeDegrees>49.435824193060398101806640625</LatitudeDegrees>
              <LongitudeDegrees>20.13655199669301509857177734375</LongitudeDegrees>
            </Position>
            <AltitudeMeters>597.79998779296875</AltitudeMeters>
            <DistanceMeters>NAN</DistanceMeters>
          </Trackpoint>
          <Trackpoint>
            <Time>2022-09-20T08:50:21.000Z</Time>
            <Position>
              <LatitudeDegrees>49.4360402785241603851318359375</LatitudeDegrees>
              <LongitudeDegrees>20.13682776130735874176025390625</LongitudeDegrees>
            </Position>
            <AltitudeMeters>597.20001220703125</AltitudeMeters>
            <DistanceMeters>NAN</DistanceMeters>
          </Trackpoint>
          <Trackpoint>
            <Time>2022-09-20T08:50:25.000Z</Time>
            <Position>
              <LatitudeDegrees>49.43620246835052967071533203125</LatitudeDegrees>
              <LongitudeDegrees>20.136993639171123504638671875</LongitudeDegrees>
            </Position>
            <AltitudeMeters>596.79998779296875</AltitudeMeters>
            <DistanceMeters>NAN</DistanceMeters>
          </Trackpoint>
          <Trackpoint>
            <Time>2022-09-20T08:50:26.000Z</Time>
            <Position>
              <LatitudeDegrees>49.43624253384768962860107421875</LatitudeDegrees>
              <LongitudeDegrees>20.13702389784157276153564453125</LongitudeDegrees>
            </Position>
            <AltitudeMeters>596.79998779296875</AltitudeMeters>
            <DistanceMeters>NAN</DistanceMeters>
          </Trackpoint>
          <Trackpoint>
            <Time>2022-09-20T08:50:32.000Z</Time>
            <Position>
              <LatitudeDegrees>49.436471946537494659423828125</LatitudeDegrees>
              <LongitudeDegrees>20.13726328499615192413330078125</LongitudeDegrees>
            </Position>
            <AltitudeMeters>596.5999755859375</AltitudeMeters>
            <DistanceMeters>NAN</DistanceMeters>
          </Trackpoint>
          <Trackpoint>
            <Time>2022-09-20T08:50:36.000Z</Time>
            <Position>
              <LatitudeDegrees>49.43655484355986118316650390625</LatitudeDegrees>
              <LongitudeDegrees>20.13735179789364337921142578125</LongitudeDegrees>
            </Position>
            <AltitudeMeters>596.20001220703125</AltitudeMeters>
            <DistanceMeters>NAN</DistanceMeters>
          </Trackpoint>
          <Trackpoint>
            <Time>2022-09-20T08:50:39.000Z</Time>
            <Position>
              <LatitudeDegrees>49.43660245276987552642822265625</LatitudeDegrees>
              <LongitudeDegrees>20.1374410651624202728271484375</LongitudeDegrees>
            </Position>
            <AltitudeMeters>596</AltitudeMeters>
            <DistanceMeters>NAN</DistanceMeters>
          </Trackpoint>
          <Trackpoint>
            <Time>2022-09-20T08:50:40.000Z</Time>
            <Position>
              <LatitudeDegrees>49.4365995191037654876708984375</LatitudeDegrees>
              <LongitudeDegrees>20.1374638639390468597412109375</LongitudeDegrees>
            </Position>
            <AltitudeMeters>596</AltitudeMeters>
            <DistanceMeters>NAN</DistanceMeters>
          </Trackpoint>
          <Trackpoint>
            <Time>2022-09-20T08:50:41.000Z</Time>
            <Position>
              <LatitudeDegrees>49.43659256212413311004638671875</LatitudeDegrees>
              <LongitudeDegrees>20.13748674653470516204833984375</LongitudeDegrees>
            </Position>
            <AltitudeMeters>596</AltitudeMeters>
            <DistanceMeters>NAN</DistanceMeters>
          </Trackpoint>
          <Trackpoint>
            <Time>2022-09-20T08:50:43.000Z</Time>
            <Position>
              <LatitudeDegrees>49.4365646503865718841552734375</LatitudeDegrees>
              <LongitudeDegrees>20.1375439949333667755126953125</LongitudeDegrees>
            </Position>
            <AltitudeMeters>595.79998779296875</AltitudeMeters>
            <DistanceMeters>NAN</DistanceMeters>
          </Trackpoint>
          <Trackpoint>
            <Time>2022-09-20T08:50:45.000Z</Time>
            <Position>
              <LatitudeDegrees>49.436550401151180267333984375</LatitudeDegrees>
              <LongitudeDegrees>20.137566290795803070068359375</LongitudeDegrees>
            </Position>
            <AltitudeMeters>595.79998779296875</AltitudeMeters>
            <DistanceMeters>NAN</DistanceMeters>
          </Trackpoint>
          <Trackpoint>
            <Time>2022-09-20T08:50:51.000Z</Time>
            <Position>
              <LatitudeDegrees>49.43637865595519542694091796875</LatitudeDegrees>
              <LongitudeDegrees>20.137731917202472686767578125</LongitudeDegrees>
            </Position>
            <AltitudeMeters>595.79998779296875</AltitudeMeters>
            <DistanceMeters>NAN</DistanceMeters>
          </Trackpoint>
          <Trackpoint>
            <Time>2022-09-20T08:50:57.000Z</Time>
            <Position>
              <LatitudeDegrees>49.4362924061715602874755859375</LatitudeDegrees>
              <LongitudeDegrees>20.137969292700290679931640625</LongitudeDegrees>
            </Position>
            <AltitudeMeters>595.79998779296875</AltitudeMeters>
            <DistanceMeters>NAN</DistanceMeters>
          </Trackpoint>
          <Trackpoint>
            <Time>2022-09-20T08:51:01.000Z</Time>
            <Position>
              <LatitudeDegrees>49.4363401830196380615234375</LatitudeDegrees>
              <LongitudeDegrees>20.1382132060825824737548828125</LongitudeDegrees>
            </Position>
            <AltitudeMeters>595.79998779296875</AltitudeMeters>
            <DistanceMeters>NAN</DistanceMeters>
          </Trackpoint>
          <Trackpoint>
            <Time>2022-09-20T08:51:02.000Z</Time>
            <Position>
              <LatitudeDegrees>49.4363401830196380615234375</LatitudeDegrees>
              <LongitudeDegrees>20.1382132060825824737548828125</LongitudeDegrees>
            </Position>
            <AltitudeMeters>595.5999755859375</AltitudeMeters>
            <DistanceMeters>NAN</DistanceMeters>
          </Trackpoint>
          <Trackpoint>
            <Time>2022-09-20T08:51:03.000Z</Time>
            <Position>
              <LatitudeDegrees>49.436390139162540435791015625</LatitudeDegrees>
              <LongitudeDegrees>20.13833432458341121673583984375</LongitudeDegrees>
            </Position>
            <AltitudeMeters>595.5999755859375</AltitudeMeters>
            <DistanceMeters>NAN</DistanceMeters>
          </Trackpoint>
          <Trackpoint>
            <Time>2022-09-20T08:51:06.000Z</Time>
            <Position>
              <LatitudeDegrees>49.43645417690277099609375</LatitudeDegrees>
              <LongitudeDegrees>20.13854236342012882232666015625</LongitudeDegrees>
            </Position>
            <AltitudeMeters>595.20001220703125</AltitudeMeters>
            <DistanceMeters>NAN</DistanceMeters>
          </Trackpoint>
          <Trackpoint>
            <Time>2022-09-20T08:51:07.000Z</Time>
            <Position>
              <LatitudeDegrees>49.4364731200039386749267578125</LatitudeDegrees>
              <LongitudeDegrees>20.13861662708222866058349609375</LongitudeDegrees>
            </Position>
            <AltitudeMeters>595</AltitudeMeters>
            <DistanceMeters>NAN</DistanceMeters>
          </Trackpoint>
          <Trackpoint>
            <Time>2022-09-20T08:51:09.000Z</Time>
            <Position>
              <LatitudeDegrees>49.4365006126463413238525390625</LatitudeDegrees>
              <LongitudeDegrees>20.13874570839107036590576171875</LongitudeDegrees>
            </Position>
            <AltitudeMeters>595</AltitudeMeters>
            <DistanceMeters>NAN</DistanceMeters>
          </Trackpoint>
          <Trackpoint>
            <Time>2022-09-20T08:51:11.000Z</Time>
            <Position>
              <LatitudeDegrees>49.43651385605335235595703125</LatitudeDegrees>
              <LongitudeDegrees>20.13889322988688945770263671875</LongitudeDegrees>
            </Position>
            <AltitudeMeters>594.5999755859375</AltitudeMeters>
            <DistanceMeters>NAN</DistanceMeters>
          </Trackpoint>
          <Trackpoint>
            <Time>2022-09-20T08:51:13.000Z</Time>
            <Position>
              <LatitudeDegrees>49.436526596546173095703125</LatitudeDegrees>
              <LongitudeDegrees>20.1390564255416393280029296875</LongitudeDegrees>
            </Position>
            <AltitudeMeters>594.5999755859375</AltitudeMeters>
            <DistanceMeters>NAN</DistanceMeters>
          </Trackpoint>
          <Trackpoint>
            <Time>2022-09-20T08:51:17.000Z</Time>
            <Position>
              <LatitudeDegrees>49.43652668036520481109619140625</LatitudeDegrees>
              <LongitudeDegrees>20.13935607858002185821533203125</LongitudeDegrees>
            </Position>
            <AltitudeMeters>594.5999755859375</AltitudeMeters>
            <DistanceMeters>NAN</DistanceMeters>
          </Trackpoint>
          <Trackpoint>
            <Time>2022-09-20T08:51:19.000Z</Time>
            <Position>
              <LatitudeDegrees>49.4365297816693782806396484375</LatitudeDegrees>
              <LongitudeDegrees>20.1394825614988803863525390625</LongitudeDegrees>
            </Position>
            <AltitudeMeters>594.20001220703125</AltitudeMeters>
            <DistanceMeters>NAN</DistanceMeters>
          </Trackpoint>
          <Trackpoint>
            <Time>2022-09-20T08:51:20.000Z</Time>
            <Position>
              <LatitudeDegrees>49.43653942085802555084228515625</LatitudeDegrees>
              <LongitudeDegrees>20.13955238275229930877685546875</LongitudeDegrees>
            </Position>
            <AltitudeMeters>594.20001220703125</AltitudeMeters>
            <DistanceMeters>NAN</DistanceMeters>
          </Trackpoint>
          <Trackpoint>
            <Time>2022-09-20T08:51:21.000Z</Time>
            <Position>
              <LatitudeDegrees>49.43655601702630519866943359375</LatitudeDegrees>
              <LongitudeDegrees>20.13961784541606903076171875</LongitudeDegrees>
            </Position>
            <AltitudeMeters>594</AltitudeMeters>
            <DistanceMeters>NAN</DistanceMeters>
          </Trackpoint>
          <Trackpoint>
            <Time>2022-09-20T08:51:24.000Z</Time>
            <Position>
              <LatitudeDegrees>49.436609745025634765625</LatitudeDegrees>
              <LongitudeDegrees>20.13973192311823368072509765625</LongitudeDegrees>
            </Position>
            <AltitudeMeters>594</AltitudeMeters>
            <DistanceMeters>NAN</DistanceMeters>
          </Trackpoint>
          <Trackpoint>
            <Time>2022-09-20T08:51:27.000Z</Time>
            <Position>
              <LatitudeDegrees>49.43672969006001949310302734375</LatitudeDegrees>
              <LongitudeDegrees>20.13996544294059276580810546875</LongitudeDegrees>
            </Position>
            <AltitudeMeters>594</AltitudeMeters>
            <DistanceMeters>NAN</DistanceMeters>
          </Trackpoint>
          <Trackpoint>
            <Time>2022-09-20T08:51:30.000Z</Time>
            <Position>
              <LatitudeDegrees>49.4368097372353076934814453125</LatitudeDegrees>
              <LongitudeDegrees>20.14014414511620998382568359375</LongitudeDegrees>
            </Position>
            <AltitudeMeters>593.79998779296875</AltitudeMeters>
            <DistanceMeters>NAN</DistanceMeters>
          </Trackpoint>
          <Trackpoint>
            <Time>2022-09-20T08:51:33.000Z</Time>
            <Position>
              <LatitudeDegrees>49.4368878565728664398193359375</LatitudeDegrees>
              <LongitudeDegrees>20.140328966081142425537109375</LongitudeDegrees>
            </Position>
            <AltitudeMeters>593.5999755859375</AltitudeMeters>
            <DistanceMeters>NAN</DistanceMeters>
          </Trackpoint>
          <Trackpoint>
            <Time>2022-09-20T08:51:35.000Z</Time>
            <Position>
              <LatitudeDegrees>49.43691744469106197357177734375</LatitudeDegrees>
              <LongitudeDegrees>20.140388309955596923828125</LongitudeDegrees>
            </Position>
            <AltitudeMeters>593.4000244140625</AltitudeMeters>
            <DistanceMeters>NAN</DistanceMeters>
          </Trackpoint>
          <Trackpoint>
            <Time>2022-09-20T08:51:37.000Z</Time>
            <Position>
              <LatitudeDegrees>49.43700595758855342864990234375</LatitudeDegrees>
              <LongitudeDegrees>20.14056189917027950286865234375</LongitudeDegrees>
            </Position>
            <AltitudeMeters>593.4000244140625</AltitudeMeters>
            <DistanceMeters>NAN</DistanceMeters>
          </Trackpoint>
          <Trackpoint>
            <Time>2022-09-20T08:51:39.000Z</Time>
            <Position>
              <LatitudeDegrees>49.43706999532878398895263671875</LatitudeDegrees>
              <LongitudeDegrees>20.14067874290049076080322265625</LongitudeDegrees>
            </Position>
            <AltitudeMeters>593.20001220703125</AltitudeMeters>
            <DistanceMeters>NAN</DistanceMeters>
          </Trackpoint>
          <Trackpoint>
            <Time>2022-09-20T08:51:45.000Z</Time>
            <Position>
              <LatitudeDegrees>49.4372278265655040740966796875</LatitudeDegrees>
              <LongitudeDegrees>20.141022317111492156982421875</LongitudeDegrees>
            </Position>
            <AltitudeMeters>592.79998779296875</AltitudeMeters>
            <DistanceMeters>NAN</DistanceMeters>
          </Trackpoint>
          <Trackpoint>
            <Time>2022-09-20T08:51:52.000Z</Time>
            <Position>
              <LatitudeDegrees>49.43742857314646244049072265625</LatitudeDegrees>
              <LongitudeDegrees>20.1414288394153118133544921875</LongitudeDegrees>
            </Position>
            <AltitudeMeters>592.5999755859375</AltitudeMeters>
            <DistanceMeters>NAN</DistanceMeters>
          </Trackpoint>
          <Trackpoint>
            <Time>2022-09-20T08:51:53.000Z</Time>
            <Position>
              <LatitudeDegrees>49.437457658350467681884765625</LatitudeDegrees>
              <LongitudeDegrees>20.14148776419460773468017578125</LongitudeDegrees>
            </Position>
            <AltitudeMeters>592.5999755859375</AltitudeMeters>
            <DistanceMeters>NAN</DistanceMeters>
          </Trackpoint>
          <Trackpoint>
            <Time>2022-09-20T08:51:58.000Z</Time>
            <Position>
              <LatitudeDegrees>49.43758833222091197967529296875</LatitudeDegrees>
              <LongitudeDegrees>20.14176319353282451629638671875</LongitudeDegrees>
            </Position>
            <AltitudeMeters>592.20001220703125</AltitudeMeters>
            <DistanceMeters>NAN</DistanceMeters>
          </Trackpoint>
          <Trackpoint>
            <Time>2022-09-20T08:52:01.000Z</Time>
            <Position>
              <LatitudeDegrees>49.43772562779486179351806640625</LatitudeDegrees>
              <LongitudeDegrees>20.14206402003765106201171875</LongitudeDegrees>
            </Position>
            <AltitudeMeters>591.5999755859375</AltitudeMeters>
            <DistanceMeters>NAN</DistanceMeters>
          </Trackpoint>
          <Trackpoint>
            <Time>2022-09-20T08:52:05.000Z</Time>
            <Position>
              <LatitudeDegrees>49.43785856477916240692138671875</LatitudeDegrees>
              <LongitudeDegrees>20.1423478312790393829345703125</LongitudeDegrees>
            </Position>
            <AltitudeMeters>591</AltitudeMeters>
            <DistanceMeters>NAN</DistanceMeters>
          </Trackpoint>
          <Trackpoint>
            <Time>2022-09-20T08:52:13.000Z</Time>
            <Position>
              <LatitudeDegrees>49.43806610070168972015380859375</LatitudeDegrees>
              <LongitudeDegrees>20.1428091712296009063720703125</LongitudeDegrees>
            </Position>
            <AltitudeMeters>590.5999755859375</AltitudeMeters>
            <DistanceMeters>NAN</DistanceMeters>
          </Trackpoint>
          <Trackpoint>
            <Time>2022-09-20T08:52:15.000Z</Time>
            <Position>
              <LatitudeDegrees>49.43812309764325618743896484375</LatitudeDegrees>
              <LongitudeDegrees>20.14294051565229892730712890625</LongitudeDegrees>
            </Position>
            <AltitudeMeters>590.4000244140625</AltitudeMeters>
            <DistanceMeters>NAN</DistanceMeters>
          </Trackpoint>
          <Trackpoint>
            <Time>2022-09-20T08:52:20.000Z</Time>
            <Position>
              <LatitudeDegrees>49.43829073570668697357177734375</LatitudeDegrees>
              <LongitudeDegrees>20.1433291845023632049560546875</LongitudeDegrees>
            </Position>
            <AltitudeMeters>590</AltitudeMeters>
            <DistanceMeters>NAN</DistanceMeters>
          </Trackpoint>
          <Trackpoint>
            <Time>2022-09-20T08:52:28.000Z</Time>
            <Position>
              <LatitudeDegrees>49.4385503232479095458984375</LatitudeDegrees>
              <LongitudeDegrees>20.143816508352756500244140625</LongitudeDegrees>
            </Position>
            <AltitudeMeters>589.5999755859375</AltitudeMeters>
            <DistanceMeters>NAN</DistanceMeters>
          </Trackpoint>
          <Trackpoint>
            <Time>2022-09-20T08:52:29.000Z</Time>
            <Position>
              <LatitudeDegrees>49.43858494050800800323486328125</LatitudeDegrees>
              <LongitudeDegrees>20.14389999210834503173828125</LongitudeDegrees>
            </Position>
            <AltitudeMeters>589.5999755859375</AltitudeMeters>
            <DistanceMeters>NAN</DistanceMeters>
          </Trackpoint>
          <Trackpoint>
            <Time>2022-09-20T08:52:31.000Z</Time>
            <Position>
              <LatitudeDegrees>49.438608326017856597900390625</LatitudeDegrees>
              <LongitudeDegrees>20.14395154081284999847412109375</LongitudeDegrees>
            </Position>
            <AltitudeMeters>589.20001220703125</AltitudeMeters>
            <DistanceMeters>NAN</DistanceMeters>
          </Trackpoint>
          <Trackpoint>
            <Time>2022-09-20T08:52:34.000Z</Time>
            <Position>
              <LatitudeDegrees>49.43873740732669830322265625</LatitudeDegrees>
              <LongitudeDegrees>20.14419763348996639251708984375</LongitudeDegrees>
            </Position>
            <AltitudeMeters>588.79998779296875</AltitudeMeters>
            <DistanceMeters>NAN</DistanceMeters>
          </Trackpoint>
          <Trackpoint>
            <Time>2022-09-20T08:52:40.000Z</Time>
            <Position>
              <LatitudeDegrees>49.4388451986014842987060546875</LatitudeDegrees>
              <LongitudeDegrees>20.14447004534304141998291015625</LongitudeDegrees>
            </Position>
            <AltitudeMeters>588.79998779296875</AltitudeMeters>
            <DistanceMeters>NAN</DistanceMeters>
          </Trackpoint>
          <Trackpoint>
            <Time>2022-09-20T08:52:45.000Z</Time>
            <Position>
              <LatitudeDegrees>49.4389467872679233551025390625</LatitudeDegrees>
              <LongitudeDegrees>20.1447178982198238372802734375</LongitudeDegrees>
            </Position>
            <AltitudeMeters>588.79998779296875</AltitudeMeters>
            <DistanceMeters>NAN</DistanceMeters>
          </Trackpoint>
          <Trackpoint>
            <Time>2022-09-20T08:52:51.000Z</Time>
            <Position>
              <LatitudeDegrees>49.43909673951566219329833984375</LatitudeDegrees>
              <LongitudeDegrees>20.145080499351024627685546875</LongitudeDegrees>
            </Position>
            <AltitudeMeters>588.5999755859375</AltitudeMeters>
            <DistanceMeters>NAN</DistanceMeters>
          </Trackpoint>
          <Trackpoint>
            <Time>2022-09-20T08:52:56.000Z</Time>
            <Position>
              <LatitudeDegrees>49.439235292375087738037109375</LatitudeDegrees>
              <LongitudeDegrees>20.14536590315401554107666015625</LongitudeDegrees>
            </Position>
            <AltitudeMeters>588.20001220703125</AltitudeMeters>
            <DistanceMeters>NAN</DistanceMeters>
          </Trackpoint>
          <Trackpoint>
            <Time>2022-09-20T08:52:58.000Z</Time>
            <Position>
              <LatitudeDegrees>49.43928315304219722747802734375</LatitudeDegrees>
              <LongitudeDegrees>20.1454772986471652984619140625</LongitudeDegrees>
            </Position>
            <AltitudeMeters>588</AltitudeMeters>
            <DistanceMeters>NAN</DistanceMeters>
          </Trackpoint>
          <Trackpoint>
            <Time>2022-09-20T08:53:03.000Z</Time>
            <Position>
              <LatitudeDegrees>49.43945012055337429046630859375</LatitudeDegrees>
              <LongitudeDegrees>20.145732946693897247314453125</LongitudeDegrees>
            </Position>
            <AltitudeMeters>587.5999755859375</AltitudeMeters>
            <DistanceMeters>NAN</DistanceMeters>
          </Trackpoint>
          <Trackpoint>
            <Time>2022-09-20T08:53:06.000Z</Time>
            <Position>
              <LatitudeDegrees>49.43953393958508968353271484375</LatitudeDegrees>
              <LongitudeDegrees>20.14585423283278942108154296875</LongitudeDegrees>
            </Position>
            <AltitudeMeters>587.20001220703125</AltitudeMeters>
            <DistanceMeters>NAN</DistanceMeters>
          </Trackpoint>
          <Trackpoint>
            <Time>2022-09-20T08:53:07.000Z</Time>
            <Position>
              <LatitudeDegrees>49.43954617716372013092041015625</LatitudeDegrees>
              <LongitudeDegrees>20.145892538130283355712890625</LongitudeDegrees>
            </Position>
            <AltitudeMeters>587.20001220703125</AltitudeMeters>
            <DistanceMeters>NAN</DistanceMeters>
          </Trackpoint>
          <Trackpoint>
            <Time>2022-09-20T08:53:08.000Z</Time>
            <Position>
              <LatitudeDegrees>49.43954617716372013092041015625</LatitudeDegrees>
              <LongitudeDegrees>20.145892538130283355712890625</LongitudeDegrees>
            </Position>
            <AltitudeMeters>587.20001220703125</AltitudeMeters>
            <DistanceMeters>NAN</DistanceMeters>
          </Trackpoint>
          <Trackpoint>
            <Time>2022-09-20T08:53:10.000Z</Time>
            <Position>
              <LatitudeDegrees>49.4395373761653900146484375</LatitudeDegrees>
              <LongitudeDegrees>20.14598666690289974212646484375</LongitudeDegrees>
            </Position>
            <AltitudeMeters>587</AltitudeMeters>
            <DistanceMeters>NAN</DistanceMeters>
          </Trackpoint>
          <Trackpoint>
            <Time>2022-09-20T08:53:14.000Z</Time>
            <Position>
              <LatitudeDegrees>49.4394922815263271331787109375</LatitudeDegrees>
              <LongitudeDegrees>20.14608456753194332122802734375</LongitudeDegrees>
            </Position>
            <AltitudeMeters>586.5999755859375</AltitudeMeters>
            <DistanceMeters>NAN</DistanceMeters>
          </Trackpoint>
          <Trackpoint>
            <Time>2022-09-20T08:53:17.000Z</Time>
            <Position>
              <LatitudeDegrees>49.43940536119043827056884765625</LatitudeDegrees>
              <LongitudeDegrees>20.1462636888027191162109375</LongitudeDegrees>
            </Position>
            <AltitudeMeters>586.5999755859375</AltitudeMeters>
            <DistanceMeters>NAN</DistanceMeters>
          </Trackpoint>
          <Trackpoint>
            <Time>2022-09-20T08:53:19.000Z</Time>
            <Position>
              <LatitudeDegrees>49.43935674615204334259033203125</LatitudeDegrees>
              <LongitudeDegrees>20.1463651098310947418212890625</LongitudeDegrees>
            </Position>
            <AltitudeMeters>586.5999755859375</AltitudeMeters>
            <DistanceMeters>NAN</DistanceMeters>
          </Trackpoint>
          <Trackpoint>
            <Time>2022-09-20T08:53:21.000Z</Time>
            <Position>
              <LatitudeDegrees>49.43930326960980892181396484375</LatitudeDegrees>
              <LongitudeDegrees>20.14646552503108978271484375</LongitudeDegrees>
            </Position>
            <AltitudeMeters>586.4000244140625</AltitudeMeters>
            <DistanceMeters>NAN</DistanceMeters>
          </Trackpoint>
          <Trackpoint>
            <Time>2022-09-20T08:53:23.000Z</Time>
            <Position>
              <LatitudeDegrees>49.43924409337341785430908203125</LatitudeDegrees>
              <LongitudeDegrees>20.146574489772319793701171875</LongitudeDegrees>
            </Position>
            <AltitudeMeters>586.4000244140625</AltitudeMeters>
            <DistanceMeters>NAN</DistanceMeters>
          </Trackpoint>
          <Trackpoint>
            <Time>2022-09-20T08:53:24.000Z</Time>
            <Position>
              <LatitudeDegrees>49.43921375088393688201904296875</LatitudeDegrees>
              <LongitudeDegrees>20.1466333307325839996337890625</LongitudeDegrees>
            </Position>
            <AltitudeMeters>586.4000244140625</AltitudeMeters>
            <DistanceMeters>NAN</DistanceMeters>
          </Trackpoint>
          <Trackpoint>
            <Time>2022-09-20T08:53:29.000Z</Time>
            <Position>
              <LatitudeDegrees>49.43905130960047245025634765625</LatitudeDegrees>
              <LongitudeDegrees>20.14693566597998142242431640625</LongitudeDegrees>
            </Position>
            <AltitudeMeters>586.20001220703125</AltitudeMeters>
            <DistanceMeters>NAN</DistanceMeters>
          </Trackpoint>
          <Trackpoint>
            <Time>2022-09-20T08:53:37.000Z</Time>
            <Position>
              <LatitudeDegrees>49.43881141953170299530029296875</LatitudeDegrees>
              <LongitudeDegrees>20.147426761686801910400390625</LongitudeDegrees>
            </Position>
            <AltitudeMeters>586.4000244140625</AltitudeMeters>
            <DistanceMeters>NAN</DistanceMeters>
          </Trackpoint>
          <Trackpoint>
            <Time>2022-09-20T08:53:40.000Z</Time>
            <Position>
              <LatitudeDegrees>49.43875894881784915924072265625</LatitudeDegrees>
              <LongitudeDegrees>20.1475603692233562469482421875</LongitudeDegrees>
            </Position>
            <AltitudeMeters>586.20001220703125</AltitudeMeters>
            <DistanceMeters>NAN</DistanceMeters>
          </Trackpoint>
          <Trackpoint>
            <Time>2022-09-20T08:53:42.000Z</Time>
            <Position>
              <LatitudeDegrees>49.43868242204189300537109375</LatitudeDegrees>
              <LongitudeDegrees>20.1477635465562343597412109375</LongitudeDegrees>
            </Position>
            <AltitudeMeters>586</AltitudeMeters>
            <DistanceMeters>NAN</DistanceMeters>
          </Trackpoint>
          <Trackpoint>
            <Time>2022-09-20T08:53:44.000Z</Time>
            <Position>
              <LatitudeDegrees>49.438635148108005523681640625</LatitudeDegrees>
              <LongitudeDegrees>20.14788701198995113372802734375</LongitudeDegrees>
            </Position>
            <AltitudeMeters>586</AltitudeMeters>
            <DistanceMeters>NAN</DistanceMeters>
          </Trackpoint>
          <Trackpoint>
            <Time>2022-09-20T08:53:46.000Z</Time>
            <Position>
              <LatitudeDegrees>49.43858862854540348052978515625</LatitudeDegrees>
              <LongitudeDegrees>20.1480086334049701690673828125</LongitudeDegrees>
            </Position>
            <AltitudeMeters>586</AltitudeMeters>
            <DistanceMeters>NAN</DistanceMeters>
          </Trackpoint>
          <Trackpoint>
            <Time>2022-09-20T08:53:56.000Z</Time>
            <Position>
              <LatitudeDegrees>49.43831085227429866790771484375</LatitudeDegrees>
              <LongitudeDegrees>20.1487313210964202880859375</LongitudeDegrees>
            </Position>
            <AltitudeMeters>585.79998779296875</AltitudeMeters>
            <DistanceMeters>NAN</DistanceMeters>
          </Trackpoint>
          <Trackpoint>
            <Time>2022-09-20T08:54:02.000Z</Time>
            <Position>
              <LatitudeDegrees>49.43815897218883037567138671875</LatitudeDegrees>
              <LongitudeDegrees>20.14915737323462963104248046875</LongitudeDegrees>
            </Position>
            <AltitudeMeters>585.20001220703125</AltitudeMeters>
            <DistanceMeters>NAN</DistanceMeters>
          </Trackpoint>
          <Trackpoint>
            <Time>2022-09-20T08:54:06.000Z</Time>
            <Position>
              <LatitudeDegrees>49.43805168382823467254638671875</LatitudeDegrees>
              <LongitudeDegrees>20.1494469679892063140869140625</LongitudeDegrees>
            </Position>
            <AltitudeMeters>585</AltitudeMeters>
            <DistanceMeters>NAN</DistanceMeters>
          </Trackpoint>
          <Trackpoint>
            <Time>2022-09-20T08:54:15.000Z</Time>
            <Position>
              <LatitudeDegrees>49.43781799636781215667724609375</LatitudeDegrees>
              <LongitudeDegrees>20.15006764791905879974365234375</LongitudeDegrees>
            </Position>
            <AltitudeMeters>584.5999755859375</AltitudeMeters>
            <DistanceMeters>NAN</DistanceMeters>
          </Trackpoint>
          <Trackpoint>
            <Time>2022-09-20T08:54:20.000Z</Time>
            <Position>
              <LatitudeDegrees>49.4376898370683193206787109375</LatitudeDegrees>
              <LongitudeDegrees>20.15040828846395015716552734375</LongitudeDegrees>
            </Position>
            <AltitudeMeters>584.4000244140625</AltitudeMeters>
            <DistanceMeters>NAN</DistanceMeters>
          </Trackpoint>
          <Trackpoint>
            <Time>2022-09-20T08:54:24.000Z</Time>
            <Position>
              <LatitudeDegrees>49.43759101442992687225341796875</LatitudeDegrees>
              <LongitudeDegrees>20.15066175721585750579833984375</LongitudeDegrees>
            </Position>
            <AltitudeMeters>584.4000244140625</AltitudeMeters>
            <DistanceMeters>NAN</DistanceMeters>
          </Trackpoint>
          <Trackpoint>
            <Time>2022-09-20T08:54:34.000Z</Time>
            <Position>
              <LatitudeDegrees>49.43737258203327655792236328125</LatitudeDegrees>
              <LongitudeDegrees>20.15125863254070281982421875</LongitudeDegrees>
            </Position>
            <AltitudeMeters>585</AltitudeMeters>
            <DistanceMeters>NAN</DistanceMeters>
          </Trackpoint>
          <Trackpoint>
            <Time>2022-09-20T08:54:42.000Z</Time>
            <Position>
              <LatitudeDegrees>49.43720695562660694122314453125</LatitudeDegrees>
              <LongitudeDegrees>20.15169859863817691802978515625</LongitudeDegrees>
            </Position>
            <AltitudeMeters>585.5999755859375</AltitudeMeters>
            <DistanceMeters>NAN</DistanceMeters>
          </Trackpoint>
          <Trackpoint>
            <Time>2022-09-20T08:54:50.000Z</Time>
            <Position>
              <LatitudeDegrees>49.43705189041793346405029296875</LatitudeDegrees>
              <LongitudeDegrees>20.15209615230560302734375</LongitudeDegrees>
            </Position>
            <AltitudeMeters>585.79998779296875</AltitudeMeters>
            <DistanceMeters>NAN</DistanceMeters>
          </Trackpoint>
          <Trackpoint>
            <Time>2022-09-20T08:54:58.000Z</Time>
            <Position>
              <LatitudeDegrees>49.4369032792747020721435546875</LatitudeDegrees>
              <LongitudeDegrees>20.15249781310558319091796875</LongitudeDegrees>
            </Position>
            <AltitudeMeters>586</AltitudeMeters>
            <DistanceMeters>NAN</DistanceMeters>
          </Trackpoint>
          <Trackpoint>
            <Time>2022-09-20T08:55:05.000Z</Time>
            <Position>
              <LatitudeDegrees>49.43675852380692958831787109375</LatitudeDegrees>
              <LongitudeDegrees>20.15285144560039043426513671875</LongitudeDegrees>
            </Position>
            <AltitudeMeters>585.5999755859375</AltitudeMeters>
            <DistanceMeters>NAN</DistanceMeters>
          </Trackpoint>
          <Trackpoint>
            <Time>2022-09-20T08:55:11.000Z</Time>
            <Position>
              <LatitudeDegrees>49.436624161899089813232421875</LatitudeDegrees>
              <LongitudeDegrees>20.1532020606100559234619140625</LongitudeDegrees>
            </Position>
            <AltitudeMeters>585.5999755859375</AltitudeMeters>
            <DistanceMeters>NAN</DistanceMeters>
          </Trackpoint>
          <Trackpoint>
            <Time>2022-09-20T08:55:12.000Z</Time>
            <Position>
              <LatitudeDegrees>49.436624161899089813232421875</LatitudeDegrees>
              <LongitudeDegrees>20.1532020606100559234619140625</LongitudeDegrees>
            </Position>
            <AltitudeMeters>585.5999755859375</AltitudeMeters>
            <DistanceMeters>NAN</DistanceMeters>
          </Trackpoint>
          <Trackpoint>
            <Time>2022-09-20T08:55:14.000Z</Time>
            <Position>
              <LatitudeDegrees>49.4365777261555194854736328125</LatitudeDegrees>
              <LongitudeDegrees>20.15333893708884716033935546875</LongitudeDegrees>
            </Position>
            <AltitudeMeters>585.20001220703125</AltitudeMeters>
            <DistanceMeters>NAN</DistanceMeters>
          </Trackpoint>
          <Trackpoint>
            <Time>2022-09-20T08:55:17.000Z</Time>
            <Position>
              <LatitudeDegrees>49.436496086418628692626953125</LatitudeDegrees>
              <LongitudeDegrees>20.15356625430285930633544921875</LongitudeDegrees>
            </Position>
            <AltitudeMeters>584.5999755859375</AltitudeMeters>
            <DistanceMeters>NAN</DistanceMeters>
          </Trackpoint>
          <Trackpoint>
            <Time>2022-09-20T08:55:19.000Z</Time>
            <Position>
              <LatitudeDegrees>49.4364114291965961456298828125</LatitudeDegrees>
              <LongitudeDegrees>20.1538022048771381378173828125</LongitudeDegrees>
            </Position>
            <AltitudeMeters>584</AltitudeMeters>
            <DistanceMeters>NAN</DistanceMeters>
          </Trackpoint>
          <Trackpoint>
            <Time>2022-09-20T08:55:24.000Z</Time>
            <Position>
              <LatitudeDegrees>49.43626650609076023101806640625</LatitudeDegrees>
              <LongitudeDegrees>20.154194645583629608154296875</LongitudeDegrees>
            </Position>
            <AltitudeMeters>583.5999755859375</AltitudeMeters>
            <DistanceMeters>NAN</DistanceMeters>
          </Trackpoint>
          <Trackpoint>
            <Time>2022-09-20T08:55:30.000Z</Time>
            <Position>
              <LatitudeDegrees>49.43608478643000125885009765625</LatitudeDegrees>
              <LongitudeDegrees>20.15462614595890045166015625</LongitudeDegrees>
            </Position>
            <AltitudeMeters>583.20001220703125</AltitudeMeters>
            <DistanceMeters>NAN</DistanceMeters>
          </Trackpoint>
          <Trackpoint>
            <Time>2022-09-20T08:55:32.000Z</Time>
            <Position>
              <LatitudeDegrees>49.4360201619565486907958984375</LatitudeDegrees>
              <LongitudeDegrees>20.15476754866540431976318359375</LongitudeDegrees>
            </Position>
            <AltitudeMeters>583</AltitudeMeters>
            <DistanceMeters>NAN</DistanceMeters>
          </Trackpoint>
          <Trackpoint>
            <Time>2022-09-20T08:55:33.000Z</Time>
            <Position>
              <LatitudeDegrees>49.435985125601291656494140625</LatitudeDegrees>
              <LongitudeDegrees>20.15483745373785495758056640625</LongitudeDegrees>
            </Position>
            <AltitudeMeters>583</AltitudeMeters>
            <DistanceMeters>NAN</DistanceMeters>
          </Trackpoint>
          <Trackpoint>
            <Time>2022-09-20T08:55:34.000Z</Time>
            <Position>
              <LatitudeDegrees>49.4359457306563854217529296875</LatitudeDegrees>
              <LongitudeDegrees>20.15491138212382793426513671875</LongitudeDegrees>
            </Position>
            <AltitudeMeters>582.79998779296875</AltitudeMeters>
            <DistanceMeters>NAN</DistanceMeters>
          </Trackpoint>
          <Trackpoint>
            <Time>2022-09-20T08:55:38.000Z</Time>
            <Position>
              <LatitudeDegrees>49.43578454665839672088623046875</LatitudeDegrees>
              <LongitudeDegrees>20.15519284643232822418212890625</LongitudeDegrees>
            </Position>
            <AltitudeMeters>582.4000244140625</AltitudeMeters>
            <DistanceMeters>NAN</DistanceMeters>
          </Trackpoint>
          <Trackpoint>
            <Time>2022-09-20T08:55:41.000Z</Time>
            <Position>
              <LatitudeDegrees>49.4356667809188365936279296875</LatitudeDegrees>
              <LongitudeDegrees>20.1553967781364917755126953125</LongitudeDegrees>
            </Position>
            <AltitudeMeters>581.79998779296875</AltitudeMeters>
            <DistanceMeters>NAN</DistanceMeters>
          </Trackpoint>
          <Trackpoint>
            <Time>2022-09-20T08:55:42.000Z</Time>
            <Position>
              <LatitudeDegrees>49.43562646396458148956298828125</LatitudeDegrees>
              <LongitudeDegrees>20.15547028742730617523193359375</LongitudeDegrees>
            </Position>
            <AltitudeMeters>581.79998779296875</AltitudeMeters>
            <DistanceMeters>NAN</DistanceMeters>
          </Trackpoint>
          <Trackpoint>
            <Time>2022-09-20T08:55:48.000Z</Time>
            <Position>
              <LatitudeDegrees>49.43540082313120365142822265625</LatitudeDegrees>
              <LongitudeDegrees>20.1558953337371349334716796875</LongitudeDegrees>
            </Position>
            <AltitudeMeters>580.79998779296875</AltitudeMeters>
            <DistanceMeters>NAN</DistanceMeters>
          </Trackpoint>
          <Trackpoint>
            <Time>2022-09-20T08:55:51.000Z</Time>
            <Position>
              <LatitudeDegrees>49.435283057391643524169921875</LatitudeDegrees>
              <LongitudeDegrees>20.15608585439622402191162109375</LongitudeDegrees>
            </Position>
            <AltitudeMeters>580.5999755859375</AltitudeMeters>
            <DistanceMeters>NAN</DistanceMeters>
          </Trackpoint>
          <Trackpoint>
            <Time>2022-09-20T08:55:59.000Z</Time>
            <Position>
              <LatitudeDegrees>49.4350357912480831146240234375</LatitudeDegrees>
              <LongitudeDegrees>20.156521461904048919677734375</LongitudeDegrees>
            </Position>
            <AltitudeMeters>580.4000244140625</AltitudeMeters>
            <DistanceMeters>NAN</DistanceMeters>
          </Trackpoint>
          <Trackpoint>
            <Time>2022-09-20T08:56:00.000Z</Time>
            <Position>
              <LatitudeDegrees>49.43500335328280925750732421875</LatitudeDegrees>
              <LongitudeDegrees>20.15657904557883739471435546875</LongitudeDegrees>
            </Position>
            <AltitudeMeters>580.5999755859375</AltitudeMeters>
            <DistanceMeters>NAN</DistanceMeters>
          </Trackpoint>
          <Trackpoint>
            <Time>2022-09-20T08:56:02.000Z</Time>
            <Position>
              <LatitudeDegrees>49.4349103979766368865966796875</LatitudeDegrees>
              <LongitudeDegrees>20.15674643218517303466796875</LongitudeDegrees>
            </Position>
            <AltitudeMeters>580.5999755859375</AltitudeMeters>
            <DistanceMeters>NAN</DistanceMeters>
          </Trackpoint>
          <Trackpoint>
            <Time>2022-09-20T08:56:09.000Z</Time>
            <Position>
              <LatitudeDegrees>49.43472105078399181365966796875</LatitudeDegrees>
              <LongitudeDegrees>20.15708413906395435333251953125</LongitudeDegrees>
            </Position>
            <AltitudeMeters>580.5999755859375</AltitudeMeters>
            <DistanceMeters>NAN</DistanceMeters>
          </Trackpoint>
          <Trackpoint>
            <Time>2022-09-20T08:56:13.000Z</Time>
            <Position>
              <LatitudeDegrees>49.4346022792160511016845703125</LatitudeDegrees>
              <LongitudeDegrees>20.1572860591113567352294921875</LongitudeDegrees>
            </Position>
            <AltitudeMeters>580.5999755859375</AltitudeMeters>
            <DistanceMeters>NAN</DistanceMeters>
          </Trackpoint>
          <Trackpoint>
            <Time>2022-09-20T08:56:16.000Z</Time>
            <Position>
              <LatitudeDegrees>49.4345187954604625701904296875</LatitudeDegrees>
              <LongitudeDegrees>20.1574431359767913818359375</LongitudeDegrees>
            </Position>
            <AltitudeMeters>580.4000244140625</AltitudeMeters>
            <DistanceMeters>NAN</DistanceMeters>
          </Trackpoint>
          <Trackpoint>
            <Time>2022-09-20T08:56:17.000Z</Time>
            <Position>
              <LatitudeDegrees>49.4345187954604625701904296875</LatitudeDegrees>
              <LongitudeDegrees>20.1574431359767913818359375</LongitudeDegrees>
            </Position>
            <AltitudeMeters>580.4000244140625</AltitudeMeters>
            <DistanceMeters>NAN</DistanceMeters>
          </Trackpoint>
          <Trackpoint>
            <Time>2022-09-20T08:56:18.000Z</Time>
            <Position>
              <LatitudeDegrees>49.434466995298862457275390625</LatitudeDegrees>
              <LongitudeDegrees>20.1575334928929805755615234375</LongitudeDegrees>
            </Position>
            <AltitudeMeters>580.4000244140625</AltitudeMeters>
            <DistanceMeters>NAN</DistanceMeters>
          </Trackpoint>
          <Trackpoint>
            <Time>2022-09-20T08:56:23.000Z</Time>
            <Position>
              <LatitudeDegrees>49.4343538396060466766357421875</LatitudeDegrees>
              <LongitudeDegrees>20.1577453874051570892333984375</LongitudeDegrees>
            </Position>
            <AltitudeMeters>580.79998779296875</AltitudeMeters>
            <DistanceMeters>NAN</DistanceMeters>
          </Trackpoint>
          <Trackpoint>
            <Time>2022-09-20T08:56:28.000Z</Time>
            <Position>
              <LatitudeDegrees>49.43430363200604915618896484375</LatitudeDegrees>
              <LongitudeDegrees>20.1579468883574008941650390625</LongitudeDegrees>
            </Position>
            <AltitudeMeters>581.4000244140625</AltitudeMeters>
            <DistanceMeters>NAN</DistanceMeters>
          </Trackpoint>
          <Trackpoint>
            <Time>2022-09-20T08:56:30.000Z</Time>
            <Position>
              <LatitudeDegrees>49.4342901371419429779052734375</LatitudeDegrees>
              <LongitudeDegrees>20.15803129412233829498291015625</LongitudeDegrees>
            </Position>
            <AltitudeMeters>582</AltitudeMeters>
            <DistanceMeters>NAN</DistanceMeters>
          </Trackpoint>
          <Trackpoint>
            <Time>2022-09-20T08:56:33.000Z</Time>
            <Position>
              <LatitudeDegrees>49.43428334780037403106689453125</LatitudeDegrees>
              <LongitudeDegrees>20.15815014950931072235107421875</LongitudeDegrees>
            </Position>
            <AltitudeMeters>582.4000244140625</AltitudeMeters>
            <DistanceMeters>NAN</DistanceMeters>
          </Trackpoint>
          <Trackpoint>
            <Time>2022-09-20T08:56:34.000Z</Time>
            <Position>
              <LatitudeDegrees>49.4342898018658161163330078125</LatitudeDegrees>
              <LongitudeDegrees>20.15818987973034381866455078125</LongitudeDegrees>
            </Position>
            <AltitudeMeters>582.4000244140625</AltitudeMeters>
            <DistanceMeters>NAN</DistanceMeters>
          </Trackpoint>
          <Trackpoint>
            <Time>2022-09-20T08:56:40.000Z</Time>
            <Position>
              <LatitudeDegrees>49.43434084765613079071044921875</LatitudeDegrees>
              <LongitudeDegrees>20.15847511589527130126953125</LongitudeDegrees>
            </Position>
            <AltitudeMeters>582.79998779296875</AltitudeMeters>
            <DistanceMeters>NAN</DistanceMeters>
          </Trackpoint>
          <Trackpoint>
            <Time>2022-09-20T08:56:41.000Z</Time>
            <Position>
              <LatitudeDegrees>49.43435065448284149169921875</LatitudeDegrees>
              <LongitudeDegrees>20.15853052027523517608642578125</LongitudeDegrees>
            </Position>
            <AltitudeMeters>582.79998779296875</AltitudeMeters>
            <DistanceMeters>NAN</DistanceMeters>
          </Trackpoint>
          <Trackpoint>
            <Time>2022-09-20T08:56:42.000Z</Time>
            <Position>
              <LatitudeDegrees>49.4343622215092182159423828125</LatitudeDegrees>
              <LongitudeDegrees>20.15858902595937252044677734375</LongitudeDegrees>
            </Position>
            <AltitudeMeters>582.79998779296875</AltitudeMeters>
            <DistanceMeters>NAN</DistanceMeters>
          </Trackpoint>
          <Trackpoint>
            <Time>2022-09-20T08:56:48.000Z</Time>
            <Position>
              <LatitudeDegrees>49.4344326294958591461181640625</LatitudeDegrees>
              <LongitudeDegrees>20.15892815776169300079345703125</LongitudeDegrees>
            </Position>
            <AltitudeMeters>582.5999755859375</AltitudeMeters>
            <DistanceMeters>NAN</DistanceMeters>
          </Trackpoint>
          <Trackpoint>
            <Time>2022-09-20T08:56:56.000Z</Time>
            <Position>
              <LatitudeDegrees>49.4344560988247394561767578125</LatitudeDegrees>
              <LongitudeDegrees>20.15938882716000080108642578125</LongitudeDegrees>
            </Position>
            <AltitudeMeters>582.20001220703125</AltitudeMeters>
            <DistanceMeters>NAN</DistanceMeters>
          </Trackpoint>
          <Trackpoint>
            <Time>2022-09-20T08:56:57.000Z</Time>
            <Position>
              <LatitudeDegrees>49.434449560940265655517578125</LatitudeDegrees>
              <LongitudeDegrees>20.1595404557883739471435546875</LongitudeDegrees>
            </Position>
            <AltitudeMeters>582.20001220703125</AltitudeMeters>
            <DistanceMeters>NAN</DistanceMeters>
          </Trackpoint>
          <Trackpoint>
            <Time>2022-09-20T08:57:01.000Z</Time>
            <Position>
              <LatitudeDegrees>49.4344426877796649932861328125</LatitudeDegrees>
              <LongitudeDegrees>20.159842707216739654541015625</LongitudeDegrees>
            </Position>
            <AltitudeMeters>582</AltitudeMeters>
            <DistanceMeters>NAN</DistanceMeters>
          </Trackpoint>
          <Trackpoint>
            <Time>2022-09-20T08:57:10.000Z</Time>
            <Position>
              <LatitudeDegrees>49.43449147045612335205078125</LatitudeDegrees>
              <LongitudeDegrees>20.1605275087058544158935546875</LongitudeDegrees>
            </Position>
            <AltitudeMeters>581.4000244140625</AltitudeMeters>
            <DistanceMeters>NAN</DistanceMeters>
          </Trackpoint>
          <Trackpoint>
            <Time>2022-09-20T08:57:13.000Z</Time>
            <Position>
              <LatitudeDegrees>49.43450496532022953033447265625</LatitudeDegrees>
              <LongitudeDegrees>20.16077418811619281768798828125</LongitudeDegrees>
            </Position>
            <AltitudeMeters>581</AltitudeMeters>
            <DistanceMeters>NAN</DistanceMeters>
          </Trackpoint>
          <Trackpoint>
            <Time>2022-09-20T08:57:15.000Z</Time>
            <Position>
              <LatitudeDegrees>49.43451368249952793121337890625</LatitudeDegrees>
              <LongitudeDegrees>20.16091936267912387847900390625</LongitudeDegrees>
            </Position>
            <AltitudeMeters>580.79998779296875</AltitudeMeters>
            <DistanceMeters>NAN</DistanceMeters>
          </Trackpoint>
          <Trackpoint>
            <Time>2022-09-20T08:57:17.000Z</Time>
            <Position>
              <LatitudeDegrees>49.43451317958533763885498046875</LatitudeDegrees>
              <LongitudeDegrees>20.1609868369996547698974609375</LongitudeDegrees>
            </Position>
            <AltitudeMeters>580.4000244140625</AltitudeMeters>
            <DistanceMeters>NAN</DistanceMeters>
          </Trackpoint>
          <Trackpoint>
            <Time>2022-09-20T08:57:22.000Z</Time>
            <Position>
              <LatitudeDegrees>49.43451686762273311614990234375</LatitudeDegrees>
              <LongitudeDegrees>20.1612758450210094451904296875</LongitudeDegrees>
            </Position>
            <AltitudeMeters>580</AltitudeMeters>
            <DistanceMeters>NAN</DistanceMeters>
          </Trackpoint>
          <Trackpoint>
            <Time>2022-09-20T08:57:28.000Z</Time>
            <Position>
              <LatitudeDegrees>49.43449038080871105194091796875</LatitudeDegrees>
              <LongitudeDegrees>20.161604918539524078369140625</LongitudeDegrees>
            </Position>
            <AltitudeMeters>579.79998779296875</AltitudeMeters>
            <DistanceMeters>NAN</DistanceMeters>
          </Trackpoint>
          <Trackpoint>
            <Time>2022-09-20T08:57:31.000Z</Time>
            <Position>
              <LatitudeDegrees>49.43448300473392009735107421875</LatitudeDegrees>
              <LongitudeDegrees>20.16175956465303897857666015625</LongitudeDegrees>
            </Position>
            <AltitudeMeters>579.79998779296875</AltitudeMeters>
            <DistanceMeters>NAN</DistanceMeters>
          </Trackpoint>
          <Trackpoint>
            <Time>2022-09-20T08:57:39.000Z</Time>
            <Position>
              <LatitudeDegrees>49.43448610603809356689453125</LatitudeDegrees>
              <LongitudeDegrees>20.1621772348880767822265625</LongitudeDegrees>
            </Position>
            <AltitudeMeters>580</AltitudeMeters>
            <DistanceMeters>NAN</DistanceMeters>
          </Trackpoint>
          <Trackpoint>
            <Time>2022-09-20T08:57:44.000Z</Time>
            <Position>
              <LatitudeDegrees>49.43454737775027751922607421875</LatitudeDegrees>
              <LongitudeDegrees>20.162500441074371337890625</LongitudeDegrees>
            </Position>
            <AltitudeMeters>579.5999755859375</AltitudeMeters>
            <DistanceMeters>NAN</DistanceMeters>
          </Trackpoint>
          <Trackpoint>
            <Time>2022-09-20T08:57:45.000Z</Time>
            <Position>
              <LatitudeDegrees>49.43454737775027751922607421875</LatitudeDegrees>
              <LongitudeDegrees>20.162500441074371337890625</LongitudeDegrees>
            </Position>
            <AltitudeMeters>579.5999755859375</AltitudeMeters>
            <DistanceMeters>NAN</DistanceMeters>
          </Trackpoint>
          <Trackpoint>
            <Time>2022-09-20T08:57:47.000Z</Time>
            <Position>
              <LatitudeDegrees>49.434600435197353363037109375</LatitudeDegrees>
              <LongitudeDegrees>20.16270571388304233551025390625</LongitudeDegrees>
            </Position>
            <AltitudeMeters>579.20001220703125</AltitudeMeters>
            <DistanceMeters>NAN</DistanceMeters>
          </Trackpoint>
          <Trackpoint>
            <Time>2022-09-20T08:57:50.000Z</Time>
            <Position>
              <LatitudeDegrees>49.43468517623841762542724609375</LatitudeDegrees>
              <LongitudeDegrees>20.1629086397588253021240234375</LongitudeDegrees>
            </Position>
            <AltitudeMeters>578.79998779296875</AltitudeMeters>
            <DistanceMeters>NAN</DistanceMeters>
          </Trackpoint>
          <Trackpoint>
            <Time>2022-09-20T08:57:51.000Z</Time>
            <Position>
              <LatitudeDegrees>49.43471535108983516693115234375</LatitudeDegrees>
              <LongitudeDegrees>20.1629743538796901702880859375</LongitudeDegrees>
            </Position>
            <AltitudeMeters>578.79998779296875</AltitudeMeters>
            <DistanceMeters>NAN</DistanceMeters>
          </Trackpoint>
          <Trackpoint>
            <Time>2022-09-20T08:57:54.000Z</Time>
            <Position>
              <LatitudeDegrees>49.43480604328215122222900390625</LatitudeDegrees>
              <LongitudeDegrees>20.16316068358719348907470703125</LongitudeDegrees>
            </Position>
            <AltitudeMeters>578.5999755859375</AltitudeMeters>
            <DistanceMeters>NAN</DistanceMeters>
          </Trackpoint>
          <Trackpoint>
            <Time>2022-09-20T08:57:56.000Z</Time>
            <Position>
              <LatitudeDegrees>49.43486957810819149017333984375</LatitudeDegrees>
              <LongitudeDegrees>20.16329898498952388763427734375</LongitudeDegrees>
            </Position>
            <AltitudeMeters>578.4000244140625</AltitudeMeters>
            <DistanceMeters>NAN</DistanceMeters>
          </Trackpoint>
          <Trackpoint>
            <Time>2022-09-20T08:57:59.000Z</Time>
            <Position>
              <LatitudeDegrees>49.434965886175632476806640625</LatitudeDegrees>
              <LongitudeDegrees>20.16350534744560718536376953125</LongitudeDegrees>
            </Position>
            <AltitudeMeters>577.79998779296875</AltitudeMeters>
            <DistanceMeters>NAN</DistanceMeters>
          </Trackpoint>
          <Trackpoint>
            <Time>2022-09-20T08:58:05.000Z</Time>
            <Position>
              <LatitudeDegrees>49.4351568259298801422119140625</LatitudeDegrees>
              <LongitudeDegrees>20.16392963938415050506591796875</LongitudeDegrees>
            </Position>
            <AltitudeMeters>577.4000244140625</AltitudeMeters>
            <DistanceMeters>NAN</DistanceMeters>
          </Trackpoint>
          <Trackpoint>
            <Time>2022-09-20T08:58:10.000Z</Time>
            <Position>
              <LatitudeDegrees>49.43528247065842151641845703125</LatitudeDegrees>
              <LongitudeDegrees>20.16419098712503910064697265625</LongitudeDegrees>
            </Position>
            <AltitudeMeters>576.79998779296875</AltitudeMeters>
            <DistanceMeters>NAN</DistanceMeters>
          </Trackpoint>
          <Trackpoint>
            <Time>2022-09-20T08:58:16.000Z</Time>
            <Position>
              <LatitudeDegrees>49.4355086982250213623046875</LatitudeDegrees>
              <LongitudeDegrees>20.16466967761516571044921875</LongitudeDegrees>
            </Position>
            <AltitudeMeters>576</AltitudeMeters>
            <DistanceMeters>NAN</DistanceMeters>
          </Trackpoint>
          <Trackpoint>
            <Time>2022-09-20T08:58:20.000Z</Time>
            <Position>
              <LatitudeDegrees>49.4356319122016429901123046875</LatitudeDegrees>
              <LongitudeDegrees>20.16493496485054492950439453125</LongitudeDegrees>
            </Position>
            <AltitudeMeters>575.5999755859375</AltitudeMeters>
            <DistanceMeters>NAN</DistanceMeters>
          </Trackpoint>
          <Trackpoint>
            <Time>2022-09-20T08:58:27.000Z</Time>
            <Position>
              <LatitudeDegrees>49.435835592448711395263671875</LatitudeDegrees>
              <LongitudeDegrees>20.1653883419930934906005859375</LongitudeDegrees>
            </Position>
            <AltitudeMeters>575.20001220703125</AltitudeMeters>
            <DistanceMeters>NAN</DistanceMeters>
          </Trackpoint>
          <Trackpoint>
            <Time>2022-09-20T08:58:28.000Z</Time>
            <Position>
              <LatitudeDegrees>49.435857720673084259033203125</LatitudeDegrees>
              <LongitudeDegrees>20.16547073610126972198486328125</LongitudeDegrees>
            </Position>
            <AltitudeMeters>575.20001220703125</AltitudeMeters>
            <DistanceMeters>NAN</DistanceMeters>
          </Trackpoint>
          <Trackpoint>
            <Time>2022-09-20T08:58:32.000Z</Time>
            <Position>
              <LatitudeDegrees>49.4359038211405277252197265625</LatitudeDegrees>
              <LongitudeDegrees>20.16576276160776615142822265625</LongitudeDegrees>
            </Position>
            <AltitudeMeters>575</AltitudeMeters>
            <DistanceMeters>NAN</DistanceMeters>
          </Trackpoint>
          <Trackpoint>
            <Time>2022-09-20T08:58:35.000Z</Time>
            <Position>
              <LatitudeDegrees>49.43592033348977565765380859375</LatitudeDegrees>
              <LongitudeDegrees>20.16599996946752071380615234375</LongitudeDegrees>
            </Position>
            <AltitudeMeters>574.79998779296875</AltitudeMeters>
            <DistanceMeters>NAN</DistanceMeters>
          </Trackpoint>
          <Trackpoint>
            <Time>2022-09-20T08:58:37.000Z</Time>
            <Position>
              <LatitudeDegrees>49.43591572344303131103515625</LatitudeDegrees>
              <LongitudeDegrees>20.16607574187219142913818359375</LongitudeDegrees>
            </Position>
            <AltitudeMeters>574.5999755859375</AltitudeMeters>
            <DistanceMeters>NAN</DistanceMeters>
          </Trackpoint>
          <Trackpoint>
            <Time>2022-09-20T08:58:38.000Z</Time>
            <Position>
              <LatitudeDegrees>49.43590692244470119476318359375</LatitudeDegrees>
              <LongitudeDegrees>20.16623265109956264495849609375</LongitudeDegrees>
            </Position>
            <AltitudeMeters>574.5999755859375</AltitudeMeters>
            <DistanceMeters>NAN</DistanceMeters>
          </Trackpoint>
          <Trackpoint>
            <Time>2022-09-20T08:58:42.000Z</Time>
            <Position>
              <LatitudeDegrees>49.43588965572416782379150390625</LatitudeDegrees>
              <LongitudeDegrees>20.166530795395374298095703125</LongitudeDegrees>
            </Position>
            <AltitudeMeters>574.5999755859375</AltitudeMeters>
            <DistanceMeters>NAN</DistanceMeters>
          </Trackpoint>
          <Trackpoint>
            <Time>2022-09-20T08:58:47.000Z</Time>
            <Position>
              <LatitudeDegrees>49.4358592294156551361083984375</LatitudeDegrees>
              <LongitudeDegrees>20.16689465381205081939697265625</LongitudeDegrees>
            </Position>
            <AltitudeMeters>574.4000244140625</AltitudeMeters>
            <DistanceMeters>NAN</DistanceMeters>
          </Trackpoint>
          <Trackpoint>
            <Time>2022-09-20T08:58:54.000Z</Time>
            <Position>
              <LatitudeDegrees>49.435819499194622039794921875</LatitudeDegrees>
              <LongitudeDegrees>20.16740779392421245574951171875</LongitudeDegrees>
            </Position>
            <AltitudeMeters>573.79998779296875</AltitudeMeters>
            <DistanceMeters>NAN</DistanceMeters>
          </Trackpoint>
          <Trackpoint>
            <Time>2022-09-20T08:58:56.000Z</Time>
            <Position>
              <LatitudeDegrees>49.43581002764403820037841796875</LatitudeDegrees>
              <LongitudeDegrees>20.16755263321101665496826171875</LongitudeDegrees>
            </Position>
            <AltitudeMeters>573.5999755859375</AltitudeMeters>
            <DistanceMeters>NAN</DistanceMeters>
          </Trackpoint>
          <Trackpoint>
            <Time>2022-09-20T08:59:03.000Z</Time>
            <Position>
              <LatitudeDegrees>49.43576476536691188812255859375</LatitudeDegrees>
              <LongitudeDegrees>20.16809024848043918609619140625</LongitudeDegrees>
            </Position>
            <AltitudeMeters>573</AltitudeMeters>
            <DistanceMeters>NAN</DistanceMeters>
          </Trackpoint>
          <Trackpoint>
            <Time>2022-09-20T08:59:12.000Z</Time>
            <Position>
              <LatitudeDegrees>49.43572738207876682281494140625</LatitudeDegrees>
              <LongitudeDegrees>20.1688291132450103759765625</LongitudeDegrees>
            </Position>
            <AltitudeMeters>572.79998779296875</AltitudeMeters>
            <DistanceMeters>NAN</DistanceMeters>
          </Trackpoint>
          <Trackpoint>
            <Time>2022-09-20T08:59:17.000Z</Time>
            <Position>
              <LatitudeDegrees>49.4357029907405376434326171875</LatitudeDegrees>
              <LongitudeDegrees>20.1692423410713672637939453125</LongitudeDegrees>
            </Position>
            <AltitudeMeters>572.5999755859375</AltitudeMeters>
            <DistanceMeters>NAN</DistanceMeters>
          </Trackpoint>
          <Trackpoint>
            <Time>2022-09-20T08:59:20.000Z</Time>
            <Position>
              <LatitudeDegrees>49.43568530492484569549560546875</LatitudeDegrees>
              <LongitudeDegrees>20.16949103213846683502197265625</LongitudeDegrees>
            </Position>
            <AltitudeMeters>572.4000244140625</AltitudeMeters>
            <DistanceMeters>NAN</DistanceMeters>
          </Trackpoint>
          <Trackpoint>
            <Time>2022-09-20T08:59:28.000Z</Time>
            <Position>
              <LatitudeDegrees>49.43564222194254398345947265625</LatitudeDegrees>
              <LongitudeDegrees>20.17016041092574596405029296875</LongitudeDegrees>
            </Position>
            <AltitudeMeters>571.5999755859375</AltitudeMeters>
            <DistanceMeters>NAN</DistanceMeters>
          </Trackpoint>
          <Trackpoint>
            <Time>2022-09-20T08:59:30.000Z</Time>
            <Position>
              <LatitudeDegrees>49.43563786335289478302001953125</LatitudeDegrees>
              <LongitudeDegrees>20.17032318748533725738525390625</LongitudeDegrees>
            </Position>
            <AltitudeMeters>571.4000244140625</AltitudeMeters>
            <DistanceMeters>NAN</DistanceMeters>
          </Trackpoint>
          <Trackpoint>
            <Time>2022-09-20T08:59:37.000Z</Time>
            <Position>
              <LatitudeDegrees>49.43565328605473041534423828125</LatitudeDegrees>
              <LongitudeDegrees>20.17085543833673000335693359375</LongitudeDegrees>
            </Position>
            <AltitudeMeters>571</AltitudeMeters>
            <DistanceMeters>NAN</DistanceMeters>
          </Trackpoint>
          <Trackpoint>
            <Time>2022-09-20T08:59:45.000Z</Time>
            <Position>
              <LatitudeDegrees>49.43580198101699352264404296875</LatitudeDegrees>
              <LongitudeDegrees>20.17141811549663543701171875</LongitudeDegrees>
            </Position>
            <AltitudeMeters>570.79998779296875</AltitudeMeters>
            <DistanceMeters>NAN</DistanceMeters>
          </Trackpoint>
          <Trackpoint>
            <Time>2022-09-20T08:59:51.000Z</Time>
            <Position>
              <LatitudeDegrees>49.435950927436351776123046875</LatitudeDegrees>
              <LongitudeDegrees>20.17181114293634891510009765625</LongitudeDegrees>
            </Position>
            <AltitudeMeters>570.79998779296875</AltitudeMeters>
            <DistanceMeters>NAN</DistanceMeters>
          </Trackpoint>
          <Trackpoint>
            <Time>2022-09-20T08:59:54.000Z</Time>
            <Position>
              <LatitudeDegrees>49.436028711497783660888671875</LatitudeDegrees>
              <LongitudeDegrees>20.17200426198542118072509765625</LongitudeDegrees>
            </Position>
            <AltitudeMeters>570.79998779296875</AltitudeMeters>
            <DistanceMeters>NAN</DistanceMeters>
          </Trackpoint>
          <Trackpoint>
            <Time>2022-09-20T09:00:03.000Z</Time>
            <Position>
              <LatitudeDegrees>49.43624353967607021331787109375</LatitudeDegrees>
              <LongitudeDegrees>20.17259024083614349365234375</LongitudeDegrees>
            </Position>
            <AltitudeMeters>570.4000244140625</AltitudeMeters>
            <DistanceMeters>NAN</DistanceMeters>
          </Trackpoint>
          <Trackpoint>
            <Time>2022-09-20T09:00:04.000Z</Time>
            <Position>
              <LatitudeDegrees>49.43627337925136089324951171875</LatitudeDegrees>
              <LongitudeDegrees>20.17265251837670803070068359375</LongitudeDegrees>
            </Position>
            <AltitudeMeters>570.4000244140625</AltitudeMeters>
            <DistanceMeters>NAN</DistanceMeters>
          </Trackpoint>
          <Trackpoint>
            <Time>2022-09-20T09:00:10.000Z</Time>
            <Position>
              <LatitudeDegrees>49.43642341531813144683837890625</LatitudeDegrees>
              <LongitudeDegrees>20.1730540953576564788818359375</LongitudeDegrees>
            </Position>
            <AltitudeMeters>570</AltitudeMeters>
            <DistanceMeters>NAN</DistanceMeters>
          </Trackpoint>
          <Trackpoint>
            <Time>2022-09-20T09:00:12.000Z</Time>
            <Position>
              <LatitudeDegrees>49.436472952365875244140625</LatitudeDegrees>
              <LongitudeDegrees>20.17319298349320888519287109375</LongitudeDegrees>
            </Position>
            <AltitudeMeters>569.79998779296875</AltitudeMeters>
            <DistanceMeters>NAN</DistanceMeters>
          </Trackpoint>
          <Trackpoint>
            <Time>2022-09-20T09:00:14.000Z</Time>
            <Position>
              <LatitudeDegrees>49.4365183822810649871826171875</LatitudeDegrees>
              <LongitudeDegrees>20.17331971786916255950927734375</LongitudeDegrees>
            </Position>
            <AltitudeMeters>569.5999755859375</AltitudeMeters>
            <DistanceMeters>NAN</DistanceMeters>
          </Trackpoint>
          <Trackpoint>
            <Time>2022-09-20T09:00:21.000Z</Time>
            <Position>
              <LatitudeDegrees>49.43670923821628093719482421875</LatitudeDegrees>
              <LongitudeDegrees>20.1738188602030277252197265625</LongitudeDegrees>
            </Position>
            <AltitudeMeters>569.5999755859375</AltitudeMeters>
            <DistanceMeters>NAN</DistanceMeters>
          </Trackpoint>
          <Trackpoint>
            <Time>2022-09-20T09:00:25.000Z</Time>
            <Position>
              <LatitudeDegrees>49.43680713884532451629638671875</LatitudeDegrees>
              <LongitudeDegrees>20.17407484352588653564453125</LongitudeDegrees>
            </Position>
            <AltitudeMeters>569.20001220703125</AltitudeMeters>
            <DistanceMeters>NAN</DistanceMeters>
          </Trackpoint>
          <Trackpoint>
            <Time>2022-09-20T09:00:29.000Z</Time>
            <Position>
              <LatitudeDegrees>49.43688274361193180084228515625</LatitudeDegrees>
              <LongitudeDegrees>20.17433091066777706146240234375</LongitudeDegrees>
            </Position>
            <AltitudeMeters>569</AltitudeMeters>
            <DistanceMeters>NAN</DistanceMeters>
          </Trackpoint>
          <Trackpoint>
            <Time>2022-09-20T09:00:33.000Z</Time>
            <Position>
              <LatitudeDegrees>49.4369713403284549713134765625</LatitudeDegrees>
              <LongitudeDegrees>20.17458186484873294830322265625</LongitudeDegrees>
            </Position>
            <AltitudeMeters>569</AltitudeMeters>
            <DistanceMeters>NAN</DistanceMeters>
          </Trackpoint>
          <Trackpoint>
            <Time>2022-09-20T09:00:37.000Z</Time>
            <Position>
              <LatitudeDegrees>49.43707049824297428131103515625</LatitudeDegrees>
              <LongitudeDegrees>20.17484757117927074432373046875</LongitudeDegrees>
            </Position>
            <AltitudeMeters>569</AltitudeMeters>
            <DistanceMeters>NAN</DistanceMeters>
          </Trackpoint>
          <Trackpoint>
            <Time>2022-09-20T09:00:41.000Z</Time>
            <Position>
              <LatitudeDegrees>49.4371778704226016998291015625</LatitudeDegrees>
              <LongitudeDegrees>20.17507933080196380615234375</LongitudeDegrees>
            </Position>
            <AltitudeMeters>568.79998779296875</AltitudeMeters>
            <DistanceMeters>NAN</DistanceMeters>
          </Trackpoint>
          <Trackpoint>
            <Time>2022-09-20T09:00:46.000Z</Time>
            <Position>
              <LatitudeDegrees>49.4373274035751819610595703125</LatitudeDegrees>
              <LongitudeDegrees>20.175359286367893218994140625</LongitudeDegrees>
            </Position>
            <AltitudeMeters>568.79998779296875</AltitudeMeters>
            <DistanceMeters>NAN</DistanceMeters>
          </Trackpoint>
          <Trackpoint>
            <Time>2022-09-20T09:00:53.000Z</Time>
            <Position>
              <LatitudeDegrees>49.43759478628635406494140625</LatitudeDegrees>
              <LongitudeDegrees>20.17572985030710697174072265625</LongitudeDegrees>
            </Position>
            <AltitudeMeters>568.20001220703125</AltitudeMeters>
            <DistanceMeters>NAN</DistanceMeters>
          </Trackpoint>
          <Trackpoint>
            <Time>2022-09-20T09:00:54.000Z</Time>
            <Position>
              <LatitudeDegrees>49.4376268051564693450927734375</LatitudeDegrees>
              <LongitudeDegrees>20.17577846534550189971923828125</LongitudeDegrees>
            </Position>
            <AltitudeMeters>568.20001220703125</AltitudeMeters>
            <DistanceMeters>NAN</DistanceMeters>
          </Trackpoint>
          <Trackpoint>
            <Time>2022-09-20T09:00:57.000Z</Time>
            <Position>
              <LatitudeDegrees>49.43776351399719715118408203125</LatitudeDegrees>
              <LongitudeDegrees>20.175970159471035003662109375</LongitudeDegrees>
            </Position>
            <AltitudeMeters>567.79998779296875</AltitudeMeters>
            <DistanceMeters>NAN</DistanceMeters>
          </Trackpoint>
          <Trackpoint>
            <Time>2022-09-20T09:00:58.000Z</Time>
            <Position>
              <LatitudeDegrees>49.43780978210270404815673828125</LatitudeDegrees>
              <LongitudeDegrees>20.1760293357074260711669921875</LongitudeDegrees>
            </Position>
            <AltitudeMeters>567.79998779296875</AltitudeMeters>
            <DistanceMeters>NAN</DistanceMeters>
          </Trackpoint>
          <Trackpoint>
            <Time>2022-09-20T09:01:01.000Z</Time>
            <Position>
              <LatitudeDegrees>49.4379422999918460845947265625</LatitudeDegrees>
              <LongitudeDegrees>20.17621717415750026702880859375</LongitudeDegrees>
            </Position>
            <AltitudeMeters>567.5999755859375</AltitudeMeters>
            <DistanceMeters>NAN</DistanceMeters>
          </Trackpoint>
          <Trackpoint>
            <Time>2022-09-20T09:01:03.000Z</Time>
            <Position>
              <LatitudeDegrees>49.438022263348102569580078125</LatitudeDegrees>
              <LongitudeDegrees>20.17635027877986431121826171875</LongitudeDegrees>
            </Position>
            <AltitudeMeters>567</AltitudeMeters>
            <DistanceMeters>NAN</DistanceMeters>
          </Trackpoint>
          <Trackpoint>
            <Time>2022-09-20T09:01:09.000Z</Time>
            <Position>
              <LatitudeDegrees>49.4382313080132007598876953125</LatitudeDegrees>
              <LongitudeDegrees>20.17675881274044513702392578125</LongitudeDegrees>
            </Position>
            <AltitudeMeters>566.4000244140625</AltitudeMeters>
            <DistanceMeters>NAN</DistanceMeters>
          </Trackpoint>
          <Trackpoint>
            <Time>2022-09-20T09:01:11.000Z</Time>
            <Position>
              <LatitudeDegrees>49.43828956224024295806884765625</LatitudeDegrees>
              <LongitudeDegrees>20.17690130509436130523681640625</LongitudeDegrees>
            </Position>
            <AltitudeMeters>566</AltitudeMeters>
            <DistanceMeters>NAN</DistanceMeters>
          </Trackpoint>
          <Trackpoint>
            <Time>2022-09-20T09:01:12.000Z</Time>
            <Position>
              <LatitudeDegrees>49.43831454031169414520263671875</LatitudeDegrees>
              <LongitudeDegrees>20.17697573639452457427978515625</LongitudeDegrees>
            </Position>
            <AltitudeMeters>566</AltitudeMeters>
            <DistanceMeters>NAN</DistanceMeters>
          </Trackpoint>
          <Trackpoint>
            <Time>2022-09-20T09:01:16.000Z</Time>
            <Position>
              <LatitudeDegrees>49.43840422667562961578369140625</LatitudeDegrees>
              <LongitudeDegrees>20.1772758923470973968505859375</LongitudeDegrees>
            </Position>
            <AltitudeMeters>565.79998779296875</AltitudeMeters>
            <DistanceMeters>NAN</DistanceMeters>
          </Trackpoint>
          <Trackpoint>
            <Time>2022-09-20T09:01:27.000Z</Time>
            <Position>
              <LatitudeDegrees>49.43865601904690265655517578125</LatitudeDegrees>
              <LongitudeDegrees>20.17808013595640659332275390625</LongitudeDegrees>
            </Position>
            <AltitudeMeters>565.20001220703125</AltitudeMeters>
            <DistanceMeters>NAN</DistanceMeters>
          </Trackpoint>
          <Trackpoint>
            <Time>2022-09-20T09:01:33.000Z</Time>
            <Position>
              <LatitudeDegrees>49.43878945894539356231689453125</LatitudeDegrees>
              <LongitudeDegrees>20.17850124277174472808837890625</LongitudeDegrees>
            </Position>
            <AltitudeMeters>565</AltitudeMeters>
            <DistanceMeters>NAN</DistanceMeters>
          </Trackpoint>
          <Trackpoint>
            <Time>2022-09-20T09:01:40.000Z</Time>
            <Position>
              <LatitudeDegrees>49.4389514811336994171142578125</LatitudeDegrees>
              <LongitudeDegrees>20.17898940481245517730712890625</LongitudeDegrees>
            </Position>
            <AltitudeMeters>564.5999755859375</AltitudeMeters>
            <DistanceMeters>NAN</DistanceMeters>
          </Trackpoint>
          <Trackpoint>
            <Time>2022-09-20T09:01:50.000Z</Time>
            <Position>
              <LatitudeDegrees>49.43922556936740875244140625</LatitudeDegrees>
              <LongitudeDegrees>20.17966297455132007598876953125</LongitudeDegrees>
            </Position>
            <AltitudeMeters>564</AltitudeMeters>
            <DistanceMeters>NAN</DistanceMeters>
          </Trackpoint>
          <Trackpoint>
            <Time>2022-09-20T09:01:51.000Z</Time>
            <Position>
              <LatitudeDegrees>49.43925616331398487091064453125</LatitudeDegrees>
              <LongitudeDegrees>20.17973271198570728302001953125</LongitudeDegrees>
            </Position>
            <AltitudeMeters>563.79998779296875</AltitudeMeters>
            <DistanceMeters>NAN</DistanceMeters>
          </Trackpoint>
          <Trackpoint>
            <Time>2022-09-20T09:01:56.000Z</Time>
            <Position>
              <LatitudeDegrees>49.4394041039049625396728515625</LatitudeDegrees>
              <LongitudeDegrees>20.18010520376265048980712890625</LongitudeDegrees>
            </Position>
            <AltitudeMeters>563.4000244140625</AltitudeMeters>
            <DistanceMeters>NAN</DistanceMeters>
          </Trackpoint>
          <Trackpoint>
            <Time>2022-09-20T09:02:00.000Z</Time>
            <Position>
              <LatitudeDegrees>49.43952262401580810546875</LatitudeDegrees>
              <LongitudeDegrees>20.18042069859802722930908203125</LongitudeDegrees>
            </Position>
            <AltitudeMeters>562.79998779296875</AltitudeMeters>
            <DistanceMeters>NAN</DistanceMeters>
          </Trackpoint>
          <Trackpoint>
            <Time>2022-09-20T09:02:07.000Z</Time>
            <Position>
              <LatitudeDegrees>49.43967928178608417510986328125</LatitudeDegrees>
              <LongitudeDegrees>20.1810313202440738677978515625</LongitudeDegrees>
            </Position>
            <AltitudeMeters>562.20001220703125</AltitudeMeters>
            <DistanceMeters>NAN</DistanceMeters>
          </Trackpoint>
          <Trackpoint>
            <Time>2022-09-20T09:02:11.000Z</Time>
            <Position>
              <LatitudeDegrees>49.43975706584751605987548828125</LatitudeDegrees>
              <LongitudeDegrees>20.18137807957828044891357421875</LongitudeDegrees>
            </Position>
            <AltitudeMeters>561.5999755859375</AltitudeMeters>
            <DistanceMeters>NAN</DistanceMeters>
          </Trackpoint>
          <Trackpoint>
            <Time>2022-09-20T09:02:15.000Z</Time>
            <Position>
              <LatitudeDegrees>49.4398342631757259368896484375</LatitudeDegrees>
              <LongitudeDegrees>20.181713104248046875</LongitudeDegrees>
            </Position>
            <AltitudeMeters>561.4000244140625</AltitudeMeters>
            <DistanceMeters>NAN</DistanceMeters>
          </Trackpoint>
          <Trackpoint>
            <Time>2022-09-20T09:02:23.000Z</Time>
            <Position>
              <LatitudeDegrees>49.440056718885898590087890625</LatitudeDegrees>
              <LongitudeDegrees>20.18235825933516025543212890625</LongitudeDegrees>
            </Position>
            <AltitudeMeters>560.79998779296875</AltitudeMeters>
            <DistanceMeters>NAN</DistanceMeters>
          </Trackpoint>
          <Trackpoint>
            <Time>2022-09-20T09:02:24.000Z</Time>
            <Position>
              <LatitudeDegrees>49.44008764810860157012939453125</LatitudeDegrees>
              <LongitudeDegrees>20.18244107253849506378173828125</LongitudeDegrees>
            </Position>
            <AltitudeMeters>560.5999755859375</AltitudeMeters>
            <DistanceMeters>NAN</DistanceMeters>
          </Trackpoint>
          <Trackpoint>
            <Time>2022-09-20T09:02:31.000Z</Time>
            <Position>
              <LatitudeDegrees>49.440303146839141845703125</LatitudeDegrees>
              <LongitudeDegrees>20.183022022247314453125</LongitudeDegrees>
            </Position>
            <AltitudeMeters>559.4000244140625</AltitudeMeters>
            <DistanceMeters>NAN</DistanceMeters>
          </Trackpoint>
          <Trackpoint>
            <Time>2022-09-20T09:02:33.000Z</Time>
            <Position>
              <LatitudeDegrees>49.44036014378070831298828125</LatitudeDegrees>
              <LongitudeDegrees>20.18319192342460155487060546875</LongitudeDegrees>
            </Position>
            <AltitudeMeters>559.20001220703125</AltitudeMeters>
            <DistanceMeters>NAN</DistanceMeters>
          </Trackpoint>
          <Trackpoint>
            <Time>2022-09-20T09:02:37.000Z</Time>
            <Position>
              <LatitudeDegrees>49.44047539494931697845458984375</LatitudeDegrees>
              <LongitudeDegrees>20.1835375092923641204833984375</LongitudeDegrees>
            </Position>
            <AltitudeMeters>558.4000244140625</AltitudeMeters>
            <DistanceMeters>NAN</DistanceMeters>
          </Trackpoint>
          <Trackpoint>
            <Time>2022-09-20T09:02:38.000Z</Time>
            <Position>
              <LatitudeDegrees>49.44049785844981670379638671875</LatitudeDegrees>
              <LongitudeDegrees>20.18362426199018955230712890625</LongitudeDegrees>
            </Position>
            <AltitudeMeters>558.4000244140625</AltitudeMeters>
            <DistanceMeters>NAN</DistanceMeters>
          </Trackpoint>
          <Trackpoint>
            <Time>2022-09-20T09:02:44.000Z</Time>
            <Position>
              <LatitudeDegrees>49.4406395964324474334716796875</LatitudeDegrees>
              <LongitudeDegrees>20.18412030301988124847412109375</LongitudeDegrees>
            </Position>
            <AltitudeMeters>557.4000244140625</AltitudeMeters>
            <DistanceMeters>NAN</DistanceMeters>
          </Trackpoint>
          <Trackpoint>
            <Time>2022-09-20T09:02:46.000Z</Time>
            <Position>
              <LatitudeDegrees>49.440687708556652069091796875</LatitudeDegrees>
              <LongitudeDegrees>20.18428559415042400360107421875</LongitudeDegrees>
            </Position>
            <AltitudeMeters>557.20001220703125</AltitudeMeters>
            <DistanceMeters>NAN</DistanceMeters>
          </Trackpoint>
          <Trackpoint>
            <Time>2022-09-20T09:02:48.000Z</Time>
            <Position>
              <LatitudeDegrees>49.44071193225681781768798828125</LatitudeDegrees>
              <LongitudeDegrees>20.18436891026794910430908203125</LongitudeDegrees>
            </Position>
            <AltitudeMeters>557.20001220703125</AltitudeMeters>
            <DistanceMeters>NAN</DistanceMeters>
          </Trackpoint>
          <Trackpoint>
            <Time>2022-09-20T09:02:52.000Z</Time>
            <Position>
              <LatitudeDegrees>49.4408328831195831298828125</LatitudeDegrees>
              <LongitudeDegrees>20.1847937889397144317626953125</LongitudeDegrees>
            </Position>
            <AltitudeMeters>557.20001220703125</AltitudeMeters>
            <DistanceMeters>NAN</DistanceMeters>
          </Trackpoint>
          <Trackpoint>
            <Time>2022-09-20T09:02:54.000Z</Time>
            <Position>
              <LatitudeDegrees>49.44088174961507320404052734375</LatitudeDegrees>
              <LongitudeDegrees>20.184970982372760772705078125</LongitudeDegrees>
            </Position>
            <AltitudeMeters>557</AltitudeMeters>
            <DistanceMeters>NAN</DistanceMeters>
          </Trackpoint>
          <Trackpoint>
            <Time>2022-09-20T09:03:01.000Z</Time>
            <Position>
              <LatitudeDegrees>49.4410244934260845184326171875</LatitudeDegrees>
              <LongitudeDegrees>20.18559870310127735137939453125</LongitudeDegrees>
            </Position>
            <AltitudeMeters>556.4000244140625</AltitudeMeters>
            <DistanceMeters>NAN</DistanceMeters>
          </Trackpoint>
          <Trackpoint>
            <Time>2022-09-20T09:03:03.000Z</Time>
            <Position>
              <LatitudeDegrees>49.44104318507015705108642578125</LatitudeDegrees>
              <LongitudeDegrees>20.185786373913288116455078125</LongitudeDegrees>
            </Position>
            <AltitudeMeters>556.20001220703125</AltitudeMeters>
            <DistanceMeters>NAN</DistanceMeters>
          </Trackpoint>
          <Trackpoint>
            <Time>2022-09-20T09:03:06.000Z</Time>
            <Position>
              <LatitudeDegrees>49.441047124564647674560546875</LatitudeDegrees>
              <LongitudeDegrees>20.18606104888021945953369140625</LongitudeDegrees>
            </Position>
            <AltitudeMeters>556.20001220703125</AltitudeMeters>
            <DistanceMeters>NAN</DistanceMeters>
          </Trackpoint>
          <Trackpoint>
            <Time>2022-09-20T09:03:11.000Z</Time>
            <Position>
              <LatitudeDegrees>49.440992139279842376708984375</LatitudeDegrees>
              <LongitudeDegrees>20.18646530807018280029296875</LongitudeDegrees>
            </Position>
            <AltitudeMeters>555.4000244140625</AltitudeMeters>
            <DistanceMeters>NAN</DistanceMeters>
          </Trackpoint>
          <Trackpoint>
            <Time>2022-09-20T09:03:15.000Z</Time>
            <Position>
              <LatitudeDegrees>49.4409446977078914642333984375</LatitudeDegrees>
              <LongitudeDegrees>20.1867648772895336151123046875</LongitudeDegrees>
            </Position>
            <AltitudeMeters>555.20001220703125</AltitudeMeters>
            <DistanceMeters>NAN</DistanceMeters>
          </Trackpoint>
          <Trackpoint>
            <Time>2022-09-20T09:03:16.000Z</Time>
            <Position>
              <LatitudeDegrees>49.440936148166656494140625</LatitudeDegrees>
              <LongitudeDegrees>20.18683939240872859954833984375</LongitudeDegrees>
            </Position>
            <AltitudeMeters>555.20001220703125</AltitudeMeters>
            <DistanceMeters>NAN</DistanceMeters>
          </Trackpoint>
          <Trackpoint>
            <Time>2022-09-20T09:03:18.000Z</Time>
            <Position>
              <LatitudeDegrees>49.44091494195163249969482421875</LatitudeDegrees>
              <LongitudeDegrees>20.18698641099035739898681640625</LongitudeDegrees>
            </Position>
            <AltitudeMeters>555.20001220703125</AltitudeMeters>
            <DistanceMeters>NAN</DistanceMeters>
          </Trackpoint>
          <Trackpoint>
            <Time>2022-09-20T09:03:26.000Z</Time>
            <Position>
              <LatitudeDegrees>49.440788291394710540771484375</LatitudeDegrees>
              <LongitudeDegrees>20.18758085556328296661376953125</LongitudeDegrees>
            </Position>
            <AltitudeMeters>554.79998779296875</AltitudeMeters>
            <DistanceMeters>NAN</DistanceMeters>
          </Trackpoint>
          <Trackpoint>
            <Time>2022-09-20T09:03:27.000Z</Time>
            <Position>
              <LatitudeDegrees>49.440764822065830230712890625</LatitudeDegrees>
              <LongitudeDegrees>20.18764824606478214263916015625</LongitudeDegrees>
            </Position>
            <AltitudeMeters>554.79998779296875</AltitudeMeters>
            <DistanceMeters>NAN</DistanceMeters>
          </Trackpoint>
          <Trackpoint>
            <Time>2022-09-20T09:03:29.000Z</Time>
            <Position>
              <LatitudeDegrees>49.4407136924564838409423828125</LatitudeDegrees>
              <LongitudeDegrees>20.18778352998197078704833984375</LongitudeDegrees>
            </Position>
            <AltitudeMeters>554.79998779296875</AltitudeMeters>
            <DistanceMeters>NAN</DistanceMeters>
          </Trackpoint>
          <Trackpoint>
            <Time>2022-09-20T09:03:31.000Z</Time>
            <Position>
              <LatitudeDegrees>49.4406657479703426361083984375</LatitudeDegrees>
              <LongitudeDegrees>20.18791613169014453887939453125</LongitudeDegrees>
            </Position>
            <AltitudeMeters>554.79998779296875</AltitudeMeters>
            <DistanceMeters>NAN</DistanceMeters>
          </Trackpoint>
          <Trackpoint>
            <Time>2022-09-20T09:03:36.000Z</Time>
            <Position>
              <LatitudeDegrees>49.4405359961092472076416015625</LatitudeDegrees>
              <LongitudeDegrees>20.18822483718395233154296875</LongitudeDegrees>
            </Position>
            <AltitudeMeters>554.4000244140625</AltitudeMeters>
            <DistanceMeters>NAN</DistanceMeters>
          </Trackpoint>
          <Trackpoint>
            <Time>2022-09-20T09:03:41.000Z</Time>
            <Position>
              <LatitudeDegrees>49.44043616764247417449951171875</LatitudeDegrees>
              <LongitudeDegrees>20.188587941229343414306640625</LongitudeDegrees>
            </Position>
            <AltitudeMeters>554.20001220703125</AltitudeMeters>
            <DistanceMeters>NAN</DistanceMeters>
          </Trackpoint>
          <Trackpoint>
            <Time>2022-09-20T09:03:42.000Z</Time>
            <Position>
              <LatitudeDegrees>49.44042292423546314239501953125</LatitudeDegrees>
              <LongitudeDegrees>20.1886689104139804840087890625</LongitudeDegrees>
            </Position>
            <AltitudeMeters>554.20001220703125</AltitudeMeters>
            <DistanceMeters>NAN</DistanceMeters>
          </Trackpoint>
          <Trackpoint>
            <Time>2022-09-20T09:03:45.000Z</Time>
            <Position>
              <LatitudeDegrees>49.44040448404848575592041015625</LatitudeDegrees>
              <LongitudeDegrees>20.18890519626438617706298828125</LongitudeDegrees>
            </Position>
            <AltitudeMeters>553.79998779296875</AltitudeMeters>
            <DistanceMeters>NAN</DistanceMeters>
          </Trackpoint>
          <Trackpoint>
            <Time>2022-09-20T09:03:47.000Z</Time>
            <Position>
              <LatitudeDegrees>49.44040783680975437164306640625</LatitudeDegrees>
              <LongitudeDegrees>20.18906394951045513153076171875</LongitudeDegrees>
            </Position>
            <AltitudeMeters>553.5999755859375</AltitudeMeters>
            <DistanceMeters>NAN</DistanceMeters>
          </Trackpoint>
          <Trackpoint>
            <Time>2022-09-20T09:03:53.000Z</Time>
            <Position>
              <LatitudeDegrees>49.44046148099005222320556640625</LatitudeDegrees>
              <LongitudeDegrees>20.18958295695483684539794921875</LongitudeDegrees>
            </Position>
            <AltitudeMeters>553</AltitudeMeters>
            <DistanceMeters>NAN</DistanceMeters>
          </Trackpoint>
          <Trackpoint>
            <Time>2022-09-20T09:03:56.000Z</Time>
            <Position>
              <LatitudeDegrees>49.44048821926116943359375</LatitudeDegrees>
              <LongitudeDegrees>20.1898497529327869415283203125</LongitudeDegrees>
            </Position>
            <AltitudeMeters>552.5999755859375</AltitudeMeters>
            <DistanceMeters>NAN</DistanceMeters>
          </Trackpoint>
          <Trackpoint>
            <Time>2022-09-20T09:04:04.000Z</Time>
            <Position>
              <LatitudeDegrees>49.4405789114534854888916015625</LatitudeDegrees>
              <LongitudeDegrees>20.1905858516693115234375</LongitudeDegrees>
            </Position>
            <AltitudeMeters>552.20001220703125</AltitudeMeters>
            <DistanceMeters>NAN</DistanceMeters>
          </Trackpoint>
          <Trackpoint>
            <Time>2022-09-20T09:04:09.000Z</Time>
            <Position>
              <LatitudeDegrees>49.44061872549355030059814453125</LatitudeDegrees>
              <LongitudeDegrees>20.190999247133731842041015625</LongitudeDegrees>
            </Position>
            <AltitudeMeters>552</AltitudeMeters>
            <DistanceMeters>NAN</DistanceMeters>
          </Trackpoint>
          <Trackpoint>
            <Time>2022-09-20T09:04:13.000Z</Time>
            <Position>
              <LatitudeDegrees>49.44065610878169536590576171875</LatitudeDegrees>
              <LongitudeDegrees>20.1913578249514102935791015625</LongitudeDegrees>
            </Position>
            <AltitudeMeters>551.4000244140625</AltitudeMeters>
            <DistanceMeters>NAN</DistanceMeters>
          </Trackpoint>
          <Trackpoint>
            <Time>2022-09-20T09:04:20.000Z</Time>
            <Position>
              <LatitudeDegrees>49.44072450511157512664794921875</LatitudeDegrees>
              <LongitudeDegrees>20.1919443905353546142578125</LongitudeDegrees>
            </Position>
            <AltitudeMeters>550.79998779296875</AltitudeMeters>
            <DistanceMeters>NAN</DistanceMeters>
          </Trackpoint>
          <Trackpoint>
            <Time>2022-09-20T09:04:24.000Z</Time>
            <Position>
              <LatitudeDegrees>49.44075820036232471466064453125</LatitudeDegrees>
              <LongitudeDegrees>20.1922838576138019561767578125</LongitudeDegrees>
            </Position>
            <AltitudeMeters>550.20001220703125</AltitudeMeters>
            <DistanceMeters>NAN</DistanceMeters>
          </Trackpoint>
          <Trackpoint>
            <Time>2022-09-20T09:04:28.000Z</Time>
            <Position>
              <LatitudeDegrees>49.440785609185695648193359375</LatitudeDegrees>
              <LongitudeDegrees>20.1925371587276458740234375</LongitudeDegrees>
            </Position>
            <AltitudeMeters>550</AltitudeMeters>
            <DistanceMeters>NAN</DistanceMeters>
          </Trackpoint>
          <Trackpoint>
            <Time>2022-09-20T09:04:33.000Z</Time>
            <Position>
              <LatitudeDegrees>49.4408213160932064056396484375</LatitudeDegrees>
              <LongitudeDegrees>20.1930445991456508636474609375</LongitudeDegrees>
            </Position>
            <AltitudeMeters>550</AltitudeMeters>
            <DistanceMeters>NAN</DistanceMeters>
          </Trackpoint>
          <Trackpoint>
            <Time>2022-09-20T09:04:36.000Z</Time>
            <Position>
              <LatitudeDegrees>49.44082953035831451416015625</LatitudeDegrees>
              <LongitudeDegrees>20.1932910270988941192626953125</LongitudeDegrees>
            </Position>
            <AltitudeMeters>549.79998779296875</AltitudeMeters>
            <DistanceMeters>NAN</DistanceMeters>
          </Trackpoint>
          <Trackpoint>
            <Time>2022-09-20T09:04:40.000Z</Time>
            <Position>
              <LatitudeDegrees>49.4408323802053928375244140625</LatitudeDegrees>
              <LongitudeDegrees>20.19362018443644046783447265625</LongitudeDegrees>
            </Position>
            <AltitudeMeters>549.5999755859375</AltitudeMeters>
            <DistanceMeters>NAN</DistanceMeters>
          </Trackpoint>
          <Trackpoint>
            <Time>2022-09-20T09:04:49.000Z</Time>
            <Position>
              <LatitudeDegrees>49.44084419868886470794677734375</LatitudeDegrees>
              <LongitudeDegrees>20.1943169720470905303955078125</LongitudeDegrees>
            </Position>
            <AltitudeMeters>549.5999755859375</AltitudeMeters>
            <DistanceMeters>NAN</DistanceMeters>
          </Trackpoint>
          <Trackpoint>
            <Time>2022-09-20T09:04:54.000Z</Time>
            <Position>
              <LatitudeDegrees>49.4408623874187469482421875</LatitudeDegrees>
              <LongitudeDegrees>20.19468493759632110595703125</LongitudeDegrees>
            </Position>
            <AltitudeMeters>549.4000244140625</AltitudeMeters>
            <DistanceMeters>NAN</DistanceMeters>
          </Trackpoint>
          <Trackpoint>
            <Time>2022-09-20T09:04:55.000Z</Time>
            <Position>
              <LatitudeDegrees>49.44087387062609195709228515625</LatitudeDegrees>
              <LongitudeDegrees>20.19476163201034069061279296875</LongitudeDegrees>
            </Position>
            <AltitudeMeters>549.4000244140625</AltitudeMeters>
            <DistanceMeters>NAN</DistanceMeters>
          </Trackpoint>
          <Trackpoint>
            <Time>2022-09-20T09:05:03.000Z</Time>
            <Position>
              <LatitudeDegrees>49.44103471934795379638671875</LatitudeDegrees>
              <LongitudeDegrees>20.1953663863241672515869140625</LongitudeDegrees>
            </Position>
            <AltitudeMeters>549</AltitudeMeters>
            <DistanceMeters>NAN</DistanceMeters>
          </Trackpoint>
          <Trackpoint>
            <Time>2022-09-20T09:05:04.000Z</Time>
            <Position>
              <LatitudeDegrees>49.4410563446581363677978515625</LatitudeDegrees>
              <LongitudeDegrees>20.1954419910907745361328125</LongitudeDegrees>
            </Position>
            <AltitudeMeters>549</AltitudeMeters>
            <DistanceMeters>NAN</DistanceMeters>
          </Trackpoint>
          <Trackpoint>
            <Time>2022-09-20T09:05:05.000Z</Time>
            <Position>
              <LatitudeDegrees>49.441074617207050323486328125</LatitudeDegrees>
              <LongitudeDegrees>20.1955155842006206512451171875</LongitudeDegrees>
            </Position>
            <AltitudeMeters>548.79998779296875</AltitudeMeters>
            <DistanceMeters>NAN</DistanceMeters>
          </Trackpoint>
          <Trackpoint>
            <Time>2022-09-20T09:05:16.000Z</Time>
            <Position>
              <LatitudeDegrees>49.44128927774727344512939453125</LatitudeDegrees>
              <LongitudeDegrees>20.19631295464932918548583984375</LongitudeDegrees>
            </Position>
            <AltitudeMeters>548.20001220703125</AltitudeMeters>
            <DistanceMeters>NAN</DistanceMeters>
          </Trackpoint>
          <Trackpoint>
            <Time>2022-09-20T09:05:25.000Z</Time>
            <Position>
              <LatitudeDegrees>49.44145104847848415374755859375</LatitudeDegrees>
              <LongitudeDegrees>20.1969539187848567962646484375</LongitudeDegrees>
            </Position>
            <AltitudeMeters>547.79998779296875</AltitudeMeters>
            <DistanceMeters>NAN</DistanceMeters>
          </Trackpoint>
          <Trackpoint>
            <Time>2022-09-20T09:05:26.000Z</Time>
            <Position>
              <LatitudeDegrees>49.44146814756095409393310546875</LatitudeDegrees>
              <LongitudeDegrees>20.19702541641891002655029296875</LongitudeDegrees>
            </Position>
            <AltitudeMeters>547.79998779296875</AltitudeMeters>
            <DistanceMeters>NAN</DistanceMeters>
          </Trackpoint>
          <Trackpoint>
            <Time>2022-09-20T09:05:36.000Z</Time>
            <Position>
              <LatitudeDegrees>49.44165539927780628204345703125</LatitudeDegrees>
              <LongitudeDegrees>20.197728574275970458984375</LongitudeDegrees>
            </Position>
            <AltitudeMeters>547.20001220703125</AltitudeMeters>
            <DistanceMeters>NAN</DistanceMeters>
          </Trackpoint>
          <Trackpoint>
            <Time>2022-09-20T09:05:37.000Z</Time>
            <Position>
              <LatitudeDegrees>49.44167710840702056884765625</LatitudeDegrees>
              <LongitudeDegrees>20.197797976434230804443359375</LongitudeDegrees>
            </Position>
            <AltitudeMeters>547.20001220703125</AltitudeMeters>
            <DistanceMeters>NAN</DistanceMeters>
          </Trackpoint>
          <Trackpoint>
            <Time>2022-09-20T09:05:40.000Z</Time>
            <Position>
              <LatitudeDegrees>49.44172899238765239715576171875</LatitudeDegrees>
              <LongitudeDegrees>20.19799754954874515533447265625</LongitudeDegrees>
            </Position>
            <AltitudeMeters>547.20001220703125</AltitudeMeters>
            <DistanceMeters>NAN</DistanceMeters>
          </Trackpoint>
          <Trackpoint>
            <Time>2022-09-20T09:05:43.000Z</Time>
            <Position>
              <LatitudeDegrees>49.44178632460534572601318359375</LatitudeDegrees>
              <LongitudeDegrees>20.19819720648229122161865234375</LongitudeDegrees>
            </Position>
            <AltitudeMeters>547</AltitudeMeters>
            <DistanceMeters>NAN</DistanceMeters>
          </Trackpoint>
          <Trackpoint>
            <Time>2022-09-20T09:05:48.000Z</Time>
            <Position>
              <LatitudeDegrees>49.4418915174901485443115234375</LatitudeDegrees>
              <LongitudeDegrees>20.19856668077409267425537109375</LongitudeDegrees>
            </Position>
            <AltitudeMeters>546.5999755859375</AltitudeMeters>
            <DistanceMeters>NAN</DistanceMeters>
          </Trackpoint>
          <Trackpoint>
            <Time>2022-09-20T09:05:51.000Z</Time>
            <Position>
              <LatitudeDegrees>49.4419505260884761810302734375</LatitudeDegrees>
              <LongitudeDegrees>20.19879114814102649688720703125</LongitudeDegrees>
            </Position>
            <AltitudeMeters>546.5999755859375</AltitudeMeters>
            <DistanceMeters>NAN</DistanceMeters>
          </Trackpoint>
          <Trackpoint>
            <Time>2022-09-20T09:05:59.000Z</Time>
            <Position>
              <LatitudeDegrees>49.44212394766509532928466796875</LatitudeDegrees>
              <LongitudeDegrees>20.1993819884955883026123046875</LongitudeDegrees>
            </Position>
            <AltitudeMeters>546</AltitudeMeters>
            <DistanceMeters>NAN</DistanceMeters>
          </Trackpoint>
          <Trackpoint>
            <Time>2022-09-20T09:06:02.000Z</Time>
            <Position>
              <LatitudeDegrees>49.44217692129313945770263671875</LatitudeDegrees>
              <LongitudeDegrees>20.1996026001870632171630859375</LongitudeDegrees>
            </Position>
            <AltitudeMeters>545.5999755859375</AltitudeMeters>
            <DistanceMeters>NAN</DistanceMeters>
          </Trackpoint>
          <Trackpoint>
            <Time>2022-09-20T09:06:09.000Z</Time>
            <Position>
              <LatitudeDegrees>49.4423080980777740478515625</LatitudeDegrees>
              <LongitudeDegrees>20.20012001506984233856201171875</LongitudeDegrees>
            </Position>
            <AltitudeMeters>545.20001220703125</AltitudeMeters>
            <DistanceMeters>NAN</DistanceMeters>
          </Trackpoint>
          <Trackpoint>
            <Time>2022-09-20T09:06:15.000Z</Time>
            <Position>
              <LatitudeDegrees>49.442422427237033843994140625</LatitudeDegrees>
              <LongitudeDegrees>20.20056492649018764495849609375</LongitudeDegrees>
            </Position>
            <AltitudeMeters>544.79998779296875</AltitudeMeters>
            <DistanceMeters>NAN</DistanceMeters>
          </Trackpoint>
          <Trackpoint>
            <Time>2022-09-20T09:06:16.000Z</Time>
            <Position>
              <LatitudeDegrees>49.44243776611983776092529296875</LatitudeDegrees>
              <LongitudeDegrees>20.200623683631420135498046875</LongitudeDegrees>
            </Position>
            <AltitudeMeters>544.5999755859375</AltitudeMeters>
            <DistanceMeters>NAN</DistanceMeters>
          </Trackpoint>
          <Trackpoint>
            <Time>2022-09-20T09:06:20.000Z</Time>
            <Position>
              <LatitudeDegrees>49.442519657313823699951171875</LatitudeDegrees>
              <LongitudeDegrees>20.20095367915928363800048828125</LongitudeDegrees>
            </Position>
            <AltitudeMeters>544.20001220703125</AltitudeMeters>
            <DistanceMeters>NAN</DistanceMeters>
          </Trackpoint>
          <Trackpoint>
            <Time>2022-09-20T09:06:24.000Z</Time>
            <Position>
              <LatitudeDegrees>49.44257564842700958251953125</LatitudeDegrees>
              <LongitudeDegrees>20.2011783979833126068115234375</LongitudeDegrees>
            </Position>
            <AltitudeMeters>543.79998779296875</AltitudeMeters>
            <DistanceMeters>NAN</DistanceMeters>
          </Trackpoint>
          <Trackpoint>
            <Time>2022-09-20T09:06:29.000Z</Time>
            <Position>
              <LatitudeDegrees>49.44269123487174510955810546875</LatitudeDegrees>
              <LongitudeDegrees>20.201691873371601104736328125</LongitudeDegrees>
            </Position>
            <AltitudeMeters>543.5999755859375</AltitudeMeters>
            <DistanceMeters>NAN</DistanceMeters>
          </Trackpoint>
          <Trackpoint>
            <Time>2022-09-20T09:06:31.000Z</Time>
            <Position>
              <LatitudeDegrees>49.4427179731428623199462890625</LatitudeDegrees>
              <LongitudeDegrees>20.20186361856758594512939453125</LongitudeDegrees>
            </Position>
            <AltitudeMeters>543.20001220703125</AltitudeMeters>
            <DistanceMeters>NAN</DistanceMeters>
          </Trackpoint>
          <Trackpoint>
            <Time>2022-09-20T09:06:39.000Z</Time>
            <Position>
              <LatitudeDegrees>49.4428420253098011016845703125</LatitudeDegrees>
              <LongitudeDegrees>20.20255587995052337646484375</LongitudeDegrees>
            </Position>
            <AltitudeMeters>542.4000244140625</AltitudeMeters>
            <DistanceMeters>NAN</DistanceMeters>
          </Trackpoint>
          <Trackpoint>
            <Time>2022-09-20T09:06:40.000Z</Time>
            <Position>
              <LatitudeDegrees>49.44285837002098560333251953125</LatitudeDegrees>
              <LongitudeDegrees>20.20264305174350738525390625</LongitudeDegrees>
            </Position>
            <AltitudeMeters>542.4000244140625</AltitudeMeters>
            <DistanceMeters>NAN</DistanceMeters>
          </Trackpoint>
          <Trackpoint>
            <Time>2022-09-20T09:06:49.000Z</Time>
            <Position>
              <LatitudeDegrees>49.44298644550144672393798828125</LatitudeDegrees>
              <LongitudeDegrees>20.2034277655184268951416015625</LongitudeDegrees>
            </Position>
            <AltitudeMeters>541.4000244140625</AltitudeMeters>
            <DistanceMeters>NAN</DistanceMeters>
          </Trackpoint>
          <Trackpoint>
            <Time>2022-09-20T09:06:53.000Z</Time>
            <Position>
              <LatitudeDegrees>49.44303824566304683685302734375</LatitudeDegrees>
              <LongitudeDegrees>20.20378156565129756927490234375</LongitudeDegrees>
            </Position>
            <AltitudeMeters>541.20001220703125</AltitudeMeters>
            <DistanceMeters>NAN</DistanceMeters>
          </Trackpoint>
          <Trackpoint>
            <Time>2022-09-20T09:07:04.000Z</Time>
            <Position>
              <LatitudeDegrees>49.44315693341195583343505859375</LatitudeDegrees>
              <LongitudeDegrees>20.2047547884285449981689453125</LongitudeDegrees>
            </Position>
            <AltitudeMeters>540.4000244140625</AltitudeMeters>
            <DistanceMeters>NAN</DistanceMeters>
          </Trackpoint>
          <Trackpoint>
            <Time>2022-09-20T09:07:12.000Z</Time>
            <Position>
              <LatitudeDegrees>49.4432279281318187713623046875</LatitudeDegrees>
              <LongitudeDegrees>20.20550454966723918914794921875</LongitudeDegrees>
            </Position>
            <AltitudeMeters>539.5999755859375</AltitudeMeters>
            <DistanceMeters>NAN</DistanceMeters>
          </Trackpoint>
          <Trackpoint>
            <Time>2022-09-20T09:07:15.000Z</Time>
            <Position>
              <LatitudeDegrees>49.44325433112680912017822265625</LatitudeDegrees>
              <LongitudeDegrees>20.20578349940478801727294921875</LongitudeDegrees>
            </Position>
            <AltitudeMeters>539.4000244140625</AltitudeMeters>
            <DistanceMeters>NAN</DistanceMeters>
          </Trackpoint>
          <Trackpoint>
            <Time>2022-09-20T09:07:22.000Z</Time>
            <Position>
              <LatitudeDegrees>49.44330881349742412567138671875</LatitudeDegrees>
              <LongitudeDegrees>20.2064402215182781219482421875</LongitudeDegrees>
            </Position>
            <AltitudeMeters>538.5999755859375</AltitudeMeters>
            <DistanceMeters>NAN</DistanceMeters>
          </Trackpoint>
          <Trackpoint>
            <Time>2022-09-20T09:07:24.000Z</Time>
            <Position>
              <LatitudeDegrees>49.4433258287608623504638671875</LatitudeDegrees>
              <LongitudeDegrees>20.20663057453930377960205078125</LongitudeDegrees>
            </Position>
            <AltitudeMeters>538.20001220703125</AltitudeMeters>
            <DistanceMeters>NAN</DistanceMeters>
          </Trackpoint>
          <Trackpoint>
            <Time>2022-09-20T09:07:33.000Z</Time>
            <Position>
              <LatitudeDegrees>49.44341459311544895172119140625</LatitudeDegrees>
              <LongitudeDegrees>20.2074556052684783935546875</LongitudeDegrees>
            </Position>
            <AltitudeMeters>537.5999755859375</AltitudeMeters>
            <DistanceMeters>NAN</DistanceMeters>
          </Trackpoint>
          <Trackpoint>
            <Time>2022-09-20T09:07:35.000Z</Time>
            <Position>
              <LatitudeDegrees>49.44344460032880306243896484375</LatitudeDegrees>
              <LongitudeDegrees>20.20763774402439594268798828125</LongitudeDegrees>
            </Position>
            <AltitudeMeters>537.4000244140625</AltitudeMeters>
            <DistanceMeters>NAN</DistanceMeters>
          </Trackpoint>
          <Trackpoint>
            <Time>2022-09-20T09:07:39.000Z</Time>
            <Position>
              <LatitudeDegrees>49.443509392440319061279296875</LatitudeDegrees>
              <LongitudeDegrees>20.20799732767045497894287109375</LongitudeDegrees>
            </Position>
            <AltitudeMeters>537.20001220703125</AltitudeMeters>
            <DistanceMeters>NAN</DistanceMeters>
          </Trackpoint>
          <Trackpoint>
            <Time>2022-09-20T09:07:41.000Z</Time>
            <Position>
              <LatitudeDegrees>49.44354048930108547210693359375</LatitudeDegrees>
              <LongitudeDegrees>20.208183489739894866943359375</LongitudeDegrees>
            </Position>
            <AltitudeMeters>537</AltitudeMeters>
            <DistanceMeters>NAN</DistanceMeters>
          </Trackpoint>
          <Trackpoint>
            <Time>2022-09-20T09:07:42.000Z</Time>
            <Position>
              <LatitudeDegrees>49.443557672202587127685546875</LatitudeDegrees>
              <LongitudeDegrees>20.20827175118029117584228515625</LongitudeDegrees>
            </Position>
            <AltitudeMeters>537</AltitudeMeters>
            <DistanceMeters>NAN</DistanceMeters>
          </Trackpoint>
          <Trackpoint>
            <Time>2022-09-20T09:07:45.000Z</Time>
            <Position>
              <LatitudeDegrees>49.4435994140803813934326171875</LatitudeDegrees>
              <LongitudeDegrees>20.20852237008512020111083984375</LongitudeDegrees>
            </Position>
            <AltitudeMeters>536.4000244140625</AltitudeMeters>
            <DistanceMeters>NAN</DistanceMeters>
          </Trackpoint>
          <Trackpoint>
            <Time>2022-09-20T09:07:47.000Z</Time>
            <Position>
              <LatitudeDegrees>49.44362497888505458831787109375</LatitudeDegrees>
              <LongitudeDegrees>20.20869084633886814117431640625</LongitudeDegrees>
            </Position>
            <AltitudeMeters>536.20001220703125</AltitudeMeters>
            <DistanceMeters>NAN</DistanceMeters>
          </Trackpoint>
          <Trackpoint>
            <Time>2022-09-20T09:07:51.000Z</Time>
            <Position>
              <LatitudeDegrees>49.44366219453513622283935546875</LatitudeDegrees>
              <LongitudeDegrees>20.2090220153331756591796875</LongitudeDegrees>
            </Position>
            <AltitudeMeters>535.79998779296875</AltitudeMeters>
            <DistanceMeters>NAN</DistanceMeters>
          </Trackpoint>
          <Trackpoint>
            <Time>2022-09-20T09:07:55.000Z</Time>
            <Position>
              <LatitudeDegrees>49.44371022284030914306640625</LatitudeDegrees>
              <LongitudeDegrees>20.20939576439559459686279296875</LongitudeDegrees>
            </Position>
            <AltitudeMeters>535.20001220703125</AltitudeMeters>
            <DistanceMeters>NAN</DistanceMeters>
          </Trackpoint>
          <Trackpoint>
            <Time>2022-09-20T09:07:59.000Z</Time>
            <Position>
              <LatitudeDegrees>49.443757832050323486328125</LatitudeDegrees>
              <LongitudeDegrees>20.20976674742996692657470703125</LongitudeDegrees>
            </Position>
            <AltitudeMeters>534.5999755859375</AltitudeMeters>
            <DistanceMeters>NAN</DistanceMeters>
          </Trackpoint>
          <Trackpoint>
            <Time>2022-09-20T09:08:01.000Z</Time>
            <Position>
              <LatitudeDegrees>49.44377635605633258819580078125</LatitudeDegrees>
              <LongitudeDegrees>20.20995299331843852996826171875</LongitudeDegrees>
            </Position>
            <AltitudeMeters>534.4000244140625</AltitudeMeters>
            <DistanceMeters>NAN</DistanceMeters>
          </Trackpoint>
          <Trackpoint>
            <Time>2022-09-20T09:08:04.000Z</Time>
            <Position>
              <LatitudeDegrees>49.4438099674880504608154296875</LatitudeDegrees>
              <LongitudeDegrees>20.21023848094046115875244140625</LongitudeDegrees>
            </Position>
            <AltitudeMeters>534.20001220703125</AltitudeMeters>
            <DistanceMeters>NAN</DistanceMeters>
          </Trackpoint>
          <Trackpoint>
            <Time>2022-09-20T09:08:05.000Z</Time>
            <Position>
              <LatitudeDegrees>49.44382262416183948516845703125</LatitudeDegrees>
              <LongitudeDegrees>20.210331939160823822021484375</LongitudeDegrees>
            </Position>
            <AltitudeMeters>534</AltitudeMeters>
            <DistanceMeters>NAN</DistanceMeters>
          </Trackpoint>
          <Trackpoint>
            <Time>2022-09-20T09:08:11.000Z</Time>
            <Position>
              <LatitudeDegrees>49.44388532079756259918212890625</LatitudeDegrees>
              <LongitudeDegrees>20.21086393855512142181396484375</LongitudeDegrees>
            </Position>
            <AltitudeMeters>533.4000244140625</AltitudeMeters>
            <DistanceMeters>NAN</DistanceMeters>
          </Trackpoint>
          <Trackpoint>
            <Time>2022-09-20T09:08:17.000Z</Time>
            <Position>
              <LatitudeDegrees>49.44394290447235107421875</LatitudeDegrees>
              <LongitudeDegrees>20.21139585413038730621337890625</LongitudeDegrees>
            </Position>
            <AltitudeMeters>533</AltitudeMeters>
            <DistanceMeters>NAN</DistanceMeters>
          </Trackpoint>
          <Trackpoint>
            <Time>2022-09-20T09:08:23.000Z</Time>
            <Position>
              <LatitudeDegrees>49.4440124742686748504638671875</LatitudeDegrees>
              <LongitudeDegrees>20.21193154156208038330078125</LongitudeDegrees>
            </Position>
            <AltitudeMeters>532.4000244140625</AltitudeMeters>
            <DistanceMeters>NAN</DistanceMeters>
          </Trackpoint>
          <Trackpoint>
            <Time>2022-09-20T09:08:25.000Z</Time>
            <Position>
              <LatitudeDegrees>49.44403669796884059906005859375</LatitudeDegrees>
              <LongitudeDegrees>20.21210228092968463897705078125</LongitudeDegrees>
            </Position>
            <AltitudeMeters>532.20001220703125</AltitudeMeters>
            <DistanceMeters>NAN</DistanceMeters>
          </Trackpoint>
          <Trackpoint>
            <Time>2022-09-20T09:08:28.000Z</Time>
            <Position>
              <LatitudeDegrees>49.44407097995281219482421875</LatitudeDegrees>
              <LongitudeDegrees>20.212367735803127288818359375</LongitudeDegrees>
            </Position>
            <AltitudeMeters>532</AltitudeMeters>
            <DistanceMeters>NAN</DistanceMeters>
          </Trackpoint>
          <Trackpoint>
            <Time>2022-09-20T09:08:34.000Z</Time>
            <Position>
              <LatitudeDegrees>49.4441720657050609588623046875</LatitudeDegrees>
              <LongitudeDegrees>20.2129133976995944976806640625</LongitudeDegrees>
            </Position>
            <AltitudeMeters>531.20001220703125</AltitudeMeters>
            <DistanceMeters>NAN</DistanceMeters>
          </Trackpoint>
          <Trackpoint>
            <Time>2022-09-20T09:08:38.000Z</Time>
            <Position>
              <LatitudeDegrees>49.444225542247295379638671875</LatitudeDegrees>
              <LongitudeDegrees>20.2131856419146060943603515625</LongitudeDegrees>
            </Position>
            <AltitudeMeters>531</AltitudeMeters>
            <DistanceMeters>NAN</DistanceMeters>
          </Trackpoint>
          <Trackpoint>
            <Time>2022-09-20T09:08:39.000Z</Time>
            <Position>
              <LatitudeDegrees>49.44425412453711032867431640625</LatitudeDegrees>
              <LongitudeDegrees>20.21336375735700130462646484375</LongitudeDegrees>
            </Position>
            <AltitudeMeters>531</AltitudeMeters>
            <DistanceMeters>NAN</DistanceMeters>
          </Trackpoint>
          <Trackpoint>
            <Time>2022-09-20T09:08:44.000Z</Time>
            <Position>
              <LatitudeDegrees>49.4443329982459545135498046875</LatitudeDegrees>
              <LongitudeDegrees>20.21378184668719768524169921875</LongitudeDegrees>
            </Position>
            <AltitudeMeters>530.4000244140625</AltitudeMeters>
            <DistanceMeters>NAN</DistanceMeters>
          </Trackpoint>
          <Trackpoint>
            <Time>2022-09-20T09:08:45.000Z</Time>
            <Position>
              <LatitudeDegrees>49.44434934295713901519775390625</LatitudeDegrees>
              <LongitudeDegrees>20.21386214531958103179931640625</LongitudeDegrees>
            </Position>
            <AltitudeMeters>530.4000244140625</AltitudeMeters>
            <DistanceMeters>NAN</DistanceMeters>
          </Trackpoint>
          <Trackpoint>
            <Time>2022-09-20T09:08:46.000Z</Time>
            <Position>
              <LatitudeDegrees>49.44434934295713901519775390625</LatitudeDegrees>
              <LongitudeDegrees>20.21386214531958103179931640625</LongitudeDegrees>
            </Position>
            <AltitudeMeters>530.20001220703125</AltitudeMeters>
            <DistanceMeters>NAN</DistanceMeters>
          </Trackpoint>
          <Trackpoint>
            <Time>2022-09-20T09:08:48.000Z</Time>
            <Position>
              <LatitudeDegrees>49.44439728744328022003173828125</LatitudeDegrees>
              <LongitudeDegrees>20.2140979282557964324951171875</LongitudeDegrees>
            </Position>
            <AltitudeMeters>530.20001220703125</AltitudeMeters>
            <DistanceMeters>NAN</DistanceMeters>
          </Trackpoint>
          <Trackpoint>
            <Time>2022-09-20T09:08:52.000Z</Time>
            <Position>
              <LatitudeDegrees>49.44444841705262660980224609375</LatitudeDegrees>
              <LongitudeDegrees>20.21441216580569744110107421875</LongitudeDegrees>
            </Position>
            <AltitudeMeters>530</AltitudeMeters>
            <DistanceMeters>NAN</DistanceMeters>
          </Trackpoint>
          <Trackpoint>
            <Time>2022-09-20T09:08:56.000Z</Time>
            <Position>
              <LatitudeDegrees>49.44449753500521183013916015625</LatitudeDegrees>
              <LongitudeDegrees>20.21471894346177577972412109375</LongitudeDegrees>
            </Position>
            <AltitudeMeters>529.79998779296875</AltitudeMeters>
            <DistanceMeters>NAN</DistanceMeters>
          </Trackpoint>
          <Trackpoint>
            <Time>2022-09-20T09:08:59.000Z</Time>
            <Position>
              <LatitudeDegrees>49.44454061798751354217529296875</LatitudeDegrees>
              <LongitudeDegrees>20.214951373636722564697265625</LongitudeDegrees>
            </Position>
            <AltitudeMeters>529.5999755859375</AltitudeMeters>
            <DistanceMeters>NAN</DistanceMeters>
          </Trackpoint>
          <Trackpoint>
            <Time>2022-09-20T09:09:00.000Z</Time>
            <Position>
              <LatitudeDegrees>49.44455101154744625091552734375</LatitudeDegrees>
              <LongitudeDegrees>20.215028822422027587890625</LongitudeDegrees>
            </Position>
            <AltitudeMeters>529.5999755859375</AltitudeMeters>
            <DistanceMeters>NAN</DistanceMeters>
          </Trackpoint>
          <Trackpoint>
            <Time>2022-09-20T09:09:01.000Z</Time>
            <Position>
              <LatitudeDegrees>49.44456391967833042144775390625</LatitudeDegrees>
              <LongitudeDegrees>20.21510702557861804962158203125</LongitudeDegrees>
            </Position>
            <AltitudeMeters>529.5999755859375</AltitudeMeters>
            <DistanceMeters>NAN</DistanceMeters>
          </Trackpoint>
          <Trackpoint>
            <Time>2022-09-20T09:09:02.000Z</Time>
            <Position>
              <LatitudeDegrees>49.44457531906664371490478515625</LatitudeDegrees>
              <LongitudeDegrees>20.21518564783036708831787109375</LongitudeDegrees>
            </Position>
            <AltitudeMeters>529.5999755859375</AltitudeMeters>
            <DistanceMeters>NAN</DistanceMeters>
          </Trackpoint>
          <Trackpoint>
            <Time>2022-09-20T09:09:03.000Z</Time>
            <Position>
              <LatitudeDegrees>49.444589316844940185546875</LatitudeDegrees>
              <LongitudeDegrees>20.21526242606341838836669921875</LongitudeDegrees>
            </Position>
            <AltitudeMeters>529.5999755859375</AltitudeMeters>
            <DistanceMeters>NAN</DistanceMeters>
          </Trackpoint>
          <Trackpoint>
            <Time>2022-09-20T09:09:12.000Z</Time>
            <Position>
              <LatitudeDegrees>49.444722421467304229736328125</LatitudeDegrees>
              <LongitudeDegrees>20.2159292064607143402099609375</LongitudeDegrees>
            </Position>
            <AltitudeMeters>529</AltitudeMeters>
            <DistanceMeters>NAN</DistanceMeters>
          </Trackpoint>
          <Trackpoint>
            <Time>2022-09-20T09:09:17.000Z</Time>
            <Position>
              <LatitudeDegrees>49.44481336511671543121337890625</LatitudeDegrees>
              <LongitudeDegrees>20.21630463190376758575439453125</LongitudeDegrees>
            </Position>
            <AltitudeMeters>528.79998779296875</AltitudeMeters>
            <DistanceMeters>NAN</DistanceMeters>
          </Trackpoint>
          <Trackpoint>
            <Time>2022-09-20T09:09:20.000Z</Time>
            <Position>
              <LatitudeDegrees>49.44486332125961780548095703125</LatitudeDegrees>
              <LongitudeDegrees>20.21653957664966583251953125</LongitudeDegrees>
            </Position>
            <AltitudeMeters>528.5999755859375</AltitudeMeters>
            <DistanceMeters>NAN</DistanceMeters>
          </Trackpoint>
          <Trackpoint>
            <Time>2022-09-20T09:09:23.000Z</Time>
            <Position>
              <LatitudeDegrees>49.44491797126829624176025390625</LatitudeDegrees>
              <LongitudeDegrees>20.2167789638042449951171875</LongitudeDegrees>
            </Position>
            <AltitudeMeters>528.20001220703125</AltitudeMeters>
            <DistanceMeters>NAN</DistanceMeters>
          </Trackpoint>
          <Trackpoint>
            <Time>2022-09-20T09:09:33.000Z</Time>
            <Position>
              <LatitudeDegrees>49.44508879445493221282958984375</LatitudeDegrees>
              <LongitudeDegrees>20.21757633425295352935791015625</LongitudeDegrees>
            </Position>
            <AltitudeMeters>527.79998779296875</AltitudeMeters>
            <DistanceMeters>NAN</DistanceMeters>
          </Trackpoint>
          <Trackpoint>
            <Time>2022-09-20T09:09:34.000Z</Time>
            <Position>
              <LatitudeDegrees>49.44510673172771930694580078125</LatitudeDegrees>
              <LongitudeDegrees>20.21765428595244884490966796875</LongitudeDegrees>
            </Position>
            <AltitudeMeters>527.79998779296875</AltitudeMeters>
            <DistanceMeters>NAN</DistanceMeters>
          </Trackpoint>
          <Trackpoint>
            <Time>2022-09-20T09:09:44.000Z</Time>
            <Position>
              <LatitudeDegrees>49.44526347331702709197998046875</LatitudeDegrees>
              <LongitudeDegrees>20.2184714376926422119140625</LongitudeDegrees>
            </Position>
            <AltitudeMeters>527</AltitudeMeters>
            <DistanceMeters>NAN</DistanceMeters>
          </Trackpoint>
          <Trackpoint>
            <Time>2022-09-20T09:09:48.000Z</Time>
            <Position>
              <LatitudeDegrees>49.44531057961285114288330078125</LatitudeDegrees>
              <LongitudeDegrees>20.21880210377275943756103515625</LongitudeDegrees>
            </Position>
            <AltitudeMeters>526.79998779296875</AltitudeMeters>
            <DistanceMeters>NAN</DistanceMeters>
          </Trackpoint>
          <Trackpoint>
            <Time>2022-09-20T09:09:53.000Z</Time>
            <Position>
              <LatitudeDegrees>49.44538031704723834991455078125</LatitudeDegrees>
              <LongitudeDegrees>20.2192259766161441802978515625</LongitudeDegrees>
            </Position>
            <AltitudeMeters>526.20001220703125</AltitudeMeters>
            <DistanceMeters>NAN</DistanceMeters>
          </Trackpoint>
          <Trackpoint>
            <Time>2022-09-20T09:09:55.000Z</Time>
            <Position>
              <LatitudeDegrees>49.4454159401357173919677734375</LatitudeDegrees>
              <LongitudeDegrees>20.2194021642208099365234375</LongitudeDegrees>
            </Position>
            <AltitudeMeters>526.20001220703125</AltitudeMeters>
            <DistanceMeters>NAN</DistanceMeters>
          </Trackpoint>
          <Trackpoint>
            <Time>2022-09-20T09:10:03.000Z</Time>
            <Position>
              <LatitudeDegrees>49.44557108916342258453369140625</LatitudeDegrees>
              <LongitudeDegrees>20.22010783664882183074951171875</LongitudeDegrees>
            </Position>
            <AltitudeMeters>525.79998779296875</AltitudeMeters>
            <DistanceMeters>NAN</DistanceMeters>
          </Trackpoint>
          <Trackpoint>
            <Time>2022-09-20T09:10:07.000Z</Time>
            <Position>
              <LatitudeDegrees>49.4456554949283599853515625</LatitudeDegrees>
              <LongitudeDegrees>20.2204638160765171051025390625</LongitudeDegrees>
            </Position>
            <AltitudeMeters>525.4000244140625</AltitudeMeters>
            <DistanceMeters>NAN</DistanceMeters>
          </Trackpoint>
          <Trackpoint>
            <Time>2022-09-20T09:10:09.000Z</Time>
            <Position>
              <LatitudeDegrees>49.44567753933370113372802734375</LatitudeDegrees>
              <LongitudeDegrees>20.22054939530789852142333984375</LongitudeDegrees>
            </Position>
            <AltitudeMeters>525.20001220703125</AltitudeMeters>
            <DistanceMeters>NAN</DistanceMeters>
          </Trackpoint>
          <Trackpoint>
            <Time>2022-09-20T09:10:13.000Z</Time>
            <Position>
              <LatitudeDegrees>49.44577259011566638946533203125</LatitudeDegrees>
              <LongitudeDegrees>20.22089841775596141815185546875</LongitudeDegrees>
            </Position>
            <AltitudeMeters>524.79998779296875</AltitudeMeters>
            <DistanceMeters>NAN</DistanceMeters>
          </Trackpoint>
          <Trackpoint>
            <Time>2022-09-20T09:10:14.000Z</Time>
            <Position>
              <LatitudeDegrees>49.4458172656595706939697265625</LatitudeDegrees>
              <LongitudeDegrees>20.221072845160961151123046875</LongitudeDegrees>
            </Position>
            <AltitudeMeters>524.5999755859375</AltitudeMeters>
            <DistanceMeters>NAN</DistanceMeters>
          </Trackpoint>
          <Trackpoint>
            <Time>2022-09-20T09:10:22.000Z</Time>
            <Position>
              <LatitudeDegrees>49.4459818862378597259521484375</LatitudeDegrees>
              <LongitudeDegrees>20.22178036160767078399658203125</LongitudeDegrees>
            </Position>
            <AltitudeMeters>524</AltitudeMeters>
            <DistanceMeters>NAN</DistanceMeters>
          </Trackpoint>
          <Trackpoint>
            <Time>2022-09-20T09:10:23.000Z</Time>
            <Position>
              <LatitudeDegrees>49.44600225426256656646728515625</LatitudeDegrees>
              <LongitudeDegrees>20.2218672819435596466064453125</LongitudeDegrees>
            </Position>
            <AltitudeMeters>524</AltitudeMeters>
            <DistanceMeters>NAN</DistanceMeters>
          </Trackpoint>
          <Trackpoint>
            <Time>2022-09-20T09:10:29.000Z</Time>
            <Position>
              <LatitudeDegrees>49.44612697698175907135009765625</LatitudeDegrees>
              <LongitudeDegrees>20.22235804237425327301025390625</LongitudeDegrees>
            </Position>
            <AltitudeMeters>523.5999755859375</AltitudeMeters>
            <DistanceMeters>NAN</DistanceMeters>
          </Trackpoint>
          <Trackpoint>
            <Time>2022-09-20T09:10:33.000Z</Time>
            <Position>
              <LatitudeDegrees>49.4462045095860958099365234375</LatitudeDegrees>
              <LongitudeDegrees>20.2226558513939380645751953125</LongitudeDegrees>
            </Position>
            <AltitudeMeters>523</AltitudeMeters>
            <DistanceMeters>NAN</DistanceMeters>
          </Trackpoint>
          <Trackpoint>
            <Time>2022-09-20T09:10:37.000Z</Time>
            <Position>
              <LatitudeDegrees>49.44627667777240276336669921875</LatitudeDegrees>
              <LongitudeDegrees>20.222930274903774261474609375</LongitudeDegrees>
            </Position>
            <AltitudeMeters>522.79998779296875</AltitudeMeters>
            <DistanceMeters>NAN</DistanceMeters>
          </Trackpoint>
          <Trackpoint>
            <Time>2022-09-20T09:10:39.000Z</Time>
            <Position>
              <LatitudeDegrees>49.4463104568421840667724609375</LatitudeDegrees>
              <LongitudeDegrees>20.2230508066713809967041015625</LongitudeDegrees>
            </Position>
            <AltitudeMeters>522.79998779296875</AltitudeMeters>
            <DistanceMeters>NAN</DistanceMeters>
          </Trackpoint>
          <Trackpoint>
            <Time>2022-09-20T09:10:42.000Z</Time>
            <Position>
              <LatitudeDegrees>49.446367286145687103271484375</LatitudeDegrees>
              <LongitudeDegrees>20.2232063747942447662353515625</LongitudeDegrees>
            </Position>
            <AltitudeMeters>523.20001220703125</AltitudeMeters>
            <DistanceMeters>NAN</DistanceMeters>
          </Trackpoint>
          <Trackpoint>
            <Time>2022-09-20T09:10:43.000Z</Time>
            <Position>
              <LatitudeDegrees>49.446399472653865814208984375</LatitudeDegrees>
              <LongitudeDegrees>20.223221294581890106201171875</LongitudeDegrees>
            </Position>
            <AltitudeMeters>523.20001220703125</AltitudeMeters>
            <DistanceMeters>NAN</DistanceMeters>
          </Trackpoint>
          <Trackpoint>
            <Time>2022-09-20T09:10:44.000Z</Time>
            <Position>
              <LatitudeDegrees>49.446432329714298248291015625</LatitudeDegrees>
              <LongitudeDegrees>20.22321735508739948272705078125</LongitudeDegrees>
            </Position>
            <AltitudeMeters>523.20001220703125</AltitudeMeters>
            <DistanceMeters>NAN</DistanceMeters>
          </Trackpoint>
          <Trackpoint>
            <Time>2022-09-20T09:10:46.000Z</Time>
            <Position>
              <LatitudeDegrees>49.44649494253098964691162109375</LatitudeDegrees>
              <LongitudeDegrees>20.2231706678867340087890625</LongitudeDegrees>
            </Position>
            <AltitudeMeters>523.20001220703125</AltitudeMeters>
            <DistanceMeters>NAN</DistanceMeters>
          </Trackpoint>
          <Trackpoint>
            <Time>2022-09-20T09:10:51.000Z</Time>
            <Position>
              <LatitudeDegrees>49.4466477446258068084716796875</LatitudeDegrees>
              <LongitudeDegrees>20.22296355105936527252197265625</LongitudeDegrees>
            </Position>
            <AltitudeMeters>523.20001220703125</AltitudeMeters>
            <DistanceMeters>NAN</DistanceMeters>
          </Trackpoint>
          <Trackpoint>
            <Time>2022-09-20T09:10:52.000Z</Time>
            <Position>
              <LatitudeDegrees>49.44668051786720752716064453125</LatitudeDegrees>
              <LongitudeDegrees>20.2229197137057781219482421875</LongitudeDegrees>
            </Position>
            <AltitudeMeters>523.20001220703125</AltitudeMeters>
            <DistanceMeters>NAN</DistanceMeters>
          </Trackpoint>
          <Trackpoint>
            <Time>2022-09-20T09:10:58.000Z</Time>
            <Position>
              <LatitudeDegrees>49.44689023308455944061279296875</LatitudeDegrees>
              <LongitudeDegrees>20.222674794495105743408203125</LongitudeDegrees>
            </Position>
            <AltitudeMeters>523.4000244140625</AltitudeMeters>
            <DistanceMeters>NAN</DistanceMeters>
          </Trackpoint>
          <Trackpoint>
            <Time>2022-09-20T09:11:02.000Z</Time>
            <Position>
              <LatitudeDegrees>49.44703423418104648590087890625</LatitudeDegrees>
              <LongitudeDegrees>20.2225240878760814666748046875</LongitudeDegrees>
            </Position>
            <AltitudeMeters>523.4000244140625</AltitudeMeters>
            <DistanceMeters>NAN</DistanceMeters>
          </Trackpoint>
          <Trackpoint>
            <Time>2022-09-20T09:11:04.000Z</Time>
            <Position>
              <LatitudeDegrees>49.4471012055873870849609375</LatitudeDegrees>
              <LongitudeDegrees>20.2224493212997913360595703125</LongitudeDegrees>
            </Position>
            <AltitudeMeters>523.4000244140625</AltitudeMeters>
            <DistanceMeters>NAN</DistanceMeters>
          </Trackpoint>
          <Trackpoint>
            <Time>2022-09-20T09:11:08.000Z</Time>
            <Position>
              <LatitudeDegrees>49.447239004075527191162109375</LatitudeDegrees>
              <LongitudeDegrees>20.22231311537325382232666015625</LongitudeDegrees>
            </Position>
            <AltitudeMeters>523.4000244140625</AltitudeMeters>
            <DistanceMeters>NAN</DistanceMeters>
          </Trackpoint>
          <Trackpoint>
            <Time>2022-09-20T09:11:10.000Z</Time>
            <Position>
              <LatitudeDegrees>49.44730698131024837493896484375</LatitudeDegrees>
              <LongitudeDegrees>20.22224270738661289215087890625</LongitudeDegrees>
            </Position>
            <AltitudeMeters>523.4000244140625</AltitudeMeters>
            <DistanceMeters>NAN</DistanceMeters>
          </Trackpoint>
          <Trackpoint>
            <Time>2022-09-20T09:11:12.000Z</Time>
            <Position>
              <LatitudeDegrees>49.4473747909069061279296875</LatitudeDegrees>
              <LongitudeDegrees>20.2221720479428768157958984375</LongitudeDegrees>
            </Position>
            <AltitudeMeters>523.20001220703125</AltitudeMeters>
            <DistanceMeters>NAN</DistanceMeters>
          </Trackpoint>
          <Trackpoint>
            <Time>2022-09-20T09:11:19.000Z</Time>
            <Position>
              <LatitudeDegrees>49.44758660160005092620849609375</LatitudeDegrees>
              <LongitudeDegrees>20.221947915852069854736328125</LongitudeDegrees>
            </Position>
            <AltitudeMeters>523.20001220703125</AltitudeMeters>
            <DistanceMeters>NAN</DistanceMeters>
          </Trackpoint>
          <Trackpoint>
            <Time>2022-09-20T09:11:25.000Z</Time>
            <Position>
              <LatitudeDegrees>49.4477725960314273834228515625</LatitudeDegrees>
              <LongitudeDegrees>20.221760161221027374267578125</LongitudeDegrees>
            </Position>
            <AltitudeMeters>523.20001220703125</AltitudeMeters>
            <DistanceMeters>NAN</DistanceMeters>
          </Trackpoint>
          <Trackpoint>
            <Time>2022-09-20T09:11:28.000Z</Time>
            <Position>
              <LatitudeDegrees>49.44786856882274150848388671875</LatitudeDegrees>
              <LongitudeDegrees>20.22165513597428798675537109375</LongitudeDegrees>
            </Position>
            <AltitudeMeters>523.4000244140625</AltitudeMeters>
            <DistanceMeters>NAN</DistanceMeters>
          </Trackpoint>
          <Trackpoint>
            <Time>2022-09-20T09:11:38.000Z</Time>
            <Position>
              <LatitudeDegrees>49.44820853881537914276123046875</LatitudeDegrees>
              <LongitudeDegrees>20.2212999947369098663330078125</LongitudeDegrees>
            </Position>
            <AltitudeMeters>523.5999755859375</AltitudeMeters>
            <DistanceMeters>NAN</DistanceMeters>
          </Trackpoint>
          <Trackpoint>
            <Time>2022-09-20T09:11:42.000Z</Time>
            <Position>
              <LatitudeDegrees>49.44834767840802669525146484375</LatitudeDegrees>
              <LongitudeDegrees>20.221170075237751007080078125</LongitudeDegrees>
            </Position>
            <AltitudeMeters>523.79998779296875</AltitudeMeters>
            <DistanceMeters>NAN</DistanceMeters>
          </Trackpoint>
          <Trackpoint>
            <Time>2022-09-20T09:11:46.000Z</Time>
            <Position>
              <LatitudeDegrees>49.4484803639352321624755859375</LatitudeDegrees>
              <LongitudeDegrees>20.221037305891513824462890625</LongitudeDegrees>
            </Position>
            <AltitudeMeters>524</AltitudeMeters>
            <DistanceMeters>NAN</DistanceMeters>
          </Trackpoint>
          <Trackpoint>
            <Time>2022-09-20T09:11:58.000Z</Time>
            <Position>
              <LatitudeDegrees>49.44887473247945308685302734375</LatitudeDegrees>
              <LongitudeDegrees>20.22064595483243465423583984375</LongitudeDegrees>
            </Position>
            <AltitudeMeters>524.4000244140625</AltitudeMeters>
            <DistanceMeters>NAN</DistanceMeters>
          </Trackpoint>
          <Trackpoint>
            <Time>2022-09-20T09:12:02.000Z</Time>
            <Position>
              <LatitudeDegrees>49.449011273682117462158203125</LatitudeDegrees>
              <LongitudeDegrees>20.220506228506565093994140625</LongitudeDegrees>
            </Position>
            <AltitudeMeters>524.4000244140625</AltitudeMeters>
            <DistanceMeters>NAN</DistanceMeters>
          </Trackpoint>
          <Trackpoint>
            <Time>2022-09-20T09:12:03.000Z</Time>
            <Position>
              <LatitudeDegrees>49.4490459747612476348876953125</LatitudeDegrees>
              <LongitudeDegrees>20.2204715274274349212646484375</LongitudeDegrees>
            </Position>
            <AltitudeMeters>524.20001220703125</AltitudeMeters>
            <DistanceMeters>NAN</DistanceMeters>
          </Trackpoint>
          <Trackpoint>
            <Time>2022-09-20T09:12:05.000Z</Time>
            <Position>
              <LatitudeDegrees>49.449116885662078857421875</LatitudeDegrees>
              <LongitudeDegrees>20.22040321491658687591552734375</LongitudeDegrees>
            </Position>
            <AltitudeMeters>524</AltitudeMeters>
            <DistanceMeters>NAN</DistanceMeters>
          </Trackpoint>
          <Trackpoint>
            <Time>2022-09-20T09:12:06.000Z</Time>
            <Position>
              <LatitudeDegrees>49.4491517543792724609375</LatitudeDegrees>
              <LongitudeDegrees>20.22036700509488582611083984375</LongitudeDegrees>
            </Position>
            <AltitudeMeters>523.79998779296875</AltitudeMeters>
            <DistanceMeters>NAN</DistanceMeters>
          </Trackpoint>
          <Trackpoint>
            <Time>2022-09-20T09:12:09.000Z</Time>
            <Position>
              <LatitudeDegrees>49.4492595456540584564208984375</LatitudeDegrees>
              <LongitudeDegrees>20.2202639915049076080322265625</LongitudeDegrees>
            </Position>
            <AltitudeMeters>523.79998779296875</AltitudeMeters>
            <DistanceMeters>NAN</DistanceMeters>
          </Trackpoint>
          <Trackpoint>
            <Time>2022-09-20T09:12:11.000Z</Time>
            <Position>
              <LatitudeDegrees>49.44933204911649227142333984375</LatitudeDegrees>
              <LongitudeDegrees>20.22019417025148868560791015625</LongitudeDegrees>
            </Position>
            <AltitudeMeters>523.5999755859375</AltitudeMeters>
            <DistanceMeters>NAN</DistanceMeters>
          </Trackpoint>
          <Trackpoint>
            <Time>2022-09-20T09:12:19.000Z</Time>
            <Position>
              <LatitudeDegrees>49.4496363960206508636474609375</LatitudeDegrees>
              <LongitudeDegrees>20.21988705731928348541259765625</LongitudeDegrees>
            </Position>
            <AltitudeMeters>523.20001220703125</AltitudeMeters>
            <DistanceMeters>NAN</DistanceMeters>
          </Trackpoint>
          <Trackpoint>
            <Time>2022-09-20T09:12:24.000Z</Time>
            <Position>
              <LatitudeDegrees>49.449814595282077789306640625</LatitudeDegrees>
              <LongitudeDegrees>20.21970366127789020538330078125</LongitudeDegrees>
            </Position>
            <AltitudeMeters>523.4000244140625</AltitudeMeters>
            <DistanceMeters>NAN</DistanceMeters>
          </Trackpoint>
          <Trackpoint>
            <Time>2022-09-20T09:12:29.000Z</Time>
            <Position>
              <LatitudeDegrees>49.4499706663191318511962890625</LatitudeDegrees>
              <LongitudeDegrees>20.21954842843115329742431640625</LongitudeDegrees>
            </Position>
            <AltitudeMeters>523.20001220703125</AltitudeMeters>
            <DistanceMeters>NAN</DistanceMeters>
          </Trackpoint>
          <Trackpoint>
            <Time>2022-09-20T09:12:36.000Z</Time>
            <Position>
              <LatitudeDegrees>49.45016755722463130950927734375</LatitudeDegrees>
              <LongitudeDegrees>20.2193597517907619476318359375</LongitudeDegrees>
            </Position>
            <AltitudeMeters>522.79998779296875</AltitudeMeters>
            <DistanceMeters>NAN</DistanceMeters>
          </Trackpoint>
          <Trackpoint>
            <Time>2022-09-20T09:12:43.000Z</Time>
            <Position>
              <LatitudeDegrees>49.4503815472126007080078125</LatitudeDegrees>
              <LongitudeDegrees>20.21914509125053882598876953125</LongitudeDegrees>
            </Position>
            <AltitudeMeters>523</AltitudeMeters>
            <DistanceMeters>NAN</DistanceMeters>
          </Trackpoint>
          <Trackpoint>
            <Time>2022-09-20T09:12:47.000Z</Time>
            <Position>
              <LatitudeDegrees>49.45051238872110843658447265625</LatitudeDegrees>
              <LongitudeDegrees>20.21900511346757411956787109375</LongitudeDegrees>
            </Position>
            <AltitudeMeters>523</AltitudeMeters>
            <DistanceMeters>NAN</DistanceMeters>
          </Trackpoint>
          <Trackpoint>
            <Time>2022-09-20T09:12:52.000Z</Time>
            <Position>
              <LatitudeDegrees>49.45067591965198516845703125</LatitudeDegrees>
              <LongitudeDegrees>20.21883680485188961029052734375</LongitudeDegrees>
            </Position>
            <AltitudeMeters>523.20001220703125</AltitudeMeters>
            <DistanceMeters>NAN</DistanceMeters>
          </Trackpoint>
          <Trackpoint>
            <Time>2022-09-20T09:12:57.000Z</Time>
            <Position>
              <LatitudeDegrees>49.45083676837384700775146484375</LatitudeDegrees>
              <LongitudeDegrees>20.2186727710068225860595703125</LongitudeDegrees>
            </Position>
            <AltitudeMeters>523.20001220703125</AltitudeMeters>
            <DistanceMeters>NAN</DistanceMeters>
          </Trackpoint>
          <Trackpoint>
            <Time>2022-09-20T09:13:03.000Z</Time>
            <Position>
              <LatitudeDegrees>49.45103910751640796661376953125</LatitudeDegrees>
              <LongitudeDegrees>20.2184850163757801055908203125</LongitudeDegrees>
            </Position>
            <AltitudeMeters>523.20001220703125</AltitudeMeters>
            <DistanceMeters>NAN</DistanceMeters>
          </Trackpoint>
          <Trackpoint>
            <Time>2022-09-20T09:13:07.000Z</Time>
            <Position>
              <LatitudeDegrees>49.45117212831974029541015625</LatitudeDegrees>
              <LongitudeDegrees>20.2183492295444011688232421875</LongitudeDegrees>
            </Position>
            <AltitudeMeters>523</AltitudeMeters>
            <DistanceMeters>NAN</DistanceMeters>
          </Trackpoint>
          <Trackpoint>
            <Time>2022-09-20T09:13:08.000Z</Time>
            <Position>
              <LatitudeDegrees>49.4512058235704898834228515625</LatitudeDegrees>
              <LongitudeDegrees>20.2183131873607635498046875</LongitudeDegrees>
            </Position>
            <AltitudeMeters>523</AltitudeMeters>
            <DistanceMeters>NAN</DistanceMeters>
          </Trackpoint>
          <Trackpoint>
            <Time>2022-09-20T09:13:14.000Z</Time>
            <Position>
              <LatitudeDegrees>49.4514120183885097503662109375</LatitudeDegrees>
              <LongitudeDegrees>20.2181041426956653594970703125</LongitudeDegrees>
            </Position>
            <AltitudeMeters>523</AltitudeMeters>
            <DistanceMeters>NAN</DistanceMeters>
          </Trackpoint>
          <Trackpoint>
            <Time>2022-09-20T09:13:16.000Z</Time>
            <Position>
              <LatitudeDegrees>49.45147865451872348785400390625</LatitudeDegrees>
              <LongitudeDegrees>20.2180342376232147216796875</LongitudeDegrees>
            </Position>
            <AltitudeMeters>523</AltitudeMeters>
            <DistanceMeters>NAN</DistanceMeters>
          </Trackpoint>
          <Trackpoint>
            <Time>2022-09-20T09:13:19.000Z</Time>
            <Position>
              <LatitudeDegrees>49.451579153537750244140625</LatitudeDegrees>
              <LongitudeDegrees>20.217936672270298004150390625</LongitudeDegrees>
            </Position>
            <AltitudeMeters>523</AltitudeMeters>
            <DistanceMeters>NAN</DistanceMeters>
          </Trackpoint>
          <Trackpoint>
            <Time>2022-09-20T09:13:24.000Z</Time>
            <Position>
              <LatitudeDegrees>49.4517462886869907379150390625</LatitudeDegrees>
              <LongitudeDegrees>20.217774398624897003173828125</LongitudeDegrees>
            </Position>
            <AltitudeMeters>523</AltitudeMeters>
            <DistanceMeters>NAN</DistanceMeters>
          </Trackpoint>
          <Trackpoint>
            <Time>2022-09-20T09:13:33.000Z</Time>
            <Position>
              <LatitudeDegrees>49.4519766233861446380615234375</LatitudeDegrees>
              <LongitudeDegrees>20.217548422515392303466796875</LongitudeDegrees>
            </Position>
            <AltitudeMeters>523</AltitudeMeters>
            <DistanceMeters>NAN</DistanceMeters>
          </Trackpoint>
          <Trackpoint>
            <Time>2022-09-20T09:13:38.000Z</Time>
            <Position>
              <LatitudeDegrees>49.45214233361184597015380859375</LatitudeDegrees>
              <LongitudeDegrees>20.21738757379353046417236328125</LongitudeDegrees>
            </Position>
            <AltitudeMeters>523.4000244140625</AltitudeMeters>
            <DistanceMeters>NAN</DistanceMeters>
          </Trackpoint>
          <Trackpoint>
            <Time>2022-09-20T09:13:40.000Z</Time>
            <Position>
              <LatitudeDegrees>49.45219404995441436767578125</LatitudeDegrees>
              <LongitudeDegrees>20.2173279784619808197021484375</LongitudeDegrees>
            </Position>
            <AltitudeMeters>523.4000244140625</AltitudeMeters>
            <DistanceMeters>NAN</DistanceMeters>
          </Trackpoint>
          <Trackpoint>
            <Time>2022-09-20T09:13:41.000Z</Time>
            <Position>
              <LatitudeDegrees>49.45222087204456329345703125</LatitudeDegrees>
              <LongitudeDegrees>20.2172964625060558319091796875</LongitudeDegrees>
            </Position>
            <AltitudeMeters>523.4000244140625</AltitudeMeters>
            <DistanceMeters>NAN</DistanceMeters>
          </Trackpoint>
          <Trackpoint>
            <Time>2022-09-20T09:13:52.000Z</Time>
            <Position>
              <LatitudeDegrees>49.4525214470922946929931640625</LatitudeDegrees>
              <LongitudeDegrees>20.2169896848499774932861328125</LongitudeDegrees>
            </Position>
            <AltitudeMeters>523.79998779296875</AltitudeMeters>
            <DistanceMeters>NAN</DistanceMeters>
          </Trackpoint>
          <Trackpoint>
            <Time>2022-09-20T09:13:59.000Z</Time>
            <Position>
              <LatitudeDegrees>49.4527229480445384979248046875</LatitudeDegrees>
              <LongitudeDegrees>20.21677267737686634063720703125</LongitudeDegrees>
            </Position>
            <AltitudeMeters>524.20001220703125</AltitudeMeters>
            <DistanceMeters>NAN</DistanceMeters>
          </Trackpoint>
          <Trackpoint>
            <Time>2022-09-20T09:14:06.000Z</Time>
            <Position>
              <LatitudeDegrees>49.45294615812599658966064453125</LatitudeDegrees>
              <LongitudeDegrees>20.2165496349334716796875</LongitudeDegrees>
            </Position>
            <AltitudeMeters>524.20001220703125</AltitudeMeters>
            <DistanceMeters>NAN</DistanceMeters>
          </Trackpoint>
          <Trackpoint>
            <Time>2022-09-20T09:14:18.000Z</Time>
            <Position>
              <LatitudeDegrees>49.45333222858607769012451171875</LatitudeDegrees>
              <LongitudeDegrees>20.21616633050143718719482421875</LongitudeDegrees>
            </Position>
            <AltitudeMeters>524</AltitudeMeters>
            <DistanceMeters>NAN</DistanceMeters>
          </Trackpoint>
          <Trackpoint>
            <Time>2022-09-20T09:14:23.000Z</Time>
            <Position>
              <LatitudeDegrees>49.45350087247788906097412109375</LatitudeDegrees>
              <LongitudeDegrees>20.21599248982965946197509765625</LongitudeDegrees>
            </Position>
            <AltitudeMeters>524</AltitudeMeters>
            <DistanceMeters>NAN</DistanceMeters>
          </Trackpoint>
          <Trackpoint>
            <Time>2022-09-20T09:14:30.000Z</Time>
            <Position>
              <LatitudeDegrees>49.45375182665884494781494140625</LatitudeDegrees>
              <LongitudeDegrees>20.21574027836322784423828125</LongitudeDegrees>
            </Position>
            <AltitudeMeters>523.79998779296875</AltitudeMeters>
            <DistanceMeters>NAN</DistanceMeters>
          </Trackpoint>
          <Trackpoint>
            <Time>2022-09-20T09:14:34.000Z</Time>
            <Position>
              <LatitudeDegrees>49.453886859118938446044921875</LatitudeDegrees>
              <LongitudeDegrees>20.21560616791248321533203125</LongitudeDegrees>
            </Position>
            <AltitudeMeters>523.79998779296875</AltitudeMeters>
            <DistanceMeters>NAN</DistanceMeters>
          </Trackpoint>
          <Trackpoint>
            <Time>2022-09-20T09:14:37.000Z</Time>
            <Position>
              <LatitudeDegrees>49.45398869924247264862060546875</LatitudeDegrees>
              <LongitudeDegrees>20.21550801582634449005126953125</LongitudeDegrees>
            </Position>
            <AltitudeMeters>523.5999755859375</AltitudeMeters>
            <DistanceMeters>NAN</DistanceMeters>
          </Trackpoint>
          <Trackpoint>
            <Time>2022-09-20T09:14:40.000Z</Time>
            <Position>
              <LatitudeDegrees>49.454093389213085174560546875</LatitudeDegrees>
              <LongitudeDegrees>20.21540441550314426422119140625</LongitudeDegrees>
            </Position>
            <AltitudeMeters>523.5999755859375</AltitudeMeters>
            <DistanceMeters>NAN</DistanceMeters>
          </Trackpoint>
          <Trackpoint>
            <Time>2022-09-20T09:14:50.000Z</Time>
            <Position>
              <LatitudeDegrees>49.45444802753627300262451171875</LatitudeDegrees>
              <LongitudeDegrees>20.2150487713515758514404296875</LongitudeDegrees>
            </Position>
            <AltitudeMeters>524</AltitudeMeters>
            <DistanceMeters>NAN</DistanceMeters>
          </Trackpoint>
          <Trackpoint>
            <Time>2022-09-20T09:15:01.000Z</Time>
            <Position>
              <LatitudeDegrees>49.45482152514159679412841796875</LatitudeDegrees>
              <LongitudeDegrees>20.21466999314725399017333984375</LongitudeDegrees>
            </Position>
            <AltitudeMeters>524</AltitudeMeters>
            <DistanceMeters>NAN</DistanceMeters>
          </Trackpoint>
          <Trackpoint>
            <Time>2022-09-20T09:15:11.000Z</Time>
            <Position>
              <LatitudeDegrees>49.45515227504074573516845703125</LatitudeDegrees>
              <LongitudeDegrees>20.21433186717331409454345703125</LongitudeDegrees>
            </Position>
            <AltitudeMeters>524</AltitudeMeters>
            <DistanceMeters>NAN</DistanceMeters>
          </Trackpoint>
          <Trackpoint>
            <Time>2022-09-20T09:15:14.000Z</Time>
            <Position>
              <LatitudeDegrees>49.45523978210985660552978515625</LatitudeDegrees>
              <LongitudeDegrees>20.21423916332423686981201171875</LongitudeDegrees>
            </Position>
            <AltitudeMeters>524</AltitudeMeters>
            <DistanceMeters>NAN</DistanceMeters>
          </Trackpoint>
          <Trackpoint>
            <Time>2022-09-20T09:15:22.000Z</Time>
            <Position>
              <LatitudeDegrees>49.45544295944273471832275390625</LatitudeDegrees>
              <LongitudeDegrees>20.21404512226581573486328125</LongitudeDegrees>
            </Position>
            <AltitudeMeters>523.79998779296875</AltitudeMeters>
            <DistanceMeters>NAN</DistanceMeters>
          </Trackpoint>
          <Trackpoint>
            <Time>2022-09-20T09:15:28.000Z</Time>
            <Position>
              <LatitudeDegrees>49.4555681012570858001708984375</LatitudeDegrees>
              <LongitudeDegrees>20.21391293965280055999755859375</LongitudeDegrees>
            </Position>
            <AltitudeMeters>523.5999755859375</AltitudeMeters>
            <DistanceMeters>NAN</DistanceMeters>
          </Trackpoint>
          <Trackpoint>
            <Time>2022-09-20T09:15:32.000Z</Time>
            <Position>
              <LatitudeDegrees>49.45564580149948596954345703125</LatitudeDegrees>
              <LongitudeDegrees>20.21389332599937915802001953125</LongitudeDegrees>
            </Position>
            <AltitudeMeters>523.4000244140625</AltitudeMeters>
            <DistanceMeters>NAN</DistanceMeters>
          </Trackpoint>
          <Trackpoint>
            <Time>2022-09-20T09:15:33.000Z</Time>
            <Position>
              <LatitudeDegrees>49.45566172711551189422607421875</LatitudeDegrees>
              <LongitudeDegrees>20.2139125205576419830322265625</LongitudeDegrees>
            </Position>
            <AltitudeMeters>523.4000244140625</AltitudeMeters>
            <DistanceMeters>NAN</DistanceMeters>
          </Trackpoint>
          <Trackpoint>
            <Time>2022-09-20T09:15:39.000Z</Time>
            <Position>
              <LatitudeDegrees>49.45570246316492557525634765625</LatitudeDegrees>
              <LongitudeDegrees>20.2140617184340953826904296875</LongitudeDegrees>
            </Position>
            <AltitudeMeters>523.4000244140625</AltitudeMeters>
            <DistanceMeters>NAN</DistanceMeters>
          </Trackpoint>
          <Trackpoint>
            <Time>2022-09-20T09:15:46.000Z</Time>
            <Position>
              <LatitudeDegrees>49.45576264522969722747802734375</LatitudeDegrees>
              <LongitudeDegrees>20.214215107262134552001953125</LongitudeDegrees>
            </Position>
            <AltitudeMeters>523.5999755859375</AltitudeMeters>
            <DistanceMeters>NAN</DistanceMeters>
          </Trackpoint>
          <Trackpoint>
            <Time>2022-09-20T09:15:50.000Z</Time>
            <Position>
              <LatitudeDegrees>49.45579566992819309234619140625</LatitudeDegrees>
              <LongitudeDegrees>20.2142965793609619140625</LongitudeDegrees>
            </Position>
            <AltitudeMeters>523.5999755859375</AltitudeMeters>
            <DistanceMeters>NAN</DistanceMeters>
          </Trackpoint>
          <Trackpoint>
            <Time>2022-09-20T09:15:53.000Z</Time>
            <Position>
              <LatitudeDegrees>49.45581905543804168701171875</LatitudeDegrees>
              <LongitudeDegrees>20.214330442249774932861328125</LongitudeDegrees>
            </Position>
            <AltitudeMeters>523.4000244140625</AltitudeMeters>
            <DistanceMeters>NAN</DistanceMeters>
          </Trackpoint>
          <Trackpoint>
            <Time>2022-09-20T09:15:58.000Z</Time>
            <Position>
              <LatitudeDegrees>49.45582115091383457183837890625</LatitudeDegrees>
              <LongitudeDegrees>20.214341841638088226318359375</LongitudeDegrees>
            </Position>
            <AltitudeMeters>523.4000244140625</AltitudeMeters>
            <DistanceMeters>NAN</DistanceMeters>
          </Trackpoint>
          <Trackpoint>
            <Time>2022-09-20T09:16:15.000Z</Time>
            <Position>
              <LatitudeDegrees>49.45582115091383457183837890625</LatitudeDegrees>
              <LongitudeDegrees>20.214341841638088226318359375</LongitudeDegrees>
            </Position>
            <AltitudeMeters>523.5999755859375</AltitudeMeters>
            <DistanceMeters>NAN</DistanceMeters>
          </Trackpoint>
          <Trackpoint>
            <Time>2022-09-20T09:16:17.000Z</Time>
            <Position>
              <LatitudeDegrees>49.45582115091383457183837890625</LatitudeDegrees>
              <LongitudeDegrees>20.214341841638088226318359375</LongitudeDegrees>
            </Position>
            <AltitudeMeters>523.4000244140625</AltitudeMeters>
            <DistanceMeters>NAN</DistanceMeters>
          </Trackpoint>
          <Trackpoint>
            <Time>2022-09-20T09:16:27.000Z</Time>
            <Position>
              <LatitudeDegrees>49.45582115091383457183837890625</LatitudeDegrees>
              <LongitudeDegrees>20.214341841638088226318359375</LongitudeDegrees>
            </Position>
            <AltitudeMeters>523.4000244140625</AltitudeMeters>
            <DistanceMeters>NAN</DistanceMeters>
          </Trackpoint>
          <Trackpoint>
            <Time>2022-09-20T09:16:35.000Z</Time>
            <Position>
              <LatitudeDegrees>49.45582115091383457183837890625</LatitudeDegrees>
              <LongitudeDegrees>20.214341841638088226318359375</LongitudeDegrees>
            </Position>
            <AltitudeMeters>523.4000244140625</AltitudeMeters>
            <DistanceMeters>NAN</DistanceMeters>
          </Trackpoint>
          <Trackpoint>
            <Time>2022-09-20T09:17:30.000Z</Time>
            <Position>
              <LatitudeDegrees>49.45582282729446887969970703125</LatitudeDegrees>
              <LongitudeDegrees>20.21434309892356395721435546875</LongitudeDegrees>
            </Position>
            <AltitudeMeters>523.4000244140625</AltitudeMeters>
            <DistanceMeters>NAN</DistanceMeters>
          </Trackpoint>
          <Trackpoint>
            <Time>2022-09-20T09:18:01.000Z</Time>
            <Position>
              <LatitudeDegrees>49.45586943067610263824462890625</LatitudeDegrees>
              <LongitudeDegrees>20.2144271694123744964599609375</LongitudeDegrees>
            </Position>
            <AltitudeMeters>523.4000244140625</AltitudeMeters>
            <DistanceMeters>NAN</DistanceMeters>
          </Trackpoint>
          <Trackpoint>
            <Time>2022-09-20T09:18:07.000Z</Time>
            <Position>
              <LatitudeDegrees>49.45594302378594875335693359375</LatitudeDegrees>
              <LongitudeDegrees>20.2146216295659542083740234375</LongitudeDegrees>
            </Position>
            <AltitudeMeters>523.5999755859375</AltitudeMeters>
            <DistanceMeters>NAN</DistanceMeters>
          </Trackpoint>
          <Trackpoint>
            <Time>2022-09-20T09:18:13.000Z</Time>
            <Position>
              <LatitudeDegrees>49.455985017120838165283203125</LatitudeDegrees>
              <LongitudeDegrees>20.2147456817328929901123046875</LongitudeDegrees>
            </Position>
            <AltitudeMeters>523.20001220703125</AltitudeMeters>
            <DistanceMeters>NAN</DistanceMeters>
          </Trackpoint>
          <Trackpoint>
            <Time>2022-09-20T09:18:16.000Z</Time>
            <Position>
              <LatitudeDegrees>49.45602885447442531585693359375</LatitudeDegrees>
              <LongitudeDegrees>20.2147902734577655792236328125</LongitudeDegrees>
            </Position>
            <AltitudeMeters>523</AltitudeMeters>
            <DistanceMeters>NAN</DistanceMeters>
          </Trackpoint>
          <Trackpoint>
            <Time>2022-09-20T09:18:19.000Z</Time>
            <Position>
              <LatitudeDegrees>49.45605886168777942657470703125</LatitudeDegrees>
              <LongitudeDegrees>20.21483595483005046844482421875</LongitudeDegrees>
            </Position>
            <AltitudeMeters>522.5999755859375</AltitudeMeters>
            <DistanceMeters>NAN</DistanceMeters>
          </Trackpoint>
          <Trackpoint>
            <Time>2022-09-20T09:18:26.000Z</Time>
            <Position>
              <LatitudeDegrees>49.45608199574053287506103515625</LatitudeDegrees>
              <LongitudeDegrees>20.21487283520400524139404296875</LongitudeDegrees>
            </Position>
            <AltitudeMeters>522.20001220703125</AltitudeMeters>
            <DistanceMeters>NAN</DistanceMeters>
          </Trackpoint>
          <Trackpoint>
            <Time>2022-09-20T09:18:43.000Z</Time>
            <Position>
              <LatitudeDegrees>49.45608199574053287506103515625</LatitudeDegrees>
              <LongitudeDegrees>20.21487283520400524139404296875</LongitudeDegrees>
            </Position>
            <AltitudeMeters>521.79998779296875</AltitudeMeters>
            <DistanceMeters>NAN</DistanceMeters>
          </Trackpoint>
          <Trackpoint>
            <Time>2022-09-20T09:18:51.000Z</Time>
            <Position>
              <LatitudeDegrees>49.45608199574053287506103515625</LatitudeDegrees>
              <LongitudeDegrees>20.21487283520400524139404296875</LongitudeDegrees>
            </Position>
            <AltitudeMeters>522</AltitudeMeters>
            <DistanceMeters>NAN</DistanceMeters>
          </Trackpoint>
          <Trackpoint>
            <Time>2022-09-20T09:18:58.000Z</Time>
            <Position>
              <LatitudeDegrees>49.45608199574053287506103515625</LatitudeDegrees>
              <LongitudeDegrees>20.21487283520400524139404296875</LongitudeDegrees>
            </Position>
            <AltitudeMeters>522</AltitudeMeters>
            <DistanceMeters>NAN</DistanceMeters>
          </Trackpoint>
          <Trackpoint>
            <Time>2022-09-20T09:19:03.000Z</Time>
            <Position>
              <LatitudeDegrees>49.45608199574053287506103515625</LatitudeDegrees>
              <LongitudeDegrees>20.21487283520400524139404296875</LongitudeDegrees>
            </Position>
            <AltitudeMeters>522</AltitudeMeters>
            <DistanceMeters>NAN</DistanceMeters>
          </Trackpoint>
          <Trackpoint>
            <Time>2022-09-20T09:19:12.000Z</Time>
            <Position>
              <LatitudeDegrees>49.45608199574053287506103515625</LatitudeDegrees>
              <LongitudeDegrees>20.21487283520400524139404296875</LongitudeDegrees>
            </Position>
            <AltitudeMeters>521.79998779296875</AltitudeMeters>
            <DistanceMeters>NAN</DistanceMeters>
          </Trackpoint>
          <Trackpoint>
            <Time>2022-09-20T09:19:17.000Z</Time>
            <Position>
              <LatitudeDegrees>49.45608199574053287506103515625</LatitudeDegrees>
              <LongitudeDegrees>20.21487283520400524139404296875</LongitudeDegrees>
            </Position>
            <AltitudeMeters>522</AltitudeMeters>
            <DistanceMeters>NAN</DistanceMeters>
          </Trackpoint>
          <Trackpoint>
            <Time>2022-09-20T09:19:24.000Z</Time>
            <Position>
              <LatitudeDegrees>49.45609859190881252288818359375</LatitudeDegrees>
              <LongitudeDegrees>20.2149228751659393310546875</LongitudeDegrees>
            </Position>
            <AltitudeMeters>522.20001220703125</AltitudeMeters>
            <DistanceMeters>NAN</DistanceMeters>
          </Trackpoint>
          <Trackpoint>
            <Time>2022-09-20T09:19:26.000Z</Time>
            <Position>
              <LatitudeDegrees>49.45612256415188312530517578125</LatitudeDegrees>
              <LongitudeDegrees>20.21502052433788776397705078125</LongitudeDegrees>
            </Position>
            <AltitudeMeters>522.20001220703125</AltitudeMeters>
            <DistanceMeters>NAN</DistanceMeters>
          </Trackpoint>
          <Trackpoint>
            <Time>2022-09-20T09:19:29.000Z</Time>
            <Position>
              <LatitudeDegrees>49.4561518169939517974853515625</LatitudeDegrees>
              <LongitudeDegrees>20.215143822133541107177734375</LongitudeDegrees>
            </Position>
            <AltitudeMeters>522</AltitudeMeters>
            <DistanceMeters>NAN</DistanceMeters>
          </Trackpoint>
          <Trackpoint>
            <Time>2022-09-20T09:19:31.000Z</Time>
            <Position>
              <LatitudeDegrees>49.4561702571809291839599609375</LatitudeDegrees>
              <LongitudeDegrees>20.21522135473787784576416015625</LongitudeDegrees>
            </Position>
            <AltitudeMeters>521.5999755859375</AltitudeMeters>
            <DistanceMeters>NAN</DistanceMeters>
          </Trackpoint>
          <Trackpoint>
            <Time>2022-09-20T09:19:36.000Z</Time>
            <Position>
              <LatitudeDegrees>49.45620303042232990264892578125</LatitudeDegrees>
              <LongitudeDegrees>20.215389244258403778076171875</LongitudeDegrees>
            </Position>
            <AltitudeMeters>520.4000244140625</AltitudeMeters>
            <DistanceMeters>NAN</DistanceMeters>
          </Trackpoint>
          <Trackpoint>
            <Time>2022-09-20T09:19:37.000Z</Time>
            <Position>
              <LatitudeDegrees>49.4562185369431972503662109375</LatitudeDegrees>
              <LongitudeDegrees>20.21546862088143825531005859375</LongitudeDegrees>
            </Position>
            <AltitudeMeters>520.20001220703125</AltitudeMeters>
            <DistanceMeters>NAN</DistanceMeters>
          </Trackpoint>
          <Trackpoint>
            <Time>2022-09-20T09:19:44.000Z</Time>
            <Position>
              <LatitudeDegrees>49.45622968487441539764404296875</LatitudeDegrees>
              <LongitudeDegrees>20.2157836966216564178466796875</LongitudeDegrees>
            </Position>
            <AltitudeMeters>519.5999755859375</AltitudeMeters>
            <DistanceMeters>NAN</DistanceMeters>
          </Trackpoint>
          <Trackpoint>
            <Time>2022-09-20T09:19:47.000Z</Time>
            <Position>
              <LatitudeDegrees>49.4562319479882717132568359375</LatitudeDegrees>
              <LongitudeDegrees>20.21590934135019779205322265625</LongitudeDegrees>
            </Position>
            <AltitudeMeters>519.4000244140625</AltitudeMeters>
            <DistanceMeters>NAN</DistanceMeters>
          </Trackpoint>
          <Trackpoint>
            <Time>2022-09-20T09:19:50.000Z</Time>
            <Position>
              <LatitudeDegrees>49.4562393240630626678466796875</LatitudeDegrees>
              <LongitudeDegrees>20.2160639874637126922607421875</LongitudeDegrees>
            </Position>
            <AltitudeMeters>519</AltitudeMeters>
            <DistanceMeters>NAN</DistanceMeters>
          </Trackpoint>
          <Trackpoint>
            <Time>2022-09-20T09:19:56.000Z</Time>
            <Position>
              <LatitudeDegrees>49.4562448561191558837890625</LatitudeDegrees>
              <LongitudeDegrees>20.21625115536153316497802734375</LongitudeDegrees>
            </Position>
            <AltitudeMeters>519</AltitudeMeters>
            <DistanceMeters>NAN</DistanceMeters>
          </Trackpoint>
          <Trackpoint>
            <Time>2022-09-20T09:20:02.000Z</Time>
            <Position>
              <LatitudeDegrees>49.45626488886773586273193359375</LatitudeDegrees>
              <LongitudeDegrees>20.21653329022228717803955078125</LongitudeDegrees>
            </Position>
            <AltitudeMeters>518.5999755859375</AltitudeMeters>
            <DistanceMeters>NAN</DistanceMeters>
          </Trackpoint>
          <Trackpoint>
            <Time>2022-09-20T09:20:05.000Z</Time>
            <Position>
              <LatitudeDegrees>49.45626019500195980072021484375</LatitudeDegrees>
              <LongitudeDegrees>20.21664820611476898193359375</LongitudeDegrees>
            </Position>
            <AltitudeMeters>518.4000244140625</AltitudeMeters>
            <DistanceMeters>NAN</DistanceMeters>
          </Trackpoint>
          <Trackpoint>
            <Time>2022-09-20T09:20:06.000Z</Time>
            <Position>
              <LatitudeDegrees>49.4562637992203235626220703125</LatitudeDegrees>
              <LongitudeDegrees>20.21668818779289722442626953125</LongitudeDegrees>
            </Position>
            <AltitudeMeters>518.4000244140625</AltitudeMeters>
            <DistanceMeters>NAN</DistanceMeters>
          </Trackpoint>
          <Trackpoint>
            <Time>2022-09-20T09:20:10.000Z</Time>
            <Position>
              <LatitudeDegrees>49.45628433488309383392333984375</LatitudeDegrees>
              <LongitudeDegrees>20.21685247309505939483642578125</LongitudeDegrees>
            </Position>
            <AltitudeMeters>518.4000244140625</AltitudeMeters>
            <DistanceMeters>NAN</DistanceMeters>
          </Trackpoint>
          <Trackpoint>
            <Time>2022-09-20T09:20:15.000Z</Time>
            <Position>
              <LatitudeDegrees>49.45631316863000392913818359375</LatitudeDegrees>
              <LongitudeDegrees>20.2170000784099102020263671875</LongitudeDegrees>
            </Position>
            <AltitudeMeters>518</AltitudeMeters>
            <DistanceMeters>NAN</DistanceMeters>
          </Trackpoint>
          <Trackpoint>
            <Time>2022-09-20T09:20:23.000Z</Time>
            <Position>
              <LatitudeDegrees>49.45638340897858142852783203125</LatitudeDegrees>
              <LongitudeDegrees>20.217203758656978607177734375</LongitudeDegrees>
            </Position>
            <AltitudeMeters>517.5999755859375</AltitudeMeters>
            <DistanceMeters>NAN</DistanceMeters>
          </Trackpoint>
          <Trackpoint>
            <Time>2022-09-20T09:20:32.000Z</Time>
            <Position>
              <LatitudeDegrees>49.45643017999827861785888671875</LatitudeDegrees>
              <LongitudeDegrees>20.21744549274444580078125</LongitudeDegrees>
            </Position>
            <AltitudeMeters>517.79998779296875</AltitudeMeters>
            <DistanceMeters>NAN</DistanceMeters>
          </Trackpoint>
          <Trackpoint>
            <Time>2022-09-20T09:20:40.000Z</Time>
            <Position>
              <LatitudeDegrees>49.4564629532396793365478515625</LatitudeDegrees>
              <LongitudeDegrees>20.21769502200186252593994140625</LongitudeDegrees>
            </Position>
            <AltitudeMeters>517.4000244140625</AltitudeMeters>
            <DistanceMeters>NAN</DistanceMeters>
          </Trackpoint>
          <Trackpoint>
            <Time>2022-09-20T09:20:47.000Z</Time>
            <Position>
              <LatitudeDegrees>49.45647208951413631439208984375</LatitudeDegrees>
              <LongitudeDegrees>20.2179013006389141082763671875</LongitudeDegrees>
            </Position>
            <AltitudeMeters>517.4000244140625</AltitudeMeters>
            <DistanceMeters>NAN</DistanceMeters>
          </Trackpoint>
          <Trackpoint>
            <Time>2022-09-20T09:20:48.000Z</Time>
            <Position>
              <LatitudeDegrees>49.45647208951413631439208984375</LatitudeDegrees>
              <LongitudeDegrees>20.2179013006389141082763671875</LongitudeDegrees>
            </Position>
            <AltitudeMeters>517.20001220703125</AltitudeMeters>
            <DistanceMeters>NAN</DistanceMeters>
          </Trackpoint>
          <Trackpoint>
            <Time>2022-09-20T09:20:53.000Z</Time>
            <Position>
              <LatitudeDegrees>49.456464461982250213623046875</LatitudeDegrees>
              <LongitudeDegrees>20.21808193065226078033447265625</LongitudeDegrees>
            </Position>
            <AltitudeMeters>517</AltitudeMeters>
            <DistanceMeters>NAN</DistanceMeters>
          </Trackpoint>
          <Trackpoint>
            <Time>2022-09-20T09:20:56.000Z</Time>
            <Position>
              <LatitudeDegrees>49.45645247586071491241455078125</LatitudeDegrees>
              <LongitudeDegrees>20.21819307468831539154052734375</LongitudeDegrees>
            </Position>
            <AltitudeMeters>517.20001220703125</AltitudeMeters>
            <DistanceMeters>NAN</DistanceMeters>
          </Trackpoint>
          <Trackpoint>
            <Time>2022-09-20T09:20:57.000Z</Time>
            <Position>
              <LatitudeDegrees>49.456446357071399688720703125</LatitudeDegrees>
              <LongitudeDegrees>20.2182233333587646484375</LongitudeDegrees>
            </Position>
            <AltitudeMeters>517.20001220703125</AltitudeMeters>
            <DistanceMeters>NAN</DistanceMeters>
          </Trackpoint>
          <Trackpoint>
            <Time>2022-09-20T09:21:05.000Z</Time>
            <Position>
              <LatitudeDegrees>49.45641911588609218597412109375</LatitudeDegrees>
              <LongitudeDegrees>20.21859155036509037017822265625</LongitudeDegrees>
            </Position>
            <AltitudeMeters>517.20001220703125</AltitudeMeters>
            <DistanceMeters>NAN</DistanceMeters>
          </Trackpoint>
          <Trackpoint>
            <Time>2022-09-20T09:21:08.000Z</Time>
            <Position>
              <LatitudeDegrees>49.4564083032310009002685546875</LatitudeDegrees>
              <LongitudeDegrees>20.21870152093470096588134765625</LongitudeDegrees>
            </Position>
            <AltitudeMeters>516.4000244140625</AltitudeMeters>
            <DistanceMeters>NAN</DistanceMeters>
          </Trackpoint>
          <Trackpoint>
            <Time>2022-09-20T09:21:12.000Z</Time>
            <Position>
              <LatitudeDegrees>49.4563834927976131439208984375</LatitudeDegrees>
              <LongitudeDegrees>20.2188762836158275604248046875</LongitudeDegrees>
            </Position>
            <AltitudeMeters>516.5999755859375</AltitudeMeters>
            <DistanceMeters>NAN</DistanceMeters>
          </Trackpoint>
          <Trackpoint>
            <Time>2022-09-20T09:21:13.000Z</Time>
            <Position>
              <LatitudeDegrees>49.45637184195220470428466796875</LatitudeDegrees>
              <LongitudeDegrees>20.21894861944019794464111328125</LongitudeDegrees>
            </Position>
            <AltitudeMeters>516.5999755859375</AltitudeMeters>
            <DistanceMeters>NAN</DistanceMeters>
          </Trackpoint>
          <Trackpoint>
            <Time>2022-09-20T09:21:15.000Z</Time>
            <Position>
              <LatitudeDegrees>49.4563499651849269866943359375</LatitudeDegrees>
              <LongitudeDegrees>20.21900855004787445068359375</LongitudeDegrees>
            </Position>
            <AltitudeMeters>516.20001220703125</AltitudeMeters>
            <DistanceMeters>NAN</DistanceMeters>
          </Trackpoint>
          <Trackpoint>
            <Time>2022-09-20T09:21:16.000Z</Time>
            <Position>
              <LatitudeDegrees>49.4563462771475315093994140625</LatitudeDegrees>
              <LongitudeDegrees>20.21904400549829006195068359375</LongitudeDegrees>
            </Position>
            <AltitudeMeters>516.20001220703125</AltitudeMeters>
            <DistanceMeters>NAN</DistanceMeters>
          </Trackpoint>
          <Trackpoint>
            <Time>2022-09-20T09:21:18.000Z</Time>
            <Position>
              <LatitudeDegrees>49.45634610950946807861328125</LatitudeDegrees>
              <LongitudeDegrees>20.21910846233367919921875</LongitudeDegrees>
            </Position>
            <AltitudeMeters>516.20001220703125</AltitudeMeters>
            <DistanceMeters>NAN</DistanceMeters>
          </Trackpoint>
          <Trackpoint>
            <Time>2022-09-20T09:21:22.000Z</Time>
            <Position>
              <LatitudeDegrees>49.4563368894159793853759765625</LatitudeDegrees>
              <LongitudeDegrees>20.21922589279711246490478515625</LongitudeDegrees>
            </Position>
            <AltitudeMeters>515.79998779296875</AltitudeMeters>
            <DistanceMeters>NAN</DistanceMeters>
          </Trackpoint>
          <Trackpoint>
            <Time>2022-09-20T09:21:27.000Z</Time>
            <Position>
              <LatitudeDegrees>49.4563087262213230133056640625</LatitudeDegrees>
              <LongitudeDegrees>20.2195049263536930084228515625</LongitudeDegrees>
            </Position>
            <AltitudeMeters>516</AltitudeMeters>
            <DistanceMeters>NAN</DistanceMeters>
          </Trackpoint>
          <Trackpoint>
            <Time>2022-09-20T09:21:35.000Z</Time>
            <Position>
              <LatitudeDegrees>49.45625893771648406982421875</LatitudeDegrees>
              <LongitudeDegrees>20.21989258937537670135498046875</LongitudeDegrees>
            </Position>
            <AltitudeMeters>515.5999755859375</AltitudeMeters>
            <DistanceMeters>NAN</DistanceMeters>
          </Trackpoint>
          <Trackpoint>
            <Time>2022-09-20T09:21:36.000Z</Time>
            <Position>
              <LatitudeDegrees>49.4562530703842639923095703125</LatitudeDegrees>
              <LongitudeDegrees>20.21993114612996578216552734375</LongitudeDegrees>
            </Position>
            <AltitudeMeters>515.5999755859375</AltitudeMeters>
            <DistanceMeters>NAN</DistanceMeters>
          </Trackpoint>
          <Trackpoint>
            <Time>2022-09-20T09:21:43.000Z</Time>
            <Position>
              <LatitudeDegrees>49.456212334334850311279296875</LatitudeDegrees>
              <LongitudeDegrees>20.2202505804598331451416015625</LongitudeDegrees>
            </Position>
            <AltitudeMeters>515</AltitudeMeters>
            <DistanceMeters>NAN</DistanceMeters>
          </Trackpoint>
          <Trackpoint>
            <Time>2022-09-20T09:21:44.000Z</Time>
            <Position>
              <LatitudeDegrees>49.4562000967562198638916015625</LatitudeDegrees>
              <LongitudeDegrees>20.22030514664947986602783203125</LongitudeDegrees>
            </Position>
            <AltitudeMeters>515</AltitudeMeters>
            <DistanceMeters>NAN</DistanceMeters>
          </Trackpoint>
          <Trackpoint>
            <Time>2022-09-20T09:21:48.000Z</Time>
            <Position>
              <LatitudeDegrees>49.4561749510467052459716796875</LatitudeDegrees>
              <LongitudeDegrees>20.22050513885915279388427734375</LongitudeDegrees>
            </Position>
            <AltitudeMeters>515.20001220703125</AltitudeMeters>
            <DistanceMeters>NAN</DistanceMeters>
          </Trackpoint>
          <Trackpoint>
            <Time>2022-09-20T09:21:49.000Z</Time>
            <Position>
              <LatitudeDegrees>49.45617285557091236114501953125</LatitudeDegrees>
              <LongitudeDegrees>20.22055610083043575286865234375</LongitudeDegrees>
            </Position>
            <AltitudeMeters>515.20001220703125</AltitudeMeters>
            <DistanceMeters>NAN</DistanceMeters>
          </Trackpoint>
          <Trackpoint>
            <Time>2022-09-20T09:21:54.000Z</Time>
            <Position>
              <LatitudeDegrees>49.45615827105939388275146484375</LatitudeDegrees>
              <LongitudeDegrees>20.2207726053893566131591796875</LongitudeDegrees>
            </Position>
            <AltitudeMeters>514.79998779296875</AltitudeMeters>
            <DistanceMeters>NAN</DistanceMeters>
          </Trackpoint>
          <Trackpoint>
            <Time>2022-09-20T09:21:57.000Z</Time>
            <Position>
              <LatitudeDegrees>49.456147961318492889404296875</LatitudeDegrees>
              <LongitudeDegrees>20.2208881080150604248046875</LongitudeDegrees>
            </Position>
            <AltitudeMeters>514.5999755859375</AltitudeMeters>
            <DistanceMeters>NAN</DistanceMeters>
          </Trackpoint>
          <Trackpoint>
            <Time>2022-09-20T09:22:03.000Z</Time>
            <Position>
              <LatitudeDegrees>49.4561451114714145660400390625</LatitudeDegrees>
              <LongitudeDegrees>20.22111416794359683990478515625</LongitudeDegrees>
            </Position>
            <AltitudeMeters>514.5999755859375</AltitudeMeters>
            <DistanceMeters>NAN</DistanceMeters>
          </Trackpoint>
          <Trackpoint>
            <Time>2022-09-20T09:22:09.000Z</Time>
            <Position>
              <LatitudeDegrees>49.45615642704069614410400390625</LatitudeDegrees>
              <LongitudeDegrees>20.22133997641503810882568359375</LongitudeDegrees>
            </Position>
            <AltitudeMeters>514.20001220703125</AltitudeMeters>
            <DistanceMeters>NAN</DistanceMeters>
          </Trackpoint>
          <Trackpoint>
            <Time>2022-09-20T09:22:13.000Z</Time>
            <Position>
              <LatitudeDegrees>49.4561669044196605682373046875</LatitudeDegrees>
              <LongitudeDegrees>20.22143117152154445648193359375</LongitudeDegrees>
            </Position>
            <AltitudeMeters>514.20001220703125</AltitudeMeters>
            <DistanceMeters>NAN</DistanceMeters>
          </Trackpoint>
          <Trackpoint>
            <Time>2022-09-20T09:22:16.000Z</Time>
            <Position>
              <LatitudeDegrees>49.45618492551147937774658203125</LatitudeDegrees>
              <LongitudeDegrees>20.221503339707851409912109375</LongitudeDegrees>
            </Position>
            <AltitudeMeters>514.20001220703125</AltitudeMeters>
            <DistanceMeters>NAN</DistanceMeters>
          </Trackpoint>
          <Trackpoint>
            <Time>2022-09-20T09:22:17.000Z</Time>
            <Position>
              <LatitudeDegrees>49.45619498379528522491455078125</LatitudeDegrees>
              <LongitudeDegrees>20.2215278148651123046875</LongitudeDegrees>
            </Position>
            <AltitudeMeters>514.20001220703125</AltitudeMeters>
            <DistanceMeters>NAN</DistanceMeters>
          </Trackpoint>
          <Trackpoint>
            <Time>2022-09-20T09:22:23.000Z</Time>
            <Position>
              <LatitudeDegrees>49.45628936402499675750732421875</LatitudeDegrees>
              <LongitudeDegrees>20.22163971327245235443115234375</LongitudeDegrees>
            </Position>
            <AltitudeMeters>514.4000244140625</AltitudeMeters>
            <DistanceMeters>NAN</DistanceMeters>
          </Trackpoint>
          <Trackpoint>
            <Time>2022-09-20T09:22:24.000Z</Time>
            <Position>
              <LatitudeDegrees>49.45630964823067188262939453125</LatitudeDegrees>
              <LongitudeDegrees>20.22164306603372097015380859375</LongitudeDegrees>
            </Position>
            <AltitudeMeters>514.4000244140625</AltitudeMeters>
            <DistanceMeters>NAN</DistanceMeters>
          </Trackpoint>
          <Trackpoint>
            <Time>2022-09-20T09:22:29.000Z</Time>
            <Position>
              <LatitudeDegrees>49.4563901983201503753662109375</LatitudeDegrees>
              <LongitudeDegrees>20.22165513597428798675537109375</LongitudeDegrees>
            </Position>
            <AltitudeMeters>514.20001220703125</AltitudeMeters>
            <DistanceMeters>NAN</DistanceMeters>
          </Trackpoint>
          <Trackpoint>
            <Time>2022-09-20T09:22:31.000Z</Time>
            <Position>
              <LatitudeDegrees>49.45644174702465534210205078125</LatitudeDegrees>
              <LongitudeDegrees>20.22167776711285114288330078125</LongitudeDegrees>
            </Position>
            <AltitudeMeters>514.20001220703125</AltitudeMeters>
            <DistanceMeters>NAN</DistanceMeters>
          </Trackpoint>
          <Trackpoint>
            <Time>2022-09-20T09:22:34.000Z</Time>
            <Position>
              <LatitudeDegrees>49.4564834050834178924560546875</LatitudeDegrees>
              <LongitudeDegrees>20.22169134579598903656005859375</LongitudeDegrees>
            </Position>
            <AltitudeMeters>514</AltitudeMeters>
            <DistanceMeters>NAN</DistanceMeters>
          </Trackpoint>
          <Trackpoint>
            <Time>2022-09-20T09:22:41.000Z</Time>
            <Position>
              <LatitudeDegrees>49.4566215388476848602294921875</LatitudeDegrees>
              <LongitudeDegrees>20.22172654978930950164794921875</LongitudeDegrees>
            </Position>
            <AltitudeMeters>514</AltitudeMeters>
            <DistanceMeters>NAN</DistanceMeters>
          </Trackpoint>
          <Trackpoint>
            <Time>2022-09-20T09:22:43.000Z</Time>
            <Position>
              <LatitudeDegrees>49.45662581361830234527587890625</LatitudeDegrees>
              <LongitudeDegrees>20.2217298187315464019775390625</LongitudeDegrees>
            </Position>
            <AltitudeMeters>514</AltitudeMeters>
            <DistanceMeters>NAN</DistanceMeters>
          </Trackpoint>
          <Trackpoint>
            <Time>2022-09-20T09:22:45.000Z</Time>
            <Position>
              <LatitudeDegrees>49.45662581361830234527587890625</LatitudeDegrees>
              <LongitudeDegrees>20.2217298187315464019775390625</LongitudeDegrees>
            </Position>
            <AltitudeMeters>513.79998779296875</AltitudeMeters>
            <DistanceMeters>NAN</DistanceMeters>
          </Trackpoint>
          <Trackpoint>
            <Time>2022-09-20T09:22:55.000Z</Time>
            <Position>
              <LatitudeDegrees>49.45662581361830234527587890625</LatitudeDegrees>
              <LongitudeDegrees>20.2217298187315464019775390625</LongitudeDegrees>
            </Position>
            <AltitudeMeters>513.5999755859375</AltitudeMeters>
            <DistanceMeters>NAN</DistanceMeters>
          </Trackpoint>
          <Trackpoint>
            <Time>2022-09-20T09:23:13.000Z</Time>
            <Position>
              <LatitudeDegrees>49.45662581361830234527587890625</LatitudeDegrees>
              <LongitudeDegrees>20.2217298187315464019775390625</LongitudeDegrees>
            </Position>
            <AltitudeMeters>513.5999755859375</AltitudeMeters>
            <DistanceMeters>NAN</DistanceMeters>
          </Trackpoint>
          <Trackpoint>
            <Time>2022-09-20T09:23:19.000Z</Time>
            <Position>
              <LatitudeDegrees>49.45662581361830234527587890625</LatitudeDegrees>
              <LongitudeDegrees>20.2217298187315464019775390625</LongitudeDegrees>
            </Position>
            <AltitudeMeters>513.79998779296875</AltitudeMeters>
            <DistanceMeters>NAN</DistanceMeters>
          </Trackpoint>
          <Trackpoint>
            <Time>2022-09-20T09:23:25.000Z</Time>
            <Position>
              <LatitudeDegrees>49.45662581361830234527587890625</LatitudeDegrees>
              <LongitudeDegrees>20.2217298187315464019775390625</LongitudeDegrees>
            </Position>
            <AltitudeMeters>513.79998779296875</AltitudeMeters>
            <DistanceMeters>NAN</DistanceMeters>
          </Trackpoint>
          <Trackpoint>
            <Time>2022-09-20T09:23:26.000Z</Time>
            <Position>
              <LatitudeDegrees>49.45662581361830234527587890625</LatitudeDegrees>
              <LongitudeDegrees>20.2217298187315464019775390625</LongitudeDegrees>
            </Position>
            <AltitudeMeters>513.79998779296875</AltitudeMeters>
            <DistanceMeters>NAN</DistanceMeters>
          </Trackpoint>
          <Trackpoint>
            <Time>2022-09-20T09:23:28.000Z</Time>
            <Position>
              <LatitudeDegrees>49.45662581361830234527587890625</LatitudeDegrees>
              <LongitudeDegrees>20.2217298187315464019775390625</LongitudeDegrees>
            </Position>
            <AltitudeMeters>513.79998779296875</AltitudeMeters>
            <DistanceMeters>NAN</DistanceMeters>
          </Trackpoint>
          <Trackpoint>
            <Time>2022-09-20T09:23:30.000Z</Time>
            <Position>
              <LatitudeDegrees>49.45662581361830234527587890625</LatitudeDegrees>
              <LongitudeDegrees>20.2217298187315464019775390625</LongitudeDegrees>
            </Position>
            <AltitudeMeters>513.5999755859375</AltitudeMeters>
            <DistanceMeters>NAN</DistanceMeters>
          </Trackpoint>
          <Trackpoint>
            <Time>2022-09-20T09:23:32.000Z</Time>
            <Position>
              <LatitudeDegrees>49.45662614889442920684814453125</LatitudeDegrees>
              <LongitudeDegrees>20.221728980541229248046875</LongitudeDegrees>
            </Position>
            <AltitudeMeters>513.79998779296875</AltitudeMeters>
            <DistanceMeters>NAN</DistanceMeters>
          </Trackpoint>
          <Trackpoint>
            <Time>2022-09-20T09:23:34.000Z</Time>
            <Position>
              <LatitudeDegrees>49.4566399790346622467041015625</LatitudeDegrees>
              <LongitudeDegrees>20.221721939742565155029296875</LongitudeDegrees>
            </Position>
            <AltitudeMeters>513.79998779296875</AltitudeMeters>
            <DistanceMeters>NAN</DistanceMeters>
          </Trackpoint>
          <Trackpoint>
            <Time>2022-09-20T09:23:36.000Z</Time>
            <Position>
              <LatitudeDegrees>49.456659592688083648681640625</LatitudeDegrees>
              <LongitudeDegrees>20.22170660085976123809814453125</LongitudeDegrees>
            </Position>
            <AltitudeMeters>513.79998779296875</AltitudeMeters>
            <DistanceMeters>NAN</DistanceMeters>
          </Trackpoint>
          <Trackpoint>
            <Time>2022-09-20T09:23:38.000Z</Time>
            <Position>
              <LatitudeDegrees>49.4566713273525238037109375</LatitudeDegrees>
              <LongitudeDegrees>20.2216952852904796600341796875</LongitudeDegrees>
            </Position>
            <AltitudeMeters>513.79998779296875</AltitudeMeters>
            <DistanceMeters>NAN</DistanceMeters>
          </Trackpoint>
          <Trackpoint>
            <Time>2022-09-20T09:23:41.000Z</Time>
            <Position>
              <LatitudeDegrees>49.45670544169843196868896484375</LatitudeDegrees>
              <LongitudeDegrees>20.22168061695992946624755859375</LongitudeDegrees>
            </Position>
            <AltitudeMeters>513.79998779296875</AltitudeMeters>
            <DistanceMeters>NAN</DistanceMeters>
          </Trackpoint>
          <Trackpoint>
            <Time>2022-09-20T09:23:43.000Z</Time>
            <Position>
              <LatitudeDegrees>49.4567191042006015777587890625</LatitudeDegrees>
              <LongitudeDegrees>20.221677683293819427490234375</LongitudeDegrees>
            </Position>
            <AltitudeMeters>513.79998779296875</AltitudeMeters>
            <DistanceMeters>NAN</DistanceMeters>
          </Trackpoint>
          <Trackpoint>
            <Time>2022-09-20T09:23:51.000Z</Time>
            <Position>
              <LatitudeDegrees>49.456773586571216583251953125</LatitudeDegrees>
              <LongitudeDegrees>20.221637785434722900390625</LongitudeDegrees>
            </Position>
            <AltitudeMeters>514.20001220703125</AltitudeMeters>
            <DistanceMeters>NAN</DistanceMeters>
          </Trackpoint>
          <Trackpoint>
            <Time>2022-09-20T09:24:00.000Z</Time>
            <Position>
              <LatitudeDegrees>49.45678221993148326873779296875</LatitudeDegrees>
              <LongitudeDegrees>20.22163443267345428466796875</LongitudeDegrees>
            </Position>
            <AltitudeMeters>514</AltitudeMeters>
            <DistanceMeters>NAN</DistanceMeters>
          </Trackpoint>
          <Trackpoint>
            <Time>2022-09-20T09:24:03.000Z</Time>
            <Position>
              <LatitudeDegrees>49.4568039290606975555419921875</LatitudeDegrees>
              <LongitudeDegrees>20.22162177599966526031494140625</LongitudeDegrees>
            </Position>
            <AltitudeMeters>514</AltitudeMeters>
            <DistanceMeters>NAN</DistanceMeters>
          </Trackpoint>
          <Trackpoint>
            <Time>2022-09-20T09:24:05.000Z</Time>
            <Position>
              <LatitudeDegrees>49.4568387977778911590576171875</LatitudeDegrees>
              <LongitudeDegrees>20.2215772680938243865966796875</LongitudeDegrees>
            </Position>
            <AltitudeMeters>514</AltitudeMeters>
            <DistanceMeters>NAN</DistanceMeters>
          </Trackpoint>
          <Trackpoint>
            <Time>2022-09-20T09:24:15.000Z</Time>
            <Position>
              <LatitudeDegrees>49.4569323398172855377197265625</LatitudeDegrees>
              <LongitudeDegrees>20.22148548625409603118896484375</LongitudeDegrees>
            </Position>
            <AltitudeMeters>514</AltitudeMeters>
            <DistanceMeters>NAN</DistanceMeters>
          </Trackpoint>
          <Trackpoint>
            <Time>2022-09-20T09:24:21.000Z</Time>
            <Position>
              <LatitudeDegrees>49.456976093351840972900390625</LatitudeDegrees>
              <LongitudeDegrees>20.2214196883141994476318359375</LongitudeDegrees>
            </Position>
            <AltitudeMeters>513.79998779296875</AltitudeMeters>
            <DistanceMeters>NAN</DistanceMeters>
          </Trackpoint>
          <Trackpoint>
            <Time>2022-09-20T09:24:23.000Z</Time>
            <Position>
              <LatitudeDegrees>49.45699545554816722869873046875</LatitudeDegrees>
              <LongitudeDegrees>20.22142144851386547088623046875</LongitudeDegrees>
            </Position>
            <AltitudeMeters>513.79998779296875</AltitudeMeters>
            <DistanceMeters>NAN</DistanceMeters>
          </Trackpoint>
          <Trackpoint>
            <Time>2022-09-20T09:24:26.000Z</Time>
            <Position>
              <LatitudeDegrees>49.45704750716686248779296875</LatitudeDegrees>
              <LongitudeDegrees>20.2214406430721282958984375</LongitudeDegrees>
            </Position>
            <AltitudeMeters>513.79998779296875</AltitudeMeters>
            <DistanceMeters>NAN</DistanceMeters>
          </Trackpoint>
          <Trackpoint>
            <Time>2022-09-20T09:24:28.000Z</Time>
            <Position>
              <LatitudeDegrees>49.4570604152977466583251953125</LatitudeDegrees>
              <LongitudeDegrees>20.2214367873966693878173828125</LongitudeDegrees>
            </Position>
            <AltitudeMeters>513.79998779296875</AltitudeMeters>
            <DistanceMeters>NAN</DistanceMeters>
          </Trackpoint>
          <Trackpoint>
            <Time>2022-09-20T09:24:33.000Z</Time>
            <Position>
              <LatitudeDegrees>49.45708111859858036041259765625</LatitudeDegrees>
              <LongitudeDegrees>20.22142915986478328704833984375</LongitudeDegrees>
            </Position>
            <AltitudeMeters>513.79998779296875</AltitudeMeters>
            <DistanceMeters>NAN</DistanceMeters>
          </Trackpoint>
          <Trackpoint>
            <Time>2022-09-20T09:24:34.000Z</Time>
            <Position>
              <LatitudeDegrees>49.45709017105400562286376953125</LatitudeDegrees>
              <LongitudeDegrees>20.2214330993592739105224609375</LongitudeDegrees>
            </Position>
            <AltitudeMeters>513.79998779296875</AltitudeMeters>
            <DistanceMeters>NAN</DistanceMeters>
          </Trackpoint>
          <Trackpoint>
            <Time>2022-09-20T09:24:39.000Z</Time>
            <Position>
              <LatitudeDegrees>49.45710727013647556304931640625</LatitudeDegrees>
              <LongitudeDegrees>20.221428573131561279296875</LongitudeDegrees>
            </Position>
            <AltitudeMeters>513.79998779296875</AltitudeMeters>
            <DistanceMeters>NAN</DistanceMeters>
          </Trackpoint>
          <Trackpoint>
            <Time>2022-09-20T09:24:44.000Z</Time>
            <Position>
              <LatitudeDegrees>49.45715655572712421417236328125</LatitudeDegrees>
              <LongitudeDegrees>20.221400745213031768798828125</LongitudeDegrees>
            </Position>
            <AltitudeMeters>513.79998779296875</AltitudeMeters>
            <DistanceMeters>NAN</DistanceMeters>
          </Trackpoint>
          <Trackpoint>
            <Time>2022-09-20T09:24:47.000Z</Time>
            <Position>
              <LatitudeDegrees>49.4571687094867229461669921875</LatitudeDegrees>
              <LongitudeDegrees>20.22139345295727252960205078125</LongitudeDegrees>
            </Position>
            <AltitudeMeters>513.79998779296875</AltitudeMeters>
            <DistanceMeters>NAN</DistanceMeters>
          </Trackpoint>
          <Trackpoint>
            <Time>2022-09-20T09:24:48.000Z</Time>
            <Position>
              <LatitudeDegrees>49.45719175972044467926025390625</LatitudeDegrees>
              <LongitudeDegrees>20.2213875018060207366943359375</LongitudeDegrees>
            </Position>
            <AltitudeMeters>513.79998779296875</AltitudeMeters>
            <DistanceMeters>NAN</DistanceMeters>
          </Trackpoint>
          <Trackpoint>
            <Time>2022-09-20T09:24:51.000Z</Time>
            <Position>
              <LatitudeDegrees>49.45720483548939228057861328125</LatitudeDegrees>
              <LongitudeDegrees>20.2213868312537670135498046875</LongitudeDegrees>
            </Position>
            <AltitudeMeters>513.79998779296875</AltitudeMeters>
            <DistanceMeters>NAN</DistanceMeters>
          </Trackpoint>
          <Trackpoint>
            <Time>2022-09-20T09:24:56.000Z</Time>
            <Position>
              <LatitudeDegrees>49.457238279283046722412109375</LatitudeDegrees>
              <LongitudeDegrees>20.22137853316962718963623046875</LongitudeDegrees>
            </Position>
            <AltitudeMeters>514</AltitudeMeters>
            <DistanceMeters>NAN</DistanceMeters>
          </Trackpoint>
          <Trackpoint>
            <Time>2022-09-20T09:24:58.000Z</Time>
            <Position>
              <LatitudeDegrees>49.4572448171675205230712890625</LatitudeDegrees>
              <LongitudeDegrees>20.2213734202086925506591796875</LongitudeDegrees>
            </Position>
            <AltitudeMeters>514</AltitudeMeters>
            <DistanceMeters>NAN</DistanceMeters>
          </Trackpoint>
          <Trackpoint>
            <Time>2022-09-20T09:25:06.000Z</Time>
            <Position>
              <LatitudeDegrees>49.4572666101157665252685546875</LatitudeDegrees>
              <LongitudeDegrees>20.22135623730719089508056640625</LongitudeDegrees>
            </Position>
            <AltitudeMeters>514.20001220703125</AltitudeMeters>
            <DistanceMeters>NAN</DistanceMeters>
          </Trackpoint>
          <Trackpoint>
            <Time>2022-09-20T09:25:13.000Z</Time>
            <Position>
              <LatitudeDegrees>49.45733626373112201690673828125</LatitudeDegrees>
              <LongitudeDegrees>20.22132673300802707672119140625</LongitudeDegrees>
            </Position>
            <AltitudeMeters>514.5999755859375</AltitudeMeters>
            <DistanceMeters>NAN</DistanceMeters>
          </Trackpoint>
          <Trackpoint>
            <Time>2022-09-20T09:25:20.000Z</Time>
            <Position>
              <LatitudeDegrees>49.45736266672611236572265625</LatitudeDegrees>
              <LongitudeDegrees>20.22126688621938228607177734375</LongitudeDegrees>
            </Position>
            <AltitudeMeters>514.5999755859375</AltitudeMeters>
            <DistanceMeters>NAN</DistanceMeters>
          </Trackpoint>
          <Trackpoint>
            <Time>2022-09-20T09:25:26.000Z</Time>
            <Position>
              <LatitudeDegrees>49.45734565146267414093017578125</LatitudeDegrees>
              <LongitudeDegrees>20.22131633944809436798095703125</LongitudeDegrees>
            </Position>
            <AltitudeMeters>514.5999755859375</AltitudeMeters>
            <DistanceMeters>NAN</DistanceMeters>
          </Trackpoint>
          <Trackpoint>
            <Time>2022-09-20T09:25:28.000Z</Time>
            <Position>
              <LatitudeDegrees>49.45733584463596343994140625</LatitudeDegrees>
              <LongitudeDegrees>20.22133612073957920074462890625</LongitudeDegrees>
            </Position>
            <AltitudeMeters>514.5999755859375</AltitudeMeters>
            <DistanceMeters>NAN</DistanceMeters>
          </Trackpoint>
          <Trackpoint>
            <Time>2022-09-20T09:25:33.000Z</Time>
            <Position>
              <LatitudeDegrees>49.45729753933846950531005859375</LatitudeDegrees>
              <LongitudeDegrees>20.2213586680591106414794921875</LongitudeDegrees>
            </Position>
            <AltitudeMeters>514.5999755859375</AltitudeMeters>
            <DistanceMeters>NAN</DistanceMeters>
          </Trackpoint>
          <Trackpoint>
            <Time>2022-09-20T09:25:36.000Z</Time>
            <Position>
              <LatitudeDegrees>49.4572694599628448486328125</LatitudeDegrees>
              <LongitudeDegrees>20.2213764376938343048095703125</LongitudeDegrees>
            </Position>
            <AltitudeMeters>514.5999755859375</AltitudeMeters>
            <DistanceMeters>NAN</DistanceMeters>
          </Trackpoint>
          <Trackpoint>
            <Time>2022-09-20T09:25:39.000Z</Time>
            <Position>
              <LatitudeDegrees>49.45723123848438262939453125</LatitudeDegrees>
              <LongitudeDegrees>20.22139303386211395263671875</LongitudeDegrees>
            </Position>
            <AltitudeMeters>514.5999755859375</AltitudeMeters>
            <DistanceMeters>NAN</DistanceMeters>
          </Trackpoint>
          <Trackpoint>
            <Time>2022-09-20T09:25:43.000Z</Time>
            <Position>
              <LatitudeDegrees>49.45720047689974308013916015625</LatitudeDegrees>
              <LongitudeDegrees>20.2214205265045166015625</LongitudeDegrees>
            </Position>
            <AltitudeMeters>514.4000244140625</AltitudeMeters>
            <DistanceMeters>NAN</DistanceMeters>
          </Trackpoint>
          <Trackpoint>
            <Time>2022-09-20T09:25:44.000Z</Time>
            <Position>
              <LatitudeDegrees>49.45718924514949321746826171875</LatitudeDegrees>
              <LongitudeDegrees>20.22142128087580204010009765625</LongitudeDegrees>
            </Position>
            <AltitudeMeters>514.4000244140625</AltitudeMeters>
            <DistanceMeters>NAN</DistanceMeters>
          </Trackpoint>
          <Trackpoint>
            <Time>2022-09-20T09:25:54.000Z</Time>
            <Position>
              <LatitudeDegrees>49.45712839253246784210205078125</LatitudeDegrees>
              <LongitudeDegrees>20.2214605920016765594482421875</LongitudeDegrees>
            </Position>
            <AltitudeMeters>514.4000244140625</AltitudeMeters>
            <DistanceMeters>NAN</DistanceMeters>
          </Trackpoint>
          <Trackpoint>
            <Time>2022-09-20T09:25:56.000Z</Time>
            <Position>
              <LatitudeDegrees>49.45710559375584125518798828125</LatitudeDegrees>
              <LongitudeDegrees>20.22146972827613353729248046875</LongitudeDegrees>
            </Position>
            <AltitudeMeters>514.4000244140625</AltitudeMeters>
            <DistanceMeters>NAN</DistanceMeters>
          </Trackpoint>
          <Trackpoint>
            <Time>2022-09-20T09:26:00.000Z</Time>
            <Position>
              <LatitudeDegrees>49.45709318853914737701416015625</LatitudeDegrees>
              <LongitudeDegrees>20.2214850671589374542236328125</LongitudeDegrees>
            </Position>
            <AltitudeMeters>514.4000244140625</AltitudeMeters>
            <DistanceMeters>NAN</DistanceMeters>
          </Trackpoint>
          <Trackpoint>
            <Time>2022-09-20T09:26:08.000Z</Time>
            <Position>
              <LatitudeDegrees>49.457071311771869659423828125</LatitudeDegrees>
              <LongitudeDegrees>20.22150979377329349517822265625</LongitudeDegrees>
            </Position>
            <AltitudeMeters>514.4000244140625</AltitudeMeters>
            <DistanceMeters>NAN</DistanceMeters>
          </Trackpoint>
          <Trackpoint>
            <Time>2022-09-20T09:26:18.000Z</Time>
            <Position>
              <LatitudeDegrees>49.45698606781661510467529296875</LatitudeDegrees>
              <LongitudeDegrees>20.221566371619701385498046875</LongitudeDegrees>
            </Position>
            <AltitudeMeters>514.4000244140625</AltitudeMeters>
            <DistanceMeters>NAN</DistanceMeters>
          </Trackpoint>
          <Trackpoint>
            <Time>2022-09-20T09:26:27.000Z</Time>
            <Position>
              <LatitudeDegrees>49.4569216109812259674072265625</LatitudeDegrees>
              <LongitudeDegrees>20.22160350345075130462646484375</LongitudeDegrees>
            </Position>
            <AltitudeMeters>514.4000244140625</AltitudeMeters>
            <DistanceMeters>NAN</DistanceMeters>
          </Trackpoint>
          <Trackpoint>
            <Time>2022-09-20T09:26:29.000Z</Time>
            <Position>
              <LatitudeDegrees>49.45691700093448162078857421875</LatitudeDegrees>
              <LongitudeDegrees>20.22160232998430728912353515625</LongitudeDegrees>
            </Position>
            <AltitudeMeters>514.4000244140625</AltitudeMeters>
            <DistanceMeters>NAN</DistanceMeters>
          </Trackpoint>
          <Trackpoint>
            <Time>2022-09-20T09:26:36.000Z</Time>
            <Position>
              <LatitudeDegrees>49.45687844417989253997802734375</LatitudeDegrees>
              <LongitudeDegrees>20.2215859852731227874755859375</LongitudeDegrees>
            </Position>
            <AltitudeMeters>514.4000244140625</AltitudeMeters>
            <DistanceMeters>NAN</DistanceMeters>
          </Trackpoint>
          <Trackpoint>
            <Time>2022-09-20T09:26:43.000Z</Time>
            <Position>
              <LatitudeDegrees>49.4568592496216297149658203125</LatitudeDegrees>
              <LongitudeDegrees>20.221598558127880096435546875</LongitudeDegrees>
            </Position>
            <AltitudeMeters>514.4000244140625</AltitudeMeters>
            <DistanceMeters>NAN</DistanceMeters>
          </Trackpoint>
          <Trackpoint>
            <Time>2022-09-20T09:26:49.000Z</Time>
            <Position>
              <LatitudeDegrees>49.45680208504199981689453125</LatitudeDegrees>
              <LongitudeDegrees>20.22161909379065036773681640625</LongitudeDegrees>
            </Position>
            <AltitudeMeters>514.4000244140625</AltitudeMeters>
            <DistanceMeters>NAN</DistanceMeters>
          </Trackpoint>
          <Trackpoint>
            <Time>2022-09-20T09:26:51.000Z</Time>
            <Position>
              <LatitudeDegrees>49.45678506977856159210205078125</LatitudeDegrees>
              <LongitudeDegrees>20.22164256311953067779541015625</LongitudeDegrees>
            </Position>
            <AltitudeMeters>514.4000244140625</AltitudeMeters>
            <DistanceMeters>NAN</DistanceMeters>
          </Trackpoint>
          <Trackpoint>
            <Time>2022-09-20T09:26:56.000Z</Time>
            <Position>
              <LatitudeDegrees>49.45675154216587543487548828125</LatitudeDegrees>
              <LongitudeDegrees>20.221669971942901611328125</LongitudeDegrees>
            </Position>
            <AltitudeMeters>514.4000244140625</AltitudeMeters>
            <DistanceMeters>NAN</DistanceMeters>
          </Trackpoint>
          <Trackpoint>
            <Time>2022-09-20T09:26:59.000Z</Time>
            <Position>
              <LatitudeDegrees>49.45672723464667797088623046875</LatitudeDegrees>
              <LongitudeDegrees>20.22168464027345180511474609375</LongitudeDegrees>
            </Position>
            <AltitudeMeters>514.4000244140625</AltitudeMeters>
            <DistanceMeters>NAN</DistanceMeters>
          </Trackpoint>
          <Trackpoint>
            <Time>2022-09-20T09:27:02.000Z</Time>
            <Position>
              <LatitudeDegrees>49.4567006640136241912841796875</LatitudeDegrees>
              <LongitudeDegrees>20.2217110432684421539306640625</LongitudeDegrees>
            </Position>
            <AltitudeMeters>514.4000244140625</AltitudeMeters>
            <DistanceMeters>NAN</DistanceMeters>
          </Trackpoint>
          <Trackpoint>
            <Time>2022-09-20T09:27:06.000Z</Time>
            <Position>
              <LatitudeDegrees>49.45667241699993610382080078125</LatitudeDegrees>
              <LongitudeDegrees>20.2217422239482402801513671875</LongitudeDegrees>
            </Position>
            <AltitudeMeters>514.4000244140625</AltitudeMeters>
            <DistanceMeters>NAN</DistanceMeters>
          </Trackpoint>
          <Trackpoint>
            <Time>2022-09-20T09:27:14.000Z</Time>
            <Position>
              <LatitudeDegrees>49.4565980695188045501708984375</LatitudeDegrees>
              <LongitudeDegrees>20.2217356860637664794921875</LongitudeDegrees>
            </Position>
            <AltitudeMeters>514.4000244140625</AltitudeMeters>
            <DistanceMeters>NAN</DistanceMeters>
          </Trackpoint>
          <Trackpoint>
            <Time>2022-09-20T09:27:20.000Z</Time>
            <Position>
              <LatitudeDegrees>49.456548951566219329833984375</LatitudeDegrees>
              <LongitudeDegrees>20.22170425392687320709228515625</LongitudeDegrees>
            </Position>
            <AltitudeMeters>514.4000244140625</AltitudeMeters>
            <DistanceMeters>NAN</DistanceMeters>
          </Trackpoint>
          <Trackpoint>
            <Time>2022-09-20T09:27:22.000Z</Time>
            <Position>
              <LatitudeDegrees>49.45652908645570278167724609375</LatitudeDegrees>
              <LongitudeDegrees>20.22169880568981170654296875</LongitudeDegrees>
            </Position>
            <AltitudeMeters>514.4000244140625</AltitudeMeters>
            <DistanceMeters>NAN</DistanceMeters>
          </Trackpoint>
          <Trackpoint>
            <Time>2022-09-20T09:27:27.000Z</Time>
            <Position>
              <LatitudeDegrees>49.45648550055921077728271484375</LatitudeDegrees>
              <LongitudeDegrees>20.22169101051986217498779296875</LongitudeDegrees>
            </Position>
            <AltitudeMeters>514.4000244140625</AltitudeMeters>
            <DistanceMeters>NAN</DistanceMeters>
          </Trackpoint>
          <Trackpoint>
            <Time>2022-09-20T09:27:30.000Z</Time>
            <Position>
              <LatitudeDegrees>49.456457085907459259033203125</LatitudeDegrees>
              <LongitudeDegrees>20.22168698720633983612060546875</LongitudeDegrees>
            </Position>
            <AltitudeMeters>514.4000244140625</AltitudeMeters>
            <DistanceMeters>NAN</DistanceMeters>
          </Trackpoint>
          <Trackpoint>
            <Time>2022-09-20T09:27:34.000Z</Time>
            <Position>
              <LatitudeDegrees>49.45643328130245208740234375</LatitudeDegrees>
              <LongitudeDegrees>20.2216785214841365814208984375</LongitudeDegrees>
            </Position>
            <AltitudeMeters>514.4000244140625</AltitudeMeters>
            <DistanceMeters>NAN</DistanceMeters>
          </Trackpoint>
          <Trackpoint>
            <Time>2022-09-20T09:27:37.000Z</Time>
            <Position>
              <LatitudeDegrees>49.4564059562981128692626953125</LatitudeDegrees>
              <LongitudeDegrees>20.2216872386634349822998046875</LongitudeDegrees>
            </Position>
            <AltitudeMeters>514.4000244140625</AltitudeMeters>
            <DistanceMeters>NAN</DistanceMeters>
          </Trackpoint>
          <Trackpoint>
            <Time>2022-09-20T09:27:45.000Z</Time>
            <Position>
              <LatitudeDegrees>49.45632624439895153045654296875</LatitudeDegrees>
              <LongitudeDegrees>20.22168782539665699005126953125</LongitudeDegrees>
            </Position>
            <AltitudeMeters>514.20001220703125</AltitudeMeters>
            <DistanceMeters>NAN</DistanceMeters>
          </Trackpoint>
          <Trackpoint>
            <Time>2022-09-20T09:27:52.000Z</Time>
            <Position>
              <LatitudeDegrees>49.45627159439027309417724609375</LatitudeDegrees>
              <LongitudeDegrees>20.22165991365909576416015625</LongitudeDegrees>
            </Position>
            <AltitudeMeters>514.20001220703125</AltitudeMeters>
            <DistanceMeters>NAN</DistanceMeters>
          </Trackpoint>
          <Trackpoint>
            <Time>2022-09-20T09:28:00.000Z</Time>
            <Position>
              <LatitudeDegrees>49.45622381754219532012939453125</LatitudeDegrees>
              <LongitudeDegrees>20.221566371619701385498046875</LongitudeDegrees>
            </Position>
            <AltitudeMeters>514.20001220703125</AltitudeMeters>
            <DistanceMeters>NAN</DistanceMeters>
          </Trackpoint>
          <Trackpoint>
            <Time>2022-09-20T09:28:06.000Z</Time>
            <Position>
              <LatitudeDegrees>49.45620018057525157928466796875</LatitudeDegrees>
              <LongitudeDegrees>20.22149956785142421722412109375</LongitudeDegrees>
            </Position>
            <AltitudeMeters>514.4000244140625</AltitudeMeters>
            <DistanceMeters>NAN</DistanceMeters>
          </Trackpoint>
          <Trackpoint>
            <Time>2022-09-20T09:28:10.000Z</Time>
            <Position>
              <LatitudeDegrees>49.4561938941478729248046875</LatitudeDegrees>
              <LongitudeDegrees>20.2214569039642810821533203125</LongitudeDegrees>
            </Position>
            <AltitudeMeters>514.4000244140625</AltitudeMeters>
            <DistanceMeters>NAN</DistanceMeters>
          </Trackpoint>
          <Trackpoint>
            <Time>2022-09-20T09:28:16.000Z</Time>
            <Position>
              <LatitudeDegrees>49.456171430647373199462890625</LatitudeDegrees>
              <LongitudeDegrees>20.2213801257312297821044921875</LongitudeDegrees>
            </Position>
            <AltitudeMeters>514.5999755859375</AltitudeMeters>
            <DistanceMeters>NAN</DistanceMeters>
          </Trackpoint>
          <Trackpoint>
            <Time>2022-09-20T09:28:23.000Z</Time>
            <Position>
              <LatitudeDegrees>49.45613178424537181854248046875</LatitudeDegrees>
              <LongitudeDegrees>20.221312232315540313720703125</LongitudeDegrees>
            </Position>
            <AltitudeMeters>514.4000244140625</AltitudeMeters>
            <DistanceMeters>NAN</DistanceMeters>
          </Trackpoint>
          <Trackpoint>
            <Time>2022-09-20T09:28:32.000Z</Time>
            <Position>
              <LatitudeDegrees>49.45610881783068180084228515625</LatitudeDegrees>
              <LongitudeDegrees>20.22114300169050693511962890625</LongitudeDegrees>
            </Position>
            <AltitudeMeters>514.4000244140625</AltitudeMeters>
            <DistanceMeters>NAN</DistanceMeters>
          </Trackpoint>
          <Trackpoint>
            <Time>2022-09-20T09:28:33.000Z</Time>
            <Position>
              <LatitudeDegrees>49.456105716526508331298828125</LatitudeDegrees>
              <LongitudeDegrees>20.2211259864270687103271484375</LongitudeDegrees>
            </Position>
            <AltitudeMeters>514.4000244140625</AltitudeMeters>
            <DistanceMeters>NAN</DistanceMeters>
          </Trackpoint>
          <Trackpoint>
            <Time>2022-09-20T09:28:35.000Z</Time>
            <Position>
              <LatitudeDegrees>49.45611317642033100128173828125</LatitudeDegrees>
              <LongitudeDegrees>20.2210946381092071533203125</LongitudeDegrees>
            </Position>
            <AltitudeMeters>514.4000244140625</AltitudeMeters>
            <DistanceMeters>NAN</DistanceMeters>
          </Trackpoint>
          <Trackpoint>
            <Time>2022-09-20T09:28:38.000Z</Time>
            <Position>
              <LatitudeDegrees>49.45611476898193359375</LatitudeDegrees>
              <LongitudeDegrees>20.22104141302406787872314453125</LongitudeDegrees>
            </Position>
            <AltitudeMeters>514.4000244140625</AltitudeMeters>
            <DistanceMeters>NAN</DistanceMeters>
          </Trackpoint>
          <Trackpoint>
            <Time>2022-09-20T09:28:46.000Z</Time>
            <Position>
              <LatitudeDegrees>49.45610529743134975433349609375</LatitudeDegrees>
              <LongitudeDegrees>20.22093093954026699066162109375</LongitudeDegrees>
            </Position>
            <AltitudeMeters>514.4000244140625</AltitudeMeters>
            <DistanceMeters>NAN</DistanceMeters>
          </Trackpoint>
          <Trackpoint>
            <Time>2022-09-20T09:28:47.000Z</Time>
            <Position>
              <LatitudeDegrees>49.456105045974254608154296875</LatitudeDegrees>
              <LongitudeDegrees>20.22091752849519252777099609375</LongitudeDegrees>
            </Position>
            <AltitudeMeters>514.4000244140625</AltitudeMeters>
            <DistanceMeters>NAN</DistanceMeters>
          </Trackpoint>
          <Trackpoint>
            <Time>2022-09-20T09:28:55.000Z</Time>
            <Position>
              <LatitudeDegrees>49.45610982365906238555908203125</LatitudeDegrees>
              <LongitudeDegrees>20.2208544127643108367919921875</LongitudeDegrees>
            </Position>
            <AltitudeMeters>514.5999755859375</AltitudeMeters>
            <DistanceMeters>NAN</DistanceMeters>
          </Trackpoint>
          <Trackpoint>
            <Time>2022-09-20T09:29:00.000Z</Time>
            <Position>
              <LatitudeDegrees>49.45612038485705852508544921875</LatitudeDegrees>
              <LongitudeDegrees>20.22080739028751850128173828125</LongitudeDegrees>
            </Position>
            <AltitudeMeters>514.5999755859375</AltitudeMeters>
            <DistanceMeters>NAN</DistanceMeters>
          </Trackpoint>
          <Trackpoint>
            <Time>2022-09-20T09:29:02.000Z</Time>
            <Position>
              <LatitudeDegrees>49.4561295211315155029296875</LatitudeDegrees>
              <LongitudeDegrees>20.220793224871158599853515625</LongitudeDegrees>
            </Position>
            <AltitudeMeters>514.5999755859375</AltitudeMeters>
            <DistanceMeters>NAN</DistanceMeters>
          </Trackpoint>
          <Trackpoint>
            <Time>2022-09-20T09:29:07.000Z</Time>
            <Position>
              <LatitudeDegrees>49.45613823831081390380859375</LatitudeDegrees>
              <LongitudeDegrees>20.22073865868151187896728515625</LongitudeDegrees>
            </Position>
            <AltitudeMeters>514.5999755859375</AltitudeMeters>
            <DistanceMeters>NAN</DistanceMeters>
          </Trackpoint>
          <Trackpoint>
            <Time>2022-09-20T09:29:10.000Z</Time>
            <Position>
              <LatitudeDegrees>49.45613689720630645751953125</LatitudeDegrees>
              <LongitudeDegrees>20.22071535699069499969482421875</LongitudeDegrees>
            </Position>
            <AltitudeMeters>514.5999755859375</AltitudeMeters>
            <DistanceMeters>NAN</DistanceMeters>
          </Trackpoint>
          <Trackpoint>
            <Time>2022-09-20T09:29:12.000Z</Time>
            <Position>
              <LatitudeDegrees>49.45613513700664043426513671875</LatitudeDegrees>
              <LongitudeDegrees>20.2206864394247531890869140625</LongitudeDegrees>
            </Position>
            <AltitudeMeters>514.5999755859375</AltitudeMeters>
            <DistanceMeters>NAN</DistanceMeters>
          </Trackpoint>
          <Trackpoint>
            <Time>2022-09-20T09:29:13.000Z</Time>
            <Position>
              <LatitudeDegrees>49.456137232482433319091796875</LatitudeDegrees>
              <LongitudeDegrees>20.22067462094128131866455078125</LongitudeDegrees>
            </Position>
            <AltitudeMeters>514.5999755859375</AltitudeMeters>
            <DistanceMeters>NAN</DistanceMeters>
          </Trackpoint>
          <Trackpoint>
            <Time>2022-09-20T09:29:18.000Z</Time>
            <Position>
              <LatitudeDegrees>49.45614318363368511199951171875</LatitudeDegrees>
              <LongitudeDegrees>20.22065316326916217803955078125</LongitudeDegrees>
            </Position>
            <AltitudeMeters>514.79998779296875</AltitudeMeters>
            <DistanceMeters>NAN</DistanceMeters>
          </Trackpoint>
          <Trackpoint>
            <Time>2022-09-20T09:29:20.000Z</Time>
            <Position>
              <LatitudeDegrees>49.4561434350907802581787109375</LatitudeDegrees>
              <LongitudeDegrees>20.22061963565647602081298828125</LongitudeDegrees>
            </Position>
            <AltitudeMeters>514.79998779296875</AltitudeMeters>
            <DistanceMeters>NAN</DistanceMeters>
          </Trackpoint>
          <Trackpoint>
            <Time>2022-09-20T09:29:22.000Z</Time>
            <Position>
              <LatitudeDegrees>49.45614502765238285064697265625</LatitudeDegrees>
              <LongitudeDegrees>20.22058862261474132537841796875</LongitudeDegrees>
            </Position>
            <AltitudeMeters>514.79998779296875</AltitudeMeters>
            <DistanceMeters>NAN</DistanceMeters>
          </Trackpoint>
          <Trackpoint>
            <Time>2022-09-20T09:29:26.000Z</Time>
            <Position>
              <LatitudeDegrees>49.45615022443234920501708984375</LatitudeDegrees>
              <LongitudeDegrees>20.220538079738616943359375</LongitudeDegrees>
            </Position>
            <AltitudeMeters>514.5999755859375</AltitudeMeters>
            <DistanceMeters>NAN</DistanceMeters>
          </Trackpoint>
          <Trackpoint>
            <Time>2022-09-20T09:29:32.000Z</Time>
            <Position>
              <LatitudeDegrees>49.4561469554901123046875</LatitudeDegrees>
              <LongitudeDegrees>20.22043858654797077178955078125</LongitudeDegrees>
            </Position>
            <AltitudeMeters>514.5999755859375</AltitudeMeters>
            <DistanceMeters>NAN</DistanceMeters>
          </Trackpoint>
          <Trackpoint>
            <Time>2022-09-20T09:29:34.000Z</Time>
            <Position>
              <LatitudeDegrees>49.45614636875689029693603515625</LatitudeDegrees>
              <LongitudeDegrees>20.22040220908820629119873046875</LongitudeDegrees>
            </Position>
            <AltitudeMeters>514.5999755859375</AltitudeMeters>
            <DistanceMeters>NAN</DistanceMeters>
          </Trackpoint>
          <Trackpoint>
            <Time>2022-09-20T09:29:40.000Z</Time>
            <Position>
              <LatitudeDegrees>49.45613932795822620391845703125</LatitudeDegrees>
              <LongitudeDegrees>20.2203167974948883056640625</LongitudeDegrees>
            </Position>
            <AltitudeMeters>514.79998779296875</AltitudeMeters>
            <DistanceMeters>NAN</DistanceMeters>
          </Trackpoint>
          <Trackpoint>
            <Time>2022-09-20T09:29:44.000Z</Time>
            <Position>
              <LatitudeDegrees>49.4561343826353549957275390625</LatitudeDegrees>
              <LongitudeDegrees>20.22027161903679370880126953125</LongitudeDegrees>
            </Position>
            <AltitudeMeters>514.79998779296875</AltitudeMeters>
            <DistanceMeters>NAN</DistanceMeters>
          </Trackpoint>
          <Trackpoint>
            <Time>2022-09-20T09:29:50.000Z</Time>
            <Position>
              <LatitudeDegrees>49.456137232482433319091796875</LatitudeDegrees>
              <LongitudeDegrees>20.22026021964848041534423828125</LongitudeDegrees>
            </Position>
            <AltitudeMeters>514.79998779296875</AltitudeMeters>
            <DistanceMeters>NAN</DistanceMeters>
          </Trackpoint>
          <Trackpoint>
            <Time>2022-09-20T09:29:52.000Z</Time>
            <Position>
              <LatitudeDegrees>49.45614418946206569671630859375</LatitudeDegrees>
              <LongitudeDegrees>20.2202432043850421905517578125</LongitudeDegrees>
            </Position>
            <AltitudeMeters>514.79998779296875</AltitudeMeters>
            <DistanceMeters>NAN</DistanceMeters>
          </Trackpoint>
          <Trackpoint>
            <Time>2022-09-20T09:29:53.000Z</Time>
            <Position>
              <LatitudeDegrees>49.456149637699127197265625</LatitudeDegrees>
              <LongitudeDegrees>20.2202318049967288970947265625</LongitudeDegrees>
            </Position>
            <AltitudeMeters>514.79998779296875</AltitudeMeters>
            <DistanceMeters>NAN</DistanceMeters>
          </Trackpoint>
          <Trackpoint>
            <Time>2022-09-20T09:29:54.000Z</Time>
            <Position>
              <LatitudeDegrees>49.45615408010780811309814453125</LatitudeDegrees>
              <LongitudeDegrees>20.22021965123713016510009765625</LongitudeDegrees>
            </Position>
            <AltitudeMeters>514.79998779296875</AltitudeMeters>
            <DistanceMeters>NAN</DistanceMeters>
          </Trackpoint>
          <Trackpoint>
            <Time>2022-09-20T09:29:56.000Z</Time>
            <Position>
              <LatitudeDegrees>49.45616262964904308319091796875</LatitudeDegrees>
              <LongitudeDegrees>20.22018696181476116180419921875</LongitudeDegrees>
            </Position>
            <AltitudeMeters>514.79998779296875</AltitudeMeters>
            <DistanceMeters>NAN</DistanceMeters>
          </Trackpoint>
          <Trackpoint>
            <Time>2022-09-20T09:29:58.000Z</Time>
            <Position>
              <LatitudeDegrees>49.45617134682834148406982421875</LatitudeDegrees>
              <LongitudeDegrees>20.22013214416801929473876953125</LongitudeDegrees>
            </Position>
            <AltitudeMeters>515</AltitudeMeters>
            <DistanceMeters>NAN</DistanceMeters>
          </Trackpoint>
          <Trackpoint>
            <Time>2022-09-20T09:29:59.000Z</Time>
            <Position>
              <LatitudeDegrees>49.45617989636957645416259765625</LatitudeDegrees>
              <LongitudeDegrees>20.22010062821209430694580078125</LongitudeDegrees>
            </Position>
            <AltitudeMeters>515</AltitudeMeters>
            <DistanceMeters>NAN</DistanceMeters>
          </Trackpoint>
          <Trackpoint>
            <Time>2022-09-20T09:30:01.000Z</Time>
            <Position>
              <LatitudeDegrees>49.4561947323381900787353515625</LatitudeDegrees>
              <LongitudeDegrees>20.220039524137973785400390625</LongitudeDegrees>
            </Position>
            <AltitudeMeters>515</AltitudeMeters>
            <DistanceMeters>NAN</DistanceMeters>
          </Trackpoint>
          <Trackpoint>
            <Time>2022-09-20T09:30:08.000Z</Time>
            <Position>
              <LatitudeDegrees>49.456217028200626373291015625</LatitudeDegrees>
              <LongitudeDegrees>20.21982620470225811004638671875</LongitudeDegrees>
            </Position>
            <AltitudeMeters>514.79998779296875</AltitudeMeters>
            <DistanceMeters>NAN</DistanceMeters>
          </Trackpoint>
          <Trackpoint>
            <Time>2022-09-20T09:30:15.000Z</Time>
            <Position>
              <LatitudeDegrees>49.456271342933177947998046875</LatitudeDegrees>
              <LongitudeDegrees>20.219514481723308563232421875</LongitudeDegrees>
            </Position>
            <AltitudeMeters>515.4000244140625</AltitudeMeters>
            <DistanceMeters>NAN</DistanceMeters>
          </Trackpoint>
          <Trackpoint>
            <Time>2022-09-20T09:30:22.000Z</Time>
            <Position>
              <LatitudeDegrees>49.45629104040563106536865234375</LatitudeDegrees>
              <LongitudeDegrees>20.21921315230429172515869140625</LongitudeDegrees>
            </Position>
            <AltitudeMeters>515.5999755859375</AltitudeMeters>
            <DistanceMeters>NAN</DistanceMeters>
          </Trackpoint>
          <Trackpoint>
            <Time>2022-09-20T09:30:31.000Z</Time>
            <Position>
              <LatitudeDegrees>49.45633403956890106201171875</LatitudeDegrees>
              <LongitudeDegrees>20.2188907004892826080322265625</LongitudeDegrees>
            </Position>
            <AltitudeMeters>515.79998779296875</AltitudeMeters>
            <DistanceMeters>NAN</DistanceMeters>
          </Trackpoint>
          <Trackpoint>
            <Time>2022-09-20T09:30:35.000Z</Time>
            <Position>
              <LatitudeDegrees>49.4563442654907703399658203125</LatitudeDegrees>
              <LongitudeDegrees>20.2187535725533962249755859375</LongitudeDegrees>
            </Position>
            <AltitudeMeters>516</AltitudeMeters>
            <DistanceMeters>NAN</DistanceMeters>
          </Trackpoint>
          <Trackpoint>
            <Time>2022-09-20T09:30:39.000Z</Time>
            <Position>
              <LatitudeDegrees>49.45637427270412445068359375</LatitudeDegrees>
              <LongitudeDegrees>20.21861870773136615753173828125</LongitudeDegrees>
            </Position>
            <AltitudeMeters>516.20001220703125</AltitudeMeters>
            <DistanceMeters>NAN</DistanceMeters>
          </Trackpoint>
          <Trackpoint>
            <Time>2022-09-20T09:30:41.000Z</Time>
            <Position>
              <LatitudeDegrees>49.4563878513872623443603515625</LatitudeDegrees>
              <LongitudeDegrees>20.21854964084923267364501953125</LongitudeDegrees>
            </Position>
            <AltitudeMeters>516.4000244140625</AltitudeMeters>
            <DistanceMeters>NAN</DistanceMeters>
          </Trackpoint>
          <Trackpoint>
            <Time>2022-09-20T09:30:44.000Z</Time>
            <Position>
              <LatitudeDegrees>49.45639531128108501434326171875</LatitudeDegrees>
              <LongitudeDegrees>20.21844268776476383209228515625</LongitudeDegrees>
            </Position>
            <AltitudeMeters>516.4000244140625</AltitudeMeters>
            <DistanceMeters>NAN</DistanceMeters>
          </Trackpoint>
          <Trackpoint>
            <Time>2022-09-20T09:30:46.000Z</Time>
            <Position>
              <LatitudeDegrees>49.4564031064510345458984375</LatitudeDegrees>
              <LongitudeDegrees>20.2183824218809604644775390625</LongitudeDegrees>
            </Position>
            <AltitudeMeters>516.4000244140625</AltitudeMeters>
            <DistanceMeters>NAN</DistanceMeters>
          </Trackpoint>
          <Trackpoint>
            <Time>2022-09-20T09:30:52.000Z</Time>
            <Position>
              <LatitudeDegrees>49.45641509257256984710693359375</LatitudeDegrees>
              <LongitudeDegrees>20.21818385459482669830322265625</LongitudeDegrees>
            </Position>
            <AltitudeMeters>517</AltitudeMeters>
            <DistanceMeters>NAN</DistanceMeters>
          </Trackpoint>
          <Trackpoint>
            <Time>2022-09-20T09:30:57.000Z</Time>
            <Position>
              <LatitudeDegrees>49.45643772371113300323486328125</LatitudeDegrees>
              <LongitudeDegrees>20.2180116064846515655517578125</LongitudeDegrees>
            </Position>
            <AltitudeMeters>516.79998779296875</AltitudeMeters>
            <DistanceMeters>NAN</DistanceMeters>
          </Trackpoint>
          <Trackpoint>
            <Time>2022-09-20T09:30:58.000Z</Time>
            <Position>
              <LatitudeDegrees>49.45643839426338672637939453125</LatitudeDegrees>
              <LongitudeDegrees>20.21797531284391880035400390625</LongitudeDegrees>
            </Position>
            <AltitudeMeters>516.79998779296875</AltitudeMeters>
            <DistanceMeters>NAN</DistanceMeters>
          </Trackpoint>
          <Trackpoint>
            <Time>2022-09-20T09:31:01.000Z</Time>
            <Position>
              <LatitudeDegrees>49.45644107647240161895751953125</LatitudeDegrees>
              <LongitudeDegrees>20.21787875331938266754150390625</LongitudeDegrees>
            </Position>
            <AltitudeMeters>517</AltitudeMeters>
            <DistanceMeters>NAN</DistanceMeters>
          </Trackpoint>
          <Trackpoint>
            <Time>2022-09-20T09:31:04.000Z</Time>
            <Position>
              <LatitudeDegrees>49.4564300961792469024658203125</LatitudeDegrees>
              <LongitudeDegrees>20.21779124625027179718017578125</LongitudeDegrees>
            </Position>
            <AltitudeMeters>517.20001220703125</AltitudeMeters>
            <DistanceMeters>NAN</DistanceMeters>
          </Trackpoint>
          <Trackpoint>
            <Time>2022-09-20T09:31:10.000Z</Time>
            <Position>
              <LatitudeDegrees>49.45642062462866306304931640625</LatitudeDegrees>
              <LongitudeDegrees>20.2176096104085445404052734375</LongitudeDegrees>
            </Position>
            <AltitudeMeters>517.20001220703125</AltitudeMeters>
            <DistanceMeters>NAN</DistanceMeters>
          </Trackpoint>
          <Trackpoint>
            <Time>2022-09-20T09:31:11.000Z</Time>
            <Position>
              <LatitudeDegrees>49.45642397738993167877197265625</LatitudeDegrees>
              <LongitudeDegrees>20.2175844646990299224853515625</LongitudeDegrees>
            </Position>
            <AltitudeMeters>517.20001220703125</AltitudeMeters>
            <DistanceMeters>NAN</DistanceMeters>
          </Trackpoint>
          <Trackpoint>
            <Time>2022-09-20T09:31:12.000Z</Time>
            <Position>
              <LatitudeDegrees>49.456424228847026824951171875</LatitudeDegrees>
              <LongitudeDegrees>20.217555463314056396484375</LongitudeDegrees>
            </Position>
            <AltitudeMeters>517.20001220703125</AltitudeMeters>
            <DistanceMeters>NAN</DistanceMeters>
          </Trackpoint>
          <Trackpoint>
            <Time>2022-09-20T09:31:16.000Z</Time>
            <Position>
              <LatitudeDegrees>49.45640989579260349273681640625</LatitudeDegrees>
              <LongitudeDegrees>20.21744339726865291595458984375</LongitudeDegrees>
            </Position>
            <AltitudeMeters>517.4000244140625</AltitudeMeters>
            <DistanceMeters>NAN</DistanceMeters>
          </Trackpoint>
          <Trackpoint>
            <Time>2022-09-20T09:31:18.000Z</Time>
            <Position>
              <LatitudeDegrees>49.4564004242420196533203125</LatitudeDegrees>
              <LongitudeDegrees>20.217383466660976409912109375</LongitudeDegrees>
            </Position>
            <AltitudeMeters>517.4000244140625</AltitudeMeters>
            <DistanceMeters>NAN</DistanceMeters>
          </Trackpoint>
          <Trackpoint>
            <Time>2022-09-20T09:31:19.000Z</Time>
            <Position>
              <LatitudeDegrees>49.45639497600495815277099609375</LatitudeDegrees>
              <LongitudeDegrees>20.21735471673309803009033203125</LongitudeDegrees>
            </Position>
            <AltitudeMeters>517.4000244140625</AltitudeMeters>
            <DistanceMeters>NAN</DistanceMeters>
          </Trackpoint>
          <Trackpoint>
            <Time>2022-09-20T09:31:26.000Z</Time>
            <Position>
              <LatitudeDegrees>49.45634870789945125579833984375</LatitudeDegrees>
              <LongitudeDegrees>20.21714575588703155517578125</LongitudeDegrees>
            </Position>
            <AltitudeMeters>517.4000244140625</AltitudeMeters>
            <DistanceMeters>NAN</DistanceMeters>
          </Trackpoint>
          <Trackpoint>
            <Time>2022-09-20T09:31:32.000Z</Time>
            <Position>
              <LatitudeDegrees>49.4563040323555469512939453125</LatitudeDegrees>
              <LongitudeDegrees>20.216949619352817535400390625</LongitudeDegrees>
            </Position>
            <AltitudeMeters>517.5999755859375</AltitudeMeters>
            <DistanceMeters>NAN</DistanceMeters>
          </Trackpoint>
          <Trackpoint>
            <Time>2022-09-20T09:31:41.000Z</Time>
            <Position>
              <LatitudeDegrees>49.4562808983027935028076171875</LatitudeDegrees>
              <LongitudeDegrees>20.216663293540477752685546875</LongitudeDegrees>
            </Position>
            <AltitudeMeters>517.5999755859375</AltitudeMeters>
            <DistanceMeters>NAN</DistanceMeters>
          </Trackpoint>
          <Trackpoint>
            <Time>2022-09-20T09:31:42.000Z</Time>
            <Position>
              <LatitudeDegrees>49.45627595297992229461669921875</LatitudeDegrees>
              <LongitudeDegrees>20.21663856692612171173095703125</LongitudeDegrees>
            </Position>
            <AltitudeMeters>517.5999755859375</AltitudeMeters>
            <DistanceMeters>NAN</DistanceMeters>
          </Trackpoint>
          <Trackpoint>
            <Time>2022-09-20T09:31:45.000Z</Time>
            <Position>
              <LatitudeDegrees>49.45627226494252681732177734375</LatitudeDegrees>
              <LongitudeDegrees>20.21656715311110019683837890625</LongitudeDegrees>
            </Position>
            <AltitudeMeters>517.5999755859375</AltitudeMeters>
            <DistanceMeters>NAN</DistanceMeters>
          </Trackpoint>
          <Trackpoint>
            <Time>2022-09-20T09:31:48.000Z</Time>
            <Position>
              <LatitudeDegrees>49.4562597759068012237548828125</LatitudeDegrees>
              <LongitudeDegrees>20.2164944820106029510498046875</LongitudeDegrees>
            </Position>
            <AltitudeMeters>517.79998779296875</AltitudeMeters>
            <DistanceMeters>NAN</DistanceMeters>
          </Trackpoint>
          <Trackpoint>
            <Time>2022-09-20T09:31:49.000Z</Time>
            <Position>
              <LatitudeDegrees>49.45625818334519863128662109375</LatitudeDegrees>
              <LongitudeDegrees>20.21646439097821712493896484375</LongitudeDegrees>
            </Position>
            <AltitudeMeters>517.79998779296875</AltitudeMeters>
            <DistanceMeters>NAN</DistanceMeters>
          </Trackpoint>
          <Trackpoint>
            <Time>2022-09-20T09:31:53.000Z</Time>
            <Position>
              <LatitudeDegrees>49.4562651403248310089111328125</LatitudeDegrees>
              <LongitudeDegrees>20.21632969379425048828125</LongitudeDegrees>
            </Position>
            <AltitudeMeters>518.20001220703125</AltitudeMeters>
            <DistanceMeters>NAN</DistanceMeters>
          </Trackpoint>
          <Trackpoint>
            <Time>2022-09-20T09:31:55.000Z</Time>
            <Position>
              <LatitudeDegrees>49.45625885389745235443115234375</LatitudeDegrees>
              <LongitudeDegrees>20.21626733243465423583984375</LongitudeDegrees>
            </Position>
            <AltitudeMeters>518.20001220703125</AltitudeMeters>
            <DistanceMeters>NAN</DistanceMeters>
          </Trackpoint>
          <Trackpoint>
            <Time>2022-09-20T09:32:02.000Z</Time>
            <Position>
              <LatitudeDegrees>49.45623789913952350616455078125</LatitudeDegrees>
              <LongitudeDegrees>20.2160207368433475494384765625</LongitudeDegrees>
            </Position>
            <AltitudeMeters>518.4000244140625</AltitudeMeters>
            <DistanceMeters>NAN</DistanceMeters>
          </Trackpoint>
          <Trackpoint>
            <Time>2022-09-20T09:32:05.000Z</Time>
            <Position>
              <LatitudeDegrees>49.45621962659060955047607421875</LatitudeDegrees>
              <LongitudeDegrees>20.215904898941516876220703125</LongitudeDegrees>
            </Position>
            <AltitudeMeters>518.5999755859375</AltitudeMeters>
            <DistanceMeters>NAN</DistanceMeters>
          </Trackpoint>
          <Trackpoint>
            <Time>2022-09-20T09:32:12.000Z</Time>
            <Position>
              <LatitudeDegrees>49.45620168931782245635986328125</LatitudeDegrees>
              <LongitudeDegrees>20.215687640011310577392578125</LongitudeDegrees>
            </Position>
            <AltitudeMeters>518.79998779296875</AltitudeMeters>
            <DistanceMeters>NAN</DistanceMeters>
          </Trackpoint>
          <Trackpoint>
            <Time>2022-09-20T09:32:20.000Z</Time>
            <Position>
              <LatitudeDegrees>49.45618517696857452392578125</LatitudeDegrees>
              <LongitudeDegrees>20.21540424786508083343505859375</LongitudeDegrees>
            </Position>
            <AltitudeMeters>519.20001220703125</AltitudeMeters>
            <DistanceMeters>NAN</DistanceMeters>
          </Trackpoint>
          <Trackpoint>
            <Time>2022-09-20T09:32:21.000Z</Time>
            <Position>
              <LatitudeDegrees>49.456178806722164154052734375</LatitudeDegrees>
              <LongitudeDegrees>20.21537256427109241485595703125</LongitudeDegrees>
            </Position>
            <AltitudeMeters>519.4000244140625</AltitudeMeters>
            <DistanceMeters>NAN</DistanceMeters>
          </Trackpoint>
          <Trackpoint>
            <Time>2022-09-20T09:32:26.000Z</Time>
            <Position>
              <LatitudeDegrees>49.45614318363368511199951171875</LatitudeDegrees>
              <LongitudeDegrees>20.21520006470382213592529296875</LongitudeDegrees>
            </Position>
            <AltitudeMeters>519.79998779296875</AltitudeMeters>
            <DistanceMeters>NAN</DistanceMeters>
          </Trackpoint>
          <Trackpoint>
            <Time>2022-09-20T09:32:30.000Z</Time>
            <Position>
              <LatitudeDegrees>49.45611502043902873992919921875</LatitudeDegrees>
              <LongitudeDegrees>20.21507014520466327667236328125</LongitudeDegrees>
            </Position>
            <AltitudeMeters>520.20001220703125</AltitudeMeters>
            <DistanceMeters>NAN</DistanceMeters>
          </Trackpoint>
          <Trackpoint>
            <Time>2022-09-20T09:32:31.000Z</Time>
            <Position>
              <LatitudeDegrees>49.4561080634593963623046875</LatitudeDegrees>
              <LongitudeDegrees>20.21504181437194347381591796875</LongitudeDegrees>
            </Position>
            <AltitudeMeters>520.20001220703125</AltitudeMeters>
            <DistanceMeters>NAN</DistanceMeters>
          </Trackpoint>
          <Trackpoint>
            <Time>2022-09-20T09:32:32.000Z</Time>
            <Position>
              <LatitudeDegrees>49.45610110647976398468017578125</LatitudeDegrees>
              <LongitudeDegrees>20.21501432172954082489013671875</LongitudeDegrees>
            </Position>
            <AltitudeMeters>520.5999755859375</AltitudeMeters>
            <DistanceMeters>NAN</DistanceMeters>
          </Trackpoint>
          <Trackpoint>
            <Time>2022-09-20T09:32:37.000Z</Time>
            <Position>
              <LatitudeDegrees>49.45606690831482410430908203125</LatitudeDegrees>
              <LongitudeDegrees>20.21486529149115085601806640625</LongitudeDegrees>
            </Position>
            <AltitudeMeters>522</AltitudeMeters>
            <DistanceMeters>NAN</DistanceMeters>
          </Trackpoint>
          <Trackpoint>
            <Time>2022-09-20T09:32:42.000Z</Time>
            <Position>
              <LatitudeDegrees>49.456019215285778045654296875</LatitudeDegrees>
              <LongitudeDegrees>20.214739479124546051025390625</LongitudeDegrees>
            </Position>
            <AltitudeMeters>522</AltitudeMeters>
            <DistanceMeters>NAN</DistanceMeters>
          </Trackpoint>
          <Trackpoint>
            <Time>2022-09-20T09:32:43.000Z</Time>
            <Position>
              <LatitudeDegrees>49.45600546896457672119140625</LatitudeDegrees>
              <LongitudeDegrees>20.214728079736232757568359375</LongitudeDegrees>
            </Position>
            <AltitudeMeters>522</AltitudeMeters>
            <DistanceMeters>NAN</DistanceMeters>
          </Trackpoint>
          <Trackpoint>
            <Time>2022-09-20T09:32:44.000Z</Time>
            <Position>
              <LatitudeDegrees>49.45598828606307506561279296875</LatitudeDegrees>
              <LongitudeDegrees>20.214728079736232757568359375</LongitudeDegrees>
            </Position>
            <AltitudeMeters>522</AltitudeMeters>
            <DistanceMeters>NAN</DistanceMeters>
          </Trackpoint>
          <Trackpoint>
            <Time>2022-09-20T09:32:47.000Z</Time>
            <Position>
              <LatitudeDegrees>49.45594914257526397705078125</LatitudeDegrees>
              <LongitudeDegrees>20.21479555405676364898681640625</LongitudeDegrees>
            </Position>
            <AltitudeMeters>522.20001220703125</AltitudeMeters>
            <DistanceMeters>NAN</DistanceMeters>
          </Trackpoint>
          <Trackpoint>
            <Time>2022-09-20T09:32:55.000Z</Time>
            <Position>
              <LatitudeDegrees>49.4558520801365375518798828125</LatitudeDegrees>
              <LongitudeDegrees>20.21502689458429813385009765625</LongitudeDegrees>
            </Position>
            <AltitudeMeters>522.5999755859375</AltitudeMeters>
            <DistanceMeters>NAN</DistanceMeters>
          </Trackpoint>
          <Trackpoint>
            <Time>2022-09-20T09:32:59.000Z</Time>
            <Position>
              <LatitudeDegrees>49.4558108411729335784912109375</LatitudeDegrees>
              <LongitudeDegrees>20.21516771055757999420166015625</LongitudeDegrees>
            </Position>
            <AltitudeMeters>522.4000244140625</AltitudeMeters>
            <DistanceMeters>NAN</DistanceMeters>
          </Trackpoint>
          <Trackpoint>
            <Time>2022-09-20T09:33:01.000Z</Time>
            <Position>
              <LatitudeDegrees>49.455835483968257904052734375</LatitudeDegrees>
              <LongitudeDegrees>20.21523409523069858551025390625</LongitudeDegrees>
            </Position>
            <AltitudeMeters>522.4000244140625</AltitudeMeters>
            <DistanceMeters>NAN</DistanceMeters>
          </Trackpoint>
          <Trackpoint>
            <Time>2022-09-20T09:33:07.000Z</Time>
            <Position>
              <LatitudeDegrees>49.45587177760899066925048828125</LatitudeDegrees>
              <LongitudeDegrees>20.2154826186597347259521484375</LongitudeDegrees>
            </Position>
            <AltitudeMeters>522.5999755859375</AltitudeMeters>
            <DistanceMeters>NAN</DistanceMeters>
          </Trackpoint>
          <Trackpoint>
            <Time>2022-09-20T09:33:15.000Z</Time>
            <Position>
              <LatitudeDegrees>49.4558041356503963470458984375</LatitudeDegrees>
              <LongitudeDegrees>20.2158386819064617156982421875</LongitudeDegrees>
            </Position>
            <AltitudeMeters>522.4000244140625</AltitudeMeters>
            <DistanceMeters>NAN</DistanceMeters>
          </Trackpoint>
          <Trackpoint>
            <Time>2022-09-20T09:33:22.000Z</Time>
            <Position>
              <LatitudeDegrees>49.4556898064911365509033203125</LatitudeDegrees>
              <LongitudeDegrees>20.21617672406136989593505859375</LongitudeDegrees>
            </Position>
            <AltitudeMeters>522</AltitudeMeters>
            <DistanceMeters>NAN</DistanceMeters>
          </Trackpoint>
          <Trackpoint>
            <Time>2022-09-20T09:33:31.000Z</Time>
            <Position>
              <LatitudeDegrees>49.45558394305408000946044921875</LatitudeDegrees>
              <LongitudeDegrees>20.21661342121660709381103515625</LongitudeDegrees>
            </Position>
            <AltitudeMeters>521.5999755859375</AltitudeMeters>
            <DistanceMeters>NAN</DistanceMeters>
          </Trackpoint>
          <Trackpoint>
            <Time>2022-09-20T09:33:39.000Z</Time>
            <Position>
              <LatitudeDegrees>49.4554869644343852996826171875</LatitudeDegrees>
              <LongitudeDegrees>20.217035114765167236328125</LongitudeDegrees>
            </Position>
            <AltitudeMeters>521.20001220703125</AltitudeMeters>
            <DistanceMeters>NAN</DistanceMeters>
          </Trackpoint>
          <Trackpoint>
            <Time>2022-09-20T09:33:40.000Z</Time>
            <Position>
              <LatitudeDegrees>49.4554804265499114990234375</LatitudeDegrees>
              <LongitudeDegrees>20.21709253080189228057861328125</LongitudeDegrees>
            </Position>
            <AltitudeMeters>521.20001220703125</AltitudeMeters>
            <DistanceMeters>NAN</DistanceMeters>
          </Trackpoint>
          <Trackpoint>
            <Time>2022-09-20T09:33:46.000Z</Time>
            <Position>
              <LatitudeDegrees>49.45544899441301822662353515625</LatitudeDegrees>
              <LongitudeDegrees>20.21743803285062313079833984375</LongitudeDegrees>
            </Position>
            <AltitudeMeters>521</AltitudeMeters>
            <DistanceMeters>NAN</DistanceMeters>
          </Trackpoint>
          <Trackpoint>
            <Time>2022-09-20T09:33:48.000Z</Time>
            <Position>
              <LatitudeDegrees>49.45544488728046417236328125</LatitudeDegrees>
              <LongitudeDegrees>20.21755387075245380401611328125</LongitudeDegrees>
            </Position>
            <AltitudeMeters>520.79998779296875</AltitudeMeters>
            <DistanceMeters>NAN</DistanceMeters>
          </Trackpoint>
          <Trackpoint>
            <Time>2022-09-20T09:33:52.000Z</Time>
            <Position>
              <LatitudeDegrees>49.455451257526874542236328125</LatitudeDegrees>
              <LongitudeDegrees>20.21773475222289562225341796875</LongitudeDegrees>
            </Position>
            <AltitudeMeters>520.79998779296875</AltitudeMeters>
            <DistanceMeters>NAN</DistanceMeters>
          </Trackpoint>
          <Trackpoint>
            <Time>2022-09-20T09:33:56.000Z</Time>
            <Position>
              <LatitudeDegrees>49.4554348289966583251953125</LatitudeDegrees>
              <LongitudeDegrees>20.21802912466228008270263671875</LongitudeDegrees>
            </Position>
            <AltitudeMeters>520.5999755859375</AltitudeMeters>
            <DistanceMeters>NAN</DistanceMeters>
          </Trackpoint>
          <Trackpoint>
            <Time>2022-09-20T09:33:58.000Z</Time>
            <Position>
              <LatitudeDegrees>49.45537975989282131195068359375</LatitudeDegrees>
              <LongitudeDegrees>20.21812752820551395416259765625</LongitudeDegrees>
            </Position>
            <AltitudeMeters>520.20001220703125</AltitudeMeters>
            <DistanceMeters>NAN</DistanceMeters>
          </Trackpoint>
          <Trackpoint>
            <Time>2022-09-20T09:33:59.000Z</Time>
            <Position>
              <LatitudeDegrees>49.4553505070507526397705078125</LatitudeDegrees>
              <LongitudeDegrees>20.21817379631102085113525390625</LongitudeDegrees>
            </Position>
            <AltitudeMeters>520.20001220703125</AltitudeMeters>
            <DistanceMeters>NAN</DistanceMeters>
          </Trackpoint>
          <Trackpoint>
            <Time>2022-09-20T09:34:01.000Z</Time>
            <Position>
              <LatitudeDegrees>49.45532008074223995208740234375</LatitudeDegrees>
              <LongitudeDegrees>20.218215622007846832275390625</LongitudeDegrees>
            </Position>
            <AltitudeMeters>520</AltitudeMeters>
            <DistanceMeters>NAN</DistanceMeters>
          </Trackpoint>
          <Trackpoint>
            <Time>2022-09-20T09:34:03.000Z</Time>
            <Position>
              <LatitudeDegrees>49.45522469468414783477783203125</LatitudeDegrees>
              <LongitudeDegrees>20.2183361537754535675048828125</LongitudeDegrees>
            </Position>
            <AltitudeMeters>520</AltitudeMeters>
            <DistanceMeters>NAN</DistanceMeters>
          </Trackpoint>
          <Trackpoint>
            <Time>2022-09-20T09:34:07.000Z</Time>
            <Position>
              <LatitudeDegrees>49.45508874021470546722412109375</LatitudeDegrees>
              <LongitudeDegrees>20.2184672467410564422607421875</LongitudeDegrees>
            </Position>
            <AltitudeMeters>519.5999755859375</AltitudeMeters>
            <DistanceMeters>NAN</DistanceMeters>
          </Trackpoint>
          <Trackpoint>
            <Time>2022-09-20T09:34:08.000Z</Time>
            <Position>
              <LatitudeDegrees>49.45506610907614231109619140625</LatitudeDegrees>
              <LongitudeDegrees>20.21850764751434326171875</LongitudeDegrees>
            </Position>
            <AltitudeMeters>519.5999755859375</AltitudeMeters>
            <DistanceMeters>NAN</DistanceMeters>
          </Trackpoint>
          <Trackpoint>
            <Time>2022-09-20T09:34:09.000Z</Time>
            <Position>
              <LatitudeDegrees>49.4550541229546070098876953125</LatitudeDegrees>
              <LongitudeDegrees>20.21855617873370647430419921875</LongitudeDegrees>
            </Position>
            <AltitudeMeters>519.5999755859375</AltitudeMeters>
            <DistanceMeters>NAN</DistanceMeters>
          </Trackpoint>
          <Trackpoint>
            <Time>2022-09-20T09:34:10.000Z</Time>
            <Position>
              <LatitudeDegrees>49.4550531171262264251708984375</LatitudeDegrees>
              <LongitudeDegrees>20.2186109125614166259765625</LongitudeDegrees>
            </Position>
            <AltitudeMeters>519.5999755859375</AltitudeMeters>
            <DistanceMeters>NAN</DistanceMeters>
          </Trackpoint>
          <Trackpoint>
            <Time>2022-09-20T09:34:11.000Z</Time>
            <Position>
              <LatitudeDegrees>49.4550531171262264251708984375</LatitudeDegrees>
              <LongitudeDegrees>20.2186109125614166259765625</LongitudeDegrees>
            </Position>
            <AltitudeMeters>519.5999755859375</AltitudeMeters>
            <DistanceMeters>NAN</DistanceMeters>
          </Trackpoint>
          <Trackpoint>
            <Time>2022-09-20T09:34:17.000Z</Time>
            <Position>
              <LatitudeDegrees>49.45510081015527248382568359375</LatitudeDegrees>
              <LongitudeDegrees>20.21901466883718967437744140625</LongitudeDegrees>
            </Position>
            <AltitudeMeters>519.5999755859375</AltitudeMeters>
            <DistanceMeters>NAN</DistanceMeters>
          </Trackpoint>
          <Trackpoint>
            <Time>2022-09-20T09:34:20.000Z</Time>
            <Position>
              <LatitudeDegrees>49.45512226782739162445068359375</LatitudeDegrees>
              <LongitudeDegrees>20.2192021720111370086669921875</LongitudeDegrees>
            </Position>
            <AltitudeMeters>519.79998779296875</AltitudeMeters>
            <DistanceMeters>NAN</DistanceMeters>
          </Trackpoint>
          <Trackpoint>
            <Time>2022-09-20T09:34:22.000Z</Time>
            <Position>
              <LatitudeDegrees>49.455136097967624664306640625</LatitudeDegrees>
              <LongitudeDegrees>20.2193366177380084991455078125</LongitudeDegrees>
            </Position>
            <AltitudeMeters>519.5999755859375</AltitudeMeters>
            <DistanceMeters>NAN</DistanceMeters>
          </Trackpoint>
          <Trackpoint>
            <Time>2022-09-20T09:34:27.000Z</Time>
            <Position>
              <LatitudeDegrees>49.4551728107035160064697265625</LatitudeDegrees>
              <LongitudeDegrees>20.21967734210193157196044921875</LongitudeDegrees>
            </Position>
            <AltitudeMeters>519.79998779296875</AltitudeMeters>
            <DistanceMeters>NAN</DistanceMeters>
          </Trackpoint>
          <Trackpoint>
            <Time>2022-09-20T09:34:35.000Z</Time>
            <Position>
              <LatitudeDegrees>49.45523743517696857452392578125</LatitudeDegrees>
              <LongitudeDegrees>20.2201758138835430145263671875</LongitudeDegrees>
            </Position>
            <AltitudeMeters>519.79998779296875</AltitudeMeters>
            <DistanceMeters>NAN</DistanceMeters>
          </Trackpoint>
          <Trackpoint>
            <Time>2022-09-20T09:34:46.000Z</Time>
            <Position>
              <LatitudeDegrees>49.455313794314861297607421875</LatitudeDegrees>
              <LongitudeDegrees>20.22092205472290515899658203125</LongitudeDegrees>
            </Position>
            <AltitudeMeters>520</AltitudeMeters>
            <DistanceMeters>NAN</DistanceMeters>
          </Trackpoint>
          <Trackpoint>
            <Time>2022-09-20T09:34:50.000Z</Time>
            <Position>
              <LatitudeDegrees>49.45535059086978435516357421875</LatitudeDegrees>
              <LongitudeDegrees>20.2211759425699710845947265625</LongitudeDegrees>
            </Position>
            <AltitudeMeters>520</AltitudeMeters>
            <DistanceMeters>NAN</DistanceMeters>
          </Trackpoint>
          <Trackpoint>
            <Time>2022-09-20T09:34:52.000Z</Time>
            <Position>
              <LatitudeDegrees>49.455358050763607025146484375</LatitudeDegrees>
              <LongitudeDegrees>20.221298821270465850830078125</LongitudeDegrees>
            </Position>
            <AltitudeMeters>520</AltitudeMeters>
            <DistanceMeters>NAN</DistanceMeters>
          </Trackpoint>
          <Trackpoint>
            <Time>2022-09-20T09:34:58.000Z</Time>
            <Position>
              <LatitudeDegrees>49.455400966107845306396484375</LatitudeDegrees>
              <LongitudeDegrees>20.22166569717228412628173828125</LongitudeDegrees>
            </Position>
            <AltitudeMeters>519.79998779296875</AltitudeMeters>
            <DistanceMeters>NAN</DistanceMeters>
          </Trackpoint>
          <Trackpoint>
            <Time>2022-09-20T09:35:00.000Z</Time>
            <Position>
              <LatitudeDegrees>49.455414377152919769287109375</LatitudeDegrees>
              <LongitudeDegrees>20.2217864803969860076904296875</LongitudeDegrees>
            </Position>
            <AltitudeMeters>519.5999755859375</AltitudeMeters>
            <DistanceMeters>NAN</DistanceMeters>
          </Trackpoint>
          <Trackpoint>
            <Time>2022-09-20T09:35:09.000Z</Time>
            <Position>
              <LatitudeDegrees>49.45546458475291728973388671875</LatitudeDegrees>
              <LongitudeDegrees>20.2223192341625690460205078125</LongitudeDegrees>
            </Position>
            <AltitudeMeters>519.5999755859375</AltitudeMeters>
            <DistanceMeters>NAN</DistanceMeters>
          </Trackpoint>
          <Trackpoint>
            <Time>2022-09-20T09:35:16.000Z</Time>
            <Position>
              <LatitudeDegrees>49.45550599135458469390869140625</LatitudeDegrees>
              <LongitudeDegrees>20.2226303704082965850830078125</LongitudeDegrees>
            </Position>
            <AltitudeMeters>519.5999755859375</AltitudeMeters>
            <DistanceMeters>NAN</DistanceMeters>
          </Trackpoint>
          <Trackpoint>
            <Time>2022-09-20T09:35:23.000Z</Time>
            <Position>
              <LatitudeDegrees>49.455559216439723968505859375</LatitudeDegrees>
              <LongitudeDegrees>20.2230736054480075836181640625</LongitudeDegrees>
            </Position>
            <AltitudeMeters>519.79998779296875</AltitudeMeters>
            <DistanceMeters>NAN</DistanceMeters>
          </Trackpoint>
          <Trackpoint>
            <Time>2022-09-20T09:35:28.000Z</Time>
            <Position>
              <LatitudeDegrees>49.45557422004640102386474609375</LatitudeDegrees>
              <LongitudeDegrees>20.2233471907675266265869140625</LongitudeDegrees>
            </Position>
            <AltitudeMeters>519.5999755859375</AltitudeMeters>
            <DistanceMeters>NAN</DistanceMeters>
          </Trackpoint>
          <Trackpoint>
            <Time>2022-09-20T09:35:29.000Z</Time>
            <Position>
              <LatitudeDegrees>49.45557455532252788543701171875</LatitudeDegrees>
              <LongitudeDegrees>20.22338951937854290008544921875</LongitudeDegrees>
            </Position>
            <AltitudeMeters>519.5999755859375</AltitudeMeters>
            <DistanceMeters>NAN</DistanceMeters>
          </Trackpoint>
          <Trackpoint>
            <Time>2022-09-20T09:35:35.000Z</Time>
            <Position>
              <LatitudeDegrees>49.455539099872112274169921875</LatitudeDegrees>
              <LongitudeDegrees>20.2237200178205966949462890625</LongitudeDegrees>
            </Position>
            <AltitudeMeters>519.79998779296875</AltitudeMeters>
            <DistanceMeters>NAN</DistanceMeters>
          </Trackpoint>
          <Trackpoint>
            <Time>2022-09-20T09:35:41.000Z</Time>
            <Position>
              <LatitudeDegrees>49.45547950454056262969970703125</LatitudeDegrees>
              <LongitudeDegrees>20.22407658398151397705078125</LongitudeDegrees>
            </Position>
            <AltitudeMeters>520</AltitudeMeters>
            <DistanceMeters>NAN</DistanceMeters>
          </Trackpoint>
          <Trackpoint>
            <Time>2022-09-20T09:35:52.000Z</Time>
            <Position>
              <LatitudeDegrees>49.45533835329115390777587890625</LatitudeDegrees>
              <LongitudeDegrees>20.22477395832538604736328125</LongitudeDegrees>
            </Position>
            <AltitudeMeters>519.79998779296875</AltitudeMeters>
            <DistanceMeters>NAN</DistanceMeters>
          </Trackpoint>
          <Trackpoint>
            <Time>2022-09-20T09:35:54.000Z</Time>
            <Position>
              <LatitudeDegrees>49.4553203321993350982666015625</LatitudeDegrees>
              <LongitudeDegrees>20.2248894609510898590087890625</LongitudeDegrees>
            </Position>
            <AltitudeMeters>519.79998779296875</AltitudeMeters>
            <DistanceMeters>NAN</DistanceMeters>
          </Trackpoint>
          <Trackpoint>
            <Time>2022-09-20T09:35:56.000Z</Time>
            <Position>
              <LatitudeDegrees>49.45529946126043796539306640625</LatitudeDegrees>
              <LongitudeDegrees>20.22499247454106807708740234375</LongitudeDegrees>
            </Position>
            <AltitudeMeters>519.79998779296875</AltitudeMeters>
            <DistanceMeters>NAN</DistanceMeters>
          </Trackpoint>
          <Trackpoint>
            <Time>2022-09-20T09:36:01.000Z</Time>
            <Position>
              <LatitudeDegrees>49.45524816401302814483642578125</LatitudeDegrees>
              <LongitudeDegrees>20.225235633552074432373046875</LongitudeDegrees>
            </Position>
            <AltitudeMeters>519.79998779296875</AltitudeMeters>
            <DistanceMeters>NAN</DistanceMeters>
          </Trackpoint>
          <Trackpoint>
            <Time>2022-09-20T09:36:04.000Z</Time>
            <Position>
              <LatitudeDegrees>49.4552157260477542877197265625</LatitudeDegrees>
              <LongitudeDegrees>20.22539891302585601806640625</LongitudeDegrees>
            </Position>
            <AltitudeMeters>519.79998779296875</AltitudeMeters>
            <DistanceMeters>NAN</DistanceMeters>
          </Trackpoint>
          <Trackpoint>
            <Time>2022-09-20T09:36:11.000Z</Time>
            <Position>
              <LatitudeDegrees>49.4551352597773075103759765625</LatitudeDegrees>
              <LongitudeDegrees>20.22578171454370021820068359375</LongitudeDegrees>
            </Position>
            <AltitudeMeters>519.79998779296875</AltitudeMeters>
            <DistanceMeters>NAN</DistanceMeters>
          </Trackpoint>
          <Trackpoint>
            <Time>2022-09-20T09:36:16.000Z</Time>
            <Position>
              <LatitudeDegrees>49.45508480072021484375</LatitudeDegrees>
              <LongitudeDegrees>20.22602009586989879608154296875</LongitudeDegrees>
            </Position>
            <AltitudeMeters>520</AltitudeMeters>
            <DistanceMeters>NAN</DistanceMeters>
          </Trackpoint>
          <Trackpoint>
            <Time>2022-09-20T09:36:19.000Z</Time>
            <Position>
              <LatitudeDegrees>49.455062337219715118408203125</LatitudeDegrees>
              <LongitudeDegrees>20.22617331705987453460693359375</LongitudeDegrees>
            </Position>
            <AltitudeMeters>520</AltitudeMeters>
            <DistanceMeters>NAN</DistanceMeters>
          </Trackpoint>
          <Trackpoint>
            <Time>2022-09-20T09:36:25.000Z</Time>
            <Position>
              <LatitudeDegrees>49.45499989204108715057373046875</LatitudeDegrees>
              <LongitudeDegrees>20.22644991986453533172607421875</LongitudeDegrees>
            </Position>
            <AltitudeMeters>520.20001220703125</AltitudeMeters>
            <DistanceMeters>NAN</DistanceMeters>
          </Trackpoint>
          <Trackpoint>
            <Time>2022-09-20T09:36:26.000Z</Time>
            <Position>
              <LatitudeDegrees>49.454991929233074188232421875</LatitudeDegrees>
              <LongitudeDegrees>20.2264934219419956207275390625</LongitudeDegrees>
            </Position>
            <AltitudeMeters>520.4000244140625</AltitudeMeters>
            <DistanceMeters>NAN</DistanceMeters>
          </Trackpoint>
          <Trackpoint>
            <Time>2022-09-20T09:36:28.000Z</Time>
            <Position>
              <LatitudeDegrees>49.45497474633157253265380859375</LatitudeDegrees>
              <LongitudeDegrees>20.22658285684883594512939453125</LongitudeDegrees>
            </Position>
            <AltitudeMeters>520.4000244140625</AltitudeMeters>
            <DistanceMeters>NAN</DistanceMeters>
          </Trackpoint>
          <Trackpoint>
            <Time>2022-09-20T09:36:31.000Z</Time>
            <Position>
              <LatitudeDegrees>49.4549451582133769989013671875</LatitudeDegrees>
              <LongitudeDegrees>20.22671026177704334259033203125</LongitudeDegrees>
            </Position>
            <AltitudeMeters>520.4000244140625</AltitudeMeters>
            <DistanceMeters>NAN</DistanceMeters>
          </Trackpoint>
          <Trackpoint>
            <Time>2022-09-20T09:36:32.000Z</Time>
            <Position>
              <LatitudeDegrees>49.4549359381198883056640625</LatitudeDegrees>
              <LongitudeDegrees>20.22675418294966220855712890625</LongitudeDegrees>
            </Position>
            <AltitudeMeters>520.4000244140625</AltitudeMeters>
            <DistanceMeters>NAN</DistanceMeters>
          </Trackpoint>
          <Trackpoint>
            <Time>2022-09-20T09:36:43.000Z</Time>
            <Position>
              <LatitudeDegrees>49.45487097837030887603759765625</LatitudeDegrees>
              <LongitudeDegrees>20.227177552878856658935546875</LongitudeDegrees>
            </Position>
            <AltitudeMeters>520.20001220703125</AltitudeMeters>
            <DistanceMeters>NAN</DistanceMeters>
          </Trackpoint>
          <Trackpoint>
            <Time>2022-09-20T09:36:53.000Z</Time>
            <Position>
              <LatitudeDegrees>49.454808533191680908203125</LatitudeDegrees>
              <LongitudeDegrees>20.22750033996999263763427734375</LongitudeDegrees>
            </Position>
            <AltitudeMeters>520.20001220703125</AltitudeMeters>
            <DistanceMeters>NAN</DistanceMeters>
          </Trackpoint>
          <Trackpoint>
            <Time>2022-09-20T09:36:55.000Z</Time>
            <Position>
              <LatitudeDegrees>49.454807527363300323486328125</LatitudeDegrees>
              <LongitudeDegrees>20.227528922259807586669921875</LongitudeDegrees>
            </Position>
            <AltitudeMeters>520.20001220703125</AltitudeMeters>
            <DistanceMeters>NAN</DistanceMeters>
          </Trackpoint>
          <Trackpoint>
            <Time>2022-09-20T09:36:56.000Z</Time>
            <Position>
              <LatitudeDegrees>49.45479713380336761474609375</LatitudeDegrees>
              <LongitudeDegrees>20.22758047096431255340576171875</LongitudeDegrees>
            </Position>
            <AltitudeMeters>520.20001220703125</AltitudeMeters>
            <DistanceMeters>NAN</DistanceMeters>
          </Trackpoint>
          <Trackpoint>
            <Time>2022-09-20T09:36:57.000Z</Time>
            <Position>
              <LatitudeDegrees>49.45479269139468669891357421875</LatitudeDegrees>
              <LongitudeDegrees>20.227597989141941070556640625</LongitudeDegrees>
            </Position>
            <AltitudeMeters>520.20001220703125</AltitudeMeters>
            <DistanceMeters>NAN</DistanceMeters>
          </Trackpoint>
          <Trackpoint>
            <Time>2022-09-20T09:36:59.000Z</Time>
            <Position>
              <LatitudeDegrees>49.45478866808116436004638671875</LatitudeDegrees>
              <LongitudeDegrees>20.22761282511055469512939453125</LongitudeDegrees>
            </Position>
            <AltitudeMeters>520</AltitudeMeters>
            <DistanceMeters>NAN</DistanceMeters>
          </Trackpoint>
          <Trackpoint>
            <Time>2022-09-20T09:37:06.000Z</Time>
            <Position>
              <LatitudeDegrees>49.45478866808116436004638671875</LatitudeDegrees>
              <LongitudeDegrees>20.22761282511055469512939453125</LongitudeDegrees>
            </Position>
            <AltitudeMeters>519.79998779296875</AltitudeMeters>
            <DistanceMeters>NAN</DistanceMeters>
          </Trackpoint>
          <Trackpoint>
            <Time>2022-09-20T09:37:10.000Z</Time>
            <Position>
              <LatitudeDegrees>49.454771317541599273681640625</LatitudeDegrees>
              <LongitudeDegrees>20.22766814567148685455322265625</LongitudeDegrees>
            </Position>
            <AltitudeMeters>520</AltitudeMeters>
            <DistanceMeters>NAN</DistanceMeters>
          </Trackpoint>
          <Trackpoint>
            <Time>2022-09-20T09:37:11.000Z</Time>
            <Position>
              <LatitudeDegrees>49.45476972497999668121337890625</LatitudeDegrees>
              <LongitudeDegrees>20.22769345901906490325927734375</LongitudeDegrees>
            </Position>
            <AltitudeMeters>520</AltitudeMeters>
            <DistanceMeters>NAN</DistanceMeters>
          </Trackpoint>
          <Trackpoint>
            <Time>2022-09-20T09:37:16.000Z</Time>
            <Position>
              <LatitudeDegrees>49.45474105887115001678466796875</LatitudeDegrees>
              <LongitudeDegrees>20.227882973849773406982421875</LongitudeDegrees>
            </Position>
            <AltitudeMeters>519.79998779296875</AltitudeMeters>
            <DistanceMeters>NAN</DistanceMeters>
          </Trackpoint>
          <Trackpoint>
            <Time>2022-09-20T09:37:23.000Z</Time>
            <Position>
              <LatitudeDegrees>49.454674758017063140869140625</LatitudeDegrees>
              <LongitudeDegrees>20.2282093651592731475830078125</LongitudeDegrees>
            </Position>
            <AltitudeMeters>520</AltitudeMeters>
            <DistanceMeters>NAN</DistanceMeters>
          </Trackpoint>
          <Trackpoint>
            <Time>2022-09-20T09:37:25.000Z</Time>
            <Position>
              <LatitudeDegrees>49.45465506054461002349853515625</LatitudeDegrees>
              <LongitudeDegrees>20.22832713089883327484130859375</LongitudeDegrees>
            </Position>
            <AltitudeMeters>520</AltitudeMeters>
            <DistanceMeters>NAN</DistanceMeters>
          </Trackpoint>
          <Trackpoint>
            <Time>2022-09-20T09:37:28.000Z</Time>
            <Position>
              <LatitudeDegrees>49.45461767725646495819091796875</LatitudeDegrees>
              <LongitudeDegrees>20.22852377034723758697509765625</LongitudeDegrees>
            </Position>
            <AltitudeMeters>520</AltitudeMeters>
            <DistanceMeters>NAN</DistanceMeters>
          </Trackpoint>
          <Trackpoint>
            <Time>2022-09-20T09:37:36.000Z</Time>
            <Position>
              <LatitudeDegrees>49.45452396757900714874267578125</LatitudeDegrees>
              <LongitudeDegrees>20.22906792350113391876220703125</LongitudeDegrees>
            </Position>
            <AltitudeMeters>519.79998779296875</AltitudeMeters>
            <DistanceMeters>NAN</DistanceMeters>
          </Trackpoint>
          <Trackpoint>
            <Time>2022-09-20T09:37:44.000Z</Time>
            <Position>
              <LatitudeDegrees>49.45443696342408657073974609375</LatitudeDegrees>
              <LongitudeDegrees>20.22955038584768772125244140625</LongitudeDegrees>
            </Position>
            <AltitudeMeters>520</AltitudeMeters>
            <DistanceMeters>NAN</DistanceMeters>
          </Trackpoint>
          <Trackpoint>
            <Time>2022-09-20T09:37:50.000Z</Time>
            <Position>
              <LatitudeDegrees>49.45437124930322170257568359375</LatitudeDegrees>
              <LongitudeDegrees>20.22990175522863864898681640625</LongitudeDegrees>
            </Position>
            <AltitudeMeters>520</AltitudeMeters>
            <DistanceMeters>NAN</DistanceMeters>
          </Trackpoint>
          <Trackpoint>
            <Time>2022-09-20T09:37:52.000Z</Time>
            <Position>
              <LatitudeDegrees>49.454352222383022308349609375</LatitudeDegrees>
              <LongitudeDegrees>20.23003100417554378509521484375</LongitudeDegrees>
            </Position>
            <AltitudeMeters>519.79998779296875</AltitudeMeters>
            <DistanceMeters>NAN</DistanceMeters>
          </Trackpoint>
          <Trackpoint>
            <Time>2022-09-20T09:38:02.000Z</Time>
            <Position>
              <LatitudeDegrees>49.4542320258915424346923828125</LatitudeDegrees>
              <LongitudeDegrees>20.23067473433911800384521484375</LongitudeDegrees>
            </Position>
            <AltitudeMeters>520</AltitudeMeters>
            <DistanceMeters>NAN</DistanceMeters>
          </Trackpoint>
          <Trackpoint>
            <Time>2022-09-20T09:38:06.000Z</Time>
            <Position>
              <LatitudeDegrees>49.45419120602309703826904296875</LatitudeDegrees>
              <LongitudeDegrees>20.2308915741741657257080078125</LongitudeDegrees>
            </Position>
            <AltitudeMeters>519.79998779296875</AltitudeMeters>
            <DistanceMeters>NAN</DistanceMeters>
          </Trackpoint>
          <Trackpoint>
            <Time>2022-09-20T09:38:09.000Z</Time>
            <Position>
              <LatitudeDegrees>49.45414267480373382568359375</LatitudeDegrees>
              <LongitudeDegrees>20.231058038771152496337890625</LongitudeDegrees>
            </Position>
            <AltitudeMeters>519.79998779296875</AltitudeMeters>
            <DistanceMeters>NAN</DistanceMeters>
          </Trackpoint>
          <Trackpoint>
            <Time>2022-09-20T09:38:18.000Z</Time>
            <Position>
              <LatitudeDegrees>49.45394109003245830535888671875</LatitudeDegrees>
              <LongitudeDegrees>20.2314997650682926177978515625</LongitudeDegrees>
            </Position>
            <AltitudeMeters>519.5999755859375</AltitudeMeters>
            <DistanceMeters>NAN</DistanceMeters>
          </Trackpoint>
          <Trackpoint>
            <Time>2022-09-20T09:38:21.000Z</Time>
            <Position>
              <LatitudeDegrees>49.4538669101893901824951171875</LatitudeDegrees>
              <LongitudeDegrees>20.2316115796566009521484375</LongitudeDegrees>
            </Position>
            <AltitudeMeters>519.5999755859375</AltitudeMeters>
            <DistanceMeters>NAN</DistanceMeters>
          </Trackpoint>
          <Trackpoint>
            <Time>2022-09-20T09:38:26.000Z</Time>
            <Position>
              <LatitudeDegrees>49.4537136889994144439697265625</LatitudeDegrees>
              <LongitudeDegrees>20.23179707117378711700439453125</LongitudeDegrees>
            </Position>
            <AltitudeMeters>519.5999755859375</AltitudeMeters>
            <DistanceMeters>NAN</DistanceMeters>
          </Trackpoint>
          <Trackpoint>
            <Time>2022-09-20T09:38:29.000Z</Time>
            <Position>
              <LatitudeDegrees>49.45360966958105564117431640625</LatitudeDegrees>
              <LongitudeDegrees>20.2319071255624294281005859375</LongitudeDegrees>
            </Position>
            <AltitudeMeters>519.5999755859375</AltitudeMeters>
            <DistanceMeters>NAN</DistanceMeters>
          </Trackpoint>
          <Trackpoint>
            <Time>2022-09-20T09:38:34.000Z</Time>
            <Position>
              <LatitudeDegrees>49.45342007093131542205810546875</LatitudeDegrees>
              <LongitudeDegrees>20.23210309445858001708984375</LongitudeDegrees>
            </Position>
            <AltitudeMeters>519.5999755859375</AltitudeMeters>
            <DistanceMeters>NAN</DistanceMeters>
          </Trackpoint>
          <Trackpoint>
            <Time>2022-09-20T09:38:41.000Z</Time>
            <Position>
              <LatitudeDegrees>49.45313877426087856292724609375</LatitudeDegrees>
              <LongitudeDegrees>20.2323974668979644775390625</LongitudeDegrees>
            </Position>
            <AltitudeMeters>519.79998779296875</AltitudeMeters>
            <DistanceMeters>NAN</DistanceMeters>
          </Trackpoint>
          <Trackpoint>
            <Time>2022-09-20T09:38:42.000Z</Time>
            <Position>
              <LatitudeDegrees>49.45313877426087856292724609375</LatitudeDegrees>
              <LongitudeDegrees>20.2323974668979644775390625</LongitudeDegrees>
            </Position>
            <AltitudeMeters>519.79998779296875</AltitudeMeters>
            <DistanceMeters>NAN</DistanceMeters>
          </Trackpoint>
          <Trackpoint>
            <Time>2022-09-20T09:38:44.000Z</Time>
            <Position>
              <LatitudeDegrees>49.4530280493199825286865234375</LatitudeDegrees>
              <LongitudeDegrees>20.23251338861882686614990234375</LongitudeDegrees>
            </Position>
            <AltitudeMeters>519.79998779296875</AltitudeMeters>
            <DistanceMeters>NAN</DistanceMeters>
          </Trackpoint>
          <Trackpoint>
            <Time>2022-09-20T09:38:51.000Z</Time>
            <Position>
              <LatitudeDegrees>49.45274482481181621551513671875</LatitudeDegrees>
              <LongitudeDegrees>20.23280641995370388031005859375</LongitudeDegrees>
            </Position>
            <AltitudeMeters>519.5999755859375</AltitudeMeters>
            <DistanceMeters>NAN</DistanceMeters>
          </Trackpoint>
          <Trackpoint>
            <Time>2022-09-20T09:38:55.000Z</Time>
            <Position>
              <LatitudeDegrees>49.4525729119777679443359375</LatitudeDegrees>
              <LongitudeDegrees>20.2329857088625431060791015625</LongitudeDegrees>
            </Position>
            <AltitudeMeters>519.79998779296875</AltitudeMeters>
            <DistanceMeters>NAN</DistanceMeters>
          </Trackpoint>
          <Trackpoint>
            <Time>2022-09-20T09:39:03.000Z</Time>
            <Position>
              <LatitudeDegrees>49.45227853953838348388671875</LatitudeDegrees>
              <LongitudeDegrees>20.233346633613109588623046875</LongitudeDegrees>
            </Position>
            <AltitudeMeters>520</AltitudeMeters>
            <DistanceMeters>NAN</DistanceMeters>
          </Trackpoint>
          <Trackpoint>
            <Time>2022-09-20T09:39:12.000Z</Time>
            <Position>
              <LatitudeDegrees>49.45201425813138484954833984375</LatitudeDegrees>
              <LongitudeDegrees>20.233852230012416839599609375</LongitudeDegrees>
            </Position>
            <AltitudeMeters>520</AltitudeMeters>
            <DistanceMeters>NAN</DistanceMeters>
          </Trackpoint>
          <Trackpoint>
            <Time>2022-09-20T09:39:20.000Z</Time>
            <Position>
              <LatitudeDegrees>49.4517969153821468353271484375</LatitudeDegrees>
              <LongitudeDegrees>20.23438238538801670074462890625</LongitudeDegrees>
            </Position>
            <AltitudeMeters>520</AltitudeMeters>
            <DistanceMeters>NAN</DistanceMeters>
          </Trackpoint>
          <Trackpoint>
            <Time>2022-09-20T09:39:21.000Z</Time>
            <Position>
              <LatitudeDegrees>49.45177185349166393280029296875</LatitudeDegrees>
              <LongitudeDegrees>20.234446339309215545654296875</LongitudeDegrees>
            </Position>
            <AltitudeMeters>520</AltitudeMeters>
            <DistanceMeters>NAN</DistanceMeters>
          </Trackpoint>
          <Trackpoint>
            <Time>2022-09-20T09:39:27.000Z</Time>
            <Position>
              <LatitudeDegrees>49.45163472555577754974365234375</LatitudeDegrees>
              <LongitudeDegrees>20.23480005562305450439453125</LongitudeDegrees>
            </Position>
            <AltitudeMeters>520</AltitudeMeters>
            <DistanceMeters>NAN</DistanceMeters>
          </Trackpoint>
          <Trackpoint>
            <Time>2022-09-20T09:39:29.000Z</Time>
            <Position>
              <LatitudeDegrees>49.45158460177481174468994140625</LatitudeDegrees>
              <LongitudeDegrees>20.23492955602705478668212890625</LongitudeDegrees>
            </Position>
            <AltitudeMeters>520</AltitudeMeters>
            <DistanceMeters>NAN</DistanceMeters>
          </Trackpoint>
          <Trackpoint>
            <Time>2022-09-20T09:39:37.000Z</Time>
            <Position>
              <LatitudeDegrees>49.4513617269694805145263671875</LatitudeDegrees>
              <LongitudeDegrees>20.23542241193354129791259765625</LongitudeDegrees>
            </Position>
            <AltitudeMeters>520</AltitudeMeters>
            <DistanceMeters>NAN</DistanceMeters>
          </Trackpoint>
          <Trackpoint>
            <Time>2022-09-20T09:39:44.000Z</Time>
            <Position>
              <LatitudeDegrees>49.45110633037984371185302734375</LatitudeDegrees>
              <LongitudeDegrees>20.23582172580063343048095703125</LongitudeDegrees>
            </Position>
            <AltitudeMeters>519.79998779296875</AltitudeMeters>
            <DistanceMeters>NAN</DistanceMeters>
          </Trackpoint>
          <Trackpoint>
            <Time>2022-09-20T09:39:52.000Z</Time>
            <Position>
              <LatitudeDegrees>49.450805000960826873779296875</LatitudeDegrees>
              <LongitudeDegrees>20.2361552417278289794921875</LongitudeDegrees>
            </Position>
            <AltitudeMeters>519.79998779296875</AltitudeMeters>
            <DistanceMeters>NAN</DistanceMeters>
          </Trackpoint>
          <Trackpoint>
            <Time>2022-09-20T09:39:55.000Z</Time>
            <Position>
              <LatitudeDegrees>49.45067449472844600677490234375</LatitudeDegrees>
              <LongitudeDegrees>20.2362732589244842529296875</LongitudeDegrees>
            </Position>
            <AltitudeMeters>519.79998779296875</AltitudeMeters>
            <DistanceMeters>NAN</DistanceMeters>
          </Trackpoint>
          <Trackpoint>
            <Time>2022-09-20T09:39:58.000Z</Time>
            <Position>
              <LatitudeDegrees>49.45054113864898681640625</LatitudeDegrees>
              <LongitudeDegrees>20.23639865219593048095703125</LongitudeDegrees>
            </Position>
            <AltitudeMeters>519.79998779296875</AltitudeMeters>
            <DistanceMeters>NAN</DistanceMeters>
          </Trackpoint>
          <Trackpoint>
            <Time>2022-09-20T09:40:03.000Z</Time>
            <Position>
              <LatitudeDegrees>49.4503297470510005950927734375</LatitudeDegrees>
              <LongitudeDegrees>20.23659403435885906219482421875</LongitudeDegrees>
            </Position>
            <AltitudeMeters>520</AltitudeMeters>
            <DistanceMeters>NAN</DistanceMeters>
          </Trackpoint>
          <Trackpoint>
            <Time>2022-09-20T09:40:06.000Z</Time>
            <Position>
              <LatitudeDegrees>49.45021332241594791412353515625</LatitudeDegrees>
              <LongitudeDegrees>20.23670132271945476531982421875</LongitudeDegrees>
            </Position>
            <AltitudeMeters>520</AltitudeMeters>
            <DistanceMeters>NAN</DistanceMeters>
          </Trackpoint>
          <Trackpoint>
            <Time>2022-09-20T09:40:07.000Z</Time>
            <Position>
              <LatitudeDegrees>49.45017426274716854095458984375</LatitudeDegrees>
              <LongitudeDegrees>20.23673619143664836883544921875</LongitudeDegrees>
            </Position>
            <AltitudeMeters>520</AltitudeMeters>
            <DistanceMeters>NAN</DistanceMeters>
          </Trackpoint>
          <Trackpoint>
            <Time>2022-09-20T09:40:09.000Z</Time>
            <Position>
              <LatitudeDegrees>49.450098238885402679443359375</LatitudeDegrees>
              <LongitudeDegrees>20.2368058450520038604736328125</LongitudeDegrees>
            </Position>
            <AltitudeMeters>520</AltitudeMeters>
            <DistanceMeters>NAN</DistanceMeters>
          </Trackpoint>
          <Trackpoint>
            <Time>2022-09-20T09:40:10.000Z</Time>
            <Position>
              <LatitudeDegrees>49.45006395690143108367919921875</LatitudeDegrees>
              <LongitudeDegrees>20.2368393726646900177001953125</LongitudeDegrees>
            </Position>
            <AltitudeMeters>520</AltitudeMeters>
            <DistanceMeters>NAN</DistanceMeters>
          </Trackpoint>
          <Trackpoint>
            <Time>2022-09-20T09:40:11.000Z</Time>
            <Position>
              <LatitudeDegrees>49.45003210566937923431396484375</LatitudeDegrees>
              <LongitudeDegrees>20.23687072098255157470703125</LongitudeDegrees>
            </Position>
            <AltitudeMeters>520</AltitudeMeters>
            <DistanceMeters>NAN</DistanceMeters>
          </Trackpoint>
          <Trackpoint>
            <Time>2022-09-20T09:40:21.000Z</Time>
            <Position>
              <LatitudeDegrees>49.4496414251625537872314453125</LatitudeDegrees>
              <LongitudeDegrees>20.2372348308563232421875</LongitudeDegrees>
            </Position>
            <AltitudeMeters>520</AltitudeMeters>
            <DistanceMeters>NAN</DistanceMeters>
          </Trackpoint>
          <Trackpoint>
            <Time>2022-09-20T09:40:24.000Z</Time>
            <Position>
              <LatitudeDegrees>49.4495103321969509124755859375</LatitudeDegrees>
              <LongitudeDegrees>20.2373496629297733306884765625</LongitudeDegrees>
            </Position>
            <AltitudeMeters>520</AltitudeMeters>
            <DistanceMeters>NAN</DistanceMeters>
          </Trackpoint>
          <Trackpoint>
            <Time>2022-09-20T09:40:30.000Z</Time>
            <Position>
              <LatitudeDegrees>49.44926180876791477203369140625</LatitudeDegrees>
              <LongitudeDegrees>20.23757605813443660736083984375</LongitudeDegrees>
            </Position>
            <AltitudeMeters>520</AltitudeMeters>
            <DistanceMeters>NAN</DistanceMeters>
          </Trackpoint>
          <Trackpoint>
            <Time>2022-09-20T09:40:36.000Z</Time>
            <Position>
              <LatitudeDegrees>49.44903516210615634918212890625</LatitudeDegrees>
              <LongitudeDegrees>20.2377982623875141143798828125</LongitudeDegrees>
            </Position>
            <AltitudeMeters>520</AltitudeMeters>
            <DistanceMeters>NAN</DistanceMeters>
          </Trackpoint>
          <Trackpoint>
            <Time>2022-09-20T09:40:39.000Z</Time>
            <Position>
              <LatitudeDegrees>49.44891412742435932159423828125</LatitudeDegrees>
              <LongitudeDegrees>20.23790873587131500244140625</LongitudeDegrees>
            </Position>
            <AltitudeMeters>520</AltitudeMeters>
            <DistanceMeters>NAN</DistanceMeters>
          </Trackpoint>
          <Trackpoint>
            <Time>2022-09-20T09:40:48.000Z</Time>
            <Position>
              <LatitudeDegrees>49.44858136586844921112060546875</LatitudeDegrees>
              <LongitudeDegrees>20.23821140639483928680419921875</LongitudeDegrees>
            </Position>
            <AltitudeMeters>520</AltitudeMeters>
            <DistanceMeters>NAN</DistanceMeters>
          </Trackpoint>
          <Trackpoint>
            <Time>2022-09-20T09:40:50.000Z</Time>
            <Position>
              <LatitudeDegrees>49.4485138915479183197021484375</LatitudeDegrees>
              <LongitudeDegrees>20.23827762342989444732666015625</LongitudeDegrees>
            </Position>
            <AltitudeMeters>520</AltitudeMeters>
            <DistanceMeters>NAN</DistanceMeters>
          </Trackpoint>
          <Trackpoint>
            <Time>2022-09-20T09:40:57.000Z</Time>
            <Position>
              <LatitudeDegrees>49.44828875362873077392578125</LatitudeDegrees>
              <LongitudeDegrees>20.2384782023727893829345703125</LongitudeDegrees>
            </Position>
            <AltitudeMeters>520</AltitudeMeters>
            <DistanceMeters>NAN</DistanceMeters>
          </Trackpoint>
          <Trackpoint>
            <Time>2022-09-20T09:41:05.000Z</Time>
            <Position>
              <LatitudeDegrees>49.44802547805011272430419921875</LatitudeDegrees>
              <LongitudeDegrees>20.23871549405157566070556640625</LongitudeDegrees>
            </Position>
            <AltitudeMeters>520</AltitudeMeters>
            <DistanceMeters>NAN</DistanceMeters>
          </Trackpoint>
          <Trackpoint>
            <Time>2022-09-20T09:41:13.000Z</Time>
            <Position>
              <LatitudeDegrees>49.4477273337543010711669921875</LatitudeDegrees>
              <LongitudeDegrees>20.238868631422519683837890625</LongitudeDegrees>
            </Position>
            <AltitudeMeters>519.79998779296875</AltitudeMeters>
            <DistanceMeters>NAN</DistanceMeters>
          </Trackpoint>
          <Trackpoint>
            <Time>2022-09-20T09:41:20.000Z</Time>
            <Position>
              <LatitudeDegrees>49.44744897074997425079345703125</LatitudeDegrees>
              <LongitudeDegrees>20.23885915987193584442138671875</LongitudeDegrees>
            </Position>
            <AltitudeMeters>520.4000244140625</AltitudeMeters>
            <DistanceMeters>NAN</DistanceMeters>
          </Trackpoint>
          <Trackpoint>
            <Time>2022-09-20T09:41:22.000Z</Time>
            <Position>
              <LatitudeDegrees>49.447373114526271820068359375</LatitudeDegrees>
              <LongitudeDegrees>20.2388322539627552032470703125</LongitudeDegrees>
            </Position>
            <AltitudeMeters>520.4000244140625</AltitudeMeters>
            <DistanceMeters>NAN</DistanceMeters>
          </Trackpoint>
          <Trackpoint>
            <Time>2022-09-20T09:41:29.000Z</Time>
            <Position>
              <LatitudeDegrees>49.44713540375232696533203125</LatitudeDegrees>
              <LongitudeDegrees>20.238725133240222930908203125</LongitudeDegrees>
            </Position>
            <AltitudeMeters>520.4000244140625</AltitudeMeters>
            <DistanceMeters>NAN</DistanceMeters>
          </Trackpoint>
          <Trackpoint>
            <Time>2022-09-20T09:41:36.000Z</Time>
            <Position>
              <LatitudeDegrees>49.44693901576101779937744140625</LatitudeDegrees>
              <LongitudeDegrees>20.23862547241151332855224609375</LongitudeDegrees>
            </Position>
            <AltitudeMeters>520</AltitudeMeters>
            <DistanceMeters>NAN</DistanceMeters>
          </Trackpoint>
          <Trackpoint>
            <Time>2022-09-20T09:41:38.000Z</Time>
            <Position>
              <LatitudeDegrees>49.4468884728848934173583984375</LatitudeDegrees>
              <LongitudeDegrees>20.2385985665023326873779296875</LongitudeDegrees>
            </Position>
            <AltitudeMeters>520</AltitudeMeters>
            <DistanceMeters>NAN</DistanceMeters>
          </Trackpoint>
          <Trackpoint>
            <Time>2022-09-20T09:41:40.000Z</Time>
            <Position>
              <LatitudeDegrees>49.446844048798084259033203125</LatitudeDegrees>
              <LongitudeDegrees>20.23858129978179931640625</LongitudeDegrees>
            </Position>
            <AltitudeMeters>520</AltitudeMeters>
            <DistanceMeters>NAN</DistanceMeters>
          </Trackpoint>
          <Trackpoint>
            <Time>2022-09-20T09:41:42.000Z</Time>
            <Position>
              <LatitudeDegrees>49.4468080066144466400146484375</LatitudeDegrees>
              <LongitudeDegrees>20.23856176994740962982177734375</LongitudeDegrees>
            </Position>
            <AltitudeMeters>520</AltitudeMeters>
            <DistanceMeters>NAN</DistanceMeters>
          </Trackpoint>
          <Trackpoint>
            <Time>2022-09-20T09:41:43.000Z</Time>
            <Position>
              <LatitudeDegrees>49.44679082371294498443603515625</LatitudeDegrees>
              <LongitudeDegrees>20.23854450322687625885009765625</LongitudeDegrees>
            </Position>
            <AltitudeMeters>520</AltitudeMeters>
            <DistanceMeters>NAN</DistanceMeters>
          </Trackpoint>
          <Trackpoint>
            <Time>2022-09-20T09:41:48.000Z</Time>
            <Position>
              <LatitudeDegrees>49.4467399455606937408447265625</LatitudeDegrees>
              <LongitudeDegrees>20.238491110503673553466796875</LongitudeDegrees>
            </Position>
            <AltitudeMeters>519.79998779296875</AltitudeMeters>
            <DistanceMeters>NAN</DistanceMeters>
          </Trackpoint>
          <Trackpoint>
            <Time>2022-09-20T09:41:53.000Z</Time>
            <Position>
              <LatitudeDegrees>49.4467456452548503875732421875</LatitudeDegrees>
              <LongitudeDegrees>20.23849203251302242279052734375</LongitudeDegrees>
            </Position>
            <AltitudeMeters>519</AltitudeMeters>
            <DistanceMeters>NAN</DistanceMeters>
          </Trackpoint>
          <Trackpoint>
            <Time>2022-09-20T09:41:54.000Z</Time>
            <Position>
              <LatitudeDegrees>49.4467456452548503875732421875</LatitudeDegrees>
              <LongitudeDegrees>20.23849203251302242279052734375</LongitudeDegrees>
            </Position>
            <AltitudeMeters>519</AltitudeMeters>
            <DistanceMeters>NAN</DistanceMeters>
          </Trackpoint>
          <Trackpoint>
            <Time>2022-09-20T09:42:01.000Z</Time>
            <Position>
              <LatitudeDegrees>49.4467456452548503875732421875</LatitudeDegrees>
              <LongitudeDegrees>20.23849203251302242279052734375</LongitudeDegrees>
            </Position>
            <AltitudeMeters>519</AltitudeMeters>
            <DistanceMeters>NAN</DistanceMeters>
          </Trackpoint>
          <Trackpoint>
            <Time>2022-09-20T09:42:23.000Z</Time>
            <Position>
              <LatitudeDegrees>49.4467439688742160797119140625</LatitudeDegrees>
              <LongitudeDegrees>20.23849345743656158447265625</LongitudeDegrees>
            </Position>
            <AltitudeMeters>519</AltitudeMeters>
            <DistanceMeters>NAN</DistanceMeters>
          </Trackpoint>
          <Trackpoint>
            <Time>2022-09-20T09:42:26.000Z</Time>
            <Position>
              <LatitudeDegrees>49.4467034004628658294677734375</LatitudeDegrees>
              <LongitudeDegrees>20.238488428294658660888671875</LongitudeDegrees>
            </Position>
            <AltitudeMeters>519</AltitudeMeters>
            <DistanceMeters>NAN</DistanceMeters>
          </Trackpoint>
          <Trackpoint>
            <Time>2022-09-20T09:42:32.000Z</Time>
            <Position>
              <LatitudeDegrees>49.4465743191540241241455078125</LatitudeDegrees>
              <LongitudeDegrees>20.23845297284424304962158203125</LongitudeDegrees>
            </Position>
            <AltitudeMeters>519</AltitudeMeters>
            <DistanceMeters>NAN</DistanceMeters>
          </Trackpoint>
          <Trackpoint>
            <Time>2022-09-20T09:42:40.000Z</Time>
            <Position>
              <LatitudeDegrees>49.446428976953029632568359375</LatitudeDegrees>
              <LongitudeDegrees>20.2383786253631114959716796875</LongitudeDegrees>
            </Position>
            <AltitudeMeters>519.20001220703125</AltitudeMeters>
            <DistanceMeters>NAN</DistanceMeters>
          </Trackpoint>
          <Trackpoint>
            <Time>2022-09-20T09:42:47.000Z</Time>
            <Position>
              <LatitudeDegrees>49.44631188176572322845458984375</LatitudeDegrees>
              <LongitudeDegrees>20.23831903003156185150146484375</LongitudeDegrees>
            </Position>
            <AltitudeMeters>519</AltitudeMeters>
            <DistanceMeters>NAN</DistanceMeters>
          </Trackpoint>
          <Trackpoint>
            <Time>2022-09-20T09:42:50.000Z</Time>
            <Position>
              <LatitudeDegrees>49.446250610053539276123046875</LatitudeDegrees>
              <LongitudeDegrees>20.2382891066372394561767578125</LongitudeDegrees>
            </Position>
            <AltitudeMeters>519</AltitudeMeters>
            <DistanceMeters>NAN</DistanceMeters>
          </Trackpoint>
          <Trackpoint>
            <Time>2022-09-20T09:42:57.000Z</Time>
            <Position>
              <LatitudeDegrees>49.44610702805221080780029296875</LatitudeDegrees>
              <LongitudeDegrees>20.23822951130568981170654296875</LongitudeDegrees>
            </Position>
            <AltitudeMeters>519</AltitudeMeters>
            <DistanceMeters>NAN</DistanceMeters>
          </Trackpoint>
          <Trackpoint>
            <Time>2022-09-20T09:43:05.000Z</Time>
            <Position>
              <LatitudeDegrees>49.4459366239607334136962890625</LatitudeDegrees>
              <LongitudeDegrees>20.2381452731788158416748046875</LongitudeDegrees>
            </Position>
            <AltitudeMeters>519</AltitudeMeters>
            <DistanceMeters>NAN</DistanceMeters>
          </Trackpoint>
          <Trackpoint>
            <Time>2022-09-20T09:43:08.000Z</Time>
            <Position>
              <LatitudeDegrees>49.4458377175033092498779296875</LatitudeDegrees>
              <LongitudeDegrees>20.23810026235878467559814453125</LongitudeDegrees>
            </Position>
            <AltitudeMeters>519</AltitudeMeters>
            <DistanceMeters>NAN</DistanceMeters>
          </Trackpoint>
          <Trackpoint>
            <Time>2022-09-20T09:43:12.000Z</Time>
            <Position>
              <LatitudeDegrees>49.44572514854371547698974609375</LatitudeDegrees>
              <LongitudeDegrees>20.2380569279193878173828125</LongitudeDegrees>
            </Position>
            <AltitudeMeters>519</AltitudeMeters>
            <DistanceMeters>NAN</DistanceMeters>
          </Trackpoint>
          <Trackpoint>
            <Time>2022-09-20T09:43:22.000Z</Time>
            <Position>
              <LatitudeDegrees>49.4455017708241939544677734375</LatitudeDegrees>
              <LongitudeDegrees>20.23794955573976039886474609375</LongitudeDegrees>
            </Position>
            <AltitudeMeters>519</AltitudeMeters>
            <DistanceMeters>NAN</DistanceMeters>
          </Trackpoint>
          <Trackpoint>
            <Time>2022-09-20T09:43:24.000Z</Time>
            <Position>
              <LatitudeDegrees>49.44545642472803592681884765625</LatitudeDegrees>
              <LongitudeDegrees>20.237927846610546112060546875</LongitudeDegrees>
            </Position>
            <AltitudeMeters>519</AltitudeMeters>
            <DistanceMeters>NAN</DistanceMeters>
          </Trackpoint>
          <Trackpoint>
            <Time>2022-09-20T09:43:31.000Z</Time>
            <Position>
              <LatitudeDegrees>49.4453079812228679656982421875</LatitudeDegrees>
              <LongitudeDegrees>20.23786121048033237457275390625</LongitudeDegrees>
            </Position>
            <AltitudeMeters>518.5999755859375</AltitudeMeters>
            <DistanceMeters>NAN</DistanceMeters>
          </Trackpoint>
          <Trackpoint>
            <Time>2022-09-20T09:43:38.000Z</Time>
            <Position>
              <LatitudeDegrees>49.44518149830400943756103515625</LatitudeDegrees>
              <LongitudeDegrees>20.23782022297382354736328125</LongitudeDegrees>
            </Position>
            <AltitudeMeters>518.79998779296875</AltitudeMeters>
            <DistanceMeters>NAN</DistanceMeters>
          </Trackpoint>
          <Trackpoint>
            <Time>2022-09-20T09:43:39.000Z</Time>
            <Position>
              <LatitudeDegrees>49.4451618008315563201904296875</LatitudeDegrees>
              <LongitudeDegrees>20.23781443946063518524169921875</LongitudeDegrees>
            </Position>
            <AltitudeMeters>518.79998779296875</AltitudeMeters>
            <DistanceMeters>NAN</DistanceMeters>
          </Trackpoint>
          <Trackpoint>
            <Time>2022-09-20T09:43:41.000Z</Time>
            <Position>
              <LatitudeDegrees>49.445123411715030670166015625</LatitudeDegrees>
              <LongitudeDegrees>20.23779784329235553741455078125</LongitudeDegrees>
            </Position>
            <AltitudeMeters>519</AltitudeMeters>
            <DistanceMeters>NAN</DistanceMeters>
          </Trackpoint>
          <Trackpoint>
            <Time>2022-09-20T09:43:42.000Z</Time>
            <Position>
              <LatitudeDegrees>49.4451051391661167144775390625</LatitudeDegrees>
              <LongitudeDegrees>20.2377895452082157135009765625</LongitudeDegrees>
            </Position>
            <AltitudeMeters>519</AltitudeMeters>
            <DistanceMeters>NAN</DistanceMeters>
          </Trackpoint>
          <Trackpoint>
            <Time>2022-09-20T09:43:47.000Z</Time>
            <Position>
              <LatitudeDegrees>49.44503121078014373779296875</LatitudeDegrees>
              <LongitudeDegrees>20.2377302013337612152099609375</LongitudeDegrees>
            </Position>
            <AltitudeMeters>519</AltitudeMeters>
            <DistanceMeters>NAN</DistanceMeters>
          </Trackpoint>
          <Trackpoint>
            <Time>2022-09-20T09:43:51.000Z</Time>
            <Position>
              <LatitudeDegrees>49.4449596293270587921142578125</LatitudeDegrees>
              <LongitudeDegrees>20.23770463652908802032470703125</LongitudeDegrees>
            </Position>
            <AltitudeMeters>518.79998779296875</AltitudeMeters>
            <DistanceMeters>NAN</DistanceMeters>
          </Trackpoint>
          <Trackpoint>
            <Time>2022-09-20T09:43:55.000Z</Time>
            <Position>
              <LatitudeDegrees>49.44488310255110263824462890625</LatitudeDegrees>
              <LongitudeDegrees>20.2376701869070529937744140625</LongitudeDegrees>
            </Position>
            <AltitudeMeters>518.79998779296875</AltitudeMeters>
            <DistanceMeters>NAN</DistanceMeters>
          </Trackpoint>
          <Trackpoint>
            <Time>2022-09-20T09:44:05.000Z</Time>
            <Position>
              <LatitudeDegrees>49.444670788943767547607421875</LatitudeDegrees>
              <LongitudeDegrees>20.2375783212482929229736328125</LongitudeDegrees>
            </Position>
            <AltitudeMeters>518.79998779296875</AltitudeMeters>
            <DistanceMeters>NAN</DistanceMeters>
          </Trackpoint>
          <Trackpoint>
            <Time>2022-09-20T09:44:12.000Z</Time>
            <Position>
              <LatitudeDegrees>49.444547407329082489013671875</LatitudeDegrees>
              <LongitudeDegrees>20.237529538571834564208984375</LongitudeDegrees>
            </Position>
            <AltitudeMeters>518.79998779296875</AltitudeMeters>
            <DistanceMeters>NAN</DistanceMeters>
          </Trackpoint>
          <Trackpoint>
            <Time>2022-09-20T09:44:13.000Z</Time>
            <Position>
              <LatitudeDegrees>49.44453357718884944915771484375</LatitudeDegrees>
              <LongitudeDegrees>20.23751772008836269378662109375</LongitudeDegrees>
            </Position>
            <AltitudeMeters>518.79998779296875</AltitudeMeters>
            <DistanceMeters>NAN</DistanceMeters>
          </Trackpoint>
          <Trackpoint>
            <Time>2022-09-20T09:44:19.000Z</Time>
            <Position>
              <LatitudeDegrees>49.44443265907466411590576171875</LatitudeDegrees>
              <LongitudeDegrees>20.23748494684696197509765625</LongitudeDegrees>
            </Position>
            <AltitudeMeters>518.79998779296875</AltitudeMeters>
            <DistanceMeters>NAN</DistanceMeters>
          </Trackpoint>
          <Trackpoint>
            <Time>2022-09-20T09:44:27.000Z</Time>
            <Position>
              <LatitudeDegrees>49.444266445934772491455078125</LatitudeDegrees>
              <LongitudeDegrees>20.23740179836750030517578125</LongitudeDegrees>
            </Position>
            <AltitudeMeters>518.79998779296875</AltitudeMeters>
            <DistanceMeters>NAN</DistanceMeters>
          </Trackpoint>
          <Trackpoint>
            <Time>2022-09-20T09:44:30.000Z</Time>
            <Position>
              <LatitudeDegrees>49.444203414022922515869140625</LatitudeDegrees>
              <LongitudeDegrees>20.2373640798032283782958984375</LongitudeDegrees>
            </Position>
            <AltitudeMeters>518.79998779296875</AltitudeMeters>
            <DistanceMeters>NAN</DistanceMeters>
          </Trackpoint>
          <Trackpoint>
            <Time>2022-09-20T09:44:32.000Z</Time>
            <Position>
              <LatitudeDegrees>49.4441834650933742523193359375</LatitudeDegrees>
              <LongitudeDegrees>20.237351842224597930908203125</LongitudeDegrees>
            </Position>
            <AltitudeMeters>518.5999755859375</AltitudeMeters>
            <DistanceMeters>NAN</DistanceMeters>
          </Trackpoint>
          <Trackpoint>
            <Time>2022-09-20T09:44:35.000Z</Time>
            <Position>
              <LatitudeDegrees>49.444122277200222015380859375</LatitudeDegrees>
              <LongitudeDegrees>20.23733130656182765960693359375</LongitudeDegrees>
            </Position>
            <AltitudeMeters>518.5999755859375</AltitudeMeters>
            <DistanceMeters>NAN</DistanceMeters>
          </Trackpoint>
          <Trackpoint>
            <Time>2022-09-20T09:44:36.000Z</Time>
            <Position>
              <LatitudeDegrees>49.44408237934112548828125</LatitudeDegrees>
              <LongitudeDegrees>20.23731437511742115020751953125</LongitudeDegrees>
            </Position>
            <AltitudeMeters>518.5999755859375</AltitudeMeters>
            <DistanceMeters>NAN</DistanceMeters>
          </Trackpoint>
          <Trackpoint>
            <Time>2022-09-20T09:44:44.000Z</Time>
            <Position>
              <LatitudeDegrees>49.44392840377986431121826171875</LatitudeDegrees>
              <LongitudeDegrees>20.2372266165912151336669921875</LongitudeDegrees>
            </Position>
            <AltitudeMeters>518.5999755859375</AltitudeMeters>
            <DistanceMeters>NAN</DistanceMeters>
          </Trackpoint>
          <Trackpoint>
            <Time>2022-09-20T09:44:48.000Z</Time>
            <Position>
              <LatitudeDegrees>49.443868137896060943603515625</LatitudeDegrees>
              <LongitudeDegrees>20.23719535209238529205322265625</LongitudeDegrees>
            </Position>
            <AltitudeMeters>518.5999755859375</AltitudeMeters>
            <DistanceMeters>NAN</DistanceMeters>
          </Trackpoint>
          <Trackpoint>
            <Time>2022-09-20T09:44:51.000Z</Time>
            <Position>
              <LatitudeDegrees>49.4438128173351287841796875</LatitudeDegrees>
              <LongitudeDegrees>20.237179510295391082763671875</LongitudeDegrees>
            </Position>
            <AltitudeMeters>518.79998779296875</AltitudeMeters>
            <DistanceMeters>NAN</DistanceMeters>
          </Trackpoint>
          <Trackpoint>
            <Time>2022-09-20T09:45:01.000Z</Time>
            <Position>
              <LatitudeDegrees>49.44361005909740924835205078125</LatitudeDegrees>
              <LongitudeDegrees>20.237091667950153350830078125</LongitudeDegrees>
            </Position>
            <AltitudeMeters>518.79998779296875</AltitudeMeters>
            <DistanceMeters>NAN</DistanceMeters>
          </Trackpoint>
          <Trackpoint>
            <Time>2022-09-20T09:45:09.000Z</Time>
            <Position>
              <LatitudeDegrees>49.443473517894744873046875</LatitudeDegrees>
              <LongitudeDegrees>20.2370204217731952667236328125</LongitudeDegrees>
            </Position>
            <AltitudeMeters>518.79998779296875</AltitudeMeters>
            <DistanceMeters>NAN</DistanceMeters>
          </Trackpoint>
          <Trackpoint>
            <Time>2022-09-20T09:45:16.000Z</Time>
            <Position>
              <LatitudeDegrees>49.44338542409241199493408203125</LatitudeDegrees>
              <LongitudeDegrees>20.2369711361825466156005859375</LongitudeDegrees>
            </Position>
            <AltitudeMeters>518.5999755859375</AltitudeMeters>
            <DistanceMeters>NAN</DistanceMeters>
          </Trackpoint>
          <Trackpoint>
            <Time>2022-09-20T09:45:17.000Z</Time>
            <Position>
              <LatitudeDegrees>49.4433737732470035552978515625</LatitudeDegrees>
              <LongitudeDegrees>20.2369661070406436920166015625</LongitudeDegrees>
            </Position>
            <AltitudeMeters>518.5999755859375</AltitudeMeters>
            <DistanceMeters>NAN</DistanceMeters>
          </Trackpoint>
          <Trackpoint>
            <Time>2022-09-20T09:45:27.000Z</Time>
            <Position>
              <LatitudeDegrees>49.44324376992881298065185546875</LatitudeDegrees>
              <LongitudeDegrees>20.236911959946155548095703125</LongitudeDegrees>
            </Position>
            <AltitudeMeters>518.79998779296875</AltitudeMeters>
            <DistanceMeters>NAN</DistanceMeters>
          </Trackpoint>
          <Trackpoint>
            <Time>2022-09-20T09:45:33.000Z</Time>
            <Position>
              <LatitudeDegrees>49.4431323744356632232666015625</LatitudeDegrees>
              <LongitudeDegrees>20.23686376400291919708251953125</LongitudeDegrees>
            </Position>
            <AltitudeMeters>518.79998779296875</AltitudeMeters>
            <DistanceMeters>NAN</DistanceMeters>
          </Trackpoint>
          <Trackpoint>
            <Time>2022-09-20T09:45:40.000Z</Time>
            <Position>
              <LatitudeDegrees>49.443026594817638397216796875</LatitudeDegrees>
              <LongitudeDegrees>20.23681783117353916168212890625</LongitudeDegrees>
            </Position>
            <AltitudeMeters>518.4000244140625</AltitudeMeters>
            <DistanceMeters>NAN</DistanceMeters>
          </Trackpoint>
          <Trackpoint>
            <Time>2022-09-20T09:45:41.000Z</Time>
            <Position>
              <LatitudeDegrees>49.44301343522965908050537109375</LatitudeDegrees>
              <LongitudeDegrees>20.236806683242321014404296875</LongitudeDegrees>
            </Position>
            <AltitudeMeters>518.4000244140625</AltitudeMeters>
            <DistanceMeters>NAN</DistanceMeters>
          </Trackpoint>
          <Trackpoint>
            <Time>2022-09-20T09:45:43.000Z</Time>
            <Position>
              <LatitudeDegrees>49.44298644550144672393798828125</LatitudeDegrees>
              <LongitudeDegrees>20.236792266368865966796875</LongitudeDegrees>
            </Position>
            <AltitudeMeters>518.4000244140625</AltitudeMeters>
            <DistanceMeters>NAN</DistanceMeters>
          </Trackpoint>
          <Trackpoint>
            <Time>2022-09-20T09:45:48.000Z</Time>
            <Position>
              <LatitudeDegrees>49.4429087452590465545654296875</LatitudeDegrees>
              <LongitudeDegrees>20.23674775846302509307861328125</LongitudeDegrees>
            </Position>
            <AltitudeMeters>518.4000244140625</AltitudeMeters>
            <DistanceMeters>NAN</DistanceMeters>
          </Trackpoint>
          <Trackpoint>
            <Time>2022-09-20T09:45:49.000Z</Time>
            <Position>
              <LatitudeDegrees>49.4428970105946063995361328125</LatitudeDegrees>
              <LongitudeDegrees>20.2367454953491687774658203125</LongitudeDegrees>
            </Position>
            <AltitudeMeters>518.4000244140625</AltitudeMeters>
            <DistanceMeters>NAN</DistanceMeters>
          </Trackpoint>
          <Trackpoint>
            <Time>2022-09-20T09:45:51.000Z</Time>
            <Position>
              <LatitudeDegrees>49.44287412799894809722900390625</LatitudeDegrees>
              <LongitudeDegrees>20.23673853836953639984130859375</LongitudeDegrees>
            </Position>
            <AltitudeMeters>518.4000244140625</AltitudeMeters>
            <DistanceMeters>NAN</DistanceMeters>
          </Trackpoint>
          <Trackpoint>
            <Time>2022-09-20T09:45:54.000Z</Time>
            <Position>
              <LatitudeDegrees>49.4428413547575473785400390625</LatitudeDegrees>
              <LongitudeDegrees>20.23671775124967098236083984375</LongitudeDegrees>
            </Position>
            <AltitudeMeters>518.4000244140625</AltitudeMeters>
            <DistanceMeters>NAN</DistanceMeters>
          </Trackpoint>
          <Trackpoint>
            <Time>2022-09-20T09:45:55.000Z</Time>
            <Position>
              <LatitudeDegrees>49.4428266026079654693603515625</LatitudeDegrees>
              <LongitudeDegrees>20.2367102913558483123779296875</LongitudeDegrees>
            </Position>
            <AltitudeMeters>518.4000244140625</AltitudeMeters>
            <DistanceMeters>NAN</DistanceMeters>
          </Trackpoint>
          <Trackpoint>
            <Time>2022-09-20T09:45:56.000Z</Time>
            <Position>
              <LatitudeDegrees>49.44281159900128841400146484375</LatitudeDegrees>
              <LongitudeDegrees>20.23670216090977191925048828125</LongitudeDegrees>
            </Position>
            <AltitudeMeters>518.5999755859375</AltitudeMeters>
            <DistanceMeters>NAN</DistanceMeters>
          </Trackpoint>
          <Trackpoint>
            <Time>2022-09-20T09:46:02.000Z</Time>
            <Position>
              <LatitudeDegrees>49.44271939806640148162841796875</LatitudeDegrees>
              <LongitudeDegrees>20.23666293360292911529541015625</LongitudeDegrees>
            </Position>
            <AltitudeMeters>518.5999755859375</AltitudeMeters>
            <DistanceMeters>NAN</DistanceMeters>
          </Trackpoint>
          <Trackpoint>
            <Time>2022-09-20T09:46:06.000Z</Time>
            <Position>
              <LatitudeDegrees>49.442639015614986419677734375</LatitudeDegrees>
              <LongitudeDegrees>20.236637704074382781982421875</LongitudeDegrees>
            </Position>
            <AltitudeMeters>518.4000244140625</AltitudeMeters>
            <DistanceMeters>NAN</DistanceMeters>
          </Trackpoint>
          <Trackpoint>
            <Time>2022-09-20T09:46:11.000Z</Time>
            <Position>
              <LatitudeDegrees>49.44256751798093318939208984375</LatitudeDegrees>
              <LongitudeDegrees>20.23654726333916187286376953125</LongitudeDegrees>
            </Position>
            <AltitudeMeters>518.4000244140625</AltitudeMeters>
            <DistanceMeters>NAN</DistanceMeters>
          </Trackpoint>
          <Trackpoint>
            <Time>2022-09-20T09:46:13.000Z</Time>
            <Position>
              <LatitudeDegrees>49.44254203699529170989990234375</LatitudeDegrees>
              <LongitudeDegrees>20.23654508404433727264404296875</LongitudeDegrees>
            </Position>
            <AltitudeMeters>518.20001220703125</AltitudeMeters>
            <DistanceMeters>NAN</DistanceMeters>
          </Trackpoint>
          <Trackpoint>
            <Time>2022-09-20T09:46:15.000Z</Time>
            <Position>
              <LatitudeDegrees>49.44253005087375640869140625</LatitudeDegrees>
              <LongitudeDegrees>20.23655287921428680419921875</LongitudeDegrees>
            </Position>
            <AltitudeMeters>518.20001220703125</AltitudeMeters>
            <DistanceMeters>NAN</DistanceMeters>
          </Trackpoint>
          <Trackpoint>
            <Time>2022-09-20T09:46:23.000Z</Time>
            <Position>
              <LatitudeDegrees>49.44243483245372772216796875</LatitudeDegrees>
              <LongitudeDegrees>20.23657224141061305999755859375</LongitudeDegrees>
            </Position>
            <AltitudeMeters>518.20001220703125</AltitudeMeters>
            <DistanceMeters>NAN</DistanceMeters>
          </Trackpoint>
          <Trackpoint>
            <Time>2022-09-20T09:46:33.000Z</Time>
            <Position>
              <LatitudeDegrees>49.44243483245372772216796875</LatitudeDegrees>
              <LongitudeDegrees>20.23657224141061305999755859375</LongitudeDegrees>
            </Position>
            <AltitudeMeters>518.20001220703125</AltitudeMeters>
            <DistanceMeters>NAN</DistanceMeters>
          </Trackpoint>
          <Trackpoint>
            <Time>2022-09-20T09:46:35.000Z</Time>
            <Position>
              <LatitudeDegrees>49.44243483245372772216796875</LatitudeDegrees>
              <LongitudeDegrees>20.23657224141061305999755859375</LongitudeDegrees>
            </Position>
            <AltitudeMeters>518.20001220703125</AltitudeMeters>
            <DistanceMeters>NAN</DistanceMeters>
          </Trackpoint>
          <Trackpoint>
            <Time>2022-09-20T09:46:38.000Z</Time>
            <Position>
              <LatitudeDegrees>49.44243483245372772216796875</LatitudeDegrees>
              <LongitudeDegrees>20.23657224141061305999755859375</LongitudeDegrees>
            </Position>
            <AltitudeMeters>518.20001220703125</AltitudeMeters>
            <DistanceMeters>NAN</DistanceMeters>
          </Trackpoint>
          <Trackpoint>
            <Time>2022-09-20T09:47:08.000Z</Time>
            <Position>
              <LatitudeDegrees>49.44243483245372772216796875</LatitudeDegrees>
              <LongitudeDegrees>20.236572325229644775390625</LongitudeDegrees>
            </Position>
            <AltitudeMeters>518</AltitudeMeters>
            <DistanceMeters>NAN</DistanceMeters>
          </Trackpoint>
          <Trackpoint>
            <Time>2022-09-20T09:47:09.000Z</Time>
            <Position>
              <LatitudeDegrees>49.44243483245372772216796875</LatitudeDegrees>
              <LongitudeDegrees>20.236572325229644775390625</LongitudeDegrees>
            </Position>
            <AltitudeMeters>518</AltitudeMeters>
            <DistanceMeters>NAN</DistanceMeters>
          </Trackpoint>
          <Trackpoint>
            <Time>2022-09-20T09:47:18.000Z</Time>
            <Position>
              <LatitudeDegrees>49.44243483245372772216796875</LatitudeDegrees>
              <LongitudeDegrees>20.236572325229644775390625</LongitudeDegrees>
            </Position>
            <AltitudeMeters>518</AltitudeMeters>
            <DistanceMeters>NAN</DistanceMeters>
          </Trackpoint>
          <Trackpoint>
            <Time>2022-09-20T09:47:25.000Z</Time>
            <Position>
              <LatitudeDegrees>49.44243483245372772216796875</LatitudeDegrees>
              <LongitudeDegrees>20.236572325229644775390625</LongitudeDegrees>
            </Position>
            <AltitudeMeters>518</AltitudeMeters>
            <DistanceMeters>NAN</DistanceMeters>
          </Trackpoint>
          <Trackpoint>
            <Time>2022-09-20T09:47:38.000Z</Time>
            <Position>
              <LatitudeDegrees>49.44243374280631542205810546875</LatitudeDegrees>
              <LongitudeDegrees>20.23657090030610561370849609375</LongitudeDegrees>
            </Position>
            <AltitudeMeters>518</AltitudeMeters>
            <DistanceMeters>NAN</DistanceMeters>
          </Trackpoint>
          <Trackpoint>
            <Time>2022-09-20T09:47:41.000Z</Time>
            <Position>
              <LatitudeDegrees>49.44245251826941967010498046875</LatitudeDegrees>
              <LongitudeDegrees>20.23652982898056507110595703125</LongitudeDegrees>
            </Position>
            <AltitudeMeters>518</AltitudeMeters>
            <DistanceMeters>NAN</DistanceMeters>
          </Trackpoint>
          <Trackpoint>
            <Time>2022-09-20T09:47:46.000Z</Time>
            <Position>
              <LatitudeDegrees>49.4425489939749240875244140625</LatitudeDegrees>
              <LongitudeDegrees>20.23657877929508686065673828125</LongitudeDegrees>
            </Position>
            <AltitudeMeters>518</AltitudeMeters>
            <DistanceMeters>NAN</DistanceMeters>
          </Trackpoint>
          <Trackpoint>
            <Time>2022-09-20T09:47:49.000Z</Time>
            <Position>
              <LatitudeDegrees>49.442612193524837493896484375</LatitudeDegrees>
              <LongitudeDegrees>20.23660895414650440216064453125</LongitudeDegrees>
            </Position>
            <AltitudeMeters>517.79998779296875</AltitudeMeters>
            <DistanceMeters>NAN</DistanceMeters>
          </Trackpoint>
          <Trackpoint>
            <Time>2022-09-20T09:47:53.000Z</Time>
            <Position>
              <LatitudeDegrees>49.44279156625270843505859375</LatitudeDegrees>
              <LongitudeDegrees>20.2366965450346469879150390625</LongitudeDegrees>
            </Position>
            <AltitudeMeters>517.79998779296875</AltitudeMeters>
            <DistanceMeters>NAN</DistanceMeters>
          </Trackpoint>
          <Trackpoint>
            <Time>2022-09-20T09:47:59.000Z</Time>
            <Position>
              <LatitudeDegrees>49.44301812909543514251708984375</LatitudeDegrees>
              <LongitudeDegrees>20.236805342137813568115234375</LongitudeDegrees>
            </Position>
            <AltitudeMeters>518.20001220703125</AltitudeMeters>
            <DistanceMeters>NAN</DistanceMeters>
          </Trackpoint>
          <Trackpoint>
            <Time>2022-09-20T09:48:02.000Z</Time>
            <Position>
              <LatitudeDegrees>49.443143941462039947509765625</LatitudeDegrees>
              <LongitudeDegrees>20.23685999214649200439453125</LongitudeDegrees>
            </Position>
            <AltitudeMeters>518.4000244140625</AltitudeMeters>
            <DistanceMeters>NAN</DistanceMeters>
          </Trackpoint>
          <Trackpoint>
            <Time>2022-09-20T09:48:12.000Z</Time>
            <Position>
              <LatitudeDegrees>49.44349153898656368255615234375</LatitudeDegrees>
              <LongitudeDegrees>20.23704062215983867645263671875</LongitudeDegrees>
            </Position>
            <AltitudeMeters>518.20001220703125</AltitudeMeters>
            <DistanceMeters>NAN</DistanceMeters>
          </Trackpoint>
          <Trackpoint>
            <Time>2022-09-20T09:48:22.000Z</Time>
            <Position>
              <LatitudeDegrees>49.4438518770039081573486328125</LatitudeDegrees>
              <LongitudeDegrees>20.23720541037619113922119140625</LongitudeDegrees>
            </Position>
            <AltitudeMeters>518.20001220703125</AltitudeMeters>
            <DistanceMeters>NAN</DistanceMeters>
          </Trackpoint>
          <Trackpoint>
            <Time>2022-09-20T09:48:25.000Z</Time>
            <Position>
              <LatitudeDegrees>49.44396159611642360687255859375</LatitudeDegrees>
              <LongitudeDegrees>20.23725955747067928314208984375</LongitudeDegrees>
            </Position>
            <AltitudeMeters>518.20001220703125</AltitudeMeters>
            <DistanceMeters>NAN</DistanceMeters>
          </Trackpoint>
          <Trackpoint>
            <Time>2022-09-20T09:48:31.000Z</Time>
            <Position>
              <LatitudeDegrees>49.44416217505931854248046875</LatitudeDegrees>
              <LongitudeDegrees>20.2373634092509746551513671875</LongitudeDegrees>
            </Position>
            <AltitudeMeters>518.20001220703125</AltitudeMeters>
            <DistanceMeters>NAN</DistanceMeters>
          </Trackpoint>
          <Trackpoint>
            <Time>2022-09-20T09:48:41.000Z</Time>
            <Position>
              <LatitudeDegrees>49.44453357718884944915771484375</LatitudeDegrees>
              <LongitudeDegrees>20.2375243417918682098388671875</LongitudeDegrees>
            </Position>
            <AltitudeMeters>518.5999755859375</AltitudeMeters>
            <DistanceMeters>NAN</DistanceMeters>
          </Trackpoint>
          <Trackpoint>
            <Time>2022-09-20T09:48:50.000Z</Time>
            <Position>
              <LatitudeDegrees>49.44485711865127086639404296875</LatitudeDegrees>
              <LongitudeDegrees>20.2376815862953662872314453125</LongitudeDegrees>
            </Position>
            <AltitudeMeters>518.5999755859375</AltitudeMeters>
            <DistanceMeters>NAN</DistanceMeters>
          </Trackpoint>
          <Trackpoint>
            <Time>2022-09-20T09:48:53.000Z</Time>
            <Position>
              <LatitudeDegrees>49.44495770148932933807373046875</LatitudeDegrees>
              <LongitudeDegrees>20.2377281896770000457763671875</LongitudeDegrees>
            </Position>
            <AltitudeMeters>518.5999755859375</AltitudeMeters>
            <DistanceMeters>NAN</DistanceMeters>
          </Trackpoint>
          <Trackpoint>
            <Time>2022-09-20T09:48:57.000Z</Time>
            <Position>
              <LatitudeDegrees>49.44508829154074192047119140625</LatitudeDegrees>
              <LongitudeDegrees>20.23778493516147136688232421875</LongitudeDegrees>
            </Position>
            <AltitudeMeters>518.79998779296875</AltitudeMeters>
            <DistanceMeters>NAN</DistanceMeters>
          </Trackpoint>
          <Trackpoint>
            <Time>2022-09-20T09:49:00.000Z</Time>
            <Position>
              <LatitudeDegrees>49.44518669508397579193115234375</LatitudeDegrees>
              <LongitudeDegrees>20.23782826960086822509765625</LongitudeDegrees>
            </Position>
            <AltitudeMeters>518.79998779296875</AltitudeMeters>
            <DistanceMeters>NAN</DistanceMeters>
          </Trackpoint>
          <Trackpoint>
            <Time>2022-09-20T09:49:07.000Z</Time>
            <Position>
              <LatitudeDegrees>49.4454409182071685791015625</LatitudeDegrees>
              <LongitudeDegrees>20.2379477955400943756103515625</LongitudeDegrees>
            </Position>
            <AltitudeMeters>518.5999755859375</AltitudeMeters>
            <DistanceMeters>NAN</DistanceMeters>
          </Trackpoint>
          <Trackpoint>
            <Time>2022-09-20T09:49:08.000Z</Time>
            <Position>
              <LatitudeDegrees>49.44547771476209163665771484375</LatitudeDegrees>
              <LongitudeDegrees>20.2379642240703105926513671875</LongitudeDegrees>
            </Position>
            <AltitudeMeters>518.79998779296875</AltitudeMeters>
            <DistanceMeters>NAN</DistanceMeters>
          </Trackpoint>
          <Trackpoint>
            <Time>2022-09-20T09:49:12.000Z</Time>
            <Position>
              <LatitudeDegrees>49.44561350159347057342529296875</LatitudeDegrees>
              <LongitudeDegrees>20.23803186602890491485595703125</LongitudeDegrees>
            </Position>
            <AltitudeMeters>518.79998779296875</AltitudeMeters>
            <DistanceMeters>NAN</DistanceMeters>
          </Trackpoint>
          <Trackpoint>
            <Time>2022-09-20T09:49:13.000Z</Time>
            <Position>
              <LatitudeDegrees>49.44564652629196643829345703125</LatitudeDegrees>
              <LongitudeDegrees>20.238049887120723724365234375</LongitudeDegrees>
            </Position>
            <AltitudeMeters>519</AltitudeMeters>
            <DistanceMeters>NAN</DistanceMeters>
          </Trackpoint>
          <Trackpoint>
            <Time>2022-09-20T09:49:14.000Z</Time>
            <Position>
              <LatitudeDegrees>49.44564652629196643829345703125</LatitudeDegrees>
              <LongitudeDegrees>20.238049887120723724365234375</LongitudeDegrees>
            </Position>
            <AltitudeMeters>518.79998779296875</AltitudeMeters>
            <DistanceMeters>NAN</DistanceMeters>
          </Trackpoint>
          <Trackpoint>
            <Time>2022-09-20T09:49:15.000Z</Time>
            <Position>
              <LatitudeDegrees>49.44571844302117824554443359375</LatitudeDegrees>
              <LongitudeDegrees>20.23808718658983707427978515625</LongitudeDegrees>
            </Position>
            <AltitudeMeters>519</AltitudeMeters>
            <DistanceMeters>NAN</DistanceMeters>
          </Trackpoint>
          <Trackpoint>
            <Time>2022-09-20T09:49:22.000Z</Time>
            <Position>
              <LatitudeDegrees>49.4459745101630687713623046875</LatitudeDegrees>
              <LongitudeDegrees>20.23821090348064899444580078125</LongitudeDegrees>
            </Position>
            <AltitudeMeters>519.20001220703125</AltitudeMeters>
            <DistanceMeters>NAN</DistanceMeters>
          </Trackpoint>
          <Trackpoint>
            <Time>2022-09-20T09:49:27.000Z</Time>
            <Position>
              <LatitudeDegrees>49.44614307023584842681884765625</LatitudeDegrees>
              <LongitudeDegrees>20.23828667588531970977783203125</LongitudeDegrees>
            </Position>
            <AltitudeMeters>518.5999755859375</AltitudeMeters>
            <DistanceMeters>NAN</DistanceMeters>
          </Trackpoint>
          <Trackpoint>
            <Time>2022-09-20T09:49:32.000Z</Time>
            <Position>
              <LatitudeDegrees>49.44631976075470447540283203125</LatitudeDegrees>
              <LongitudeDegrees>20.23836605250835418701171875</LongitudeDegrees>
            </Position>
            <AltitudeMeters>518.5999755859375</AltitudeMeters>
            <DistanceMeters>NAN</DistanceMeters>
          </Trackpoint>
          <Trackpoint>
            <Time>2022-09-20T09:49:34.000Z</Time>
            <Position>
              <LatitudeDegrees>49.44639645516872406005859375</LatitudeDegrees>
              <LongitudeDegrees>20.23839966394007205963134765625</LongitudeDegrees>
            </Position>
            <AltitudeMeters>518.4000244140625</AltitudeMeters>
            <DistanceMeters>NAN</DistanceMeters>
          </Trackpoint>
          <Trackpoint>
            <Time>2022-09-20T09:49:42.000Z</Time>
            <Position>
              <LatitudeDegrees>49.44668739102780818939208984375</LatitudeDegrees>
              <LongitudeDegrees>20.2385298348963260650634765625</LongitudeDegrees>
            </Position>
            <AltitudeMeters>518.79998779296875</AltitudeMeters>
            <DistanceMeters>NAN</DistanceMeters>
          </Trackpoint>
          <Trackpoint>
            <Time>2022-09-20T09:49:50.000Z</Time>
            <Position>
              <LatitudeDegrees>49.4469558633863925933837890625</LatitudeDegrees>
              <LongitudeDegrees>20.23864491842687129974365234375</LongitudeDegrees>
            </Position>
            <AltitudeMeters>518.79998779296875</AltitudeMeters>
            <DistanceMeters>NAN</DistanceMeters>
          </Trackpoint>
          <Trackpoint>
            <Time>2022-09-20T09:49:58.000Z</Time>
            <Position>
              <LatitudeDegrees>49.4472358189523220062255859375</LatitudeDegrees>
              <LongitudeDegrees>20.23878690786659717559814453125</LongitudeDegrees>
            </Position>
            <AltitudeMeters>518.79998779296875</AltitudeMeters>
            <DistanceMeters>NAN</DistanceMeters>
          </Trackpoint>
          <Trackpoint>
            <Time>2022-09-20T09:50:01.000Z</Time>
            <Position>
              <LatitudeDegrees>49.44733615033328533172607421875</LatitudeDegrees>
              <LongitudeDegrees>20.23883384652435779571533203125</LongitudeDegrees>
            </Position>
            <AltitudeMeters>518.79998779296875</AltitudeMeters>
            <DistanceMeters>NAN</DistanceMeters>
          </Trackpoint>
          <Trackpoint>
            <Time>2022-09-20T09:50:03.000Z</Time>
            <Position>
              <LatitudeDegrees>49.44740504957735538482666015625</LatitudeDegrees>
              <LongitudeDegrees>20.2388540469110012054443359375</LongitudeDegrees>
            </Position>
            <AltitudeMeters>518.79998779296875</AltitudeMeters>
            <DistanceMeters>NAN</DistanceMeters>
          </Trackpoint>
          <Trackpoint>
            <Time>2022-09-20T09:50:07.000Z</Time>
            <Position>
              <LatitudeDegrees>49.447550475597381591796875</LatitudeDegrees>
              <LongitudeDegrees>20.2388882450759410858154296875</LongitudeDegrees>
            </Position>
            <AltitudeMeters>518.79998779296875</AltitudeMeters>
            <DistanceMeters>NAN</DistanceMeters>
          </Trackpoint>
          <Trackpoint>
            <Time>2022-09-20T09:50:12.000Z</Time>
            <Position>
              <LatitudeDegrees>49.44774334318935871124267578125</LatitudeDegrees>
              <LongitudeDegrees>20.23886385373771190643310546875</LongitudeDegrees>
            </Position>
            <AltitudeMeters>519</AltitudeMeters>
            <DistanceMeters>NAN</DistanceMeters>
          </Trackpoint>
          <Trackpoint>
            <Time>2022-09-20T09:50:18.000Z</Time>
            <Position>
              <LatitudeDegrees>49.44797267206013202667236328125</LatitudeDegrees>
              <LongitudeDegrees>20.23876293562352657318115234375</LongitudeDegrees>
            </Position>
            <AltitudeMeters>519.4000244140625</AltitudeMeters>
            <DistanceMeters>NAN</DistanceMeters>
          </Trackpoint>
          <Trackpoint>
            <Time>2022-09-20T09:50:26.000Z</Time>
            <Position>
              <LatitudeDegrees>49.44823888130486011505126953125</LatitudeDegrees>
              <LongitudeDegrees>20.23854039609432220458984375</LongitudeDegrees>
            </Position>
            <AltitudeMeters>519.4000244140625</AltitudeMeters>
            <DistanceMeters>NAN</DistanceMeters>
          </Trackpoint>
          <Trackpoint>
            <Time>2022-09-20T09:50:34.000Z</Time>
            <Position>
              <LatitudeDegrees>49.44847743026912212371826171875</LatitudeDegrees>
              <LongitudeDegrees>20.23830394260585308074951171875</LongitudeDegrees>
            </Position>
            <AltitudeMeters>519.20001220703125</AltitudeMeters>
            <DistanceMeters>NAN</DistanceMeters>
          </Trackpoint>
          <Trackpoint>
            <Time>2022-09-20T09:50:42.000Z</Time>
            <Position>
              <LatitudeDegrees>49.44873441942036151885986328125</LatitudeDegrees>
              <LongitudeDegrees>20.238045863807201385498046875</LongitudeDegrees>
            </Position>
            <AltitudeMeters>519.4000244140625</AltitudeMeters>
            <DistanceMeters>NAN</DistanceMeters>
          </Trackpoint>
          <Trackpoint>
            <Time>2022-09-20T09:50:44.000Z</Time>
            <Position>
              <LatitudeDegrees>49.44880281575024127960205078125</LatitudeDegrees>
              <LongitudeDegrees>20.23798258043825626373291015625</LongitudeDegrees>
            </Position>
            <AltitudeMeters>519.20001220703125</AltitudeMeters>
            <DistanceMeters>NAN</DistanceMeters>
          </Trackpoint>
          <Trackpoint>
            <Time>2022-09-20T09:50:53.000Z</Time>
            <Position>
              <LatitudeDegrees>49.44909618236124515533447265625</LatitudeDegrees>
              <LongitudeDegrees>20.23770798929035663604736328125</LongitudeDegrees>
            </Position>
            <AltitudeMeters>519.4000244140625</AltitudeMeters>
            <DistanceMeters>NAN</DistanceMeters>
          </Trackpoint>
          <Trackpoint>
            <Time>2022-09-20T09:51:00.000Z</Time>
            <Position>
              <LatitudeDegrees>49.4492994435131549835205078125</LatitudeDegrees>
              <LongitudeDegrees>20.23751386441290378570556640625</LongitudeDegrees>
            </Position>
            <AltitudeMeters>519.4000244140625</AltitudeMeters>
            <DistanceMeters>NAN</DistanceMeters>
          </Trackpoint>
          <Trackpoint>
            <Time>2022-09-20T09:51:01.000Z</Time>
            <Position>
              <LatitudeDegrees>49.4493316300213336944580078125</LatitudeDegrees>
              <LongitudeDegrees>20.23748938925564289093017578125</LongitudeDegrees>
            </Position>
            <AltitudeMeters>519.4000244140625</AltitudeMeters>
            <DistanceMeters>NAN</DistanceMeters>
          </Trackpoint>
          <Trackpoint>
            <Time>2022-09-20T09:51:09.000Z</Time>
            <Position>
              <LatitudeDegrees>49.44959104992449283599853515625</LatitudeDegrees>
              <LongitudeDegrees>20.237249918282032012939453125</LongitudeDegrees>
            </Position>
            <AltitudeMeters>519.4000244140625</AltitudeMeters>
            <DistanceMeters>NAN</DistanceMeters>
          </Trackpoint>
          <Trackpoint>
            <Time>2022-09-20T09:51:17.000Z</Time>
            <Position>
              <LatitudeDegrees>49.44986195303499698638916015625</LatitudeDegrees>
              <LongitudeDegrees>20.23700005374848842620849609375</LongitudeDegrees>
            </Position>
            <AltitudeMeters>519.5999755859375</AltitudeMeters>
            <DistanceMeters>NAN</DistanceMeters>
          </Trackpoint>
          <Trackpoint>
            <Time>2022-09-20T09:51:23.000Z</Time>
            <Position>
              <LatitudeDegrees>49.450040571391582489013671875</LatitudeDegrees>
              <LongitudeDegrees>20.236845575273036956787109375</LongitudeDegrees>
            </Position>
            <AltitudeMeters>519.4000244140625</AltitudeMeters>
            <DistanceMeters>NAN</DistanceMeters>
          </Trackpoint>
          <Trackpoint>
            <Time>2022-09-20T09:51:29.000Z</Time>
            <Position>
              <LatitudeDegrees>49.45021323859691619873046875</LatitudeDegrees>
              <LongitudeDegrees>20.23668154142796993255615234375</LongitudeDegrees>
            </Position>
            <AltitudeMeters>519.4000244140625</AltitudeMeters>
            <DistanceMeters>NAN</DistanceMeters>
          </Trackpoint>
          <Trackpoint>
            <Time>2022-09-20T09:51:33.000Z</Time>
            <Position>
              <LatitudeDegrees>49.45034332573413848876953125</LatitudeDegrees>
              <LongitudeDegrees>20.23655782453715801239013671875</LongitudeDegrees>
            </Position>
            <AltitudeMeters>519.4000244140625</AltitudeMeters>
            <DistanceMeters>NAN</DistanceMeters>
          </Trackpoint>
          <Trackpoint>
            <Time>2022-09-20T09:51:37.000Z</Time>
            <Position>
              <LatitudeDegrees>49.45048020221292972564697265625</LatitudeDegrees>
              <LongitudeDegrees>20.23643611930310726165771484375</LongitudeDegrees>
            </Position>
            <AltitudeMeters>519.4000244140625</AltitudeMeters>
            <DistanceMeters>NAN</DistanceMeters>
          </Trackpoint>
          <Trackpoint>
            <Time>2022-09-20T09:51:44.000Z</Time>
            <Position>
              <LatitudeDegrees>49.45069360546767711639404296875</LatitudeDegrees>
              <LongitudeDegrees>20.23622992448508739471435546875</LongitudeDegrees>
            </Position>
            <AltitudeMeters>519.79998779296875</AltitudeMeters>
            <DistanceMeters>NAN</DistanceMeters>
          </Trackpoint>
          <Trackpoint>
            <Time>2022-09-20T09:51:47.000Z</Time>
            <Position>
              <LatitudeDegrees>49.45079083554446697235107421875</LatitudeDegrees>
              <LongitudeDegrees>20.23614644072949886322021484375</LongitudeDegrees>
            </Position>
            <AltitudeMeters>519.79998779296875</AltitudeMeters>
            <DistanceMeters>NAN</DistanceMeters>
          </Trackpoint>
          <Trackpoint>
            <Time>2022-09-20T09:51:56.000Z</Time>
            <Position>
              <LatitudeDegrees>49.4510878063738346099853515625</LatitudeDegrees>
              <LongitudeDegrees>20.23582189343869686126708984375</LongitudeDegrees>
            </Position>
            <AltitudeMeters>519.5999755859375</AltitudeMeters>
            <DistanceMeters>NAN</DistanceMeters>
          </Trackpoint>
          <Trackpoint>
            <Time>2022-09-20T09:52:06.000Z</Time>
            <Position>
              <LatitudeDegrees>49.45138745941221714019775390625</LatitudeDegrees>
              <LongitudeDegrees>20.2353651635348796844482421875</LongitudeDegrees>
            </Position>
            <AltitudeMeters>519.79998779296875</AltitudeMeters>
            <DistanceMeters>NAN</DistanceMeters>
          </Trackpoint>
          <Trackpoint>
            <Time>2022-09-20T09:52:11.000Z</Time>
            <Position>
              <LatitudeDegrees>49.4514906406402587890625</LatitudeDegrees>
              <LongitudeDegrees>20.23515301756560802459716796875</LongitudeDegrees>
            </Position>
            <AltitudeMeters>519.79998779296875</AltitudeMeters>
            <DistanceMeters>NAN</DistanceMeters>
          </Trackpoint>
          <Trackpoint>
            <Time>2022-09-20T09:52:14.000Z</Time>
            <Position>
              <LatitudeDegrees>49.45154738612473011016845703125</LatitudeDegrees>
              <LongitudeDegrees>20.23502343334257602691650390625</LongitudeDegrees>
            </Position>
            <AltitudeMeters>519.5999755859375</AltitudeMeters>
            <DistanceMeters>NAN</DistanceMeters>
          </Trackpoint>
          <Trackpoint>
            <Time>2022-09-20T09:52:21.000Z</Time>
            <Position>
              <LatitudeDegrees>49.45165500976145267486572265625</LatitudeDegrees>
              <LongitudeDegrees>20.2347281388938426971435546875</LongitudeDegrees>
            </Position>
            <AltitudeMeters>520</AltitudeMeters>
            <DistanceMeters>NAN</DistanceMeters>
          </Trackpoint>
          <Trackpoint>
            <Time>2022-09-20T09:52:29.000Z</Time>
            <Position>
              <LatitudeDegrees>49.4518126733601093292236328125</LatitudeDegrees>
              <LongitudeDegrees>20.23433125577867031097412109375</LongitudeDegrees>
            </Position>
            <AltitudeMeters>519.5999755859375</AltitudeMeters>
            <DistanceMeters>NAN</DistanceMeters>
          </Trackpoint>
          <Trackpoint>
            <Time>2022-09-20T09:52:33.000Z</Time>
            <Position>
              <LatitudeDegrees>49.4518914632499217987060546875</LatitudeDegrees>
              <LongitudeDegrees>20.2341323532164096832275390625</LongitudeDegrees>
            </Position>
            <AltitudeMeters>519.79998779296875</AltitudeMeters>
            <DistanceMeters>NAN</DistanceMeters>
          </Trackpoint>
          <Trackpoint>
            <Time>2022-09-20T09:52:37.000Z</Time>
            <Position>
              <LatitudeDegrees>49.4519712589681148529052734375</LatitudeDegrees>
              <LongitudeDegrees>20.233920626342296600341796875</LongitudeDegrees>
            </Position>
            <AltitudeMeters>519.79998779296875</AltitudeMeters>
            <DistanceMeters>NAN</DistanceMeters>
          </Trackpoint>
          <Trackpoint>
            <Time>2022-09-20T09:52:40.000Z</Time>
            <Position>
              <LatitudeDegrees>49.4520364701747894287109375</LatitudeDegrees>
              <LongitudeDegrees>20.23376229219138622283935546875</LongitudeDegrees>
            </Position>
            <AltitudeMeters>520</AltitudeMeters>
            <DistanceMeters>NAN</DistanceMeters>
          </Trackpoint>
          <Trackpoint>
            <Time>2022-09-20T09:52:45.000Z</Time>
            <Position>
              <LatitudeDegrees>49.45216060616075992584228515625</LatitudeDegrees>
              <LongitudeDegrees>20.23351435549557209014892578125</LongitudeDegrees>
            </Position>
            <AltitudeMeters>519.79998779296875</AltitudeMeters>
            <DistanceMeters>NAN</DistanceMeters>
          </Trackpoint>
          <Trackpoint>
            <Time>2022-09-20T09:52:52.000Z</Time>
            <Position>
              <LatitudeDegrees>49.4523232989013195037841796875</LatitudeDegrees>
              <LongitudeDegrees>20.23324730806052684783935546875</LongitudeDegrees>
            </Position>
            <AltitudeMeters>519.79998779296875</AltitudeMeters>
            <DistanceMeters>NAN</DistanceMeters>
          </Trackpoint>
          <Trackpoint>
            <Time>2022-09-20T09:52:54.000Z</Time>
            <Position>
              <LatitudeDegrees>49.45237048901617527008056640625</LatitudeDegrees>
              <LongitudeDegrees>20.23319609463214874267578125</LongitudeDegrees>
            </Position>
            <AltitudeMeters>519.79998779296875</AltitudeMeters>
            <DistanceMeters>NAN</DistanceMeters>
          </Trackpoint>
          <Trackpoint>
            <Time>2022-09-20T09:52:55.000Z</Time>
            <Position>
              <LatitudeDegrees>49.45239211432635784149169921875</LatitudeDegrees>
              <LongitudeDegrees>20.23317421786487102508544921875</LongitudeDegrees>
            </Position>
            <AltitudeMeters>519.79998779296875</AltitudeMeters>
            <DistanceMeters>NAN</DistanceMeters>
          </Trackpoint>
          <Trackpoint>
            <Time>2022-09-20T09:52:57.000Z</Time>
            <Position>
              <LatitudeDegrees>49.4524356164038181304931640625</LatitudeDegrees>
              <LongitudeDegrees>20.23311839438974857330322265625</LongitudeDegrees>
            </Position>
            <AltitudeMeters>520</AltitudeMeters>
            <DistanceMeters>NAN</DistanceMeters>
          </Trackpoint>
          <Trackpoint>
            <Time>2022-09-20T09:53:03.000Z</Time>
            <Position>
              <LatitudeDegrees>49.45261054672300815582275390625</LatitudeDegrees>
              <LongitudeDegrees>20.23291588760912418365478515625</LongitudeDegrees>
            </Position>
            <AltitudeMeters>519.79998779296875</AltitudeMeters>
            <DistanceMeters>NAN</DistanceMeters>
          </Trackpoint>
          <Trackpoint>
            <Time>2022-09-20T09:53:04.000Z</Time>
            <Position>
              <LatitudeDegrees>49.45264390669763088226318359375</LatitudeDegrees>
              <LongitudeDegrees>20.2328811027109622955322265625</LongitudeDegrees>
            </Position>
            <AltitudeMeters>519.79998779296875</AltitudeMeters>
            <DistanceMeters>NAN</DistanceMeters>
          </Trackpoint>
          <Trackpoint>
            <Time>2022-09-20T09:53:12.000Z</Time>
            <Position>
              <LatitudeDegrees>49.45288664661347866058349609375</LatitudeDegrees>
              <LongitudeDegrees>20.23264355957508087158203125</LongitudeDegrees>
            </Position>
            <AltitudeMeters>520</AltitudeMeters>
            <DistanceMeters>NAN</DistanceMeters>
          </Trackpoint>
          <Trackpoint>
            <Time>2022-09-20T09:53:19.000Z</Time>
            <Position>
              <LatitudeDegrees>49.45307037793099880218505859375</LatitudeDegrees>
              <LongitudeDegrees>20.2324405498802661895751953125</LongitudeDegrees>
            </Position>
            <AltitudeMeters>520</AltitudeMeters>
            <DistanceMeters>NAN</DistanceMeters>
          </Trackpoint>
          <Trackpoint>
            <Time>2022-09-20T09:53:28.000Z</Time>
            <Position>
              <LatitudeDegrees>49.45335217751562595367431640625</LatitudeDegrees>
              <LongitudeDegrees>20.232153721153736114501953125</LongitudeDegrees>
            </Position>
            <AltitudeMeters>519.79998779296875</AltitudeMeters>
            <DistanceMeters>NAN</DistanceMeters>
          </Trackpoint>
          <Trackpoint>
            <Time>2022-09-20T09:53:35.000Z</Time>
            <Position>
              <LatitudeDegrees>49.4535867869853973388671875</LatitudeDegrees>
              <LongitudeDegrees>20.2319027669727802276611328125</LongitudeDegrees>
            </Position>
            <AltitudeMeters>520.20001220703125</AltitudeMeters>
            <DistanceMeters>NAN</DistanceMeters>
          </Trackpoint>
          <Trackpoint>
            <Time>2022-09-20T09:53:42.000Z</Time>
            <Position>
              <LatitudeDegrees>49.4538370706140995025634765625</LatitudeDegrees>
              <LongitudeDegrees>20.2316318638622760772705078125</LongitudeDegrees>
            </Position>
            <AltitudeMeters>520.20001220703125</AltitudeMeters>
            <DistanceMeters>NAN</DistanceMeters>
          </Trackpoint>
          <Trackpoint>
            <Time>2022-09-20T09:53:43.000Z</Time>
            <Position>
              <LatitudeDegrees>49.45387353189289569854736328125</LatitudeDegrees>
              <LongitudeDegrees>20.23158266209065914154052734375</LongitudeDegrees>
            </Position>
            <AltitudeMeters>520.20001220703125</AltitudeMeters>
            <DistanceMeters>NAN</DistanceMeters>
          </Trackpoint>
          <Trackpoint>
            <Time>2022-09-20T09:53:46.000Z</Time>
            <Position>
              <LatitudeDegrees>49.453972689807415008544921875</LatitudeDegrees>
              <LongitudeDegrees>20.231417119503021240234375</LongitudeDegrees>
            </Position>
            <AltitudeMeters>520.20001220703125</AltitudeMeters>
            <DistanceMeters>NAN</DistanceMeters>
          </Trackpoint>
          <Trackpoint>
            <Time>2022-09-20T09:53:49.000Z</Time>
            <Position>
              <LatitudeDegrees>49.45405776612460613250732421875</LatitudeDegrees>
              <LongitudeDegrees>20.231235064566135406494140625</LongitudeDegrees>
            </Position>
            <AltitudeMeters>520</AltitudeMeters>
            <DistanceMeters>NAN</DistanceMeters>
          </Trackpoint>
          <Trackpoint>
            <Time>2022-09-20T09:53:50.000Z</Time>
            <Position>
              <LatitudeDegrees>49.4540808163583278656005859375</LatitudeDegrees>
              <LongitudeDegrees>20.23117463104426860809326171875</LongitudeDegrees>
            </Position>
            <AltitudeMeters>520</AltitudeMeters>
            <DistanceMeters>NAN</DistanceMeters>
          </Trackpoint>
          <Trackpoint>
            <Time>2022-09-20T09:53:51.000Z</Time>
            <Position>
              <LatitudeDegrees>49.45410202257335186004638671875</LatitudeDegrees>
              <LongitudeDegrees>20.2311148680746555328369140625</LongitudeDegrees>
            </Position>
            <AltitudeMeters>519.79998779296875</AltitudeMeters>
            <DistanceMeters>NAN</DistanceMeters>
          </Trackpoint>
          <Trackpoint>
            <Time>2022-09-20T09:53:55.000Z</Time>
            <Position>
              <LatitudeDegrees>49.4541689939796924591064453125</LatitudeDegrees>
              <LongitudeDegrees>20.230888389050960540771484375</LongitudeDegrees>
            </Position>
            <AltitudeMeters>520</AltitudeMeters>
            <DistanceMeters>NAN</DistanceMeters>
          </Trackpoint>
          <Trackpoint>
            <Time>2022-09-20T09:53:58.000Z</Time>
            <Position>
              <LatitudeDegrees>49.45420428179204463958740234375</LatitudeDegrees>
              <LongitudeDegrees>20.2307467348873615264892578125</LongitudeDegrees>
            </Position>
            <AltitudeMeters>519.79998779296875</AltitudeMeters>
            <DistanceMeters>NAN</DistanceMeters>
          </Trackpoint>
          <Trackpoint>
            <Time>2022-09-20T09:54:02.000Z</Time>
            <Position>
              <LatitudeDegrees>49.454250968992710113525390625</LatitudeDegrees>
              <LongitudeDegrees>20.23049871437251567840576171875</LongitudeDegrees>
            </Position>
            <AltitudeMeters>519.79998779296875</AltitudeMeters>
            <DistanceMeters>NAN</DistanceMeters>
          </Trackpoint>
          <Trackpoint>
            <Time>2022-09-20T09:54:10.000Z</Time>
            <Position>
              <LatitudeDegrees>49.4543552398681640625</LatitudeDegrees>
              <LongitudeDegrees>20.229943580925464630126953125</LongitudeDegrees>
            </Position>
            <AltitudeMeters>520</AltitudeMeters>
            <DistanceMeters>NAN</DistanceMeters>
          </Trackpoint>
          <Trackpoint>
            <Time>2022-09-20T09:54:13.000Z</Time>
            <Position>
              <LatitudeDegrees>49.45439304225146770477294921875</LatitudeDegrees>
              <LongitudeDegrees>20.229720287024974822998046875</LongitudeDegrees>
            </Position>
            <AltitudeMeters>520</AltitudeMeters>
            <DistanceMeters>NAN</DistanceMeters>
          </Trackpoint>
          <Trackpoint>
            <Time>2022-09-20T09:54:16.000Z</Time>
            <Position>
              <LatitudeDegrees>49.45443947799503803253173828125</LatitudeDegrees>
              <LongitudeDegrees>20.22947763092815876007080078125</LongitudeDegrees>
            </Position>
            <AltitudeMeters>520</AltitudeMeters>
            <DistanceMeters>NAN</DistanceMeters>
          </Trackpoint>
          <Trackpoint>
            <Time>2022-09-20T09:54:26.000Z</Time>
            <Position>
              <LatitudeDegrees>49.454588592052459716796875</LatitudeDegrees>
              <LongitudeDegrees>20.22873155772686004638671875</LongitudeDegrees>
            </Position>
            <AltitudeMeters>520.20001220703125</AltitudeMeters>
            <DistanceMeters>NAN</DistanceMeters>
          </Trackpoint>
          <Trackpoint>
            <Time>2022-09-20T09:54:27.000Z</Time>
            <Position>
              <LatitudeDegrees>49.45459990762174129486083984375</LatitudeDegrees>
              <LongitudeDegrees>20.22866793908178806304931640625</LongitudeDegrees>
            </Position>
            <AltitudeMeters>520.20001220703125</AltitudeMeters>
            <DistanceMeters>NAN</DistanceMeters>
          </Trackpoint>
          <Trackpoint>
            <Time>2022-09-20T09:54:28.000Z</Time>
            <Position>
              <LatitudeDegrees>49.4546112231910228729248046875</LatitudeDegrees>
              <LongitudeDegrees>20.22860725410282611846923828125</LongitudeDegrees>
            </Position>
            <AltitudeMeters>520.20001220703125</AltitudeMeters>
            <DistanceMeters>NAN</DistanceMeters>
          </Trackpoint>
          <Trackpoint>
            <Time>2022-09-20T09:54:34.000Z</Time>
            <Position>
              <LatitudeDegrees>49.454681463539600372314453125</LatitudeDegrees>
              <LongitudeDegrees>20.22825010120868682861328125</LongitudeDegrees>
            </Position>
            <AltitudeMeters>520.20001220703125</AltitudeMeters>
            <DistanceMeters>NAN</DistanceMeters>
          </Trackpoint>
          <Trackpoint>
            <Time>2022-09-20T09:54:39.000Z</Time>
            <Position>
              <LatitudeDegrees>49.45473100058734416961669921875</LatitudeDegrees>
              <LongitudeDegrees>20.22797760553658008575439453125</LongitudeDegrees>
            </Position>
            <AltitudeMeters>520.4000244140625</AltitudeMeters>
            <DistanceMeters>NAN</DistanceMeters>
          </Trackpoint>
          <Trackpoint>
            <Time>2022-09-20T09:54:41.000Z</Time>
            <Position>
              <LatitudeDegrees>49.45474944077432155609130859375</LatitudeDegrees>
              <LongitudeDegrees>20.2278657071292400360107421875</LongitudeDegrees>
            </Position>
            <AltitudeMeters>520.5999755859375</AltitudeMeters>
            <DistanceMeters>NAN</DistanceMeters>
          </Trackpoint>
          <Trackpoint>
            <Time>2022-09-20T09:54:43.000Z</Time>
            <Position>
              <LatitudeDegrees>49.45476536639034748077392578125</LatitudeDegrees>
              <LongitudeDegrees>20.227753221988677978515625</LongitudeDegrees>
            </Position>
            <AltitudeMeters>520.5999755859375</AltitudeMeters>
            <DistanceMeters>NAN</DistanceMeters>
          </Trackpoint>
          <Trackpoint>
            <Time>2022-09-20T09:54:51.000Z</Time>
            <Position>
              <LatitudeDegrees>49.454859159886837005615234375</LatitudeDegrees>
              <LongitudeDegrees>20.22726514376699924468994140625</LongitudeDegrees>
            </Position>
            <AltitudeMeters>520.4000244140625</AltitudeMeters>
            <DistanceMeters>NAN</DistanceMeters>
          </Trackpoint>
          <Trackpoint>
            <Time>2022-09-20T09:54:52.000Z</Time>
            <Position>
              <LatitudeDegrees>49.454871900379657745361328125</LatitudeDegrees>
              <LongitudeDegrees>20.227201022207736968994140625</LongitudeDegrees>
            </Position>
            <AltitudeMeters>520.4000244140625</AltitudeMeters>
            <DistanceMeters>NAN</DistanceMeters>
          </Trackpoint>
          <Trackpoint>
            <Time>2022-09-20T09:54:59.000Z</Time>
            <Position>
              <LatitudeDegrees>49.4549488462507724761962890625</LatitudeDegrees>
              <LongitudeDegrees>20.22681117989122867584228515625</LongitudeDegrees>
            </Position>
            <AltitudeMeters>520.79998779296875</AltitudeMeters>
            <DistanceMeters>NAN</DistanceMeters>
          </Trackpoint>
          <Trackpoint>
            <Time>2022-09-20T09:55:00.000Z</Time>
            <Position>
              <LatitudeDegrees>49.454971812665462493896484375</LatitudeDegrees>
              <LongitudeDegrees>20.226675979793071746826171875</LongitudeDegrees>
            </Position>
            <AltitudeMeters>521</AltitudeMeters>
            <DistanceMeters>NAN</DistanceMeters>
          </Trackpoint>
          <Trackpoint>
            <Time>2022-09-20T09:55:01.000Z</Time>
            <Position>
              <LatitudeDegrees>49.4549850560724735260009765625</LatitudeDegrees>
              <LongitudeDegrees>20.22660993039608001708984375</LongitudeDegrees>
            </Position>
            <AltitudeMeters>521</AltitudeMeters>
            <DistanceMeters>NAN</DistanceMeters>
          </Trackpoint>
          <Trackpoint>
            <Time>2022-09-20T09:55:08.000Z</Time>
            <Position>
              <LatitudeDegrees>49.45504683069884777069091796875</LatitudeDegrees>
              <LongitudeDegrees>20.22625043056905269622802734375</LongitudeDegrees>
            </Position>
            <AltitudeMeters>520.79998779296875</AltitudeMeters>
            <DistanceMeters>NAN</DistanceMeters>
          </Trackpoint>
          <Trackpoint>
            <Time>2022-09-20T09:55:09.000Z</Time>
            <Position>
              <LatitudeDegrees>49.4550675339996814727783203125</LatitudeDegrees>
              <LongitudeDegrees>20.2261291444301605224609375</LongitudeDegrees>
            </Position>
            <AltitudeMeters>520.5999755859375</AltitudeMeters>
            <DistanceMeters>NAN</DistanceMeters>
          </Trackpoint>
          <Trackpoint>
            <Time>2022-09-20T09:55:13.000Z</Time>
            <Position>
              <LatitudeDegrees>49.45511606521904468536376953125</LatitudeDegrees>
              <LongitudeDegrees>20.225883387029170989990234375</LongitudeDegrees>
            </Position>
            <AltitudeMeters>520.5999755859375</AltitudeMeters>
            <DistanceMeters>NAN</DistanceMeters>
          </Trackpoint>
          <Trackpoint>
            <Time>2022-09-20T09:55:18.000Z</Time>
            <Position>
              <LatitudeDegrees>49.4551674462854862213134765625</LatitudeDegrees>
              <LongitudeDegrees>20.22560116834938526153564453125</LongitudeDegrees>
            </Position>
            <AltitudeMeters>520.79998779296875</AltitudeMeters>
            <DistanceMeters>NAN</DistanceMeters>
          </Trackpoint>
          <Trackpoint>
            <Time>2022-09-20T09:55:22.000Z</Time>
            <Position>
              <LatitudeDegrees>49.455213882029056549072265625</LatitudeDegrees>
              <LongitudeDegrees>20.2253715880215167999267578125</LongitudeDegrees>
            </Position>
            <AltitudeMeters>520.5999755859375</AltitudeMeters>
            <DistanceMeters>NAN</DistanceMeters>
          </Trackpoint>
          <Trackpoint>
            <Time>2022-09-20T09:55:30.000Z</Time>
            <Position>
              <LatitudeDegrees>49.45530180819332599639892578125</LatitudeDegrees>
              <LongitudeDegrees>20.22492684423923492431640625</LongitudeDegrees>
            </Position>
            <AltitudeMeters>520.5999755859375</AltitudeMeters>
            <DistanceMeters>NAN</DistanceMeters>
          </Trackpoint>
          <Trackpoint>
            <Time>2022-09-20T09:55:38.000Z</Time>
            <Position>
              <LatitudeDegrees>49.45539836771786212921142578125</LatitudeDegrees>
              <LongitudeDegrees>20.22440859116613864898681640625</LongitudeDegrees>
            </Position>
            <AltitudeMeters>520.5999755859375</AltitudeMeters>
            <DistanceMeters>NAN</DistanceMeters>
          </Trackpoint>
          <Trackpoint>
            <Time>2022-09-20T09:55:40.000Z</Time>
            <Position>
              <LatitudeDegrees>49.45542301051318645477294921875</LatitudeDegrees>
              <LongitudeDegrees>20.2242772467434406280517578125</LongitudeDegrees>
            </Position>
            <AltitudeMeters>520.4000244140625</AltitudeMeters>
            <DistanceMeters>NAN</DistanceMeters>
          </Trackpoint>
          <Trackpoint>
            <Time>2022-09-20T09:55:45.000Z</Time>
            <Position>
              <LatitudeDegrees>49.4554822705686092376708984375</LatitudeDegrees>
              <LongitudeDegrees>20.2239805273711681365966796875</LongitudeDegrees>
            </Position>
            <AltitudeMeters>520.4000244140625</AltitudeMeters>
            <DistanceMeters>NAN</DistanceMeters>
          </Trackpoint>
          <Trackpoint>
            <Time>2022-09-20T09:55:54.000Z</Time>
            <Position>
              <LatitudeDegrees>49.45555795915424823760986328125</LatitudeDegrees>
              <LongitudeDegrees>20.2234739251434803009033203125</LongitudeDegrees>
            </Position>
            <AltitudeMeters>520.4000244140625</AltitudeMeters>
            <DistanceMeters>NAN</DistanceMeters>
          </Trackpoint>
          <Trackpoint>
            <Time>2022-09-20T09:56:01.000Z</Time>
            <Position>
              <LatitudeDegrees>49.4555635750293731689453125</LatitudeDegrees>
              <LongitudeDegrees>20.22307201288640499114990234375</LongitudeDegrees>
            </Position>
            <AltitudeMeters>520.20001220703125</AltitudeMeters>
            <DistanceMeters>NAN</DistanceMeters>
          </Trackpoint>
          <Trackpoint>
            <Time>2022-09-20T09:56:08.000Z</Time>
            <Position>
              <LatitudeDegrees>49.4555117748677730560302734375</LatitudeDegrees>
              <LongitudeDegrees>20.22264000959694385528564453125</LongitudeDegrees>
            </Position>
            <AltitudeMeters>520.4000244140625</AltitudeMeters>
            <DistanceMeters>NAN</DistanceMeters>
          </Trackpoint>
          <Trackpoint>
            <Time>2022-09-20T09:56:14.000Z</Time>
            <Position>
              <LatitudeDegrees>49.4554738886654376983642578125</LatitudeDegrees>
              <LongitudeDegrees>20.2223205752670764923095703125</LongitudeDegrees>
            </Position>
            <AltitudeMeters>520.20001220703125</AltitudeMeters>
            <DistanceMeters>NAN</DistanceMeters>
          </Trackpoint>
          <Trackpoint>
            <Time>2022-09-20T09:56:21.000Z</Time>
            <Position>
              <LatitudeDegrees>49.45542971603572368621826171875</LatitudeDegrees>
              <LongitudeDegrees>20.22188999690115451812744140625</LongitudeDegrees>
            </Position>
            <AltitudeMeters>520.20001220703125</AltitudeMeters>
            <DistanceMeters>NAN</DistanceMeters>
          </Trackpoint>
          <Trackpoint>
            <Time>2022-09-20T09:56:23.000Z</Time>
            <Position>
              <LatitudeDegrees>49.45541580207645893096923828125</LatitudeDegrees>
              <LongitudeDegrees>20.22178187035024166107177734375</LongitudeDegrees>
            </Position>
            <AltitudeMeters>520.20001220703125</AltitudeMeters>
            <DistanceMeters>NAN</DistanceMeters>
          </Trackpoint>
          <Trackpoint>
            <Time>2022-09-20T09:56:28.000Z</Time>
            <Position>
              <LatitudeDegrees>49.45539032109081745147705078125</LatitudeDegrees>
              <LongitudeDegrees>20.22151750512421131134033203125</LongitudeDegrees>
            </Position>
            <AltitudeMeters>520.4000244140625</AltitudeMeters>
            <DistanceMeters>NAN</DistanceMeters>
          </Trackpoint>
          <Trackpoint>
            <Time>2022-09-20T09:56:36.000Z</Time>
            <Position>
              <LatitudeDegrees>49.455333910882472991943359375</LatitudeDegrees>
              <LongitudeDegrees>20.22102531976997852325439453125</LongitudeDegrees>
            </Position>
            <AltitudeMeters>520.4000244140625</AltitudeMeters>
            <DistanceMeters>NAN</DistanceMeters>
          </Trackpoint>
          <Trackpoint>
            <Time>2022-09-20T09:56:37.000Z</Time>
            <Position>
              <LatitudeDegrees>49.45532896555960178375244140625</LatitudeDegrees>
              <LongitudeDegrees>20.22095675580203533172607421875</LongitudeDegrees>
            </Position>
            <AltitudeMeters>520.4000244140625</AltitudeMeters>
            <DistanceMeters>NAN</DistanceMeters>
          </Trackpoint>
          <Trackpoint>
            <Time>2022-09-20T09:56:38.000Z</Time>
            <Position>
              <LatitudeDegrees>49.4553213380277156829833984375</LatitudeDegrees>
              <LongitudeDegrees>20.22089087404310703277587890625</LongitudeDegrees>
            </Position>
            <AltitudeMeters>520.4000244140625</AltitudeMeters>
            <DistanceMeters>NAN</DistanceMeters>
          </Trackpoint>
          <Trackpoint>
            <Time>2022-09-20T09:56:43.000Z</Time>
            <Position>
              <LatitudeDegrees>49.45527884177863597869873046875</LatitudeDegrees>
              <LongitudeDegrees>20.220594070851802825927734375</LongitudeDegrees>
            </Position>
            <AltitudeMeters>520.79998779296875</AltitudeMeters>
            <DistanceMeters>NAN</DistanceMeters>
          </Trackpoint>
          <Trackpoint>
            <Time>2022-09-20T09:56:44.000Z</Time>
            <Position>
              <LatitudeDegrees>49.45527096278965473175048828125</LatitudeDegrees>
              <LongitudeDegrees>20.2205372415482997894287109375</LongitudeDegrees>
            </Position>
            <AltitudeMeters>520.79998779296875</AltitudeMeters>
            <DistanceMeters>NAN</DistanceMeters>
          </Trackpoint>
          <Trackpoint>
            <Time>2022-09-20T09:56:50.000Z</Time>
            <Position>
              <LatitudeDegrees>49.45523827336728572845458984375</LatitudeDegrees>
              <LongitudeDegrees>20.2202318049967288970947265625</LongitudeDegrees>
            </Position>
            <AltitudeMeters>520.5999755859375</AltitudeMeters>
            <DistanceMeters>NAN</DistanceMeters>
          </Trackpoint>
          <Trackpoint>
            <Time>2022-09-20T09:56:57.000Z</Time>
            <Position>
              <LatitudeDegrees>49.45520558394491672515869140625</LatitudeDegrees>
              <LongitudeDegrees>20.2199250273406505584716796875</LongitudeDegrees>
            </Position>
            <AltitudeMeters>520.5999755859375</AltitudeMeters>
            <DistanceMeters>NAN</DistanceMeters>
          </Trackpoint>
          <Trackpoint>
            <Time>2022-09-20T09:57:04.000Z</Time>
            <Position>
              <LatitudeDegrees>49.45517138577997684478759765625</LatitudeDegrees>
              <LongitudeDegrees>20.219642557203769683837890625</LongitudeDegrees>
            </Position>
            <AltitudeMeters>520.20001220703125</AltitudeMeters>
            <DistanceMeters>NAN</DistanceMeters>
          </Trackpoint>
          <Trackpoint>
            <Time>2022-09-20T09:57:06.000Z</Time>
            <Position>
              <LatitudeDegrees>49.45516518317162990570068359375</LatitudeDegrees>
              <LongitudeDegrees>20.21960341371595859527587890625</LongitudeDegrees>
            </Position>
            <AltitudeMeters>520.20001220703125</AltitudeMeters>
            <DistanceMeters>NAN</DistanceMeters>
          </Trackpoint>
          <Trackpoint>
            <Time>2022-09-20T09:57:09.000Z</Time>
            <Position>
              <LatitudeDegrees>49.45516057312488555908203125</LatitudeDegrees>
              <LongitudeDegrees>20.21947131492197513580322265625</LongitudeDegrees>
            </Position>
            <AltitudeMeters>520.4000244140625</AltitudeMeters>
            <DistanceMeters>NAN</DistanceMeters>
          </Trackpoint>
          <Trackpoint>
            <Time>2022-09-20T09:57:11.000Z</Time>
            <Position>
              <LatitudeDegrees>49.45514707826077938079833984375</LatitudeDegrees>
              <LongitudeDegrees>20.21934977732598781585693359375</LongitudeDegrees>
            </Position>
            <AltitudeMeters>520.4000244140625</AltitudeMeters>
            <DistanceMeters>NAN</DistanceMeters>
          </Trackpoint>
          <Trackpoint>
            <Time>2022-09-20T09:57:14.000Z</Time>
            <Position>
              <LatitudeDegrees>49.45512830279767513275146484375</LatitudeDegrees>
              <LongitudeDegrees>20.21924416534602642059326171875</LongitudeDegrees>
            </Position>
            <AltitudeMeters>520.4000244140625</AltitudeMeters>
            <DistanceMeters>NAN</DistanceMeters>
          </Trackpoint>
          <Trackpoint>
            <Time>2022-09-20T09:57:17.000Z</Time>
            <Position>
              <LatitudeDegrees>49.45511438883841037750244140625</LatitudeDegrees>
              <LongitudeDegrees>20.219135284423828125</LongitudeDegrees>
            </Position>
            <AltitudeMeters>520.4000244140625</AltitudeMeters>
            <DistanceMeters>NAN</DistanceMeters>
          </Trackpoint>
          <Trackpoint>
            <Time>2022-09-20T09:57:19.000Z</Time>
            <Position>
              <LatitudeDegrees>49.45511070080101490020751953125</LatitudeDegrees>
              <LongitudeDegrees>20.2191032655537128448486328125</LongitudeDegrees>
            </Position>
            <AltitudeMeters>520.4000244140625</AltitudeMeters>
            <DistanceMeters>NAN</DistanceMeters>
          </Trackpoint>
          <Trackpoint>
            <Time>2022-09-20T09:57:26.000Z</Time>
            <Position>
              <LatitudeDegrees>49.45507616735994815826416015625</LatitudeDegrees>
              <LongitudeDegrees>20.21883915178477764129638671875</LongitudeDegrees>
            </Position>
            <AltitudeMeters>520.20001220703125</AltitudeMeters>
            <DistanceMeters>NAN</DistanceMeters>
          </Trackpoint>
          <Trackpoint>
            <Time>2022-09-20T09:57:36.000Z</Time>
            <Position>
              <LatitudeDegrees>49.45505890063941478729248046875</LatitudeDegrees>
              <LongitudeDegrees>20.21850965917110443115234375</LongitudeDegrees>
            </Position>
            <AltitudeMeters>520.20001220703125</AltitudeMeters>
            <DistanceMeters>NAN</DistanceMeters>
          </Trackpoint>
          <Trackpoint>
            <Time>2022-09-20T09:57:37.000Z</Time>
            <Position>
              <LatitudeDegrees>49.45505890063941478729248046875</LatitudeDegrees>
              <LongitudeDegrees>20.21850965917110443115234375</LongitudeDegrees>
            </Position>
            <AltitudeMeters>520.20001220703125</AltitudeMeters>
            <DistanceMeters>NAN</DistanceMeters>
          </Trackpoint>
          <Trackpoint>
            <Time>2022-09-20T09:57:38.000Z</Time>
            <Position>
              <LatitudeDegrees>49.4550879858434200286865234375</LatitudeDegrees>
              <LongitudeDegrees>20.21846431307494640350341796875</LongitudeDegrees>
            </Position>
            <AltitudeMeters>520</AltitudeMeters>
            <DistanceMeters>NAN</DistanceMeters>
          </Trackpoint>
          <Trackpoint>
            <Time>2022-09-20T09:57:41.000Z</Time>
            <Position>
              <LatitudeDegrees>49.4551402889192104339599609375</LatitudeDegrees>
              <LongitudeDegrees>20.2184179611504077911376953125</LongitudeDegrees>
            </Position>
            <AltitudeMeters>520</AltitudeMeters>
            <DistanceMeters>NAN</DistanceMeters>
          </Trackpoint>
          <Trackpoint>
            <Time>2022-09-20T09:57:43.000Z</Time>
            <Position>
              <LatitudeDegrees>49.45517658255994319915771484375</LatitudeDegrees>
              <LongitudeDegrees>20.21838015876710414886474609375</LongitudeDegrees>
            </Position>
            <AltitudeMeters>520</AltitudeMeters>
            <DistanceMeters>NAN</DistanceMeters>
          </Trackpoint>
          <Trackpoint>
            <Time>2022-09-20T09:57:44.000Z</Time>
            <Position>
              <LatitudeDegrees>49.45519401691854000091552734375</LatitudeDegrees>
              <LongitudeDegrees>20.21835970692336559295654296875</LongitudeDegrees>
            </Position>
            <AltitudeMeters>520</AltitudeMeters>
            <DistanceMeters>NAN</DistanceMeters>
          </Trackpoint>
          <Trackpoint>
            <Time>2022-09-20T09:57:46.000Z</Time>
            <Position>
              <LatitudeDegrees>49.4552318193018436431884765625</LatitudeDegrees>
              <LongitudeDegrees>20.21831125952303409576416015625</LongitudeDegrees>
            </Position>
            <AltitudeMeters>520</AltitudeMeters>
            <DistanceMeters>NAN</DistanceMeters>
          </Trackpoint>
          <Trackpoint>
            <Time>2022-09-20T09:57:49.000Z</Time>
            <Position>
              <LatitudeDegrees>49.45527012459933757781982421875</LatitudeDegrees>
              <LongitudeDegrees>20.2182650752365589141845703125</LongitudeDegrees>
            </Position>
            <AltitudeMeters>520</AltitudeMeters>
            <DistanceMeters>NAN</DistanceMeters>
          </Trackpoint>
          <Trackpoint>
            <Time>2022-09-20T09:57:56.000Z</Time>
            <Position>
              <LatitudeDegrees>49.45542887784540653228759765625</LatitudeDegrees>
              <LongitudeDegrees>20.21802292205393314361572265625</LongitudeDegrees>
            </Position>
            <AltitudeMeters>520.20001220703125</AltitudeMeters>
            <DistanceMeters>NAN</DistanceMeters>
          </Trackpoint>
          <Trackpoint>
            <Time>2022-09-20T09:57:57.000Z</Time>
            <Position>
              <LatitudeDegrees>49.4554366730153560638427734375</LatitudeDegrees>
              <LongitudeDegrees>20.21797548048198223114013671875</LongitudeDegrees>
            </Position>
            <AltitudeMeters>520.20001220703125</AltitudeMeters>
            <DistanceMeters>NAN</DistanceMeters>
          </Trackpoint>
          <Trackpoint>
            <Time>2022-09-20T09:58:04.000Z</Time>
            <Position>
              <LatitudeDegrees>49.4554507546126842498779296875</LatitudeDegrees>
              <LongitudeDegrees>20.21769016049802303314208984375</LongitudeDegrees>
            </Position>
            <AltitudeMeters>520.4000244140625</AltitudeMeters>
            <DistanceMeters>NAN</DistanceMeters>
          </Trackpoint>
          <Trackpoint>
            <Time>2022-09-20T09:58:05.000Z</Time>
            <Position>
              <LatitudeDegrees>49.45545100606977939605712890625</LatitudeDegrees>
              <LongitudeDegrees>20.21763836033642292022705078125</LongitudeDegrees>
            </Position>
            <AltitudeMeters>520.4000244140625</AltitudeMeters>
            <DistanceMeters>NAN</DistanceMeters>
          </Trackpoint>
          <Trackpoint>
            <Time>2022-09-20T09:58:08.000Z</Time>
            <Position>
              <LatitudeDegrees>49.4554561190307140350341796875</LatitudeDegrees>
              <LongitudeDegrees>20.217480361461639404296875</LongitudeDegrees>
            </Position>
            <AltitudeMeters>520.4000244140625</AltitudeMeters>
            <DistanceMeters>NAN</DistanceMeters>
          </Trackpoint>
          <Trackpoint>
            <Time>2022-09-20T09:58:09.000Z</Time>
            <Position>
              <LatitudeDegrees>49.45546575821936130523681640625</LatitudeDegrees>
              <LongitudeDegrees>20.21737315692007541656494140625</LongitudeDegrees>
            </Position>
            <AltitudeMeters>520.5999755859375</AltitudeMeters>
            <DistanceMeters>NAN</DistanceMeters>
          </Trackpoint>
          <Trackpoint>
            <Time>2022-09-20T09:58:14.000Z</Time>
            <Position>
              <LatitudeDegrees>49.4554899819195270538330078125</LatitudeDegrees>
              <LongitudeDegrees>20.2170842327177524566650390625</LongitudeDegrees>
            </Position>
            <AltitudeMeters>521</AltitudeMeters>
            <DistanceMeters>NAN</DistanceMeters>
          </Trackpoint>
          <Trackpoint>
            <Time>2022-09-20T09:58:15.000Z</Time>
            <Position>
              <LatitudeDegrees>49.45549760945141315460205078125</LatitudeDegrees>
              <LongitudeDegrees>20.217028073966503143310546875</LongitudeDegrees>
            </Position>
            <AltitudeMeters>521</AltitudeMeters>
            <DistanceMeters>NAN</DistanceMeters>
          </Trackpoint>
          <Trackpoint>
            <Time>2022-09-20T09:58:24.000Z</Time>
            <Position>
              <LatitudeDegrees>49.4555942527949810028076171875</LatitudeDegrees>
              <LongitudeDegrees>20.2165719307959079742431640625</LongitudeDegrees>
            </Position>
            <AltitudeMeters>521.4000244140625</AltitudeMeters>
            <DistanceMeters>NAN</DistanceMeters>
          </Trackpoint>
          <Trackpoint>
            <Time>2022-09-20T09:58:29.000Z</Time>
            <Position>
              <LatitudeDegrees>49.45564781315624713897705078125</LatitudeDegrees>
              <LongitudeDegrees>20.21633430384099483489990234375</LongitudeDegrees>
            </Position>
            <AltitudeMeters>522</AltitudeMeters>
            <DistanceMeters>NAN</DistanceMeters>
          </Trackpoint>
          <Trackpoint>
            <Time>2022-09-20T09:58:31.000Z</Time>
            <Position>
              <LatitudeDegrees>49.4556735455989837646484375</LatitudeDegrees>
              <LongitudeDegrees>20.21623522974550724029541015625</LongitudeDegrees>
            </Position>
            <AltitudeMeters>522</AltitudeMeters>
            <DistanceMeters>NAN</DistanceMeters>
          </Trackpoint>
          <Trackpoint>
            <Time>2022-09-20T09:58:41.000Z</Time>
            <Position>
              <LatitudeDegrees>49.455791227519512176513671875</LatitudeDegrees>
              <LongitudeDegrees>20.21579232998192310333251953125</LongitudeDegrees>
            </Position>
            <AltitudeMeters>522.5999755859375</AltitudeMeters>
            <DistanceMeters>NAN</DistanceMeters>
          </Trackpoint>
          <Trackpoint>
            <Time>2022-09-20T09:58:48.000Z</Time>
            <Position>
              <LatitudeDegrees>49.45584319531917572021484375</LatitudeDegrees>
              <LongitudeDegrees>20.215545482933521270751953125</LongitudeDegrees>
            </Position>
            <AltitudeMeters>522.79998779296875</AltitudeMeters>
            <DistanceMeters>NAN</DistanceMeters>
          </Trackpoint>
          <Trackpoint>
            <Time>2022-09-20T09:58:50.000Z</Time>
            <Position>
              <LatitudeDegrees>49.4558544270694255828857421875</LatitudeDegrees>
              <LongitudeDegrees>20.21547138690948486328125</LongitudeDegrees>
            </Position>
            <AltitudeMeters>522.79998779296875</AltitudeMeters>
            <DistanceMeters>NAN</DistanceMeters>
          </Trackpoint>
          <Trackpoint>
            <Time>2022-09-20T09:58:56.000Z</Time>
            <Position>
              <LatitudeDegrees>49.45584529079496860504150390625</LatitudeDegrees>
              <LongitudeDegrees>20.21525454707443714141845703125</LongitudeDegrees>
            </Position>
            <AltitudeMeters>523</AltitudeMeters>
            <DistanceMeters>NAN</DistanceMeters>
          </Trackpoint>
          <Trackpoint>
            <Time>2022-09-20T09:58:57.000Z</Time>
            <Position>
              <LatitudeDegrees>49.45583523251116275787353515625</LatitudeDegrees>
              <LongitudeDegrees>20.215228311717510223388671875</LongitudeDegrees>
            </Position>
            <AltitudeMeters>523.20001220703125</AltitudeMeters>
            <DistanceMeters>NAN</DistanceMeters>
          </Trackpoint>
          <Trackpoint>
            <Time>2022-09-20T09:59:00.000Z</Time>
            <Position>
              <LatitudeDegrees>49.45581327192485332489013671875</LatitudeDegrees>
              <LongitudeDegrees>20.215136110782623291015625</LongitudeDegrees>
            </Position>
            <AltitudeMeters>523.20001220703125</AltitudeMeters>
            <DistanceMeters>NAN</DistanceMeters>
          </Trackpoint>
          <Trackpoint>
            <Time>2022-09-20T09:59:02.000Z</Time>
            <Position>
              <LatitudeDegrees>49.4558319635689258575439453125</LatitudeDegrees>
              <LongitudeDegrees>20.21506645716726779937744140625</LongitudeDegrees>
            </Position>
            <AltitudeMeters>523.20001220703125</AltitudeMeters>
            <DistanceMeters>NAN</DistanceMeters>
          </Trackpoint>
          <Trackpoint>
            <Time>2022-09-20T09:59:07.000Z</Time>
            <Position>
              <LatitudeDegrees>49.45587613619863986968994140625</LatitudeDegrees>
              <LongitudeDegrees>20.21497048437595367431640625</LongitudeDegrees>
            </Position>
            <AltitudeMeters>523.20001220703125</AltitudeMeters>
            <DistanceMeters>NAN</DistanceMeters>
          </Trackpoint>
          <Trackpoint>
            <Time>2022-09-20T09:59:10.000Z</Time>
            <Position>
              <LatitudeDegrees>49.45592005737125873565673828125</LatitudeDegrees>
              <LongitudeDegrees>20.21485908888280391693115234375</LongitudeDegrees>
            </Position>
            <AltitudeMeters>523.4000244140625</AltitudeMeters>
            <DistanceMeters>NAN</DistanceMeters>
          </Trackpoint>
          <Trackpoint>
            <Time>2022-09-20T09:59:15.000Z</Time>
            <Position>
              <LatitudeDegrees>49.455937407910823822021484375</LatitudeDegrees>
              <LongitudeDegrees>20.21465758793056011199951171875</LongitudeDegrees>
            </Position>
            <AltitudeMeters>523.4000244140625</AltitudeMeters>
            <DistanceMeters>NAN</DistanceMeters>
          </Trackpoint>
          <Trackpoint>
            <Time>2022-09-20T09:59:21.000Z</Time>
            <Position>
              <LatitudeDegrees>49.4558782316744327545166015625</LatitudeDegrees>
              <LongitudeDegrees>20.21445809863507747650146484375</LongitudeDegrees>
            </Position>
            <AltitudeMeters>523.5999755859375</AltitudeMeters>
            <DistanceMeters>NAN</DistanceMeters>
          </Trackpoint>
          <Trackpoint>
            <Time>2022-09-20T09:59:24.000Z</Time>
            <Position>
              <LatitudeDegrees>49.4558514095842838287353515625</LatitudeDegrees>
              <LongitudeDegrees>20.214392803609371185302734375</LongitudeDegrees>
            </Position>
            <AltitudeMeters>524.20001220703125</AltitudeMeters>
            <DistanceMeters>NAN</DistanceMeters>
          </Trackpoint>
          <Trackpoint>
            <Time>2022-09-20T09:59:30.000Z</Time>
            <Position>
              <LatitudeDegrees>49.45582433603703975677490234375</LatitudeDegrees>
              <LongitudeDegrees>20.2143151871860027313232421875</LongitudeDegrees>
            </Position>
            <AltitudeMeters>524.4000244140625</AltitudeMeters>
            <DistanceMeters>NAN</DistanceMeters>
          </Trackpoint>
          <Trackpoint>
            <Time>2022-09-20T09:59:32.000Z</Time>
            <Position>
              <LatitudeDegrees>49.45581746287643909454345703125</LatitudeDegrees>
              <LongitudeDegrees>20.2143195457756519317626953125</LongitudeDegrees>
            </Position>
            <AltitudeMeters>524.4000244140625</AltitudeMeters>
            <DistanceMeters>NAN</DistanceMeters>
          </Trackpoint>
          <Trackpoint>
            <Time>2022-09-20T09:59:34.000Z</Time>
            <Position>
              <LatitudeDegrees>49.45581746287643909454345703125</LatitudeDegrees>
              <LongitudeDegrees>20.2143195457756519317626953125</LongitudeDegrees>
            </Position>
            <AltitudeMeters>524.20001220703125</AltitudeMeters>
            <DistanceMeters>NAN</DistanceMeters>
          </Trackpoint>
          <Trackpoint>
            <Time>2022-09-20T09:59:37.000Z</Time>
            <Position>
              <LatitudeDegrees>49.45581746287643909454345703125</LatitudeDegrees>
              <LongitudeDegrees>20.2143195457756519317626953125</LongitudeDegrees>
            </Position>
            <AltitudeMeters>524.20001220703125</AltitudeMeters>
            <DistanceMeters>NAN</DistanceMeters>
          </Trackpoint>
          <Trackpoint>
            <Time>2022-09-20T09:59:38.000Z</Time>
            <Position>
              <LatitudeDegrees>49.45581997744739055633544921875</LatitudeDegrees>
              <LongitudeDegrees>20.2143021114170551300048828125</LongitudeDegrees>
            </Position>
            <AltitudeMeters>524</AltitudeMeters>
            <DistanceMeters>NAN</DistanceMeters>
          </Trackpoint>
          <Trackpoint>
            <Time>2022-09-20T09:59:44.000Z</Time>
            <Position>
              <LatitudeDegrees>49.45585702545940876007080078125</LatitudeDegrees>
              <LongitudeDegrees>20.214299261569976806640625</LongitudeDegrees>
            </Position>
            <AltitudeMeters>524.20001220703125</AltitudeMeters>
            <DistanceMeters>NAN</DistanceMeters>
          </Trackpoint>
          <Trackpoint>
            <Time>2022-09-20T09:59:54.000Z</Time>
            <Position>
              <LatitudeDegrees>49.4558520801365375518798828125</LatitudeDegrees>
              <LongitudeDegrees>20.21435298956930637359619140625</LongitudeDegrees>
            </Position>
            <AltitudeMeters>523.79998779296875</AltitudeMeters>
            <DistanceMeters>NAN</DistanceMeters>
          </Trackpoint>
          <Trackpoint>
            <Time>2022-09-20T09:59:58.000Z</Time>
            <Position>
              <LatitudeDegrees>49.4558571092784404754638671875</LatitudeDegrees>
              <LongitudeDegrees>20.2143510617315769195556640625</LongitudeDegrees>
            </Position>
            <AltitudeMeters>524</AltitudeMeters>
            <DistanceMeters>NAN</DistanceMeters>
          </Trackpoint>
          <Trackpoint>
            <Time>2022-09-20T10:00:03.000Z</Time>
            <Position>
              <LatitudeDegrees>49.4558571092784404754638671875</LatitudeDegrees>
              <LongitudeDegrees>20.2143510617315769195556640625</LongitudeDegrees>
            </Position>
            <AltitudeMeters>523.5999755859375</AltitudeMeters>
            <DistanceMeters>NAN</DistanceMeters>
          </Trackpoint>
          <Trackpoint>
            <Time>2022-09-20T10:00:04.000Z</Time>
            <Position>
              <LatitudeDegrees>49.4558571092784404754638671875</LatitudeDegrees>
              <LongitudeDegrees>20.2143510617315769195556640625</LongitudeDegrees>
            </Position>
            <AltitudeMeters>523.5999755859375</AltitudeMeters>
            <DistanceMeters>NAN</DistanceMeters>
          </Trackpoint>
          <Trackpoint>
            <Time>2022-09-20T10:00:08.000Z</Time>
            <Position>
              <LatitudeDegrees>49.4558571092784404754638671875</LatitudeDegrees>
              <LongitudeDegrees>20.2143510617315769195556640625</LongitudeDegrees>
            </Position>
            <AltitudeMeters>523.5999755859375</AltitudeMeters>
            <DistanceMeters>NAN</DistanceMeters>
          </Trackpoint>
          <Trackpoint>
            <Time>2022-09-20T10:00:11.000Z</Time>
            <Position>
              <LatitudeDegrees>49.4558571092784404754638671875</LatitudeDegrees>
              <LongitudeDegrees>20.2143510617315769195556640625</LongitudeDegrees>
            </Position>
            <AltitudeMeters>523.5999755859375</AltitudeMeters>
            <DistanceMeters>NAN</DistanceMeters>
          </Trackpoint>
          <Trackpoint>
            <Time>2022-09-20T10:00:15.000Z</Time>
            <Position>
              <LatitudeDegrees>49.4558571092784404754638671875</LatitudeDegrees>
              <LongitudeDegrees>20.2143510617315769195556640625</LongitudeDegrees>
            </Position>
            <AltitudeMeters>523.5999755859375</AltitudeMeters>
            <DistanceMeters>NAN</DistanceMeters>
          </Trackpoint>
          <Trackpoint>
            <Time>2022-09-20T10:00:24.000Z</Time>
            <Position>
              <LatitudeDegrees>49.4558571092784404754638671875</LatitudeDegrees>
              <LongitudeDegrees>20.2143510617315769195556640625</LongitudeDegrees>
            </Position>
            <AltitudeMeters>523.5999755859375</AltitudeMeters>
            <DistanceMeters>NAN</DistanceMeters>
          </Trackpoint>
          <Trackpoint>
            <Time>2022-09-20T10:00:34.000Z</Time>
            <Position>
              <LatitudeDegrees>49.4558571092784404754638671875</LatitudeDegrees>
              <LongitudeDegrees>20.2143510617315769195556640625</LongitudeDegrees>
            </Position>
            <AltitudeMeters>523.5999755859375</AltitudeMeters>
            <DistanceMeters>NAN</DistanceMeters>
          </Trackpoint>
          <Trackpoint>
            <Time>2022-09-20T10:00:39.000Z</Time>
            <Position>
              <LatitudeDegrees>49.4558571092784404754638671875</LatitudeDegrees>
              <LongitudeDegrees>20.2143510617315769195556640625</LongitudeDegrees>
            </Position>
            <AltitudeMeters>523.4000244140625</AltitudeMeters>
            <DistanceMeters>NAN</DistanceMeters>
          </Trackpoint>
          <Trackpoint>
            <Time>2022-09-20T10:00:48.000Z</Time>
            <Position>
              <LatitudeDegrees>49.4558571092784404754638671875</LatitudeDegrees>
              <LongitudeDegrees>20.2143510617315769195556640625</LongitudeDegrees>
            </Position>
            <AltitudeMeters>523.20001220703125</AltitudeMeters>
            <DistanceMeters>NAN</DistanceMeters>
          </Trackpoint>
          <Trackpoint>
            <Time>2022-09-20T10:00:51.000Z</Time>
            <Position>
              <LatitudeDegrees>49.4558571092784404754638671875</LatitudeDegrees>
              <LongitudeDegrees>20.2143510617315769195556640625</LongitudeDegrees>
            </Position>
            <AltitudeMeters>523.20001220703125</AltitudeMeters>
            <DistanceMeters>NAN</DistanceMeters>
          </Trackpoint>
          <Trackpoint>
            <Time>2022-09-20T10:00:58.000Z</Time>
            <Position>
              <LatitudeDegrees>49.4558571092784404754638671875</LatitudeDegrees>
              <LongitudeDegrees>20.21435491740703582763671875</LongitudeDegrees>
            </Position>
            <AltitudeMeters>523.20001220703125</AltitudeMeters>
            <DistanceMeters>NAN</DistanceMeters>
          </Trackpoint>
          <Trackpoint>
            <Time>2022-09-20T10:01:02.000Z</Time>
            <Position>
              <LatitudeDegrees>49.4558571092784404754638671875</LatitudeDegrees>
              <LongitudeDegrees>20.2143557555973529815673828125</LongitudeDegrees>
            </Position>
            <AltitudeMeters>523.20001220703125</AltitudeMeters>
            <DistanceMeters>NAN</DistanceMeters>
          </Trackpoint>
          <Trackpoint>
            <Time>2022-09-20T10:01:12.000Z</Time>
            <Position>
              <LatitudeDegrees>49.4558571092784404754638671875</LatitudeDegrees>
              <LongitudeDegrees>20.2143557555973529815673828125</LongitudeDegrees>
            </Position>
            <AltitudeMeters>523.20001220703125</AltitudeMeters>
            <DistanceMeters>NAN</DistanceMeters>
          </Trackpoint>
          <Trackpoint>
            <Time>2022-09-20T10:01:14.000Z</Time>
            <Position>
              <LatitudeDegrees>49.45585115812718868255615234375</LatitudeDegrees>
              <LongitudeDegrees>20.21436832845211029052734375</LongitudeDegrees>
            </Position>
            <AltitudeMeters>523.20001220703125</AltitudeMeters>
            <DistanceMeters>NAN</DistanceMeters>
          </Trackpoint>
          <Trackpoint>
            <Time>2022-09-20T10:01:17.000Z</Time>
            <Position>
              <LatitudeDegrees>49.45585115812718868255615234375</LatitudeDegrees>
              <LongitudeDegrees>20.21436832845211029052734375</LongitudeDegrees>
            </Position>
            <AltitudeMeters>523.20001220703125</AltitudeMeters>
            <DistanceMeters>NAN</DistanceMeters>
          </Trackpoint>
          <Trackpoint>
            <Time>2022-09-20T10:01:21.000Z</Time>
            <Position>
              <LatitudeDegrees>49.45585115812718868255615234375</LatitudeDegrees>
              <LongitudeDegrees>20.21436832845211029052734375</LongitudeDegrees>
            </Position>
            <AltitudeMeters>523.20001220703125</AltitudeMeters>
            <DistanceMeters>NAN</DistanceMeters>
          </Trackpoint>
          <Trackpoint>
            <Time>2022-09-20T10:01:29.000Z</Time>
            <Position>
              <LatitudeDegrees>49.45584948174655437469482421875</LatitudeDegrees>
              <LongitudeDegrees>20.21437092684209346771240234375</LongitudeDegrees>
            </Position>
            <AltitudeMeters>523.20001220703125</AltitudeMeters>
            <DistanceMeters>NAN</DistanceMeters>
          </Trackpoint>
          <Trackpoint>
            <Time>2022-09-20T10:01:34.000Z</Time>
            <Position>
              <LatitudeDegrees>49.45578175596892833709716796875</LatitudeDegrees>
              <LongitudeDegrees>20.21442138589918613433837890625</LongitudeDegrees>
            </Position>
            <AltitudeMeters>523.4000244140625</AltitudeMeters>
            <DistanceMeters>NAN</DistanceMeters>
          </Trackpoint>
          <Trackpoint>
            <Time>2022-09-20T10:01:58.000Z</Time>
            <Position>
              <LatitudeDegrees>49.4558103382587432861328125</LatitudeDegrees>
              <LongitudeDegrees>20.2143195457756519317626953125</LongitudeDegrees>
            </Position>
            <AltitudeMeters>523.4000244140625</AltitudeMeters>
            <DistanceMeters>NAN</DistanceMeters>
          </Trackpoint>
          <Trackpoint>
            <Time>2022-09-20T10:02:00.000Z</Time>
            <Position>
              <LatitudeDegrees>49.4559080712497234344482421875</LatitudeDegrees>
              <LongitudeDegrees>20.21422591991722583770751953125</LongitudeDegrees>
            </Position>
            <AltitudeMeters>523.4000244140625</AltitudeMeters>
            <DistanceMeters>NAN</DistanceMeters>
          </Trackpoint>
          <Trackpoint>
            <Time>2022-09-20T10:02:16.000Z</Time>
            <Position>
              <LatitudeDegrees>49.45590798743069171905517578125</LatitudeDegrees>
              <LongitudeDegrees>20.21422608755528926849365234375</LongitudeDegrees>
            </Position>
            <AltitudeMeters>523.4000244140625</AltitudeMeters>
            <DistanceMeters>NAN</DistanceMeters>
          </Trackpoint>
          <Trackpoint>
            <Time>2022-09-20T10:02:28.000Z</Time>
            <Position>
              <LatitudeDegrees>49.4558785669505596160888671875</LatitudeDegrees>
              <LongitudeDegrees>20.21437679417431354522705078125</LongitudeDegrees>
            </Position>
            <AltitudeMeters>523.4000244140625</AltitudeMeters>
            <DistanceMeters>NAN</DistanceMeters>
          </Trackpoint>
          <Trackpoint>
            <Time>2022-09-20T10:02:36.000Z</Time>
            <Position>
              <LatitudeDegrees>49.45588837377727031707763671875</LatitudeDegrees>
              <LongitudeDegrees>20.214343182742595672607421875</LongitudeDegrees>
            </Position>
            <AltitudeMeters>523.4000244140625</AltitudeMeters>
            <DistanceMeters>NAN</DistanceMeters>
          </Trackpoint>
          <Trackpoint>
            <Time>2022-09-20T10:02:39.000Z</Time>
            <Position>
              <LatitudeDegrees>49.4558782316744327545166015625</LatitudeDegrees>
              <LongitudeDegrees>20.2143795602023601531982421875</LongitudeDegrees>
            </Position>
            <AltitudeMeters>523.4000244140625</AltitudeMeters>
            <DistanceMeters>NAN</DistanceMeters>
          </Trackpoint>
          <Trackpoint>
            <Time>2022-09-20T10:02:52.000Z</Time>
            <Position>
              <LatitudeDegrees>49.45584998466074466705322265625</LatitudeDegrees>
              <LongitudeDegrees>20.21438710391521453857421875</LongitudeDegrees>
            </Position>
            <AltitudeMeters>523.4000244140625</AltitudeMeters>
            <DistanceMeters>NAN</DistanceMeters>
          </Trackpoint>
          <Trackpoint>
            <Time>2022-09-20T10:03:06.000Z</Time>
            <Position>
              <LatitudeDegrees>49.4558465480804443359375</LatitudeDegrees>
              <LongitudeDegrees>20.21438710391521453857421875</LongitudeDegrees>
            </Position>
            <AltitudeMeters>523.4000244140625</AltitudeMeters>
            <DistanceMeters>NAN</DistanceMeters>
          </Trackpoint>
          <Trackpoint>
            <Time>2022-09-20T10:03:09.000Z</Time>
            <Position>
              <LatitudeDegrees>49.4558465480804443359375</LatitudeDegrees>
              <LongitudeDegrees>20.21438710391521453857421875</LongitudeDegrees>
            </Position>
            <AltitudeMeters>523.4000244140625</AltitudeMeters>
            <DistanceMeters>NAN</DistanceMeters>
          </Trackpoint>
          <Trackpoint>
            <Time>2022-09-20T10:03:15.000Z</Time>
            <Position>
              <LatitudeDegrees>49.45584881119430065155029296875</LatitudeDegrees>
              <LongitudeDegrees>20.21438417024910449981689453125</LongitudeDegrees>
            </Position>
            <AltitudeMeters>523.4000244140625</AltitudeMeters>
            <DistanceMeters>NAN</DistanceMeters>
          </Trackpoint>
          <Trackpoint>
            <Time>2022-09-20T10:03:16.000Z</Time>
            <Position>
              <LatitudeDegrees>49.45584881119430065155029296875</LatitudeDegrees>
              <LongitudeDegrees>20.21438417024910449981689453125</LongitudeDegrees>
            </Position>
            <AltitudeMeters>523.4000244140625</AltitudeMeters>
            <DistanceMeters>NAN</DistanceMeters>
          </Trackpoint>
          <Trackpoint>
            <Time>2022-09-20T10:03:20.000Z</Time>
            <Position>
              <LatitudeDegrees>49.45586062967777252197265625</LatitudeDegrees>
              <LongitudeDegrees>20.21437235176563262939453125</LongitudeDegrees>
            </Position>
            <AltitudeMeters>523.4000244140625</AltitudeMeters>
            <DistanceMeters>NAN</DistanceMeters>
          </Trackpoint>
          <Trackpoint>
            <Time>2022-09-20T10:03:27.000Z</Time>
            <Position>
              <LatitudeDegrees>49.45585769601166248321533203125</LatitudeDegrees>
              <LongitudeDegrees>20.2143674902617931365966796875</LongitudeDegrees>
            </Position>
            <AltitudeMeters>523.4000244140625</AltitudeMeters>
            <DistanceMeters>NAN</DistanceMeters>
          </Trackpoint>
          <Trackpoint>
            <Time>2022-09-20T10:03:31.000Z</Time>
            <Position>
              <LatitudeDegrees>49.45585769601166248321533203125</LatitudeDegrees>
              <LongitudeDegrees>20.2143674902617931365966796875</LongitudeDegrees>
            </Position>
            <AltitudeMeters>523.4000244140625</AltitudeMeters>
            <DistanceMeters>NAN</DistanceMeters>
          </Trackpoint>
          <Trackpoint>
            <Time>2022-09-20T10:03:35.000Z</Time>
            <Position>
              <LatitudeDegrees>49.45585384033620357513427734375</LatitudeDegrees>
              <LongitudeDegrees>20.21435902453958988189697265625</LongitudeDegrees>
            </Position>
            <AltitudeMeters>523.4000244140625</AltitudeMeters>
            <DistanceMeters>NAN</DistanceMeters>
          </Trackpoint>
          <Trackpoint>
            <Time>2022-09-20T10:03:38.000Z</Time>
            <Position>
              <LatitudeDegrees>49.45581637322902679443359375</LatitudeDegrees>
              <LongitudeDegrees>20.2142689190804958343505859375</LongitudeDegrees>
            </Position>
            <AltitudeMeters>523.4000244140625</AltitudeMeters>
            <DistanceMeters>NAN</DistanceMeters>
          </Trackpoint>
          <Trackpoint>
            <Time>2022-09-20T10:03:45.000Z</Time>
            <Position>
              <LatitudeDegrees>49.45571788586676120758056640625</LatitudeDegrees>
              <LongitudeDegrees>20.214001871645450592041015625</LongitudeDegrees>
            </Position>
            <AltitudeMeters>523.20001220703125</AltitudeMeters>
            <DistanceMeters>NAN</DistanceMeters>
          </Trackpoint>
          <Trackpoint>
            <Time>2022-09-20T10:03:46.000Z</Time>
            <Position>
              <LatitudeDegrees>49.4557082466781139373779296875</LatitudeDegrees>
              <LongitudeDegrees>20.21397546865046024322509765625</LongitudeDegrees>
            </Position>
            <AltitudeMeters>523.20001220703125</AltitudeMeters>
            <DistanceMeters>NAN</DistanceMeters>
          </Trackpoint>
          <Trackpoint>
            <Time>2022-09-20T10:03:49.000Z</Time>
            <Position>
              <LatitudeDegrees>49.45568494498729705810546875</LatitudeDegrees>
              <LongitudeDegrees>20.21390103735029697418212890625</LongitudeDegrees>
            </Position>
            <AltitudeMeters>523.20001220703125</AltitudeMeters>
            <DistanceMeters>NAN</DistanceMeters>
          </Trackpoint>
          <Trackpoint>
            <Time>2022-09-20T10:03:51.000Z</Time>
            <Position>
              <LatitudeDegrees>49.45569877512753009796142578125</LatitudeDegrees>
              <LongitudeDegrees>20.21383968181908130645751953125</LongitudeDegrees>
            </Position>
            <AltitudeMeters>523.20001220703125</AltitudeMeters>
            <DistanceMeters>NAN</DistanceMeters>
          </Trackpoint>
          <Trackpoint>
            <Time>2022-09-20T10:03:52.000Z</Time>
            <Position>
              <LatitudeDegrees>49.45571185089647769927978515625</LatitudeDegrees>
              <LongitudeDegrees>20.2138236723840236663818359375</LongitudeDegrees>
            </Position>
            <AltitudeMeters>523.20001220703125</AltitudeMeters>
            <DistanceMeters>NAN</DistanceMeters>
          </Trackpoint>
          <Trackpoint>
            <Time>2022-09-20T10:03:55.000Z</Time>
            <Position>
              <LatitudeDegrees>49.45576943457126617431640625</LatitudeDegrees>
              <LongitudeDegrees>20.21375703625380992889404296875</LongitudeDegrees>
            </Position>
            <AltitudeMeters>523</AltitudeMeters>
            <DistanceMeters>NAN</DistanceMeters>
          </Trackpoint>
          <Trackpoint>
            <Time>2022-09-20T10:03:57.000Z</Time>
            <Position>
              <LatitudeDegrees>49.4558192230761051177978515625</LatitudeDegrees>
              <LongitudeDegrees>20.2137078344821929931640625</LongitudeDegrees>
            </Position>
            <AltitudeMeters>523</AltitudeMeters>
            <DistanceMeters>NAN</DistanceMeters>
          </Trackpoint>
          <Trackpoint>
            <Time>2022-09-20T10:03:59.000Z</Time>
            <Position>
              <LatitudeDegrees>49.4558725319802761077880859375</LatitudeDegrees>
              <LongitudeDegrees>20.2136541903018951416015625</LongitudeDegrees>
            </Position>
            <AltitudeMeters>523</AltitudeMeters>
            <DistanceMeters>NAN</DistanceMeters>
          </Trackpoint>
          <Trackpoint>
            <Time>2022-09-20T10:04:06.000Z</Time>
            <Position>
              <LatitudeDegrees>49.4560508988797664642333984375</LatitudeDegrees>
              <LongitudeDegrees>20.2134746499359607696533203125</LongitudeDegrees>
            </Position>
            <AltitudeMeters>523.4000244140625</AltitudeMeters>
            <DistanceMeters>NAN</DistanceMeters>
          </Trackpoint>
          <Trackpoint>
            <Time>2022-09-20T10:04:07.000Z</Time>
            <Position>
              <LatitudeDegrees>49.456078223884105682373046875</LatitudeDegrees>
              <LongitudeDegrees>20.213447995483875274658203125</LongitudeDegrees>
            </Position>
            <AltitudeMeters>523.4000244140625</AltitudeMeters>
            <DistanceMeters>NAN</DistanceMeters>
          </Trackpoint>
          <Trackpoint>
            <Time>2022-09-20T10:04:15.000Z</Time>
            <Position>
              <LatitudeDegrees>49.45631434209644794464111328125</LatitudeDegrees>
              <LongitudeDegrees>20.21320567466318607330322265625</LongitudeDegrees>
            </Position>
            <AltitudeMeters>523.4000244140625</AltitudeMeters>
            <DistanceMeters>NAN</DistanceMeters>
          </Trackpoint>
          <Trackpoint>
            <Time>2022-09-20T10:04:23.000Z</Time>
            <Position>
              <LatitudeDegrees>49.456591196358203887939453125</LatitudeDegrees>
              <LongitudeDegrees>20.21292219869792461395263671875</LongitudeDegrees>
            </Position>
            <AltitudeMeters>523.5999755859375</AltitudeMeters>
            <DistanceMeters>NAN</DistanceMeters>
          </Trackpoint>
          <Trackpoint>
            <Time>2022-09-20T10:04:27.000Z</Time>
            <Position>
              <LatitudeDegrees>49.456742070615291595458984375</LatitudeDegrees>
              <LongitudeDegrees>20.2127658762037754058837890625</LongitudeDegrees>
            </Position>
            <AltitudeMeters>523.5999755859375</AltitudeMeters>
            <DistanceMeters>NAN</DistanceMeters>
          </Trackpoint>
          <Trackpoint>
            <Time>2022-09-20T10:04:34.000Z</Time>
            <Position>
              <LatitudeDegrees>49.45700316689908504486083984375</LatitudeDegrees>
              <LongitudeDegrees>20.21250092424452304840087890625</LongitudeDegrees>
            </Position>
            <AltitudeMeters>523.79998779296875</AltitudeMeters>
            <DistanceMeters>NAN</DistanceMeters>
          </Trackpoint>
          <Trackpoint>
            <Time>2022-09-20T10:04:43.000Z</Time>
            <Position>
              <LatitudeDegrees>49.457309357821941375732421875</LatitudeDegrees>
              <LongitudeDegrees>20.2121747843921184539794921875</LongitudeDegrees>
            </Position>
            <AltitudeMeters>524</AltitudeMeters>
            <DistanceMeters>NAN</DistanceMeters>
          </Trackpoint>
          <Trackpoint>
            <Time>2022-09-20T10:04:50.000Z</Time>
            <Position>
              <LatitudeDegrees>49.45755578577518463134765625</LatitudeDegrees>
              <LongitudeDegrees>20.211904048919677734375</LongitudeDegrees>
            </Position>
            <AltitudeMeters>524</AltitudeMeters>
            <DistanceMeters>NAN</DistanceMeters>
          </Trackpoint>
          <Trackpoint>
            <Time>2022-09-20T10:04:51.000Z</Time>
            <Position>
              <LatitudeDegrees>49.45755578577518463134765625</LatitudeDegrees>
              <LongitudeDegrees>20.211904048919677734375</LongitudeDegrees>
            </Position>
            <AltitudeMeters>524</AltitudeMeters>
            <DistanceMeters>NAN</DistanceMeters>
          </Trackpoint>
          <Trackpoint>
            <Time>2022-09-20T10:04:53.000Z</Time>
            <Position>
              <LatitudeDegrees>49.45767623372375965118408203125</LatitudeDegrees>
              <LongitudeDegrees>20.2117912285029888153076171875</LongitudeDegrees>
            </Position>
            <AltitudeMeters>524.20001220703125</AltitudeMeters>
            <DistanceMeters>NAN</DistanceMeters>
          </Trackpoint>
          <Trackpoint>
            <Time>2022-09-20T10:05:02.000Z</Time>
            <Position>
              <LatitudeDegrees>49.45797278545796871185302734375</LatitudeDegrees>
              <LongitudeDegrees>20.2114988677203655242919921875</LongitudeDegrees>
            </Position>
            <AltitudeMeters>524.4000244140625</AltitudeMeters>
            <DistanceMeters>NAN</DistanceMeters>
          </Trackpoint>
          <Trackpoint>
            <Time>2022-09-20T10:05:03.000Z</Time>
            <Position>
              <LatitudeDegrees>49.45797278545796871185302734375</LatitudeDegrees>
              <LongitudeDegrees>20.2114988677203655242919921875</LongitudeDegrees>
            </Position>
            <AltitudeMeters>524.4000244140625</AltitudeMeters>
            <DistanceMeters>NAN</DistanceMeters>
          </Trackpoint>
          <Trackpoint>
            <Time>2022-09-20T10:05:05.000Z</Time>
            <Position>
              <LatitudeDegrees>49.45804771967232227325439453125</LatitudeDegrees>
              <LongitudeDegrees>20.2114116959273815155029296875</LongitudeDegrees>
            </Position>
            <AltitudeMeters>524.4000244140625</AltitudeMeters>
            <DistanceMeters>NAN</DistanceMeters>
          </Trackpoint>
          <Trackpoint>
            <Time>2022-09-20T10:05:08.000Z</Time>
            <Position>
              <LatitudeDegrees>49.4581886194646358489990234375</LatitudeDegrees>
              <LongitudeDegrees>20.2112697064876556396484375</LongitudeDegrees>
            </Position>
            <AltitudeMeters>524.5999755859375</AltitudeMeters>
            <DistanceMeters>NAN</DistanceMeters>
          </Trackpoint>
          <Trackpoint>
            <Time>2022-09-20T10:05:11.000Z</Time>
            <Position>
              <LatitudeDegrees>49.45828861556947231292724609375</LatitudeDegrees>
              <LongitudeDegrees>20.2111595682799816131591796875</LongitudeDegrees>
            </Position>
            <AltitudeMeters>524.5999755859375</AltitudeMeters>
            <DistanceMeters>NAN</DistanceMeters>
          </Trackpoint>
          <Trackpoint>
            <Time>2022-09-20T10:05:14.000Z</Time>
            <Position>
              <LatitudeDegrees>49.4583810679614543914794921875</LatitudeDegrees>
              <LongitudeDegrees>20.2110658586025238037109375</LongitudeDegrees>
            </Position>
            <AltitudeMeters>525.20001220703125</AltitudeMeters>
            <DistanceMeters>NAN</DistanceMeters>
          </Trackpoint>
          <Trackpoint>
            <Time>2022-09-20T10:05:18.000Z</Time>
            <Position>
              <LatitudeDegrees>49.45849833078682422637939453125</LatitudeDegrees>
              <LongitudeDegrees>20.21096385084092617034912109375</LongitudeDegrees>
            </Position>
            <AltitudeMeters>525.5999755859375</AltitudeMeters>
            <DistanceMeters>NAN</DistanceMeters>
          </Trackpoint>
          <Trackpoint>
            <Time>2022-09-20T10:05:24.000Z</Time>
            <Position>
              <LatitudeDegrees>49.4586519710719585418701171875</LatitudeDegrees>
              <LongitudeDegrees>20.210820771753787994384765625</LongitudeDegrees>
            </Position>
            <AltitudeMeters>526.20001220703125</AltitudeMeters>
            <DistanceMeters>NAN</DistanceMeters>
          </Trackpoint>
          <Trackpoint>
            <Time>2022-09-20T10:05:26.000Z</Time>
            <Position>
              <LatitudeDegrees>49.458694718778133392333984375</LatitudeDegrees>
              <LongitudeDegrees>20.21077173762023448944091796875</LongitudeDegrees>
            </Position>
            <AltitudeMeters>526.5999755859375</AltitudeMeters>
            <DistanceMeters>NAN</DistanceMeters>
          </Trackpoint>
          <Trackpoint>
            <Time>2022-09-20T10:05:33.000Z</Time>
            <Position>
              <LatitudeDegrees>49.45881835184991359710693359375</LatitudeDegrees>
              <LongitudeDegrees>20.21063175983726978302001953125</LongitudeDegrees>
            </Position>
            <AltitudeMeters>527</AltitudeMeters>
            <DistanceMeters>NAN</DistanceMeters>
          </Trackpoint>
          <Trackpoint>
            <Time>2022-09-20T10:05:34.000Z</Time>
            <Position>
              <LatitudeDegrees>49.45885774679481983184814453125</LatitudeDegrees>
              <LongitudeDegrees>20.21058632992208003997802734375</LongitudeDegrees>
            </Position>
            <AltitudeMeters>527</AltitudeMeters>
            <DistanceMeters>NAN</DistanceMeters>
          </Trackpoint>
          <Trackpoint>
            <Time>2022-09-20T10:05:38.000Z</Time>
            <Position>
              <LatitudeDegrees>49.45891524665057659149169921875</LatitudeDegrees>
              <LongitudeDegrees>20.21052245981991291046142578125</LongitudeDegrees>
            </Position>
            <AltitudeMeters>527.20001220703125</AltitudeMeters>
            <DistanceMeters>NAN</DistanceMeters>
          </Trackpoint>
          <Trackpoint>
            <Time>2022-09-20T10:05:41.000Z</Time>
            <Position>
              <LatitudeDegrees>49.45899018086493015289306640625</LatitudeDegrees>
              <LongitudeDegrees>20.21045406349003314971923828125</LongitudeDegrees>
            </Position>
            <AltitudeMeters>527.79998779296875</AltitudeMeters>
            <DistanceMeters>NAN</DistanceMeters>
          </Trackpoint>
          <Trackpoint>
            <Time>2022-09-20T10:05:43.000Z</Time>
            <Position>
              <LatitudeDegrees>49.4590271450579166412353515625</LatitudeDegrees>
              <LongitudeDegrees>20.21041567437350749969482421875</LongitudeDegrees>
            </Position>
            <AltitudeMeters>527.79998779296875</AltitudeMeters>
            <DistanceMeters>NAN</DistanceMeters>
          </Trackpoint>
          <Trackpoint>
            <Time>2022-09-20T10:05:48.000Z</Time>
            <Position>
              <LatitudeDegrees>49.4591029174625873565673828125</LatitudeDegrees>
              <LongitudeDegrees>20.2103317715227603912353515625</LongitudeDegrees>
            </Position>
            <AltitudeMeters>527.79998779296875</AltitudeMeters>
            <DistanceMeters>NAN</DistanceMeters>
          </Trackpoint>
          <Trackpoint>
            <Time>2022-09-20T10:05:55.000Z</Time>
            <Position>
              <LatitudeDegrees>49.45926326327025890350341796875</LatitudeDegrees>
              <LongitudeDegrees>20.2101845853030681610107421875</LongitudeDegrees>
            </Position>
            <AltitudeMeters>527.79998779296875</AltitudeMeters>
            <DistanceMeters>NAN</DistanceMeters>
          </Trackpoint>
          <Trackpoint>
            <Time>2022-09-20T10:05:56.000Z</Time>
            <Position>
              <LatitudeDegrees>49.45928555913269519805908203125</LatitudeDegrees>
              <LongitudeDegrees>20.21016656421124935150146484375</LongitudeDegrees>
            </Position>
            <AltitudeMeters>527.79998779296875</AltitudeMeters>
            <DistanceMeters>NAN</DistanceMeters>
          </Trackpoint>
          <Trackpoint>
            <Time>2022-09-20T10:06:03.000Z</Time>
            <Position>
              <LatitudeDegrees>49.459420256316661834716796875</LatitudeDegrees>
              <LongitudeDegrees>20.21003362722694873809814453125</LongitudeDegrees>
            </Position>
            <AltitudeMeters>527.4000244140625</AltitudeMeters>
            <DistanceMeters>NAN</DistanceMeters>
          </Trackpoint>
          <Trackpoint>
            <Time>2022-09-20T10:06:11.000Z</Time>
            <Position>
              <LatitudeDegrees>49.459636174142360687255859375</LatitudeDegrees>
              <LongitudeDegrees>20.209818296134471893310546875</LongitudeDegrees>
            </Position>
            <AltitudeMeters>527.5999755859375</AltitudeMeters>
            <DistanceMeters>NAN</DistanceMeters>
          </Trackpoint>
          <Trackpoint>
            <Time>2022-09-20T10:06:19.000Z</Time>
            <Position>
              <LatitudeDegrees>49.45982954464852809906005859375</LatitudeDegrees>
              <LongitudeDegrees>20.20960598252713680267333984375</LongitudeDegrees>
            </Position>
            <AltitudeMeters>528.20001220703125</AltitudeMeters>
            <DistanceMeters>NAN</DistanceMeters>
          </Trackpoint>
          <Trackpoint>
            <Time>2022-09-20T10:06:20.000Z</Time>
            <Position>
              <LatitudeDegrees>49.45985234342515468597412109375</LatitudeDegrees>
              <LongitudeDegrees>20.20957731641829013824462890625</LongitudeDegrees>
            </Position>
            <AltitudeMeters>528.4000244140625</AltitudeMeters>
            <DistanceMeters>NAN</DistanceMeters>
          </Trackpoint>
          <Trackpoint>
            <Time>2022-09-20T10:06:23.000Z</Time>
            <Position>
              <LatitudeDegrees>49.4599179737269878387451171875</LatitudeDegrees>
              <LongitudeDegrees>20.20949718542397022247314453125</LongitudeDegrees>
            </Position>
            <AltitudeMeters>528.4000244140625</AltitudeMeters>
            <DistanceMeters>NAN</DistanceMeters>
          </Trackpoint>
          <Trackpoint>
            <Time>2022-09-20T10:06:25.000Z</Time>
            <Position>
              <LatitudeDegrees>49.45996516384184360504150390625</LatitudeDegrees>
              <LongitudeDegrees>20.20944957621395587921142578125</LongitudeDegrees>
            </Position>
            <AltitudeMeters>528.4000244140625</AltitudeMeters>
            <DistanceMeters>NAN</DistanceMeters>
          </Trackpoint>
          <Trackpoint>
            <Time>2022-09-20T10:06:27.000Z</Time>
            <Position>
              <LatitudeDegrees>49.46001746691763401031494140625</LatitudeDegrees>
              <LongitudeDegrees>20.2094214968383312225341796875</LongitudeDegrees>
            </Position>
            <AltitudeMeters>528.4000244140625</AltitudeMeters>
            <DistanceMeters>NAN</DistanceMeters>
          </Trackpoint>
          <Trackpoint>
            <Time>2022-09-20T10:06:29.000Z</Time>
            <Position>
              <LatitudeDegrees>49.46004579775035381317138671875</LatitudeDegrees>
              <LongitudeDegrees>20.2094097621738910675048828125</LongitudeDegrees>
            </Position>
            <AltitudeMeters>528.20001220703125</AltitudeMeters>
            <DistanceMeters>NAN</DistanceMeters>
          </Trackpoint>
          <Trackpoint>
            <Time>2022-09-20T10:06:34.000Z</Time>
            <Position>
              <LatitudeDegrees>49.460216872394084930419921875</LatitudeDegrees>
              <LongitudeDegrees>20.209240950644016265869140625</LongitudeDegrees>
            </Position>
            <AltitudeMeters>528</AltitudeMeters>
            <DistanceMeters>NAN</DistanceMeters>
          </Trackpoint>
          <Trackpoint>
            <Time>2022-09-20T10:06:36.000Z</Time>
            <Position>
              <LatitudeDegrees>49.46027646772563457489013671875</LatitudeDegrees>
              <LongitudeDegrees>20.20917314104735851287841796875</LongitudeDegrees>
            </Position>
            <AltitudeMeters>527.79998779296875</AltitudeMeters>
            <DistanceMeters>NAN</DistanceMeters>
          </Trackpoint>
          <Trackpoint>
            <Time>2022-09-20T10:06:42.000Z</Time>
            <Position>
              <LatitudeDegrees>49.46047612465918064117431640625</LatitudeDegrees>
              <LongitudeDegrees>20.2089584805071353912353515625</LongitudeDegrees>
            </Position>
            <AltitudeMeters>527.20001220703125</AltitudeMeters>
            <DistanceMeters>NAN</DistanceMeters>
          </Trackpoint>
          <Trackpoint>
            <Time>2022-09-20T10:06:45.000Z</Time>
            <Position>
              <LatitudeDegrees>49.46059129200875759124755859375</LatitudeDegrees>
              <LongitudeDegrees>20.2088530361652374267578125</LongitudeDegrees>
            </Position>
            <AltitudeMeters>526.79998779296875</AltitudeMeters>
            <DistanceMeters>NAN</DistanceMeters>
          </Trackpoint>
          <Trackpoint>
            <Time>2022-09-20T10:06:49.000Z</Time>
            <Position>
              <LatitudeDegrees>49.46074300445616245269775390625</LatitudeDegrees>
              <LongitudeDegrees>20.2087033353745937347412109375</LongitudeDegrees>
            </Position>
            <AltitudeMeters>526.20001220703125</AltitudeMeters>
            <DistanceMeters>NAN</DistanceMeters>
          </Trackpoint>
          <Trackpoint>
            <Time>2022-09-20T10:06:51.000Z</Time>
            <Position>
              <LatitudeDegrees>49.46081626228988170623779296875</LatitudeDegrees>
              <LongitudeDegrees>20.20863938145339488983154296875</LongitudeDegrees>
            </Position>
            <AltitudeMeters>526</AltitudeMeters>
            <DistanceMeters>NAN</DistanceMeters>
          </Trackpoint>
          <Trackpoint>
            <Time>2022-09-20T10:06:58.000Z</Time>
            <Position>
              <LatitudeDegrees>49.4610540568828582763671875</LatitudeDegrees>
              <LongitudeDegrees>20.20840452052652835845947265625</LongitudeDegrees>
            </Position>
            <AltitudeMeters>525.5999755859375</AltitudeMeters>
            <DistanceMeters>NAN</DistanceMeters>
          </Trackpoint>
          <Trackpoint>
            <Time>2022-09-20T10:07:00.000Z</Time>
            <Position>
              <LatitudeDegrees>49.4611206091940402984619140625</LatitudeDegrees>
              <LongitudeDegrees>20.2083586715161800384521484375</LongitudeDegrees>
            </Position>
            <AltitudeMeters>525.4000244140625</AltitudeMeters>
            <DistanceMeters>NAN</DistanceMeters>
          </Trackpoint>
          <Trackpoint>
            <Time>2022-09-20T10:07:04.000Z</Time>
            <Position>
              <LatitudeDegrees>49.46121775545179843902587890625</LatitudeDegrees>
              <LongitudeDegrees>20.20837048999965190887451171875</LongitudeDegrees>
            </Position>
            <AltitudeMeters>525.4000244140625</AltitudeMeters>
            <DistanceMeters>NAN</DistanceMeters>
          </Trackpoint>
          <Trackpoint>
            <Time>2022-09-20T10:07:05.000Z</Time>
            <Position>
              <LatitudeDegrees>49.4612731598317623138427734375</LatitudeDegrees>
              <LongitudeDegrees>20.20844064652919769287109375</LongitudeDegrees>
            </Position>
            <AltitudeMeters>525.4000244140625</AltitudeMeters>
            <DistanceMeters>NAN</DistanceMeters>
          </Trackpoint>
          <Trackpoint>
            <Time>2022-09-20T10:07:07.000Z</Time>
            <Position>
              <LatitudeDegrees>49.461310543119907379150390625</LatitudeDegrees>
              <LongitudeDegrees>20.208550952374935150146484375</LongitudeDegrees>
            </Position>
            <AltitudeMeters>525.5999755859375</AltitudeMeters>
            <DistanceMeters>NAN</DistanceMeters>
          </Trackpoint>
          <Trackpoint>
            <Time>2022-09-20T10:07:13.000Z</Time>
            <Position>
              <LatitudeDegrees>49.46140249259769916534423828125</LatitudeDegrees>
              <LongitudeDegrees>20.2089393697679042816162109375</LongitudeDegrees>
            </Position>
            <AltitudeMeters>525.5999755859375</AltitudeMeters>
            <DistanceMeters>NAN</DistanceMeters>
          </Trackpoint>
          <Trackpoint>
            <Time>2022-09-20T10:07:18.000Z</Time>
            <Position>
              <LatitudeDegrees>49.4614887423813343048095703125</LatitudeDegrees>
              <LongitudeDegrees>20.209261737763881683349609375</LongitudeDegrees>
            </Position>
            <AltitudeMeters>525.4000244140625</AltitudeMeters>
            <DistanceMeters>NAN</DistanceMeters>
          </Trackpoint>
          <Trackpoint>
            <Time>2022-09-20T10:07:19.000Z</Time>
            <Position>
              <LatitudeDegrees>49.46150391362607479095458984375</LatitudeDegrees>
              <LongitudeDegrees>20.2093272842466831207275390625</LongitudeDegrees>
            </Position>
            <AltitudeMeters>525.4000244140625</AltitudeMeters>
            <DistanceMeters>NAN</DistanceMeters>
          </Trackpoint>
          <Trackpoint>
            <Time>2022-09-20T10:07:21.000Z</Time>
            <Position>
              <LatitudeDegrees>49.46152755059301853179931640625</LatitudeDegrees>
              <LongitudeDegrees>20.209456868469715118408203125</LongitudeDegrees>
            </Position>
            <AltitudeMeters>525.4000244140625</AltitudeMeters>
            <DistanceMeters>NAN</DistanceMeters>
          </Trackpoint>
          <Trackpoint>
            <Time>2022-09-20T10:07:25.000Z</Time>
            <Position>
              <LatitudeDegrees>49.46159125305712223052978515625</LatitudeDegrees>
              <LongitudeDegrees>20.2097111754119396209716796875</LongitudeDegrees>
            </Position>
            <AltitudeMeters>525.20001220703125</AltitudeMeters>
            <DistanceMeters>NAN</DistanceMeters>
          </Trackpoint>
          <Trackpoint>
            <Time>2022-09-20T10:07:31.000Z</Time>
            <Position>
              <LatitudeDegrees>49.46167607791721820831298828125</LatitudeDegrees>
              <LongitudeDegrees>20.210080482065677642822265625</LongitudeDegrees>
            </Position>
            <AltitudeMeters>525</AltitudeMeters>
            <DistanceMeters>NAN</DistanceMeters>
          </Trackpoint>
          <Trackpoint>
            <Time>2022-09-20T10:07:34.000Z</Time>
            <Position>
              <LatitudeDegrees>49.4617299735546112060546875</LatitudeDegrees>
              <LongitudeDegrees>20.2102429233491420745849609375</LongitudeDegrees>
            </Position>
            <AltitudeMeters>524.79998779296875</AltitudeMeters>
            <DistanceMeters>NAN</DistanceMeters>
          </Trackpoint>
          <Trackpoint>
            <Time>2022-09-20T10:07:38.000Z</Time>
            <Position>
              <LatitudeDegrees>49.46177951060235500335693359375</LatitudeDegrees>
              <LongitudeDegrees>20.2104918658733367919921875</LongitudeDegrees>
            </Position>
            <AltitudeMeters>524.5999755859375</AltitudeMeters>
            <DistanceMeters>NAN</DistanceMeters>
          </Trackpoint>
          <Trackpoint>
            <Time>2022-09-20T10:07:47.000Z</Time>
            <Position>
              <LatitudeDegrees>49.4619081728160381317138671875</LatitudeDegrees>
              <LongitudeDegrees>20.21095831878483295440673828125</LongitudeDegrees>
            </Position>
            <AltitudeMeters>524.20001220703125</AltitudeMeters>
            <DistanceMeters>NAN</DistanceMeters>
          </Trackpoint>
          <Trackpoint>
            <Time>2022-09-20T10:07:50.000Z</Time>
            <Position>
              <LatitudeDegrees>49.46195863187313079833984375</LatitudeDegrees>
              <LongitudeDegrees>20.21119452081620693206787109375</LongitudeDegrees>
            </Position>
            <AltitudeMeters>524.20001220703125</AltitudeMeters>
            <DistanceMeters>NAN</DistanceMeters>
          </Trackpoint>
          <Trackpoint>
            <Time>2022-09-20T10:07:55.000Z</Time>
            <Position>
              <LatitudeDegrees>49.46202568709850311279296875</LatitudeDegrees>
              <LongitudeDegrees>20.21143399178981781005859375</LongitudeDegrees>
            </Position>
            <AltitudeMeters>524</AltitudeMeters>
            <DistanceMeters>NAN</DistanceMeters>
          </Trackpoint>
          <Trackpoint>
            <Time>2022-09-20T10:08:02.000Z</Time>
            <Position>
              <LatitudeDegrees>49.46214781142771244049072265625</LatitudeDegrees>
              <LongitudeDegrees>20.211902372539043426513671875</LongitudeDegrees>
            </Position>
            <AltitudeMeters>523.79998779296875</AltitudeMeters>
            <DistanceMeters>NAN</DistanceMeters>
          </Trackpoint>
          <Trackpoint>
            <Time>2022-09-20T10:08:06.000Z</Time>
            <Position>
              <LatitudeDegrees>49.462213106453418731689453125</LatitudeDegrees>
              <LongitudeDegrees>20.21214603446424007415771484375</LongitudeDegrees>
            </Position>
            <AltitudeMeters>523.5999755859375</AltitudeMeters>
            <DistanceMeters>NAN</DistanceMeters>
          </Trackpoint>
          <Trackpoint>
            <Time>2022-09-20T10:08:07.000Z</Time>
            <Position>
              <LatitudeDegrees>49.4622270204126834869384765625</LatitudeDegrees>
              <LongitudeDegrees>20.212207138538360595703125</LongitudeDegrees>
            </Position>
            <AltitudeMeters>523.5999755859375</AltitudeMeters>
            <DistanceMeters>NAN</DistanceMeters>
          </Trackpoint>
          <Trackpoint>
            <Time>2022-09-20T10:08:14.000Z</Time>
            <Position>
              <LatitudeDegrees>49.46231511421501636505126953125</LatitudeDegrees>
              <LongitudeDegrees>20.21265330724418163299560546875</LongitudeDegrees>
            </Position>
            <AltitudeMeters>523.4000244140625</AltitudeMeters>
            <DistanceMeters>NAN</DistanceMeters>
          </Trackpoint>
          <Trackpoint>
            <Time>2022-09-20T10:08:15.000Z</Time>
            <Position>
              <LatitudeDegrees>49.46231712587177753448486328125</LatitudeDegrees>
              <LongitudeDegrees>20.2127192728221416473388671875</LongitudeDegrees>
            </Position>
            <AltitudeMeters>523.4000244140625</AltitudeMeters>
            <DistanceMeters>NAN</DistanceMeters>
          </Trackpoint>
          <Trackpoint>
            <Time>2022-09-20T10:08:16.000Z</Time>
            <Position>
              <LatitudeDegrees>49.46232332848012447357177734375</LatitudeDegrees>
              <LongitudeDegrees>20.21278657950460910797119140625</LongitudeDegrees>
            </Position>
            <AltitudeMeters>523.20001220703125</AltitudeMeters>
            <DistanceMeters>NAN</DistanceMeters>
          </Trackpoint>
          <Trackpoint>
            <Time>2022-09-20T10:08:20.000Z</Time>
            <Position>
              <LatitudeDegrees>49.46235953830182552337646484375</LatitudeDegrees>
              <LongitudeDegrees>20.21301691420376300811767578125</LongitudeDegrees>
            </Position>
            <AltitudeMeters>523.20001220703125</AltitudeMeters>
            <DistanceMeters>NAN</DistanceMeters>
          </Trackpoint>
          <Trackpoint>
            <Time>2022-09-20T10:08:23.000Z</Time>
            <Position>
              <LatitudeDegrees>49.4623683393001556396484375</LatitudeDegrees>
              <LongitudeDegrees>20.21312487311661243438720703125</LongitudeDegrees>
            </Position>
            <AltitudeMeters>523.5999755859375</AltitudeMeters>
            <DistanceMeters>NAN</DistanceMeters>
          </Trackpoint>
          <Trackpoint>
            <Time>2022-09-20T10:08:26.000Z</Time>
            <Position>
              <LatitudeDegrees>49.46237328462302684783935546875</LatitudeDegrees>
              <LongitudeDegrees>20.21319662220776081085205078125</LongitudeDegrees>
            </Position>
            <AltitudeMeters>523.5999755859375</AltitudeMeters>
            <DistanceMeters>NAN</DistanceMeters>
          </Trackpoint>
          <Trackpoint>
            <Time>2022-09-20T10:08:30.000Z</Time>
            <Position>
              <LatitudeDegrees>49.46237563155591487884521484375</LatitudeDegrees>
              <LongitudeDegrees>20.21321103908121585845947265625</LongitudeDegrees>
            </Position>
            <AltitudeMeters>523.5999755859375</AltitudeMeters>
            <DistanceMeters>NAN</DistanceMeters>
          </Trackpoint>
          <Trackpoint>
            <Time>2022-09-20T10:08:38.000Z</Time>
            <Position>
              <LatitudeDegrees>49.46237563155591487884521484375</LatitudeDegrees>
              <LongitudeDegrees>20.21321103908121585845947265625</LongitudeDegrees>
            </Position>
            <AltitudeMeters>523.4000244140625</AltitudeMeters>
            <DistanceMeters>NAN</DistanceMeters>
          </Trackpoint>
          <Trackpoint>
            <Time>2022-09-20T10:08:41.000Z</Time>
            <Position>
              <LatitudeDegrees>49.46237563155591487884521484375</LatitudeDegrees>
              <LongitudeDegrees>20.21321103908121585845947265625</LongitudeDegrees>
            </Position>
            <AltitudeMeters>523.5999755859375</AltitudeMeters>
            <DistanceMeters>NAN</DistanceMeters>
          </Trackpoint>
          <Trackpoint>
            <Time>2022-09-20T10:08:42.000Z</Time>
            <Position>
              <LatitudeDegrees>49.46237563155591487884521484375</LatitudeDegrees>
              <LongitudeDegrees>20.21321103908121585845947265625</LongitudeDegrees>
            </Position>
            <AltitudeMeters>523.5999755859375</AltitudeMeters>
            <DistanceMeters>NAN</DistanceMeters>
          </Trackpoint>
          <Trackpoint>
            <Time>2022-09-20T10:08:43.000Z</Time>
            <Position>
              <LatitudeDegrees>49.46237563155591487884521484375</LatitudeDegrees>
              <LongitudeDegrees>20.21321103908121585845947265625</LongitudeDegrees>
            </Position>
            <AltitudeMeters>523.4000244140625</AltitudeMeters>
            <DistanceMeters>NAN</DistanceMeters>
          </Trackpoint>
          <Trackpoint>
            <Time>2022-09-20T10:08:44.000Z</Time>
            <Position>
              <LatitudeDegrees>49.46237563155591487884521484375</LatitudeDegrees>
              <LongitudeDegrees>20.21321103908121585845947265625</LongitudeDegrees>
            </Position>
            <AltitudeMeters>523.4000244140625</AltitudeMeters>
            <DistanceMeters>NAN</DistanceMeters>
          </Trackpoint>
          <Trackpoint>
            <Time>2022-09-20T10:08:51.000Z</Time>
            <Position>
              <LatitudeDegrees>49.46237563155591487884521484375</LatitudeDegrees>
              <LongitudeDegrees>20.21321103908121585845947265625</LongitudeDegrees>
            </Position>
            <AltitudeMeters>523.4000244140625</AltitudeMeters>
            <DistanceMeters>NAN</DistanceMeters>
          </Trackpoint>
          <Trackpoint>
            <Time>2022-09-20T10:08:52.000Z</Time>
            <Position>
              <LatitudeDegrees>49.46237563155591487884521484375</LatitudeDegrees>
              <LongitudeDegrees>20.21321103908121585845947265625</LongitudeDegrees>
            </Position>
            <AltitudeMeters>523.4000244140625</AltitudeMeters>
            <DistanceMeters>NAN</DistanceMeters>
          </Trackpoint>
          <Trackpoint>
            <Time>2022-09-20T10:08:53.000Z</Time>
            <Position>
              <LatitudeDegrees>49.46237563155591487884521484375</LatitudeDegrees>
              <LongitudeDegrees>20.21321103908121585845947265625</LongitudeDegrees>
            </Position>
            <AltitudeMeters>523.4000244140625</AltitudeMeters>
            <DistanceMeters>NAN</DistanceMeters>
          </Trackpoint>
          <Trackpoint>
            <Time>2022-09-20T10:09:53.000Z</Time>
            <Position>
              <LatitudeDegrees>49.46237563155591487884521484375</LatitudeDegrees>
              <LongitudeDegrees>20.21321103908121585845947265625</LongitudeDegrees>
            </Position>
            <AltitudeMeters>523.20001220703125</AltitudeMeters>
            <DistanceMeters>NAN</DistanceMeters>
          </Trackpoint>
          <Trackpoint>
            <Time>2022-09-20T10:09:55.000Z</Time>
            <Position>
              <LatitudeDegrees>49.46237563155591487884521484375</LatitudeDegrees>
              <LongitudeDegrees>20.21321103908121585845947265625</LongitudeDegrees>
            </Position>
            <AltitudeMeters>523.20001220703125</AltitudeMeters>
            <DistanceMeters>NAN</DistanceMeters>
          </Trackpoint>
          <Trackpoint>
            <Time>2022-09-20T10:10:07.000Z</Time>
            <Position>
              <LatitudeDegrees>49.46237839758396148681640625</LatitudeDegrees>
              <LongitudeDegrees>20.21321221254765987396240234375</LongitudeDegrees>
            </Position>
            <AltitudeMeters>523.20001220703125</AltitudeMeters>
            <DistanceMeters>NAN</DistanceMeters>
          </Trackpoint>
          <Trackpoint>
            <Time>2022-09-20T10:10:10.000Z</Time>
            <Position>
              <LatitudeDegrees>49.46237864904105663299560546875</LatitudeDegrees>
              <LongitudeDegrees>20.2132138051092624664306640625</LongitudeDegrees>
            </Position>
            <AltitudeMeters>523.4000244140625</AltitudeMeters>
            <DistanceMeters>NAN</DistanceMeters>
          </Trackpoint>
          <Trackpoint>
            <Time>2022-09-20T10:10:16.000Z</Time>
            <Position>
              <LatitudeDegrees>49.46238568983972072601318359375</LatitudeDegrees>
              <LongitudeDegrees>20.21321439184248447418212890625</LongitudeDegrees>
            </Position>
            <AltitudeMeters>523.4000244140625</AltitudeMeters>
            <DistanceMeters>NAN</DistanceMeters>
          </Trackpoint>
          <Trackpoint>
            <Time>2022-09-20T10:10:22.000Z</Time>
            <Position>
              <LatitudeDegrees>49.4624003581702709197998046875</LatitudeDegrees>
              <LongitudeDegrees>20.21322662942111492156982421875</LongitudeDegrees>
            </Position>
            <AltitudeMeters>523.4000244140625</AltitudeMeters>
            <DistanceMeters>NAN</DistanceMeters>
          </Trackpoint>
          <Trackpoint>
            <Time>2022-09-20T10:10:25.000Z</Time>
            <Position>
              <LatitudeDegrees>49.46242441423237323760986328125</LatitudeDegrees>
              <LongitudeDegrees>20.21329971961677074432373046875</LongitudeDegrees>
            </Position>
            <AltitudeMeters>523.4000244140625</AltitudeMeters>
            <DistanceMeters>NAN</DistanceMeters>
          </Trackpoint>
          <Trackpoint>
            <Time>2022-09-20T10:10:31.000Z</Time>
            <Position>
              <LatitudeDegrees>49.4624808244407176971435546875</LatitudeDegrees>
              <LongitudeDegrees>20.2134877257049083709716796875</LongitudeDegrees>
            </Position>
            <AltitudeMeters>523.5999755859375</AltitudeMeters>
            <DistanceMeters>NAN</DistanceMeters>
          </Trackpoint>
          <Trackpoint>
            <Time>2022-09-20T10:10:38.000Z</Time>
            <Position>
              <LatitudeDegrees>49.4625346362590789794921875</LatitudeDegrees>
              <LongitudeDegrees>20.213697440922260284423828125</LongitudeDegrees>
            </Position>
            <AltitudeMeters>523.5999755859375</AltitudeMeters>
            <DistanceMeters>NAN</DistanceMeters>
          </Trackpoint>
          <Trackpoint>
            <Time>2022-09-20T10:10:49.000Z</Time>
            <Position>
              <LatitudeDegrees>49.4626124203205108642578125</LatitudeDegrees>
              <LongitudeDegrees>20.2140255086123943328857421875</LongitudeDegrees>
            </Position>
            <AltitudeMeters>523.5999755859375</AltitudeMeters>
            <DistanceMeters>NAN</DistanceMeters>
          </Trackpoint>
          <Trackpoint>
            <Time>2022-09-20T10:10:57.000Z</Time>
            <Position>
              <LatitudeDegrees>49.46266631595790386199951171875</LatitudeDegrees>
              <LongitudeDegrees>20.21425458602607250213623046875</LongitudeDegrees>
            </Position>
            <AltitudeMeters>523.5999755859375</AltitudeMeters>
            <DistanceMeters>NAN</DistanceMeters>
          </Trackpoint>
          <Trackpoint>
            <Time>2022-09-20T10:11:05.000Z</Time>
            <Position>
              <LatitudeDegrees>49.46271627210080623626708984375</LatitudeDegrees>
              <LongitudeDegrees>20.21448140032589435577392578125</LongitudeDegrees>
            </Position>
            <AltitudeMeters>523.5999755859375</AltitudeMeters>
            <DistanceMeters>NAN</DistanceMeters>
          </Trackpoint>
          <Trackpoint>
            <Time>2022-09-20T10:11:13.000Z</Time>
            <Position>
              <LatitudeDegrees>49.462774358689785003662109375</LatitudeDegrees>
              <LongitudeDegrees>20.21470536477863788604736328125</LongitudeDegrees>
            </Position>
            <AltitudeMeters>523.4000244140625</AltitudeMeters>
            <DistanceMeters>NAN</DistanceMeters>
          </Trackpoint>
          <Trackpoint>
            <Time>2022-09-20T10:11:20.000Z</Time>
            <Position>
              <LatitudeDegrees>49.46281366981565952301025390625</LatitudeDegrees>
              <LongitudeDegrees>20.21487887017428874969482421875</LongitudeDegrees>
            </Position>
            <AltitudeMeters>523.4000244140625</AltitudeMeters>
            <DistanceMeters>NAN</DistanceMeters>
          </Trackpoint>
          <Trackpoint>
            <Time>2022-09-20T10:11:22.000Z</Time>
            <Position>
              <LatitudeDegrees>49.46282498538494110107421875</LatitudeDegrees>
              <LongitudeDegrees>20.2149210311472415924072265625</LongitudeDegrees>
            </Position>
            <AltitudeMeters>523.4000244140625</AltitudeMeters>
            <DistanceMeters>NAN</DistanceMeters>
          </Trackpoint>
          <Trackpoint>
            <Time>2022-09-20T10:11:26.000Z</Time>
            <Position>
              <LatitudeDegrees>49.46282406337559223175048828125</LatitudeDegrees>
              <LongitudeDegrees>20.214938633143901824951171875</LongitudeDegrees>
            </Position>
            <AltitudeMeters>523.4000244140625</AltitudeMeters>
            <DistanceMeters>NAN</DistanceMeters>
          </Trackpoint>
          <Trackpoint>
            <Time>2022-09-20T10:11:34.000Z</Time>
            <Position>
              <LatitudeDegrees>49.46282054297626018524169921875</LatitudeDegrees>
              <LongitudeDegrees>20.21493301726877689361572265625</LongitudeDegrees>
            </Position>
            <AltitudeMeters>523.4000244140625</AltitudeMeters>
            <DistanceMeters>NAN</DistanceMeters>
          </Trackpoint>
          <Trackpoint>
            <Time>2022-09-20T10:11:35.000Z</Time>
            <Position>
              <LatitudeDegrees>49.462808556854724884033203125</LatitudeDegrees>
              <LongitudeDegrees>20.21488524042069911956787109375</LongitudeDegrees>
            </Position>
            <AltitudeMeters>523.4000244140625</AltitudeMeters>
            <DistanceMeters>NAN</DistanceMeters>
          </Trackpoint>
          <Trackpoint>
            <Time>2022-09-20T10:11:38.000Z</Time>
            <Position>
              <LatitudeDegrees>49.46279237978160381317138671875</LatitudeDegrees>
              <LongitudeDegrees>20.21479572169482707977294921875</LongitudeDegrees>
            </Position>
            <AltitudeMeters>523.4000244140625</AltitudeMeters>
            <DistanceMeters>NAN</DistanceMeters>
          </Trackpoint>
          <Trackpoint>
            <Time>2022-09-20T10:11:43.000Z</Time>
            <Position>
              <LatitudeDegrees>49.46274292655289173126220703125</LatitudeDegrees>
              <LongitudeDegrees>20.214579217135906219482421875</LongitudeDegrees>
            </Position>
            <AltitudeMeters>523.4000244140625</AltitudeMeters>
            <DistanceMeters>NAN</DistanceMeters>
          </Trackpoint>
          <Trackpoint>
            <Time>2022-09-20T10:11:51.000Z</Time>
            <Position>
              <LatitudeDegrees>49.46264737285673618316650390625</LatitudeDegrees>
              <LongitudeDegrees>20.21417965181171894073486328125</LongitudeDegrees>
            </Position>
            <AltitudeMeters>523.4000244140625</AltitudeMeters>
            <DistanceMeters>NAN</DistanceMeters>
          </Trackpoint>
          <Trackpoint>
            <Time>2022-09-20T10:11:57.000Z</Time>
            <Position>
              <LatitudeDegrees>49.46259087882936000823974609375</LatitudeDegrees>
              <LongitudeDegrees>20.21391109563410282135009765625</LongitudeDegrees>
            </Position>
            <AltitudeMeters>523.4000244140625</AltitudeMeters>
            <DistanceMeters>NAN</DistanceMeters>
          </Trackpoint>
          <Trackpoint>
            <Time>2022-09-20T10:12:00.000Z</Time>
            <Position>
              <LatitudeDegrees>49.4625612907111644744873046875</LatitudeDegrees>
              <LongitudeDegrees>20.2137730456888675689697265625</LongitudeDegrees>
            </Position>
            <AltitudeMeters>523.4000244140625</AltitudeMeters>
            <DistanceMeters>NAN</DistanceMeters>
          </Trackpoint>
          <Trackpoint>
            <Time>2022-09-20T10:12:06.000Z</Time>
            <Position>
              <LatitudeDegrees>49.462501108646392822265625</LatitudeDegrees>
              <LongitudeDegrees>20.2135433815419673919677734375</LongitudeDegrees>
            </Position>
            <AltitudeMeters>523.5999755859375</AltitudeMeters>
            <DistanceMeters>NAN</DistanceMeters>
          </Trackpoint>
          <Trackpoint>
            <Time>2022-09-20T10:12:10.000Z</Time>
            <Position>
              <LatitudeDegrees>49.46246196515858173370361328125</LatitudeDegrees>
              <LongitudeDegrees>20.21338622085750102996826171875</LongitudeDegrees>
            </Position>
            <AltitudeMeters>523.79998779296875</AltitudeMeters>
            <DistanceMeters>NAN</DistanceMeters>
          </Trackpoint>
          <Trackpoint>
            <Time>2022-09-20T10:12:19.000Z</Time>
            <Position>
              <LatitudeDegrees>49.46240413002669811248779296875</LatitudeDegrees>
              <LongitudeDegrees>20.2130582369863986968994140625</LongitudeDegrees>
            </Position>
            <AltitudeMeters>523.5999755859375</AltitudeMeters>
            <DistanceMeters>NAN</DistanceMeters>
          </Trackpoint>
          <Trackpoint>
            <Time>2022-09-20T10:12:21.000Z</Time>
            <Position>
              <LatitudeDegrees>49.46242994628846645355224609375</LatitudeDegrees>
              <LongitudeDegrees>20.212991349399089813232421875</LongitudeDegrees>
            </Position>
            <AltitudeMeters>523.4000244140625</AltitudeMeters>
            <DistanceMeters>NAN</DistanceMeters>
          </Trackpoint>
          <Trackpoint>
            <Time>2022-09-20T10:12:23.000Z</Time>
            <Position>
              <LatitudeDegrees>49.462474286556243896484375</LatitudeDegrees>
              <LongitudeDegrees>20.21299696527421474456787109375</LongitudeDegrees>
            </Position>
            <AltitudeMeters>523.20001220703125</AltitudeMeters>
            <DistanceMeters>NAN</DistanceMeters>
          </Trackpoint>
          <Trackpoint>
            <Time>2022-09-20T10:12:25.000Z</Time>
            <Position>
              <LatitudeDegrees>49.4624992646276950836181640625</LatitudeDegrees>
              <LongitudeDegrees>20.21306670270860195159912109375</LongitudeDegrees>
            </Position>
            <AltitudeMeters>523.20001220703125</AltitudeMeters>
            <DistanceMeters>NAN</DistanceMeters>
          </Trackpoint>
          <Trackpoint>
            <Time>2022-09-20T10:12:27.000Z</Time>
            <Position>
              <LatitudeDegrees>49.46251116693019866943359375</LatitudeDegrees>
              <LongitudeDegrees>20.21314348094165325164794921875</LongitudeDegrees>
            </Position>
            <AltitudeMeters>523</AltitudeMeters>
            <DistanceMeters>NAN</DistanceMeters>
          </Trackpoint>
          <Trackpoint>
            <Time>2022-09-20T10:12:36.000Z</Time>
            <Position>
              <LatitudeDegrees>49.46260328404605388641357421875</LatitudeDegrees>
              <LongitudeDegrees>20.21347917616367340087890625</LongitudeDegrees>
            </Position>
            <AltitudeMeters>522.79998779296875</AltitudeMeters>
            <DistanceMeters>NAN</DistanceMeters>
          </Trackpoint>
          <Trackpoint>
            <Time>2022-09-20T10:12:46.000Z</Time>
            <Position>
              <LatitudeDegrees>49.46269045583903789520263671875</LatitudeDegrees>
              <LongitudeDegrees>20.21387153305113315582275390625</LongitudeDegrees>
            </Position>
            <AltitudeMeters>522.79998779296875</AltitudeMeters>
            <DistanceMeters>NAN</DistanceMeters>
          </Trackpoint>
          <Trackpoint>
            <Time>2022-09-20T10:12:56.000Z</Time>
            <Position>
              <LatitudeDegrees>49.46280227042734622955322265625</LatitudeDegrees>
              <LongitudeDegrees>20.2143059670925140380859375</LongitudeDegrees>
            </Position>
            <AltitudeMeters>522.4000244140625</AltitudeMeters>
            <DistanceMeters>NAN</DistanceMeters>
          </Trackpoint>
          <Trackpoint>
            <Time>2022-09-20T10:12:59.000Z</Time>
            <Position>
              <LatitudeDegrees>49.462833702564239501953125</LatitudeDegrees>
              <LongitudeDegrees>20.21444502286612987518310546875</LongitudeDegrees>
            </Position>
            <AltitudeMeters>522.20001220703125</AltitudeMeters>
            <DistanceMeters>NAN</DistanceMeters>
          </Trackpoint>
          <Trackpoint>
            <Time>2022-09-20T10:13:04.000Z</Time>
            <Position>
              <LatitudeDegrees>49.4628871791064739227294921875</LatitudeDegrees>
              <LongitudeDegrees>20.21468256600201129913330078125</LongitudeDegrees>
            </Position>
            <AltitudeMeters>522</AltitudeMeters>
            <DistanceMeters>NAN</DistanceMeters>
          </Trackpoint>
          <Trackpoint>
            <Time>2022-09-20T10:13:05.000Z</Time>
            <Position>
              <LatitudeDegrees>49.4628985784947872161865234375</LatitudeDegrees>
              <LongitudeDegrees>20.2147404849529266357421875</LongitudeDegrees>
            </Position>
            <AltitudeMeters>522</AltitudeMeters>
            <DistanceMeters>NAN</DistanceMeters>
          </Trackpoint>
          <Trackpoint>
            <Time>2022-09-20T10:13:12.000Z</Time>
            <Position>
              <LatitudeDegrees>49.46299337781965732574462890625</LatitudeDegrees>
              <LongitudeDegrees>20.21504349075257778167724609375</LongitudeDegrees>
            </Position>
            <AltitudeMeters>521.79998779296875</AltitudeMeters>
            <DistanceMeters>NAN</DistanceMeters>
          </Trackpoint>
          <Trackpoint>
            <Time>2022-09-20T10:13:14.000Z</Time>
            <Position>
              <LatitudeDegrees>49.46302589960396289825439453125</LatitudeDegrees>
              <LongitudeDegrees>20.21512865088880062103271484375</LongitudeDegrees>
            </Position>
            <AltitudeMeters>521.79998779296875</AltitudeMeters>
            <DistanceMeters>NAN</DistanceMeters>
          </Trackpoint>
          <Trackpoint>
            <Time>2022-09-20T10:13:20.000Z</Time>
            <Position>
              <LatitudeDegrees>49.463134109973907470703125</LatitudeDegrees>
              <LongitudeDegrees>20.2153508551418781280517578125</LongitudeDegrees>
            </Position>
            <AltitudeMeters>521.5999755859375</AltitudeMeters>
            <DistanceMeters>NAN</DistanceMeters>
          </Trackpoint>
          <Trackpoint>
            <Time>2022-09-20T10:13:21.000Z</Time>
            <Position>
              <LatitudeDegrees>49.4631520472466945648193359375</LatitudeDegrees>
              <LongitudeDegrees>20.21537482738494873046875</LongitudeDegrees>
            </Position>
            <AltitudeMeters>521.5999755859375</AltitudeMeters>
            <DistanceMeters>NAN</DistanceMeters>
          </Trackpoint>
          <Trackpoint>
            <Time>2022-09-20T10:13:24.000Z</Time>
            <Position>
              <LatitudeDegrees>49.4632137380540370941162109375</LatitudeDegrees>
              <LongitudeDegrees>20.215475074946880340576171875</LongitudeDegrees>
            </Position>
            <AltitudeMeters>521.5999755859375</AltitudeMeters>
            <DistanceMeters>NAN</DistanceMeters>
          </Trackpoint>
          <Trackpoint>
            <Time>2022-09-20T10:13:25.000Z</Time>
            <Position>
              <LatitudeDegrees>49.4632320106029510498046875</LatitudeDegrees>
              <LongitudeDegrees>20.21550617180764675140380859375</LongitudeDegrees>
            </Position>
            <AltitudeMeters>521.5999755859375</AltitudeMeters>
            <DistanceMeters>NAN</DistanceMeters>
          </Trackpoint>
          <Trackpoint>
            <Time>2022-09-20T10:13:31.000Z</Time>
            <Position>
              <LatitudeDegrees>49.4633357785642147064208984375</LatitudeDegrees>
              <LongitudeDegrees>20.215652100741863250732421875</LongitudeDegrees>
            </Position>
            <AltitudeMeters>521.20001220703125</AltitudeMeters>
            <DistanceMeters>NAN</DistanceMeters>
          </Trackpoint>
          <Trackpoint>
            <Time>2022-09-20T10:13:35.000Z</Time>
            <Position>
              <LatitudeDegrees>49.46343426592648029327392578125</LatitudeDegrees>
              <LongitudeDegrees>20.21574941463768482208251953125</LongitudeDegrees>
            </Position>
            <AltitudeMeters>521.20001220703125</AltitudeMeters>
            <DistanceMeters>NAN</DistanceMeters>
          </Trackpoint>
          <Trackpoint>
            <Time>2022-09-20T10:13:38.000Z</Time>
            <Position>
              <LatitudeDegrees>49.463534094393253326416015625</LatitudeDegrees>
              <LongitudeDegrees>20.21579937078058719635009765625</LongitudeDegrees>
            </Position>
            <AltitudeMeters>521</AltitudeMeters>
            <DistanceMeters>NAN</DistanceMeters>
          </Trackpoint>
          <Trackpoint>
            <Time>2022-09-20T10:13:39.000Z</Time>
            <Position>
              <LatitudeDegrees>49.46361011825501918792724609375</LatitudeDegrees>
              <LongitudeDegrees>20.2158189006149768829345703125</LongitudeDegrees>
            </Position>
            <AltitudeMeters>520.5999755859375</AltitudeMeters>
            <DistanceMeters>NAN</DistanceMeters>
          </Trackpoint>
          <Trackpoint>
            <Time>2022-09-20T10:13:40.000Z</Time>
            <Position>
              <LatitudeDegrees>49.46364867500960826873779296875</LatitudeDegrees>
              <LongitudeDegrees>20.21582418121397495269775390625</LongitudeDegrees>
            </Position>
            <AltitudeMeters>520.4000244140625</AltitudeMeters>
            <DistanceMeters>NAN</DistanceMeters>
          </Trackpoint>
          <Trackpoint>
            <Time>2022-09-20T10:13:44.000Z</Time>
            <Position>
              <LatitudeDegrees>49.4637523591518402099609375</LatitudeDegrees>
              <LongitudeDegrees>20.215790905058383941650390625</LongitudeDegrees>
            </Position>
            <AltitudeMeters>520</AltitudeMeters>
            <DistanceMeters>NAN</DistanceMeters>
          </Trackpoint>
          <Trackpoint>
            <Time>2022-09-20T10:13:50.000Z</Time>
            <Position>
              <LatitudeDegrees>49.4639144651591777801513671875</LatitudeDegrees>
              <LongitudeDegrees>20.215670205652713775634765625</LongitudeDegrees>
            </Position>
            <AltitudeMeters>520</AltitudeMeters>
            <DistanceMeters>NAN</DistanceMeters>
          </Trackpoint>
          <Trackpoint>
            <Time>2022-09-20T10:13:53.000Z</Time>
            <Position>
              <LatitudeDegrees>49.4640070013701915740966796875</LatitudeDegrees>
              <LongitudeDegrees>20.21558026783168315887451171875</LongitudeDegrees>
            </Position>
            <AltitudeMeters>520.20001220703125</AltitudeMeters>
            <DistanceMeters>NAN</DistanceMeters>
          </Trackpoint>
          <Trackpoint>
            <Time>2022-09-20T10:13:56.000Z</Time>
            <Position>
              <LatitudeDegrees>49.4640633277595043182373046875</LatitudeDegrees>
              <LongitudeDegrees>20.2155003882944583892822265625</LongitudeDegrees>
            </Position>
            <AltitudeMeters>520</AltitudeMeters>
            <DistanceMeters>NAN</DistanceMeters>
          </Trackpoint>
          <Trackpoint>
            <Time>2022-09-20T10:13:57.000Z</Time>
            <Position>
              <LatitudeDegrees>49.4640824384987354278564453125</LatitudeDegrees>
              <LongitudeDegrees>20.2154725603759288787841796875</LongitudeDegrees>
            </Position>
            <AltitudeMeters>520</AltitudeMeters>
            <DistanceMeters>NAN</DistanceMeters>
          </Trackpoint>
          <Trackpoint>
            <Time>2022-09-20T10:14:01.000Z</Time>
            <Position>
              <LatitudeDegrees>49.46417371742427349090576171875</LatitudeDegrees>
              <LongitudeDegrees>20.21538027562201023101806640625</LongitudeDegrees>
            </Position>
            <AltitudeMeters>519.79998779296875</AltitudeMeters>
            <DistanceMeters>NAN</DistanceMeters>
          </Trackpoint>
          <Trackpoint>
            <Time>2022-09-20T10:14:04.000Z</Time>
            <Position>
              <LatitudeDegrees>49.46421478874981403350830078125</LatitudeDegrees>
              <LongitudeDegrees>20.21533434279263019561767578125</LongitudeDegrees>
            </Position>
            <AltitudeMeters>520</AltitudeMeters>
            <DistanceMeters>NAN</DistanceMeters>
          </Trackpoint>
          <Trackpoint>
            <Time>2022-09-20T10:14:10.000Z</Time>
            <Position>
              <LatitudeDegrees>49.46438133716583251953125</LatitudeDegrees>
              <LongitudeDegrees>20.21512060426175594329833984375</LongitudeDegrees>
            </Position>
            <AltitudeMeters>520</AltitudeMeters>
            <DistanceMeters>NAN</DistanceMeters>
          </Trackpoint>
          <Trackpoint>
            <Time>2022-09-20T10:14:15.000Z</Time>
            <Position>
              <LatitudeDegrees>49.46446188725531101226806640625</LatitudeDegrees>
              <LongitudeDegrees>20.2150185965001583099365234375</LongitudeDegrees>
            </Position>
            <AltitudeMeters>519.79998779296875</AltitudeMeters>
            <DistanceMeters>NAN</DistanceMeters>
          </Trackpoint>
          <Trackpoint>
            <Time>2022-09-20T10:14:17.000Z</Time>
            <Position>
              <LatitudeDegrees>49.46453246288001537322998046875</LatitudeDegrees>
              <LongitudeDegrees>20.21493167616426944732666015625</LongitudeDegrees>
            </Position>
            <AltitudeMeters>519.79998779296875</AltitudeMeters>
            <DistanceMeters>NAN</DistanceMeters>
          </Trackpoint>
          <Trackpoint>
            <Time>2022-09-20T10:14:22.000Z</Time>
            <Position>
              <LatitudeDegrees>49.464632458984851837158203125</LatitudeDegrees>
              <LongitudeDegrees>20.21484936587512493133544921875</LongitudeDegrees>
            </Position>
            <AltitudeMeters>519.5999755859375</AltitudeMeters>
            <DistanceMeters>NAN</DistanceMeters>
          </Trackpoint>
          <Trackpoint>
            <Time>2022-09-20T10:14:25.000Z</Time>
            <Position>
              <LatitudeDegrees>49.46469725109636783599853515625</LatitudeDegrees>
              <LongitudeDegrees>20.21479924209415912628173828125</LongitudeDegrees>
            </Position>
            <AltitudeMeters>519.5999755859375</AltitudeMeters>
            <DistanceMeters>NAN</DistanceMeters>
          </Trackpoint>
          <Trackpoint>
            <Time>2022-09-20T10:14:34.000Z</Time>
            <Position>
              <LatitudeDegrees>49.46488299407064914703369140625</LatitudeDegrees>
              <LongitudeDegrees>20.214622132480144500732421875</LongitudeDegrees>
            </Position>
            <AltitudeMeters>519.4000244140625</AltitudeMeters>
            <DistanceMeters>NAN</DistanceMeters>
          </Trackpoint>
          <Trackpoint>
            <Time>2022-09-20T10:14:42.000Z</Time>
            <Position>
              <LatitudeDegrees>49.4650493748486042022705078125</LatitudeDegrees>
              <LongitudeDegrees>20.21448005922138690948486328125</LongitudeDegrees>
            </Position>
            <AltitudeMeters>519.20001220703125</AltitudeMeters>
            <DistanceMeters>NAN</DistanceMeters>
          </Trackpoint>
          <Trackpoint>
            <Time>2022-09-20T10:14:51.000Z</Time>
            <Position>
              <LatitudeDegrees>49.46524928323924541473388671875</LatitudeDegrees>
              <LongitudeDegrees>20.21431468427181243896484375</LongitudeDegrees>
            </Position>
            <AltitudeMeters>518.79998779296875</AltitudeMeters>
            <DistanceMeters>NAN</DistanceMeters>
          </Trackpoint>
          <Trackpoint>
            <Time>2022-09-20T10:14:59.000Z</Time>
            <Position>
              <LatitudeDegrees>49.46543955244123935699462890625</LatitudeDegrees>
              <LongitudeDegrees>20.21418384276330471038818359375</LongitudeDegrees>
            </Position>
            <AltitudeMeters>519</AltitudeMeters>
            <DistanceMeters>NAN</DistanceMeters>
          </Trackpoint>
          <Trackpoint>
            <Time>2022-09-20T10:15:00.000Z</Time>
            <Position>
              <LatitudeDegrees>49.46545950137078762054443359375</LatitudeDegrees>
              <LongitudeDegrees>20.21416657604277133941650390625</LongitudeDegrees>
            </Position>
            <AltitudeMeters>519</AltitudeMeters>
            <DistanceMeters>NAN</DistanceMeters>
          </Trackpoint>
          <Trackpoint>
            <Time>2022-09-20T10:15:07.000Z</Time>
            <Position>
              <LatitudeDegrees>49.4656260497868061065673828125</LatitudeDegrees>
              <LongitudeDegrees>20.21402995102107524871826171875</LongitudeDegrees>
            </Position>
            <AltitudeMeters>519</AltitudeMeters>
            <DistanceMeters>NAN</DistanceMeters>
          </Trackpoint>
          <Trackpoint>
            <Time>2022-09-20T10:15:14.000Z</Time>
            <Position>
              <LatitudeDegrees>49.4657655246555805206298828125</LatitudeDegrees>
              <LongitudeDegrees>20.21382677368819713592529296875</LongitudeDegrees>
            </Position>
            <AltitudeMeters>519.20001220703125</AltitudeMeters>
            <DistanceMeters>NAN</DistanceMeters>
          </Trackpoint>
          <Trackpoint>
            <Time>2022-09-20T10:15:20.000Z</Time>
            <Position>
              <LatitudeDegrees>49.46581430733203887939453125</LatitudeDegrees>
              <LongitudeDegrees>20.2135951817035675048828125</LongitudeDegrees>
            </Position>
            <AltitudeMeters>519</AltitudeMeters>
            <DistanceMeters>NAN</DistanceMeters>
          </Trackpoint>
          <Trackpoint>
            <Time>2022-09-20T10:15:22.000Z</Time>
            <Position>
              <LatitudeDegrees>49.465824030339717864990234375</LatitudeDegrees>
              <LongitudeDegrees>20.21351194940507411956787109375</LongitudeDegrees>
            </Position>
            <AltitudeMeters>519.20001220703125</AltitudeMeters>
            <DistanceMeters>NAN</DistanceMeters>
          </Trackpoint>
          <Trackpoint>
            <Time>2022-09-20T10:15:23.000Z</Time>
            <Position>
              <LatitudeDegrees>49.465829394757747650146484375</LatitudeDegrees>
              <LongitudeDegrees>20.21346735768020153045654296875</LongitudeDegrees>
            </Position>
            <AltitudeMeters>519.20001220703125</AltitudeMeters>
            <DistanceMeters>NAN</DistanceMeters>
          </Trackpoint>
          <Trackpoint>
            <Time>2022-09-20T10:15:29.000Z</Time>
            <Position>
              <LatitudeDegrees>49.4658624194562435150146484375</LatitudeDegrees>
              <LongitudeDegrees>20.21320215426385402679443359375</LongitudeDegrees>
            </Position>
            <AltitudeMeters>519.20001220703125</AltitudeMeters>
            <DistanceMeters>NAN</DistanceMeters>
          </Trackpoint>
          <Trackpoint>
            <Time>2022-09-20T10:15:30.000Z</Time>
            <Position>
              <LatitudeDegrees>49.46586300618946552276611328125</LatitudeDegrees>
              <LongitudeDegrees>20.213158987462520599365234375</LongitudeDegrees>
            </Position>
            <AltitudeMeters>519.20001220703125</AltitudeMeters>
            <DistanceMeters>NAN</DistanceMeters>
          </Trackpoint>
          <Trackpoint>
            <Time>2022-09-20T10:15:33.000Z</Time>
            <Position>
              <LatitudeDegrees>49.4658718071877956390380859375</LatitudeDegrees>
              <LongitudeDegrees>20.21303099580109119415283203125</LongitudeDegrees>
            </Position>
            <AltitudeMeters>519.20001220703125</AltitudeMeters>
            <DistanceMeters>NAN</DistanceMeters>
          </Trackpoint>
          <Trackpoint>
            <Time>2022-09-20T10:15:35.000Z</Time>
            <Position>
              <LatitudeDegrees>49.465880692005157470703125</LatitudeDegrees>
              <LongitudeDegrees>20.21294097416102886199951171875</LongitudeDegrees>
            </Position>
            <AltitudeMeters>519.20001220703125</AltitudeMeters>
            <DistanceMeters>NAN</DistanceMeters>
          </Trackpoint>
          <Trackpoint>
            <Time>2022-09-20T10:15:38.000Z</Time>
            <Position>
              <LatitudeDegrees>49.46590106002986431121826171875</LatitudeDegrees>
              <LongitudeDegrees>20.21282061003148555755615234375</LongitudeDegrees>
            </Position>
            <AltitudeMeters>519.20001220703125</AltitudeMeters>
            <DistanceMeters>NAN</DistanceMeters>
          </Trackpoint>
          <Trackpoint>
            <Time>2022-09-20T10:15:41.000Z</Time>
            <Position>
              <LatitudeDegrees>49.465917237102985382080078125</LatitudeDegrees>
              <LongitudeDegrees>20.21269194781780242919921875</LongitudeDegrees>
            </Position>
            <AltitudeMeters>519.20001220703125</AltitudeMeters>
            <DistanceMeters>NAN</DistanceMeters>
          </Trackpoint>
          <Trackpoint>
            <Time>2022-09-20T10:15:45.000Z</Time>
            <Position>
              <LatitudeDegrees>49.46593509055674076080322265625</LatitudeDegrees>
              <LongitudeDegrees>20.2125563286244869232177734375</LongitudeDegrees>
            </Position>
            <AltitudeMeters>519.4000244140625</AltitudeMeters>
            <DistanceMeters>NAN</DistanceMeters>
          </Trackpoint>
          <Trackpoint>
            <Time>2022-09-20T10:15:46.000Z</Time>
            <Position>
              <LatitudeDegrees>49.46594263426959514617919921875</LatitudeDegrees>
              <LongitudeDegrees>20.21253545768558979034423828125</LongitudeDegrees>
            </Position>
            <AltitudeMeters>519.5999755859375</AltitudeMeters>
            <DistanceMeters>NAN</DistanceMeters>
          </Trackpoint>
          <Trackpoint>
            <Time>2022-09-20T10:15:51.000Z</Time>
            <Position>
              <LatitudeDegrees>49.46595051325857639312744140625</LatitudeDegrees>
              <LongitudeDegrees>20.2125134132802486419677734375</LongitudeDegrees>
            </Position>
            <AltitudeMeters>519.5999755859375</AltitudeMeters>
            <DistanceMeters>NAN</DistanceMeters>
          </Trackpoint>
          <Trackpoint>
            <Time>2022-09-20T10:15:54.000Z</Time>
            <Position>
              <LatitudeDegrees>49.46595051325857639312744140625</LatitudeDegrees>
              <LongitudeDegrees>20.2125134132802486419677734375</LongitudeDegrees>
            </Position>
            <AltitudeMeters>519.5999755859375</AltitudeMeters>
            <DistanceMeters>NAN</DistanceMeters>
          </Trackpoint>
          <Trackpoint>
            <Time>2022-09-20T10:16:11.000Z</Time>
            <Position>
              <LatitudeDegrees>49.4659609906375408172607421875</LatitudeDegrees>
              <LongitudeDegrees>20.212511233985424041748046875</LongitudeDegrees>
            </Position>
            <AltitudeMeters>519.79998779296875</AltitudeMeters>
            <DistanceMeters>NAN</DistanceMeters>
          </Trackpoint>
          <Trackpoint>
            <Time>2022-09-20T10:16:25.000Z</Time>
            <Position>
              <LatitudeDegrees>49.46599611081182956695556640625</LatitudeDegrees>
              <LongitudeDegrees>20.21247393451631069183349609375</LongitudeDegrees>
            </Position>
            <AltitudeMeters>519.5999755859375</AltitudeMeters>
            <DistanceMeters>NAN</DistanceMeters>
          </Trackpoint>
          <Trackpoint>
            <Time>2022-09-20T10:16:28.000Z</Time>
            <Position>
              <LatitudeDegrees>49.46601681411266326904296875</LatitudeDegrees>
              <LongitudeDegrees>20.21248499862849712371826171875</LongitudeDegrees>
            </Position>
            <AltitudeMeters>519.4000244140625</AltitudeMeters>
            <DistanceMeters>NAN</DistanceMeters>
          </Trackpoint>
          <Trackpoint>
            <Time>2022-09-20T10:16:31.000Z</Time>
            <Position>
              <LatitudeDegrees>49.46601002477109432220458984375</LatitudeDegrees>
              <LongitudeDegrees>20.21250025369226932525634765625</LongitudeDegrees>
            </Position>
            <AltitudeMeters>519.20001220703125</AltitudeMeters>
            <DistanceMeters>NAN</DistanceMeters>
          </Trackpoint>
          <Trackpoint>
            <Time>2022-09-20T10:16:38.000Z</Time>
            <Position>
              <LatitudeDegrees>49.4660082645714282989501953125</LatitudeDegrees>
              <LongitudeDegrees>20.21250679157674312591552734375</LongitudeDegrees>
            </Position>
            <AltitudeMeters>519.20001220703125</AltitudeMeters>
            <DistanceMeters>NAN</DistanceMeters>
          </Trackpoint>
          <Trackpoint>
            <Time>2022-09-20T10:16:43.000Z</Time>
            <Position>
              <LatitudeDegrees>49.46600181050598621368408203125</LatitudeDegrees>
              <LongitudeDegrees>20.21255959756672382354736328125</LongitudeDegrees>
            </Position>
            <AltitudeMeters>519.20001220703125</AltitudeMeters>
            <DistanceMeters>NAN</DistanceMeters>
          </Trackpoint>
          <Trackpoint>
            <Time>2022-09-20T10:16:44.000Z</Time>
            <Position>
              <LatitudeDegrees>49.46600181050598621368408203125</LatitudeDegrees>
              <LongitudeDegrees>20.21255959756672382354736328125</LongitudeDegrees>
            </Position>
            <AltitudeMeters>519.20001220703125</AltitudeMeters>
            <DistanceMeters>NAN</DistanceMeters>
          </Trackpoint>
          <Trackpoint>
            <Time>2022-09-20T10:16:46.000Z</Time>
            <Position>
              <LatitudeDegrees>49.46600181050598621368408203125</LatitudeDegrees>
              <LongitudeDegrees>20.21255959756672382354736328125</LongitudeDegrees>
            </Position>
            <AltitudeMeters>519.20001220703125</AltitudeMeters>
            <DistanceMeters>NAN</DistanceMeters>
          </Trackpoint>
          <Trackpoint>
            <Time>2022-09-20T10:16:53.000Z</Time>
            <Position>
              <LatitudeDegrees>49.46600181050598621368408203125</LatitudeDegrees>
              <LongitudeDegrees>20.21255959756672382354736328125</LongitudeDegrees>
            </Position>
            <AltitudeMeters>519.20001220703125</AltitudeMeters>
            <DistanceMeters>NAN</DistanceMeters>
          </Trackpoint>
          <Trackpoint>
            <Time>2022-09-20T10:16:54.000Z</Time>
            <Position>
              <LatitudeDegrees>49.46600181050598621368408203125</LatitudeDegrees>
              <LongitudeDegrees>20.21255959756672382354736328125</LongitudeDegrees>
            </Position>
            <AltitudeMeters>519.20001220703125</AltitudeMeters>
            <DistanceMeters>NAN</DistanceMeters>
          </Trackpoint>
          <Trackpoint>
            <Time>2022-09-20T10:16:58.000Z</Time>
            <Position>
              <LatitudeDegrees>49.46600516326725482940673828125</LatitudeDegrees>
              <LongitudeDegrees>20.2125797979533672332763671875</LongitudeDegrees>
            </Position>
            <AltitudeMeters>519.20001220703125</AltitudeMeters>
            <DistanceMeters>NAN</DistanceMeters>
          </Trackpoint>
          <Trackpoint>
            <Time>2022-09-20T10:17:01.000Z</Time>
            <Position>
              <LatitudeDegrees>49.46600516326725482940673828125</LatitudeDegrees>
              <LongitudeDegrees>20.2125797979533672332763671875</LongitudeDegrees>
            </Position>
            <AltitudeMeters>519.20001220703125</AltitudeMeters>
            <DistanceMeters>NAN</DistanceMeters>
          </Trackpoint>
          <Trackpoint>
            <Time>2022-09-20T10:17:15.000Z</Time>
            <Position>
              <LatitudeDegrees>49.46600516326725482940673828125</LatitudeDegrees>
              <LongitudeDegrees>20.21261810325086116790771484375</LongitudeDegrees>
            </Position>
            <AltitudeMeters>519.20001220703125</AltitudeMeters>
            <DistanceMeters>NAN</DistanceMeters>
          </Trackpoint>
          <Trackpoint>
            <Time>2022-09-20T10:17:25.000Z</Time>
            <Position>
              <LatitudeDegrees>49.46600516326725482940673828125</LatitudeDegrees>
              <LongitudeDegrees>20.212616510689258575439453125</LongitudeDegrees>
            </Position>
            <AltitudeMeters>519.20001220703125</AltitudeMeters>
            <DistanceMeters>NAN</DistanceMeters>
          </Trackpoint>
          <Trackpoint>
            <Time>2022-09-20T10:17:28.000Z</Time>
            <Position>
              <LatitudeDegrees>49.4660055823624134063720703125</LatitudeDegrees>
              <LongitudeDegrees>20.21257082931697368621826171875</LongitudeDegrees>
            </Position>
            <AltitudeMeters>519.20001220703125</AltitudeMeters>
            <DistanceMeters>NAN</DistanceMeters>
          </Trackpoint>
          <Trackpoint>
            <Time>2022-09-20T10:17:29.000Z</Time>
            <Position>
              <LatitudeDegrees>49.46600818075239658355712890625</LatitudeDegrees>
              <LongitudeDegrees>20.2125590108335018157958984375</LongitudeDegrees>
            </Position>
            <AltitudeMeters>519.20001220703125</AltitudeMeters>
            <DistanceMeters>NAN</DistanceMeters>
          </Trackpoint>
          <Trackpoint>
            <Time>2022-09-20T10:17:33.000Z</Time>
            <Position>
              <LatitudeDegrees>49.46602217853069305419921875</LatitudeDegrees>
              <LongitudeDegrees>20.21250209771096706390380859375</LongitudeDegrees>
            </Position>
            <AltitudeMeters>519.20001220703125</AltitudeMeters>
            <DistanceMeters>NAN</DistanceMeters>
          </Trackpoint>
          <Trackpoint>
            <Time>2022-09-20T10:17:37.000Z</Time>
            <Position>
              <LatitudeDegrees>49.46603299118578433990478515625</LatitudeDegrees>
              <LongitudeDegrees>20.21247644908726215362548828125</LongitudeDegrees>
            </Position>
            <AltitudeMeters>519.20001220703125</AltitudeMeters>
            <DistanceMeters>NAN</DistanceMeters>
          </Trackpoint>
          <Trackpoint>
            <Time>2022-09-20T10:17:42.000Z</Time>
            <Position>
              <LatitudeDegrees>49.46600046940147876739501953125</LatitudeDegrees>
              <LongitudeDegrees>20.21246203221380710601806640625</LongitudeDegrees>
            </Position>
            <AltitudeMeters>519.5999755859375</AltitudeMeters>
            <DistanceMeters>NAN</DistanceMeters>
          </Trackpoint>
          <Trackpoint>
            <Time>2022-09-20T10:17:46.000Z</Time>
            <Position>
              <LatitudeDegrees>49.46599267423152923583984375</LatitudeDegrees>
              <LongitudeDegrees>20.2124222181737422943115234375</LongitudeDegrees>
            </Position>
            <AltitudeMeters>519.5999755859375</AltitudeMeters>
            <DistanceMeters>NAN</DistanceMeters>
          </Trackpoint>
          <Trackpoint>
            <Time>2022-09-20T10:17:49.000Z</Time>
            <Position>
              <LatitudeDegrees>49.46599426679313182830810546875</LatitudeDegrees>
              <LongitudeDegrees>20.21241911686956882476806640625</LongitudeDegrees>
            </Position>
            <AltitudeMeters>519.79998779296875</AltitudeMeters>
            <DistanceMeters>NAN</DistanceMeters>
          </Trackpoint>
          <Trackpoint>
            <Time>2022-09-20T10:17:52.000Z</Time>
            <Position>
              <LatitudeDegrees>49.46599359624087810516357421875</LatitudeDegrees>
              <LongitudeDegrees>20.2124178595840930938720703125</LongitudeDegrees>
            </Position>
            <AltitudeMeters>520</AltitudeMeters>
            <DistanceMeters>NAN</DistanceMeters>
          </Trackpoint>
          <Trackpoint>
            <Time>2022-09-20T10:17:56.000Z</Time>
            <Position>
              <LatitudeDegrees>49.46599191986024379730224609375</LatitudeDegrees>
              <LongitudeDegrees>20.21235574968159198760986328125</LongitudeDegrees>
            </Position>
            <AltitudeMeters>520</AltitudeMeters>
            <DistanceMeters>NAN</DistanceMeters>
          </Trackpoint>
          <Trackpoint>
            <Time>2022-09-20T10:18:03.000Z</Time>
            <Position>
              <LatitudeDegrees>49.466027878224849700927734375</LatitudeDegrees>
              <LongitudeDegrees>20.21211284212768077850341796875</LongitudeDegrees>
            </Position>
            <AltitudeMeters>520.20001220703125</AltitudeMeters>
            <DistanceMeters>NAN</DistanceMeters>
          </Trackpoint>
          <Trackpoint>
            <Time>2022-09-20T10:18:04.000Z</Time>
            <Position>
              <LatitudeDegrees>49.46603382937610149383544921875</LatitudeDegrees>
              <LongitudeDegrees>20.2120762132108211517333984375</LongitudeDegrees>
            </Position>
            <AltitudeMeters>520.20001220703125</AltitudeMeters>
            <DistanceMeters>NAN</DistanceMeters>
          </Trackpoint>
          <Trackpoint>
            <Time>2022-09-20T10:18:05.000Z</Time>
            <Position>
              <LatitudeDegrees>49.46604070253670215606689453125</LatitudeDegrees>
              <LongitudeDegrees>20.212037824094295501708984375</LongitudeDegrees>
            </Position>
            <AltitudeMeters>520.20001220703125</AltitudeMeters>
            <DistanceMeters>NAN</DistanceMeters>
          </Trackpoint>
          <Trackpoint>
            <Time>2022-09-20T10:18:10.000Z</Time>
            <Position>
              <LatitudeDegrees>49.4660783372819423675537109375</LatitudeDegrees>
              <LongitudeDegrees>20.2118571102619171142578125</LongitudeDegrees>
            </Position>
            <AltitudeMeters>520</AltitudeMeters>
            <DistanceMeters>NAN</DistanceMeters>
          </Trackpoint>
          <Trackpoint>
            <Time>2022-09-20T10:18:15.000Z</Time>
            <Position>
              <LatitudeDegrees>49.46609996259212493896484375</LatitudeDegrees>
              <LongitudeDegrees>20.2117667533457279205322265625</LongitudeDegrees>
            </Position>
            <AltitudeMeters>519.79998779296875</AltitudeMeters>
            <DistanceMeters>NAN</DistanceMeters>
          </Trackpoint>
          <Trackpoint>
            <Time>2022-09-20T10:18:17.000Z</Time>
            <Position>
              <LatitudeDegrees>49.46610574610531330108642578125</LatitudeDegrees>
              <LongitudeDegrees>20.21175191737711429595947265625</LongitudeDegrees>
            </Position>
            <AltitudeMeters>519.79998779296875</AltitudeMeters>
            <DistanceMeters>NAN</DistanceMeters>
          </Trackpoint>
          <Trackpoint>
            <Time>2022-09-20T10:18:19.000Z</Time>
            <Position>
              <LatitudeDegrees>49.46610943414270877838134765625</LatitudeDegrees>
              <LongitudeDegrees>20.2117543481290340423583984375</LongitudeDegrees>
            </Position>
            <AltitudeMeters>519.79998779296875</AltitudeMeters>
            <DistanceMeters>NAN</DistanceMeters>
          </Trackpoint>
          <Trackpoint>
            <Time>2022-09-20T10:18:24.000Z</Time>
            <Position>
              <LatitudeDegrees>49.4661132059991359710693359375</LatitudeDegrees>
              <LongitudeDegrees>20.21175426431000232696533203125</LongitudeDegrees>
            </Position>
            <AltitudeMeters>519.79998779296875</AltitudeMeters>
            <DistanceMeters>NAN</DistanceMeters>
          </Trackpoint>
          <Trackpoint>
            <Time>2022-09-20T10:18:29.000Z</Time>
            <Position>
              <LatitudeDegrees>49.46611898951232433319091796875</LatitudeDegrees>
              <LongitudeDegrees>20.2117573656141757965087890625</LongitudeDegrees>
            </Position>
            <AltitudeMeters>519.79998779296875</AltitudeMeters>
            <DistanceMeters>NAN</DistanceMeters>
          </Trackpoint>
          <Trackpoint>
            <Time>2022-09-20T10:18:33.000Z</Time>
            <Position>
              <LatitudeDegrees>49.46611898951232433319091796875</LatitudeDegrees>
              <LongitudeDegrees>20.2117573656141757965087890625</LongitudeDegrees>
            </Position>
            <AltitudeMeters>520</AltitudeMeters>
            <DistanceMeters>NAN</DistanceMeters>
          </Trackpoint>
          <Trackpoint>
            <Time>2022-09-20T10:18:34.000Z</Time>
            <Position>
              <LatitudeDegrees>49.46611898951232433319091796875</LatitudeDegrees>
              <LongitudeDegrees>20.2117573656141757965087890625</LongitudeDegrees>
            </Position>
            <AltitudeMeters>520</AltitudeMeters>
            <DistanceMeters>NAN</DistanceMeters>
          </Trackpoint>
          <Trackpoint>
            <Time>2022-09-20T10:18:38.000Z</Time>
            <Position>
              <LatitudeDegrees>49.46611865423619747161865234375</LatitudeDegrees>
              <LongitudeDegrees>20.211758203804492950439453125</LongitudeDegrees>
            </Position>
            <AltitudeMeters>520.20001220703125</AltitudeMeters>
            <DistanceMeters>NAN</DistanceMeters>
          </Trackpoint>
          <Trackpoint>
            <Time>2022-09-20T10:18:41.000Z</Time>
            <Position>
              <LatitudeDegrees>49.4661101885139942169189453125</LatitudeDegrees>
              <LongitudeDegrees>20.21177505142986774444580078125</LongitudeDegrees>
            </Position>
            <AltitudeMeters>520</AltitudeMeters>
            <DistanceMeters>NAN</DistanceMeters>
          </Trackpoint>
          <Trackpoint>
            <Time>2022-09-20T10:18:49.000Z</Time>
            <Position>
              <LatitudeDegrees>49.46609820239245891571044921875</LatitudeDegrees>
              <LongitudeDegrees>20.2118730358779430389404296875</LongitudeDegrees>
            </Position>
            <AltitudeMeters>520</AltitudeMeters>
            <DistanceMeters>NAN</DistanceMeters>
          </Trackpoint>
          <Trackpoint>
            <Time>2022-09-20T10:18:52.000Z</Time>
            <Position>
              <LatitudeDegrees>49.46611228398978710174560546875</LatitudeDegrees>
              <LongitudeDegrees>20.2119152806699275970458984375</LongitudeDegrees>
            </Position>
            <AltitudeMeters>519.79998779296875</AltitudeMeters>
            <DistanceMeters>NAN</DistanceMeters>
          </Trackpoint>
          <Trackpoint>
            <Time>2022-09-20T10:18:56.000Z</Time>
            <Position>
              <LatitudeDegrees>49.46618252433836460113525390625</LatitudeDegrees>
              <LongitudeDegrees>20.2119394205510616302490234375</LongitudeDegrees>
            </Position>
            <AltitudeMeters>519.79998779296875</AltitudeMeters>
            <DistanceMeters>NAN</DistanceMeters>
          </Trackpoint>
          <Trackpoint>
            <Time>2022-09-20T10:19:02.000Z</Time>
            <Position>
              <LatitudeDegrees>49.46626651100814342498779296875</LatitudeDegrees>
              <LongitudeDegrees>20.21196372807025909423828125</LongitudeDegrees>
            </Position>
            <AltitudeMeters>519.79998779296875</AltitudeMeters>
            <DistanceMeters>NAN</DistanceMeters>
          </Trackpoint>
          <Trackpoint>
            <Time>2022-09-20T10:19:06.000Z</Time>
            <Position>
              <LatitudeDegrees>49.46627019904553890228271484375</LatitudeDegrees>
              <LongitudeDegrees>20.21195878274738788604736328125</LongitudeDegrees>
            </Position>
            <AltitudeMeters>520</AltitudeMeters>
            <DistanceMeters>NAN</DistanceMeters>
          </Trackpoint>
          <Trackpoint>
            <Time>2022-09-20T10:19:10.000Z</Time>
            <Position>
              <LatitudeDegrees>49.46627019904553890228271484375</LatitudeDegrees>
              <LongitudeDegrees>20.21195878274738788604736328125</LongitudeDegrees>
            </Position>
            <AltitudeMeters>520.20001220703125</AltitudeMeters>
            <DistanceMeters>NAN</DistanceMeters>
          </Trackpoint>
          <Trackpoint>
            <Time>2022-09-20T10:19:14.000Z</Time>
            <Position>
              <LatitudeDegrees>49.46627019904553890228271484375</LatitudeDegrees>
              <LongitudeDegrees>20.21195878274738788604736328125</LongitudeDegrees>
            </Position>
            <AltitudeMeters>520.20001220703125</AltitudeMeters>
            <DistanceMeters>NAN</DistanceMeters>
          </Trackpoint>
          <Trackpoint>
            <Time>2022-09-20T10:19:21.000Z</Time>
            <Position>
              <LatitudeDegrees>49.46627019904553890228271484375</LatitudeDegrees>
              <LongitudeDegrees>20.21195878274738788604736328125</LongitudeDegrees>
            </Position>
            <AltitudeMeters>520.20001220703125</AltitudeMeters>
            <DistanceMeters>NAN</DistanceMeters>
          </Trackpoint>
          <Trackpoint>
            <Time>2022-09-20T10:19:32.000Z</Time>
            <Position>
              <LatitudeDegrees>49.46627019904553890228271484375</LatitudeDegrees>
              <LongitudeDegrees>20.21195878274738788604736328125</LongitudeDegrees>
            </Position>
            <AltitudeMeters>520.20001220703125</AltitudeMeters>
            <DistanceMeters>NAN</DistanceMeters>
          </Trackpoint>
          <Trackpoint>
            <Time>2022-09-20T10:19:57.000Z</Time>
            <Position>
              <LatitudeDegrees>49.46627019904553890228271484375</LatitudeDegrees>
              <LongitudeDegrees>20.21195878274738788604736328125</LongitudeDegrees>
            </Position>
            <AltitudeMeters>520.4000244140625</AltitudeMeters>
            <DistanceMeters>NAN</DistanceMeters>
          </Trackpoint>
          <Trackpoint>
            <Time>2022-09-20T10:19:59.000Z</Time>
            <Position>
              <LatitudeDegrees>49.46627019904553890228271484375</LatitudeDegrees>
              <LongitudeDegrees>20.21195878274738788604736328125</LongitudeDegrees>
            </Position>
            <AltitudeMeters>520.4000244140625</AltitudeMeters>
            <DistanceMeters>NAN</DistanceMeters>
          </Trackpoint>
          <Trackpoint>
            <Time>2022-09-20T10:20:09.000Z</Time>
            <Position>
              <LatitudeDegrees>49.4662758149206638336181640625</LatitudeDegrees>
              <LongitudeDegrees>20.21196397952735424041748046875</LongitudeDegrees>
            </Position>
            <AltitudeMeters>520.4000244140625</AltitudeMeters>
            <DistanceMeters>NAN</DistanceMeters>
          </Trackpoint>
          <Trackpoint>
            <Time>2022-09-20T10:20:18.000Z</Time>
            <Position>
              <LatitudeDegrees>49.466279335319995880126953125</LatitudeDegrees>
              <LongitudeDegrees>20.21197152324020862579345703125</LongitudeDegrees>
            </Position>
            <AltitudeMeters>520.4000244140625</AltitudeMeters>
            <DistanceMeters>NAN</DistanceMeters>
          </Trackpoint>
          <Trackpoint>
            <Time>2022-09-20T10:20:27.000Z</Time>
            <Position>
              <LatitudeDegrees>49.46627941913902759552001953125</LatitudeDegrees>
              <LongitudeDegrees>20.21197169087827205657958984375</LongitudeDegrees>
            </Position>
            <AltitudeMeters>520.4000244140625</AltitudeMeters>
            <DistanceMeters>NAN</DistanceMeters>
          </Trackpoint>
          <Trackpoint>
            <Time>2022-09-20T10:20:32.000Z</Time>
            <Position>
              <LatitudeDegrees>49.46627941913902759552001953125</LatitudeDegrees>
              <LongitudeDegrees>20.21197169087827205657958984375</LongitudeDegrees>
            </Position>
            <AltitudeMeters>520.4000244140625</AltitudeMeters>
            <DistanceMeters>NAN</DistanceMeters>
          </Trackpoint>
          <Trackpoint>
            <Time>2022-09-20T10:20:40.000Z</Time>
            <Position>
              <LatitudeDegrees>49.4662870466709136962890625</LatitudeDegrees>
              <LongitudeDegrees>20.21199448965489864349365234375</LongitudeDegrees>
            </Position>
            <AltitudeMeters>520.4000244140625</AltitudeMeters>
            <DistanceMeters>NAN</DistanceMeters>
          </Trackpoint>
          <Trackpoint>
            <Time>2022-09-20T10:20:46.000Z</Time>
            <Position>
              <LatitudeDegrees>49.4662870466709136962890625</LatitudeDegrees>
              <LongitudeDegrees>20.21199448965489864349365234375</LongitudeDegrees>
            </Position>
            <AltitudeMeters>520.4000244140625</AltitudeMeters>
            <DistanceMeters>NAN</DistanceMeters>
          </Trackpoint>
          <Trackpoint>
            <Time>2022-09-20T10:20:51.000Z</Time>
            <Position>
              <LatitudeDegrees>49.46629106998443603515625</LatitudeDegrees>
              <LongitudeDegrees>20.212000273168087005615234375</LongitudeDegrees>
            </Position>
            <AltitudeMeters>520.4000244140625</AltitudeMeters>
            <DistanceMeters>NAN</DistanceMeters>
          </Trackpoint>
          <Trackpoint>
            <Time>2022-09-20T10:20:57.000Z</Time>
            <Position>
              <LatitudeDegrees>49.466300792992115020751953125</LatitudeDegrees>
              <LongitudeDegrees>20.21203556098043918609619140625</LongitudeDegrees>
            </Position>
            <AltitudeMeters>520.4000244140625</AltitudeMeters>
            <DistanceMeters>NAN</DistanceMeters>
          </Trackpoint>
          <Trackpoint>
            <Time>2022-09-20T10:20:59.000Z</Time>
            <Position>
              <LatitudeDegrees>49.466300792992115020751953125</LatitudeDegrees>
              <LongitudeDegrees>20.2120356447994709014892578125</LongitudeDegrees>
            </Position>
            <AltitudeMeters>520.4000244140625</AltitudeMeters>
            <DistanceMeters>NAN</DistanceMeters>
          </Trackpoint>
          <Trackpoint>
            <Time>2022-09-20T10:21:00.000Z</Time>
            <Position>
              <LatitudeDegrees>49.466300792992115020751953125</LatitudeDegrees>
              <LongitudeDegrees>20.2120356447994709014892578125</LongitudeDegrees>
            </Position>
            <AltitudeMeters>520.4000244140625</AltitudeMeters>
            <DistanceMeters>NAN</DistanceMeters>
          </Trackpoint>
          <Trackpoint>
            <Time>2022-09-20T10:21:03.000Z</Time>
            <Position>
              <LatitudeDegrees>49.466300792992115020751953125</LatitudeDegrees>
              <LongitudeDegrees>20.2120356447994709014892578125</LongitudeDegrees>
            </Position>
            <AltitudeMeters>520.4000244140625</AltitudeMeters>
            <DistanceMeters>NAN</DistanceMeters>
          </Trackpoint>
          <Trackpoint>
            <Time>2022-09-20T10:21:09.000Z</Time>
            <Position>
              <LatitudeDegrees>49.466300792992115020751953125</LatitudeDegrees>
              <LongitudeDegrees>20.2120356447994709014892578125</LongitudeDegrees>
            </Position>
            <AltitudeMeters>520.4000244140625</AltitudeMeters>
            <DistanceMeters>NAN</DistanceMeters>
          </Trackpoint>
          <Trackpoint>
            <Time>2022-09-20T10:21:18.000Z</Time>
            <Position>
              <LatitudeDegrees>49.466300792992115020751953125</LatitudeDegrees>
              <LongitudeDegrees>20.2120356447994709014892578125</LongitudeDegrees>
            </Position>
            <AltitudeMeters>520.4000244140625</AltitudeMeters>
            <DistanceMeters>NAN</DistanceMeters>
          </Trackpoint>
          <Trackpoint>
            <Time>2022-09-20T10:21:23.000Z</Time>
            <Position>
              <LatitudeDegrees>49.466300792992115020751953125</LatitudeDegrees>
              <LongitudeDegrees>20.2120356447994709014892578125</LongitudeDegrees>
            </Position>
            <AltitudeMeters>520.4000244140625</AltitudeMeters>
            <DistanceMeters>NAN</DistanceMeters>
          </Trackpoint>
          <Trackpoint>
            <Time>2022-09-20T10:21:41.000Z</Time>
            <Position>
              <LatitudeDegrees>49.46630238555371761322021484375</LatitudeDegrees>
              <LongitudeDegrees>20.2120319567620754241943359375</LongitudeDegrees>
            </Position>
            <AltitudeMeters>520.4000244140625</AltitudeMeters>
            <DistanceMeters>NAN</DistanceMeters>
          </Trackpoint>
          <Trackpoint>
            <Time>2022-09-20T10:21:43.000Z</Time>
            <Position>
              <LatitudeDegrees>49.46631143800914287567138671875</LatitudeDegrees>
              <LongitudeDegrees>20.21200320683419704437255859375</LongitudeDegrees>
            </Position>
            <AltitudeMeters>520.4000244140625</AltitudeMeters>
            <DistanceMeters>NAN</DistanceMeters>
          </Trackpoint>
          <Trackpoint>
            <Time>2022-09-20T10:21:48.000Z</Time>
            <Position>
              <LatitudeDegrees>49.466357119381427764892578125</LatitudeDegrees>
              <LongitudeDegrees>20.2119756303727626800537109375</LongitudeDegrees>
            </Position>
            <AltitudeMeters>520.4000244140625</AltitudeMeters>
            <DistanceMeters>NAN</DistanceMeters>
          </Trackpoint>
          <Trackpoint>
            <Time>2022-09-20T10:21:50.000Z</Time>
            <Position>
              <LatitudeDegrees>49.466382600367069244384765625</LatitudeDegrees>
              <LongitudeDegrees>20.2119672484695911407470703125</LongitudeDegrees>
            </Position>
            <AltitudeMeters>520.5999755859375</AltitudeMeters>
            <DistanceMeters>NAN</DistanceMeters>
          </Trackpoint>
          <Trackpoint>
            <Time>2022-09-20T10:21:57.000Z</Time>
            <Position>
              <LatitudeDegrees>49.466404058039188385009765625</LatitudeDegrees>
              <LongitudeDegrees>20.21197554655373096466064453125</LongitudeDegrees>
            </Position>
            <AltitudeMeters>520.79998779296875</AltitudeMeters>
            <DistanceMeters>NAN</DistanceMeters>
          </Trackpoint>
          <Trackpoint>
            <Time>2022-09-20T10:22:04.000Z</Time>
            <Position>
              <LatitudeDegrees>49.46641135029494762420654296875</LatitudeDegrees>
              <LongitudeDegrees>20.21196800284087657928466796875</LongitudeDegrees>
            </Position>
            <AltitudeMeters>521</AltitudeMeters>
            <DistanceMeters>NAN</DistanceMeters>
          </Trackpoint>
          <Trackpoint>
            <Time>2022-09-20T10:22:23.000Z</Time>
            <Position>
              <LatitudeDegrees>49.46639995090663433074951171875</LatitudeDegrees>
              <LongitudeDegrees>20.21195031702518463134765625</LongitudeDegrees>
            </Position>
            <AltitudeMeters>520.79998779296875</AltitudeMeters>
            <DistanceMeters>NAN</DistanceMeters>
          </Trackpoint>
          <Trackpoint>
            <Time>2022-09-20T10:22:26.000Z</Time>
            <Position>
              <LatitudeDegrees>49.466401040554046630859375</LatitudeDegrees>
              <LongitudeDegrees>20.21192911081016063690185546875</LongitudeDegrees>
            </Position>
            <AltitudeMeters>520.5999755859375</AltitudeMeters>
            <DistanceMeters>NAN</DistanceMeters>
          </Trackpoint>
          <Trackpoint>
            <Time>2022-09-20T10:22:28.000Z</Time>
            <Position>
              <LatitudeDegrees>49.466401040554046630859375</LatitudeDegrees>
              <LongitudeDegrees>20.21192911081016063690185546875</LongitudeDegrees>
            </Position>
            <AltitudeMeters>520.4000244140625</AltitudeMeters>
            <DistanceMeters>NAN</DistanceMeters>
          </Trackpoint>
          <Trackpoint>
            <Time>2022-09-20T10:22:36.000Z</Time>
            <Position>
              <LatitudeDegrees>49.4663955084979534149169921875</LatitudeDegrees>
              <LongitudeDegrees>20.21192911081016063690185546875</LongitudeDegrees>
            </Position>
            <AltitudeMeters>520.4000244140625</AltitudeMeters>
            <DistanceMeters>NAN</DistanceMeters>
          </Trackpoint>
          <Trackpoint>
            <Time>2022-09-20T10:22:44.000Z</Time>
            <Position>
              <LatitudeDegrees>49.46639106608927249908447265625</LatitudeDegrees>
              <LongitudeDegrees>20.2119241654872894287109375</LongitudeDegrees>
            </Position>
            <AltitudeMeters>520.4000244140625</AltitudeMeters>
            <DistanceMeters>NAN</DistanceMeters>
          </Trackpoint>
          <Trackpoint>
            <Time>2022-09-20T10:22:45.000Z</Time>
            <Position>
              <LatitudeDegrees>49.46639039553701877593994140625</LatitudeDegrees>
              <LongitudeDegrees>20.21191854961216449737548828125</LongitudeDegrees>
            </Position>
            <AltitudeMeters>520.4000244140625</AltitudeMeters>
            <DistanceMeters>NAN</DistanceMeters>
          </Trackpoint>
          <Trackpoint>
            <Time>2022-09-20T10:22:53.000Z</Time>
            <Position>
              <LatitudeDegrees>49.46636550128459930419921875</LatitudeDegrees>
              <LongitudeDegrees>20.21196305751800537109375</LongitudeDegrees>
            </Position>
            <AltitudeMeters>520.5999755859375</AltitudeMeters>
            <DistanceMeters>NAN</DistanceMeters>
          </Trackpoint>
          <Trackpoint>
            <Time>2022-09-20T10:22:57.000Z</Time>
            <Position>
              <LatitudeDegrees>49.46636550128459930419921875</LatitudeDegrees>
              <LongitudeDegrees>20.21196305751800537109375</LongitudeDegrees>
            </Position>
            <AltitudeMeters>520.5999755859375</AltitudeMeters>
            <DistanceMeters>NAN</DistanceMeters>
          </Trackpoint>
          <Trackpoint>
            <Time>2022-09-20T10:23:00.000Z</Time>
            <Position>
              <LatitudeDegrees>49.46636550128459930419921875</LatitudeDegrees>
              <LongitudeDegrees>20.21196305751800537109375</LongitudeDegrees>
            </Position>
            <AltitudeMeters>520.4000244140625</AltitudeMeters>
            <DistanceMeters>NAN</DistanceMeters>
          </Trackpoint>
          <Trackpoint>
            <Time>2022-09-20T10:23:02.000Z</Time>
            <Position>
              <LatitudeDegrees>49.46635854430496692657470703125</LatitudeDegrees>
              <LongitudeDegrees>20.21196506917476654052734375</LongitudeDegrees>
            </Position>
            <AltitudeMeters>520.4000244140625</AltitudeMeters>
            <DistanceMeters>NAN</DistanceMeters>
          </Trackpoint>
          <Trackpoint>
            <Time>2022-09-20T10:23:29.000Z</Time>
            <Position>
              <LatitudeDegrees>49.46634010411798954010009765625</LatitudeDegrees>
              <LongitudeDegrees>20.211982168257236480712890625</LongitudeDegrees>
            </Position>
            <AltitudeMeters>520.4000244140625</AltitudeMeters>
            <DistanceMeters>NAN</DistanceMeters>
          </Trackpoint>
          <Trackpoint>
            <Time>2022-09-20T10:24:18.000Z</Time>
            <Position>
              <LatitudeDegrees>49.46634010411798954010009765625</LatitudeDegrees>
              <LongitudeDegrees>20.211982168257236480712890625</LongitudeDegrees>
            </Position>
            <AltitudeMeters>520.5999755859375</AltitudeMeters>
            <DistanceMeters>NAN</DistanceMeters>
          </Trackpoint>
          <Trackpoint>
            <Time>2022-09-20T10:24:28.000Z</Time>
            <Position>
              <LatitudeDegrees>49.46634002029895782470703125</LatitudeDegrees>
              <LongitudeDegrees>20.21198208443820476531982421875</LongitudeDegrees>
            </Position>
            <AltitudeMeters>520.5999755859375</AltitudeMeters>
            <DistanceMeters>NAN</DistanceMeters>
          </Trackpoint>
          <Trackpoint>
            <Time>2022-09-20T10:24:47.000Z</Time>
            <Position>
              <LatitudeDegrees>49.4663406908512115478515625</LatitudeDegrees>
              <LongitudeDegrees>20.21199096925556659698486328125</LongitudeDegrees>
            </Position>
            <AltitudeMeters>520.5999755859375</AltitudeMeters>
            <DistanceMeters>NAN</DistanceMeters>
          </Trackpoint>
          <Trackpoint>
            <Time>2022-09-20T10:24:49.000Z</Time>
            <Position>
              <LatitudeDegrees>49.4663406908512115478515625</LatitudeDegrees>
              <LongitudeDegrees>20.21199096925556659698486328125</LongitudeDegrees>
            </Position>
            <AltitudeMeters>520.5999755859375</AltitudeMeters>
            <DistanceMeters>NAN</DistanceMeters>
          </Trackpoint>
          <Trackpoint>
            <Time>2022-09-20T10:24:54.000Z</Time>
            <Position>
              <LatitudeDegrees>49.4663406908512115478515625</LatitudeDegrees>
              <LongitudeDegrees>20.21199096925556659698486328125</LongitudeDegrees>
            </Position>
            <AltitudeMeters>520.5999755859375</AltitudeMeters>
            <DistanceMeters>NAN</DistanceMeters>
          </Trackpoint>
          <Trackpoint>
            <Time>2022-09-20T10:25:03.000Z</Time>
            <Position>
              <LatitudeDegrees>49.4663406908512115478515625</LatitudeDegrees>
              <LongitudeDegrees>20.21199096925556659698486328125</LongitudeDegrees>
            </Position>
            <AltitudeMeters>520.5999755859375</AltitudeMeters>
            <DistanceMeters>NAN</DistanceMeters>
          </Trackpoint>
          <Trackpoint>
            <Time>2022-09-20T10:25:05.000Z</Time>
            <Position>
              <LatitudeDegrees>49.4663406908512115478515625</LatitudeDegrees>
              <LongitudeDegrees>20.21199096925556659698486328125</LongitudeDegrees>
            </Position>
            <AltitudeMeters>520.5999755859375</AltitudeMeters>
            <DistanceMeters>NAN</DistanceMeters>
          </Trackpoint>
          <Trackpoint>
            <Time>2022-09-20T10:25:20.000Z</Time>
            <Position>
              <LatitudeDegrees>49.4663406908512115478515625</LatitudeDegrees>
              <LongitudeDegrees>20.21199096925556659698486328125</LongitudeDegrees>
            </Position>
            <AltitudeMeters>520.5999755859375</AltitudeMeters>
            <DistanceMeters>NAN</DistanceMeters>
          </Trackpoint>
          <Trackpoint>
            <Time>2022-09-20T10:25:56.000Z</Time>
            <Position>
              <LatitudeDegrees>49.4663406908512115478515625</LatitudeDegrees>
              <LongitudeDegrees>20.21199096925556659698486328125</LongitudeDegrees>
            </Position>
            <AltitudeMeters>520.5999755859375</AltitudeMeters>
            <DistanceMeters>NAN</DistanceMeters>
          </Trackpoint>
          <Trackpoint>
            <Time>2022-09-20T10:26:16.000Z</Time>
            <Position>
              <LatitudeDegrees>49.4663406908512115478515625</LatitudeDegrees>
              <LongitudeDegrees>20.21199096925556659698486328125</LongitudeDegrees>
            </Position>
            <AltitudeMeters>520.5999755859375</AltitudeMeters>
            <DistanceMeters>NAN</DistanceMeters>
          </Trackpoint>
          <Trackpoint>
            <Time>2022-09-20T10:26:22.000Z</Time>
            <Position>
              <LatitudeDegrees>49.4663406908512115478515625</LatitudeDegrees>
              <LongitudeDegrees>20.21199096925556659698486328125</LongitudeDegrees>
            </Position>
            <AltitudeMeters>520.5999755859375</AltitudeMeters>
            <DistanceMeters>NAN</DistanceMeters>
          </Trackpoint>
          <Trackpoint>
            <Time>2022-09-20T10:26:40.000Z</Time>
            <Position>
              <LatitudeDegrees>49.4663406908512115478515625</LatitudeDegrees>
              <LongitudeDegrees>20.21199096925556659698486328125</LongitudeDegrees>
            </Position>
            <AltitudeMeters>520.5999755859375</AltitudeMeters>
            <DistanceMeters>NAN</DistanceMeters>
          </Trackpoint>
          <Trackpoint>
            <Time>2022-09-20T10:26:42.000Z</Time>
            <Position>
              <LatitudeDegrees>49.4663406908512115478515625</LatitudeDegrees>
              <LongitudeDegrees>20.21199096925556659698486328125</LongitudeDegrees>
            </Position>
            <AltitudeMeters>520.5999755859375</AltitudeMeters>
            <DistanceMeters>NAN</DistanceMeters>
          </Trackpoint>
          <Trackpoint>
            <Time>2022-09-20T10:27:04.000Z</Time>
            <Position>
              <LatitudeDegrees>49.4663406908512115478515625</LatitudeDegrees>
              <LongitudeDegrees>20.21199096925556659698486328125</LongitudeDegrees>
            </Position>
            <AltitudeMeters>520.5999755859375</AltitudeMeters>
            <DistanceMeters>NAN</DistanceMeters>
          </Trackpoint>
          <Trackpoint>
            <Time>2022-09-20T10:27:08.000Z</Time>
            <Position>
              <LatitudeDegrees>49.46634094230830669403076171875</LatitudeDegrees>
              <LongitudeDegrees>20.21199096925556659698486328125</LongitudeDegrees>
            </Position>
            <AltitudeMeters>520.5999755859375</AltitudeMeters>
            <DistanceMeters>NAN</DistanceMeters>
          </Trackpoint>
          <Trackpoint>
            <Time>2022-09-20T10:27:15.000Z</Time>
            <Position>
              <LatitudeDegrees>49.46634328924119472503662109375</LatitudeDegrees>
              <LongitudeDegrees>20.211990885436534881591796875</LongitudeDegrees>
            </Position>
            <AltitudeMeters>520.5999755859375</AltitudeMeters>
            <DistanceMeters>NAN</DistanceMeters>
          </Trackpoint>
          <Trackpoint>
            <Time>2022-09-20T10:28:14.000Z</Time>
            <Position>
              <LatitudeDegrees>49.46634395979344844818115234375</LatitudeDegrees>
              <LongitudeDegrees>20.211990885436534881591796875</LongitudeDegrees>
            </Position>
            <AltitudeMeters>520.5999755859375</AltitudeMeters>
            <DistanceMeters>NAN</DistanceMeters>
          </Trackpoint>
          <Trackpoint>
            <Time>2022-09-20T10:28:26.000Z</Time>
            <Position>
              <LatitudeDegrees>49.46634395979344844818115234375</LatitudeDegrees>
              <LongitudeDegrees>20.211990885436534881591796875</LongitudeDegrees>
            </Position>
            <AltitudeMeters>520.5999755859375</AltitudeMeters>
            <DistanceMeters>NAN</DistanceMeters>
          </Trackpoint>
          <Trackpoint>
            <Time>2022-09-20T10:29:03.000Z</Time>
            <Position>
              <LatitudeDegrees>49.4663438759744167327880859375</LatitudeDegrees>
              <LongitudeDegrees>20.21199096925556659698486328125</LongitudeDegrees>
            </Position>
            <AltitudeMeters>520.5999755859375</AltitudeMeters>
            <DistanceMeters>NAN</DistanceMeters>
          </Trackpoint>
          <Trackpoint>
            <Time>2022-09-20T10:29:04.000Z</Time>
            <Position>
              <LatitudeDegrees>49.4663438759744167327880859375</LatitudeDegrees>
              <LongitudeDegrees>20.21199096925556659698486328125</LongitudeDegrees>
            </Position>
            <AltitudeMeters>520.5999755859375</AltitudeMeters>
            <DistanceMeters>NAN</DistanceMeters>
          </Trackpoint>
          <Trackpoint>
            <Time>2022-09-20T10:29:07.000Z</Time>
            <Position>
              <LatitudeDegrees>49.4663438759744167327880859375</LatitudeDegrees>
              <LongitudeDegrees>20.21199096925556659698486328125</LongitudeDegrees>
            </Position>
            <AltitudeMeters>520.5999755859375</AltitudeMeters>
            <DistanceMeters>NAN</DistanceMeters>
          </Trackpoint>
          <Trackpoint>
            <Time>2022-09-20T10:29:17.000Z</Time>
            <Position>
              <LatitudeDegrees>49.4663438759744167327880859375</LatitudeDegrees>
              <LongitudeDegrees>20.21199096925556659698486328125</LongitudeDegrees>
            </Position>
            <AltitudeMeters>520.5999755859375</AltitudeMeters>
            <DistanceMeters>NAN</DistanceMeters>
          </Trackpoint>
          <Trackpoint>
            <Time>2022-09-20T10:29:29.000Z</Time>
            <Position>
              <LatitudeDegrees>49.4663438759744167327880859375</LatitudeDegrees>
              <LongitudeDegrees>20.21199096925556659698486328125</LongitudeDegrees>
            </Position>
            <AltitudeMeters>520.5999755859375</AltitudeMeters>
            <DistanceMeters>NAN</DistanceMeters>
          </Trackpoint>
          <Trackpoint>
            <Time>2022-09-20T10:29:48.000Z</Time>
            <Position>
              <LatitudeDegrees>49.46634379215538501739501953125</LatitudeDegrees>
              <LongitudeDegrees>20.21199096925556659698486328125</LongitudeDegrees>
            </Position>
            <AltitudeMeters>520.5999755859375</AltitudeMeters>
            <DistanceMeters>NAN</DistanceMeters>
          </Trackpoint>
          <Trackpoint>
            <Time>2022-09-20T10:30:03.000Z</Time>
            <Position>
              <LatitudeDegrees>49.46634379215538501739501953125</LatitudeDegrees>
              <LongitudeDegrees>20.21199096925556659698486328125</LongitudeDegrees>
            </Position>
            <AltitudeMeters>520.5999755859375</AltitudeMeters>
            <DistanceMeters>NAN</DistanceMeters>
          </Trackpoint>
          <Trackpoint>
            <Time>2022-09-20T10:30:09.000Z</Time>
            <Position>
              <LatitudeDegrees>49.46634379215538501739501953125</LatitudeDegrees>
              <LongitudeDegrees>20.21199096925556659698486328125</LongitudeDegrees>
            </Position>
            <AltitudeMeters>520.5999755859375</AltitudeMeters>
            <DistanceMeters>NAN</DistanceMeters>
          </Trackpoint>
          <Trackpoint>
            <Time>2022-09-20T10:30:20.000Z</Time>
            <Position>
              <LatitudeDegrees>49.466343708336353302001953125</LatitudeDegrees>
              <LongitudeDegrees>20.21199096925556659698486328125</LongitudeDegrees>
            </Position>
            <AltitudeMeters>520.5999755859375</AltitudeMeters>
            <DistanceMeters>NAN</DistanceMeters>
          </Trackpoint>
          <Trackpoint>
            <Time>2022-09-20T10:30:26.000Z</Time>
            <Position>
              <LatitudeDegrees>49.466343708336353302001953125</LatitudeDegrees>
              <LongitudeDegrees>20.21199096925556659698486328125</LongitudeDegrees>
            </Position>
            <AltitudeMeters>520.5999755859375</AltitudeMeters>
            <DistanceMeters>NAN</DistanceMeters>
          </Trackpoint>
          <Trackpoint>
            <Time>2022-09-20T10:30:35.000Z</Time>
            <Position>
              <LatitudeDegrees>49.466343708336353302001953125</LatitudeDegrees>
              <LongitudeDegrees>20.21199096925556659698486328125</LongitudeDegrees>
            </Position>
            <AltitudeMeters>520.5999755859375</AltitudeMeters>
            <DistanceMeters>NAN</DistanceMeters>
          </Trackpoint>
          <Trackpoint>
            <Time>2022-09-20T10:30:42.000Z</Time>
            <Position>
              <LatitudeDegrees>49.466343708336353302001953125</LatitudeDegrees>
              <LongitudeDegrees>20.2119910530745983123779296875</LongitudeDegrees>
            </Position>
            <AltitudeMeters>520.5999755859375</AltitudeMeters>
            <DistanceMeters>NAN</DistanceMeters>
          </Trackpoint>
          <Trackpoint>
            <Time>2022-09-20T10:30:45.000Z</Time>
            <Position>
              <LatitudeDegrees>49.466343708336353302001953125</LatitudeDegrees>
              <LongitudeDegrees>20.2119910530745983123779296875</LongitudeDegrees>
            </Position>
            <AltitudeMeters>520.5999755859375</AltitudeMeters>
            <DistanceMeters>NAN</DistanceMeters>
          </Trackpoint>
          <Trackpoint>
            <Time>2022-09-20T10:30:46.000Z</Time>
            <Position>
              <LatitudeDegrees>49.466343708336353302001953125</LatitudeDegrees>
              <LongitudeDegrees>20.2119910530745983123779296875</LongitudeDegrees>
            </Position>
            <AltitudeMeters>520.5999755859375</AltitudeMeters>
            <DistanceMeters>NAN</DistanceMeters>
          </Trackpoint>
          <Trackpoint>
            <Time>2022-09-20T10:30:51.000Z</Time>
            <Position>
              <LatitudeDegrees>49.466343708336353302001953125</LatitudeDegrees>
              <LongitudeDegrees>20.2119910530745983123779296875</LongitudeDegrees>
            </Position>
            <AltitudeMeters>520.5999755859375</AltitudeMeters>
            <DistanceMeters>NAN</DistanceMeters>
          </Trackpoint>
          <Trackpoint>
            <Time>2022-09-20T10:30:55.000Z</Time>
            <Position>
              <LatitudeDegrees>49.46634379215538501739501953125</LatitudeDegrees>
              <LongitudeDegrees>20.2119910530745983123779296875</LongitudeDegrees>
            </Position>
            <AltitudeMeters>520.5999755859375</AltitudeMeters>
            <DistanceMeters>NAN</DistanceMeters>
          </Trackpoint>
          <Trackpoint>
            <Time>2022-09-20T10:31:03.000Z</Time>
            <Position>
              <LatitudeDegrees>49.46634379215538501739501953125</LatitudeDegrees>
              <LongitudeDegrees>20.21199113689363002777099609375</LongitudeDegrees>
            </Position>
            <AltitudeMeters>520.5999755859375</AltitudeMeters>
            <DistanceMeters>NAN</DistanceMeters>
          </Trackpoint>
          <Trackpoint>
            <Time>2022-09-20T10:31:19.000Z</Time>
            <Position>
              <LatitudeDegrees>49.46634379215538501739501953125</LatitudeDegrees>
              <LongitudeDegrees>20.21199113689363002777099609375</LongitudeDegrees>
            </Position>
            <AltitudeMeters>520.5999755859375</AltitudeMeters>
            <DistanceMeters>NAN</DistanceMeters>
          </Trackpoint>
          <Trackpoint>
            <Time>2022-09-20T10:31:27.000Z</Time>
            <Position>
              <LatitudeDegrees>49.46634362451732158660888671875</LatitudeDegrees>
              <LongitudeDegrees>20.2119912207126617431640625</LongitudeDegrees>
            </Position>
            <AltitudeMeters>520.5999755859375</AltitudeMeters>
            <DistanceMeters>NAN</DistanceMeters>
          </Trackpoint>
          <Trackpoint>
            <Time>2022-09-20T10:31:33.000Z</Time>
            <Position>
              <LatitudeDegrees>49.4663207419216632843017578125</LatitudeDegrees>
              <LongitudeDegrees>20.211991555988788604736328125</LongitudeDegrees>
            </Position>
            <AltitudeMeters>520.5999755859375</AltitudeMeters>
            <DistanceMeters>NAN</DistanceMeters>
          </Trackpoint>
          <Trackpoint>
            <Time>2022-09-20T10:31:36.000Z</Time>
            <Position>
              <LatitudeDegrees>49.46626919321715831756591796875</LatitudeDegrees>
              <LongitudeDegrees>20.2119799889624118804931640625</LongitudeDegrees>
            </Position>
            <AltitudeMeters>520.5999755859375</AltitudeMeters>
            <DistanceMeters>NAN</DistanceMeters>
          </Trackpoint>
          <Trackpoint>
            <Time>2022-09-20T10:31:42.000Z</Time>
            <Position>
              <LatitudeDegrees>49.46617766283452510833740234375</LatitudeDegrees>
              <LongitudeDegrees>20.2119410969316959381103515625</LongitudeDegrees>
            </Position>
            <AltitudeMeters>520.20001220703125</AltitudeMeters>
            <DistanceMeters>NAN</DistanceMeters>
          </Trackpoint>
          <Trackpoint>
            <Time>2022-09-20T10:31:43.000Z</Time>
            <Position>
              <LatitudeDegrees>49.46616835892200469970703125</LatitudeDegrees>
              <LongitudeDegrees>20.2119375765323638916015625</LongitudeDegrees>
            </Position>
            <AltitudeMeters>520.20001220703125</AltitudeMeters>
            <DistanceMeters>NAN</DistanceMeters>
          </Trackpoint>
          <Trackpoint>
            <Time>2022-09-20T10:31:47.000Z</Time>
            <Position>
              <LatitudeDegrees>49.46612946689128875732421875</LatitudeDegrees>
              <LongitudeDegrees>20.21191704086959362030029296875</LongitudeDegrees>
            </Position>
            <AltitudeMeters>520.4000244140625</AltitudeMeters>
            <DistanceMeters>NAN</DistanceMeters>
          </Trackpoint>
          <Trackpoint>
            <Time>2022-09-20T10:31:52.000Z</Time>
            <Position>
              <LatitudeDegrees>49.46611312218010425567626953125</LatitudeDegrees>
              <LongitudeDegrees>20.2119015343487262725830078125</LongitudeDegrees>
            </Position>
            <AltitudeMeters>521</AltitudeMeters>
            <DistanceMeters>NAN</DistanceMeters>
          </Trackpoint>
          <Trackpoint>
            <Time>2022-09-20T10:32:00.000Z</Time>
            <Position>
              <LatitudeDegrees>49.46609853766858577728271484375</LatitudeDegrees>
              <LongitudeDegrees>20.2118727006018161773681640625</LongitudeDegrees>
            </Position>
            <AltitudeMeters>521.4000244140625</AltitudeMeters>
            <DistanceMeters>NAN</DistanceMeters>
          </Trackpoint>
          <Trackpoint>
            <Time>2022-09-20T10:32:04.000Z</Time>
            <Position>
              <LatitudeDegrees>49.46609853766858577728271484375</LatitudeDegrees>
              <LongitudeDegrees>20.21186909638345241546630859375</LongitudeDegrees>
            </Position>
            <AltitudeMeters>521.20001220703125</AltitudeMeters>
            <DistanceMeters>NAN</DistanceMeters>
          </Trackpoint>
          <Trackpoint>
            <Time>2022-09-20T10:32:14.000Z</Time>
            <Position>
              <LatitudeDegrees>49.46609820239245891571044921875</LatitudeDegrees>
              <LongitudeDegrees>20.21186389960348606109619140625</LongitudeDegrees>
            </Position>
            <AltitudeMeters>521.20001220703125</AltitudeMeters>
            <DistanceMeters>NAN</DistanceMeters>
          </Trackpoint>
          <Trackpoint>
            <Time>2022-09-20T10:32:16.000Z</Time>
            <Position>
              <LatitudeDegrees>49.466108344495296478271484375</LatitudeDegrees>
              <LongitudeDegrees>20.21180606447160243988037109375</LongitudeDegrees>
            </Position>
            <AltitudeMeters>521.20001220703125</AltitudeMeters>
            <DistanceMeters>NAN</DistanceMeters>
          </Trackpoint>
          <Trackpoint>
            <Time>2022-09-20T10:32:17.000Z</Time>
            <Position>
              <LatitudeDegrees>49.46611714549362659454345703125</LatitudeDegrees>
              <LongitudeDegrees>20.21177060902118682861328125</LongitudeDegrees>
            </Position>
            <AltitudeMeters>521.20001220703125</AltitudeMeters>
            <DistanceMeters>NAN</DistanceMeters>
          </Trackpoint>
          <Trackpoint>
            <Time>2022-09-20T10:32:23.000Z</Time>
            <Position>
              <LatitudeDegrees>49.46616207249462604522705078125</LatitudeDegrees>
              <LongitudeDegrees>20.21159752272069454193115234375</LongitudeDegrees>
            </Position>
            <AltitudeMeters>521.20001220703125</AltitudeMeters>
            <DistanceMeters>NAN</DistanceMeters>
          </Trackpoint>
          <Trackpoint>
            <Time>2022-09-20T10:32:24.000Z</Time>
            <Position>
              <LatitudeDegrees>49.466176070272922515869140625</LatitudeDegrees>
              <LongitudeDegrees>20.2115702815353870391845703125</LongitudeDegrees>
            </Position>
            <AltitudeMeters>521.4000244140625</AltitudeMeters>
            <DistanceMeters>NAN</DistanceMeters>
          </Trackpoint>
          <Trackpoint>
            <Time>2022-09-20T10:32:30.000Z</Time>
            <Position>
              <LatitudeDegrees>49.46624253876507282257080078125</LatitudeDegrees>
              <LongitudeDegrees>20.2114110253751277923583984375</LongitudeDegrees>
            </Position>
            <AltitudeMeters>521.4000244140625</AltitudeMeters>
            <DistanceMeters>NAN</DistanceMeters>
          </Trackpoint>
          <Trackpoint>
            <Time>2022-09-20T10:32:36.000Z</Time>
            <Position>
              <LatitudeDegrees>49.46637681685388088226318359375</LatitudeDegrees>
              <LongitudeDegrees>20.211170129477977752685546875</LongitudeDegrees>
            </Position>
            <AltitudeMeters>521.20001220703125</AltitudeMeters>
            <DistanceMeters>NAN</DistanceMeters>
          </Trackpoint>
          <Trackpoint>
            <Time>2022-09-20T10:32:44.000Z</Time>
            <Position>
              <LatitudeDegrees>49.4665118493139743804931640625</LatitudeDegrees>
              <LongitudeDegrees>20.21089352667331695556640625</LongitudeDegrees>
            </Position>
            <AltitudeMeters>521.4000244140625</AltitudeMeters>
            <DistanceMeters>NAN</DistanceMeters>
          </Trackpoint>
          <Trackpoint>
            <Time>2022-09-20T10:32:48.000Z</Time>
            <Position>
              <LatitudeDegrees>49.466572366654872894287109375</LatitudeDegrees>
              <LongitudeDegrees>20.21076905541121959686279296875</LongitudeDegrees>
            </Position>
            <AltitudeMeters>521.4000244140625</AltitudeMeters>
            <DistanceMeters>NAN</DistanceMeters>
          </Trackpoint>
          <Trackpoint>
            <Time>2022-09-20T10:32:51.000Z</Time>
            <Position>
              <LatitudeDegrees>49.46662089787423610687255859375</LatitudeDegrees>
              <LongitudeDegrees>20.21066696383059024810791015625</LongitudeDegrees>
            </Position>
            <AltitudeMeters>521.4000244140625</AltitudeMeters>
            <DistanceMeters>NAN</DistanceMeters>
          </Trackpoint>
          <Trackpoint>
            <Time>2022-09-20T10:32:59.000Z</Time>
            <Position>
              <LatitudeDegrees>49.46672751568257808685302734375</LatitudeDegrees>
              <LongitudeDegrees>20.21040662191808223724365234375</LongitudeDegrees>
            </Position>
            <AltitudeMeters>521.5999755859375</AltitudeMeters>
            <DistanceMeters>NAN</DistanceMeters>
          </Trackpoint>
          <Trackpoint>
            <Time>2022-09-20T10:33:01.000Z</Time>
            <Position>
              <LatitudeDegrees>49.46675308048725128173828125</LatitudeDegrees>
              <LongitudeDegrees>20.21034811623394489288330078125</LongitudeDegrees>
            </Position>
            <AltitudeMeters>521.79998779296875</AltitudeMeters>
            <DistanceMeters>NAN</DistanceMeters>
          </Trackpoint>
          <Trackpoint>
            <Time>2022-09-20T10:33:05.000Z</Time>
            <Position>
              <LatitudeDegrees>49.466809742152690887451171875</LatitudeDegrees>
              <LongitudeDegrees>20.2102161012589931488037109375</LongitudeDegrees>
            </Position>
            <AltitudeMeters>521.79998779296875</AltitudeMeters>
            <DistanceMeters>NAN</DistanceMeters>
          </Trackpoint>
          <Trackpoint>
            <Time>2022-09-20T10:33:11.000Z</Time>
            <Position>
              <LatitudeDegrees>49.46688358671963214874267578125</LatitudeDegrees>
              <LongitudeDegrees>20.21004368551075458526611328125</LongitudeDegrees>
            </Position>
            <AltitudeMeters>522.4000244140625</AltitudeMeters>
            <DistanceMeters>NAN</DistanceMeters>
          </Trackpoint>
          <Trackpoint>
            <Time>2022-09-20T10:33:16.000Z</Time>
            <Position>
              <LatitudeDegrees>49.46693823672831058502197265625</LatitudeDegrees>
              <LongitudeDegrees>20.20993673242628574371337890625</LongitudeDegrees>
            </Position>
            <AltitudeMeters>522.5999755859375</AltitudeMeters>
            <DistanceMeters>NAN</DistanceMeters>
          </Trackpoint>
          <Trackpoint>
            <Time>2022-09-20T10:33:17.000Z</Time>
            <Position>
              <LatitudeDegrees>49.46694527752697467803955078125</LatitudeDegrees>
              <LongitudeDegrees>20.2099230699241161346435546875</LongitudeDegrees>
            </Position>
            <AltitudeMeters>522.79998779296875</AltitudeMeters>
            <DistanceMeters>NAN</DistanceMeters>
          </Trackpoint>
          <Trackpoint>
            <Time>2022-09-20T10:33:20.000Z</Time>
            <Position>
              <LatitudeDegrees>49.46694946847856044769287109375</LatitudeDegrees>
              <LongitudeDegrees>20.20989549346268177032470703125</LongitudeDegrees>
            </Position>
            <AltitudeMeters>523</AltitudeMeters>
            <DistanceMeters>NAN</DistanceMeters>
          </Trackpoint>
          <Trackpoint>
            <Time>2022-09-20T10:33:22.000Z</Time>
            <Position>
              <LatitudeDegrees>49.46692717261612415313720703125</LatitudeDegrees>
              <LongitudeDegrees>20.20991829223930835723876953125</LongitudeDegrees>
            </Position>
            <AltitudeMeters>523</AltitudeMeters>
            <DistanceMeters>NAN</DistanceMeters>
          </Trackpoint>
          <Trackpoint>
            <Time>2022-09-20T10:33:23.000Z</Time>
            <Position>
              <LatitudeDegrees>49.466916024684906005859375</LatitudeDegrees>
              <LongitudeDegrees>20.209948383271694183349609375</LongitudeDegrees>
            </Position>
            <AltitudeMeters>523</AltitudeMeters>
            <DistanceMeters>NAN</DistanceMeters>
          </Trackpoint>
          <Trackpoint>
            <Time>2022-09-20T10:33:28.000Z</Time>
            <Position>
              <LatitudeDegrees>49.4668387435376644134521484375</LatitudeDegrees>
              <LongitudeDegrees>20.21012918092310428619384765625</LongitudeDegrees>
            </Position>
            <AltitudeMeters>522.5999755859375</AltitudeMeters>
            <DistanceMeters>NAN</DistanceMeters>
          </Trackpoint>
          <Trackpoint>
            <Time>2022-09-20T10:33:37.000Z</Time>
            <Position>
              <LatitudeDegrees>49.466662220656871795654296875</LatitudeDegrees>
              <LongitudeDegrees>20.2105616033077239990234375</LongitudeDegrees>
            </Position>
            <AltitudeMeters>521.79998779296875</AltitudeMeters>
            <DistanceMeters>NAN</DistanceMeters>
          </Trackpoint>
          <Trackpoint>
            <Time>2022-09-20T10:33:45.000Z</Time>
            <Position>
              <LatitudeDegrees>49.46650958620011806488037109375</LatitudeDegrees>
              <LongitudeDegrees>20.2109020762145519256591796875</LongitudeDegrees>
            </Position>
            <AltitudeMeters>521.79998779296875</AltitudeMeters>
            <DistanceMeters>NAN</DistanceMeters>
          </Trackpoint>
          <Trackpoint>
            <Time>2022-09-20T10:33:51.000Z</Time>
            <Position>
              <LatitudeDegrees>49.46634915657341480255126953125</LatitudeDegrees>
              <LongitudeDegrees>20.211166441440582275390625</LongitudeDegrees>
            </Position>
            <AltitudeMeters>521.5999755859375</AltitudeMeters>
            <DistanceMeters>NAN</DistanceMeters>
          </Trackpoint>
          <Trackpoint>
            <Time>2022-09-20T10:33:59.000Z</Time>
            <Position>
              <LatitudeDegrees>49.4661832787096500396728515625</LatitudeDegrees>
              <LongitudeDegrees>20.2114251069724559783935546875</LongitudeDegrees>
            </Position>
            <AltitudeMeters>521.79998779296875</AltitudeMeters>
            <DistanceMeters>NAN</DistanceMeters>
          </Trackpoint>
          <Trackpoint>
            <Time>2022-09-20T10:34:06.000Z</Time>
            <Position>
              <LatitudeDegrees>49.46608730591833591461181640625</LatitudeDegrees>
              <LongitudeDegrees>20.21171025931835174560546875</LongitudeDegrees>
            </Position>
            <AltitudeMeters>521.4000244140625</AltitudeMeters>
            <DistanceMeters>NAN</DistanceMeters>
          </Trackpoint>
          <Trackpoint>
            <Time>2022-09-20T10:34:13.000Z</Time>
            <Position>
              <LatitudeDegrees>49.46600382216274738311767578125</LatitudeDegrees>
              <LongitudeDegrees>20.2120490558445453643798828125</LongitudeDegrees>
            </Position>
            <AltitudeMeters>521.5999755859375</AltitudeMeters>
            <DistanceMeters>NAN</DistanceMeters>
          </Trackpoint>
          <Trackpoint>
            <Time>2022-09-20T10:34:21.000Z</Time>
            <Position>
              <LatitudeDegrees>49.4659391976892948150634765625</LatitudeDegrees>
              <LongitudeDegrees>20.212394557893276214599609375</LongitudeDegrees>
            </Position>
            <AltitudeMeters>521.5999755859375</AltitudeMeters>
            <DistanceMeters>NAN</DistanceMeters>
          </Trackpoint>
          <Trackpoint>
            <Time>2022-09-20T10:34:29.000Z</Time>
            <Position>
              <LatitudeDegrees>49.465886056423187255859375</LatitudeDegrees>
              <LongitudeDegrees>20.21275204606354236602783203125</LongitudeDegrees>
            </Position>
            <AltitudeMeters>521.4000244140625</AltitudeMeters>
            <DistanceMeters>NAN</DistanceMeters>
          </Trackpoint>
          <Trackpoint>
            <Time>2022-09-20T10:34:35.000Z</Time>
            <Position>
              <LatitudeDegrees>49.46584791876375675201416015625</LatitudeDegrees>
              <LongitudeDegrees>20.21308958530426025390625</LongitudeDegrees>
            </Position>
            <AltitudeMeters>521.20001220703125</AltitudeMeters>
            <DistanceMeters>NAN</DistanceMeters>
          </Trackpoint>
          <Trackpoint>
            <Time>2022-09-20T10:34:43.000Z</Time>
            <Position>
              <LatitudeDegrees>49.465818665921688079833984375</LatitudeDegrees>
              <LongitudeDegrees>20.21353608928620815277099609375</LongitudeDegrees>
            </Position>
            <AltitudeMeters>520.79998779296875</AltitudeMeters>
            <DistanceMeters>NAN</DistanceMeters>
          </Trackpoint>
          <Trackpoint>
            <Time>2022-09-20T10:34:46.000Z</Time>
            <Position>
              <LatitudeDegrees>49.4658077694475650787353515625</LatitudeDegrees>
              <LongitudeDegrees>20.21369107067584991455078125</LongitudeDegrees>
            </Position>
            <AltitudeMeters>520.5999755859375</AltitudeMeters>
            <DistanceMeters>NAN</DistanceMeters>
          </Trackpoint>
          <Trackpoint>
            <Time>2022-09-20T10:34:49.000Z</Time>
            <Position>
              <LatitudeDegrees>49.465780444443225860595703125</LatitudeDegrees>
              <LongitudeDegrees>20.21384554915130138397216796875</LongitudeDegrees>
            </Position>
            <AltitudeMeters>520.5999755859375</AltitudeMeters>
            <DistanceMeters>NAN</DistanceMeters>
          </Trackpoint>
          <Trackpoint>
            <Time>2022-09-20T10:34:50.000Z</Time>
            <Position>
              <LatitudeDegrees>49.46576057933270931243896484375</LatitudeDegrees>
              <LongitudeDegrees>20.21388947032392024993896484375</LongitudeDegrees>
            </Position>
            <AltitudeMeters>520.5999755859375</AltitudeMeters>
            <DistanceMeters>NAN</DistanceMeters>
          </Trackpoint>
          <Trackpoint>
            <Time>2022-09-20T10:34:55.000Z</Time>
            <Position>
              <LatitudeDegrees>49.46562009863555431365966796875</LatitudeDegrees>
              <LongitudeDegrees>20.2140644006431102752685546875</LongitudeDegrees>
            </Position>
            <AltitudeMeters>520.5999755859375</AltitudeMeters>
            <DistanceMeters>NAN</DistanceMeters>
          </Trackpoint>
          <Trackpoint>
            <Time>2022-09-20T10:34:56.000Z</Time>
            <Position>
              <LatitudeDegrees>49.46558472700417041778564453125</LatitudeDegrees>
              <LongitudeDegrees>20.2140962518751621246337890625</LongitudeDegrees>
            </Position>
            <AltitudeMeters>520.79998779296875</AltitudeMeters>
            <DistanceMeters>NAN</DistanceMeters>
          </Trackpoint>
          <Trackpoint>
            <Time>2022-09-20T10:35:00.000Z</Time>
            <Position>
              <LatitudeDegrees>49.46546025574207305908203125</LatitudeDegrees>
              <LongitudeDegrees>20.214197672903537750244140625</LongitudeDegrees>
            </Position>
            <AltitudeMeters>521</AltitudeMeters>
            <DistanceMeters>NAN</DistanceMeters>
          </Trackpoint>
          <Trackpoint>
            <Time>2022-09-20T10:35:08.000Z</Time>
            <Position>
              <LatitudeDegrees>49.46518423967063426971435546875</LatitudeDegrees>
              <LongitudeDegrees>20.21440847776830196380615234375</LongitudeDegrees>
            </Position>
            <AltitudeMeters>520.79998779296875</AltitudeMeters>
            <DistanceMeters>NAN</DistanceMeters>
          </Trackpoint>
          <Trackpoint>
            <Time>2022-09-20T10:35:14.000Z</Time>
            <Position>
              <LatitudeDegrees>49.46500687859952449798583984375</LatitudeDegrees>
              <LongitudeDegrees>20.21453672088682651519775390625</LongitudeDegrees>
            </Position>
            <AltitudeMeters>521.20001220703125</AltitudeMeters>
            <DistanceMeters>NAN</DistanceMeters>
          </Trackpoint>
          <Trackpoint>
            <Time>2022-09-20T10:35:19.000Z</Time>
            <Position>
              <LatitudeDegrees>49.46484644897282123565673828125</LatitudeDegrees>
              <LongitudeDegrees>20.2146823145449161529541015625</LongitudeDegrees>
            </Position>
            <AltitudeMeters>521.4000244140625</AltitudeMeters>
            <DistanceMeters>NAN</DistanceMeters>
          </Trackpoint>
          <Trackpoint>
            <Time>2022-09-20T10:35:25.000Z</Time>
            <Position>
              <LatitudeDegrees>49.46468107402324676513671875</LatitudeDegrees>
              <LongitudeDegrees>20.21482857875525951385498046875</LongitudeDegrees>
            </Position>
            <AltitudeMeters>521.5999755859375</AltitudeMeters>
            <DistanceMeters>NAN</DistanceMeters>
          </Trackpoint>
          <Trackpoint>
            <Time>2022-09-20T10:35:27.000Z</Time>
            <Position>
              <LatitudeDegrees>49.464627094566822052001953125</LatitudeDegrees>
              <LongitudeDegrees>20.21488289348781108856201171875</LongitudeDegrees>
            </Position>
            <AltitudeMeters>521.5999755859375</AltitudeMeters>
            <DistanceMeters>NAN</DistanceMeters>
          </Trackpoint>
          <Trackpoint>
            <Time>2022-09-20T10:35:31.000Z</Time>
            <Position>
              <LatitudeDegrees>49.46450547315180301666259765625</LatitudeDegrees>
              <LongitudeDegrees>20.2150122262537479400634765625</LongitudeDegrees>
            </Position>
            <AltitudeMeters>521.5999755859375</AltitudeMeters>
            <DistanceMeters>NAN</DistanceMeters>
          </Trackpoint>
          <Trackpoint>
            <Time>2022-09-20T10:35:35.000Z</Time>
            <Position>
              <LatitudeDegrees>49.464390389621257781982421875</LatitudeDegrees>
              <LongitudeDegrees>20.2151403017342090606689453125</LongitudeDegrees>
            </Position>
            <AltitudeMeters>521.5999755859375</AltitudeMeters>
            <DistanceMeters>NAN</DistanceMeters>
          </Trackpoint>
          <Trackpoint>
            <Time>2022-09-20T10:35:42.000Z</Time>
            <Position>
              <LatitudeDegrees>49.46420473046600818634033203125</LatitudeDegrees>
              <LongitudeDegrees>20.215340293943881988525390625</LongitudeDegrees>
            </Position>
            <AltitudeMeters>522.4000244140625</AltitudeMeters>
            <DistanceMeters>NAN</DistanceMeters>
          </Trackpoint>
          <Trackpoint>
            <Time>2022-09-20T10:35:45.000Z</Time>
            <Position>
              <LatitudeDegrees>49.4641370885074138641357421875</LatitudeDegrees>
              <LongitudeDegrees>20.215420089662075042724609375</LongitudeDegrees>
            </Position>
            <AltitudeMeters>522.79998779296875</AltitudeMeters>
            <DistanceMeters>NAN</DistanceMeters>
          </Trackpoint>
          <Trackpoint>
            <Time>2022-09-20T10:35:49.000Z</Time>
            <Position>
              <LatitudeDegrees>49.464040361344814300537109375</LatitudeDegrees>
              <LongitudeDegrees>20.2155156433582305908203125</LongitudeDegrees>
            </Position>
            <AltitudeMeters>522.79998779296875</AltitudeMeters>
            <DistanceMeters>NAN</DistanceMeters>
          </Trackpoint>
          <Trackpoint>
            <Time>2022-09-20T10:35:50.000Z</Time>
            <Position>
              <LatitudeDegrees>49.46401027031242847442626953125</LatitudeDegrees>
              <LongitudeDegrees>20.21554070524871349334716796875</LongitudeDegrees>
            </Position>
            <AltitudeMeters>522.79998779296875</AltitudeMeters>
            <DistanceMeters>NAN</DistanceMeters>
          </Trackpoint>
          <Trackpoint>
            <Time>2022-09-20T10:35:59.000Z</Time>
            <Position>
              <LatitudeDegrees>49.46376635693013668060302734375</LatitudeDegrees>
              <LongitudeDegrees>20.21576601080596446990966796875</LongitudeDegrees>
            </Position>
            <AltitudeMeters>523.20001220703125</AltitudeMeters>
            <DistanceMeters>NAN</DistanceMeters>
          </Trackpoint>
          <Trackpoint>
            <Time>2022-09-20T10:36:01.000Z</Time>
            <Position>
              <LatitudeDegrees>49.46370852179825305938720703125</LatitudeDegrees>
              <LongitudeDegrees>20.21581831388175487518310546875</LongitudeDegrees>
            </Position>
            <AltitudeMeters>523.20001220703125</AltitudeMeters>
            <DistanceMeters>NAN</DistanceMeters>
          </Trackpoint>
          <Trackpoint>
            <Time>2022-09-20T10:36:04.000Z</Time>
            <Position>
              <LatitudeDegrees>49.46361296810209751129150390625</LatitudeDegrees>
              <LongitudeDegrees>20.21584731526672840118408203125</LongitudeDegrees>
            </Position>
            <AltitudeMeters>523</AltitudeMeters>
            <DistanceMeters>NAN</DistanceMeters>
          </Trackpoint>
          <Trackpoint>
            <Time>2022-09-20T10:36:06.000Z</Time>
            <Position>
              <LatitudeDegrees>49.4635419733822345733642578125</LatitudeDegrees>
              <LongitudeDegrees>20.215812362730503082275390625</LongitudeDegrees>
            </Position>
            <AltitudeMeters>522.79998779296875</AltitudeMeters>
            <DistanceMeters>NAN</DistanceMeters>
          </Trackpoint>
          <Trackpoint>
            <Time>2022-09-20T10:36:09.000Z</Time>
            <Position>
              <LatitudeDegrees>49.46343728341162204742431640625</LatitudeDegrees>
              <LongitudeDegrees>20.21572426892817020416259765625</LongitudeDegrees>
            </Position>
            <AltitudeMeters>522.4000244140625</AltitudeMeters>
            <DistanceMeters>NAN</DistanceMeters>
          </Trackpoint>
          <Trackpoint>
            <Time>2022-09-20T10:36:13.000Z</Time>
            <Position>
              <LatitudeDegrees>49.46332077495753765106201171875</LatitudeDegrees>
              <LongitudeDegrees>20.2155728079378604888916015625</LongitudeDegrees>
            </Position>
            <AltitudeMeters>522.4000244140625</AltitudeMeters>
            <DistanceMeters>NAN</DistanceMeters>
          </Trackpoint>
          <Trackpoint>
            <Time>2022-09-20T10:36:20.000Z</Time>
            <Position>
              <LatitudeDegrees>49.4631567411124706268310546875</LatitudeDegrees>
              <LongitudeDegrees>20.21534138359129428863525390625</LongitudeDegrees>
            </Position>
            <AltitudeMeters>523</AltitudeMeters>
            <DistanceMeters>NAN</DistanceMeters>
          </Trackpoint>
          <Trackpoint>
            <Time>2022-09-20T10:36:27.000Z</Time>
            <Position>
              <LatitudeDegrees>49.463010728359222412109375</LatitudeDegrees>
              <LongitudeDegrees>20.21497249603271484375</LongitudeDegrees>
            </Position>
            <AltitudeMeters>523.20001220703125</AltitudeMeters>
            <DistanceMeters>NAN</DistanceMeters>
          </Trackpoint>
          <Trackpoint>
            <Time>2022-09-20T10:36:28.000Z</Time>
            <Position>
              <LatitudeDegrees>49.46299522183835506439208984375</LatitudeDegrees>
              <LongitudeDegrees>20.21492488682270050048828125</LongitudeDegrees>
            </Position>
            <AltitudeMeters>523.20001220703125</AltitudeMeters>
            <DistanceMeters>NAN</DistanceMeters>
          </Trackpoint>
          <Trackpoint>
            <Time>2022-09-20T10:36:36.000Z</Time>
            <Position>
              <LatitudeDegrees>49.46289229206740856170654296875</LatitudeDegrees>
              <LongitudeDegrees>20.2145956456661224365234375</LongitudeDegrees>
            </Position>
            <AltitudeMeters>523.20001220703125</AltitudeMeters>
            <DistanceMeters>NAN</DistanceMeters>
          </Trackpoint>
          <Trackpoint>
            <Time>2022-09-20T10:36:40.000Z</Time>
            <Position>
              <LatitudeDegrees>49.462842755019664764404296875</LatitudeDegrees>
              <LongitudeDegrees>20.21439288742840290069580078125</LongitudeDegrees>
            </Position>
            <AltitudeMeters>523.20001220703125</AltitudeMeters>
            <DistanceMeters>NAN</DistanceMeters>
          </Trackpoint>
          <Trackpoint>
            <Time>2022-09-20T10:36:42.000Z</Time>
            <Position>
              <LatitudeDegrees>49.46282573975622653961181640625</LatitudeDegrees>
              <LongitudeDegrees>20.21430789493024349212646484375</LongitudeDegrees>
            </Position>
            <AltitudeMeters>523.4000244140625</AltitudeMeters>
            <DistanceMeters>NAN</DistanceMeters>
          </Trackpoint>
          <Trackpoint>
            <Time>2022-09-20T10:36:43.000Z</Time>
            <Position>
              <LatitudeDegrees>49.4628157652914524078369140625</LatitudeDegrees>
              <LongitudeDegrees>20.214263387024402618408203125</LongitudeDegrees>
            </Position>
            <AltitudeMeters>523.4000244140625</AltitudeMeters>
            <DistanceMeters>NAN</DistanceMeters>
          </Trackpoint>
          <Trackpoint>
            <Time>2022-09-20T10:36:53.000Z</Time>
            <Position>
              <LatitudeDegrees>49.46271208114922046661376953125</LatitudeDegrees>
              <LongitudeDegrees>20.2138246782124042510986328125</LongitudeDegrees>
            </Position>
            <AltitudeMeters>523.4000244140625</AltitudeMeters>
            <DistanceMeters>NAN</DistanceMeters>
          </Trackpoint>
          <Trackpoint>
            <Time>2022-09-20T10:37:00.000Z</Time>
            <Position>
              <LatitudeDegrees>49.46263899095356464385986328125</LatitudeDegrees>
              <LongitudeDegrees>20.213571377098560333251953125</LongitudeDegrees>
            </Position>
            <AltitudeMeters>523.4000244140625</AltitudeMeters>
            <DistanceMeters>NAN</DistanceMeters>
          </Trackpoint>
          <Trackpoint>
            <Time>2022-09-20T10:37:03.000Z</Time>
            <Position>
              <LatitudeDegrees>49.4625991769134998321533203125</LatitudeDegrees>
              <LongitudeDegrees>20.21343617700040340423583984375</LongitudeDegrees>
            </Position>
            <AltitudeMeters>523.79998779296875</AltitudeMeters>
            <DistanceMeters>NAN</DistanceMeters>
          </Trackpoint>
          <Trackpoint>
            <Time>2022-09-20T10:37:07.000Z</Time>
            <Position>
              <LatitudeDegrees>49.462563134729862213134765625</LatitudeDegrees>
              <LongitudeDegrees>20.21327775903046131134033203125</LongitudeDegrees>
            </Position>
            <AltitudeMeters>524</AltitudeMeters>
            <DistanceMeters>NAN</DistanceMeters>
          </Trackpoint>
          <Trackpoint>
            <Time>2022-09-20T10:37:15.000Z</Time>
            <Position>
              <LatitudeDegrees>49.46249775588512420654296875</LatitudeDegrees>
              <LongitudeDegrees>20.213004089891910552978515625</LongitudeDegrees>
            </Position>
            <AltitudeMeters>524.4000244140625</AltitudeMeters>
            <DistanceMeters>NAN</DistanceMeters>
          </Trackpoint>
          <Trackpoint>
            <Time>2022-09-20T10:37:19.000Z</Time>
            <Position>
              <LatitudeDegrees>49.46246280334889888763427734375</LatitudeDegrees>
              <LongitudeDegrees>20.2128480188548564910888671875</LongitudeDegrees>
            </Position>
            <AltitudeMeters>524.79998779296875</AltitudeMeters>
            <DistanceMeters>NAN</DistanceMeters>
          </Trackpoint>
          <Trackpoint>
            <Time>2022-09-20T10:37:24.000Z</Time>
            <Position>
              <LatitudeDegrees>49.4624157808721065521240234375</LatitudeDegrees>
              <LongitudeDegrees>20.21262933500111103057861328125</LongitudeDegrees>
            </Position>
            <AltitudeMeters>524.79998779296875</AltitudeMeters>
            <DistanceMeters>NAN</DistanceMeters>
          </Trackpoint>
          <Trackpoint>
            <Time>2022-09-20T10:37:30.000Z</Time>
            <Position>
              <LatitudeDegrees>49.4623601250350475311279296875</LatitudeDegrees>
              <LongitudeDegrees>20.212425403296947479248046875</LongitudeDegrees>
            </Position>
            <AltitudeMeters>524.79998779296875</AltitudeMeters>
            <DistanceMeters>NAN</DistanceMeters>
          </Trackpoint>
          <Trackpoint>
            <Time>2022-09-20T10:37:31.000Z</Time>
            <Position>
              <LatitudeDegrees>49.46234562434256076812744140625</LatitudeDegrees>
              <LongitudeDegrees>20.2123950608074665069580078125</LongitudeDegrees>
            </Position>
            <AltitudeMeters>524.79998779296875</AltitudeMeters>
            <DistanceMeters>NAN</DistanceMeters>
          </Trackpoint>
          <Trackpoint>
            <Time>2022-09-20T10:37:39.000Z</Time>
            <Position>
              <LatitudeDegrees>49.46221821941435337066650390625</LatitudeDegrees>
              <LongitudeDegrees>20.21209473721683025360107421875</LongitudeDegrees>
            </Position>
            <AltitudeMeters>525.20001220703125</AltitudeMeters>
            <DistanceMeters>NAN</DistanceMeters>
          </Trackpoint>
          <Trackpoint>
            <Time>2022-09-20T10:37:47.000Z</Time>
            <Position>
              <LatitudeDegrees>49.462130628526210784912109375</LatitudeDegrees>
              <LongitudeDegrees>20.211748816072940826416015625</LongitudeDegrees>
            </Position>
            <AltitudeMeters>525.20001220703125</AltitudeMeters>
            <DistanceMeters>NAN</DistanceMeters>
          </Trackpoint>
          <Trackpoint>
            <Time>2022-09-20T10:37:55.000Z</Time>
            <Position>
              <LatitudeDegrees>49.4620439596474170684814453125</LatitudeDegrees>
              <LongitudeDegrees>20.211383365094661712646484375</LongitudeDegrees>
            </Position>
            <AltitudeMeters>525.79998779296875</AltitudeMeters>
            <DistanceMeters>NAN</DistanceMeters>
          </Trackpoint>
          <Trackpoint>
            <Time>2022-09-20T10:38:01.000Z</Time>
            <Position>
              <LatitudeDegrees>49.46198218502104282379150390625</LatitudeDegrees>
              <LongitudeDegrees>20.21117306314408779144287109375</LongitudeDegrees>
            </Position>
            <AltitudeMeters>525.79998779296875</AltitudeMeters>
            <DistanceMeters>NAN</DistanceMeters>
          </Trackpoint>
          <Trackpoint>
            <Time>2022-09-20T10:38:04.000Z</Time>
            <Position>
              <LatitudeDegrees>49.4619534350931644439697265625</LatitudeDegrees>
              <LongitudeDegrees>20.2110455743968486785888671875</LongitudeDegrees>
            </Position>
            <AltitudeMeters>526</AltitudeMeters>
            <DistanceMeters>NAN</DistanceMeters>
          </Trackpoint>
          <Trackpoint>
            <Time>2022-09-20T10:38:13.000Z</Time>
            <Position>
              <LatitudeDegrees>49.46186349727213382720947265625</LatitudeDegrees>
              <LongitudeDegrees>20.2106955461204051971435546875</LongitudeDegrees>
            </Position>
            <AltitudeMeters>526.4000244140625</AltitudeMeters>
            <DistanceMeters>NAN</DistanceMeters>
          </Trackpoint>
          <Trackpoint>
            <Time>2022-09-20T10:38:21.000Z</Time>
            <Position>
              <LatitudeDegrees>49.46176819503307342529296875</LatitudeDegrees>
              <LongitudeDegrees>20.21036622114479541778564453125</LongitudeDegrees>
            </Position>
            <AltitudeMeters>526.79998779296875</AltitudeMeters>
            <DistanceMeters>NAN</DistanceMeters>
          </Trackpoint>
          <Trackpoint>
            <Time>2022-09-20T10:38:24.000Z</Time>
            <Position>
              <LatitudeDegrees>49.46173944510519504547119140625</LatitudeDegrees>
              <LongitudeDegrees>20.210262872278690338134765625</LongitudeDegrees>
            </Position>
            <AltitudeMeters>526.79998779296875</AltitudeMeters>
            <DistanceMeters>NAN</DistanceMeters>
          </Trackpoint>
          <Trackpoint>
            <Time>2022-09-20T10:38:27.000Z</Time>
            <Position>
              <LatitudeDegrees>49.46172125637531280517578125</LatitudeDegrees>
              <LongitudeDegrees>20.2101458609104156494140625</LongitudeDegrees>
            </Position>
            <AltitudeMeters>526.79998779296875</AltitudeMeters>
            <DistanceMeters>NAN</DistanceMeters>
          </Trackpoint>
          <Trackpoint>
            <Time>2022-09-20T10:38:30.000Z</Time>
            <Position>
              <LatitudeDegrees>49.461693428456783294677734375</LatitudeDegrees>
              <LongitudeDegrees>20.21003664471209049224853515625</LongitudeDegrees>
            </Position>
            <AltitudeMeters>527</AltitudeMeters>
            <DistanceMeters>NAN</DistanceMeters>
          </Trackpoint>
          <Trackpoint>
            <Time>2022-09-20T10:38:36.000Z</Time>
            <Position>
              <LatitudeDegrees>49.46164422668516635894775390625</LatitudeDegrees>
              <LongitudeDegrees>20.2098647318780422210693359375</LongitudeDegrees>
            </Position>
            <AltitudeMeters>527.20001220703125</AltitudeMeters>
            <DistanceMeters>NAN</DistanceMeters>
          </Trackpoint>
          <Trackpoint>
            <Time>2022-09-20T10:38:41.000Z</Time>
            <Position>
              <LatitudeDegrees>49.46159921586513519287109375</LatitudeDegrees>
              <LongitudeDegrees>20.209690220654010772705078125</LongitudeDegrees>
            </Position>
            <AltitudeMeters>527.4000244140625</AltitudeMeters>
            <DistanceMeters>NAN</DistanceMeters>
          </Trackpoint>
          <Trackpoint>
            <Time>2022-09-20T10:38:45.000Z</Time>
            <Position>
              <LatitudeDegrees>49.46157063357532024383544921875</LatitudeDegrees>
              <LongitudeDegrees>20.20955502055585384368896484375</LongitudeDegrees>
            </Position>
            <AltitudeMeters>527.4000244140625</AltitudeMeters>
            <DistanceMeters>NAN</DistanceMeters>
          </Trackpoint>
          <Trackpoint>
            <Time>2022-09-20T10:38:46.000Z</Time>
            <Position>
              <LatitudeDegrees>49.46155965328216552734375</LatitudeDegrees>
              <LongitudeDegrees>20.209517888724803924560546875</LongitudeDegrees>
            </Position>
            <AltitudeMeters>527.20001220703125</AltitudeMeters>
            <DistanceMeters>NAN</DistanceMeters>
          </Trackpoint>
          <Trackpoint>
            <Time>2022-09-20T10:38:55.000Z</Time>
            <Position>
              <LatitudeDegrees>49.46146803908050060272216796875</LatitudeDegrees>
              <LongitudeDegrees>20.209192000329494476318359375</LongitudeDegrees>
            </Position>
            <AltitudeMeters>527.4000244140625</AltitudeMeters>
            <DistanceMeters>NAN</DistanceMeters>
          </Trackpoint>
          <Trackpoint>
            <Time>2022-09-20T10:38:56.000Z</Time>
            <Position>
              <LatitudeDegrees>49.46146803908050060272216796875</LatitudeDegrees>
              <LongitudeDegrees>20.209192000329494476318359375</LongitudeDegrees>
            </Position>
            <AltitudeMeters>527.4000244140625</AltitudeMeters>
            <DistanceMeters>NAN</DistanceMeters>
          </Trackpoint>
          <Trackpoint>
            <Time>2022-09-20T10:39:01.000Z</Time>
            <Position>
              <LatitudeDegrees>49.46143719367682933807373046875</LatitudeDegrees>
              <LongitudeDegrees>20.20903282798826694488525390625</LongitudeDegrees>
            </Position>
            <AltitudeMeters>527.5999755859375</AltitudeMeters>
            <DistanceMeters>NAN</DistanceMeters>
          </Trackpoint>
          <Trackpoint>
            <Time>2022-09-20T10:39:09.000Z</Time>
            <Position>
              <LatitudeDegrees>49.46135840378701686859130859375</LatitudeDegrees>
              <LongitudeDegrees>20.20874918438494205474853515625</LongitudeDegrees>
            </Position>
            <AltitudeMeters>527.4000244140625</AltitudeMeters>
            <DistanceMeters>NAN</DistanceMeters>
          </Trackpoint>
          <Trackpoint>
            <Time>2022-09-20T10:39:17.000Z</Time>
            <Position>
              <LatitudeDegrees>49.46128414012491703033447265625</LatitudeDegrees>
              <LongitudeDegrees>20.20846587605774402618408203125</LongitudeDegrees>
            </Position>
            <AltitudeMeters>527.79998779296875</AltitudeMeters>
            <DistanceMeters>NAN</DistanceMeters>
          </Trackpoint>
          <Trackpoint>
            <Time>2022-09-20T10:39:18.000Z</Time>
            <Position>
              <LatitudeDegrees>49.4612711481750011444091796875</LatitudeDegrees>
              <LongitudeDegrees>20.20844073034822940826416015625</LongitudeDegrees>
            </Position>
            <AltitudeMeters>528</AltitudeMeters>
            <DistanceMeters>NAN</DistanceMeters>
          </Trackpoint>
          <Trackpoint>
            <Time>2022-09-20T10:39:21.000Z</Time>
            <Position>
              <LatitudeDegrees>49.461202584207057952880859375</LatitudeDegrees>
              <LongitudeDegrees>20.2084002457559108734130859375</LongitudeDegrees>
            </Position>
            <AltitudeMeters>528</AltitudeMeters>
            <DistanceMeters>NAN</DistanceMeters>
          </Trackpoint>
          <Trackpoint>
            <Time>2022-09-20T10:39:23.000Z</Time>
            <Position>
              <LatitudeDegrees>49.46114567108452320098876953125</LatitudeDegrees>
              <LongitudeDegrees>20.2084056101739406585693359375</LongitudeDegrees>
            </Position>
            <AltitudeMeters>528.20001220703125</AltitudeMeters>
            <DistanceMeters>NAN</DistanceMeters>
          </Trackpoint>
          <Trackpoint>
            <Time>2022-09-20T10:39:25.000Z</Time>
            <Position>
              <LatitudeDegrees>49.46108481846749782562255859375</LatitudeDegrees>
              <LongitudeDegrees>20.208451040089130401611328125</LongitudeDegrees>
            </Position>
            <AltitudeMeters>528.20001220703125</AltitudeMeters>
            <DistanceMeters>NAN</DistanceMeters>
          </Trackpoint>
          <Trackpoint>
            <Time>2022-09-20T10:39:31.000Z</Time>
            <Position>
              <LatitudeDegrees>49.46089387871325016021728515625</LatitudeDegrees>
              <LongitudeDegrees>20.20863988436758518218994140625</LongitudeDegrees>
            </Position>
            <AltitudeMeters>528.5999755859375</AltitudeMeters>
            <DistanceMeters>NAN</DistanceMeters>
          </Trackpoint>
          <Trackpoint>
            <Time>2022-09-20T10:39:36.000Z</Time>
            <Position>
              <LatitudeDegrees>49.46076412685215473175048828125</LatitudeDegrees>
              <LongitudeDegrees>20.20877080969512462615966796875</LongitudeDegrees>
            </Position>
            <AltitudeMeters>529</AltitudeMeters>
            <DistanceMeters>NAN</DistanceMeters>
          </Trackpoint>
          <Trackpoint>
            <Time>2022-09-20T10:39:37.000Z</Time>
            <Position>
              <LatitudeDegrees>49.4607424177229404449462890625</LatitudeDegrees>
              <LongitudeDegrees>20.20879209972918033599853515625</LongitudeDegrees>
            </Position>
            <AltitudeMeters>529</AltitudeMeters>
            <DistanceMeters>NAN</DistanceMeters>
          </Trackpoint>
          <Trackpoint>
            <Time>2022-09-20T10:39:39.000Z</Time>
            <Position>
              <LatitudeDegrees>49.46068936027586460113525390625</LatitudeDegrees>
              <LongitudeDegrees>20.20883283577859401702880859375</LongitudeDegrees>
            </Position>
            <AltitudeMeters>528.79998779296875</AltitudeMeters>
            <DistanceMeters>NAN</DistanceMeters>
          </Trackpoint>
          <Trackpoint>
            <Time>2022-09-20T10:39:40.000Z</Time>
            <Position>
              <LatitudeDegrees>49.46066404692828655242919921875</LatitudeDegrees>
              <LongitudeDegrees>20.20885177887976169586181640625</LongitudeDegrees>
            </Position>
            <AltitudeMeters>528.79998779296875</AltitudeMeters>
            <DistanceMeters>NAN</DistanceMeters>
          </Trackpoint>
          <Trackpoint>
            <Time>2022-09-20T10:39:41.000Z</Time>
            <Position>
              <LatitudeDegrees>49.460637308657169342041015625</LatitudeDegrees>
              <LongitudeDegrees>20.2088763378560543060302734375</LongitudeDegrees>
            </Position>
            <AltitudeMeters>528.79998779296875</AltitudeMeters>
            <DistanceMeters>NAN</DistanceMeters>
          </Trackpoint>
          <Trackpoint>
            <Time>2022-09-20T10:39:45.000Z</Time>
            <Position>
              <LatitudeDegrees>49.46052541024982929229736328125</LatitudeDegrees>
              <LongitudeDegrees>20.20899527706205844879150390625</LongitudeDegrees>
            </Position>
            <AltitudeMeters>528.4000244140625</AltitudeMeters>
            <DistanceMeters>NAN</DistanceMeters>
          </Trackpoint>
          <Trackpoint>
            <Time>2022-09-20T10:39:48.000Z</Time>
            <Position>
              <LatitudeDegrees>49.46044242940843105316162109375</LatitudeDegrees>
              <LongitudeDegrees>20.20908496342599391937255859375</LongitudeDegrees>
            </Position>
            <AltitudeMeters>528.4000244140625</AltitudeMeters>
            <DistanceMeters>NAN</DistanceMeters>
          </Trackpoint>
          <Trackpoint>
            <Time>2022-09-20T10:39:53.000Z</Time>
            <Position>
              <LatitudeDegrees>49.46032457984983921051025390625</LatitudeDegrees>
              <LongitudeDegrees>20.20919359289109706878662109375</LongitudeDegrees>
            </Position>
            <AltitudeMeters>528.79998779296875</AltitudeMeters>
            <DistanceMeters>NAN</DistanceMeters>
          </Trackpoint>
          <Trackpoint>
            <Time>2022-09-20T10:39:57.000Z</Time>
            <Position>
              <LatitudeDegrees>49.460238330066204071044921875</LatitudeDegrees>
              <LongitudeDegrees>20.20921605639159679412841796875</LongitudeDegrees>
            </Position>
            <AltitudeMeters>529</AltitudeMeters>
            <DistanceMeters>NAN</DistanceMeters>
          </Trackpoint>
          <Trackpoint>
            <Time>2022-09-20T10:40:03.000Z</Time>
            <Position>
              <LatitudeDegrees>49.4600651599466800689697265625</LatitudeDegrees>
              <LongitudeDegrees>20.20934513770043849945068359375</LongitudeDegrees>
            </Position>
            <AltitudeMeters>529.20001220703125</AltitudeMeters>
            <DistanceMeters>NAN</DistanceMeters>
          </Trackpoint>
          <Trackpoint>
            <Time>2022-09-20T10:40:06.000Z</Time>
            <Position>
              <LatitudeDegrees>49.45999181829392910003662109375</LatitudeDegrees>
              <LongitudeDegrees>20.20940850488841533660888671875</LongitudeDegrees>
            </Position>
            <AltitudeMeters>529.4000244140625</AltitudeMeters>
            <DistanceMeters>NAN</DistanceMeters>
          </Trackpoint>
          <Trackpoint>
            <Time>2022-09-20T10:40:09.000Z</Time>
            <Position>
              <LatitudeDegrees>49.4599337317049503326416015625</LatitudeDegrees>
              <LongitudeDegrees>20.20947522483766078948974609375</LongitudeDegrees>
            </Position>
            <AltitudeMeters>529.79998779296875</AltitudeMeters>
            <DistanceMeters>NAN</DistanceMeters>
          </Trackpoint>
          <Trackpoint>
            <Time>2022-09-20T10:40:10.000Z</Time>
            <Position>
              <LatitudeDegrees>49.459912441670894622802734375</LatitudeDegrees>
              <LongitudeDegrees>20.20949953235685825347900390625</LongitudeDegrees>
            </Position>
            <AltitudeMeters>529.79998779296875</AltitudeMeters>
            <DistanceMeters>NAN</DistanceMeters>
          </Trackpoint>
          <Trackpoint>
            <Time>2022-09-20T10:40:11.000Z</Time>
            <Position>
              <LatitudeDegrees>49.45988670922815799713134765625</LatitudeDegrees>
              <LongitudeDegrees>20.20952635444700717926025390625</LongitudeDegrees>
            </Position>
            <AltitudeMeters>530</AltitudeMeters>
            <DistanceMeters>NAN</DistanceMeters>
          </Trackpoint>
          <Trackpoint>
            <Time>2022-09-20T10:40:19.000Z</Time>
            <Position>
              <LatitudeDegrees>49.459697194397449493408203125</LatitudeDegrees>
              <LongitudeDegrees>20.20975015126168727874755859375</LongitudeDegrees>
            </Position>
            <AltitudeMeters>529.79998779296875</AltitudeMeters>
            <DistanceMeters>NAN</DistanceMeters>
          </Trackpoint>
          <Trackpoint>
            <Time>2022-09-20T10:40:22.000Z</Time>
            <Position>
              <LatitudeDegrees>49.45963189937174320220947265625</LatitudeDegrees>
              <LongitudeDegrees>20.20980765111744403839111328125</LongitudeDegrees>
            </Position>
            <AltitudeMeters>530</AltitudeMeters>
            <DistanceMeters>NAN</DistanceMeters>
          </Trackpoint>
          <Trackpoint>
            <Time>2022-09-20T10:40:27.000Z</Time>
            <Position>
              <LatitudeDegrees>49.45950365625321865081787109375</LatitudeDegrees>
              <LongitudeDegrees>20.20994410850107669830322265625</LongitudeDegrees>
            </Position>
            <AltitudeMeters>530.20001220703125</AltitudeMeters>
            <DistanceMeters>NAN</DistanceMeters>
          </Trackpoint>
          <Trackpoint>
            <Time>2022-09-20T10:40:33.000Z</Time>
            <Position>
              <LatitudeDegrees>49.45935294963419437408447265625</LatitudeDegrees>
              <LongitudeDegrees>20.21009816788136959075927734375</LongitudeDegrees>
            </Position>
            <AltitudeMeters>530.20001220703125</AltitudeMeters>
            <DistanceMeters>NAN</DistanceMeters>
          </Trackpoint>
          <Trackpoint>
            <Time>2022-09-20T10:40:38.000Z</Time>
            <Position>
              <LatitudeDegrees>49.45921917445957660675048828125</LatitudeDegrees>
              <LongitudeDegrees>20.21028944291174411773681640625</LongitudeDegrees>
            </Position>
            <AltitudeMeters>530.20001220703125</AltitudeMeters>
            <DistanceMeters>NAN</DistanceMeters>
          </Trackpoint>
          <Trackpoint>
            <Time>2022-09-20T10:40:42.000Z</Time>
            <Position>
              <LatitudeDegrees>49.45908925496041774749755859375</LatitudeDegrees>
              <LongitudeDegrees>20.2104149200022220611572265625</LongitudeDegrees>
            </Position>
            <AltitudeMeters>530</AltitudeMeters>
            <DistanceMeters>NAN</DistanceMeters>
          </Trackpoint>
          <Trackpoint>
            <Time>2022-09-20T10:40:45.000Z</Time>
            <Position>
              <LatitudeDegrees>49.45899613201618194580078125</LatitudeDegrees>
              <LongitudeDegrees>20.21050452254712581634521484375</LongitudeDegrees>
            </Position>
            <AltitudeMeters>529.79998779296875</AltitudeMeters>
            <DistanceMeters>NAN</DistanceMeters>
          </Trackpoint>
          <Trackpoint>
            <Time>2022-09-20T10:40:53.000Z</Time>
            <Position>
              <LatitudeDegrees>49.45874626748263835906982421875</LatitudeDegrees>
              <LongitudeDegrees>20.210790596902370452880859375</LongitudeDegrees>
            </Position>
            <AltitudeMeters>529.20001220703125</AltitudeMeters>
            <DistanceMeters>NAN</DistanceMeters>
          </Trackpoint>
          <Trackpoint>
            <Time>2022-09-20T10:40:56.000Z</Time>
            <Position>
              <LatitudeDegrees>49.45863562636077404022216796875</LatitudeDegrees>
              <LongitudeDegrees>20.2109003998339176177978515625</LongitudeDegrees>
            </Position>
            <AltitudeMeters>528.79998779296875</AltitudeMeters>
            <DistanceMeters>NAN</DistanceMeters>
          </Trackpoint>
          <Trackpoint>
            <Time>2022-09-20T10:41:00.000Z</Time>
            <Position>
              <LatitudeDegrees>49.45847318507730960845947265625</LatitudeDegrees>
              <LongitudeDegrees>20.2110767550766468048095703125</LongitudeDegrees>
            </Position>
            <AltitudeMeters>528.5999755859375</AltitudeMeters>
            <DistanceMeters>NAN</DistanceMeters>
          </Trackpoint>
          <Trackpoint>
            <Time>2022-09-20T10:41:01.000Z</Time>
            <Position>
              <LatitudeDegrees>49.45842993445694446563720703125</LatitudeDegrees>
              <LongitudeDegrees>20.21111254580318927764892578125</LongitudeDegrees>
            </Position>
            <AltitudeMeters>528.5999755859375</AltitudeMeters>
            <DistanceMeters>NAN</DistanceMeters>
          </Trackpoint>
          <Trackpoint>
            <Time>2022-09-20T10:41:04.000Z</Time>
            <Position>
              <LatitudeDegrees>49.45829967968165874481201171875</LatitudeDegrees>
              <LongitudeDegrees>20.21122368983924388885498046875</LongitudeDegrees>
            </Position>
            <AltitudeMeters>527.79998779296875</AltitudeMeters>
            <DistanceMeters>NAN</DistanceMeters>
          </Trackpoint>
          <Trackpoint>
            <Time>2022-09-20T10:41:08.000Z</Time>
            <Position>
              <LatitudeDegrees>49.4581235758960247039794921875</LatitudeDegrees>
              <LongitudeDegrees>20.21140222437679767608642578125</LongitudeDegrees>
            </Position>
            <AltitudeMeters>527</AltitudeMeters>
            <DistanceMeters>NAN</DistanceMeters>
          </Trackpoint>
          <Trackpoint>
            <Time>2022-09-20T10:41:10.000Z</Time>
            <Position>
              <LatitudeDegrees>49.4580320455133914947509765625</LatitudeDegrees>
              <LongitudeDegrees>20.2114971913397312164306640625</LongitudeDegrees>
            </Position>
            <AltitudeMeters>526.79998779296875</AltitudeMeters>
            <DistanceMeters>NAN</DistanceMeters>
          </Trackpoint>
          <Trackpoint>
            <Time>2022-09-20T10:41:15.000Z</Time>
            <Position>
              <LatitudeDegrees>49.45780715905129909515380859375</LatitudeDegrees>
              <LongitudeDegrees>20.2117285318672657012939453125</LongitudeDegrees>
            </Position>
            <AltitudeMeters>526.79998779296875</AltitudeMeters>
            <DistanceMeters>NAN</DistanceMeters>
          </Trackpoint>
          <Trackpoint>
            <Time>2022-09-20T10:41:20.000Z</Time>
            <Position>
              <LatitudeDegrees>49.4576101005077362060546875</LatitudeDegrees>
              <LongitudeDegrees>20.21194336004555225372314453125</LongitudeDegrees>
            </Position>
            <AltitudeMeters>526.79998779296875</AltitudeMeters>
            <DistanceMeters>NAN</DistanceMeters>
          </Trackpoint>
          <Trackpoint>
            <Time>2022-09-20T10:41:22.000Z</Time>
            <Position>
              <LatitudeDegrees>49.45753608830273151397705078125</LatitudeDegrees>
              <LongitudeDegrees>20.21202935837209224700927734375</LongitudeDegrees>
            </Position>
            <AltitudeMeters>527</AltitudeMeters>
            <DistanceMeters>NAN</DistanceMeters>
          </Trackpoint>
          <Trackpoint>
            <Time>2022-09-20T10:41:24.000Z</Time>
            <Position>
              <LatitudeDegrees>49.45745252072811126708984375</LatitudeDegrees>
              <LongitudeDegrees>20.2120936475694179534912109375</LongitudeDegrees>
            </Position>
            <AltitudeMeters>527</AltitudeMeters>
            <DistanceMeters>NAN</DistanceMeters>
          </Trackpoint>
          <Trackpoint>
            <Time>2022-09-20T10:41:27.000Z</Time>
            <Position>
              <LatitudeDegrees>49.457348249852657318115234375</LatitudeDegrees>
              <LongitudeDegrees>20.21220454014837741851806640625</LongitudeDegrees>
            </Position>
            <AltitudeMeters>527.20001220703125</AltitudeMeters>
            <DistanceMeters>NAN</DistanceMeters>
          </Trackpoint>
          <Trackpoint>
            <Time>2022-09-20T10:41:33.000Z</Time>
            <Position>
              <LatitudeDegrees>49.45715102367103099822998046875</LatitudeDegrees>
              <LongitudeDegrees>20.21242045797407627105712890625</LongitudeDegrees>
            </Position>
            <AltitudeMeters>527</AltitudeMeters>
            <DistanceMeters>NAN</DistanceMeters>
          </Trackpoint>
          <Trackpoint>
            <Time>2022-09-20T10:41:36.000Z</Time>
            <Position>
              <LatitudeDegrees>49.45706234313547611236572265625</LatitudeDegrees>
              <LongitudeDegrees>20.2125370502471923828125</LongitudeDegrees>
            </Position>
            <AltitudeMeters>527</AltitudeMeters>
            <DistanceMeters>NAN</DistanceMeters>
          </Trackpoint>
          <Trackpoint>
            <Time>2022-09-20T10:41:37.000Z</Time>
            <Position>
              <LatitudeDegrees>49.45703753270208835601806640625</LatitudeDegrees>
              <LongitudeDegrees>20.21257250569760799407958984375</LongitudeDegrees>
            </Position>
            <AltitudeMeters>527</AltitudeMeters>
            <DistanceMeters>NAN</DistanceMeters>
          </Trackpoint>
          <Trackpoint>
            <Time>2022-09-20T10:41:39.000Z</Time>
            <Position>
              <LatitudeDegrees>49.4569843076169490814208984375</LatitudeDegrees>
              <LongitudeDegrees>20.21262950263917446136474609375</LongitudeDegrees>
            </Position>
            <AltitudeMeters>527.20001220703125</AltitudeMeters>
            <DistanceMeters>NAN</DistanceMeters>
          </Trackpoint>
          <Trackpoint>
            <Time>2022-09-20T10:41:41.000Z</Time>
            <Position>
              <LatitudeDegrees>49.45690333843231201171875</LatitudeDegrees>
              <LongitudeDegrees>20.21269672550261020660400390625</LongitudeDegrees>
            </Position>
            <AltitudeMeters>527.20001220703125</AltitudeMeters>
            <DistanceMeters>NAN</DistanceMeters>
          </Trackpoint>
          <Trackpoint>
            <Time>2022-09-20T10:41:43.000Z</Time>
            <Position>
              <LatitudeDegrees>49.4568434916436672210693359375</LatitudeDegrees>
              <LongitudeDegrees>20.21275355480611324310302734375</LongitudeDegrees>
            </Position>
            <AltitudeMeters>527.20001220703125</AltitudeMeters>
            <DistanceMeters>NAN</DistanceMeters>
          </Trackpoint>
          <Trackpoint>
            <Time>2022-09-20T10:41:48.000Z</Time>
            <Position>
              <LatitudeDegrees>49.45673729293048381805419921875</LatitudeDegrees>
              <LongitudeDegrees>20.212849862873554229736328125</LongitudeDegrees>
            </Position>
            <AltitudeMeters>527</AltitudeMeters>
            <DistanceMeters>NAN</DistanceMeters>
          </Trackpoint>
          <Trackpoint>
            <Time>2022-09-20T10:41:55.000Z</Time>
            <Position>
              <LatitudeDegrees>49.4565318524837493896484375</LatitudeDegrees>
              <LongitudeDegrees>20.21305362693965435028076171875</LongitudeDegrees>
            </Position>
            <AltitudeMeters>527</AltitudeMeters>
            <DistanceMeters>NAN</DistanceMeters>
          </Trackpoint>
          <Trackpoint>
            <Time>2022-09-20T10:42:00.000Z</Time>
            <Position>
              <LatitudeDegrees>49.4563992507755756378173828125</LatitudeDegrees>
              <LongitudeDegrees>20.21316024474799633026123046875</LongitudeDegrees>
            </Position>
            <AltitudeMeters>526.79998779296875</AltitudeMeters>
            <DistanceMeters>NAN</DistanceMeters>
          </Trackpoint>
          <Trackpoint>
            <Time>2022-09-20T10:42:03.000Z</Time>
            <Position>
              <LatitudeDegrees>49.45631953887641429901123046875</LatitudeDegrees>
              <LongitudeDegrees>20.2132357656955718994140625</LongitudeDegrees>
            </Position>
            <AltitudeMeters>526.79998779296875</AltitudeMeters>
            <DistanceMeters>NAN</DistanceMeters>
          </Trackpoint>
          <Trackpoint>
            <Time>2022-09-20T10:42:05.000Z</Time>
            <Position>
              <LatitudeDegrees>49.45626773871481418609619140625</LatitudeDegrees>
              <LongitudeDegrees>20.2132852189242839813232421875</LongitudeDegrees>
            </Position>
            <AltitudeMeters>526.79998779296875</AltitudeMeters>
            <DistanceMeters>NAN</DistanceMeters>
          </Trackpoint>
          <Trackpoint>
            <Time>2022-09-20T10:42:08.000Z</Time>
            <Position>
              <LatitudeDegrees>49.4561912119388580322265625</LatitudeDegrees>
              <LongitudeDegrees>20.21335571072995662689208984375</LongitudeDegrees>
            </Position>
            <AltitudeMeters>526.79998779296875</AltitudeMeters>
            <DistanceMeters>NAN</DistanceMeters>
          </Trackpoint>
          <Trackpoint>
            <Time>2022-09-20T10:42:09.000Z</Time>
            <Position>
              <LatitudeDegrees>49.45616480894386768341064453125</LatitudeDegrees>
              <LongitudeDegrees>20.2133807726204395294189453125</LongitudeDegrees>
            </Position>
            <AltitudeMeters>526.79998779296875</AltitudeMeters>
            <DistanceMeters>NAN</DistanceMeters>
          </Trackpoint>
          <Trackpoint>
            <Time>2022-09-20T10:42:19.000Z</Time>
            <Position>
              <LatitudeDegrees>49.4559640623629093170166015625</LatitudeDegrees>
              <LongitudeDegrees>20.21357950754463672637939453125</LongitudeDegrees>
            </Position>
            <AltitudeMeters>527.20001220703125</AltitudeMeters>
            <DistanceMeters>NAN</DistanceMeters>
          </Trackpoint>
          <Trackpoint>
            <Time>2022-09-20T10:42:22.000Z</Time>
            <Position>
              <LatitudeDegrees>49.45591988973319530487060546875</LatitudeDegrees>
              <LongitudeDegrees>20.21362979896366596221923828125</LongitudeDegrees>
            </Position>
            <AltitudeMeters>527.4000244140625</AltitudeMeters>
            <DistanceMeters>NAN</DistanceMeters>
          </Trackpoint>
          <Trackpoint>
            <Time>2022-09-20T10:42:24.000Z</Time>
            <Position>
              <LatitudeDegrees>49.4558859430253505706787109375</LatitudeDegrees>
              <LongitudeDegrees>20.21366156637668609619140625</LongitudeDegrees>
            </Position>
            <AltitudeMeters>528</AltitudeMeters>
            <DistanceMeters>NAN</DistanceMeters>
          </Trackpoint>
          <Trackpoint>
            <Time>2022-09-20T10:42:29.000Z</Time>
            <Position>
              <LatitudeDegrees>49.45581411011517047882080078125</LatitudeDegrees>
              <LongitudeDegrees>20.213734321296215057373046875</LongitudeDegrees>
            </Position>
            <AltitudeMeters>528</AltitudeMeters>
            <DistanceMeters>NAN</DistanceMeters>
          </Trackpoint>
          <Trackpoint>
            <Time>2022-09-20T10:42:37.000Z</Time>
            <Position>
              <LatitudeDegrees>49.45570933632552623748779296875</LatitudeDegrees>
              <LongitudeDegrees>20.2138434536755084991455078125</LongitudeDegrees>
            </Position>
            <AltitudeMeters>527.5999755859375</AltitudeMeters>
            <DistanceMeters>NAN</DistanceMeters>
          </Trackpoint>
          <Trackpoint>
            <Time>2022-09-20T10:42:39.000Z</Time>
            <Position>
              <LatitudeDegrees>49.45567782036960124969482421875</LatitudeDegrees>
              <LongitudeDegrees>20.21387840621173381805419921875</LongitudeDegrees>
            </Position>
            <AltitudeMeters>527.5999755859375</AltitudeMeters>
            <DistanceMeters>NAN</DistanceMeters>
          </Trackpoint>
          <Trackpoint>
            <Time>2022-09-20T10:42:41.000Z</Time>
            <Position>
              <LatitudeDegrees>49.45565720088779926300048828125</LatitudeDegrees>
              <LongitudeDegrees>20.21394663490355014801025390625</LongitudeDegrees>
            </Position>
            <AltitudeMeters>527.5999755859375</AltitudeMeters>
            <DistanceMeters>NAN</DistanceMeters>
          </Trackpoint>
          <Trackpoint>
            <Time>2022-09-20T10:42:42.000Z</Time>
            <Position>
              <LatitudeDegrees>49.45566424168646335601806640625</LatitudeDegrees>
              <LongitudeDegrees>20.21397949196398258209228515625</LongitudeDegrees>
            </Position>
            <AltitudeMeters>527.5999755859375</AltitudeMeters>
            <DistanceMeters>NAN</DistanceMeters>
          </Trackpoint>
          <Trackpoint>
            <Time>2022-09-20T10:42:48.000Z</Time>
            <Position>
              <LatitudeDegrees>49.45574395358562469482421875</LatitudeDegrees>
              <LongitudeDegrees>20.21418903954327106475830078125</LongitudeDegrees>
            </Position>
            <AltitudeMeters>527.20001220703125</AltitudeMeters>
            <DistanceMeters>NAN</DistanceMeters>
          </Trackpoint>
          <Trackpoint>
            <Time>2022-09-20T10:42:49.000Z</Time>
            <Position>
              <LatitudeDegrees>49.45575535297393798828125</LatitudeDegrees>
              <LongitudeDegrees>20.21421468816697597503662109375</LongitudeDegrees>
            </Position>
            <AltitudeMeters>527.20001220703125</AltitudeMeters>
            <DistanceMeters>NAN</DistanceMeters>
          </Trackpoint>
          <Trackpoint>
            <Time>2022-09-20T10:42:52.000Z</Time>
            <Position>
              <LatitudeDegrees>49.45579625666141510009765625</LatitudeDegrees>
              <LongitudeDegrees>20.2142699249088764190673828125</LongitudeDegrees>
            </Position>
            <AltitudeMeters>527.4000244140625</AltitudeMeters>
            <DistanceMeters>NAN</DistanceMeters>
          </Trackpoint>
          <Trackpoint>
            <Time>2022-09-20T10:42:54.000Z</Time>
            <Position>
              <LatitudeDegrees>49.45582869462668895721435546875</LatitudeDegrees>
              <LongitudeDegrees>20.214292220771312713623046875</LongitudeDegrees>
            </Position>
            <AltitudeMeters>527.4000244140625</AltitudeMeters>
            <DistanceMeters>NAN</DistanceMeters>
          </Trackpoint>
          <Trackpoint>
            <Time>2022-09-20T10:42:58.000Z</Time>
            <Position>
              <LatitudeDegrees>49.45583104155957698822021484375</LatitudeDegrees>
              <LongitudeDegrees>20.21430085413157939910888671875</LongitudeDegrees>
            </Position>
            <AltitudeMeters>527.4000244140625</AltitudeMeters>
            <DistanceMeters>NAN</DistanceMeters>
          </Trackpoint>
          <Trackpoint>
            <Time>2022-09-20T10:43:00.000Z</Time>
            <Position>
              <LatitudeDegrees>49.45583104155957698822021484375</LatitudeDegrees>
              <LongitudeDegrees>20.21430085413157939910888671875</LongitudeDegrees>
            </Position>
            <AltitudeMeters>527.4000244140625</AltitudeMeters>
            <DistanceMeters>NAN</DistanceMeters>
          </Trackpoint>
          <Trackpoint>
            <Time>2022-09-20T10:43:09.000Z</Time>
            <Position>
              <LatitudeDegrees>49.45583104155957698822021484375</LatitudeDegrees>
              <LongitudeDegrees>20.21430085413157939910888671875</LongitudeDegrees>
            </Position>
            <AltitudeMeters>527.4000244140625</AltitudeMeters>
            <DistanceMeters>NAN</DistanceMeters>
          </Trackpoint>
          <Trackpoint>
            <Time>2022-09-20T10:43:13.000Z</Time>
            <Position>
              <LatitudeDegrees>49.45583104155957698822021484375</LatitudeDegrees>
              <LongitudeDegrees>20.21430085413157939910888671875</LongitudeDegrees>
            </Position>
            <AltitudeMeters>527.5999755859375</AltitudeMeters>
            <DistanceMeters>NAN</DistanceMeters>
          </Trackpoint>
          <Trackpoint>
            <Time>2022-09-20T10:43:21.000Z</Time>
            <Position>
              <LatitudeDegrees>49.45583104155957698822021484375</LatitudeDegrees>
              <LongitudeDegrees>20.21430085413157939910888671875</LongitudeDegrees>
            </Position>
            <AltitudeMeters>527.5999755859375</AltitudeMeters>
            <DistanceMeters>NAN</DistanceMeters>
          </Trackpoint>
          <Trackpoint>
            <Time>2022-09-20T10:43:22.000Z</Time>
            <Position>
              <LatitudeDegrees>49.45583104155957698822021484375</LatitudeDegrees>
              <LongitudeDegrees>20.21430085413157939910888671875</LongitudeDegrees>
            </Position>
            <AltitudeMeters>527.5999755859375</AltitudeMeters>
            <DistanceMeters>NAN</DistanceMeters>
          </Trackpoint>
          <Trackpoint>
            <Time>2022-09-20T10:43:24.000Z</Time>
            <Position>
              <LatitudeDegrees>49.45583104155957698822021484375</LatitudeDegrees>
              <LongitudeDegrees>20.21430085413157939910888671875</LongitudeDegrees>
            </Position>
            <AltitudeMeters>527.5999755859375</AltitudeMeters>
            <DistanceMeters>NAN</DistanceMeters>
          </Trackpoint>
          <Trackpoint>
            <Time>2022-09-20T10:43:25.000Z</Time>
            <Position>
              <LatitudeDegrees>49.45583104155957698822021484375</LatitudeDegrees>
              <LongitudeDegrees>20.21430085413157939910888671875</LongitudeDegrees>
            </Position>
            <AltitudeMeters>527.5999755859375</AltitudeMeters>
            <DistanceMeters>NAN</DistanceMeters>
          </Trackpoint>
          <Trackpoint>
            <Time>2022-09-20T10:43:32.000Z</Time>
            <Position>
              <LatitudeDegrees>49.45583104155957698822021484375</LatitudeDegrees>
              <LongitudeDegrees>20.21430085413157939910888671875</LongitudeDegrees>
            </Position>
            <AltitudeMeters>527.79998779296875</AltitudeMeters>
            <DistanceMeters>NAN</DistanceMeters>
          </Trackpoint>
          <Trackpoint>
            <Time>2022-09-20T10:43:33.000Z</Time>
            <Position>
              <LatitudeDegrees>49.45583104155957698822021484375</LatitudeDegrees>
              <LongitudeDegrees>20.21430085413157939910888671875</LongitudeDegrees>
            </Position>
            <AltitudeMeters>527.79998779296875</AltitudeMeters>
            <DistanceMeters>NAN</DistanceMeters>
          </Trackpoint>
          <Trackpoint>
            <Time>2022-09-20T10:43:38.000Z</Time>
            <Position>
              <LatitudeDegrees>49.45583104155957698822021484375</LatitudeDegrees>
              <LongitudeDegrees>20.21430085413157939910888671875</LongitudeDegrees>
            </Position>
            <AltitudeMeters>527.79998779296875</AltitudeMeters>
            <DistanceMeters>NAN</DistanceMeters>
          </Trackpoint>
          <Trackpoint>
            <Time>2022-09-20T10:43:47.000Z</Time>
            <Position>
              <LatitudeDegrees>49.455831460654735565185546875</LatitudeDegrees>
              <LongitudeDegrees>20.2143014408648014068603515625</LongitudeDegrees>
            </Position>
            <AltitudeMeters>527.79998779296875</AltitudeMeters>
            <DistanceMeters>NAN</DistanceMeters>
          </Trackpoint>
          <Trackpoint>
            <Time>2022-09-20T10:43:58.000Z</Time>
            <Position>
              <LatitudeDegrees>49.455831460654735565185546875</LatitudeDegrees>
              <LongitudeDegrees>20.2143014408648014068603515625</LongitudeDegrees>
            </Position>
            <AltitudeMeters>528</AltitudeMeters>
            <DistanceMeters>NAN</DistanceMeters>
          </Trackpoint>
          <Trackpoint>
            <Time>2022-09-20T10:44:06.000Z</Time>
            <Position>
              <LatitudeDegrees>49.4558396749198436737060546875</LatitudeDegrees>
              <LongitudeDegrees>20.2143047936260700225830078125</LongitudeDegrees>
            </Position>
            <AltitudeMeters>527.79998779296875</AltitudeMeters>
            <DistanceMeters>NAN</DistanceMeters>
          </Trackpoint>
          <Trackpoint>
            <Time>2022-09-20T10:44:07.000Z</Time>
            <Position>
              <LatitudeDegrees>49.4558430276811122894287109375</LatitudeDegrees>
              <LongitudeDegrees>20.2143262512981891632080078125</LongitudeDegrees>
            </Position>
            <AltitudeMeters>527.5999755859375</AltitudeMeters>
            <DistanceMeters>NAN</DistanceMeters>
          </Trackpoint>
          <Trackpoint>
            <Time>2022-09-20T10:44:10.000Z</Time>
            <Position>
              <LatitudeDegrees>49.45587194524705410003662109375</LatitudeDegrees>
              <LongitudeDegrees>20.214418955147266387939453125</LongitudeDegrees>
            </Position>
            <AltitudeMeters>527.5999755859375</AltitudeMeters>
            <DistanceMeters>NAN</DistanceMeters>
          </Trackpoint>
          <Trackpoint>
            <Time>2022-09-20T10:44:16.000Z</Time>
            <Position>
              <LatitudeDegrees>49.45596079342067241668701171875</LatitudeDegrees>
              <LongitudeDegrees>20.214677788317203521728515625</LongitudeDegrees>
            </Position>
            <AltitudeMeters>527.4000244140625</AltitudeMeters>
            <DistanceMeters>NAN</DistanceMeters>
          </Trackpoint>
          <Trackpoint>
            <Time>2022-09-20T10:44:19.000Z</Time>
            <Position>
              <LatitudeDegrees>49.4559256732463836669921875</LatitudeDegrees>
              <LongitudeDegrees>20.2148526348173618316650390625</LongitudeDegrees>
            </Position>
            <AltitudeMeters>527.20001220703125</AltitudeMeters>
            <DistanceMeters>NAN</DistanceMeters>
          </Trackpoint>
          <Trackpoint>
            <Time>2022-09-20T10:44:25.000Z</Time>
            <Position>
              <LatitudeDegrees>49.45582467131316661834716796875</LatitudeDegrees>
              <LongitudeDegrees>20.215123705565929412841796875</LongitudeDegrees>
            </Position>
            <AltitudeMeters>527.20001220703125</AltitudeMeters>
            <DistanceMeters>NAN</DistanceMeters>
          </Trackpoint>
          <Trackpoint>
            <Time>2022-09-20T10:44:27.000Z</Time>
            <Position>
              <LatitudeDegrees>49.455826766788959503173828125</LatitudeDegrees>
              <LongitudeDegrees>20.215219594538211822509765625</LongitudeDegrees>
            </Position>
            <AltitudeMeters>527.20001220703125</AltitudeMeters>
            <DistanceMeters>NAN</DistanceMeters>
          </Trackpoint>
          <Trackpoint>
            <Time>2022-09-20T10:44:29.000Z</Time>
            <Position>
              <LatitudeDegrees>49.4558423571288585662841796875</LatitudeDegrees>
              <LongitudeDegrees>20.21526074968278408050537109375</LongitudeDegrees>
            </Position>
            <AltitudeMeters>527</AltitudeMeters>
            <DistanceMeters>NAN</DistanceMeters>
          </Trackpoint>
          <Trackpoint>
            <Time>2022-09-20T10:44:33.000Z</Time>
            <Position>
              <LatitudeDegrees>49.4558423571288585662841796875</LatitudeDegrees>
              <LongitudeDegrees>20.21526074968278408050537109375</LongitudeDegrees>
            </Position>
            <AltitudeMeters>527</AltitudeMeters>
            <DistanceMeters>NAN</DistanceMeters>
          </Trackpoint>
          <Trackpoint>
            <Time>2022-09-20T10:44:41.000Z</Time>
            <Position>
              <LatitudeDegrees>49.4558423571288585662841796875</LatitudeDegrees>
              <LongitudeDegrees>20.21526074968278408050537109375</LongitudeDegrees>
            </Position>
            <AltitudeMeters>527</AltitudeMeters>
            <DistanceMeters>NAN</DistanceMeters>
          </Trackpoint>
          <Trackpoint>
            <Time>2022-09-20T10:44:49.000Z</Time>
            <Position>
              <LatitudeDegrees>49.4558423571288585662841796875</LatitudeDegrees>
              <LongitudeDegrees>20.21526074968278408050537109375</LongitudeDegrees>
            </Position>
            <AltitudeMeters>527</AltitudeMeters>
            <DistanceMeters>NAN</DistanceMeters>
          </Trackpoint>
          <Trackpoint>
            <Time>2022-09-20T10:44:51.000Z</Time>
            <Position>
              <LatitudeDegrees>49.4558423571288585662841796875</LatitudeDegrees>
              <LongitudeDegrees>20.21526074968278408050537109375</LongitudeDegrees>
            </Position>
            <AltitudeMeters>526.79998779296875</AltitudeMeters>
            <DistanceMeters>NAN</DistanceMeters>
          </Trackpoint>
          <Trackpoint>
            <Time>2022-09-20T10:44:56.000Z</Time>
            <Position>
              <LatitudeDegrees>49.45586406625807285308837890625</LatitudeDegrees>
              <LongitudeDegrees>20.2153431437909603118896484375</LongitudeDegrees>
            </Position>
            <AltitudeMeters>526.79998779296875</AltitudeMeters>
            <DistanceMeters>NAN</DistanceMeters>
          </Trackpoint>
          <Trackpoint>
            <Time>2022-09-20T10:45:01.000Z</Time>
            <Position>
              <LatitudeDegrees>49.45584093220531940460205078125</LatitudeDegrees>
              <LongitudeDegrees>20.21556803025305271148681640625</LongitudeDegrees>
            </Position>
            <AltitudeMeters>527</AltitudeMeters>
            <DistanceMeters>NAN</DistanceMeters>
          </Trackpoint>
          <Trackpoint>
            <Time>2022-09-20T10:45:09.000Z</Time>
            <Position>
              <LatitudeDegrees>49.45575979538261890411376953125</LatitudeDegrees>
              <LongitudeDegrees>20.21598410792648792266845703125</LongitudeDegrees>
            </Position>
            <AltitudeMeters>526.5999755859375</AltitudeMeters>
            <DistanceMeters>NAN</DistanceMeters>
          </Trackpoint>
          <Trackpoint>
            <Time>2022-09-20T10:45:13.000Z</Time>
            <Position>
              <LatitudeDegrees>49.4556827656924724578857421875</LatitudeDegrees>
              <LongitudeDegrees>20.21620052866637706756591796875</LongitudeDegrees>
            </Position>
            <AltitudeMeters>526.20001220703125</AltitudeMeters>
            <DistanceMeters>NAN</DistanceMeters>
          </Trackpoint>
          <Trackpoint>
            <Time>2022-09-20T10:45:16.000Z</Time>
            <Position>
              <LatitudeDegrees>49.4556304626166820526123046875</LatitudeDegrees>
              <LongitudeDegrees>20.21633564494550228118896484375</LongitudeDegrees>
            </Position>
            <AltitudeMeters>526.20001220703125</AltitudeMeters>
            <DistanceMeters>NAN</DistanceMeters>
          </Trackpoint>
          <Trackpoint>
            <Time>2022-09-20T10:45:21.000Z</Time>
            <Position>
              <LatitudeDegrees>49.45559643208980560302734375</LatitudeDegrees>
              <LongitudeDegrees>20.21650713868439197540283203125</LongitudeDegrees>
            </Position>
            <AltitudeMeters>526.20001220703125</AltitudeMeters>
            <DistanceMeters>NAN</DistanceMeters>
          </Trackpoint>
          <Trackpoint>
            <Time>2022-09-20T10:45:27.000Z</Time>
            <Position>
              <LatitudeDegrees>49.45554077625274658203125</LatitudeDegrees>
              <LongitudeDegrees>20.21681793965399265289306640625</LongitudeDegrees>
            </Position>
            <AltitudeMeters>526</AltitudeMeters>
            <DistanceMeters>NAN</DistanceMeters>
          </Trackpoint>
          <Trackpoint>
            <Time>2022-09-20T10:45:30.000Z</Time>
            <Position>
              <LatitudeDegrees>49.4555114395916461944580078125</LatitudeDegrees>
              <LongitudeDegrees>20.217000581324100494384765625</LongitudeDegrees>
            </Position>
            <AltitudeMeters>525.79998779296875</AltitudeMeters>
            <DistanceMeters>NAN</DistanceMeters>
          </Trackpoint>
          <Trackpoint>
            <Time>2022-09-20T10:45:34.000Z</Time>
            <Position>
              <LatitudeDegrees>49.4554785825312137603759765625</LatitudeDegrees>
              <LongitudeDegrees>20.21726603619754314422607421875</LongitudeDegrees>
            </Position>
            <AltitudeMeters>525.5999755859375</AltitudeMeters>
            <DistanceMeters>NAN</DistanceMeters>
          </Trackpoint>
          <Trackpoint>
            <Time>2022-09-20T10:45:42.000Z</Time>
            <Position>
              <LatitudeDegrees>49.45547036826610565185546875</LatitudeDegrees>
              <LongitudeDegrees>20.21781639195978641510009765625</LongitudeDegrees>
            </Position>
            <AltitudeMeters>524.79998779296875</AltitudeMeters>
            <DistanceMeters>NAN</DistanceMeters>
          </Trackpoint>
          <Trackpoint>
            <Time>2022-09-20T10:45:43.000Z</Time>
            <Position>
              <LatitudeDegrees>49.455471374094486236572265625</LatitudeDegrees>
              <LongitudeDegrees>20.217890404164791107177734375</LongitudeDegrees>
            </Position>
            <AltitudeMeters>524.79998779296875</AltitudeMeters>
            <DistanceMeters>NAN</DistanceMeters>
          </Trackpoint>
          <Trackpoint>
            <Time>2022-09-20T10:45:44.000Z</Time>
            <Position>
              <LatitudeDegrees>49.4554685242474079132080078125</LatitudeDegrees>
              <LongitudeDegrees>20.21796005778014659881591796875</LongitudeDegrees>
            </Position>
            <AltitudeMeters>524.79998779296875</AltitudeMeters>
            <DistanceMeters>NAN</DistanceMeters>
          </Trackpoint>
          <Trackpoint>
            <Time>2022-09-20T10:45:45.000Z</Time>
            <Position>
              <LatitudeDegrees>49.45545938797295093536376953125</LatitudeDegrees>
              <LongitudeDegrees>20.2180216647684574127197265625</LongitudeDegrees>
            </Position>
            <AltitudeMeters>524.79998779296875</AltitudeMeters>
            <DistanceMeters>NAN</DistanceMeters>
          </Trackpoint>
          <Trackpoint>
            <Time>2022-09-20T10:45:47.000Z</Time>
            <Position>
              <LatitudeDegrees>49.45539501495659351348876953125</LatitudeDegrees>
              <LongitudeDegrees>20.21813339553773403167724609375</LongitudeDegrees>
            </Position>
            <AltitudeMeters>524.5999755859375</AltitudeMeters>
            <DistanceMeters>NAN</DistanceMeters>
          </Trackpoint>
          <Trackpoint>
            <Time>2022-09-20T10:45:53.000Z</Time>
            <Position>
              <LatitudeDegrees>49.455137439072132110595703125</LatitudeDegrees>
              <LongitudeDegrees>20.21843128837645053863525390625</LongitudeDegrees>
            </Position>
            <AltitudeMeters>524.20001220703125</AltitudeMeters>
            <DistanceMeters>NAN</DistanceMeters>
          </Trackpoint>
          <Trackpoint>
            <Time>2022-09-20T10:45:55.000Z</Time>
            <Position>
              <LatitudeDegrees>49.455076418817043304443359375</LatitudeDegrees>
              <LongitudeDegrees>20.21849717013537883758544921875</LongitudeDegrees>
            </Position>
            <AltitudeMeters>524.20001220703125</AltitudeMeters>
            <DistanceMeters>NAN</DistanceMeters>
          </Trackpoint>
          <Trackpoint>
            <Time>2022-09-20T10:45:56.000Z</Time>
            <Position>
              <LatitudeDegrees>49.45503358729183673858642578125</LatitudeDegrees>
              <LongitudeDegrees>20.2185410074889659881591796875</LongitudeDegrees>
            </Position>
            <AltitudeMeters>524.20001220703125</AltitudeMeters>
            <DistanceMeters>NAN</DistanceMeters>
          </Trackpoint>
          <Trackpoint>
            <Time>2022-09-20T10:45:58.000Z</Time>
            <Position>
              <LatitudeDegrees>49.45501439273357391357421875</LatitudeDegrees>
              <LongitudeDegrees>20.218644775450229644775390625</LongitudeDegrees>
            </Position>
            <AltitudeMeters>524.20001220703125</AltitudeMeters>
            <DistanceMeters>NAN</DistanceMeters>
          </Trackpoint>
          <Trackpoint>
            <Time>2022-09-20T10:46:00.000Z</Time>
            <Position>
              <LatitudeDegrees>49.45502109825611114501953125</LatitudeDegrees>
              <LongitudeDegrees>20.21874703466892242431640625</LongitudeDegrees>
            </Position>
            <AltitudeMeters>524.20001220703125</AltitudeMeters>
            <DistanceMeters>NAN</DistanceMeters>
          </Trackpoint>
          <Trackpoint>
            <Time>2022-09-20T10:46:04.000Z</Time>
            <Position>
              <LatitudeDegrees>49.4550464116036891937255859375</LatitudeDegrees>
              <LongitudeDegrees>20.2189436741173267364501953125</LongitudeDegrees>
            </Position>
            <AltitudeMeters>524.20001220703125</AltitudeMeters>
            <DistanceMeters>NAN</DistanceMeters>
          </Trackpoint>
          <Trackpoint>
            <Time>2022-09-20T10:46:12.000Z</Time>
            <Position>
              <LatitudeDegrees>49.45510868914425373077392578125</LatitudeDegrees>
              <LongitudeDegrees>20.21938548423349857330322265625</LongitudeDegrees>
            </Position>
            <AltitudeMeters>524</AltitudeMeters>
            <DistanceMeters>NAN</DistanceMeters>
          </Trackpoint>
          <Trackpoint>
            <Time>2022-09-20T10:46:20.000Z</Time>
            <Position>
              <LatitudeDegrees>49.45517934858798980712890625</LatitudeDegrees>
              <LongitudeDegrees>20.21986685693264007568359375</LongitudeDegrees>
            </Position>
            <AltitudeMeters>524</AltitudeMeters>
            <DistanceMeters>NAN</DistanceMeters>
          </Trackpoint>
          <Trackpoint>
            <Time>2022-09-20T10:46:26.000Z</Time>
            <Position>
              <LatitudeDegrees>49.4552190788090229034423828125</LatitudeDegrees>
              <LongitudeDegrees>20.22021193988621234893798828125</LongitudeDegrees>
            </Position>
            <AltitudeMeters>524.20001220703125</AltitudeMeters>
            <DistanceMeters>NAN</DistanceMeters>
          </Trackpoint>
          <Trackpoint>
            <Time>2022-09-20T10:46:27.000Z</Time>
            <Position>
              <LatitudeDegrees>49.45522888563573360443115234375</LatitudeDegrees>
              <LongitudeDegrees>20.22026457823812961578369140625</LongitudeDegrees>
            </Position>
            <AltitudeMeters>524.20001220703125</AltitudeMeters>
            <DistanceMeters>NAN</DistanceMeters>
          </Trackpoint>
          <Trackpoint>
            <Time>2022-09-20T10:46:30.000Z</Time>
            <Position>
              <LatitudeDegrees>49.45525000803172588348388671875</LatitudeDegrees>
              <LongitudeDegrees>20.22041930817067623138427734375</LongitudeDegrees>
            </Position>
            <AltitudeMeters>524.20001220703125</AltitudeMeters>
            <DistanceMeters>NAN</DistanceMeters>
          </Trackpoint>
          <Trackpoint>
            <Time>2022-09-20T10:46:34.000Z</Time>
            <Position>
              <LatitudeDegrees>49.4552760757505893707275390625</LatitudeDegrees>
              <LongitudeDegrees>20.22062114439904689788818359375</LongitudeDegrees>
            </Position>
            <AltitudeMeters>524.20001220703125</AltitudeMeters>
            <DistanceMeters>NAN</DistanceMeters>
          </Trackpoint>
          <Trackpoint>
            <Time>2022-09-20T10:46:41.000Z</Time>
            <Position>
              <LatitudeDegrees>49.45533013902604579925537109375</LatitudeDegrees>
              <LongitudeDegrees>20.22103319875895977020263671875</LongitudeDegrees>
            </Position>
            <AltitudeMeters>524.20001220703125</AltitudeMeters>
            <DistanceMeters>NAN</DistanceMeters>
          </Trackpoint>
          <Trackpoint>
            <Time>2022-09-20T10:46:48.000Z</Time>
            <Position>
              <LatitudeDegrees>49.45538948290050029754638671875</LatitudeDegrees>
              <LongitudeDegrees>20.22144542075693607330322265625</LongitudeDegrees>
            </Position>
            <AltitudeMeters>524.20001220703125</AltitudeMeters>
            <DistanceMeters>NAN</DistanceMeters>
          </Trackpoint>
          <Trackpoint>
            <Time>2022-09-20T10:46:50.000Z</Time>
            <Position>
              <LatitudeDegrees>49.4554024748504161834716796875</LatitudeDegrees>
              <LongitudeDegrees>20.22155740298330783843994140625</LongitudeDegrees>
            </Position>
            <AltitudeMeters>524.20001220703125</AltitudeMeters>
            <DistanceMeters>NAN</DistanceMeters>
          </Trackpoint>
          <Trackpoint>
            <Time>2022-09-20T10:46:52.000Z</Time>
            <Position>
              <LatitudeDegrees>49.45541563443839550018310546875</LatitudeDegrees>
              <LongitudeDegrees>20.22165630944073200225830078125</LongitudeDegrees>
            </Position>
            <AltitudeMeters>524.20001220703125</AltitudeMeters>
            <DistanceMeters>NAN</DistanceMeters>
          </Trackpoint>
          <Trackpoint>
            <Time>2022-09-20T10:46:57.000Z</Time>
            <Position>
              <LatitudeDegrees>49.4554393552243709564208984375</LatitudeDegrees>
              <LongitudeDegrees>20.2218723110854625701904296875</LongitudeDegrees>
            </Position>
            <AltitudeMeters>524.4000244140625</AltitudeMeters>
            <DistanceMeters>NAN</DistanceMeters>
          </Trackpoint>
          <Trackpoint>
            <Time>2022-09-20T10:47:03.000Z</Time>
            <Position>
              <LatitudeDegrees>49.45544882677495479583740234375</LatitudeDegrees>
              <LongitudeDegrees>20.22216794081032276153564453125</LongitudeDegrees>
            </Position>
            <AltitudeMeters>524.4000244140625</AltitudeMeters>
            <DistanceMeters>NAN</DistanceMeters>
          </Trackpoint>
          <Trackpoint>
            <Time>2022-09-20T10:47:04.000Z</Time>
            <Position>
              <LatitudeDegrees>49.4554537720978260040283203125</LatitudeDegrees>
              <LongitudeDegrees>20.22221454419195652008056640625</LongitudeDegrees>
            </Position>
            <AltitudeMeters>524.20001220703125</AltitudeMeters>
            <DistanceMeters>NAN</DistanceMeters>
          </Trackpoint>
          <Trackpoint>
            <Time>2022-09-20T10:47:08.000Z</Time>
            <Position>
              <LatitudeDegrees>49.455484114587306976318359375</LatitudeDegrees>
              <LongitudeDegrees>20.22240959107875823974609375</LongitudeDegrees>
            </Position>
            <AltitudeMeters>524</AltitudeMeters>
            <DistanceMeters>NAN</DistanceMeters>
          </Trackpoint>
          <Trackpoint>
            <Time>2022-09-20T10:47:11.000Z</Time>
            <Position>
              <LatitudeDegrees>49.45550314150750637054443359375</LatitudeDegrees>
              <LongitudeDegrees>20.22257932461798191070556640625</LongitudeDegrees>
            </Position>
            <AltitudeMeters>523.79998779296875</AltitudeMeters>
            <DistanceMeters>NAN</DistanceMeters>
          </Trackpoint>
          <Trackpoint>
            <Time>2022-09-20T10:47:13.000Z</Time>
            <Position>
              <LatitudeDegrees>49.45551420561969280242919921875</LatitudeDegrees>
              <LongitudeDegrees>20.22270270623266696929931640625</LongitudeDegrees>
            </Position>
            <AltitudeMeters>523.79998779296875</AltitudeMeters>
            <DistanceMeters>NAN</DistanceMeters>
          </Trackpoint>
          <Trackpoint>
            <Time>2022-09-20T10:47:16.000Z</Time>
            <Position>
              <LatitudeDegrees>49.45553247816860675811767578125</LatitudeDegrees>
              <LongitudeDegrees>20.22288979031145572662353515625</LongitudeDegrees>
            </Position>
            <AltitudeMeters>523.79998779296875</AltitudeMeters>
            <DistanceMeters>NAN</DistanceMeters>
          </Trackpoint>
          <Trackpoint>
            <Time>2022-09-20T10:47:22.000Z</Time>
            <Position>
              <LatitudeDegrees>49.45557589642703533172607421875</LatitudeDegrees>
              <LongitudeDegrees>20.22327485494315624237060546875</LongitudeDegrees>
            </Position>
            <AltitudeMeters>523.5999755859375</AltitudeMeters>
            <DistanceMeters>NAN</DistanceMeters>
          </Trackpoint>
          <Trackpoint>
            <Time>2022-09-20T10:47:23.000Z</Time>
            <Position>
              <LatitudeDegrees>49.4555768184363842010498046875</LatitudeDegrees>
              <LongitudeDegrees>20.2233409881591796875</LongitudeDegrees>
            </Position>
            <AltitudeMeters>523.5999755859375</AltitudeMeters>
            <DistanceMeters>NAN</DistanceMeters>
          </Trackpoint>
          <Trackpoint>
            <Time>2022-09-20T10:47:27.000Z</Time>
            <Position>
              <LatitudeDegrees>49.45556349121034145355224609375</LatitudeDegrees>
              <LongitudeDegrees>20.22361717186868190765380859375</LongitudeDegrees>
            </Position>
            <AltitudeMeters>523.5999755859375</AltitudeMeters>
            <DistanceMeters>NAN</DistanceMeters>
          </Trackpoint>
          <Trackpoint>
            <Time>2022-09-20T10:47:29.000Z</Time>
            <Position>
              <LatitudeDegrees>49.455545134842395782470703125</LatitudeDegrees>
              <LongitudeDegrees>20.22374399006366729736328125</LongitudeDegrees>
            </Position>
            <AltitudeMeters>523.79998779296875</AltitudeMeters>
            <DistanceMeters>NAN</DistanceMeters>
          </Trackpoint>
          <Trackpoint>
            <Time>2022-09-20T10:47:30.000Z</Time>
            <Position>
              <LatitudeDegrees>49.45553163997828960418701171875</LatitudeDegrees>
              <LongitudeDegrees>20.22380593232810497283935546875</LongitudeDegrees>
            </Position>
            <AltitudeMeters>524</AltitudeMeters>
            <DistanceMeters>NAN</DistanceMeters>
          </Trackpoint>
          <Trackpoint>
            <Time>2022-09-20T10:47:39.000Z</Time>
            <Position>
              <LatitudeDegrees>49.45542066358029842376708984375</LatitudeDegrees>
              <LongitudeDegrees>20.22436953149735927581787109375</LongitudeDegrees>
            </Position>
            <AltitudeMeters>524.20001220703125</AltitudeMeters>
            <DistanceMeters>NAN</DistanceMeters>
          </Trackpoint>
          <Trackpoint>
            <Time>2022-09-20T10:47:41.000Z</Time>
            <Position>
              <LatitudeDegrees>49.455396272242069244384765625</LatitudeDegrees>
              <LongitudeDegrees>20.2244891412556171417236328125</LongitudeDegrees>
            </Position>
            <AltitudeMeters>524.20001220703125</AltitudeMeters>
            <DistanceMeters>NAN</DistanceMeters>
          </Trackpoint>
          <Trackpoint>
            <Time>2022-09-20T10:47:48.000Z</Time>
            <Position>
              <LatitudeDegrees>49.4552971981465816497802734375</LatitudeDegrees>
              <LongitudeDegrees>20.22496766410768032073974609375</LongitudeDegrees>
            </Position>
            <AltitudeMeters>524</AltitudeMeters>
            <DistanceMeters>NAN</DistanceMeters>
          </Trackpoint>
          <Trackpoint>
            <Time>2022-09-20T10:47:52.000Z</Time>
            <Position>
              <LatitudeDegrees>49.45524430833756923675537109375</LatitudeDegrees>
              <LongitudeDegrees>20.22525583393871784210205078125</LongitudeDegrees>
            </Position>
            <AltitudeMeters>523.79998779296875</AltitudeMeters>
            <DistanceMeters>NAN</DistanceMeters>
          </Trackpoint>
          <Trackpoint>
            <Time>2022-09-20T10:47:57.000Z</Time>
            <Position>
              <LatitudeDegrees>49.455173648893833160400390625</LatitudeDegrees>
              <LongitudeDegrees>20.22561323828995227813720703125</LongitudeDegrees>
            </Position>
            <AltitudeMeters>524</AltitudeMeters>
            <DistanceMeters>NAN</DistanceMeters>
          </Trackpoint>
          <Trackpoint>
            <Time>2022-09-20T10:47:59.000Z</Time>
            <Position>
              <LatitudeDegrees>49.455146491527557373046875</LatitudeDegrees>
              <LongitudeDegrees>20.22573687136173248291015625</LongitudeDegrees>
            </Position>
            <AltitudeMeters>524.20001220703125</AltitudeMeters>
            <DistanceMeters>NAN</DistanceMeters>
          </Trackpoint>
          <Trackpoint>
            <Time>2022-09-20T10:48:05.000Z</Time>
            <Position>
              <LatitudeDegrees>49.4550806097686290740966796875</LatitudeDegrees>
              <LongitudeDegrees>20.2260917611420154571533203125</LongitudeDegrees>
            </Position>
            <AltitudeMeters>524.5999755859375</AltitudeMeters>
            <DistanceMeters>NAN</DistanceMeters>
          </Trackpoint>
          <Trackpoint>
            <Time>2022-09-20T10:48:10.000Z</Time>
            <Position>
              <LatitudeDegrees>49.45501439273357391357421875</LatitudeDegrees>
              <LongitudeDegrees>20.2263868041336536407470703125</LongitudeDegrees>
            </Position>
            <AltitudeMeters>524.20001220703125</AltitudeMeters>
            <DistanceMeters>NAN</DistanceMeters>
          </Trackpoint>
          <Trackpoint>
            <Time>2022-09-20T10:48:13.000Z</Time>
            <Position>
              <LatitudeDegrees>49.4549803622066974639892578125</LatitudeDegrees>
              <LongitudeDegrees>20.226581096649169921875</LongitudeDegrees>
            </Position>
            <AltitudeMeters>524.5999755859375</AltitudeMeters>
            <DistanceMeters>NAN</DistanceMeters>
          </Trackpoint>
          <Trackpoint>
            <Time>2022-09-20T10:48:17.000Z</Time>
            <Position>
              <LatitudeDegrees>49.454931914806365966796875</LatitudeDegrees>
              <LongitudeDegrees>20.22685267031192779541015625</LongitudeDegrees>
            </Position>
            <AltitudeMeters>524.5999755859375</AltitudeMeters>
            <DistanceMeters>NAN</DistanceMeters>
          </Trackpoint>
          <Trackpoint>
            <Time>2022-09-20T10:48:19.000Z</Time>
            <Position>
              <LatitudeDegrees>49.4549109600484371185302734375</LatitudeDegrees>
              <LongitudeDegrees>20.226972363889217376708984375</LongitudeDegrees>
            </Position>
            <AltitudeMeters>524.4000244140625</AltitudeMeters>
            <DistanceMeters>NAN</DistanceMeters>
          </Trackpoint>
          <Trackpoint>
            <Time>2022-09-20T10:48:23.000Z</Time>
            <Position>
              <LatitudeDegrees>49.4548688828945159912109375</LatitudeDegrees>
              <LongitudeDegrees>20.2272025309503078460693359375</LongitudeDegrees>
            </Position>
            <AltitudeMeters>524.4000244140625</AltitudeMeters>
            <DistanceMeters>NAN</DistanceMeters>
          </Trackpoint>
          <Trackpoint>
            <Time>2022-09-20T10:48:34.000Z</Time>
            <Position>
              <LatitudeDegrees>49.454733766615390777587890625</LatitudeDegrees>
              <LongitudeDegrees>20.22792513482272624969482421875</LongitudeDegrees>
            </Position>
            <AltitudeMeters>524.5999755859375</AltitudeMeters>
            <DistanceMeters>NAN</DistanceMeters>
          </Trackpoint>
          <Trackpoint>
            <Time>2022-09-20T10:48:41.000Z</Time>
            <Position>
              <LatitudeDegrees>49.4546487741172313690185546875</LatitudeDegrees>
              <LongitudeDegrees>20.22839359939098358154296875</LongitudeDegrees>
            </Position>
            <AltitudeMeters>524.79998779296875</AltitudeMeters>
            <DistanceMeters>NAN</DistanceMeters>
          </Trackpoint>
          <Trackpoint>
            <Time>2022-09-20T10:48:42.000Z</Time>
            <Position>
              <LatitudeDegrees>49.45463829673826694488525390625</LatitudeDegrees>
              <LongitudeDegrees>20.22845973260700702667236328125</LongitudeDegrees>
            </Position>
            <AltitudeMeters>524.79998779296875</AltitudeMeters>
            <DistanceMeters>NAN</DistanceMeters>
          </Trackpoint>
          <Trackpoint>
            <Time>2022-09-20T10:48:51.000Z</Time>
            <Position>
              <LatitudeDegrees>49.45454559288918972015380859375</LatitudeDegrees>
              <LongitudeDegrees>20.228992402553558349609375</LongitudeDegrees>
            </Position>
            <AltitudeMeters>524.79998779296875</AltitudeMeters>
            <DistanceMeters>NAN</DistanceMeters>
          </Trackpoint>
          <Trackpoint>
            <Time>2022-09-20T10:48:52.000Z</Time>
            <Position>
              <LatitudeDegrees>49.4545156694948673248291015625</LatitudeDegrees>
              <LongitudeDegrees>20.22913665510714054107666015625</LongitudeDegrees>
            </Position>
            <AltitudeMeters>524.5999755859375</AltitudeMeters>
            <DistanceMeters>NAN</DistanceMeters>
          </Trackpoint>
          <Trackpoint>
            <Time>2022-09-20T10:49:01.000Z</Time>
            <Position>
              <LatitudeDegrees>49.45439890958368778228759765625</LatitudeDegrees>
              <LongitudeDegrees>20.22979195229709148406982421875</LongitudeDegrees>
            </Position>
            <AltitudeMeters>524.4000244140625</AltitudeMeters>
            <DistanceMeters>NAN</DistanceMeters>
          </Trackpoint>
          <Trackpoint>
            <Time>2022-09-20T10:49:06.000Z</Time>
            <Position>
              <LatitudeDegrees>49.4543332792818546295166015625</LatitudeDegrees>
              <LongitudeDegrees>20.23014902137219905853271484375</LongitudeDegrees>
            </Position>
            <AltitudeMeters>524.5999755859375</AltitudeMeters>
            <DistanceMeters>NAN</DistanceMeters>
          </Trackpoint>
          <Trackpoint>
            <Time>2022-09-20T10:49:11.000Z</Time>
            <Position>
              <LatitudeDegrees>49.45426647551357746124267578125</LatitudeDegrees>
              <LongitudeDegrees>20.23046652786433696746826171875</LongitudeDegrees>
            </Position>
            <AltitudeMeters>524.79998779296875</AltitudeMeters>
            <DistanceMeters>NAN</DistanceMeters>
          </Trackpoint>
          <Trackpoint>
            <Time>2022-09-20T10:49:18.000Z</Time>
            <Position>
              <LatitudeDegrees>49.45418265648186206817626953125</LatitudeDegrees>
              <LongitudeDegrees>20.23088914342224597930908203125</LongitudeDegrees>
            </Position>
            <AltitudeMeters>524.79998779296875</AltitudeMeters>
            <DistanceMeters>NAN</DistanceMeters>
          </Trackpoint>
          <Trackpoint>
            <Time>2022-09-20T10:49:19.000Z</Time>
            <Position>
              <LatitudeDegrees>49.45417083799839019775390625</LatitudeDegrees>
              <LongitudeDegrees>20.23093708790838718414306640625</LongitudeDegrees>
            </Position>
            <AltitudeMeters>524.79998779296875</AltitudeMeters>
            <DistanceMeters>NAN</DistanceMeters>
          </Trackpoint>
          <Trackpoint>
            <Time>2022-09-20T10:49:25.000Z</Time>
            <Position>
              <LatitudeDegrees>49.45407872088253498077392578125</LatitudeDegrees>
              <LongitudeDegrees>20.23123648948967456817626953125</LongitudeDegrees>
            </Position>
            <AltitudeMeters>525</AltitudeMeters>
            <DistanceMeters>NAN</DistanceMeters>
          </Trackpoint>
          <Trackpoint>
            <Time>2022-09-20T10:49:32.000Z</Time>
            <Position>
              <LatitudeDegrees>49.4538836739957332611083984375</LatitudeDegrees>
              <LongitudeDegrees>20.23159858770668506622314453125</LongitudeDegrees>
            </Position>
            <AltitudeMeters>524.79998779296875</AltitudeMeters>
            <DistanceMeters>NAN</DistanceMeters>
          </Trackpoint>
          <Trackpoint>
            <Time>2022-09-20T10:49:40.000Z</Time>
            <Position>
              <LatitudeDegrees>49.45361318998038768768310546875</LatitudeDegrees>
              <LongitudeDegrees>20.2319235540926456451416015625</LongitudeDegrees>
            </Position>
            <AltitudeMeters>525.20001220703125</AltitudeMeters>
            <DistanceMeters>NAN</DistanceMeters>
          </Trackpoint>
          <Trackpoint>
            <Time>2022-09-20T10:49:49.000Z</Time>
            <Position>
              <LatitudeDegrees>49.45326064713299274444580078125</LatitudeDegrees>
              <LongitudeDegrees>20.2322833053767681121826171875</LongitudeDegrees>
            </Position>
            <AltitudeMeters>525</AltitudeMeters>
            <DistanceMeters>NAN</DistanceMeters>
          </Trackpoint>
          <Trackpoint>
            <Time>2022-09-20T10:49:55.000Z</Time>
            <Position>
              <LatitudeDegrees>49.4530183263123035430908203125</LatitudeDegrees>
              <LongitudeDegrees>20.232529900968074798583984375</LongitudeDegrees>
            </Position>
            <AltitudeMeters>525.20001220703125</AltitudeMeters>
            <DistanceMeters>NAN</DistanceMeters>
          </Trackpoint>
          <Trackpoint>
            <Time>2022-09-20T10:49:56.000Z</Time>
            <Position>
              <LatitudeDegrees>49.452982954680919647216796875</LatitudeDegrees>
              <LongitudeDegrees>20.23256820626556873321533203125</LongitudeDegrees>
            </Position>
            <AltitudeMeters>525.20001220703125</AltitudeMeters>
            <DistanceMeters>NAN</DistanceMeters>
          </Trackpoint>
          <Trackpoint>
            <Time>2022-09-20T10:49:59.000Z</Time>
            <Position>
              <LatitudeDegrees>49.4528835453093051910400390625</LatitudeDegrees>
              <LongitudeDegrees>20.232682116329669952392578125</LongitudeDegrees>
            </Position>
            <AltitudeMeters>525</AltitudeMeters>
            <DistanceMeters>NAN</DistanceMeters>
          </Trackpoint>
          <Trackpoint>
            <Time>2022-09-20T10:50:04.000Z</Time>
            <Position>
              <LatitudeDegrees>49.45271976292133331298828125</LatitudeDegrees>
              <LongitudeDegrees>20.23284682072699069976806640625</LongitudeDegrees>
            </Position>
            <AltitudeMeters>524.79998779296875</AltitudeMeters>
            <DistanceMeters>NAN</DistanceMeters>
          </Trackpoint>
          <Trackpoint>
            <Time>2022-09-20T10:50:12.000Z</Time>
            <Position>
              <LatitudeDegrees>49.45245849899947643280029296875</LatitudeDegrees>
              <LongitudeDegrees>20.23313197307288646697998046875</LongitudeDegrees>
            </Position>
            <AltitudeMeters>524.79998779296875</AltitudeMeters>
            <DistanceMeters>NAN</DistanceMeters>
          </Trackpoint>
          <Trackpoint>
            <Time>2022-09-20T10:50:14.000Z</Time>
            <Position>
              <LatitudeDegrees>49.45238892920315265655517578125</LatitudeDegrees>
              <LongitudeDegrees>20.2332163788378238677978515625</LongitudeDegrees>
            </Position>
            <AltitudeMeters>525</AltitudeMeters>
            <DistanceMeters>NAN</DistanceMeters>
          </Trackpoint>
          <Trackpoint>
            <Time>2022-09-20T10:50:18.000Z</Time>
            <Position>
              <LatitudeDegrees>49.45226370356976985931396484375</LatitudeDegrees>
              <LongitudeDegrees>20.2333977632224559783935546875</LongitudeDegrees>
            </Position>
            <AltitudeMeters>525</AltitudeMeters>
            <DistanceMeters>NAN</DistanceMeters>
          </Trackpoint>
          <Trackpoint>
            <Time>2022-09-20T10:50:20.000Z</Time>
            <Position>
              <LatitudeDegrees>49.45220704190433025360107421875</LatitudeDegrees>
              <LongitudeDegrees>20.23348619230091571807861328125</LongitudeDegrees>
            </Position>
            <AltitudeMeters>525</AltitudeMeters>
            <DistanceMeters>NAN</DistanceMeters>
          </Trackpoint>
          <Trackpoint>
            <Time>2022-09-20T10:50:24.000Z</Time>
            <Position>
              <LatitudeDegrees>49.452102184295654296875</LatitudeDegrees>
              <LongitudeDegrees>20.2336715161800384521484375</LongitudeDegrees>
            </Position>
            <AltitudeMeters>525</AltitudeMeters>
            <DistanceMeters>NAN</DistanceMeters>
          </Trackpoint>
          <Trackpoint>
            <Time>2022-09-20T10:50:26.000Z</Time>
            <Position>
              <LatitudeDegrees>49.45205331780016422271728515625</LatitudeDegrees>
              <LongitudeDegrees>20.23376514203846454620361328125</LongitudeDegrees>
            </Position>
            <AltitudeMeters>525</AltitudeMeters>
            <DistanceMeters>NAN</DistanceMeters>
          </Trackpoint>
          <Trackpoint>
            <Time>2022-09-20T10:50:37.000Z</Time>
            <Position>
              <LatitudeDegrees>49.4518026150763034820556640625</LatitudeDegrees>
              <LongitudeDegrees>20.23436578921973705291748046875</LongitudeDegrees>
            </Position>
            <AltitudeMeters>525</AltitudeMeters>
            <DistanceMeters>NAN</DistanceMeters>
          </Trackpoint>
          <Trackpoint>
            <Time>2022-09-20T10:50:44.000Z</Time>
            <Position>
              <LatitudeDegrees>49.45162617601454257965087890625</LatitudeDegrees>
              <LongitudeDegrees>20.234807766973972320556640625</LongitudeDegrees>
            </Position>
            <AltitudeMeters>524.79998779296875</AltitudeMeters>
            <DistanceMeters>NAN</DistanceMeters>
          </Trackpoint>
          <Trackpoint>
            <Time>2022-09-20T10:50:45.000Z</Time>
            <Position>
              <LatitudeDegrees>49.4516021199524402618408203125</LatitudeDegrees>
              <LongitudeDegrees>20.2348706312477588653564453125</LongitudeDegrees>
            </Position>
            <AltitudeMeters>524.79998779296875</AltitudeMeters>
            <DistanceMeters>NAN</DistanceMeters>
          </Trackpoint>
          <Trackpoint>
            <Time>2022-09-20T10:50:51.000Z</Time>
            <Position>
              <LatitudeDegrees>49.45146742276847362518310546875</LatitudeDegrees>
              <LongitudeDegrees>20.23519258014857769012451171875</LongitudeDegrees>
            </Position>
            <AltitudeMeters>525.4000244140625</AltitudeMeters>
            <DistanceMeters>NAN</DistanceMeters>
          </Trackpoint>
          <Trackpoint>
            <Time>2022-09-20T10:50:55.000Z</Time>
            <Position>
              <LatitudeDegrees>49.451365582644939422607421875</LatitudeDegrees>
              <LongitudeDegrees>20.2354064024984836578369140625</LongitudeDegrees>
            </Position>
            <AltitudeMeters>525.4000244140625</AltitudeMeters>
            <DistanceMeters>NAN</DistanceMeters>
          </Trackpoint>
          <Trackpoint>
            <Time>2022-09-20T10:50:59.000Z</Time>
            <Position>
              <LatitudeDegrees>49.4512571208178997039794921875</LatitudeDegrees>
              <LongitudeDegrees>20.2355877868831157684326171875</LongitudeDegrees>
            </Position>
            <AltitudeMeters>525.4000244140625</AltitudeMeters>
            <DistanceMeters>NAN</DistanceMeters>
          </Trackpoint>
          <Trackpoint>
            <Time>2022-09-20T10:51:09.000Z</Time>
            <Position>
              <LatitudeDegrees>49.4509677775204181671142578125</LatitudeDegrees>
              <LongitudeDegrees>20.2359867654740810394287109375</LongitudeDegrees>
            </Position>
            <AltitudeMeters>525.20001220703125</AltitudeMeters>
            <DistanceMeters>NAN</DistanceMeters>
          </Trackpoint>
          <Trackpoint>
            <Time>2022-09-20T10:51:15.000Z</Time>
            <Position>
              <LatitudeDegrees>49.45076175034046173095703125</LatitudeDegrees>
              <LongitudeDegrees>20.23620419204235076904296875</LongitudeDegrees>
            </Position>
            <AltitudeMeters>525.20001220703125</AltitudeMeters>
            <DistanceMeters>NAN</DistanceMeters>
          </Trackpoint>
          <Trackpoint>
            <Time>2022-09-20T10:51:17.000Z</Time>
            <Position>
              <LatitudeDegrees>49.45069511421024799346923828125</LatitudeDegrees>
              <LongitudeDegrees>20.23626110516488552093505859375</LongitudeDegrees>
            </Position>
            <AltitudeMeters>525.20001220703125</AltitudeMeters>
            <DistanceMeters>NAN</DistanceMeters>
          </Trackpoint>
          <Trackpoint>
            <Time>2022-09-20T10:51:22.000Z</Time>
            <Position>
              <LatitudeDegrees>49.4505178369581699371337890625</LatitudeDegrees>
              <LongitudeDegrees>20.236429162323474884033203125</LongitudeDegrees>
            </Position>
            <AltitudeMeters>525</AltitudeMeters>
            <DistanceMeters>NAN</DistanceMeters>
          </Trackpoint>
          <Trackpoint>
            <Time>2022-09-20T10:51:26.000Z</Time>
            <Position>
              <LatitudeDegrees>49.45036620832979679107666015625</LatitudeDegrees>
              <LongitudeDegrees>20.23656654171645641326904296875</LongitudeDegrees>
            </Position>
            <AltitudeMeters>525</AltitudeMeters>
            <DistanceMeters>NAN</DistanceMeters>
          </Trackpoint>
          <Trackpoint>
            <Time>2022-09-20T10:51:29.000Z</Time>
            <Position>
              <LatitudeDegrees>49.45026294328272342681884765625</LatitudeDegrees>
              <LongitudeDegrees>20.23665958084166049957275390625</LongitudeDegrees>
            </Position>
            <AltitudeMeters>525</AltitudeMeters>
            <DistanceMeters>NAN</DistanceMeters>
          </Trackpoint>
          <Trackpoint>
            <Time>2022-09-20T10:51:30.000Z</Time>
            <Position>
              <LatitudeDegrees>49.45023008622229099273681640625</LatitudeDegrees>
              <LongitudeDegrees>20.2366895042359828948974609375</LongitudeDegrees>
            </Position>
            <AltitudeMeters>525</AltitudeMeters>
            <DistanceMeters>NAN</DistanceMeters>
          </Trackpoint>
          <Trackpoint>
            <Time>2022-09-20T10:51:36.000Z</Time>
            <Position>
              <LatitudeDegrees>49.45002422668039798736572265625</LatitudeDegrees>
              <LongitudeDegrees>20.23688874207437038421630859375</LongitudeDegrees>
            </Position>
            <AltitudeMeters>524.79998779296875</AltitudeMeters>
            <DistanceMeters>NAN</DistanceMeters>
          </Trackpoint>
          <Trackpoint>
            <Time>2022-09-20T10:51:40.000Z</Time>
            <Position>
              <LatitudeDegrees>49.4498935528099536895751953125</LatitudeDegrees>
              <LongitudeDegrees>20.237006843090057373046875</LongitudeDegrees>
            </Position>
            <AltitudeMeters>524.79998779296875</AltitudeMeters>
            <DistanceMeters>NAN</DistanceMeters>
          </Trackpoint>
          <Trackpoint>
            <Time>2022-09-20T10:51:43.000Z</Time>
            <Position>
              <LatitudeDegrees>49.44979724474251270294189453125</LatitudeDegrees>
              <LongitudeDegrees>20.2371025644242763519287109375</LongitudeDegrees>
            </Position>
            <AltitudeMeters>524.79998779296875</AltitudeMeters>
            <DistanceMeters>NAN</DistanceMeters>
          </Trackpoint>
          <Trackpoint>
            <Time>2022-09-20T10:51:53.000Z</Time>
            <Position>
              <LatitudeDegrees>49.4494295306503772735595703125</LatitudeDegrees>
              <LongitudeDegrees>20.2374468930065631866455078125</LongitudeDegrees>
            </Position>
            <AltitudeMeters>524.79998779296875</AltitudeMeters>
            <DistanceMeters>NAN</DistanceMeters>
          </Trackpoint>
          <Trackpoint>
            <Time>2022-09-20T10:51:57.000Z</Time>
            <Position>
              <LatitudeDegrees>49.44925812073051929473876953125</LatitudeDegrees>
              <LongitudeDegrees>20.237603299319744110107421875</LongitudeDegrees>
            </Position>
            <AltitudeMeters>525</AltitudeMeters>
            <DistanceMeters>NAN</DistanceMeters>
          </Trackpoint>
          <Trackpoint>
            <Time>2022-09-20T10:52:00.000Z</Time>
            <Position>
              <LatitudeDegrees>49.449136666953563690185546875</LatitudeDegrees>
              <LongitudeDegrees>20.2377136051654815673828125</LongitudeDegrees>
            </Position>
            <AltitudeMeters>525</AltitudeMeters>
            <DistanceMeters>NAN</DistanceMeters>
          </Trackpoint>
          <Trackpoint>
            <Time>2022-09-20T10:52:04.000Z</Time>
            <Position>
              <LatitudeDegrees>49.44898503832519054412841796875</LatitudeDegrees>
              <LongitudeDegrees>20.23784930817782878875732421875</LongitudeDegrees>
            </Position>
            <AltitudeMeters>525.20001220703125</AltitudeMeters>
            <DistanceMeters>NAN</DistanceMeters>
          </Trackpoint>
          <Trackpoint>
            <Time>2022-09-20T10:52:10.000Z</Time>
            <Position>
              <LatitudeDegrees>49.4487459026277065277099609375</LatitudeDegrees>
              <LongitudeDegrees>20.2380651421844959259033203125</LongitudeDegrees>
            </Position>
            <AltitudeMeters>524.79998779296875</AltitudeMeters>
            <DistanceMeters>NAN</DistanceMeters>
          </Trackpoint>
          <Trackpoint>
            <Time>2022-09-20T10:52:13.000Z</Time>
            <Position>
              <LatitudeDegrees>49.448621682822704315185546875</LatitudeDegrees>
              <LongitudeDegrees>20.2381834946572780609130859375</LongitudeDegrees>
            </Position>
            <AltitudeMeters>524.79998779296875</AltitudeMeters>
            <DistanceMeters>NAN</DistanceMeters>
          </Trackpoint>
          <Trackpoint>
            <Time>2022-09-20T10:52:18.000Z</Time>
            <Position>
              <LatitudeDegrees>49.44842881523072719573974609375</LatitudeDegrees>
              <LongitudeDegrees>20.23836932145059108734130859375</LongitudeDegrees>
            </Position>
            <AltitudeMeters>525</AltitudeMeters>
            <DistanceMeters>NAN</DistanceMeters>
          </Trackpoint>
          <Trackpoint>
            <Time>2022-09-20T10:52:25.000Z</Time>
            <Position>
              <LatitudeDegrees>49.44817367009818553924560546875</LatitudeDegrees>
              <LongitudeDegrees>20.238601081073284149169921875</LongitudeDegrees>
            </Position>
            <AltitudeMeters>525</AltitudeMeters>
            <DistanceMeters>NAN</DistanceMeters>
          </Trackpoint>
          <Trackpoint>
            <Time>2022-09-20T10:52:28.000Z</Time>
            <Position>
              <LatitudeDegrees>49.4480668008327484130859375</LatitudeDegrees>
              <LongitudeDegrees>20.23870895616710186004638671875</LongitudeDegrees>
            </Position>
            <AltitudeMeters>525.20001220703125</AltitudeMeters>
            <DistanceMeters>NAN</DistanceMeters>
          </Trackpoint>
          <Trackpoint>
            <Time>2022-09-20T10:52:29.000Z</Time>
            <Position>
              <LatitudeDegrees>49.44802883081138134002685546875</LatitudeDegrees>
              <LongitudeDegrees>20.238739885389804840087890625</LongitudeDegrees>
            </Position>
            <AltitudeMeters>525.20001220703125</AltitudeMeters>
            <DistanceMeters>NAN</DistanceMeters>
          </Trackpoint>
          <Trackpoint>
            <Time>2022-09-20T10:52:31.000Z</Time>
            <Position>
              <LatitudeDegrees>49.447941742837429046630859375</LatitudeDegrees>
              <LongitudeDegrees>20.23880417458713054656982421875</LongitudeDegrees>
            </Position>
            <AltitudeMeters>525.20001220703125</AltitudeMeters>
            <DistanceMeters>NAN</DistanceMeters>
          </Trackpoint>
          <Trackpoint>
            <Time>2022-09-20T10:52:37.000Z</Time>
            <Position>
              <LatitudeDegrees>49.44764778949320316314697265625</LatitudeDegrees>
              <LongitudeDegrees>20.23892319761216640472412109375</LongitudeDegrees>
            </Position>
            <AltitudeMeters>525.20001220703125</AltitudeMeters>
            <DistanceMeters>NAN</DistanceMeters>
          </Trackpoint>
          <Trackpoint>
            <Time>2022-09-20T10:52:39.000Z</Time>
            <Position>
              <LatitudeDegrees>49.44754402153193950653076171875</LatitudeDegrees>
              <LongitudeDegrees>20.2389281429350376129150390625</LongitudeDegrees>
            </Position>
            <AltitudeMeters>525.20001220703125</AltitudeMeters>
            <DistanceMeters>NAN</DistanceMeters>
          </Trackpoint>
          <Trackpoint>
            <Time>2022-09-20T10:52:41.000Z</Time>
            <Position>
              <LatitudeDegrees>49.44744519889354705810546875</LatitudeDegrees>
              <LongitudeDegrees>20.23890458978712558746337890625</LongitudeDegrees>
            </Position>
            <AltitudeMeters>525.20001220703125</AltitudeMeters>
            <DistanceMeters>NAN</DistanceMeters>
          </Trackpoint>
          <Trackpoint>
            <Time>2022-09-20T10:52:43.000Z</Time>
            <Position>
              <LatitudeDegrees>49.44735526107251644134521484375</LatitudeDegrees>
              <LongitudeDegrees>20.23886226117610931396484375</LongitudeDegrees>
            </Position>
            <AltitudeMeters>525.20001220703125</AltitudeMeters>
            <DistanceMeters>NAN</DistanceMeters>
          </Trackpoint>
          <Trackpoint>
            <Time>2022-09-20T10:52:49.000Z</Time>
            <Position>
              <LatitudeDegrees>49.44711394608020782470703125</LatitudeDegrees>
              <LongitudeDegrees>20.2387501113116741180419921875</LongitudeDegrees>
            </Position>
            <AltitudeMeters>525.20001220703125</AltitudeMeters>
            <DistanceMeters>NAN</DistanceMeters>
          </Trackpoint>
          <Trackpoint>
            <Time>2022-09-20T10:52:52.000Z</Time>
            <Position>
              <LatitudeDegrees>49.44700405932962894439697265625</LatitudeDegrees>
              <LongitudeDegrees>20.23869520984590053558349609375</LongitudeDegrees>
            </Position>
            <AltitudeMeters>525.4000244140625</AltitudeMeters>
            <DistanceMeters>NAN</DistanceMeters>
          </Trackpoint>
          <Trackpoint>
            <Time>2022-09-20T10:52:56.000Z</Time>
            <Position>
              <LatitudeDegrees>49.44687397219240665435791015625</LatitudeDegrees>
              <LongitudeDegrees>20.23862597532570362091064453125</LongitudeDegrees>
            </Position>
            <AltitudeMeters>525.20001220703125</AltitudeMeters>
            <DistanceMeters>NAN</DistanceMeters>
          </Trackpoint>
          <Trackpoint>
            <Time>2022-09-20T10:53:03.000Z</Time>
            <Position>
              <LatitudeDegrees>49.44664531387388706207275390625</LatitudeDegrees>
              <LongitudeDegrees>20.23851851932704448699951171875</LongitudeDegrees>
            </Position>
            <AltitudeMeters>525.5999755859375</AltitudeMeters>
            <DistanceMeters>NAN</DistanceMeters>
          </Trackpoint>
          <Trackpoint>
            <Time>2022-09-20T10:53:08.000Z</Time>
            <Position>
              <LatitudeDegrees>49.44645688869059085845947265625</LatitudeDegrees>
              <LongitudeDegrees>20.238422043621540069580078125</LongitudeDegrees>
            </Position>
            <AltitudeMeters>525.20001220703125</AltitudeMeters>
            <DistanceMeters>NAN</DistanceMeters>
          </Trackpoint>
          <Trackpoint>
            <Time>2022-09-20T10:53:13.000Z</Time>
            <Position>
              <LatitudeDegrees>49.44627575576305389404296875</LatitudeDegrees>
              <LongitudeDegrees>20.23833964951336383819580078125</LongitudeDegrees>
            </Position>
            <AltitudeMeters>525.4000244140625</AltitudeMeters>
            <DistanceMeters>NAN</DistanceMeters>
          </Trackpoint>
          <Trackpoint>
            <Time>2022-09-20T10:53:20.000Z</Time>
            <Position>
              <LatitudeDegrees>49.4460596702992916107177734375</LatitudeDegrees>
              <LongitudeDegrees>20.23823755793273448944091796875</LongitudeDegrees>
            </Position>
            <AltitudeMeters>525.4000244140625</AltitudeMeters>
            <DistanceMeters>NAN</DistanceMeters>
          </Trackpoint>
          <Trackpoint>
            <Time>2022-09-20T10:53:29.000Z</Time>
            <Position>
              <LatitudeDegrees>49.44579421542584896087646484375</LatitudeDegrees>
              <LongitudeDegrees>20.2381083928048610687255859375</LongitudeDegrees>
            </Position>
            <AltitudeMeters>525</AltitudeMeters>
            <DistanceMeters>NAN</DistanceMeters>
          </Trackpoint>
          <Trackpoint>
            <Time>2022-09-20T10:53:34.000Z</Time>
            <Position>
              <LatitudeDegrees>49.44562238641083240509033203125</LatitudeDegrees>
              <LongitudeDegrees>20.23802809417247772216796875</LongitudeDegrees>
            </Position>
            <AltitudeMeters>524.79998779296875</AltitudeMeters>
            <DistanceMeters>NAN</DistanceMeters>
          </Trackpoint>
          <Trackpoint>
            <Time>2022-09-20T10:53:38.000Z</Time>
            <Position>
              <LatitudeDegrees>49.44549464620649814605712890625</LatitudeDegrees>
              <LongitudeDegrees>20.237972103059291839599609375</LongitudeDegrees>
            </Position>
            <AltitudeMeters>524.5999755859375</AltitudeMeters>
            <DistanceMeters>NAN</DistanceMeters>
          </Trackpoint>
          <Trackpoint>
            <Time>2022-09-20T10:53:40.000Z</Time>
            <Position>
              <LatitudeDegrees>49.44543597288429737091064453125</LatitudeDegrees>
              <LongitudeDegrees>20.23793958127498626708984375</LongitudeDegrees>
            </Position>
            <AltitudeMeters>524.5999755859375</AltitudeMeters>
            <DistanceMeters>NAN</DistanceMeters>
          </Trackpoint>
          <Trackpoint>
            <Time>2022-09-20T10:53:41.000Z</Time>
            <Position>
              <LatitudeDegrees>49.44540848024189472198486328125</LatitudeDegrees>
              <LongitudeDegrees>20.2379276789724826812744140625</LongitudeDegrees>
            </Position>
            <AltitudeMeters>524.4000244140625</AltitudeMeters>
            <DistanceMeters>NAN</DistanceMeters>
          </Trackpoint>
          <Trackpoint>
            <Time>2022-09-20T10:53:43.000Z</Time>
            <Position>
              <LatitudeDegrees>49.4453512318432331085205078125</LatitudeDegrees>
              <LongitudeDegrees>20.2379028685390949249267578125</LongitudeDegrees>
            </Position>
            <AltitudeMeters>524.4000244140625</AltitudeMeters>
            <DistanceMeters>NAN</DistanceMeters>
          </Trackpoint>
          <Trackpoint>
            <Time>2022-09-20T10:53:49.000Z</Time>
            <Position>
              <LatitudeDegrees>49.4451524131000041961669921875</LatitudeDegrees>
              <LongitudeDegrees>20.23782583884894847869873046875</LongitudeDegrees>
            </Position>
            <AltitudeMeters>524.4000244140625</AltitudeMeters>
            <DistanceMeters>NAN</DistanceMeters>
          </Trackpoint>
          <Trackpoint>
            <Time>2022-09-20T10:53:57.000Z</Time>
            <Position>
              <LatitudeDegrees>49.4448908977210521697998046875</LatitudeDegrees>
              <LongitudeDegrees>20.237704217433929443359375</LongitudeDegrees>
            </Position>
            <AltitudeMeters>524.79998779296875</AltitudeMeters>
            <DistanceMeters>NAN</DistanceMeters>
          </Trackpoint>
          <Trackpoint>
            <Time>2022-09-20T10:54:04.000Z</Time>
            <Position>
              <LatitudeDegrees>49.4446716271340847015380859375</LatitudeDegrees>
              <LongitudeDegrees>20.23759583942592144012451171875</LongitudeDegrees>
            </Position>
            <AltitudeMeters>524.4000244140625</AltitudeMeters>
            <DistanceMeters>NAN</DistanceMeters>
          </Trackpoint>
          <Trackpoint>
            <Time>2022-09-20T10:54:08.000Z</Time>
            <Position>
              <LatitudeDegrees>49.44455788470804691314697265625</LatitudeDegrees>
              <LongitudeDegrees>20.237541608512401580810546875</LongitudeDegrees>
            </Position>
            <AltitudeMeters>524.4000244140625</AltitudeMeters>
            <DistanceMeters>NAN</DistanceMeters>
          </Trackpoint>
          <Trackpoint>
            <Time>2022-09-20T10:54:13.000Z</Time>
            <Position>
              <LatitudeDegrees>49.44441069848835468292236328125</LatitudeDegrees>
              <LongitudeDegrees>20.23747631348669528961181640625</LongitudeDegrees>
            </Position>
            <AltitudeMeters>524.4000244140625</AltitudeMeters>
            <DistanceMeters>NAN</DistanceMeters>
          </Trackpoint>
          <Trackpoint>
            <Time>2022-09-20T10:54:21.000Z</Time>
            <Position>
              <LatitudeDegrees>49.44416209124028682708740234375</LatitudeDegrees>
              <LongitudeDegrees>20.23735620081424713134765625</LongitudeDegrees>
            </Position>
            <AltitudeMeters>524</AltitudeMeters>
            <DistanceMeters>NAN</DistanceMeters>
          </Trackpoint>
          <Trackpoint>
            <Time>2022-09-20T10:54:23.000Z</Time>
            <Position>
              <LatitudeDegrees>49.44409872405230998992919921875</LatitudeDegrees>
              <LongitudeDegrees>20.2373231761157512664794921875</LongitudeDegrees>
            </Position>
            <AltitudeMeters>523.79998779296875</AltitudeMeters>
            <DistanceMeters>NAN</DistanceMeters>
          </Trackpoint>
          <Trackpoint>
            <Time>2022-09-20T10:54:28.000Z</Time>
            <Position>
              <LatitudeDegrees>49.44396243430674076080322265625</LatitudeDegrees>
              <LongitudeDegrees>20.23725670762360095977783203125</LongitudeDegrees>
            </Position>
            <AltitudeMeters>523.79998779296875</AltitudeMeters>
            <DistanceMeters>NAN</DistanceMeters>
          </Trackpoint>
          <Trackpoint>
            <Time>2022-09-20T10:54:29.000Z</Time>
            <Position>
              <LatitudeDegrees>49.44393552839756011962890625</LatitudeDegrees>
              <LongitudeDegrees>20.23724564351141452789306640625</LongitudeDegrees>
            </Position>
            <AltitudeMeters>523.79998779296875</AltitudeMeters>
            <DistanceMeters>NAN</DistanceMeters>
          </Trackpoint>
          <Trackpoint>
            <Time>2022-09-20T10:54:31.000Z</Time>
            <Position>
              <LatitudeDegrees>49.443885572254657745361328125</LatitudeDegrees>
              <LongitudeDegrees>20.237219743430614471435546875</LongitudeDegrees>
            </Position>
            <AltitudeMeters>523.5999755859375</AltitudeMeters>
            <DistanceMeters>NAN</DistanceMeters>
          </Trackpoint>
          <Trackpoint>
            <Time>2022-09-20T10:54:35.000Z</Time>
            <Position>
              <LatitudeDegrees>49.44376076571643352508544921875</LatitudeDegrees>
              <LongitudeDegrees>20.23715377785265445709228515625</LongitudeDegrees>
            </Position>
            <AltitudeMeters>523.5999755859375</AltitudeMeters>
            <DistanceMeters>NAN</DistanceMeters>
          </Trackpoint>
          <Trackpoint>
            <Time>2022-09-20T10:54:38.000Z</Time>
            <Position>
              <LatitudeDegrees>49.44366605021059513092041015625</LatitudeDegrees>
              <LongitudeDegrees>20.237111113965511322021484375</LongitudeDegrees>
            </Position>
            <AltitudeMeters>523.5999755859375</AltitudeMeters>
            <DistanceMeters>NAN</DistanceMeters>
          </Trackpoint>
          <Trackpoint>
            <Time>2022-09-20T10:54:43.000Z</Time>
            <Position>
              <LatitudeDegrees>49.44351769052445888519287109375</LatitudeDegrees>
              <LongitudeDegrees>20.2370341680943965911865234375</LongitudeDegrees>
            </Position>
            <AltitudeMeters>523.79998779296875</AltitudeMeters>
            <DistanceMeters>NAN</DistanceMeters>
          </Trackpoint>
          <Trackpoint>
            <Time>2022-09-20T10:54:45.000Z</Time>
            <Position>
              <LatitudeDegrees>49.44346153177320957183837890625</LatitudeDegrees>
              <LongitudeDegrees>20.237011201679706573486328125</LongitudeDegrees>
            </Position>
            <AltitudeMeters>523.79998779296875</AltitudeMeters>
            <DistanceMeters>NAN</DistanceMeters>
          </Trackpoint>
          <Trackpoint>
            <Time>2022-09-20T10:54:46.000Z</Time>
            <Position>
              <LatitudeDegrees>49.44343437440693378448486328125</LatitudeDegrees>
              <LongitudeDegrees>20.23700416088104248046875</LongitudeDegrees>
            </Position>
            <AltitudeMeters>523.5999755859375</AltitudeMeters>
            <DistanceMeters>NAN</DistanceMeters>
          </Trackpoint>
          <Trackpoint>
            <Time>2022-09-20T10:54:48.000Z</Time>
            <Position>
              <LatitudeDegrees>49.44337972439825534820556640625</LatitudeDegrees>
              <LongitudeDegrees>20.2369855530560016632080078125</LongitudeDegrees>
            </Position>
            <AltitudeMeters>523.5999755859375</AltitudeMeters>
            <DistanceMeters>NAN</DistanceMeters>
          </Trackpoint>
          <Trackpoint>
            <Time>2022-09-20T10:54:52.000Z</Time>
            <Position>
              <LatitudeDegrees>49.44328484125435352325439453125</LatitudeDegrees>
              <LongitudeDegrees>20.2369322441518306732177734375</LongitudeDegrees>
            </Position>
            <AltitudeMeters>523.79998779296875</AltitudeMeters>
            <DistanceMeters>NAN</DistanceMeters>
          </Trackpoint>
          <Trackpoint>
            <Time>2022-09-20T10:54:57.000Z</Time>
            <Position>
              <LatitudeDegrees>49.4431742839515209197998046875</LatitudeDegrees>
              <LongitudeDegrees>20.2368846349418163299560546875</LongitudeDegrees>
            </Position>
            <AltitudeMeters>523.79998779296875</AltitudeMeters>
            <DistanceMeters>NAN</DistanceMeters>
          </Trackpoint>
          <Trackpoint>
            <Time>2022-09-20T10:54:59.000Z</Time>
            <Position>
              <LatitudeDegrees>49.443133212625980377197265625</LatitudeDegrees>
              <LongitudeDegrees>20.23687315173447132110595703125</LongitudeDegrees>
            </Position>
            <AltitudeMeters>523.5999755859375</AltitudeMeters>
            <DistanceMeters>NAN</DistanceMeters>
          </Trackpoint>
          <Trackpoint>
            <Time>2022-09-20T10:55:04.000Z</Time>
            <Position>
              <LatitudeDegrees>49.44304914213716983795166015625</LatitudeDegrees>
              <LongitudeDegrees>20.23681464605033397674560546875</LongitudeDegrees>
            </Position>
            <AltitudeMeters>523.20001220703125</AltitudeMeters>
            <DistanceMeters>NAN</DistanceMeters>
          </Trackpoint>
          <Trackpoint>
            <Time>2022-09-20T10:55:11.000Z</Time>
            <Position>
              <LatitudeDegrees>49.44293095730245113372802734375</LatitudeDegrees>
              <LongitudeDegrees>20.2367629297077655792236328125</LongitudeDegrees>
            </Position>
            <AltitudeMeters>523.20001220703125</AltitudeMeters>
            <DistanceMeters>NAN</DistanceMeters>
          </Trackpoint>
          <Trackpoint>
            <Time>2022-09-20T10:55:19.000Z</Time>
            <Position>
              <LatitudeDegrees>49.442809335887432098388671875</LatitudeDegrees>
              <LongitudeDegrees>20.2367143146693706512451171875</LongitudeDegrees>
            </Position>
            <AltitudeMeters>523.20001220703125</AltitudeMeters>
            <DistanceMeters>NAN</DistanceMeters>
          </Trackpoint>
          <Trackpoint>
            <Time>2022-09-20T10:55:24.000Z</Time>
            <Position>
              <LatitudeDegrees>49.44272375665605068206787109375</LatitudeDegrees>
              <LongitudeDegrees>20.23668372072279453277587890625</LongitudeDegrees>
            </Position>
            <AltitudeMeters>523</AltitudeMeters>
            <DistanceMeters>NAN</DistanceMeters>
          </Trackpoint>
          <Trackpoint>
            <Time>2022-09-20T10:55:25.000Z</Time>
            <Position>
              <LatitudeDegrees>49.44270632229745388031005859375</LatitudeDegrees>
              <LongitudeDegrees>20.23667701520025730133056640625</LongitudeDegrees>
            </Position>
            <AltitudeMeters>523</AltitudeMeters>
            <DistanceMeters>NAN</DistanceMeters>
          </Trackpoint>
          <Trackpoint>
            <Time>2022-09-20T10:55:28.000Z</Time>
            <Position>
              <LatitudeDegrees>49.442658461630344390869140625</LatitudeDegrees>
              <LongitudeDegrees>20.236648432910442352294921875</LongitudeDegrees>
            </Position>
            <AltitudeMeters>523</AltitudeMeters>
            <DistanceMeters>NAN</DistanceMeters>
          </Trackpoint>
          <Trackpoint>
            <Time>2022-09-20T10:55:30.000Z</Time>
            <Position>
              <LatitudeDegrees>49.4426245987415313720703125</LatitudeDegrees>
              <LongitudeDegrees>20.2366539649665355682373046875</LongitudeDegrees>
            </Position>
            <AltitudeMeters>522.79998779296875</AltitudeMeters>
            <DistanceMeters>NAN</DistanceMeters>
          </Trackpoint>
          <Trackpoint>
            <Time>2022-09-20T10:55:31.000Z</Time>
            <Position>
              <LatitudeDegrees>49.4426177255809307098388671875</LatitudeDegrees>
              <LongitudeDegrees>20.23667131550610065460205078125</LongitudeDegrees>
            </Position>
            <AltitudeMeters>522.79998779296875</AltitudeMeters>
            <DistanceMeters>NAN</DistanceMeters>
          </Trackpoint>
          <Trackpoint>
            <Time>2022-09-20T10:55:33.000Z</Time>
            <Position>
              <LatitudeDegrees>49.442630298435688018798828125</LatitudeDegrees>
              <LongitudeDegrees>20.23672780953347682952880859375</LongitudeDegrees>
            </Position>
            <AltitudeMeters>522.5999755859375</AltitudeMeters>
            <DistanceMeters>NAN</DistanceMeters>
          </Trackpoint>
          <Trackpoint>
            <Time>2022-09-20T10:55:38.000Z</Time>
            <Position>
              <LatitudeDegrees>49.4427474774420261383056640625</LatitudeDegrees>
              <LongitudeDegrees>20.2368152327835559844970703125</LongitudeDegrees>
            </Position>
            <AltitudeMeters>521.79998779296875</AltitudeMeters>
            <DistanceMeters>NAN</DistanceMeters>
          </Trackpoint>
          <Trackpoint>
            <Time>2022-09-20T10:55:43.000Z</Time>
            <Position>
              <LatitudeDegrees>49.44296247325837612152099609375</LatitudeDegrees>
              <LongitudeDegrees>20.23693643510341644287109375</LongitudeDegrees>
            </Position>
            <AltitudeMeters>521.20001220703125</AltitudeMeters>
            <DistanceMeters>NAN</DistanceMeters>
          </Trackpoint>
          <Trackpoint>
            <Time>2022-09-20T10:55:45.000Z</Time>
            <Position>
              <LatitudeDegrees>49.44303791038691997528076171875</LatitudeDegrees>
              <LongitudeDegrees>20.236978344619274139404296875</LongitudeDegrees>
            </Position>
            <AltitudeMeters>521</AltitudeMeters>
            <DistanceMeters>NAN</DistanceMeters>
          </Trackpoint>
          <Trackpoint>
            <Time>2022-09-20T10:55:49.000Z</Time>
            <Position>
              <LatitudeDegrees>49.44319766946136951446533203125</LatitudeDegrees>
              <LongitudeDegrees>20.237070210278034210205078125</LongitudeDegrees>
            </Position>
            <AltitudeMeters>520.5999755859375</AltitudeMeters>
            <DistanceMeters>NAN</DistanceMeters>
          </Trackpoint>
          <Trackpoint>
            <Time>2022-09-20T10:55:53.000Z</Time>
            <Position>
              <LatitudeDegrees>49.44337771274149417877197265625</LatitudeDegrees>
              <LongitudeDegrees>20.237182863056659698486328125</LongitudeDegrees>
            </Position>
            <AltitudeMeters>520.4000244140625</AltitudeMeters>
            <DistanceMeters>NAN</DistanceMeters>
          </Trackpoint>
          <Trackpoint>
            <Time>2022-09-20T10:55:58.000Z</Time>
            <Position>
              <LatitudeDegrees>49.4436316005885601043701171875</LatitudeDegrees>
              <LongitudeDegrees>20.2373265288770198822021484375</LongitudeDegrees>
            </Position>
            <AltitudeMeters>519.4000244140625</AltitudeMeters>
            <DistanceMeters>NAN</DistanceMeters>
          </Trackpoint>
          <Trackpoint>
            <Time>2022-09-20T10:56:00.000Z</Time>
            <Position>
              <LatitudeDegrees>49.44373905658721923828125</LatitudeDegrees>
              <LongitudeDegrees>20.23739400319755077362060546875</LongitudeDegrees>
            </Position>
            <AltitudeMeters>519</AltitudeMeters>
            <DistanceMeters>NAN</DistanceMeters>
          </Trackpoint>
          <Trackpoint>
            <Time>2022-09-20T10:56:08.000Z</Time>
            <Position>
              <LatitudeDegrees>49.44412219338119029998779296875</LatitudeDegrees>
              <LongitudeDegrees>20.2376433648169040679931640625</LongitudeDegrees>
            </Position>
            <AltitudeMeters>518.5999755859375</AltitudeMeters>
            <DistanceMeters>NAN</DistanceMeters>
          </Trackpoint>
          <Trackpoint>
            <Time>2022-09-20T10:56:11.000Z</Time>
            <Position>
              <LatitudeDegrees>49.44426099769771099090576171875</LatitudeDegrees>
              <LongitudeDegrees>20.23772978223860263824462890625</LongitudeDegrees>
            </Position>
            <AltitudeMeters>518.5999755859375</AltitudeMeters>
            <DistanceMeters>NAN</DistanceMeters>
          </Trackpoint>
          <Trackpoint>
            <Time>2022-09-20T10:56:13.000Z</Time>
            <Position>
              <LatitudeDegrees>49.44430860690772533416748046875</LatitudeDegrees>
              <LongitudeDegrees>20.23782734759151935577392578125</LongitudeDegrees>
            </Position>
            <AltitudeMeters>518.4000244140625</AltitudeMeters>
            <DistanceMeters>NAN</DistanceMeters>
          </Trackpoint>
          <Trackpoint>
            <Time>2022-09-20T10:56:15.000Z</Time>
            <Position>
              <LatitudeDegrees>49.44430072791874408721923828125</LatitudeDegrees>
              <LongitudeDegrees>20.2379357255995273590087890625</LongitudeDegrees>
            </Position>
            <AltitudeMeters>518.20001220703125</AltitudeMeters>
            <DistanceMeters>NAN</DistanceMeters>
          </Trackpoint>
          <Trackpoint>
            <Time>2022-09-20T10:56:16.000Z</Time>
            <Position>
              <LatitudeDegrees>49.444271810352802276611328125</LatitudeDegrees>
              <LongitudeDegrees>20.23799263872206211090087890625</LongitudeDegrees>
            </Position>
            <AltitudeMeters>518.20001220703125</AltitudeMeters>
            <DistanceMeters>NAN</DistanceMeters>
          </Trackpoint>
          <Trackpoint>
            <Time>2022-09-20T10:56:17.000Z</Time>
            <Position>
              <LatitudeDegrees>49.44423149339854717254638671875</LatitudeDegrees>
              <LongitudeDegrees>20.23804821074008941650390625</LongitudeDegrees>
            </Position>
            <AltitudeMeters>518</AltitudeMeters>
            <DistanceMeters>NAN</DistanceMeters>
          </Trackpoint>
          <Trackpoint>
            <Time>2022-09-20T10:56:19.000Z</Time>
            <Position>
              <LatitudeDegrees>49.444128982722759246826171875</LatitudeDegrees>
              <LongitudeDegrees>20.23813932202756404876708984375</LongitudeDegrees>
            </Position>
            <AltitudeMeters>517.20001220703125</AltitudeMeters>
            <DistanceMeters>NAN</DistanceMeters>
          </Trackpoint>
          <Trackpoint>
            <Time>2022-09-20T10:56:20.000Z</Time>
            <Position>
              <LatitudeDegrees>49.44407709874212741851806640625</LatitudeDegrees>
              <LongitudeDegrees>20.2381761185824871063232421875</LongitudeDegrees>
            </Position>
            <AltitudeMeters>517</AltitudeMeters>
            <DistanceMeters>NAN</DistanceMeters>
          </Trackpoint>
          <Trackpoint>
            <Time>2022-09-20T10:56:26.000Z</Time>
            <Position>
              <LatitudeDegrees>49.4438143260776996612548828125</LatitudeDegrees>
              <LongitudeDegrees>20.238324142992496490478515625</LongitudeDegrees>
            </Position>
            <AltitudeMeters>516.79998779296875</AltitudeMeters>
            <DistanceMeters>NAN</DistanceMeters>
          </Trackpoint>
          <Trackpoint>
            <Time>2022-09-20T10:56:29.000Z</Time>
            <Position>
              <LatitudeDegrees>49.4436778686940670013427734375</LatitudeDegrees>
              <LongitudeDegrees>20.23842263035476207733154296875</LongitudeDegrees>
            </Position>
            <AltitudeMeters>517.20001220703125</AltitudeMeters>
            <DistanceMeters>NAN</DistanceMeters>
          </Trackpoint>
          <Trackpoint>
            <Time>2022-09-20T10:56:32.000Z</Time>
            <Position>
              <LatitudeDegrees>49.4435628689825534820556640625</LatitudeDegrees>
              <LongitudeDegrees>20.23852304555475711822509765625</LongitudeDegrees>
            </Position>
            <AltitudeMeters>517.4000244140625</AltitudeMeters>
            <DistanceMeters>NAN</DistanceMeters>
          </Trackpoint>
          <Trackpoint>
            <Time>2022-09-20T10:56:33.000Z</Time>
            <Position>
              <LatitudeDegrees>49.44352188147604465484619140625</LatitudeDegrees>
              <LongitudeDegrees>20.23855824954807758331298828125</LongitudeDegrees>
            </Position>
            <AltitudeMeters>517.4000244140625</AltitudeMeters>
            <DistanceMeters>NAN</DistanceMeters>
          </Trackpoint>
          <Trackpoint>
            <Time>2022-09-20T10:56:35.000Z</Time>
            <Position>
              <LatitudeDegrees>49.4434307701885700225830078125</LatitudeDegrees>
              <LongitudeDegrees>20.23860476911067962646484375</LongitudeDegrees>
            </Position>
            <AltitudeMeters>517.20001220703125</AltitudeMeters>
            <DistanceMeters>NAN</DistanceMeters>
          </Trackpoint>
          <Trackpoint>
            <Time>2022-09-20T10:56:37.000Z</Time>
            <Position>
              <LatitudeDegrees>49.4433821551501750946044921875</LatitudeDegrees>
              <LongitudeDegrees>20.23861859925091266632080078125</LongitudeDegrees>
            </Position>
            <AltitudeMeters>517.4000244140625</AltitudeMeters>
            <DistanceMeters>NAN</DistanceMeters>
          </Trackpoint>
          <Trackpoint>
            <Time>2022-09-20T10:56:38.000Z</Time>
            <Position>
              <LatitudeDegrees>49.4432902894914150238037109375</LatitudeDegrees>
              <LongitudeDegrees>20.23863025009632110595703125</LongitudeDegrees>
            </Position>
            <AltitudeMeters>517.5999755859375</AltitudeMeters>
            <DistanceMeters>NAN</DistanceMeters>
          </Trackpoint>
          <Trackpoint>
            <Time>2022-09-20T10:56:39.000Z</Time>
            <Position>
              <LatitudeDegrees>49.443261958658695220947265625</LatitudeDegrees>
              <LongitudeDegrees>20.23863737471401691436767578125</LongitudeDegrees>
            </Position>
            <AltitudeMeters>517.5999755859375</AltitudeMeters>
            <DistanceMeters>NAN</DistanceMeters>
          </Trackpoint>
          <Trackpoint>
            <Time>2022-09-20T10:56:42.000Z</Time>
            <Position>
              <LatitudeDegrees>49.44315291009843349456787109375</LatitudeDegrees>
              <LongitudeDegrees>20.23867006413638591766357421875</LongitudeDegrees>
            </Position>
            <AltitudeMeters>518</AltitudeMeters>
            <DistanceMeters>NAN</DistanceMeters>
          </Trackpoint>
          <Trackpoint>
            <Time>2022-09-20T10:56:46.000Z</Time>
            <Position>
              <LatitudeDegrees>49.443017877638339996337890625</LatitudeDegrees>
              <LongitudeDegrees>20.23870577104389667510986328125</LongitudeDegrees>
            </Position>
            <AltitudeMeters>518.4000244140625</AltitudeMeters>
            <DistanceMeters>NAN</DistanceMeters>
          </Trackpoint>
          <Trackpoint>
            <Time>2022-09-20T10:56:50.000Z</Time>
            <Position>
              <LatitudeDegrees>49.44288007915019989013671875</LatitudeDegrees>
              <LongitudeDegrees>20.2387596666812896728515625</LongitudeDegrees>
            </Position>
            <AltitudeMeters>518.4000244140625</AltitudeMeters>
            <DistanceMeters>NAN</DistanceMeters>
          </Trackpoint>
          <Trackpoint>
            <Time>2022-09-20T10:56:52.000Z</Time>
            <Position>
              <LatitudeDegrees>49.44279550574719905853271484375</LatitudeDegrees>
              <LongitudeDegrees>20.23879386484622955322265625</LongitudeDegrees>
            </Position>
            <AltitudeMeters>518.20001220703125</AltitudeMeters>
            <DistanceMeters>NAN</DistanceMeters>
          </Trackpoint>
          <Trackpoint>
            <Time>2022-09-20T10:56:54.000Z</Time>
            <Position>
              <LatitudeDegrees>49.44269475527107715606689453125</LatitudeDegrees>
              <LongitudeDegrees>20.23880350403487682342529296875</LongitudeDegrees>
            </Position>
            <AltitudeMeters>517.79998779296875</AltitudeMeters>
            <DistanceMeters>NAN</DistanceMeters>
          </Trackpoint>
          <Trackpoint>
            <Time>2022-09-20T10:56:55.000Z</Time>
            <Position>
              <LatitudeDegrees>49.4426559470593929290771484375</LatitudeDegrees>
              <LongitudeDegrees>20.23880115710198879241943359375</LongitudeDegrees>
            </Position>
            <AltitudeMeters>517.5999755859375</AltitudeMeters>
            <DistanceMeters>NAN</DistanceMeters>
          </Trackpoint>
          <Trackpoint>
            <Time>2022-09-20T10:56:56.000Z</Time>
            <Position>
              <LatitudeDegrees>49.44261051714420318603515625</LatitudeDegrees>
              <LongitudeDegrees>20.2387905120849609375</LongitudeDegrees>
            </Position>
            <AltitudeMeters>517.4000244140625</AltitudeMeters>
            <DistanceMeters>NAN</DistanceMeters>
          </Trackpoint>
          <Trackpoint>
            <Time>2022-09-20T10:56:57.000Z</Time>
            <Position>
              <LatitudeDegrees>49.44256114773452281951904296875</LatitudeDegrees>
              <LongitudeDegrees>20.23876301944255828857421875</LongitudeDegrees>
            </Position>
            <AltitudeMeters>517</AltitudeMeters>
            <DistanceMeters>NAN</DistanceMeters>
          </Trackpoint>
          <Trackpoint>
            <Time>2022-09-20T10:56:58.000Z</Time>
            <Position>
              <LatitudeDegrees>49.44252259097993373870849609375</LatitudeDegrees>
              <LongitudeDegrees>20.23872873745858669281005859375</LongitudeDegrees>
            </Position>
            <AltitudeMeters>516.79998779296875</AltitudeMeters>
            <DistanceMeters>NAN</DistanceMeters>
          </Trackpoint>
          <Trackpoint>
            <Time>2022-09-20T10:56:59.000Z</Time>
            <Position>
              <LatitudeDegrees>49.4424886442720890045166015625</LatitudeDegrees>
              <LongitudeDegrees>20.23868657648563385009765625</LongitudeDegrees>
            </Position>
            <AltitudeMeters>516.79998779296875</AltitudeMeters>
            <DistanceMeters>NAN</DistanceMeters>
          </Trackpoint>
          <Trackpoint>
            <Time>2022-09-20T10:57:00.000Z</Time>
            <Position>
              <LatitudeDegrees>49.44246140308678150177001953125</LatitudeDegrees>
              <LongitudeDegrees>20.23864190094172954559326171875</LongitudeDegrees>
            </Position>
            <AltitudeMeters>516.5999755859375</AltitudeMeters>
            <DistanceMeters>NAN</DistanceMeters>
          </Trackpoint>
          <Trackpoint>
            <Time>2022-09-20T10:57:03.000Z</Time>
            <Position>
              <LatitudeDegrees>49.4424073398113250732421875</LatitudeDegrees>
              <LongitudeDegrees>20.23850980214774608612060546875</LongitudeDegrees>
            </Position>
            <AltitudeMeters>516.4000244140625</AltitudeMeters>
            <DistanceMeters>NAN</DistanceMeters>
          </Trackpoint>
          <Trackpoint>
            <Time>2022-09-20T10:57:06.000Z</Time>
            <Position>
              <LatitudeDegrees>49.44234573282301425933837890625</LatitudeDegrees>
              <LongitudeDegrees>20.23842564783990383148193359375</LongitudeDegrees>
            </Position>
            <AltitudeMeters>516.79998779296875</AltitudeMeters>
            <DistanceMeters>NAN</DistanceMeters>
          </Trackpoint>
          <Trackpoint>
            <Time>2022-09-20T10:57:07.000Z</Time>
            <Position>
              <LatitudeDegrees>49.44231773726642131805419921875</LatitudeDegrees>
              <LongitudeDegrees>20.238428413867950439453125</LongitudeDegrees>
            </Position>
            <AltitudeMeters>517</AltitudeMeters>
            <DistanceMeters>NAN</DistanceMeters>
          </Trackpoint>
          <Trackpoint>
            <Time>2022-09-20T10:57:13.000Z</Time>
            <Position>
              <LatitudeDegrees>49.44218161515891551971435546875</LatitudeDegrees>
              <LongitudeDegrees>20.2385129034519195556640625</LongitudeDegrees>
            </Position>
            <AltitudeMeters>517.5999755859375</AltitudeMeters>
            <DistanceMeters>NAN</DistanceMeters>
          </Trackpoint>
          <Trackpoint>
            <Time>2022-09-20T10:57:15.000Z</Time>
            <Position>
              <LatitudeDegrees>49.44216133095324039459228515625</LatitudeDegrees>
              <LongitudeDegrees>20.23852639831602573394775390625</LongitudeDegrees>
            </Position>
            <AltitudeMeters>517.5999755859375</AltitudeMeters>
            <DistanceMeters>NAN</DistanceMeters>
          </Trackpoint>
          <Trackpoint>
            <Time>2022-09-20T10:57:18.000Z</Time>
            <Position>
              <LatitudeDegrees>49.4421480037271976470947265625</LatitudeDegrees>
              <LongitudeDegrees>20.2385184355080127716064453125</LongitudeDegrees>
            </Position>
            <AltitudeMeters>517.79998779296875</AltitudeMeters>
            <DistanceMeters>NAN</DistanceMeters>
          </Trackpoint>
          <Trackpoint>
            <Time>2022-09-20T10:57:27.000Z</Time>
            <Position>
              <LatitudeDegrees>49.4421480037271976470947265625</LatitudeDegrees>
              <LongitudeDegrees>20.2385184355080127716064453125</LongitudeDegrees>
            </Position>
            <AltitudeMeters>517.79998779296875</AltitudeMeters>
            <DistanceMeters>NAN</DistanceMeters>
          </Trackpoint>
          <Trackpoint>
            <Time>2022-09-20T10:57:38.000Z</Time>
            <Position>
              <LatitudeDegrees>49.4421480037271976470947265625</LatitudeDegrees>
              <LongitudeDegrees>20.2385184355080127716064453125</LongitudeDegrees>
            </Position>
            <AltitudeMeters>517.79998779296875</AltitudeMeters>
            <DistanceMeters>NAN</DistanceMeters>
          </Trackpoint>
          <Trackpoint>
            <Time>2022-09-20T10:57:44.000Z</Time>
            <Position>
              <LatitudeDegrees>49.4421480037271976470947265625</LatitudeDegrees>
              <LongitudeDegrees>20.2385184355080127716064453125</LongitudeDegrees>
            </Position>
            <AltitudeMeters>517.79998779296875</AltitudeMeters>
            <DistanceMeters>NAN</DistanceMeters>
          </Trackpoint>
          <Trackpoint>
            <Time>2022-09-20T10:57:46.000Z</Time>
            <Position>
              <LatitudeDegrees>49.4421480037271976470947265625</LatitudeDegrees>
              <LongitudeDegrees>20.2385184355080127716064453125</LongitudeDegrees>
            </Position>
            <AltitudeMeters>517.79998779296875</AltitudeMeters>
            <DistanceMeters>NAN</DistanceMeters>
          </Trackpoint>
          <Trackpoint>
            <Time>2022-09-20T10:57:47.000Z</Time>
            <Position>
              <LatitudeDegrees>49.4421480037271976470947265625</LatitudeDegrees>
              <LongitudeDegrees>20.2385184355080127716064453125</LongitudeDegrees>
            </Position>
            <AltitudeMeters>517.79998779296875</AltitudeMeters>
            <DistanceMeters>NAN</DistanceMeters>
          </Trackpoint>
          <Trackpoint>
            <Time>2022-09-20T10:57:49.000Z</Time>
            <Position>
              <LatitudeDegrees>49.4421480037271976470947265625</LatitudeDegrees>
              <LongitudeDegrees>20.2385184355080127716064453125</LongitudeDegrees>
            </Position>
            <AltitudeMeters>517.5999755859375</AltitudeMeters>
            <DistanceMeters>NAN</DistanceMeters>
          </Trackpoint>
          <Trackpoint>
            <Time>2022-09-20T10:57:56.000Z</Time>
            <Position>
              <LatitudeDegrees>49.4421480037271976470947265625</LatitudeDegrees>
              <LongitudeDegrees>20.2385184355080127716064453125</LongitudeDegrees>
            </Position>
            <AltitudeMeters>517.5999755859375</AltitudeMeters>
            <DistanceMeters>NAN</DistanceMeters>
          </Trackpoint>
          <Trackpoint>
            <Time>2022-09-20T10:58:02.000Z</Time>
            <Position>
              <LatitudeDegrees>49.4421480037271976470947265625</LatitudeDegrees>
              <LongitudeDegrees>20.2385184355080127716064453125</LongitudeDegrees>
            </Position>
            <AltitudeMeters>517.5999755859375</AltitudeMeters>
            <DistanceMeters>NAN</DistanceMeters>
          </Trackpoint>
          <Trackpoint>
            <Time>2022-09-20T10:58:05.000Z</Time>
            <Position>
              <LatitudeDegrees>49.4421480037271976470947265625</LatitudeDegrees>
              <LongitudeDegrees>20.2385184355080127716064453125</LongitudeDegrees>
            </Position>
            <AltitudeMeters>517.5999755859375</AltitudeMeters>
            <DistanceMeters>NAN</DistanceMeters>
          </Trackpoint>
          <Trackpoint>
            <Time>2022-09-20T10:58:14.000Z</Time>
            <Position>
              <LatitudeDegrees>49.4421480037271976470947265625</LatitudeDegrees>
              <LongitudeDegrees>20.2385184355080127716064453125</LongitudeDegrees>
            </Position>
            <AltitudeMeters>517.4000244140625</AltitudeMeters>
            <DistanceMeters>NAN</DistanceMeters>
          </Trackpoint>
          <Trackpoint>
            <Time>2022-09-20T10:58:18.000Z</Time>
            <Position>
              <LatitudeDegrees>49.4421480037271976470947265625</LatitudeDegrees>
              <LongitudeDegrees>20.2385184355080127716064453125</LongitudeDegrees>
            </Position>
            <AltitudeMeters>517.4000244140625</AltitudeMeters>
            <DistanceMeters>NAN</DistanceMeters>
          </Trackpoint>
          <Trackpoint>
            <Time>2022-09-20T10:58:23.000Z</Time>
            <Position>
              <LatitudeDegrees>49.4421480037271976470947265625</LatitudeDegrees>
              <LongitudeDegrees>20.2385184355080127716064453125</LongitudeDegrees>
            </Position>
            <AltitudeMeters>517.5999755859375</AltitudeMeters>
            <DistanceMeters>NAN</DistanceMeters>
          </Trackpoint>
          <Trackpoint>
            <Time>2022-09-20T10:58:25.000Z</Time>
            <Position>
              <LatitudeDegrees>49.4421480037271976470947265625</LatitudeDegrees>
              <LongitudeDegrees>20.2385184355080127716064453125</LongitudeDegrees>
            </Position>
            <AltitudeMeters>517.5999755859375</AltitudeMeters>
            <DistanceMeters>NAN</DistanceMeters>
          </Trackpoint>
          <Trackpoint>
            <Time>2022-09-20T10:58:28.000Z</Time>
            <Position>
              <LatitudeDegrees>49.4421480037271976470947265625</LatitudeDegrees>
              <LongitudeDegrees>20.2385184355080127716064453125</LongitudeDegrees>
            </Position>
            <AltitudeMeters>517.5999755859375</AltitudeMeters>
            <DistanceMeters>NAN</DistanceMeters>
          </Trackpoint>
          <Trackpoint>
            <Time>2022-09-20T10:59:24.000Z</Time>
            <Position>
              <LatitudeDegrees>49.4421480037271976470947265625</LatitudeDegrees>
              <LongitudeDegrees>20.2385184355080127716064453125</LongitudeDegrees>
            </Position>
            <AltitudeMeters>517.5999755859375</AltitudeMeters>
            <DistanceMeters>NAN</DistanceMeters>
          </Trackpoint>
          <Trackpoint>
            <Time>2022-09-20T11:00:09.000Z</Time>
            <Position>
              <LatitudeDegrees>49.4421480037271976470947265625</LatitudeDegrees>
              <LongitudeDegrees>20.2385184355080127716064453125</LongitudeDegrees>
            </Position>
            <AltitudeMeters>517.5999755859375</AltitudeMeters>
            <DistanceMeters>NAN</DistanceMeters>
          </Trackpoint>
          <Trackpoint>
            <Time>2022-09-20T11:00:13.000Z</Time>
            <Position>
              <LatitudeDegrees>49.4421459920704364776611328125</LatitudeDegrees>
              <LongitudeDegrees>20.2385174296796321868896484375</LongitudeDegrees>
            </Position>
            <AltitudeMeters>517.5999755859375</AltitudeMeters>
            <DistanceMeters>NAN</DistanceMeters>
          </Trackpoint>
          <Trackpoint>
            <Time>2022-09-20T11:00:16.000Z</Time>
            <Position>
              <LatitudeDegrees>49.44209863431751728057861328125</LatitudeDegrees>
              <LongitudeDegrees>20.23846956901252269744873046875</LongitudeDegrees>
            </Position>
            <AltitudeMeters>517.5999755859375</AltitudeMeters>
            <DistanceMeters>NAN</DistanceMeters>
          </Trackpoint>
          <Trackpoint>
            <Time>2022-09-20T11:00:21.000Z</Time>
            <Position>
              <LatitudeDegrees>49.44202043116092681884765625</LatitudeDegrees>
              <LongitudeDegrees>20.23828399367630481719970703125</LongitudeDegrees>
            </Position>
            <AltitudeMeters>517.20001220703125</AltitudeMeters>
            <DistanceMeters>NAN</DistanceMeters>
          </Trackpoint>
          <Trackpoint>
            <Time>2022-09-20T11:00:29.000Z</Time>
            <Position>
              <LatitudeDegrees>49.44184768013656139373779296875</LatitudeDegrees>
              <LongitudeDegrees>20.23787160404026508331298828125</LongitudeDegrees>
            </Position>
            <AltitudeMeters>517</AltitudeMeters>
            <DistanceMeters>NAN</DistanceMeters>
          </Trackpoint>
          <Trackpoint>
            <Time>2022-09-20T11:00:33.000Z</Time>
            <Position>
              <LatitudeDegrees>49.44175397045910358428955078125</LatitudeDegrees>
              <LongitudeDegrees>20.237641520798206329345703125</LongitudeDegrees>
            </Position>
            <AltitudeMeters>517.20001220703125</AltitudeMeters>
            <DistanceMeters>NAN</DistanceMeters>
          </Trackpoint>
          <Trackpoint>
            <Time>2022-09-20T11:00:37.000Z</Time>
            <Position>
              <LatitudeDegrees>49.441676102578639984130859375</LatitudeDegrees>
              <LongitudeDegrees>20.23745703510940074920654296875</LongitudeDegrees>
            </Position>
            <AltitudeMeters>517.79998779296875</AltitudeMeters>
            <DistanceMeters>NAN</DistanceMeters>
          </Trackpoint>
          <Trackpoint>
            <Time>2022-09-20T11:00:39.000Z</Time>
            <Position>
              <LatitudeDegrees>49.4416497834026813507080078125</LatitudeDegrees>
              <LongitudeDegrees>20.2373711206018924713134765625</LongitudeDegrees>
            </Position>
            <AltitudeMeters>518</AltitudeMeters>
            <DistanceMeters>NAN</DistanceMeters>
          </Trackpoint>
          <Trackpoint>
            <Time>2022-09-20T11:00:41.000Z</Time>
            <Position>
              <LatitudeDegrees>49.4416259787976741790771484375</LatitudeDegrees>
              <LongitudeDegrees>20.2373080886900424957275390625</LongitudeDegrees>
            </Position>
            <AltitudeMeters>518.20001220703125</AltitudeMeters>
            <DistanceMeters>NAN</DistanceMeters>
          </Trackpoint>
          <Trackpoint>
            <Time>2022-09-20T11:00:43.000Z</Time>
            <Position>
              <LatitudeDegrees>49.44159639067947864532470703125</LatitudeDegrees>
              <LongitudeDegrees>20.2372390218079090118408203125</LongitudeDegrees>
            </Position>
            <AltitudeMeters>518.4000244140625</AltitudeMeters>
            <DistanceMeters>NAN</DistanceMeters>
          </Trackpoint>
          <Trackpoint>
            <Time>2022-09-20T11:00:51.000Z</Time>
            <Position>
              <LatitudeDegrees>49.44147367961704730987548828125</LatitudeDegrees>
              <LongitudeDegrees>20.23691070266067981719970703125</LongitudeDegrees>
            </Position>
            <AltitudeMeters>519.20001220703125</AltitudeMeters>
            <DistanceMeters>NAN</DistanceMeters>
          </Trackpoint>
          <Trackpoint>
            <Time>2022-09-20T11:00:54.000Z</Time>
            <Position>
              <LatitudeDegrees>49.4414251483976840972900390625</LatitudeDegrees>
              <LongitudeDegrees>20.23674465715885162353515625</LongitudeDegrees>
            </Position>
            <AltitudeMeters>519.20001220703125</AltitudeMeters>
            <DistanceMeters>NAN</DistanceMeters>
          </Trackpoint>
          <Trackpoint>
            <Time>2022-09-20T11:00:57.000Z</Time>
            <Position>
              <LatitudeDegrees>49.44138784892857074737548828125</LatitudeDegrees>
              <LongitudeDegrees>20.2365951240062713623046875</LongitudeDegrees>
            </Position>
            <AltitudeMeters>519.20001220703125</AltitudeMeters>
            <DistanceMeters>NAN</DistanceMeters>
          </Trackpoint>
          <Trackpoint>
            <Time>2022-09-20T11:00:59.000Z</Time>
            <Position>
              <LatitudeDegrees>49.44135247729718685150146484375</LatitudeDegrees>
              <LongitudeDegrees>20.236505605280399322509765625</LongitudeDegrees>
            </Position>
            <AltitudeMeters>519.5999755859375</AltitudeMeters>
            <DistanceMeters>NAN</DistanceMeters>
          </Trackpoint>
          <Trackpoint>
            <Time>2022-09-20T11:01:01.000Z</Time>
            <Position>
              <LatitudeDegrees>49.441321380436420440673828125</LatitudeDegrees>
              <LongitudeDegrees>20.23643377237021923065185546875</LongitudeDegrees>
            </Position>
            <AltitudeMeters>519.5999755859375</AltitudeMeters>
            <DistanceMeters>NAN</DistanceMeters>
          </Trackpoint>
          <Trackpoint>
            <Time>2022-09-20T11:01:05.000Z</Time>
            <Position>
              <LatitudeDegrees>49.44126949645578861236572265625</LatitudeDegrees>
              <LongitudeDegrees>20.236287675797939300537109375</LongitudeDegrees>
            </Position>
            <AltitudeMeters>520.20001220703125</AltitudeMeters>
            <DistanceMeters>NAN</DistanceMeters>
          </Trackpoint>
          <Trackpoint>
            <Time>2022-09-20T11:01:06.000Z</Time>
            <Position>
              <LatitudeDegrees>49.4412566721439361572265625</LatitudeDegrees>
              <LongitudeDegrees>20.2362573333084583282470703125</LongitudeDegrees>
            </Position>
            <AltitudeMeters>520.4000244140625</AltitudeMeters>
            <DistanceMeters>NAN</DistanceMeters>
          </Trackpoint>
          <Trackpoint>
            <Time>2022-09-20T11:01:13.000Z</Time>
            <Position>
              <LatitudeDegrees>49.4411656446754932403564453125</LatitudeDegrees>
              <LongitudeDegrees>20.2360953949391841888427734375</LongitudeDegrees>
            </Position>
            <AltitudeMeters>521</AltitudeMeters>
            <DistanceMeters>NAN</DistanceMeters>
          </Trackpoint>
          <Trackpoint>
            <Time>2022-09-20T11:01:14.000Z</Time>
            <Position>
              <LatitudeDegrees>49.4411525689065456390380859375</LatitudeDegrees>
              <LongitudeDegrees>20.23606739938259124755859375</LongitudeDegrees>
            </Position>
            <AltitudeMeters>521</AltitudeMeters>
            <DistanceMeters>NAN</DistanceMeters>
          </Trackpoint>
          <Trackpoint>
            <Time>2022-09-20T11:01:19.000Z</Time>
            <Position>
              <LatitudeDegrees>49.4410764612257480621337890625</LatitudeDegrees>
              <LongitudeDegrees>20.23595072329044342041015625</LongitudeDegrees>
            </Position>
            <AltitudeMeters>521.4000244140625</AltitudeMeters>
            <DistanceMeters>NAN</DistanceMeters>
          </Trackpoint>
          <Trackpoint>
            <Time>2022-09-20T11:01:21.000Z</Time>
            <Position>
              <LatitudeDegrees>49.4410436041653156280517578125</LatitudeDegrees>
              <LongitudeDegrees>20.2359106577932834625244140625</LongitudeDegrees>
            </Position>
            <AltitudeMeters>521.5999755859375</AltitudeMeters>
            <DistanceMeters>NAN</DistanceMeters>
          </Trackpoint>
          <Trackpoint>
            <Time>2022-09-20T11:01:29.000Z</Time>
            <Position>
              <LatitudeDegrees>49.4409071467816829681396484375</LatitudeDegrees>
              <LongitudeDegrees>20.23578065447509288787841796875</LongitudeDegrees>
            </Position>
            <AltitudeMeters>521.79998779296875</AltitudeMeters>
            <DistanceMeters>NAN</DistanceMeters>
          </Trackpoint>
          <Trackpoint>
            <Time>2022-09-20T11:01:31.000Z</Time>
            <Position>
              <LatitudeDegrees>49.4408796541392803192138671875</LatitudeDegrees>
              <LongitudeDegrees>20.2357453666627407073974609375</LongitudeDegrees>
            </Position>
            <AltitudeMeters>522</AltitudeMeters>
            <DistanceMeters>NAN</DistanceMeters>
          </Trackpoint>
          <Trackpoint>
            <Time>2022-09-20T11:01:33.000Z</Time>
            <Position>
              <LatitudeDegrees>49.4408370740711688995361328125</LatitudeDegrees>
              <LongitudeDegrees>20.2357135154306888580322265625</LongitudeDegrees>
            </Position>
            <AltitudeMeters>522.4000244140625</AltitudeMeters>
            <DistanceMeters>NAN</DistanceMeters>
          </Trackpoint>
          <Trackpoint>
            <Time>2022-09-20T11:01:35.000Z</Time>
            <Position>
              <LatitudeDegrees>49.4408079050481319427490234375</LatitudeDegrees>
              <LongitudeDegrees>20.23567051626741886138916015625</LongitudeDegrees>
            </Position>
            <AltitudeMeters>522.79998779296875</AltitudeMeters>
            <DistanceMeters>NAN</DistanceMeters>
          </Trackpoint>
          <Trackpoint>
            <Time>2022-09-20T11:01:38.000Z</Time>
            <Position>
              <LatitudeDegrees>49.44075820036232471466064453125</LatitudeDegrees>
              <LongitudeDegrees>20.23561586625874042510986328125</LongitudeDegrees>
            </Position>
            <AltitudeMeters>523.20001220703125</AltitudeMeters>
            <DistanceMeters>NAN</DistanceMeters>
          </Trackpoint>
          <Trackpoint>
            <Time>2022-09-20T11:01:40.000Z</Time>
            <Position>
              <LatitudeDegrees>49.44071847014129161834716796875</LatitudeDegrees>
              <LongitudeDegrees>20.2355864457786083221435546875</LongitudeDegrees>
            </Position>
            <AltitudeMeters>523.4000244140625</AltitudeMeters>
            <DistanceMeters>NAN</DistanceMeters>
          </Trackpoint>
          <Trackpoint>
            <Time>2022-09-20T11:01:43.000Z</Time>
            <Position>
              <LatitudeDegrees>49.44068158976733684539794921875</LatitudeDegrees>
              <LongitudeDegrees>20.2355193905532360076904296875</LongitudeDegrees>
            </Position>
            <AltitudeMeters>523.79998779296875</AltitudeMeters>
            <DistanceMeters>NAN</DistanceMeters>
          </Trackpoint>
          <Trackpoint>
            <Time>2022-09-20T11:01:49.000Z</Time>
            <Position>
              <LatitudeDegrees>49.44062124006450176239013671875</LatitudeDegrees>
              <LongitudeDegrees>20.2353993616998195648193359375</LongitudeDegrees>
            </Position>
            <AltitudeMeters>524.5999755859375</AltitudeMeters>
            <DistanceMeters>NAN</DistanceMeters>
          </Trackpoint>
          <Trackpoint>
            <Time>2022-09-20T11:01:50.000Z</Time>
            <Position>
              <LatitudeDegrees>49.44060690701007843017578125</LatitudeDegrees>
              <LongitudeDegrees>20.23538821376860141754150390625</LongitudeDegrees>
            </Position>
            <AltitudeMeters>524.79998779296875</AltitudeMeters>
            <DistanceMeters>NAN</DistanceMeters>
          </Trackpoint>
          <Trackpoint>
            <Time>2022-09-20T11:01:54.000Z</Time>
            <Position>
              <LatitudeDegrees>49.44054479710757732391357421875</LatitudeDegrees>
              <LongitudeDegrees>20.235333479940891265869140625</LongitudeDegrees>
            </Position>
            <AltitudeMeters>525.20001220703125</AltitudeMeters>
            <DistanceMeters>NAN</DistanceMeters>
          </Trackpoint>
          <Trackpoint>
            <Time>2022-09-20T11:01:56.000Z</Time>
            <Position>
              <LatitudeDegrees>49.4405351579189300537109375</LatitudeDegrees>
              <LongitudeDegrees>20.2352977730333805084228515625</LongitudeDegrees>
            </Position>
            <AltitudeMeters>525.4000244140625</AltitudeMeters>
            <DistanceMeters>NAN</DistanceMeters>
          </Trackpoint>
          <Trackpoint>
            <Time>2022-09-20T11:01:58.000Z</Time>
            <Position>
              <LatitudeDegrees>49.4405212439596652984619140625</LatitudeDegrees>
              <LongitudeDegrees>20.235265754163265228271484375</LongitudeDegrees>
            </Position>
            <AltitudeMeters>525.79998779296875</AltitudeMeters>
            <DistanceMeters>NAN</DistanceMeters>
          </Trackpoint>
          <Trackpoint>
            <Time>2022-09-20T11:01:59.000Z</Time>
            <Position>
              <LatitudeDegrees>49.4405212439596652984619140625</LatitudeDegrees>
              <LongitudeDegrees>20.235265754163265228271484375</LongitudeDegrees>
            </Position>
            <AltitudeMeters>526</AltitudeMeters>
            <DistanceMeters>NAN</DistanceMeters>
          </Trackpoint>
          <Trackpoint>
            <Time>2022-09-20T11:02:00.000Z</Time>
            <Position>
              <LatitudeDegrees>49.44050506688654422760009765625</LatitudeDegrees>
              <LongitudeDegrees>20.2352513372898101806640625</LongitudeDegrees>
            </Position>
            <AltitudeMeters>526.20001220703125</AltitudeMeters>
            <DistanceMeters>NAN</DistanceMeters>
          </Trackpoint>
          <Trackpoint>
            <Time>2022-09-20T11:02:03.000Z</Time>
            <Position>
              <LatitudeDegrees>49.440485537052154541015625</LatitudeDegrees>
              <LongitudeDegrees>20.23521470837295055389404296875</LongitudeDegrees>
            </Position>
            <AltitudeMeters>526.79998779296875</AltitudeMeters>
            <DistanceMeters>NAN</DistanceMeters>
          </Trackpoint>
          <Trackpoint>
            <Time>2022-09-20T11:02:04.000Z</Time>
            <Position>
              <LatitudeDegrees>49.440497942268848419189453125</LatitudeDegrees>
              <LongitudeDegrees>20.23518771864473819732666015625</LongitudeDegrees>
            </Position>
            <AltitudeMeters>526.79998779296875</AltitudeMeters>
            <DistanceMeters>NAN</DistanceMeters>
          </Trackpoint>
          <Trackpoint>
            <Time>2022-09-20T11:02:06.000Z</Time>
            <Position>
              <LatitudeDegrees>49.44049970246851444244384765625</LatitudeDegrees>
              <LongitudeDegrees>20.2351435460150241851806640625</LongitudeDegrees>
            </Position>
            <AltitudeMeters>527</AltitudeMeters>
            <DistanceMeters>NAN</DistanceMeters>
          </Trackpoint>
          <Trackpoint>
            <Time>2022-09-20T11:02:08.000Z</Time>
            <Position>
              <LatitudeDegrees>49.44050774909555912017822265625</LatitudeDegrees>
              <LongitudeDegrees>20.235094763338565826416015625</LongitudeDegrees>
            </Position>
            <AltitudeMeters>527.20001220703125</AltitudeMeters>
            <DistanceMeters>NAN</DistanceMeters>
          </Trackpoint>
          <Trackpoint>
            <Time>2022-09-20T11:02:10.000Z</Time>
            <Position>
              <LatitudeDegrees>49.4405074976384639739990234375</LatitudeDegrees>
              <LongitudeDegrees>20.2350422926247119903564453125</LongitudeDegrees>
            </Position>
            <AltitudeMeters>527.4000244140625</AltitudeMeters>
            <DistanceMeters>NAN</DistanceMeters>
          </Trackpoint>
          <Trackpoint>
            <Time>2022-09-20T11:02:12.000Z</Time>
            <Position>
              <LatitudeDegrees>49.44047925062477588653564453125</LatitudeDegrees>
              <LongitudeDegrees>20.23498923517763614654541015625</LongitudeDegrees>
            </Position>
            <AltitudeMeters>527.4000244140625</AltitudeMeters>
            <DistanceMeters>NAN</DistanceMeters>
          </Trackpoint>
          <Trackpoint>
            <Time>2022-09-20T11:02:20.000Z</Time>
            <Position>
              <LatitudeDegrees>49.44030054844915866851806640625</LatitudeDegrees>
              <LongitudeDegrees>20.2350501716136932373046875</LongitudeDegrees>
            </Position>
            <AltitudeMeters>527.5999755859375</AltitudeMeters>
            <DistanceMeters>NAN</DistanceMeters>
          </Trackpoint>
          <Trackpoint>
            <Time>2022-09-20T11:02:24.000Z</Time>
            <Position>
              <LatitudeDegrees>49.44023416377604007720947265625</LatitudeDegrees>
              <LongitudeDegrees>20.23505964316427707672119140625</LongitudeDegrees>
            </Position>
            <AltitudeMeters>528</AltitudeMeters>
            <DistanceMeters>NAN</DistanceMeters>
          </Trackpoint>
          <Trackpoint>
            <Time>2022-09-20T11:02:26.000Z</Time>
            <Position>
              <LatitudeDegrees>49.44020248018205165863037109375</LatitudeDegrees>
              <LongitudeDegrees>20.2350872196257114410400390625</LongitudeDegrees>
            </Position>
            <AltitudeMeters>528.4000244140625</AltitudeMeters>
            <DistanceMeters>NAN</DistanceMeters>
          </Trackpoint>
          <Trackpoint>
            <Time>2022-09-20T11:02:34.000Z</Time>
            <Position>
              <LatitudeDegrees>49.44006870500743389129638671875</LatitudeDegrees>
              <LongitudeDegrees>20.23520247079432010650634765625</LongitudeDegrees>
            </Position>
            <AltitudeMeters>529</AltitudeMeters>
            <DistanceMeters>NAN</DistanceMeters>
          </Trackpoint>
          <Trackpoint>
            <Time>2022-09-20T11:02:39.000Z</Time>
            <Position>
              <LatitudeDegrees>49.43998555652797222137451171875</LatitudeDegrees>
              <LongitudeDegrees>20.23521906696259975433349609375</LongitudeDegrees>
            </Position>
            <AltitudeMeters>529.5999755859375</AltitudeMeters>
            <DistanceMeters>NAN</DistanceMeters>
          </Trackpoint>
          <Trackpoint>
            <Time>2022-09-20T11:02:42.000Z</Time>
            <Position>
              <LatitudeDegrees>49.4399304874241352081298828125</LatitudeDegrees>
              <LongitudeDegrees>20.235248319804668426513671875</LongitudeDegrees>
            </Position>
            <AltitudeMeters>529.79998779296875</AltitudeMeters>
            <DistanceMeters>NAN</DistanceMeters>
          </Trackpoint>
          <Trackpoint>
            <Time>2022-09-20T11:02:44.000Z</Time>
            <Position>
              <LatitudeDegrees>49.4398939423263072967529296875</LatitudeDegrees>
              <LongitudeDegrees>20.23528327234089374542236328125</LongitudeDegrees>
            </Position>
            <AltitudeMeters>530</AltitudeMeters>
            <DistanceMeters>NAN</DistanceMeters>
          </Trackpoint>
          <Trackpoint>
            <Time>2022-09-20T11:02:48.000Z</Time>
            <Position>
              <LatitudeDegrees>49.43982194177806377410888671875</LatitudeDegrees>
              <LongitudeDegrees>20.235333144664764404296875</LongitudeDegrees>
            </Position>
            <AltitudeMeters>530.4000244140625</AltitudeMeters>
            <DistanceMeters>NAN</DistanceMeters>
          </Trackpoint>
          <Trackpoint>
            <Time>2022-09-20T11:02:50.000Z</Time>
            <Position>
              <LatitudeDegrees>49.4397873245179653167724609375</LatitudeDegrees>
              <LongitudeDegrees>20.2353398501873016357421875</LongitudeDegrees>
            </Position>
            <AltitudeMeters>530.5999755859375</AltitudeMeters>
            <DistanceMeters>NAN</DistanceMeters>
          </Trackpoint>
          <Trackpoint>
            <Time>2022-09-20T11:02:54.000Z</Time>
            <Position>
              <LatitudeDegrees>49.4397330097854137420654296875</LatitudeDegrees>
              <LongitudeDegrees>20.23538301698863506317138671875</LongitudeDegrees>
            </Position>
            <AltitudeMeters>531</AltitudeMeters>
            <DistanceMeters>NAN</DistanceMeters>
          </Trackpoint>
          <Trackpoint>
            <Time>2022-09-20T11:02:55.000Z</Time>
            <Position>
              <LatitudeDegrees>49.439722783863544464111328125</LatitudeDegrees>
              <LongitudeDegrees>20.23540061898529529571533203125</LongitudeDegrees>
            </Position>
            <AltitudeMeters>531.20001220703125</AltitudeMeters>
            <DistanceMeters>NAN</DistanceMeters>
          </Trackpoint>
          <Trackpoint>
            <Time>2022-09-20T11:02:58.000Z</Time>
            <Position>
              <LatitudeDegrees>49.43972186185419559478759765625</LatitudeDegrees>
              <LongitudeDegrees>20.23540757596492767333984375</LongitudeDegrees>
            </Position>
            <AltitudeMeters>531.4000244140625</AltitudeMeters>
            <DistanceMeters>NAN</DistanceMeters>
          </Trackpoint>
          <Trackpoint>
            <Time>2022-09-20T11:03:05.000Z</Time>
            <Position>
              <LatitudeDegrees>49.43972672335803508758544921875</LatitudeDegrees>
              <LongitudeDegrees>20.23541956208646297454833984375</LongitudeDegrees>
            </Position>
            <AltitudeMeters>531.4000244140625</AltitudeMeters>
            <DistanceMeters>NAN</DistanceMeters>
          </Trackpoint>
          <Trackpoint>
            <Time>2022-09-20T11:03:09.000Z</Time>
            <Position>
              <LatitudeDegrees>49.43972672335803508758544921875</LatitudeDegrees>
              <LongitudeDegrees>20.23541956208646297454833984375</LongitudeDegrees>
            </Position>
            <AltitudeMeters>531.4000244140625</AltitudeMeters>
            <DistanceMeters>NAN</DistanceMeters>
          </Trackpoint>
          <Trackpoint>
            <Time>2022-09-20T11:03:12.000Z</Time>
            <Position>
              <LatitudeDegrees>49.43972672335803508758544921875</LatitudeDegrees>
              <LongitudeDegrees>20.23541956208646297454833984375</LongitudeDegrees>
            </Position>
            <AltitudeMeters>531.5999755859375</AltitudeMeters>
            <DistanceMeters>NAN</DistanceMeters>
          </Trackpoint>
          <Trackpoint>
            <Time>2022-09-20T11:03:19.000Z</Time>
            <Position>
              <LatitudeDegrees>49.43972672335803508758544921875</LatitudeDegrees>
              <LongitudeDegrees>20.23541956208646297454833984375</LongitudeDegrees>
            </Position>
            <AltitudeMeters>531.20001220703125</AltitudeMeters>
            <DistanceMeters>NAN</DistanceMeters>
          </Trackpoint>
          <Trackpoint>
            <Time>2022-09-20T11:03:26.000Z</Time>
            <Position>
              <LatitudeDegrees>49.43972672335803508758544921875</LatitudeDegrees>
              <LongitudeDegrees>20.23541956208646297454833984375</LongitudeDegrees>
            </Position>
            <AltitudeMeters>531.4000244140625</AltitudeMeters>
            <DistanceMeters>NAN</DistanceMeters>
          </Trackpoint>
          <Trackpoint>
            <Time>2022-09-20T11:03:44.000Z</Time>
            <Position>
              <LatitudeDegrees>49.43972672335803508758544921875</LatitudeDegrees>
              <LongitudeDegrees>20.23541956208646297454833984375</LongitudeDegrees>
            </Position>
            <AltitudeMeters>531.20001220703125</AltitudeMeters>
            <DistanceMeters>NAN</DistanceMeters>
          </Trackpoint>
          <Trackpoint>
            <Time>2022-09-20T11:03:47.000Z</Time>
            <Position>
              <LatitudeDegrees>49.43972672335803508758544921875</LatitudeDegrees>
              <LongitudeDegrees>20.23541956208646297454833984375</LongitudeDegrees>
            </Position>
            <AltitudeMeters>531.4000244140625</AltitudeMeters>
            <DistanceMeters>NAN</DistanceMeters>
          </Trackpoint>
          <Trackpoint>
            <Time>2022-09-20T11:03:49.000Z</Time>
            <Position>
              <LatitudeDegrees>49.43972672335803508758544921875</LatitudeDegrees>
              <LongitudeDegrees>20.23541956208646297454833984375</LongitudeDegrees>
            </Position>
            <AltitudeMeters>531.4000244140625</AltitudeMeters>
            <DistanceMeters>NAN</DistanceMeters>
          </Trackpoint>
          <Trackpoint>
            <Time>2022-09-20T11:03:55.000Z</Time>
            <Position>
              <LatitudeDegrees>49.43972446024417877197265625</LatitudeDegrees>
              <LongitudeDegrees>20.235422663390636444091796875</LongitudeDegrees>
            </Position>
            <AltitudeMeters>531.5999755859375</AltitudeMeters>
            <DistanceMeters>NAN</DistanceMeters>
          </Trackpoint>
          <Trackpoint>
            <Time>2022-09-20T11:03:58.000Z</Time>
            <Position>
              <LatitudeDegrees>49.43968045525252819061279296875</LatitudeDegrees>
              <LongitudeDegrees>20.235491059720516204833984375</LongitudeDegrees>
            </Position>
            <AltitudeMeters>531.79998779296875</AltitudeMeters>
            <DistanceMeters>NAN</DistanceMeters>
          </Trackpoint>
          <Trackpoint>
            <Time>2022-09-20T11:04:01.000Z</Time>
            <Position>
              <LatitudeDegrees>49.43963753990828990936279296875</LatitudeDegrees>
              <LongitudeDegrees>20.23557730950415134429931640625</LongitudeDegrees>
            </Position>
            <AltitudeMeters>532</AltitudeMeters>
            <DistanceMeters>NAN</DistanceMeters>
          </Trackpoint>
          <Trackpoint>
            <Time>2022-09-20T11:04:02.000Z</Time>
            <Position>
              <LatitudeDegrees>49.439621530473232269287109375</LatitudeDegrees>
              <LongitudeDegrees>20.2356107532978057861328125</LongitudeDegrees>
            </Position>
            <AltitudeMeters>532</AltitudeMeters>
            <DistanceMeters>NAN</DistanceMeters>
          </Trackpoint>
          <Trackpoint>
            <Time>2022-09-20T11:04:03.000Z</Time>
            <Position>
              <LatitudeDegrees>49.43960702978074550628662109375</LatitudeDegrees>
              <LongitudeDegrees>20.2356467954814434051513671875</LongitudeDegrees>
            </Position>
            <AltitudeMeters>532</AltitudeMeters>
            <DistanceMeters>NAN</DistanceMeters>
          </Trackpoint>
          <Trackpoint>
            <Time>2022-09-20T11:04:04.000Z</Time>
            <Position>
              <LatitudeDegrees>49.439589343965053558349609375</LatitudeDegrees>
              <LongitudeDegrees>20.2356779761612415313720703125</LongitudeDegrees>
            </Position>
            <AltitudeMeters>532.20001220703125</AltitudeMeters>
            <DistanceMeters>NAN</DistanceMeters>
          </Trackpoint>
          <Trackpoint>
            <Time>2022-09-20T11:04:10.000Z</Time>
            <Position>
              <LatitudeDegrees>49.43949068896472454071044921875</LatitudeDegrees>
              <LongitudeDegrees>20.23588660173118114471435546875</LongitudeDegrees>
            </Position>
            <AltitudeMeters>533.20001220703125</AltitudeMeters>
            <DistanceMeters>NAN</DistanceMeters>
          </Trackpoint>
          <Trackpoint>
            <Time>2022-09-20T11:04:11.000Z</Time>
            <Position>
              <LatitudeDegrees>49.43948029540479183197021484375</LatitudeDegrees>
              <LongitudeDegrees>20.235914178192615509033203125</LongitudeDegrees>
            </Position>
            <AltitudeMeters>533.4000244140625</AltitudeMeters>
            <DistanceMeters>NAN</DistanceMeters>
          </Trackpoint>
          <Trackpoint>
            <Time>2022-09-20T11:04:17.000Z</Time>
            <Position>
              <LatitudeDegrees>49.439394883811473846435546875</LatitudeDegrees>
              <LongitudeDegrees>20.2361118234694004058837890625</LongitudeDegrees>
            </Position>
            <AltitudeMeters>534.20001220703125</AltitudeMeters>
            <DistanceMeters>NAN</DistanceMeters>
          </Trackpoint>
          <Trackpoint>
            <Time>2022-09-20T11:04:18.000Z</Time>
            <Position>
              <LatitudeDegrees>49.439379461109638214111328125</LatitudeDegrees>
              <LongitudeDegrees>20.23615398444235324859619140625</LongitudeDegrees>
            </Position>
            <AltitudeMeters>534.4000244140625</AltitudeMeters>
            <DistanceMeters>NAN</DistanceMeters>
          </Trackpoint>
          <Trackpoint>
            <Time>2022-09-20T11:04:21.000Z</Time>
            <Position>
              <LatitudeDegrees>49.43933076225221157073974609375</LatitudeDegrees>
              <LongitudeDegrees>20.2362573333084583282470703125</LongitudeDegrees>
            </Position>
            <AltitudeMeters>534.5999755859375</AltitudeMeters>
            <DistanceMeters>NAN</DistanceMeters>
          </Trackpoint>
          <Trackpoint>
            <Time>2022-09-20T11:04:24.000Z</Time>
            <Position>
              <LatitudeDegrees>49.43928499706089496612548828125</LatitudeDegrees>
              <LongitudeDegrees>20.23635498248040676116943359375</LongitudeDegrees>
            </Position>
            <AltitudeMeters>534.79998779296875</AltitudeMeters>
            <DistanceMeters>NAN</DistanceMeters>
          </Trackpoint>
          <Trackpoint>
            <Time>2022-09-20T11:04:27.000Z</Time>
            <Position>
              <LatitudeDegrees>49.4392423331737518310546875</LatitudeDegrees>
              <LongitudeDegrees>20.23645757697522640228271484375</LongitudeDegrees>
            </Position>
            <AltitudeMeters>535.20001220703125</AltitudeMeters>
            <DistanceMeters>NAN</DistanceMeters>
          </Trackpoint>
          <Trackpoint>
            <Time>2022-09-20T11:04:28.000Z</Time>
            <Position>
              <LatitudeDegrees>49.43922800011932849884033203125</LatitudeDegrees>
              <LongitudeDegrees>20.236490182578563690185546875</LongitudeDegrees>
            </Position>
            <AltitudeMeters>535.4000244140625</AltitudeMeters>
            <DistanceMeters>NAN</DistanceMeters>
          </Trackpoint>
          <Trackpoint>
            <Time>2022-09-20T11:04:29.000Z</Time>
            <Position>
              <LatitudeDegrees>49.43921484053134918212890625</LatitudeDegrees>
              <LongitudeDegrees>20.236526392400264739990234375</LongitudeDegrees>
            </Position>
            <AltitudeMeters>535.4000244140625</AltitudeMeters>
            <DistanceMeters>NAN</DistanceMeters>
          </Trackpoint>
          <Trackpoint>
            <Time>2022-09-20T11:04:34.000Z</Time>
            <Position>
              <LatitudeDegrees>49.43914518691599369049072265625</LatitudeDegrees>
              <LongitudeDegrees>20.2366861514747142791748046875</LongitudeDegrees>
            </Position>
            <AltitudeMeters>536</AltitudeMeters>
            <DistanceMeters>NAN</DistanceMeters>
          </Trackpoint>
          <Trackpoint>
            <Time>2022-09-20T11:04:37.000Z</Time>
            <Position>
              <LatitudeDegrees>49.4391082227230072021484375</LatitudeDegrees>
              <LongitudeDegrees>20.2367753349244594573974609375</LongitudeDegrees>
            </Position>
            <AltitudeMeters>536.4000244140625</AltitudeMeters>
            <DistanceMeters>NAN</DistanceMeters>
          </Trackpoint>
          <Trackpoint>
            <Time>2022-09-20T11:04:39.000Z</Time>
            <Position>
              <LatitudeDegrees>49.43907863460481166839599609375</LatitudeDegrees>
              <LongitudeDegrees>20.23682973347604274749755859375</LongitudeDegrees>
            </Position>
            <AltitudeMeters>536.5999755859375</AltitudeMeters>
            <DistanceMeters>NAN</DistanceMeters>
          </Trackpoint>
          <Trackpoint>
            <Time>2022-09-20T11:04:44.000Z</Time>
            <Position>
              <LatitudeDegrees>49.43901660852134227752685546875</LatitudeDegrees>
              <LongitudeDegrees>20.236969292163848876953125</LongitudeDegrees>
            </Position>
            <AltitudeMeters>537.20001220703125</AltitudeMeters>
            <DistanceMeters>NAN</DistanceMeters>
          </Trackpoint>
          <Trackpoint>
            <Time>2022-09-20T11:04:50.000Z</Time>
            <Position>
              <LatitudeDegrees>49.4389338791370391845703125</LatitudeDegrees>
              <LongitudeDegrees>20.23712444119155406951904296875</LongitudeDegrees>
            </Position>
            <AltitudeMeters>537.5999755859375</AltitudeMeters>
            <DistanceMeters>NAN</DistanceMeters>
          </Trackpoint>
          <Trackpoint>
            <Time>2022-09-20T11:04:53.000Z</Time>
            <Position>
              <LatitudeDegrees>49.43890194408595561981201171875</LatitudeDegrees>
              <LongitudeDegrees>20.2372068352997303009033203125</LongitudeDegrees>
            </Position>
            <AltitudeMeters>538</AltitudeMeters>
            <DistanceMeters>NAN</DistanceMeters>
          </Trackpoint>
          <Trackpoint>
            <Time>2022-09-20T11:04:58.000Z</Time>
            <Position>
              <LatitudeDegrees>49.43887227214872837066650390625</LatitudeDegrees>
              <LongitudeDegrees>20.23730398155748844146728515625</LongitudeDegrees>
            </Position>
            <AltitudeMeters>538.4000244140625</AltitudeMeters>
            <DistanceMeters>NAN</DistanceMeters>
          </Trackpoint>
          <Trackpoint>
            <Time>2022-09-20T11:05:00.000Z</Time>
            <Position>
              <LatitudeDegrees>49.43889976479113101959228515625</LatitudeDegrees>
              <LongitudeDegrees>20.23727665655314922332763671875</LongitudeDegrees>
            </Position>
            <AltitudeMeters>538.5999755859375</AltitudeMeters>
            <DistanceMeters>NAN</DistanceMeters>
          </Trackpoint>
          <Trackpoint>
            <Time>2022-09-20T11:05:01.000Z</Time>
            <Position>
              <LatitudeDegrees>49.43890730850398540496826171875</LatitudeDegrees>
              <LongitudeDegrees>20.23724530823528766632080078125</LongitudeDegrees>
            </Position>
            <AltitudeMeters>538.5999755859375</AltitudeMeters>
            <DistanceMeters>NAN</DistanceMeters>
          </Trackpoint>
          <Trackpoint>
            <Time>2022-09-20T11:05:06.000Z</Time>
            <Position>
              <LatitudeDegrees>49.43897805176675319671630859375</LatitudeDegrees>
              <LongitudeDegrees>20.2370717190206050872802734375</LongitudeDegrees>
            </Position>
            <AltitudeMeters>538.4000244140625</AltitudeMeters>
            <DistanceMeters>NAN</DistanceMeters>
          </Trackpoint>
          <Trackpoint>
            <Time>2022-09-20T11:05:10.000Z</Time>
            <Position>
              <LatitudeDegrees>49.4390725158154964447021484375</LatitudeDegrees>
              <LongitudeDegrees>20.23684247396886348724365234375</LongitudeDegrees>
            </Position>
            <AltitudeMeters>537.5999755859375</AltitudeMeters>
            <DistanceMeters>NAN</DistanceMeters>
          </Trackpoint>
          <Trackpoint>
            <Time>2022-09-20T11:05:12.000Z</Time>
            <Position>
              <LatitudeDegrees>49.4391201250255107879638671875</LatitudeDegrees>
              <LongitudeDegrees>20.2367287315428256988525390625</LongitudeDegrees>
            </Position>
            <AltitudeMeters>537.20001220703125</AltitudeMeters>
            <DistanceMeters>NAN</DistanceMeters>
          </Trackpoint>
          <Trackpoint>
            <Time>2022-09-20T11:05:15.000Z</Time>
            <Position>
              <LatitudeDegrees>49.43920679390430450439453125</LatitudeDegrees>
              <LongitudeDegrees>20.236523710191249847412109375</LongitudeDegrees>
            </Position>
            <AltitudeMeters>536.5999755859375</AltitudeMeters>
            <DistanceMeters>NAN</DistanceMeters>
          </Trackpoint>
          <Trackpoint>
            <Time>2022-09-20T11:05:16.000Z</Time>
            <Position>
              <LatitudeDegrees>49.43923705257475376129150390625</LatitudeDegrees>
              <LongitudeDegrees>20.23645103909075260162353515625</LongitudeDegrees>
            </Position>
            <AltitudeMeters>536.4000244140625</AltitudeMeters>
            <DistanceMeters>NAN</DistanceMeters>
          </Trackpoint>
          <Trackpoint>
            <Time>2022-09-20T11:05:19.000Z</Time>
            <Position>
              <LatitudeDegrees>49.4393340311944484710693359375</LatitudeDegrees>
              <LongitudeDegrees>20.23622858338057994842529296875</LongitudeDegrees>
            </Position>
            <AltitudeMeters>535.79998779296875</AltitudeMeters>
            <DistanceMeters>NAN</DistanceMeters>
          </Trackpoint>
          <Trackpoint>
            <Time>2022-09-20T11:05:22.000Z</Time>
            <Position>
              <LatitudeDegrees>49.43944710306823253631591796875</LatitudeDegrees>
              <LongitudeDegrees>20.2359877713024616241455078125</LongitudeDegrees>
            </Position>
            <AltitudeMeters>535</AltitudeMeters>
            <DistanceMeters>NAN</DistanceMeters>
          </Trackpoint>
          <Trackpoint>
            <Time>2022-09-20T11:05:25.000Z</Time>
            <Position>
              <LatitudeDegrees>49.43955606780946254730224609375</LatitudeDegrees>
              <LongitudeDegrees>20.23575986735522747039794921875</LongitudeDegrees>
            </Position>
            <AltitudeMeters>534.20001220703125</AltitudeMeters>
            <DistanceMeters>NAN</DistanceMeters>
          </Trackpoint>
          <Trackpoint>
            <Time>2022-09-20T11:05:26.000Z</Time>
            <Position>
              <LatitudeDegrees>49.43955606780946254730224609375</LatitudeDegrees>
              <LongitudeDegrees>20.23575986735522747039794921875</LongitudeDegrees>
            </Position>
            <AltitudeMeters>533.5999755859375</AltitudeMeters>
            <DistanceMeters>NAN</DistanceMeters>
          </Trackpoint>
          <Trackpoint>
            <Time>2022-09-20T11:05:29.000Z</Time>
            <Position>
              <LatitudeDegrees>49.43972923792898654937744140625</LatitudeDegrees>
              <LongitudeDegrees>20.2354895509779453277587890625</LongitudeDegrees>
            </Position>
            <AltitudeMeters>532.4000244140625</AltitudeMeters>
            <DistanceMeters>NAN</DistanceMeters>
          </Trackpoint>
          <Trackpoint>
            <Time>2022-09-20T11:05:31.000Z</Time>
            <Position>
              <LatitudeDegrees>49.439834095537662506103515625</LatitudeDegrees>
              <LongitudeDegrees>20.2353639900684356689453125</LongitudeDegrees>
            </Position>
            <AltitudeMeters>531.79998779296875</AltitudeMeters>
            <DistanceMeters>NAN</DistanceMeters>
          </Trackpoint>
          <Trackpoint>
            <Time>2022-09-20T11:05:32.000Z</Time>
            <Position>
              <LatitudeDegrees>49.43989201448857784271240234375</LatitudeDegrees>
              <LongitudeDegrees>20.23530975915491580963134765625</LongitudeDegrees>
            </Position>
            <AltitudeMeters>531.5999755859375</AltitudeMeters>
            <DistanceMeters>NAN</DistanceMeters>
          </Trackpoint>
          <Trackpoint>
            <Time>2022-09-20T11:05:34.000Z</Time>
            <Position>
              <LatitudeDegrees>49.440028555691242218017578125</LatitudeDegrees>
              <LongitudeDegrees>20.2352028898894786834716796875</LongitudeDegrees>
            </Position>
            <AltitudeMeters>531.20001220703125</AltitudeMeters>
            <DistanceMeters>NAN</DistanceMeters>
          </Trackpoint>
          <Trackpoint>
            <Time>2022-09-20T11:05:38.000Z</Time>
            <Position>
              <LatitudeDegrees>49.44026534445583820343017578125</LatitudeDegrees>
              <LongitudeDegrees>20.235064923763275146484375</LongitudeDegrees>
            </Position>
            <AltitudeMeters>530.20001220703125</AltitudeMeters>
            <DistanceMeters>NAN</DistanceMeters>
          </Trackpoint>
          <Trackpoint>
            <Time>2022-09-20T11:05:41.000Z</Time>
            <Position>
              <LatitudeDegrees>49.440433569252490997314453125</LatitudeDegrees>
              <LongitudeDegrees>20.23499828763306140899658203125</LongitudeDegrees>
            </Position>
            <AltitudeMeters>529.5999755859375</AltitudeMeters>
            <DistanceMeters>NAN</DistanceMeters>
          </Trackpoint>
          <Trackpoint>
            <Time>2022-09-20T11:05:43.000Z</Time>
            <Position>
              <LatitudeDegrees>49.4405111856758594512939453125</LatitudeDegrees>
              <LongitudeDegrees>20.2349911630153656005859375</LongitudeDegrees>
            </Position>
            <AltitudeMeters>529.20001220703125</AltitudeMeters>
            <DistanceMeters>NAN</DistanceMeters>
          </Trackpoint>
          <Trackpoint>
            <Time>2022-09-20T11:05:45.000Z</Time>
            <Position>
              <LatitudeDegrees>49.44055250845849514007568359375</LatitudeDegrees>
              <LongitudeDegrees>20.23499694652855396270751953125</LongitudeDegrees>
            </Position>
            <AltitudeMeters>529</AltitudeMeters>
            <DistanceMeters>NAN</DistanceMeters>
          </Trackpoint>
          <Trackpoint>
            <Time>2022-09-20T11:05:46.000Z</Time>
            <Position>
              <LatitudeDegrees>49.44057069718837738037109375</LatitudeDegrees>
              <LongitudeDegrees>20.2350131236016750335693359375</LongitudeDegrees>
            </Position>
            <AltitudeMeters>529</AltitudeMeters>
            <DistanceMeters>NAN</DistanceMeters>
          </Trackpoint>
          <Trackpoint>
            <Time>2022-09-20T11:05:49.000Z</Time>
            <Position>
              <LatitudeDegrees>49.44059726782143115997314453125</LatitudeDegrees>
              <LongitudeDegrees>20.2350600622594356536865234375</LongitudeDegrees>
            </Position>
            <AltitudeMeters>528.5999755859375</AltitudeMeters>
            <DistanceMeters>NAN</DistanceMeters>
          </Trackpoint>
          <Trackpoint>
            <Time>2022-09-20T11:05:51.000Z</Time>
            <Position>
              <LatitudeDegrees>49.44059726782143115997314453125</LatitudeDegrees>
              <LongitudeDegrees>20.2350600622594356536865234375</LongitudeDegrees>
            </Position>
            <AltitudeMeters>528.4000244140625</AltitudeMeters>
            <DistanceMeters>NAN</DistanceMeters>
          </Trackpoint>
          <Trackpoint>
            <Time>2022-09-20T11:05:57.000Z</Time>
            <Position>
              <LatitudeDegrees>49.4405993632972240447998046875</LatitudeDegrees>
              <LongitudeDegrees>20.2350865490734577178955078125</LongitudeDegrees>
            </Position>
            <AltitudeMeters>528.4000244140625</AltitudeMeters>
            <DistanceMeters>NAN</DistanceMeters>
          </Trackpoint>
          <Trackpoint>
            <Time>2022-09-20T11:05:59.000Z</Time>
            <Position>
              <LatitudeDegrees>49.44061704911291599273681640625</LatitudeDegrees>
              <LongitudeDegrees>20.23513457737863063812255859375</LongitudeDegrees>
            </Position>
            <AltitudeMeters>528.20001220703125</AltitudeMeters>
            <DistanceMeters>NAN</DistanceMeters>
          </Trackpoint>
          <Trackpoint>
            <Time>2022-09-20T11:06:00.000Z</Time>
            <Position>
              <LatitudeDegrees>49.44062928669154644012451171875</LatitudeDegrees>
              <LongitudeDegrees>20.235159136354923248291015625</LongitudeDegrees>
            </Position>
            <AltitudeMeters>528</AltitudeMeters>
            <DistanceMeters>NAN</DistanceMeters>
          </Trackpoint>
          <Trackpoint>
            <Time>2022-09-20T11:06:01.000Z</Time>
            <Position>
              <LatitudeDegrees>49.44064873270690441131591796875</LatitudeDegrees>
              <LongitudeDegrees>20.2351958490908145904541015625</LongitudeDegrees>
            </Position>
            <AltitudeMeters>528</AltitudeMeters>
            <DistanceMeters>NAN</DistanceMeters>
          </Trackpoint>
          <Trackpoint>
            <Time>2022-09-20T11:06:03.000Z</Time>
            <Position>
              <LatitudeDegrees>49.44070187397301197052001953125</LatitudeDegrees>
              <LongitudeDegrees>20.23528578691184520721435546875</LongitudeDegrees>
            </Position>
            <AltitudeMeters>527.4000244140625</AltitudeMeters>
            <DistanceMeters>NAN</DistanceMeters>
          </Trackpoint>
          <Trackpoint>
            <Time>2022-09-20T11:06:05.000Z</Time>
            <Position>
              <LatitudeDegrees>49.4407703541219234466552734375</LatitudeDegrees>
              <LongitudeDegrees>20.2353896386921405792236328125</LongitudeDegrees>
            </Position>
            <AltitudeMeters>526.79998779296875</AltitudeMeters>
            <DistanceMeters>NAN</DistanceMeters>
          </Trackpoint>
          <Trackpoint>
            <Time>2022-09-20T11:06:08.000Z</Time>
            <Position>
              <LatitudeDegrees>49.44090270437300205230712890625</LatitudeDegrees>
              <LongitudeDegrees>20.2355978451669216156005859375</LongitudeDegrees>
            </Position>
            <AltitudeMeters>525.5999755859375</AltitudeMeters>
            <DistanceMeters>NAN</DistanceMeters>
          </Trackpoint>
          <Trackpoint>
            <Time>2022-09-20T11:06:10.000Z</Time>
            <Position>
              <LatitudeDegrees>49.440999515354633331298828125</LatitudeDegrees>
              <LongitudeDegrees>20.23573455400764942169189453125</LongitudeDegrees>
            </Position>
            <AltitudeMeters>524.5999755859375</AltitudeMeters>
            <DistanceMeters>NAN</DistanceMeters>
          </Trackpoint>
          <Trackpoint>
            <Time>2022-09-20T11:06:11.000Z</Time>
            <Position>
              <LatitudeDegrees>49.44103949703276157379150390625</LatitudeDegrees>
              <LongitudeDegrees>20.2357919700443744659423828125</LongitudeDegrees>
            </Position>
            <AltitudeMeters>524.4000244140625</AltitudeMeters>
            <DistanceMeters>NAN</DistanceMeters>
          </Trackpoint>
          <Trackpoint>
            <Time>2022-09-20T11:06:16.000Z</Time>
            <Position>
              <LatitudeDegrees>49.44126673042774200439453125</LatitudeDegrees>
              <LongitudeDegrees>20.236178375780582427978515625</LongitudeDegrees>
            </Position>
            <AltitudeMeters>523</AltitudeMeters>
            <DistanceMeters>NAN</DistanceMeters>
          </Trackpoint>
          <Trackpoint>
            <Time>2022-09-20T11:06:17.000Z</Time>
            <Position>
              <LatitudeDegrees>49.44131509400904178619384765625</LatitudeDegrees>
              <LongitudeDegrees>20.23627552203834056854248046875</LongitudeDegrees>
            </Position>
            <AltitudeMeters>522.4000244140625</AltitudeMeters>
            <DistanceMeters>NAN</DistanceMeters>
          </Trackpoint>
          <Trackpoint>
            <Time>2022-09-20T11:06:20.000Z</Time>
            <Position>
              <LatitudeDegrees>49.441418945789337158203125</LatitudeDegrees>
              <LongitudeDegrees>20.23652614094316959381103515625</LongitudeDegrees>
            </Position>
            <AltitudeMeters>521.79998779296875</AltitudeMeters>
            <DistanceMeters>NAN</DistanceMeters>
          </Trackpoint>
          <Trackpoint>
            <Time>2022-09-20T11:06:24.000Z</Time>
            <Position>
              <LatitudeDegrees>49.44154291413724422454833984375</LatitudeDegrees>
              <LongitudeDegrees>20.2368899993598461151123046875</LongitudeDegrees>
            </Position>
            <AltitudeMeters>521.5999755859375</AltitudeMeters>
            <DistanceMeters>NAN</DistanceMeters>
          </Trackpoint>
          <Trackpoint>
            <Time>2022-09-20T11:06:28.000Z</Time>
            <Position>
              <LatitudeDegrees>49.44167040288448333740234375</LatitudeDegrees>
              <LongitudeDegrees>20.2372361719608306884765625</LongitudeDegrees>
            </Position>
            <AltitudeMeters>520.5999755859375</AltitudeMeters>
            <DistanceMeters>NAN</DistanceMeters>
          </Trackpoint>
          <Trackpoint>
            <Time>2022-09-20T11:06:33.000Z</Time>
            <Position>
              <LatitudeDegrees>49.441844411194324493408203125</LatitudeDegrees>
              <LongitudeDegrees>20.237694494426250457763671875</LongitudeDegrees>
            </Position>
            <AltitudeMeters>519.79998779296875</AltitudeMeters>
            <DistanceMeters>NAN</DistanceMeters>
          </Trackpoint>
          <Trackpoint>
            <Time>2022-09-20T11:06:35.000Z</Time>
            <Position>
              <LatitudeDegrees>49.44190643727779388427734375</LatitudeDegrees>
              <LongitudeDegrees>20.23785450495779514312744140625</LongitudeDegrees>
            </Position>
            <AltitudeMeters>519.5999755859375</AltitudeMeters>
            <DistanceMeters>NAN</DistanceMeters>
          </Trackpoint>
          <Trackpoint>
            <Time>2022-09-20T11:06:38.000Z</Time>
            <Position>
              <LatitudeDegrees>49.4420051760971546173095703125</LatitudeDegrees>
              <LongitudeDegrees>20.23813999257981777191162109375</LongitudeDegrees>
            </Position>
            <AltitudeMeters>519.4000244140625</AltitudeMeters>
            <DistanceMeters>NAN</DistanceMeters>
          </Trackpoint>
          <Trackpoint>
            <Time>2022-09-20T11:06:41.000Z</Time>
            <Position>
              <LatitudeDegrees>49.4420921802520751953125</LatitudeDegrees>
              <LongitudeDegrees>20.23838407360017299652099609375</LongitudeDegrees>
            </Position>
            <AltitudeMeters>519.20001220703125</AltitudeMeters>
            <DistanceMeters>NAN</DistanceMeters>
          </Trackpoint>
          <Trackpoint>
            <Time>2022-09-20T11:06:43.000Z</Time>
            <Position>
              <LatitudeDegrees>49.44215194322168827056884765625</LatitudeDegrees>
              <LongitudeDegrees>20.23856646381318569183349609375</LongitudeDegrees>
            </Position>
            <AltitudeMeters>517.79998779296875</AltitudeMeters>
            <DistanceMeters>NAN</DistanceMeters>
          </Trackpoint>
          <Trackpoint>
            <Time>2022-09-20T11:06:47.000Z</Time>
            <Position>
              <LatitudeDegrees>49.4422375224530696868896484375</LatitudeDegrees>
              <LongitudeDegrees>20.23878984153270721435546875</LongitudeDegrees>
            </Position>
            <AltitudeMeters>518</AltitudeMeters>
            <DistanceMeters>NAN</DistanceMeters>
          </Trackpoint>
          <Trackpoint>
            <Time>2022-09-20T11:06:53.000Z</Time>
            <Position>
              <LatitudeDegrees>49.4423927552998065948486328125</LatitudeDegrees>
              <LongitudeDegrees>20.2392530255019664764404296875</LongitudeDegrees>
            </Position>
            <AltitudeMeters>518.4000244140625</AltitudeMeters>
            <DistanceMeters>NAN</DistanceMeters>
          </Trackpoint>
          <Trackpoint>
            <Time>2022-09-20T11:06:55.000Z</Time>
            <Position>
              <LatitudeDegrees>49.44241630844771862030029296875</LatitudeDegrees>
              <LongitudeDegrees>20.239389650523662567138671875</LongitudeDegrees>
            </Position>
            <AltitudeMeters>518.4000244140625</AltitudeMeters>
            <DistanceMeters>NAN</DistanceMeters>
          </Trackpoint>
          <Trackpoint>
            <Time>2022-09-20T11:06:59.000Z</Time>
            <Position>
              <LatitudeDegrees>49.44245972670614719390869140625</LatitudeDegrees>
              <LongitudeDegrees>20.2396796643733978271484375</LongitudeDegrees>
            </Position>
            <AltitudeMeters>518.5999755859375</AltitudeMeters>
            <DistanceMeters>NAN</DistanceMeters>
          </Trackpoint>
          <Trackpoint>
            <Time>2022-09-20T11:07:02.000Z</Time>
            <Position>
              <LatitudeDegrees>49.44248889572918415069580078125</LatitudeDegrees>
              <LongitudeDegrees>20.23989449255168437957763671875</LongitudeDegrees>
            </Position>
            <AltitudeMeters>518.79998779296875</AltitudeMeters>
            <DistanceMeters>NAN</DistanceMeters>
          </Trackpoint>
          <Trackpoint>
            <Time>2022-09-20T11:07:03.000Z</Time>
            <Position>
              <LatitudeDegrees>49.44249627180397510528564453125</LatitudeDegrees>
              <LongitudeDegrees>20.23996640928089618682861328125</LongitudeDegrees>
            </Position>
            <AltitudeMeters>518.79998779296875</AltitudeMeters>
            <DistanceMeters>NAN</DistanceMeters>
          </Trackpoint>
          <Trackpoint>
            <Time>2022-09-20T11:07:05.000Z</Time>
            <Position>
              <LatitudeDegrees>49.44249652326107025146484375</LatitudeDegrees>
              <LongitudeDegrees>20.240105129778385162353515625</LongitudeDegrees>
            </Position>
            <AltitudeMeters>519</AltitudeMeters>
            <DistanceMeters>NAN</DistanceMeters>
          </Trackpoint>
          <Trackpoint>
            <Time>2022-09-20T11:07:07.000Z</Time>
            <Position>
              <LatitudeDegrees>49.4424742273986339569091796875</LatitudeDegrees>
              <LongitudeDegrees>20.2402357198297977447509765625</LongitudeDegrees>
            </Position>
            <AltitudeMeters>519.4000244140625</AltitudeMeters>
            <DistanceMeters>NAN</DistanceMeters>
          </Trackpoint>
          <Trackpoint>
            <Time>2022-09-20T11:07:09.000Z</Time>
            <Position>
              <LatitudeDegrees>49.44244229234755039215087890625</LatitudeDegrees>
              <LongitudeDegrees>20.24034543894231319427490234375</LongitudeDegrees>
            </Position>
            <AltitudeMeters>519.79998779296875</AltitudeMeters>
            <DistanceMeters>NAN</DistanceMeters>
          </Trackpoint>
          <Trackpoint>
            <Time>2022-09-20T11:07:10.000Z</Time>
            <Position>
              <LatitudeDegrees>49.44243122823536396026611328125</LatitudeDegrees>
              <LongitudeDegrees>20.24039304815232753753662109375</LongitudeDegrees>
            </Position>
            <AltitudeMeters>520.20001220703125</AltitudeMeters>
            <DistanceMeters>NAN</DistanceMeters>
          </Trackpoint>
          <Trackpoint>
            <Time>2022-09-20T11:07:13.000Z</Time>
            <Position>
              <LatitudeDegrees>49.44238965399563312530517578125</LatitudeDegrees>
              <LongitudeDegrees>20.24055381305515766143798828125</LongitudeDegrees>
            </Position>
            <AltitudeMeters>521</AltitudeMeters>
            <DistanceMeters>NAN</DistanceMeters>
          </Trackpoint>
          <Trackpoint>
            <Time>2022-09-20T11:07:15.000Z</Time>
            <Position>
              <LatitudeDegrees>49.44236601702868938446044921875</LatitudeDegrees>
              <LongitudeDegrees>20.240657664835453033447265625</LongitudeDegrees>
            </Position>
            <AltitudeMeters>521.20001220703125</AltitudeMeters>
            <DistanceMeters>NAN</DistanceMeters>
          </Trackpoint>
          <Trackpoint>
            <Time>2022-09-20T11:07:23.000Z</Time>
            <Position>
              <LatitudeDegrees>49.44229979999363422393798828125</LatitudeDegrees>
              <LongitudeDegrees>20.2410625107586383819580078125</LongitudeDegrees>
            </Position>
            <AltitudeMeters>522</AltitudeMeters>
            <DistanceMeters>NAN</DistanceMeters>
          </Trackpoint>
          <Trackpoint>
            <Time>2022-09-20T11:07:29.000Z</Time>
            <Position>
              <LatitudeDegrees>49.4422579742968082427978515625</LatitudeDegrees>
              <LongitudeDegrees>20.241292007267475128173828125</LongitudeDegrees>
            </Position>
            <AltitudeMeters>523.20001220703125</AltitudeMeters>
            <DistanceMeters>NAN</DistanceMeters>
          </Trackpoint>
          <Trackpoint>
            <Time>2022-09-20T11:07:37.000Z</Time>
            <Position>
              <LatitudeDegrees>49.442202486097812652587890625</LatitudeDegrees>
              <LongitudeDegrees>20.24159216322004795074462890625</LongitudeDegrees>
            </Position>
            <AltitudeMeters>524</AltitudeMeters>
            <DistanceMeters>NAN</DistanceMeters>
          </Trackpoint>
          <Trackpoint>
            <Time>2022-09-20T11:07:41.000Z</Time>
            <Position>
              <LatitudeDegrees>49.4421734847128391265869140625</LatitudeDegrees>
              <LongitudeDegrees>20.24174924008548259735107421875</LongitudeDegrees>
            </Position>
            <AltitudeMeters>524</AltitudeMeters>
            <DistanceMeters>NAN</DistanceMeters>
          </Trackpoint>
          <Trackpoint>
            <Time>2022-09-20T11:07:42.000Z</Time>
            <Position>
              <LatitudeDegrees>49.442164935171604156494140625</LatitudeDegrees>
              <LongitudeDegrees>20.24179114960134029388427734375</LongitudeDegrees>
            </Position>
            <AltitudeMeters>524</AltitudeMeters>
            <DistanceMeters>NAN</DistanceMeters>
          </Trackpoint>
          <Trackpoint>
            <Time>2022-09-20T11:07:46.000Z</Time>
            <Position>
              <LatitudeDegrees>49.44211833178997039794921875</LatitudeDegrees>
              <LongitudeDegrees>20.2419555187225341796875</LongitudeDegrees>
            </Position>
            <AltitudeMeters>524.20001220703125</AltitudeMeters>
            <DistanceMeters>NAN</DistanceMeters>
          </Trackpoint>
          <Trackpoint>
            <Time>2022-09-20T11:07:47.000Z</Time>
            <Position>
              <LatitudeDegrees>49.44210332818329334259033203125</LatitudeDegrees>
              <LongitudeDegrees>20.24199751205742359161376953125</LongitudeDegrees>
            </Position>
            <AltitudeMeters>524.20001220703125</AltitudeMeters>
            <DistanceMeters>NAN</DistanceMeters>
          </Trackpoint>
          <Trackpoint>
            <Time>2022-09-20T11:07:51.000Z</Time>
            <Position>
              <LatitudeDegrees>49.44205395877361297607421875</LatitudeDegrees>
              <LongitudeDegrees>20.24216766469180583953857421875</LongitudeDegrees>
            </Position>
            <AltitudeMeters>524.4000244140625</AltitudeMeters>
            <DistanceMeters>NAN</DistanceMeters>
          </Trackpoint>
          <Trackpoint>
            <Time>2022-09-20T11:07:55.000Z</Time>
            <Position>
              <LatitudeDegrees>49.4420108757913112640380859375</LatitudeDegrees>
              <LongitudeDegrees>20.24234712123870849609375</LongitudeDegrees>
            </Position>
            <AltitudeMeters>524.4000244140625</AltitudeMeters>
            <DistanceMeters>NAN</DistanceMeters>
          </Trackpoint>
          <Trackpoint>
            <Time>2022-09-20T11:08:02.000Z</Time>
            <Position>
              <LatitudeDegrees>49.4419428147375583648681640625</LatitudeDegrees>
              <LongitudeDegrees>20.2426649630069732666015625</LongitudeDegrees>
            </Position>
            <AltitudeMeters>524</AltitudeMeters>
            <DistanceMeters>NAN</DistanceMeters>
          </Trackpoint>
          <Trackpoint>
            <Time>2022-09-20T11:08:04.000Z</Time>
            <Position>
              <LatitudeDegrees>49.44191859103739261627197265625</LatitudeDegrees>
              <LongitudeDegrees>20.24277132935822010040283203125</LongitudeDegrees>
            </Position>
            <AltitudeMeters>524</AltitudeMeters>
            <DistanceMeters>NAN</DistanceMeters>
          </Trackpoint>
          <Trackpoint>
            <Time>2022-09-20T11:08:09.000Z</Time>
            <Position>
              <LatitudeDegrees>49.441865868866443634033203125</LatitudeDegrees>
              <LongitudeDegrees>20.24302295409142971038818359375</LongitudeDegrees>
            </Position>
            <AltitudeMeters>524</AltitudeMeters>
            <DistanceMeters>NAN</DistanceMeters>
          </Trackpoint>
          <Trackpoint>
            <Time>2022-09-20T11:08:11.000Z</Time>
            <Position>
              <LatitudeDegrees>49.4418462552130222320556640625</LatitudeDegrees>
              <LongitudeDegrees>20.2431194297969341278076171875</LongitudeDegrees>
            </Position>
            <AltitudeMeters>524</AltitudeMeters>
            <DistanceMeters>NAN</DistanceMeters>
          </Trackpoint>
          <Trackpoint>
            <Time>2022-09-20T11:08:21.000Z</Time>
            <Position>
              <LatitudeDegrees>49.44172245450317859649658203125</LatitudeDegrees>
              <LongitudeDegrees>20.24368847720324993133544921875</LongitudeDegrees>
            </Position>
            <AltitudeMeters>523.79998779296875</AltitudeMeters>
            <DistanceMeters>NAN</DistanceMeters>
          </Trackpoint>
          <Trackpoint>
            <Time>2022-09-20T11:08:28.000Z</Time>
            <Position>
              <LatitudeDegrees>49.4416563212871551513671875</LatitudeDegrees>
              <LongitudeDegrees>20.244142524898052215576171875</LongitudeDegrees>
            </Position>
            <AltitudeMeters>523.5999755859375</AltitudeMeters>
            <DistanceMeters>NAN</DistanceMeters>
          </Trackpoint>
          <Trackpoint>
            <Time>2022-09-20T11:08:29.000Z</Time>
            <Position>
              <LatitudeDegrees>49.44164567627012729644775390625</LatitudeDegrees>
              <LongitudeDegrees>20.24421184323728084564208984375</LongitudeDegrees>
            </Position>
            <AltitudeMeters>523.5999755859375</AltitudeMeters>
            <DistanceMeters>NAN</DistanceMeters>
          </Trackpoint>
          <Trackpoint>
            <Time>2022-09-20T11:08:38.000Z</Time>
            <Position>
              <LatitudeDegrees>49.4415545649826526641845703125</LatitudeDegrees>
              <LongitudeDegrees>20.24478130973875522613525390625</LongitudeDegrees>
            </Position>
            <AltitudeMeters>523.79998779296875</AltitudeMeters>
            <DistanceMeters>NAN</DistanceMeters>
          </Trackpoint>
          <Trackpoint>
            <Time>2022-09-20T11:08:47.000Z</Time>
            <Position>
              <LatitudeDegrees>49.441434033215045928955078125</LatitudeDegrees>
              <LongitudeDegrees>20.24537868797779083251953125</LongitudeDegrees>
            </Position>
            <AltitudeMeters>524</AltitudeMeters>
            <DistanceMeters>NAN</DistanceMeters>
          </Trackpoint>
          <Trackpoint>
            <Time>2022-09-20T11:08:53.000Z</Time>
            <Position>
              <LatitudeDegrees>49.4413560815155506134033203125</LatitudeDegrees>
              <LongitudeDegrees>20.245735086500644683837890625</LongitudeDegrees>
            </Position>
            <AltitudeMeters>524</AltitudeMeters>
            <DistanceMeters>NAN</DistanceMeters>
          </Trackpoint>
          <Trackpoint>
            <Time>2022-09-20T11:08:54.000Z</Time>
            <Position>
              <LatitudeDegrees>49.44134007208049297332763671875</LatitudeDegrees>
              <LongitudeDegrees>20.24578780867159366607666015625</LongitudeDegrees>
            </Position>
            <AltitudeMeters>524</AltitudeMeters>
            <DistanceMeters>NAN</DistanceMeters>
          </Trackpoint>
          <Trackpoint>
            <Time>2022-09-20T11:09:01.000Z</Time>
            <Position>
              <LatitudeDegrees>49.44126002490520477294921875</LatitudeDegrees>
              <LongitudeDegrees>20.2461858652532100677490234375</LongitudeDegrees>
            </Position>
            <AltitudeMeters>523.5999755859375</AltitudeMeters>
            <DistanceMeters>NAN</DistanceMeters>
          </Trackpoint>
          <Trackpoint>
            <Time>2022-09-20T11:09:12.000Z</Time>
            <Position>
              <LatitudeDegrees>49.441173188388347625732421875</LatitudeDegrees>
              <LongitudeDegrees>20.24685381911695003509521484375</LongitudeDegrees>
            </Position>
            <AltitudeMeters>523.79998779296875</AltitudeMeters>
            <DistanceMeters>NAN</DistanceMeters>
          </Trackpoint>
          <Trackpoint>
            <Time>2022-09-20T11:09:16.000Z</Time>
            <Position>
              <LatitudeDegrees>49.44114812649786472320556640625</LatitudeDegrees>
              <LongitudeDegrees>20.2470941282808780670166015625</LongitudeDegrees>
            </Position>
            <AltitudeMeters>523.79998779296875</AltitudeMeters>
            <DistanceMeters>NAN</DistanceMeters>
          </Trackpoint>
          <Trackpoint>
            <Time>2022-09-20T11:09:21.000Z</Time>
            <Position>
              <LatitudeDegrees>49.4411126710474491119384765625</LatitudeDegrees>
              <LongitudeDegrees>20.24742060340940952301025390625</LongitudeDegrees>
            </Position>
            <AltitudeMeters>524</AltitudeMeters>
            <DistanceMeters>NAN</DistanceMeters>
          </Trackpoint>
          <Trackpoint>
            <Time>2022-09-20T11:09:26.000Z</Time>
            <Position>
              <LatitudeDegrees>49.44107470102608203887939453125</LatitudeDegrees>
              <LongitudeDegrees>20.2477566339075565338134765625</LongitudeDegrees>
            </Position>
            <AltitudeMeters>524</AltitudeMeters>
            <DistanceMeters>NAN</DistanceMeters>
          </Trackpoint>
          <Trackpoint>
            <Time>2022-09-20T11:09:29.000Z</Time>
            <Position>
              <LatitudeDegrees>49.4410555064678192138671875</LatitudeDegrees>
              <LongitudeDegrees>20.24792871437966823577880859375</LongitudeDegrees>
            </Position>
            <AltitudeMeters>523.79998779296875</AltitudeMeters>
            <DistanceMeters>NAN</DistanceMeters>
          </Trackpoint>
          <Trackpoint>
            <Time>2022-09-20T11:09:35.000Z</Time>
            <Position>
              <LatitudeDegrees>49.44101485423743724822998046875</LatitudeDegrees>
              <LongitudeDegrees>20.24823792278766632080078125</LongitudeDegrees>
            </Position>
            <AltitudeMeters>524</AltitudeMeters>
            <DistanceMeters>NAN</DistanceMeters>
          </Trackpoint>
          <Trackpoint>
            <Time>2022-09-20T11:09:44.000Z</Time>
            <Position>
              <LatitudeDegrees>49.44093681871891021728515625</LatitudeDegrees>
              <LongitudeDegrees>20.2487272582948207855224609375</LongitudeDegrees>
            </Position>
            <AltitudeMeters>523.4000244140625</AltitudeMeters>
            <DistanceMeters>NAN</DistanceMeters>
          </Trackpoint>
          <Trackpoint>
            <Time>2022-09-20T11:09:48.000Z</Time>
            <Position>
              <LatitudeDegrees>49.440897591412067413330078125</LatitudeDegrees>
              <LongitudeDegrees>20.24901534430682659149169921875</LongitudeDegrees>
            </Position>
            <AltitudeMeters>523.20001220703125</AltitudeMeters>
            <DistanceMeters>NAN</DistanceMeters>
          </Trackpoint>
          <Trackpoint>
            <Time>2022-09-20T11:09:49.000Z</Time>
            <Position>
              <LatitudeDegrees>49.44088853895664215087890625</LatitudeDegrees>
              <LongitudeDegrees>20.249102599918842315673828125</LongitudeDegrees>
            </Position>
            <AltitudeMeters>522.79998779296875</AltitudeMeters>
            <DistanceMeters>NAN</DistanceMeters>
          </Trackpoint>
          <Trackpoint>
            <Time>2022-09-20T11:09:50.000Z</Time>
            <Position>
              <LatitudeDegrees>49.44087588228285312652587890625</LatitudeDegrees>
              <LongitudeDegrees>20.24919019080698490142822265625</LongitudeDegrees>
            </Position>
            <AltitudeMeters>522.5999755859375</AltitudeMeters>
            <DistanceMeters>NAN</DistanceMeters>
          </Trackpoint>
          <Trackpoint>
            <Time>2022-09-20T11:09:54.000Z</Time>
            <Position>
              <LatitudeDegrees>49.44079524837434291839599609375</LatitudeDegrees>
              <LongitudeDegrees>20.24948070757091045379638671875</LongitudeDegrees>
            </Position>
            <AltitudeMeters>522.20001220703125</AltitudeMeters>
            <DistanceMeters>NAN</DistanceMeters>
          </Trackpoint>
          <Trackpoint>
            <Time>2022-09-20T11:09:59.000Z</Time>
            <Position>
              <LatitudeDegrees>49.44069483317434787750244140625</LatitudeDegrees>
              <LongitudeDegrees>20.2497166581451892852783203125</LongitudeDegrees>
            </Position>
            <AltitudeMeters>523.20001220703125</AltitudeMeters>
            <DistanceMeters>NAN</DistanceMeters>
          </Trackpoint>
          <Trackpoint>
            <Time>2022-09-20T11:10:06.000Z</Time>
            <Position>
              <LatitudeDegrees>49.440559633076190948486328125</LatitudeDegrees>
              <LongitudeDegrees>20.25001077912747859954833984375</LongitudeDegrees>
            </Position>
            <AltitudeMeters>523.79998779296875</AltitudeMeters>
            <DistanceMeters>NAN</DistanceMeters>
          </Trackpoint>
          <Trackpoint>
            <Time>2022-09-20T11:10:09.000Z</Time>
            <Position>
              <LatitudeDegrees>49.44051680155098438262939453125</LatitudeDegrees>
              <LongitudeDegrees>20.25014170445501804351806640625</LongitudeDegrees>
            </Position>
            <AltitudeMeters>524.20001220703125</AltitudeMeters>
            <DistanceMeters>NAN</DistanceMeters>
          </Trackpoint>
          <Trackpoint>
            <Time>2022-09-20T11:10:10.000Z</Time>
            <Position>
              <LatitudeDegrees>49.4404997862875461578369140625</LatitudeDegrees>
              <LongitudeDegrees>20.25017053820192813873291015625</LongitudeDegrees>
            </Position>
            <AltitudeMeters>524.4000244140625</AltitudeMeters>
            <DistanceMeters>NAN</DistanceMeters>
          </Trackpoint>
          <Trackpoint>
            <Time>2022-09-20T11:10:14.000Z</Time>
            <Position>
              <LatitudeDegrees>49.44041068665683269500732421875</LatitudeDegrees>
              <LongitudeDegrees>20.25031370110809803009033203125</LongitudeDegrees>
            </Position>
            <AltitudeMeters>524.79998779296875</AltitudeMeters>
            <DistanceMeters>NAN</DistanceMeters>
          </Trackpoint>
          <Trackpoint>
            <Time>2022-09-20T11:10:15.000Z</Time>
            <Position>
              <LatitudeDegrees>49.4403918273746967315673828125</LatitudeDegrees>
              <LongitudeDegrees>20.25035024620592594146728515625</LongitudeDegrees>
            </Position>
            <AltitudeMeters>525</AltitudeMeters>
            <DistanceMeters>NAN</DistanceMeters>
          </Trackpoint>
          <Trackpoint>
            <Time>2022-09-20T11:10:19.000Z</Time>
            <Position>
              <LatitudeDegrees>49.44032669998705387115478515625</LatitudeDegrees>
              <LongitudeDegrees>20.25050195865333080291748046875</LongitudeDegrees>
            </Position>
            <AltitudeMeters>525.20001220703125</AltitudeMeters>
            <DistanceMeters>NAN</DistanceMeters>
          </Trackpoint>
          <Trackpoint>
            <Time>2022-09-20T11:10:21.000Z</Time>
            <Position>
              <LatitudeDegrees>49.44030323065817356109619140625</LatitudeDegrees>
              <LongitudeDegrees>20.25058376602828502655029296875</LongitudeDegrees>
            </Position>
            <AltitudeMeters>525.4000244140625</AltitudeMeters>
            <DistanceMeters>NAN</DistanceMeters>
          </Trackpoint>
          <Trackpoint>
            <Time>2022-09-20T11:10:24.000Z</Time>
            <Position>
              <LatitudeDegrees>49.4402734749019145965576171875</LatitudeDegrees>
              <LongitudeDegrees>20.2507114224135875701904296875</LongitudeDegrees>
            </Position>
            <AltitudeMeters>525.5999755859375</AltitudeMeters>
            <DistanceMeters>NAN</DistanceMeters>
          </Trackpoint>
          <Trackpoint>
            <Time>2022-09-20T11:10:27.000Z</Time>
            <Position>
              <LatitudeDegrees>49.44025025703012943267822265625</LatitudeDegrees>
              <LongitudeDegrees>20.250847376883029937744140625</LongitudeDegrees>
            </Position>
            <AltitudeMeters>525.5999755859375</AltitudeMeters>
            <DistanceMeters>NAN</DistanceMeters>
          </Trackpoint>
          <Trackpoint>
            <Time>2022-09-20T11:10:30.000Z</Time>
            <Position>
              <LatitudeDegrees>49.440223686397075653076171875</LatitudeDegrees>
              <LongitudeDegrees>20.2510477043688297271728515625</LongitudeDegrees>
            </Position>
            <AltitudeMeters>525</AltitudeMeters>
            <DistanceMeters>NAN</DistanceMeters>
          </Trackpoint>
          <Trackpoint>
            <Time>2022-09-20T11:10:31.000Z</Time>
            <Position>
              <LatitudeDegrees>49.44020801223814487457275390625</LatitudeDegrees>
              <LongitudeDegrees>20.2511338703334331512451171875</LongitudeDegrees>
            </Position>
            <AltitudeMeters>524.5999755859375</AltitudeMeters>
            <DistanceMeters>NAN</DistanceMeters>
          </Trackpoint>
          <Trackpoint>
            <Time>2022-09-20T11:10:32.000Z</Time>
            <Position>
              <LatitudeDegrees>49.4401819445192813873291015625</LatitudeDegrees>
              <LongitudeDegrees>20.25124141015112400054931640625</LongitudeDegrees>
            </Position>
            <AltitudeMeters>524</AltitudeMeters>
            <DistanceMeters>NAN</DistanceMeters>
          </Trackpoint>
          <Trackpoint>
            <Time>2022-09-20T11:10:35.000Z</Time>
            <Position>
              <LatitudeDegrees>49.440082870423793792724609375</LatitudeDegrees>
              <LongitudeDegrees>20.2515241317451000213623046875</LongitudeDegrees>
            </Position>
            <AltitudeMeters>522.5999755859375</AltitudeMeters>
            <DistanceMeters>NAN</DistanceMeters>
          </Trackpoint>
          <Trackpoint>
            <Time>2022-09-20T11:10:36.000Z</Time>
            <Position>
              <LatitudeDegrees>49.440040625631809234619140625</LatitudeDegrees>
              <LongitudeDegrees>20.2516548894345760345458984375</LongitudeDegrees>
            </Position>
            <AltitudeMeters>521.5999755859375</AltitudeMeters>
            <DistanceMeters>NAN</DistanceMeters>
          </Trackpoint>
          <Trackpoint>
            <Time>2022-09-20T11:10:37.000Z</Time>
            <Position>
              <LatitudeDegrees>49.44002411328256130218505859375</LatitudeDegrees>
              <LongitudeDegrees>20.2517675422132015228271484375</LongitudeDegrees>
            </Position>
            <AltitudeMeters>521.20001220703125</AltitudeMeters>
            <DistanceMeters>NAN</DistanceMeters>
          </Trackpoint>
          <Trackpoint>
            <Time>2022-09-20T11:10:38.000Z</Time>
            <Position>
              <LatitudeDegrees>49.44003182463347911834716796875</LatitudeDegrees>
              <LongitudeDegrees>20.251884721219539642333984375</LongitudeDegrees>
            </Position>
            <AltitudeMeters>520.79998779296875</AltitudeMeters>
            <DistanceMeters>NAN</DistanceMeters>
          </Trackpoint>
          <Trackpoint>
            <Time>2022-09-20T11:10:40.000Z</Time>
            <Position>
              <LatitudeDegrees>49.44002629257738590240478515625</LatitudeDegrees>
              <LongitudeDegrees>20.25208597071468830108642578125</LongitudeDegrees>
            </Position>
            <AltitudeMeters>520.20001220703125</AltitudeMeters>
            <DistanceMeters>NAN</DistanceMeters>
          </Trackpoint>
          <Trackpoint>
            <Time>2022-09-20T11:10:41.000Z</Time>
            <Position>
              <LatitudeDegrees>49.4400121271610260009765625</LatitudeDegrees>
              <LongitudeDegrees>20.2521916665136814117431640625</LongitudeDegrees>
            </Position>
            <AltitudeMeters>520</AltitudeMeters>
            <DistanceMeters>NAN</DistanceMeters>
          </Trackpoint>
          <Trackpoint>
            <Time>2022-09-20T11:10:42.000Z</Time>
            <Position>
              <LatitudeDegrees>49.439991675317287445068359375</LatitudeDegrees>
              <LongitudeDegrees>20.2523143775761127471923828125</LongitudeDegrees>
            </Position>
            <AltitudeMeters>519.79998779296875</AltitudeMeters>
            <DistanceMeters>NAN</DistanceMeters>
          </Trackpoint>
          <Trackpoint>
            <Time>2022-09-20T11:10:43.000Z</Time>
            <Position>
              <LatitudeDegrees>49.43997901864349842071533203125</LatitudeDegrees>
              <LongitudeDegrees>20.25241353549063205718994140625</LongitudeDegrees>
            </Position>
            <AltitudeMeters>519.79998779296875</AltitudeMeters>
            <DistanceMeters>NAN</DistanceMeters>
          </Trackpoint>
          <Trackpoint>
            <Time>2022-09-20T11:10:45.000Z</Time>
            <Position>
              <LatitudeDegrees>49.43996577523648738861083984375</LatitudeDegrees>
              <LongitudeDegrees>20.25257907807826995849609375</LongitudeDegrees>
            </Position>
            <AltitudeMeters>519.5999755859375</AltitudeMeters>
            <DistanceMeters>NAN</DistanceMeters>
          </Trackpoint>
          <Trackpoint>
            <Time>2022-09-20T11:10:46.000Z</Time>
            <Position>
              <LatitudeDegrees>49.43995521403849124908447265625</LatitudeDegrees>
              <LongitudeDegrees>20.2526603825390338897705078125</LongitudeDegrees>
            </Position>
            <AltitudeMeters>519.5999755859375</AltitudeMeters>
            <DistanceMeters>NAN</DistanceMeters>
          </Trackpoint>
          <Trackpoint>
            <Time>2022-09-20T11:10:47.000Z</Time>
            <Position>
              <LatitudeDegrees>49.43994213826954364776611328125</LatitudeDegrees>
              <LongitudeDegrees>20.25273422710597515106201171875</LongitudeDegrees>
            </Position>
            <AltitudeMeters>520</AltitudeMeters>
            <DistanceMeters>NAN</DistanceMeters>
          </Trackpoint>
          <Trackpoint>
            <Time>2022-09-20T11:10:51.000Z</Time>
            <Position>
              <LatitudeDegrees>49.43989218212664127349853515625</LatitudeDegrees>
              <LongitudeDegrees>20.2530241571366786956787109375</LongitudeDegrees>
            </Position>
            <AltitudeMeters>520.4000244140625</AltitudeMeters>
            <DistanceMeters>NAN</DistanceMeters>
          </Trackpoint>
          <Trackpoint>
            <Time>2022-09-20T11:10:52.000Z</Time>
            <Position>
              <LatitudeDegrees>49.4398701377213001251220703125</LatitudeDegrees>
              <LongitudeDegrees>20.253100097179412841796875</LongitudeDegrees>
            </Position>
            <AltitudeMeters>520.4000244140625</AltitudeMeters>
            <DistanceMeters>NAN</DistanceMeters>
          </Trackpoint>
          <Trackpoint>
            <Time>2022-09-20T11:10:59.000Z</Time>
            <Position>
              <LatitudeDegrees>49.4397269748151302337646484375</LatitudeDegrees>
              <LongitudeDegrees>20.25352816097438335418701171875</LongitudeDegrees>
            </Position>
            <AltitudeMeters>520.79998779296875</AltitudeMeters>
            <DistanceMeters>NAN</DistanceMeters>
          </Trackpoint>
          <Trackpoint>
            <Time>2022-09-20T11:11:00.000Z</Time>
            <Position>
              <LatitudeDegrees>49.4397031702101230621337890625</LatitudeDegrees>
              <LongitudeDegrees>20.25357996113598346710205078125</LongitudeDegrees>
            </Position>
            <AltitudeMeters>521</AltitudeMeters>
            <DistanceMeters>NAN</DistanceMeters>
          </Trackpoint>
          <Trackpoint>
            <Time>2022-09-20T11:11:01.000Z</Time>
            <Position>
              <LatitudeDegrees>49.439678527414798736572265625</LatitudeDegrees>
              <LongitudeDegrees>20.25363276712596416473388671875</LongitudeDegrees>
            </Position>
            <AltitudeMeters>521.4000244140625</AltitudeMeters>
            <DistanceMeters>NAN</DistanceMeters>
          </Trackpoint>
          <Trackpoint>
            <Time>2022-09-20T11:11:02.000Z</Time>
            <Position>
              <LatitudeDegrees>49.43965497426688671112060546875</LatitudeDegrees>
              <LongitudeDegrees>20.25369822978973388671875</LongitudeDegrees>
            </Position>
            <AltitudeMeters>521.5999755859375</AltitudeMeters>
            <DistanceMeters>NAN</DistanceMeters>
          </Trackpoint>
          <Trackpoint>
            <Time>2022-09-20T11:11:03.000Z</Time>
            <Position>
              <LatitudeDegrees>49.43964223377406597137451171875</LatitudeDegrees>
              <LongitudeDegrees>20.253754891455173492431640625</LongitudeDegrees>
            </Position>
            <AltitudeMeters>522.20001220703125</AltitudeMeters>
            <DistanceMeters>NAN</DistanceMeters>
          </Trackpoint>
          <Trackpoint>
            <Time>2022-09-20T11:11:04.000Z</Time>
            <Position>
              <LatitudeDegrees>49.43962387740612030029296875</LatitudeDegrees>
              <LongitudeDegrees>20.25380887091159820556640625</LongitudeDegrees>
            </Position>
            <AltitudeMeters>522.5999755859375</AltitudeMeters>
            <DistanceMeters>NAN</DistanceMeters>
          </Trackpoint>
          <Trackpoint>
            <Time>2022-09-20T11:11:06.000Z</Time>
            <Position>
              <LatitudeDegrees>49.43959495984017848968505859375</LatitudeDegrees>
              <LongitudeDegrees>20.2538945339620113372802734375</LongitudeDegrees>
            </Position>
            <AltitudeMeters>523.20001220703125</AltitudeMeters>
            <DistanceMeters>NAN</DistanceMeters>
          </Trackpoint>
          <Trackpoint>
            <Time>2022-09-20T11:11:09.000Z</Time>
            <Position>
              <LatitudeDegrees>49.4395405612885951995849609375</LatitudeDegrees>
              <LongitudeDegrees>20.2540195919573307037353515625</LongitudeDegrees>
            </Position>
            <AltitudeMeters>523.79998779296875</AltitudeMeters>
            <DistanceMeters>NAN</DistanceMeters>
          </Trackpoint>
          <Trackpoint>
            <Time>2022-09-20T11:11:10.000Z</Time>
            <Position>
              <LatitudeDegrees>49.43952673114836215972900390625</LatitudeDegrees>
              <LongitudeDegrees>20.254068039357662200927734375</LongitudeDegrees>
            </Position>
            <AltitudeMeters>524</AltitudeMeters>
            <DistanceMeters>NAN</DistanceMeters>
          </Trackpoint>
          <Trackpoint>
            <Time>2022-09-20T11:11:12.000Z</Time>
            <Position>
              <LatitudeDegrees>49.4394942931830883026123046875</LatitudeDegrees>
              <LongitudeDegrees>20.25418840348720550537109375</LongitudeDegrees>
            </Position>
            <AltitudeMeters>524.4000244140625</AltitudeMeters>
            <DistanceMeters>NAN</DistanceMeters>
          </Trackpoint>
          <Trackpoint>
            <Time>2022-09-20T11:11:13.000Z</Time>
            <Position>
              <LatitudeDegrees>49.439478032290935516357421875</LatitudeDegrees>
              <LongitudeDegrees>20.2542428858578205108642578125</LongitudeDegrees>
            </Position>
            <AltitudeMeters>524.5999755859375</AltitudeMeters>
            <DistanceMeters>NAN</DistanceMeters>
          </Trackpoint>
          <Trackpoint>
            <Time>2022-09-20T11:11:15.000Z</Time>
            <Position>
              <LatitudeDegrees>49.43944559432566165924072265625</LatitudeDegrees>
              <LongitudeDegrees>20.25433324277400970458984375</LongitudeDegrees>
            </Position>
            <AltitudeMeters>524.79998779296875</AltitudeMeters>
            <DistanceMeters>NAN</DistanceMeters>
          </Trackpoint>
          <Trackpoint>
            <Time>2022-09-20T11:11:16.000Z</Time>
            <Position>
              <LatitudeDegrees>49.43943352438509464263916015625</LatitudeDegrees>
              <LongitudeDegrees>20.2543773315846920013427734375</LongitudeDegrees>
            </Position>
            <AltitudeMeters>525</AltitudeMeters>
            <DistanceMeters>NAN</DistanceMeters>
          </Trackpoint>
          <Trackpoint>
            <Time>2022-09-20T11:11:20.000Z</Time>
            <Position>
              <LatitudeDegrees>49.43935574032366275787353515625</LatitudeDegrees>
              <LongitudeDegrees>20.2546167187392711639404296875</LongitudeDegrees>
            </Position>
            <AltitudeMeters>525</AltitudeMeters>
            <DistanceMeters>NAN</DistanceMeters>
          </Trackpoint>
          <Trackpoint>
            <Time>2022-09-20T11:11:21.000Z</Time>
            <Position>
              <LatitudeDegrees>49.43935699760913848876953125</LatitudeDegrees>
              <LongitudeDegrees>20.2547146193683147430419921875</LongitudeDegrees>
            </Position>
            <AltitudeMeters>525</AltitudeMeters>
            <DistanceMeters>NAN</DistanceMeters>
          </Trackpoint>
          <Trackpoint>
            <Time>2022-09-20T11:11:22.000Z</Time>
            <Position>
              <LatitudeDegrees>49.43934551440179347991943359375</LatitudeDegrees>
              <LongitudeDegrees>20.25479349307715892791748046875</LongitudeDegrees>
            </Position>
            <AltitudeMeters>525</AltitudeMeters>
            <DistanceMeters>NAN</DistanceMeters>
          </Trackpoint>
          <Trackpoint>
            <Time>2022-09-20T11:11:23.000Z</Time>
            <Position>
              <LatitudeDegrees>49.4393236376345157623291015625</LatitudeDegrees>
              <LongitudeDegrees>20.2548715285956859588623046875</LongitudeDegrees>
            </Position>
            <AltitudeMeters>525.20001220703125</AltitudeMeters>
            <DistanceMeters>NAN</DistanceMeters>
          </Trackpoint>
          <Trackpoint>
            <Time>2022-09-20T11:11:26.000Z</Time>
            <Position>
              <LatitudeDegrees>49.439321123063564300537109375</LatitudeDegrees>
              <LongitudeDegrees>20.25504930876195430755615234375</LongitudeDegrees>
            </Position>
            <AltitudeMeters>526.20001220703125</AltitudeMeters>
            <DistanceMeters>NAN</DistanceMeters>
          </Trackpoint>
          <Trackpoint>
            <Time>2022-09-20T11:11:28.000Z</Time>
            <Position>
              <LatitudeDegrees>49.4393062032759189605712890625</LatitudeDegrees>
              <LongitudeDegrees>20.255154669284820556640625</LongitudeDegrees>
            </Position>
            <AltitudeMeters>526.5999755859375</AltitudeMeters>
            <DistanceMeters>NAN</DistanceMeters>
          </Trackpoint>
          <Trackpoint>
            <Time>2022-09-20T11:11:29.000Z</Time>
            <Position>
              <LatitudeDegrees>49.43929857574403285980224609375</LatitudeDegrees>
              <LongitudeDegrees>20.25519330985844135284423828125</LongitudeDegrees>
            </Position>
            <AltitudeMeters>526.79998779296875</AltitudeMeters>
            <DistanceMeters>NAN</DistanceMeters>
          </Trackpoint>
          <Trackpoint>
            <Time>2022-09-20T11:11:31.000Z</Time>
            <Position>
              <LatitudeDegrees>49.4392924569547176361083984375</LatitudeDegrees>
              <LongitudeDegrees>20.25524787604808807373046875</LongitudeDegrees>
            </Position>
            <AltitudeMeters>527.20001220703125</AltitudeMeters>
            <DistanceMeters>NAN</DistanceMeters>
          </Trackpoint>
          <Trackpoint>
            <Time>2022-09-20T11:11:38.000Z</Time>
            <Position>
              <LatitudeDegrees>49.439253397285938262939453125</LatitudeDegrees>
              <LongitudeDegrees>20.2554361335933208465576171875</LongitudeDegrees>
            </Position>
            <AltitudeMeters>527.79998779296875</AltitudeMeters>
            <DistanceMeters>NAN</DistanceMeters>
          </Trackpoint>
          <Trackpoint>
            <Time>2022-09-20T11:11:46.000Z</Time>
            <Position>
              <LatitudeDegrees>49.4391154311597347259521484375</LatitudeDegrees>
              <LongitudeDegrees>20.25576881133019924163818359375</LongitudeDegrees>
            </Position>
            <AltitudeMeters>527.5999755859375</AltitudeMeters>
            <DistanceMeters>NAN</DistanceMeters>
          </Trackpoint>
          <Trackpoint>
            <Time>2022-09-20T11:11:47.000Z</Time>
            <Position>
              <LatitudeDegrees>49.43909070454537868499755859375</LatitudeDegrees>
              <LongitudeDegrees>20.25585405528545379638671875</LongitudeDegrees>
            </Position>
            <AltitudeMeters>527.4000244140625</AltitudeMeters>
            <DistanceMeters>NAN</DistanceMeters>
          </Trackpoint>
          <Trackpoint>
            <Time>2022-09-20T11:11:49.000Z</Time>
            <Position>
              <LatitudeDegrees>49.43905449472367763519287109375</LatitudeDegrees>
              <LongitudeDegrees>20.256007276475429534912109375</LongitudeDegrees>
            </Position>
            <AltitudeMeters>526.20001220703125</AltitudeMeters>
            <DistanceMeters>NAN</DistanceMeters>
          </Trackpoint>
          <Trackpoint>
            <Time>2022-09-20T11:11:50.000Z</Time>
            <Position>
              <LatitudeDegrees>49.4390383176505565643310546875</LatitudeDegrees>
              <LongitudeDegrees>20.25609771721065044403076171875</LongitudeDegrees>
            </Position>
            <AltitudeMeters>525.79998779296875</AltitudeMeters>
            <DistanceMeters>NAN</DistanceMeters>
          </Trackpoint>
          <Trackpoint>
            <Time>2022-09-20T11:11:53.000Z</Time>
            <Position>
              <LatitudeDegrees>49.43897754885256290435791015625</LatitudeDegrees>
              <LongitudeDegrees>20.2563477493822574615478515625</LongitudeDegrees>
            </Position>
            <AltitudeMeters>525</AltitudeMeters>
            <DistanceMeters>NAN</DistanceMeters>
          </Trackpoint>
          <Trackpoint>
            <Time>2022-09-20T11:11:54.000Z</Time>
            <Position>
              <LatitudeDegrees>49.43896078504621982574462890625</LatitudeDegrees>
              <LongitudeDegrees>20.25642008520662784576416015625</LongitudeDegrees>
            </Position>
            <AltitudeMeters>525</AltitudeMeters>
            <DistanceMeters>NAN</DistanceMeters>
          </Trackpoint>
          <Trackpoint>
            <Time>2022-09-20T11:11:55.000Z</Time>
            <Position>
              <LatitudeDegrees>49.43894167430698871612548828125</LatitudeDegrees>
              <LongitudeDegrees>20.25647490285336971282958984375</LongitudeDegrees>
            </Position>
            <AltitudeMeters>525</AltitudeMeters>
            <DistanceMeters>NAN</DistanceMeters>
          </Trackpoint>
          <Trackpoint>
            <Time>2022-09-20T11:11:56.000Z</Time>
            <Position>
              <LatitudeDegrees>49.43892382085323333740234375</LatitudeDegrees>
              <LongitudeDegrees>20.25653944350779056549072265625</LongitudeDegrees>
            </Position>
            <AltitudeMeters>525</AltitudeMeters>
            <DistanceMeters>NAN</DistanceMeters>
          </Trackpoint>
          <Trackpoint>
            <Time>2022-09-20T11:11:59.000Z</Time>
            <Position>
              <LatitudeDegrees>49.4388716854155063629150390625</LatitudeDegrees>
              <LongitudeDegrees>20.256699621677398681640625</LongitudeDegrees>
            </Position>
            <AltitudeMeters>526.4000244140625</AltitudeMeters>
            <DistanceMeters>NAN</DistanceMeters>
          </Trackpoint>
          <Trackpoint>
            <Time>2022-09-20T11:12:01.000Z</Time>
            <Position>
              <LatitudeDegrees>49.4388508982956409454345703125</LatitudeDegrees>
              <LongitudeDegrees>20.2567841112613677978515625</LongitudeDegrees>
            </Position>
            <AltitudeMeters>527.4000244140625</AltitudeMeters>
            <DistanceMeters>NAN</DistanceMeters>
          </Trackpoint>
          <Trackpoint>
            <Time>2022-09-20T11:12:02.000Z</Time>
            <Position>
              <LatitudeDegrees>49.43884762935340404510498046875</LatitudeDegrees>
              <LongitudeDegrees>20.25680833496153354644775390625</LongitudeDegrees>
            </Position>
            <AltitudeMeters>527.79998779296875</AltitudeMeters>
            <DistanceMeters>NAN</DistanceMeters>
          </Trackpoint>
          <Trackpoint>
            <Time>2022-09-20T11:12:05.000Z</Time>
            <Position>
              <LatitudeDegrees>49.4388478808104991912841796875</LatitudeDegrees>
              <LongitudeDegrees>20.25683700107038021087646484375</LongitudeDegrees>
            </Position>
            <AltitudeMeters>528.5999755859375</AltitudeMeters>
            <DistanceMeters>NAN</DistanceMeters>
          </Trackpoint>
          <Trackpoint>
            <Time>2022-09-20T11:12:06.000Z</Time>
            <Position>
              <LatitudeDegrees>49.4388472102582454681396484375</LatitudeDegrees>
              <LongitudeDegrees>20.2568456344306468963623046875</LongitudeDegrees>
            </Position>
            <AltitudeMeters>528.79998779296875</AltitudeMeters>
            <DistanceMeters>NAN</DistanceMeters>
          </Trackpoint>
          <Trackpoint>
            <Time>2022-09-20T11:12:13.000Z</Time>
            <Position>
              <LatitudeDegrees>49.4388381578028202056884765625</LatitudeDegrees>
              <LongitudeDegrees>20.256899781525135040283203125</LongitudeDegrees>
            </Position>
            <AltitudeMeters>529.20001220703125</AltitudeMeters>
            <DistanceMeters>NAN</DistanceMeters>
          </Trackpoint>
          <Trackpoint>
            <Time>2022-09-20T11:12:14.000Z</Time>
            <Position>
              <LatitudeDegrees>49.438832961022853851318359375</LatitudeDegrees>
              <LongitudeDegrees>20.25691344402730464935302734375</LongitudeDegrees>
            </Position>
            <AltitudeMeters>529.20001220703125</AltitudeMeters>
            <DistanceMeters>NAN</DistanceMeters>
          </Trackpoint>
          <Trackpoint>
            <Time>2022-09-20T11:12:16.000Z</Time>
            <Position>
              <LatitudeDegrees>49.438837654888629913330078125</LatitudeDegrees>
              <LongitudeDegrees>20.25694931857287883758544921875</LongitudeDegrees>
            </Position>
            <AltitudeMeters>529.20001220703125</AltitudeMeters>
            <DistanceMeters>NAN</DistanceMeters>
          </Trackpoint>
          <Trackpoint>
            <Time>2022-09-20T11:12:19.000Z</Time>
            <Position>
              <LatitudeDegrees>49.438854753971099853515625</LatitudeDegrees>
              <LongitudeDegrees>20.257020480930805206298828125</LongitudeDegrees>
            </Position>
            <AltitudeMeters>529.4000244140625</AltitudeMeters>
            <DistanceMeters>NAN</DistanceMeters>
          </Trackpoint>
          <Trackpoint>
            <Time>2022-09-20T11:12:22.000Z</Time>
            <Position>
              <LatitudeDegrees>49.4388488866388797760009765625</LatitudeDegrees>
              <LongitudeDegrees>20.25711536407470703125</LongitudeDegrees>
            </Position>
            <AltitudeMeters>529.5999755859375</AltitudeMeters>
            <DistanceMeters>NAN</DistanceMeters>
          </Trackpoint>
          <Trackpoint>
            <Time>2022-09-20T11:12:25.000Z</Time>
            <Position>
              <LatitudeDegrees>49.4388143531978130340576171875</LatitudeDegrees>
              <LongitudeDegrees>20.25724721141159534454345703125</LongitudeDegrees>
            </Position>
            <AltitudeMeters>529.5999755859375</AltitudeMeters>
            <DistanceMeters>NAN</DistanceMeters>
          </Trackpoint>
          <Trackpoint>
            <Time>2022-09-20T11:12:29.000Z</Time>
            <Position>
              <LatitudeDegrees>49.43873665295541286468505859375</LatitudeDegrees>
              <LongitudeDegrees>20.25745675899088382720947265625</LongitudeDegrees>
            </Position>
            <AltitudeMeters>529</AltitudeMeters>
            <DistanceMeters>NAN</DistanceMeters>
          </Trackpoint>
          <Trackpoint>
            <Time>2022-09-20T11:12:30.000Z</Time>
            <Position>
              <LatitudeDegrees>49.4386933185160160064697265625</LatitudeDegrees>
              <LongitudeDegrees>20.25752515532076358795166015625</LongitudeDegrees>
            </Position>
            <AltitudeMeters>528.79998779296875</AltitudeMeters>
            <DistanceMeters>NAN</DistanceMeters>
          </Trackpoint>
          <Trackpoint>
            <Time>2022-09-20T11:12:31.000Z</Time>
            <Position>
              <LatitudeDegrees>49.4386390037834644317626953125</LatitudeDegrees>
              <LongitudeDegrees>20.25762305594980716705322265625</LongitudeDegrees>
            </Position>
            <AltitudeMeters>528.4000244140625</AltitudeMeters>
            <DistanceMeters>NAN</DistanceMeters>
          </Trackpoint>
          <Trackpoint>
            <Time>2022-09-20T11:12:33.000Z</Time>
            <Position>
              <LatitudeDegrees>49.43852291442453861236572265625</LatitudeDegrees>
              <LongitudeDegrees>20.2577917836606502532958984375</LongitudeDegrees>
            </Position>
            <AltitudeMeters>527</AltitudeMeters>
            <DistanceMeters>NAN</DistanceMeters>
          </Trackpoint>
          <Trackpoint>
            <Time>2022-09-20T11:12:34.000Z</Time>
            <Position>
              <LatitudeDegrees>49.438431300222873687744140625</LatitudeDegrees>
              <LongitudeDegrees>20.257903598248958587646484375</LongitudeDegrees>
            </Position>
            <AltitudeMeters>525.79998779296875</AltitudeMeters>
            <DistanceMeters>NAN</DistanceMeters>
          </Trackpoint>
          <Trackpoint>
            <Time>2022-09-20T11:12:35.000Z</Time>
            <Position>
              <LatitudeDegrees>49.4383707828819751739501953125</LatitudeDegrees>
              <LongitudeDegrees>20.25798532180488109588623046875</LongitudeDegrees>
            </Position>
            <AltitudeMeters>524.4000244140625</AltitudeMeters>
            <DistanceMeters>NAN</DistanceMeters>
          </Trackpoint>
          <Trackpoint>
            <Time>2022-09-20T11:12:36.000Z</Time>
            <Position>
              <LatitudeDegrees>49.43827531300485134124755859375</LatitudeDegrees>
              <LongitudeDegrees>20.25810987688601016998291015625</LongitudeDegrees>
            </Position>
            <AltitudeMeters>523.20001220703125</AltitudeMeters>
            <DistanceMeters>NAN</DistanceMeters>
          </Trackpoint>
          <Trackpoint>
            <Time>2022-09-20T11:12:37.000Z</Time>
            <Position>
              <LatitudeDegrees>49.43821010179817676544189453125</LatitudeDegrees>
              <LongitudeDegrees>20.2582236193120479583740234375</LongitudeDegrees>
            </Position>
            <AltitudeMeters>522.4000244140625</AltitudeMeters>
            <DistanceMeters>NAN</DistanceMeters>
          </Trackpoint>
          <Trackpoint>
            <Time>2022-09-20T11:12:38.000Z</Time>
            <Position>
              <LatitudeDegrees>49.43815344013273715972900390625</LatitudeDegrees>
              <LongitudeDegrees>20.25833509862422943115234375</LongitudeDegrees>
            </Position>
            <AltitudeMeters>521.79998779296875</AltitudeMeters>
            <DistanceMeters>NAN</DistanceMeters>
          </Trackpoint>
          <Trackpoint>
            <Time>2022-09-20T11:12:39.000Z</Time>
            <Position>
              <LatitudeDegrees>49.4381065852940082550048828125</LatitudeDegrees>
              <LongitudeDegrees>20.25840542279183864593505859375</LongitudeDegrees>
            </Position>
            <AltitudeMeters>521.4000244140625</AltitudeMeters>
            <DistanceMeters>NAN</DistanceMeters>
          </Trackpoint>
          <Trackpoint>
            <Time>2022-09-20T11:12:40.000Z</Time>
            <Position>
              <LatitudeDegrees>49.43804615177214145660400390625</LatitudeDegrees>
              <LongitudeDegrees>20.258477590978145599365234375</LongitudeDegrees>
            </Position>
            <AltitudeMeters>521.4000244140625</AltitudeMeters>
            <DistanceMeters>NAN</DistanceMeters>
          </Trackpoint>
          <Trackpoint>
            <Time>2022-09-20T11:12:41.000Z</Time>
            <Position>
              <LatitudeDegrees>49.43797205574810504913330078125</LatitudeDegrees>
              <LongitudeDegrees>20.25853014551103115081787109375</LongitudeDegrees>
            </Position>
            <AltitudeMeters>521.5999755859375</AltitudeMeters>
            <DistanceMeters>NAN</DistanceMeters>
          </Trackpoint>
          <Trackpoint>
            <Time>2022-09-20T11:12:42.000Z</Time>
            <Position>
              <LatitudeDegrees>49.437914974987506866455078125</LatitudeDegrees>
              <LongitudeDegrees>20.25854087434709072113037109375</LongitudeDegrees>
            </Position>
            <AltitudeMeters>521.5999755859375</AltitudeMeters>
            <DistanceMeters>NAN</DistanceMeters>
          </Trackpoint>
          <Trackpoint>
            <Time>2022-09-20T11:12:43.000Z</Time>
            <Position>
              <LatitudeDegrees>49.437914974987506866455078125</LatitudeDegrees>
              <LongitudeDegrees>20.25854087434709072113037109375</LongitudeDegrees>
            </Position>
            <AltitudeMeters>522</AltitudeMeters>
            <DistanceMeters>NAN</DistanceMeters>
          </Trackpoint>
          <Trackpoint>
            <Time>2022-09-20T11:12:44.000Z</Time>
            <Position>
              <LatitudeDegrees>49.43780668079853057861328125</LatitudeDegrees>
              <LongitudeDegrees>20.2585216797888278961181640625</LongitudeDegrees>
            </Position>
            <AltitudeMeters>523</AltitudeMeters>
            <DistanceMeters>NAN</DistanceMeters>
          </Trackpoint>
          <Trackpoint>
            <Time>2022-09-20T11:12:46.000Z</Time>
            <Position>
              <LatitudeDegrees>49.4377364404499530792236328125</LatitudeDegrees>
              <LongitudeDegrees>20.2584834583103656768798828125</LongitudeDegrees>
            </Position>
            <AltitudeMeters>524.5999755859375</AltitudeMeters>
            <DistanceMeters>NAN</DistanceMeters>
          </Trackpoint>
          <Trackpoint>
            <Time>2022-09-20T11:12:50.000Z</Time>
            <Position>
              <LatitudeDegrees>49.4376412220299243927001953125</LatitudeDegrees>
              <LongitudeDegrees>20.2584495954215526580810546875</LongitudeDegrees>
            </Position>
            <AltitudeMeters>525.4000244140625</AltitudeMeters>
            <DistanceMeters>NAN</DistanceMeters>
          </Trackpoint>
          <Trackpoint>
            <Time>2022-09-20T11:12:51.000Z</Time>
            <Position>
              <LatitudeDegrees>49.437628649175167083740234375</LatitudeDegrees>
              <LongitudeDegrees>20.258443392813205718994140625</LongitudeDegrees>
            </Position>
            <AltitudeMeters>525.4000244140625</AltitudeMeters>
            <DistanceMeters>NAN</DistanceMeters>
          </Trackpoint>
          <Trackpoint>
            <Time>2022-09-20T11:12:54.000Z</Time>
            <Position>
              <LatitudeDegrees>49.4376264698803424835205078125</LatitudeDegrees>
              <LongitudeDegrees>20.25843794457614421844482421875</LongitudeDegrees>
            </Position>
            <AltitudeMeters>525.5999755859375</AltitudeMeters>
            <DistanceMeters>NAN</DistanceMeters>
          </Trackpoint>
          <Trackpoint>
            <Time>2022-09-20T11:12:56.000Z</Time>
            <Position>
              <LatitudeDegrees>49.4376264698803424835205078125</LatitudeDegrees>
              <LongitudeDegrees>20.25843794457614421844482421875</LongitudeDegrees>
            </Position>
            <AltitudeMeters>525.79998779296875</AltitudeMeters>
            <DistanceMeters>NAN</DistanceMeters>
          </Trackpoint>
          <Trackpoint>
            <Time>2022-09-20T11:13:03.000Z</Time>
            <Position>
              <LatitudeDegrees>49.4376264698803424835205078125</LatitudeDegrees>
              <LongitudeDegrees>20.25843794457614421844482421875</LongitudeDegrees>
            </Position>
            <AltitudeMeters>525.79998779296875</AltitudeMeters>
            <DistanceMeters>NAN</DistanceMeters>
          </Trackpoint>
          <Trackpoint>
            <Time>2022-09-20T11:13:06.000Z</Time>
            <Position>
              <LatitudeDegrees>49.4376264698803424835205078125</LatitudeDegrees>
              <LongitudeDegrees>20.25843794457614421844482421875</LongitudeDegrees>
            </Position>
            <AltitudeMeters>525.79998779296875</AltitudeMeters>
            <DistanceMeters>NAN</DistanceMeters>
          </Trackpoint>
          <Trackpoint>
            <Time>2022-09-20T11:13:19.000Z</Time>
            <Position>
              <LatitudeDegrees>49.43762294948101043701171875</LatitudeDegrees>
              <LongitudeDegrees>20.25844079442322254180908203125</LongitudeDegrees>
            </Position>
            <AltitudeMeters>525.79998779296875</AltitudeMeters>
            <DistanceMeters>NAN</DistanceMeters>
          </Trackpoint>
          <Trackpoint>
            <Time>2022-09-20T11:13:20.000Z</Time>
            <Position>
              <LatitudeDegrees>49.43761766888201236724853515625</LatitudeDegrees>
              <LongitudeDegrees>20.2584482543170452117919921875</LongitudeDegrees>
            </Position>
            <AltitudeMeters>525.79998779296875</AltitudeMeters>
            <DistanceMeters>NAN</DistanceMeters>
          </Trackpoint>
          <Trackpoint>
            <Time>2022-09-20T11:13:26.000Z</Time>
            <Position>
              <LatitudeDegrees>49.43761766888201236724853515625</LatitudeDegrees>
              <LongitudeDegrees>20.2584482543170452117919921875</LongitudeDegrees>
            </Position>
            <AltitudeMeters>525.79998779296875</AltitudeMeters>
            <DistanceMeters>NAN</DistanceMeters>
          </Trackpoint>
          <Trackpoint>
            <Time>2022-09-20T11:13:33.000Z</Time>
            <Position>
              <LatitudeDegrees>49.43761222064495086669921875</LatitudeDegrees>
              <LongitudeDegrees>20.258448757231235504150390625</LongitudeDegrees>
            </Position>
            <AltitudeMeters>525.79998779296875</AltitudeMeters>
            <DistanceMeters>NAN</DistanceMeters>
          </Trackpoint>
          <Trackpoint>
            <Time>2022-09-20T11:13:44.000Z</Time>
            <Position>
              <LatitudeDegrees>49.43760442547500133514404296875</LatitudeDegrees>
              <LongitudeDegrees>20.25845311582088470458984375</LongitudeDegrees>
            </Position>
            <AltitudeMeters>525.4000244140625</AltitudeMeters>
            <DistanceMeters>NAN</DistanceMeters>
          </Trackpoint>
          <Trackpoint>
            <Time>2022-09-20T11:13:58.000Z</Time>
            <Position>
              <LatitudeDegrees>49.43760442547500133514404296875</LatitudeDegrees>
              <LongitudeDegrees>20.25845311582088470458984375</LongitudeDegrees>
            </Position>
            <AltitudeMeters>525.20001220703125</AltitudeMeters>
            <DistanceMeters>NAN</DistanceMeters>
          </Trackpoint>
          <Trackpoint>
            <Time>2022-09-20T11:14:00.000Z</Time>
            <Position>
              <LatitudeDegrees>49.43760442547500133514404296875</LatitudeDegrees>
              <LongitudeDegrees>20.25845311582088470458984375</LongitudeDegrees>
            </Position>
            <AltitudeMeters>525.20001220703125</AltitudeMeters>
            <DistanceMeters>NAN</DistanceMeters>
          </Trackpoint>
          <Trackpoint>
            <Time>2022-09-20T11:14:05.000Z</Time>
            <Position>
              <LatitudeDegrees>49.43760442547500133514404296875</LatitudeDegrees>
              <LongitudeDegrees>20.25845311582088470458984375</LongitudeDegrees>
            </Position>
            <AltitudeMeters>525.20001220703125</AltitudeMeters>
            <DistanceMeters>NAN</DistanceMeters>
          </Trackpoint>
          <Trackpoint>
            <Time>2022-09-20T11:14:11.000Z</Time>
            <Position>
              <LatitudeDegrees>49.43760442547500133514404296875</LatitudeDegrees>
              <LongitudeDegrees>20.25845311582088470458984375</LongitudeDegrees>
            </Position>
            <AltitudeMeters>525</AltitudeMeters>
            <DistanceMeters>NAN</DistanceMeters>
          </Trackpoint>
          <Trackpoint>
            <Time>2022-09-20T11:14:17.000Z</Time>
            <Position>
              <LatitudeDegrees>49.43760442547500133514404296875</LatitudeDegrees>
              <LongitudeDegrees>20.25845311582088470458984375</LongitudeDegrees>
            </Position>
            <AltitudeMeters>525</AltitudeMeters>
            <DistanceMeters>NAN</DistanceMeters>
          </Trackpoint>
          <Trackpoint>
            <Time>2022-09-20T11:14:21.000Z</Time>
            <Position>
              <LatitudeDegrees>49.43760442547500133514404296875</LatitudeDegrees>
              <LongitudeDegrees>20.25845311582088470458984375</LongitudeDegrees>
            </Position>
            <AltitudeMeters>525</AltitudeMeters>
            <DistanceMeters>NAN</DistanceMeters>
          </Trackpoint>
          <Trackpoint>
            <Time>2022-09-20T11:14:44.000Z</Time>
            <Position>
              <LatitudeDegrees>49.43760442547500133514404296875</LatitudeDegrees>
              <LongitudeDegrees>20.25845311582088470458984375</LongitudeDegrees>
            </Position>
            <AltitudeMeters>524.79998779296875</AltitudeMeters>
            <DistanceMeters>NAN</DistanceMeters>
          </Trackpoint>
          <Trackpoint>
            <Time>2022-09-20T11:14:45.000Z</Time>
            <Position>
              <LatitudeDegrees>49.43760442547500133514404296875</LatitudeDegrees>
              <LongitudeDegrees>20.25845311582088470458984375</LongitudeDegrees>
            </Position>
            <AltitudeMeters>524.5999755859375</AltitudeMeters>
            <DistanceMeters>NAN</DistanceMeters>
          </Trackpoint>
          <Trackpoint>
            <Time>2022-09-20T11:14:54.000Z</Time>
            <Position>
              <LatitudeDegrees>49.43760442547500133514404296875</LatitudeDegrees>
              <LongitudeDegrees>20.25845311582088470458984375</LongitudeDegrees>
            </Position>
            <AltitudeMeters>524.5999755859375</AltitudeMeters>
            <DistanceMeters>NAN</DistanceMeters>
          </Trackpoint>
          <Trackpoint>
            <Time>2022-09-20T11:15:05.000Z</Time>
            <Position>
              <LatitudeDegrees>49.43760442547500133514404296875</LatitudeDegrees>
              <LongitudeDegrees>20.25845311582088470458984375</LongitudeDegrees>
            </Position>
            <AltitudeMeters>524.4000244140625</AltitudeMeters>
            <DistanceMeters>NAN</DistanceMeters>
          </Trackpoint>
          <Trackpoint>
            <Time>2022-09-20T11:15:11.000Z</Time>
            <Position>
              <LatitudeDegrees>49.43761012516915798187255859375</LatitudeDegrees>
              <LongitudeDegrees>20.25845504365861415863037109375</LongitudeDegrees>
            </Position>
            <AltitudeMeters>524.5999755859375</AltitudeMeters>
            <DistanceMeters>NAN</DistanceMeters>
          </Trackpoint>
          <Trackpoint>
            <Time>2022-09-20T11:15:20.000Z</Time>
            <Position>
              <LatitudeDegrees>49.43760878406465053558349609375</LatitudeDegrees>
              <LongitudeDegrees>20.25845387019217014312744140625</LongitudeDegrees>
            </Position>
            <AltitudeMeters>524.5999755859375</AltitudeMeters>
            <DistanceMeters>NAN</DistanceMeters>
          </Trackpoint>
          <Trackpoint>
            <Time>2022-09-20T11:15:23.000Z</Time>
            <Position>
              <LatitudeDegrees>49.437567628920078277587890625</LatitudeDegrees>
              <LongitudeDegrees>20.25842587463557720184326171875</LongitudeDegrees>
            </Position>
            <AltitudeMeters>524.5999755859375</AltitudeMeters>
            <DistanceMeters>NAN</DistanceMeters>
          </Trackpoint>
          <Trackpoint>
            <Time>2022-09-20T11:15:25.000Z</Time>
            <Position>
              <LatitudeDegrees>49.43752530030906200408935546875</LatitudeDegrees>
              <LongitudeDegrees>20.258391760289669036865234375</LongitudeDegrees>
            </Position>
            <AltitudeMeters>524.4000244140625</AltitudeMeters>
            <DistanceMeters>NAN</DistanceMeters>
          </Trackpoint>
          <Trackpoint>
            <Time>2022-09-20T11:15:27.000Z</Time>
            <Position>
              <LatitudeDegrees>49.43746344186365604400634765625</LatitudeDegrees>
              <LongitudeDegrees>20.2583853900432586669921875</LongitudeDegrees>
            </Position>
            <AltitudeMeters>524</AltitudeMeters>
            <DistanceMeters>NAN</DistanceMeters>
          </Trackpoint>
          <Trackpoint>
            <Time>2022-09-20T11:15:30.000Z</Time>
            <Position>
              <LatitudeDegrees>49.43738020956516265869140625</LatitudeDegrees>
              <LongitudeDegrees>20.25845001451671123504638671875</LongitudeDegrees>
            </Position>
            <AltitudeMeters>523.5999755859375</AltitudeMeters>
            <DistanceMeters>NAN</DistanceMeters>
          </Trackpoint>
          <Trackpoint>
            <Time>2022-09-20T11:15:31.000Z</Time>
            <Position>
              <LatitudeDegrees>49.43735606968402862548828125</LatitudeDegrees>
              <LongitudeDegrees>20.2584673650562763214111328125</LongitudeDegrees>
            </Position>
            <AltitudeMeters>523.4000244140625</AltitudeMeters>
            <DistanceMeters>NAN</DistanceMeters>
          </Trackpoint>
          <Trackpoint>
            <Time>2022-09-20T11:15:35.000Z</Time>
            <Position>
              <LatitudeDegrees>49.43724702112376689910888671875</LatitudeDegrees>
              <LongitudeDegrees>20.258574150502681732177734375</LongitudeDegrees>
            </Position>
            <AltitudeMeters>523.4000244140625</AltitudeMeters>
            <DistanceMeters>NAN</DistanceMeters>
          </Trackpoint>
          <Trackpoint>
            <Time>2022-09-20T11:15:37.000Z</Time>
            <Position>
              <LatitudeDegrees>49.4372090511023998260498046875</LatitudeDegrees>
              <LongitudeDegrees>20.258637852966785430908203125</LongitudeDegrees>
            </Position>
            <AltitudeMeters>523.4000244140625</AltitudeMeters>
            <DistanceMeters>NAN</DistanceMeters>
          </Trackpoint>
          <Trackpoint>
            <Time>2022-09-20T11:15:42.000Z</Time>
            <Position>
              <LatitudeDegrees>49.4371721707284450531005859375</LatitudeDegrees>
              <LongitudeDegrees>20.258789397776126861572265625</LongitudeDegrees>
            </Position>
            <AltitudeMeters>523.5999755859375</AltitudeMeters>
            <DistanceMeters>NAN</DistanceMeters>
          </Trackpoint>
          <Trackpoint>
            <Time>2022-09-20T11:15:45.000Z</Time>
            <Position>
              <LatitudeDegrees>49.43715901114046573638916015625</LatitudeDegrees>
              <LongitudeDegrees>20.258861817419528961181640625</LongitudeDegrees>
            </Position>
            <AltitudeMeters>523.5999755859375</AltitudeMeters>
            <DistanceMeters>NAN</DistanceMeters>
          </Trackpoint>
          <Trackpoint>
            <Time>2022-09-20T11:15:47.000Z</Time>
            <Position>
              <LatitudeDegrees>49.4371448457241058349609375</LatitudeDegrees>
              <LongitudeDegrees>20.2589164674282073974609375</LongitudeDegrees>
            </Position>
            <AltitudeMeters>523.79998779296875</AltitudeMeters>
            <DistanceMeters>NAN</DistanceMeters>
          </Trackpoint>
          <Trackpoint>
            <Time>2022-09-20T11:15:53.000Z</Time>
            <Position>
              <LatitudeDegrees>49.437110982835292816162109375</LatitudeDegrees>
              <LongitudeDegrees>20.25907798670232295989990234375</LongitudeDegrees>
            </Position>
            <AltitudeMeters>524.5999755859375</AltitudeMeters>
            <DistanceMeters>NAN</DistanceMeters>
          </Trackpoint>
          <Trackpoint>
            <Time>2022-09-20T11:16:00.000Z</Time>
            <Position>
              <LatitudeDegrees>49.437106288969516754150390625</LatitudeDegrees>
              <LongitudeDegrees>20.25934956036508083343505859375</LongitudeDegrees>
            </Position>
            <AltitudeMeters>524.5999755859375</AltitudeMeters>
            <DistanceMeters>NAN</DistanceMeters>
          </Trackpoint>
          <Trackpoint>
            <Time>2022-09-20T11:16:04.000Z</Time>
            <Position>
              <LatitudeDegrees>49.4371326081454753875732421875</LatitudeDegrees>
              <LongitudeDegrees>20.2595151029527187347412109375</LongitudeDegrees>
            </Position>
            <AltitudeMeters>524.79998779296875</AltitudeMeters>
            <DistanceMeters>NAN</DistanceMeters>
          </Trackpoint>
          <Trackpoint>
            <Time>2022-09-20T11:16:05.000Z</Time>
            <Position>
              <LatitudeDegrees>49.437143504619598388671875</LatitudeDegrees>
              <LongitudeDegrees>20.2595550008118152618408203125</LongitudeDegrees>
            </Position>
            <AltitudeMeters>524.79998779296875</AltitudeMeters>
            <DistanceMeters>NAN</DistanceMeters>
          </Trackpoint>
          <Trackpoint>
            <Time>2022-09-20T11:16:13.000Z</Time>
            <Position>
              <LatitudeDegrees>49.4371842406690120697021484375</LatitudeDegrees>
              <LongitudeDegrees>20.2598815597593784332275390625</LongitudeDegrees>
            </Position>
            <AltitudeMeters>524.79998779296875</AltitudeMeters>
            <DistanceMeters>NAN</DistanceMeters>
          </Trackpoint>
          <Trackpoint>
            <Time>2022-09-20T11:16:14.000Z</Time>
            <Position>
              <LatitudeDegrees>49.437180049717426300048828125</LatitudeDegrees>
              <LongitudeDegrees>20.2599211223423480987548828125</LongitudeDegrees>
            </Position>
            <AltitudeMeters>524.79998779296875</AltitudeMeters>
            <DistanceMeters>NAN</DistanceMeters>
          </Trackpoint>
          <Trackpoint>
            <Time>2022-09-20T11:16:17.000Z</Time>
            <Position>
              <LatitudeDegrees>49.43715029396116733551025390625</LatitudeDegrees>
              <LongitudeDegrees>20.260019861161708831787109375</LongitudeDegrees>
            </Position>
            <AltitudeMeters>525.4000244140625</AltitudeMeters>
            <DistanceMeters>NAN</DistanceMeters>
          </Trackpoint>
          <Trackpoint>
            <Time>2022-09-20T11:16:19.000Z</Time>
            <Position>
              <LatitudeDegrees>49.4371126592159271240234375</LatitudeDegrees>
              <LongitudeDegrees>20.26007719337940216064453125</LongitudeDegrees>
            </Position>
            <AltitudeMeters>525.79998779296875</AltitudeMeters>
            <DistanceMeters>NAN</DistanceMeters>
          </Trackpoint>
          <Trackpoint>
            <Time>2022-09-20T11:16:24.000Z</Time>
            <Position>
              <LatitudeDegrees>49.437003023922443389892578125</LatitudeDegrees>
              <LongitudeDegrees>20.26021038182079792022705078125</LongitudeDegrees>
            </Position>
            <AltitudeMeters>526.5999755859375</AltitudeMeters>
            <DistanceMeters>NAN</DistanceMeters>
          </Trackpoint>
          <Trackpoint>
            <Time>2022-09-20T11:16:25.000Z</Time>
            <Position>
              <LatitudeDegrees>49.4369693286716938018798828125</LatitudeDegrees>
              <LongitudeDegrees>20.26022781617939472198486328125</LongitudeDegrees>
            </Position>
            <AltitudeMeters>526.79998779296875</AltitudeMeters>
            <DistanceMeters>NAN</DistanceMeters>
          </Trackpoint>
          <Trackpoint>
            <Time>2022-09-20T11:16:27.000Z</Time>
            <Position>
              <LatitudeDegrees>49.43690822459757328033447265625</LatitudeDegrees>
              <LongitudeDegrees>20.260247178375720977783203125</LongitudeDegrees>
            </Position>
            <AltitudeMeters>527</AltitudeMeters>
            <DistanceMeters>NAN</DistanceMeters>
          </Trackpoint>
          <Trackpoint>
            <Time>2022-09-20T11:16:29.000Z</Time>
            <Position>
              <LatitudeDegrees>49.43685583770275115966796875</LatitudeDegrees>
              <LongitudeDegrees>20.2602483518421649932861328125</LongitudeDegrees>
            </Position>
            <AltitudeMeters>527.20001220703125</AltitudeMeters>
            <DistanceMeters>NAN</DistanceMeters>
          </Trackpoint>
          <Trackpoint>
            <Time>2022-09-20T11:16:30.000Z</Time>
            <Position>
              <LatitudeDegrees>49.43681870587170124053955078125</LatitudeDegrees>
              <LongitudeDegrees>20.2602604217827320098876953125</LongitudeDegrees>
            </Position>
            <AltitudeMeters>527.20001220703125</AltitudeMeters>
            <DistanceMeters>NAN</DistanceMeters>
          </Trackpoint>
          <Trackpoint>
            <Time>2022-09-20T11:16:33.000Z</Time>
            <Position>
              <LatitudeDegrees>49.43673287518322467803955078125</LatitudeDegrees>
              <LongitudeDegrees>20.2602818794548511505126953125</LongitudeDegrees>
            </Position>
            <AltitudeMeters>527.79998779296875</AltitudeMeters>
            <DistanceMeters>NAN</DistanceMeters>
          </Trackpoint>
          <Trackpoint>
            <Time>2022-09-20T11:16:38.000Z</Time>
            <Position>
              <LatitudeDegrees>49.43662382662296295166015625</LatitudeDegrees>
              <LongitudeDegrees>20.2603056840598583221435546875</LongitudeDegrees>
            </Position>
            <AltitudeMeters>528.79998779296875</AltitudeMeters>
            <DistanceMeters>NAN</DistanceMeters>
          </Trackpoint>
          <Trackpoint>
            <Time>2022-09-20T11:16:39.000Z</Time>
            <Position>
              <LatitudeDegrees>49.43659792654216289520263671875</LatitudeDegrees>
              <LongitudeDegrees>20.2603110484778881072998046875</LongitudeDegrees>
            </Position>
            <AltitudeMeters>529.20001220703125</AltitudeMeters>
            <DistanceMeters>NAN</DistanceMeters>
          </Trackpoint>
          <Trackpoint>
            <Time>2022-09-20T11:16:42.000Z</Time>
            <Position>
              <LatitudeDegrees>49.43653799593448638916015625</LatitudeDegrees>
              <LongitudeDegrees>20.26035220362246036529541015625</LongitudeDegrees>
            </Position>
            <AltitudeMeters>529.79998779296875</AltitudeMeters>
            <DistanceMeters>NAN</DistanceMeters>
          </Trackpoint>
          <Trackpoint>
            <Time>2022-09-20T11:16:43.000Z</Time>
            <Position>
              <LatitudeDegrees>49.43652047775685787200927734375</LatitudeDegrees>
              <LongitudeDegrees>20.260373242199420928955078125</LongitudeDegrees>
            </Position>
            <AltitudeMeters>530</AltitudeMeters>
            <DistanceMeters>NAN</DistanceMeters>
          </Trackpoint>
          <Trackpoint>
            <Time>2022-09-20T11:16:47.000Z</Time>
            <Position>
              <LatitudeDegrees>49.43648175336420536041259765625</LatitudeDegrees>
              <LongitudeDegrees>20.26040383614599704742431640625</LongitudeDegrees>
            </Position>
            <AltitudeMeters>530.5999755859375</AltitudeMeters>
            <DistanceMeters>NAN</DistanceMeters>
          </Trackpoint>
          <Trackpoint>
            <Time>2022-09-20T11:16:48.000Z</Time>
            <Position>
              <LatitudeDegrees>49.43647001869976520538330078125</LatitudeDegrees>
              <LongitudeDegrees>20.260421521961688995361328125</LongitudeDegrees>
            </Position>
            <AltitudeMeters>530.5999755859375</AltitudeMeters>
            <DistanceMeters>NAN</DistanceMeters>
          </Trackpoint>
          <Trackpoint>
            <Time>2022-09-20T11:16:50.000Z</Time>
            <Position>
              <LatitudeDegrees>49.43645258434116840362548828125</LatitudeDegrees>
              <LongitudeDegrees>20.2604605816304683685302734375</LongitudeDegrees>
            </Position>
            <AltitudeMeters>530.79998779296875</AltitudeMeters>
            <DistanceMeters>NAN</DistanceMeters>
          </Trackpoint>
          <Trackpoint>
            <Time>2022-09-20T11:16:53.000Z</Time>
            <Position>
              <LatitudeDegrees>49.43644336424767971038818359375</LatitudeDegrees>
              <LongitudeDegrees>20.260527469217777252197265625</LongitudeDegrees>
            </Position>
            <AltitudeMeters>530.79998779296875</AltitudeMeters>
            <DistanceMeters>NAN</DistanceMeters>
          </Trackpoint>
          <Trackpoint>
            <Time>2022-09-20T11:16:54.000Z</Time>
            <Position>
              <LatitudeDegrees>49.436438418924808502197265625</LatitudeDegrees>
              <LongitudeDegrees>20.2605490945279598236083984375</LongitudeDegrees>
            </Position>
            <AltitudeMeters>531</AltitudeMeters>
            <DistanceMeters>NAN</DistanceMeters>
          </Trackpoint>
          <Trackpoint>
            <Time>2022-09-20T11:16:59.000Z</Time>
            <Position>
              <LatitudeDegrees>49.43642400205135345458984375</LatitudeDegrees>
              <LongitudeDegrees>20.26070374064147472381591796875</LongitudeDegrees>
            </Position>
            <AltitudeMeters>530.79998779296875</AltitudeMeters>
            <DistanceMeters>NAN</DistanceMeters>
          </Trackpoint>
          <Trackpoint>
            <Time>2022-09-20T11:17:04.000Z</Time>
            <Position>
              <LatitudeDegrees>49.4363245926797389984130859375</LatitudeDegrees>
              <LongitudeDegrees>20.26106332428753376007080078125</LongitudeDegrees>
            </Position>
            <AltitudeMeters>530</AltitudeMeters>
            <DistanceMeters>NAN</DistanceMeters>
          </Trackpoint>
          <Trackpoint>
            <Time>2022-09-20T11:17:07.000Z</Time>
            <Position>
              <LatitudeDegrees>49.4362769834697246551513671875</LatitudeDegrees>
              <LongitudeDegrees>20.26124521158635616302490234375</LongitudeDegrees>
            </Position>
            <AltitudeMeters>529</AltitudeMeters>
            <DistanceMeters>NAN</DistanceMeters>
          </Trackpoint>
          <Trackpoint>
            <Time>2022-09-20T11:17:09.000Z</Time>
            <Position>
              <LatitudeDegrees>49.43624203093349933624267578125</LatitudeDegrees>
              <LongitudeDegrees>20.26135887019336223602294921875</LongitudeDegrees>
            </Position>
            <AltitudeMeters>528.79998779296875</AltitudeMeters>
            <DistanceMeters>NAN</DistanceMeters>
          </Trackpoint>
          <Trackpoint>
            <Time>2022-09-20T11:17:10.000Z</Time>
            <Position>
              <LatitudeDegrees>49.4362209923565387725830078125</LatitudeDegrees>
              <LongitudeDegrees>20.26139457710087299346923828125</LongitudeDegrees>
            </Position>
            <AltitudeMeters>528.79998779296875</AltitudeMeters>
            <DistanceMeters>NAN</DistanceMeters>
          </Trackpoint>
          <Trackpoint>
            <Time>2022-09-20T11:17:14.000Z</Time>
            <Position>
              <LatitudeDegrees>49.43612988106906414031982421875</LatitudeDegrees>
              <LongitudeDegrees>20.2614939026534557342529296875</LongitudeDegrees>
            </Position>
            <AltitudeMeters>529.20001220703125</AltitudeMeters>
            <DistanceMeters>NAN</DistanceMeters>
          </Trackpoint>
          <Trackpoint>
            <Time>2022-09-20T11:17:15.000Z</Time>
            <Position>
              <LatitudeDegrees>49.43610909394919872283935546875</LatitudeDegrees>
              <LongitudeDegrees>20.2615110017359256744384765625</LongitudeDegrees>
            </Position>
            <AltitudeMeters>529.20001220703125</AltitudeMeters>
            <DistanceMeters>NAN</DistanceMeters>
          </Trackpoint>
          <Trackpoint>
            <Time>2022-09-20T11:17:16.000Z</Time>
            <Position>
              <LatitudeDegrees>49.436088390648365020751953125</LatitudeDegrees>
              <LongitudeDegrees>20.26152231730520725250244140625</LongitudeDegrees>
            </Position>
            <AltitudeMeters>529.4000244140625</AltitudeMeters>
            <DistanceMeters>NAN</DistanceMeters>
          </Trackpoint>
          <Trackpoint>
            <Time>2022-09-20T11:17:18.000Z</Time>
            <Position>
              <LatitudeDegrees>49.436082355678081512451171875</LatitudeDegrees>
              <LongitudeDegrees>20.26152231730520725250244140625</LongitudeDegrees>
            </Position>
            <AltitudeMeters>529.5999755859375</AltitudeMeters>
            <DistanceMeters>NAN</DistanceMeters>
          </Trackpoint>
          <Trackpoint>
            <Time>2022-09-20T11:17:21.000Z</Time>
            <Position>
              <LatitudeDegrees>49.436082355678081512451171875</LatitudeDegrees>
              <LongitudeDegrees>20.26152231730520725250244140625</LongitudeDegrees>
            </Position>
            <AltitudeMeters>529.79998779296875</AltitudeMeters>
            <DistanceMeters>NAN</DistanceMeters>
          </Trackpoint>
          <Trackpoint>
            <Time>2022-09-20T11:17:26.000Z</Time>
            <Position>
              <LatitudeDegrees>49.436082355678081512451171875</LatitudeDegrees>
              <LongitudeDegrees>20.26152231730520725250244140625</LongitudeDegrees>
            </Position>
            <AltitudeMeters>529.79998779296875</AltitudeMeters>
            <DistanceMeters>NAN</DistanceMeters>
          </Trackpoint>
          <Trackpoint>
            <Time>2022-09-20T11:17:27.000Z</Time>
            <Position>
              <LatitudeDegrees>49.436082355678081512451171875</LatitudeDegrees>
              <LongitudeDegrees>20.26152231730520725250244140625</LongitudeDegrees>
            </Position>
            <AltitudeMeters>529.79998779296875</AltitudeMeters>
            <DistanceMeters>NAN</DistanceMeters>
          </Trackpoint>
          <Trackpoint>
            <Time>2022-09-20T11:17:33.000Z</Time>
            <Position>
              <LatitudeDegrees>49.436082355678081512451171875</LatitudeDegrees>
              <LongitudeDegrees>20.26152231730520725250244140625</LongitudeDegrees>
            </Position>
            <AltitudeMeters>530</AltitudeMeters>
            <DistanceMeters>NAN</DistanceMeters>
          </Trackpoint>
          <Trackpoint>
            <Time>2022-09-20T11:17:41.000Z</Time>
            <Position>
              <LatitudeDegrees>49.436082355678081512451171875</LatitudeDegrees>
              <LongitudeDegrees>20.26152231730520725250244140625</LongitudeDegrees>
            </Position>
            <AltitudeMeters>530</AltitudeMeters>
            <DistanceMeters>NAN</DistanceMeters>
          </Trackpoint>
          <Trackpoint>
            <Time>2022-09-20T11:17:44.000Z</Time>
            <Position>
              <LatitudeDegrees>49.436082355678081512451171875</LatitudeDegrees>
              <LongitudeDegrees>20.26152231730520725250244140625</LongitudeDegrees>
            </Position>
            <AltitudeMeters>530</AltitudeMeters>
            <DistanceMeters>NAN</DistanceMeters>
          </Trackpoint>
          <Trackpoint>
            <Time>2022-09-20T11:17:56.000Z</Time>
            <Position>
              <LatitudeDegrees>49.436082355678081512451171875</LatitudeDegrees>
              <LongitudeDegrees>20.26152231730520725250244140625</LongitudeDegrees>
            </Position>
            <AltitudeMeters>530</AltitudeMeters>
            <DistanceMeters>NAN</DistanceMeters>
          </Trackpoint>
          <Trackpoint>
            <Time>2022-09-20T11:18:08.000Z</Time>
            <Position>
              <LatitudeDegrees>49.43608227185904979705810546875</LatitudeDegrees>
              <LongitudeDegrees>20.26152231730520725250244140625</LongitudeDegrees>
            </Position>
            <AltitudeMeters>530</AltitudeMeters>
            <DistanceMeters>NAN</DistanceMeters>
          </Trackpoint>
          <Trackpoint>
            <Time>2022-09-20T11:18:21.000Z</Time>
            <Position>
              <LatitudeDegrees>49.43608227185904979705810546875</LatitudeDegrees>
              <LongitudeDegrees>20.26152231730520725250244140625</LongitudeDegrees>
            </Position>
            <AltitudeMeters>530</AltitudeMeters>
            <DistanceMeters>NAN</DistanceMeters>
          </Trackpoint>
          <Trackpoint>
            <Time>2022-09-20T11:18:47.000Z</Time>
            <Position>
              <LatitudeDegrees>49.43608202040195465087890625</LatitudeDegrees>
              <LongitudeDegrees>20.261525921523571014404296875</LongitudeDegrees>
            </Position>
            <AltitudeMeters>529.79998779296875</AltitudeMeters>
            <DistanceMeters>NAN</DistanceMeters>
          </Trackpoint>
          <Trackpoint>
            <Time>2022-09-20T11:18:48.000Z</Time>
            <Position>
              <LatitudeDegrees>49.436064921319484710693359375</LatitudeDegrees>
              <LongitudeDegrees>20.261543691158294677734375</LongitudeDegrees>
            </Position>
            <AltitudeMeters>529.79998779296875</AltitudeMeters>
            <DistanceMeters>NAN</DistanceMeters>
          </Trackpoint>
          <Trackpoint>
            <Time>2022-09-20T11:18:53.000Z</Time>
            <Position>
              <LatitudeDegrees>49.43597280420362949371337890625</LatitudeDegrees>
              <LongitudeDegrees>20.2616679109632968902587890625</LongitudeDegrees>
            </Position>
            <AltitudeMeters>530</AltitudeMeters>
            <DistanceMeters>NAN</DistanceMeters>
          </Trackpoint>
          <Trackpoint>
            <Time>2022-09-20T11:18:54.000Z</Time>
            <Position>
              <LatitudeDegrees>49.43596123717725276947021484375</LatitudeDegrees>
              <LongitudeDegrees>20.261701606214046478271484375</LongitudeDegrees>
            </Position>
            <AltitudeMeters>530.20001220703125</AltitudeMeters>
            <DistanceMeters>NAN</DistanceMeters>
          </Trackpoint>
          <Trackpoint>
            <Time>2022-09-20T11:18:55.000Z</Time>
            <Position>
              <LatitudeDegrees>49.43594665266573429107666015625</LatitudeDegrees>
              <LongitudeDegrees>20.26172767393290996551513671875</LongitudeDegrees>
            </Position>
            <AltitudeMeters>530.4000244140625</AltitudeMeters>
            <DistanceMeters>NAN</DistanceMeters>
          </Trackpoint>
          <Trackpoint>
            <Time>2022-09-20T11:18:57.000Z</Time>
            <Position>
              <LatitudeDegrees>49.43592402152717113494873046875</LatitudeDegrees>
              <LongitudeDegrees>20.2617644704878330230712890625</LongitudeDegrees>
            </Position>
            <AltitudeMeters>530.79998779296875</AltitudeMeters>
            <DistanceMeters>NAN</DistanceMeters>
          </Trackpoint>
          <Trackpoint>
            <Time>2022-09-20T11:18:58.000Z</Time>
            <Position>
              <LatitudeDegrees>49.43590499460697174072265625</LatitudeDegrees>
              <LongitudeDegrees>20.2617782168090343475341796875</LongitudeDegrees>
            </Position>
            <AltitudeMeters>531.20001220703125</AltitudeMeters>
            <DistanceMeters>NAN</DistanceMeters>
          </Trackpoint>
          <Trackpoint>
            <Time>2022-09-20T11:19:00.000Z</Time>
            <Position>
              <LatitudeDegrees>49.43587808869779109954833984375</LatitudeDegrees>
              <LongitudeDegrees>20.2618248201906681060791015625</LongitudeDegrees>
            </Position>
            <AltitudeMeters>531.5999755859375</AltitudeMeters>
            <DistanceMeters>NAN</DistanceMeters>
          </Trackpoint>
          <Trackpoint>
            <Time>2022-09-20T11:19:03.000Z</Time>
            <Position>
              <LatitudeDegrees>49.4358444772660732269287109375</LatitudeDegrees>
              <LongitudeDegrees>20.26188927702605724334716796875</LongitudeDegrees>
            </Position>
            <AltitudeMeters>532</AltitudeMeters>
            <DistanceMeters>NAN</DistanceMeters>
          </Trackpoint>
          <Trackpoint>
            <Time>2022-09-20T11:19:05.000Z</Time>
            <Position>
              <LatitudeDegrees>49.435818828642368316650390625</LatitudeDegrees>
              <LongitudeDegrees>20.2619264088571071624755859375</LongitudeDegrees>
            </Position>
            <AltitudeMeters>532.20001220703125</AltitudeMeters>
            <DistanceMeters>NAN</DistanceMeters>
          </Trackpoint>
          <Trackpoint>
            <Time>2022-09-20T11:19:08.000Z</Time>
            <Position>
              <LatitudeDegrees>49.4357556290924549102783203125</LatitudeDegrees>
              <LongitudeDegrees>20.261999666690826416015625</LongitudeDegrees>
            </Position>
            <AltitudeMeters>532.79998779296875</AltitudeMeters>
            <DistanceMeters>NAN</DistanceMeters>
          </Trackpoint>
          <Trackpoint>
            <Time>2022-09-20T11:19:10.000Z</Time>
            <Position>
              <LatitudeDegrees>49.43574498407542705535888671875</LatitudeDegrees>
              <LongitudeDegrees>20.26200846768915653228759765625</LongitudeDegrees>
            </Position>
            <AltitudeMeters>533.4000244140625</AltitudeMeters>
            <DistanceMeters>NAN</DistanceMeters>
          </Trackpoint>
          <Trackpoint>
            <Time>2022-09-20T11:19:11.000Z</Time>
            <Position>
              <LatitudeDegrees>49.4357308186590671539306640625</LatitudeDegrees>
              <LongitudeDegrees>20.26202975772321224212646484375</LongitudeDegrees>
            </Position>
            <AltitudeMeters>533.5999755859375</AltitudeMeters>
            <DistanceMeters>NAN</DistanceMeters>
          </Trackpoint>
          <Trackpoint>
            <Time>2022-09-20T11:19:17.000Z</Time>
            <Position>
              <LatitudeDegrees>49.4357308186590671539306640625</LatitudeDegrees>
              <LongitudeDegrees>20.26202975772321224212646484375</LongitudeDegrees>
            </Position>
            <AltitudeMeters>534.20001220703125</AltitudeMeters>
            <DistanceMeters>NAN</DistanceMeters>
          </Trackpoint>
          <Trackpoint>
            <Time>2022-09-20T11:19:29.000Z</Time>
            <Position>
              <LatitudeDegrees>49.4357308186590671539306640625</LatitudeDegrees>
              <LongitudeDegrees>20.26202975772321224212646484375</LongitudeDegrees>
            </Position>
            <AltitudeMeters>534.20001220703125</AltitudeMeters>
            <DistanceMeters>NAN</DistanceMeters>
          </Trackpoint>
          <Trackpoint>
            <Time>2022-09-20T11:19:42.000Z</Time>
            <Position>
              <LatitudeDegrees>49.4357308186590671539306640625</LatitudeDegrees>
              <LongitudeDegrees>20.26202975772321224212646484375</LongitudeDegrees>
            </Position>
            <AltitudeMeters>534.20001220703125</AltitudeMeters>
            <DistanceMeters>NAN</DistanceMeters>
          </Trackpoint>
          <Trackpoint>
            <Time>2022-09-20T11:19:45.000Z</Time>
            <Position>
              <LatitudeDegrees>49.4357308186590671539306640625</LatitudeDegrees>
              <LongitudeDegrees>20.26202975772321224212646484375</LongitudeDegrees>
            </Position>
            <AltitudeMeters>534.4000244140625</AltitudeMeters>
            <DistanceMeters>NAN</DistanceMeters>
          </Trackpoint>
          <Trackpoint>
            <Time>2022-09-20T11:19:48.000Z</Time>
            <Position>
              <LatitudeDegrees>49.435725621879100799560546875</LatitudeDegrees>
              <LongitudeDegrees>20.262042246758937835693359375</LongitudeDegrees>
            </Position>
            <AltitudeMeters>534.4000244140625</AltitudeMeters>
            <DistanceMeters>NAN</DistanceMeters>
          </Trackpoint>
          <Trackpoint>
            <Time>2022-09-20T11:20:02.000Z</Time>
            <Position>
              <LatitudeDegrees>49.43572537042200565338134765625</LatitudeDegrees>
              <LongitudeDegrees>20.26204300113022327423095703125</LongitudeDegrees>
            </Position>
            <AltitudeMeters>534.79998779296875</AltitudeMeters>
            <DistanceMeters>NAN</DistanceMeters>
          </Trackpoint>
          <Trackpoint>
            <Time>2022-09-20T11:20:11.000Z</Time>
            <Position>
              <LatitudeDegrees>49.43572537042200565338134765625</LatitudeDegrees>
              <LongitudeDegrees>20.26204300113022327423095703125</LongitudeDegrees>
            </Position>
            <AltitudeMeters>534.79998779296875</AltitudeMeters>
            <DistanceMeters>NAN</DistanceMeters>
          </Trackpoint>
          <Trackpoint>
            <Time>2022-09-20T11:20:14.000Z</Time>
            <Position>
              <LatitudeDegrees>49.43572537042200565338134765625</LatitudeDegrees>
              <LongitudeDegrees>20.26204300113022327423095703125</LongitudeDegrees>
            </Position>
            <AltitudeMeters>534.5999755859375</AltitudeMeters>
            <DistanceMeters>NAN</DistanceMeters>
          </Trackpoint>
          <Trackpoint>
            <Time>2022-09-20T11:20:18.000Z</Time>
            <Position>
              <LatitudeDegrees>49.4357281364500522613525390625</LatitudeDegrees>
              <LongitudeDegrees>20.26204534806311130523681640625</LongitudeDegrees>
            </Position>
            <AltitudeMeters>534.5999755859375</AltitudeMeters>
            <DistanceMeters>NAN</DistanceMeters>
          </Trackpoint>
          <Trackpoint>
            <Time>2022-09-20T11:20:22.000Z</Time>
            <Position>
              <LatitudeDegrees>49.435728304088115692138671875</LatitudeDegrees>
              <LongitudeDegrees>20.2620454318821430206298828125</LongitudeDegrees>
            </Position>
            <AltitudeMeters>534.5999755859375</AltitudeMeters>
            <DistanceMeters>NAN</DistanceMeters>
          </Trackpoint>
          <Trackpoint>
            <Time>2022-09-20T11:20:37.000Z</Time>
            <Position>
              <LatitudeDegrees>49.435728304088115692138671875</LatitudeDegrees>
              <LongitudeDegrees>20.2620454318821430206298828125</LongitudeDegrees>
            </Position>
            <AltitudeMeters>534.5999755859375</AltitudeMeters>
            <DistanceMeters>NAN</DistanceMeters>
          </Trackpoint>
          <Trackpoint>
            <Time>2022-09-20T11:20:51.000Z</Time>
            <Position>
              <LatitudeDegrees>49.43572419695556163787841796875</LatitudeDegrees>
              <LongitudeDegrees>20.26205599308013916015625</LongitudeDegrees>
            </Position>
            <AltitudeMeters>534.5999755859375</AltitudeMeters>
            <DistanceMeters>NAN</DistanceMeters>
          </Trackpoint>
          <Trackpoint>
            <Time>2022-09-20T11:20:54.000Z</Time>
            <Position>
              <LatitudeDegrees>49.43572419695556163787841796875</LatitudeDegrees>
              <LongitudeDegrees>20.26205599308013916015625</LongitudeDegrees>
            </Position>
            <AltitudeMeters>534.5999755859375</AltitudeMeters>
            <DistanceMeters>NAN</DistanceMeters>
          </Trackpoint>
          <Trackpoint>
            <Time>2022-09-20T11:20:56.000Z</Time>
            <Position>
              <LatitudeDegrees>49.43572126328945159912109375</LatitudeDegrees>
              <LongitudeDegrees>20.262061692774295806884765625</LongitudeDegrees>
            </Position>
            <AltitudeMeters>534.5999755859375</AltitudeMeters>
            <DistanceMeters>NAN</DistanceMeters>
          </Trackpoint>
          <Trackpoint>
            <Time>2022-09-20T11:20:59.000Z</Time>
            <Position>
              <LatitudeDegrees>49.43571749143302440643310546875</LatitudeDegrees>
              <LongitudeDegrees>20.2620709128677845001220703125</LongitudeDegrees>
            </Position>
            <AltitudeMeters>534.5999755859375</AltitudeMeters>
            <DistanceMeters>NAN</DistanceMeters>
          </Trackpoint>
          <Trackpoint>
            <Time>2022-09-20T11:21:13.000Z</Time>
            <Position>
              <LatitudeDegrees>49.43569787777960300445556640625</LatitudeDegrees>
              <LongitudeDegrees>20.26210133917629718780517578125</LongitudeDegrees>
            </Position>
            <AltitudeMeters>534.5999755859375</AltitudeMeters>
            <DistanceMeters>NAN</DistanceMeters>
          </Trackpoint>
          <Trackpoint>
            <Time>2022-09-20T11:21:18.000Z</Time>
            <Position>
              <LatitudeDegrees>49.43568371236324310302734375</LatitudeDegrees>
              <LongitudeDegrees>20.2621319331228733062744140625</LongitudeDegrees>
            </Position>
            <AltitudeMeters>534.5999755859375</AltitudeMeters>
            <DistanceMeters>NAN</DistanceMeters>
          </Trackpoint>
          <Trackpoint>
            <Time>2022-09-20T11:22:26.000Z</Time>
            <Position>
              <LatitudeDegrees>49.43567700684070587158203125</LatitudeDegrees>
              <LongitudeDegrees>20.26214140467345714569091796875</LongitudeDegrees>
            </Position>
            <AltitudeMeters>534.5999755859375</AltitudeMeters>
            <DistanceMeters>NAN</DistanceMeters>
          </Trackpoint>
          <Trackpoint>
            <Time>2022-09-20T11:22:56.000Z</Time>
            <Position>
              <LatitudeDegrees>49.43567558191716670989990234375</LatitudeDegrees>
              <LongitudeDegrees>20.26215431280434131622314453125</LongitudeDegrees>
            </Position>
            <AltitudeMeters>534.5999755859375</AltitudeMeters>
            <DistanceMeters>NAN</DistanceMeters>
          </Trackpoint>
          <Trackpoint>
            <Time>2022-09-20T11:23:11.000Z</Time>
            <Position>
              <LatitudeDegrees>49.435661919414997100830078125</LatitudeDegrees>
              <LongitudeDegrees>20.26216889731585979461669921875</LongitudeDegrees>
            </Position>
            <AltitudeMeters>534.5999755859375</AltitudeMeters>
            <DistanceMeters>NAN</DistanceMeters>
          </Trackpoint>
          <Trackpoint>
            <Time>2022-09-20T11:23:17.000Z</Time>
            <Position>
              <LatitudeDegrees>49.43563819862902164459228515625</LatitudeDegrees>
              <LongitudeDegrees>20.26219152845442295074462890625</LongitudeDegrees>
            </Position>
            <AltitudeMeters>534.79998779296875</AltitudeMeters>
            <DistanceMeters>NAN</DistanceMeters>
          </Trackpoint>
          <Trackpoint>
            <Time>2022-09-20T11:23:23.000Z</Time>
            <Position>
              <LatitudeDegrees>49.43563819862902164459228515625</LatitudeDegrees>
              <LongitudeDegrees>20.26219152845442295074462890625</LongitudeDegrees>
            </Position>
            <AltitudeMeters>535.4000244140625</AltitudeMeters>
            <DistanceMeters>NAN</DistanceMeters>
          </Trackpoint>
          <Trackpoint>
            <Time>2022-09-20T11:23:26.000Z</Time>
            <Position>
              <LatitudeDegrees>49.43561774678528308868408203125</LatitudeDegrees>
              <LongitudeDegrees>20.26222120039165019989013671875</LongitudeDegrees>
            </Position>
            <AltitudeMeters>535.79998779296875</AltitudeMeters>
            <DistanceMeters>NAN</DistanceMeters>
          </Trackpoint>
          <Trackpoint>
            <Time>2022-09-20T11:23:28.000Z</Time>
            <Position>
              <LatitudeDegrees>49.43556703627109527587890625</LatitudeDegrees>
              <LongitudeDegrees>20.26223544962704181671142578125</LongitudeDegrees>
            </Position>
            <AltitudeMeters>536.20001220703125</AltitudeMeters>
            <DistanceMeters>NAN</DistanceMeters>
          </Trackpoint>
          <Trackpoint>
            <Time>2022-09-20T11:23:29.000Z</Time>
            <Position>
              <LatitudeDegrees>49.43554348312318325042724609375</LatitudeDegrees>
              <LongitudeDegrees>20.262254141271114349365234375</LongitudeDegrees>
            </Position>
            <AltitudeMeters>536.20001220703125</AltitudeMeters>
            <DistanceMeters>NAN</DistanceMeters>
          </Trackpoint>
          <Trackpoint>
            <Time>2022-09-20T11:23:31.000Z</Time>
            <Position>
              <LatitudeDegrees>49.43551012314856052398681640625</LatitudeDegrees>
              <LongitudeDegrees>20.262282975018024444580078125</LongitudeDegrees>
            </Position>
            <AltitudeMeters>536.5999755859375</AltitudeMeters>
            <DistanceMeters>NAN</DistanceMeters>
          </Trackpoint>
          <Trackpoint>
            <Time>2022-09-20T11:23:32.000Z</Time>
            <Position>
              <LatitudeDegrees>49.4354944489896297454833984375</LatitudeDegrees>
              <LongitudeDegrees>20.26228976435959339141845703125</LongitudeDegrees>
            </Position>
            <AltitudeMeters>536.5999755859375</AltitudeMeters>
            <DistanceMeters>NAN</DistanceMeters>
          </Trackpoint>
          <Trackpoint>
            <Time>2022-09-20T11:23:39.000Z</Time>
            <Position>
              <LatitudeDegrees>49.43542345426976680755615234375</LatitudeDegrees>
              <LongitudeDegrees>20.2623550593852996826171875</LongitudeDegrees>
            </Position>
            <AltitudeMeters>537.79998779296875</AltitudeMeters>
            <DistanceMeters>NAN</DistanceMeters>
          </Trackpoint>
          <Trackpoint>
            <Time>2022-09-20T11:23:40.000Z</Time>
            <Position>
              <LatitudeDegrees>49.43541842512786388397216796875</LatitudeDegrees>
              <LongitudeDegrees>20.26237006299197673797607421875</LongitudeDegrees>
            </Position>
            <AltitudeMeters>537.79998779296875</AltitudeMeters>
            <DistanceMeters>NAN</DistanceMeters>
          </Trackpoint>
          <Trackpoint>
            <Time>2022-09-20T11:23:45.000Z</Time>
            <Position>
              <LatitudeDegrees>49.4354173354804515838623046875</LatitudeDegrees>
              <LongitudeDegrees>20.26236754842102527618408203125</LongitudeDegrees>
            </Position>
            <AltitudeMeters>538.4000244140625</AltitudeMeters>
            <DistanceMeters>NAN</DistanceMeters>
          </Trackpoint>
          <Trackpoint>
            <Time>2022-09-20T11:23:48.000Z</Time>
            <Position>
              <LatitudeDegrees>49.4353660382330417633056640625</LatitudeDegrees>
              <LongitudeDegrees>20.2624242939054965972900390625</LongitudeDegrees>
            </Position>
            <AltitudeMeters>538.79998779296875</AltitudeMeters>
            <DistanceMeters>NAN</DistanceMeters>
          </Trackpoint>
          <Trackpoint>
            <Time>2022-09-20T11:23:52.000Z</Time>
            <Position>
              <LatitudeDegrees>49.43536411039531230926513671875</LatitudeDegrees>
              <LongitudeDegrees>20.26242990978062152862548828125</LongitudeDegrees>
            </Position>
            <AltitudeMeters>538.79998779296875</AltitudeMeters>
            <DistanceMeters>NAN</DistanceMeters>
          </Trackpoint>
          <Trackpoint>
            <Time>2022-09-20T11:23:56.000Z</Time>
            <Position>
              <LatitudeDegrees>49.43536411039531230926513671875</LatitudeDegrees>
              <LongitudeDegrees>20.26242990978062152862548828125</LongitudeDegrees>
            </Position>
            <AltitudeMeters>539</AltitudeMeters>
            <DistanceMeters>NAN</DistanceMeters>
          </Trackpoint>
          <Trackpoint>
            <Time>2022-09-20T11:23:58.000Z</Time>
            <Position>
              <LatitudeDegrees>49.43536411039531230926513671875</LatitudeDegrees>
              <LongitudeDegrees>20.26242990978062152862548828125</LongitudeDegrees>
            </Position>
            <AltitudeMeters>539</AltitudeMeters>
            <DistanceMeters>NAN</DistanceMeters>
          </Trackpoint>
          <Trackpoint>
            <Time>2022-09-20T11:24:01.000Z</Time>
            <Position>
              <LatitudeDegrees>49.43536411039531230926513671875</LatitudeDegrees>
              <LongitudeDegrees>20.26242990978062152862548828125</LongitudeDegrees>
            </Position>
            <AltitudeMeters>539</AltitudeMeters>
            <DistanceMeters>NAN</DistanceMeters>
          </Trackpoint>
          <Trackpoint>
            <Time>2022-09-20T11:24:14.000Z</Time>
            <Position>
              <LatitudeDegrees>49.43536411039531230926513671875</LatitudeDegrees>
              <LongitudeDegrees>20.26242990978062152862548828125</LongitudeDegrees>
            </Position>
            <AltitudeMeters>539.20001220703125</AltitudeMeters>
            <DistanceMeters>NAN</DistanceMeters>
          </Trackpoint>
          <Trackpoint>
            <Time>2022-09-20T11:24:22.000Z</Time>
            <Position>
              <LatitudeDegrees>49.435356147587299346923828125</LatitudeDegrees>
              <LongitudeDegrees>20.262445248663425445556640625</LongitudeDegrees>
            </Position>
            <AltitudeMeters>539.4000244140625</AltitudeMeters>
            <DistanceMeters>NAN</DistanceMeters>
          </Trackpoint>
          <Trackpoint>
            <Time>2022-09-20T11:24:28.000Z</Time>
            <Position>
              <LatitudeDegrees>49.4353532977402210235595703125</LatitudeDegrees>
              <LongitudeDegrees>20.26244801469147205352783203125</LongitudeDegrees>
            </Position>
            <AltitudeMeters>539.4000244140625</AltitudeMeters>
            <DistanceMeters>NAN</DistanceMeters>
          </Trackpoint>
          <Trackpoint>
            <Time>2022-09-20T11:24:34.000Z</Time>
            <Position>
              <LatitudeDegrees>49.4353532977402210235595703125</LatitudeDegrees>
              <LongitudeDegrees>20.26244801469147205352783203125</LongitudeDegrees>
            </Position>
            <AltitudeMeters>539.4000244140625</AltitudeMeters>
            <DistanceMeters>NAN</DistanceMeters>
          </Trackpoint>
          <Trackpoint>
            <Time>2022-09-20T11:24:45.000Z</Time>
            <Position>
              <LatitudeDegrees>49.4353532977402210235595703125</LatitudeDegrees>
              <LongitudeDegrees>20.26244801469147205352783203125</LongitudeDegrees>
            </Position>
            <AltitudeMeters>539.4000244140625</AltitudeMeters>
            <DistanceMeters>NAN</DistanceMeters>
          </Trackpoint>
          <Trackpoint>
            <Time>2022-09-20T11:24:57.000Z</Time>
            <Position>
              <LatitudeDegrees>49.4353532977402210235595703125</LatitudeDegrees>
              <LongitudeDegrees>20.26244801469147205352783203125</LongitudeDegrees>
            </Position>
            <AltitudeMeters>539.4000244140625</AltitudeMeters>
            <DistanceMeters>NAN</DistanceMeters>
          </Trackpoint>
          <Trackpoint>
            <Time>2022-09-20T11:25:01.000Z</Time>
            <Position>
              <LatitudeDegrees>49.435353465378284454345703125</LatitudeDegrees>
              <LongitudeDegrees>20.26245228946208953857421875</LongitudeDegrees>
            </Position>
            <AltitudeMeters>539.5999755859375</AltitudeMeters>
            <DistanceMeters>NAN</DistanceMeters>
          </Trackpoint>
          <Trackpoint>
            <Time>2022-09-20T11:25:04.000Z</Time>
            <Position>
              <LatitudeDegrees>49.43534449674189090728759765625</LatitudeDegrees>
              <LongitudeDegrees>20.26252663694322109222412109375</LongitudeDegrees>
            </Position>
            <AltitudeMeters>539.5999755859375</AltitudeMeters>
            <DistanceMeters>NAN</DistanceMeters>
          </Trackpoint>
          <Trackpoint>
            <Time>2022-09-20T11:25:07.000Z</Time>
            <Position>
              <LatitudeDegrees>49.4353341870009899139404296875</LatitudeDegrees>
              <LongitudeDegrees>20.262582711875438690185546875</LongitudeDegrees>
            </Position>
            <AltitudeMeters>539.79998779296875</AltitudeMeters>
            <DistanceMeters>NAN</DistanceMeters>
          </Trackpoint>
          <Trackpoint>
            <Time>2022-09-20T11:25:10.000Z</Time>
            <Position>
              <LatitudeDegrees>49.43531583063304424285888671875</LatitudeDegrees>
              <LongitudeDegrees>20.26268119923770427703857421875</LongitudeDegrees>
            </Position>
            <AltitudeMeters>539.79998779296875</AltitudeMeters>
            <DistanceMeters>NAN</DistanceMeters>
          </Trackpoint>
          <Trackpoint>
            <Time>2022-09-20T11:25:15.000Z</Time>
            <Position>
              <LatitudeDegrees>49.43527626805007457733154296875</LatitudeDegrees>
              <LongitudeDegrees>20.26279670186340808868408203125</LongitudeDegrees>
            </Position>
            <AltitudeMeters>540</AltitudeMeters>
            <DistanceMeters>NAN</DistanceMeters>
          </Trackpoint>
          <Trackpoint>
            <Time>2022-09-20T11:25:17.000Z</Time>
            <Position>
              <LatitudeDegrees>49.43524961359798908233642578125</LatitudeDegrees>
              <LongitudeDegrees>20.26285353116691112518310546875</LongitudeDegrees>
            </Position>
            <AltitudeMeters>540</AltitudeMeters>
            <DistanceMeters>NAN</DistanceMeters>
          </Trackpoint>
          <Trackpoint>
            <Time>2022-09-20T11:25:22.000Z</Time>
            <Position>
              <LatitudeDegrees>49.43514668382704257965087890625</LatitudeDegrees>
              <LongitudeDegrees>20.2630626596510410308837890625</LongitudeDegrees>
            </Position>
            <AltitudeMeters>540.4000244140625</AltitudeMeters>
            <DistanceMeters>NAN</DistanceMeters>
          </Trackpoint>
          <Trackpoint>
            <Time>2022-09-20T11:25:24.000Z</Time>
            <Position>
              <LatitudeDegrees>49.4351118989288806915283203125</LatitudeDegrees>
              <LongitudeDegrees>20.26314052753150463104248046875</LongitudeDegrees>
            </Position>
            <AltitudeMeters>540.79998779296875</AltitudeMeters>
            <DistanceMeters>NAN</DistanceMeters>
          </Trackpoint>
          <Trackpoint>
            <Time>2022-09-20T11:25:28.000Z</Time>
            <Position>
              <LatitudeDegrees>49.4350500404834747314453125</LatitudeDegrees>
              <LongitudeDegrees>20.2632748894393444061279296875</LongitudeDegrees>
            </Position>
            <AltitudeMeters>541.4000244140625</AltitudeMeters>
            <DistanceMeters>NAN</DistanceMeters>
          </Trackpoint>
          <Trackpoint>
            <Time>2022-09-20T11:25:31.000Z</Time>
            <Position>
              <LatitudeDegrees>49.4350123219192028045654296875</LatitudeDegrees>
              <LongitudeDegrees>20.26333666406571865081787109375</LongitudeDegrees>
            </Position>
            <AltitudeMeters>541.5999755859375</AltitudeMeters>
            <DistanceMeters>NAN</DistanceMeters>
          </Trackpoint>
          <Trackpoint>
            <Time>2022-09-20T11:25:33.000Z</Time>
            <Position>
              <LatitudeDegrees>49.4349990785121917724609375</LatitudeDegrees>
              <LongitudeDegrees>20.2633895538747310638427734375</LongitudeDegrees>
            </Position>
            <AltitudeMeters>541.79998779296875</AltitudeMeters>
            <DistanceMeters>NAN</DistanceMeters>
          </Trackpoint>
          <Trackpoint>
            <Time>2022-09-20T11:25:34.000Z</Time>
            <Position>
              <LatitudeDegrees>49.43499396555125713348388671875</LatitudeDegrees>
              <LongitudeDegrees>20.263417549431324005126953125</LongitudeDegrees>
            </Position>
            <AltitudeMeters>542</AltitudeMeters>
            <DistanceMeters>NAN</DistanceMeters>
          </Trackpoint>
          <Trackpoint>
            <Time>2022-09-20T11:25:36.000Z</Time>
            <Position>
              <LatitudeDegrees>49.43498239852488040924072265625</LatitudeDegrees>
              <LongitudeDegrees>20.2634735405445098876953125</LongitudeDegrees>
            </Position>
            <AltitudeMeters>542.4000244140625</AltitudeMeters>
            <DistanceMeters>NAN</DistanceMeters>
          </Trackpoint>
          <Trackpoint>
            <Time>2022-09-20T11:25:39.000Z</Time>
            <Position>
              <LatitudeDegrees>49.43494752980768680572509765625</LatitudeDegrees>
              <LongitudeDegrees>20.26355811394751071929931640625</LongitudeDegrees>
            </Position>
            <AltitudeMeters>543</AltitudeMeters>
            <DistanceMeters>NAN</DistanceMeters>
          </Trackpoint>
          <Trackpoint>
            <Time>2022-09-20T11:25:45.000Z</Time>
            <Position>
              <LatitudeDegrees>49.43488416261970996856689453125</LatitudeDegrees>
              <LongitudeDegrees>20.26375676505267620086669921875</LongitudeDegrees>
            </Position>
            <AltitudeMeters>543.4000244140625</AltitudeMeters>
            <DistanceMeters>NAN</DistanceMeters>
          </Trackpoint>
          <Trackpoint>
            <Time>2022-09-20T11:25:52.000Z</Time>
            <Position>
              <LatitudeDegrees>49.434809982776641845703125</LatitudeDegrees>
              <LongitudeDegrees>20.26401492767035961151123046875</LongitudeDegrees>
            </Position>
            <AltitudeMeters>543.4000244140625</AltitudeMeters>
            <DistanceMeters>NAN</DistanceMeters>
          </Trackpoint>
          <Trackpoint>
            <Time>2022-09-20T11:25:56.000Z</Time>
            <Position>
              <LatitudeDegrees>49.4347876869142055511474609375</LatitudeDegrees>
              <LongitudeDegrees>20.26420687325298786163330078125</LongitudeDegrees>
            </Position>
            <AltitudeMeters>543.20001220703125</AltitudeMeters>
            <DistanceMeters>NAN</DistanceMeters>
          </Trackpoint>
          <Trackpoint>
            <Time>2022-09-20T11:26:00.000Z</Time>
            <Position>
              <LatitudeDegrees>49.43476639688014984130859375</LatitudeDegrees>
              <LongitudeDegrees>20.2644230425357818603515625</LongitudeDegrees>
            </Position>
            <AltitudeMeters>543</AltitudeMeters>
            <DistanceMeters>NAN</DistanceMeters>
          </Trackpoint>
          <Trackpoint>
            <Time>2022-09-20T11:26:07.000Z</Time>
            <Position>
              <LatitudeDegrees>49.43470210768282413482666015625</LatitudeDegrees>
              <LongitudeDegrees>20.26477315463125705718994140625</LongitudeDegrees>
            </Position>
            <AltitudeMeters>542.79998779296875</AltitudeMeters>
            <DistanceMeters>NAN</DistanceMeters>
          </Trackpoint>
          <Trackpoint>
            <Time>2022-09-20T11:26:12.000Z</Time>
            <Position>
              <LatitudeDegrees>49.4346716813743114471435546875</LatitudeDegrees>
              <LongitudeDegrees>20.264989994466304779052734375</LongitudeDegrees>
            </Position>
            <AltitudeMeters>542.79998779296875</AltitudeMeters>
            <DistanceMeters>NAN</DistanceMeters>
          </Trackpoint>
          <Trackpoint>
            <Time>2022-09-20T11:26:13.000Z</Time>
            <Position>
              <LatitudeDegrees>49.434666149318218231201171875</LatitudeDegrees>
              <LongitudeDegrees>20.26503114961087703704833984375</LongitudeDegrees>
            </Position>
            <AltitudeMeters>542.79998779296875</AltitudeMeters>
            <DistanceMeters>NAN</DistanceMeters>
          </Trackpoint>
          <Trackpoint>
            <Time>2022-09-20T11:26:18.000Z</Time>
            <Position>
              <LatitudeDegrees>49.43465164862573146820068359375</LatitudeDegrees>
              <LongitudeDegrees>20.26532870717346668243408203125</LongitudeDegrees>
            </Position>
            <AltitudeMeters>542.4000244140625</AltitudeMeters>
            <DistanceMeters>NAN</DistanceMeters>
          </Trackpoint>
          <Trackpoint>
            <Time>2022-09-20T11:26:19.000Z</Time>
            <Position>
              <LatitudeDegrees>49.43467092700302600860595703125</LatitudeDegrees>
              <LongitudeDegrees>20.265409760177135467529296875</LongitudeDegrees>
            </Position>
            <AltitudeMeters>542.20001220703125</AltitudeMeters>
            <DistanceMeters>NAN</DistanceMeters>
          </Trackpoint>
          <Trackpoint>
            <Time>2022-09-20T11:26:20.000Z</Time>
            <Position>
              <LatitudeDegrees>49.4346864335238933563232421875</LatitudeDegrees>
              <LongitudeDegrees>20.26549248956143856048583984375</LongitudeDegrees>
            </Position>
            <AltitudeMeters>542</AltitudeMeters>
            <DistanceMeters>NAN</DistanceMeters>
          </Trackpoint>
          <Trackpoint>
            <Time>2022-09-20T11:26:22.000Z</Time>
            <Position>
              <LatitudeDegrees>49.43470261059701442718505859375</LatitudeDegrees>
              <LongitudeDegrees>20.2656756341457366943359375</LongitudeDegrees>
            </Position>
            <AltitudeMeters>541.20001220703125</AltitudeMeters>
            <DistanceMeters>NAN</DistanceMeters>
          </Trackpoint>
          <Trackpoint>
            <Time>2022-09-20T11:26:24.000Z</Time>
            <Position>
              <LatitudeDegrees>49.434695653617382049560546875</LatitudeDegrees>
              <LongitudeDegrees>20.2658446133136749267578125</LongitudeDegrees>
            </Position>
            <AltitudeMeters>540.79998779296875</AltitudeMeters>
            <DistanceMeters>NAN</DistanceMeters>
          </Trackpoint>
          <Trackpoint>
            <Time>2022-09-20T11:26:27.000Z</Time>
            <Position>
              <LatitudeDegrees>49.43468098528683185577392578125</LatitudeDegrees>
              <LongitudeDegrees>20.26617586612701416015625</LongitudeDegrees>
            </Position>
            <AltitudeMeters>539.20001220703125</AltitudeMeters>
            <DistanceMeters>NAN</DistanceMeters>
          </Trackpoint>
          <Trackpoint>
            <Time>2022-09-20T11:26:28.000Z</Time>
            <Position>
              <LatitudeDegrees>49.434675872325897216796875</LatitudeDegrees>
              <LongitudeDegrees>20.26630184613168239593505859375</LongitudeDegrees>
            </Position>
            <AltitudeMeters>538.79998779296875</AltitudeMeters>
            <DistanceMeters>NAN</DistanceMeters>
          </Trackpoint>
          <Trackpoint>
            <Time>2022-09-20T11:26:34.000Z</Time>
            <Position>
              <LatitudeDegrees>49.4346240721642971038818359375</LatitudeDegrees>
              <LongitudeDegrees>20.26684717275202274322509765625</LongitudeDegrees>
            </Position>
            <AltitudeMeters>538.4000244140625</AltitudeMeters>
            <DistanceMeters>NAN</DistanceMeters>
          </Trackpoint>
          <Trackpoint>
            <Time>2022-09-20T11:26:39.000Z</Time>
            <Position>
              <LatitudeDegrees>49.4346555881202220916748046875</LatitudeDegrees>
              <LongitudeDegrees>20.26724179275333881378173828125</LongitudeDegrees>
            </Position>
            <AltitudeMeters>539</AltitudeMeters>
            <DistanceMeters>NAN</DistanceMeters>
          </Trackpoint>
          <Trackpoint>
            <Time>2022-09-20T11:26:40.000Z</Time>
            <Position>
              <LatitudeDegrees>49.43467092700302600860595703125</LatitudeDegrees>
              <LongitudeDegrees>20.26733550243079662322998046875</LongitudeDegrees>
            </Position>
            <AltitudeMeters>539</AltitudeMeters>
            <DistanceMeters>NAN</DistanceMeters>
          </Trackpoint>
          <Trackpoint>
            <Time>2022-09-20T11:26:41.000Z</Time>
            <Position>
              <LatitudeDegrees>49.43468727171421051025390625</LatitudeDegrees>
              <LongitudeDegrees>20.2673950977623462677001953125</LongitudeDegrees>
            </Position>
            <AltitudeMeters>539</AltitudeMeters>
            <DistanceMeters>NAN</DistanceMeters>
          </Trackpoint>
          <Trackpoint>
            <Time>2022-09-20T11:26:44.000Z</Time>
            <Position>
              <LatitudeDegrees>49.43476798944175243377685546875</LatitudeDegrees>
              <LongitudeDegrees>20.2676190622150897979736328125</LongitudeDegrees>
            </Position>
            <AltitudeMeters>538.4000244140625</AltitudeMeters>
            <DistanceMeters>NAN</DistanceMeters>
          </Trackpoint>
          <Trackpoint>
            <Time>2022-09-20T11:26:45.000Z</Time>
            <Position>
              <LatitudeDegrees>49.43478207103908061981201171875</LatitudeDegrees>
              <LongitudeDegrees>20.2677033841609954833984375</LongitudeDegrees>
            </Position>
            <AltitudeMeters>537.79998779296875</AltitudeMeters>
            <DistanceMeters>NAN</DistanceMeters>
          </Trackpoint>
          <Trackpoint>
            <Time>2022-09-20T11:26:46.000Z</Time>
            <Position>
              <LatitudeDegrees>49.434787519276142120361328125</LatitudeDegrees>
              <LongitudeDegrees>20.2677967585623264312744140625</LongitudeDegrees>
            </Position>
            <AltitudeMeters>537.5999755859375</AltitudeMeters>
            <DistanceMeters>NAN</DistanceMeters>
          </Trackpoint>
          <Trackpoint>
            <Time>2022-09-20T11:26:48.000Z</Time>
            <Position>
              <LatitudeDegrees>49.43475105799734592437744140625</LatitudeDegrees>
              <LongitudeDegrees>20.2679850161075592041015625</LongitudeDegrees>
            </Position>
            <AltitudeMeters>536.4000244140625</AltitudeMeters>
            <DistanceMeters>NAN</DistanceMeters>
          </Trackpoint>
          <Trackpoint>
            <Time>2022-09-20T11:26:49.000Z</Time>
            <Position>
              <LatitudeDegrees>49.43471484817564487457275390625</LatitudeDegrees>
              <LongitudeDegrees>20.26806958951056003570556640625</LongitudeDegrees>
            </Position>
            <AltitudeMeters>535.5999755859375</AltitudeMeters>
            <DistanceMeters>NAN</DistanceMeters>
          </Trackpoint>
          <Trackpoint>
            <Time>2022-09-20T11:26:50.000Z</Time>
            <Position>
              <LatitudeDegrees>49.43467654287815093994140625</LatitudeDegrees>
              <LongitudeDegrees>20.26814452372491359710693359375</LongitudeDegrees>
            </Position>
            <AltitudeMeters>534.79998779296875</AltitudeMeters>
            <DistanceMeters>NAN</DistanceMeters>
          </Trackpoint>
          <Trackpoint>
            <Time>2022-09-20T11:26:52.000Z</Time>
            <Position>
              <LatitudeDegrees>49.434603787958621978759765625</LatitudeDegrees>
              <LongitudeDegrees>20.2682614512741565704345703125</LongitudeDegrees>
            </Position>
            <AltitudeMeters>533.79998779296875</AltitudeMeters>
            <DistanceMeters>NAN</DistanceMeters>
          </Trackpoint>
          <Trackpoint>
            <Time>2022-09-20T11:26:55.000Z</Time>
            <Position>
              <LatitudeDegrees>49.43449147045612335205078125</LatitudeDegrees>
              <LongitudeDegrees>20.26838743127882480621337890625</LongitudeDegrees>
            </Position>
            <AltitudeMeters>532.79998779296875</AltitudeMeters>
            <DistanceMeters>NAN</DistanceMeters>
          </Trackpoint>
          <Trackpoint>
            <Time>2022-09-20T11:26:56.000Z</Time>
            <Position>
              <LatitudeDegrees>49.43446624092757701873779296875</LatitudeDegrees>
              <LongitudeDegrees>20.26843822561204433441162109375</LongitudeDegrees>
            </Position>
            <AltitudeMeters>532.20001220703125</AltitudeMeters>
            <DistanceMeters>NAN</DistanceMeters>
          </Trackpoint>
          <Trackpoint>
            <Time>2022-09-20T11:26:57.000Z</Time>
            <Position>
              <LatitudeDegrees>49.4344487227499485015869140625</LatitudeDegrees>
              <LongitudeDegrees>20.26849824003875255584716796875</LongitudeDegrees>
            </Position>
            <AltitudeMeters>531.79998779296875</AltitudeMeters>
            <DistanceMeters>NAN</DistanceMeters>
          </Trackpoint>
          <Trackpoint>
            <Time>2022-09-20T11:26:59.000Z</Time>
            <Position>
              <LatitudeDegrees>49.4344363175332546234130859375</LatitudeDegrees>
              <LongitudeDegrees>20.2686329372227191925048828125</LongitudeDegrees>
            </Position>
            <AltitudeMeters>530.5999755859375</AltitudeMeters>
            <DistanceMeters>NAN</DistanceMeters>
          </Trackpoint>
          <Trackpoint>
            <Time>2022-09-20T11:27:00.000Z</Time>
            <Position>
              <LatitudeDegrees>49.434434473514556884765625</LatitudeDegrees>
              <LongitudeDegrees>20.268692113459110260009765625</LongitudeDegrees>
            </Position>
            <AltitudeMeters>530.4000244140625</AltitudeMeters>
            <DistanceMeters>NAN</DistanceMeters>
          </Trackpoint>
          <Trackpoint>
            <Time>2022-09-20T11:27:01.000Z</Time>
            <Position>
              <LatitudeDegrees>49.43443153984844684600830078125</LatitudeDegrees>
              <LongitudeDegrees>20.268752463161945343017578125</LongitudeDegrees>
            </Position>
            <AltitudeMeters>530.20001220703125</AltitudeMeters>
            <DistanceMeters>NAN</DistanceMeters>
          </Trackpoint>
          <Trackpoint>
            <Time>2022-09-20T11:27:03.000Z</Time>
            <Position>
              <LatitudeDegrees>49.43443070165812969207763671875</LatitudeDegrees>
              <LongitudeDegrees>20.26887743733823299407958984375</LongitudeDegrees>
            </Position>
            <AltitudeMeters>530</AltitudeMeters>
            <DistanceMeters>NAN</DistanceMeters>
          </Trackpoint>
          <Trackpoint>
            <Time>2022-09-20T11:27:04.000Z</Time>
            <Position>
              <LatitudeDegrees>49.4344446994364261627197265625</LatitudeDegrees>
              <LongitudeDegrees>20.2689211070537567138671875</LongitudeDegrees>
            </Position>
            <AltitudeMeters>530</AltitudeMeters>
            <DistanceMeters>NAN</DistanceMeters>
          </Trackpoint>
          <Trackpoint>
            <Time>2022-09-20T11:27:05.000Z</Time>
            <Position>
              <LatitudeDegrees>49.43446758203208446502685546875</LatitudeDegrees>
              <LongitudeDegrees>20.26895538903772830963134765625</LongitudeDegrees>
            </Position>
            <AltitudeMeters>530.20001220703125</AltitudeMeters>
            <DistanceMeters>NAN</DistanceMeters>
          </Trackpoint>
          <Trackpoint>
            <Time>2022-09-20T11:27:07.000Z</Time>
            <Position>
              <LatitudeDegrees>49.43451158702373504638671875</LatitudeDegrees>
              <LongitudeDegrees>20.26896075345575809478759765625</LongitudeDegrees>
            </Position>
            <AltitudeMeters>530.20001220703125</AltitudeMeters>
            <DistanceMeters>NAN</DistanceMeters>
          </Trackpoint>
          <Trackpoint>
            <Time>2022-09-20T11:27:13.000Z</Time>
            <Position>
              <LatitudeDegrees>49.43462692201137542724609375</LatitudeDegrees>
              <LongitudeDegrees>20.26900492608547210693359375</LongitudeDegrees>
            </Position>
            <AltitudeMeters>531.5999755859375</AltitudeMeters>
            <DistanceMeters>NAN</DistanceMeters>
          </Trackpoint>
          <Trackpoint>
            <Time>2022-09-20T11:27:14.000Z</Time>
            <Position>
              <LatitudeDegrees>49.434645362198352813720703125</LatitudeDegrees>
              <LongitudeDegrees>20.26901238597929477691650390625</LongitudeDegrees>
            </Position>
            <AltitudeMeters>531.79998779296875</AltitudeMeters>
            <DistanceMeters>NAN</DistanceMeters>
          </Trackpoint>
          <Trackpoint>
            <Time>2022-09-20T11:27:20.000Z</Time>
            <Position>
              <LatitudeDegrees>49.43475407548248767852783203125</LatitudeDegrees>
              <LongitudeDegrees>20.269009284675121307373046875</LongitudeDegrees>
            </Position>
            <AltitudeMeters>532.20001220703125</AltitudeMeters>
            <DistanceMeters>NAN</DistanceMeters>
          </Trackpoint>
          <Trackpoint>
            <Time>2022-09-20T11:27:22.000Z</Time>
            <Position>
              <LatitudeDegrees>49.434777796268463134765625</LatitudeDegrees>
              <LongitudeDegrees>20.26900065131485462188720703125</LongitudeDegrees>
            </Position>
            <AltitudeMeters>532.20001220703125</AltitudeMeters>
            <DistanceMeters>NAN</DistanceMeters>
          </Trackpoint>
          <Trackpoint>
            <Time>2022-09-20T11:27:25.000Z</Time>
            <Position>
              <LatitudeDegrees>49.434777796268463134765625</LatitudeDegrees>
              <LongitudeDegrees>20.26900065131485462188720703125</LongitudeDegrees>
            </Position>
            <AltitudeMeters>532.4000244140625</AltitudeMeters>
            <DistanceMeters>NAN</DistanceMeters>
          </Trackpoint>
          <Trackpoint>
            <Time>2022-09-20T11:27:30.000Z</Time>
            <Position>
              <LatitudeDegrees>49.434777796268463134765625</LatitudeDegrees>
              <LongitudeDegrees>20.26900065131485462188720703125</LongitudeDegrees>
            </Position>
            <AltitudeMeters>532.5999755859375</AltitudeMeters>
            <DistanceMeters>NAN</DistanceMeters>
          </Trackpoint>
          <Trackpoint>
            <Time>2022-09-20T11:27:33.000Z</Time>
            <Position>
              <LatitudeDegrees>49.434777796268463134765625</LatitudeDegrees>
              <LongitudeDegrees>20.26900065131485462188720703125</LongitudeDegrees>
            </Position>
            <AltitudeMeters>532.5999755859375</AltitudeMeters>
            <DistanceMeters>NAN</DistanceMeters>
          </Trackpoint>
          <Trackpoint>
            <Time>2022-09-20T11:27:37.000Z</Time>
            <Position>
              <LatitudeDegrees>49.43477301858365535736083984375</LatitudeDegrees>
              <LongitudeDegrees>20.26900635100901126861572265625</LongitudeDegrees>
            </Position>
            <AltitudeMeters>532.4000244140625</AltitudeMeters>
            <DistanceMeters>NAN</DistanceMeters>
          </Trackpoint>
          <Trackpoint>
            <Time>2022-09-20T11:27:42.000Z</Time>
            <Position>
              <LatitudeDegrees>49.43477301858365535736083984375</LatitudeDegrees>
              <LongitudeDegrees>20.26900635100901126861572265625</LongitudeDegrees>
            </Position>
            <AltitudeMeters>532.4000244140625</AltitudeMeters>
            <DistanceMeters>NAN</DistanceMeters>
          </Trackpoint>
          <Trackpoint>
            <Time>2022-09-20T11:27:43.000Z</Time>
            <Position>
              <LatitudeDegrees>49.43477301858365535736083984375</LatitudeDegrees>
              <LongitudeDegrees>20.26900635100901126861572265625</LongitudeDegrees>
            </Position>
            <AltitudeMeters>532.4000244140625</AltitudeMeters>
            <DistanceMeters>NAN</DistanceMeters>
          </Trackpoint>
          <Trackpoint>
            <Time>2022-09-20T11:27:54.000Z</Time>
            <Position>
              <LatitudeDegrees>49.43477301858365535736083984375</LatitudeDegrees>
              <LongitudeDegrees>20.26900635100901126861572265625</LongitudeDegrees>
            </Position>
            <AltitudeMeters>532.5999755859375</AltitudeMeters>
            <DistanceMeters>NAN</DistanceMeters>
          </Trackpoint>
          <Trackpoint>
            <Time>2022-09-20T11:27:59.000Z</Time>
            <Position>
              <LatitudeDegrees>49.43482968024909496307373046875</LatitudeDegrees>
              <LongitudeDegrees>20.26898656971752643585205078125</LongitudeDegrees>
            </Position>
            <AltitudeMeters>532.5999755859375</AltitudeMeters>
            <DistanceMeters>NAN</DistanceMeters>
          </Trackpoint>
          <Trackpoint>
            <Time>2022-09-20T11:28:05.000Z</Time>
            <Position>
              <LatitudeDegrees>49.43498876877129077911376953125</LatitudeDegrees>
              <LongitudeDegrees>20.26899327524006366729736328125</LongitudeDegrees>
            </Position>
            <AltitudeMeters>532.4000244140625</AltitudeMeters>
            <DistanceMeters>NAN</DistanceMeters>
          </Trackpoint>
          <Trackpoint>
            <Time>2022-09-20T11:28:07.000Z</Time>
            <Position>
              <LatitudeDegrees>49.4350580871105194091796875</LatitudeDegrees>
              <LongitudeDegrees>20.2690050937235355377197265625</LongitudeDegrees>
            </Position>
            <AltitudeMeters>532</AltitudeMeters>
            <DistanceMeters>NAN</DistanceMeters>
          </Trackpoint>
          <Trackpoint>
            <Time>2022-09-20T11:28:09.000Z</Time>
            <Position>
              <LatitudeDegrees>49.4351226277649402618408203125</LatitudeDegrees>
              <LongitudeDegrees>20.269024036824703216552734375</LongitudeDegrees>
            </Position>
            <AltitudeMeters>531.20001220703125</AltitudeMeters>
            <DistanceMeters>NAN</DistanceMeters>
          </Trackpoint>
          <Trackpoint>
            <Time>2022-09-20T11:28:10.000Z</Time>
            <Position>
              <LatitudeDegrees>49.43515623919665813446044921875</LatitudeDegrees>
              <LongitudeDegrees>20.26903711259365081787109375</LongitudeDegrees>
            </Position>
            <AltitudeMeters>530.79998779296875</AltitudeMeters>
            <DistanceMeters>NAN</DistanceMeters>
          </Trackpoint>
          <Trackpoint>
            <Time>2022-09-20T11:28:12.000Z</Time>
            <Position>
              <LatitudeDegrees>49.43522899411618709564208984375</LatitudeDegrees>
              <LongitudeDegrees>20.26905831880867481231689453125</LongitudeDegrees>
            </Position>
            <AltitudeMeters>529.79998779296875</AltitudeMeters>
            <DistanceMeters>NAN</DistanceMeters>
          </Trackpoint>
          <Trackpoint>
            <Time>2022-09-20T11:28:13.000Z</Time>
            <Position>
              <LatitudeDegrees>49.435270316898822784423828125</LatitudeDegrees>
              <LongitudeDegrees>20.26906929910182952880859375</LongitudeDegrees>
            </Position>
            <AltitudeMeters>529</AltitudeMeters>
            <DistanceMeters>NAN</DistanceMeters>
          </Trackpoint>
          <Trackpoint>
            <Time>2022-09-20T11:28:15.000Z</Time>
            <Position>
              <LatitudeDegrees>49.43531197495758533477783203125</LatitudeDegrees>
              <LongitudeDegrees>20.26908245868980884552001953125</LongitudeDegrees>
            </Position>
            <AltitudeMeters>527.79998779296875</AltitudeMeters>
            <DistanceMeters>NAN</DistanceMeters>
          </Trackpoint>
          <Trackpoint>
            <Time>2022-09-20T11:28:16.000Z</Time>
            <Position>
              <LatitudeDegrees>49.43538372404873371124267578125</LatitudeDegrees>
              <LongitudeDegrees>20.26913828216493129730224609375</LongitudeDegrees>
            </Position>
            <AltitudeMeters>527</AltitudeMeters>
            <DistanceMeters>NAN</DistanceMeters>
          </Trackpoint>
          <Trackpoint>
            <Time>2022-09-20T11:28:17.000Z</Time>
            <Position>
              <LatitudeDegrees>49.4353985600173473358154296875</LatitudeDegrees>
              <LongitudeDegrees>20.26918463408946990966796875</LongitudeDegrees>
            </Position>
            <AltitudeMeters>526.20001220703125</AltitudeMeters>
            <DistanceMeters>NAN</DistanceMeters>
          </Trackpoint>
          <Trackpoint>
            <Time>2022-09-20T11:28:18.000Z</Time>
            <Position>
              <LatitudeDegrees>49.435403756797313690185546875</LatitudeDegrees>
              <LongitudeDegrees>20.2692303992807865142822265625</LongitudeDegrees>
            </Position>
            <AltitudeMeters>525.79998779296875</AltitudeMeters>
            <DistanceMeters>NAN</DistanceMeters>
          </Trackpoint>
          <Trackpoint>
            <Time>2022-09-20T11:28:20.000Z</Time>
            <Position>
              <LatitudeDegrees>49.4353948719799518585205078125</LatitudeDegrees>
              <LongitudeDegrees>20.26929351501166820526123046875</LongitudeDegrees>
            </Position>
            <AltitudeMeters>525.5999755859375</AltitudeMeters>
            <DistanceMeters>NAN</DistanceMeters>
          </Trackpoint>
          <Trackpoint>
            <Time>2022-09-20T11:28:22.000Z</Time>
            <Position>
              <LatitudeDegrees>49.43538841791450977325439453125</LatitudeDegrees>
              <LongitudeDegrees>20.2693531103432178497314453125</LongitudeDegrees>
            </Position>
            <AltitudeMeters>525.79998779296875</AltitudeMeters>
            <DistanceMeters>NAN</DistanceMeters>
          </Trackpoint>
          <Trackpoint>
            <Time>2022-09-20T11:28:24.000Z</Time>
            <Position>
              <LatitudeDegrees>49.4353841431438922882080078125</LatitudeDegrees>
              <LongitudeDegrees>20.269413292407989501953125</LongitudeDegrees>
            </Position>
            <AltitudeMeters>526</AltitudeMeters>
            <DistanceMeters>NAN</DistanceMeters>
          </Trackpoint>
          <Trackpoint>
            <Time>2022-09-20T11:28:27.000Z</Time>
            <Position>
              <LatitudeDegrees>49.435376934707164764404296875</LatitudeDegrees>
              <LongitudeDegrees>20.2694602310657501220703125</LongitudeDegrees>
            </Position>
            <AltitudeMeters>527.20001220703125</AltitudeMeters>
            <DistanceMeters>NAN</DistanceMeters>
          </Trackpoint>
          <Trackpoint>
            <Time>2022-09-20T11:28:28.000Z</Time>
            <Position>
              <LatitudeDegrees>49.43537257611751556396484375</LatitudeDegrees>
              <LongitudeDegrees>20.26951060630381107330322265625</LongitudeDegrees>
            </Position>
            <AltitudeMeters>527.4000244140625</AltitudeMeters>
            <DistanceMeters>NAN</DistanceMeters>
          </Trackpoint>
          <Trackpoint>
            <Time>2022-09-20T11:28:31.000Z</Time>
            <Position>
              <LatitudeDegrees>49.43536126054823398590087890625</LatitudeDegrees>
              <LongitudeDegrees>20.26959476061165332794189453125</LongitudeDegrees>
            </Position>
            <AltitudeMeters>528.4000244140625</AltitudeMeters>
            <DistanceMeters>NAN</DistanceMeters>
          </Trackpoint>
          <Trackpoint>
            <Time>2022-09-20T11:28:32.000Z</Time>
            <Position>
              <LatitudeDegrees>49.43535991944372653961181640625</LatitudeDegrees>
              <LongitudeDegrees>20.269621498882770538330078125</LongitudeDegrees>
            </Position>
            <AltitudeMeters>528.5999755859375</AltitudeMeters>
            <DistanceMeters>NAN</DistanceMeters>
          </Trackpoint>
          <Trackpoint>
            <Time>2022-09-20T11:28:34.000Z</Time>
            <Position>
              <LatitudeDegrees>49.4353556446731090545654296875</LatitudeDegrees>
              <LongitudeDegrees>20.269679166376590728759765625</LongitudeDegrees>
            </Position>
            <AltitudeMeters>529.20001220703125</AltitudeMeters>
            <DistanceMeters>NAN</DistanceMeters>
          </Trackpoint>
          <Trackpoint>
            <Time>2022-09-20T11:28:35.000Z</Time>
            <Position>
              <LatitudeDegrees>49.43535606376826763153076171875</LatitudeDegrees>
              <LongitudeDegrees>20.26970422826707363128662109375</LongitudeDegrees>
            </Position>
            <AltitudeMeters>529.4000244140625</AltitudeMeters>
            <DistanceMeters>NAN</DistanceMeters>
          </Trackpoint>
          <Trackpoint>
            <Time>2022-09-20T11:28:37.000Z</Time>
            <Position>
              <LatitudeDegrees>49.43535790778696537017822265625</LatitudeDegrees>
              <LongitudeDegrees>20.26975552551448345184326171875</LongitudeDegrees>
            </Position>
            <AltitudeMeters>530</AltitudeMeters>
            <DistanceMeters>NAN</DistanceMeters>
          </Trackpoint>
          <Trackpoint>
            <Time>2022-09-20T11:28:40.000Z</Time>
            <Position>
              <LatitudeDegrees>49.43535841070115566253662109375</LatitudeDegrees>
              <LongitudeDegrees>20.26984068565070629119873046875</LongitudeDegrees>
            </Position>
            <AltitudeMeters>530.79998779296875</AltitudeMeters>
            <DistanceMeters>NAN</DistanceMeters>
          </Trackpoint>
          <Trackpoint>
            <Time>2022-09-20T11:28:41.000Z</Time>
            <Position>
              <LatitudeDegrees>49.43536318838596343994140625</LatitudeDegrees>
              <LongitudeDegrees>20.269864909350872039794921875</LongitudeDegrees>
            </Position>
            <AltitudeMeters>530.79998779296875</AltitudeMeters>
            <DistanceMeters>NAN</DistanceMeters>
          </Trackpoint>
          <Trackpoint>
            <Time>2022-09-20T11:28:43.000Z</Time>
            <Position>
              <LatitudeDegrees>49.43537048064172267913818359375</LatitudeDegrees>
              <LongitudeDegrees>20.26991142891347408294677734375</LongitudeDegrees>
            </Position>
            <AltitudeMeters>531</AltitudeMeters>
            <DistanceMeters>NAN</DistanceMeters>
          </Trackpoint>
          <Trackpoint>
            <Time>2022-09-20T11:28:47.000Z</Time>
            <Position>
              <LatitudeDegrees>49.43536578677594661712646484375</LatitudeDegrees>
              <LongitudeDegrees>20.26999943889677524566650390625</LongitudeDegrees>
            </Position>
            <AltitudeMeters>531.4000244140625</AltitudeMeters>
            <DistanceMeters>NAN</DistanceMeters>
          </Trackpoint>
          <Trackpoint>
            <Time>2022-09-20T11:28:49.000Z</Time>
            <Position>
              <LatitudeDegrees>49.435361512005329132080078125</LatitudeDegrees>
              <LongitudeDegrees>20.2700424380600452423095703125</LongitudeDegrees>
            </Position>
            <AltitudeMeters>531.5999755859375</AltitudeMeters>
            <DistanceMeters>NAN</DistanceMeters>
          </Trackpoint>
          <Trackpoint>
            <Time>2022-09-20T11:28:55.000Z</Time>
            <Position>
              <LatitudeDegrees>49.435357488691806793212890625</LatitudeDegrees>
              <LongitudeDegrees>20.27017629705369472503662109375</LongitudeDegrees>
            </Position>
            <AltitudeMeters>531.79998779296875</AltitudeMeters>
            <DistanceMeters>NAN</DistanceMeters>
          </Trackpoint>
          <Trackpoint>
            <Time>2022-09-20T11:28:56.000Z</Time>
            <Position>
              <LatitudeDegrees>49.43535874597728252410888671875</LatitudeDegrees>
              <LongitudeDegrees>20.27020328678190708160400390625</LongitudeDegrees>
            </Position>
            <AltitudeMeters>531.79998779296875</AltitudeMeters>
            <DistanceMeters>NAN</DistanceMeters>
          </Trackpoint>
          <Trackpoint>
            <Time>2022-09-20T11:28:57.000Z</Time>
            <Position>
              <LatitudeDegrees>49.43535983562469482421875</LatitudeDegrees>
              <LongitudeDegrees>20.27023295871913433074951171875</LongitudeDegrees>
            </Position>
            <AltitudeMeters>531.79998779296875</AltitudeMeters>
            <DistanceMeters>NAN</DistanceMeters>
          </Trackpoint>
          <Trackpoint>
            <Time>2022-09-20T11:29:05.000Z</Time>
            <Position>
              <LatitudeDegrees>49.435352124273777008056640625</LatitudeDegrees>
              <LongitudeDegrees>20.27044259011745452880859375</LongitudeDegrees>
            </Position>
            <AltitudeMeters>531.79998779296875</AltitudeMeters>
            <DistanceMeters>NAN</DistanceMeters>
          </Trackpoint>
          <Trackpoint>
            <Time>2022-09-20T11:29:10.000Z</Time>
            <Position>
              <LatitudeDegrees>49.43533913232386112213134765625</LatitudeDegrees>
              <LongitudeDegrees>20.27056060731410980224609375</LongitudeDegrees>
            </Position>
            <AltitudeMeters>532.20001220703125</AltitudeMeters>
            <DistanceMeters>NAN</DistanceMeters>
          </Trackpoint>
          <Trackpoint>
            <Time>2022-09-20T11:29:14.000Z</Time>
            <Position>
              <LatitudeDegrees>49.4353237934410572052001953125</LatitudeDegrees>
              <LongitudeDegrees>20.27065305970609188079833984375</LongitudeDegrees>
            </Position>
            <AltitudeMeters>532.4000244140625</AltitudeMeters>
            <DistanceMeters>NAN</DistanceMeters>
          </Trackpoint>
          <Trackpoint>
            <Time>2022-09-20T11:29:24.000Z</Time>
            <Position>
              <LatitudeDegrees>49.4352761842310428619384765625</LatitudeDegrees>
              <LongitudeDegrees>20.27086503803730010986328125</LongitudeDegrees>
            </Position>
            <AltitudeMeters>532.79998779296875</AltitudeMeters>
            <DistanceMeters>NAN</DistanceMeters>
          </Trackpoint>
          <Trackpoint>
            <Time>2022-09-20T11:29:29.000Z</Time>
            <Position>
              <LatitudeDegrees>49.43526528775691986083984375</LatitudeDegrees>
              <LongitudeDegrees>20.27095514349639415740966796875</LongitudeDegrees>
            </Position>
            <AltitudeMeters>533.20001220703125</AltitudeMeters>
            <DistanceMeters>NAN</DistanceMeters>
          </Trackpoint>
          <Trackpoint>
            <Time>2022-09-20T11:29:33.000Z</Time>
            <Position>
              <LatitudeDegrees>49.43524651229381561279296875</LatitudeDegrees>
              <LongitudeDegrees>20.271010883152484893798828125</LongitudeDegrees>
            </Position>
            <AltitudeMeters>533.4000244140625</AltitudeMeters>
            <DistanceMeters>NAN</DistanceMeters>
          </Trackpoint>
          <Trackpoint>
            <Time>2022-09-20T11:29:37.000Z</Time>
            <Position>
              <LatitudeDegrees>49.4352416507899761199951171875</LatitudeDegrees>
              <LongitudeDegrees>20.27100610546767711639404296875</LongitudeDegrees>
            </Position>
            <AltitudeMeters>533.5999755859375</AltitudeMeters>
            <DistanceMeters>NAN</DistanceMeters>
          </Trackpoint>
          <Trackpoint>
            <Time>2022-09-20T11:29:39.000Z</Time>
            <Position>
              <LatitudeDegrees>49.4352416507899761199951171875</LatitudeDegrees>
              <LongitudeDegrees>20.27100610546767711639404296875</LongitudeDegrees>
            </Position>
            <AltitudeMeters>533.5999755859375</AltitudeMeters>
            <DistanceMeters>NAN</DistanceMeters>
          </Trackpoint>
          <Trackpoint>
            <Time>2022-09-20T11:29:41.000Z</Time>
            <Position>
              <LatitudeDegrees>49.4352416507899761199951171875</LatitudeDegrees>
              <LongitudeDegrees>20.27100610546767711639404296875</LongitudeDegrees>
            </Position>
            <AltitudeMeters>533.5999755859375</AltitudeMeters>
            <DistanceMeters>NAN</DistanceMeters>
          </Trackpoint>
          <Trackpoint>
            <Time>2022-09-20T11:29:42.000Z</Time>
            <Position>
              <LatitudeDegrees>49.4352416507899761199951171875</LatitudeDegrees>
              <LongitudeDegrees>20.27100610546767711639404296875</LongitudeDegrees>
            </Position>
            <AltitudeMeters>533.5999755859375</AltitudeMeters>
            <DistanceMeters>NAN</DistanceMeters>
          </Trackpoint>
          <Trackpoint>
            <Time>2022-09-20T11:29:44.000Z</Time>
            <Position>
              <LatitudeDegrees>49.4352416507899761199951171875</LatitudeDegrees>
              <LongitudeDegrees>20.27100610546767711639404296875</LongitudeDegrees>
            </Position>
            <AltitudeMeters>533.4000244140625</AltitudeMeters>
            <DistanceMeters>NAN</DistanceMeters>
          </Trackpoint>
          <Trackpoint>
            <Time>2022-09-20T11:29:46.000Z</Time>
            <Position>
              <LatitudeDegrees>49.4352416507899761199951171875</LatitudeDegrees>
              <LongitudeDegrees>20.27100610546767711639404296875</LongitudeDegrees>
            </Position>
            <AltitudeMeters>533.4000244140625</AltitudeMeters>
            <DistanceMeters>NAN</DistanceMeters>
          </Trackpoint>
          <Trackpoint>
            <Time>2022-09-20T11:29:48.000Z</Time>
            <Position>
              <LatitudeDegrees>49.4352416507899761199951171875</LatitudeDegrees>
              <LongitudeDegrees>20.27100610546767711639404296875</LongitudeDegrees>
            </Position>
            <AltitudeMeters>533.4000244140625</AltitudeMeters>
            <DistanceMeters>NAN</DistanceMeters>
          </Trackpoint>
          <Trackpoint>
            <Time>2022-09-20T11:29:56.000Z</Time>
            <Position>
              <LatitudeDegrees>49.4352416507899761199951171875</LatitudeDegrees>
              <LongitudeDegrees>20.27100610546767711639404296875</LongitudeDegrees>
            </Position>
            <AltitudeMeters>533.4000244140625</AltitudeMeters>
            <DistanceMeters>NAN</DistanceMeters>
          </Trackpoint>
          <Trackpoint>
            <Time>2022-09-20T11:30:01.000Z</Time>
            <Position>
              <LatitudeDegrees>49.4352416507899761199951171875</LatitudeDegrees>
              <LongitudeDegrees>20.27100610546767711639404296875</LongitudeDegrees>
            </Position>
            <AltitudeMeters>533.20001220703125</AltitudeMeters>
            <DistanceMeters>NAN</DistanceMeters>
          </Trackpoint>
          <Trackpoint>
            <Time>2022-09-20T11:30:09.000Z</Time>
            <Position>
              <LatitudeDegrees>49.43523502908647060394287109375</LatitudeDegrees>
              <LongitudeDegrees>20.2710073627531528472900390625</LongitudeDegrees>
            </Position>
            <AltitudeMeters>533.20001220703125</AltitudeMeters>
            <DistanceMeters>NAN</DistanceMeters>
          </Trackpoint>
          <Trackpoint>
            <Time>2022-09-20T11:30:14.000Z</Time>
            <Position>
              <LatitudeDegrees>49.43523502908647060394287109375</LatitudeDegrees>
              <LongitudeDegrees>20.2710073627531528472900390625</LongitudeDegrees>
            </Position>
            <AltitudeMeters>533.4000244140625</AltitudeMeters>
            <DistanceMeters>NAN</DistanceMeters>
          </Trackpoint>
          <Trackpoint>
            <Time>2022-09-20T11:30:18.000Z</Time>
            <Position>
              <LatitudeDegrees>49.4352322630584239959716796875</LatitudeDegrees>
              <LongitudeDegrees>20.27101515792310237884521484375</LongitudeDegrees>
            </Position>
            <AltitudeMeters>533.5999755859375</AltitudeMeters>
            <DistanceMeters>NAN</DistanceMeters>
          </Trackpoint>
          <Trackpoint>
            <Time>2022-09-20T11:30:22.000Z</Time>
            <Position>
              <LatitudeDegrees>49.4352322630584239959716796875</LatitudeDegrees>
              <LongitudeDegrees>20.27101515792310237884521484375</LongitudeDegrees>
            </Position>
            <AltitudeMeters>533.79998779296875</AltitudeMeters>
            <DistanceMeters>NAN</DistanceMeters>
          </Trackpoint>
          <Trackpoint>
            <Time>2022-09-20T11:30:29.000Z</Time>
            <Position>
              <LatitudeDegrees>49.4351910240948200225830078125</LatitudeDegrees>
              <LongitudeDegrees>20.27112060226500034332275390625</LongitudeDegrees>
            </Position>
            <AltitudeMeters>534.20001220703125</AltitudeMeters>
            <DistanceMeters>NAN</DistanceMeters>
          </Trackpoint>
          <Trackpoint>
            <Time>2022-09-20T11:30:30.000Z</Time>
            <Position>
              <LatitudeDegrees>49.4351910240948200225830078125</LatitudeDegrees>
              <LongitudeDegrees>20.27112060226500034332275390625</LongitudeDegrees>
            </Position>
            <AltitudeMeters>534.4000244140625</AltitudeMeters>
            <DistanceMeters>NAN</DistanceMeters>
          </Trackpoint>
          <Trackpoint>
            <Time>2022-09-20T11:30:31.000Z</Time>
            <Position>
              <LatitudeDegrees>49.43516495637595653533935546875</LatitudeDegrees>
              <LongitudeDegrees>20.27117349207401275634765625</LongitudeDegrees>
            </Position>
            <AltitudeMeters>534.4000244140625</AltitudeMeters>
            <DistanceMeters>NAN</DistanceMeters>
          </Trackpoint>
          <Trackpoint>
            <Time>2022-09-20T11:30:39.000Z</Time>
            <Position>
              <LatitudeDegrees>49.43510812707245349884033203125</LatitudeDegrees>
              <LongitudeDegrees>20.27133869938552379608154296875</LongitudeDegrees>
            </Position>
            <AltitudeMeters>534.79998779296875</AltitudeMeters>
            <DistanceMeters>NAN</DistanceMeters>
          </Trackpoint>
          <Trackpoint>
            <Time>2022-09-20T11:30:40.000Z</Time>
            <Position>
              <LatitudeDegrees>49.4351065345108509063720703125</LatitudeDegrees>
              <LongitudeDegrees>20.2713458240032196044921875</LongitudeDegrees>
            </Position>
            <AltitudeMeters>535</AltitudeMeters>
            <DistanceMeters>NAN</DistanceMeters>
          </Trackpoint>
          <Trackpoint>
            <Time>2022-09-20T11:30:46.000Z</Time>
            <Position>
              <LatitudeDegrees>49.43506571464240550994873046875</LatitudeDegrees>
              <LongitudeDegrees>20.2714311517775058746337890625</LongitudeDegrees>
            </Position>
            <AltitudeMeters>535.20001220703125</AltitudeMeters>
            <DistanceMeters>NAN</DistanceMeters>
          </Trackpoint>
          <Trackpoint>
            <Time>2022-09-20T11:30:49.000Z</Time>
            <Position>
              <LatitudeDegrees>49.43505900911986827850341796875</LatitudeDegrees>
              <LongitudeDegrees>20.27147532440721988677978515625</LongitudeDegrees>
            </Position>
            <AltitudeMeters>535.5999755859375</AltitudeMeters>
            <DistanceMeters>NAN</DistanceMeters>
          </Trackpoint>
          <Trackpoint>
            <Time>2022-09-20T11:30:59.000Z</Time>
            <Position>
              <LatitudeDegrees>49.43501609377562999725341796875</LatitudeDegrees>
              <LongitudeDegrees>20.27157641015946865081787109375</LongitudeDegrees>
            </Position>
            <AltitudeMeters>536.4000244140625</AltitudeMeters>
            <DistanceMeters>NAN</DistanceMeters>
          </Trackpoint>
          <Trackpoint>
            <Time>2022-09-20T11:31:07.000Z</Time>
            <Position>
              <LatitudeDegrees>49.43498759530484676361083984375</LatitudeDegrees>
              <LongitudeDegrees>20.271648578345775604248046875</LongitudeDegrees>
            </Position>
            <AltitudeMeters>536.79998779296875</AltitudeMeters>
            <DistanceMeters>NAN</DistanceMeters>
          </Trackpoint>
          <Trackpoint>
            <Time>2022-09-20T11:31:08.000Z</Time>
            <Position>
              <LatitudeDegrees>49.43497351370751857757568359375</LatitudeDegrees>
              <LongitudeDegrees>20.27166307903826236724853515625</LongitudeDegrees>
            </Position>
            <AltitudeMeters>537</AltitudeMeters>
            <DistanceMeters>NAN</DistanceMeters>
          </Trackpoint>
          <Trackpoint>
            <Time>2022-09-20T11:31:15.000Z</Time>
            <Position>
              <LatitudeDegrees>49.43491886369884014129638671875</LatitudeDegrees>
              <LongitudeDegrees>20.27176097966730594635009765625</LongitudeDegrees>
            </Position>
            <AltitudeMeters>537.4000244140625</AltitudeMeters>
            <DistanceMeters>NAN</DistanceMeters>
          </Trackpoint>
          <Trackpoint>
            <Time>2022-09-20T11:31:17.000Z</Time>
            <Position>
              <LatitudeDegrees>49.434914253652095794677734375</LatitudeDegrees>
              <LongitudeDegrees>20.2717852033674716949462890625</LongitudeDegrees>
            </Position>
            <AltitudeMeters>537.5999755859375</AltitudeMeters>
            <DistanceMeters>NAN</DistanceMeters>
          </Trackpoint>
          <Trackpoint>
            <Time>2022-09-20T11:31:28.000Z</Time>
            <Position>
              <LatitudeDegrees>49.4348728470504283905029296875</LatitudeDegrees>
              <LongitudeDegrees>20.27185871265828609466552734375</LongitudeDegrees>
            </Position>
            <AltitudeMeters>538.4000244140625</AltitudeMeters>
            <DistanceMeters>NAN</DistanceMeters>
          </Trackpoint>
          <Trackpoint>
            <Time>2022-09-20T11:31:29.000Z</Time>
            <Position>
              <LatitudeDegrees>49.43486538715660572052001953125</LatitudeDegrees>
              <LongitudeDegrees>20.2718790806829929351806640625</LongitudeDegrees>
            </Position>
            <AltitudeMeters>538.5999755859375</AltitudeMeters>
            <DistanceMeters>NAN</DistanceMeters>
          </Trackpoint>
          <Trackpoint>
            <Time>2022-09-20T11:31:37.000Z</Time>
            <Position>
              <LatitudeDegrees>49.4348322786390781402587890625</LatitudeDegrees>
              <LongitudeDegrees>20.2719555236399173736572265625</LongitudeDegrees>
            </Position>
            <AltitudeMeters>539</AltitudeMeters>
            <DistanceMeters>NAN</DistanceMeters>
          </Trackpoint>
          <Trackpoint>
            <Time>2022-09-20T11:31:38.000Z</Time>
            <Position>
              <LatitudeDegrees>49.434827752411365509033203125</LatitudeDegrees>
              <LongitudeDegrees>20.27196331880986690521240234375</LongitudeDegrees>
            </Position>
            <AltitudeMeters>539</AltitudeMeters>
            <DistanceMeters>NAN</DistanceMeters>
          </Trackpoint>
          <Trackpoint>
            <Time>2022-09-20T11:31:43.000Z</Time>
            <Position>
              <LatitudeDegrees>49.43480051122605800628662109375</LatitudeDegrees>
              <LongitudeDegrees>20.2720195613801479339599609375</LongitudeDegrees>
            </Position>
            <AltitudeMeters>539.4000244140625</AltitudeMeters>
            <DistanceMeters>NAN</DistanceMeters>
          </Trackpoint>
          <Trackpoint>
            <Time>2022-09-20T11:31:46.000Z</Time>
            <Position>
              <LatitudeDegrees>49.4347876869142055511474609375</LatitudeDegrees>
              <LongitudeDegrees>20.27204453945159912109375</LongitudeDegrees>
            </Position>
            <AltitudeMeters>539.79998779296875</AltitudeMeters>
            <DistanceMeters>NAN</DistanceMeters>
          </Trackpoint>
          <Trackpoint>
            <Time>2022-09-20T11:31:50.000Z</Time>
            <Position>
              <LatitudeDegrees>49.434773437678813934326171875</LatitudeDegrees>
              <LongitudeDegrees>20.2720725350081920623779296875</LongitudeDegrees>
            </Position>
            <AltitudeMeters>540</AltitudeMeters>
            <DistanceMeters>NAN</DistanceMeters>
          </Trackpoint>
          <Trackpoint>
            <Time>2022-09-20T11:31:53.000Z</Time>
            <Position>
              <LatitudeDegrees>49.4347705878317356109619140625</LatitudeDegrees>
              <LongitudeDegrees>20.272085107862949371337890625</LongitudeDegrees>
            </Position>
            <AltitudeMeters>540.20001220703125</AltitudeMeters>
            <DistanceMeters>NAN</DistanceMeters>
          </Trackpoint>
          <Trackpoint>
            <Time>2022-09-20T11:32:05.000Z</Time>
            <Position>
              <LatitudeDegrees>49.434762038290500640869140625</LatitudeDegrees>
              <LongitudeDegrees>20.27209751307964324951171875</LongitudeDegrees>
            </Position>
            <AltitudeMeters>540.4000244140625</AltitudeMeters>
            <DistanceMeters>NAN</DistanceMeters>
          </Trackpoint>
          <Trackpoint>
            <Time>2022-09-20T11:32:08.000Z</Time>
            <Position>
              <LatitudeDegrees>49.43474418483674526214599609375</LatitudeDegrees>
              <LongitudeDegrees>20.27213464491069316864013671875</LongitudeDegrees>
            </Position>
            <AltitudeMeters>540.4000244140625</AltitudeMeters>
            <DistanceMeters>NAN</DistanceMeters>
          </Trackpoint>
          <Trackpoint>
            <Time>2022-09-20T11:32:09.000Z</Time>
            <Position>
              <LatitudeDegrees>49.4347377307713031768798828125</LatitudeDegrees>
              <LongitudeDegrees>20.27214034460484981536865234375</LongitudeDegrees>
            </Position>
            <AltitudeMeters>540.5999755859375</AltitudeMeters>
            <DistanceMeters>NAN</DistanceMeters>
          </Trackpoint>
          <Trackpoint>
            <Time>2022-09-20T11:32:14.000Z</Time>
            <Position>
              <LatitudeDegrees>49.43470998667180538177490234375</LatitudeDegrees>
              <LongitudeDegrees>20.27218091301620006561279296875</LongitudeDegrees>
            </Position>
            <AltitudeMeters>541</AltitudeMeters>
            <DistanceMeters>NAN</DistanceMeters>
          </Trackpoint>
          <Trackpoint>
            <Time>2022-09-20T11:32:20.000Z</Time>
            <Position>
              <LatitudeDegrees>49.434679560363292694091796875</LatitudeDegrees>
              <LongitudeDegrees>20.27223204262554645538330078125</LongitudeDegrees>
            </Position>
            <AltitudeMeters>541.5999755859375</AltitudeMeters>
            <DistanceMeters>NAN</DistanceMeters>
          </Trackpoint>
          <Trackpoint>
            <Time>2022-09-20T11:32:23.000Z</Time>
            <Position>
              <LatitudeDegrees>49.43466925062239170074462890625</LatitudeDegrees>
              <LongitudeDegrees>20.272262804210186004638671875</LongitudeDegrees>
            </Position>
            <AltitudeMeters>541.79998779296875</AltitudeMeters>
            <DistanceMeters>NAN</DistanceMeters>
          </Trackpoint>
          <Trackpoint>
            <Time>2022-09-20T11:32:30.000Z</Time>
            <Position>
              <LatitudeDegrees>49.4346492178738117218017578125</LatitudeDegrees>
              <LongitudeDegrees>20.27231385000050067901611328125</LongitudeDegrees>
            </Position>
            <AltitudeMeters>542.4000244140625</AltitudeMeters>
            <DistanceMeters>NAN</DistanceMeters>
          </Trackpoint>
          <Trackpoint>
            <Time>2022-09-20T11:32:31.000Z</Time>
            <Position>
              <LatitudeDegrees>49.43464661948382854461669921875</LatitudeDegrees>
              <LongitudeDegrees>20.2723213098943233489990234375</LongitudeDegrees>
            </Position>
            <AltitudeMeters>542.5999755859375</AltitudeMeters>
            <DistanceMeters>NAN</DistanceMeters>
          </Trackpoint>
          <Trackpoint>
            <Time>2022-09-20T11:32:32.000Z</Time>
            <Position>
              <LatitudeDegrees>49.43464661948382854461669921875</LatitudeDegrees>
              <LongitudeDegrees>20.2723213098943233489990234375</LongitudeDegrees>
            </Position>
            <AltitudeMeters>542.5999755859375</AltitudeMeters>
            <DistanceMeters>NAN</DistanceMeters>
          </Trackpoint>
          <Trackpoint>
            <Time>2022-09-20T11:32:42.000Z</Time>
            <Position>
              <LatitudeDegrees>49.43460278213024139404296875</LatitudeDegrees>
              <LongitudeDegrees>20.27241074480116367340087890625</LongitudeDegrees>
            </Position>
            <AltitudeMeters>543.5999755859375</AltitudeMeters>
            <DistanceMeters>NAN</DistanceMeters>
          </Trackpoint>
          <Trackpoint>
            <Time>2022-09-20T11:32:43.000Z</Time>
            <Position>
              <LatitudeDegrees>49.43460152484476566314697265625</LatitudeDegrees>
              <LongitudeDegrees>20.27241426520049571990966796875</LongitudeDegrees>
            </Position>
            <AltitudeMeters>543.79998779296875</AltitudeMeters>
            <DistanceMeters>NAN</DistanceMeters>
          </Trackpoint>
          <Trackpoint>
            <Time>2022-09-20T11:32:50.000Z</Time>
            <Position>
              <LatitudeDegrees>49.4345808215439319610595703125</LatitudeDegrees>
              <LongitudeDegrees>20.2724601142108440399169921875</LongitudeDegrees>
            </Position>
            <AltitudeMeters>544.5999755859375</AltitudeMeters>
            <DistanceMeters>NAN</DistanceMeters>
          </Trackpoint>
          <Trackpoint>
            <Time>2022-09-20T11:32:53.000Z</Time>
            <Position>
              <LatitudeDegrees>49.4345690868794918060302734375</LatitudeDegrees>
              <LongitudeDegrees>20.27248752303421497344970703125</LongitudeDegrees>
            </Position>
            <AltitudeMeters>544.79998779296875</AltitudeMeters>
            <DistanceMeters>NAN</DistanceMeters>
          </Trackpoint>
          <Trackpoint>
            <Time>2022-09-20T11:32:58.000Z</Time>
            <Position>
              <LatitudeDegrees>49.4345690868794918060302734375</LatitudeDegrees>
              <LongitudeDegrees>20.27248752303421497344970703125</LongitudeDegrees>
            </Position>
            <AltitudeMeters>545</AltitudeMeters>
            <DistanceMeters>NAN</DistanceMeters>
          </Trackpoint>
          <Trackpoint>
            <Time>2022-09-20T11:33:02.000Z</Time>
            <Position>
              <LatitudeDegrees>49.43456196226179599761962890625</LatitudeDegrees>
              <LongitudeDegrees>20.27250646613538265228271484375</LongitudeDegrees>
            </Position>
            <AltitudeMeters>545.20001220703125</AltitudeMeters>
            <DistanceMeters>NAN</DistanceMeters>
          </Trackpoint>
          <Trackpoint>
            <Time>2022-09-20T11:33:05.000Z</Time>
            <Position>
              <LatitudeDegrees>49.4345446117222309112548828125</LatitudeDegrees>
              <LongitudeDegrees>20.27254368178546428680419921875</LongitudeDegrees>
            </Position>
            <AltitudeMeters>545.20001220703125</AltitudeMeters>
            <DistanceMeters>NAN</DistanceMeters>
          </Trackpoint>
          <Trackpoint>
            <Time>2022-09-20T11:33:08.000Z</Time>
            <Position>
              <LatitudeDegrees>49.43452642299234867095947265625</LatitudeDegrees>
              <LongitudeDegrees>20.2725674025714397430419921875</LongitudeDegrees>
            </Position>
            <AltitudeMeters>545.5999755859375</AltitudeMeters>
            <DistanceMeters>NAN</DistanceMeters>
          </Trackpoint>
          <Trackpoint>
            <Time>2022-09-20T11:33:10.000Z</Time>
            <Position>
              <LatitudeDegrees>49.43451988510787487030029296875</LatitudeDegrees>
              <LongitudeDegrees>20.27257586829364299774169921875</LongitudeDegrees>
            </Position>
            <AltitudeMeters>545.79998779296875</AltitudeMeters>
            <DistanceMeters>NAN</DistanceMeters>
          </Trackpoint>
          <Trackpoint>
            <Time>2022-09-20T11:33:12.000Z</Time>
            <Position>
              <LatitudeDegrees>49.43451988510787487030029296875</LatitudeDegrees>
              <LongitudeDegrees>20.27257586829364299774169921875</LongitudeDegrees>
            </Position>
            <AltitudeMeters>546</AltitudeMeters>
            <DistanceMeters>NAN</DistanceMeters>
          </Trackpoint>
          <Trackpoint>
            <Time>2022-09-20T11:33:14.000Z</Time>
            <Position>
              <LatitudeDegrees>49.43451988510787487030029296875</LatitudeDegrees>
              <LongitudeDegrees>20.27257586829364299774169921875</LongitudeDegrees>
            </Position>
            <AltitudeMeters>546.20001220703125</AltitudeMeters>
            <DistanceMeters>NAN</DistanceMeters>
          </Trackpoint>
          <Trackpoint>
            <Time>2022-09-20T11:33:25.000Z</Time>
            <Position>
              <LatitudeDegrees>49.43451988510787487030029296875</LatitudeDegrees>
              <LongitudeDegrees>20.27257586829364299774169921875</LongitudeDegrees>
            </Position>
            <AltitudeMeters>546.4000244140625</AltitudeMeters>
            <DistanceMeters>NAN</DistanceMeters>
          </Trackpoint>
          <Trackpoint>
            <Time>2022-09-20T11:33:29.000Z</Time>
            <Position>
              <LatitudeDegrees>49.43451988510787487030029296875</LatitudeDegrees>
              <LongitudeDegrees>20.27257586829364299774169921875</LongitudeDegrees>
            </Position>
            <AltitudeMeters>546.20001220703125</AltitudeMeters>
            <DistanceMeters>NAN</DistanceMeters>
          </Trackpoint>
          <Trackpoint>
            <Time>2022-09-20T11:33:38.000Z</Time>
            <Position>
              <LatitudeDegrees>49.4344916380941867828369140625</LatitudeDegrees>
              <LongitudeDegrees>20.272652395069599151611328125</LongitudeDegrees>
            </Position>
            <AltitudeMeters>546.5999755859375</AltitudeMeters>
            <DistanceMeters>NAN</DistanceMeters>
          </Trackpoint>
          <Trackpoint>
            <Time>2022-09-20T11:33:39.000Z</Time>
            <Position>
              <LatitudeDegrees>49.4344845972955226898193359375</LatitudeDegrees>
              <LongitudeDegrees>20.2726669795811176300048828125</LongitudeDegrees>
            </Position>
            <AltitudeMeters>546.79998779296875</AltitudeMeters>
            <DistanceMeters>NAN</DistanceMeters>
          </Trackpoint>
          <Trackpoint>
            <Time>2022-09-20T11:33:48.000Z</Time>
            <Position>
              <LatitudeDegrees>49.434432126581668853759765625</LatitudeDegrees>
              <LongitudeDegrees>20.272773765027523040771484375</LongitudeDegrees>
            </Position>
            <AltitudeMeters>547.79998779296875</AltitudeMeters>
            <DistanceMeters>NAN</DistanceMeters>
          </Trackpoint>
          <Trackpoint>
            <Time>2022-09-20T11:33:50.000Z</Time>
            <Position>
              <LatitudeDegrees>49.43442114628851413726806640625</LatitudeDegrees>
              <LongitudeDegrees>20.27281207032501697540283203125</LongitudeDegrees>
            </Position>
            <AltitudeMeters>547.79998779296875</AltitudeMeters>
            <DistanceMeters>NAN</DistanceMeters>
          </Trackpoint>
          <Trackpoint>
            <Time>2022-09-20T11:33:55.000Z</Time>
            <Position>
              <LatitudeDegrees>49.43439767695963382720947265625</LatitudeDegrees>
              <LongitudeDegrees>20.2728560753166675567626953125</LongitudeDegrees>
            </Position>
            <AltitudeMeters>548.5999755859375</AltitudeMeters>
            <DistanceMeters>NAN</DistanceMeters>
          </Trackpoint>
          <Trackpoint>
            <Time>2022-09-20T11:33:59.000Z</Time>
            <Position>
              <LatitudeDegrees>49.43437839858233928680419921875</LatitudeDegrees>
              <LongitudeDegrees>20.27288876473903656005859375</LongitudeDegrees>
            </Position>
            <AltitudeMeters>549</AltitudeMeters>
            <DistanceMeters>NAN</DistanceMeters>
          </Trackpoint>
          <Trackpoint>
            <Time>2022-09-20T11:34:03.000Z</Time>
            <Position>
              <LatitudeDegrees>49.43435543216764926910400390625</LatitudeDegrees>
              <LongitudeDegrees>20.27292036451399326324462890625</LongitudeDegrees>
            </Position>
            <AltitudeMeters>549.5999755859375</AltitudeMeters>
            <DistanceMeters>NAN</DistanceMeters>
          </Trackpoint>
          <Trackpoint>
            <Time>2022-09-20T11:34:05.000Z</Time>
            <Position>
              <LatitudeDegrees>49.4343471340835094451904296875</LatitudeDegrees>
              <LongitudeDegrees>20.2729378826916217803955078125</LongitudeDegrees>
            </Position>
            <AltitudeMeters>549.79998779296875</AltitudeMeters>
            <DistanceMeters>NAN</DistanceMeters>
          </Trackpoint>
          <Trackpoint>
            <Time>2022-09-20T11:34:07.000Z</Time>
            <Position>
              <LatitudeDegrees>49.43433766253292560577392578125</LatitudeDegrees>
              <LongitudeDegrees>20.2729378826916217803955078125</LongitudeDegrees>
            </Position>
            <AltitudeMeters>550</AltitudeMeters>
            <DistanceMeters>NAN</DistanceMeters>
          </Trackpoint>
          <Trackpoint>
            <Time>2022-09-20T11:34:14.000Z</Time>
            <Position>
              <LatitudeDegrees>49.434316456317901611328125</LatitudeDegrees>
              <LongitudeDegrees>20.27297300286591053009033203125</LongitudeDegrees>
            </Position>
            <AltitudeMeters>550.79998779296875</AltitudeMeters>
            <DistanceMeters>NAN</DistanceMeters>
          </Trackpoint>
          <Trackpoint>
            <Time>2022-09-20T11:34:16.000Z</Time>
            <Position>
              <LatitudeDegrees>49.4343042187392711639404296875</LatitudeDegrees>
              <LongitudeDegrees>20.2730019204318523406982421875</LongitudeDegrees>
            </Position>
            <AltitudeMeters>551</AltitudeMeters>
            <DistanceMeters>NAN</DistanceMeters>
          </Trackpoint>
          <Trackpoint>
            <Time>2022-09-20T11:34:21.000Z</Time>
            <Position>
              <LatitudeDegrees>49.43427882157266139984130859375</LatitudeDegrees>
              <LongitudeDegrees>20.2730528824031352996826171875</LongitudeDegrees>
            </Position>
            <AltitudeMeters>551.4000244140625</AltitudeMeters>
            <DistanceMeters>NAN</DistanceMeters>
          </Trackpoint>
          <Trackpoint>
            <Time>2022-09-20T11:34:28.000Z</Time>
            <Position>
              <LatitudeDegrees>49.4342445395886898040771484375</LatitudeDegrees>
              <LongitudeDegrees>20.2731098793447017669677734375</LongitudeDegrees>
            </Position>
            <AltitudeMeters>552</AltitudeMeters>
            <DistanceMeters>NAN</DistanceMeters>
          </Trackpoint>
          <Trackpoint>
            <Time>2022-09-20T11:34:30.000Z</Time>
            <Position>
              <LatitudeDegrees>49.434237666428089141845703125</LatitudeDegrees>
              <LongitudeDegrees>20.273117087781429290771484375</LongitudeDegrees>
            </Position>
            <AltitudeMeters>552.20001220703125</AltitudeMeters>
            <DistanceMeters>NAN</DistanceMeters>
          </Trackpoint>
          <Trackpoint>
            <Time>2022-09-20T11:34:34.000Z</Time>
            <Position>
              <LatitudeDegrees>49.43421277217566967010498046875</LatitudeDegrees>
              <LongitudeDegrees>20.2731608413159847259521484375</LongitudeDegrees>
            </Position>
            <AltitudeMeters>552.79998779296875</AltitudeMeters>
            <DistanceMeters>NAN</DistanceMeters>
          </Trackpoint>
          <Trackpoint>
            <Time>2022-09-20T11:34:35.000Z</Time>
            <Position>
              <LatitudeDegrees>49.43420849740505218505859375</LatitudeDegrees>
              <LongitudeDegrees>20.27317131869494915008544921875</LongitudeDegrees>
            </Position>
            <AltitudeMeters>552.79998779296875</AltitudeMeters>
            <DistanceMeters>NAN</DistanceMeters>
          </Trackpoint>
          <Trackpoint>
            <Time>2022-09-20T11:34:39.000Z</Time>
            <Position>
              <LatitudeDegrees>49.4341872073709964752197265625</LatitudeDegrees>
              <LongitudeDegrees>20.27320836670696735382080078125</LongitudeDegrees>
            </Position>
            <AltitudeMeters>553.20001220703125</AltitudeMeters>
            <DistanceMeters>NAN</DistanceMeters>
          </Trackpoint>
          <Trackpoint>
            <Time>2022-09-20T11:34:40.000Z</Time>
            <Position>
              <LatitudeDegrees>49.434182010591030120849609375</LatitudeDegrees>
              <LongitudeDegrees>20.27321591041982173919677734375</LongitudeDegrees>
            </Position>
            <AltitudeMeters>553.4000244140625</AltitudeMeters>
            <DistanceMeters>NAN</DistanceMeters>
          </Trackpoint>
          <Trackpoint>
            <Time>2022-09-20T11:34:45.000Z</Time>
            <Position>
              <LatitudeDegrees>49.434138424694538116455078125</LatitudeDegrees>
              <LongitudeDegrees>20.273245163261890411376953125</LongitudeDegrees>
            </Position>
            <AltitudeMeters>554</AltitudeMeters>
            <DistanceMeters>NAN</DistanceMeters>
          </Trackpoint>
          <Trackpoint>
            <Time>2022-09-20T11:34:49.000Z</Time>
            <Position>
              <LatitudeDegrees>49.43412526510655879974365234375</LatitudeDegrees>
              <LongitudeDegrees>20.2732325904071331024169921875</LongitudeDegrees>
            </Position>
            <AltitudeMeters>554.4000244140625</AltitudeMeters>
            <DistanceMeters>NAN</DistanceMeters>
          </Trackpoint>
          <Trackpoint>
            <Time>2022-09-20T11:34:51.000Z</Time>
            <Position>
              <LatitudeDegrees>49.43412526510655879974365234375</LatitudeDegrees>
              <LongitudeDegrees>20.2732325904071331024169921875</LongitudeDegrees>
            </Position>
            <AltitudeMeters>554.4000244140625</AltitudeMeters>
            <DistanceMeters>NAN</DistanceMeters>
          </Trackpoint>
          <Trackpoint>
            <Time>2022-09-20T11:35:02.000Z</Time>
            <Position>
              <LatitudeDegrees>49.43412526510655879974365234375</LatitudeDegrees>
              <LongitudeDegrees>20.2732325904071331024169921875</LongitudeDegrees>
            </Position>
            <AltitudeMeters>554.5999755859375</AltitudeMeters>
            <DistanceMeters>NAN</DistanceMeters>
          </Trackpoint>
          <Trackpoint>
            <Time>2022-09-20T11:35:05.000Z</Time>
            <Position>
              <LatitudeDegrees>49.43412526510655879974365234375</LatitudeDegrees>
              <LongitudeDegrees>20.2732325904071331024169921875</LongitudeDegrees>
            </Position>
            <AltitudeMeters>554.4000244140625</AltitudeMeters>
            <DistanceMeters>NAN</DistanceMeters>
          </Trackpoint>
          <Trackpoint>
            <Time>2022-09-20T11:35:16.000Z</Time>
            <Position>
              <LatitudeDegrees>49.43412526510655879974365234375</LatitudeDegrees>
              <LongitudeDegrees>20.2732325904071331024169921875</LongitudeDegrees>
            </Position>
            <AltitudeMeters>554.4000244140625</AltitudeMeters>
            <DistanceMeters>NAN</DistanceMeters>
          </Trackpoint>
          <Trackpoint>
            <Time>2022-09-20T11:35:22.000Z</Time>
            <Position>
              <LatitudeDegrees>49.43412526510655879974365234375</LatitudeDegrees>
              <LongitudeDegrees>20.2732325904071331024169921875</LongitudeDegrees>
            </Position>
            <AltitudeMeters>554.4000244140625</AltitudeMeters>
            <DistanceMeters>NAN</DistanceMeters>
          </Trackpoint>
          <Trackpoint>
            <Time>2022-09-20T11:35:35.000Z</Time>
            <Position>
              <LatitudeDegrees>49.434128366410732269287109375</LatitudeDegrees>
              <LongitudeDegrees>20.2732319198548793792724609375</LongitudeDegrees>
            </Position>
            <AltitudeMeters>554.20001220703125</AltitudeMeters>
            <DistanceMeters>NAN</DistanceMeters>
          </Trackpoint>
          <Trackpoint>
            <Time>2022-09-20T11:35:58.000Z</Time>
            <Position>
              <LatitudeDegrees>49.434150159358978271484375</LatitudeDegrees>
              <LongitudeDegrees>20.27322647161781787872314453125</LongitudeDegrees>
            </Position>
            <AltitudeMeters>554.4000244140625</AltitudeMeters>
            <DistanceMeters>NAN</DistanceMeters>
          </Trackpoint>
          <Trackpoint>
            <Time>2022-09-20T11:36:14.000Z</Time>
            <Position>
              <LatitudeDegrees>49.43413867615163326263427734375</LatitudeDegrees>
              <LongitudeDegrees>20.2732141502201557159423828125</LongitudeDegrees>
            </Position>
            <AltitudeMeters>554.4000244140625</AltitudeMeters>
            <DistanceMeters>NAN</DistanceMeters>
          </Trackpoint>
          <Trackpoint>
            <Time>2022-09-20T11:36:15.000Z</Time>
            <Position>
              <LatitudeDegrees>49.4341385923326015472412109375</LatitudeDegrees>
              <LongitudeDegrees>20.27321389876306056976318359375</LongitudeDegrees>
            </Position>
            <AltitudeMeters>554.4000244140625</AltitudeMeters>
            <DistanceMeters>NAN</DistanceMeters>
          </Trackpoint>
          <Trackpoint>
            <Time>2022-09-20T11:36:25.000Z</Time>
            <Position>
              <LatitudeDegrees>49.4341385923326015472412109375</LatitudeDegrees>
              <LongitudeDegrees>20.2732138149440288543701171875</LongitudeDegrees>
            </Position>
            <AltitudeMeters>554.4000244140625</AltitudeMeters>
            <DistanceMeters>NAN</DistanceMeters>
          </Trackpoint>
          <Trackpoint>
            <Time>2022-09-20T11:36:45.000Z</Time>
            <Position>
              <LatitudeDegrees>49.4341385923326015472412109375</LatitudeDegrees>
              <LongitudeDegrees>20.2732138149440288543701171875</LongitudeDegrees>
            </Position>
            <AltitudeMeters>554.4000244140625</AltitudeMeters>
            <DistanceMeters>NAN</DistanceMeters>
          </Trackpoint>
          <Trackpoint>
            <Time>2022-09-20T11:36:51.000Z</Time>
            <Position>
              <LatitudeDegrees>49.4341385923326015472412109375</LatitudeDegrees>
              <LongitudeDegrees>20.2732138149440288543701171875</LongitudeDegrees>
            </Position>
            <AltitudeMeters>554.4000244140625</AltitudeMeters>
            <DistanceMeters>NAN</DistanceMeters>
          </Trackpoint>
          <Trackpoint>
            <Time>2022-09-20T11:36:53.000Z</Time>
            <Position>
              <LatitudeDegrees>49.4341385923326015472412109375</LatitudeDegrees>
              <LongitudeDegrees>20.2732138149440288543701171875</LongitudeDegrees>
            </Position>
            <AltitudeMeters>554.4000244140625</AltitudeMeters>
            <DistanceMeters>NAN</DistanceMeters>
          </Trackpoint>
          <Trackpoint>
            <Time>2022-09-20T11:36:57.000Z</Time>
            <Position>
              <LatitudeDegrees>49.4341385923326015472412109375</LatitudeDegrees>
              <LongitudeDegrees>20.2732138149440288543701171875</LongitudeDegrees>
            </Position>
            <AltitudeMeters>554.4000244140625</AltitudeMeters>
            <DistanceMeters>NAN</DistanceMeters>
          </Trackpoint>
          <Trackpoint>
            <Time>2022-09-20T11:36:59.000Z</Time>
            <Position>
              <LatitudeDegrees>49.4341385923326015472412109375</LatitudeDegrees>
              <LongitudeDegrees>20.2732138149440288543701171875</LongitudeDegrees>
            </Position>
            <AltitudeMeters>554.4000244140625</AltitudeMeters>
            <DistanceMeters>NAN</DistanceMeters>
          </Trackpoint>
          <Trackpoint>
            <Time>2022-09-20T11:37:11.000Z</Time>
            <Position>
              <LatitudeDegrees>49.43413062952458858489990234375</LatitudeDegrees>
              <LongitudeDegrees>20.2732054330408573150634765625</LongitudeDegrees>
            </Position>
            <AltitudeMeters>554.4000244140625</AltitudeMeters>
            <DistanceMeters>NAN</DistanceMeters>
          </Trackpoint>
          <Trackpoint>
            <Time>2022-09-20T11:37:14.000Z</Time>
            <Position>
              <LatitudeDegrees>49.4340997003018856048583984375</LatitudeDegrees>
              <LongitudeDegrees>20.27316100895404815673828125</LongitudeDegrees>
            </Position>
            <AltitudeMeters>554.4000244140625</AltitudeMeters>
            <DistanceMeters>NAN</DistanceMeters>
          </Trackpoint>
          <Trackpoint>
            <Time>2022-09-20T11:37:19.000Z</Time>
            <Position>
              <LatitudeDegrees>49.4340624846518039703369140625</LatitudeDegrees>
              <LongitudeDegrees>20.273040644824504852294921875</LongitudeDegrees>
            </Position>
            <AltitudeMeters>554.5999755859375</AltitudeMeters>
            <DistanceMeters>NAN</DistanceMeters>
          </Trackpoint>
          <Trackpoint>
            <Time>2022-09-20T11:37:24.000Z</Time>
            <Position>
              <LatitudeDegrees>49.43402619101107120513916015625</LatitudeDegrees>
              <LongitudeDegrees>20.2730029262602329254150390625</LongitudeDegrees>
            </Position>
            <AltitudeMeters>554.5999755859375</AltitudeMeters>
            <DistanceMeters>NAN</DistanceMeters>
          </Trackpoint>
          <Trackpoint>
            <Time>2022-09-20T11:37:32.000Z</Time>
            <Position>
              <LatitudeDegrees>49.4339692778885364532470703125</LatitudeDegrees>
              <LongitudeDegrees>20.2728835679590702056884765625</LongitudeDegrees>
            </Position>
            <AltitudeMeters>554</AltitudeMeters>
            <DistanceMeters>NAN</DistanceMeters>
          </Trackpoint>
          <Trackpoint>
            <Time>2022-09-20T11:37:35.000Z</Time>
            <Position>
              <LatitudeDegrees>49.43394924513995647430419921875</LatitudeDegrees>
              <LongitudeDegrees>20.2728463523089885711669921875</LongitudeDegrees>
            </Position>
            <AltitudeMeters>553.79998779296875</AltitudeMeters>
            <DistanceMeters>NAN</DistanceMeters>
          </Trackpoint>
          <Trackpoint>
            <Time>2022-09-20T11:37:40.000Z</Time>
            <Position>
              <LatitudeDegrees>49.4339250214397907257080078125</LatitudeDegrees>
              <LongitudeDegrees>20.2727896906435489654541015625</LongitudeDegrees>
            </Position>
            <AltitudeMeters>553.5999755859375</AltitudeMeters>
            <DistanceMeters>NAN</DistanceMeters>
          </Trackpoint>
          <Trackpoint>
            <Time>2022-09-20T11:37:44.000Z</Time>
            <Position>
              <LatitudeDegrees>49.433898366987705230712890625</LatitudeDegrees>
              <LongitudeDegrees>20.27272137813270092010498046875</LongitudeDegrees>
            </Position>
            <AltitudeMeters>553.5999755859375</AltitudeMeters>
            <DistanceMeters>NAN</DistanceMeters>
          </Trackpoint>
          <Trackpoint>
            <Time>2022-09-20T11:37:48.000Z</Time>
            <Position>
              <LatitudeDegrees>49.43387447856366634368896484375</LatitudeDegrees>
              <LongitudeDegrees>20.27266505174338817596435546875</LongitudeDegrees>
            </Position>
            <AltitudeMeters>553.4000244140625</AltitudeMeters>
            <DistanceMeters>NAN</DistanceMeters>
          </Trackpoint>
          <Trackpoint>
            <Time>2022-09-20T11:37:51.000Z</Time>
            <Position>
              <LatitudeDegrees>49.43385771475732326507568359375</LatitudeDegrees>
              <LongitudeDegrees>20.2726279199123382568359375</LongitudeDegrees>
            </Position>
            <AltitudeMeters>553.5999755859375</AltitudeMeters>
            <DistanceMeters>NAN</DistanceMeters>
          </Trackpoint>
          <Trackpoint>
            <Time>2022-09-20T11:37:55.000Z</Time>
            <Position>
              <LatitudeDegrees>49.43384296260774135589599609375</LatitudeDegrees>
              <LongitudeDegrees>20.2725769579410552978515625</LongitudeDegrees>
            </Position>
            <AltitudeMeters>553.5999755859375</AltitudeMeters>
            <DistanceMeters>NAN</DistanceMeters>
          </Trackpoint>
          <Trackpoint>
            <Time>2022-09-20T11:38:02.000Z</Time>
            <Position>
              <LatitudeDegrees>49.43379971198737621307373046875</LatitudeDegrees>
              <LongitudeDegrees>20.27246237732470035552978515625</LongitudeDegrees>
            </Position>
            <AltitudeMeters>554</AltitudeMeters>
            <DistanceMeters>NAN</DistanceMeters>
          </Trackpoint>
          <Trackpoint>
            <Time>2022-09-20T11:38:03.000Z</Time>
            <Position>
              <LatitudeDegrees>49.43379275500774383544921875</LatitudeDegrees>
              <LongitudeDegrees>20.27245290577411651611328125</LongitudeDegrees>
            </Position>
            <AltitudeMeters>554.20001220703125</AltitudeMeters>
            <DistanceMeters>NAN</DistanceMeters>
          </Trackpoint>
          <Trackpoint>
            <Time>2022-09-20T11:38:05.000Z</Time>
            <Position>
              <LatitudeDegrees>49.4337885640561580657958984375</LatitudeDegrees>
              <LongitudeDegrees>20.2724272571504116058349609375</LongitudeDegrees>
            </Position>
            <AltitudeMeters>554.4000244140625</AltitudeMeters>
            <DistanceMeters>NAN</DistanceMeters>
          </Trackpoint>
          <Trackpoint>
            <Time>2022-09-20T11:38:07.000Z</Time>
            <Position>
              <LatitudeDegrees>49.43378261290490627288818359375</LatitudeDegrees>
              <LongitudeDegrees>20.27239314280450344085693359375</LongitudeDegrees>
            </Position>
            <AltitudeMeters>554.79998779296875</AltitudeMeters>
            <DistanceMeters>NAN</DistanceMeters>
          </Trackpoint>
          <Trackpoint>
            <Time>2022-09-20T11:38:12.000Z</Time>
            <Position>
              <LatitudeDegrees>49.43373701535165309906005859375</LatitudeDegrees>
              <LongitudeDegrees>20.2722840942442417144775390625</LongitudeDegrees>
            </Position>
            <AltitudeMeters>555</AltitudeMeters>
            <DistanceMeters>NAN</DistanceMeters>
          </Trackpoint>
          <Trackpoint>
            <Time>2022-09-20T11:38:13.000Z</Time>
            <Position>
              <LatitudeDegrees>49.433732740581035614013671875</LatitudeDegrees>
              <LongitudeDegrees>20.27226590551435947418212890625</LongitudeDegrees>
            </Position>
            <AltitudeMeters>555</AltitudeMeters>
            <DistanceMeters>NAN</DistanceMeters>
          </Trackpoint>
          <Trackpoint>
            <Time>2022-09-20T11:38:14.000Z</Time>
            <Position>
              <LatitudeDegrees>49.433728046715259552001953125</LatitudeDegrees>
              <LongitudeDegrees>20.272250734269618988037109375</LongitudeDegrees>
            </Position>
            <AltitudeMeters>555</AltitudeMeters>
            <DistanceMeters>NAN</DistanceMeters>
          </Trackpoint>
          <Trackpoint>
            <Time>2022-09-20T11:38:17.000Z</Time>
            <Position>
              <LatitudeDegrees>49.4337097741663455963134765625</LatitudeDegrees>
              <LongitudeDegrees>20.2722255885601043701171875</LongitudeDegrees>
            </Position>
            <AltitudeMeters>554.79998779296875</AltitudeMeters>
            <DistanceMeters>NAN</DistanceMeters>
          </Trackpoint>
          <Trackpoint>
            <Time>2022-09-20T11:38:23.000Z</Time>
            <Position>
              <LatitudeDegrees>49.433691501617431640625</LatitudeDegrees>
              <LongitudeDegrees>20.2721312083303928375244140625</LongitudeDegrees>
            </Position>
            <AltitudeMeters>554.79998779296875</AltitudeMeters>
            <DistanceMeters>NAN</DistanceMeters>
          </Trackpoint>
          <Trackpoint>
            <Time>2022-09-20T11:38:24.000Z</Time>
            <Position>
              <LatitudeDegrees>49.43369057960808277130126953125</LatitudeDegrees>
              <LongitudeDegrees>20.2721171267330646514892578125</LongitudeDegrees>
            </Position>
            <AltitudeMeters>554.79998779296875</AltitudeMeters>
            <DistanceMeters>NAN</DistanceMeters>
          </Trackpoint>
          <Trackpoint>
            <Time>2022-09-20T11:38:27.000Z</Time>
            <Position>
              <LatitudeDegrees>49.43367205560207366943359375</LatitudeDegrees>
              <LongitudeDegrees>20.27207245118916034698486328125</LongitudeDegrees>
            </Position>
            <AltitudeMeters>554.79998779296875</AltitudeMeters>
            <DistanceMeters>NAN</DistanceMeters>
          </Trackpoint>
          <Trackpoint>
            <Time>2022-09-20T11:38:31.000Z</Time>
            <Position>
              <LatitudeDegrees>49.433653615415096282958984375</LatitudeDegrees>
              <LongitudeDegrees>20.27201704680919647216796875</LongitudeDegrees>
            </Position>
            <AltitudeMeters>555.20001220703125</AltitudeMeters>
            <DistanceMeters>NAN</DistanceMeters>
          </Trackpoint>
          <Trackpoint>
            <Time>2022-09-20T11:38:32.000Z</Time>
            <Position>
              <LatitudeDegrees>49.43364900536835193634033203125</LatitudeDegrees>
              <LongitudeDegrees>20.2720064856112003326416015625</LongitudeDegrees>
            </Position>
            <AltitudeMeters>555.4000244140625</AltitudeMeters>
            <DistanceMeters>NAN</DistanceMeters>
          </Trackpoint>
          <Trackpoint>
            <Time>2022-09-20T11:38:34.000Z</Time>
            <Position>
              <LatitudeDegrees>49.433640874922275543212890625</LatitudeDegrees>
              <LongitudeDegrees>20.27197840623557567596435546875</LongitudeDegrees>
            </Position>
            <AltitudeMeters>555.4000244140625</AltitudeMeters>
            <DistanceMeters>NAN</DistanceMeters>
          </Trackpoint>
          <Trackpoint>
            <Time>2022-09-20T11:38:45.000Z</Time>
            <Position>
              <LatitudeDegrees>49.43358412943780422210693359375</LatitudeDegrees>
              <LongitudeDegrees>20.27183205820620059967041015625</LongitudeDegrees>
            </Position>
            <AltitudeMeters>556.4000244140625</AltitudeMeters>
            <DistanceMeters>NAN</DistanceMeters>
          </Trackpoint>
          <Trackpoint>
            <Time>2022-09-20T11:38:46.000Z</Time>
            <Position>
              <LatitudeDegrees>49.43357910029590129852294921875</LatitudeDegrees>
              <LongitudeDegrees>20.2718220837414264678955078125</LongitudeDegrees>
            </Position>
            <AltitudeMeters>556.5999755859375</AltitudeMeters>
            <DistanceMeters>NAN</DistanceMeters>
          </Trackpoint>
          <Trackpoint>
            <Time>2022-09-20T11:38:48.000Z</Time>
            <Position>
              <LatitudeDegrees>49.433574490249156951904296875</LatitudeDegrees>
              <LongitudeDegrees>20.271800458431243896484375</LongitudeDegrees>
            </Position>
            <AltitudeMeters>556.79998779296875</AltitudeMeters>
            <DistanceMeters>NAN</DistanceMeters>
          </Trackpoint>
          <Trackpoint>
            <Time>2022-09-20T11:38:50.000Z</Time>
            <Position>
              <LatitudeDegrees>49.43357239477336406707763671875</LatitudeDegrees>
              <LongitudeDegrees>20.27177841402590274810791015625</LongitudeDegrees>
            </Position>
            <AltitudeMeters>557</AltitudeMeters>
            <DistanceMeters>NAN</DistanceMeters>
          </Trackpoint>
          <Trackpoint>
            <Time>2022-09-20T11:38:54.000Z</Time>
            <Position>
              <LatitudeDegrees>49.43355001509189605712890625</LatitudeDegrees>
              <LongitudeDegrees>20.27172870934009552001953125</LongitudeDegrees>
            </Position>
            <AltitudeMeters>557.4000244140625</AltitudeMeters>
            <DistanceMeters>NAN</DistanceMeters>
          </Trackpoint>
          <Trackpoint>
            <Time>2022-09-20T11:38:55.000Z</Time>
            <Position>
              <LatitudeDegrees>49.4335444830358028411865234375</LatitudeDegrees>
              <LongitudeDegrees>20.27171471156179904937744140625</LongitudeDegrees>
            </Position>
            <AltitudeMeters>557.5999755859375</AltitudeMeters>
            <DistanceMeters>NAN</DistanceMeters>
          </Trackpoint>
          <Trackpoint>
            <Time>2022-09-20T11:38:59.000Z</Time>
            <Position>
              <LatitudeDegrees>49.4335220195353031158447265625</LatitudeDegrees>
              <LongitudeDegrees>20.27166710235178470611572265625</LongitudeDegrees>
            </Position>
            <AltitudeMeters>557.79998779296875</AltitudeMeters>
            <DistanceMeters>NAN</DistanceMeters>
          </Trackpoint>
          <Trackpoint>
            <Time>2022-09-20T11:39:06.000Z</Time>
            <Position>
              <LatitudeDegrees>49.4334760867059230804443359375</LatitudeDegrees>
              <LongitudeDegrees>20.271567441523075103759765625</LongitudeDegrees>
            </Position>
            <AltitudeMeters>558.20001220703125</AltitudeMeters>
            <DistanceMeters>NAN</DistanceMeters>
          </Trackpoint>
          <Trackpoint>
            <Time>2022-09-20T11:39:09.000Z</Time>
            <Position>
              <LatitudeDegrees>49.4334579817950725555419921875</LatitudeDegrees>
              <LongitudeDegrees>20.27153156697750091552734375</LongitudeDegrees>
            </Position>
            <AltitudeMeters>558.4000244140625</AltitudeMeters>
            <DistanceMeters>NAN</DistanceMeters>
          </Trackpoint>
          <Trackpoint>
            <Time>2022-09-20T11:39:15.000Z</Time>
            <Position>
              <LatitudeDegrees>49.4334244541823863983154296875</LatitudeDegrees>
              <LongitudeDegrees>20.271455459296703338623046875</LongitudeDegrees>
            </Position>
            <AltitudeMeters>558.79998779296875</AltitudeMeters>
            <DistanceMeters>NAN</DistanceMeters>
          </Trackpoint>
          <Trackpoint>
            <Time>2022-09-20T11:39:17.000Z</Time>
            <Position>
              <LatitudeDegrees>49.43342219106853008270263671875</LatitudeDegrees>
              <LongitudeDegrees>20.27143995277583599090576171875</LongitudeDegrees>
            </Position>
            <AltitudeMeters>558.79998779296875</AltitudeMeters>
            <DistanceMeters>NAN</DistanceMeters>
          </Trackpoint>
          <Trackpoint>
            <Time>2022-09-20T11:39:20.000Z</Time>
            <Position>
              <LatitudeDegrees>49.43339872173964977264404296875</LatitudeDegrees>
              <LongitudeDegrees>20.271401815116405487060546875</LongitudeDegrees>
            </Position>
            <AltitudeMeters>559.4000244140625</AltitudeMeters>
            <DistanceMeters>NAN</DistanceMeters>
          </Trackpoint>
          <Trackpoint>
            <Time>2022-09-20T11:39:22.000Z</Time>
            <Position>
              <LatitudeDegrees>49.433387406170368194580078125</LatitudeDegrees>
              <LongitudeDegrees>20.27138111181557178497314453125</LongitudeDegrees>
            </Position>
            <AltitudeMeters>559.5999755859375</AltitudeMeters>
            <DistanceMeters>NAN</DistanceMeters>
          </Trackpoint>
          <Trackpoint>
            <Time>2022-09-20T11:39:24.000Z</Time>
            <Position>
              <LatitudeDegrees>49.4333736598491668701171875</LatitudeDegrees>
              <LongitudeDegrees>20.27135462500154972076416015625</LongitudeDegrees>
            </Position>
            <AltitudeMeters>559.5999755859375</AltitudeMeters>
            <DistanceMeters>NAN</DistanceMeters>
          </Trackpoint>
          <Trackpoint>
            <Time>2022-09-20T11:39:31.000Z</Time>
            <Position>
              <LatitudeDegrees>49.4333245418965816497802734375</LatitudeDegrees>
              <LongitudeDegrees>20.27128002606332302093505859375</LongitudeDegrees>
            </Position>
            <AltitudeMeters>559.79998779296875</AltitudeMeters>
            <DistanceMeters>NAN</DistanceMeters>
          </Trackpoint>
          <Trackpoint>
            <Time>2022-09-20T11:39:33.000Z</Time>
            <Position>
              <LatitudeDegrees>49.43331372924149036407470703125</LatitudeDegrees>
              <LongitudeDegrees>20.27125773020088672637939453125</LongitudeDegrees>
            </Position>
            <AltitudeMeters>560</AltitudeMeters>
            <DistanceMeters>NAN</DistanceMeters>
          </Trackpoint>
          <Trackpoint>
            <Time>2022-09-20T11:39:36.000Z</Time>
            <Position>
              <LatitudeDegrees>49.43329118192195892333984375</LatitudeDegrees>
              <LongitudeDegrees>20.27123375795781612396240234375</LongitudeDegrees>
            </Position>
            <AltitudeMeters>560.20001220703125</AltitudeMeters>
            <DistanceMeters>NAN</DistanceMeters>
          </Trackpoint>
          <Trackpoint>
            <Time>2022-09-20T11:39:37.000Z</Time>
            <Position>
              <LatitudeDegrees>49.43327802233397960662841796875</LatitudeDegrees>
              <LongitudeDegrees>20.27122219093143939971923828125</LongitudeDegrees>
            </Position>
            <AltitudeMeters>560.20001220703125</AltitudeMeters>
            <DistanceMeters>NAN</DistanceMeters>
          </Trackpoint>
          <Trackpoint>
            <Time>2022-09-20T11:39:39.000Z</Time>
            <Position>
              <LatitudeDegrees>49.43325572647154331207275390625</LatitudeDegrees>
              <LongitudeDegrees>20.2711974643170833587646484375</LongitudeDegrees>
            </Position>
            <AltitudeMeters>560.20001220703125</AltitudeMeters>
            <DistanceMeters>NAN</DistanceMeters>
          </Trackpoint>
          <Trackpoint>
            <Time>2022-09-20T11:39:41.000Z</Time>
            <Position>
              <LatitudeDegrees>49.43324835039675235748291015625</LatitudeDegrees>
              <LongitudeDegrees>20.2711786888539791107177734375</LongitudeDegrees>
            </Position>
            <AltitudeMeters>560.20001220703125</AltitudeMeters>
            <DistanceMeters>NAN</DistanceMeters>
          </Trackpoint>
          <Trackpoint>
            <Time>2022-09-20T11:39:42.000Z</Time>
            <Position>
              <LatitudeDegrees>49.43324902094900608062744140625</LatitudeDegrees>
              <LongitudeDegrees>20.27116536162793636322021484375</LongitudeDegrees>
            </Position>
            <AltitudeMeters>560.20001220703125</AltitudeMeters>
            <DistanceMeters>NAN</DistanceMeters>
          </Trackpoint>
          <Trackpoint>
            <Time>2022-09-20T11:39:45.000Z</Time>
            <Position>
              <LatitudeDegrees>49.433232843875885009765625</LatitudeDegrees>
              <LongitudeDegrees>20.27113300748169422149658203125</LongitudeDegrees>
            </Position>
            <AltitudeMeters>560.4000244140625</AltitudeMeters>
            <DistanceMeters>NAN</DistanceMeters>
          </Trackpoint>
          <Trackpoint>
            <Time>2022-09-20T11:39:47.000Z</Time>
            <Position>
              <LatitudeDegrees>49.433221109211444854736328125</LatitudeDegrees>
              <LongitudeDegrees>20.27111188508570194244384765625</LongitudeDegrees>
            </Position>
            <AltitudeMeters>560.5999755859375</AltitudeMeters>
            <DistanceMeters>NAN</DistanceMeters>
          </Trackpoint>
          <Trackpoint>
            <Time>2022-09-20T11:39:48.000Z</Time>
            <Position>
              <LatitudeDegrees>49.433211721479892730712890625</LatitudeDegrees>
              <LongitudeDegrees>20.27109813876450061798095703125</LongitudeDegrees>
            </Position>
            <AltitudeMeters>560.5999755859375</AltitudeMeters>
            <DistanceMeters>NAN</DistanceMeters>
          </Trackpoint>
          <Trackpoint>
            <Time>2022-09-20T11:39:51.000Z</Time>
            <Position>
              <LatitudeDegrees>49.433191604912281036376953125</LatitudeDegrees>
              <LongitudeDegrees>20.27107249014079570770263671875</LongitudeDegrees>
            </Position>
            <AltitudeMeters>561</AltitudeMeters>
            <DistanceMeters>NAN</DistanceMeters>
          </Trackpoint>
          <Trackpoint>
            <Time>2022-09-20T11:39:52.000Z</Time>
            <Position>
              <LatitudeDegrees>49.43318498320877552032470703125</LatitudeDegrees>
              <LongitudeDegrees>20.27106377296149730682373046875</LongitudeDegrees>
            </Position>
            <AltitudeMeters>561</AltitudeMeters>
            <DistanceMeters>NAN</DistanceMeters>
          </Trackpoint>
          <Trackpoint>
            <Time>2022-09-20T11:39:56.000Z</Time>
            <Position>
              <LatitudeDegrees>49.43315162323415279388427734375</LatitudeDegrees>
              <LongitudeDegrees>20.27102756313979625701904296875</LongitudeDegrees>
            </Position>
            <AltitudeMeters>561.4000244140625</AltitudeMeters>
            <DistanceMeters>NAN</DistanceMeters>
          </Trackpoint>
          <Trackpoint>
            <Time>2022-09-20T11:39:59.000Z</Time>
            <Position>
              <LatitudeDegrees>49.433133602142333984375</LatitudeDegrees>
              <LongitudeDegrees>20.27099671773612499237060546875</LongitudeDegrees>
            </Position>
            <AltitudeMeters>561.5999755859375</AltitudeMeters>
            <DistanceMeters>NAN</DistanceMeters>
          </Trackpoint>
          <Trackpoint>
            <Time>2022-09-20T11:40:04.000Z</Time>
            <Position>
              <LatitudeDegrees>49.433108456432819366455078125</LatitudeDegrees>
              <LongitudeDegrees>20.27094525285065174102783203125</LongitudeDegrees>
            </Position>
            <AltitudeMeters>562</AltitudeMeters>
            <DistanceMeters>NAN</DistanceMeters>
          </Trackpoint>
          <Trackpoint>
            <Time>2022-09-20T11:40:13.000Z</Time>
            <Position>
              <LatitudeDegrees>49.43304483778774738311767578125</LatitudeDegrees>
              <LongitudeDegrees>20.2708494476974010467529296875</LongitudeDegrees>
            </Position>
            <AltitudeMeters>562.5999755859375</AltitudeMeters>
            <DistanceMeters>NAN</DistanceMeters>
          </Trackpoint>
          <Trackpoint>
            <Time>2022-09-20T11:40:15.000Z</Time>
            <Position>
              <LatitudeDegrees>49.4330331869423389434814453125</LatitudeDegrees>
              <LongitudeDegrees>20.2708201110363006591796875</LongitudeDegrees>
            </Position>
            <AltitudeMeters>562.5999755859375</AltitudeMeters>
            <DistanceMeters>NAN</DistanceMeters>
          </Trackpoint>
          <Trackpoint>
            <Time>2022-09-20T11:40:16.000Z</Time>
            <Position>
              <LatitudeDegrees>49.4330258108675479888916015625</LatitudeDegrees>
              <LongitudeDegrees>20.27080996893346309661865234375</LongitudeDegrees>
            </Position>
            <AltitudeMeters>562.79998779296875</AltitudeMeters>
            <DistanceMeters>NAN</DistanceMeters>
          </Trackpoint>
          <Trackpoint>
            <Time>2022-09-20T11:40:18.000Z</Time>
            <Position>
              <LatitudeDegrees>49.43301281891763210296630859375</LatitudeDegrees>
              <LongitudeDegrees>20.27079655788838863372802734375</LongitudeDegrees>
            </Position>
            <AltitudeMeters>562.79998779296875</AltitudeMeters>
            <DistanceMeters>NAN</DistanceMeters>
          </Trackpoint>
          <Trackpoint>
            <Time>2022-09-20T11:40:21.000Z</Time>
            <Position>
              <LatitudeDegrees>49.43299907259643077850341796875</LatitudeDegrees>
              <LongitudeDegrees>20.27075909078121185302734375</LongitudeDegrees>
            </Position>
            <AltitudeMeters>563.20001220703125</AltitudeMeters>
            <DistanceMeters>NAN</DistanceMeters>
          </Trackpoint>
          <Trackpoint>
            <Time>2022-09-20T11:40:26.000Z</Time>
            <Position>
              <LatitudeDegrees>49.43296386860311031341552734375</LatitudeDegrees>
              <LongitudeDegrees>20.2707208693027496337890625</LongitudeDegrees>
            </Position>
            <AltitudeMeters>563.4000244140625</AltitudeMeters>
            <DistanceMeters>NAN</DistanceMeters>
          </Trackpoint>
          <Trackpoint>
            <Time>2022-09-20T11:40:29.000Z</Time>
            <Position>
              <LatitudeDegrees>49.43294844590127468109130859375</LatitudeDegrees>
              <LongitudeDegrees>20.27068071998655796051025390625</LongitudeDegrees>
            </Position>
            <AltitudeMeters>563.5999755859375</AltitudeMeters>
            <DistanceMeters>NAN</DistanceMeters>
          </Trackpoint>
          <Trackpoint>
            <Time>2022-09-20T11:40:31.000Z</Time>
            <Position>
              <LatitudeDegrees>49.4329352863132953643798828125</LatitudeDegrees>
              <LongitudeDegrees>20.27066026814281940460205078125</LongitudeDegrees>
            </Position>
            <AltitudeMeters>563.5999755859375</AltitudeMeters>
            <DistanceMeters>NAN</DistanceMeters>
          </Trackpoint>
          <Trackpoint>
            <Time>2022-09-20T11:40:36.000Z</Time>
            <Position>
              <LatitudeDegrees>49.432907961308956146240234375</LatitudeDegrees>
              <LongitudeDegrees>20.27061601169407367706298828125</LongitudeDegrees>
            </Position>
            <AltitudeMeters>564.20001220703125</AltitudeMeters>
            <DistanceMeters>NAN</DistanceMeters>
          </Trackpoint>
          <Trackpoint>
            <Time>2022-09-20T11:40:39.000Z</Time>
            <Position>
              <LatitudeDegrees>49.43288608454167842864990234375</LatitudeDegrees>
              <LongitudeDegrees>20.2705949731171131134033203125</LongitudeDegrees>
            </Position>
            <AltitudeMeters>564.5999755859375</AltitudeMeters>
            <DistanceMeters>NAN</DistanceMeters>
          </Trackpoint>
          <Trackpoint>
            <Time>2022-09-20T11:40:40.000Z</Time>
            <Position>
              <LatitudeDegrees>49.4328759424388408660888671875</LatitudeDegrees>
              <LongitudeDegrees>20.270585753023624420166015625</LongitudeDegrees>
            </Position>
            <AltitudeMeters>564.79998779296875</AltitudeMeters>
            <DistanceMeters>NAN</DistanceMeters>
          </Trackpoint>
          <Trackpoint>
            <Time>2022-09-20T11:40:41.000Z</Time>
            <Position>
              <LatitudeDegrees>49.43286714144051074981689453125</LatitudeDegrees>
              <LongitudeDegrees>20.27057963423430919647216796875</LongitudeDegrees>
            </Position>
            <AltitudeMeters>564.79998779296875</AltitudeMeters>
            <DistanceMeters>NAN</DistanceMeters>
          </Trackpoint>
          <Trackpoint>
            <Time>2022-09-20T11:40:48.000Z</Time>
            <Position>
              <LatitudeDegrees>49.4328363798558712005615234375</LatitudeDegrees>
              <LongitudeDegrees>20.27056672610342502593994140625</LongitudeDegrees>
            </Position>
            <AltitudeMeters>565.5999755859375</AltitudeMeters>
            <DistanceMeters>NAN</DistanceMeters>
          </Trackpoint>
          <Trackpoint>
            <Time>2022-09-20T11:40:50.000Z</Time>
            <Position>
              <LatitudeDegrees>49.432810731232166290283203125</LatitudeDegrees>
              <LongitudeDegrees>20.27058877050876617431640625</LongitudeDegrees>
            </Position>
            <AltitudeMeters>565.79998779296875</AltitudeMeters>
            <DistanceMeters>NAN</DistanceMeters>
          </Trackpoint>
          <Trackpoint>
            <Time>2022-09-20T11:40:58.000Z</Time>
            <Position>
              <LatitudeDegrees>49.43280327133834362030029296875</LatitudeDegrees>
              <LongitudeDegrees>20.2706724219024181365966796875</LongitudeDegrees>
            </Position>
            <AltitudeMeters>566.79998779296875</AltitudeMeters>
            <DistanceMeters>NAN</DistanceMeters>
          </Trackpoint>
          <Trackpoint>
            <Time>2022-09-20T11:41:00.000Z</Time>
            <Position>
              <LatitudeDegrees>49.43280159495770931243896484375</LatitudeDegrees>
              <LongitudeDegrees>20.2706885151565074920654296875</LongitudeDegrees>
            </Position>
            <AltitudeMeters>566.79998779296875</AltitudeMeters>
            <DistanceMeters>NAN</DistanceMeters>
          </Trackpoint>
          <Trackpoint>
            <Time>2022-09-20T11:41:05.000Z</Time>
            <Position>
              <LatitudeDegrees>49.43284618668258190155029296875</LatitudeDegrees>
              <LongitudeDegrees>20.2707616053521633148193359375</LongitudeDegrees>
            </Position>
            <AltitudeMeters>567.20001220703125</AltitudeMeters>
            <DistanceMeters>NAN</DistanceMeters>
          </Trackpoint>
          <Trackpoint>
            <Time>2022-09-20T11:41:12.000Z</Time>
            <Position>
              <LatitudeDegrees>49.4328300096094608306884765625</LatitudeDegrees>
              <LongitudeDegrees>20.2708281576633453369140625</LongitudeDegrees>
            </Position>
            <AltitudeMeters>568</AltitudeMeters>
            <DistanceMeters>NAN</DistanceMeters>
          </Trackpoint>
          <Trackpoint>
            <Time>2022-09-20T11:41:16.000Z</Time>
            <Position>
              <LatitudeDegrees>49.43284015171229839324951171875</LatitudeDegrees>
              <LongitudeDegrees>20.27083930559456348419189453125</LongitudeDegrees>
            </Position>
            <AltitudeMeters>568.4000244140625</AltitudeMeters>
            <DistanceMeters>NAN</DistanceMeters>
          </Trackpoint>
          <Trackpoint>
            <Time>2022-09-20T11:41:24.000Z</Time>
            <Position>
              <LatitudeDegrees>49.4328345358371734619140625</LatitudeDegrees>
              <LongitudeDegrees>20.2708752639591693878173828125</LongitudeDegrees>
            </Position>
            <AltitudeMeters>568.79998779296875</AltitudeMeters>
            <DistanceMeters>NAN</DistanceMeters>
          </Trackpoint>
          <Trackpoint>
            <Time>2022-09-20T11:41:28.000Z</Time>
            <Position>
              <LatitudeDegrees>49.432834871113300323486328125</LatitudeDegrees>
              <LongitudeDegrees>20.27089647017419338226318359375</LongitudeDegrees>
            </Position>
            <AltitudeMeters>569</AltitudeMeters>
            <DistanceMeters>NAN</DistanceMeters>
          </Trackpoint>
          <Trackpoint>
            <Time>2022-09-20T11:41:30.000Z</Time>
            <Position>
              <LatitudeDegrees>49.4328367151319980621337890625</LatitudeDegrees>
              <LongitudeDegrees>20.27093703858554363250732421875</LongitudeDegrees>
            </Position>
            <AltitudeMeters>569</AltitudeMeters>
            <DistanceMeters>NAN</DistanceMeters>
          </Trackpoint>
          <Trackpoint>
            <Time>2022-09-20T11:41:32.000Z</Time>
            <Position>
              <LatitudeDegrees>49.43283596076071262359619140625</LatitudeDegrees>
              <LongitudeDegrees>20.2709657885134220123291015625</LongitudeDegrees>
            </Position>
            <AltitudeMeters>569.20001220703125</AltitudeMeters>
            <DistanceMeters>NAN</DistanceMeters>
          </Trackpoint>
          <Trackpoint>
            <Time>2022-09-20T11:41:36.000Z</Time>
            <Position>
              <LatitudeDegrees>49.43283478729426860809326171875</LatitudeDegrees>
              <LongitudeDegrees>20.27096956036984920501708984375</LongitudeDegrees>
            </Position>
            <AltitudeMeters>569.79998779296875</AltitudeMeters>
            <DistanceMeters>NAN</DistanceMeters>
          </Trackpoint>
          <Trackpoint>
            <Time>2022-09-20T11:41:39.000Z</Time>
            <Position>
              <LatitudeDegrees>49.43282724358141422271728515625</LatitudeDegrees>
              <LongitudeDegrees>20.27102437801659107208251953125</LongitudeDegrees>
            </Position>
            <AltitudeMeters>570</AltitudeMeters>
            <DistanceMeters>NAN</DistanceMeters>
          </Trackpoint>
          <Trackpoint>
            <Time>2022-09-20T11:41:42.000Z</Time>
            <Position>
              <LatitudeDegrees>49.43281240761280059814453125</LatitudeDegrees>
              <LongitudeDegrees>20.27108506299555301666259765625</LongitudeDegrees>
            </Position>
            <AltitudeMeters>570.20001220703125</AltitudeMeters>
            <DistanceMeters>NAN</DistanceMeters>
          </Trackpoint>
          <Trackpoint>
            <Time>2022-09-20T11:41:43.000Z</Time>
            <Position>
              <LatitudeDegrees>49.43280913867056369781494140625</LatitudeDegrees>
              <LongitudeDegrees>20.27109981514513492584228515625</LongitudeDegrees>
            </Position>
            <AltitudeMeters>570.20001220703125</AltitudeMeters>
            <DistanceMeters>NAN</DistanceMeters>
          </Trackpoint>
          <Trackpoint>
            <Time>2022-09-20T11:41:45.000Z</Time>
            <Position>
              <LatitudeDegrees>49.43280838429927825927734375</LatitudeDegrees>
              <LongitudeDegrees>20.27114155702292919158935546875</LongitudeDegrees>
            </Position>
            <AltitudeMeters>570.4000244140625</AltitudeMeters>
            <DistanceMeters>NAN</DistanceMeters>
          </Trackpoint>
          <Trackpoint>
            <Time>2022-09-20T11:41:50.000Z</Time>
            <Position>
              <LatitudeDegrees>49.43280109204351902008056640625</LatitudeDegrees>
              <LongitudeDegrees>20.2712517790496349334716796875</LongitudeDegrees>
            </Position>
            <AltitudeMeters>571</AltitudeMeters>
            <DistanceMeters>NAN</DistanceMeters>
          </Trackpoint>
          <Trackpoint>
            <Time>2022-09-20T11:41:52.000Z</Time>
            <Position>
              <LatitudeDegrees>49.43279941566288471221923828125</LatitudeDegrees>
              <LongitudeDegrees>20.2712943591177463531494140625</LongitudeDegrees>
            </Position>
            <AltitudeMeters>571.20001220703125</AltitudeMeters>
            <DistanceMeters>NAN</DistanceMeters>
          </Trackpoint>
          <Trackpoint>
            <Time>2022-09-20T11:41:54.000Z</Time>
            <Position>
              <LatitudeDegrees>49.43279488943517208099365234375</LatitudeDegrees>
              <LongitudeDegrees>20.27133987285196781158447265625</LongitudeDegrees>
            </Position>
            <AltitudeMeters>571.4000244140625</AltitudeMeters>
            <DistanceMeters>NAN</DistanceMeters>
          </Trackpoint>
          <Trackpoint>
            <Time>2022-09-20T11:41:55.000Z</Time>
            <Position>
              <LatitudeDegrees>49.43279053084552288055419921875</LatitudeDegrees>
              <LongitudeDegrees>20.27136200107634067535400390625</LongitudeDegrees>
            </Position>
            <AltitudeMeters>571.4000244140625</AltitudeMeters>
            <DistanceMeters>NAN</DistanceMeters>
          </Trackpoint>
          <Trackpoint>
            <Time>2022-09-20T11:41:56.000Z</Time>
            <Position>
              <LatitudeDegrees>49.4327800534665584564208984375</LatitudeDegrees>
              <LongitudeDegrees>20.271389074623584747314453125</LongitudeDegrees>
            </Position>
            <AltitudeMeters>571.5999755859375</AltitudeMeters>
            <DistanceMeters>NAN</DistanceMeters>
          </Trackpoint>
          <Trackpoint>
            <Time>2022-09-20T11:41:57.000Z</Time>
            <Position>
              <LatitudeDegrees>49.43277074955403804779052734375</LatitudeDegrees>
              <LongitudeDegrees>20.27141145430505275726318359375</LongitudeDegrees>
            </Position>
            <AltitudeMeters>571.79998779296875</AltitudeMeters>
            <DistanceMeters>NAN</DistanceMeters>
          </Trackpoint>
          <Trackpoint>
            <Time>2022-09-20T11:41:58.000Z</Time>
            <Position>
              <LatitudeDegrees>49.43277460522949695587158203125</LatitudeDegrees>
              <LongitudeDegrees>20.27140692807734012603759765625</LongitudeDegrees>
            </Position>
            <AltitudeMeters>571.79998779296875</AltitudeMeters>
            <DistanceMeters>NAN</DistanceMeters>
          </Trackpoint>
          <Trackpoint>
            <Time>2022-09-20T11:42:02.000Z</Time>
            <Position>
              <LatitudeDegrees>49.43277510814368724822998046875</LatitudeDegrees>
              <LongitudeDegrees>20.27143827639520168304443359375</LongitudeDegrees>
            </Position>
            <AltitudeMeters>572</AltitudeMeters>
            <DistanceMeters>NAN</DistanceMeters>
          </Trackpoint>
          <Trackpoint>
            <Time>2022-09-20T11:42:05.000Z</Time>
            <Position>
              <LatitudeDegrees>49.43277343176305294036865234375</LatitudeDegrees>
              <LongitudeDegrees>20.27147163636982440948486328125</LongitudeDegrees>
            </Position>
            <AltitudeMeters>572.20001220703125</AltitudeMeters>
            <DistanceMeters>NAN</DistanceMeters>
          </Trackpoint>
          <Trackpoint>
            <Time>2022-09-20T11:42:07.000Z</Time>
            <Position>
              <LatitudeDegrees>49.43277544341981410980224609375</LatitudeDegrees>
              <LongitudeDegrees>20.2714879810810089111328125</LongitudeDegrees>
            </Position>
            <AltitudeMeters>572.4000244140625</AltitudeMeters>
            <DistanceMeters>NAN</DistanceMeters>
          </Trackpoint>
          <Trackpoint>
            <Time>2022-09-20T11:42:08.000Z</Time>
            <Position>
              <LatitudeDegrees>49.43277611397206783294677734375</LatitudeDegrees>
              <LongitudeDegrees>20.27149208821356296539306640625</LongitudeDegrees>
            </Position>
            <AltitudeMeters>572.5999755859375</AltitudeMeters>
            <DistanceMeters>NAN</DistanceMeters>
          </Trackpoint>
          <Trackpoint>
            <Time>2022-09-20T11:42:15.000Z</Time>
            <Position>
              <LatitudeDegrees>49.43277544341981410980224609375</LatitudeDegrees>
              <LongitudeDegrees>20.27150164358317852020263671875</LongitudeDegrees>
            </Position>
            <AltitudeMeters>573</AltitudeMeters>
            <DistanceMeters>NAN</DistanceMeters>
          </Trackpoint>
          <Trackpoint>
            <Time>2022-09-20T11:42:17.000Z</Time>
            <Position>
              <LatitudeDegrees>49.43278483115136623382568359375</LatitudeDegrees>
              <LongitudeDegrees>20.271532237529754638671875</LongitudeDegrees>
            </Position>
            <AltitudeMeters>573.20001220703125</AltitudeMeters>
            <DistanceMeters>NAN</DistanceMeters>
          </Trackpoint>
          <Trackpoint>
            <Time>2022-09-20T11:42:23.000Z</Time>
            <Position>
              <LatitudeDegrees>49.4327961467206478118896484375</LatitudeDegrees>
              <LongitudeDegrees>20.27161530219018459320068359375</LongitudeDegrees>
            </Position>
            <AltitudeMeters>573.79998779296875</AltitudeMeters>
            <DistanceMeters>NAN</DistanceMeters>
          </Trackpoint>
          <Trackpoint>
            <Time>2022-09-20T11:42:28.000Z</Time>
            <Position>
              <LatitudeDegrees>49.43280796520411968231201171875</LatitudeDegrees>
              <LongitudeDegrees>20.27169325388967990875244140625</LongitudeDegrees>
            </Position>
            <AltitudeMeters>574</AltitudeMeters>
            <DistanceMeters>NAN</DistanceMeters>
          </Trackpoint>
          <Trackpoint>
            <Time>2022-09-20T11:42:30.000Z</Time>
            <Position>
              <LatitudeDegrees>49.432819448411464691162109375</LatitudeDegrees>
              <LongitudeDegrees>20.27171705849468708038330078125</LongitudeDegrees>
            </Position>
            <AltitudeMeters>574.20001220703125</AltitudeMeters>
            <DistanceMeters>NAN</DistanceMeters>
          </Trackpoint>
          <Trackpoint>
            <Time>2022-09-20T11:42:32.000Z</Time>
            <Position>
              <LatitudeDegrees>49.43283176980912685394287109375</LatitudeDegrees>
              <LongitudeDegrees>20.271742455661296844482421875</LongitudeDegrees>
            </Position>
            <AltitudeMeters>574.4000244140625</AltitudeMeters>
            <DistanceMeters>NAN</DistanceMeters>
          </Trackpoint>
          <Trackpoint>
            <Time>2022-09-20T11:42:33.000Z</Time>
            <Position>
              <LatitudeDegrees>49.43283495493233203887939453125</LatitudeDegrees>
              <LongitudeDegrees>20.27175343595445156097412109375</LongitudeDegrees>
            </Position>
            <AltitudeMeters>574.5999755859375</AltitudeMeters>
            <DistanceMeters>NAN</DistanceMeters>
          </Trackpoint>
          <Trackpoint>
            <Time>2022-09-20T11:42:34.000Z</Time>
            <Position>
              <LatitudeDegrees>49.43283654749393463134765625</LatitudeDegrees>
              <LongitudeDegrees>20.27176902629435062408447265625</LongitudeDegrees>
            </Position>
            <AltitudeMeters>574.79998779296875</AltitudeMeters>
            <DistanceMeters>NAN</DistanceMeters>
          </Trackpoint>
          <Trackpoint>
            <Time>2022-09-20T11:42:36.000Z</Time>
            <Position>
              <LatitudeDegrees>49.4328253157436847686767578125</LatitudeDegrees>
              <LongitudeDegrees>20.271798782050609588623046875</LongitudeDegrees>
            </Position>
            <AltitudeMeters>575</AltitudeMeters>
            <DistanceMeters>NAN</DistanceMeters>
          </Trackpoint>
          <Trackpoint>
            <Time>2022-09-20T11:42:38.000Z</Time>
            <Position>
              <LatitudeDegrees>49.43282322026789188385009765625</LatitudeDegrees>
              <LongitudeDegrees>20.27180104516446590423583984375</LongitudeDegrees>
            </Position>
            <AltitudeMeters>575</AltitudeMeters>
            <DistanceMeters>NAN</DistanceMeters>
          </Trackpoint>
          <Trackpoint>
            <Time>2022-09-20T11:42:41.000Z</Time>
            <Position>
              <LatitudeDegrees>49.4328266568481922149658203125</LatitudeDegrees>
              <LongitudeDegrees>20.2717962674796581268310546875</LongitudeDegrees>
            </Position>
            <AltitudeMeters>575.4000244140625</AltitudeMeters>
            <DistanceMeters>NAN</DistanceMeters>
          </Trackpoint>
          <Trackpoint>
            <Time>2022-09-20T11:42:45.000Z</Time>
            <Position>
              <LatitudeDegrees>49.43282271735370159149169921875</LatitudeDegrees>
              <LongitudeDegrees>20.27185670100152492523193359375</LongitudeDegrees>
            </Position>
            <AltitudeMeters>575.79998779296875</AltitudeMeters>
            <DistanceMeters>NAN</DistanceMeters>
          </Trackpoint>
          <Trackpoint>
            <Time>2022-09-20T11:42:47.000Z</Time>
            <Position>
              <LatitudeDegrees>49.43282204680144786834716796875</LatitudeDegrees>
              <LongitudeDegrees>20.2718609757721424102783203125</LongitudeDegrees>
            </Position>
            <AltitudeMeters>576</AltitudeMeters>
            <DistanceMeters>NAN</DistanceMeters>
          </Trackpoint>
          <Trackpoint>
            <Time>2022-09-20T11:42:48.000Z</Time>
            <Position>
              <LatitudeDegrees>49.43282045423984527587890625</LatitudeDegrees>
              <LongitudeDegrees>20.27186608873307704925537109375</LongitudeDegrees>
            </Position>
            <AltitudeMeters>576</AltitudeMeters>
            <DistanceMeters>NAN</DistanceMeters>
          </Trackpoint>
          <Trackpoint>
            <Time>2022-09-20T11:42:51.000Z</Time>
            <Position>
              <LatitudeDegrees>49.43282045423984527587890625</LatitudeDegrees>
              <LongitudeDegrees>20.27186608873307704925537109375</LongitudeDegrees>
            </Position>
            <AltitudeMeters>576.4000244140625</AltitudeMeters>
            <DistanceMeters>NAN</DistanceMeters>
          </Trackpoint>
          <Trackpoint>
            <Time>2022-09-20T11:42:55.000Z</Time>
            <Position>
              <LatitudeDegrees>49.43282045423984527587890625</LatitudeDegrees>
              <LongitudeDegrees>20.27186608873307704925537109375</LongitudeDegrees>
            </Position>
            <AltitudeMeters>576.5999755859375</AltitudeMeters>
            <DistanceMeters>NAN</DistanceMeters>
          </Trackpoint>
          <Trackpoint>
            <Time>2022-09-20T11:43:00.000Z</Time>
            <Position>
              <LatitudeDegrees>49.43282045423984527587890625</LatitudeDegrees>
              <LongitudeDegrees>20.27186608873307704925537109375</LongitudeDegrees>
            </Position>
            <AltitudeMeters>576.5999755859375</AltitudeMeters>
            <DistanceMeters>NAN</DistanceMeters>
          </Trackpoint>
          <Trackpoint>
            <Time>2022-09-20T11:43:22.000Z</Time>
            <Position>
              <LatitudeDegrees>49.43279757164418697357177734375</LatitudeDegrees>
              <LongitudeDegrees>20.2719012089073657989501953125</LongitudeDegrees>
            </Position>
            <AltitudeMeters>577.4000244140625</AltitudeMeters>
            <DistanceMeters>NAN</DistanceMeters>
          </Trackpoint>
          <Trackpoint>
            <Time>2022-09-20T11:43:29.000Z</Time>
            <Position>
              <LatitudeDegrees>49.432765804231166839599609375</LatitudeDegrees>
              <LongitudeDegrees>20.2720312960445880889892578125</LongitudeDegrees>
            </Position>
            <AltitudeMeters>578.4000244140625</AltitudeMeters>
            <DistanceMeters>NAN</DistanceMeters>
          </Trackpoint>
          <Trackpoint>
            <Time>2022-09-20T11:43:30.000Z</Time>
            <Position>
              <LatitudeDegrees>49.432757757604122161865234375</LatitudeDegrees>
              <LongitudeDegrees>20.27205686084926128387451171875</LongitudeDegrees>
            </Position>
            <AltitudeMeters>578.5999755859375</AltitudeMeters>
            <DistanceMeters>NAN</DistanceMeters>
          </Trackpoint>
          <Trackpoint>
            <Time>2022-09-20T11:43:37.000Z</Time>
            <Position>
              <LatitudeDegrees>49.4327435083687305450439453125</LatitudeDegrees>
              <LongitudeDegrees>20.27212006039917469024658203125</LongitudeDegrees>
            </Position>
            <AltitudeMeters>579.20001220703125</AltitudeMeters>
            <DistanceMeters>NAN</DistanceMeters>
          </Trackpoint>
          <Trackpoint>
            <Time>2022-09-20T11:43:41.000Z</Time>
            <Position>
              <LatitudeDegrees>49.4327435083687305450439453125</LatitudeDegrees>
              <LongitudeDegrees>20.27212006039917469024658203125</LongitudeDegrees>
            </Position>
            <AltitudeMeters>579.20001220703125</AltitudeMeters>
            <DistanceMeters>NAN</DistanceMeters>
          </Trackpoint>
          <Trackpoint>
            <Time>2022-09-20T11:43:47.000Z</Time>
            <Position>
              <LatitudeDegrees>49.43272934295237064361572265625</LatitudeDegrees>
              <LongitudeDegrees>20.27219717390835285186767578125</LongitudeDegrees>
            </Position>
            <AltitudeMeters>579.4000244140625</AltitudeMeters>
            <DistanceMeters>NAN</DistanceMeters>
          </Trackpoint>
          <Trackpoint>
            <Time>2022-09-20T11:43:49.000Z</Time>
            <Position>
              <LatitudeDegrees>49.432728923857212066650390625</LatitudeDegrees>
              <LongitudeDegrees>20.272223912179470062255859375</LongitudeDegrees>
            </Position>
            <AltitudeMeters>579.5999755859375</AltitudeMeters>
            <DistanceMeters>NAN</DistanceMeters>
          </Trackpoint>
          <Trackpoint>
            <Time>2022-09-20T11:43:52.000Z</Time>
            <Position>
              <LatitudeDegrees>49.43272280506789684295654296875</LatitudeDegrees>
              <LongitudeDegrees>20.272226594388484954833984375</LongitudeDegrees>
            </Position>
            <AltitudeMeters>579.79998779296875</AltitudeMeters>
            <DistanceMeters>NAN</DistanceMeters>
          </Trackpoint>
          <Trackpoint>
            <Time>2022-09-20T11:43:57.000Z</Time>
            <Position>
              <LatitudeDegrees>49.4327084720134735107421875</LatitudeDegrees>
              <LongitudeDegrees>20.27227311395108699798583984375</LongitudeDegrees>
            </Position>
            <AltitudeMeters>580.4000244140625</AltitudeMeters>
            <DistanceMeters>NAN</DistanceMeters>
          </Trackpoint>
          <Trackpoint>
            <Time>2022-09-20T11:44:01.000Z</Time>
            <Position>
              <LatitudeDegrees>49.43269304931163787841796875</LatitudeDegrees>
              <LongitudeDegrees>20.2723623812198638916015625</LongitudeDegrees>
            </Position>
            <AltitudeMeters>580.5999755859375</AltitudeMeters>
            <DistanceMeters>NAN</DistanceMeters>
          </Trackpoint>
          <Trackpoint>
            <Time>2022-09-20T11:44:05.000Z</Time>
            <Position>
              <LatitudeDegrees>49.43267159163951873779296875</LatitudeDegrees>
              <LongitudeDegrees>20.27246137149631977081298828125</LongitudeDegrees>
            </Position>
            <AltitudeMeters>581.20001220703125</AltitudeMeters>
            <DistanceMeters>NAN</DistanceMeters>
          </Trackpoint>
          <Trackpoint>
            <Time>2022-09-20T11:44:10.000Z</Time>
            <Position>
              <LatitudeDegrees>49.43266362883150577545166015625</LatitudeDegrees>
              <LongitudeDegrees>20.272547788918018341064453125</LongitudeDegrees>
            </Position>
            <AltitudeMeters>581.79998779296875</AltitudeMeters>
            <DistanceMeters>NAN</DistanceMeters>
          </Trackpoint>
          <Trackpoint>
            <Time>2022-09-20T11:44:13.000Z</Time>
            <Position>
              <LatitudeDegrees>49.4326402433216571807861328125</LatitudeDegrees>
              <LongitudeDegrees>20.2726116590201854705810546875</LongitudeDegrees>
            </Position>
            <AltitudeMeters>582</AltitudeMeters>
            <DistanceMeters>NAN</DistanceMeters>
          </Trackpoint>
          <Trackpoint>
            <Time>2022-09-20T11:44:20.000Z</Time>
            <Position>
              <LatitudeDegrees>49.4326150976121425628662109375</LatitudeDegrees>
              <LongitudeDegrees>20.27270478196442127227783203125</LongitudeDegrees>
            </Position>
            <AltitudeMeters>582.79998779296875</AltitudeMeters>
            <DistanceMeters>NAN</DistanceMeters>
          </Trackpoint>
          <Trackpoint>
            <Time>2022-09-20T11:44:28.000Z</Time>
            <Position>
              <LatitudeDegrees>49.43257980979979038238525390625</LatitudeDegrees>
              <LongitudeDegrees>20.27283302508294582366943359375</LongitudeDegrees>
            </Position>
            <AltitudeMeters>583.79998779296875</AltitudeMeters>
            <DistanceMeters>NAN</DistanceMeters>
          </Trackpoint>
          <Trackpoint>
            <Time>2022-09-20T11:44:31.000Z</Time>
            <Position>
              <LatitudeDegrees>49.432567656040191650390625</LatitudeDegrees>
              <LongitudeDegrees>20.2728594280779361724853515625</LongitudeDegrees>
            </Position>
            <AltitudeMeters>584</AltitudeMeters>
            <DistanceMeters>NAN</DistanceMeters>
          </Trackpoint>
          <Trackpoint>
            <Time>2022-09-20T11:44:35.000Z</Time>
            <Position>
              <LatitudeDegrees>49.43255064077675342559814453125</LatitudeDegrees>
              <LongitudeDegrees>20.27291332371532917022705078125</LongitudeDegrees>
            </Position>
            <AltitudeMeters>584.4000244140625</AltitudeMeters>
            <DistanceMeters>NAN</DistanceMeters>
          </Trackpoint>
          <Trackpoint>
            <Time>2022-09-20T11:44:41.000Z</Time>
            <Position>
              <LatitudeDegrees>49.43252381868660449981689453125</LatitudeDegrees>
              <LongitudeDegrees>20.27297216467559337615966796875</LongitudeDegrees>
            </Position>
            <AltitudeMeters>585</AltitudeMeters>
            <DistanceMeters>NAN</DistanceMeters>
          </Trackpoint>
          <Trackpoint>
            <Time>2022-09-20T11:44:47.000Z</Time>
            <Position>
              <LatitudeDegrees>49.43251677788794040679931640625</LatitudeDegrees>
              <LongitudeDegrees>20.27304433286190032958984375</LongitudeDegrees>
            </Position>
            <AltitudeMeters>585.5999755859375</AltitudeMeters>
            <DistanceMeters>NAN</DistanceMeters>
          </Trackpoint>
          <Trackpoint>
            <Time>2022-09-20T11:44:50.000Z</Time>
            <Position>
              <LatitudeDegrees>49.43251736462116241455078125</LatitudeDegrees>
              <LongitudeDegrees>20.273048691451549530029296875</LongitudeDegrees>
            </Position>
            <AltitudeMeters>585.79998779296875</AltitudeMeters>
            <DistanceMeters>NAN</DistanceMeters>
          </Trackpoint>
          <Trackpoint>
            <Time>2022-09-20T11:44:52.000Z</Time>
            <Position>
              <LatitudeDegrees>49.43251308985054492950439453125</LatitudeDegrees>
              <LongitudeDegrees>20.27305715717375278472900390625</LongitudeDegrees>
            </Position>
            <AltitudeMeters>586</AltitudeMeters>
            <DistanceMeters>NAN</DistanceMeters>
          </Trackpoint>
          <Trackpoint>
            <Time>2022-09-20T11:44:54.000Z</Time>
            <Position>
              <LatitudeDegrees>49.43251308985054492950439453125</LatitudeDegrees>
              <LongitudeDegrees>20.27305715717375278472900390625</LongitudeDegrees>
            </Position>
            <AltitudeMeters>586.20001220703125</AltitudeMeters>
            <DistanceMeters>NAN</DistanceMeters>
          </Trackpoint>
          <Trackpoint>
            <Time>2022-09-20T11:45:00.000Z</Time>
            <Position>
              <LatitudeDegrees>49.4324977509677410125732421875</LatitudeDegrees>
              <LongitudeDegrees>20.273107700049877166748046875</LongitudeDegrees>
            </Position>
            <AltitudeMeters>586.20001220703125</AltitudeMeters>
            <DistanceMeters>NAN</DistanceMeters>
          </Trackpoint>
          <Trackpoint>
            <Time>2022-09-20T11:45:04.000Z</Time>
            <Position>
              <LatitudeDegrees>49.4324870221316814422607421875</LatitudeDegrees>
              <LongitudeDegrees>20.27317014522850513458251953125</LongitudeDegrees>
            </Position>
            <AltitudeMeters>586.5999755859375</AltitudeMeters>
            <DistanceMeters>NAN</DistanceMeters>
          </Trackpoint>
          <Trackpoint>
            <Time>2022-09-20T11:45:06.000Z</Time>
            <Position>
              <LatitudeDegrees>49.432482160627841949462890625</LatitudeDegrees>
              <LongitudeDegrees>20.2731849811971187591552734375</LongitudeDegrees>
            </Position>
            <AltitudeMeters>587</AltitudeMeters>
            <DistanceMeters>NAN</DistanceMeters>
          </Trackpoint>
          <Trackpoint>
            <Time>2022-09-20T11:45:08.000Z</Time>
            <Position>
              <LatitudeDegrees>49.43246372044086456298828125</LatitudeDegrees>
              <LongitudeDegrees>20.27324206195771694183349609375</LongitudeDegrees>
            </Position>
            <AltitudeMeters>587.20001220703125</AltitudeMeters>
            <DistanceMeters>NAN</DistanceMeters>
          </Trackpoint>
          <Trackpoint>
            <Time>2022-09-20T11:45:12.000Z</Time>
            <Position>
              <LatitudeDegrees>49.43244737572968006134033203125</LatitudeDegrees>
              <LongitudeDegrees>20.27328866533935070037841796875</LongitudeDegrees>
            </Position>
            <AltitudeMeters>587.5999755859375</AltitudeMeters>
            <DistanceMeters>NAN</DistanceMeters>
          </Trackpoint>
          <Trackpoint>
            <Time>2022-09-20T11:45:17.000Z</Time>
            <Position>
              <LatitudeDegrees>49.43243312649428844451904296875</LatitudeDegrees>
              <LongitudeDegrees>20.2733655273914337158203125</LongitudeDegrees>
            </Position>
            <AltitudeMeters>588.20001220703125</AltitudeMeters>
            <DistanceMeters>NAN</DistanceMeters>
          </Trackpoint>
          <Trackpoint>
            <Time>2022-09-20T11:45:18.000Z</Time>
            <Position>
              <LatitudeDegrees>49.43242658860981464385986328125</LatitudeDegrees>
              <LongitudeDegrees>20.27338287793099880218505859375</LongitudeDegrees>
            </Position>
            <AltitudeMeters>588.4000244140625</AltitudeMeters>
            <DistanceMeters>NAN</DistanceMeters>
          </Trackpoint>
          <Trackpoint>
            <Time>2022-09-20T11:45:26.000Z</Time>
            <Position>
              <LatitudeDegrees>49.4324213080108165740966796875</LatitudeDegrees>
              <LongitudeDegrees>20.27343618683516979217529296875</LongitudeDegrees>
            </Position>
            <AltitudeMeters>589</AltitudeMeters>
            <DistanceMeters>NAN</DistanceMeters>
          </Trackpoint>
          <Trackpoint>
            <Time>2022-09-20T11:45:27.000Z</Time>
            <Position>
              <LatitudeDegrees>49.4324213080108165740966796875</LatitudeDegrees>
              <LongitudeDegrees>20.27343618683516979217529296875</LongitudeDegrees>
            </Position>
            <AltitudeMeters>589.20001220703125</AltitudeMeters>
            <DistanceMeters>NAN</DistanceMeters>
          </Trackpoint>
          <Trackpoint>
            <Time>2022-09-20T11:45:28.000Z</Time>
            <Position>
              <LatitudeDegrees>49.43242885172367095947265625</LatitudeDegrees>
              <LongitudeDegrees>20.27344222180545330047607421875</LongitudeDegrees>
            </Position>
            <AltitudeMeters>589.4000244140625</AltitudeMeters>
            <DistanceMeters>NAN</DistanceMeters>
          </Trackpoint>
          <Trackpoint>
            <Time>2022-09-20T11:45:35.000Z</Time>
            <Position>
              <LatitudeDegrees>49.4324001856148242950439453125</LatitudeDegrees>
              <LongitudeDegrees>20.2735376916825771331787109375</LongitudeDegrees>
            </Position>
            <AltitudeMeters>590</AltitudeMeters>
            <DistanceMeters>NAN</DistanceMeters>
          </Trackpoint>
          <Trackpoint>
            <Time>2022-09-20T11:45:39.000Z</Time>
            <Position>
              <LatitudeDegrees>49.4324001856148242950439453125</LatitudeDegrees>
              <LongitudeDegrees>20.2735376916825771331787109375</LongitudeDegrees>
            </Position>
            <AltitudeMeters>590.20001220703125</AltitudeMeters>
            <DistanceMeters>NAN</DistanceMeters>
          </Trackpoint>
          <Trackpoint>
            <Time>2022-09-20T11:45:41.000Z</Time>
            <Position>
              <LatitudeDegrees>49.4324001856148242950439453125</LatitudeDegrees>
              <LongitudeDegrees>20.2735376916825771331787109375</LongitudeDegrees>
            </Position>
            <AltitudeMeters>590.20001220703125</AltitudeMeters>
            <DistanceMeters>NAN</DistanceMeters>
          </Trackpoint>
          <Trackpoint>
            <Time>2022-09-20T11:45:42.000Z</Time>
            <Position>
              <LatitudeDegrees>49.4324001856148242950439453125</LatitudeDegrees>
              <LongitudeDegrees>20.2735376916825771331787109375</LongitudeDegrees>
            </Position>
            <AltitudeMeters>590.20001220703125</AltitudeMeters>
            <DistanceMeters>NAN</DistanceMeters>
          </Trackpoint>
          <Trackpoint>
            <Time>2022-09-20T11:45:46.000Z</Time>
            <Position>
              <LatitudeDegrees>49.43236716091632843017578125</LatitudeDegrees>
              <LongitudeDegrees>20.2735879831016063690185546875</LongitudeDegrees>
            </Position>
            <AltitudeMeters>590.4000244140625</AltitudeMeters>
            <DistanceMeters>NAN</DistanceMeters>
          </Trackpoint>
          <Trackpoint>
            <Time>2022-09-20T11:45:51.000Z</Time>
            <Position>
              <LatitudeDegrees>49.4323123432695865631103515625</LatitudeDegrees>
              <LongitudeDegrees>20.27365596033632755279541015625</LongitudeDegrees>
            </Position>
            <AltitudeMeters>590.79998779296875</AltitudeMeters>
            <DistanceMeters>NAN</DistanceMeters>
          </Trackpoint>
          <Trackpoint>
            <Time>2022-09-20T11:45:54.000Z</Time>
            <Position>
              <LatitudeDegrees>49.4322650693356990814208984375</LatitudeDegrees>
              <LongitudeDegrees>20.27376710437238216400146484375</LongitudeDegrees>
            </Position>
            <AltitudeMeters>591</AltitudeMeters>
            <DistanceMeters>NAN</DistanceMeters>
          </Trackpoint>
          <Trackpoint>
            <Time>2022-09-20T11:45:57.000Z</Time>
            <Position>
              <LatitudeDegrees>49.4322352297604084014892578125</LatitudeDegrees>
              <LongitudeDegrees>20.27380473911762237548828125</LongitudeDegrees>
            </Position>
            <AltitudeMeters>591.4000244140625</AltitudeMeters>
            <DistanceMeters>NAN</DistanceMeters>
          </Trackpoint>
          <Trackpoint>
            <Time>2022-09-20T11:46:02.000Z</Time>
            <Position>
              <LatitudeDegrees>49.43229314871132373809814453125</LatitudeDegrees>
              <LongitudeDegrees>20.2738826908171176910400390625</LongitudeDegrees>
            </Position>
            <AltitudeMeters>591.79998779296875</AltitudeMeters>
            <DistanceMeters>NAN</DistanceMeters>
          </Trackpoint>
          <Trackpoint>
            <Time>2022-09-20T11:46:10.000Z</Time>
            <Position>
              <LatitudeDegrees>49.43228560499846935272216796875</LatitudeDegrees>
              <LongitudeDegrees>20.273914039134979248046875</LongitudeDegrees>
            </Position>
            <AltitudeMeters>592.20001220703125</AltitudeMeters>
            <DistanceMeters>NAN</DistanceMeters>
          </Trackpoint>
          <Trackpoint>
            <Time>2022-09-20T11:46:12.000Z</Time>
            <Position>
              <LatitudeDegrees>49.432268925011157989501953125</LatitudeDegrees>
              <LongitudeDegrees>20.27394295670092105865478515625</LongitudeDegrees>
            </Position>
            <AltitudeMeters>592.4000244140625</AltitudeMeters>
            <DistanceMeters>NAN</DistanceMeters>
          </Trackpoint>
          <Trackpoint>
            <Time>2022-09-20T11:46:14.000Z</Time>
            <Position>
              <LatitudeDegrees>49.432260878384113311767578125</LatitudeDegrees>
              <LongitudeDegrees>20.27398704551160335540771484375</LongitudeDegrees>
            </Position>
            <AltitudeMeters>592.4000244140625</AltitudeMeters>
            <DistanceMeters>NAN</DistanceMeters>
          </Trackpoint>
          <Trackpoint>
            <Time>2022-09-20T11:46:21.000Z</Time>
            <Position>
              <LatitudeDegrees>49.4322578608989715576171875</LatitudeDegrees>
              <LongitudeDegrees>20.27399358339607715606689453125</LongitudeDegrees>
            </Position>
            <AltitudeMeters>592.79998779296875</AltitudeMeters>
            <DistanceMeters>NAN</DistanceMeters>
          </Trackpoint>
          <Trackpoint>
            <Time>2022-09-20T11:46:33.000Z</Time>
            <Position>
              <LatitudeDegrees>49.4322578608989715576171875</LatitudeDegrees>
              <LongitudeDegrees>20.27399358339607715606689453125</LongitudeDegrees>
            </Position>
            <AltitudeMeters>592.79998779296875</AltitudeMeters>
            <DistanceMeters>NAN</DistanceMeters>
          </Trackpoint>
          <Trackpoint>
            <Time>2022-09-20T11:46:38.000Z</Time>
            <Position>
              <LatitudeDegrees>49.43221117369830608367919921875</LatitudeDegrees>
              <LongitudeDegrees>20.27405963279306888580322265625</LongitudeDegrees>
            </Position>
            <AltitudeMeters>593</AltitudeMeters>
            <DistanceMeters>NAN</DistanceMeters>
          </Trackpoint>
          <Trackpoint>
            <Time>2022-09-20T11:46:43.000Z</Time>
            <Position>
              <LatitudeDegrees>49.43218745291233062744140625</LatitudeDegrees>
              <LongitudeDegrees>20.27410087175667285919189453125</LongitudeDegrees>
            </Position>
            <AltitudeMeters>593.4000244140625</AltitudeMeters>
            <DistanceMeters>NAN</DistanceMeters>
          </Trackpoint>
          <Trackpoint>
            <Time>2022-09-20T11:46:45.000Z</Time>
            <Position>
              <LatitudeDegrees>49.43216909654438495635986328125</LatitudeDegrees>
              <LongitudeDegrees>20.27414009906351566314697265625</LongitudeDegrees>
            </Position>
            <AltitudeMeters>593.4000244140625</AltitudeMeters>
            <DistanceMeters>NAN</DistanceMeters>
          </Trackpoint>
          <Trackpoint>
            <Time>2022-09-20T11:46:49.000Z</Time>
            <Position>
              <LatitudeDegrees>49.4321237504482269287109375</LatitudeDegrees>
              <LongitudeDegrees>20.27424252592027187347412109375</LongitudeDegrees>
            </Position>
            <AltitudeMeters>593.5999755859375</AltitudeMeters>
            <DistanceMeters>NAN</DistanceMeters>
          </Trackpoint>
          <Trackpoint>
            <Time>2022-09-20T11:46:54.000Z</Time>
            <Position>
              <LatitudeDegrees>49.43207890726625919342041015625</LatitudeDegrees>
              <LongitudeDegrees>20.27438166551291942596435546875</LongitudeDegrees>
            </Position>
            <AltitudeMeters>594</AltitudeMeters>
            <DistanceMeters>NAN</DistanceMeters>
          </Trackpoint>
          <Trackpoint>
            <Time>2022-09-20T11:46:57.000Z</Time>
            <Position>
              <LatitudeDegrees>49.4320685975253582000732421875</LatitudeDegrees>
              <LongitudeDegrees>20.2744265086948871612548828125</LongitudeDegrees>
            </Position>
            <AltitudeMeters>594</AltitudeMeters>
            <DistanceMeters>NAN</DistanceMeters>
          </Trackpoint>
          <Trackpoint>
            <Time>2022-09-20T11:47:00.000Z</Time>
            <Position>
              <LatitudeDegrees>49.4320417754352092742919921875</LatitudeDegrees>
              <LongitudeDegrees>20.2744556777179241180419921875</LongitudeDegrees>
            </Position>
            <AltitudeMeters>594</AltitudeMeters>
            <DistanceMeters>NAN</DistanceMeters>
          </Trackpoint>
          <Trackpoint>
            <Time>2022-09-20T11:47:03.000Z</Time>
            <Position>
              <LatitudeDegrees>49.43202140741050243377685546875</LatitudeDegrees>
              <LongitudeDegrees>20.2745042927563190460205078125</LongitudeDegrees>
            </Position>
            <AltitudeMeters>594.20001220703125</AltitudeMeters>
            <DistanceMeters>NAN</DistanceMeters>
          </Trackpoint>
          <Trackpoint>
            <Time>2022-09-20T11:47:05.000Z</Time>
            <Position>
              <LatitudeDegrees>49.43201201967895030975341796875</LatitudeDegrees>
              <LongitudeDegrees>20.27452952228486537933349609375</LongitudeDegrees>
            </Position>
            <AltitudeMeters>594.20001220703125</AltitudeMeters>
            <DistanceMeters>NAN</DistanceMeters>
          </Trackpoint>
          <Trackpoint>
            <Time>2022-09-20T11:47:10.000Z</Time>
            <Position>
              <LatitudeDegrees>49.43199458532035350799560546875</LatitudeDegrees>
              <LongitudeDegrees>20.274591632187366485595703125</LongitudeDegrees>
            </Position>
            <AltitudeMeters>594.4000244140625</AltitudeMeters>
            <DistanceMeters>NAN</DistanceMeters>
          </Trackpoint>
          <Trackpoint>
            <Time>2022-09-20T11:47:11.000Z</Time>
            <Position>
              <LatitudeDegrees>49.4319971837103366851806640625</LatitudeDegrees>
              <LongitudeDegrees>20.27460613287985324859619140625</LongitudeDegrees>
            </Position>
            <AltitudeMeters>594.4000244140625</AltitudeMeters>
            <DistanceMeters>NAN</DistanceMeters>
          </Trackpoint>
          <Trackpoint>
            <Time>2022-09-20T11:47:13.000Z</Time>
            <Position>
              <LatitudeDegrees>49.4319861195981502532958984375</LatitudeDegrees>
              <LongitudeDegrees>20.2746380679309368133544921875</LongitudeDegrees>
            </Position>
            <AltitudeMeters>594.5999755859375</AltitudeMeters>
            <DistanceMeters>NAN</DistanceMeters>
          </Trackpoint>
          <Trackpoint>
            <Time>2022-09-20T11:47:18.000Z</Time>
            <Position>
              <LatitudeDegrees>49.43197296001017093658447265625</LatitudeDegrees>
              <LongitudeDegrees>20.27471308596432209014892578125</LongitudeDegrees>
            </Position>
            <AltitudeMeters>594.79998779296875</AltitudeMeters>
            <DistanceMeters>NAN</DistanceMeters>
          </Trackpoint>
          <Trackpoint>
            <Time>2022-09-20T11:47:21.000Z</Time>
            <Position>
              <LatitudeDegrees>49.431962482631206512451171875</LatitudeDegrees>
              <LongitudeDegrees>20.27477729134261608123779296875</LongitudeDegrees>
            </Position>
            <AltitudeMeters>595</AltitudeMeters>
            <DistanceMeters>NAN</DistanceMeters>
          </Trackpoint>
          <Trackpoint>
            <Time>2022-09-20T11:47:32.000Z</Time>
            <Position>
              <LatitudeDegrees>49.43193624727427959442138671875</LatitudeDegrees>
              <LongitudeDegrees>20.27497493661940097808837890625</LongitudeDegrees>
            </Position>
            <AltitudeMeters>595.5999755859375</AltitudeMeters>
            <DistanceMeters>NAN</DistanceMeters>
          </Trackpoint>
          <Trackpoint>
            <Time>2022-09-20T11:47:41.000Z</Time>
            <Position>
              <LatitudeDegrees>49.43188712932169437408447265625</LatitudeDegrees>
              <LongitudeDegrees>20.27508256025612354278564453125</LongitudeDegrees>
            </Position>
            <AltitudeMeters>596.4000244140625</AltitudeMeters>
            <DistanceMeters>NAN</DistanceMeters>
          </Trackpoint>
          <Trackpoint>
            <Time>2022-09-20T11:47:43.000Z</Time>
            <Position>
              <LatitudeDegrees>49.43188712932169437408447265625</LatitudeDegrees>
              <LongitudeDegrees>20.27508256025612354278564453125</LongitudeDegrees>
            </Position>
            <AltitudeMeters>596.5999755859375</AltitudeMeters>
            <DistanceMeters>NAN</DistanceMeters>
          </Trackpoint>
          <Trackpoint>
            <Time>2022-09-20T11:47:54.000Z</Time>
            <Position>
              <LatitudeDegrees>49.43186852149665355682373046875</LatitudeDegrees>
              <LongitudeDegrees>20.2751305885612964630126953125</LongitudeDegrees>
            </Position>
            <AltitudeMeters>597</AltitudeMeters>
            <DistanceMeters>NAN</DistanceMeters>
          </Trackpoint>
          <Trackpoint>
            <Time>2022-09-20T11:48:00.000Z</Time>
            <Position>
              <LatitudeDegrees>49.4318412803113460540771484375</LatitudeDegrees>
              <LongitudeDegrees>20.27519118972122669219970703125</LongitudeDegrees>
            </Position>
            <AltitudeMeters>597.20001220703125</AltitudeMeters>
            <DistanceMeters>NAN</DistanceMeters>
          </Trackpoint>
          <Trackpoint>
            <Time>2022-09-20T11:48:04.000Z</Time>
            <Position>
              <LatitudeDegrees>49.431815631687641143798828125</LatitudeDegrees>
              <LongitudeDegrees>20.27524634264409542083740234375</LongitudeDegrees>
            </Position>
            <AltitudeMeters>597.5999755859375</AltitudeMeters>
            <DistanceMeters>NAN</DistanceMeters>
          </Trackpoint>
          <Trackpoint>
            <Time>2022-09-20T11:48:06.000Z</Time>
            <Position>
              <LatitudeDegrees>49.43180146627128124237060546875</LatitudeDegrees>
              <LongitudeDegrees>20.2752698957920074462890625</LongitudeDegrees>
            </Position>
            <AltitudeMeters>597.79998779296875</AltitudeMeters>
            <DistanceMeters>NAN</DistanceMeters>
          </Trackpoint>
          <Trackpoint>
            <Time>2022-09-20T11:48:15.000Z</Time>
            <Position>
              <LatitudeDegrees>49.43175553344190120697021484375</LatitudeDegrees>
              <LongitudeDegrees>20.27536980807781219482421875</LongitudeDegrees>
            </Position>
            <AltitudeMeters>598.4000244140625</AltitudeMeters>
            <DistanceMeters>NAN</DistanceMeters>
          </Trackpoint>
          <Trackpoint>
            <Time>2022-09-20T11:48:16.000Z</Time>
            <Position>
              <LatitudeDegrees>49.43174966610968112945556640625</LatitudeDegrees>
              <LongitudeDegrees>20.27538229711353778839111328125</LongitudeDegrees>
            </Position>
            <AltitudeMeters>598.5999755859375</AltitudeMeters>
            <DistanceMeters>NAN</DistanceMeters>
          </Trackpoint>
          <Trackpoint>
            <Time>2022-09-20T11:48:18.000Z</Time>
            <Position>
              <LatitudeDegrees>49.43174757063388824462890625</LatitudeDegrees>
              <LongitudeDegrees>20.2753847278654575347900390625</LongitudeDegrees>
            </Position>
            <AltitudeMeters>598.5999755859375</AltitudeMeters>
            <DistanceMeters>NAN</DistanceMeters>
          </Trackpoint>
          <Trackpoint>
            <Time>2022-09-20T11:48:23.000Z</Time>
            <Position>
              <LatitudeDegrees>49.4317111931741237640380859375</LatitudeDegrees>
              <LongitudeDegrees>20.27545119635760784149169921875</LongitudeDegrees>
            </Position>
            <AltitudeMeters>599</AltitudeMeters>
            <DistanceMeters>NAN</DistanceMeters>
          </Trackpoint>
          <Trackpoint>
            <Time>2022-09-20T11:48:26.000Z</Time>
            <Position>
              <LatitudeDegrees>49.4316830299794673919677734375</LatitudeDegrees>
              <LongitudeDegrees>20.27548405341804027557373046875</LongitudeDegrees>
            </Position>
            <AltitudeMeters>599</AltitudeMeters>
            <DistanceMeters>NAN</DistanceMeters>
          </Trackpoint>
          <Trackpoint>
            <Time>2022-09-20T11:48:30.000Z</Time>
            <Position>
              <LatitudeDegrees>49.4316384382545948028564453125</LatitudeDegrees>
              <LongitudeDegrees>20.2755262143909931182861328125</LongitudeDegrees>
            </Position>
            <AltitudeMeters>599.20001220703125</AltitudeMeters>
            <DistanceMeters>NAN</DistanceMeters>
          </Trackpoint>
          <Trackpoint>
            <Time>2022-09-20T11:48:34.000Z</Time>
            <Position>
              <LatitudeDegrees>49.4316146336495876312255859375</LatitudeDegrees>
              <LongitudeDegrees>20.27552596293389797210693359375</LongitudeDegrees>
            </Position>
            <AltitudeMeters>599.5999755859375</AltitudeMeters>
            <DistanceMeters>NAN</DistanceMeters>
          </Trackpoint>
          <Trackpoint>
            <Time>2022-09-20T11:48:35.000Z</Time>
            <Position>
              <LatitudeDegrees>49.4316122867166996002197265625</LatitudeDegrees>
              <LongitudeDegrees>20.2755282260477542877197265625</LongitudeDegrees>
            </Position>
            <AltitudeMeters>599.5999755859375</AltitudeMeters>
            <DistanceMeters>NAN</DistanceMeters>
          </Trackpoint>
          <Trackpoint>
            <Time>2022-09-20T11:48:46.000Z</Time>
            <Position>
              <LatitudeDegrees>49.43149267695844173431396484375</LatitudeDegrees>
              <LongitudeDegrees>20.275654457509517669677734375</LongitudeDegrees>
            </Position>
            <AltitudeMeters>600.5999755859375</AltitudeMeters>
            <DistanceMeters>NAN</DistanceMeters>
          </Trackpoint>
          <Trackpoint>
            <Time>2022-09-20T11:48:47.000Z</Time>
            <Position>
              <LatitudeDegrees>49.431481696665287017822265625</LatitudeDegrees>
              <LongitudeDegrees>20.27568639256060123443603515625</LongitudeDegrees>
            </Position>
            <AltitudeMeters>600.79998779296875</AltitudeMeters>
            <DistanceMeters>NAN</DistanceMeters>
          </Trackpoint>
          <Trackpoint>
            <Time>2022-09-20T11:48:51.000Z</Time>
            <Position>
              <LatitudeDegrees>49.43145713768899440765380859375</LatitudeDegrees>
              <LongitudeDegrees>20.27574204839766025543212890625</LongitudeDegrees>
            </Position>
            <AltitudeMeters>601.20001220703125</AltitudeMeters>
            <DistanceMeters>NAN</DistanceMeters>
          </Trackpoint>
          <Trackpoint>
            <Time>2022-09-20T11:48:52.000Z</Time>
            <Position>
              <LatitudeDegrees>49.4314483366906642913818359375</LatitudeDegrees>
              <LongitudeDegrees>20.275742970407009124755859375</LongitudeDegrees>
            </Position>
            <AltitudeMeters>601.20001220703125</AltitudeMeters>
            <DistanceMeters>NAN</DistanceMeters>
          </Trackpoint>
          <Trackpoint>
            <Time>2022-09-20T11:48:53.000Z</Time>
            <Position>
              <LatitudeDegrees>49.431446492671966552734375</LatitudeDegrees>
              <LongitudeDegrees>20.27574573643505573272705078125</LongitudeDegrees>
            </Position>
            <AltitudeMeters>601.4000244140625</AltitudeMeters>
            <DistanceMeters>NAN</DistanceMeters>
          </Trackpoint>
          <Trackpoint>
            <Time>2022-09-20T11:48:56.000Z</Time>
            <Position>
              <LatitudeDegrees>49.43144238553941249847412109375</LatitudeDegrees>
              <LongitudeDegrees>20.27574640698730945587158203125</LongitudeDegrees>
            </Position>
            <AltitudeMeters>601.79998779296875</AltitudeMeters>
            <DistanceMeters>NAN</DistanceMeters>
          </Trackpoint>
          <Trackpoint>
            <Time>2022-09-20T11:49:02.000Z</Time>
            <Position>
              <LatitudeDegrees>49.4314392842352390289306640625</LatitudeDegrees>
              <LongitudeDegrees>20.275747664272785186767578125</LongitudeDegrees>
            </Position>
            <AltitudeMeters>602.4000244140625</AltitudeMeters>
            <DistanceMeters>NAN</DistanceMeters>
          </Trackpoint>
          <Trackpoint>
            <Time>2022-09-20T11:49:11.000Z</Time>
            <Position>
              <LatitudeDegrees>49.4314392842352390289306640625</LatitudeDegrees>
              <LongitudeDegrees>20.275747664272785186767578125</LongitudeDegrees>
            </Position>
            <AltitudeMeters>602.5999755859375</AltitudeMeters>
            <DistanceMeters>NAN</DistanceMeters>
          </Trackpoint>
          <Trackpoint>
            <Time>2022-09-20T11:49:20.000Z</Time>
            <Position>
              <LatitudeDegrees>49.43143836222589015960693359375</LatitudeDegrees>
              <LongitudeDegrees>20.27574799954891204833984375</LongitudeDegrees>
            </Position>
            <AltitudeMeters>602.79998779296875</AltitudeMeters>
            <DistanceMeters>NAN</DistanceMeters>
          </Trackpoint>
          <Trackpoint>
            <Time>2022-09-20T11:49:21.000Z</Time>
            <Position>
              <LatitudeDegrees>49.4314345903694629669189453125</LatitudeDegrees>
              <LongitudeDegrees>20.27574992738664150238037109375</LongitudeDegrees>
            </Position>
            <AltitudeMeters>603</AltitudeMeters>
            <DistanceMeters>NAN</DistanceMeters>
          </Trackpoint>
          <Trackpoint>
            <Time>2022-09-20T11:49:29.000Z</Time>
            <Position>
              <LatitudeDegrees>49.43139846436679363250732421875</LatitudeDegrees>
              <LongitudeDegrees>20.2757682837545871734619140625</LongitudeDegrees>
            </Position>
            <AltitudeMeters>603.79998779296875</AltitudeMeters>
            <DistanceMeters>NAN</DistanceMeters>
          </Trackpoint>
          <Trackpoint>
            <Time>2022-09-20T11:49:31.000Z</Time>
            <Position>
              <LatitudeDegrees>49.43139846436679363250732421875</LatitudeDegrees>
              <LongitudeDegrees>20.2757682837545871734619140625</LongitudeDegrees>
            </Position>
            <AltitudeMeters>604</AltitudeMeters>
            <DistanceMeters>NAN</DistanceMeters>
          </Trackpoint>
          <Trackpoint>
            <Time>2022-09-20T11:49:36.000Z</Time>
            <Position>
              <LatitudeDegrees>49.431370384991168975830078125</LatitudeDegrees>
              <LongitudeDegrees>20.27577641420066356658935546875</LongitudeDegrees>
            </Position>
            <AltitudeMeters>604.5999755859375</AltitudeMeters>
            <DistanceMeters>NAN</DistanceMeters>
          </Trackpoint>
          <Trackpoint>
            <Time>2022-09-20T11:49:40.000Z</Time>
            <Position>
              <LatitudeDegrees>49.43134347908198833465576171875</LatitudeDegrees>
              <LongitudeDegrees>20.27578580193221569061279296875</LongitudeDegrees>
            </Position>
            <AltitudeMeters>604.79998779296875</AltitudeMeters>
            <DistanceMeters>NAN</DistanceMeters>
          </Trackpoint>
          <Trackpoint>
            <Time>2022-09-20T11:49:49.000Z</Time>
            <Position>
              <LatitudeDegrees>49.431333839893341064453125</LatitudeDegrees>
              <LongitudeDegrees>20.27578932233154773712158203125</LongitudeDegrees>
            </Position>
            <AltitudeMeters>605</AltitudeMeters>
            <DistanceMeters>NAN</DistanceMeters>
          </Trackpoint>
          <Trackpoint>
            <Time>2022-09-20T11:49:57.000Z</Time>
            <Position>
              <LatitudeDegrees>49.4312086142599582672119140625</LatitudeDegrees>
              <LongitudeDegrees>20.27581111527979373931884765625</LongitudeDegrees>
            </Position>
            <AltitudeMeters>605.79998779296875</AltitudeMeters>
            <DistanceMeters>NAN</DistanceMeters>
          </Trackpoint>
          <Trackpoint>
            <Time>2022-09-20T11:49:59.000Z</Time>
            <Position>
              <LatitudeDegrees>49.4311581552028656005859375</LatitudeDegrees>
              <LongitudeDegrees>20.2758199162781238555908203125</LongitudeDegrees>
            </Position>
            <AltitudeMeters>606</AltitudeMeters>
            <DistanceMeters>NAN</DistanceMeters>
          </Trackpoint>
          <Trackpoint>
            <Time>2022-09-20T11:50:04.000Z</Time>
            <Position>
              <LatitudeDegrees>49.43113627843558788299560546875</LatitudeDegrees>
              <LongitudeDegrees>20.2758209221065044403076171875</LongitudeDegrees>
            </Position>
            <AltitudeMeters>606.20001220703125</AltitudeMeters>
            <DistanceMeters>NAN</DistanceMeters>
          </Trackpoint>
          <Trackpoint>
            <Time>2022-09-20T11:50:12.000Z</Time>
            <Position>
              <LatitudeDegrees>49.43108431063592433929443359375</LatitudeDegrees>
              <LongitudeDegrees>20.275812707841396331787109375</LongitudeDegrees>
            </Position>
            <AltitudeMeters>606.20001220703125</AltitudeMeters>
            <DistanceMeters>NAN</DistanceMeters>
          </Trackpoint>
          <Trackpoint>
            <Time>2022-09-20T11:50:14.000Z</Time>
            <Position>
              <LatitudeDegrees>49.43107970058917999267578125</LatitudeDegrees>
              <LongitudeDegrees>20.27581262402236461639404296875</LongitudeDegrees>
            </Position>
            <AltitudeMeters>606.4000244140625</AltitudeMeters>
            <DistanceMeters>NAN</DistanceMeters>
          </Trackpoint>
          <Trackpoint>
            <Time>2022-09-20T11:50:21.000Z</Time>
            <Position>
              <LatitudeDegrees>49.43107970058917999267578125</LatitudeDegrees>
              <LongitudeDegrees>20.27581262402236461639404296875</LongitudeDegrees>
            </Position>
            <AltitudeMeters>607.20001220703125</AltitudeMeters>
            <DistanceMeters>NAN</DistanceMeters>
          </Trackpoint>
          <Trackpoint>
            <Time>2022-09-20T11:50:31.000Z</Time>
            <Position>
              <LatitudeDegrees>49.43103435449302196502685546875</LatitudeDegrees>
              <LongitudeDegrees>20.2758205868303775787353515625</LongitudeDegrees>
            </Position>
            <AltitudeMeters>608.4000244140625</AltitudeMeters>
            <DistanceMeters>NAN</DistanceMeters>
          </Trackpoint>
          <Trackpoint>
            <Time>2022-09-20T11:50:34.000Z</Time>
            <Position>
              <LatitudeDegrees>49.43097383715212345123291015625</LatitudeDegrees>
              <LongitudeDegrees>20.275813043117523193359375</LongitudeDegrees>
            </Position>
            <AltitudeMeters>608.79998779296875</AltitudeMeters>
            <DistanceMeters>NAN</DistanceMeters>
          </Trackpoint>
          <Trackpoint>
            <Time>2022-09-20T11:50:39.000Z</Time>
            <Position>
              <LatitudeDegrees>49.430886246263980865478515625</LatitudeDegrees>
              <LongitudeDegrees>20.27580155991017818450927734375</LongitudeDegrees>
            </Position>
            <AltitudeMeters>609.4000244140625</AltitudeMeters>
            <DistanceMeters>NAN</DistanceMeters>
          </Trackpoint>
          <Trackpoint>
            <Time>2022-09-20T11:50:42.000Z</Time>
            <Position>
              <LatitudeDegrees>49.430886246263980865478515625</LatitudeDegrees>
              <LongitudeDegrees>20.27580155991017818450927734375</LongitudeDegrees>
            </Position>
            <AltitudeMeters>609.5999755859375</AltitudeMeters>
            <DistanceMeters>NAN</DistanceMeters>
          </Trackpoint>
          <Trackpoint>
            <Time>2022-09-20T11:50:49.000Z</Time>
            <Position>
              <LatitudeDegrees>49.430856071412563323974609375</LatitudeDegrees>
              <LongitudeDegrees>20.27578781358897686004638671875</LongitudeDegrees>
            </Position>
            <AltitudeMeters>610</AltitudeMeters>
            <DistanceMeters>NAN</DistanceMeters>
          </Trackpoint>
          <Trackpoint>
            <Time>2022-09-20T11:50:55.000Z</Time>
            <Position>
              <LatitudeDegrees>49.43081961013376712799072265625</LatitudeDegrees>
              <LongitudeDegrees>20.27577188797295093536376953125</LongitudeDegrees>
            </Position>
            <AltitudeMeters>610.5999755859375</AltitudeMeters>
            <DistanceMeters>NAN</DistanceMeters>
          </Trackpoint>
          <Trackpoint>
            <Time>2022-09-20T11:50:57.000Z</Time>
            <Position>
              <LatitudeDegrees>49.43080267868936061859130859375</LatitudeDegrees>
              <LongitudeDegrees>20.27576082386076450347900390625</LongitudeDegrees>
            </Position>
            <AltitudeMeters>610.79998779296875</AltitudeMeters>
            <DistanceMeters>NAN</DistanceMeters>
          </Trackpoint>
          <Trackpoint>
            <Time>2022-09-20T11:51:05.000Z</Time>
            <Position>
              <LatitudeDegrees>49.43076294846832752227783203125</LatitudeDegrees>
              <LongitudeDegrees>20.27570416219532489776611328125</LongitudeDegrees>
            </Position>
            <AltitudeMeters>611.79998779296875</AltitudeMeters>
            <DistanceMeters>NAN</DistanceMeters>
          </Trackpoint>
          <Trackpoint>
            <Time>2022-09-20T11:51:09.000Z</Time>
            <Position>
              <LatitudeDegrees>49.4307341985404491424560546875</LatitudeDegrees>
              <LongitudeDegrees>20.27567968703806400299072265625</LongitudeDegrees>
            </Position>
            <AltitudeMeters>612.4000244140625</AltitudeMeters>
            <DistanceMeters>NAN</DistanceMeters>
          </Trackpoint>
          <Trackpoint>
            <Time>2022-09-20T11:51:13.000Z</Time>
            <Position>
              <LatitudeDegrees>49.43073160015046596527099609375</LatitudeDegrees>
              <LongitudeDegrees>20.27567692101001739501953125</LongitudeDegrees>
            </Position>
            <AltitudeMeters>612.79998779296875</AltitudeMeters>
            <DistanceMeters>NAN</DistanceMeters>
          </Trackpoint>
          <Trackpoint>
            <Time>2022-09-20T11:51:16.000Z</Time>
            <Position>
              <LatitudeDegrees>49.43072522990405559539794921875</LatitudeDegrees>
              <LongitudeDegrees>20.2756596542894840240478515625</LongitudeDegrees>
            </Position>
            <AltitudeMeters>613</AltitudeMeters>
            <DistanceMeters>NAN</DistanceMeters>
          </Trackpoint>
          <Trackpoint>
            <Time>2022-09-20T11:51:24.000Z</Time>
            <Position>
              <LatitudeDegrees>49.4306860864162445068359375</LatitudeDegrees>
              <LongitudeDegrees>20.27559117414057254791259765625</LongitudeDegrees>
            </Position>
            <AltitudeMeters>613.79998779296875</AltitudeMeters>
            <DistanceMeters>NAN</DistanceMeters>
          </Trackpoint>
          <Trackpoint>
            <Time>2022-09-20T11:51:32.000Z</Time>
            <Position>
              <LatitudeDegrees>49.43067066371440887451171875</LatitudeDegrees>
              <LongitudeDegrees>20.27556736953556537628173828125</LongitudeDegrees>
            </Position>
            <AltitudeMeters>614.4000244140625</AltitudeMeters>
            <DistanceMeters>NAN</DistanceMeters>
          </Trackpoint>
          <Trackpoint>
            <Time>2022-09-20T11:51:38.000Z</Time>
            <Position>
              <LatitudeDegrees>49.430633448064327239990234375</LatitudeDegrees>
              <LongitudeDegrees>20.27549729682505130767822265625</LongitudeDegrees>
            </Position>
            <AltitudeMeters>614.5999755859375</AltitudeMeters>
            <DistanceMeters>NAN</DistanceMeters>
          </Trackpoint>
          <Trackpoint>
            <Time>2022-09-20T11:51:39.000Z</Time>
            <Position>
              <LatitudeDegrees>49.4306242279708385467529296875</LatitudeDegrees>
              <LongitudeDegrees>20.27547667734324932098388671875</LongitudeDegrees>
            </Position>
            <AltitudeMeters>614.79998779296875</AltitudeMeters>
            <DistanceMeters>NAN</DistanceMeters>
          </Trackpoint>
          <Trackpoint>
            <Time>2022-09-20T11:51:41.000Z</Time>
            <Position>
              <LatitudeDegrees>49.4306061230599880218505859375</LatitudeDegrees>
              <LongitudeDegrees>20.2754474245011806488037109375</LongitudeDegrees>
            </Position>
            <AltitudeMeters>614.79998779296875</AltitudeMeters>
            <DistanceMeters>NAN</DistanceMeters>
          </Trackpoint>
          <Trackpoint>
            <Time>2022-09-20T11:51:47.000Z</Time>
            <Position>
              <LatitudeDegrees>49.4305608607828617095947265625</LatitudeDegrees>
              <LongitudeDegrees>20.2754081971943378448486328125</LongitudeDegrees>
            </Position>
            <AltitudeMeters>615.4000244140625</AltitudeMeters>
            <DistanceMeters>NAN</DistanceMeters>
          </Trackpoint>
          <Trackpoint>
            <Time>2022-09-20T11:51:51.000Z</Time>
            <Position>
              <LatitudeDegrees>49.43052716553211212158203125</LatitudeDegrees>
              <LongitudeDegrees>20.2753870747983455657958984375</LongitudeDegrees>
            </Position>
            <AltitudeMeters>616</AltitudeMeters>
            <DistanceMeters>NAN</DistanceMeters>
          </Trackpoint>
          <Trackpoint>
            <Time>2022-09-20T11:51:56.000Z</Time>
            <Position>
              <LatitudeDegrees>49.4305005110800266265869140625</LatitudeDegrees>
              <LongitudeDegrees>20.27534960769116878509521484375</LongitudeDegrees>
            </Position>
            <AltitudeMeters>616.5999755859375</AltitudeMeters>
            <DistanceMeters>NAN</DistanceMeters>
          </Trackpoint>
          <Trackpoint>
            <Time>2022-09-20T11:52:01.000Z</Time>
            <Position>
              <LatitudeDegrees>49.43046656437218189239501953125</LatitudeDegrees>
              <LongitudeDegrees>20.275301747024059295654296875</LongitudeDegrees>
            </Position>
            <AltitudeMeters>617</AltitudeMeters>
            <DistanceMeters>NAN</DistanceMeters>
          </Trackpoint>
          <Trackpoint>
            <Time>2022-09-20T11:52:05.000Z</Time>
            <Position>
              <LatitudeDegrees>49.43043605424463748931884765625</LatitudeDegrees>
              <LongitudeDegrees>20.27527366764843463897705078125</LongitudeDegrees>
            </Position>
            <AltitudeMeters>617.20001220703125</AltitudeMeters>
            <DistanceMeters>NAN</DistanceMeters>
          </Trackpoint>
          <Trackpoint>
            <Time>2022-09-20T11:52:06.000Z</Time>
            <Position>
              <LatitudeDegrees>49.43042264319956302642822265625</LatitudeDegrees>
              <LongitudeDegrees>20.2752687223255634307861328125</LongitudeDegrees>
            </Position>
            <AltitudeMeters>617.20001220703125</AltitudeMeters>
            <DistanceMeters>NAN</DistanceMeters>
          </Trackpoint>
          <Trackpoint>
            <Time>2022-09-20T11:52:11.000Z</Time>
            <Position>
              <LatitudeDegrees>49.43037754856050014495849609375</LatitudeDegrees>
              <LongitudeDegrees>20.27524617500603199005126953125</LongitudeDegrees>
            </Position>
            <AltitudeMeters>618</AltitudeMeters>
            <DistanceMeters>NAN</DistanceMeters>
          </Trackpoint>
          <Trackpoint>
            <Time>2022-09-20T11:52:19.000Z</Time>
            <Position>
              <LatitudeDegrees>49.43031082861125469207763671875</LatitudeDegrees>
              <LongitudeDegrees>20.27516772039234638214111328125</LongitudeDegrees>
            </Position>
            <AltitudeMeters>618.4000244140625</AltitudeMeters>
            <DistanceMeters>NAN</DistanceMeters>
          </Trackpoint>
          <Trackpoint>
            <Time>2022-09-20T11:52:27.000Z</Time>
            <Position>
              <LatitudeDegrees>49.4302654825150966644287109375</LatitudeDegrees>
              <LongitudeDegrees>20.2751238830387592315673828125</LongitudeDegrees>
            </Position>
            <AltitudeMeters>618.79998779296875</AltitudeMeters>
            <DistanceMeters>NAN</DistanceMeters>
          </Trackpoint>
          <Trackpoint>
            <Time>2022-09-20T11:52:31.000Z</Time>
            <Position>
              <LatitudeDegrees>49.43022818304598331451416015625</LatitudeDegrees>
              <LongitudeDegrees>20.27509429492056369781494140625</LongitudeDegrees>
            </Position>
            <AltitudeMeters>619</AltitudeMeters>
            <DistanceMeters>NAN</DistanceMeters>
          </Trackpoint>
          <Trackpoint>
            <Time>2022-09-20T11:52:35.000Z</Time>
            <Position>
              <LatitudeDegrees>49.43020069040358066558837890625</LatitudeDegrees>
              <LongitudeDegrees>20.275070406496524810791015625</LongitudeDegrees>
            </Position>
            <AltitudeMeters>619.20001220703125</AltitudeMeters>
            <DistanceMeters>NAN</DistanceMeters>
          </Trackpoint>
          <Trackpoint>
            <Time>2022-09-20T11:52:36.000Z</Time>
            <Position>
              <LatitudeDegrees>49.43019063211977481842041015625</LatitudeDegrees>
              <LongitudeDegrees>20.27506160549819469451904296875</LongitudeDegrees>
            </Position>
            <AltitudeMeters>619.20001220703125</AltitudeMeters>
            <DistanceMeters>NAN</DistanceMeters>
          </Trackpoint>
          <Trackpoint>
            <Time>2022-09-20T11:52:44.000Z</Time>
            <Position>
              <LatitudeDegrees>49.430137239396572113037109375</LatitudeDegrees>
              <LongitudeDegrees>20.27501500211656093597412109375</LongitudeDegrees>
            </Position>
            <AltitudeMeters>619.79998779296875</AltitudeMeters>
            <DistanceMeters>NAN</DistanceMeters>
          </Trackpoint>
          <Trackpoint>
            <Time>2022-09-20T11:52:49.000Z</Time>
            <Position>
              <LatitudeDegrees>49.43010295741260051727294921875</LatitudeDegrees>
              <LongitudeDegrees>20.27497963048517704010009765625</LongitudeDegrees>
            </Position>
            <AltitudeMeters>619.79998779296875</AltitudeMeters>
            <DistanceMeters>NAN</DistanceMeters>
          </Trackpoint>
          <Trackpoint>
            <Time>2022-09-20T11:52:52.000Z</Time>
            <Position>
              <LatitudeDegrees>49.43007546477019786834716796875</LatitudeDegrees>
              <LongitudeDegrees>20.27495540678501129150390625</LongitudeDegrees>
            </Position>
            <AltitudeMeters>620</AltitudeMeters>
            <DistanceMeters>NAN</DistanceMeters>
          </Trackpoint>
          <Trackpoint>
            <Time>2022-09-20T11:52:58.000Z</Time>
            <Position>
              <LatitudeDegrees>49.4300200603902339935302734375</LatitudeDegrees>
              <LongitudeDegrees>20.2748943865299224853515625</LongitudeDegrees>
            </Position>
            <AltitudeMeters>620.20001220703125</AltitudeMeters>
            <DistanceMeters>NAN</DistanceMeters>
          </Trackpoint>
          <Trackpoint>
            <Time>2022-09-20T11:53:04.000Z</Time>
            <Position>
              <LatitudeDegrees>49.42996867932379245758056640625</LatitudeDegrees>
              <LongitudeDegrees>20.2748211286962032318115234375</LongitudeDegrees>
            </Position>
            <AltitudeMeters>620.5999755859375</AltitudeMeters>
            <DistanceMeters>NAN</DistanceMeters>
          </Trackpoint>
          <Trackpoint>
            <Time>2022-09-20T11:53:06.000Z</Time>
            <Position>
              <LatitudeDegrees>49.42994604818522930145263671875</LatitudeDegrees>
              <LongitudeDegrees>20.27480545453727245330810546875</LongitudeDegrees>
            </Position>
            <AltitudeMeters>620.5999755859375</AltitudeMeters>
            <DistanceMeters>NAN</DistanceMeters>
          </Trackpoint>
          <Trackpoint>
            <Time>2022-09-20T11:53:13.000Z</Time>
            <Position>
              <LatitudeDegrees>49.42991017363965511322021484375</LatitudeDegrees>
              <LongitudeDegrees>20.27472347952425479888916015625</LongitudeDegrees>
            </Position>
            <AltitudeMeters>621</AltitudeMeters>
            <DistanceMeters>NAN</DistanceMeters>
          </Trackpoint>
          <Trackpoint>
            <Time>2022-09-20T11:53:14.000Z</Time>
            <Position>
              <LatitudeDegrees>49.42990623414516448974609375</LatitudeDegrees>
              <LongitudeDegrees>20.274715684354305267333984375</LongitudeDegrees>
            </Position>
            <AltitudeMeters>621.20001220703125</AltitudeMeters>
            <DistanceMeters>NAN</DistanceMeters>
          </Trackpoint>
          <Trackpoint>
            <Time>2022-09-20T11:53:22.000Z</Time>
            <Position>
              <LatitudeDegrees>49.4298631511628627777099609375</LatitudeDegrees>
              <LongitudeDegrees>20.27469095773994922637939453125</LongitudeDegrees>
            </Position>
            <AltitudeMeters>621.4000244140625</AltitudeMeters>
            <DistanceMeters>NAN</DistanceMeters>
          </Trackpoint>
          <Trackpoint>
            <Time>2022-09-20T11:53:27.000Z</Time>
            <Position>
              <LatitudeDegrees>49.42986038513481616973876953125</LatitudeDegrees>
              <LongitudeDegrees>20.274702273309230804443359375</LongitudeDegrees>
            </Position>
            <AltitudeMeters>621.5999755859375</AltitudeMeters>
            <DistanceMeters>NAN</DistanceMeters>
          </Trackpoint>
          <Trackpoint>
            <Time>2022-09-20T11:53:34.000Z</Time>
            <Position>
              <LatitudeDegrees>49.42986038513481616973876953125</LatitudeDegrees>
              <LongitudeDegrees>20.274702273309230804443359375</LongitudeDegrees>
            </Position>
            <AltitudeMeters>621.4000244140625</AltitudeMeters>
            <DistanceMeters>NAN</DistanceMeters>
          </Trackpoint>
          <Trackpoint>
            <Time>2022-09-20T11:53:44.000Z</Time>
            <Position>
              <LatitudeDegrees>49.429872035980224609375</LatitudeDegrees>
              <LongitudeDegrees>20.2748241461813449859619140625</LongitudeDegrees>
            </Position>
            <AltitudeMeters>620.5999755859375</AltitudeMeters>
            <DistanceMeters>NAN</DistanceMeters>
          </Trackpoint>
          <Trackpoint>
            <Time>2022-09-20T11:53:51.000Z</Time>
            <Position>
              <LatitudeDegrees>49.42988938651978969573974609375</LatitudeDegrees>
              <LongitudeDegrees>20.274965465068817138671875</LongitudeDegrees>
            </Position>
            <AltitudeMeters>620.20001220703125</AltitudeMeters>
            <DistanceMeters>NAN</DistanceMeters>
          </Trackpoint>
          <Trackpoint>
            <Time>2022-09-20T11:53:53.000Z</Time>
            <Position>
              <LatitudeDegrees>49.42988938651978969573974609375</LatitudeDegrees>
              <LongitudeDegrees>20.274965465068817138671875</LongitudeDegrees>
            </Position>
            <AltitudeMeters>620</AltitudeMeters>
            <DistanceMeters>NAN</DistanceMeters>
          </Trackpoint>
          <Trackpoint>
            <Time>2022-09-20T11:54:01.000Z</Time>
            <Position>
              <LatitudeDegrees>49.42989072762429714202880859375</LatitudeDegrees>
              <LongitudeDegrees>20.27496990747749805450439453125</LongitudeDegrees>
            </Position>
            <AltitudeMeters>619.79998779296875</AltitudeMeters>
            <DistanceMeters>NAN</DistanceMeters>
          </Trackpoint>
          <Trackpoint>
            <Time>2022-09-20T11:54:03.000Z</Time>
            <Position>
              <LatitudeDegrees>49.42988754250109195709228515625</LatitudeDegrees>
              <LongitudeDegrees>20.27501483447849750518798828125</LongitudeDegrees>
            </Position>
            <AltitudeMeters>619.79998779296875</AltitudeMeters>
            <DistanceMeters>NAN</DistanceMeters>
          </Trackpoint>
          <Trackpoint>
            <Time>2022-09-20T11:54:06.000Z</Time>
            <Position>
              <LatitudeDegrees>49.42989877425134181976318359375</LatitudeDegrees>
              <LongitudeDegrees>20.2751295827329158782958984375</LongitudeDegrees>
            </Position>
            <AltitudeMeters>619.4000244140625</AltitudeMeters>
            <DistanceMeters>NAN</DistanceMeters>
          </Trackpoint>
          <Trackpoint>
            <Time>2022-09-20T11:54:09.000Z</Time>
            <Position>
              <LatitudeDegrees>49.429916627705097198486328125</LatitudeDegrees>
              <LongitudeDegrees>20.27530518360435962677001953125</LongitudeDegrees>
            </Position>
            <AltitudeMeters>619.20001220703125</AltitudeMeters>
            <DistanceMeters>NAN</DistanceMeters>
          </Trackpoint>
          <Trackpoint>
            <Time>2022-09-20T11:54:10.000Z</Time>
            <Position>
              <LatitudeDegrees>49.42992039956152439117431640625</LatitudeDegrees>
              <LongitudeDegrees>20.27538045309484004974365234375</LongitudeDegrees>
            </Position>
            <AltitudeMeters>618.79998779296875</AltitudeMeters>
            <DistanceMeters>NAN</DistanceMeters>
          </Trackpoint>
          <Trackpoint>
            <Time>2022-09-20T11:54:11.000Z</Time>
            <Position>
              <LatitudeDegrees>49.4299201481044292449951171875</LatitudeDegrees>
              <LongitudeDegrees>20.27547349222004413604736328125</LongitudeDegrees>
            </Position>
            <AltitudeMeters>618.4000244140625</AltitudeMeters>
            <DistanceMeters>NAN</DistanceMeters>
          </Trackpoint>
          <Trackpoint>
            <Time>2022-09-20T11:54:13.000Z</Time>
            <Position>
              <LatitudeDegrees>49.42992794327437877655029296875</LatitudeDegrees>
              <LongitudeDegrees>20.27564481832087039947509765625</LongitudeDegrees>
            </Position>
            <AltitudeMeters>617.79998779296875</AltitudeMeters>
            <DistanceMeters>NAN</DistanceMeters>
          </Trackpoint>
          <Trackpoint>
            <Time>2022-09-20T11:54:16.000Z</Time>
            <Position>
              <LatitudeDegrees>49.4299426116049289703369140625</LatitudeDegrees>
              <LongitudeDegrees>20.27591831982135772705078125</LongitudeDegrees>
            </Position>
            <AltitudeMeters>616.5999755859375</AltitudeMeters>
            <DistanceMeters>NAN</DistanceMeters>
          </Trackpoint>
          <Trackpoint>
            <Time>2022-09-20T11:54:17.000Z</Time>
            <Position>
              <LatitudeDegrees>49.42994646728038787841796875</LatitudeDegrees>
              <LongitudeDegrees>20.27601420879364013671875</LongitudeDegrees>
            </Position>
            <AltitudeMeters>616.4000244140625</AltitudeMeters>
            <DistanceMeters>NAN</DistanceMeters>
          </Trackpoint>
          <Trackpoint>
            <Time>2022-09-20T11:54:21.000Z</Time>
            <Position>
              <LatitudeDegrees>49.42996582947671413421630859375</LatitudeDegrees>
              <LongitudeDegrees>20.2763929031789302825927734375</LongitudeDegrees>
            </Position>
            <AltitudeMeters>615.5999755859375</AltitudeMeters>
            <DistanceMeters>NAN</DistanceMeters>
          </Trackpoint>
          <Trackpoint>
            <Time>2022-09-20T11:54:24.000Z</Time>
            <Position>
              <LatitudeDegrees>49.4299685955047607421875</LatitudeDegrees>
              <LongitudeDegrees>20.27665056288242340087890625</LongitudeDegrees>
            </Position>
            <AltitudeMeters>615.4000244140625</AltitudeMeters>
            <DistanceMeters>NAN</DistanceMeters>
          </Trackpoint>
          <Trackpoint>
            <Time>2022-09-20T11:54:26.000Z</Time>
            <Position>
              <LatitudeDegrees>49.42996415309607982635498046875</LatitudeDegrees>
              <LongitudeDegrees>20.27682398445904254913330078125</LongitudeDegrees>
            </Position>
            <AltitudeMeters>614.4000244140625</AltitudeMeters>
            <DistanceMeters>NAN</DistanceMeters>
          </Trackpoint>
          <Trackpoint>
            <Time>2022-09-20T11:54:32.000Z</Time>
            <Position>
              <LatitudeDegrees>49.42997421137988567352294921875</LatitudeDegrees>
              <LongitudeDegrees>20.27738540433347225189208984375</LongitudeDegrees>
            </Position>
            <AltitudeMeters>613.4000244140625</AltitudeMeters>
            <DistanceMeters>NAN</DistanceMeters>
          </Trackpoint>
          <Trackpoint>
            <Time>2022-09-20T11:54:33.000Z</Time>
            <Position>
              <LatitudeDegrees>49.4299818389117717742919921875</LatitudeDegrees>
              <LongitudeDegrees>20.27748565189540386199951171875</LongitudeDegrees>
            </Position>
            <AltitudeMeters>613.20001220703125</AltitudeMeters>
            <DistanceMeters>NAN</DistanceMeters>
          </Trackpoint>
          <Trackpoint>
            <Time>2022-09-20T11:54:34.000Z</Time>
            <Position>
              <LatitudeDegrees>49.4299875386059284210205078125</LatitudeDegrees>
              <LongitudeDegrees>20.2775683812797069549560546875</LongitudeDegrees>
            </Position>
            <AltitudeMeters>613</AltitudeMeters>
            <DistanceMeters>NAN</DistanceMeters>
          </Trackpoint>
          <Trackpoint>
            <Time>2022-09-20T11:54:37.000Z</Time>
            <Position>
              <LatitudeDegrees>49.430024921894073486328125</LatitudeDegrees>
              <LongitudeDegrees>20.27789602987468242645263671875</LongitudeDegrees>
            </Position>
            <AltitudeMeters>611.79998779296875</AltitudeMeters>
            <DistanceMeters>NAN</DistanceMeters>
          </Trackpoint>
          <Trackpoint>
            <Time>2022-09-20T11:54:41.000Z</Time>
            <Position>
              <LatitudeDegrees>49.43006993271410465240478515625</LatitudeDegrees>
              <LongitudeDegrees>20.2782067470252513885498046875</LongitudeDegrees>
            </Position>
            <AltitudeMeters>610.5999755859375</AltitudeMeters>
            <DistanceMeters>NAN</DistanceMeters>
          </Trackpoint>
          <Trackpoint>
            <Time>2022-09-20T11:54:42.000Z</Time>
            <Position>
              <LatitudeDegrees>49.4301213137805461883544921875</LatitudeDegrees>
              <LongitudeDegrees>20.2783971838653087615966796875</LongitudeDegrees>
            </Position>
            <AltitudeMeters>610.4000244140625</AltitudeMeters>
            <DistanceMeters>NAN</DistanceMeters>
          </Trackpoint>
          <Trackpoint>
            <Time>2022-09-20T11:54:46.000Z</Time>
            <Position>
              <LatitudeDegrees>49.43021812476217746734619140625</LatitudeDegrees>
              <LongitudeDegrees>20.27878970839083194732666015625</LongitudeDegrees>
            </Position>
            <AltitudeMeters>609.5999755859375</AltitudeMeters>
            <DistanceMeters>NAN</DistanceMeters>
          </Trackpoint>
          <Trackpoint>
            <Time>2022-09-20T11:54:47.000Z</Time>
            <Position>
              <LatitudeDegrees>49.4302433542907238006591796875</LatitudeDegrees>
              <LongitudeDegrees>20.278893895447254180908203125</LongitudeDegrees>
            </Position>
            <AltitudeMeters>609.4000244140625</AltitudeMeters>
            <DistanceMeters>NAN</DistanceMeters>
          </Trackpoint>
          <Trackpoint>
            <Time>2022-09-20T11:54:50.000Z</Time>
            <Position>
              <LatitudeDegrees>49.43029205314815044403076171875</LatitudeDegrees>
              <LongitudeDegrees>20.27920897118747234344482421875</LongitudeDegrees>
            </Position>
            <AltitudeMeters>609</AltitudeMeters>
            <DistanceMeters>NAN</DistanceMeters>
          </Trackpoint>
          <Trackpoint>
            <Time>2022-09-20T11:54:53.000Z</Time>
            <Position>
              <LatitudeDegrees>49.43033178336918354034423828125</LatitudeDegrees>
              <LongitudeDegrees>20.27950351126492023468017578125</LongitudeDegrees>
            </Position>
            <AltitudeMeters>608.5999755859375</AltitudeMeters>
            <DistanceMeters>NAN</DistanceMeters>
          </Trackpoint>
          <Trackpoint>
            <Time>2022-09-20T11:54:57.000Z</Time>
            <Position>
              <LatitudeDegrees>49.43034804426133632659912109375</LatitudeDegrees>
              <LongitudeDegrees>20.2799424715340137481689453125</LongitudeDegrees>
            </Position>
            <AltitudeMeters>607.79998779296875</AltitudeMeters>
            <DistanceMeters>NAN</DistanceMeters>
          </Trackpoint>
          <Trackpoint>
            <Time>2022-09-20T11:54:58.000Z</Time>
            <Position>
              <LatitudeDegrees>49.4303576834499835968017578125</LatitudeDegrees>
              <LongitudeDegrees>20.2800537832081317901611328125</LongitudeDegrees>
            </Position>
            <AltitudeMeters>607.4000244140625</AltitudeMeters>
            <DistanceMeters>NAN</DistanceMeters>
          </Trackpoint>
          <Trackpoint>
            <Time>2022-09-20T11:55:01.000Z</Time>
            <Position>
              <LatitudeDegrees>49.43036430515348911285400390625</LatitudeDegrees>
              <LongitudeDegrees>20.28030901215970516204833984375</LongitudeDegrees>
            </Position>
            <AltitudeMeters>606</AltitudeMeters>
            <DistanceMeters>NAN</DistanceMeters>
          </Trackpoint>
          <Trackpoint>
            <Time>2022-09-20T11:55:04.000Z</Time>
            <Position>
              <LatitudeDegrees>49.430357180535793304443359375</LatitudeDegrees>
              <LongitudeDegrees>20.280796587467193603515625</LongitudeDegrees>
            </Position>
            <AltitudeMeters>605</AltitudeMeters>
            <DistanceMeters>NAN</DistanceMeters>
          </Trackpoint>
          <Trackpoint>
            <Time>2022-09-20T11:55:05.000Z</Time>
            <Position>
              <LatitudeDegrees>49.43035525269806385040283203125</LatitudeDegrees>
              <LongitudeDegrees>20.28089306317269802093505859375</LongitudeDegrees>
            </Position>
            <AltitudeMeters>604.79998779296875</AltitudeMeters>
            <DistanceMeters>NAN</DistanceMeters>
          </Trackpoint>
          <Trackpoint>
            <Time>2022-09-20T11:55:09.000Z</Time>
            <Position>
              <LatitudeDegrees>49.430332370102405548095703125</LatitudeDegrees>
              <LongitudeDegrees>20.28132691048085689544677734375</LongitudeDegrees>
            </Position>
            <AltitudeMeters>604.20001220703125</AltitudeMeters>
            <DistanceMeters>NAN</DistanceMeters>
          </Trackpoint>
          <Trackpoint>
            <Time>2022-09-20T11:55:10.000Z</Time>
            <Position>
              <LatitudeDegrees>49.4303164444863796234130859375</LatitudeDegrees>
              <LongitudeDegrees>20.281421206891536712646484375</LongitudeDegrees>
            </Position>
            <AltitudeMeters>604</AltitudeMeters>
            <DistanceMeters>NAN</DistanceMeters>
          </Trackpoint>
          <Trackpoint>
            <Time>2022-09-20T11:55:12.000Z</Time>
            <Position>
              <LatitudeDegrees>49.4302783906459808349609375</LatitudeDegrees>
              <LongitudeDegrees>20.281592197716236114501953125</LongitudeDegrees>
            </Position>
            <AltitudeMeters>603.5999755859375</AltitudeMeters>
            <DistanceMeters>NAN</DistanceMeters>
          </Trackpoint>
          <Trackpoint>
            <Time>2022-09-20T11:55:15.000Z</Time>
            <Position>
              <LatitudeDegrees>49.43023824132978916168212890625</LatitudeDegrees>
              <LongitudeDegrees>20.28178741224110126495361328125</LongitudeDegrees>
            </Position>
            <AltitudeMeters>603.20001220703125</AltitudeMeters>
            <DistanceMeters>NAN</DistanceMeters>
          </Trackpoint>
          <Trackpoint>
            <Time>2022-09-20T11:55:19.000Z</Time>
            <Position>
              <LatitudeDegrees>49.430198930203914642333984375</LatitudeDegrees>
              <LongitudeDegrees>20.281994529068470001220703125</LongitudeDegrees>
            </Position>
            <AltitudeMeters>602.5999755859375</AltitudeMeters>
            <DistanceMeters>NAN</DistanceMeters>
          </Trackpoint>
          <Trackpoint>
            <Time>2022-09-20T11:55:21.000Z</Time>
            <Position>
              <LatitudeDegrees>49.43018526770174503326416015625</LatitudeDegrees>
              <LongitudeDegrees>20.28211950324475765228271484375</LongitudeDegrees>
            </Position>
            <AltitudeMeters>602.20001220703125</AltitudeMeters>
            <DistanceMeters>NAN</DistanceMeters>
          </Trackpoint>
          <Trackpoint>
            <Time>2022-09-20T11:55:24.000Z</Time>
            <Position>
              <LatitudeDegrees>49.430141262710094451904296875</LatitudeDegrees>
              <LongitudeDegrees>20.28236391954123973846435546875</LongitudeDegrees>
            </Position>
            <AltitudeMeters>601.20001220703125</AltitudeMeters>
            <DistanceMeters>NAN</DistanceMeters>
          </Trackpoint>
          <Trackpoint>
            <Time>2022-09-20T11:55:25.000Z</Time>
            <Position>
              <LatitudeDegrees>49.4301174581050872802734375</LatitudeDegrees>
              <LongitudeDegrees>20.2824553661048412322998046875</LongitudeDegrees>
            </Position>
            <AltitudeMeters>600.79998779296875</AltitudeMeters>
            <DistanceMeters>NAN</DistanceMeters>
          </Trackpoint>
          <Trackpoint>
            <Time>2022-09-20T11:55:27.000Z</Time>
            <Position>
              <LatitudeDegrees>49.4300676696002483367919921875</LatitudeDegrees>
              <LongitudeDegrees>20.28265745379030704498291015625</LongitudeDegrees>
            </Position>
            <AltitudeMeters>600</AltitudeMeters>
            <DistanceMeters>NAN</DistanceMeters>
          </Trackpoint>
          <Trackpoint>
            <Time>2022-09-20T11:55:29.000Z</Time>
            <Position>
              <LatitudeDegrees>49.43001913838088512420654296875</LatitudeDegrees>
              <LongitudeDegrees>20.282885022461414337158203125</LongitudeDegrees>
            </Position>
            <AltitudeMeters>598.5999755859375</AltitudeMeters>
            <DistanceMeters>NAN</DistanceMeters>
          </Trackpoint>
          <Trackpoint>
            <Time>2022-09-20T11:55:30.000Z</Time>
            <Position>
              <LatitudeDegrees>49.42999340593814849853515625</LatitudeDegrees>
              <LongitudeDegrees>20.28300597332417964935302734375</LongitudeDegrees>
            </Position>
            <AltitudeMeters>598.20001220703125</AltitudeMeters>
            <DistanceMeters>NAN</DistanceMeters>
          </Trackpoint>
          <Trackpoint>
            <Time>2022-09-20T11:55:32.000Z</Time>
            <Position>
              <LatitudeDegrees>49.429935403168201446533203125</LatitudeDegrees>
              <LongitudeDegrees>20.2832499705255031585693359375</LongitudeDegrees>
            </Position>
            <AltitudeMeters>597.20001220703125</AltitudeMeters>
            <DistanceMeters>NAN</DistanceMeters>
          </Trackpoint>
          <Trackpoint>
            <Time>2022-09-20T11:55:35.000Z</Time>
            <Position>
              <LatitudeDegrees>49.42986600100994110107421875</LatitudeDegrees>
              <LongitudeDegrees>20.2836110629141330718994140625</LongitudeDegrees>
            </Position>
            <AltitudeMeters>595.5999755859375</AltitudeMeters>
            <DistanceMeters>NAN</DistanceMeters>
          </Trackpoint>
          <Trackpoint>
            <Time>2022-09-20T11:55:37.000Z</Time>
            <Position>
              <LatitudeDegrees>49.42982375621795654296875</LatitudeDegrees>
              <LongitudeDegrees>20.283836536109447479248046875</LongitudeDegrees>
            </Position>
            <AltitudeMeters>594.79998779296875</AltitudeMeters>
            <DistanceMeters>NAN</DistanceMeters>
          </Trackpoint>
          <Trackpoint>
            <Time>2022-09-20T11:55:38.000Z</Time>
            <Position>
              <LatitudeDegrees>49.42980238236486911773681640625</LatitudeDegrees>
              <LongitudeDegrees>20.28394223190844058990478515625</LongitudeDegrees>
            </Position>
            <AltitudeMeters>594</AltitudeMeters>
            <DistanceMeters>NAN</DistanceMeters>
          </Trackpoint>
          <Trackpoint>
            <Time>2022-09-20T11:55:40.000Z</Time>
            <Position>
              <LatitudeDegrees>49.429758377373218536376953125</LatitudeDegrees>
              <LongitudeDegrees>20.28415295295417308807373046875</LongitudeDegrees>
            </Position>
            <AltitudeMeters>592.79998779296875</AltitudeMeters>
            <DistanceMeters>NAN</DistanceMeters>
          </Trackpoint>
          <Trackpoint>
            <Time>2022-09-20T11:55:42.000Z</Time>
            <Position>
              <LatitudeDegrees>49.4297166354954242706298828125</LatitudeDegrees>
              <LongitudeDegrees>20.2843359299004077911376953125</LongitudeDegrees>
            </Position>
            <AltitudeMeters>591.5999755859375</AltitudeMeters>
            <DistanceMeters>NAN</DistanceMeters>
          </Trackpoint>
          <Trackpoint>
            <Time>2022-09-20T11:55:43.000Z</Time>
            <Position>
              <LatitudeDegrees>49.42968721501529216766357421875</LatitudeDegrees>
              <LongitudeDegrees>20.28445855714380741119384765625</LongitudeDegrees>
            </Position>
            <AltitudeMeters>590.79998779296875</AltitudeMeters>
            <DistanceMeters>NAN</DistanceMeters>
          </Trackpoint>
          <Trackpoint>
            <Time>2022-09-20T11:55:44.000Z</Time>
            <Position>
              <LatitudeDegrees>49.42966341041028499603271484375</LatitudeDegrees>
              <LongitudeDegrees>20.284560732543468475341796875</LongitudeDegrees>
            </Position>
            <AltitudeMeters>590.20001220703125</AltitudeMeters>
            <DistanceMeters>NAN</DistanceMeters>
          </Trackpoint>
          <Trackpoint>
            <Time>2022-09-20T11:55:46.000Z</Time>
            <Position>
              <LatitudeDegrees>49.4296247698366641998291015625</LatitudeDegrees>
              <LongitudeDegrees>20.284745804965496063232421875</LongitudeDegrees>
            </Position>
            <AltitudeMeters>588.5999755859375</AltitudeMeters>
            <DistanceMeters>NAN</DistanceMeters>
          </Trackpoint>
          <Trackpoint>
            <Time>2022-09-20T11:55:48.000Z</Time>
            <Position>
              <LatitudeDegrees>49.429583363234996795654296875</LatitudeDegrees>
              <LongitudeDegrees>20.284948311746120452880859375</LongitudeDegrees>
            </Position>
            <AltitudeMeters>587.5999755859375</AltitudeMeters>
            <DistanceMeters>NAN</DistanceMeters>
          </Trackpoint>
          <Trackpoint>
            <Time>2022-09-20T11:55:50.000Z</Time>
            <Position>
              <LatitudeDegrees>49.42955494858324527740478515625</LatitudeDegrees>
              <LongitudeDegrees>20.28516900725662708282470703125</LongitudeDegrees>
            </Position>
            <AltitudeMeters>586</AltitudeMeters>
            <DistanceMeters>NAN</DistanceMeters>
          </Trackpoint>
          <Trackpoint>
            <Time>2022-09-20T11:55:51.000Z</Time>
            <Position>
              <LatitudeDegrees>49.42955494858324527740478515625</LatitudeDegrees>
              <LongitudeDegrees>20.28516900725662708282470703125</LongitudeDegrees>
            </Position>
            <AltitudeMeters>585.4000244140625</AltitudeMeters>
            <DistanceMeters>NAN</DistanceMeters>
          </Trackpoint>
          <Trackpoint>
            <Time>2022-09-20T11:55:52.000Z</Time>
            <Position>
              <LatitudeDegrees>49.4295419566333293914794921875</LatitudeDegrees>
              <LongitudeDegrees>20.28545080684125423431396484375</LongitudeDegrees>
            </Position>
            <AltitudeMeters>584.5999755859375</AltitudeMeters>
            <DistanceMeters>NAN</DistanceMeters>
          </Trackpoint>
          <Trackpoint>
            <Time>2022-09-20T11:55:54.000Z</Time>
            <Position>
              <LatitudeDegrees>49.4295434653759002685546875</LatitudeDegrees>
              <LongitudeDegrees>20.2857340313494205474853515625</LongitudeDegrees>
            </Position>
            <AltitudeMeters>582.5999755859375</AltitudeMeters>
            <DistanceMeters>NAN</DistanceMeters>
          </Trackpoint>
          <Trackpoint>
            <Time>2022-09-20T11:55:55.000Z</Time>
            <Position>
              <LatitudeDegrees>49.42954539321362972259521484375</LatitudeDegrees>
              <LongitudeDegrees>20.28588750399649143218994140625</LongitudeDegrees>
            </Position>
            <AltitudeMeters>581.5999755859375</AltitudeMeters>
            <DistanceMeters>NAN</DistanceMeters>
          </Trackpoint>
          <Trackpoint>
            <Time>2022-09-20T11:55:57.000Z</Time>
            <Position>
              <LatitudeDegrees>49.42955478094518184661865234375</LatitudeDegrees>
              <LongitudeDegrees>20.28621657751500606536865234375</LongitudeDegrees>
            </Position>
            <AltitudeMeters>579.79998779296875</AltitudeMeters>
            <DistanceMeters>NAN</DistanceMeters>
          </Trackpoint>
          <Trackpoint>
            <Time>2022-09-20T11:55:58.000Z</Time>
            <Position>
              <LatitudeDegrees>49.4295627437531948089599609375</LatitudeDegrees>
              <LongitudeDegrees>20.28638840653002262115478515625</LongitudeDegrees>
            </Position>
            <AltitudeMeters>578.4000244140625</AltitudeMeters>
            <DistanceMeters>NAN</DistanceMeters>
          </Trackpoint>
          <Trackpoint>
            <Time>2022-09-20T11:55:59.000Z</Time>
            <Position>
              <LatitudeDegrees>49.42957556806504726409912109375</LatitudeDegrees>
              <LongitudeDegrees>20.2865604870021343231201171875</LongitudeDegrees>
            </Position>
            <AltitudeMeters>577</AltitudeMeters>
            <DistanceMeters>NAN</DistanceMeters>
          </Trackpoint>
          <Trackpoint>
            <Time>2022-09-20T11:56:00.000Z</Time>
            <Position>
              <LatitudeDegrees>49.4295959360897541046142578125</LatitudeDegrees>
              <LongitudeDegrees>20.28673843480646610260009765625</LongitudeDegrees>
            </Position>
            <AltitudeMeters>575.79998779296875</AltitudeMeters>
            <DistanceMeters>NAN</DistanceMeters>
          </Trackpoint>
          <Trackpoint>
            <Time>2022-09-20T11:56:01.000Z</Time>
            <Position>
              <LatitudeDegrees>49.429622255265712738037109375</LatitudeDegrees>
              <LongitudeDegrees>20.28691696934401988983154296875</LongitudeDegrees>
            </Position>
            <AltitudeMeters>574.5999755859375</AltitudeMeters>
            <DistanceMeters>NAN</DistanceMeters>
          </Trackpoint>
          <Trackpoint>
            <Time>2022-09-20T11:56:02.000Z</Time>
            <Position>
              <LatitudeDegrees>49.429657794535160064697265625</LatitudeDegrees>
              <LongitudeDegrees>20.28714160434901714324951171875</LongitudeDegrees>
            </Position>
            <AltitudeMeters>573.4000244140625</AltitudeMeters>
            <DistanceMeters>NAN</DistanceMeters>
          </Trackpoint>
          <Trackpoint>
            <Time>2022-09-20T11:56:03.000Z</Time>
            <Position>
              <LatitudeDegrees>49.4296911545097827911376953125</LatitudeDegrees>
              <LongitudeDegrees>20.28733455576002597808837890625</LongitudeDegrees>
            </Position>
            <AltitudeMeters>571.79998779296875</AltitudeMeters>
            <DistanceMeters>NAN</DistanceMeters>
          </Trackpoint>
          <Trackpoint>
            <Time>2022-09-20T11:56:04.000Z</Time>
            <Position>
              <LatitudeDegrees>49.429720826447010040283203125</LatitudeDegrees>
              <LongitudeDegrees>20.28752650134265422821044921875</LongitudeDegrees>
            </Position>
            <AltitudeMeters>569.79998779296875</AltitudeMeters>
            <DistanceMeters>NAN</DistanceMeters>
          </Trackpoint>
          <Trackpoint>
            <Time>2022-09-20T11:56:05.000Z</Time>
            <Position>
              <LatitudeDegrees>49.42975066602230072021484375</LatitudeDegrees>
              <LongitudeDegrees>20.2877161838114261627197265625</LongitudeDegrees>
            </Position>
            <AltitudeMeters>568.20001220703125</AltitudeMeters>
            <DistanceMeters>NAN</DistanceMeters>
          </Trackpoint>
          <Trackpoint>
            <Time>2022-09-20T11:56:06.000Z</Time>
            <Position>
              <LatitudeDegrees>49.4297826848924160003662109375</LatitudeDegrees>
              <LongitudeDegrees>20.287904441356658935546875</LongitudeDegrees>
            </Position>
            <AltitudeMeters>566.5999755859375</AltitudeMeters>
            <DistanceMeters>NAN</DistanceMeters>
          </Trackpoint>
          <Trackpoint>
            <Time>2022-09-20T11:56:08.000Z</Time>
            <Position>
              <LatitudeDegrees>49.42983976565301418304443359375</LatitudeDegrees>
              <LongitudeDegrees>20.28827785514295101165771484375</LongitudeDegrees>
            </Position>
            <AltitudeMeters>565</AltitudeMeters>
            <DistanceMeters>NAN</DistanceMeters>
          </Trackpoint>
          <Trackpoint>
            <Time>2022-09-20T11:56:10.000Z</Time>
            <Position>
              <LatitudeDegrees>49.4298842735588550567626953125</LatitudeDegrees>
              <LongitudeDegrees>20.28864498250186443328857421875</LongitudeDegrees>
            </Position>
            <AltitudeMeters>563.5999755859375</AltitudeMeters>
            <DistanceMeters>NAN</DistanceMeters>
          </Trackpoint>
          <Trackpoint>
            <Time>2022-09-20T11:56:11.000Z</Time>
            <Position>
              <LatitudeDegrees>49.42990380339324474334716796875</LatitudeDegrees>
              <LongitudeDegrees>20.28882779181003570556640625</LongitudeDegrees>
            </Position>
            <AltitudeMeters>563.4000244140625</AltitudeMeters>
            <DistanceMeters>NAN</DistanceMeters>
          </Trackpoint>
          <Trackpoint>
            <Time>2022-09-20T11:56:15.000Z</Time>
            <Position>
              <LatitudeDegrees>49.42999918945133686065673828125</LatitudeDegrees>
              <LongitudeDegrees>20.28954134322702884674072265625</LongitudeDegrees>
            </Position>
            <AltitudeMeters>562.5999755859375</AltitudeMeters>
            <DistanceMeters>NAN</DistanceMeters>
          </Trackpoint>
          <Trackpoint>
            <Time>2022-09-20T11:56:16.000Z</Time>
            <Position>
              <LatitudeDegrees>49.4300247542560100555419921875</LatitudeDegrees>
              <LongitudeDegrees>20.28971669264137744903564453125</LongitudeDegrees>
            </Position>
            <AltitudeMeters>562.4000244140625</AltitudeMeters>
            <DistanceMeters>NAN</DistanceMeters>
          </Trackpoint>
          <Trackpoint>
            <Time>2022-09-20T11:56:18.000Z</Time>
            <Position>
              <LatitudeDegrees>49.43006557412445545196533203125</LatitudeDegrees>
              <LongitudeDegrees>20.29006420634686946868896484375</LongitudeDegrees>
            </Position>
            <AltitudeMeters>562</AltitudeMeters>
            <DistanceMeters>NAN</DistanceMeters>
          </Trackpoint>
          <Trackpoint>
            <Time>2022-09-20T11:56:22.000Z</Time>
            <Position>
              <LatitudeDegrees>49.4300559349358081817626953125</LatitudeDegrees>
              <LongitudeDegrees>20.29072813689708709716796875</LongitudeDegrees>
            </Position>
            <AltitudeMeters>562.5999755859375</AltitudeMeters>
            <DistanceMeters>NAN</DistanceMeters>
          </Trackpoint>
          <Trackpoint>
            <Time>2022-09-20T11:56:27.000Z</Time>
            <Position>
              <LatitudeDegrees>49.43005434237420558929443359375</LatitudeDegrees>
              <LongitudeDegrees>20.2915158681571483612060546875</LongitudeDegrees>
            </Position>
            <AltitudeMeters>562.4000244140625</AltitudeMeters>
            <DistanceMeters>NAN</DistanceMeters>
          </Trackpoint>
          <Trackpoint>
            <Time>2022-09-20T11:56:29.000Z</Time>
            <Position>
              <LatitudeDegrees>49.4300686754286289215087890625</LatitudeDegrees>
              <LongitudeDegrees>20.29184016399085521697998046875</LongitudeDegrees>
            </Position>
            <AltitudeMeters>561.20001220703125</AltitudeMeters>
            <DistanceMeters>NAN</DistanceMeters>
          </Trackpoint>
          <Trackpoint>
            <Time>2022-09-20T11:56:30.000Z</Time>
            <Position>
              <LatitudeDegrees>49.4300686754286289215087890625</LatitudeDegrees>
              <LongitudeDegrees>20.29184016399085521697998046875</LongitudeDegrees>
            </Position>
            <AltitudeMeters>560.20001220703125</AltitudeMeters>
            <DistanceMeters>NAN</DistanceMeters>
          </Trackpoint>
          <Trackpoint>
            <Time>2022-09-20T11:56:33.000Z</Time>
            <Position>
              <LatitudeDegrees>49.43009926937520503997802734375</LatitudeDegrees>
              <LongitudeDegrees>20.2924476005136966705322265625</LongitudeDegrees>
            </Position>
            <AltitudeMeters>558.79998779296875</AltitudeMeters>
            <DistanceMeters>NAN</DistanceMeters>
          </Trackpoint>
          <Trackpoint>
            <Time>2022-09-20T11:56:34.000Z</Time>
            <Position>
              <LatitudeDegrees>49.43010111339390277862548828125</LatitudeDegrees>
              <LongitudeDegrees>20.29255497269332408905029296875</LongitudeDegrees>
            </Position>
            <AltitudeMeters>558.79998779296875</AltitudeMeters>
            <DistanceMeters>NAN</DistanceMeters>
          </Trackpoint>
          <Trackpoint>
            <Time>2022-09-20T11:56:36.000Z</Time>
            <Position>
              <LatitudeDegrees>49.4301102496683597564697265625</LatitudeDegrees>
              <LongitudeDegrees>20.29280810616910457611083984375</LongitudeDegrees>
            </Position>
            <AltitudeMeters>558.20001220703125</AltitudeMeters>
            <DistanceMeters>NAN</DistanceMeters>
          </Trackpoint>
          <Trackpoint>
            <Time>2022-09-20T11:56:38.000Z</Time>
            <Position>
              <LatitudeDegrees>49.43013564683496952056884765625</LatitudeDegrees>
              <LongitudeDegrees>20.29304414056241512298583984375</LongitudeDegrees>
            </Position>
            <AltitudeMeters>557.79998779296875</AltitudeMeters>
            <DistanceMeters>NAN</DistanceMeters>
          </Trackpoint>
          <Trackpoint>
            <Time>2022-09-20T11:56:39.000Z</Time>
            <Position>
              <LatitudeDegrees>49.43014738149940967559814453125</LatitudeDegrees>
              <LongitudeDegrees>20.2931624092161655426025390625</LongitudeDegrees>
            </Position>
            <AltitudeMeters>557.5999755859375</AltitudeMeters>
            <DistanceMeters>NAN</DistanceMeters>
          </Trackpoint>
          <Trackpoint>
            <Time>2022-09-20T11:56:40.000Z</Time>
            <Position>
              <LatitudeDegrees>49.43015861324965953826904296875</LatitudeDegrees>
              <LongitudeDegrees>20.2932809293270111083984375</LongitudeDegrees>
            </Position>
            <AltitudeMeters>557.20001220703125</AltitudeMeters>
            <DistanceMeters>NAN</DistanceMeters>
          </Trackpoint>
          <Trackpoint>
            <Time>2022-09-20T11:56:42.000Z</Time>
            <Position>
              <LatitudeDegrees>49.430175125598907470703125</LatitudeDegrees>
              <LongitudeDegrees>20.2935188077390193939208984375</LongitudeDegrees>
            </Position>
            <AltitudeMeters>556.20001220703125</AltitudeMeters>
            <DistanceMeters>NAN</DistanceMeters>
          </Trackpoint>
          <Trackpoint>
            <Time>2022-09-20T11:56:44.000Z</Time>
            <Position>
              <LatitudeDegrees>49.43018979392945766448974609375</LatitudeDegrees>
              <LongitudeDegrees>20.2937484718859195709228515625</LongitudeDegrees>
            </Position>
            <AltitudeMeters>554.79998779296875</AltitudeMeters>
            <DistanceMeters>NAN</DistanceMeters>
          </Trackpoint>
          <Trackpoint>
            <Time>2022-09-20T11:56:46.000Z</Time>
            <Position>
              <LatitudeDegrees>49.43020136095583438873291015625</LatitudeDegrees>
              <LongitudeDegrees>20.294000767171382904052734375</LongitudeDegrees>
            </Position>
            <AltitudeMeters>553.20001220703125</AltitudeMeters>
            <DistanceMeters>NAN</DistanceMeters>
          </Trackpoint>
          <Trackpoint>
            <Time>2022-09-20T11:56:49.000Z</Time>
            <Position>
              <LatitudeDegrees>49.43020136095583438873291015625</LatitudeDegrees>
              <LongitudeDegrees>20.2943117357790470123291015625</LongitudeDegrees>
            </Position>
            <AltitudeMeters>552</AltitudeMeters>
            <DistanceMeters>NAN</DistanceMeters>
          </Trackpoint>
          <Trackpoint>
            <Time>2022-09-20T11:56:52.000Z</Time>
            <Position>
              <LatitudeDegrees>49.43018577061593532562255859375</LatitudeDegrees>
              <LongitudeDegrees>20.294666625559329986572265625</LongitudeDegrees>
            </Position>
            <AltitudeMeters>550.79998779296875</AltitudeMeters>
            <DistanceMeters>NAN</DistanceMeters>
          </Trackpoint>
          <Trackpoint>
            <Time>2022-09-20T11:56:55.000Z</Time>
            <Position>
              <LatitudeDegrees>49.43018476478755474090576171875</LatitudeDegrees>
              <LongitudeDegrees>20.29500357806682586669921875</LongitudeDegrees>
            </Position>
            <AltitudeMeters>549</AltitudeMeters>
            <DistanceMeters>NAN</DistanceMeters>
          </Trackpoint>
          <Trackpoint>
            <Time>2022-09-20T11:56:56.000Z</Time>
            <Position>
              <LatitudeDegrees>49.43018375895917415618896484375</LatitudeDegrees>
              <LongitudeDegrees>20.295110531151294708251953125</LongitudeDegrees>
            </Position>
            <AltitudeMeters>547.79998779296875</AltitudeMeters>
            <DistanceMeters>NAN</DistanceMeters>
          </Trackpoint>
          <Trackpoint>
            <Time>2022-09-20T11:56:58.000Z</Time>
            <Position>
              <LatitudeDegrees>49.430164061486721038818359375</LatitudeDegrees>
              <LongitudeDegrees>20.2953098528087139129638671875</LongitudeDegrees>
            </Position>
            <AltitudeMeters>546</AltitudeMeters>
            <DistanceMeters>NAN</DistanceMeters>
          </Trackpoint>
          <Trackpoint>
            <Time>2022-09-20T11:56:59.000Z</Time>
            <Position>
              <LatitudeDegrees>49.43015039898455142974853515625</LatitudeDegrees>
              <LongitudeDegrees>20.29538503848016262054443359375</LongitudeDegrees>
            </Position>
            <AltitudeMeters>545</AltitudeMeters>
            <DistanceMeters>NAN</DistanceMeters>
          </Trackpoint>
          <Trackpoint>
            <Time>2022-09-20T11:57:00.000Z</Time>
            <Position>
              <LatitudeDegrees>49.43012215197086334228515625</LatitudeDegrees>
              <LongitudeDegrees>20.29549442231655120849609375</LongitudeDegrees>
            </Position>
            <AltitudeMeters>544.20001220703125</AltitudeMeters>
            <DistanceMeters>NAN</DistanceMeters>
          </Trackpoint>
          <Trackpoint>
            <Time>2022-09-20T11:57:01.000Z</Time>
            <Position>
              <LatitudeDegrees>49.43009306676685810089111328125</LatitudeDegrees>
              <LongitudeDegrees>20.29558771289885044097900390625</LongitudeDegrees>
            </Position>
            <AltitudeMeters>543.79998779296875</AltitudeMeters>
            <DistanceMeters>NAN</DistanceMeters>
          </Trackpoint>
          <Trackpoint>
            <Time>2022-09-20T11:57:02.000Z</Time>
            <Position>
              <LatitudeDegrees>49.43006238900125026702880859375</LatitudeDegrees>
              <LongitudeDegrees>20.29567337594926357269287109375</LongitudeDegrees>
            </Position>
            <AltitudeMeters>543</AltitudeMeters>
            <DistanceMeters>NAN</DistanceMeters>
          </Trackpoint>
          <Trackpoint>
            <Time>2022-09-20T11:57:04.000Z</Time>
            <Position>
              <LatitudeDegrees>49.43001427687704563140869140625</LatitudeDegrees>
              <LongitudeDegrees>20.29581385664641857147216796875</LongitudeDegrees>
            </Position>
            <AltitudeMeters>541.79998779296875</AltitudeMeters>
            <DistanceMeters>NAN</DistanceMeters>
          </Trackpoint>
          <Trackpoint>
            <Time>2022-09-20T11:57:06.000Z</Time>
            <Position>
              <LatitudeDegrees>49.42996650002896785736083984375</LatitudeDegrees>
              <LongitudeDegrees>20.29596791602671146392822265625</LongitudeDegrees>
            </Position>
            <AltitudeMeters>540.5999755859375</AltitudeMeters>
            <DistanceMeters>NAN</DistanceMeters>
          </Trackpoint>
          <Trackpoint>
            <Time>2022-09-20T11:57:08.000Z</Time>
            <Position>
              <LatitudeDegrees>49.42993330769240856170654296875</LatitudeDegrees>
              <LongitudeDegrees>20.29613723047077655792236328125</LongitudeDegrees>
            </Position>
            <AltitudeMeters>539.4000244140625</AltitudeMeters>
            <DistanceMeters>NAN</DistanceMeters>
          </Trackpoint>
          <Trackpoint>
            <Time>2022-09-20T11:57:09.000Z</Time>
            <Position>
              <LatitudeDegrees>49.4299241714179515838623046875</LatitudeDegrees>
              <LongitudeDegrees>20.29624736867845058441162109375</LongitudeDegrees>
            </Position>
            <AltitudeMeters>538.20001220703125</AltitudeMeters>
            <DistanceMeters>NAN</DistanceMeters>
          </Trackpoint>
          <Trackpoint>
            <Time>2022-09-20T11:57:10.000Z</Time>
            <Position>
              <LatitudeDegrees>49.4299241714179515838623046875</LatitudeDegrees>
              <LongitudeDegrees>20.29624736867845058441162109375</LongitudeDegrees>
            </Position>
            <AltitudeMeters>537.20001220703125</AltitudeMeters>
            <DistanceMeters>NAN</DistanceMeters>
          </Trackpoint>
          <Trackpoint>
            <Time>2022-09-20T11:57:11.000Z</Time>
            <Position>
              <LatitudeDegrees>49.42991905845701694488525390625</LatitudeDegrees>
              <LongitudeDegrees>20.2964471094310283660888671875</LongitudeDegrees>
            </Position>
            <AltitudeMeters>536</AltitudeMeters>
            <DistanceMeters>NAN</DistanceMeters>
          </Trackpoint>
          <Trackpoint>
            <Time>2022-09-20T11:57:12.000Z</Time>
            <Position>
              <LatitudeDegrees>49.4299188069999217987060546875</LatitudeDegrees>
              <LongitudeDegrees>20.29659186489880084991455078125</LongitudeDegrees>
            </Position>
            <AltitudeMeters>534.5999755859375</AltitudeMeters>
            <DistanceMeters>NAN</DistanceMeters>
          </Trackpoint>
          <Trackpoint>
            <Time>2022-09-20T11:57:13.000Z</Time>
            <Position>
              <LatitudeDegrees>49.4299302063882350921630859375</LatitudeDegrees>
              <LongitudeDegrees>20.2967196889221668243408203125</LongitudeDegrees>
            </Position>
            <AltitudeMeters>533.20001220703125</AltitudeMeters>
            <DistanceMeters>NAN</DistanceMeters>
          </Trackpoint>
          <Trackpoint>
            <Time>2022-09-20T11:57:14.000Z</Time>
            <Position>
              <LatitudeDegrees>49.429936073720455169677734375</LatitudeDegrees>
              <LongitudeDegrees>20.29685606248676776885986328125</LongitudeDegrees>
            </Position>
            <AltitudeMeters>531.79998779296875</AltitudeMeters>
            <DistanceMeters>NAN</DistanceMeters>
          </Trackpoint>
          <Trackpoint>
            <Time>2022-09-20T11:57:15.000Z</Time>
            <Position>
              <LatitudeDegrees>49.429938755929470062255859375</LatitudeDegrees>
              <LongitudeDegrees>20.2970009855926036834716796875</LongitudeDegrees>
            </Position>
            <AltitudeMeters>530.20001220703125</AltitudeMeters>
            <DistanceMeters>NAN</DistanceMeters>
          </Trackpoint>
          <Trackpoint>
            <Time>2022-09-20T11:57:16.000Z</Time>
            <Position>
              <LatitudeDegrees>49.429939091205596923828125</LatitudeDegrees>
              <LongitudeDegrees>20.29712210409343242645263671875</LongitudeDegrees>
            </Position>
            <AltitudeMeters>528.4000244140625</AltitudeMeters>
            <DistanceMeters>NAN</DistanceMeters>
          </Trackpoint>
          <Trackpoint>
            <Time>2022-09-20T11:57:17.000Z</Time>
            <Position>
              <LatitudeDegrees>49.42993448115885257720947265625</LatitudeDegrees>
              <LongitudeDegrees>20.2972685359418392181396484375</LongitudeDegrees>
            </Position>
            <AltitudeMeters>526.4000244140625</AltitudeMeters>
            <DistanceMeters>NAN</DistanceMeters>
          </Trackpoint>
          <Trackpoint>
            <Time>2022-09-20T11:57:18.000Z</Time>
            <Position>
              <LatitudeDegrees>49.42992408759891986846923828125</LatitudeDegrees>
              <LongitudeDegrees>20.29743642546236515045166015625</LongitudeDegrees>
            </Position>
            <AltitudeMeters>524.4000244140625</AltitudeMeters>
            <DistanceMeters>NAN</DistanceMeters>
          </Trackpoint>
          <Trackpoint>
            <Time>2022-09-20T11:57:19.000Z</Time>
            <Position>
              <LatitudeDegrees>49.42991067655384540557861328125</LatitudeDegrees>
              <LongitudeDegrees>20.2975689433515071868896484375</LongitudeDegrees>
            </Position>
            <AltitudeMeters>522.79998779296875</AltitudeMeters>
            <DistanceMeters>NAN</DistanceMeters>
          </Trackpoint>
          <Trackpoint>
            <Time>2022-09-20T11:57:20.000Z</Time>
            <Position>
              <LatitudeDegrees>49.4298976846039295196533203125</LatitudeDegrees>
              <LongitudeDegrees>20.29769517481327056884765625</LongitudeDegrees>
            </Position>
            <AltitudeMeters>521.4000244140625</AltitudeMeters>
            <DistanceMeters>NAN</DistanceMeters>
          </Trackpoint>
          <Trackpoint>
            <Time>2022-09-20T11:57:22.000Z</Time>
            <Position>
              <LatitudeDegrees>49.42988201044499874114990234375</LatitudeDegrees>
              <LongitudeDegrees>20.29794520698487758636474609375</LongitudeDegrees>
            </Position>
            <AltitudeMeters>520</AltitudeMeters>
            <DistanceMeters>NAN</DistanceMeters>
          </Trackpoint>
          <Trackpoint>
            <Time>2022-09-20T11:57:24.000Z</Time>
            <Position>
              <LatitudeDegrees>49.4298681803047657012939453125</LatitudeDegrees>
              <LongitudeDegrees>20.29815115034580230712890625</LongitudeDegrees>
            </Position>
            <AltitudeMeters>519.79998779296875</AltitudeMeters>
            <DistanceMeters>NAN</DistanceMeters>
          </Trackpoint>
          <Trackpoint>
            <Time>2022-09-20T11:57:25.000Z</Time>
            <Position>
              <LatitudeDegrees>49.42984865047037601470947265625</LatitudeDegrees>
              <LongitudeDegrees>20.29827654361724853515625</LongitudeDegrees>
            </Position>
            <AltitudeMeters>519.79998779296875</AltitudeMeters>
            <DistanceMeters>NAN</DistanceMeters>
          </Trackpoint>
          <Trackpoint>
            <Time>2022-09-20T11:57:28.000Z</Time>
            <Position>
              <LatitudeDegrees>49.42982099018990993499755859375</LatitudeDegrees>
              <LongitudeDegrees>20.2985067106783390045166015625</LongitudeDegrees>
            </Position>
            <AltitudeMeters>519.5999755859375</AltitudeMeters>
            <DistanceMeters>NAN</DistanceMeters>
          </Trackpoint>
          <Trackpoint>
            <Time>2022-09-20T11:57:29.000Z</Time>
            <Position>
              <LatitudeDegrees>49.42982015199959278106689453125</LatitudeDegrees>
              <LongitudeDegrees>20.29855943284928798675537109375</LongitudeDegrees>
            </Position>
            <AltitudeMeters>519.20001220703125</AltitudeMeters>
            <DistanceMeters>NAN</DistanceMeters>
          </Trackpoint>
          <Trackpoint>
            <Time>2022-09-20T11:57:30.000Z</Time>
            <Position>
              <LatitudeDegrees>49.42980137653648853302001953125</LatitudeDegrees>
              <LongitudeDegrees>20.29859966598451137542724609375</LongitudeDegrees>
            </Position>
            <AltitudeMeters>519.20001220703125</AltitudeMeters>
            <DistanceMeters>NAN</DistanceMeters>
          </Trackpoint>
          <Trackpoint>
            <Time>2022-09-20T11:57:31.000Z</Time>
            <Position>
              <LatitudeDegrees>49.42978553473949432373046875</LatitudeDegrees>
              <LongitudeDegrees>20.29860385693609714508056640625</LongitudeDegrees>
            </Position>
            <AltitudeMeters>519</AltitudeMeters>
            <DistanceMeters>NAN</DistanceMeters>
          </Trackpoint>
          <Trackpoint>
            <Time>2022-09-20T11:57:32.000Z</Time>
            <Position>
              <LatitudeDegrees>49.42976600490510463714599609375</LatitudeDegrees>
              <LongitudeDegrees>20.2985861711204051971435546875</LongitudeDegrees>
            </Position>
            <AltitudeMeters>518.5999755859375</AltitudeMeters>
            <DistanceMeters>NAN</DistanceMeters>
          </Trackpoint>
          <Trackpoint>
            <Time>2022-09-20T11:57:34.000Z</Time>
            <Position>
              <LatitudeDegrees>49.42974396049976348876953125</LatitudeDegrees>
              <LongitudeDegrees>20.29850645922124385833740234375</LongitudeDegrees>
            </Position>
            <AltitudeMeters>518</AltitudeMeters>
            <DistanceMeters>NAN</DistanceMeters>
          </Trackpoint>
          <Trackpoint>
            <Time>2022-09-20T11:57:35.000Z</Time>
            <Position>
              <LatitudeDegrees>49.429739601910114288330078125</LatitudeDegrees>
              <LongitudeDegrees>20.29846253804862499237060546875</LongitudeDegrees>
            </Position>
            <AltitudeMeters>517.79998779296875</AltitudeMeters>
            <DistanceMeters>NAN</DistanceMeters>
          </Trackpoint>
          <Trackpoint>
            <Time>2022-09-20T11:57:36.000Z</Time>
            <Position>
              <LatitudeDegrees>49.4297360815107822418212890625</LatitudeDegrees>
              <LongitudeDegrees>20.2984198741614818572998046875</LongitudeDegrees>
            </Position>
            <AltitudeMeters>517.5999755859375</AltitudeMeters>
            <DistanceMeters>NAN</DistanceMeters>
          </Trackpoint>
          <Trackpoint>
            <Time>2022-09-20T11:57:42.000Z</Time>
            <Position>
              <LatitudeDegrees>49.42972795106470584869384765625</LatitudeDegrees>
              <LongitudeDegrees>20.2982027828693389892578125</LongitudeDegrees>
            </Position>
            <AltitudeMeters>517.5999755859375</AltitudeMeters>
            <DistanceMeters>NAN</DistanceMeters>
          </Trackpoint>
          <Trackpoint>
            <Time>2022-09-20T11:57:44.000Z</Time>
            <Position>
              <LatitudeDegrees>49.4297223351895809173583984375</LatitudeDegrees>
              <LongitudeDegrees>20.29813329689204692840576171875</LongitudeDegrees>
            </Position>
            <AltitudeMeters>517.5999755859375</AltitudeMeters>
            <DistanceMeters>NAN</DistanceMeters>
          </Trackpoint>
          <Trackpoint>
            <Time>2022-09-20T11:57:48.000Z</Time>
            <Position>
              <LatitudeDegrees>49.4297146238386631011962890625</LatitudeDegrees>
              <LongitudeDegrees>20.29797823168337345123291015625</LongitudeDegrees>
            </Position>
            <AltitudeMeters>517.5999755859375</AltitudeMeters>
            <DistanceMeters>NAN</DistanceMeters>
          </Trackpoint>
          <Trackpoint>
            <Time>2022-09-20T11:57:54.000Z</Time>
            <Position>
              <LatitudeDegrees>49.42969744093716144561767578125</LatitudeDegrees>
              <LongitudeDegrees>20.2976722083985805511474609375</LongitudeDegrees>
            </Position>
            <AltitudeMeters>517.5999755859375</AltitudeMeters>
            <DistanceMeters>NAN</DistanceMeters>
          </Trackpoint>
          <Trackpoint>
            <Time>2022-09-20T11:58:01.000Z</Time>
            <Position>
              <LatitudeDegrees>49.42967883311212062835693359375</LatitudeDegrees>
              <LongitudeDegrees>20.29735495336353778839111328125</LongitudeDegrees>
            </Position>
            <AltitudeMeters>517.5999755859375</AltitudeMeters>
            <DistanceMeters>NAN</DistanceMeters>
          </Trackpoint>
          <Trackpoint>
            <Time>2022-09-20T11:58:06.000Z</Time>
            <Position>
              <LatitudeDegrees>49.42965234629809856414794921875</LatitudeDegrees>
              <LongitudeDegrees>20.2971263788640499114990234375</LongitudeDegrees>
            </Position>
            <AltitudeMeters>517.4000244140625</AltitudeMeters>
            <DistanceMeters>NAN</DistanceMeters>
          </Trackpoint>
          <Trackpoint>
            <Time>2022-09-20T11:58:07.000Z</Time>
            <Position>
              <LatitudeDegrees>49.42964497022330760955810546875</LatitudeDegrees>
              <LongitudeDegrees>20.2970814518630504608154296875</LongitudeDegrees>
            </Position>
            <AltitudeMeters>517.4000244140625</AltitudeMeters>
            <DistanceMeters>NAN</DistanceMeters>
          </Trackpoint>
          <Trackpoint>
            <Time>2022-09-20T11:58:14.000Z</Time>
            <Position>
              <LatitudeDegrees>49.42960046231746673583984375</LatitudeDegrees>
              <LongitudeDegrees>20.2967857383191585540771484375</LongitudeDegrees>
            </Position>
            <AltitudeMeters>517.79998779296875</AltitudeMeters>
            <DistanceMeters>NAN</DistanceMeters>
          </Trackpoint>
          <Trackpoint>
            <Time>2022-09-20T11:58:21.000Z</Time>
            <Position>
              <LatitudeDegrees>49.42950733937323093414306640625</LatitudeDegrees>
              <LongitudeDegrees>20.29648072086274623870849609375</LongitudeDegrees>
            </Position>
            <AltitudeMeters>517.5999755859375</AltitudeMeters>
            <DistanceMeters>NAN</DistanceMeters>
          </Trackpoint>
          <Trackpoint>
            <Time>2022-09-20T11:58:28.000Z</Time>
            <Position>
              <LatitudeDegrees>49.42942284978926181793212890625</LatitudeDegrees>
              <LongitudeDegrees>20.29612314887344837188720703125</LongitudeDegrees>
            </Position>
            <AltitudeMeters>517.20001220703125</AltitudeMeters>
            <DistanceMeters>NAN</DistanceMeters>
          </Trackpoint>
          <Trackpoint>
            <Time>2022-09-20T11:58:37.000Z</Time>
            <Position>
              <LatitudeDegrees>49.42932310514152050018310546875</LatitudeDegrees>
              <LongitudeDegrees>20.295772366225719451904296875</LongitudeDegrees>
            </Position>
            <AltitudeMeters>517.4000244140625</AltitudeMeters>
            <DistanceMeters>NAN</DistanceMeters>
          </Trackpoint>
          <Trackpoint>
            <Time>2022-09-20T11:58:40.000Z</Time>
            <Position>
              <LatitudeDegrees>49.4293257035315036773681640625</LatitudeDegrees>
              <LongitudeDegrees>20.29578049667179584503173828125</LongitudeDegrees>
            </Position>
            <AltitudeMeters>517.4000244140625</AltitudeMeters>
            <DistanceMeters>NAN</DistanceMeters>
          </Trackpoint>
          <Trackpoint>
            <Time>2022-09-20T11:58:42.000Z</Time>
            <Position>
              <LatitudeDegrees>49.4293257035315036773681640625</LatitudeDegrees>
              <LongitudeDegrees>20.29578049667179584503173828125</LongitudeDegrees>
            </Position>
            <AltitudeMeters>517.4000244140625</AltitudeMeters>
            <DistanceMeters>NAN</DistanceMeters>
          </Trackpoint>
          <Trackpoint>
            <Time>2022-09-20T11:58:47.000Z</Time>
            <Position>
              <LatitudeDegrees>49.42934523336589336395263671875</LatitudeDegrees>
              <LongitudeDegrees>20.295815952122211456298828125</LongitudeDegrees>
            </Position>
            <AltitudeMeters>517.20001220703125</AltitudeMeters>
            <DistanceMeters>NAN</DistanceMeters>
          </Trackpoint>
          <Trackpoint>
            <Time>2022-09-20T11:58:48.000Z</Time>
            <Position>
              <LatitudeDegrees>49.42934523336589336395263671875</LatitudeDegrees>
              <LongitudeDegrees>20.295815952122211456298828125</LongitudeDegrees>
            </Position>
            <AltitudeMeters>517.20001220703125</AltitudeMeters>
            <DistanceMeters>NAN</DistanceMeters>
          </Trackpoint>
          <Trackpoint>
            <Time>2022-09-20T11:58:56.000Z</Time>
            <Position>
              <LatitudeDegrees>49.42934523336589336395263671875</LatitudeDegrees>
              <LongitudeDegrees>20.295815952122211456298828125</LongitudeDegrees>
            </Position>
            <AltitudeMeters>517.20001220703125</AltitudeMeters>
            <DistanceMeters>NAN</DistanceMeters>
          </Trackpoint>
          <Trackpoint>
            <Time>2022-09-20T11:59:03.000Z</Time>
            <Position>
              <LatitudeDegrees>49.4293422996997833251953125</LatitudeDegrees>
              <LongitudeDegrees>20.295815952122211456298828125</LongitudeDegrees>
            </Position>
            <AltitudeMeters>517.4000244140625</AltitudeMeters>
            <DistanceMeters>NAN</DistanceMeters>
          </Trackpoint>
          <Trackpoint>
            <Time>2022-09-20T11:59:20.000Z</Time>
            <Position>
              <LatitudeDegrees>49.42934221588075160980224609375</LatitudeDegrees>
              <LongitudeDegrees>20.295817293226718902587890625</LongitudeDegrees>
            </Position>
            <AltitudeMeters>517.20001220703125</AltitudeMeters>
            <DistanceMeters>NAN</DistanceMeters>
          </Trackpoint>
          <Trackpoint>
            <Time>2022-09-20T11:59:21.000Z</Time>
            <Position>
              <LatitudeDegrees>49.429343976080417633056640625</LatitudeDegrees>
              <LongitudeDegrees>20.295814611017704010009765625</LongitudeDegrees>
            </Position>
            <AltitudeMeters>517.20001220703125</AltitudeMeters>
            <DistanceMeters>NAN</DistanceMeters>
          </Trackpoint>
          <Trackpoint>
            <Time>2022-09-20T11:59:24.000Z</Time>
            <Position>
              <LatitudeDegrees>49.42934791557490825653076171875</LatitudeDegrees>
              <LongitudeDegrees>20.295795500278472900390625</LongitudeDegrees>
            </Position>
            <AltitudeMeters>517.20001220703125</AltitudeMeters>
            <DistanceMeters>NAN</DistanceMeters>
          </Trackpoint>
          <Trackpoint>
            <Time>2022-09-20T11:59:28.000Z</Time>
            <Position>
              <LatitudeDegrees>49.4293330796062946319580078125</LatitudeDegrees>
              <LongitudeDegrees>20.29577714391052722930908203125</LongitudeDegrees>
            </Position>
            <AltitudeMeters>517.4000244140625</AltitudeMeters>
            <DistanceMeters>NAN</DistanceMeters>
          </Trackpoint>
          <Trackpoint>
            <Time>2022-09-20T11:59:30.000Z</Time>
            <Position>
              <LatitudeDegrees>49.4293153099715709686279296875</LatitudeDegrees>
              <LongitudeDegrees>20.29574445448815822601318359375</LongitudeDegrees>
            </Position>
            <AltitudeMeters>517.4000244140625</AltitudeMeters>
            <DistanceMeters>NAN</DistanceMeters>
          </Trackpoint>
          <Trackpoint>
            <Time>2022-09-20T11:59:35.000Z</Time>
            <Position>
              <LatitudeDegrees>49.42928471602499485015869140625</LatitudeDegrees>
              <LongitudeDegrees>20.2956072427332401275634765625</LongitudeDegrees>
            </Position>
            <AltitudeMeters>517.20001220703125</AltitudeMeters>
            <DistanceMeters>NAN</DistanceMeters>
          </Trackpoint>
          <Trackpoint>
            <Time>2022-09-20T11:59:37.000Z</Time>
            <Position>
              <LatitudeDegrees>49.429263174533843994140625</LatitudeDegrees>
              <LongitudeDegrees>20.29548478312790393829345703125</LongitudeDegrees>
            </Position>
            <AltitudeMeters>517.20001220703125</AltitudeMeters>
            <DistanceMeters>NAN</DistanceMeters>
          </Trackpoint>
          <Trackpoint>
            <Time>2022-09-20T11:59:40.000Z</Time>
            <Position>
              <LatitudeDegrees>49.4292465783655643463134765625</LatitudeDegrees>
              <LongitudeDegrees>20.295387469232082366943359375</LongitudeDegrees>
            </Position>
            <AltitudeMeters>517</AltitudeMeters>
            <DistanceMeters>NAN</DistanceMeters>
          </Trackpoint>
          <Trackpoint>
            <Time>2022-09-20T11:59:41.000Z</Time>
            <Position>
              <LatitudeDegrees>49.4292388670146465301513671875</LatitudeDegrees>
              <LongitudeDegrees>20.29536240734159946441650390625</LongitudeDegrees>
            </Position>
            <AltitudeMeters>517</AltitudeMeters>
            <DistanceMeters>NAN</DistanceMeters>
          </Trackpoint>
          <Trackpoint>
            <Time>2022-09-20T11:59:50.000Z</Time>
            <Position>
              <LatitudeDegrees>49.42916485480964183807373046875</LatitudeDegrees>
              <LongitudeDegrees>20.29507733881473541259765625</LongitudeDegrees>
            </Position>
            <AltitudeMeters>517.20001220703125</AltitudeMeters>
            <DistanceMeters>NAN</DistanceMeters>
          </Trackpoint>
          <Trackpoint>
            <Time>2022-09-20T11:59:55.000Z</Time>
            <Position>
              <LatitudeDegrees>49.42913769744336605072021484375</LatitudeDegrees>
              <LongitudeDegrees>20.29487759806215763092041015625</LongitudeDegrees>
            </Position>
            <AltitudeMeters>517.20001220703125</AltitudeMeters>
            <DistanceMeters>NAN</DistanceMeters>
          </Trackpoint>
          <Trackpoint>
            <Time>2022-09-20T12:00:03.000Z</Time>
            <Position>
              <LatitudeDegrees>49.4290715642273426055908203125</LatitudeDegrees>
              <LongitudeDegrees>20.29455523006618022918701171875</LongitudeDegrees>
            </Position>
            <AltitudeMeters>517.4000244140625</AltitudeMeters>
            <DistanceMeters>NAN</DistanceMeters>
          </Trackpoint>
          <Trackpoint>
            <Time>2022-09-20T12:00:06.000Z</Time>
            <Position>
              <LatitudeDegrees>49.4290440715849399566650390625</LatitudeDegrees>
              <LongitudeDegrees>20.29439345933496952056884765625</LongitudeDegrees>
            </Position>
            <AltitudeMeters>517.4000244140625</AltitudeMeters>
            <DistanceMeters>NAN</DistanceMeters>
          </Trackpoint>
          <Trackpoint>
            <Time>2022-09-20T12:00:10.000Z</Time>
            <Position>
              <LatitudeDegrees>49.42899637855589389801025390625</LatitudeDegrees>
              <LongitudeDegrees>20.29419614933431148529052734375</LongitudeDegrees>
            </Position>
            <AltitudeMeters>517.4000244140625</AltitudeMeters>
            <DistanceMeters>NAN</DistanceMeters>
          </Trackpoint>
          <Trackpoint>
            <Time>2022-09-20T12:00:12.000Z</Time>
            <Position>
              <LatitudeDegrees>49.42898380570113658905029296875</LatitudeDegrees>
              <LongitudeDegrees>20.2941028587520122528076171875</LongitudeDegrees>
            </Position>
            <AltitudeMeters>517.20001220703125</AltitudeMeters>
            <DistanceMeters>NAN</DistanceMeters>
          </Trackpoint>
          <Trackpoint>
            <Time>2022-09-20T12:00:18.000Z</Time>
            <Position>
              <LatitudeDegrees>49.4289240427315235137939453125</LatitudeDegrees>
              <LongitudeDegrees>20.2938510663807392120361328125</LongitudeDegrees>
            </Position>
            <AltitudeMeters>517</AltitudeMeters>
            <DistanceMeters>NAN</DistanceMeters>
          </Trackpoint>
          <Trackpoint>
            <Time>2022-09-20T12:00:25.000Z</Time>
            <Position>
              <LatitudeDegrees>49.42885036580264568328857421875</LatitudeDegrees>
              <LongitudeDegrees>20.29347740113735198974609375</LongitudeDegrees>
            </Position>
            <AltitudeMeters>516.79998779296875</AltitudeMeters>
            <DistanceMeters>NAN</DistanceMeters>
          </Trackpoint>
          <Trackpoint>
            <Time>2022-09-20T12:00:26.000Z</Time>
            <Position>
              <LatitudeDegrees>49.428843073546886444091796875</LatitudeDegrees>
              <LongitudeDegrees>20.29341713525354862213134765625</LongitudeDegrees>
            </Position>
            <AltitudeMeters>517</AltitudeMeters>
            <DistanceMeters>NAN</DistanceMeters>
          </Trackpoint>
          <Trackpoint>
            <Time>2022-09-20T12:00:28.000Z</Time>
            <Position>
              <LatitudeDegrees>49.42882404662668704986572265625</LatitudeDegrees>
              <LongitudeDegrees>20.29330364428460597991943359375</LongitudeDegrees>
            </Position>
            <AltitudeMeters>517</AltitudeMeters>
            <DistanceMeters>NAN</DistanceMeters>
          </Trackpoint>
          <Trackpoint>
            <Time>2022-09-20T12:00:32.000Z</Time>
            <Position>
              <LatitudeDegrees>49.42879504524171352386474609375</LatitudeDegrees>
              <LongitudeDegrees>20.29308973811566829681396484375</LongitudeDegrees>
            </Position>
            <AltitudeMeters>517.4000244140625</AltitudeMeters>
            <DistanceMeters>NAN</DistanceMeters>
          </Trackpoint>
          <Trackpoint>
            <Time>2022-09-20T12:00:33.000Z</Time>
            <Position>
              <LatitudeDegrees>49.428789429366588592529296875</LatitudeDegrees>
              <LongitudeDegrees>20.29304397292435169219970703125</LongitudeDegrees>
            </Position>
            <AltitudeMeters>517.4000244140625</AltitudeMeters>
            <DistanceMeters>NAN</DistanceMeters>
          </Trackpoint>
          <Trackpoint>
            <Time>2022-09-20T12:00:39.000Z</Time>
            <Position>
              <LatitudeDegrees>49.4287577457726001739501953125</LatitudeDegrees>
              <LongitudeDegrees>20.292777009308338165283203125</LongitudeDegrees>
            </Position>
            <AltitudeMeters>517.5999755859375</AltitudeMeters>
            <DistanceMeters>NAN</DistanceMeters>
          </Trackpoint>
          <Trackpoint>
            <Time>2022-09-20T12:00:45.000Z</Time>
            <Position>
              <LatitudeDegrees>49.428707621991634368896484375</LatitudeDegrees>
              <LongitudeDegrees>20.29248557053506374359130859375</LongitudeDegrees>
            </Position>
            <AltitudeMeters>517.5999755859375</AltitudeMeters>
            <DistanceMeters>NAN</DistanceMeters>
          </Trackpoint>
          <Trackpoint>
            <Time>2022-09-20T12:00:48.000Z</Time>
            <Position>
              <LatitudeDegrees>49.42868004553020000457763671875</LatitudeDegrees>
              <LongitudeDegrees>20.29234550893306732177734375</LongitudeDegrees>
            </Position>
            <AltitudeMeters>517.79998779296875</AltitudeMeters>
            <DistanceMeters>NAN</DistanceMeters>
          </Trackpoint>
          <Trackpoint>
            <Time>2022-09-20T12:00:57.000Z</Time>
            <Position>
              <LatitudeDegrees>49.4286008365452289581298828125</LatitudeDegrees>
              <LongitudeDegrees>20.29196036048233509063720703125</LongitudeDegrees>
            </Position>
            <AltitudeMeters>518.4000244140625</AltitudeMeters>
            <DistanceMeters>NAN</DistanceMeters>
          </Trackpoint>
          <Trackpoint>
            <Time>2022-09-20T12:01:04.000Z</Time>
            <Position>
              <LatitudeDegrees>49.42853922955691814422607421875</LatitudeDegrees>
              <LongitudeDegrees>20.29170337133109569549560546875</LongitudeDegrees>
            </Position>
            <AltitudeMeters>518.5999755859375</AltitudeMeters>
            <DistanceMeters>NAN</DistanceMeters>
          </Trackpoint>
          <Trackpoint>
            <Time>2022-09-20T12:01:05.000Z</Time>
            <Position>
              <LatitudeDegrees>49.428532607853412628173828125</LatitudeDegrees>
              <LongitudeDegrees>20.291663222014904022216796875</LongitudeDegrees>
            </Position>
            <AltitudeMeters>518.5999755859375</AltitudeMeters>
            <DistanceMeters>NAN</DistanceMeters>
          </Trackpoint>
          <Trackpoint>
            <Time>2022-09-20T12:01:08.000Z</Time>
            <Position>
              <LatitudeDegrees>49.42851341329514980316162109375</LatitudeDegrees>
              <LongitudeDegrees>20.291538499295711517333984375</LongitudeDegrees>
            </Position>
            <AltitudeMeters>518.79998779296875</AltitudeMeters>
            <DistanceMeters>NAN</DistanceMeters>
          </Trackpoint>
          <Trackpoint>
            <Time>2022-09-20T12:01:14.000Z</Time>
            <Position>
              <LatitudeDegrees>49.428479969501495361328125</LatitudeDegrees>
              <LongitudeDegrees>20.2913136966526508331298828125</LongitudeDegrees>
            </Position>
            <AltitudeMeters>519.20001220703125</AltitudeMeters>
            <DistanceMeters>NAN</DistanceMeters>
          </Trackpoint>
          <Trackpoint>
            <Time>2022-09-20T12:01:18.000Z</Time>
            <Position>
              <LatitudeDegrees>49.428465552628040313720703125</LatitudeDegrees>
              <LongitudeDegrees>20.29121319763362407684326171875</LongitudeDegrees>
            </Position>
            <AltitudeMeters>519.79998779296875</AltitudeMeters>
            <DistanceMeters>NAN</DistanceMeters>
          </Trackpoint>
          <Trackpoint>
            <Time>2022-09-20T12:01:20.000Z</Time>
            <Position>
              <LatitudeDegrees>49.4284652173519134521484375</LatitudeDegrees>
              <LongitudeDegrees>20.2911748923361301422119140625</LongitudeDegrees>
            </Position>
            <AltitudeMeters>520</AltitudeMeters>
            <DistanceMeters>NAN</DistanceMeters>
          </Trackpoint>
          <Trackpoint>
            <Time>2022-09-20T12:01:26.000Z</Time>
            <Position>
              <LatitudeDegrees>49.42844568751752376556396484375</LatitudeDegrees>
              <LongitudeDegrees>20.29106936417520046234130859375</LongitudeDegrees>
            </Position>
            <AltitudeMeters>520.5999755859375</AltitudeMeters>
            <DistanceMeters>NAN</DistanceMeters>
          </Trackpoint>
          <Trackpoint>
            <Time>2022-09-20T12:01:28.000Z</Time>
            <Position>
              <LatitudeDegrees>49.4284276664257049560546875</LatitudeDegrees>
              <LongitudeDegrees>20.291055701673030853271484375</LongitudeDegrees>
            </Position>
            <AltitudeMeters>520.79998779296875</AltitudeMeters>
            <DistanceMeters>NAN</DistanceMeters>
          </Trackpoint>
          <Trackpoint>
            <Time>2022-09-20T12:01:32.000Z</Time>
            <Position>
              <LatitudeDegrees>49.42836237139999866485595703125</LatitudeDegrees>
              <LongitudeDegrees>20.2910183183848857879638671875</LongitudeDegrees>
            </Position>
            <AltitudeMeters>520.79998779296875</AltitudeMeters>
            <DistanceMeters>NAN</DistanceMeters>
          </Trackpoint>
          <Trackpoint>
            <Time>2022-09-20T12:01:36.000Z</Time>
            <Position>
              <LatitudeDegrees>49.4282202981412410736083984375</LatitudeDegrees>
              <LongitudeDegrees>20.29083316214382648468017578125</LongitudeDegrees>
            </Position>
            <AltitudeMeters>520</AltitudeMeters>
            <DistanceMeters>NAN</DistanceMeters>
          </Trackpoint>
          <Trackpoint>
            <Time>2022-09-20T12:01:38.000Z</Time>
            <Position>
              <LatitudeDegrees>49.42812952212989330291748046875</LatitudeDegrees>
              <LongitudeDegrees>20.2906850539147853851318359375</LongitudeDegrees>
            </Position>
            <AltitudeMeters>518.79998779296875</AltitudeMeters>
            <DistanceMeters>NAN</DistanceMeters>
          </Trackpoint>
          <Trackpoint>
            <Time>2022-09-20T12:01:39.000Z</Time>
            <Position>
              <LatitudeDegrees>49.42808778025209903717041015625</LatitudeDegrees>
              <LongitudeDegrees>20.2906206808984279632568359375</LongitudeDegrees>
            </Position>
            <AltitudeMeters>518.20001220703125</AltitudeMeters>
            <DistanceMeters>NAN</DistanceMeters>
          </Trackpoint>
          <Trackpoint>
            <Time>2022-09-20T12:01:41.000Z</Time>
            <Position>
              <LatitudeDegrees>49.42800781689584255218505859375</LatitudeDegrees>
              <LongitudeDegrees>20.29051330871880054473876953125</LongitudeDegrees>
            </Position>
            <AltitudeMeters>517.5999755859375</AltitudeMeters>
            <DistanceMeters>NAN</DistanceMeters>
          </Trackpoint>
          <Trackpoint>
            <Time>2022-09-20T12:01:42.000Z</Time>
            <Position>
              <LatitudeDegrees>49.42796171642839908599853515625</LatitudeDegrees>
              <LongitudeDegrees>20.29046519659459590911865234375</LongitudeDegrees>
            </Position>
            <AltitudeMeters>517.5999755859375</AltitudeMeters>
            <DistanceMeters>NAN</DistanceMeters>
          </Trackpoint>
          <Trackpoint>
            <Time>2022-09-20T12:01:44.000Z</Time>
            <Position>
              <LatitudeDegrees>49.42786582745611667633056640625</LatitudeDegrees>
              <LongitudeDegrees>20.29038506560027599334716796875</LongitudeDegrees>
            </Position>
            <AltitudeMeters>517.5999755859375</AltitudeMeters>
            <DistanceMeters>NAN</DistanceMeters>
          </Trackpoint>
          <Trackpoint>
            <Time>2022-09-20T12:01:45.000Z</Time>
            <Position>
              <LatitudeDegrees>49.4278241693973541259765625</LatitudeDegrees>
              <LongitudeDegrees>20.2903729118406772613525390625</LongitudeDegrees>
            </Position>
            <AltitudeMeters>517.5999755859375</AltitudeMeters>
            <DistanceMeters>NAN</DistanceMeters>
          </Trackpoint>
          <Trackpoint>
            <Time>2022-09-20T12:01:46.000Z</Time>
            <Position>
              <LatitudeDegrees>49.4277894683182239532470703125</LatitudeDegrees>
              <LongitudeDegrees>20.2903977222740650177001953125</LongitudeDegrees>
            </Position>
            <AltitudeMeters>517.5999755859375</AltitudeMeters>
            <DistanceMeters>NAN</DistanceMeters>
          </Trackpoint>
          <Trackpoint>
            <Time>2022-09-20T12:01:48.000Z</Time>
            <Position>
              <LatitudeDegrees>49.42774630151689052581787109375</LatitudeDegrees>
              <LongitudeDegrees>20.29047156684100627899169921875</LongitudeDegrees>
            </Position>
            <AltitudeMeters>518</AltitudeMeters>
            <DistanceMeters>NAN</DistanceMeters>
          </Trackpoint>
          <Trackpoint>
            <Time>2022-09-20T12:01:53.000Z</Time>
            <Position>
              <LatitudeDegrees>49.427691064774990081787109375</LatitudeDegrees>
              <LongitudeDegrees>20.2907742373645305633544921875</LongitudeDegrees>
            </Position>
            <AltitudeMeters>518.20001220703125</AltitudeMeters>
            <DistanceMeters>NAN</DistanceMeters>
          </Trackpoint>
          <Trackpoint>
            <Time>2022-09-20T12:01:55.000Z</Time>
            <Position>
              <LatitudeDegrees>49.4276954233646392822265625</LatitudeDegrees>
              <LongitudeDegrees>20.29091656208038330078125</LongitudeDegrees>
            </Position>
            <AltitudeMeters>518.20001220703125</AltitudeMeters>
            <DistanceMeters>NAN</DistanceMeters>
          </Trackpoint>
          <Trackpoint>
            <Time>2022-09-20T12:01:59.000Z</Time>
            <Position>
              <LatitudeDegrees>49.427719898521900177001953125</LatitudeDegrees>
              <LongitudeDegrees>20.291185788810253143310546875</LongitudeDegrees>
            </Position>
            <AltitudeMeters>518</AltitudeMeters>
            <DistanceMeters>NAN</DistanceMeters>
          </Trackpoint>
          <Trackpoint>
            <Time>2022-09-20T12:02:00.000Z</Time>
            <Position>
              <LatitudeDegrees>49.42772937007248401641845703125</LatitudeDegrees>
              <LongitudeDegrees>20.29125443659722805023193359375</LongitudeDegrees>
            </Position>
            <AltitudeMeters>518.20001220703125</AltitudeMeters>
            <DistanceMeters>NAN</DistanceMeters>
          </Trackpoint>
          <Trackpoint>
            <Time>2022-09-20T12:02:08.000Z</Time>
            <Position>
              <LatitudeDegrees>49.42778955213725566864013671875</LatitudeDegrees>
              <LongitudeDegrees>20.2917656488716602325439453125</LongitudeDegrees>
            </Position>
            <AltitudeMeters>518</AltitudeMeters>
            <DistanceMeters>NAN</DistanceMeters>
          </Trackpoint>
          <Trackpoint>
            <Time>2022-09-20T12:02:12.000Z</Time>
            <Position>
              <LatitudeDegrees>49.4278283603489398956298828125</LatitudeDegrees>
              <LongitudeDegrees>20.2920271642506122589111328125</LongitudeDegrees>
            </Position>
            <AltitudeMeters>518</AltitudeMeters>
            <DistanceMeters>NAN</DistanceMeters>
          </Trackpoint>
          <Trackpoint>
            <Time>2022-09-20T12:02:14.000Z</Time>
            <Position>
              <LatitudeDegrees>49.42782626487314701080322265625</LatitudeDegrees>
              <LongitudeDegrees>20.29216655530035495758056640625</LongitudeDegrees>
            </Position>
            <AltitudeMeters>517.79998779296875</AltitudeMeters>
            <DistanceMeters>NAN</DistanceMeters>
          </Trackpoint>
          <Trackpoint>
            <Time>2022-09-20T12:02:17.000Z</Time>
            <Position>
              <LatitudeDegrees>49.42780346609652042388916015625</LatitudeDegrees>
              <LongitudeDegrees>20.2923433296382427215576171875</LongitudeDegrees>
            </Position>
            <AltitudeMeters>517.79998779296875</AltitudeMeters>
            <DistanceMeters>NAN</DistanceMeters>
          </Trackpoint>
          <Trackpoint>
            <Time>2022-09-20T12:02:18.000Z</Time>
            <Position>
              <LatitudeDegrees>49.42779558710753917694091796875</LatitudeDegrees>
              <LongitudeDegrees>20.2924025058746337890625</LongitudeDegrees>
            </Position>
            <AltitudeMeters>517.79998779296875</AltitudeMeters>
            <DistanceMeters>NAN</DistanceMeters>
          </Trackpoint>
          <Trackpoint>
            <Time>2022-09-20T12:02:20.000Z</Time>
            <Position>
              <LatitudeDegrees>49.42777496762573719024658203125</LatitudeDegrees>
              <LongitudeDegrees>20.2925260551273822784423828125</LongitudeDegrees>
            </Position>
            <AltitudeMeters>517.79998779296875</AltitudeMeters>
            <DistanceMeters>NAN</DistanceMeters>
          </Trackpoint>
          <Trackpoint>
            <Time>2022-09-20T12:02:24.000Z</Time>
            <Position>
              <LatitudeDegrees>49.42772467620670795440673828125</LatitudeDegrees>
              <LongitudeDegrees>20.2927989698946475982666015625</LongitudeDegrees>
            </Position>
            <AltitudeMeters>517.5999755859375</AltitudeMeters>
            <DistanceMeters>NAN</DistanceMeters>
          </Trackpoint>
          <Trackpoint>
            <Time>2022-09-20T12:02:29.000Z</Time>
            <Position>
              <LatitudeDegrees>49.42769718356430530548095703125</LatitudeDegrees>
              <LongitudeDegrees>20.29305822215974330902099609375</LongitudeDegrees>
            </Position>
            <AltitudeMeters>518.4000244140625</AltitudeMeters>
            <DistanceMeters>NAN</DistanceMeters>
          </Trackpoint>
          <Trackpoint>
            <Time>2022-09-20T12:02:30.000Z</Time>
            <Position>
              <LatitudeDegrees>49.42769651301205158233642578125</LatitudeDegrees>
              <LongitudeDegrees>20.29311002232134342193603515625</LongitudeDegrees>
            </Position>
            <AltitudeMeters>518.79998779296875</AltitudeMeters>
            <DistanceMeters>NAN</DistanceMeters>
          </Trackpoint>
          <Trackpoint>
            <Time>2022-09-20T12:02:35.000Z</Time>
            <Position>
              <LatitudeDegrees>49.42772735841572284698486328125</LatitudeDegrees>
              <LongitudeDegrees>20.293365418910980224609375</LongitudeDegrees>
            </Position>
            <AltitudeMeters>519.4000244140625</AltitudeMeters>
            <DistanceMeters>NAN</DistanceMeters>
          </Trackpoint>
          <Trackpoint>
            <Time>2022-09-20T12:02:41.000Z</Time>
            <Position>
              <LatitudeDegrees>49.42774898372590541839599609375</LatitudeDegrees>
              <LongitudeDegrees>20.29370002448558807373046875</LongitudeDegrees>
            </Position>
            <AltitudeMeters>519.4000244140625</AltitudeMeters>
            <DistanceMeters>NAN</DistanceMeters>
          </Trackpoint>
          <Trackpoint>
            <Time>2022-09-20T12:02:43.000Z</Time>
            <Position>
              <LatitudeDegrees>49.42774169147014617919921875</LatitudeDegrees>
              <LongitudeDegrees>20.29383002780377864837646484375</LongitudeDegrees>
            </Position>
            <AltitudeMeters>519.4000244140625</AltitudeMeters>
            <DistanceMeters>NAN</DistanceMeters>
          </Trackpoint>
          <Trackpoint>
            <Time>2022-09-20T12:02:48.000Z</Time>
            <Position>
              <LatitudeDegrees>49.42771880887448787689208984375</LatitudeDegrees>
              <LongitudeDegrees>20.2941484563052654266357421875</LongitudeDegrees>
            </Position>
            <AltitudeMeters>519</AltitudeMeters>
            <DistanceMeters>NAN</DistanceMeters>
          </Trackpoint>
          <Trackpoint>
            <Time>2022-09-20T12:02:51.000Z</Time>
            <Position>
              <LatitudeDegrees>49.42769475281238555908203125</LatitudeDegrees>
              <LongitudeDegrees>20.29433696530759334564208984375</LongitudeDegrees>
            </Position>
            <AltitudeMeters>518.5999755859375</AltitudeMeters>
            <DistanceMeters>NAN</DistanceMeters>
          </Trackpoint>
          <Trackpoint>
            <Time>2022-09-20T12:02:55.000Z</Time>
            <Position>
              <LatitudeDegrees>49.4276821799576282501220703125</LatitudeDegrees>
              <LongitudeDegrees>20.294612981379032135009765625</LongitudeDegrees>
            </Position>
            <AltitudeMeters>518.20001220703125</AltitudeMeters>
            <DistanceMeters>NAN</DistanceMeters>
          </Trackpoint>
          <Trackpoint>
            <Time>2022-09-20T12:02:57.000Z</Time>
            <Position>
              <LatitudeDegrees>49.4277063198387622833251953125</LatitudeDegrees>
              <LongitudeDegrees>20.29474449343979358673095703125</LongitudeDegrees>
            </Position>
            <AltitudeMeters>518.20001220703125</AltitudeMeters>
            <DistanceMeters>NAN</DistanceMeters>
          </Trackpoint>
          <Trackpoint>
            <Time>2022-09-20T12:02:58.000Z</Time>
            <Position>
              <LatitudeDegrees>49.42771780304610729217529296875</LatitudeDegrees>
              <LongitudeDegrees>20.2948039211332798004150390625</LongitudeDegrees>
            </Position>
            <AltitudeMeters>518.20001220703125</AltitudeMeters>
            <DistanceMeters>NAN</DistanceMeters>
          </Trackpoint>
          <Trackpoint>
            <Time>2022-09-20T12:03:01.000Z</Time>
            <Position>
              <LatitudeDegrees>49.42774730734527111053466796875</LatitudeDegrees>
              <LongitudeDegrees>20.29491498135030269622802734375</LongitudeDegrees>
            </Position>
            <AltitudeMeters>518.20001220703125</AltitudeMeters>
            <DistanceMeters>NAN</DistanceMeters>
          </Trackpoint>
          <Trackpoint>
            <Time>2022-09-20T12:03:03.000Z</Time>
            <Position>
              <LatitudeDegrees>49.42779743112623691558837890625</LatitudeDegrees>
              <LongitudeDegrees>20.2950738184154033660888671875</LongitudeDegrees>
            </Position>
            <AltitudeMeters>518</AltitudeMeters>
            <DistanceMeters>NAN</DistanceMeters>
          </Trackpoint>
          <Trackpoint>
            <Time>2022-09-20T12:03:10.000Z</Time>
            <Position>
              <LatitudeDegrees>49.427905641496181488037109375</LatitudeDegrees>
              <LongitudeDegrees>20.29538922943174839019775390625</LongitudeDegrees>
            </Position>
            <AltitudeMeters>518</AltitudeMeters>
            <DistanceMeters>NAN</DistanceMeters>
          </Trackpoint>
          <Trackpoint>
            <Time>2022-09-20T12:03:12.000Z</Time>
            <Position>
              <LatitudeDegrees>49.4279229082167148590087890625</LatitudeDegrees>
              <LongitudeDegrees>20.29547103680670261383056640625</LongitudeDegrees>
            </Position>
            <AltitudeMeters>518</AltitudeMeters>
            <DistanceMeters>NAN</DistanceMeters>
          </Trackpoint>
          <Trackpoint>
            <Time>2022-09-20T12:03:14.000Z</Time>
            <Position>
              <LatitudeDegrees>49.4279363192617893218994140625</LatitudeDegrees>
              <LongitudeDegrees>20.2955851145088672637939453125</LongitudeDegrees>
            </Position>
            <AltitudeMeters>517.79998779296875</AltitudeMeters>
            <DistanceMeters>NAN</DistanceMeters>
          </Trackpoint>
          <Trackpoint>
            <Time>2022-09-20T12:03:18.000Z</Time>
            <Position>
              <LatitudeDegrees>49.42793455906212329864501953125</LatitudeDegrees>
              <LongitudeDegrees>20.29579273425042629241943359375</LongitudeDegrees>
            </Position>
            <AltitudeMeters>517.5999755859375</AltitudeMeters>
            <DistanceMeters>NAN</DistanceMeters>
          </Trackpoint>
          <Trackpoint>
            <Time>2022-09-20T12:03:23.000Z</Time>
            <Position>
              <LatitudeDegrees>49.42784051410853862762451171875</LatitudeDegrees>
              <LongitudeDegrees>20.29601837508380413055419921875</LongitudeDegrees>
            </Position>
            <AltitudeMeters>518.20001220703125</AltitudeMeters>
            <DistanceMeters>NAN</DistanceMeters>
          </Trackpoint>
          <Trackpoint>
            <Time>2022-09-20T12:03:24.000Z</Time>
            <Position>
              <LatitudeDegrees>49.42781000398099422454833984375</LatitudeDegrees>
              <LongitudeDegrees>20.29607470147311687469482421875</LongitudeDegrees>
            </Position>
            <AltitudeMeters>518.4000244140625</AltitudeMeters>
            <DistanceMeters>NAN</DistanceMeters>
          </Trackpoint>
          <Trackpoint>
            <Time>2022-09-20T12:03:25.000Z</Time>
            <Position>
              <LatitudeDegrees>49.42778368480503559112548828125</LatitudeDegrees>
              <LongitudeDegrees>20.2961239032447338104248046875</LongitudeDegrees>
            </Position>
            <AltitudeMeters>518.4000244140625</AltitudeMeters>
            <DistanceMeters>NAN</DistanceMeters>
          </Trackpoint>
          <Trackpoint>
            <Time>2022-09-20T12:03:31.000Z</Time>
            <Position>
              <LatitudeDegrees>49.42764068953692913055419921875</LatitudeDegrees>
              <LongitudeDegrees>20.2964266575872898101806640625</LongitudeDegrees>
            </Position>
            <AltitudeMeters>518.4000244140625</AltitudeMeters>
            <DistanceMeters>NAN</DistanceMeters>
          </Trackpoint>
          <Trackpoint>
            <Time>2022-09-20T12:03:36.000Z</Time>
            <Position>
              <LatitudeDegrees>49.427554942667484283447265625</LatitudeDegrees>
              <LongitudeDegrees>20.29664835892617702484130859375</LongitudeDegrees>
            </Position>
            <AltitudeMeters>518.4000244140625</AltitudeMeters>
            <DistanceMeters>NAN</DistanceMeters>
          </Trackpoint>
          <Trackpoint>
            <Time>2022-09-20T12:03:43.000Z</Time>
            <Position>
              <LatitudeDegrees>49.4274877198040485382080078125</LatitudeDegrees>
              <LongitudeDegrees>20.2969278953969478607177734375</LongitudeDegrees>
            </Position>
            <AltitudeMeters>518.5999755859375</AltitudeMeters>
            <DistanceMeters>NAN</DistanceMeters>
          </Trackpoint>
          <Trackpoint>
            <Time>2022-09-20T12:03:50.000Z</Time>
            <Position>
              <LatitudeDegrees>49.4274505041539669036865234375</LatitudeDegrees>
              <LongitudeDegrees>20.297235511243343353271484375</LongitudeDegrees>
            </Position>
            <AltitudeMeters>518.5999755859375</AltitudeMeters>
            <DistanceMeters>NAN</DistanceMeters>
          </Trackpoint>
          <Trackpoint>
            <Time>2022-09-20T12:03:52.000Z</Time>
            <Position>
              <LatitudeDegrees>49.4274391047656536102294921875</LatitudeDegrees>
              <LongitudeDegrees>20.2973345853388309478759765625</LongitudeDegrees>
            </Position>
            <AltitudeMeters>518.5999755859375</AltitudeMeters>
            <DistanceMeters>NAN</DistanceMeters>
          </Trackpoint>
          <Trackpoint>
            <Time>2022-09-20T12:03:55.000Z</Time>
            <Position>
              <LatitudeDegrees>49.4274350814521312713623046875</LatitudeDegrees>
              <LongitudeDegrees>20.29745872132480144500732421875</LongitudeDegrees>
            </Position>
            <AltitudeMeters>518.79998779296875</AltitudeMeters>
            <DistanceMeters>NAN</DistanceMeters>
          </Trackpoint>
          <Trackpoint>
            <Time>2022-09-20T12:04:02.000Z</Time>
            <Position>
              <LatitudeDegrees>49.427423179149627685546875</LatitudeDegrees>
              <LongitudeDegrees>20.2977550216019153594970703125</LongitudeDegrees>
            </Position>
            <AltitudeMeters>518.5999755859375</AltitudeMeters>
            <DistanceMeters>NAN</DistanceMeters>
          </Trackpoint>
          <Trackpoint>
            <Time>2022-09-20T12:04:04.000Z</Time>
            <Position>
              <LatitudeDegrees>49.42741471342742443084716796875</LatitudeDegrees>
              <LongitudeDegrees>20.29790363274514675140380859375</LongitudeDegrees>
            </Position>
            <AltitudeMeters>518.5999755859375</AltitudeMeters>
            <DistanceMeters>NAN</DistanceMeters>
          </Trackpoint>
          <Trackpoint>
            <Time>2022-09-20T12:04:06.000Z</Time>
            <Position>
              <LatitudeDegrees>49.42740549333393573760986328125</LatitudeDegrees>
              <LongitudeDegrees>20.29800706543028354644775390625</LongitudeDegrees>
            </Position>
            <AltitudeMeters>518.5999755859375</AltitudeMeters>
            <DistanceMeters>NAN</DistanceMeters>
          </Trackpoint>
          <Trackpoint>
            <Time>2022-09-20T12:04:08.000Z</Time>
            <Position>
              <LatitudeDegrees>49.42738336510956287384033203125</LatitudeDegrees>
              <LongitudeDegrees>20.29810815118253231048583984375</LongitudeDegrees>
            </Position>
            <AltitudeMeters>518.5999755859375</AltitudeMeters>
            <DistanceMeters>NAN</DistanceMeters>
          </Trackpoint>
          <Trackpoint>
            <Time>2022-09-20T12:04:14.000Z</Time>
            <Position>
              <LatitudeDegrees>49.42729569040238857269287109375</LatitudeDegrees>
              <LongitudeDegrees>20.2984098158776760101318359375</LongitudeDegrees>
            </Position>
            <AltitudeMeters>518.5999755859375</AltitudeMeters>
            <DistanceMeters>NAN</DistanceMeters>
          </Trackpoint>
          <Trackpoint>
            <Time>2022-09-20T12:04:15.000Z</Time>
            <Position>
              <LatitudeDegrees>49.4272714667022228240966796875</LatitudeDegrees>
              <LongitudeDegrees>20.29845633544027805328369140625</LongitudeDegrees>
            </Position>
            <AltitudeMeters>518.5999755859375</AltitudeMeters>
            <DistanceMeters>NAN</DistanceMeters>
          </Trackpoint>
          <Trackpoint>
            <Time>2022-09-20T12:04:19.000Z</Time>
            <Position>
              <LatitudeDegrees>49.42714028991758823394775390625</LatitudeDegrees>
              <LongitudeDegrees>20.298544429242610931396484375</LongitudeDegrees>
            </Position>
            <AltitudeMeters>518.4000244140625</AltitudeMeters>
            <DistanceMeters>NAN</DistanceMeters>
          </Trackpoint>
          <Trackpoint>
            <Time>2022-09-20T12:04:24.000Z</Time>
            <Position>
              <LatitudeDegrees>49.426985643804073333740234375</LatitudeDegrees>
              <LongitudeDegrees>20.2986411564052104949951171875</LongitudeDegrees>
            </Position>
            <AltitudeMeters>518.4000244140625</AltitudeMeters>
            <DistanceMeters>NAN</DistanceMeters>
          </Trackpoint>
          <Trackpoint>
            <Time>2022-09-20T12:04:25.000Z</Time>
            <Position>
              <LatitudeDegrees>49.42696007899940013885498046875</LatitudeDegrees>
              <LongitudeDegrees>20.29867686331272125244140625</LongitudeDegrees>
            </Position>
            <AltitudeMeters>518.5999755859375</AltitudeMeters>
            <DistanceMeters>NAN</DistanceMeters>
          </Trackpoint>
          <Trackpoint>
            <Time>2022-09-20T12:04:30.000Z</Time>
            <Position>
              <LatitudeDegrees>49.42686058580875396728515625</LatitudeDegrees>
              <LongitudeDegrees>20.29886185191571712493896484375</LongitudeDegrees>
            </Position>
            <AltitudeMeters>518.79998779296875</AltitudeMeters>
            <DistanceMeters>NAN</DistanceMeters>
          </Trackpoint>
          <Trackpoint>
            <Time>2022-09-20T12:04:32.000Z</Time>
            <Position>
              <LatitudeDegrees>49.42683049477636814117431640625</LatitudeDegrees>
              <LongitudeDegrees>20.2989315055310726165771484375</LongitudeDegrees>
            </Position>
            <AltitudeMeters>518.79998779296875</AltitudeMeters>
            <DistanceMeters>NAN</DistanceMeters>
          </Trackpoint>
          <Trackpoint>
            <Time>2022-09-20T12:04:37.000Z</Time>
            <Position>
              <LatitudeDegrees>49.426773749291896820068359375</LatitudeDegrees>
              <LongitudeDegrees>20.2991494350135326385498046875</LongitudeDegrees>
            </Position>
            <AltitudeMeters>519.20001220703125</AltitudeMeters>
            <DistanceMeters>NAN</DistanceMeters>
          </Trackpoint>
          <Trackpoint>
            <Time>2022-09-20T12:04:39.000Z</Time>
            <Position>
              <LatitudeDegrees>49.426789842545986175537109375</LatitudeDegrees>
              <LongitudeDegrees>20.299235098063945770263671875</LongitudeDegrees>
            </Position>
            <AltitudeMeters>519.4000244140625</AltitudeMeters>
            <DistanceMeters>NAN</DistanceMeters>
          </Trackpoint>
          <Trackpoint>
            <Time>2022-09-20T12:04:42.000Z</Time>
            <Position>
              <LatitudeDegrees>49.4268478453159332275390625</LatitudeDegrees>
              <LongitudeDegrees>20.29937465675175189971923828125</LongitudeDegrees>
            </Position>
            <AltitudeMeters>519.4000244140625</AltitudeMeters>
            <DistanceMeters>NAN</DistanceMeters>
          </Trackpoint>
          <Trackpoint>
            <Time>2022-09-20T12:04:44.000Z</Time>
            <Position>
              <LatitudeDegrees>49.42688397131860256195068359375</LatitudeDegrees>
              <LongitudeDegrees>20.29947138391435146331787109375</LongitudeDegrees>
            </Position>
            <AltitudeMeters>519.5999755859375</AltitudeMeters>
            <DistanceMeters>NAN</DistanceMeters>
          </Trackpoint>
          <Trackpoint>
            <Time>2022-09-20T12:04:46.000Z</Time>
            <Position>
              <LatitudeDegrees>49.426914565265178680419921875</LatitudeDegrees>
              <LongitudeDegrees>20.29956274665892124176025390625</LongitudeDegrees>
            </Position>
            <AltitudeMeters>519.5999755859375</AltitudeMeters>
            <DistanceMeters>NAN</DistanceMeters>
          </Trackpoint>
          <Trackpoint>
            <Time>2022-09-20T12:04:47.000Z</Time>
            <Position>
              <LatitudeDegrees>49.42692185752093791961669921875</LatitudeDegrees>
              <LongitudeDegrees>20.2995916642248630523681640625</LongitudeDegrees>
            </Position>
            <AltitudeMeters>519.79998779296875</AltitudeMeters>
            <DistanceMeters>NAN</DistanceMeters>
          </Trackpoint>
          <Trackpoint>
            <Time>2022-09-20T12:04:48.000Z</Time>
            <Position>
              <LatitudeDegrees>49.42693526856601238250732421875</LatitudeDegrees>
              <LongitudeDegrees>20.29963038861751556396484375</LongitudeDegrees>
            </Position>
            <AltitudeMeters>520</AltitudeMeters>
            <DistanceMeters>NAN</DistanceMeters>
          </Trackpoint>
          <Trackpoint>
            <Time>2022-09-20T12:04:51.000Z</Time>
            <Position>
              <LatitudeDegrees>49.42695471458137035369873046875</LatitudeDegrees>
              <LongitudeDegrees>20.299740694463253021240234375</LongitudeDegrees>
            </Position>
            <AltitudeMeters>520.79998779296875</AltitudeMeters>
            <DistanceMeters>NAN</DistanceMeters>
          </Trackpoint>
          <Trackpoint>
            <Time>2022-09-20T12:04:52.000Z</Time>
            <Position>
              <LatitudeDegrees>49.42695706151425838470458984375</LatitudeDegrees>
              <LongitudeDegrees>20.299775898456573486328125</LongitudeDegrees>
            </Position>
            <AltitudeMeters>521</AltitudeMeters>
            <DistanceMeters>NAN</DistanceMeters>
          </Trackpoint>
          <Trackpoint>
            <Time>2022-09-20T12:04:54.000Z</Time>
            <Position>
              <LatitudeDegrees>49.4269677065312862396240234375</LatitudeDegrees>
              <LongitudeDegrees>20.29985611326992511749267578125</LongitudeDegrees>
            </Position>
            <AltitudeMeters>521.4000244140625</AltitudeMeters>
            <DistanceMeters>NAN</DistanceMeters>
          </Trackpoint>
          <Trackpoint>
            <Time>2022-09-20T12:04:59.000Z</Time>
            <Position>
              <LatitudeDegrees>49.42699737846851348876953125</LatitudeDegrees>
              <LongitudeDegrees>20.3000159561634063720703125</LongitudeDegrees>
            </Position>
            <AltitudeMeters>521.79998779296875</AltitudeMeters>
            <DistanceMeters>NAN</DistanceMeters>
          </Trackpoint>
          <Trackpoint>
            <Time>2022-09-20T12:05:09.000Z</Time>
            <Position>
              <LatitudeDegrees>49.42702914588153362274169921875</LatitudeDegrees>
              <LongitudeDegrees>20.3004563413560390472412109375</LongitudeDegrees>
            </Position>
            <AltitudeMeters>521.79998779296875</AltitudeMeters>
            <DistanceMeters>NAN</DistanceMeters>
          </Trackpoint>
          <Trackpoint>
            <Time>2022-09-20T12:05:13.000Z</Time>
            <Position>
              <LatitudeDegrees>49.427027218043804168701171875</LatitudeDegrees>
              <LongitudeDegrees>20.3007111512124538421630859375</LongitudeDegrees>
            </Position>
            <AltitudeMeters>521.20001220703125</AltitudeMeters>
            <DistanceMeters>NAN</DistanceMeters>
          </Trackpoint>
          <Trackpoint>
            <Time>2022-09-20T12:05:14.000Z</Time>
            <Position>
              <LatitudeDegrees>49.42703216336667537689208984375</LatitudeDegrees>
              <LongitudeDegrees>20.30078600160777568817138671875</LongitudeDegrees>
            </Position>
            <AltitudeMeters>521</AltitudeMeters>
            <DistanceMeters>NAN</DistanceMeters>
          </Trackpoint>
          <Trackpoint>
            <Time>2022-09-20T12:05:15.000Z</Time>
            <Position>
              <LatitudeDegrees>49.42703601904213428497314453125</LatitudeDegrees>
              <LongitudeDegrees>20.300864540040493011474609375</LongitudeDegrees>
            </Position>
            <AltitudeMeters>520.79998779296875</AltitudeMeters>
            <DistanceMeters>NAN</DistanceMeters>
          </Trackpoint>
          <Trackpoint>
            <Time>2022-09-20T12:05:19.000Z</Time>
            <Position>
              <LatitudeDegrees>49.4270334206521511077880859375</LatitudeDegrees>
              <LongitudeDegrees>20.30113502405583858489990234375</LongitudeDegrees>
            </Position>
            <AltitudeMeters>519.79998779296875</AltitudeMeters>
            <DistanceMeters>NAN</DistanceMeters>
          </Trackpoint>
          <Trackpoint>
            <Time>2022-09-20T12:05:21.000Z</Time>
            <Position>
              <LatitudeDegrees>49.4270441494882106781005859375</LatitudeDegrees>
              <LongitudeDegrees>20.301404334604740142822265625</LongitudeDegrees>
            </Position>
            <AltitudeMeters>519.20001220703125</AltitudeMeters>
            <DistanceMeters>NAN</DistanceMeters>
          </Trackpoint>
          <Trackpoint>
            <Time>2022-09-20T12:05:23.000Z</Time>
            <Position>
              <LatitudeDegrees>49.42704339511692523956298828125</LatitudeDegrees>
              <LongitudeDegrees>20.301596112549304962158203125</LongitudeDegrees>
            </Position>
            <AltitudeMeters>518.79998779296875</AltitudeMeters>
            <DistanceMeters>NAN</DistanceMeters>
          </Trackpoint>
          <Trackpoint>
            <Time>2022-09-20T12:05:24.000Z</Time>
            <Position>
              <LatitudeDegrees>49.42704758606851100921630859375</LatitudeDegrees>
              <LongitudeDegrees>20.30169568955898284912109375</LongitudeDegrees>
            </Position>
            <AltitudeMeters>518.5999755859375</AltitudeMeters>
            <DistanceMeters>NAN</DistanceMeters>
          </Trackpoint>
          <Trackpoint>
            <Time>2022-09-20T12:05:28.000Z</Time>
            <Position>
              <LatitudeDegrees>49.42706837318837642669677734375</LatitudeDegrees>
              <LongitudeDegrees>20.3021313808858394622802734375</LongitudeDegrees>
            </Position>
            <AltitudeMeters>517.79998779296875</AltitudeMeters>
            <DistanceMeters>NAN</DistanceMeters>
          </Trackpoint>
          <Trackpoint>
            <Time>2022-09-20T12:05:29.000Z</Time>
            <Position>
              <LatitudeDegrees>49.427076838910579681396484375</LatitudeDegrees>
              <LongitudeDegrees>20.3022379986941814422607421875</LongitudeDegrees>
            </Position>
            <AltitudeMeters>517.4000244140625</AltitudeMeters>
            <DistanceMeters>NAN</DistanceMeters>
          </Trackpoint>
          <Trackpoint>
            <Time>2022-09-20T12:05:30.000Z</Time>
            <Position>
              <LatitudeDegrees>49.42707893438637256622314453125</LatitudeDegrees>
              <LongitudeDegrees>20.3023414313793182373046875</LongitudeDegrees>
            </Position>
            <AltitudeMeters>517.20001220703125</AltitudeMeters>
            <DistanceMeters>NAN</DistanceMeters>
          </Trackpoint>
          <Trackpoint>
            <Time>2022-09-20T12:05:32.000Z</Time>
            <Position>
              <LatitudeDegrees>49.42706585861742496490478515625</LatitudeDegrees>
              <LongitudeDegrees>20.30255005694925785064697265625</LongitudeDegrees>
            </Position>
            <AltitudeMeters>516.79998779296875</AltitudeMeters>
            <DistanceMeters>NAN</DistanceMeters>
          </Trackpoint>
          <Trackpoint>
            <Time>2022-09-20T12:05:35.000Z</Time>
            <Position>
              <LatitudeDegrees>49.427029229700565338134765625</LatitudeDegrees>
              <LongitudeDegrees>20.30282112769782543182373046875</LongitudeDegrees>
            </Position>
            <AltitudeMeters>516.79998779296875</AltitudeMeters>
            <DistanceMeters>NAN</DistanceMeters>
          </Trackpoint>
          <Trackpoint>
            <Time>2022-09-20T12:05:38.000Z</Time>
            <Position>
              <LatitudeDegrees>49.42699125967919826507568359375</LatitudeDegrees>
              <LongitudeDegrees>20.3030255623161792755126953125</LongitudeDegrees>
            </Position>
            <AltitudeMeters>517</AltitudeMeters>
            <DistanceMeters>NAN</DistanceMeters>
          </Trackpoint>
          <Trackpoint>
            <Time>2022-09-20T12:05:39.000Z</Time>
            <Position>
              <LatitudeDegrees>49.4269821234047412872314453125</LatitudeDegrees>
              <LongitudeDegrees>20.30307702720165252685546875</LongitudeDegrees>
            </Position>
            <AltitudeMeters>517.20001220703125</AltitudeMeters>
            <DistanceMeters>NAN</DistanceMeters>
          </Trackpoint>
          <Trackpoint>
            <Time>2022-09-20T12:05:43.000Z</Time>
            <Position>
              <LatitudeDegrees>49.42694465629756450653076171875</LatitudeDegrees>
              <LongitudeDegrees>20.303235612809658050537109375</LongitudeDegrees>
            </Position>
            <AltitudeMeters>518.4000244140625</AltitudeMeters>
            <DistanceMeters>NAN</DistanceMeters>
          </Trackpoint>
          <Trackpoint>
            <Time>2022-09-20T12:05:44.000Z</Time>
            <Position>
              <LatitudeDegrees>49.4269368611276149749755859375</LatitudeDegrees>
              <LongitudeDegrees>20.30327014625072479248046875</LongitudeDegrees>
            </Position>
            <AltitudeMeters>518.5999755859375</AltitudeMeters>
            <DistanceMeters>NAN</DistanceMeters>
          </Trackpoint>
          <Trackpoint>
            <Time>2022-09-20T12:05:47.000Z</Time>
            <Position>
              <LatitudeDegrees>49.42691884003579616546630859375</LatitudeDegrees>
              <LongitudeDegrees>20.303359664976596832275390625</LongitudeDegrees>
            </Position>
            <AltitudeMeters>519.79998779296875</AltitudeMeters>
            <DistanceMeters>NAN</DistanceMeters>
          </Trackpoint>
          <Trackpoint>
            <Time>2022-09-20T12:05:48.000Z</Time>
            <Position>
              <LatitudeDegrees>49.426914565265178680419921875</LatitudeDegrees>
              <LongitudeDegrees>20.3033848106861114501953125</LongitudeDegrees>
            </Position>
            <AltitudeMeters>520.20001220703125</AltitudeMeters>
            <DistanceMeters>NAN</DistanceMeters>
          </Trackpoint>
          <Trackpoint>
            <Time>2022-09-20T12:05:49.000Z</Time>
            <Position>
              <LatitudeDegrees>49.4269080273807048797607421875</LatitudeDegrees>
              <LongitudeDegrees>20.30340249650180339813232421875</LongitudeDegrees>
            </Position>
            <AltitudeMeters>520.5999755859375</AltitudeMeters>
            <DistanceMeters>NAN</DistanceMeters>
          </Trackpoint>
          <Trackpoint>
            <Time>2022-09-20T12:05:50.000Z</Time>
            <Position>
              <LatitudeDegrees>49.426903836429119110107421875</LatitudeDegrees>
              <LongitudeDegrees>20.30341506935656070709228515625</LongitudeDegrees>
            </Position>
            <AltitudeMeters>521</AltitudeMeters>
            <DistanceMeters>NAN</DistanceMeters>
          </Trackpoint>
          <Trackpoint>
            <Time>2022-09-20T12:05:55.000Z</Time>
            <Position>
              <LatitudeDegrees>49.42690190859138965606689453125</LatitudeDegrees>
              <LongitudeDegrees>20.30341926030814647674560546875</LongitudeDegrees>
            </Position>
            <AltitudeMeters>521.79998779296875</AltitudeMeters>
            <DistanceMeters>NAN</DistanceMeters>
          </Trackpoint>
          <Trackpoint>
            <Time>2022-09-20T12:05:58.000Z</Time>
            <Position>
              <LatitudeDegrees>49.42689788527786731719970703125</LatitudeDegrees>
              <LongitudeDegrees>20.30342948623001575469970703125</LongitudeDegrees>
            </Position>
            <AltitudeMeters>522</AltitudeMeters>
            <DistanceMeters>NAN</DistanceMeters>
          </Trackpoint>
          <Trackpoint>
            <Time>2022-09-20T12:06:01.000Z</Time>
            <Position>
              <LatitudeDegrees>49.42691867239773273468017578125</LatitudeDegrees>
              <LongitudeDegrees>20.3034396283328533172607421875</LongitudeDegrees>
            </Position>
            <AltitudeMeters>522</AltitudeMeters>
            <DistanceMeters>NAN</DistanceMeters>
          </Trackpoint>
          <Trackpoint>
            <Time>2022-09-20T12:06:04.000Z</Time>
            <Position>
              <LatitudeDegrees>49.4269217737019062042236328125</LatitudeDegrees>
              <LongitudeDegrees>20.303439460694789886474609375</LongitudeDegrees>
            </Position>
            <AltitudeMeters>522.20001220703125</AltitudeMeters>
            <DistanceMeters>NAN</DistanceMeters>
          </Trackpoint>
          <Trackpoint>
            <Time>2022-09-20T12:06:06.000Z</Time>
            <Position>
              <LatitudeDegrees>49.4269217737019062042236328125</LatitudeDegrees>
              <LongitudeDegrees>20.303439460694789886474609375</LongitudeDegrees>
            </Position>
            <AltitudeMeters>522</AltitudeMeters>
            <DistanceMeters>NAN</DistanceMeters>
          </Trackpoint>
          <Trackpoint>
            <Time>2022-09-20T12:06:11.000Z</Time>
            <Position>
              <LatitudeDegrees>49.42691850475966930389404296875</LatitudeDegrees>
              <LongitudeDegrees>20.3034399636089801788330078125</LongitudeDegrees>
            </Position>
            <AltitudeMeters>521.79998779296875</AltitudeMeters>
            <DistanceMeters>NAN</DistanceMeters>
          </Trackpoint>
          <Trackpoint>
            <Time>2022-09-20T12:06:13.000Z</Time>
            <Position>
              <LatitudeDegrees>49.42690157331526279449462890625</LatitudeDegrees>
              <LongitudeDegrees>20.303447507321834564208984375</LongitudeDegrees>
            </Position>
            <AltitudeMeters>522</AltitudeMeters>
            <DistanceMeters>NAN</DistanceMeters>
          </Trackpoint>
          <Trackpoint>
            <Time>2022-09-20T12:06:14.000Z</Time>
            <Position>
              <LatitudeDegrees>49.42690157331526279449462890625</LatitudeDegrees>
              <LongitudeDegrees>20.303447507321834564208984375</LongitudeDegrees>
            </Position>
            <AltitudeMeters>522.20001220703125</AltitudeMeters>
            <DistanceMeters>NAN</DistanceMeters>
          </Trackpoint>
          <Trackpoint>
            <Time>2022-09-20T12:06:31.000Z</Time>
            <Position>
              <LatitudeDegrees>49.42687307484447956085205078125</LatitudeDegrees>
              <LongitudeDegrees>20.30345932580530643463134765625</LongitudeDegrees>
            </Position>
            <AltitudeMeters>522.79998779296875</AltitudeMeters>
            <DistanceMeters>NAN</DistanceMeters>
          </Trackpoint>
          <Trackpoint>
            <Time>2022-09-20T12:06:34.000Z</Time>
            <Position>
              <LatitudeDegrees>49.42686460912227630615234375</LatitudeDegrees>
              <LongitudeDegrees>20.30347256921231746673583984375</LongitudeDegrees>
            </Position>
            <AltitudeMeters>523</AltitudeMeters>
            <DistanceMeters>NAN</DistanceMeters>
          </Trackpoint>
          <Trackpoint>
            <Time>2022-09-20T12:06:37.000Z</Time>
            <Position>
              <LatitudeDegrees>49.42686460912227630615234375</LatitudeDegrees>
              <LongitudeDegrees>20.30347256921231746673583984375</LongitudeDegrees>
            </Position>
            <AltitudeMeters>523.4000244140625</AltitudeMeters>
            <DistanceMeters>NAN</DistanceMeters>
          </Trackpoint>
          <Trackpoint>
            <Time>2022-09-20T12:06:45.000Z</Time>
            <Position>
              <LatitudeDegrees>49.42686167545616626739501953125</LatitudeDegrees>
              <LongitudeDegrees>20.3034771792590618133544921875</LongitudeDegrees>
            </Position>
            <AltitudeMeters>524.20001220703125</AltitudeMeters>
            <DistanceMeters>NAN</DistanceMeters>
          </Trackpoint>
          <Trackpoint>
            <Time>2022-09-20T12:06:52.000Z</Time>
            <Position>
              <LatitudeDegrees>49.42684859968721866607666015625</LatitudeDegrees>
              <LongitudeDegrees>20.30349654145538806915283203125</LongitudeDegrees>
            </Position>
            <AltitudeMeters>524.79998779296875</AltitudeMeters>
            <DistanceMeters>NAN</DistanceMeters>
          </Trackpoint>
          <Trackpoint>
            <Time>2022-09-20T12:06:53.000Z</Time>
            <Position>
              <LatitudeDegrees>49.42684859968721866607666015625</LatitudeDegrees>
              <LongitudeDegrees>20.30349654145538806915283203125</LongitudeDegrees>
            </Position>
            <AltitudeMeters>525</AltitudeMeters>
            <DistanceMeters>NAN</DistanceMeters>
          </Trackpoint>
          <Trackpoint>
            <Time>2022-09-20T12:06:55.000Z</Time>
            <Position>
              <LatitudeDegrees>49.42684625275433063507080078125</LatitudeDegrees>
              <LongitudeDegrees>20.30349654145538806915283203125</LongitudeDegrees>
            </Position>
            <AltitudeMeters>525.20001220703125</AltitudeMeters>
            <DistanceMeters>NAN</DistanceMeters>
          </Trackpoint>
          <Trackpoint>
            <Time>2022-09-20T12:07:01.000Z</Time>
            <Position>
              <LatitudeDegrees>49.42680425941944122314453125</LatitudeDegrees>
              <LongitudeDegrees>20.30361455865204334259033203125</LongitudeDegrees>
            </Position>
            <AltitudeMeters>526</AltitudeMeters>
            <DistanceMeters>NAN</DistanceMeters>
          </Trackpoint>
          <Trackpoint>
            <Time>2022-09-20T12:07:03.000Z</Time>
            <Position>
              <LatitudeDegrees>49.4267906807363033294677734375</LatitudeDegrees>
              <LongitudeDegrees>20.30366652645170688629150390625</LongitudeDegrees>
            </Position>
            <AltitudeMeters>526.20001220703125</AltitudeMeters>
            <DistanceMeters>NAN</DistanceMeters>
          </Trackpoint>
          <Trackpoint>
            <Time>2022-09-20T12:07:07.000Z</Time>
            <Position>
              <LatitudeDegrees>49.4267826341092586517333984375</LatitudeDegrees>
              <LongitudeDegrees>20.303729474544525146484375</LongitudeDegrees>
            </Position>
            <AltitudeMeters>526.5999755859375</AltitudeMeters>
            <DistanceMeters>NAN</DistanceMeters>
          </Trackpoint>
          <Trackpoint>
            <Time>2022-09-20T12:07:12.000Z</Time>
            <Position>
              <LatitudeDegrees>49.42677207291126251220703125</LatitudeDegrees>
              <LongitudeDegrees>20.30380415730178356170654296875</LongitudeDegrees>
            </Position>
            <AltitudeMeters>527.20001220703125</AltitudeMeters>
            <DistanceMeters>NAN</DistanceMeters>
          </Trackpoint>
          <Trackpoint>
            <Time>2022-09-20T12:07:13.000Z</Time>
            <Position>
              <LatitudeDegrees>49.42677207291126251220703125</LatitudeDegrees>
              <LongitudeDegrees>20.30380415730178356170654296875</LongitudeDegrees>
            </Position>
            <AltitudeMeters>527.4000244140625</AltitudeMeters>
            <DistanceMeters>NAN</DistanceMeters>
          </Trackpoint>
          <Trackpoint>
            <Time>2022-09-20T12:07:14.000Z</Time>
            <Position>
              <LatitudeDegrees>49.42677207291126251220703125</LatitudeDegrees>
              <LongitudeDegrees>20.30380415730178356170654296875</LongitudeDegrees>
            </Position>
            <AltitudeMeters>527.4000244140625</AltitudeMeters>
            <DistanceMeters>NAN</DistanceMeters>
          </Trackpoint>
          <Trackpoint>
            <Time>2022-09-20T12:07:19.000Z</Time>
            <Position>
              <LatitudeDegrees>49.42677207291126251220703125</LatitudeDegrees>
              <LongitudeDegrees>20.30380415730178356170654296875</LongitudeDegrees>
            </Position>
            <AltitudeMeters>527.5999755859375</AltitudeMeters>
            <DistanceMeters>NAN</DistanceMeters>
          </Trackpoint>
          <Trackpoint>
            <Time>2022-09-20T12:07:21.000Z</Time>
            <Position>
              <LatitudeDegrees>49.42677207291126251220703125</LatitudeDegrees>
              <LongitudeDegrees>20.30380415730178356170654296875</LongitudeDegrees>
            </Position>
            <AltitudeMeters>527.5999755859375</AltitudeMeters>
            <DistanceMeters>NAN</DistanceMeters>
          </Trackpoint>
          <Trackpoint>
            <Time>2022-09-20T12:07:25.000Z</Time>
            <Position>
              <LatitudeDegrees>49.42677207291126251220703125</LatitudeDegrees>
              <LongitudeDegrees>20.30380415730178356170654296875</LongitudeDegrees>
            </Position>
            <AltitudeMeters>527.79998779296875</AltitudeMeters>
            <DistanceMeters>NAN</DistanceMeters>
          </Trackpoint>
          <Trackpoint>
            <Time>2022-09-20T12:07:27.000Z</Time>
            <Position>
              <LatitudeDegrees>49.42677207291126251220703125</LatitudeDegrees>
              <LongitudeDegrees>20.30380415730178356170654296875</LongitudeDegrees>
            </Position>
            <AltitudeMeters>528</AltitudeMeters>
            <DistanceMeters>NAN</DistanceMeters>
          </Trackpoint>
          <Trackpoint>
            <Time>2022-09-20T12:07:29.000Z</Time>
            <Position>
              <LatitudeDegrees>49.42678280174732208251953125</LatitudeDegrees>
              <LongitudeDegrees>20.30384053476154804229736328125</LongitudeDegrees>
            </Position>
            <AltitudeMeters>528</AltitudeMeters>
            <DistanceMeters>NAN</DistanceMeters>
          </Trackpoint>
          <Trackpoint>
            <Time>2022-09-20T12:07:30.000Z</Time>
            <Position>
              <LatitudeDegrees>49.42678623832762241363525390625</LatitudeDegrees>
              <LongitudeDegrees>20.30385377816855907440185546875</LongitudeDegrees>
            </Position>
            <AltitudeMeters>528.20001220703125</AltitudeMeters>
            <DistanceMeters>NAN</DistanceMeters>
          </Trackpoint>
          <Trackpoint>
            <Time>2022-09-20T12:07:31.000Z</Time>
            <Position>
              <LatitudeDegrees>49.42678623832762241363525390625</LatitudeDegrees>
              <LongitudeDegrees>20.30385377816855907440185546875</LongitudeDegrees>
            </Position>
            <AltitudeMeters>528.4000244140625</AltitudeMeters>
            <DistanceMeters>NAN</DistanceMeters>
          </Trackpoint>
          <Trackpoint>
            <Time>2022-09-20T12:07:35.000Z</Time>
            <Position>
              <LatitudeDegrees>49.42679780535399913787841796875</LatitudeDegrees>
              <LongitudeDegrees>20.30393525026738643646240234375</LongitudeDegrees>
            </Position>
            <AltitudeMeters>529</AltitudeMeters>
            <DistanceMeters>NAN</DistanceMeters>
          </Trackpoint>
          <Trackpoint>
            <Time>2022-09-20T12:07:36.000Z</Time>
            <Position>
              <LatitudeDegrees>49.42679394967854022979736328125</LatitudeDegrees>
              <LongitudeDegrees>20.30397179536521434783935546875</LongitudeDegrees>
            </Position>
            <AltitudeMeters>529</AltitudeMeters>
            <DistanceMeters>NAN</DistanceMeters>
          </Trackpoint>
          <Trackpoint>
            <Time>2022-09-20T12:07:39.000Z</Time>
            <Position>
              <LatitudeDegrees>49.42678087390959262847900390625</LatitudeDegrees>
              <LongitudeDegrees>20.304027535021305084228515625</LongitudeDegrees>
            </Position>
            <AltitudeMeters>529.20001220703125</AltitudeMeters>
            <DistanceMeters>NAN</DistanceMeters>
          </Trackpoint>
          <Trackpoint>
            <Time>2022-09-20T12:07:44.000Z</Time>
            <Position>
              <LatitudeDegrees>49.42676997743546962738037109375</LatitudeDegrees>
              <LongitudeDegrees>20.3041036427021026611328125</LongitudeDegrees>
            </Position>
            <AltitudeMeters>529.4000244140625</AltitudeMeters>
            <DistanceMeters>NAN</DistanceMeters>
          </Trackpoint>
          <Trackpoint>
            <Time>2022-09-20T12:07:45.000Z</Time>
            <Position>
              <LatitudeDegrees>49.4267678819596767425537109375</LatitudeDegrees>
              <LongitudeDegrees>20.30410741455852985382080078125</LongitudeDegrees>
            </Position>
            <AltitudeMeters>529.4000244140625</AltitudeMeters>
            <DistanceMeters>NAN</DistanceMeters>
          </Trackpoint>
          <Trackpoint>
            <Time>2022-09-20T12:07:48.000Z</Time>
            <Position>
              <LatitudeDegrees>49.4267678819596767425537109375</LatitudeDegrees>
              <LongitudeDegrees>20.30410741455852985382080078125</LongitudeDegrees>
            </Position>
            <AltitudeMeters>529.5999755859375</AltitudeMeters>
            <DistanceMeters>NAN</DistanceMeters>
          </Trackpoint>
          <Trackpoint>
            <Time>2022-09-20T12:07:51.000Z</Time>
            <Position>
              <LatitudeDegrees>49.4267678819596767425537109375</LatitudeDegrees>
              <LongitudeDegrees>20.30410741455852985382080078125</LongitudeDegrees>
            </Position>
            <AltitudeMeters>529.5999755859375</AltitudeMeters>
            <DistanceMeters>NAN</DistanceMeters>
          </Trackpoint>
          <Trackpoint>
            <Time>2022-09-20T12:07:53.000Z</Time>
            <Position>
              <LatitudeDegrees>49.426763020455837249755859375</LatitudeDegrees>
              <LongitudeDegrees>20.30416910536587238311767578125</LongitudeDegrees>
            </Position>
            <AltitudeMeters>529.5999755859375</AltitudeMeters>
            <DistanceMeters>NAN</DistanceMeters>
          </Trackpoint>
          <Trackpoint>
            <Time>2022-09-20T12:07:54.000Z</Time>
            <Position>
              <LatitudeDegrees>49.42676670849323272705078125</LatitudeDegrees>
              <LongitudeDegrees>20.3042162954807281494140625</LongitudeDegrees>
            </Position>
            <AltitudeMeters>529.5999755859375</AltitudeMeters>
            <DistanceMeters>NAN</DistanceMeters>
          </Trackpoint>
          <Trackpoint>
            <Time>2022-09-20T12:07:58.000Z</Time>
            <Position>
              <LatitudeDegrees>49.4267284870147705078125</LatitudeDegrees>
              <LongitudeDegrees>20.3043368272483348846435546875</LongitudeDegrees>
            </Position>
            <AltitudeMeters>529.79998779296875</AltitudeMeters>
            <DistanceMeters>NAN</DistanceMeters>
          </Trackpoint>
          <Trackpoint>
            <Time>2022-09-20T12:08:03.000Z</Time>
            <Position>
              <LatitudeDegrees>49.426645003259181976318359375</LatitudeDegrees>
              <LongitudeDegrees>20.30455836094915866851806640625</LongitudeDegrees>
            </Position>
            <AltitudeMeters>530</AltitudeMeters>
            <DistanceMeters>NAN</DistanceMeters>
          </Trackpoint>
          <Trackpoint>
            <Time>2022-09-20T12:08:10.000Z</Time>
            <Position>
              <LatitudeDegrees>49.42658607847988605499267578125</LatitudeDegrees>
              <LongitudeDegrees>20.30480747111141681671142578125</LongitudeDegrees>
            </Position>
            <AltitudeMeters>530.20001220703125</AltitudeMeters>
            <DistanceMeters>NAN</DistanceMeters>
          </Trackpoint>
          <Trackpoint>
            <Time>2022-09-20T12:08:12.000Z</Time>
            <Position>
              <LatitudeDegrees>49.426552467048168182373046875</LatitudeDegrees>
              <LongitudeDegrees>20.30490419827401638031005859375</LongitudeDegrees>
            </Position>
            <AltitudeMeters>530.20001220703125</AltitudeMeters>
            <DistanceMeters>NAN</DistanceMeters>
          </Trackpoint>
          <Trackpoint>
            <Time>2022-09-20T12:08:13.000Z</Time>
            <Position>
              <LatitudeDegrees>49.4265492819249629974365234375</LatitudeDegrees>
              <LongitudeDegrees>20.30493873171508312225341796875</LongitudeDegrees>
            </Position>
            <AltitudeMeters>530.20001220703125</AltitudeMeters>
            <DistanceMeters>NAN</DistanceMeters>
          </Trackpoint>
          <Trackpoint>
            <Time>2022-09-20T12:08:15.000Z</Time>
            <Position>
              <LatitudeDegrees>49.4265362061560153961181640625</LatitudeDegrees>
              <LongitudeDegrees>20.30500444583594799041748046875</LongitudeDegrees>
            </Position>
            <AltitudeMeters>530.20001220703125</AltitudeMeters>
            <DistanceMeters>NAN</DistanceMeters>
          </Trackpoint>
          <Trackpoint>
            <Time>2022-09-20T12:08:17.000Z</Time>
            <Position>
              <LatitudeDegrees>49.4265298359096050262451171875</LatitudeDegrees>
              <LongitudeDegrees>20.3050694055855274200439453125</LongitudeDegrees>
            </Position>
            <AltitudeMeters>530.4000244140625</AltitudeMeters>
            <DistanceMeters>NAN</DistanceMeters>
          </Trackpoint>
          <Trackpoint>
            <Time>2022-09-20T12:08:20.000Z</Time>
            <Position>
              <LatitudeDegrees>49.4265232980251312255859375</LatitudeDegrees>
              <LongitudeDegrees>20.305197648704051971435546875</LongitudeDegrees>
            </Position>
            <AltitudeMeters>530.4000244140625</AltitudeMeters>
            <DistanceMeters>NAN</DistanceMeters>
          </Trackpoint>
          <Trackpoint>
            <Time>2022-09-20T12:08:22.000Z</Time>
            <Position>
              <LatitudeDegrees>49.42650854587554931640625</LatitudeDegrees>
              <LongitudeDegrees>20.305290520191192626953125</LongitudeDegrees>
            </Position>
            <AltitudeMeters>530.4000244140625</AltitudeMeters>
            <DistanceMeters>NAN</DistanceMeters>
          </Trackpoint>
          <Trackpoint>
            <Time>2022-09-20T12:08:23.000Z</Time>
            <Position>
              <LatitudeDegrees>49.42650251090526580810546875</LatitudeDegrees>
              <LongitudeDegrees>20.30533519573509693145751953125</LongitudeDegrees>
            </Position>
            <AltitudeMeters>530.4000244140625</AltitudeMeters>
            <DistanceMeters>NAN</DistanceMeters>
          </Trackpoint>
          <Trackpoint>
            <Time>2022-09-20T12:08:26.000Z</Time>
            <Position>
              <LatitudeDegrees>49.42649940960109233856201171875</LatitudeDegrees>
              <LongitudeDegrees>20.30546511523425579071044921875</LongitudeDegrees>
            </Position>
            <AltitudeMeters>530.79998779296875</AltitudeMeters>
            <DistanceMeters>NAN</DistanceMeters>
          </Trackpoint>
          <Trackpoint>
            <Time>2022-09-20T12:08:30.000Z</Time>
            <Position>
              <LatitudeDegrees>49.4264906086027622222900390625</LatitudeDegrees>
              <LongitudeDegrees>20.30560576356947422027587890625</LongitudeDegrees>
            </Position>
            <AltitudeMeters>531</AltitudeMeters>
            <DistanceMeters>NAN</DistanceMeters>
          </Trackpoint>
          <Trackpoint>
            <Time>2022-09-20T12:08:33.000Z</Time>
            <Position>
              <LatitudeDegrees>49.4264822266995906829833984375</LatitudeDegrees>
              <LongitudeDegrees>20.30569327063858509063720703125</LongitudeDegrees>
            </Position>
            <AltitudeMeters>531</AltitudeMeters>
            <DistanceMeters>NAN</DistanceMeters>
          </Trackpoint>
          <Trackpoint>
            <Time>2022-09-20T12:08:34.000Z</Time>
            <Position>
              <LatitudeDegrees>49.42647895775735378265380859375</LatitudeDegrees>
              <LongitudeDegrees>20.30571875162422657012939453125</LongitudeDegrees>
            </Position>
            <AltitudeMeters>531</AltitudeMeters>
            <DistanceMeters>NAN</DistanceMeters>
          </Trackpoint>
          <Trackpoint>
            <Time>2022-09-20T12:08:35.000Z</Time>
            <Position>
              <LatitudeDegrees>49.4264802150428295135498046875</LatitudeDegrees>
              <LongitudeDegrees>20.3057476691901683807373046875</LongitudeDegrees>
            </Position>
            <AltitudeMeters>531</AltitudeMeters>
            <DistanceMeters>NAN</DistanceMeters>
          </Trackpoint>
          <Trackpoint>
            <Time>2022-09-20T12:08:40.000Z</Time>
            <Position>
              <LatitudeDegrees>49.42646286450326442718505859375</LatitudeDegrees>
              <LongitudeDegrees>20.30591606162488460540771484375</LongitudeDegrees>
            </Position>
            <AltitudeMeters>530.79998779296875</AltitudeMeters>
            <DistanceMeters>NAN</DistanceMeters>
          </Trackpoint>
          <Trackpoint>
            <Time>2022-09-20T12:08:42.000Z</Time>
            <Position>
              <LatitudeDegrees>49.4264768622815608978271484375</LatitudeDegrees>
              <LongitudeDegrees>20.30602519400417804718017578125</LongitudeDegrees>
            </Position>
            <AltitudeMeters>530.79998779296875</AltitudeMeters>
            <DistanceMeters>NAN</DistanceMeters>
          </Trackpoint>
          <Trackpoint>
            <Time>2022-09-20T12:08:47.000Z</Time>
            <Position>
              <LatitudeDegrees>49.42645750008523464202880859375</LatitudeDegrees>
              <LongitudeDegrees>20.30631713569164276123046875</LongitudeDegrees>
            </Position>
            <AltitudeMeters>530.5999755859375</AltitudeMeters>
            <DistanceMeters>NAN</DistanceMeters>
          </Trackpoint>
          <Trackpoint>
            <Time>2022-09-20T12:08:51.000Z</Time>
            <Position>
              <LatitudeDegrees>49.42641533911228179931640625</LatitudeDegrees>
              <LongitudeDegrees>20.30653950758278369903564453125</LongitudeDegrees>
            </Position>
            <AltitudeMeters>530.5999755859375</AltitudeMeters>
            <DistanceMeters>NAN</DistanceMeters>
          </Trackpoint>
          <Trackpoint>
            <Time>2022-09-20T12:08:53.000Z</Time>
            <Position>
              <LatitudeDegrees>49.42640285007655620574951171875</LatitudeDegrees>
              <LongitudeDegrees>20.30664159916341304779052734375</LongitudeDegrees>
            </Position>
            <AltitudeMeters>530.5999755859375</AltitudeMeters>
            <DistanceMeters>NAN</DistanceMeters>
          </Trackpoint>
          <Trackpoint>
            <Time>2022-09-20T12:08:56.000Z</Time>
            <Position>
              <LatitudeDegrees>49.42634451203048229217529296875</LatitudeDegrees>
              <LongitudeDegrees>20.30675299465656280517578125</LongitudeDegrees>
            </Position>
            <AltitudeMeters>530.5999755859375</AltitudeMeters>
            <DistanceMeters>NAN</DistanceMeters>
          </Trackpoint>
          <Trackpoint>
            <Time>2022-09-20T12:08:58.000Z</Time>
            <Position>
              <LatitudeDegrees>49.426288940012454986572265625</LatitudeDegrees>
              <LongitudeDegrees>20.30678610317409038543701171875</LongitudeDegrees>
            </Position>
            <AltitudeMeters>530.5999755859375</AltitudeMeters>
            <DistanceMeters>NAN</DistanceMeters>
          </Trackpoint>
          <Trackpoint>
            <Time>2022-09-20T12:09:03.000Z</Time>
            <Position>
              <LatitudeDegrees>49.426124654710292816162109375</LatitudeDegrees>
              <LongitudeDegrees>20.306776128709316253662109375</LongitudeDegrees>
            </Position>
            <AltitudeMeters>530.4000244140625</AltitudeMeters>
            <DistanceMeters>NAN</DistanceMeters>
          </Trackpoint>
          <Trackpoint>
            <Time>2022-09-20T12:09:04.000Z</Time>
            <Position>
              <LatitudeDegrees>49.42607813514769077301025390625</LatitudeDegrees>
              <LongitudeDegrees>20.3067880310118198394775390625</LongitudeDegrees>
            </Position>
            <AltitudeMeters>530.20001220703125</AltitudeMeters>
            <DistanceMeters>NAN</DistanceMeters>
          </Trackpoint>
          <Trackpoint>
            <Time>2022-09-20T12:09:07.000Z</Time>
            <Position>
              <LatitudeDegrees>49.4259296916425228118896484375</LatitudeDegrees>
              <LongitudeDegrees>20.3068490512669086456298828125</LongitudeDegrees>
            </Position>
            <AltitudeMeters>529.20001220703125</AltitudeMeters>
            <DistanceMeters>NAN</DistanceMeters>
          </Trackpoint>
          <Trackpoint>
            <Time>2022-09-20T12:09:09.000Z</Time>
            <Position>
              <LatitudeDegrees>49.42583103664219379425048828125</LatitudeDegrees>
              <LongitudeDegrees>20.30690847896039485931396484375</LongitudeDegrees>
            </Position>
            <AltitudeMeters>528.5999755859375</AltitudeMeters>
            <DistanceMeters>NAN</DistanceMeters>
          </Trackpoint>
          <Trackpoint>
            <Time>2022-09-20T12:09:10.000Z</Time>
            <Position>
              <LatitudeDegrees>49.4257724471390247344970703125</LatitudeDegrees>
              <LongitudeDegrees>20.30692289583384990692138671875</LongitudeDegrees>
            </Position>
            <AltitudeMeters>528.4000244140625</AltitudeMeters>
            <DistanceMeters>NAN</DistanceMeters>
          </Trackpoint>
          <Trackpoint>
            <Time>2022-09-20T12:09:11.000Z</Time>
            <Position>
              <LatitudeDegrees>49.42571586929261684417724609375</LatitudeDegrees>
              <LongitudeDegrees>20.30693496577441692352294921875</LongitudeDegrees>
            </Position>
            <AltitudeMeters>528</AltitudeMeters>
            <DistanceMeters>NAN</DistanceMeters>
          </Trackpoint>
          <Trackpoint>
            <Time>2022-09-20T12:09:12.000Z</Time>
            <Position>
              <LatitudeDegrees>49.4256671704351902008056640625</LatitudeDegrees>
              <LongitudeDegrees>20.3069573454558849334716796875</LongitudeDegrees>
            </Position>
            <AltitudeMeters>527.79998779296875</AltitudeMeters>
            <DistanceMeters>NAN</DistanceMeters>
          </Trackpoint>
          <Trackpoint>
            <Time>2022-09-20T12:09:17.000Z</Time>
            <Position>
              <LatitudeDegrees>49.42535393871366977691650390625</LatitudeDegrees>
              <LongitudeDegrees>20.30717074871063232421875</LongitudeDegrees>
            </Position>
            <AltitudeMeters>527</AltitudeMeters>
            <DistanceMeters>NAN</DistanceMeters>
          </Trackpoint>
          <Trackpoint>
            <Time>2022-09-20T12:09:19.000Z</Time>
            <Position>
              <LatitudeDegrees>49.42523558624088764190673828125</LatitudeDegrees>
              <LongitudeDegrees>20.3072362951934337615966796875</LongitudeDegrees>
            </Position>
            <AltitudeMeters>526.5999755859375</AltitudeMeters>
            <DistanceMeters>NAN</DistanceMeters>
          </Trackpoint>
          <Trackpoint>
            <Time>2022-09-20T12:09:21.000Z</Time>
            <Position>
              <LatitudeDegrees>49.42511371336877346038818359375</LatitudeDegrees>
              <LongitudeDegrees>20.30727342702448368072509765625</LongitudeDegrees>
            </Position>
            <AltitudeMeters>526.4000244140625</AltitudeMeters>
            <DistanceMeters>NAN</DistanceMeters>
          </Trackpoint>
          <Trackpoint>
            <Time>2022-09-20T12:09:22.000Z</Time>
            <Position>
              <LatitudeDegrees>49.42505604587495326995849609375</LatitudeDegrees>
              <LongitudeDegrees>20.30726470984518527984619140625</LongitudeDegrees>
            </Position>
            <AltitudeMeters>526.20001220703125</AltitudeMeters>
            <DistanceMeters>NAN</DistanceMeters>
          </Trackpoint>
          <Trackpoint>
            <Time>2022-09-20T12:09:25.000Z</Time>
            <Position>
              <LatitudeDegrees>49.424951858818531036376953125</LatitudeDegrees>
              <LongitudeDegrees>20.30723537318408489227294921875</LongitudeDegrees>
            </Position>
            <AltitudeMeters>526</AltitudeMeters>
            <DistanceMeters>NAN</DistanceMeters>
          </Trackpoint>
          <Trackpoint>
            <Time>2022-09-20T12:09:26.000Z</Time>
            <Position>
              <LatitudeDegrees>49.42485161125659942626953125</LatitudeDegrees>
              <LongitudeDegrees>20.3072352893650531768798828125</LongitudeDegrees>
            </Position>
            <AltitudeMeters>525.79998779296875</AltitudeMeters>
            <DistanceMeters>NAN</DistanceMeters>
          </Trackpoint>
          <Trackpoint>
            <Time>2022-09-20T12:09:28.000Z</Time>
            <Position>
              <LatitudeDegrees>49.42476754076778888702392578125</LatitudeDegrees>
              <LongitudeDegrees>20.30729957856237888336181640625</LongitudeDegrees>
            </Position>
            <AltitudeMeters>525.5999755859375</AltitudeMeters>
            <DistanceMeters>NAN</DistanceMeters>
          </Trackpoint>
          <Trackpoint>
            <Time>2022-09-20T12:09:30.000Z</Time>
            <Position>
              <LatitudeDegrees>49.42469847388565540313720703125</LatitudeDegrees>
              <LongitudeDegrees>20.3073757700622081756591796875</LongitudeDegrees>
            </Position>
            <AltitudeMeters>524.79998779296875</AltitudeMeters>
            <DistanceMeters>NAN</DistanceMeters>
          </Trackpoint>
          <Trackpoint>
            <Time>2022-09-20T12:09:32.000Z</Time>
            <Position>
              <LatitudeDegrees>49.42470383830368518829345703125</LatitudeDegrees>
              <LongitudeDegrees>20.30745916999876499176025390625</LongitudeDegrees>
            </Position>
            <AltitudeMeters>524.4000244140625</AltitudeMeters>
            <DistanceMeters>NAN</DistanceMeters>
          </Trackpoint>
          <Trackpoint>
            <Time>2022-09-20T12:09:36.000Z</Time>
            <Position>
              <LatitudeDegrees>49.4247659482061862945556640625</LatitudeDegrees>
              <LongitudeDegrees>20.3075524605810642242431640625</LongitudeDegrees>
            </Position>
            <AltitudeMeters>525</AltitudeMeters>
            <DistanceMeters>NAN</DistanceMeters>
          </Trackpoint>
          <Trackpoint>
            <Time>2022-09-20T12:09:39.000Z</Time>
            <Position>
              <LatitudeDegrees>49.42481062375009059906005859375</LatitudeDegrees>
              <LongitudeDegrees>20.3075931966304779052734375</LongitudeDegrees>
            </Position>
            <AltitudeMeters>525.5999755859375</AltitudeMeters>
            <DistanceMeters>NAN</DistanceMeters>
          </Trackpoint>
          <Trackpoint>
            <Time>2022-09-20T12:09:40.000Z</Time>
            <Position>
              <LatitudeDegrees>49.424825124442577362060546875</LatitudeDegrees>
              <LongitudeDegrees>20.307612977921962738037109375</LongitudeDegrees>
            </Position>
            <AltitudeMeters>525.79998779296875</AltitudeMeters>
            <DistanceMeters>NAN</DistanceMeters>
          </Trackpoint>
          <Trackpoint>
            <Time>2022-09-20T12:09:42.000Z</Time>
            <Position>
              <LatitudeDegrees>49.42486460320651531219482421875</LatitudeDegrees>
              <LongitudeDegrees>20.307646505534648895263671875</LongitudeDegrees>
            </Position>
            <AltitudeMeters>526.20001220703125</AltitudeMeters>
            <DistanceMeters>NAN</DistanceMeters>
          </Trackpoint>
          <Trackpoint>
            <Time>2022-09-20T12:09:45.000Z</Time>
            <Position>
              <LatitudeDegrees>49.424925036728382110595703125</LatitudeDegrees>
              <LongitudeDegrees>20.3077107109129428863525390625</LongitudeDegrees>
            </Position>
            <AltitudeMeters>526.79998779296875</AltitudeMeters>
            <DistanceMeters>NAN</DistanceMeters>
          </Trackpoint>
          <Trackpoint>
            <Time>2022-09-20T12:09:46.000Z</Time>
            <Position>
              <LatitudeDegrees>49.424942471086978912353515625</LatitudeDegrees>
              <LongitudeDegrees>20.3077268041670322418212890625</LongitudeDegrees>
            </Position>
            <AltitudeMeters>526.79998779296875</AltitudeMeters>
            <DistanceMeters>NAN</DistanceMeters>
          </Trackpoint>
          <Trackpoint>
            <Time>2022-09-20T12:09:49.000Z</Time>
            <Position>
              <LatitudeDegrees>49.4249889068305492401123046875</LatitudeDegrees>
              <LongitudeDegrees>20.30776091851294040679931640625</LongitudeDegrees>
            </Position>
            <AltitudeMeters>527.5999755859375</AltitudeMeters>
            <DistanceMeters>NAN</DistanceMeters>
          </Trackpoint>
          <Trackpoint>
            <Time>2022-09-20T12:09:50.000Z</Time>
            <Position>
              <LatitudeDegrees>49.4250298105180263519287109375</LatitudeDegrees>
              <LongitudeDegrees>20.30778564512729644775390625</LongitudeDegrees>
            </Position>
            <AltitudeMeters>528</AltitudeMeters>
            <DistanceMeters>NAN</DistanceMeters>
          </Trackpoint>
          <Trackpoint>
            <Time>2022-09-20T12:09:53.000Z</Time>
            <Position>
              <LatitudeDegrees>49.42506543360650539398193359375</LatitudeDegrees>
              <LongitudeDegrees>20.30787725932896137237548828125</LongitudeDegrees>
            </Position>
            <AltitudeMeters>528.5999755859375</AltitudeMeters>
            <DistanceMeters>NAN</DistanceMeters>
          </Trackpoint>
          <Trackpoint>
            <Time>2022-09-20T12:09:54.000Z</Time>
            <Position>
              <LatitudeDegrees>49.42507901228964328765869140625</LatitudeDegrees>
              <LongitudeDegrees>20.30789804644882678985595703125</LongitudeDegrees>
            </Position>
            <AltitudeMeters>528.79998779296875</AltitudeMeters>
            <DistanceMeters>NAN</DistanceMeters>
          </Trackpoint>
          <Trackpoint>
            <Time>2022-09-20T12:09:55.000Z</Time>
            <Position>
              <LatitudeDegrees>49.4250968657433986663818359375</LatitudeDegrees>
              <LongitudeDegrees>20.3079179115593433380126953125</LongitudeDegrees>
            </Position>
            <AltitudeMeters>528.79998779296875</AltitudeMeters>
            <DistanceMeters>NAN</DistanceMeters>
          </Trackpoint>
          <Trackpoint>
            <Time>2022-09-20T12:09:57.000Z</Time>
            <Position>
              <LatitudeDegrees>49.425132572650909423828125</LatitudeDegrees>
              <LongitudeDegrees>20.30796208418905735015869140625</LongitudeDegrees>
            </Position>
            <AltitudeMeters>529</AltitudeMeters>
            <DistanceMeters>NAN</DistanceMeters>
          </Trackpoint>
          <Trackpoint>
            <Time>2022-09-20T12:10:03.000Z</Time>
            <Position>
              <LatitudeDegrees>49.42524581216275691986083984375</LatitudeDegrees>
              <LongitudeDegrees>20.3080741502344608306884765625</LongitudeDegrees>
            </Position>
            <AltitudeMeters>529</AltitudeMeters>
            <DistanceMeters>NAN</DistanceMeters>
          </Trackpoint>
          <Trackpoint>
            <Time>2022-09-20T12:10:08.000Z</Time>
            <Position>
              <LatitudeDegrees>49.42539182491600513458251953125</LatitudeDegrees>
              <LongitudeDegrees>20.3080885671079158782958984375</LongitudeDegrees>
            </Position>
            <AltitudeMeters>528.4000244140625</AltitudeMeters>
            <DistanceMeters>NAN</DistanceMeters>
          </Trackpoint>
          <Trackpoint>
            <Time>2022-09-20T12:10:15.000Z</Time>
            <Position>
              <LatitudeDegrees>49.42562182433903217315673828125</LatitudeDegrees>
              <LongitudeDegrees>20.308192335069179534912109375</LongitudeDegrees>
            </Position>
            <AltitudeMeters>528.4000244140625</AltitudeMeters>
            <DistanceMeters>NAN</DistanceMeters>
          </Trackpoint>
          <Trackpoint>
            <Time>2022-09-20T12:10:19.000Z</Time>
            <Position>
              <LatitudeDegrees>49.42575551569461822509765625</LatitudeDegrees>
              <LongitudeDegrees>20.30824606306850910186767578125</LongitudeDegrees>
            </Position>
            <AltitudeMeters>527.79998779296875</AltitudeMeters>
            <DistanceMeters>NAN</DistanceMeters>
          </Trackpoint>
          <Trackpoint>
            <Time>2022-09-20T12:10:22.000Z</Time>
            <Position>
              <LatitudeDegrees>49.42588015459477901458740234375</LatitudeDegrees>
              <LongitudeDegrees>20.30830037780106067657470703125</LongitudeDegrees>
            </Position>
            <AltitudeMeters>527.5999755859375</AltitudeMeters>
            <DistanceMeters>NAN</DistanceMeters>
          </Trackpoint>
          <Trackpoint>
            <Time>2022-09-20T12:10:25.000Z</Time>
            <Position>
              <LatitudeDegrees>49.42599079571664333343505859375</LatitudeDegrees>
              <LongitudeDegrees>20.30840733088552951812744140625</LongitudeDegrees>
            </Position>
            <AltitudeMeters>527.20001220703125</AltitudeMeters>
            <DistanceMeters>NAN</DistanceMeters>
          </Trackpoint>
          <Trackpoint>
            <Time>2022-09-20T12:10:26.000Z</Time>
            <Position>
              <LatitudeDegrees>49.4260202161967754364013671875</LatitudeDegrees>
              <LongitudeDegrees>20.3084580413997173309326171875</LongitudeDegrees>
            </Position>
            <AltitudeMeters>527</AltitudeMeters>
            <DistanceMeters>NAN</DistanceMeters>
          </Trackpoint>
          <Trackpoint>
            <Time>2022-09-20T12:10:27.000Z</Time>
            <Position>
              <LatitudeDegrees>49.4260453619062900543212890625</LatitudeDegrees>
              <LongitudeDegrees>20.30851227231323719024658203125</LongitudeDegrees>
            </Position>
            <AltitudeMeters>527</AltitudeMeters>
            <DistanceMeters>NAN</DistanceMeters>
          </Trackpoint>
          <Trackpoint>
            <Time>2022-09-20T12:10:28.000Z</Time>
            <Position>
              <LatitudeDegrees>49.4260700047016143798828125</LatitudeDegrees>
              <LongitudeDegrees>20.3085703589022159576416015625</LongitudeDegrees>
            </Position>
            <AltitudeMeters>526.79998779296875</AltitudeMeters>
            <DistanceMeters>NAN</DistanceMeters>
          </Trackpoint>
          <Trackpoint>
            <Time>2022-09-20T12:10:30.000Z</Time>
            <Position>
              <LatitudeDegrees>49.42611820064485073089599609375</LatitudeDegrees>
              <LongitudeDegrees>20.30869868583977222442626953125</LongitudeDegrees>
            </Position>
            <AltitudeMeters>526.5999755859375</AltitudeMeters>
            <DistanceMeters>NAN</DistanceMeters>
          </Trackpoint>
          <Trackpoint>
            <Time>2022-09-20T12:10:31.000Z</Time>
            <Position>
              <LatitudeDegrees>49.42613345570862293243408203125</LatitudeDegrees>
              <LongitudeDegrees>20.30878267250955104827880859375</LongitudeDegrees>
            </Position>
            <AltitudeMeters>526.5999755859375</AltitudeMeters>
            <DistanceMeters>NAN</DistanceMeters>
          </Trackpoint>
          <Trackpoint>
            <Time>2022-09-20T12:10:33.000Z</Time>
            <Position>
              <LatitudeDegrees>49.42615239880979061126708984375</LatitudeDegrees>
              <LongitudeDegrees>20.30897344462573528289794921875</LongitudeDegrees>
            </Position>
            <AltitudeMeters>525.20001220703125</AltitudeMeters>
            <DistanceMeters>NAN</DistanceMeters>
          </Trackpoint>
          <Trackpoint>
            <Time>2022-09-20T12:10:35.000Z</Time>
            <Position>
              <LatitudeDegrees>49.42614887841045856475830078125</LatitudeDegrees>
              <LongitudeDegrees>20.30919916927814483642578125</LongitudeDegrees>
            </Position>
            <AltitudeMeters>523.79998779296875</AltitudeMeters>
            <DistanceMeters>NAN</DistanceMeters>
          </Trackpoint>
          <Trackpoint>
            <Time>2022-09-20T12:10:36.000Z</Time>
            <Position>
              <LatitudeDegrees>49.4261358864605426788330078125</LatitudeDegrees>
              <LongitudeDegrees>20.30931450426578521728515625</LongitudeDegrees>
            </Position>
            <AltitudeMeters>522.5999755859375</AltitudeMeters>
            <DistanceMeters>NAN</DistanceMeters>
          </Trackpoint>
          <Trackpoint>
            <Time>2022-09-20T12:10:37.000Z</Time>
            <Position>
              <LatitudeDegrees>49.42611652426421642303466796875</LatitudeDegrees>
              <LongitudeDegrees>20.309423469007015228271484375</LongitudeDegrees>
            </Position>
            <AltitudeMeters>521.20001220703125</AltitudeMeters>
            <DistanceMeters>NAN</DistanceMeters>
          </Trackpoint>
          <Trackpoint>
            <Time>2022-09-20T12:10:38.000Z</Time>
            <Position>
              <LatitudeDegrees>49.4260959886014461517333984375</LatitudeDegrees>
              <LongitudeDegrees>20.30951298773288726806640625</LongitudeDegrees>
            </Position>
            <AltitudeMeters>520.4000244140625</AltitudeMeters>
            <DistanceMeters>NAN</DistanceMeters>
          </Trackpoint>
          <Trackpoint>
            <Time>2022-09-20T12:10:39.000Z</Time>
            <Position>
              <LatitudeDegrees>49.42607729695737361907958984375</LatitudeDegrees>
              <LongitudeDegrees>20.30958498828113079071044921875</LongitudeDegrees>
            </Position>
            <AltitudeMeters>519.79998779296875</AltitudeMeters>
            <DistanceMeters>NAN</DistanceMeters>
          </Trackpoint>
          <Trackpoint>
            <Time>2022-09-20T12:10:41.000Z</Time>
            <Position>
              <LatitudeDegrees>49.426044858992099761962890625</LatitudeDegrees>
              <LongitudeDegrees>20.3097143210470676422119140625</LongitudeDegrees>
            </Position>
            <AltitudeMeters>518.4000244140625</AltitudeMeters>
            <DistanceMeters>NAN</DistanceMeters>
          </Trackpoint>
          <Trackpoint>
            <Time>2022-09-20T12:10:45.000Z</Time>
            <Position>
              <LatitudeDegrees>49.4259950704872608184814453125</LatitudeDegrees>
              <LongitudeDegrees>20.30995496548712253570556640625</LongitudeDegrees>
            </Position>
            <AltitudeMeters>517.5999755859375</AltitudeMeters>
            <DistanceMeters>NAN</DistanceMeters>
          </Trackpoint>
          <Trackpoint>
            <Time>2022-09-20T12:10:47.000Z</Time>
            <Position>
              <LatitudeDegrees>49.4259707629680633544921875</LatitudeDegrees>
              <LongitudeDegrees>20.3100780956447124481201171875</LongitudeDegrees>
            </Position>
            <AltitudeMeters>517.4000244140625</AltitudeMeters>
            <DistanceMeters>NAN</DistanceMeters>
          </Trackpoint>
          <Trackpoint>
            <Time>2022-09-20T12:10:48.000Z</Time>
            <Position>
              <LatitudeDegrees>49.4259484671056270599365234375</LatitudeDegrees>
              <LongitudeDegrees>20.3101317398250102996826171875</LongitudeDegrees>
            </Position>
            <AltitudeMeters>517</AltitudeMeters>
            <DistanceMeters>NAN</DistanceMeters>
          </Trackpoint>
          <Trackpoint>
            <Time>2022-09-20T12:10:51.000Z</Time>
            <Position>
              <LatitudeDegrees>49.4258871115744113922119140625</LatitudeDegrees>
              <LongitudeDegrees>20.3102863021194934844970703125</LongitudeDegrees>
            </Position>
            <AltitudeMeters>516</AltitudeMeters>
            <DistanceMeters>NAN</DistanceMeters>
          </Trackpoint>
          <Trackpoint>
            <Time>2022-09-20T12:10:53.000Z</Time>
            <Position>
              <LatitudeDegrees>49.4258136861026287078857421875</LatitudeDegrees>
              <LongitudeDegrees>20.310413874685764312744140625</LongitudeDegrees>
            </Position>
            <AltitudeMeters>515.4000244140625</AltitudeMeters>
            <DistanceMeters>NAN</DistanceMeters>
          </Trackpoint>
          <Trackpoint>
            <Time>2022-09-20T12:10:55.000Z</Time>
            <Position>
              <LatitudeDegrees>49.42572374828159809112548828125</LatitudeDegrees>
              <LongitudeDegrees>20.31049978919327259063720703125</LongitudeDegrees>
            </Position>
            <AltitudeMeters>514.79998779296875</AltitudeMeters>
            <DistanceMeters>NAN</DistanceMeters>
          </Trackpoint>
          <Trackpoint>
            <Time>2022-09-20T12:10:59.000Z</Time>
            <Position>
              <LatitudeDegrees>49.4255639053881168365478515625</LatitudeDegrees>
              <LongitudeDegrees>20.31052007339894771575927734375</LongitudeDegrees>
            </Position>
            <AltitudeMeters>514.5999755859375</AltitudeMeters>
            <DistanceMeters>NAN</DistanceMeters>
          </Trackpoint>
          <Trackpoint>
            <Time>2022-09-20T12:11:02.000Z</Time>
            <Position>
              <LatitudeDegrees>49.42548067308962345123291015625</LatitudeDegrees>
              <LongitudeDegrees>20.31053063459694385528564453125</LongitudeDegrees>
            </Position>
            <AltitudeMeters>514.79998779296875</AltitudeMeters>
            <DistanceMeters>NAN</DistanceMeters>
          </Trackpoint>
          <Trackpoint>
            <Time>2022-09-20T12:11:05.000Z</Time>
            <Position>
              <LatitudeDegrees>49.42537866532802581787109375</LatitudeDegrees>
              <LongitudeDegrees>20.31055846251547336578369140625</LongitudeDegrees>
            </Position>
            <AltitudeMeters>515.20001220703125</AltitudeMeters>
            <DistanceMeters>NAN</DistanceMeters>
          </Trackpoint>
          <Trackpoint>
            <Time>2022-09-20T12:11:09.000Z</Time>
            <Position>
              <LatitudeDegrees>49.4252465665340423583984375</LatitudeDegrees>
              <LongitudeDegrees>20.310578830540180206298828125</LongitudeDegrees>
            </Position>
            <AltitudeMeters>515.79998779296875</AltitudeMeters>
            <DistanceMeters>NAN</DistanceMeters>
          </Trackpoint>
          <Trackpoint>
            <Time>2022-09-20T12:11:10.000Z</Time>
            <Position>
              <LatitudeDegrees>49.42522318102419376373291015625</LatitudeDegrees>
              <LongitudeDegrees>20.31058277003467082977294921875</LongitudeDegrees>
            </Position>
            <AltitudeMeters>516.20001220703125</AltitudeMeters>
            <DistanceMeters>NAN</DistanceMeters>
          </Trackpoint>
          <Trackpoint>
            <Time>2022-09-20T12:11:12.000Z</Time>
            <Position>
              <LatitudeDegrees>49.42518328316509723663330078125</LatitudeDegrees>
              <LongitudeDegrees>20.3105910681188106536865234375</LongitudeDegrees>
            </Position>
            <AltitudeMeters>516.5999755859375</AltitudeMeters>
            <DistanceMeters>NAN</DistanceMeters>
          </Trackpoint>
          <Trackpoint>
            <Time>2022-09-20T12:11:14.000Z</Time>
            <Position>
              <LatitudeDegrees>49.4251491688191890716552734375</LatitudeDegrees>
              <LongitudeDegrees>20.3106053173542022705078125</LongitudeDegrees>
            </Position>
            <AltitudeMeters>517</AltitudeMeters>
            <DistanceMeters>NAN</DistanceMeters>
          </Trackpoint>
          <Trackpoint>
            <Time>2022-09-20T12:11:15.000Z</Time>
            <Position>
              <LatitudeDegrees>49.42513324320316314697265625</LatitudeDegrees>
              <LongitudeDegrees>20.3106152079999446868896484375</LongitudeDegrees>
            </Position>
            <AltitudeMeters>517.20001220703125</AltitudeMeters>
            <DistanceMeters>NAN</DistanceMeters>
          </Trackpoint>
          <Trackpoint>
            <Time>2022-09-20T12:11:20.000Z</Time>
            <Position>
              <LatitudeDegrees>49.4250197522342205047607421875</LatitudeDegrees>
              <LongitudeDegrees>20.3106497414410114288330078125</LongitudeDegrees>
            </Position>
            <AltitudeMeters>517.79998779296875</AltitudeMeters>
            <DistanceMeters>NAN</DistanceMeters>
          </Trackpoint>
          <Trackpoint>
            <Time>2022-09-20T12:11:23.000Z</Time>
            <Position>
              <LatitudeDegrees>49.42495780996978282928466796875</LatitudeDegrees>
              <LongitudeDegrees>20.3106832690536975860595703125</LongitudeDegrees>
            </Position>
            <AltitudeMeters>518</AltitudeMeters>
            <DistanceMeters>NAN</DistanceMeters>
          </Trackpoint>
          <Trackpoint>
            <Time>2022-09-20T12:11:29.000Z</Time>
            <Position>
              <LatitudeDegrees>49.4248648546636104583740234375</LatitudeDegrees>
              <LongitudeDegrees>20.310720317065715789794921875</LongitudeDegrees>
            </Position>
            <AltitudeMeters>519.20001220703125</AltitudeMeters>
            <DistanceMeters>NAN</DistanceMeters>
          </Trackpoint>
          <Trackpoint>
            <Time>2022-09-20T12:11:32.000Z</Time>
            <Position>
              <LatitudeDegrees>49.4248091988265514373779296875</LatitudeDegrees>
              <LongitudeDegrees>20.310749150812625885009765625</LongitudeDegrees>
            </Position>
            <AltitudeMeters>519.5999755859375</AltitudeMeters>
            <DistanceMeters>NAN</DistanceMeters>
          </Trackpoint>
          <Trackpoint>
            <Time>2022-09-20T12:11:36.000Z</Time>
            <Position>
              <LatitudeDegrees>49.42475228570401668548583984375</LatitudeDegrees>
              <LongitudeDegrees>20.3107982687652111053466796875</LongitudeDegrees>
            </Position>
            <AltitudeMeters>520</AltitudeMeters>
            <DistanceMeters>NAN</DistanceMeters>
          </Trackpoint>
          <Trackpoint>
            <Time>2022-09-20T12:11:39.000Z</Time>
            <Position>
              <LatitudeDegrees>49.42470140755176544189453125</LatitudeDegrees>
              <LongitudeDegrees>20.310815870761871337890625</LongitudeDegrees>
            </Position>
            <AltitudeMeters>520.5999755859375</AltitudeMeters>
            <DistanceMeters>NAN</DistanceMeters>
          </Trackpoint>
          <Trackpoint>
            <Time>2022-09-20T12:11:41.000Z</Time>
            <Position>
              <LatitudeDegrees>49.42466243170201778411865234375</LatitudeDegrees>
              <LongitudeDegrees>20.31084470450878143310546875</LongitudeDegrees>
            </Position>
            <AltitudeMeters>521.4000244140625</AltitudeMeters>
            <DistanceMeters>NAN</DistanceMeters>
          </Trackpoint>
          <Trackpoint>
            <Time>2022-09-20T12:11:42.000Z</Time>
            <Position>
              <LatitudeDegrees>49.4246430695056915283203125</LatitudeDegrees>
              <LongitudeDegrees>20.31086188741028308868408203125</LongitudeDegrees>
            </Position>
            <AltitudeMeters>521.5999755859375</AltitudeMeters>
            <DistanceMeters>NAN</DistanceMeters>
          </Trackpoint>
          <Trackpoint>
            <Time>2022-09-20T12:11:43.000Z</Time>
            <Position>
              <LatitudeDegrees>49.42462337203323841094970703125</LatitudeDegrees>
              <LongitudeDegrees>20.3108763881027698516845703125</LongitudeDegrees>
            </Position>
            <AltitudeMeters>521.5999755859375</AltitudeMeters>
            <DistanceMeters>NAN</DistanceMeters>
          </Trackpoint>
          <Trackpoint>
            <Time>2022-09-20T12:11:44.000Z</Time>
            <Position>
              <LatitudeDegrees>49.42462337203323841094970703125</LatitudeDegrees>
              <LongitudeDegrees>20.3108763881027698516845703125</LongitudeDegrees>
            </Position>
            <AltitudeMeters>521.79998779296875</AltitudeMeters>
            <DistanceMeters>NAN</DistanceMeters>
          </Trackpoint>
          <Trackpoint>
            <Time>2022-09-20T12:11:45.000Z</Time>
            <Position>
              <LatitudeDegrees>49.42458582110702991485595703125</LatitudeDegrees>
              <LongitudeDegrees>20.3108944930136203765869140625</LongitudeDegrees>
            </Position>
            <AltitudeMeters>521.79998779296875</AltitudeMeters>
            <DistanceMeters>NAN</DistanceMeters>
          </Trackpoint>
          <Trackpoint>
            <Time>2022-09-20T12:11:46.000Z</Time>
            <Position>
              <LatitudeDegrees>49.42456805147230625152587890625</LatitudeDegrees>
              <LongitudeDegrees>20.3109075687825679779052734375</LongitudeDegrees>
            </Position>
            <AltitudeMeters>522.20001220703125</AltitudeMeters>
            <DistanceMeters>NAN</DistanceMeters>
          </Trackpoint>
          <Trackpoint>
            <Time>2022-09-20T12:11:47.000Z</Time>
            <Position>
              <LatitudeDegrees>49.42456805147230625152587890625</LatitudeDegrees>
              <LongitudeDegrees>20.3109075687825679779052734375</LongitudeDegrees>
            </Position>
            <AltitudeMeters>522.4000244140625</AltitudeMeters>
            <DistanceMeters>NAN</DistanceMeters>
          </Trackpoint>
          <Trackpoint>
            <Time>2022-09-20T12:11:48.000Z</Time>
            <Position>
              <LatitudeDegrees>49.4245369546115398406982421875</LatitudeDegrees>
              <LongitudeDegrees>20.31091268174350261688232421875</LongitudeDegrees>
            </Position>
            <AltitudeMeters>522.79998779296875</AltitudeMeters>
            <DistanceMeters>NAN</DistanceMeters>
          </Trackpoint>
          <Trackpoint>
            <Time>2022-09-20T12:11:50.000Z</Time>
            <Position>
              <LatitudeDegrees>49.42450837232172489166259765625</LatitudeDegrees>
              <LongitudeDegrees>20.31093992292881011962890625</LongitudeDegrees>
            </Position>
            <AltitudeMeters>523.20001220703125</AltitudeMeters>
            <DistanceMeters>NAN</DistanceMeters>
          </Trackpoint>
          <Trackpoint>
            <Time>2022-09-20T12:11:58.000Z</Time>
            <Position>
              <LatitudeDegrees>49.42437979392707347869873046875</LatitudeDegrees>
              <LongitudeDegrees>20.31102164648473262786865234375</LongitudeDegrees>
            </Position>
            <AltitudeMeters>523.79998779296875</AltitudeMeters>
            <DistanceMeters>NAN</DistanceMeters>
          </Trackpoint>
          <Trackpoint>
            <Time>2022-09-20T12:12:03.000Z</Time>
            <Position>
              <LatitudeDegrees>49.424327909946441650390625</LatitudeDegrees>
              <LongitudeDegrees>20.3110805712640285491943359375</LongitudeDegrees>
            </Position>
            <AltitudeMeters>524.20001220703125</AltitudeMeters>
            <DistanceMeters>NAN</DistanceMeters>
          </Trackpoint>
          <Trackpoint>
            <Time>2022-09-20T12:12:05.000Z</Time>
            <Position>
              <LatitudeDegrees>49.4243022613227367401123046875</LatitudeDegrees>
              <LongitudeDegrees>20.311091803014278411865234375</LongitudeDegrees>
            </Position>
            <AltitudeMeters>524.20001220703125</AltitudeMeters>
            <DistanceMeters>NAN</DistanceMeters>
          </Trackpoint>
          <Trackpoint>
            <Time>2022-09-20T12:12:14.000Z</Time>
            <Position>
              <LatitudeDegrees>49.424151889979839324951171875</LatitudeDegrees>
              <LongitudeDegrees>20.3112247399985790252685546875</LongitudeDegrees>
            </Position>
            <AltitudeMeters>524.79998779296875</AltitudeMeters>
            <DistanceMeters>NAN</DistanceMeters>
          </Trackpoint>
          <Trackpoint>
            <Time>2022-09-20T12:12:16.000Z</Time>
            <Position>
              <LatitudeDegrees>49.424115680158138275146484375</LatitudeDegrees>
              <LongitudeDegrees>20.311255753040313720703125</LongitudeDegrees>
            </Position>
            <AltitudeMeters>524.79998779296875</AltitudeMeters>
            <DistanceMeters>NAN</DistanceMeters>
          </Trackpoint>
          <Trackpoint>
            <Time>2022-09-20T12:12:25.000Z</Time>
            <Position>
              <LatitudeDegrees>49.42395131103694438934326171875</LatitudeDegrees>
              <LongitudeDegrees>20.311417691409587860107421875</LongitudeDegrees>
            </Position>
            <AltitudeMeters>525.20001220703125</AltitudeMeters>
            <DistanceMeters>NAN</DistanceMeters>
          </Trackpoint>
          <Trackpoint>
            <Time>2022-09-20T12:12:34.000Z</Time>
            <Position>
              <LatitudeDegrees>49.42379943095147609710693359375</LatitudeDegrees>
              <LongitudeDegrees>20.31159547157585620880126953125</LongitudeDegrees>
            </Position>
            <AltitudeMeters>525.20001220703125</AltitudeMeters>
            <DistanceMeters>NAN</DistanceMeters>
          </Trackpoint>
          <Trackpoint>
            <Time>2022-09-20T12:12:43.000Z</Time>
            <Position>
              <LatitudeDegrees>49.42366297356784343719482421875</LatitudeDegrees>
              <LongitudeDegrees>20.311776101589202880859375</LongitudeDegrees>
            </Position>
            <AltitudeMeters>525.5999755859375</AltitudeMeters>
            <DistanceMeters>NAN</DistanceMeters>
          </Trackpoint>
          <Trackpoint>
            <Time>2022-09-20T12:12:47.000Z</Time>
            <Position>
              <LatitudeDegrees>49.42359809763729572296142578125</LatitudeDegrees>
              <LongitudeDegrees>20.31188649125397205352783203125</LongitudeDegrees>
            </Position>
            <AltitudeMeters>525.79998779296875</AltitudeMeters>
            <DistanceMeters>NAN</DistanceMeters>
          </Trackpoint>
          <Trackpoint>
            <Time>2022-09-20T12:12:50.000Z</Time>
            <Position>
              <LatitudeDegrees>49.423568509519100189208984375</LatitudeDegrees>
              <LongitudeDegrees>20.311973579227924346923828125</LongitudeDegrees>
            </Position>
            <AltitudeMeters>525.79998779296875</AltitudeMeters>
            <DistanceMeters>NAN</DistanceMeters>
          </Trackpoint>
          <Trackpoint>
            <Time>2022-09-20T12:12:58.000Z</Time>
            <Position>
              <LatitudeDegrees>49.4234818406403064727783203125</LatitudeDegrees>
              <LongitudeDegrees>20.3122065961360931396484375</LongitudeDegrees>
            </Position>
            <AltitudeMeters>526.20001220703125</AltitudeMeters>
            <DistanceMeters>NAN</DistanceMeters>
          </Trackpoint>
          <Trackpoint>
            <Time>2022-09-20T12:13:03.000Z</Time>
            <Position>
              <LatitudeDegrees>49.42342794500291347503662109375</LatitudeDegrees>
              <LongitudeDegrees>20.31233995221555233001708984375</LongitudeDegrees>
            </Position>
            <AltitudeMeters>526.4000244140625</AltitudeMeters>
            <DistanceMeters>NAN</DistanceMeters>
          </Trackpoint>
          <Trackpoint>
            <Time>2022-09-20T12:13:10.000Z</Time>
            <Position>
              <LatitudeDegrees>49.42336776293814182281494140625</LatitudeDegrees>
              <LongitudeDegrees>20.312525443732738494873046875</LongitudeDegrees>
            </Position>
            <AltitudeMeters>526.4000244140625</AltitudeMeters>
            <DistanceMeters>NAN</DistanceMeters>
          </Trackpoint>
          <Trackpoint>
            <Time>2022-09-20T12:13:15.000Z</Time>
            <Position>
              <LatitudeDegrees>49.4233279488980770111083984375</LatitudeDegrees>
              <LongitudeDegrees>20.3126282058656215667724609375</LongitudeDegrees>
            </Position>
            <AltitudeMeters>526.79998779296875</AltitudeMeters>
            <DistanceMeters>NAN</DistanceMeters>
          </Trackpoint>
          <Trackpoint>
            <Time>2022-09-20T12:13:16.000Z</Time>
            <Position>
              <LatitudeDegrees>49.423320405185222625732421875</LatitudeDegrees>
              <LongitudeDegrees>20.3126499988138675689697265625</LongitudeDegrees>
            </Position>
            <AltitudeMeters>526.79998779296875</AltitudeMeters>
            <DistanceMeters>NAN</DistanceMeters>
          </Trackpoint>
          <Trackpoint>
            <Time>2022-09-20T12:13:18.000Z</Time>
            <Position>
              <LatitudeDegrees>49.42330104298889636993408203125</LatitudeDegrees>
              <LongitudeDegrees>20.312697105109691619873046875</LongitudeDegrees>
            </Position>
            <AltitudeMeters>526.5999755859375</AltitudeMeters>
            <DistanceMeters>NAN</DistanceMeters>
          </Trackpoint>
          <Trackpoint>
            <Time>2022-09-20T12:13:26.000Z</Time>
            <Position>
              <LatitudeDegrees>49.42322560586035251617431640625</LatitudeDegrees>
              <LongitudeDegrees>20.312913693487644195556640625</LongitudeDegrees>
            </Position>
            <AltitudeMeters>526.79998779296875</AltitudeMeters>
            <DistanceMeters>NAN</DistanceMeters>
          </Trackpoint>
          <Trackpoint>
            <Time>2022-09-20T12:13:28.000Z</Time>
            <Position>
              <LatitudeDegrees>49.42320750094950199127197265625</LatitudeDegrees>
              <LongitudeDegrees>20.31295870430767536163330078125</LongitudeDegrees>
            </Position>
            <AltitudeMeters>526.79998779296875</AltitudeMeters>
            <DistanceMeters>NAN</DistanceMeters>
          </Trackpoint>
          <Trackpoint>
            <Time>2022-09-20T12:13:34.000Z</Time>
            <Position>
              <LatitudeDegrees>49.4231452234089374542236328125</LatitudeDegrees>
              <LongitudeDegrees>20.313105471432209014892578125</LongitudeDegrees>
            </Position>
            <AltitudeMeters>527</AltitudeMeters>
            <DistanceMeters>NAN</DistanceMeters>
          </Trackpoint>
          <Trackpoint>
            <Time>2022-09-20T12:13:41.000Z</Time>
            <Position>
              <LatitudeDegrees>49.423065595328807830810546875</LatitudeDegrees>
              <LongitudeDegrees>20.3132714331150054931640625</LongitudeDegrees>
            </Position>
            <AltitudeMeters>527</AltitudeMeters>
            <DistanceMeters>NAN</DistanceMeters>
          </Trackpoint>
          <Trackpoint>
            <Time>2022-09-20T12:13:43.000Z</Time>
            <Position>
              <LatitudeDegrees>49.42305025644600391387939453125</LatitudeDegrees>
              <LongitudeDegrees>20.31332365237176418304443359375</LongitudeDegrees>
            </Position>
            <AltitudeMeters>527</AltitudeMeters>
            <DistanceMeters>NAN</DistanceMeters>
          </Trackpoint>
          <Trackpoint>
            <Time>2022-09-20T12:13:48.000Z</Time>
            <Position>
              <LatitudeDegrees>49.42299309186637401580810546875</LatitudeDegrees>
              <LongitudeDegrees>20.31344150193035602569580078125</LongitudeDegrees>
            </Position>
            <AltitudeMeters>527</AltitudeMeters>
            <DistanceMeters>NAN</DistanceMeters>
          </Trackpoint>
          <Trackpoint>
            <Time>2022-09-20T12:13:51.000Z</Time>
            <Position>
              <LatitudeDegrees>49.42295134998857975006103515625</LatitudeDegrees>
              <LongitudeDegrees>20.31353085301816463470458984375</LongitudeDegrees>
            </Position>
            <AltitudeMeters>527.4000244140625</AltitudeMeters>
            <DistanceMeters>NAN</DistanceMeters>
          </Trackpoint>
          <Trackpoint>
            <Time>2022-09-20T12:13:56.000Z</Time>
            <Position>
              <LatitudeDegrees>49.422897957265377044677734375</LatitudeDegrees>
              <LongitudeDegrees>20.31365205533802509307861328125</LongitudeDegrees>
            </Position>
            <AltitudeMeters>527.79998779296875</AltitudeMeters>
            <DistanceMeters>NAN</DistanceMeters>
          </Trackpoint>
          <Trackpoint>
            <Time>2022-09-20T12:14:04.000Z</Time>
            <Position>
              <LatitudeDegrees>49.42281221039593219757080078125</LatitudeDegrees>
              <LongitudeDegrees>20.3138730861246585845947265625</LongitudeDegrees>
            </Position>
            <AltitudeMeters>529</AltitudeMeters>
            <DistanceMeters>NAN</DistanceMeters>
          </Trackpoint>
          <Trackpoint>
            <Time>2022-09-20T12:14:05.000Z</Time>
            <Position>
              <LatitudeDegrees>49.4228019006550312042236328125</LatitudeDegrees>
              <LongitudeDegrees>20.31390200369060039520263671875</LongitudeDegrees>
            </Position>
            <AltitudeMeters>529</AltitudeMeters>
            <DistanceMeters>NAN</DistanceMeters>
          </Trackpoint>
          <Trackpoint>
            <Time>2022-09-20T12:14:11.000Z</Time>
            <Position>
              <LatitudeDegrees>49.4227387011051177978515625</LatitudeDegrees>
              <LongitudeDegrees>20.31402505002915859222412109375</LongitudeDegrees>
            </Position>
            <AltitudeMeters>530</AltitudeMeters>
            <DistanceMeters>NAN</DistanceMeters>
          </Trackpoint>
          <Trackpoint>
            <Time>2022-09-20T12:14:12.000Z</Time>
            <Position>
              <LatitudeDegrees>49.422726295888423919677734375</LatitudeDegrees>
              <LongitudeDegrees>20.3140370361506938934326171875</LongitudeDegrees>
            </Position>
            <AltitudeMeters>530.20001220703125</AltitudeMeters>
            <DistanceMeters>NAN</DistanceMeters>
          </Trackpoint>
          <Trackpoint>
            <Time>2022-09-20T12:14:16.000Z</Time>
            <Position>
              <LatitudeDegrees>49.42269268445670604705810546875</LatitudeDegrees>
              <LongitudeDegrees>20.314111299812793731689453125</LongitudeDegrees>
            </Position>
            <AltitudeMeters>530.5999755859375</AltitudeMeters>
            <DistanceMeters>NAN</DistanceMeters>
          </Trackpoint>
          <Trackpoint>
            <Time>2022-09-20T12:14:19.000Z</Time>
            <Position>
              <LatitudeDegrees>49.4226609170436859130859375</LatitudeDegrees>
              <LongitudeDegrees>20.31417542137205600738525390625</LongitudeDegrees>
            </Position>
            <AltitudeMeters>531</AltitudeMeters>
            <DistanceMeters>NAN</DistanceMeters>
          </Trackpoint>
          <Trackpoint>
            <Time>2022-09-20T12:14:25.000Z</Time>
            <Position>
              <LatitudeDegrees>49.42261389456689357757568359375</LatitudeDegrees>
              <LongitudeDegrees>20.31431070528924465179443359375</LongitudeDegrees>
            </Position>
            <AltitudeMeters>531.5999755859375</AltitudeMeters>
            <DistanceMeters>NAN</DistanceMeters>
          </Trackpoint>
          <Trackpoint>
            <Time>2022-09-20T12:14:26.000Z</Time>
            <Position>
              <LatitudeDegrees>49.42261422984302043914794921875</LatitudeDegrees>
              <LongitudeDegrees>20.31433769501745700836181640625</LongitudeDegrees>
            </Position>
            <AltitudeMeters>531.79998779296875</AltitudeMeters>
            <DistanceMeters>NAN</DistanceMeters>
          </Trackpoint>
          <Trackpoint>
            <Time>2022-09-20T12:14:28.000Z</Time>
            <Position>
              <LatitudeDegrees>49.42259763367474079132080078125</LatitudeDegrees>
              <LongitudeDegrees>20.3143763355910778045654296875</LongitudeDegrees>
            </Position>
            <AltitudeMeters>532</AltitudeMeters>
            <DistanceMeters>NAN</DistanceMeters>
          </Trackpoint>
          <Trackpoint>
            <Time>2022-09-20T12:14:29.000Z</Time>
            <Position>
              <LatitudeDegrees>49.42258724011480808258056640625</LatitudeDegrees>
              <LongitudeDegrees>20.3143954463303089141845703125</LongitudeDegrees>
            </Position>
            <AltitudeMeters>532</AltitudeMeters>
            <DistanceMeters>NAN</DistanceMeters>
          </Trackpoint>
          <Trackpoint>
            <Time>2022-09-20T12:14:31.000Z</Time>
            <Position>
              <LatitudeDegrees>49.42256578244268894195556640625</LatitudeDegrees>
              <LongitudeDegrees>20.3144381940364837646484375</LongitudeDegrees>
            </Position>
            <AltitudeMeters>532.20001220703125</AltitudeMeters>
            <DistanceMeters>NAN</DistanceMeters>
          </Trackpoint>
          <Trackpoint>
            <Time>2022-09-20T12:14:32.000Z</Time>
            <Position>
              <LatitudeDegrees>49.4225589931011199951171875</LatitudeDegrees>
              <LongitudeDegrees>20.3144614957273006439208984375</LongitudeDegrees>
            </Position>
            <AltitudeMeters>532.4000244140625</AltitudeMeters>
            <DistanceMeters>NAN</DistanceMeters>
          </Trackpoint>
          <Trackpoint>
            <Time>2022-09-20T12:14:37.000Z</Time>
            <Position>
              <LatitudeDegrees>49.42252286709845066070556640625</LatitudeDegrees>
              <LongitudeDegrees>20.31457959674298763275146484375</LongitudeDegrees>
            </Position>
            <AltitudeMeters>533</AltitudeMeters>
            <DistanceMeters>NAN</DistanceMeters>
          </Trackpoint>
          <Trackpoint>
            <Time>2022-09-20T12:14:39.000Z</Time>
            <Position>
              <LatitudeDegrees>49.42250962369143962860107421875</LatitudeDegrees>
              <LongitudeDegrees>20.31462796032428741455078125</LongitudeDegrees>
            </Position>
            <AltitudeMeters>533.4000244140625</AltitudeMeters>
            <DistanceMeters>NAN</DistanceMeters>
          </Trackpoint>
          <Trackpoint>
            <Time>2022-09-20T12:14:42.000Z</Time>
            <Position>
              <LatitudeDegrees>49.4224884174764156341552734375</LatitudeDegrees>
              <LongitudeDegrees>20.3146995417773723602294921875</LongitudeDegrees>
            </Position>
            <AltitudeMeters>533.5999755859375</AltitudeMeters>
            <DistanceMeters>NAN</DistanceMeters>
          </Trackpoint>
          <Trackpoint>
            <Time>2022-09-20T12:14:45.000Z</Time>
            <Position>
              <LatitudeDegrees>49.42246603779494762420654296875</LatitudeDegrees>
              <LongitudeDegrees>20.31476072967052459716796875</LongitudeDegrees>
            </Position>
            <AltitudeMeters>534</AltitudeMeters>
            <DistanceMeters>NAN</DistanceMeters>
          </Trackpoint>
          <Trackpoint>
            <Time>2022-09-20T12:14:46.000Z</Time>
            <Position>
              <LatitudeDegrees>49.42245949991047382354736328125</LatitudeDegrees>
              <LongitudeDegrees>20.31477757729589939117431640625</LongitudeDegrees>
            </Position>
            <AltitudeMeters>534</AltitudeMeters>
            <DistanceMeters>NAN</DistanceMeters>
          </Trackpoint>
          <Trackpoint>
            <Time>2022-09-20T12:14:51.000Z</Time>
            <Position>
              <LatitudeDegrees>49.42240887321531772613525390625</LatitudeDegrees>
              <LongitudeDegrees>20.31486994586884975433349609375</LongitudeDegrees>
            </Position>
            <AltitudeMeters>534.4000244140625</AltitudeMeters>
            <DistanceMeters>NAN</DistanceMeters>
          </Trackpoint>
          <Trackpoint>
            <Time>2022-09-20T12:14:56.000Z</Time>
            <Position>
              <LatitudeDegrees>49.42239529453217983245849609375</LatitudeDegrees>
              <LongitudeDegrees>20.3149520047008991241455078125</LongitudeDegrees>
            </Position>
            <AltitudeMeters>534.5999755859375</AltitudeMeters>
            <DistanceMeters>NAN</DistanceMeters>
          </Trackpoint>
          <Trackpoint>
            <Time>2022-09-20T12:14:58.000Z</Time>
            <Position>
              <LatitudeDegrees>49.42237350158393383026123046875</LatitudeDegrees>
              <LongitudeDegrees>20.3149744682013988494873046875</LongitudeDegrees>
            </Position>
            <AltitudeMeters>534.5999755859375</AltitudeMeters>
            <DistanceMeters>NAN</DistanceMeters>
          </Trackpoint>
          <Trackpoint>
            <Time>2022-09-20T12:14:59.000Z</Time>
            <Position>
              <LatitudeDegrees>49.42236277274787425994873046875</LatitudeDegrees>
              <LongitudeDegrees>20.314984358847141265869140625</LongitudeDegrees>
            </Position>
            <AltitudeMeters>534.5999755859375</AltitudeMeters>
            <DistanceMeters>NAN</DistanceMeters>
          </Trackpoint>
          <Trackpoint>
            <Time>2022-09-20T12:15:02.000Z</Time>
            <Position>
              <LatitudeDegrees>49.42232103087007999420166015625</LatitudeDegrees>
              <LongitudeDegrees>20.31497170217335224151611328125</LongitudeDegrees>
            </Position>
            <AltitudeMeters>534.4000244140625</AltitudeMeters>
            <DistanceMeters>NAN</DistanceMeters>
          </Trackpoint>
          <Trackpoint>
            <Time>2022-09-20T12:15:03.000Z</Time>
            <Position>
              <LatitudeDegrees>49.42230887711048126220703125</LatitudeDegrees>
              <LongitudeDegrees>20.314985699951648712158203125</LongitudeDegrees>
            </Position>
            <AltitudeMeters>534.4000244140625</AltitudeMeters>
            <DistanceMeters>NAN</DistanceMeters>
          </Trackpoint>
          <Trackpoint>
            <Time>2022-09-20T12:15:08.000Z</Time>
            <Position>
              <LatitudeDegrees>49.4222895987331867218017578125</LatitudeDegrees>
              <LongitudeDegrees>20.315068848431110382080078125</LongitudeDegrees>
            </Position>
            <AltitudeMeters>534.4000244140625</AltitudeMeters>
            <DistanceMeters>NAN</DistanceMeters>
          </Trackpoint>
          <Trackpoint>
            <Time>2022-09-20T12:15:10.000Z</Time>
            <Position>
              <LatitudeDegrees>49.42227811552584171295166015625</LatitudeDegrees>
              <LongitudeDegrees>20.31511218287050724029541015625</LongitudeDegrees>
            </Position>
            <AltitudeMeters>534.4000244140625</AltitudeMeters>
            <DistanceMeters>NAN</DistanceMeters>
          </Trackpoint>
          <Trackpoint>
            <Time>2022-09-20T12:15:17.000Z</Time>
            <Position>
              <LatitudeDegrees>49.42226001061499118804931640625</LatitudeDegrees>
              <LongitudeDegrees>20.31530580483376979827880859375</LongitudeDegrees>
            </Position>
            <AltitudeMeters>534</AltitudeMeters>
            <DistanceMeters>NAN</DistanceMeters>
          </Trackpoint>
          <Trackpoint>
            <Time>2022-09-20T12:15:20.000Z</Time>
            <Position>
              <LatitudeDegrees>49.4222372956573963165283203125</LatitudeDegrees>
              <LongitudeDegrees>20.315446369349956512451171875</LongitudeDegrees>
            </Position>
            <AltitudeMeters>533.5999755859375</AltitudeMeters>
            <DistanceMeters>NAN</DistanceMeters>
          </Trackpoint>
          <Trackpoint>
            <Time>2022-09-20T12:15:24.000Z</Time>
            <Position>
              <LatitudeDegrees>49.42220603115856647491455078125</LatitudeDegrees>
              <LongitudeDegrees>20.31571752391755580902099609375</LongitudeDegrees>
            </Position>
            <AltitudeMeters>533.20001220703125</AltitudeMeters>
            <DistanceMeters>NAN</DistanceMeters>
          </Trackpoint>
          <Trackpoint>
            <Time>2022-09-20T12:15:26.000Z</Time>
            <Position>
              <LatitudeDegrees>49.42220251075923442840576171875</LatitudeDegrees>
              <LongitudeDegrees>20.31583352945744991302490234375</LongitudeDegrees>
            </Position>
            <AltitudeMeters>533</AltitudeMeters>
            <DistanceMeters>NAN</DistanceMeters>
          </Trackpoint>
          <Trackpoint>
            <Time>2022-09-20T12:15:27.000Z</Time>
            <Position>
              <LatitudeDegrees>49.42219194956123828887939453125</LatitudeDegrees>
              <LongitudeDegrees>20.31590913422405719757080078125</LongitudeDegrees>
            </Position>
            <AltitudeMeters>532.79998779296875</AltitudeMeters>
            <DistanceMeters>NAN</DistanceMeters>
          </Trackpoint>
          <Trackpoint>
            <Time>2022-09-20T12:15:30.000Z</Time>
            <Position>
              <LatitudeDegrees>49.42217744886875152587890625</LatitudeDegrees>
              <LongitudeDegrees>20.3160996548831462860107421875</LongitudeDegrees>
            </Position>
            <AltitudeMeters>532.4000244140625</AltitudeMeters>
            <DistanceMeters>NAN</DistanceMeters>
          </Trackpoint>
          <Trackpoint>
            <Time>2022-09-20T12:15:37.000Z</Time>
            <Position>
              <LatitudeDegrees>49.42210930399596691131591796875</LatitudeDegrees>
              <LongitudeDegrees>20.31655646860599517822265625</LongitudeDegrees>
            </Position>
            <AltitudeMeters>532.20001220703125</AltitudeMeters>
            <DistanceMeters>NAN</DistanceMeters>
          </Trackpoint>
          <Trackpoint>
            <Time>2022-09-20T12:15:41.000Z</Time>
            <Position>
              <LatitudeDegrees>49.4220569171011447906494140625</LatitudeDegrees>
              <LongitudeDegrees>20.316786132752895355224609375</LongitudeDegrees>
            </Position>
            <AltitudeMeters>532</AltitudeMeters>
            <DistanceMeters>NAN</DistanceMeters>
          </Trackpoint>
          <Trackpoint>
            <Time>2022-09-20T12:15:43.000Z</Time>
            <Position>
              <LatitudeDegrees>49.42202146165072917938232421875</LatitudeDegrees>
              <LongitudeDegrees>20.31687975861132144927978515625</LongitudeDegrees>
            </Position>
            <AltitudeMeters>532</AltitudeMeters>
            <DistanceMeters>NAN</DistanceMeters>
          </Trackpoint>
          <Trackpoint>
            <Time>2022-09-20T12:15:44.000Z</Time>
            <Position>
              <LatitudeDegrees>49.42200754769146442413330078125</LatitudeDegrees>
              <LongitudeDegrees>20.316921584308147430419921875</LongitudeDegrees>
            </Position>
            <AltitudeMeters>532</AltitudeMeters>
            <DistanceMeters>NAN</DistanceMeters>
          </Trackpoint>
          <Trackpoint>
            <Time>2022-09-20T12:15:47.000Z</Time>
            <Position>
              <LatitudeDegrees>49.42197083495557308197021484375</LatitudeDegrees>
              <LongitudeDegrees>20.31701068393886089324951171875</LongitudeDegrees>
            </Position>
            <AltitudeMeters>532</AltitudeMeters>
            <DistanceMeters>NAN</DistanceMeters>
          </Trackpoint>
          <Trackpoint>
            <Time>2022-09-20T12:15:48.000Z</Time>
            <Position>
              <LatitudeDegrees>49.4219563342630863189697265625</LatitudeDegrees>
              <LongitudeDegrees>20.31704060733318328857421875</LongitudeDegrees>
            </Position>
            <AltitudeMeters>532</AltitudeMeters>
            <DistanceMeters>NAN</DistanceMeters>
          </Trackpoint>
          <Trackpoint>
            <Time>2022-09-20T12:15:49.000Z</Time>
            <Position>
              <LatitudeDegrees>49.42195038311183452606201171875</LatitudeDegrees>
              <LongitudeDegrees>20.3170588798820972442626953125</LongitudeDegrees>
            </Position>
            <AltitudeMeters>532.20001220703125</AltitudeMeters>
            <DistanceMeters>NAN</DistanceMeters>
          </Trackpoint>
          <Trackpoint>
            <Time>2022-09-20T12:15:50.000Z</Time>
            <Position>
              <LatitudeDegrees>49.421940408647060394287109375</LatitudeDegrees>
              <LongitudeDegrees>20.31707656569778919219970703125</LongitudeDegrees>
            </Position>
            <AltitudeMeters>532.20001220703125</AltitudeMeters>
            <DistanceMeters>NAN</DistanceMeters>
          </Trackpoint>
          <Trackpoint>
            <Time>2022-09-20T12:15:54.000Z</Time>
            <Position>
              <LatitudeDegrees>49.42192641086876392364501953125</LatitudeDegrees>
              <LongitudeDegrees>20.3171591274440288543701171875</LongitudeDegrees>
            </Position>
            <AltitudeMeters>532.79998779296875</AltitudeMeters>
            <DistanceMeters>NAN</DistanceMeters>
          </Trackpoint>
          <Trackpoint>
            <Time>2022-09-20T12:15:55.000Z</Time>
            <Position>
              <LatitudeDegrees>49.421931020915508270263671875</LatitudeDegrees>
              <LongitudeDegrees>20.3171715326607227325439453125</LongitudeDegrees>
            </Position>
            <AltitudeMeters>532.79998779296875</AltitudeMeters>
            <DistanceMeters>NAN</DistanceMeters>
          </Trackpoint>
          <Trackpoint>
            <Time>2022-09-20T12:15:59.000Z</Time>
            <Position>
              <LatitudeDegrees>49.42194384522736072540283203125</LatitudeDegrees>
              <LongitudeDegrees>20.3172706067562103271484375</LongitudeDegrees>
            </Position>
            <AltitudeMeters>532.79998779296875</AltitudeMeters>
            <DistanceMeters>NAN</DistanceMeters>
          </Trackpoint>
          <Trackpoint>
            <Time>2022-09-20T12:16:00.000Z</Time>
            <Position>
              <LatitudeDegrees>49.42194133065640926361083984375</LatitudeDegrees>
              <LongitudeDegrees>20.31729181297123432159423828125</LongitudeDegrees>
            </Position>
            <AltitudeMeters>532.79998779296875</AltitudeMeters>
            <DistanceMeters>NAN</DistanceMeters>
          </Trackpoint>
          <Trackpoint>
            <Time>2022-09-20T12:16:02.000Z</Time>
            <Position>
              <LatitudeDegrees>49.42192037589848041534423828125</LatitudeDegrees>
              <LongitudeDegrees>20.31734126619994640350341796875</LongitudeDegrees>
            </Position>
            <AltitudeMeters>533.20001220703125</AltitudeMeters>
            <DistanceMeters>NAN</DistanceMeters>
          </Trackpoint>
          <Trackpoint>
            <Time>2022-09-20T12:16:05.000Z</Time>
            <Position>
              <LatitudeDegrees>49.42187863402068614959716796875</LatitudeDegrees>
              <LongitudeDegrees>20.31741821207106113433837890625</LongitudeDegrees>
            </Position>
            <AltitudeMeters>533.4000244140625</AltitudeMeters>
            <DistanceMeters>NAN</DistanceMeters>
          </Trackpoint>
          <Trackpoint>
            <Time>2022-09-20T12:16:11.000Z</Time>
            <Position>
              <LatitudeDegrees>49.4218064658343791961669921875</LatitudeDegrees>
              <LongitudeDegrees>20.31755584292113780975341796875</LongitudeDegrees>
            </Position>
            <AltitudeMeters>534</AltitudeMeters>
            <DistanceMeters>NAN</DistanceMeters>
          </Trackpoint>
          <Trackpoint>
            <Time>2022-09-20T12:16:17.000Z</Time>
            <Position>
              <LatitudeDegrees>49.42173815332353115081787109375</LatitudeDegrees>
              <LongitudeDegrees>20.31765273772180080413818359375</LongitudeDegrees>
            </Position>
            <AltitudeMeters>534.20001220703125</AltitudeMeters>
            <DistanceMeters>NAN</DistanceMeters>
          </Trackpoint>
          <Trackpoint>
            <Time>2022-09-20T12:16:18.000Z</Time>
            <Position>
              <LatitudeDegrees>49.4217343814671039581298828125</LatitudeDegrees>
              <LongitudeDegrees>20.31765726394951343536376953125</LongitudeDegrees>
            </Position>
            <AltitudeMeters>534.20001220703125</AltitudeMeters>
            <DistanceMeters>NAN</DistanceMeters>
          </Trackpoint>
          <Trackpoint>
            <Time>2022-09-20T12:16:22.000Z</Time>
            <Position>
              <LatitudeDegrees>49.4217387400567531585693359375</LatitudeDegrees>
              <LongitudeDegrees>20.317663215100765228271484375</LongitudeDegrees>
            </Position>
            <AltitudeMeters>534.20001220703125</AltitudeMeters>
            <DistanceMeters>NAN</DistanceMeters>
          </Trackpoint>
          <Trackpoint>
            <Time>2022-09-20T12:16:23.000Z</Time>
            <Position>
              <LatitudeDegrees>49.42174234427511692047119140625</LatitudeDegrees>
              <LongitudeDegrees>20.3176633827388286590576171875</LongitudeDegrees>
            </Position>
            <AltitudeMeters>534.20001220703125</AltitudeMeters>
            <DistanceMeters>NAN</DistanceMeters>
          </Trackpoint>
          <Trackpoint>
            <Time>2022-09-20T12:16:27.000Z</Time>
            <Position>
              <LatitudeDegrees>49.4217404164373874664306640625</LatitudeDegrees>
              <LongitudeDegrees>20.3176627121865749359130859375</LongitudeDegrees>
            </Position>
            <AltitudeMeters>534.20001220703125</AltitudeMeters>
            <DistanceMeters>NAN</DistanceMeters>
          </Trackpoint>
          <Trackpoint>
            <Time>2022-09-20T12:16:31.000Z</Time>
            <Position>
              <LatitudeDegrees>49.42173798568546772003173828125</LatitudeDegrees>
              <LongitudeDegrees>20.31765977852046489715576171875</LongitudeDegrees>
            </Position>
            <AltitudeMeters>534.4000244140625</AltitudeMeters>
            <DistanceMeters>NAN</DistanceMeters>
          </Trackpoint>
          <Trackpoint>
            <Time>2022-09-20T12:16:33.000Z</Time>
            <Position>
              <LatitudeDegrees>49.42173798568546772003173828125</LatitudeDegrees>
              <LongitudeDegrees>20.31765977852046489715576171875</LongitudeDegrees>
            </Position>
            <AltitudeMeters>534.4000244140625</AltitudeMeters>
            <DistanceMeters>NAN</DistanceMeters>
          </Trackpoint>
          <Trackpoint>
            <Time>2022-09-20T12:16:34.000Z</Time>
            <Position>
              <LatitudeDegrees>49.42173798568546772003173828125</LatitudeDegrees>
              <LongitudeDegrees>20.31765977852046489715576171875</LongitudeDegrees>
            </Position>
            <AltitudeMeters>534.4000244140625</AltitudeMeters>
            <DistanceMeters>NAN</DistanceMeters>
          </Trackpoint>
          <Trackpoint>
            <Time>2022-09-20T12:16:35.000Z</Time>
            <Position>
              <LatitudeDegrees>49.42173798568546772003173828125</LatitudeDegrees>
              <LongitudeDegrees>20.31765977852046489715576171875</LongitudeDegrees>
            </Position>
            <AltitudeMeters>534.5999755859375</AltitudeMeters>
            <DistanceMeters>NAN</DistanceMeters>
          </Trackpoint>
          <Trackpoint>
            <Time>2022-09-20T12:16:36.000Z</Time>
            <Position>
              <LatitudeDegrees>49.42173798568546772003173828125</LatitudeDegrees>
              <LongitudeDegrees>20.31765977852046489715576171875</LongitudeDegrees>
            </Position>
            <AltitudeMeters>534.5999755859375</AltitudeMeters>
            <DistanceMeters>NAN</DistanceMeters>
          </Trackpoint>
          <Trackpoint>
            <Time>2022-09-20T12:16:52.000Z</Time>
            <Position>
              <LatitudeDegrees>49.4217353872954845428466796875</LatitudeDegrees>
              <LongitudeDegrees>20.3176596947014331817626953125</LongitudeDegrees>
            </Position>
            <AltitudeMeters>534.5999755859375</AltitudeMeters>
            <DistanceMeters>NAN</DistanceMeters>
          </Trackpoint>
          <Trackpoint>
            <Time>2022-09-20T12:16:57.000Z</Time>
            <Position>
              <LatitudeDegrees>49.42173111252486705780029296875</LatitudeDegrees>
              <LongitudeDegrees>20.31765894033014774322509765625</LongitudeDegrees>
            </Position>
            <AltitudeMeters>535</AltitudeMeters>
            <DistanceMeters>NAN</DistanceMeters>
          </Trackpoint>
          <Trackpoint>
            <Time>2022-09-20T12:17:03.000Z</Time>
            <Position>
              <LatitudeDegrees>49.4216981716454029083251953125</LatitudeDegrees>
              <LongitudeDegrees>20.3177247382700443267822265625</LongitudeDegrees>
            </Position>
            <AltitudeMeters>535.20001220703125</AltitudeMeters>
            <DistanceMeters>NAN</DistanceMeters>
          </Trackpoint>
          <Trackpoint>
            <Time>2022-09-20T12:17:05.000Z</Time>
            <Position>
              <LatitudeDegrees>49.4216643087565898895263671875</LatitudeDegrees>
              <LongitudeDegrees>20.3177596069872379302978515625</LongitudeDegrees>
            </Position>
            <AltitudeMeters>535.20001220703125</AltitudeMeters>
            <DistanceMeters>NAN</DistanceMeters>
          </Trackpoint>
          <Trackpoint>
            <Time>2022-09-20T12:17:07.000Z</Time>
            <Position>
              <LatitudeDegrees>49.4216368161141872406005859375</LatitudeDegrees>
              <LongitudeDegrees>20.3177984990179538726806640625</LongitudeDegrees>
            </Position>
            <AltitudeMeters>535.20001220703125</AltitudeMeters>
            <DistanceMeters>NAN</DistanceMeters>
          </Trackpoint>
          <Trackpoint>
            <Time>2022-09-20T12:17:09.000Z</Time>
            <Position>
              <LatitudeDegrees>49.4215996004641056060791015625</LatitudeDegrees>
              <LongitudeDegrees>20.31784149818122386932373046875</LongitudeDegrees>
            </Position>
            <AltitudeMeters>535.5999755859375</AltitudeMeters>
            <DistanceMeters>NAN</DistanceMeters>
          </Trackpoint>
          <Trackpoint>
            <Time>2022-09-20T12:17:17.000Z</Time>
            <Position>
              <LatitudeDegrees>49.42154888994991779327392578125</LatitudeDegrees>
              <LongitudeDegrees>20.3180050291121006011962890625</LongitudeDegrees>
            </Position>
            <AltitudeMeters>535.4000244140625</AltitudeMeters>
            <DistanceMeters>NAN</DistanceMeters>
          </Trackpoint>
          <Trackpoint>
            <Time>2022-09-20T12:17:22.000Z</Time>
            <Position>
              <LatitudeDegrees>49.421521313488483428955078125</LatitudeDegrees>
              <LongitudeDegrees>20.31809714622795581817626953125</LongitudeDegrees>
            </Position>
            <AltitudeMeters>535.20001220703125</AltitudeMeters>
            <DistanceMeters>NAN</DistanceMeters>
          </Trackpoint>
          <Trackpoint>
            <Time>2022-09-20T12:17:24.000Z</Time>
            <Position>
              <LatitudeDegrees>49.4215208105742931365966796875</LatitudeDegrees>
              <LongitudeDegrees>20.31811659224331378936767578125</LongitudeDegrees>
            </Position>
            <AltitudeMeters>535.20001220703125</AltitudeMeters>
            <DistanceMeters>NAN</DistanceMeters>
          </Trackpoint>
          <Trackpoint>
            <Time>2022-09-20T12:17:26.000Z</Time>
            <Position>
              <LatitudeDegrees>49.4215255044400691986083984375</LatitudeDegrees>
              <LongitudeDegrees>20.31819269992411136627197265625</LongitudeDegrees>
            </Position>
            <AltitudeMeters>535.20001220703125</AltitudeMeters>
            <DistanceMeters>NAN</DistanceMeters>
          </Trackpoint>
          <Trackpoint>
            <Time>2022-09-20T12:17:30.000Z</Time>
            <Position>
              <LatitudeDegrees>49.421515278518199920654296875</LatitudeDegrees>
              <LongitudeDegrees>20.318305604159832000732421875</LongitudeDegrees>
            </Position>
            <AltitudeMeters>535</AltitudeMeters>
            <DistanceMeters>NAN</DistanceMeters>
          </Trackpoint>
          <Trackpoint>
            <Time>2022-09-20T12:17:37.000Z</Time>
            <Position>
              <LatitudeDegrees>49.4215231575071811676025390625</LatitudeDegrees>
              <LongitudeDegrees>20.31845287419855594635009765625</LongitudeDegrees>
            </Position>
            <AltitudeMeters>534.79998779296875</AltitudeMeters>
            <DistanceMeters>NAN</DistanceMeters>
          </Trackpoint>
          <Trackpoint>
            <Time>2022-09-20T12:17:38.000Z</Time>
            <Position>
              <LatitudeDegrees>49.42152977921068668365478515625</LatitudeDegrees>
              <LongitudeDegrees>20.31849302351474761962890625</LongitudeDegrees>
            </Position>
            <AltitudeMeters>534.79998779296875</AltitudeMeters>
            <DistanceMeters>NAN</DistanceMeters>
          </Trackpoint>
          <Trackpoint>
            <Time>2022-09-20T12:17:43.000Z</Time>
            <Position>
              <LatitudeDegrees>49.42150999791920185089111328125</LatitudeDegrees>
              <LongitudeDegrees>20.3186021558940410614013671875</LongitudeDegrees>
            </Position>
            <AltitudeMeters>534.79998779296875</AltitudeMeters>
            <DistanceMeters>NAN</DistanceMeters>
          </Trackpoint>
          <Trackpoint>
            <Time>2022-09-20T12:17:49.000Z</Time>
            <Position>
              <LatitudeDegrees>49.4215067289769649505615234375</LatitudeDegrees>
              <LongitudeDegrees>20.3187610767781734466552734375</LongitudeDegrees>
            </Position>
            <AltitudeMeters>534.79998779296875</AltitudeMeters>
            <DistanceMeters>NAN</DistanceMeters>
          </Trackpoint>
          <Trackpoint>
            <Time>2022-09-20T12:17:51.000Z</Time>
            <Position>
              <LatitudeDegrees>49.421499855816364288330078125</LatitudeDegrees>
              <LongitudeDegrees>20.318819917738437652587890625</LongitudeDegrees>
            </Position>
            <AltitudeMeters>534.5999755859375</AltitudeMeters>
            <DistanceMeters>NAN</DistanceMeters>
          </Trackpoint>
          <Trackpoint>
            <Time>2022-09-20T12:17:54.000Z</Time>
            <Position>
              <LatitudeDegrees>49.42149206064641475677490234375</LatitudeDegrees>
              <LongitudeDegrees>20.31889946199953556060791015625</LongitudeDegrees>
            </Position>
            <AltitudeMeters>534.20001220703125</AltitudeMeters>
            <DistanceMeters>NAN</DistanceMeters>
          </Trackpoint>
          <Trackpoint>
            <Time>2022-09-20T12:17:55.000Z</Time>
            <Position>
              <LatitudeDegrees>49.42149172537028789520263671875</LatitudeDegrees>
              <LongitudeDegrees>20.31892955303192138671875</LongitudeDegrees>
            </Position>
            <AltitudeMeters>534.20001220703125</AltitudeMeters>
            <DistanceMeters>NAN</DistanceMeters>
          </Trackpoint>
          <Trackpoint>
            <Time>2022-09-20T12:17:58.000Z</Time>
            <Position>
              <LatitudeDegrees>49.42148082889616489410400390625</LatitudeDegrees>
              <LongitudeDegrees>20.31901211477816104888916015625</LongitudeDegrees>
            </Position>
            <AltitudeMeters>533.79998779296875</AltitudeMeters>
            <DistanceMeters>NAN</DistanceMeters>
          </Trackpoint>
          <Trackpoint>
            <Time>2022-09-20T12:18:00.000Z</Time>
            <Position>
              <LatitudeDegrees>49.42148317582905292510986328125</LatitudeDegrees>
              <LongitudeDegrees>20.31906299293041229248046875</LongitudeDegrees>
            </Position>
            <AltitudeMeters>533.79998779296875</AltitudeMeters>
            <DistanceMeters>NAN</DistanceMeters>
          </Trackpoint>
          <Trackpoint>
            <Time>2022-09-20T12:18:02.000Z</Time>
            <Position>
              <LatitudeDegrees>49.42148602567613124847412109375</LatitudeDegrees>
              <LongitudeDegrees>20.31910314224660396575927734375</LongitudeDegrees>
            </Position>
            <AltitudeMeters>533.79998779296875</AltitudeMeters>
            <DistanceMeters>NAN</DistanceMeters>
          </Trackpoint>
          <Trackpoint>
            <Time>2022-09-20T12:18:03.000Z</Time>
            <Position>
              <LatitudeDegrees>49.4214832596480846405029296875</LatitudeDegrees>
              <LongitudeDegrees>20.319110266864299774169921875</LongitudeDegrees>
            </Position>
            <AltitudeMeters>533.5999755859375</AltitudeMeters>
            <DistanceMeters>NAN</DistanceMeters>
          </Trackpoint>
          <Trackpoint>
            <Time>2022-09-20T12:18:09.000Z</Time>
            <Position>
              <LatitudeDegrees>49.4214832596480846405029296875</LatitudeDegrees>
              <LongitudeDegrees>20.319110266864299774169921875</LongitudeDegrees>
            </Position>
            <AltitudeMeters>533.4000244140625</AltitudeMeters>
            <DistanceMeters>NAN</DistanceMeters>
          </Trackpoint>
          <Trackpoint>
            <Time>2022-09-20T12:18:11.000Z</Time>
            <Position>
              <LatitudeDegrees>49.4214832596480846405029296875</LatitudeDegrees>
              <LongitudeDegrees>20.319110266864299774169921875</LongitudeDegrees>
            </Position>
            <AltitudeMeters>533.4000244140625</AltitudeMeters>
            <DistanceMeters>NAN</DistanceMeters>
          </Trackpoint>
          <Trackpoint>
            <Time>2022-09-20T12:18:12.000Z</Time>
            <Position>
              <LatitudeDegrees>49.4214832596480846405029296875</LatitudeDegrees>
              <LongitudeDegrees>20.319110266864299774169921875</LongitudeDegrees>
            </Position>
            <AltitudeMeters>533.4000244140625</AltitudeMeters>
            <DistanceMeters>NAN</DistanceMeters>
          </Trackpoint>
          <Trackpoint>
            <Time>2022-09-20T12:18:15.000Z</Time>
            <Position>
              <LatitudeDegrees>49.42150211893022060394287109375</LatitudeDegrees>
              <LongitudeDegrees>20.31913180835545063018798828125</LongitudeDegrees>
            </Position>
            <AltitudeMeters>533.4000244140625</AltitudeMeters>
            <DistanceMeters>NAN</DistanceMeters>
          </Trackpoint>
          <Trackpoint>
            <Time>2022-09-20T12:18:16.000Z</Time>
            <Position>
              <LatitudeDegrees>49.42150966264307498931884765625</LatitudeDegrees>
              <LongitudeDegrees>20.3191439621150493621826171875</LongitudeDegrees>
            </Position>
            <AltitudeMeters>533.4000244140625</AltitudeMeters>
            <DistanceMeters>NAN</DistanceMeters>
          </Trackpoint>
          <Trackpoint>
            <Time>2022-09-20T12:18:18.000Z</Time>
            <Position>
              <LatitudeDegrees>49.42152424715459346771240234375</LatitudeDegrees>
              <LongitudeDegrees>20.3191590495407581329345703125</LongitudeDegrees>
            </Position>
            <AltitudeMeters>533.4000244140625</AltitudeMeters>
            <DistanceMeters>NAN</DistanceMeters>
          </Trackpoint>
          <Trackpoint>
            <Time>2022-09-20T12:18:19.000Z</Time>
            <Position>
              <LatitudeDegrees>49.42152810283005237579345703125</LatitudeDegrees>
              <LongitudeDegrees>20.3191637434065341949462890625</LongitudeDegrees>
            </Position>
            <AltitudeMeters>533.20001220703125</AltitudeMeters>
            <DistanceMeters>NAN</DistanceMeters>
          </Trackpoint>
          <Trackpoint>
            <Time>2022-09-20T12:18:20.000Z</Time>
            <Position>
              <LatitudeDegrees>49.42153229378163814544677734375</LatitudeDegrees>
              <LongitudeDegrees>20.31916223466396331787109375</LongitudeDegrees>
            </Position>
            <AltitudeMeters>533.20001220703125</AltitudeMeters>
            <DistanceMeters>NAN</DistanceMeters>
          </Trackpoint>
          <Trackpoint>
            <Time>2022-09-20T12:18:22.000Z</Time>
            <Position>
              <LatitudeDegrees>49.42155651748180389404296875</LatitudeDegrees>
              <LongitudeDegrees>20.3191788308322429656982421875</LongitudeDegrees>
            </Position>
            <AltitudeMeters>533.20001220703125</AltitudeMeters>
            <DistanceMeters>NAN</DistanceMeters>
          </Trackpoint>
          <Trackpoint>
            <Time>2022-09-20T12:18:25.000Z</Time>
            <Position>
              <LatitudeDegrees>49.42158426158130168914794921875</LatitudeDegrees>
              <LongitudeDegrees>20.319224260747432708740234375</LongitudeDegrees>
            </Position>
            <AltitudeMeters>533.20001220703125</AltitudeMeters>
            <DistanceMeters>NAN</DistanceMeters>
          </Trackpoint>
          <Trackpoint>
            <Time>2022-09-20T12:18:27.000Z</Time>
            <Position>
              <LatitudeDegrees>49.421588368713855743408203125</LatitudeDegrees>
              <LongitudeDegrees>20.3192730434238910675048828125</LongitudeDegrees>
            </Position>
            <AltitudeMeters>533.20001220703125</AltitudeMeters>
            <DistanceMeters>NAN</DistanceMeters>
          </Trackpoint>
          <Trackpoint>
            <Time>2022-09-20T12:18:28.000Z</Time>
            <Position>
              <LatitudeDegrees>49.421591721475124359130859375</LatitudeDegrees>
              <LongitudeDegrees>20.31928922049701213836669921875</LongitudeDegrees>
            </Position>
            <AltitudeMeters>533.20001220703125</AltitudeMeters>
            <DistanceMeters>NAN</DistanceMeters>
          </Trackpoint>
          <Trackpoint>
            <Time>2022-09-20T12:18:31.000Z</Time>
            <Position>
              <LatitudeDegrees>49.4216223992407321929931640625</LatitudeDegrees>
              <LongitudeDegrees>20.319308079779148101806640625</LongitudeDegrees>
            </Position>
            <AltitudeMeters>533</AltitudeMeters>
            <DistanceMeters>NAN</DistanceMeters>
          </Trackpoint>
          <Trackpoint>
            <Time>2022-09-20T12:18:33.000Z</Time>
            <Position>
              <LatitudeDegrees>49.4216636382043361663818359375</LatitudeDegrees>
              <LongitudeDegrees>20.31929341144859790802001953125</LongitudeDegrees>
            </Position>
            <AltitudeMeters>532.79998779296875</AltitudeMeters>
            <DistanceMeters>NAN</DistanceMeters>
          </Trackpoint>
          <Trackpoint>
            <Time>2022-09-20T12:18:34.000Z</Time>
            <Position>
              <LatitudeDegrees>49.4216804020106792449951171875</LatitudeDegrees>
              <LongitudeDegrees>20.31928536482155323028564453125</LongitudeDegrees>
            </Position>
            <AltitudeMeters>532.5999755859375</AltitudeMeters>
            <DistanceMeters>NAN</DistanceMeters>
          </Trackpoint>
          <Trackpoint>
            <Time>2022-09-20T12:18:37.000Z</Time>
            <Position>
              <LatitudeDegrees>49.42172683775424957275390625</LatitudeDegrees>
              <LongitudeDegrees>20.31925016082823276519775390625</LongitudeDegrees>
            </Position>
            <AltitudeMeters>532.20001220703125</AltitudeMeters>
            <DistanceMeters>NAN</DistanceMeters>
          </Trackpoint>
          <Trackpoint>
            <Time>2022-09-20T12:18:39.000Z</Time>
            <Position>
              <LatitudeDegrees>49.42175902426242828369140625</LatitudeDegrees>
              <LongitudeDegrees>20.31922870315611362457275390625</LongitudeDegrees>
            </Position>
            <AltitudeMeters>532</AltitudeMeters>
            <DistanceMeters>NAN</DistanceMeters>
          </Trackpoint>
          <Trackpoint>
            <Time>2022-09-20T12:18:44.000Z</Time>
            <Position>
              <LatitudeDegrees>49.4218637980520725250244140625</LatitudeDegrees>
              <LongitudeDegrees>20.31921244226396083831787109375</LongitudeDegrees>
            </Position>
            <AltitudeMeters>531.5999755859375</AltitudeMeters>
            <DistanceMeters>NAN</DistanceMeters>
          </Trackpoint>
          <Trackpoint>
            <Time>2022-09-20T12:18:45.000Z</Time>
            <Position>
              <LatitudeDegrees>49.42188047803938388824462890625</LatitudeDegrees>
              <LongitudeDegrees>20.31923524104058742523193359375</LongitudeDegrees>
            </Position>
            <AltitudeMeters>531.5999755859375</AltitudeMeters>
            <DistanceMeters>NAN</DistanceMeters>
          </Trackpoint>
          <Trackpoint>
            <Time>2022-09-20T12:18:46.000Z</Time>
            <Position>
              <LatitudeDegrees>49.42190520465373992919921875</LatitudeDegrees>
              <LongitudeDegrees>20.31924747861921787261962890625</LongitudeDegrees>
            </Position>
            <AltitudeMeters>531.5999755859375</AltitudeMeters>
            <DistanceMeters>NAN</DistanceMeters>
          </Trackpoint>
          <Trackpoint>
            <Time>2022-09-20T12:18:50.000Z</Time>
            <Position>
              <LatitudeDegrees>49.42196044139564037322998046875</LatitudeDegrees>
              <LongitudeDegrees>20.31923691742122173309326171875</LongitudeDegrees>
            </Position>
            <AltitudeMeters>531.4000244140625</AltitudeMeters>
            <DistanceMeters>NAN</DistanceMeters>
          </Trackpoint>
          <Trackpoint>
            <Time>2022-09-20T12:18:52.000Z</Time>
            <Position>
              <LatitudeDegrees>49.42196044139564037322998046875</LatitudeDegrees>
              <LongitudeDegrees>20.31923691742122173309326171875</LongitudeDegrees>
            </Position>
            <AltitudeMeters>531.20001220703125</AltitudeMeters>
            <DistanceMeters>NAN</DistanceMeters>
          </Trackpoint>
          <Trackpoint>
            <Time>2022-09-20T12:18:55.000Z</Time>
            <Position>
              <LatitudeDegrees>49.42195323295891284942626953125</LatitudeDegrees>
              <LongitudeDegrees>20.31922283582389354705810546875</LongitudeDegrees>
            </Position>
            <AltitudeMeters>531.20001220703125</AltitudeMeters>
            <DistanceMeters>NAN</DistanceMeters>
          </Trackpoint>
          <Trackpoint>
            <Time>2022-09-20T12:19:00.000Z</Time>
            <Position>
              <LatitudeDegrees>49.4219600223004817962646484375</LatitudeDegrees>
              <LongitudeDegrees>20.31921965070068836212158203125</LongitudeDegrees>
            </Position>
            <AltitudeMeters>531.20001220703125</AltitudeMeters>
            <DistanceMeters>NAN</DistanceMeters>
          </Trackpoint>
          <Trackpoint>
            <Time>2022-09-20T12:19:02.000Z</Time>
            <Position>
              <LatitudeDegrees>49.4219600223004817962646484375</LatitudeDegrees>
              <LongitudeDegrees>20.31921965070068836212158203125</LongitudeDegrees>
            </Position>
            <AltitudeMeters>531.20001220703125</AltitudeMeters>
            <DistanceMeters>NAN</DistanceMeters>
          </Trackpoint>
          <Trackpoint>
            <Time>2022-09-20T12:19:11.000Z</Time>
            <Position>
              <LatitudeDegrees>49.42195943556725978851318359375</LatitudeDegrees>
              <LongitudeDegrees>20.3192227520048618316650390625</LongitudeDegrees>
            </Position>
            <AltitudeMeters>531.20001220703125</AltitudeMeters>
            <DistanceMeters>NAN</DistanceMeters>
          </Trackpoint>
          <Trackpoint>
            <Time>2022-09-20T12:19:16.000Z</Time>
            <Position>
              <LatitudeDegrees>49.42195943556725978851318359375</LatitudeDegrees>
              <LongitudeDegrees>20.3192227520048618316650390625</LongitudeDegrees>
            </Position>
            <AltitudeMeters>531.20001220703125</AltitudeMeters>
            <DistanceMeters>NAN</DistanceMeters>
          </Trackpoint>
          <Trackpoint>
            <Time>2022-09-20T12:19:20.000Z</Time>
            <Position>
              <LatitudeDegrees>49.42195943556725978851318359375</LatitudeDegrees>
              <LongitudeDegrees>20.31923272646963596343994140625</LongitudeDegrees>
            </Position>
            <AltitudeMeters>530.79998779296875</AltitudeMeters>
            <DistanceMeters>NAN</DistanceMeters>
          </Trackpoint>
          <Trackpoint>
            <Time>2022-09-20T12:19:31.000Z</Time>
            <Position>
              <LatitudeDegrees>49.4219539873301982879638671875</LatitudeDegrees>
              <LongitudeDegrees>20.3192385099828243255615234375</LongitudeDegrees>
            </Position>
            <AltitudeMeters>530.79998779296875</AltitudeMeters>
            <DistanceMeters>NAN</DistanceMeters>
          </Trackpoint>
          <Trackpoint>
            <Time>2022-09-20T12:19:40.000Z</Time>
            <Position>
              <LatitudeDegrees>49.4219539873301982879638671875</LatitudeDegrees>
              <LongitudeDegrees>20.3192385099828243255615234375</LongitudeDegrees>
            </Position>
            <AltitudeMeters>530.5999755859375</AltitudeMeters>
            <DistanceMeters>NAN</DistanceMeters>
          </Trackpoint>
          <Trackpoint>
            <Time>2022-09-20T12:19:43.000Z</Time>
            <Position>
              <LatitudeDegrees>49.4219539873301982879638671875</LatitudeDegrees>
              <LongitudeDegrees>20.3192385099828243255615234375</LongitudeDegrees>
            </Position>
            <AltitudeMeters>530.79998779296875</AltitudeMeters>
            <DistanceMeters>NAN</DistanceMeters>
          </Trackpoint>
          <Trackpoint>
            <Time>2022-09-20T12:19:52.000Z</Time>
            <Position>
              <LatitudeDegrees>49.4219539873301982879638671875</LatitudeDegrees>
              <LongitudeDegrees>20.3192385099828243255615234375</LongitudeDegrees>
            </Position>
            <AltitudeMeters>530.79998779296875</AltitudeMeters>
            <DistanceMeters>NAN</DistanceMeters>
          </Trackpoint>
          <Trackpoint>
            <Time>2022-09-20T12:20:03.000Z</Time>
            <Position>
              <LatitudeDegrees>49.42194267176091670989990234375</LatitudeDegrees>
              <LongitudeDegrees>20.31924261711537837982177734375</LongitudeDegrees>
            </Position>
            <AltitudeMeters>531</AltitudeMeters>
            <DistanceMeters>NAN</DistanceMeters>
          </Trackpoint>
          <Trackpoint>
            <Time>2022-09-20T12:20:04.000Z</Time>
            <Position>
              <LatitudeDegrees>49.4219315238296985626220703125</LatitudeDegrees>
              <LongitudeDegrees>20.3192465566098690032958984375</LongitudeDegrees>
            </Position>
            <AltitudeMeters>531</AltitudeMeters>
            <DistanceMeters>NAN</DistanceMeters>
          </Trackpoint>
          <Trackpoint>
            <Time>2022-09-20T12:20:07.000Z</Time>
            <Position>
              <LatitudeDegrees>49.42192289046943187713623046875</LatitudeDegrees>
              <LongitudeDegrees>20.31924647279083728790283203125</LongitudeDegrees>
            </Position>
            <AltitudeMeters>531</AltitudeMeters>
            <DistanceMeters>NAN</DistanceMeters>
          </Trackpoint>
          <Trackpoint>
            <Time>2022-09-20T12:20:09.000Z</Time>
            <Position>
              <LatitudeDegrees>49.42192289046943187713623046875</LatitudeDegrees>
              <LongitudeDegrees>20.31924647279083728790283203125</LongitudeDegrees>
            </Position>
            <AltitudeMeters>531</AltitudeMeters>
            <DistanceMeters>NAN</DistanceMeters>
          </Trackpoint>
          <Trackpoint>
            <Time>2022-09-20T12:20:16.000Z</Time>
            <Position>
              <LatitudeDegrees>49.42192289046943187713623046875</LatitudeDegrees>
              <LongitudeDegrees>20.319248735904693603515625</LongitudeDegrees>
            </Position>
            <AltitudeMeters>531.20001220703125</AltitudeMeters>
            <DistanceMeters>NAN</DistanceMeters>
          </Trackpoint>
          <Trackpoint>
            <Time>2022-09-20T12:20:20.000Z</Time>
            <Position>
              <LatitudeDegrees>49.42189338617026805877685546875</LatitudeDegrees>
              <LongitudeDegrees>20.31925250776112079620361328125</LongitudeDegrees>
            </Position>
            <AltitudeMeters>531.20001220703125</AltitudeMeters>
            <DistanceMeters>NAN</DistanceMeters>
          </Trackpoint>
          <Trackpoint>
            <Time>2022-09-20T12:20:26.000Z</Time>
            <Position>
              <LatitudeDegrees>49.421889446675777435302734375</LatitudeDegrees>
              <LongitudeDegrees>20.3192569501698017120361328125</LongitudeDegrees>
            </Position>
            <AltitudeMeters>531.20001220703125</AltitudeMeters>
            <DistanceMeters>NAN</DistanceMeters>
          </Trackpoint>
          <Trackpoint>
            <Time>2022-09-20T12:20:29.000Z</Time>
            <Position>
              <LatitudeDegrees>49.42188634537160396575927734375</LatitudeDegrees>
              <LongitudeDegrees>20.31926021911203861236572265625</LongitudeDegrees>
            </Position>
            <AltitudeMeters>531.20001220703125</AltitudeMeters>
            <DistanceMeters>NAN</DistanceMeters>
          </Trackpoint>
          <Trackpoint>
            <Time>2022-09-20T12:20:31.000Z</Time>
            <Position>
              <LatitudeDegrees>49.42187561653554439544677734375</LatitudeDegrees>
              <LongitudeDegrees>20.3192737139761447906494140625</LongitudeDegrees>
            </Position>
            <AltitudeMeters>531.20001220703125</AltitudeMeters>
            <DistanceMeters>NAN</DistanceMeters>
          </Trackpoint>
          <Trackpoint>
            <Time>2022-09-20T12:20:33.000Z</Time>
            <Position>
              <LatitudeDegrees>49.42187561653554439544677734375</LatitudeDegrees>
              <LongitudeDegrees>20.3192737139761447906494140625</LongitudeDegrees>
            </Position>
            <AltitudeMeters>531.20001220703125</AltitudeMeters>
            <DistanceMeters>NAN</DistanceMeters>
          </Trackpoint>
          <Trackpoint>
            <Time>2022-09-20T12:20:40.000Z</Time>
            <Position>
              <LatitudeDegrees>49.421815015375614166259765625</LatitudeDegrees>
              <LongitudeDegrees>20.31936583109200000762939453125</LongitudeDegrees>
            </Position>
            <AltitudeMeters>531.20001220703125</AltitudeMeters>
            <DistanceMeters>NAN</DistanceMeters>
          </Trackpoint>
          <Trackpoint>
            <Time>2022-09-20T12:20:44.000Z</Time>
            <Position>
              <LatitudeDegrees>49.4217677414417266845703125</LatitudeDegrees>
              <LongitudeDegrees>20.31943087466061115264892578125</LongitudeDegrees>
            </Position>
            <AltitudeMeters>531</AltitudeMeters>
            <DistanceMeters>NAN</DistanceMeters>
          </Trackpoint>
          <Trackpoint>
            <Time>2022-09-20T12:20:47.000Z</Time>
            <Position>
              <LatitudeDegrees>49.4217337109148502349853515625</LatitudeDegrees>
              <LongitudeDegrees>20.3194457106292247772216796875</LongitudeDegrees>
            </Position>
            <AltitudeMeters>530.79998779296875</AltitudeMeters>
            <DistanceMeters>NAN</DistanceMeters>
          </Trackpoint>
          <Trackpoint>
            <Time>2022-09-20T12:20:50.000Z</Time>
            <Position>
              <LatitudeDegrees>49.4217099063098430633544921875</LatitudeDegrees>
              <LongitudeDegrees>20.31946188770234584808349609375</LongitudeDegrees>
            </Position>
            <AltitudeMeters>530.5999755859375</AltitudeMeters>
            <DistanceMeters>NAN</DistanceMeters>
          </Trackpoint>
          <Trackpoint>
            <Time>2022-09-20T12:20:52.000Z</Time>
            <Position>
              <LatitudeDegrees>49.42167813889682292938232421875</LatitudeDegrees>
              <LongitudeDegrees>20.3194567747414112091064453125</LongitudeDegrees>
            </Position>
            <AltitudeMeters>530.5999755859375</AltitudeMeters>
            <DistanceMeters>NAN</DistanceMeters>
          </Trackpoint>
          <Trackpoint>
            <Time>2022-09-20T12:20:59.000Z</Time>
            <Position>
              <LatitudeDegrees>49.4216331280767917633056640625</LatitudeDegrees>
              <LongitudeDegrees>20.3194336406886577606201171875</LongitudeDegrees>
            </Position>
            <AltitudeMeters>531</AltitudeMeters>
            <DistanceMeters>NAN</DistanceMeters>
          </Trackpoint>
          <Trackpoint>
            <Time>2022-09-20T12:21:04.000Z</Time>
            <Position>
              <LatitudeDegrees>49.42161628045141696929931640625</LatitudeDegrees>
              <LongitudeDegrees>20.3194095008075237274169921875</LongitudeDegrees>
            </Position>
            <AltitudeMeters>531.4000244140625</AltitudeMeters>
            <DistanceMeters>NAN</DistanceMeters>
          </Trackpoint>
          <Trackpoint>
            <Time>2022-09-20T12:21:05.000Z</Time>
            <Position>
              <LatitudeDegrees>49.42161896266043186187744140625</LatitudeDegrees>
              <LongitudeDegrees>20.3194031305611133575439453125</LongitudeDegrees>
            </Position>
            <AltitudeMeters>531.4000244140625</AltitudeMeters>
            <DistanceMeters>NAN</DistanceMeters>
          </Trackpoint>
          <Trackpoint>
            <Time>2022-09-20T12:21:06.000Z</Time>
            <Position>
              <LatitudeDegrees>49.421615861356258392333984375</LatitudeDegrees>
              <LongitudeDegrees>20.319388210773468017578125</LongitudeDegrees>
            </Position>
            <AltitudeMeters>531.4000244140625</AltitudeMeters>
            <DistanceMeters>NAN</DistanceMeters>
          </Trackpoint>
          <Trackpoint>
            <Time>2022-09-20T12:21:10.000Z</Time>
            <Position>
              <LatitudeDegrees>49.42161695100367069244384765625</LatitudeDegrees>
              <LongitudeDegrees>20.3193789906799793243408203125</LongitudeDegrees>
            </Position>
            <AltitudeMeters>531.4000244140625</AltitudeMeters>
            <DistanceMeters>NAN</DistanceMeters>
          </Trackpoint>
          <Trackpoint>
            <Time>2022-09-20T12:21:15.000Z</Time>
            <Position>
              <LatitudeDegrees>49.42159599624574184417724609375</LatitudeDegrees>
              <LongitudeDegrees>20.31935711391270160675048828125</LongitudeDegrees>
            </Position>
            <AltitudeMeters>531.4000244140625</AltitudeMeters>
            <DistanceMeters>NAN</DistanceMeters>
          </Trackpoint>
          <Trackpoint>
            <Time>2022-09-20T12:21:16.000Z</Time>
            <Position>
              <LatitudeDegrees>49.4215773046016693115234375</LatitudeDegrees>
              <LongitudeDegrees>20.31929793767631053924560546875</LongitudeDegrees>
            </Position>
            <AltitudeMeters>531.4000244140625</AltitudeMeters>
            <DistanceMeters>NAN</DistanceMeters>
          </Trackpoint>
          <Trackpoint>
            <Time>2022-09-20T12:21:17.000Z</Time>
            <Position>
              <LatitudeDegrees>49.4215665757656097412109375</LatitudeDegrees>
              <LongitudeDegrees>20.319288633763790130615234375</LongitudeDegrees>
            </Position>
            <AltitudeMeters>531.4000244140625</AltitudeMeters>
            <DistanceMeters>NAN</DistanceMeters>
          </Trackpoint>
          <Trackpoint>
            <Time>2022-09-20T12:21:18.000Z</Time>
            <Position>
              <LatitudeDegrees>49.4215665757656097412109375</LatitudeDegrees>
              <LongitudeDegrees>20.319288633763790130615234375</LongitudeDegrees>
            </Position>
            <AltitudeMeters>531.4000244140625</AltitudeMeters>
            <DistanceMeters>NAN</DistanceMeters>
          </Trackpoint>
          <Trackpoint>
            <Time>2022-09-20T12:21:23.000Z</Time>
            <Position>
              <LatitudeDegrees>49.421568922698497772216796875</LatitudeDegrees>
              <LongitudeDegrees>20.31929207034409046173095703125</LongitudeDegrees>
            </Position>
            <AltitudeMeters>530.79998779296875</AltitudeMeters>
            <DistanceMeters>NAN</DistanceMeters>
          </Trackpoint>
          <Trackpoint>
            <Time>2022-09-20T12:21:27.000Z</Time>
            <Position>
              <LatitudeDegrees>49.42159046418964862823486328125</LatitudeDegrees>
              <LongitudeDegrees>20.31930707395076751708984375</LongitudeDegrees>
            </Position>
            <AltitudeMeters>530.79998779296875</AltitudeMeters>
            <DistanceMeters>NAN</DistanceMeters>
          </Trackpoint>
          <Trackpoint>
            <Time>2022-09-20T12:21:32.000Z</Time>
            <Position>
              <LatitudeDegrees>49.4216237403452396392822265625</LatitudeDegrees>
              <LongitudeDegrees>20.31936532817780971527099609375</LongitudeDegrees>
            </Position>
            <AltitudeMeters>530.79998779296875</AltitudeMeters>
            <DistanceMeters>NAN</DistanceMeters>
          </Trackpoint>
          <Trackpoint>
            <Time>2022-09-20T12:21:36.000Z</Time>
            <Position>
              <LatitudeDegrees>49.42163757048547267913818359375</LatitudeDegrees>
              <LongitudeDegrees>20.3193950839340686798095703125</LongitudeDegrees>
            </Position>
            <AltitudeMeters>530.79998779296875</AltitudeMeters>
            <DistanceMeters>NAN</DistanceMeters>
          </Trackpoint>
          <Trackpoint>
            <Time>2022-09-20T12:21:37.000Z</Time>
            <Position>
              <LatitudeDegrees>49.4216374866664409637451171875</LatitudeDegrees>
              <LongitudeDegrees>20.3193949162960052490234375</LongitudeDegrees>
            </Position>
            <AltitudeMeters>530.79998779296875</AltitudeMeters>
            <DistanceMeters>NAN</DistanceMeters>
          </Trackpoint>
          <Trackpoint>
            <Time>2022-09-20T12:21:38.000Z</Time>
            <Position>
              <LatitudeDegrees>49.4216324575245380401611328125</LatitudeDegrees>
              <LongitudeDegrees>20.3193927370011806488037109375</LongitudeDegrees>
            </Position>
            <AltitudeMeters>530.79998779296875</AltitudeMeters>
            <DistanceMeters>NAN</DistanceMeters>
          </Trackpoint>
          <Trackpoint>
            <Time>2022-09-20T12:21:42.000Z</Time>
            <Position>
              <LatitudeDegrees>49.4216140173375606536865234375</LatitudeDegrees>
              <LongitudeDegrees>20.31938678584992885589599609375</LongitudeDegrees>
            </Position>
            <AltitudeMeters>530.79998779296875</AltitudeMeters>
            <DistanceMeters>NAN</DistanceMeters>
          </Trackpoint>
          <Trackpoint>
            <Time>2022-09-20T12:21:46.000Z</Time>
            <Position>
              <LatitudeDegrees>49.42156188189983367919921875</LatitudeDegrees>
              <LongitudeDegrees>20.3193546831607818603515625</LongitudeDegrees>
            </Position>
            <AltitudeMeters>530.79998779296875</AltitudeMeters>
            <DistanceMeters>NAN</DistanceMeters>
          </Trackpoint>
          <Trackpoint>
            <Time>2022-09-20T12:21:49.000Z</Time>
            <Position>
              <LatitudeDegrees>49.42156347446143627166748046875</LatitudeDegrees>
              <LongitudeDegrees>20.3193466365337371826171875</LongitudeDegrees>
            </Position>
            <AltitudeMeters>530.79998779296875</AltitudeMeters>
            <DistanceMeters>NAN</DistanceMeters>
          </Trackpoint>
          <Trackpoint>
            <Time>2022-09-20T12:21:54.000Z</Time>
            <Position>
              <LatitudeDegrees>49.42155106924474239349365234375</LatitudeDegrees>
              <LongitudeDegrees>20.31933867372572422027587890625</LongitudeDegrees>
            </Position>
            <AltitudeMeters>530.5999755859375</AltitudeMeters>
            <DistanceMeters>NAN</DistanceMeters>
          </Trackpoint>
          <Trackpoint>
            <Time>2022-09-20T12:22:00.000Z</Time>
            <Position>
              <LatitudeDegrees>49.42155526019632816314697265625</LatitudeDegrees>
              <LongitudeDegrees>20.3193635679781436920166015625</LongitudeDegrees>
            </Position>
            <AltitudeMeters>530.4000244140625</AltitudeMeters>
            <DistanceMeters>NAN</DistanceMeters>
          </Trackpoint>
          <Trackpoint>
            <Time>2022-09-20T12:22:01.000Z</Time>
            <Position>
              <LatitudeDegrees>49.4215506501495838165283203125</LatitudeDegrees>
              <LongitudeDegrees>20.319321155548095703125</LongitudeDegrees>
            </Position>
            <AltitudeMeters>530.5999755859375</AltitudeMeters>
            <DistanceMeters>NAN</DistanceMeters>
          </Trackpoint>
          <Trackpoint>
            <Time>2022-09-20T12:22:06.000Z</Time>
            <Position>
              <LatitudeDegrees>49.42154872231185436248779296875</LatitudeDegrees>
              <LongitudeDegrees>20.31932559795677661895751953125</LongitudeDegrees>
            </Position>
            <AltitudeMeters>530.4000244140625</AltitudeMeters>
            <DistanceMeters>NAN</DistanceMeters>
          </Trackpoint>
          <Trackpoint>
            <Time>2022-09-20T12:22:11.000Z</Time>
            <Position>
              <LatitudeDegrees>49.421552829444408416748046875</LatitudeDegrees>
              <LongitudeDegrees>20.31932610087096691131591796875</LongitudeDegrees>
            </Position>
            <AltitudeMeters>530.20001220703125</AltitudeMeters>
            <DistanceMeters>NAN</DistanceMeters>
          </Trackpoint>
          <Trackpoint>
            <Time>2022-09-20T12:22:12.000Z</Time>
            <Position>
              <LatitudeDegrees>49.4215610437095165252685546875</LatitudeDegrees>
              <LongitudeDegrees>20.3193290345370769500732421875</LongitudeDegrees>
            </Position>
            <AltitudeMeters>530.20001220703125</AltitudeMeters>
            <DistanceMeters>NAN</DistanceMeters>
          </Trackpoint>
          <Trackpoint>
            <Time>2022-09-20T12:22:14.000Z</Time>
            <Position>
              <LatitudeDegrees>49.42160353995859622955322265625</LatitudeDegrees>
              <LongitudeDegrees>20.3193397633731365203857421875</LongitudeDegrees>
            </Position>
            <AltitudeMeters>530</AltitudeMeters>
            <DistanceMeters>NAN</DistanceMeters>
          </Trackpoint>
          <Trackpoint>
            <Time>2022-09-20T12:22:19.000Z</Time>
            <Position>
              <LatitudeDegrees>49.42166958935558795928955078125</LatitudeDegrees>
              <LongitudeDegrees>20.31928427517414093017578125</LongitudeDegrees>
            </Position>
            <AltitudeMeters>530.20001220703125</AltitudeMeters>
            <DistanceMeters>NAN</DistanceMeters>
          </Trackpoint>
          <Trackpoint>
            <Time>2022-09-20T12:22:20.000Z</Time>
            <Position>
              <LatitudeDegrees>49.42166958935558795928955078125</LatitudeDegrees>
              <LongitudeDegrees>20.31928427517414093017578125</LongitudeDegrees>
            </Position>
            <AltitudeMeters>530.20001220703125</AltitudeMeters>
            <DistanceMeters>NAN</DistanceMeters>
          </Trackpoint>
          <Trackpoint>
            <Time>2022-09-20T12:22:21.000Z</Time>
            <Position>
              <LatitudeDegrees>49.4216981716454029083251953125</LatitudeDegrees>
              <LongitudeDegrees>20.31927413307130336761474609375</LongitudeDegrees>
            </Position>
            <AltitudeMeters>530.20001220703125</AltitudeMeters>
            <DistanceMeters>NAN</DistanceMeters>
          </Trackpoint>
          <Trackpoint>
            <Time>2022-09-20T12:22:24.000Z</Time>
            <Position>
              <LatitudeDegrees>49.42173077724874019622802734375</LatitudeDegrees>
              <LongitudeDegrees>20.31925502233207225799560546875</LongitudeDegrees>
            </Position>
            <AltitudeMeters>530.4000244140625</AltitudeMeters>
            <DistanceMeters>NAN</DistanceMeters>
          </Trackpoint>
          <Trackpoint>
            <Time>2022-09-20T12:22:29.000Z</Time>
            <Position>
              <LatitudeDegrees>49.4217394106090068817138671875</LatitudeDegrees>
              <LongitudeDegrees>20.31923775561153888702392578125</LongitudeDegrees>
            </Position>
            <AltitudeMeters>530.5999755859375</AltitudeMeters>
            <DistanceMeters>NAN</DistanceMeters>
          </Trackpoint>
          <Trackpoint>
            <Time>2022-09-20T12:22:35.000Z</Time>
            <Position>
              <LatitudeDegrees>49.42179062403738498687744140625</LatitudeDegrees>
              <LongitudeDegrees>20.319217555224895477294921875</LongitudeDegrees>
            </Position>
            <AltitudeMeters>530.20001220703125</AltitudeMeters>
            <DistanceMeters>NAN</DistanceMeters>
          </Trackpoint>
          <Trackpoint>
            <Time>2022-09-20T12:22:38.000Z</Time>
            <Position>
              <LatitudeDegrees>49.4217977486550807952880859375</LatitudeDegrees>
              <LongitudeDegrees>20.3192153759300708770751953125</LongitudeDegrees>
            </Position>
            <AltitudeMeters>530</AltitudeMeters>
            <DistanceMeters>NAN</DistanceMeters>
          </Trackpoint>
          <Trackpoint>
            <Time>2022-09-20T12:22:40.000Z</Time>
            <Position>
              <LatitudeDegrees>49.42182130180299282073974609375</LatitudeDegrees>
              <LongitudeDegrees>20.31920691020786762237548828125</LongitudeDegrees>
            </Position>
            <AltitudeMeters>530</AltitudeMeters>
            <DistanceMeters>NAN</DistanceMeters>
          </Trackpoint>
          <Trackpoint>
            <Time>2022-09-20T12:22:42.000Z</Time>
            <Position>
              <LatitudeDegrees>49.42182733677327632904052734375</LatitudeDegrees>
              <LongitudeDegrees>20.3192049823701381683349609375</LongitudeDegrees>
            </Position>
            <AltitudeMeters>530.20001220703125</AltitudeMeters>
            <DistanceMeters>NAN</DistanceMeters>
          </Trackpoint>
          <Trackpoint>
            <Time>2022-09-20T12:22:49.000Z</Time>
            <Position>
              <LatitudeDegrees>49.42189455963671207427978515625</LatitudeDegrees>
              <LongitudeDegrees>20.31922032125294208526611328125</LongitudeDegrees>
            </Position>
            <AltitudeMeters>530</AltitudeMeters>
            <DistanceMeters>NAN</DistanceMeters>
          </Trackpoint>
          <Trackpoint>
            <Time>2022-09-20T12:22:57.000Z</Time>
            <Position>
              <LatitudeDegrees>49.42189908586442470550537109375</LatitudeDegrees>
              <LongitudeDegrees>20.31923063099384307861328125</LongitudeDegrees>
            </Position>
            <AltitudeMeters>529.5999755859375</AltitudeMeters>
            <DistanceMeters>NAN</DistanceMeters>
          </Trackpoint>
          <Trackpoint>
            <Time>2022-09-20T12:23:01.000Z</Time>
            <Position>
              <LatitudeDegrees>49.42189908586442470550537109375</LatitudeDegrees>
              <LongitudeDegrees>20.31923063099384307861328125</LongitudeDegrees>
            </Position>
            <AltitudeMeters>529.5999755859375</AltitudeMeters>
            <DistanceMeters>NAN</DistanceMeters>
          </Trackpoint>
          <Trackpoint>
            <Time>2022-09-20T12:23:04.000Z</Time>
            <Position>
              <LatitudeDegrees>49.42189908586442470550537109375</LatitudeDegrees>
              <LongitudeDegrees>20.31923063099384307861328125</LongitudeDegrees>
            </Position>
            <AltitudeMeters>529.5999755859375</AltitudeMeters>
            <DistanceMeters>NAN</DistanceMeters>
          </Trackpoint>
          <Trackpoint>
            <Time>2022-09-20T12:23:11.000Z</Time>
            <Position>
              <LatitudeDegrees>49.42189908586442470550537109375</LatitudeDegrees>
              <LongitudeDegrees>20.31923063099384307861328125</LongitudeDegrees>
            </Position>
            <AltitudeMeters>529.79998779296875</AltitudeMeters>
            <DistanceMeters>NAN</DistanceMeters>
          </Trackpoint>
          <Trackpoint>
            <Time>2022-09-20T12:23:19.000Z</Time>
            <Position>
              <LatitudeDegrees>49.42189908586442470550537109375</LatitudeDegrees>
              <LongitudeDegrees>20.31923063099384307861328125</LongitudeDegrees>
            </Position>
            <AltitudeMeters>529.5999755859375</AltitudeMeters>
            <DistanceMeters>NAN</DistanceMeters>
          </Trackpoint>
          <Trackpoint>
            <Time>2022-09-20T12:23:23.000Z</Time>
            <Position>
              <LatitudeDegrees>49.42189908586442470550537109375</LatitudeDegrees>
              <LongitudeDegrees>20.31923063099384307861328125</LongitudeDegrees>
            </Position>
            <AltitudeMeters>529.5999755859375</AltitudeMeters>
            <DistanceMeters>NAN</DistanceMeters>
          </Trackpoint>
          <Trackpoint>
            <Time>2022-09-20T12:23:31.000Z</Time>
            <Position>
              <LatitudeDegrees>49.42189908586442470550537109375</LatitudeDegrees>
              <LongitudeDegrees>20.31923063099384307861328125</LongitudeDegrees>
            </Position>
            <AltitudeMeters>529.5999755859375</AltitudeMeters>
            <DistanceMeters>NAN</DistanceMeters>
          </Trackpoint>
          <Trackpoint>
            <Time>2022-09-20T12:23:37.000Z</Time>
            <Position>
              <LatitudeDegrees>49.4218976609408855438232421875</LatitudeDegrees>
              <LongitudeDegrees>20.319227278232574462890625</LongitudeDegrees>
            </Position>
            <AltitudeMeters>529.79998779296875</AltitudeMeters>
            <DistanceMeters>NAN</DistanceMeters>
          </Trackpoint>
          <Trackpoint>
            <Time>2022-09-20T12:23:39.000Z</Time>
            <Position>
              <LatitudeDegrees>49.421895481646060943603515625</LatitudeDegrees>
              <LongitudeDegrees>20.31921856105327606201171875</LongitudeDegrees>
            </Position>
            <AltitudeMeters>529.4000244140625</AltitudeMeters>
            <DistanceMeters>NAN</DistanceMeters>
          </Trackpoint>
          <Trackpoint>
            <Time>2022-09-20T12:24:00.000Z</Time>
            <Position>
              <LatitudeDegrees>49.4219000078737735748291015625</LatitudeDegrees>
              <LongitudeDegrees>20.31919844448566436767578125</LongitudeDegrees>
            </Position>
            <AltitudeMeters>529.4000244140625</AltitudeMeters>
            <DistanceMeters>NAN</DistanceMeters>
          </Trackpoint>
          <Trackpoint>
            <Time>2022-09-20T12:24:07.000Z</Time>
            <Position>
              <LatitudeDegrees>49.421903192996978759765625</LatitudeDegrees>
              <LongitudeDegrees>20.31919970177114009857177734375</LongitudeDegrees>
            </Position>
            <AltitudeMeters>529.4000244140625</AltitudeMeters>
            <DistanceMeters>NAN</DistanceMeters>
          </Trackpoint>
          <Trackpoint>
            <Time>2022-09-20T12:24:27.000Z</Time>
            <Position>
              <LatitudeDegrees>49.42193194292485713958740234375</LatitudeDegrees>
              <LongitudeDegrees>20.319211184978485107421875</LongitudeDegrees>
            </Position>
            <AltitudeMeters>529.4000244140625</AltitudeMeters>
            <DistanceMeters>NAN</DistanceMeters>
          </Trackpoint>
          <Trackpoint>
            <Time>2022-09-20T12:24:32.000Z</Time>
            <Position>
              <LatitudeDegrees>49.42193194292485713958740234375</LatitudeDegrees>
              <LongitudeDegrees>20.319211184978485107421875</LongitudeDegrees>
            </Position>
            <AltitudeMeters>529.4000244140625</AltitudeMeters>
            <DistanceMeters>NAN</DistanceMeters>
          </Trackpoint>
          <Trackpoint>
            <Time>2022-09-20T12:24:48.000Z</Time>
            <Position>
              <LatitudeDegrees>49.4219365529716014862060546875</LatitudeDegrees>
              <LongitudeDegrees>20.31921378336846828460693359375</LongitudeDegrees>
            </Position>
            <AltitudeMeters>529.4000244140625</AltitudeMeters>
            <DistanceMeters>NAN</DistanceMeters>
          </Trackpoint>
          <Trackpoint>
            <Time>2022-09-20T12:25:00.000Z</Time>
            <Position>
              <LatitudeDegrees>49.42194686271250247955322265625</LatitudeDegrees>
              <LongitudeDegrees>20.31919165514409542083740234375</LongitudeDegrees>
            </Position>
            <AltitudeMeters>529.4000244140625</AltitudeMeters>
            <DistanceMeters>NAN</DistanceMeters>
          </Trackpoint>
          <Trackpoint>
            <Time>2022-09-20T12:25:03.000Z</Time>
            <Position>
              <LatitudeDegrees>49.42194686271250247955322265625</LatitudeDegrees>
              <LongitudeDegrees>20.31919165514409542083740234375</LongitudeDegrees>
            </Position>
            <AltitudeMeters>529.4000244140625</AltitudeMeters>
            <DistanceMeters>NAN</DistanceMeters>
          </Trackpoint>
          <Trackpoint>
            <Time>2022-09-20T12:25:11.000Z</Time>
            <Position>
              <LatitudeDegrees>49.421959184110164642333984375</LatitudeDegrees>
              <LongitudeDegrees>20.31918612308800220489501953125</LongitudeDegrees>
            </Position>
            <AltitudeMeters>529.4000244140625</AltitudeMeters>
            <DistanceMeters>NAN</DistanceMeters>
          </Trackpoint>
          <Trackpoint>
            <Time>2022-09-20T12:25:20.000Z</Time>
            <Position>
              <LatitudeDegrees>49.42203395068645477294921875</LatitudeDegrees>
              <LongitudeDegrees>20.31915578059852123260498046875</LongitudeDegrees>
            </Position>
            <AltitudeMeters>529.4000244140625</AltitudeMeters>
            <DistanceMeters>NAN</DistanceMeters>
          </Trackpoint>
          <Trackpoint>
            <Time>2022-09-20T12:25:26.000Z</Time>
            <Position>
              <LatitudeDegrees>49.4221176020801067352294921875</LatitudeDegrees>
              <LongitudeDegrees>20.31912577338516712188720703125</LongitudeDegrees>
            </Position>
            <AltitudeMeters>529.4000244140625</AltitudeMeters>
            <DistanceMeters>NAN</DistanceMeters>
          </Trackpoint>
          <Trackpoint>
            <Time>2022-09-20T12:25:27.000Z</Time>
            <Position>
              <LatitudeDegrees>49.42213042639195919036865234375</LatitudeDegrees>
              <LongitudeDegrees>20.31912543810904026031494140625</LongitudeDegrees>
            </Position>
            <AltitudeMeters>529.4000244140625</AltitudeMeters>
            <DistanceMeters>NAN</DistanceMeters>
          </Trackpoint>
          <Trackpoint>
            <Time>2022-09-20T12:25:28.000Z</Time>
            <Position>
              <LatitudeDegrees>49.42214936949312686920166015625</LatitudeDegrees>
              <LongitudeDegrees>20.31912200152873992919921875</LongitudeDegrees>
            </Position>
            <AltitudeMeters>529.4000244140625</AltitudeMeters>
            <DistanceMeters>NAN</DistanceMeters>
          </Trackpoint>
          <Trackpoint>
            <Time>2022-09-20T12:25:32.000Z</Time>
            <Position>
              <LatitudeDegrees>49.42219228483736515045166015625</LatitudeDegrees>
              <LongitudeDegrees>20.3191157989203929901123046875</LongitudeDegrees>
            </Position>
            <AltitudeMeters>529.4000244140625</AltitudeMeters>
            <DistanceMeters>NAN</DistanceMeters>
          </Trackpoint>
          <Trackpoint>
            <Time>2022-09-20T12:25:39.000Z</Time>
            <Position>
              <LatitudeDegrees>49.4222889281809329986572265625</LatitudeDegrees>
              <LongitudeDegrees>20.3191385976970195770263671875</LongitudeDegrees>
            </Position>
            <AltitudeMeters>529.5999755859375</AltitudeMeters>
            <DistanceMeters>NAN</DistanceMeters>
          </Trackpoint>
          <Trackpoint>
            <Time>2022-09-20T12:25:46.000Z</Time>
            <Position>
              <LatitudeDegrees>49.42232362926006317138671875</LatitudeDegrees>
              <LongitudeDegrees>20.31914052553474903106689453125</LongitudeDegrees>
            </Position>
            <AltitudeMeters>530.20001220703125</AltitudeMeters>
            <DistanceMeters>NAN</DistanceMeters>
          </Trackpoint>
          <Trackpoint>
            <Time>2022-09-20T12:25:48.000Z</Time>
            <Position>
              <LatitudeDegrees>49.4223278202116489410400390625</LatitudeDegrees>
              <LongitudeDegrees>20.31913901679217815399169921875</LongitudeDegrees>
            </Position>
            <AltitudeMeters>530.4000244140625</AltitudeMeters>
            <DistanceMeters>NAN</DistanceMeters>
          </Trackpoint>
          <Trackpoint>
            <Time>2022-09-20T12:25:51.000Z</Time>
            <Position>
              <LatitudeDegrees>49.42234684713184833526611328125</LatitudeDegrees>
              <LongitudeDegrees>20.31915041618049144744873046875</LongitudeDegrees>
            </Position>
            <AltitudeMeters>530.79998779296875</AltitudeMeters>
            <DistanceMeters>NAN</DistanceMeters>
          </Trackpoint>
          <Trackpoint>
            <Time>2022-09-20T12:25:52.000Z</Time>
            <Position>
              <LatitudeDegrees>49.42235673777759075164794921875</LatitudeDegrees>
              <LongitudeDegrees>20.31915125437080860137939453125</LongitudeDegrees>
            </Position>
            <AltitudeMeters>531</AltitudeMeters>
            <DistanceMeters>NAN</DistanceMeters>
          </Trackpoint>
          <Trackpoint>
            <Time>2022-09-20T12:25:55.000Z</Time>
            <Position>
              <LatitudeDegrees>49.42239579744637012481689453125</LatitudeDegrees>
              <LongitudeDegrees>20.31915494240820407867431640625</LongitudeDegrees>
            </Position>
            <AltitudeMeters>531.20001220703125</AltitudeMeters>
            <DistanceMeters>NAN</DistanceMeters>
          </Trackpoint>
          <Trackpoint>
            <Time>2022-09-20T12:25:56.000Z</Time>
            <Position>
              <LatitudeDegrees>49.42240602336823940277099609375</LatitudeDegrees>
              <LongitudeDegrees>20.31915963627398014068603515625</LongitudeDegrees>
            </Position>
            <AltitudeMeters>531.20001220703125</AltitudeMeters>
            <DistanceMeters>NAN</DistanceMeters>
          </Trackpoint>
          <Trackpoint>
            <Time>2022-09-20T12:25:57.000Z</Time>
            <Position>
              <LatitudeDegrees>49.4224159978330135345458984375</LatitudeDegrees>
              <LongitudeDegrees>20.3191588819026947021484375</LongitudeDegrees>
            </Position>
            <AltitudeMeters>531.20001220703125</AltitudeMeters>
            <DistanceMeters>NAN</DistanceMeters>
          </Trackpoint>
          <Trackpoint>
            <Time>2022-09-20T12:26:03.000Z</Time>
            <Position>
              <LatitudeDegrees>49.42245933227241039276123046875</LatitudeDegrees>
              <LongitudeDegrees>20.31917698681354522705078125</LongitudeDegrees>
            </Position>
            <AltitudeMeters>532.20001220703125</AltitudeMeters>
            <DistanceMeters>NAN</DistanceMeters>
          </Trackpoint>
          <Trackpoint>
            <Time>2022-09-20T12:26:09.000Z</Time>
            <Position>
              <LatitudeDegrees>49.42248699255287647247314453125</LatitudeDegrees>
              <LongitudeDegrees>20.31921177171170711517333984375</LongitudeDegrees>
            </Position>
            <AltitudeMeters>532.79998779296875</AltitudeMeters>
            <DistanceMeters>NAN</DistanceMeters>
          </Trackpoint>
          <Trackpoint>
            <Time>2022-09-20T12:26:12.000Z</Time>
            <Position>
              <LatitudeDegrees>49.4225182570517063140869140625</LatitudeDegrees>
              <LongitudeDegrees>20.3192348219454288482666015625</LongitudeDegrees>
            </Position>
            <AltitudeMeters>533.4000244140625</AltitudeMeters>
            <DistanceMeters>NAN</DistanceMeters>
          </Trackpoint>
          <Trackpoint>
            <Time>2022-09-20T12:26:15.000Z</Time>
            <Position>
              <LatitudeDegrees>49.4225403852760791778564453125</LatitudeDegrees>
              <LongitudeDegrees>20.319254435598850250244140625</LongitudeDegrees>
            </Position>
            <AltitudeMeters>533.79998779296875</AltitudeMeters>
            <DistanceMeters>NAN</DistanceMeters>
          </Trackpoint>
          <Trackpoint>
            <Time>2022-09-20T12:26:18.000Z</Time>
            <Position>
              <LatitudeDegrees>49.42256377078592777252197265625</LatitudeDegrees>
              <LongitudeDegrees>20.319273881614208221435546875</LongitudeDegrees>
            </Position>
            <AltitudeMeters>534</AltitudeMeters>
            <DistanceMeters>NAN</DistanceMeters>
          </Trackpoint>
          <Trackpoint>
            <Time>2022-09-20T12:26:22.000Z</Time>
            <Position>
              <LatitudeDegrees>49.42258422262966632843017578125</LatitudeDegrees>
              <LongitudeDegrees>20.3193008713424205780029296875</LongitudeDegrees>
            </Position>
            <AltitudeMeters>534.20001220703125</AltitudeMeters>
            <DistanceMeters>NAN</DistanceMeters>
          </Trackpoint>
          <Trackpoint>
            <Time>2022-09-20T12:26:25.000Z</Time>
            <Position>
              <LatitudeDegrees>49.4225970469415187835693359375</LatitudeDegrees>
              <LongitudeDegrees>20.3193169645965099334716796875</LongitudeDegrees>
            </Position>
            <AltitudeMeters>534.20001220703125</AltitudeMeters>
            <DistanceMeters>NAN</DistanceMeters>
          </Trackpoint>
          <Trackpoint>
            <Time>2022-09-20T12:26:26.000Z</Time>
            <Position>
              <LatitudeDegrees>49.4225993938744068145751953125</LatitudeDegrees>
              <LongitudeDegrees>20.3193209879100322723388671875</LongitudeDegrees>
            </Position>
            <AltitudeMeters>534.4000244140625</AltitudeMeters>
            <DistanceMeters>NAN</DistanceMeters>
          </Trackpoint>
          <Trackpoint>
            <Time>2022-09-20T12:26:27.000Z</Time>
            <Position>
              <LatitudeDegrees>49.4225993938744068145751953125</LatitudeDegrees>
              <LongitudeDegrees>20.3193209879100322723388671875</LongitudeDegrees>
            </Position>
            <AltitudeMeters>534.5999755859375</AltitudeMeters>
            <DistanceMeters>NAN</DistanceMeters>
          </Trackpoint>
          <Trackpoint>
            <Time>2022-09-20T12:26:34.000Z</Time>
            <Position>
              <LatitudeDegrees>49.42260584793984889984130859375</LatitudeDegrees>
              <LongitudeDegrees>20.31931780278682708740234375</LongitudeDegrees>
            </Position>
            <AltitudeMeters>535</AltitudeMeters>
            <DistanceMeters>NAN</DistanceMeters>
          </Trackpoint>
          <Trackpoint>
            <Time>2022-09-20T12:44:14.000Z</Time>
            <Position>
              <LatitudeDegrees>49.4226687960326671600341796875</LatitudeDegrees>
              <LongitudeDegrees>20.319972932338714599609375</LongitudeDegrees>
            </Position>
            <AltitudeMeters>551.4000244140625</AltitudeMeters>
            <DistanceMeters>NAN</DistanceMeters>
          </Trackpoint>
          <Trackpoint>
            <Time>2022-09-20T12:44:20.000Z</Time>
            <Position>
              <LatitudeDegrees>49.42271481268107891082763671875</LatitudeDegrees>
              <LongitudeDegrees>20.31998961232602596282958984375</LongitudeDegrees>
            </Position>
            <AltitudeMeters>551.4000244140625</AltitudeMeters>
            <DistanceMeters>NAN</DistanceMeters>
          </Trackpoint>
          <Trackpoint>
            <Time>2022-09-20T12:44:22.000Z</Time>
            <Position>
              <LatitudeDegrees>49.422709532082080841064453125</LatitudeDegrees>
              <LongitudeDegrees>20.32001727260649204254150390625</LongitudeDegrees>
            </Position>
            <AltitudeMeters>551.4000244140625</AltitudeMeters>
            <DistanceMeters>NAN</DistanceMeters>
          </Trackpoint>
          <Trackpoint>
            <Time>2022-09-20T12:44:30.000Z</Time>
            <Position>
              <LatitudeDegrees>49.422697462141513824462890625</LatitudeDegrees>
              <LongitudeDegrees>20.320058763027191162109375</LongitudeDegrees>
            </Position>
            <AltitudeMeters>551.4000244140625</AltitudeMeters>
            <DistanceMeters>NAN</DistanceMeters>
          </Trackpoint>
          <Trackpoint>
            <Time>2022-09-20T12:44:42.000Z</Time>
            <Position>
              <LatitudeDegrees>49.42270240746438503265380859375</LatitudeDegrees>
              <LongitudeDegrees>20.32004593871533870697021484375</LongitudeDegrees>
            </Position>
            <AltitudeMeters>551.4000244140625</AltitudeMeters>
            <DistanceMeters>NAN</DistanceMeters>
          </Trackpoint>
          <Trackpoint>
            <Time>2022-09-20T12:44:45.000Z</Time>
            <Position>
              <LatitudeDegrees>49.42270341329276561737060546875</LatitudeDegrees>
              <LongitudeDegrees>20.320044346153736114501953125</LongitudeDegrees>
            </Position>
            <AltitudeMeters>551.4000244140625</AltitudeMeters>
            <DistanceMeters>NAN</DistanceMeters>
          </Trackpoint>
          <Trackpoint>
            <Time>2022-09-20T12:44:49.000Z</Time>
            <Position>
              <LatitudeDegrees>49.422705508768558502197265625</LatitudeDegrees>
              <LongitudeDegrees>20.320030264556407928466796875</LongitudeDegrees>
            </Position>
            <AltitudeMeters>551.4000244140625</AltitudeMeters>
            <DistanceMeters>NAN</DistanceMeters>
          </Trackpoint>
          <Trackpoint>
            <Time>2022-09-20T12:44:54.000Z</Time>
            <Position>
              <LatitudeDegrees>49.4227123819291591644287109375</LatitudeDegrees>
              <LongitudeDegrees>20.32001291401684284210205078125</LongitudeDegrees>
            </Position>
            <AltitudeMeters>551.4000244140625</AltitudeMeters>
            <DistanceMeters>NAN</DistanceMeters>
          </Trackpoint>
          <Trackpoint>
            <Time>2022-09-20T12:44:57.000Z</Time>
            <Position>
              <LatitudeDegrees>49.42270316183567047119140625</LatitudeDegrees>
              <LongitudeDegrees>20.3200026042759418487548828125</LongitudeDegrees>
            </Position>
            <AltitudeMeters>551.4000244140625</AltitudeMeters>
            <DistanceMeters>NAN</DistanceMeters>
          </Trackpoint>
          <Trackpoint>
            <Time>2022-09-20T12:44:58.000Z</Time>
            <Position>
              <LatitudeDegrees>49.42270173691213130950927734375</LatitudeDegrees>
              <LongitudeDegrees>20.3200005926191806793212890625</LongitudeDegrees>
            </Position>
            <AltitudeMeters>551.4000244140625</AltitudeMeters>
            <DistanceMeters>NAN</DistanceMeters>
          </Trackpoint>
          <Trackpoint>
            <Time>2022-09-20T12:45:00.000Z</Time>
            <Position>
              <LatitudeDegrees>49.42269788123667240142822265625</LatitudeDegrees>
              <LongitudeDegrees>20.320010147988796234130859375</LongitudeDegrees>
            </Position>
            <AltitudeMeters>551.4000244140625</AltitudeMeters>
            <DistanceMeters>NAN</DistanceMeters>
          </Trackpoint>
          <Trackpoint>
            <Time>2022-09-20T12:45:08.000Z</Time>
            <Position>
              <LatitudeDegrees>49.4226775132119655609130859375</LatitudeDegrees>
              <LongitudeDegrees>20.32002590596675872802734375</LongitudeDegrees>
            </Position>
            <AltitudeMeters>551.4000244140625</AltitudeMeters>
            <DistanceMeters>NAN</DistanceMeters>
          </Trackpoint>
          <Trackpoint>
            <Time>2022-09-20T12:45:15.000Z</Time>
            <Position>
              <LatitudeDegrees>49.42268262617290019989013671875</LatitudeDegrees>
              <LongitudeDegrees>20.32002179883420467376708984375</LongitudeDegrees>
            </Position>
            <AltitudeMeters>551.4000244140625</AltitudeMeters>
            <DistanceMeters>NAN</DistanceMeters>
          </Trackpoint>
          <Trackpoint>
            <Time>2022-09-20T12:45:19.000Z</Time>
            <Position>
              <LatitudeDegrees>49.422681033611297607421875</LatitudeDegrees>
              <LongitudeDegrees>20.32003236003220081329345703125</LongitudeDegrees>
            </Position>
            <AltitudeMeters>551.4000244140625</AltitudeMeters>
            <DistanceMeters>NAN</DistanceMeters>
          </Trackpoint>
          <Trackpoint>
            <Time>2022-09-20T12:45:20.000Z</Time>
            <Position>
              <LatitudeDegrees>49.42267625592648983001708984375</LatitudeDegrees>
              <LongitudeDegrees>20.32004174776375293731689453125</LongitudeDegrees>
            </Position>
            <AltitudeMeters>551.4000244140625</AltitudeMeters>
            <DistanceMeters>NAN</DistanceMeters>
          </Trackpoint>
          <Trackpoint>
            <Time>2022-09-20T12:45:27.000Z</Time>
            <Position>
              <LatitudeDegrees>49.422667287290096282958984375</LatitudeDegrees>
              <LongitudeDegrees>20.32003755681216716766357421875</LongitudeDegrees>
            </Position>
            <AltitudeMeters>551.4000244140625</AltitudeMeters>
            <DistanceMeters>NAN</DistanceMeters>
          </Trackpoint>
          <Trackpoint>
            <Time>2022-09-20T12:45:31.000Z</Time>
            <Position>
              <LatitudeDegrees>49.42266636528074741363525390625</LatitudeDegrees>
              <LongitudeDegrees>20.31999849714338779449462890625</LongitudeDegrees>
            </Position>
            <AltitudeMeters>551.4000244140625</AltitudeMeters>
            <DistanceMeters>NAN</DistanceMeters>
          </Trackpoint>
          <Trackpoint>
            <Time>2022-09-20T12:45:34.000Z</Time>
            <Position>
              <LatitudeDegrees>49.42267340607941150665283203125</LatitudeDegrees>
              <LongitudeDegrees>20.3199608623981475830078125</LongitudeDegrees>
            </Position>
            <AltitudeMeters>551.4000244140625</AltitudeMeters>
            <DistanceMeters>NAN</DistanceMeters>
          </Trackpoint>
          <Trackpoint>
            <Time>2022-09-20T12:45:36.000Z</Time>
            <Position>
              <LatitudeDegrees>49.4226823747158050537109375</LatitudeDegrees>
              <LongitudeDegrees>20.31993202865123748779296875</LongitudeDegrees>
            </Position>
            <AltitudeMeters>551.4000244140625</AltitudeMeters>
            <DistanceMeters>NAN</DistanceMeters>
          </Trackpoint>
          <Trackpoint>
            <Time>2022-09-20T12:49:20.000Z</Time>
            <Position>
              <LatitudeDegrees>49.42243217490613460540771484375</LatitudeDegrees>
              <LongitudeDegrees>20.31986338086426258087158203125</LongitudeDegrees>
            </Position>
            <AltitudeMeters>547.20001220703125</AltitudeMeters>
            <DistanceMeters>NAN</DistanceMeters>
          </Trackpoint>
          <Trackpoint>
            <Time>2022-09-20T12:49:24.000Z</Time>
            <Position>
              <LatitudeDegrees>49.4224981404840946197509765625</LatitudeDegrees>
              <LongitudeDegrees>20.31990713439881801605224609375</LongitudeDegrees>
            </Position>
            <AltitudeMeters>547.20001220703125</AltitudeMeters>
            <DistanceMeters>NAN</DistanceMeters>
          </Trackpoint>
          <Trackpoint>
            <Time>2022-09-20T12:49:26.000Z</Time>
            <Position>
              <LatitudeDegrees>49.4224797002971172332763671875</LatitudeDegrees>
              <LongitudeDegrees>20.31988433562219142913818359375</LongitudeDegrees>
            </Position>
            <AltitudeMeters>547</AltitudeMeters>
            <DistanceMeters>NAN</DistanceMeters>
          </Trackpoint>
          <Trackpoint>
            <Time>2022-09-20T12:49:32.000Z</Time>
            <Position>
              <LatitudeDegrees>49.4224696420133113861083984375</LatitudeDegrees>
              <LongitudeDegrees>20.31988819129765033721923828125</LongitudeDegrees>
            </Position>
            <AltitudeMeters>546.79998779296875</AltitudeMeters>
            <DistanceMeters>NAN</DistanceMeters>
          </Trackpoint>
          <Trackpoint>
            <Time>2022-09-20T12:49:34.000Z</Time>
            <Position>
              <LatitudeDegrees>49.42246100865304470062255859375</LatitudeDegrees>
              <LongitudeDegrees>20.319871008396148681640625</LongitudeDegrees>
            </Position>
            <AltitudeMeters>547</AltitudeMeters>
            <DistanceMeters>NAN</DistanceMeters>
          </Trackpoint>
          <Trackpoint>
            <Time>2022-09-20T12:49:39.000Z</Time>
            <Position>
              <LatitudeDegrees>49.42247693426907062530517578125</LatitudeDegrees>
              <LongitudeDegrees>20.3198175318539142608642578125</LongitudeDegrees>
            </Position>
            <AltitudeMeters>547</AltitudeMeters>
            <DistanceMeters>NAN</DistanceMeters>
          </Trackpoint>
          <Trackpoint>
            <Time>2022-09-20T12:49:43.000Z</Time>
            <Position>
              <LatitudeDegrees>49.42248456180095672607421875</LatitudeDegrees>
              <LongitudeDegrees>20.3197762928903102874755859375</LongitudeDegrees>
            </Position>
            <AltitudeMeters>547.4000244140625</AltitudeMeters>
            <DistanceMeters>NAN</DistanceMeters>
          </Trackpoint>
          <Trackpoint>
            <Time>2022-09-20T12:49:47.000Z</Time>
            <Position>
              <LatitudeDegrees>49.4225026667118072509765625</LatitudeDegrees>
              <LongitudeDegrees>20.31972960568964481353759765625</LongitudeDegrees>
            </Position>
            <AltitudeMeters>547.4000244140625</AltitudeMeters>
            <DistanceMeters>NAN</DistanceMeters>
          </Trackpoint>
          <Trackpoint>
            <Time>2022-09-20T12:49:49.000Z</Time>
            <Position>
              <LatitudeDegrees>49.422512054443359375</LatitudeDegrees>
              <LongitudeDegrees>20.31972239725291728973388671875</LongitudeDegrees>
            </Position>
            <AltitudeMeters>547.4000244140625</AltitudeMeters>
            <DistanceMeters>NAN</DistanceMeters>
          </Trackpoint>
          <Trackpoint>
            <Time>2022-09-20T12:49:52.000Z</Time>
            <Position>
              <LatitudeDegrees>49.42251901142299175262451171875</LatitudeDegrees>
              <LongitudeDegrees>20.319705046713352203369140625</LongitudeDegrees>
            </Position>
            <AltitudeMeters>547.4000244140625</AltitudeMeters>
            <DistanceMeters>NAN</DistanceMeters>
          </Trackpoint>
          <Trackpoint>
            <Time>2022-09-20T12:49:53.000Z</Time>
            <Position>
              <LatitudeDegrees>49.422523789107799530029296875</LatitudeDegrees>
              <LongitudeDegrees>20.31969624571502208709716796875</LongitudeDegrees>
            </Position>
            <AltitudeMeters>547.4000244140625</AltitudeMeters>
            <DistanceMeters>NAN</DistanceMeters>
          </Trackpoint>
          <Trackpoint>
            <Time>2022-09-20T12:49:56.000Z</Time>
            <Position>
              <LatitudeDegrees>49.422531835734844207763671875</LatitudeDegrees>
              <LongitudeDegrees>20.31968233175575733184814453125</LongitudeDegrees>
            </Position>
            <AltitudeMeters>547.5999755859375</AltitudeMeters>
            <DistanceMeters>NAN</DistanceMeters>
          </Trackpoint>
          <Trackpoint>
            <Time>2022-09-20T12:49:57.000Z</Time>
            <Position>
              <LatitudeDegrees>49.42253242246806621551513671875</LatitudeDegrees>
              <LongitudeDegrees>20.3196790628135204315185546875</LongitudeDegrees>
            </Position>
            <AltitudeMeters>547.5999755859375</AltitudeMeters>
            <DistanceMeters>NAN</DistanceMeters>
          </Trackpoint>
          <Trackpoint>
            <Time>2022-09-20T12:49:58.000Z</Time>
            <Position>
              <LatitudeDegrees>49.42253208719193935394287109375</LatitudeDegrees>
              <LongitudeDegrees>20.3196738660335540771484375</LongitudeDegrees>
            </Position>
            <AltitudeMeters>547.79998779296875</AltitudeMeters>
            <DistanceMeters>NAN</DistanceMeters>
          </Trackpoint>
          <Trackpoint>
            <Time>2022-09-20T12:50:03.000Z</Time>
            <Position>
              <LatitudeDegrees>49.4225294888019561767578125</LatitudeDegrees>
              <LongitudeDegrees>20.31967998482286930084228515625</LongitudeDegrees>
            </Position>
            <AltitudeMeters>548</AltitudeMeters>
            <DistanceMeters>NAN</DistanceMeters>
          </Trackpoint>
          <Trackpoint>
            <Time>2022-09-20T12:50:04.000Z</Time>
            <Position>
              <LatitudeDegrees>49.4225294888019561767578125</LatitudeDegrees>
              <LongitudeDegrees>20.31967998482286930084228515625</LongitudeDegrees>
            </Position>
            <AltitudeMeters>548</AltitudeMeters>
            <DistanceMeters>NAN</DistanceMeters>
          </Trackpoint>
          <Trackpoint>
            <Time>2022-09-20T12:50:08.000Z</Time>
            <Position>
              <LatitudeDegrees>49.4225294888019561767578125</LatitudeDegrees>
              <LongitudeDegrees>20.31967998482286930084228515625</LongitudeDegrees>
            </Position>
            <AltitudeMeters>548</AltitudeMeters>
            <DistanceMeters>NAN</DistanceMeters>
          </Trackpoint>
          <Trackpoint>
            <Time>2022-09-20T12:50:10.000Z</Time>
            <Position>
              <LatitudeDegrees>49.4225294888019561767578125</LatitudeDegrees>
              <LongitudeDegrees>20.31967998482286930084228515625</LongitudeDegrees>
            </Position>
            <AltitudeMeters>548</AltitudeMeters>
            <DistanceMeters>NAN</DistanceMeters>
          </Trackpoint>
          <Trackpoint>
            <Time>2022-09-20T12:50:11.000Z</Time>
            <Position>
              <LatitudeDegrees>49.4225294888019561767578125</LatitudeDegrees>
              <LongitudeDegrees>20.31967998482286930084228515625</LongitudeDegrees>
            </Position>
            <AltitudeMeters>548</AltitudeMeters>
            <DistanceMeters>NAN</DistanceMeters>
          </Trackpoint>
          <Trackpoint>
            <Time>2022-09-20T12:50:18.000Z</Time>
            <Position>
              <LatitudeDegrees>49.42251666449010372161865234375</LatitudeDegrees>
              <LongitudeDegrees>20.31974293291568756103515625</LongitudeDegrees>
            </Position>
            <AltitudeMeters>547.79998779296875</AltitudeMeters>
            <DistanceMeters>NAN</DistanceMeters>
          </Trackpoint>
          <Trackpoint>
            <Time>2022-09-20T12:50:23.000Z</Time>
            <Position>
              <LatitudeDegrees>49.42248833365738391876220703125</LatitudeDegrees>
              <LongitudeDegrees>20.31979230232536792755126953125</LongitudeDegrees>
            </Position>
            <AltitudeMeters>547.5999755859375</AltitudeMeters>
            <DistanceMeters>NAN</DistanceMeters>
          </Trackpoint>
          <Trackpoint>
            <Time>2022-09-20T12:50:26.000Z</Time>
            <Position>
              <LatitudeDegrees>49.42248431034386157989501953125</LatitudeDegrees>
              <LongitudeDegrees>20.319817699491977691650390625</LongitudeDegrees>
            </Position>
            <AltitudeMeters>547.5999755859375</AltitudeMeters>
            <DistanceMeters>NAN</DistanceMeters>
          </Trackpoint>
          <Trackpoint>
            <Time>2022-09-20T12:50:31.000Z</Time>
            <Position>
              <LatitudeDegrees>49.42248397506773471832275390625</LatitudeDegrees>
              <LongitudeDegrees>20.3198399953544139862060546875</LongitudeDegrees>
            </Position>
            <AltitudeMeters>547.20001220703125</AltitudeMeters>
            <DistanceMeters>NAN</DistanceMeters>
          </Trackpoint>
          <Trackpoint>
            <Time>2022-09-20T12:50:38.000Z</Time>
            <Position>
              <LatitudeDegrees>49.4225001521408557891845703125</LatitudeDegrees>
              <LongitudeDegrees>20.31985516659915447235107421875</LongitudeDegrees>
            </Position>
            <AltitudeMeters>547.4000244140625</AltitudeMeters>
            <DistanceMeters>NAN</DistanceMeters>
          </Trackpoint>
          <Trackpoint>
            <Time>2022-09-20T12:50:42.000Z</Time>
            <Position>
              <LatitudeDegrees>49.4225132279098033905029296875</LatitudeDegrees>
              <LongitudeDegrees>20.319871343672275543212890625</LongitudeDegrees>
            </Position>
            <AltitudeMeters>547.4000244140625</AltitudeMeters>
            <DistanceMeters>NAN</DistanceMeters>
          </Trackpoint>
          <Trackpoint>
            <Time>2022-09-20T12:50:44.000Z</Time>
            <Position>
              <LatitudeDegrees>49.42251943051815032958984375</LatitudeDegrees>
              <LongitudeDegrees>20.31986572779715061187744140625</LongitudeDegrees>
            </Position>
            <AltitudeMeters>547</AltitudeMeters>
            <DistanceMeters>NAN</DistanceMeters>
          </Trackpoint>
          <Trackpoint>
            <Time>2022-09-20T12:50:49.000Z</Time>
            <Position>
              <LatitudeDegrees>49.422517083585262298583984375</LatitudeDegrees>
              <LongitudeDegrees>20.31984259374439716339111328125</LongitudeDegrees>
            </Position>
            <AltitudeMeters>547</AltitudeMeters>
            <DistanceMeters>NAN</DistanceMeters>
          </Trackpoint>
          <Trackpoint>
            <Time>2022-09-20T12:50:51.000Z</Time>
            <Position>
              <LatitudeDegrees>49.4225273095071315765380859375</LatitudeDegrees>
              <LongitudeDegrees>20.31984577886760234832763671875</LongitudeDegrees>
            </Position>
            <AltitudeMeters>547</AltitudeMeters>
            <DistanceMeters>NAN</DistanceMeters>
          </Trackpoint>
          <Trackpoint>
            <Time>2022-09-20T12:50:52.000Z</Time>
            <Position>
              <LatitudeDegrees>49.42251867614686489105224609375</LatitudeDegrees>
              <LongitudeDegrees>20.31985516659915447235107421875</LongitudeDegrees>
            </Position>
            <AltitudeMeters>546.5999755859375</AltitudeMeters>
            <DistanceMeters>NAN</DistanceMeters>
          </Trackpoint>
          <Trackpoint>
            <Time>2022-09-20T12:50:55.000Z</Time>
            <Position>
              <LatitudeDegrees>49.42251532338559627532958984375</LatitudeDegrees>
              <LongitudeDegrees>20.31984108500182628631591796875</LongitudeDegrees>
            </Position>
            <AltitudeMeters>546.20001220703125</AltitudeMeters>
            <DistanceMeters>NAN</DistanceMeters>
          </Trackpoint>
          <Trackpoint>
            <Time>2022-09-20T12:50:57.000Z</Time>
            <Position>
              <LatitudeDegrees>49.422517083585262298583984375</LatitudeDegrees>
              <LongitudeDegrees>20.3197893686592578887939453125</LongitudeDegrees>
            </Position>
            <AltitudeMeters>546</AltitudeMeters>
            <DistanceMeters>NAN</DistanceMeters>
          </Trackpoint>
          <Trackpoint>
            <Time>2022-09-20T12:50:58.000Z</Time>
            <Position>
              <LatitudeDegrees>49.4225159101188182830810546875</LatitudeDegrees>
              <LongitudeDegrees>20.319784842431545257568359375</LongitudeDegrees>
            </Position>
            <AltitudeMeters>545.79998779296875</AltitudeMeters>
            <DistanceMeters>NAN</DistanceMeters>
          </Trackpoint>
          <Trackpoint>
            <Time>2022-09-20T12:50:59.000Z</Time>
            <Position>
              <LatitudeDegrees>49.4225145690143108367919921875</LatitudeDegrees>
              <LongitudeDegrees>20.3197910450398921966552734375</LongitudeDegrees>
            </Position>
            <AltitudeMeters>545.5999755859375</AltitudeMeters>
            <DistanceMeters>NAN</DistanceMeters>
          </Trackpoint>
          <Trackpoint>
            <Time>2022-09-20T12:51:00.000Z</Time>
            <Position>
              <LatitudeDegrees>49.422520101070404052734375</LatitudeDegrees>
              <LongitudeDegrees>20.319776795804500579833984375</LongitudeDegrees>
            </Position>
            <AltitudeMeters>545.5999755859375</AltitudeMeters>
            <DistanceMeters>NAN</DistanceMeters>
          </Trackpoint>
          <Trackpoint>
            <Time>2022-09-20T12:51:03.000Z</Time>
            <Position>
              <LatitudeDegrees>49.42256377078592777252197265625</LatitudeDegrees>
              <LongitudeDegrees>20.3197984211146831512451171875</LongitudeDegrees>
            </Position>
            <AltitudeMeters>544.79998779296875</AltitudeMeters>
            <DistanceMeters>NAN</DistanceMeters>
          </Trackpoint>
          <Trackpoint>
            <Time>2022-09-20T12:51:04.000Z</Time>
            <Position>
              <LatitudeDegrees>49.4225722365081310272216796875</LatitudeDegrees>
              <LongitudeDegrees>20.31979917548596858978271484375</LongitudeDegrees>
            </Position>
            <AltitudeMeters>544.5999755859375</AltitudeMeters>
            <DistanceMeters>NAN</DistanceMeters>
          </Trackpoint>
          <Trackpoint>
            <Time>2022-09-20T12:51:08.000Z</Time>
            <Position>
              <LatitudeDegrees>49.4225896708667278289794921875</LatitudeDegrees>
              <LongitudeDegrees>20.31987461261451244354248046875</LongitudeDegrees>
            </Position>
            <AltitudeMeters>544.20001220703125</AltitudeMeters>
            <DistanceMeters>NAN</DistanceMeters>
          </Trackpoint>
          <Trackpoint>
            <Time>2022-09-20T12:51:13.000Z</Time>
            <Position>
              <LatitudeDegrees>49.422300159931182861328125</LatitudeDegrees>
              <LongitudeDegrees>20.31958677805960178375244140625</LongitudeDegrees>
            </Position>
            <AltitudeMeters>543.5999755859375</AltitudeMeters>
            <DistanceMeters>NAN</DistanceMeters>
          </Trackpoint>
          <Trackpoint>
            <Time>2022-09-20T12:51:14.000Z</Time>
            <Position>
              <LatitudeDegrees>49.42221374250948429107666015625</LatitudeDegrees>
              <LongitudeDegrees>20.31960018910467624664306640625</LongitudeDegrees>
            </Position>
            <AltitudeMeters>543.5999755859375</AltitudeMeters>
            <DistanceMeters>NAN</DistanceMeters>
          </Trackpoint>
          <Trackpoint>
            <Time>2022-09-20T12:51:17.000Z</Time>
            <Position>
              <LatitudeDegrees>49.4221745990216732025146484375</LatitudeDegrees>
              <LongitudeDegrees>20.3196006081998348236083984375</LongitudeDegrees>
            </Position>
            <AltitudeMeters>543.20001220703125</AltitudeMeters>
            <DistanceMeters>NAN</DistanceMeters>
          </Trackpoint>
          <Trackpoint>
            <Time>2022-09-20T12:51:18.000Z</Time>
            <Position>
              <LatitudeDegrees>49.4222835637629032135009765625</LatitudeDegrees>
              <LongitudeDegrees>20.319738574326038360595703125</LongitudeDegrees>
            </Position>
            <AltitudeMeters>543</AltitudeMeters>
            <DistanceMeters>NAN</DistanceMeters>
          </Trackpoint>
          <Trackpoint>
            <Time>2022-09-20T12:51:21.000Z</Time>
            <Position>
              <LatitudeDegrees>49.42249319516122341156005859375</LatitudeDegrees>
              <LongitudeDegrees>20.319977290928363800048828125</LongitudeDegrees>
            </Position>
            <AltitudeMeters>542.5999755859375</AltitudeMeters>
            <DistanceMeters>NAN</DistanceMeters>
          </Trackpoint>
          <Trackpoint>
            <Time>2022-09-20T12:51:22.000Z</Time>
            <Position>
              <LatitudeDegrees>49.422514401376247406005859375</LatitudeDegrees>
              <LongitudeDegrees>20.31991886906325817108154296875</LongitudeDegrees>
            </Position>
            <AltitudeMeters>542.4000244140625</AltitudeMeters>
            <DistanceMeters>NAN</DistanceMeters>
          </Trackpoint>
          <Trackpoint>
            <Time>2022-09-20T12:51:23.000Z</Time>
            <Position>
              <LatitudeDegrees>49.42253552377223968505859375</LatitudeDegrees>
              <LongitudeDegrees>20.3199878521263599395751953125</LongitudeDegrees>
            </Position>
            <AltitudeMeters>542.4000244140625</AltitudeMeters>
            <DistanceMeters>NAN</DistanceMeters>
          </Trackpoint>
          <Trackpoint>
            <Time>2022-09-20T12:51:25.000Z</Time>
            <Position>
              <LatitudeDegrees>49.4225804507732391357421875</LatitudeDegrees>
              <LongitudeDegrees>20.3200498782098293304443359375</LongitudeDegrees>
            </Position>
            <AltitudeMeters>542.20001220703125</AltitudeMeters>
            <DistanceMeters>NAN</DistanceMeters>
          </Trackpoint>
          <Trackpoint>
            <Time>2022-09-20T12:51:27.000Z</Time>
            <Position>
              <LatitudeDegrees>49.4226376153528690338134765625</LatitudeDegrees>
              <LongitudeDegrees>20.32006253488361835479736328125</LongitudeDegrees>
            </Position>
            <AltitudeMeters>542.20001220703125</AltitudeMeters>
            <DistanceMeters>NAN</DistanceMeters>
          </Trackpoint>
          <Trackpoint>
            <Time>2022-09-20T12:51:29.000Z</Time>
            <Position>
              <LatitudeDegrees>49.42264021374285221099853515625</LatitudeDegrees>
              <LongitudeDegrees>20.31999648548662662506103515625</LongitudeDegrees>
            </Position>
            <AltitudeMeters>542.20001220703125</AltitudeMeters>
            <DistanceMeters>NAN</DistanceMeters>
          </Trackpoint>
          <Trackpoint>
            <Time>2022-09-20T12:51:31.000Z</Time>
            <Position>
              <LatitudeDegrees>49.42260366864502429962158203125</LatitudeDegrees>
              <LongitudeDegrees>20.319947116076946258544921875</LongitudeDegrees>
            </Position>
            <AltitudeMeters>542.20001220703125</AltitudeMeters>
            <DistanceMeters>NAN</DistanceMeters>
          </Trackpoint>
          <Trackpoint>
            <Time>2022-09-20T12:51:32.000Z</Time>
            <Position>
              <LatitudeDegrees>49.42259796895086765289306640625</LatitudeDegrees>
              <LongitudeDegrees>20.31993127427995204925537109375</LongitudeDegrees>
            </Position>
            <AltitudeMeters>542.20001220703125</AltitudeMeters>
            <DistanceMeters>NAN</DistanceMeters>
          </Trackpoint>
          <Trackpoint>
            <Time>2022-09-20T12:51:35.000Z</Time>
            <Position>
              <LatitudeDegrees>49.4225950352847576141357421875</LatitudeDegrees>
              <LongitudeDegrees>20.3198869340121746063232421875</LongitudeDegrees>
            </Position>
            <AltitudeMeters>542</AltitudeMeters>
            <DistanceMeters>NAN</DistanceMeters>
          </Trackpoint>
          <Trackpoint>
            <Time>2022-09-20T12:51:42.000Z</Time>
            <Position>
              <LatitudeDegrees>49.42241574637591838836669921875</LatitudeDegrees>
              <LongitudeDegrees>20.31990478746592998504638671875</LongitudeDegrees>
            </Position>
            <AltitudeMeters>541.4000244140625</AltitudeMeters>
            <DistanceMeters>NAN</DistanceMeters>
          </Trackpoint>
          <Trackpoint>
            <Time>2022-09-20T12:51:45.000Z</Time>
            <Position>
              <LatitudeDegrees>49.42245296202600002288818359375</LatitudeDegrees>
              <LongitudeDegrees>20.31979498453438282012939453125</LongitudeDegrees>
            </Position>
            <AltitudeMeters>541</AltitudeMeters>
            <DistanceMeters>NAN</DistanceMeters>
          </Trackpoint>
          <Trackpoint>
            <Time>2022-09-20T12:52:11.000Z</Time>
            <Position>
              <LatitudeDegrees>49.42258656956255435943603515625</LatitudeDegrees>
              <LongitudeDegrees>20.3195674158632755279541015625</LongitudeDegrees>
            </Position>
            <AltitudeMeters>537</AltitudeMeters>
            <DistanceMeters>NAN</DistanceMeters>
          </Trackpoint>
          <Trackpoint>
            <Time>2022-09-20T12:52:12.000Z</Time>
            <Position>
              <LatitudeDegrees>49.4226515293121337890625</LatitudeDegrees>
              <LongitudeDegrees>20.31957127153873443603515625</LongitudeDegrees>
            </Position>
            <AltitudeMeters>537</AltitudeMeters>
            <DistanceMeters>NAN</DistanceMeters>
          </Trackpoint>
          <Trackpoint>
            <Time>2022-09-20T12:52:19.000Z</Time>
            <Position>
              <LatitudeDegrees>49.42263384349644184112548828125</LatitudeDegrees>
              <LongitudeDegrees>20.3195754624903202056884765625</LongitudeDegrees>
            </Position>
            <AltitudeMeters>535.79998779296875</AltitudeMeters>
            <DistanceMeters>NAN</DistanceMeters>
          </Trackpoint>
          <Trackpoint>
            <Time>2022-09-20T12:52:21.000Z</Time>
            <Position>
              <LatitudeDegrees>49.42253326065838336944580078125</LatitudeDegrees>
              <LongitudeDegrees>20.3195466287434101104736328125</LongitudeDegrees>
            </Position>
            <AltitudeMeters>535.79998779296875</AltitudeMeters>
            <DistanceMeters>NAN</DistanceMeters>
          </Trackpoint>
          <Trackpoint>
            <Time>2022-09-20T12:52:26.000Z</Time>
            <Position>
              <LatitudeDegrees>49.4225464202463626861572265625</LatitudeDegrees>
              <LongitudeDegrees>20.31957521103322505950927734375</LongitudeDegrees>
            </Position>
            <AltitudeMeters>535.4000244140625</AltitudeMeters>
            <DistanceMeters>NAN</DistanceMeters>
          </Trackpoint>
          <Trackpoint>
            <Time>2022-09-20T12:52:28.000Z</Time>
            <Position>
              <LatitudeDegrees>49.42257366143167018890380859375</LatitudeDegrees>
              <LongitudeDegrees>20.3196658194065093994140625</LongitudeDegrees>
            </Position>
            <AltitudeMeters>535.20001220703125</AltitudeMeters>
            <DistanceMeters>NAN</DistanceMeters>
          </Trackpoint>
          <Trackpoint>
            <Time>2022-09-20T12:52:30.000Z</Time>
            <Position>
              <LatitudeDegrees>49.4225762598216533660888671875</LatitudeDegrees>
              <LongitudeDegrees>20.31969658099114894866943359375</LongitudeDegrees>
            </Position>
            <AltitudeMeters>535</AltitudeMeters>
            <DistanceMeters>NAN</DistanceMeters>
          </Trackpoint>
          <Trackpoint>
            <Time>2022-09-20T12:52:31.000Z</Time>
            <Position>
              <LatitudeDegrees>49.42259059287607669830322265625</LatitudeDegrees>
              <LongitudeDegrees>20.31975609250366687774658203125</LongitudeDegrees>
            </Position>
            <AltitudeMeters>534.79998779296875</AltitudeMeters>
            <DistanceMeters>NAN</DistanceMeters>
          </Trackpoint>
          <Trackpoint>
            <Time>2022-09-20T12:52:35.000Z</Time>
            <Position>
              <LatitudeDegrees>49.4225655309855937957763671875</LatitudeDegrees>
              <LongitudeDegrees>20.31965383328497409820556640625</LongitudeDegrees>
            </Position>
            <AltitudeMeters>534.4000244140625</AltitudeMeters>
            <DistanceMeters>NAN</DistanceMeters>
          </Trackpoint>
          <Trackpoint>
            <Time>2022-09-20T12:52:41.000Z</Time>
            <Position>
              <LatitudeDegrees>49.422557987272739410400390625</LatitudeDegrees>
              <LongitudeDegrees>20.31967855989933013916015625</LongitudeDegrees>
            </Position>
            <AltitudeMeters>534.5999755859375</AltitudeMeters>
            <DistanceMeters>NAN</DistanceMeters>
          </Trackpoint>
          <Trackpoint>
            <Time>2022-09-20T12:52:45.000Z</Time>
            <Position>
              <LatitudeDegrees>49.42256779409945011138916015625</LatitudeDegrees>
              <LongitudeDegrees>20.319737233221530914306640625</LongitudeDegrees>
            </Position>
            <AltitudeMeters>534.5999755859375</AltitudeMeters>
            <DistanceMeters>NAN</DistanceMeters>
          </Trackpoint>
          <Trackpoint>
            <Time>2022-09-20T12:52:49.000Z</Time>
            <Position>
              <LatitudeDegrees>49.4225789420306682586669921875</LatitudeDegrees>
              <LongitudeDegrees>20.31975626014173030853271484375</LongitudeDegrees>
            </Position>
            <AltitudeMeters>534.4000244140625</AltitudeMeters>
            <DistanceMeters>NAN</DistanceMeters>
          </Trackpoint>
          <Trackpoint>
            <Time>2022-09-20T12:52:51.000Z</Time>
            <Position>
              <LatitudeDegrees>49.42258053459227085113525390625</LatitudeDegrees>
              <LongitudeDegrees>20.31977109611034393310546875</LongitudeDegrees>
            </Position>
            <AltitudeMeters>534.20001220703125</AltitudeMeters>
            <DistanceMeters>NAN</DistanceMeters>
          </Trackpoint>
          <Trackpoint>
            <Time>2022-09-20T13:03:57.000Z</Time>
            <Position>
              <LatitudeDegrees>49.4226768426597118377685546875</LatitudeDegrees>
              <LongitudeDegrees>20.3195479698479175567626953125</LongitudeDegrees>
            </Position>
            <AltitudeMeters>534</AltitudeMeters>
            <DistanceMeters>NAN</DistanceMeters>
          </Trackpoint>
          <Trackpoint>
            <Time>2022-09-20T13:03:58.000Z</Time>
            <Position>
              <LatitudeDegrees>49.42263401113450527191162109375</LatitudeDegrees>
              <LongitudeDegrees>20.3194297850131988525390625</LongitudeDegrees>
            </Position>
            <AltitudeMeters>534</AltitudeMeters>
            <DistanceMeters>NAN</DistanceMeters>
          </Trackpoint>
          <Trackpoint>
            <Time>2022-09-20T13:04:00.000Z</Time>
            <Position>
              <LatitudeDegrees>49.42272135056555271148681640625</LatitudeDegrees>
              <LongitudeDegrees>20.31960614025592803955078125</LongitudeDegrees>
            </Position>
            <AltitudeMeters>534</AltitudeMeters>
            <DistanceMeters>NAN</DistanceMeters>
          </Trackpoint>
          <Trackpoint>
            <Time>2022-09-20T13:04:02.000Z</Time>
            <Position>
              <LatitudeDegrees>49.42266837693750858306884765625</LatitudeDegrees>
              <LongitudeDegrees>20.31957638449966907501220703125</LongitudeDegrees>
            </Position>
            <AltitudeMeters>534</AltitudeMeters>
            <DistanceMeters>NAN</DistanceMeters>
          </Trackpoint>
          <Trackpoint>
            <Time>2022-09-20T13:04:06.000Z</Time>
            <Position>
              <LatitudeDegrees>49.42255320958793163299560546875</LatitudeDegrees>
              <LongitudeDegrees>20.31945115886628627777099609375</LongitudeDegrees>
            </Position>
            <AltitudeMeters>533.79998779296875</AltitudeMeters>
            <DistanceMeters>NAN</DistanceMeters>
          </Trackpoint>
          <Trackpoint>
            <Time>2022-09-20T13:04:08.000Z</Time>
            <Position>
              <LatitudeDegrees>49.42252504639327526092529296875</LatitudeDegrees>
              <LongitudeDegrees>20.31937438063323497772216796875</LongitudeDegrees>
            </Position>
            <AltitudeMeters>533.5999755859375</AltitudeMeters>
            <DistanceMeters>NAN</DistanceMeters>
          </Trackpoint>
          <Trackpoint>
            <Time>2022-09-20T13:04:11.000Z</Time>
            <Position>
              <LatitudeDegrees>49.4224569015204906463623046875</LatitudeDegrees>
              <LongitudeDegrees>20.31939030624926090240478515625</LongitudeDegrees>
            </Position>
            <AltitudeMeters>533.5999755859375</AltitudeMeters>
            <DistanceMeters>NAN</DistanceMeters>
          </Trackpoint>
          <Trackpoint>
            <Time>2022-09-20T13:04:12.000Z</Time>
            <Position>
              <LatitudeDegrees>49.42244240082800388336181640625</LatitudeDegrees>
              <LongitudeDegrees>20.31938217580318450927734375</LongitudeDegrees>
            </Position>
            <AltitudeMeters>533.5999755859375</AltitudeMeters>
            <DistanceMeters>NAN</DistanceMeters>
          </Trackpoint>
          <Trackpoint>
            <Time>2022-09-20T13:04:14.000Z</Time>
            <Position>
              <LatitudeDegrees>49.42241356708109378814697265625</LatitudeDegrees>
              <LongitudeDegrees>20.31935526989400386810302734375</LongitudeDegrees>
            </Position>
            <AltitudeMeters>533.4000244140625</AltitudeMeters>
            <DistanceMeters>NAN</DistanceMeters>
          </Trackpoint>
          <Trackpoint>
            <Time>2022-09-20T13:04:15.000Z</Time>
            <Position>
              <LatitudeDegrees>49.4224123097956180572509765625</LatitudeDegrees>
              <LongitudeDegrees>20.319357700645923614501953125</LongitudeDegrees>
            </Position>
            <AltitudeMeters>533.20001220703125</AltitudeMeters>
            <DistanceMeters>NAN</DistanceMeters>
          </Trackpoint>
          <Trackpoint>
            <Time>2022-09-20T13:04:18.000Z</Time>
            <Position>
              <LatitudeDegrees>49.422391690313816070556640625</LatitudeDegrees>
              <LongitudeDegrees>20.3193412721157073974609375</LongitudeDegrees>
            </Position>
            <AltitudeMeters>532.79998779296875</AltitudeMeters>
            <DistanceMeters>NAN</DistanceMeters>
          </Trackpoint>
          <Trackpoint>
            <Time>2022-09-20T13:04:19.000Z</Time>
            <Position>
              <LatitudeDegrees>49.42238858900964260101318359375</LatitudeDegrees>
              <LongitudeDegrees>20.3193340636789798736572265625</LongitudeDegrees>
            </Position>
            <AltitudeMeters>532.79998779296875</AltitudeMeters>
            <DistanceMeters>NAN</DistanceMeters>
          </Trackpoint>
          <Trackpoint>
            <Time>2022-09-20T13:04:21.000Z</Time>
            <Position>
              <LatitudeDegrees>49.42237459123134613037109375</LatitudeDegrees>
              <LongitudeDegrees>20.3193263523280620574951171875</LongitudeDegrees>
            </Position>
            <AltitudeMeters>532.5999755859375</AltitudeMeters>
            <DistanceMeters>NAN</DistanceMeters>
          </Trackpoint>
          <Trackpoint>
            <Time>2022-09-20T13:04:25.000Z</Time>
            <Position>
              <LatitudeDegrees>49.42237635143101215362548828125</LatitudeDegrees>
              <LongitudeDegrees>20.31929156742990016937255859375</LongitudeDegrees>
            </Position>
            <AltitudeMeters>532.4000244140625</AltitudeMeters>
            <DistanceMeters>NAN</DistanceMeters>
          </Trackpoint>
          <Trackpoint>
            <Time>2022-09-20T13:04:29.000Z</Time>
            <Position>
              <LatitudeDegrees>49.42236495204269886016845703125</LatitudeDegrees>
              <LongitudeDegrees>20.3192854486405849456787109375</LongitudeDegrees>
            </Position>
            <AltitudeMeters>531.79998779296875</AltitudeMeters>
            <DistanceMeters>NAN</DistanceMeters>
          </Trackpoint>
          <Trackpoint>
            <Time>2022-09-20T13:04:34.000Z</Time>
            <Position>
              <LatitudeDegrees>49.42234634421765804290771484375</LatitudeDegrees>
              <LongitudeDegrees>20.31928159296512603759765625</LongitudeDegrees>
            </Position>
            <AltitudeMeters>531.5999755859375</AltitudeMeters>
            <DistanceMeters>NAN</DistanceMeters>
          </Trackpoint>
          <Trackpoint>
            <Time>2022-09-20T13:04:38.000Z</Time>
            <Position>
              <LatitudeDegrees>49.4223470985889434814453125</LatitudeDegrees>
              <LongitudeDegrees>20.3192703612148761749267578125</LongitudeDegrees>
            </Position>
            <AltitudeMeters>531.20001220703125</AltitudeMeters>
            <DistanceMeters>NAN</DistanceMeters>
          </Trackpoint>
          <Trackpoint>
            <Time>2022-09-20T13:04:47.000Z</Time>
            <Position>
              <LatitudeDegrees>49.422289766371250152587890625</LatitudeDegrees>
              <LongitudeDegrees>20.31923775561153888702392578125</LongitudeDegrees>
            </Position>
            <AltitudeMeters>530.79998779296875</AltitudeMeters>
            <DistanceMeters>NAN</DistanceMeters>
          </Trackpoint>
          <Trackpoint>
            <Time>2022-09-20T13:04:48.000Z</Time>
            <Position>
              <LatitudeDegrees>49.42228666506707668304443359375</LatitudeDegrees>
              <LongitudeDegrees>20.3192391805350780487060546875</LongitudeDegrees>
            </Position>
            <AltitudeMeters>530.79998779296875</AltitudeMeters>
            <DistanceMeters>NAN</DistanceMeters>
          </Trackpoint>
          <Trackpoint>
            <Time>2022-09-20T13:04:51.000Z</Time>
            <Position>
              <LatitudeDegrees>49.42226688377559185028076171875</LatitudeDegrees>
              <LongitudeDegrees>20.319231636822223663330078125</LongitudeDegrees>
            </Position>
            <AltitudeMeters>530.5999755859375</AltitudeMeters>
            <DistanceMeters>NAN</DistanceMeters>
          </Trackpoint>
          <Trackpoint>
            <Time>2022-09-20T13:04:53.000Z</Time>
            <Position>
              <LatitudeDegrees>49.42225850187242031097412109375</LatitudeDegrees>
              <LongitudeDegrees>20.319235660135746002197265625</LongitudeDegrees>
            </Position>
            <AltitudeMeters>530.4000244140625</AltitudeMeters>
            <DistanceMeters>NAN</DistanceMeters>
          </Trackpoint>
          <Trackpoint>
            <Time>2022-09-20T13:04:55.000Z</Time>
            <Position>
              <LatitudeDegrees>49.42223846912384033203125</LatitudeDegrees>
              <LongitudeDegrees>20.31921830959618091583251953125</LongitudeDegrees>
            </Position>
            <AltitudeMeters>530.4000244140625</AltitudeMeters>
            <DistanceMeters>NAN</DistanceMeters>
          </Trackpoint>
          <Trackpoint>
            <Time>2022-09-20T13:04:57.000Z</Time>
            <Position>
              <LatitudeDegrees>49.42221759818494319915771484375</LatitudeDegrees>
              <LongitudeDegrees>20.31921629793941974639892578125</LongitudeDegrees>
            </Position>
            <AltitudeMeters>530.4000244140625</AltitudeMeters>
            <DistanceMeters>NAN</DistanceMeters>
          </Trackpoint>
          <Trackpoint>
            <Time>2022-09-20T13:05:02.000Z</Time>
            <Position>
              <LatitudeDegrees>49.42219999618828296661376953125</LatitudeDegrees>
              <LongitudeDegrees>20.31922317110002040863037109375</LongitudeDegrees>
            </Position>
            <AltitudeMeters>530</AltitudeMeters>
            <DistanceMeters>NAN</DistanceMeters>
          </Trackpoint>
          <Trackpoint>
            <Time>2022-09-20T13:05:04.000Z</Time>
            <Position>
              <LatitudeDegrees>49.4221781194210052490234375</LatitudeDegrees>
              <LongitudeDegrees>20.31922794878482818603515625</LongitudeDegrees>
            </Position>
            <AltitudeMeters>529.79998779296875</AltitudeMeters>
            <DistanceMeters>NAN</DistanceMeters>
          </Trackpoint>
          <Trackpoint>
            <Time>2022-09-20T13:05:07.000Z</Time>
            <Position>
              <LatitudeDegrees>49.42216797731816768646240234375</LatitudeDegrees>
              <LongitudeDegrees>20.31922996044158935546875</LongitudeDegrees>
            </Position>
            <AltitudeMeters>529.79998779296875</AltitudeMeters>
            <DistanceMeters>NAN</DistanceMeters>
          </Trackpoint>
          <Trackpoint>
            <Time>2022-09-20T13:05:09.000Z</Time>
            <Position>
              <LatitudeDegrees>49.42215490154922008514404296875</LatitudeDegrees>
              <LongitudeDegrees>20.31923138536512851715087890625</LongitudeDegrees>
            </Position>
            <AltitudeMeters>529.79998779296875</AltitudeMeters>
            <DistanceMeters>NAN</DistanceMeters>
          </Trackpoint>
          <Trackpoint>
            <Time>2022-09-20T13:05:12.000Z</Time>
            <Position>
              <LatitudeDegrees>49.422137551009654998779296875</LatitudeDegrees>
              <LongitudeDegrees>20.319241695106029510498046875</LongitudeDegrees>
            </Position>
            <AltitudeMeters>529.4000244140625</AltitudeMeters>
            <DistanceMeters>NAN</DistanceMeters>
          </Trackpoint>
          <Trackpoint>
            <Time>2022-09-20T13:05:18.000Z</Time>
            <Position>
              <LatitudeDegrees>49.42216613329946994781494140625</LatitudeDegrees>
              <LongitudeDegrees>20.31919785775244235992431640625</LongitudeDegrees>
            </Position>
            <AltitudeMeters>529.4000244140625</AltitudeMeters>
            <DistanceMeters>NAN</DistanceMeters>
          </Trackpoint>
          <Trackpoint>
            <Time>2022-09-20T13:05:21.000Z</Time>
            <Position>
              <LatitudeDegrees>49.42216613329946994781494140625</LatitudeDegrees>
              <LongitudeDegrees>20.31919785775244235992431640625</LongitudeDegrees>
            </Position>
            <AltitudeMeters>529.4000244140625</AltitudeMeters>
            <DistanceMeters>NAN</DistanceMeters>
          </Trackpoint>
          <Trackpoint>
            <Time>2022-09-20T13:05:23.000Z</Time>
            <Position>
              <LatitudeDegrees>49.42216613329946994781494140625</LatitudeDegrees>
              <LongitudeDegrees>20.31919785775244235992431640625</LongitudeDegrees>
            </Position>
            <AltitudeMeters>529.4000244140625</AltitudeMeters>
            <DistanceMeters>NAN</DistanceMeters>
          </Trackpoint>
          <Trackpoint>
            <Time>2022-09-20T13:05:26.000Z</Time>
            <Position>
              <LatitudeDegrees>49.42214568145573139190673828125</LatitudeDegrees>
              <LongitudeDegrees>20.31920422799885272979736328125</LongitudeDegrees>
            </Position>
            <AltitudeMeters>529.4000244140625</AltitudeMeters>
            <DistanceMeters>NAN</DistanceMeters>
          </Trackpoint>
          <Trackpoint>
            <Time>2022-09-20T13:05:28.000Z</Time>
            <Position>
              <LatitudeDegrees>49.4221249781548976898193359375</LatitudeDegrees>
              <LongitudeDegrees>20.31920305453240871429443359375</LongitudeDegrees>
            </Position>
            <AltitudeMeters>529.20001220703125</AltitudeMeters>
            <DistanceMeters>NAN</DistanceMeters>
          </Trackpoint>
          <Trackpoint>
            <Time>2022-09-20T13:05:36.000Z</Time>
            <Position>
              <LatitudeDegrees>49.4220515526831150054931640625</LatitudeDegrees>
              <LongitudeDegrees>20.319198779761791229248046875</LongitudeDegrees>
            </Position>
            <AltitudeMeters>529.20001220703125</AltitudeMeters>
            <DistanceMeters>NAN</DistanceMeters>
          </Trackpoint>
          <Trackpoint>
            <Time>2022-09-20T13:05:42.000Z</Time>
            <Position>
              <LatitudeDegrees>49.4220233894884586334228515625</LatitudeDegrees>
              <LongitudeDegrees>20.3191821835935115814208984375</LongitudeDegrees>
            </Position>
            <AltitudeMeters>529.20001220703125</AltitudeMeters>
            <DistanceMeters>NAN</DistanceMeters>
          </Trackpoint>
          <Trackpoint>
            <Time>2022-09-20T13:05:49.000Z</Time>
            <Position>
              <LatitudeDegrees>49.42198189906775951385498046875</LatitudeDegrees>
              <LongitudeDegrees>20.31923524104058742523193359375</LongitudeDegrees>
            </Position>
            <AltitudeMeters>529.20001220703125</AltitudeMeters>
            <DistanceMeters>NAN</DistanceMeters>
          </Trackpoint>
          <Trackpoint>
            <Time>2022-09-20T13:05:55.000Z</Time>
            <Position>
              <LatitudeDegrees>49.42196815274655818939208984375</LatitudeDegrees>
              <LongitudeDegrees>20.31924731098115444183349609375</LongitudeDegrees>
            </Position>
            <AltitudeMeters>529.20001220703125</AltitudeMeters>
            <DistanceMeters>NAN</DistanceMeters>
          </Trackpoint>
          <Trackpoint>
            <Time>2022-09-20T13:06:00.000Z</Time>
            <Position>
              <LatitudeDegrees>49.42199078388512134552001953125</LatitudeDegrees>
              <LongitudeDegrees>20.31921210698783397674560546875</LongitudeDegrees>
            </Position>
            <AltitudeMeters>529.20001220703125</AltitudeMeters>
            <DistanceMeters>NAN</DistanceMeters>
          </Trackpoint>
          <Trackpoint>
            <Time>2022-09-20T13:06:01.000Z</Time>
            <Position>
              <LatitudeDegrees>49.421994052827358245849609375</LatitudeDegrees>
              <LongitudeDegrees>20.3192281164228916168212890625</LongitudeDegrees>
            </Position>
            <AltitudeMeters>529.20001220703125</AltitudeMeters>
            <DistanceMeters>NAN</DistanceMeters>
          </Trackpoint>
          <Trackpoint>
            <Time>2022-09-20T13:06:12.000Z</Time>
            <Position>
              <LatitudeDegrees>49.42199782468378543853759765625</LatitudeDegrees>
              <LongitudeDegrees>20.3192366659641265869140625</LongitudeDegrees>
            </Position>
            <AltitudeMeters>529.20001220703125</AltitudeMeters>
            <DistanceMeters>NAN</DistanceMeters>
          </Trackpoint>
          <Trackpoint>
            <Time>2022-09-20T13:06:19.000Z</Time>
            <Position>
              <LatitudeDegrees>49.42199581302702426910400390625</LatitudeDegrees>
              <LongitudeDegrees>20.3192366659641265869140625</LongitudeDegrees>
            </Position>
            <AltitudeMeters>529.4000244140625</AltitudeMeters>
            <DistanceMeters>NAN</DistanceMeters>
          </Trackpoint>
          <Trackpoint>
            <Time>2022-09-20T13:06:25.000Z</Time>
            <Position>
              <LatitudeDegrees>49.42199480719864368438720703125</LatitudeDegrees>
              <LongitudeDegrees>20.3192381747066974639892578125</LongitudeDegrees>
            </Position>
            <AltitudeMeters>529.4000244140625</AltitudeMeters>
            <DistanceMeters>NAN</DistanceMeters>
          </Trackpoint>
          <Trackpoint>
            <Time>2022-09-20T13:06:28.000Z</Time>
            <Position>
              <LatitudeDegrees>49.42199480719864368438720703125</LatitudeDegrees>
              <LongitudeDegrees>20.31923859380185604095458984375</LongitudeDegrees>
            </Position>
            <AltitudeMeters>529.5999755859375</AltitudeMeters>
            <DistanceMeters>NAN</DistanceMeters>
          </Trackpoint>
          <Trackpoint>
            <Time>2022-09-20T13:06:32.000Z</Time>
            <Position>
              <LatitudeDegrees>49.42199480719864368438720703125</LatitudeDegrees>
              <LongitudeDegrees>20.3192391805350780487060546875</LongitudeDegrees>
            </Position>
            <AltitudeMeters>529.5999755859375</AltitudeMeters>
            <DistanceMeters>NAN</DistanceMeters>
          </Trackpoint>
          <Trackpoint>
            <Time>2022-09-20T13:06:34.000Z</Time>
            <Position>
              <LatitudeDegrees>49.4219885207712650299072265625</LatitudeDegrees>
              <LongitudeDegrees>20.3192408569157123565673828125</LongitudeDegrees>
            </Position>
            <AltitudeMeters>529.5999755859375</AltitudeMeters>
            <DistanceMeters>NAN</DistanceMeters>
          </Trackpoint>
          <Trackpoint>
            <Time>2022-09-20T13:06:47.000Z</Time>
            <Position>
              <LatitudeDegrees>49.42198156379163265228271484375</LatitudeDegrees>
              <LongitudeDegrees>20.319241695106029510498046875</LongitudeDegrees>
            </Position>
            <AltitudeMeters>530</AltitudeMeters>
            <DistanceMeters>NAN</DistanceMeters>
          </Trackpoint>
          <Trackpoint>
            <Time>2022-09-20T13:06:56.000Z</Time>
            <Position>
              <LatitudeDegrees>49.4219818152487277984619140625</LatitudeDegrees>
              <LongitudeDegrees>20.31924135982990264892578125</LongitudeDegrees>
            </Position>
            <AltitudeMeters>530</AltitudeMeters>
            <DistanceMeters>NAN</DistanceMeters>
          </Trackpoint>
          <Trackpoint>
            <Time>2022-09-20T13:06:57.000Z</Time>
            <Position>
              <LatitudeDegrees>49.421981982886791229248046875</LatitudeDegrees>
              <LongitudeDegrees>20.3192411921918392181396484375</LongitudeDegrees>
            </Position>
            <AltitudeMeters>530</AltitudeMeters>
            <DistanceMeters>NAN</DistanceMeters>
          </Trackpoint>
          <Trackpoint>
            <Time>2022-09-20T13:06:58.000Z</Time>
            <Position>
              <LatitudeDegrees>49.42198240198194980621337890625</LatitudeDegrees>
              <LongitudeDegrees>20.31924077309668064117431640625</LongitudeDegrees>
            </Position>
            <AltitudeMeters>530.20001220703125</AltitudeMeters>
            <DistanceMeters>NAN</DistanceMeters>
          </Trackpoint>
          <Trackpoint>
            <Time>2022-09-20T13:07:00.000Z</Time>
            <Position>
              <LatitudeDegrees>49.42198273725807666778564453125</LatitudeDegrees>
              <LongitudeDegrees>20.3192401863634586334228515625</LongitudeDegrees>
            </Position>
            <AltitudeMeters>530.20001220703125</AltitudeMeters>
            <DistanceMeters>NAN</DistanceMeters>
          </Trackpoint>
          <Trackpoint>
            <Time>2022-09-20T13:07:04.000Z</Time>
            <Position>
              <LatitudeDegrees>49.42198407836258411407470703125</LatitudeDegrees>
              <LongitudeDegrees>20.31923993490636348724365234375</LongitudeDegrees>
            </Position>
            <AltitudeMeters>530.20001220703125</AltitudeMeters>
            <DistanceMeters>NAN</DistanceMeters>
          </Trackpoint>
          <Trackpoint>
            <Time>2022-09-20T13:07:05.000Z</Time>
            <Position>
              <LatitudeDegrees>49.42198407836258411407470703125</LatitudeDegrees>
              <LongitudeDegrees>20.31923976726830005645751953125</LongitudeDegrees>
            </Position>
            <AltitudeMeters>530.20001220703125</AltitudeMeters>
            <DistanceMeters>NAN</DistanceMeters>
          </Trackpoint>
          <Trackpoint>
            <Time>2022-09-20T13:07:07.000Z</Time>
            <Position>
              <LatitudeDegrees>49.42198407836258411407470703125</LatitudeDegrees>
              <LongitudeDegrees>20.31923943199217319488525390625</LongitudeDegrees>
            </Position>
            <AltitudeMeters>530.20001220703125</AltitudeMeters>
            <DistanceMeters>NAN</DistanceMeters>
          </Trackpoint>
          <Trackpoint>
            <Time>2022-09-20T13:07:11.000Z</Time>
            <Position>
              <LatitudeDegrees>49.42198223434388637542724609375</LatitudeDegrees>
              <LongitudeDegrees>20.3192388452589511871337890625</LongitudeDegrees>
            </Position>
            <AltitudeMeters>530.20001220703125</AltitudeMeters>
            <DistanceMeters>NAN</DistanceMeters>
          </Trackpoint>
          <Trackpoint>
            <Time>2022-09-20T13:07:20.000Z</Time>
            <Position>
              <LatitudeDegrees>49.42195977084338665008544921875</LatitudeDegrees>
              <LongitudeDegrees>20.31923959963023662567138671875</LongitudeDegrees>
            </Position>
            <AltitudeMeters>530.20001220703125</AltitudeMeters>
            <DistanceMeters>NAN</DistanceMeters>
          </Trackpoint>
          <Trackpoint>
            <Time>2022-09-20T13:07:23.000Z</Time>
            <Position>
              <LatitudeDegrees>49.42195306532084941864013671875</LatitudeDegrees>
              <LongitudeDegrees>20.31924312002956867218017578125</LongitudeDegrees>
            </Position>
            <AltitudeMeters>530.20001220703125</AltitudeMeters>
            <DistanceMeters>NAN</DistanceMeters>
          </Trackpoint>
          <Trackpoint>
            <Time>2022-09-20T13:07:26.000Z</Time>
            <Position>
              <LatitudeDegrees>49.42196161486208438873291015625</LatitudeDegrees>
              <LongitudeDegrees>20.31924865208566188812255859375</LongitudeDegrees>
            </Position>
            <AltitudeMeters>530.20001220703125</AltitudeMeters>
            <DistanceMeters>NAN</DistanceMeters>
          </Trackpoint>
          <Trackpoint>
            <Time>2022-09-20T13:07:31.000Z</Time>
            <Position>
              <LatitudeDegrees>49.421951472759246826171875</LatitudeDegrees>
              <LongitudeDegrees>20.319256447255611419677734375</LongitudeDegrees>
            </Position>
            <AltitudeMeters>530.20001220703125</AltitudeMeters>
            <DistanceMeters>NAN</DistanceMeters>
          </Trackpoint>
          <Trackpoint>
            <Time>2022-09-20T13:07:50.000Z</Time>
            <Position>
              <LatitudeDegrees>49.42196027375757694244384765625</LatitudeDegrees>
              <LongitudeDegrees>20.31924806535243988037109375</LongitudeDegrees>
            </Position>
            <AltitudeMeters>530.20001220703125</AltitudeMeters>
            <DistanceMeters>NAN</DistanceMeters>
          </Trackpoint>
          <Trackpoint>
            <Time>2022-09-20T13:07:57.000Z</Time>
            <Position>
              <LatitudeDegrees>49.4219610281288623809814453125</LatitudeDegrees>
              <LongitudeDegrees>20.31924580223858356475830078125</LongitudeDegrees>
            </Position>
            <AltitudeMeters>530.20001220703125</AltitudeMeters>
            <DistanceMeters>NAN</DistanceMeters>
          </Trackpoint>
          <Trackpoint>
            <Time>2022-09-20T13:08:00.000Z</Time>
            <Position>
              <LatitudeDegrees>49.42196094430983066558837890625</LatitudeDegrees>
              <LongitudeDegrees>20.31923540867865085601806640625</LongitudeDegrees>
            </Position>
            <AltitudeMeters>530.20001220703125</AltitudeMeters>
            <DistanceMeters>NAN</DistanceMeters>
          </Trackpoint>
          <Trackpoint>
            <Time>2022-09-20T13:08:09.000Z</Time>
            <Position>
              <LatitudeDegrees>49.4219516403973102569580078125</LatitudeDegrees>
              <LongitudeDegrees>20.31923188827931880950927734375</LongitudeDegrees>
            </Position>
            <AltitudeMeters>530.20001220703125</AltitudeMeters>
            <DistanceMeters>NAN</DistanceMeters>
          </Trackpoint>
          <Trackpoint>
            <Time>2022-09-20T13:08:16.000Z</Time>
            <Position>
              <LatitudeDegrees>49.42195088602602481842041015625</LatitudeDegrees>
              <LongitudeDegrees>20.31922786496579647064208984375</LongitudeDegrees>
            </Position>
            <AltitudeMeters>530.20001220703125</AltitudeMeters>
            <DistanceMeters>NAN</DistanceMeters>
          </Trackpoint>
          <Trackpoint>
            <Time>2022-09-20T13:08:17.000Z</Time>
            <Position>
              <LatitudeDegrees>49.42195088602602481842041015625</LatitudeDegrees>
              <LongitudeDegrees>20.31922702677547931671142578125</LongitudeDegrees>
            </Position>
            <AltitudeMeters>530.20001220703125</AltitudeMeters>
            <DistanceMeters>NAN</DistanceMeters>
          </Trackpoint>
          <Trackpoint>
            <Time>2022-09-20T13:08:19.000Z</Time>
            <Position>
              <LatitudeDegrees>49.42195088602602481842041015625</LatitudeDegrees>
              <LongitudeDegrees>20.3192245960235595703125</LongitudeDegrees>
            </Position>
            <AltitudeMeters>530.20001220703125</AltitudeMeters>
            <DistanceMeters>NAN</DistanceMeters>
          </Trackpoint>
          <Trackpoint>
            <Time>2022-09-20T13:08:50.000Z</Time>
            <Position>
              <LatitudeDegrees>49.42197938449680805206298828125</LatitudeDegrees>
              <LongitudeDegrees>20.31921923160552978515625</LongitudeDegrees>
            </Position>
            <AltitudeMeters>530.20001220703125</AltitudeMeters>
            <DistanceMeters>NAN</DistanceMeters>
          </Trackpoint>
          <Trackpoint>
            <Time>2022-09-20T13:08:53.000Z</Time>
            <Position>
              <LatitudeDegrees>49.421985335648059844970703125</LatitudeDegrees>
              <LongitudeDegrees>20.31922518275678157806396484375</LongitudeDegrees>
            </Position>
            <AltitudeMeters>530.20001220703125</AltitudeMeters>
            <DistanceMeters>NAN</DistanceMeters>
          </Trackpoint>
          <Trackpoint>
            <Time>2022-09-20T13:08:56.000Z</Time>
            <Position>
              <LatitudeDegrees>49.421993382275104522705078125</LatitudeDegrees>
              <LongitudeDegrees>20.319224931299686431884765625</LongitudeDegrees>
            </Position>
            <AltitudeMeters>530.20001220703125</AltitudeMeters>
            <DistanceMeters>NAN</DistanceMeters>
          </Trackpoint>
          <Trackpoint>
            <Time>2022-09-20T13:09:02.000Z</Time>
            <Position>
              <LatitudeDegrees>49.42200218327343463897705078125</LatitudeDegrees>
              <LongitudeDegrees>20.3192259371280670166015625</LongitudeDegrees>
            </Position>
            <AltitudeMeters>530.20001220703125</AltitudeMeters>
            <DistanceMeters>NAN</DistanceMeters>
          </Trackpoint>
          <Trackpoint>
            <Time>2022-09-20T13:09:18.000Z</Time>
            <Position>
              <LatitudeDegrees>49.4219841621816158294677734375</LatitudeDegrees>
              <LongitudeDegrees>20.31926625408232212066650390625</LongitudeDegrees>
            </Position>
            <AltitudeMeters>530.20001220703125</AltitudeMeters>
            <DistanceMeters>NAN</DistanceMeters>
          </Trackpoint>
          <Trackpoint>
            <Time>2022-09-20T13:09:24.000Z</Time>
            <Position>
              <LatitudeDegrees>49.4219841621816158294677734375</LatitudeDegrees>
              <LongitudeDegrees>20.31926625408232212066650390625</LongitudeDegrees>
            </Position>
            <AltitudeMeters>530.20001220703125</AltitudeMeters>
            <DistanceMeters>NAN</DistanceMeters>
          </Trackpoint>
          <Trackpoint>
            <Time>2022-09-20T13:09:27.000Z</Time>
            <Position>
              <LatitudeDegrees>49.4219841621816158294677734375</LatitudeDegrees>
              <LongitudeDegrees>20.31926625408232212066650390625</LongitudeDegrees>
            </Position>
            <AltitudeMeters>530.20001220703125</AltitudeMeters>
            <DistanceMeters>NAN</DistanceMeters>
          </Trackpoint>
          <Trackpoint>
            <Time>2022-09-20T13:09:35.000Z</Time>
            <Position>
              <LatitudeDegrees>49.4219616986811161041259765625</LatitudeDegrees>
              <LongitudeDegrees>20.31928771175444126129150390625</LongitudeDegrees>
            </Position>
            <AltitudeMeters>530.20001220703125</AltitudeMeters>
            <DistanceMeters>NAN</DistanceMeters>
          </Trackpoint>
          <Trackpoint>
            <Time>2022-09-20T13:09:52.000Z</Time>
            <Position>
              <LatitudeDegrees>49.4219278357923030853271484375</LatitudeDegrees>
              <LongitudeDegrees>20.31927580945193767547607421875</LongitudeDegrees>
            </Position>
            <AltitudeMeters>530.20001220703125</AltitudeMeters>
            <DistanceMeters>NAN</DistanceMeters>
          </Trackpoint>
          <Trackpoint>
            <Time>2022-09-20T13:10:22.000Z</Time>
            <Position>
              <LatitudeDegrees>49.42198508419096469879150390625</LatitudeDegrees>
              <LongitudeDegrees>20.319237671792507171630859375</LongitudeDegrees>
            </Position>
            <AltitudeMeters>530.20001220703125</AltitudeMeters>
            <DistanceMeters>NAN</DistanceMeters>
          </Trackpoint>
          <Trackpoint>
            <Time>2022-09-20T13:10:27.000Z</Time>
            <Position>
              <LatitudeDegrees>49.42199195735156536102294921875</LatitudeDegrees>
              <LongitudeDegrees>20.3192502446472644805908203125</LongitudeDegrees>
            </Position>
            <AltitudeMeters>530.20001220703125</AltitudeMeters>
            <DistanceMeters>NAN</DistanceMeters>
          </Trackpoint>
          <Trackpoint>
            <Time>2022-09-20T13:10:28.000Z</Time>
            <Position>
              <LatitudeDegrees>49.42199480719864368438720703125</LatitudeDegrees>
              <LongitudeDegrees>20.319261141121387481689453125</LongitudeDegrees>
            </Position>
            <AltitudeMeters>530.20001220703125</AltitudeMeters>
            <DistanceMeters>NAN</DistanceMeters>
          </Trackpoint>
          <Trackpoint>
            <Time>2022-09-20T13:10:29.000Z</Time>
            <Position>
              <LatitudeDegrees>49.42199581302702426910400390625</LatitudeDegrees>
              <LongitudeDegrees>20.31925854273140430450439453125</LongitudeDegrees>
            </Position>
            <AltitudeMeters>530.20001220703125</AltitudeMeters>
            <DistanceMeters>NAN</DistanceMeters>
          </Trackpoint>
          <Trackpoint>
            <Time>2022-09-20T13:10:33.000Z</Time>
            <Position>
              <LatitudeDegrees>49.42199774086475372314453125</LatitudeDegrees>
              <LongitudeDegrees>20.31925678253173828125</LongitudeDegrees>
            </Position>
            <AltitudeMeters>530.20001220703125</AltitudeMeters>
            <DistanceMeters>NAN</DistanceMeters>
          </Trackpoint>
          <Trackpoint>
            <Time>2022-09-20T13:10:47.000Z</Time>
            <Position>
              <LatitudeDegrees>49.4220086373388767242431640625</LatitudeDegrees>
              <LongitudeDegrees>20.31923976726830005645751953125</LongitudeDegrees>
            </Position>
            <AltitudeMeters>530.20001220703125</AltitudeMeters>
            <DistanceMeters>NAN</DistanceMeters>
          </Trackpoint>
          <Trackpoint>
            <Time>2022-09-20T13:10:52.000Z</Time>
            <Position>
              <LatitudeDegrees>49.4220156781375408172607421875</LatitudeDegrees>
              <LongitudeDegrees>20.3192247636616230010986328125</LongitudeDegrees>
            </Position>
            <AltitudeMeters>530.20001220703125</AltitudeMeters>
            <DistanceMeters>NAN</DistanceMeters>
          </Trackpoint>
          <Trackpoint>
            <Time>2022-09-20T13:10:54.000Z</Time>
            <Position>
              <LatitudeDegrees>49.42201676778495311737060546875</LatitudeDegrees>
              <LongitudeDegrees>20.31922124326229095458984375</LongitudeDegrees>
            </Position>
            <AltitudeMeters>530.20001220703125</AltitudeMeters>
            <DistanceMeters>NAN</DistanceMeters>
          </Trackpoint>
          <Trackpoint>
            <Time>2022-09-20T13:11:00.000Z</Time>
            <Position>
              <LatitudeDegrees>49.42199044860899448394775390625</LatitudeDegrees>
              <LongitudeDegrees>20.31920515000820159912109375</LongitudeDegrees>
            </Position>
            <AltitudeMeters>530.20001220703125</AltitudeMeters>
            <DistanceMeters>NAN</DistanceMeters>
          </Trackpoint>
          <Trackpoint>
            <Time>2022-09-20T13:11:09.000Z</Time>
            <Position>
              <LatitudeDegrees>49.42191861569881439208984375</LatitudeDegrees>
              <LongitudeDegrees>20.319254435598850250244140625</LongitudeDegrees>
            </Position>
            <AltitudeMeters>530.4000244140625</AltitudeMeters>
            <DistanceMeters>NAN</DistanceMeters>
          </Trackpoint>
          <Trackpoint>
            <Time>2022-09-20T13:11:16.000Z</Time>
            <Position>
              <LatitudeDegrees>49.4218651391565799713134765625</LatitudeDegrees>
              <LongitudeDegrees>20.31923976726830005645751953125</LongitudeDegrees>
            </Position>
            <AltitudeMeters>530.4000244140625</AltitudeMeters>
            <DistanceMeters>NAN</DistanceMeters>
          </Trackpoint>
          <Trackpoint>
            <Time>2022-09-20T13:11:17.000Z</Time>
            <Position>
              <LatitudeDegrees>49.42186036147177219390869140625</LatitudeDegrees>
              <LongitudeDegrees>20.31923389993607997894287109375</LongitudeDegrees>
            </Position>
            <AltitudeMeters>530.4000244140625</AltitudeMeters>
            <DistanceMeters>NAN</DistanceMeters>
          </Trackpoint>
          <Trackpoint>
            <Time>2022-09-20T13:11:25.000Z</Time>
            <Position>
              <LatitudeDegrees>49.42181442864239215850830078125</LatitudeDegrees>
              <LongitudeDegrees>20.31924932263791561126708984375</LongitudeDegrees>
            </Position>
            <AltitudeMeters>530.79998779296875</AltitudeMeters>
            <DistanceMeters>NAN</DistanceMeters>
          </Trackpoint>
          <Trackpoint>
            <Time>2022-09-20T13:11:26.000Z</Time>
            <Position>
              <LatitudeDegrees>49.4218114949762821197509765625</LatitudeDegrees>
              <LongitudeDegrees>20.31925032846629619598388671875</LongitudeDegrees>
            </Position>
            <AltitudeMeters>530.79998779296875</AltitudeMeters>
            <DistanceMeters>NAN</DistanceMeters>
          </Trackpoint>
          <Trackpoint>
            <Time>2022-09-20T13:11:27.000Z</Time>
            <Position>
              <LatitudeDegrees>49.4218121655285358428955078125</LatitudeDegrees>
              <LongitudeDegrees>20.31924697570502758026123046875</LongitudeDegrees>
            </Position>
            <AltitudeMeters>530.79998779296875</AltitudeMeters>
            <DistanceMeters>NAN</DistanceMeters>
          </Trackpoint>
          <Trackpoint>
            <Time>2022-09-20T13:11:31.000Z</Time>
            <Position>
              <LatitudeDegrees>49.42181359045207500457763671875</LatitudeDegrees>
              <LongitudeDegrees>20.31925183720886707305908203125</LongitudeDegrees>
            </Position>
            <AltitudeMeters>530.79998779296875</AltitudeMeters>
            <DistanceMeters>NAN</DistanceMeters>
          </Trackpoint>
          <Trackpoint>
            <Time>2022-09-20T13:11:35.000Z</Time>
            <Position>
              <LatitudeDegrees>49.4217860139906406402587890625</LatitudeDegrees>
              <LongitudeDegrees>20.31927363015711307525634765625</LongitudeDegrees>
            </Position>
            <AltitudeMeters>530.79998779296875</AltitudeMeters>
            <DistanceMeters>NAN</DistanceMeters>
          </Trackpoint>
          <Trackpoint>
            <Time>2022-09-20T13:11:42.000Z</Time>
            <Position>
              <LatitudeDegrees>49.42173111252486705780029296875</LatitudeDegrees>
              <LongitudeDegrees>20.3193022124469280242919921875</LongitudeDegrees>
            </Position>
            <AltitudeMeters>531</AltitudeMeters>
            <DistanceMeters>NAN</DistanceMeters>
          </Trackpoint>
          <Trackpoint>
            <Time>2022-09-20T13:11:44.000Z</Time>
            <Position>
              <LatitudeDegrees>49.42172013223171234130859375</LatitudeDegrees>
              <LongitudeDegrees>20.31930095516145229339599609375</LongitudeDegrees>
            </Position>
            <AltitudeMeters>531</AltitudeMeters>
            <DistanceMeters>NAN</DistanceMeters>
          </Trackpoint>
          <Trackpoint>
            <Time>2022-09-20T13:11:47.000Z</Time>
            <Position>
              <LatitudeDegrees>49.421688616275787353515625</LatitudeDegrees>
              <LongitudeDegrees>20.31929810531437397003173828125</LongitudeDegrees>
            </Position>
            <AltitudeMeters>531</AltitudeMeters>
            <DistanceMeters>NAN</DistanceMeters>
          </Trackpoint>
          <Trackpoint>
            <Time>2022-09-20T13:11:52.000Z</Time>
            <Position>
              <LatitudeDegrees>49.421654753386974334716796875</LatitudeDegrees>
              <LongitudeDegrees>20.3193095885217189788818359375</LongitudeDegrees>
            </Position>
            <AltitudeMeters>531</AltitudeMeters>
            <DistanceMeters>NAN</DistanceMeters>
          </Trackpoint>
          <Trackpoint>
            <Time>2022-09-20T13:11:55.000Z</Time>
            <Position>
              <LatitudeDegrees>49.42164058797061443328857421875</LatitudeDegrees>
              <LongitudeDegrees>20.31931084580719470977783203125</LongitudeDegrees>
            </Position>
            <AltitudeMeters>531</AltitudeMeters>
            <DistanceMeters>NAN</DistanceMeters>
          </Trackpoint>
          <Trackpoint>
            <Time>2022-09-20T13:11:57.000Z</Time>
            <Position>
              <LatitudeDegrees>49.42162499763071537017822265625</LatitudeDegrees>
              <LongitudeDegrees>20.3193224966526031494140625</LongitudeDegrees>
            </Position>
            <AltitudeMeters>531</AltitudeMeters>
            <DistanceMeters>NAN</DistanceMeters>
          </Trackpoint>
          <Trackpoint>
            <Time>2022-09-20T13:11:59.000Z</Time>
            <Position>
              <LatitudeDegrees>49.4216116704046726226806640625</LatitudeDegrees>
              <LongitudeDegrees>20.31932610087096691131591796875</LongitudeDegrees>
            </Position>
            <AltitudeMeters>531</AltitudeMeters>
            <DistanceMeters>NAN</DistanceMeters>
          </Trackpoint>
          <Trackpoint>
            <Time>2022-09-20T13:12:01.000Z</Time>
            <Position>
              <LatitudeDegrees>49.42160236649215221405029296875</LatitudeDegrees>
              <LongitudeDegrees>20.31932677142322063446044921875</LongitudeDegrees>
            </Position>
            <AltitudeMeters>531</AltitudeMeters>
            <DistanceMeters>NAN</DistanceMeters>
          </Trackpoint>
          <Trackpoint>
            <Time>2022-09-20T13:12:08.000Z</Time>
            <Position>
              <LatitudeDegrees>49.42157353274524211883544921875</LatitudeDegrees>
              <LongitudeDegrees>20.31930900178849697113037109375</LongitudeDegrees>
            </Position>
            <AltitudeMeters>531</AltitudeMeters>
            <DistanceMeters>NAN</DistanceMeters>
          </Trackpoint>
          <Trackpoint>
            <Time>2022-09-20T13:12:10.000Z</Time>
            <Position>
              <LatitudeDegrees>49.42156665958464145660400390625</LatitudeDegrees>
              <LongitudeDegrees>20.3192861191928386688232421875</LongitudeDegrees>
            </Position>
            <AltitudeMeters>531.20001220703125</AltitudeMeters>
            <DistanceMeters>NAN</DistanceMeters>
          </Trackpoint>
          <Trackpoint>
            <Time>2022-09-20T13:12:17.000Z</Time>
            <Position>
              <LatitudeDegrees>49.42157319746911525726318359375</LatitudeDegrees>
              <LongitudeDegrees>20.31921780668199062347412109375</LongitudeDegrees>
            </Position>
            <AltitudeMeters>531.20001220703125</AltitudeMeters>
            <DistanceMeters>NAN</DistanceMeters>
          </Trackpoint>
          <Trackpoint>
            <Time>2022-09-20T13:12:21.000Z</Time>
            <Position>
              <LatitudeDegrees>49.4215613789856433868408203125</LatitudeDegrees>
              <LongitudeDegrees>20.31918746419250965118408203125</LongitudeDegrees>
            </Position>
            <AltitudeMeters>531.5999755859375</AltitudeMeters>
            <DistanceMeters>NAN</DistanceMeters>
          </Trackpoint>
          <Trackpoint>
            <Time>2022-09-20T13:12:27.000Z</Time>
            <Position>
              <LatitudeDegrees>49.42154436372220516204833984375</LatitudeDegrees>
              <LongitudeDegrees>20.3191074170172214508056640625</LongitudeDegrees>
            </Position>
            <AltitudeMeters>531.79998779296875</AltitudeMeters>
            <DistanceMeters>NAN</DistanceMeters>
          </Trackpoint>
          <Trackpoint>
            <Time>2022-09-20T13:12:28.000Z</Time>
            <Position>
              <LatitudeDegrees>49.421537406742572784423828125</LatitudeDegrees>
              <LongitudeDegrees>20.319086126983165740966796875</LongitudeDegrees>
            </Position>
            <AltitudeMeters>531.79998779296875</AltitudeMeters>
            <DistanceMeters>NAN</DistanceMeters>
          </Trackpoint>
          <Trackpoint>
            <Time>2022-09-20T13:12:34.000Z</Time>
            <Position>
              <LatitudeDegrees>49.4215419329702854156494140625</LatitudeDegrees>
              <LongitudeDegrees>20.3189974464476108551025390625</LongitudeDegrees>
            </Position>
            <AltitudeMeters>532.20001220703125</AltitudeMeters>
            <DistanceMeters>NAN</DistanceMeters>
          </Trackpoint>
          <Trackpoint>
            <Time>2022-09-20T13:12:41.000Z</Time>
            <Position>
              <LatitudeDegrees>49.4215181283652782440185546875</LatitudeDegrees>
              <LongitudeDegrees>20.31892024911940097808837890625</LongitudeDegrees>
            </Position>
            <AltitudeMeters>532.4000244140625</AltitudeMeters>
            <DistanceMeters>NAN</DistanceMeters>
          </Trackpoint>
          <Trackpoint>
            <Time>2022-09-20T13:12:44.000Z</Time>
            <Position>
              <LatitudeDegrees>49.42144763655960559844970703125</LatitudeDegrees>
              <LongitudeDegrees>20.31891547143459320068359375</LongitudeDegrees>
            </Position>
            <AltitudeMeters>532.5999755859375</AltitudeMeters>
            <DistanceMeters>NAN</DistanceMeters>
          </Trackpoint>
          <Trackpoint>
            <Time>2022-09-20T13:12:48.000Z</Time>
            <Position>
              <LatitudeDegrees>49.42138016223907470703125</LatitudeDegrees>
              <LongitudeDegrees>20.31892058439552783966064453125</LongitudeDegrees>
            </Position>
            <AltitudeMeters>532.5999755859375</AltitudeMeters>
            <DistanceMeters>NAN</DistanceMeters>
          </Trackpoint>
          <Trackpoint>
            <Time>2022-09-20T13:12:53.000Z</Time>
            <Position>
              <LatitudeDegrees>49.4214406795799732208251953125</LatitudeDegrees>
              <LongitudeDegrees>20.31894489191472530364990234375</LongitudeDegrees>
            </Position>
            <AltitudeMeters>532.5999755859375</AltitudeMeters>
            <DistanceMeters>NAN</DistanceMeters>
          </Trackpoint>
          <Trackpoint>
            <Time>2022-09-20T13:12:54.000Z</Time>
            <Position>
              <LatitudeDegrees>49.4214373268187046051025390625</LatitudeDegrees>
              <LongitudeDegrees>20.318930558860301971435546875</LongitudeDegrees>
            </Position>
            <AltitudeMeters>532.5999755859375</AltitudeMeters>
            <DistanceMeters>NAN</DistanceMeters>
          </Trackpoint>
          <Trackpoint>
            <Time>2022-09-20T13:12:57.000Z</Time>
            <Position>
              <LatitudeDegrees>49.42143958993256092071533203125</LatitudeDegrees>
              <LongitudeDegrees>20.31891890801489353179931640625</LongitudeDegrees>
            </Position>
            <AltitudeMeters>532.5999755859375</AltitudeMeters>
            <DistanceMeters>NAN</DistanceMeters>
          </Trackpoint>
          <Trackpoint>
            <Time>2022-09-20T13:12:58.000Z</Time>
            <Position>
              <LatitudeDegrees>49.42143808118999004364013671875</LatitudeDegrees>
              <LongitudeDegrees>20.318916141986846923828125</LongitudeDegrees>
            </Position>
            <AltitudeMeters>532.79998779296875</AltitudeMeters>
            <DistanceMeters>NAN</DistanceMeters>
          </Trackpoint>
          <Trackpoint>
            <Time>2022-09-20T13:13:02.000Z</Time>
            <Position>
              <LatitudeDegrees>49.42142114974558353424072265625</LatitudeDegrees>
              <LongitudeDegrees>20.31888856552541255950927734375</LongitudeDegrees>
            </Position>
            <AltitudeMeters>532.79998779296875</AltitudeMeters>
            <DistanceMeters>NAN</DistanceMeters>
          </Trackpoint>
          <Trackpoint>
            <Time>2022-09-20T13:13:04.000Z</Time>
            <Position>
              <LatitudeDegrees>49.421417377889156341552734375</LatitudeDegrees>
              <LongitudeDegrees>20.31887548975646495819091796875</LongitudeDegrees>
            </Position>
            <AltitudeMeters>532.79998779296875</AltitudeMeters>
            <DistanceMeters>NAN</DistanceMeters>
          </Trackpoint>
          <Trackpoint>
            <Time>2022-09-20T13:13:12.000Z</Time>
            <Position>
              <LatitudeDegrees>49.4214192219078540802001953125</LatitudeDegrees>
              <LongitudeDegrees>20.31881220638751983642578125</LongitudeDegrees>
            </Position>
            <AltitudeMeters>532.79998779296875</AltitudeMeters>
            <DistanceMeters>NAN</DistanceMeters>
          </Trackpoint>
          <Trackpoint>
            <Time>2022-09-20T13:13:15.000Z</Time>
            <Position>
              <LatitudeDegrees>49.4214198924601078033447265625</LatitudeDegrees>
              <LongitudeDegrees>20.318807847797870635986328125</LongitudeDegrees>
            </Position>
            <AltitudeMeters>532.79998779296875</AltitudeMeters>
            <DistanceMeters>NAN</DistanceMeters>
          </Trackpoint>
          <Trackpoint>
            <Time>2022-09-20T13:13:18.000Z</Time>
            <Position>
              <LatitudeDegrees>49.42144386470317840576171875</LatitudeDegrees>
              <LongitudeDegrees>20.31886056996881961822509765625</LongitudeDegrees>
            </Position>
            <AltitudeMeters>533</AltitudeMeters>
            <DistanceMeters>NAN</DistanceMeters>
          </Trackpoint>
          <Trackpoint>
            <Time>2022-09-20T13:13:26.000Z</Time>
            <Position>
              <LatitudeDegrees>49.4214537553489208221435546875</LatitudeDegrees>
              <LongitudeDegrees>20.318883620202541351318359375</LongitudeDegrees>
            </Position>
            <AltitudeMeters>532.79998779296875</AltitudeMeters>
            <DistanceMeters>NAN</DistanceMeters>
          </Trackpoint>
          <Trackpoint>
            <Time>2022-09-20T13:13:35.000Z</Time>
            <Position>
              <LatitudeDegrees>49.42144076339900493621826171875</LatitudeDegrees>
              <LongitudeDegrees>20.31888186000287532806396484375</LongitudeDegrees>
            </Position>
            <AltitudeMeters>532.79998779296875</AltitudeMeters>
            <DistanceMeters>NAN</DistanceMeters>
          </Trackpoint>
          <Trackpoint>
            <Time>2022-09-20T13:13:38.000Z</Time>
            <Position>
              <LatitudeDegrees>49.42144076339900493621826171875</LatitudeDegrees>
              <LongitudeDegrees>20.31888186000287532806396484375</LongitudeDegrees>
            </Position>
            <AltitudeMeters>532.79998779296875</AltitudeMeters>
            <DistanceMeters>NAN</DistanceMeters>
          </Trackpoint>
          <Trackpoint>
            <Time>2022-09-20T13:13:52.000Z</Time>
            <Position>
              <LatitudeDegrees>49.42145199514925479888916015625</LatitudeDegrees>
              <LongitudeDegrees>20.318883620202541351318359375</LongitudeDegrees>
            </Position>
            <AltitudeMeters>532.79998779296875</AltitudeMeters>
            <DistanceMeters>NAN</DistanceMeters>
          </Trackpoint>
          <Trackpoint>
            <Time>2022-09-20T13:14:00.000Z</Time>
            <Position>
              <LatitudeDegrees>49.4214618019759654998779296875</LatitudeDegrees>
              <LongitudeDegrees>20.3188811056315898895263671875</LongitudeDegrees>
            </Position>
            <AltitudeMeters>532.79998779296875</AltitudeMeters>
            <DistanceMeters>NAN</DistanceMeters>
          </Trackpoint>
          <Trackpoint>
            <Time>2022-09-20T13:14:03.000Z</Time>
            <Position>
              <LatitudeDegrees>49.4214695133268833160400390625</LatitudeDegrees>
              <LongitudeDegrees>20.31887079589068889617919921875</LongitudeDegrees>
            </Position>
            <AltitudeMeters>532.79998779296875</AltitudeMeters>
            <DistanceMeters>NAN</DistanceMeters>
          </Trackpoint>
          <Trackpoint>
            <Time>2022-09-20T13:14:14.000Z</Time>
            <Position>
              <LatitudeDegrees>49.421482086181640625</LatitudeDegrees>
              <LongitudeDegrees>20.3188415430486202239990234375</LongitudeDegrees>
            </Position>
            <AltitudeMeters>532.79998779296875</AltitudeMeters>
            <DistanceMeters>NAN</DistanceMeters>
          </Trackpoint>
          <Trackpoint>
            <Time>2022-09-20T13:14:21.000Z</Time>
            <Position>
              <LatitudeDegrees>49.42151368595659732818603515625</LatitudeDegrees>
              <LongitudeDegrees>20.31894153915345668792724609375</LongitudeDegrees>
            </Position>
            <AltitudeMeters>532.79998779296875</AltitudeMeters>
            <DistanceMeters>NAN</DistanceMeters>
          </Trackpoint>
          <Trackpoint>
            <Time>2022-09-20T13:14:26.000Z</Time>
            <Position>
              <LatitudeDegrees>49.42153950221836566925048828125</LatitudeDegrees>
              <LongitudeDegrees>20.319051928818225860595703125</LongitudeDegrees>
            </Position>
            <AltitudeMeters>532.79998779296875</AltitudeMeters>
            <DistanceMeters>NAN</DistanceMeters>
          </Trackpoint>
          <Trackpoint>
            <Time>2022-09-20T13:14:28.000Z</Time>
            <Position>
              <LatitudeDegrees>49.4215399213135242462158203125</LatitudeDegrees>
              <LongitudeDegrees>20.31908218748867511749267578125</LongitudeDegrees>
            </Position>
            <AltitudeMeters>532.79998779296875</AltitudeMeters>
            <DistanceMeters>NAN</DistanceMeters>
          </Trackpoint>
          <Trackpoint>
            <Time>2022-09-20T13:14:33.000Z</Time>
            <Position>
              <LatitudeDegrees>49.42151485942304134368896484375</LatitudeDegrees>
              <LongitudeDegrees>20.3191506676375865936279296875</LongitudeDegrees>
            </Position>
            <AltitudeMeters>532.79998779296875</AltitudeMeters>
            <DistanceMeters>NAN</DistanceMeters>
          </Trackpoint>
          <Trackpoint>
            <Time>2022-09-20T13:14:40.000Z</Time>
            <Position>
              <LatitudeDegrees>49.42146155051887035369873046875</LatitudeDegrees>
              <LongitudeDegrees>20.31917992047965526580810546875</LongitudeDegrees>
            </Position>
            <AltitudeMeters>532.79998779296875</AltitudeMeters>
            <DistanceMeters>NAN</DistanceMeters>
          </Trackpoint>
          <Trackpoint>
            <Time>2022-09-20T13:14:49.000Z</Time>
            <Position>
              <LatitudeDegrees>49.42142735235393047332763671875</LatitudeDegrees>
              <LongitudeDegrees>20.31912602484226226806640625</LongitudeDegrees>
            </Position>
            <AltitudeMeters>532.79998779296875</AltitudeMeters>
            <DistanceMeters>NAN</DistanceMeters>
          </Trackpoint>
          <Trackpoint>
            <Time>2022-09-20T13:14:56.000Z</Time>
            <Position>
              <LatitudeDegrees>49.4214433617889881134033203125</LatitudeDegrees>
              <LongitudeDegrees>20.31915242783725261688232421875</LongitudeDegrees>
            </Position>
            <AltitudeMeters>532.79998779296875</AltitudeMeters>
            <DistanceMeters>NAN</DistanceMeters>
          </Trackpoint>
          <Trackpoint>
            <Time>2022-09-20T13:15:03.000Z</Time>
            <Position>
              <LatitudeDegrees>49.4214654900133609771728515625</LatitudeDegrees>
              <LongitudeDegrees>20.3192073293030261993408203125</LongitudeDegrees>
            </Position>
            <AltitudeMeters>532.79998779296875</AltitudeMeters>
            <DistanceMeters>NAN</DistanceMeters>
          </Trackpoint>
          <Trackpoint>
            <Time>2022-09-20T13:15:09.000Z</Time>
            <Position>
              <LatitudeDegrees>49.42148669622838497161865234375</LatitudeDegrees>
              <LongitudeDegrees>20.31921680085361003875732421875</LongitudeDegrees>
            </Position>
            <AltitudeMeters>532.79998779296875</AltitudeMeters>
            <DistanceMeters>NAN</DistanceMeters>
          </Trackpoint>
          <Trackpoint>
            <Time>2022-09-20T13:15:15.000Z</Time>
            <Position>
              <LatitudeDegrees>49.4214968383312225341796875</LatitudeDegrees>
              <LongitudeDegrees>20.319243036210536956787109375</LongitudeDegrees>
            </Position>
            <AltitudeMeters>532.79998779296875</AltitudeMeters>
            <DistanceMeters>NAN</DistanceMeters>
          </Trackpoint>
          <Trackpoint>
            <Time>2022-09-20T13:15:22.000Z</Time>
            <Position>
              <LatitudeDegrees>49.4214792363345623016357421875</LatitudeDegrees>
              <LongitudeDegrees>20.3193122707307338714599609375</LongitudeDegrees>
            </Position>
            <AltitudeMeters>532.79998779296875</AltitudeMeters>
            <DistanceMeters>NAN</DistanceMeters>
          </Trackpoint>
          <Trackpoint>
            <Time>2022-09-20T13:15:30.000Z</Time>
            <Position>
              <LatitudeDegrees>49.4214524142444133758544921875</LatitudeDegrees>
              <LongitudeDegrees>20.3194051422178745269775390625</LongitudeDegrees>
            </Position>
            <AltitudeMeters>532.79998779296875</AltitudeMeters>
            <DistanceMeters>NAN</DistanceMeters>
          </Trackpoint>
          <Trackpoint>
            <Time>2022-09-20T13:15:34.000Z</Time>
            <Position>
              <LatitudeDegrees>49.421427436172962188720703125</LatitudeDegrees>
              <LongitudeDegrees>20.31946021132171154022216796875</LongitudeDegrees>
            </Position>
            <AltitudeMeters>532.79998779296875</AltitudeMeters>
            <DistanceMeters>NAN</DistanceMeters>
          </Trackpoint>
          <Trackpoint>
            <Time>2022-09-20T13:15:39.000Z</Time>
            <Position>
              <LatitudeDegrees>49.4213944114744663238525390625</LatitudeDegrees>
              <LongitudeDegrees>20.3195285238325595855712890625</LongitudeDegrees>
            </Position>
            <AltitudeMeters>532.79998779296875</AltitudeMeters>
            <DistanceMeters>NAN</DistanceMeters>
          </Trackpoint>
          <Trackpoint>
            <Time>2022-09-20T13:15:46.000Z</Time>
            <Position>
              <LatitudeDegrees>49.4213354028761386871337890625</LatitudeDegrees>
              <LongitudeDegrees>20.319593735039234161376953125</LongitudeDegrees>
            </Position>
            <AltitudeMeters>532.79998779296875</AltitudeMeters>
            <DistanceMeters>NAN</DistanceMeters>
          </Trackpoint>
          <Trackpoint>
            <Time>2022-09-20T13:15:49.000Z</Time>
            <Position>
              <LatitudeDegrees>49.4212887994945049285888671875</LatitudeDegrees>
              <LongitudeDegrees>20.31960672698915004730224609375</LongitudeDegrees>
            </Position>
            <AltitudeMeters>532.79998779296875</AltitudeMeters>
            <DistanceMeters>NAN</DistanceMeters>
          </Trackpoint>
          <Trackpoint>
            <Time>2022-09-20T13:15:53.000Z</Time>
            <Position>
              <LatitudeDegrees>49.421262480318546295166015625</LatitudeDegrees>
              <LongitudeDegrees>20.31960748136043548583984375</LongitudeDegrees>
            </Position>
            <AltitudeMeters>532.79998779296875</AltitudeMeters>
            <DistanceMeters>NAN</DistanceMeters>
          </Trackpoint>
          <Trackpoint>
            <Time>2022-09-20T13:15:57.000Z</Time>
            <Position>
              <LatitudeDegrees>49.421255104243755340576171875</LatitudeDegrees>
              <LongitudeDegrees>20.31967311166226863861083984375</LongitudeDegrees>
            </Position>
            <AltitudeMeters>532.79998779296875</AltitudeMeters>
            <DistanceMeters>NAN</DistanceMeters>
          </Trackpoint>
          <Trackpoint>
            <Time>2022-09-20T13:15:59.000Z</Time>
            <Position>
              <LatitudeDegrees>49.4212398491799831390380859375</LatitudeDegrees>
              <LongitudeDegrees>20.3197065554559230804443359375</LongitudeDegrees>
            </Position>
            <AltitudeMeters>532.79998779296875</AltitudeMeters>
            <DistanceMeters>NAN</DistanceMeters>
          </Trackpoint>
          <Trackpoint>
            <Time>2022-09-20T13:16:06.000Z</Time>
            <Position>
              <LatitudeDegrees>49.42119550891220569610595703125</LatitudeDegrees>
              <LongitudeDegrees>20.3197477944195270538330078125</LongitudeDegrees>
            </Position>
            <AltitudeMeters>532.79998779296875</AltitudeMeters>
            <DistanceMeters>NAN</DistanceMeters>
          </Trackpoint>
          <Trackpoint>
            <Time>2022-09-20T13:16:14.000Z</Time>
            <Position>
              <LatitudeDegrees>49.4211516715586185455322265625</LatitudeDegrees>
              <LongitudeDegrees>20.31979699619114398956298828125</LongitudeDegrees>
            </Position>
            <AltitudeMeters>532.79998779296875</AltitudeMeters>
            <DistanceMeters>NAN</DistanceMeters>
          </Trackpoint>
          <Trackpoint>
            <Time>2022-09-20T13:16:20.000Z</Time>
            <Position>
              <LatitudeDegrees>49.421121664345264434814453125</LatitudeDegrees>
              <LongitudeDegrees>20.319807641208171844482421875</LongitudeDegrees>
            </Position>
            <AltitudeMeters>532.79998779296875</AltitudeMeters>
            <DistanceMeters>NAN</DistanceMeters>
          </Trackpoint>
          <Trackpoint>
            <Time>2022-09-20T13:16:26.000Z</Time>
            <Position>
              <LatitudeDegrees>49.421074055135250091552734375</LatitudeDegrees>
              <LongitudeDegrees>20.319829098880290985107421875</LongitudeDegrees>
            </Position>
            <AltitudeMeters>532.79998779296875</AltitudeMeters>
            <DistanceMeters>NAN</DistanceMeters>
          </Trackpoint>
          <Trackpoint>
            <Time>2022-09-20T13:16:33.000Z</Time>
            <Position>
              <LatitudeDegrees>49.4210189022123813629150390625</LatitudeDegrees>
              <LongitudeDegrees>20.3199140913784503936767578125</LongitudeDegrees>
            </Position>
            <AltitudeMeters>532.79998779296875</AltitudeMeters>
            <DistanceMeters>NAN</DistanceMeters>
          </Trackpoint>
          <Trackpoint>
            <Time>2022-09-20T13:16:39.000Z</Time>
            <Position>
              <LatitudeDegrees>49.42096282728016376495361328125</LatitudeDegrees>
              <LongitudeDegrees>20.320000089704990386962890625</LongitudeDegrees>
            </Position>
            <AltitudeMeters>527.5999755859375</AltitudeMeters>
            <DistanceMeters>NAN</DistanceMeters>
          </Trackpoint>
          <Trackpoint>
            <Time>2022-09-20T13:16:41.000Z</Time>
            <Position>
              <LatitudeDegrees>49.42095209844410419464111328125</LatitudeDegrees>
              <LongitudeDegrees>20.3200185298919677734375</LongitudeDegrees>
            </Position>
            <AltitudeMeters>527.5999755859375</AltitudeMeters>
            <DistanceMeters>NAN</DistanceMeters>
          </Trackpoint>
          <Trackpoint>
            <Time>2022-09-20T13:16:50.000Z</Time>
            <Position>
              <LatitudeDegrees>49.42093483172357082366943359375</LatitudeDegrees>
              <LongitudeDegrees>20.32003437168896198272705078125</LongitudeDegrees>
            </Position>
            <AltitudeMeters>527.5999755859375</AltitudeMeters>
            <DistanceMeters>NAN</DistanceMeters>
          </Trackpoint>
          <Trackpoint>
            <Time>2022-09-20T13:16:55.000Z</Time>
            <Position>
              <LatitudeDegrees>49.42083097994327545166015625</LatitudeDegrees>
              <LongitudeDegrees>20.3200984932482242584228515625</LongitudeDegrees>
            </Position>
            <AltitudeMeters>527.20001220703125</AltitudeMeters>
            <DistanceMeters>NAN</DistanceMeters>
          </Trackpoint>
          <Trackpoint>
            <Time>2022-09-20T13:16:57.000Z</Time>
            <Position>
              <LatitudeDegrees>49.4207593984901905059814453125</LatitudeDegrees>
              <LongitudeDegrees>20.3201222978532314300537109375</LongitudeDegrees>
            </Position>
            <AltitudeMeters>526.5999755859375</AltitudeMeters>
            <DistanceMeters>NAN</DistanceMeters>
          </Trackpoint>
          <Trackpoint>
            <Time>2022-09-20T13:17:00.000Z</Time>
            <Position>
              <LatitudeDegrees>49.42064951173961162567138671875</LatitudeDegrees>
              <LongitudeDegrees>20.32017208635807037353515625</LongitudeDegrees>
            </Position>
            <AltitudeMeters>525.5999755859375</AltitudeMeters>
            <DistanceMeters>NAN</DistanceMeters>
          </Trackpoint>
          <Trackpoint>
            <Time>2022-09-20T13:17:05.000Z</Time>
            <Position>
              <LatitudeDegrees>49.4204834662377834320068359375</LatitudeDegrees>
              <LongitudeDegrees>20.3202362917363643646240234375</LongitudeDegrees>
            </Position>
            <AltitudeMeters>524.4000244140625</AltitudeMeters>
            <DistanceMeters>NAN</DistanceMeters>
          </Trackpoint>
          <Trackpoint>
            <Time>2022-09-20T13:17:07.000Z</Time>
            <Position>
              <LatitudeDegrees>49.42041833885014057159423828125</LatitudeDegrees>
              <LongitudeDegrees>20.32025783322751522064208984375</LongitudeDegrees>
            </Position>
            <AltitudeMeters>523.5999755859375</AltitudeMeters>
            <DistanceMeters>NAN</DistanceMeters>
          </Trackpoint>
          <Trackpoint>
            <Time>2022-09-20T13:17:08.000Z</Time>
            <Position>
              <LatitudeDegrees>49.420385062694549560546875</LatitudeDegrees>
              <LongitudeDegrees>20.32026303000748157501220703125</LongitudeDegrees>
            </Position>
            <AltitudeMeters>523.4000244140625</AltitudeMeters>
            <DistanceMeters>NAN</DistanceMeters>
          </Trackpoint>
          <Trackpoint>
            <Time>2022-09-20T13:17:12.000Z</Time>
            <Position>
              <LatitudeDegrees>49.4202521257102489471435546875</LatitudeDegrees>
              <LongitudeDegrees>20.32029571942985057830810546875</LongitudeDegrees>
            </Position>
            <AltitudeMeters>522.20001220703125</AltitudeMeters>
            <DistanceMeters>NAN</DistanceMeters>
          </Trackpoint>
          <Trackpoint>
            <Time>2022-09-20T13:17:14.000Z</Time>
            <Position>
              <LatitudeDegrees>49.42018096335232257843017578125</LatitudeDegrees>
              <LongitudeDegrees>20.3203214518725872039794921875</LongitudeDegrees>
            </Position>
            <AltitudeMeters>521.79998779296875</AltitudeMeters>
            <DistanceMeters>NAN</DistanceMeters>
          </Trackpoint>
          <Trackpoint>
            <Time>2022-09-20T13:17:16.000Z</Time>
            <Position>
              <LatitudeDegrees>49.420112483203411102294921875</LatitudeDegrees>
              <LongitudeDegrees>20.32032220624387264251708984375</LongitudeDegrees>
            </Position>
            <AltitudeMeters>521.20001220703125</AltitudeMeters>
            <DistanceMeters>NAN</DistanceMeters>
          </Trackpoint>
          <Trackpoint>
            <Time>2022-09-20T13:17:21.000Z</Time>
            <Position>
              <LatitudeDegrees>49.41993671469390392303466796875</LatitudeDegrees>
              <LongitudeDegrees>20.320308543741703033447265625</LongitudeDegrees>
            </Position>
            <AltitudeMeters>520</AltitudeMeters>
            <DistanceMeters>NAN</DistanceMeters>
          </Trackpoint>
          <Trackpoint>
            <Time>2022-09-20T13:17:28.000Z</Time>
            <Position>
              <LatitudeDegrees>49.419728927314281463623046875</LatitudeDegrees>
              <LongitudeDegrees>20.32022547908127307891845703125</LongitudeDegrees>
            </Position>
            <AltitudeMeters>519</AltitudeMeters>
            <DistanceMeters>NAN</DistanceMeters>
          </Trackpoint>
          <Trackpoint>
            <Time>2022-09-20T13:17:33.000Z</Time>
            <Position>
              <LatitudeDegrees>49.41956455819308757781982421875</LatitudeDegrees>
              <LongitudeDegrees>20.3200921230018138885498046875</LongitudeDegrees>
            </Position>
            <AltitudeMeters>518</AltitudeMeters>
            <DistanceMeters>NAN</DistanceMeters>
          </Trackpoint>
          <Trackpoint>
            <Time>2022-09-20T13:17:40.000Z</Time>
            <Position>
              <LatitudeDegrees>49.41930186934769153594970703125</LatitudeDegrees>
              <LongitudeDegrees>20.31982415355741977691650390625</LongitudeDegrees>
            </Position>
            <AltitudeMeters>517</AltitudeMeters>
            <DistanceMeters>NAN</DistanceMeters>
          </Trackpoint>
          <Trackpoint>
            <Time>2022-09-20T13:17:41.000Z</Time>
            <Position>
              <LatitudeDegrees>49.41926591098308563232421875</LatitudeDegrees>
              <LongitudeDegrees>20.31978576444089412689208984375</LongitudeDegrees>
            </Position>
            <AltitudeMeters>516.79998779296875</AltitudeMeters>
            <DistanceMeters>NAN</DistanceMeters>
          </Trackpoint>
          <Trackpoint>
            <Time>2022-09-20T13:17:43.000Z</Time>
            <Position>
              <LatitudeDegrees>49.41919491626322269439697265625</LatitudeDegrees>
              <LongitudeDegrees>20.31971150077879428863525390625</LongitudeDegrees>
            </Position>
            <AltitudeMeters>516.79998779296875</AltitudeMeters>
            <DistanceMeters>NAN</DistanceMeters>
          </Trackpoint>
          <Trackpoint>
            <Time>2022-09-20T13:17:47.000Z</Time>
            <Position>
              <LatitudeDegrees>49.41908343695104122161865234375</LatitudeDegrees>
              <LongitudeDegrees>20.31959096901118755340576171875</LongitudeDegrees>
            </Position>
            <AltitudeMeters>516.79998779296875</AltitudeMeters>
            <DistanceMeters>NAN</DistanceMeters>
          </Trackpoint>
          <Trackpoint>
            <Time>2022-09-20T13:17:52.000Z</Time>
            <Position>
              <LatitudeDegrees>49.41897648386657238006591796875</LatitudeDegrees>
              <LongitudeDegrees>20.31946239061653614044189453125</LongitudeDegrees>
            </Position>
            <AltitudeMeters>516.79998779296875</AltitudeMeters>
            <DistanceMeters>NAN</DistanceMeters>
          </Trackpoint>
          <Trackpoint>
            <Time>2022-09-20T13:17:54.000Z</Time>
            <Position>
              <LatitudeDegrees>49.4189371727406978607177734375</LatitudeDegrees>
              <LongitudeDegrees>20.31941461376845836639404296875</LongitudeDegrees>
            </Position>
            <AltitudeMeters>517</AltitudeMeters>
            <DistanceMeters>NAN</DistanceMeters>
          </Trackpoint>
          <Trackpoint>
            <Time>2022-09-20T13:18:00.000Z</Time>
            <Position>
              <LatitudeDegrees>49.41881186328828334808349609375</LatitudeDegrees>
              <LongitudeDegrees>20.31927463598549365997314453125</LongitudeDegrees>
            </Position>
            <AltitudeMeters>516.79998779296875</AltitudeMeters>
            <DistanceMeters>NAN</DistanceMeters>
          </Trackpoint>
          <Trackpoint>
            <Time>2022-09-20T13:18:01.000Z</Time>
            <Position>
              <LatitudeDegrees>49.4187889806926250457763671875</LatitudeDegrees>
              <LongitudeDegrees>20.31924940645694732666015625</LongitudeDegrees>
            </Position>
            <AltitudeMeters>516.79998779296875</AltitudeMeters>
            <DistanceMeters>NAN</DistanceMeters>
          </Trackpoint>
          <Trackpoint>
            <Time>2022-09-20T13:18:12.000Z</Time>
            <Position>
              <LatitudeDegrees>49.41855403594672679901123046875</LatitudeDegrees>
              <LongitudeDegrees>20.31897238455712795257568359375</LongitudeDegrees>
            </Position>
            <AltitudeMeters>516.4000244140625</AltitudeMeters>
            <DistanceMeters>NAN</DistanceMeters>
          </Trackpoint>
          <Trackpoint>
            <Time>2022-09-20T13:18:20.000Z</Time>
            <Position>
              <LatitudeDegrees>49.41842277534306049346923828125</LatitudeDegrees>
              <LongitudeDegrees>20.3187778405845165252685546875</LongitudeDegrees>
            </Position>
            <AltitudeMeters>516.20001220703125</AltitudeMeters>
            <DistanceMeters>NAN</DistanceMeters>
          </Trackpoint>
          <Trackpoint>
            <Time>2022-09-20T13:18:27.000Z</Time>
            <Position>
              <LatitudeDegrees>49.4183291494846343994140625</LatitudeDegrees>
              <LongitudeDegrees>20.3185817040503025054931640625</LongitudeDegrees>
            </Position>
            <AltitudeMeters>516</AltitudeMeters>
            <DistanceMeters>NAN</DistanceMeters>
          </Trackpoint>
          <Trackpoint>
            <Time>2022-09-20T13:18:32.000Z</Time>
            <Position>
              <LatitudeDegrees>49.41827139817178249359130859375</LatitudeDegrees>
              <LongitudeDegrees>20.3184348531067371368408203125</LongitudeDegrees>
            </Position>
            <AltitudeMeters>516</AltitudeMeters>
            <DistanceMeters>NAN</DistanceMeters>
          </Trackpoint>
          <Trackpoint>
            <Time>2022-09-20T13:18:36.000Z</Time>
            <Position>
              <LatitudeDegrees>49.41822982393205165863037109375</LatitudeDegrees>
              <LongitudeDegrees>20.31832982785999774932861328125</LongitudeDegrees>
            </Position>
            <AltitudeMeters>515.79998779296875</AltitudeMeters>
            <DistanceMeters>NAN</DistanceMeters>
          </Trackpoint>
          <Trackpoint>
            <Time>2022-09-20T13:18:43.000Z</Time>
            <Position>
              <LatitudeDegrees>49.41817718558013439178466796875</LatitudeDegrees>
              <LongitudeDegrees>20.3181227110326290130615234375</LongitudeDegrees>
            </Position>
            <AltitudeMeters>515.5999755859375</AltitudeMeters>
            <DistanceMeters>NAN</DistanceMeters>
          </Trackpoint>
          <Trackpoint>
            <Time>2022-09-20T13:18:51.000Z</Time>
            <Position>
              <LatitudeDegrees>49.4180882535874843597412109375</LatitudeDegrees>
              <LongitudeDegrees>20.31779724173247814178466796875</LongitudeDegrees>
            </Position>
            <AltitudeMeters>515.20001220703125</AltitudeMeters>
            <DistanceMeters>NAN</DistanceMeters>
          </Trackpoint>
          <Trackpoint>
            <Time>2022-09-20T13:18:54.000Z</Time>
            <Position>
              <LatitudeDegrees>49.41803938709199428558349609375</LatitudeDegrees>
              <LongitudeDegrees>20.3176367282867431640625</LongitudeDegrees>
            </Position>
            <AltitudeMeters>514.79998779296875</AltitudeMeters>
            <DistanceMeters>NAN</DistanceMeters>
          </Trackpoint>
          <Trackpoint>
            <Time>2022-09-20T13:18:58.000Z</Time>
            <Position>
              <LatitudeDegrees>49.41797585226595401763916015625</LatitudeDegrees>
              <LongitudeDegrees>20.3174075670540332794189453125</LongitudeDegrees>
            </Position>
            <AltitudeMeters>514.20001220703125</AltitudeMeters>
            <DistanceMeters>NAN</DistanceMeters>
          </Trackpoint>
          <Trackpoint>
            <Time>2022-09-20T13:18:59.000Z</Time>
            <Position>
              <LatitudeDegrees>49.41796160303056240081787109375</LatitudeDegrees>
              <LongitudeDegrees>20.31734897755086421966552734375</LongitudeDegrees>
            </Position>
            <AltitudeMeters>513.79998779296875</AltitudeMeters>
            <DistanceMeters>NAN</DistanceMeters>
          </Trackpoint>
          <Trackpoint>
            <Time>2022-09-20T13:19:07.000Z</Time>
            <Position>
              <LatitudeDegrees>49.41785112954676151275634765625</LatitudeDegrees>
              <LongitudeDegrees>20.31692720018327236175537109375</LongitudeDegrees>
            </Position>
            <AltitudeMeters>512.79998779296875</AltitudeMeters>
            <DistanceMeters>NAN</DistanceMeters>
          </Trackpoint>
          <Trackpoint>
            <Time>2022-09-20T13:19:13.000Z</Time>
            <Position>
              <LatitudeDegrees>49.4177660532295703887939453125</LatitudeDegrees>
              <LongitudeDegrees>20.31663852743804454803466796875</LongitudeDegrees>
            </Position>
            <AltitudeMeters>511.79998779296875</AltitudeMeters>
            <DistanceMeters>NAN</DistanceMeters>
          </Trackpoint>
          <Trackpoint>
            <Time>2022-09-20T13:19:14.000Z</Time>
            <Position>
              <LatitudeDegrees>49.4177506305277347564697265625</LatitudeDegrees>
              <LongitudeDegrees>20.316590331494808197021484375</LongitudeDegrees>
            </Position>
            <AltitudeMeters>511.600006103515625</AltitudeMeters>
            <DistanceMeters>NAN</DistanceMeters>
          </Trackpoint>
          <Trackpoint>
            <Time>2022-09-20T13:19:21.000Z</Time>
            <Position>
              <LatitudeDegrees>49.41765549592673778533935546875</LatitudeDegrees>
              <LongitudeDegrees>20.31627349555492401123046875</LongitudeDegrees>
            </Position>
            <AltitudeMeters>510.600006103515625</AltitudeMeters>
            <DistanceMeters>NAN</DistanceMeters>
          </Trackpoint>
          <Trackpoint>
            <Time>2022-09-20T13:19:24.000Z</Time>
            <Position>
              <LatitudeDegrees>49.417622052133083343505859375</LatitudeDegrees>
              <LongitudeDegrees>20.316125638782978057861328125</LongitudeDegrees>
            </Position>
            <AltitudeMeters>510.20001220703125</AltitudeMeters>
            <DistanceMeters>NAN</DistanceMeters>
          </Trackpoint>
          <Trackpoint>
            <Time>2022-09-20T13:19:29.000Z</Time>
            <Position>
              <LatitudeDegrees>49.41756480373442173004150390625</LatitudeDegrees>
              <LongitudeDegrees>20.3159098885953426361083984375</LongitudeDegrees>
            </Position>
            <AltitudeMeters>509.79998779296875</AltitudeMeters>
            <DistanceMeters>NAN</DistanceMeters>
          </Trackpoint>
          <Trackpoint>
            <Time>2022-09-20T13:19:32.000Z</Time>
            <Position>
              <LatitudeDegrees>49.41753529943525791168212890625</LatitudeDegrees>
              <LongitudeDegrees>20.3157846629619598388671875</LongitudeDegrees>
            </Position>
            <AltitudeMeters>509.600006103515625</AltitudeMeters>
            <DistanceMeters>NAN</DistanceMeters>
          </Trackpoint>
          <Trackpoint>
            <Time>2022-09-20T13:19:33.000Z</Time>
            <Position>
              <LatitudeDegrees>49.4175273366272449493408203125</LatitudeDegrees>
              <LongitudeDegrees>20.3157543204724788665771484375</LongitudeDegrees>
            </Position>
            <AltitudeMeters>509.399993896484375</AltitudeMeters>
            <DistanceMeters>NAN</DistanceMeters>
          </Trackpoint>
          <Trackpoint>
            <Time>2022-09-20T13:19:42.000Z</Time>
            <Position>
              <LatitudeDegrees>49.4174535758793354034423828125</LatitudeDegrees>
              <LongitudeDegrees>20.3154059685766696929931640625</LongitudeDegrees>
            </Position>
            <AltitudeMeters>508.399993896484375</AltitudeMeters>
            <DistanceMeters>NAN</DistanceMeters>
          </Trackpoint>
          <Trackpoint>
            <Time>2022-09-20T13:19:50.000Z</Time>
            <Position>
              <LatitudeDegrees>49.41743337549269199371337890625</LatitudeDegrees>
              <LongitudeDegrees>20.31515476293861865997314453125</LongitudeDegrees>
            </Position>
            <AltitudeMeters>507.399993896484375</AltitudeMeters>
            <DistanceMeters>NAN</DistanceMeters>
          </Trackpoint>
          <Trackpoint>
            <Time>2022-09-20T13:19:52.000Z</Time>
            <Position>
              <LatitudeDegrees>49.41743555478751659393310546875</LatitudeDegrees>
              <LongitudeDegrees>20.31511654146015644073486328125</LongitudeDegrees>
            </Position>
            <AltitudeMeters>507.20001220703125</AltitudeMeters>
            <DistanceMeters>NAN</DistanceMeters>
          </Trackpoint>
          <Trackpoint>
            <Time>2022-09-20T13:19:54.000Z</Time>
            <Position>
              <LatitudeDegrees>49.41742968745529651641845703125</LatitudeDegrees>
              <LongitudeDegrees>20.3151065669953823089599609375</LongitudeDegrees>
            </Position>
            <AltitudeMeters>507</AltitudeMeters>
            <DistanceMeters>NAN</DistanceMeters>
          </Trackpoint>
          <Trackpoint>
            <Time>2022-09-20T13:19:56.000Z</Time>
            <Position>
              <LatitudeDegrees>49.41742750816047191619873046875</LatitudeDegrees>
              <LongitudeDegrees>20.31509961001574993133544921875</LongitudeDegrees>
            </Position>
            <AltitudeMeters>507</AltitudeMeters>
            <DistanceMeters>NAN</DistanceMeters>
          </Trackpoint>
          <Trackpoint>
            <Time>2022-09-20T13:19:59.000Z</Time>
            <Position>
              <LatitudeDegrees>49.41742482595145702362060546875</LatitudeDegrees>
              <LongitudeDegrees>20.3150832653045654296875</LongitudeDegrees>
            </Position>
            <AltitudeMeters>507</AltitudeMeters>
            <DistanceMeters>NAN</DistanceMeters>
          </Trackpoint>
          <Trackpoint>
            <Time>2022-09-20T13:20:05.000Z</Time>
            <Position>
              <LatitudeDegrees>49.41738777793943881988525390625</LatitudeDegrees>
              <LongitudeDegrees>20.31507764942944049835205078125</LongitudeDegrees>
            </Position>
            <AltitudeMeters>506.79998779296875</AltitudeMeters>
            <DistanceMeters>NAN</DistanceMeters>
          </Trackpoint>
          <Trackpoint>
            <Time>2022-09-20T13:20:07.000Z</Time>
            <Position>
              <LatitudeDegrees>49.41735592670738697052001953125</LatitudeDegrees>
              <LongitudeDegrees>20.3150552697479724884033203125</LongitudeDegrees>
            </Position>
            <AltitudeMeters>506.600006103515625</AltitudeMeters>
            <DistanceMeters>NAN</DistanceMeters>
          </Trackpoint>
          <Trackpoint>
            <Time>2022-09-20T13:20:10.000Z</Time>
            <Position>
              <LatitudeDegrees>49.41734016872942447662353515625</LatitudeDegrees>
              <LongitudeDegrees>20.31496214680373668670654296875</LongitudeDegrees>
            </Position>
            <AltitudeMeters>506.600006103515625</AltitudeMeters>
            <DistanceMeters>NAN</DistanceMeters>
          </Trackpoint>
          <Trackpoint>
            <Time>2022-09-20T13:20:13.000Z</Time>
            <Position>
              <LatitudeDegrees>49.417320974171161651611328125</LatitudeDegrees>
              <LongitudeDegrees>20.31483725644648075103759765625</LongitudeDegrees>
            </Position>
            <AltitudeMeters>506.399993896484375</AltitudeMeters>
            <DistanceMeters>NAN</DistanceMeters>
          </Trackpoint>
          <Trackpoint>
            <Time>2022-09-20T13:20:14.000Z</Time>
            <Position>
              <LatitudeDegrees>49.41731401719152927398681640625</LatitudeDegrees>
              <LongitudeDegrees>20.31478730030357837677001953125</LongitudeDegrees>
            </Position>
            <AltitudeMeters>506.20001220703125</AltitudeMeters>
            <DistanceMeters>NAN</DistanceMeters>
          </Trackpoint>
          <Trackpoint>
            <Time>2022-09-20T13:20:16.000Z</Time>
            <Position>
              <LatitudeDegrees>49.41729557700455188751220703125</LatitudeDegrees>
              <LongitudeDegrees>20.31467615626752376556396484375</LongitudeDegrees>
            </Position>
            <AltitudeMeters>505.79998779296875</AltitudeMeters>
            <DistanceMeters>NAN</DistanceMeters>
          </Trackpoint>
          <Trackpoint>
            <Time>2022-09-20T13:20:22.000Z</Time>
            <Position>
              <LatitudeDegrees>49.41722449846565723419189453125</LatitudeDegrees>
              <LongitudeDegrees>20.31429545022547245025634765625</LongitudeDegrees>
            </Position>
            <AltitudeMeters>505</AltitudeMeters>
            <DistanceMeters>NAN</DistanceMeters>
          </Trackpoint>
          <Trackpoint>
            <Time>2022-09-20T13:20:24.000Z</Time>
            <Position>
              <LatitudeDegrees>49.41719264723360538482666015625</LatitudeDegrees>
              <LongitudeDegrees>20.31416318379342555999755859375</LongitudeDegrees>
            </Position>
            <AltitudeMeters>504.600006103515625</AltitudeMeters>
            <DistanceMeters>NAN</DistanceMeters>
          </Trackpoint>
          <Trackpoint>
            <Time>2022-09-20T13:20:25.000Z</Time>
            <Position>
              <LatitudeDegrees>49.41717445850372314453125</LatitudeDegrees>
              <LongitudeDegrees>20.31409663148224353790283203125</LongitudeDegrees>
            </Position>
            <AltitudeMeters>504.600006103515625</AltitudeMeters>
            <DistanceMeters>NAN</DistanceMeters>
          </Trackpoint>
          <Trackpoint>
            <Time>2022-09-20T13:20:27.000Z</Time>
            <Position>
              <LatitudeDegrees>49.4171136058866977691650390625</LatitudeDegrees>
              <LongitudeDegrees>20.31398029066622257232666015625</LongitudeDegrees>
            </Position>
            <AltitudeMeters>504.20001220703125</AltitudeMeters>
            <DistanceMeters>NAN</DistanceMeters>
          </Trackpoint>
          <Trackpoint>
            <Time>2022-09-20T13:20:28.000Z</Time>
            <Position>
              <LatitudeDegrees>49.417069517076015472412109375</LatitudeDegrees>
              <LongitudeDegrees>20.31393863260746002197265625</LongitudeDegrees>
            </Position>
            <AltitudeMeters>503.79998779296875</AltitudeMeters>
            <DistanceMeters>NAN</DistanceMeters>
          </Trackpoint>
          <Trackpoint>
            <Time>2022-09-20T13:20:29.000Z</Time>
            <Position>
              <LatitudeDegrees>49.41701796837151050567626953125</LatitudeDegrees>
              <LongitudeDegrees>20.31390770338475704193115234375</LongitudeDegrees>
            </Position>
            <AltitudeMeters>503.600006103515625</AltitudeMeters>
            <DistanceMeters>NAN</DistanceMeters>
          </Trackpoint>
          <Trackpoint>
            <Time>2022-09-20T13:20:31.000Z</Time>
            <Position>
              <LatitudeDegrees>49.41691034473478794097900390625</LatitudeDegrees>
              <LongitudeDegrees>20.31388104893267154693603515625</LongitudeDegrees>
            </Position>
            <AltitudeMeters>503</AltitudeMeters>
            <DistanceMeters>NAN</DistanceMeters>
          </Trackpoint>
          <Trackpoint>
            <Time>2022-09-20T13:20:32.000Z</Time>
            <Position>
              <LatitudeDegrees>49.41685670055449008941650390625</LatitudeDegrees>
              <LongitudeDegrees>20.31388909555971622467041015625</LongitudeDegrees>
            </Position>
            <AltitudeMeters>502.79998779296875</AltitudeMeters>
            <DistanceMeters>NAN</DistanceMeters>
          </Trackpoint>
          <Trackpoint>
            <Time>2022-09-20T13:20:33.000Z</Time>
            <Position>
              <LatitudeDegrees>49.4168061576783657073974609375</LatitudeDegrees>
              <LongitudeDegrees>20.31391021795570850372314453125</LongitudeDegrees>
            </Position>
            <AltitudeMeters>502.79998779296875</AltitudeMeters>
            <DistanceMeters>NAN</DistanceMeters>
          </Trackpoint>
          <Trackpoint>
            <Time>2022-09-20T13:20:35.000Z</Time>
            <Position>
              <LatitudeDegrees>49.41670968197286128997802734375</LatitudeDegrees>
              <LongitudeDegrees>20.3140149079263210296630859375</LongitudeDegrees>
            </Position>
            <AltitudeMeters>502.20001220703125</AltitudeMeters>
            <DistanceMeters>NAN</DistanceMeters>
          </Trackpoint>
          <Trackpoint>
            <Time>2022-09-20T13:20:37.000Z</Time>
            <Position>
              <LatitudeDegrees>49.416646063327789306640625</LatitudeDegrees>
              <LongitudeDegrees>20.31415647827088832855224609375</LongitudeDegrees>
            </Position>
            <AltitudeMeters>501.79998779296875</AltitudeMeters>
            <DistanceMeters>NAN</DistanceMeters>
          </Trackpoint>
          <Trackpoint>
            <Time>2022-09-20T13:20:39.000Z</Time>
            <Position>
              <LatitudeDegrees>49.4166173972189426422119140625</LatitudeDegrees>
              <LongitudeDegrees>20.3143391199409961700439453125</LongitudeDegrees>
            </Position>
            <AltitudeMeters>501.399993896484375</AltitudeMeters>
            <DistanceMeters>NAN</DistanceMeters>
          </Trackpoint>
          <Trackpoint>
            <Time>2022-09-20T13:20:42.000Z</Time>
            <Position>
              <LatitudeDegrees>49.4165962748229503631591796875</LatitudeDegrees>
              <LongitudeDegrees>20.3146351687610149383544921875</LongitudeDegrees>
            </Position>
            <AltitudeMeters>500.399993896484375</AltitudeMeters>
            <DistanceMeters>NAN</DistanceMeters>
          </Trackpoint>
          <Trackpoint>
            <Time>2022-09-20T13:20:43.000Z</Time>
            <Position>
              <LatitudeDegrees>49.41658663563430309295654296875</LatitudeDegrees>
              <LongitudeDegrees>20.31473499722778797149658203125</LongitudeDegrees>
            </Position>
            <AltitudeMeters>500</AltitudeMeters>
            <DistanceMeters>NAN</DistanceMeters>
          </Trackpoint>
          <Trackpoint>
            <Time>2022-09-20T13:20:45.000Z</Time>
            <Position>
              <LatitudeDegrees>49.41657071001827716827392578125</LatitudeDegrees>
              <LongitudeDegrees>20.314943790435791015625</LongitudeDegrees>
            </Position>
            <AltitudeMeters>499.600006103515625</AltitudeMeters>
            <DistanceMeters>NAN</DistanceMeters>
          </Trackpoint>
          <Trackpoint>
            <Time>2022-09-20T13:20:47.000Z</Time>
            <Position>
              <LatitudeDegrees>49.41655822098255157470703125</LatitudeDegrees>
              <LongitudeDegrees>20.3151555173099040985107421875</LongitudeDegrees>
            </Position>
            <AltitudeMeters>499.20001220703125</AltitudeMeters>
            <DistanceMeters>NAN</DistanceMeters>
          </Trackpoint>
          <Trackpoint>
            <Time>2022-09-20T13:20:51.000Z</Time>
            <Position>
              <LatitudeDegrees>49.4165298901498317718505859375</LatitudeDegrees>
              <LongitudeDegrees>20.31558156944811344146728515625</LongitudeDegrees>
            </Position>
            <AltitudeMeters>498.399993896484375</AltitudeMeters>
            <DistanceMeters>NAN</DistanceMeters>
          </Trackpoint>
          <Trackpoint>
            <Time>2022-09-20T13:20:52.000Z</Time>
            <Position>
              <LatitudeDegrees>49.4165238551795482635498046875</LatitudeDegrees>
              <LongitudeDegrees>20.31568030826747417449951171875</LongitudeDegrees>
            </Position>
            <AltitudeMeters>498.20001220703125</AltitudeMeters>
            <DistanceMeters>NAN</DistanceMeters>
          </Trackpoint>
          <Trackpoint>
            <Time>2022-09-20T13:20:54.000Z</Time>
            <Position>
              <LatitudeDegrees>49.416511617600917816162109375</LatitudeDegrees>
              <LongitudeDegrees>20.315861441195011138916015625</LongitudeDegrees>
            </Position>
            <AltitudeMeters>497.600006103515625</AltitudeMeters>
            <DistanceMeters>NAN</DistanceMeters>
          </Trackpoint>
          <Trackpoint>
            <Time>2022-09-20T13:20:58.000Z</Time>
            <Position>
              <LatitudeDegrees>49.41648303531110286712646484375</LatitudeDegrees>
              <LongitudeDegrees>20.31617425382137298583984375</LongitudeDegrees>
            </Position>
            <AltitudeMeters>497.20001220703125</AltitudeMeters>
            <DistanceMeters>NAN</DistanceMeters>
          </Trackpoint>
          <Trackpoint>
            <Time>2022-09-20T13:21:00.000Z</Time>
            <Position>
              <LatitudeDegrees>49.416477419435977935791015625</LatitudeDegrees>
              <LongitudeDegrees>20.3163061849772930145263671875</LongitudeDegrees>
            </Position>
            <AltitudeMeters>496.600006103515625</AltitudeMeters>
            <DistanceMeters>NAN</DistanceMeters>
          </Trackpoint>
          <Trackpoint>
            <Time>2022-09-20T13:21:03.000Z</Time>
            <Position>
              <LatitudeDegrees>49.4164614938199520111083984375</LatitudeDegrees>
              <LongitudeDegrees>20.31653291545808315277099609375</LongitudeDegrees>
            </Position>
            <AltitudeMeters>496</AltitudeMeters>
            <DistanceMeters>NAN</DistanceMeters>
          </Trackpoint>
          <Trackpoint>
            <Time>2022-09-20T13:21:06.000Z</Time>
            <Position>
              <LatitudeDegrees>49.416430480778217315673828125</LatitudeDegrees>
              <LongitudeDegrees>20.316696278750896453857421875</LongitudeDegrees>
            </Position>
            <AltitudeMeters>495</AltitudeMeters>
            <DistanceMeters>NAN</DistanceMeters>
          </Trackpoint>
          <Trackpoint>
            <Time>2022-09-20T13:21:07.000Z</Time>
            <Position>
              <LatitudeDegrees>49.4164180755615234375</LatitudeDegrees>
              <LongitudeDegrees>20.31675017438828945159912109375</LongitudeDegrees>
            </Position>
            <AltitudeMeters>494.600006103515625</AltitudeMeters>
            <DistanceMeters>NAN</DistanceMeters>
          </Trackpoint>
          <Trackpoint>
            <Time>2022-09-20T13:21:10.000Z</Time>
            <Position>
              <LatitudeDegrees>49.41640843637287616729736328125</LatitudeDegrees>
              <LongitudeDegrees>20.31688981689512729644775390625</LongitudeDegrees>
            </Position>
            <AltitudeMeters>493.79998779296875</AltitudeMeters>
            <DistanceMeters>NAN</DistanceMeters>
          </Trackpoint>
          <Trackpoint>
            <Time>2022-09-20T13:21:11.000Z</Time>
            <Position>
              <LatitudeDegrees>49.41640994511544704437255859375</LatitudeDegrees>
              <LongitudeDegrees>20.31695167534053325653076171875</LongitudeDegrees>
            </Position>
            <AltitudeMeters>493.79998779296875</AltitudeMeters>
            <DistanceMeters>NAN</DistanceMeters>
          </Trackpoint>
          <Trackpoint>
            <Time>2022-09-20T13:21:13.000Z</Time>
            <Position>
              <LatitudeDegrees>49.4164148904383182525634765625</LatitudeDegrees>
              <LongitudeDegrees>20.31706348992884159088134765625</LongitudeDegrees>
            </Position>
            <AltitudeMeters>493.20001220703125</AltitudeMeters>
            <DistanceMeters>NAN</DistanceMeters>
          </Trackpoint>
          <Trackpoint>
            <Time>2022-09-20T13:21:16.000Z</Time>
            <Position>
              <LatitudeDegrees>49.41641363315284252166748046875</LatitudeDegrees>
              <LongitudeDegrees>20.31723548658192157745361328125</LongitudeDegrees>
            </Position>
            <AltitudeMeters>492.399993896484375</AltitudeMeters>
            <DistanceMeters>NAN</DistanceMeters>
          </Trackpoint>
          <Trackpoint>
            <Time>2022-09-20T13:21:18.000Z</Time>
            <Position>
              <LatitudeDegrees>49.41640877164900302886962890625</LatitudeDegrees>
              <LongitudeDegrees>20.31738149933516979217529296875</LongitudeDegrees>
            </Position>
            <AltitudeMeters>492</AltitudeMeters>
            <DistanceMeters>NAN</DistanceMeters>
          </Trackpoint>
          <Trackpoint>
            <Time>2022-09-20T13:21:19.000Z</Time>
            <Position>
              <LatitudeDegrees>49.41640399396419525146484375</LatitudeDegrees>
              <LongitudeDegrees>20.31745123676955699920654296875</LongitudeDegrees>
            </Position>
            <AltitudeMeters>492</AltitudeMeters>
            <DistanceMeters>NAN</DistanceMeters>
          </Trackpoint>
          <Trackpoint>
            <Time>2022-09-20T13:21:20.000Z</Time>
            <Position>
              <LatitudeDegrees>49.4164004735648632049560546875</LatitudeDegrees>
              <LongitudeDegrees>20.31750773079693317413330078125</LongitudeDegrees>
            </Position>
            <AltitudeMeters>491.399993896484375</AltitudeMeters>
            <DistanceMeters>NAN</DistanceMeters>
          </Trackpoint>
          <Trackpoint>
            <Time>2022-09-20T13:21:22.000Z</Time>
            <Position>
              <LatitudeDegrees>49.4163951091468334197998046875</LatitudeDegrees>
              <LongitudeDegrees>20.3176664002239704132080078125</LongitudeDegrees>
            </Position>
            <AltitudeMeters>490.79998779296875</AltitudeMeters>
            <DistanceMeters>NAN</DistanceMeters>
          </Trackpoint>
          <Trackpoint>
            <Time>2022-09-20T13:21:25.000Z</Time>
            <Position>
              <LatitudeDegrees>49.41639636643230915069580078125</LatitudeDegrees>
              <LongitudeDegrees>20.3178900294005870819091796875</LongitudeDegrees>
            </Position>
            <AltitudeMeters>489.399993896484375</AltitudeMeters>
            <DistanceMeters>NAN</DistanceMeters>
          </Trackpoint>
          <Trackpoint>
            <Time>2022-09-20T13:21:27.000Z</Time>
            <Position>
              <LatitudeDegrees>49.41639938391745090484619140625</LatitudeDegrees>
              <LongitudeDegrees>20.31803713180124759674072265625</LongitudeDegrees>
            </Position>
            <AltitudeMeters>488.399993896484375</AltitudeMeters>
            <DistanceMeters>NAN</DistanceMeters>
          </Trackpoint>
          <Trackpoint>
            <Time>2022-09-20T13:21:28.000Z</Time>
            <Position>
              <LatitudeDegrees>49.41640139557421207427978515625</LatitudeDegrees>
              <LongitudeDegrees>20.3181103058159351348876953125</LongitudeDegrees>
            </Position>
            <AltitudeMeters>488.20001220703125</AltitudeMeters>
            <DistanceMeters>NAN</DistanceMeters>
          </Trackpoint>
          <Trackpoint>
            <Time>2022-09-20T13:21:31.000Z</Time>
            <Position>
              <LatitudeDegrees>49.41641069948673248291015625</LatitudeDegrees>
              <LongitudeDegrees>20.31831893138587474822998046875</LongitudeDegrees>
            </Position>
            <AltitudeMeters>487</AltitudeMeters>
            <DistanceMeters>NAN</DistanceMeters>
          </Trackpoint>
          <Trackpoint>
            <Time>2022-09-20T13:21:33.000Z</Time>
            <Position>
              <LatitudeDegrees>49.4164060056209564208984375</LatitudeDegrees>
              <LongitudeDegrees>20.3184522874653339385986328125</LongitudeDegrees>
            </Position>
            <AltitudeMeters>486.20001220703125</AltitudeMeters>
            <DistanceMeters>NAN</DistanceMeters>
          </Trackpoint>
          <Trackpoint>
            <Time>2022-09-20T13:21:34.000Z</Time>
            <Position>
              <LatitudeDegrees>49.4164060056209564208984375</LatitudeDegrees>
              <LongitudeDegrees>20.3184522874653339385986328125</LongitudeDegrees>
            </Position>
            <AltitudeMeters>485.600006103515625</AltitudeMeters>
            <DistanceMeters>NAN</DistanceMeters>
          </Trackpoint>
          <Trackpoint>
            <Time>2022-09-20T13:21:37.000Z</Time>
            <Position>
              <LatitudeDegrees>49.41641882993280887603759765625</LatitudeDegrees>
              <LongitudeDegrees>20.3187127970159053802490234375</LongitudeDegrees>
            </Position>
            <AltitudeMeters>484.399993896484375</AltitudeMeters>
            <DistanceMeters>NAN</DistanceMeters>
          </Trackpoint>
          <Trackpoint>
            <Time>2022-09-20T13:21:38.000Z</Time>
            <Position>
              <LatitudeDegrees>49.41642218269407749176025390625</LatitudeDegrees>
              <LongitudeDegrees>20.3187808580696582794189453125</LongitudeDegrees>
            </Position>
            <AltitudeMeters>484</AltitudeMeters>
            <DistanceMeters>NAN</DistanceMeters>
          </Trackpoint>
          <Trackpoint>
            <Time>2022-09-20T13:21:40.000Z</Time>
            <Position>
              <LatitudeDegrees>49.4164132140576839447021484375</LatitudeDegrees>
              <LongitudeDegrees>20.31892728991806507110595703125</LongitudeDegrees>
            </Position>
            <AltitudeMeters>483.20001220703125</AltitudeMeters>
            <DistanceMeters>NAN</DistanceMeters>
          </Trackpoint>
          <Trackpoint>
            <Time>2022-09-20T13:21:41.000Z</Time>
            <Position>
              <LatitudeDegrees>49.416403658688068389892578125</LatitudeDegrees>
              <LongitudeDegrees>20.31898629851639270782470703125</LongitudeDegrees>
            </Position>
            <AltitudeMeters>483</AltitudeMeters>
            <DistanceMeters>NAN</DistanceMeters>
          </Trackpoint>
          <Trackpoint>
            <Time>2022-09-20T13:21:44.000Z</Time>
            <Position>
              <LatitudeDegrees>49.4163263775408267974853515625</LatitudeDegrees>
              <LongitudeDegrees>20.31913407146930694580078125</LongitudeDegrees>
            </Position>
            <AltitudeMeters>482</AltitudeMeters>
            <DistanceMeters>NAN</DistanceMeters>
          </Trackpoint>
          <Trackpoint>
            <Time>2022-09-20T13:21:46.000Z</Time>
            <Position>
              <LatitudeDegrees>49.4163126312196254730224609375</LatitudeDegrees>
              <LongitudeDegrees>20.31920506618916988372802734375</LongitudeDegrees>
            </Position>
            <AltitudeMeters>481.399993896484375</AltitudeMeters>
            <DistanceMeters>NAN</DistanceMeters>
          </Trackpoint>
          <Trackpoint>
            <Time>2022-09-20T13:21:48.000Z</Time>
            <Position>
              <LatitudeDegrees>49.41629880107939243316650390625</LatitudeDegrees>
              <LongitudeDegrees>20.31926147639751434326171875</LongitudeDegrees>
            </Position>
            <AltitudeMeters>481</AltitudeMeters>
            <DistanceMeters>NAN</DistanceMeters>
          </Trackpoint>
          <Trackpoint>
            <Time>2022-09-20T13:21:49.000Z</Time>
            <Position>
              <LatitudeDegrees>49.416290335357189178466796875</LatitudeDegrees>
              <LongitudeDegrees>20.3192928247153759002685546875</LongitudeDegrees>
            </Position>
            <AltitudeMeters>480.79998779296875</AltitudeMeters>
            <DistanceMeters>NAN</DistanceMeters>
          </Trackpoint>
          <Trackpoint>
            <Time>2022-09-20T13:21:52.000Z</Time>
            <Position>
              <LatitudeDegrees>49.41625119186937808990478515625</LatitudeDegrees>
              <LongitudeDegrees>20.3193860314786434173583984375</LongitudeDegrees>
            </Position>
            <AltitudeMeters>480.399993896484375</AltitudeMeters>
            <DistanceMeters>NAN</DistanceMeters>
          </Trackpoint>
          <Trackpoint>
            <Time>2022-09-20T13:21:55.000Z</Time>
            <Position>
              <LatitudeDegrees>49.4162167422473430633544921875</LatitudeDegrees>
              <LongitudeDegrees>20.31945769675076007843017578125</LongitudeDegrees>
            </Position>
            <AltitudeMeters>479.79998779296875</AltitudeMeters>
            <DistanceMeters>NAN</DistanceMeters>
          </Trackpoint>
          <Trackpoint>
            <Time>2022-09-20T13:22:00.000Z</Time>
            <Position>
              <LatitudeDegrees>49.41611574031412601470947265625</LatitudeDegrees>
              <LongitudeDegrees>20.31960438005626201629638671875</LongitudeDegrees>
            </Position>
            <AltitudeMeters>478.600006103515625</AltitudeMeters>
            <DistanceMeters>NAN</DistanceMeters>
          </Trackpoint>
          <Trackpoint>
            <Time>2022-09-20T13:22:06.000Z</Time>
            <Position>
              <LatitudeDegrees>49.41599722020328044891357421875</LatitudeDegrees>
              <LongitudeDegrees>20.31973044387996196746826171875</LongitudeDegrees>
            </Position>
            <AltitudeMeters>477.399993896484375</AltitudeMeters>
            <DistanceMeters>NAN</DistanceMeters>
          </Trackpoint>
          <Trackpoint>
            <Time>2022-09-20T13:22:08.000Z</Time>
            <Position>
              <LatitudeDegrees>49.415957741439342498779296875</LatitudeDegrees>
              <LongitudeDegrees>20.31975709833204746246337890625</LongitudeDegrees>
            </Position>
            <AltitudeMeters>476.79998779296875</AltitudeMeters>
            <DistanceMeters>NAN</DistanceMeters>
          </Trackpoint>
          <Trackpoint>
            <Time>2022-09-20T13:22:09.000Z</Time>
            <Position>
              <LatitudeDegrees>49.41593687050044536590576171875</LatitudeDegrees>
              <LongitudeDegrees>20.319769084453582763671875</LongitudeDegrees>
            </Position>
            <AltitudeMeters>476.399993896484375</AltitudeMeters>
            <DistanceMeters>NAN</DistanceMeters>
          </Trackpoint>
          <Trackpoint>
            <Time>2022-09-20T13:22:14.000Z</Time>
            <Position>
              <LatitudeDegrees>49.41584534011781215667724609375</LatitudeDegrees>
              <LongitudeDegrees>20.31982071697711944580078125</LongitudeDegrees>
            </Position>
            <AltitudeMeters>475.79998779296875</AltitudeMeters>
            <DistanceMeters>NAN</DistanceMeters>
          </Trackpoint>
          <Trackpoint>
            <Time>2022-09-20T13:22:18.000Z</Time>
            <Position>
              <LatitudeDegrees>49.415772669017314910888671875</LatitudeDegrees>
              <LongitudeDegrees>20.319776125252246856689453125</LongitudeDegrees>
            </Position>
            <AltitudeMeters>475.600006103515625</AltitudeMeters>
            <DistanceMeters>NAN</DistanceMeters>
          </Trackpoint>
          <Trackpoint>
            <Time>2022-09-20T13:22:19.000Z</Time>
            <Position>
              <LatitudeDegrees>49.4157584197819232940673828125</LatitudeDegrees>
              <LongitudeDegrees>20.319754667580127716064453125</LongitudeDegrees>
            </Position>
            <AltitudeMeters>475.600006103515625</AltitudeMeters>
            <DistanceMeters>NAN</DistanceMeters>
          </Trackpoint>
          <Trackpoint>
            <Time>2022-09-20T13:22:20.000Z</Time>
            <Position>
              <LatitudeDegrees>49.41575028933584690093994140625</LatitudeDegrees>
              <LongitudeDegrees>20.319728516042232513427734375</LongitudeDegrees>
            </Position>
            <AltitudeMeters>475.600006103515625</AltitudeMeters>
            <DistanceMeters>NAN</DistanceMeters>
          </Trackpoint>
          <Trackpoint>
            <Time>2022-09-20T13:22:24.000Z</Time>
            <Position>
              <LatitudeDegrees>49.415742494165897369384765625</LatitudeDegrees>
              <LongitudeDegrees>20.31964461319148540496826171875</LongitudeDegrees>
            </Position>
            <AltitudeMeters>475.600006103515625</AltitudeMeters>
            <DistanceMeters>NAN</DistanceMeters>
          </Trackpoint>
          <Trackpoint>
            <Time>2022-09-20T13:22:26.000Z</Time>
            <Position>
              <LatitudeDegrees>49.41574173979461193084716796875</LatitudeDegrees>
              <LongitudeDegrees>20.31961209140717983245849609375</LongitudeDegrees>
            </Position>
            <AltitudeMeters>475.600006103515625</AltitudeMeters>
            <DistanceMeters>NAN</DistanceMeters>
          </Trackpoint>
          <Trackpoint>
            <Time>2022-09-20T13:22:29.000Z</Time>
            <Position>
              <LatitudeDegrees>49.41574073396623134613037109375</LatitudeDegrees>
              <LongitudeDegrees>20.31959448941051959991455078125</LongitudeDegrees>
            </Position>
            <AltitudeMeters>475.399993896484375</AltitudeMeters>
            <DistanceMeters>NAN</DistanceMeters>
          </Trackpoint>
          <Trackpoint>
            <Time>2022-09-20T13:22:30.000Z</Time>
            <Position>
              <LatitudeDegrees>49.41573553718626499176025390625</LatitudeDegrees>
              <LongitudeDegrees>20.31958359293639659881591796875</LongitudeDegrees>
            </Position>
            <AltitudeMeters>475.399993896484375</AltitudeMeters>
            <DistanceMeters>NAN</DistanceMeters>
          </Trackpoint>
          <Trackpoint>
            <Time>2022-09-20T13:22:34.000Z</Time>
            <Position>
              <LatitudeDegrees>49.41569195128977298736572265625</LatitudeDegrees>
              <LongitudeDegrees>20.3195134364068508148193359375</LongitudeDegrees>
            </Position>
            <AltitudeMeters>475.20001220703125</AltitudeMeters>
            <DistanceMeters>NAN</DistanceMeters>
          </Trackpoint>
          <Trackpoint>
            <Time>2022-09-20T13:22:36.000Z</Time>
            <Position>
              <LatitudeDegrees>49.415676780045032501220703125</LatitudeDegrees>
              <LongitudeDegrees>20.31947110779583454132080078125</LongitudeDegrees>
            </Position>
            <AltitudeMeters>475.20001220703125</AltitudeMeters>
            <DistanceMeters>NAN</DistanceMeters>
          </Trackpoint>
          <Trackpoint>
            <Time>2022-09-20T13:22:37.000Z</Time>
            <Position>
              <LatitudeDegrees>49.415681473910808563232421875</LatitudeDegrees>
              <LongitudeDegrees>20.31944026239216327667236328125</LongitudeDegrees>
            </Position>
            <AltitudeMeters>475.20001220703125</AltitudeMeters>
            <DistanceMeters>NAN</DistanceMeters>
          </Trackpoint>
          <Trackpoint>
            <Time>2022-09-20T13:22:42.000Z</Time>
            <Position>
              <LatitudeDegrees>49.41568574868142604827880859375</LatitudeDegrees>
              <LongitudeDegrees>20.31943489797413349151611328125</LongitudeDegrees>
            </Position>
            <AltitudeMeters>475.20001220703125</AltitudeMeters>
            <DistanceMeters>NAN</DistanceMeters>
          </Trackpoint>
          <Trackpoint>
            <Time>2022-09-20T13:22:52.000Z</Time>
            <Position>
              <LatitudeDegrees>49.41568574868142604827880859375</LatitudeDegrees>
              <LongitudeDegrees>20.31943489797413349151611328125</LongitudeDegrees>
            </Position>
            <AltitudeMeters>475.20001220703125</AltitudeMeters>
            <DistanceMeters>NAN</DistanceMeters>
          </Trackpoint>
          <Trackpoint>
            <Time>2022-09-20T13:22:54.000Z</Time>
            <Position>
              <LatitudeDegrees>49.41568574868142604827880859375</LatitudeDegrees>
              <LongitudeDegrees>20.31943489797413349151611328125</LongitudeDegrees>
            </Position>
            <AltitudeMeters>475.20001220703125</AltitudeMeters>
            <DistanceMeters>NAN</DistanceMeters>
          </Trackpoint>
          <Trackpoint>
            <Time>2022-09-20T13:23:07.000Z</Time>
            <Position>
              <LatitudeDegrees>49.41568574868142604827880859375</LatitudeDegrees>
              <LongitudeDegrees>20.31943489797413349151611328125</LongitudeDegrees>
            </Position>
            <AltitudeMeters>475.20001220703125</AltitudeMeters>
            <DistanceMeters>NAN</DistanceMeters>
          </Trackpoint>
          <Trackpoint>
            <Time>2022-09-20T13:23:26.000Z</Time>
            <Position>
              <LatitudeDegrees>49.41568574868142604827880859375</LatitudeDegrees>
              <LongitudeDegrees>20.31943489797413349151611328125</LongitudeDegrees>
            </Position>
            <AltitudeMeters>475.20001220703125</AltitudeMeters>
            <DistanceMeters>NAN</DistanceMeters>
          </Trackpoint>
          <Trackpoint>
            <Time>2022-09-20T13:23:56.000Z</Time>
            <Position>
              <LatitudeDegrees>49.41568574868142604827880859375</LatitudeDegrees>
              <LongitudeDegrees>20.31943489797413349151611328125</LongitudeDegrees>
            </Position>
            <AltitudeMeters>475.20001220703125</AltitudeMeters>
            <DistanceMeters>NAN</DistanceMeters>
          </Trackpoint>
          <Trackpoint>
            <Time>2022-09-20T13:23:59.000Z</Time>
            <Position>
              <LatitudeDegrees>49.41568574868142604827880859375</LatitudeDegrees>
              <LongitudeDegrees>20.31943489797413349151611328125</LongitudeDegrees>
            </Position>
            <AltitudeMeters>475.20001220703125</AltitudeMeters>
            <DistanceMeters>NAN</DistanceMeters>
          </Trackpoint>
          <Trackpoint>
            <Time>2022-09-20T13:24:03.000Z</Time>
            <Position>
              <LatitudeDegrees>49.41568574868142604827880859375</LatitudeDegrees>
              <LongitudeDegrees>20.31943489797413349151611328125</LongitudeDegrees>
            </Position>
            <AltitudeMeters>475.20001220703125</AltitudeMeters>
            <DistanceMeters>NAN</DistanceMeters>
          </Trackpoint>
          <Trackpoint>
            <Time>2022-09-20T13:24:09.000Z</Time>
            <Position>
              <LatitudeDegrees>49.41572162322700023651123046875</LatitudeDegrees>
              <LongitudeDegrees>20.31937957741320133209228515625</LongitudeDegrees>
            </Position>
            <AltitudeMeters>475.20001220703125</AltitudeMeters>
            <DistanceMeters>NAN</DistanceMeters>
          </Trackpoint>
          <Trackpoint>
            <Time>2022-09-20T13:24:14.000Z</Time>
            <Position>
              <LatitudeDegrees>49.41581198014318943023681640625</LatitudeDegrees>
              <LongitudeDegrees>20.3192006237804889678955078125</LongitudeDegrees>
            </Position>
            <AltitudeMeters>475.20001220703125</AltitudeMeters>
            <DistanceMeters>NAN</DistanceMeters>
          </Trackpoint>
          <Trackpoint>
            <Time>2022-09-20T13:24:16.000Z</Time>
            <Position>
              <LatitudeDegrees>49.4158486090600490570068359375</LatitudeDegrees>
              <LongitudeDegrees>20.3191191516816616058349609375</LongitudeDegrees>
            </Position>
            <AltitudeMeters>475.399993896484375</AltitudeMeters>
            <DistanceMeters>NAN</DistanceMeters>
          </Trackpoint>
          <Trackpoint>
            <Time>2022-09-20T13:24:20.000Z</Time>
            <Position>
              <LatitudeDegrees>49.4159071147441864013671875</LatitudeDegrees>
              <LongitudeDegrees>20.318947993218898773193359375</LongitudeDegrees>
            </Position>
            <AltitudeMeters>475.399993896484375</AltitudeMeters>
            <DistanceMeters>NAN</DistanceMeters>
          </Trackpoint>
          <Trackpoint>
            <Time>2022-09-20T13:24:27.000Z</Time>
            <Position>
              <LatitudeDegrees>49.41598095931112766265869140625</LatitudeDegrees>
              <LongitudeDegrees>20.3186081908643245697021484375</LongitudeDegrees>
            </Position>
            <AltitudeMeters>475.600006103515625</AltitudeMeters>
            <DistanceMeters>NAN</DistanceMeters>
          </Trackpoint>
          <Trackpoint>
            <Time>2022-09-20T13:24:32.000Z</Time>
            <Position>
              <LatitudeDegrees>49.416000656783580780029296875</LatitudeDegrees>
              <LongitudeDegrees>20.31842404045164585113525390625</LongitudeDegrees>
            </Position>
            <AltitudeMeters>476</AltitudeMeters>
            <DistanceMeters>NAN</DistanceMeters>
          </Trackpoint>
          <Trackpoint>
            <Time>2022-09-20T13:24:33.000Z</Time>
            <Position>
              <LatitudeDegrees>49.4160065241158008575439453125</LatitudeDegrees>
              <LongitudeDegrees>20.318392775952816009521484375</LongitudeDegrees>
            </Position>
            <AltitudeMeters>476.20001220703125</AltitudeMeters>
            <DistanceMeters>NAN</DistanceMeters>
          </Trackpoint>
          <Trackpoint>
            <Time>2022-09-20T13:24:37.000Z</Time>
            <Position>
              <LatitudeDegrees>49.4160197675228118896484375</LatitudeDegrees>
              <LongitudeDegrees>20.31826998107135295867919921875</LongitudeDegrees>
            </Position>
            <AltitudeMeters>476.399993896484375</AltitudeMeters>
            <DistanceMeters>NAN</DistanceMeters>
          </Trackpoint>
          <Trackpoint>
            <Time>2022-09-20T13:24:41.000Z</Time>
            <Position>
              <LatitudeDegrees>49.41602957434952259063720703125</LatitudeDegrees>
              <LongitudeDegrees>20.3181438334286212921142578125</LongitudeDegrees>
            </Position>
            <AltitudeMeters>476.600006103515625</AltitudeMeters>
            <DistanceMeters>NAN</DistanceMeters>
          </Trackpoint>
          <Trackpoint>
            <Time>2022-09-20T13:24:44.000Z</Time>
            <Position>
              <LatitudeDegrees>49.41603259183466434478759765625</LatitudeDegrees>
              <LongitudeDegrees>20.31806160695850849151611328125</LongitudeDegrees>
            </Position>
            <AltitudeMeters>476.79998779296875</AltitudeMeters>
            <DistanceMeters>NAN</DistanceMeters>
          </Trackpoint>
          <Trackpoint>
            <Time>2022-09-20T13:24:47.000Z</Time>
            <Position>
              <LatitudeDegrees>49.41602974198758602142333984375</LatitudeDegrees>
              <LongitudeDegrees>20.31799254007637500762939453125</LongitudeDegrees>
            </Position>
            <AltitudeMeters>477.20001220703125</AltitudeMeters>
            <DistanceMeters>NAN</DistanceMeters>
          </Trackpoint>
          <Trackpoint>
            <Time>2022-09-20T13:24:48.000Z</Time>
            <Position>
              <LatitudeDegrees>49.41602446138858795166015625</LatitudeDegrees>
              <LongitudeDegrees>20.3179706633090972900390625</LongitudeDegrees>
            </Position>
            <AltitudeMeters>477.20001220703125</AltitudeMeters>
            <DistanceMeters>NAN</DistanceMeters>
          </Trackpoint>
          <Trackpoint>
            <Time>2022-09-20T13:24:51.000Z</Time>
            <Position>
              <LatitudeDegrees>49.41599470563232898712158203125</LatitudeDegrees>
              <LongitudeDegrees>20.31789463944733142852783203125</LongitudeDegrees>
            </Position>
            <AltitudeMeters>477.399993896484375</AltitudeMeters>
            <DistanceMeters>NAN</DistanceMeters>
          </Trackpoint>
          <Trackpoint>
            <Time>2022-09-20T13:24:52.000Z</Time>
            <Position>
              <LatitudeDegrees>49.4159902632236480712890625</LatitudeDegrees>
              <LongitudeDegrees>20.31784652732312679290771484375</LongitudeDegrees>
            </Position>
            <AltitudeMeters>477.399993896484375</AltitudeMeters>
            <DistanceMeters>NAN</DistanceMeters>
          </Trackpoint>
          <Trackpoint>
            <Time>2022-09-20T13:24:57.000Z</Time>
            <Position>
              <LatitudeDegrees>49.41600576974451541900634765625</LatitudeDegrees>
              <LongitudeDegrees>20.317647121846675872802734375</LongitudeDegrees>
            </Position>
            <AltitudeMeters>476.600006103515625</AltitudeMeters>
            <DistanceMeters>NAN</DistanceMeters>
          </Trackpoint>
          <Trackpoint>
            <Time>2022-09-20T13:25:02.000Z</Time>
            <Position>
              <LatitudeDegrees>49.41604482941329479217529296875</LatitudeDegrees>
              <LongitudeDegrees>20.3175530768930912017822265625</LongitudeDegrees>
            </Position>
            <AltitudeMeters>477.20001220703125</AltitudeMeters>
            <DistanceMeters>NAN</DistanceMeters>
          </Trackpoint>
          <Trackpoint>
            <Time>2022-09-20T13:25:03.000Z</Time>
            <Position>
              <LatitudeDegrees>49.41604617051780223846435546875</LatitudeDegrees>
              <LongitudeDegrees>20.31752985902130603790283203125</LongitudeDegrees>
            </Position>
            <AltitudeMeters>477.20001220703125</AltitudeMeters>
            <DistanceMeters>NAN</DistanceMeters>
          </Trackpoint>
          <Trackpoint>
            <Time>2022-09-20T13:25:06.000Z</Time>
            <Position>
              <LatitudeDegrees>49.41605472005903720855712890625</LatitudeDegrees>
              <LongitudeDegrees>20.317441932857036590576171875</LongitudeDegrees>
            </Position>
            <AltitudeMeters>477.399993896484375</AltitudeMeters>
            <DistanceMeters>NAN</DistanceMeters>
          </Trackpoint>
          <Trackpoint>
            <Time>2022-09-20T13:25:10.000Z</Time>
            <Position>
              <LatitudeDegrees>49.41605136729776859283447265625</LatitudeDegrees>
              <LongitudeDegrees>20.3172804974019527435302734375</LongitudeDegrees>
            </Position>
            <AltitudeMeters>477.600006103515625</AltitudeMeters>
            <DistanceMeters>NAN</DistanceMeters>
          </Trackpoint>
          <Trackpoint>
            <Time>2022-09-20T13:25:18.000Z</Time>
            <Position>
              <LatitudeDegrees>49.4160601682960987091064453125</LatitudeDegrees>
              <LongitudeDegrees>20.31689953990280628204345703125</LongitudeDegrees>
            </Position>
            <AltitudeMeters>477.79998779296875</AltitudeMeters>
            <DistanceMeters>NAN</DistanceMeters>
          </Trackpoint>
          <Trackpoint>
            <Time>2022-09-20T13:25:26.000Z</Time>
            <Position>
              <LatitudeDegrees>49.41607399843633174896240234375</LatitudeDegrees>
              <LongitudeDegrees>20.31653593294322490692138671875</LongitudeDegrees>
            </Position>
            <AltitudeMeters>478.20001220703125</AltitudeMeters>
            <DistanceMeters>NAN</DistanceMeters>
          </Trackpoint>
          <Trackpoint>
            <Time>2022-09-20T13:25:28.000Z</Time>
            <Position>
              <LatitudeDegrees>49.4160782732069492340087890625</LatitudeDegrees>
              <LongitudeDegrees>20.3164418041706085205078125</LongitudeDegrees>
            </Position>
            <AltitudeMeters>478.20001220703125</AltitudeMeters>
            <DistanceMeters>NAN</DistanceMeters>
          </Trackpoint>
          <Trackpoint>
            <Time>2022-09-20T13:25:32.000Z</Time>
            <Position>
              <LatitudeDegrees>49.41608170978724956512451171875</LatitudeDegrees>
              <LongitudeDegrees>20.316249690949916839599609375</LongitudeDegrees>
            </Position>
            <AltitudeMeters>478.399993896484375</AltitudeMeters>
            <DistanceMeters>NAN</DistanceMeters>
          </Trackpoint>
          <Trackpoint>
            <Time>2022-09-20T13:25:36.000Z</Time>
            <Position>
              <LatitudeDegrees>49.4160514511168003082275390625</LatitudeDegrees>
              <LongitudeDegrees>20.31610242091119289398193359375</LongitudeDegrees>
            </Position>
            <AltitudeMeters>478.399993896484375</AltitudeMeters>
            <DistanceMeters>NAN</DistanceMeters>
          </Trackpoint>
          <Trackpoint>
            <Time>2022-09-20T13:25:38.000Z</Time>
            <Position>
              <LatitudeDegrees>49.416045248508453369140625</LatitudeDegrees>
              <LongitudeDegrees>20.3160195238888263702392578125</LongitudeDegrees>
            </Position>
            <AltitudeMeters>478.79998779296875</AltitudeMeters>
            <DistanceMeters>NAN</DistanceMeters>
          </Trackpoint>
          <Trackpoint>
            <Time>2022-09-20T13:25:45.000Z</Time>
            <Position>
              <LatitudeDegrees>49.41609310917556285858154296875</LatitudeDegrees>
              <LongitudeDegrees>20.3156762011349201202392578125</LongitudeDegrees>
            </Position>
            <AltitudeMeters>478.79998779296875</AltitudeMeters>
            <DistanceMeters>NAN</DistanceMeters>
          </Trackpoint>
          <Trackpoint>
            <Time>2022-09-20T13:25:51.000Z</Time>
            <Position>
              <LatitudeDegrees>49.41609545610845088958740234375</LatitudeDegrees>
              <LongitudeDegrees>20.31544997356832027435302734375</LongitudeDegrees>
            </Position>
            <AltitudeMeters>479.20001220703125</AltitudeMeters>
            <DistanceMeters>NAN</DistanceMeters>
          </Trackpoint>
          <Trackpoint>
            <Time>2022-09-20T13:25:56.000Z</Time>
            <Position>
              <LatitudeDegrees>49.416091851890087127685546875</LatitudeDegrees>
              <LongitudeDegrees>20.3153110854327678680419921875</LongitudeDegrees>
            </Position>
            <AltitudeMeters>479.20001220703125</AltitudeMeters>
            <DistanceMeters>NAN</DistanceMeters>
          </Trackpoint>
          <Trackpoint>
            <Time>2022-09-20T13:26:04.000Z</Time>
            <Position>
              <LatitudeDegrees>49.4160893373191356658935546875</LatitudeDegrees>
              <LongitudeDegrees>20.31506717205047607421875</LongitudeDegrees>
            </Position>
            <AltitudeMeters>479.399993896484375</AltitudeMeters>
            <DistanceMeters>NAN</DistanceMeters>
          </Trackpoint>
          <Trackpoint>
            <Time>2022-09-20T13:26:06.000Z</Time>
            <Position>
              <LatitudeDegrees>49.416095875203609466552734375</LatitudeDegrees>
              <LongitudeDegrees>20.31501780264079570770263671875</LongitudeDegrees>
            </Position>
            <AltitudeMeters>479.399993896484375</AltitudeMeters>
            <DistanceMeters>NAN</DistanceMeters>
          </Trackpoint>
          <Trackpoint>
            <Time>2022-09-20T13:26:07.000Z</Time>
            <Position>
              <LatitudeDegrees>49.41609679721295833587646484375</LatitudeDegrees>
              <LongitudeDegrees>20.3149959258735179901123046875</LongitudeDegrees>
            </Position>
            <AltitudeMeters>479.600006103515625</AltitudeMeters>
            <DistanceMeters>NAN</DistanceMeters>
          </Trackpoint>
          <Trackpoint>
            <Time>2022-09-20T13:26:13.000Z</Time>
            <Position>
              <LatitudeDegrees>49.41610333509743213653564453125</LatitudeDegrees>
              <LongitudeDegrees>20.31491638161242008209228515625</LongitudeDegrees>
            </Position>
            <AltitudeMeters>479.79998779296875</AltitudeMeters>
            <DistanceMeters>NAN</DistanceMeters>
          </Trackpoint>
          <Trackpoint>
            <Time>2022-09-20T13:26:20.000Z</Time>
            <Position>
              <LatitudeDegrees>49.41610333509743213653564453125</LatitudeDegrees>
              <LongitudeDegrees>20.31491638161242008209228515625</LongitudeDegrees>
            </Position>
            <AltitudeMeters>479.600006103515625</AltitudeMeters>
            <DistanceMeters>NAN</DistanceMeters>
          </Trackpoint>
          <Trackpoint>
            <Time>2022-09-20T13:26:28.000Z</Time>
            <Position>
              <LatitudeDegrees>49.4161094538867473602294921875</LatitudeDegrees>
              <LongitudeDegrees>20.3149121068418025970458984375</LongitudeDegrees>
            </Position>
            <AltitudeMeters>479.600006103515625</AltitudeMeters>
            <DistanceMeters>NAN</DistanceMeters>
          </Trackpoint>
          <Trackpoint>
            <Time>2022-09-20T13:26:38.000Z</Time>
            <Position>
              <LatitudeDegrees>49.416109956800937652587890625</LatitudeDegrees>
              <LongitudeDegrees>20.31491101719439029693603515625</LongitudeDegrees>
            </Position>
            <AltitudeMeters>479.79998779296875</AltitudeMeters>
            <DistanceMeters>NAN</DistanceMeters>
          </Trackpoint>
          <Trackpoint>
            <Time>2022-09-20T13:26:39.000Z</Time>
            <Position>
              <LatitudeDegrees>49.416109956800937652587890625</LatitudeDegrees>
              <LongitudeDegrees>20.31491101719439029693603515625</LongitudeDegrees>
            </Position>
            <AltitudeMeters>479.79998779296875</AltitudeMeters>
            <DistanceMeters>NAN</DistanceMeters>
          </Trackpoint>
          <Trackpoint>
            <Time>2022-09-20T13:26:41.000Z</Time>
            <Position>
              <LatitudeDegrees>49.4161148183047771453857421875</LatitudeDegrees>
              <LongitudeDegrees>20.31490565277636051177978515625</LongitudeDegrees>
            </Position>
            <AltitudeMeters>479.79998779296875</AltitudeMeters>
            <DistanceMeters>NAN</DistanceMeters>
          </Trackpoint>
          <Trackpoint>
            <Time>2022-09-20T13:26:42.000Z</Time>
            <Position>
              <LatitudeDegrees>49.416114985942840576171875</LatitudeDegrees>
              <LongitudeDegrees>20.31490548513829708099365234375</LongitudeDegrees>
            </Position>
            <AltitudeMeters>479.79998779296875</AltitudeMeters>
            <DistanceMeters>NAN</DistanceMeters>
          </Trackpoint>
          <Trackpoint>
            <Time>2022-09-20T13:26:50.000Z</Time>
            <Position>
              <LatitudeDegrees>49.4161198474466800689697265625</LatitudeDegrees>
              <LongitudeDegrees>20.3149050660431385040283203125</LongitudeDegrees>
            </Position>
            <AltitudeMeters>479.600006103515625</AltitudeMeters>
            <DistanceMeters>NAN</DistanceMeters>
          </Trackpoint>
          <Trackpoint>
            <Time>2022-09-20T13:26:58.000Z</Time>
            <Position>
              <LatitudeDegrees>49.41612160764634609222412109375</LatitudeDegrees>
              <LongitudeDegrees>20.314903557300567626953125</LongitudeDegrees>
            </Position>
            <AltitudeMeters>479.79998779296875</AltitudeMeters>
            <DistanceMeters>NAN</DistanceMeters>
          </Trackpoint>
          <Trackpoint>
            <Time>2022-09-20T13:27:02.000Z</Time>
            <Position>
              <LatitudeDegrees>49.41612227819859981536865234375</LatitudeDegrees>
              <LongitudeDegrees>20.31490716151893138885498046875</LongitudeDegrees>
            </Position>
            <AltitudeMeters>479.79998779296875</AltitudeMeters>
            <DistanceMeters>NAN</DistanceMeters>
          </Trackpoint>
          <Trackpoint>
            <Time>2022-09-20T13:27:05.000Z</Time>
            <Position>
              <LatitudeDegrees>49.4161238707602024078369140625</LatitudeDegrees>
              <LongitudeDegrees>20.31500321812927722930908203125</LongitudeDegrees>
            </Position>
            <AltitudeMeters>479.600006103515625</AltitudeMeters>
            <DistanceMeters>NAN</DistanceMeters>
          </Trackpoint>
          <Trackpoint>
            <Time>2022-09-20T13:27:10.000Z</Time>
            <Position>
              <LatitudeDegrees>49.41612093709409236907958984375</LatitudeDegrees>
              <LongitudeDegrees>20.31522785313427448272705078125</LongitudeDegrees>
            </Position>
            <AltitudeMeters>479.399993896484375</AltitudeMeters>
            <DistanceMeters>NAN</DistanceMeters>
          </Trackpoint>
          <Trackpoint>
            <Time>2022-09-20T13:27:16.000Z</Time>
            <Position>
              <LatitudeDegrees>49.41613200120627880096435546875</LatitudeDegrees>
              <LongitudeDegrees>20.31552088446915149688720703125</LongitudeDegrees>
            </Position>
            <AltitudeMeters>479.399993896484375</AltitudeMeters>
            <DistanceMeters>NAN</DistanceMeters>
          </Trackpoint>
          <Trackpoint>
            <Time>2022-09-20T13:27:21.000Z</Time>
            <Position>
              <LatitudeDegrees>49.41613669507205486297607421875</LatitudeDegrees>
              <LongitudeDegrees>20.31582162715494632720947265625</LongitudeDegrees>
            </Position>
            <AltitudeMeters>479.20001220703125</AltitudeMeters>
            <DistanceMeters>NAN</DistanceMeters>
          </Trackpoint>
          <Trackpoint>
            <Time>2022-09-20T13:27:23.000Z</Time>
            <Position>
              <LatitudeDegrees>49.416109621524810791015625</LatitudeDegrees>
              <LongitudeDegrees>20.315962694585323333740234375</LongitudeDegrees>
            </Position>
            <AltitudeMeters>479.20001220703125</AltitudeMeters>
            <DistanceMeters>NAN</DistanceMeters>
          </Trackpoint>
          <Trackpoint>
            <Time>2022-09-20T13:27:27.000Z</Time>
            <Position>
              <LatitudeDegrees>49.4161064364016056060791015625</LatitudeDegrees>
              <LongitudeDegrees>20.316206775605678558349609375</LongitudeDegrees>
            </Position>
            <AltitudeMeters>479</AltitudeMeters>
            <DistanceMeters>NAN</DistanceMeters>
          </Trackpoint>
          <Trackpoint>
            <Time>2022-09-20T13:27:29.000Z</Time>
            <Position>
              <LatitudeDegrees>49.41612236201763153076171875</LatitudeDegrees>
              <LongitudeDegrees>20.31632848083972930908203125</LongitudeDegrees>
            </Position>
            <AltitudeMeters>478.79998779296875</AltitudeMeters>
            <DistanceMeters>NAN</DistanceMeters>
          </Trackpoint>
          <Trackpoint>
            <Time>2022-09-20T13:27:37.000Z</Time>
            <Position>
              <LatitudeDegrees>49.4160973839461803436279296875</LatitudeDegrees>
              <LongitudeDegrees>20.31683734618127346038818359375</LongitudeDegrees>
            </Position>
            <AltitudeMeters>478.79998779296875</AltitudeMeters>
            <DistanceMeters>NAN</DistanceMeters>
          </Trackpoint>
          <Trackpoint>
            <Time>2022-09-20T13:27:38.000Z</Time>
            <Position>
              <LatitudeDegrees>49.4160893373191356658935546875</LatitudeDegrees>
              <LongitudeDegrees>20.31689979135990142822265625</LongitudeDegrees>
            </Position>
            <AltitudeMeters>478.399993896484375</AltitudeMeters>
            <DistanceMeters>NAN</DistanceMeters>
          </Trackpoint>
          <Trackpoint>
            <Time>2022-09-20T13:27:41.000Z</Time>
            <Position>
              <LatitudeDegrees>49.416077099740505218505859375</LatitudeDegrees>
              <LongitudeDegrees>20.3170753084123134613037109375</LongitudeDegrees>
            </Position>
            <AltitudeMeters>478</AltitudeMeters>
            <DistanceMeters>NAN</DistanceMeters>
          </Trackpoint>
          <Trackpoint>
            <Time>2022-09-20T13:27:44.000Z</Time>
            <Position>
              <LatitudeDegrees>49.4160769321024417877197265625</LatitudeDegrees>
              <LongitudeDegrees>20.31725258566439151763916015625</LongitudeDegrees>
            </Position>
            <AltitudeMeters>478</AltitudeMeters>
            <DistanceMeters>NAN</DistanceMeters>
          </Trackpoint>
          <Trackpoint>
            <Time>2022-09-20T13:27:47.000Z</Time>
            <Position>
              <LatitudeDegrees>49.4160742498934268951416015625</LatitudeDegrees>
              <LongitudeDegrees>20.31736674718558788299560546875</LongitudeDegrees>
            </Position>
            <AltitudeMeters>477.399993896484375</AltitudeMeters>
            <DistanceMeters>NAN</DistanceMeters>
          </Trackpoint>
          <Trackpoint>
            <Time>2022-09-20T13:27:50.000Z</Time>
            <Position>
              <LatitudeDegrees>49.4160638563334941864013671875</LatitudeDegrees>
              <LongitudeDegrees>20.3175175376236438751220703125</LongitudeDegrees>
            </Position>
            <AltitudeMeters>477.20001220703125</AltitudeMeters>
            <DistanceMeters>NAN</DistanceMeters>
          </Trackpoint>
          <Trackpoint>
            <Time>2022-09-20T13:27:51.000Z</Time>
            <Position>
              <LatitudeDegrees>49.41604365594685077667236328125</LatitudeDegrees>
              <LongitudeDegrees>20.31759523786604404449462890625</LongitudeDegrees>
            </Position>
            <AltitudeMeters>477.399993896484375</AltitudeMeters>
            <DistanceMeters>NAN</DistanceMeters>
          </Trackpoint>
          <Trackpoint>
            <Time>2022-09-20T13:27:52.000Z</Time>
            <Position>
              <LatitudeDegrees>49.41603007726371288299560546875</LatitudeDegrees>
              <LongitudeDegrees>20.31762122176587581634521484375</LongitudeDegrees>
            </Position>
            <AltitudeMeters>477.600006103515625</AltitudeMeters>
            <DistanceMeters>NAN</DistanceMeters>
          </Trackpoint>
          <Trackpoint>
            <Time>2022-09-20T13:27:57.000Z</Time>
            <Position>
              <LatitudeDegrees>49.4160009920597076416015625</LatitudeDegrees>
              <LongitudeDegrees>20.317792631685733795166015625</LongitudeDegrees>
            </Position>
            <AltitudeMeters>477.20001220703125</AltitudeMeters>
            <DistanceMeters>NAN</DistanceMeters>
          </Trackpoint>
          <Trackpoint>
            <Time>2022-09-20T13:28:03.000Z</Time>
            <Position>
              <LatitudeDegrees>49.41604818217456340789794921875</LatitudeDegrees>
              <LongitudeDegrees>20.31800427474081516265869140625</LongitudeDegrees>
            </Position>
            <AltitudeMeters>477</AltitudeMeters>
            <DistanceMeters>NAN</DistanceMeters>
          </Trackpoint>
          <Trackpoint>
            <Time>2022-09-20T13:28:10.000Z</Time>
            <Position>
              <LatitudeDegrees>49.41604734398424625396728515625</LatitudeDegrees>
              <LongitudeDegrees>20.318313650786876678466796875</LongitudeDegrees>
            </Position>
            <AltitudeMeters>477.399993896484375</AltitudeMeters>
            <DistanceMeters>NAN</DistanceMeters>
          </Trackpoint>
          <Trackpoint>
            <Time>2022-09-20T13:28:17.000Z</Time>
            <Position>
              <LatitudeDegrees>49.41602420993149280548095703125</LatitudeDegrees>
              <LongitudeDegrees>20.3186987154185771942138671875</LongitudeDegrees>
            </Position>
            <AltitudeMeters>477</AltitudeMeters>
            <DistanceMeters>NAN</DistanceMeters>
          </Trackpoint>
          <Trackpoint>
            <Time>2022-09-20T13:28:18.000Z</Time>
            <Position>
              <LatitudeDegrees>49.41601281054317951202392578125</LatitudeDegrees>
              <LongitudeDegrees>20.3187433071434497833251953125</LongitudeDegrees>
            </Position>
            <AltitudeMeters>477</AltitudeMeters>
            <DistanceMeters>NAN</DistanceMeters>
          </Trackpoint>
          <Trackpoint>
            <Time>2022-09-20T13:28:21.000Z</Time>
            <Position>
              <LatitudeDegrees>49.4159662909805774688720703125</LatitudeDegrees>
              <LongitudeDegrees>20.3189243562519550323486328125</LongitudeDegrees>
            </Position>
            <AltitudeMeters>476.399993896484375</AltitudeMeters>
            <DistanceMeters>NAN</DistanceMeters>
          </Trackpoint>
          <Trackpoint>
            <Time>2022-09-20T13:28:24.000Z</Time>
            <Position>
              <LatitudeDegrees>49.41591574810445308685302734375</LatitudeDegrees>
              <LongitudeDegrees>20.3190963529050350189208984375</LongitudeDegrees>
            </Position>
            <AltitudeMeters>475.79998779296875</AltitudeMeters>
            <DistanceMeters>NAN</DistanceMeters>
          </Trackpoint>
          <Trackpoint>
            <Time>2022-09-20T13:28:26.000Z</Time>
            <Position>
              <LatitudeDegrees>49.41586763598024845123291015625</LatitudeDegrees>
              <LongitudeDegrees>20.31922635622322559356689453125</LongitudeDegrees>
            </Position>
            <AltitudeMeters>475.600006103515625</AltitudeMeters>
            <DistanceMeters>NAN</DistanceMeters>
          </Trackpoint>
          <Trackpoint>
            <Time>2022-09-20T13:28:29.000Z</Time>
            <Position>
              <LatitudeDegrees>49.41577442921698093414306640625</LatitudeDegrees>
              <LongitudeDegrees>20.31935510225594043731689453125</LongitudeDegrees>
            </Position>
            <AltitudeMeters>475.399993896484375</AltitudeMeters>
            <DistanceMeters>NAN</DistanceMeters>
          </Trackpoint>
          <Trackpoint>
            <Time>2022-09-20T13:28:31.000Z</Time>
            <Position>
              <LatitudeDegrees>49.41570033319294452667236328125</LatitudeDegrees>
              <LongitudeDegrees>20.31945568509399890899658203125</LongitudeDegrees>
            </Position>
            <AltitudeMeters>475.399993896484375</AltitudeMeters>
            <DistanceMeters>NAN</DistanceMeters>
          </Trackpoint>
          <Trackpoint>
            <Time>2022-09-20T13:28:33.000Z</Time>
            <Position>
              <LatitudeDegrees>49.41565297544002532958984375</LatitudeDegrees>
              <LongitudeDegrees>20.3195449523627758026123046875</LongitudeDegrees>
            </Position>
            <AltitudeMeters>475.20001220703125</AltitudeMeters>
            <DistanceMeters>NAN</DistanceMeters>
          </Trackpoint>
          <Trackpoint>
            <Time>2022-09-20T13:28:35.000Z</Time>
            <Position>
              <LatitudeDegrees>49.41561182029545307159423828125</LatitudeDegrees>
              <LongitudeDegrees>20.31964771449565887451171875</LongitudeDegrees>
            </Position>
            <AltitudeMeters>475</AltitudeMeters>
            <DistanceMeters>NAN</DistanceMeters>
          </Trackpoint>
          <Trackpoint>
            <Time>2022-09-20T13:28:38.000Z</Time>
            <Position>
              <LatitudeDegrees>49.41552582196891307830810546875</LatitudeDegrees>
              <LongitudeDegrees>20.31980001367628574371337890625</LongitudeDegrees>
            </Position>
            <AltitudeMeters>475</AltitudeMeters>
            <DistanceMeters>NAN</DistanceMeters>
          </Trackpoint>
          <Trackpoint>
            <Time>2022-09-20T13:28:41.000Z</Time>
            <Position>
              <LatitudeDegrees>49.41542959772050380706787109375</LatitudeDegrees>
              <LongitudeDegrees>20.31991216354072093963623046875</LongitudeDegrees>
            </Position>
            <AltitudeMeters>475</AltitudeMeters>
            <DistanceMeters>NAN</DistanceMeters>
          </Trackpoint>
          <Trackpoint>
            <Time>2022-09-20T13:28:44.000Z</Time>
            <Position>
              <LatitudeDegrees>49.415366984903812408447265625</LatitudeDegrees>
              <LongitudeDegrees>20.31999640166759490966796875</LongitudeDegrees>
            </Position>
            <AltitudeMeters>475</AltitudeMeters>
            <DistanceMeters>NAN</DistanceMeters>
          </Trackpoint>
          <Trackpoint>
            <Time>2022-09-20T13:28:45.000Z</Time>
            <Position>
              <LatitudeDegrees>49.4153678230941295623779296875</LatitudeDegrees>
              <LongitudeDegrees>20.32002213411033153533935546875</LongitudeDegrees>
            </Position>
            <AltitudeMeters>475</AltitudeMeters>
            <DistanceMeters>NAN</DistanceMeters>
          </Trackpoint>
          <Trackpoint>
            <Time>2022-09-20T13:28:52.000Z</Time>
            <Position>
              <LatitudeDegrees>49.41540780477225780487060546875</LatitudeDegrees>
              <LongitudeDegrees>20.3201709128916263580322265625</LongitudeDegrees>
            </Position>
            <AltitudeMeters>475</AltitudeMeters>
            <DistanceMeters>NAN</DistanceMeters>
          </Trackpoint>
          <Trackpoint>
            <Time>2022-09-20T13:28:56.000Z</Time>
            <Position>
              <LatitudeDegrees>49.41545222885906696319580078125</LatitudeDegrees>
              <LongitudeDegrees>20.320246182382106781005859375</LongitudeDegrees>
            </Position>
            <AltitudeMeters>475</AltitudeMeters>
            <DistanceMeters>NAN</DistanceMeters>
          </Trackpoint>
          <Trackpoint>
            <Time>2022-09-20T13:28:57.000Z</Time>
            <Position>
              <LatitudeDegrees>49.41545457579195499420166015625</LatitudeDegrees>
              <LongitudeDegrees>20.3202470205724239349365234375</LongitudeDegrees>
            </Position>
            <AltitudeMeters>475</AltitudeMeters>
            <DistanceMeters>NAN</DistanceMeters>
          </Trackpoint>
          <Trackpoint>
            <Time>2022-09-20T13:29:03.000Z</Time>
            <Position>
              <LatitudeDegrees>49.41545072011649608612060546875</LatitudeDegrees>
              <LongitudeDegrees>20.32025163061916828155517578125</LongitudeDegrees>
            </Position>
            <AltitudeMeters>475.399993896484375</AltitudeMeters>
            <DistanceMeters>NAN</DistanceMeters>
          </Trackpoint>
          <Trackpoint>
            <Time>2022-09-20T13:29:08.000Z</Time>
            <Position>
              <LatitudeDegrees>49.41545072011649608612060546875</LatitudeDegrees>
              <LongitudeDegrees>20.32025163061916828155517578125</LongitudeDegrees>
            </Position>
            <AltitudeMeters>475.20001220703125</AltitudeMeters>
            <DistanceMeters>NAN</DistanceMeters>
          </Trackpoint>
          <Trackpoint>
            <Time>2022-09-20T13:29:14.000Z</Time>
            <Position>
              <LatitudeDegrees>49.41545072011649608612060546875</LatitudeDegrees>
              <LongitudeDegrees>20.32025163061916828155517578125</LongitudeDegrees>
            </Position>
            <AltitudeMeters>475.399993896484375</AltitudeMeters>
            <DistanceMeters>NAN</DistanceMeters>
          </Trackpoint>
          <Trackpoint>
            <Time>2022-09-20T13:29:20.000Z</Time>
            <Position>
              <LatitudeDegrees>49.41545072011649608612060546875</LatitudeDegrees>
              <LongitudeDegrees>20.32025163061916828155517578125</LongitudeDegrees>
            </Position>
            <AltitudeMeters>475.399993896484375</AltitudeMeters>
            <DistanceMeters>NAN</DistanceMeters>
          </Trackpoint>
          <Trackpoint>
            <Time>2022-09-20T13:29:22.000Z</Time>
            <Position>
              <LatitudeDegrees>49.41545072011649608612060546875</LatitudeDegrees>
              <LongitudeDegrees>20.32025163061916828155517578125</LongitudeDegrees>
            </Position>
            <AltitudeMeters>475.399993896484375</AltitudeMeters>
            <DistanceMeters>NAN</DistanceMeters>
          </Trackpoint>
          <Trackpoint>
            <Time>2022-09-20T13:29:28.000Z</Time>
            <Position>
              <LatitudeDegrees>49.4154459424316883087158203125</LatitudeDegrees>
              <LongitudeDegrees>20.32024609856307506561279296875</LongitudeDegrees>
            </Position>
            <AltitudeMeters>475.20001220703125</AltitudeMeters>
            <DistanceMeters>NAN</DistanceMeters>
          </Trackpoint>
          <Trackpoint>
            <Time>2022-09-20T13:29:29.000Z</Time>
            <Position>
              <LatitudeDegrees>49.4154338724911212921142578125</LatitudeDegrees>
              <LongitudeDegrees>20.32020636834204196929931640625</LongitudeDegrees>
            </Position>
            <AltitudeMeters>475.20001220703125</AltitudeMeters>
            <DistanceMeters>NAN</DistanceMeters>
          </Trackpoint>
          <Trackpoint>
            <Time>2022-09-20T13:29:34.000Z</Time>
            <Position>
              <LatitudeDegrees>49.41534225828945636749267578125</LatitudeDegrees>
              <LongitudeDegrees>20.32003856264054775238037109375</LongitudeDegrees>
            </Position>
            <AltitudeMeters>475</AltitudeMeters>
            <DistanceMeters>NAN</DistanceMeters>
          </Trackpoint>
          <Trackpoint>
            <Time>2022-09-20T13:29:35.000Z</Time>
            <Position>
              <LatitudeDegrees>49.41530772484838962554931640625</LatitudeDegrees>
              <LongitudeDegrees>20.320033617317676544189453125</LongitudeDegrees>
            </Position>
            <AltitudeMeters>474.79998779296875</AltitudeMeters>
            <DistanceMeters>NAN</DistanceMeters>
          </Trackpoint>
          <Trackpoint>
            <Time>2022-09-20T13:29:37.000Z</Time>
            <Position>
              <LatitudeDegrees>49.4152419269084930419921875</LatitudeDegrees>
              <LongitudeDegrees>20.3200636245310306549072265625</LongitudeDegrees>
            </Position>
            <AltitudeMeters>474.399993896484375</AltitudeMeters>
            <DistanceMeters>NAN</DistanceMeters>
          </Trackpoint>
          <Trackpoint>
            <Time>2022-09-20T13:29:38.000Z</Time>
            <Position>
              <LatitudeDegrees>49.4152119196951389312744140625</LatitudeDegrees>
              <LongitudeDegrees>20.32008701004087924957275390625</LongitudeDegrees>
            </Position>
            <AltitudeMeters>474.20001220703125</AltitudeMeters>
            <DistanceMeters>NAN</DistanceMeters>
          </Trackpoint>
          <Trackpoint>
            <Time>2022-09-20T13:29:43.000Z</Time>
            <Position>
              <LatitudeDegrees>49.41506347618997097015380859375</LatitudeDegrees>
              <LongitudeDegrees>20.3201930411159992218017578125</LongitudeDegrees>
            </Position>
            <AltitudeMeters>474</AltitudeMeters>
            <DistanceMeters>NAN</DistanceMeters>
          </Trackpoint>
          <Trackpoint>
            <Time>2022-09-20T13:29:44.000Z</Time>
            <Position>
              <LatitudeDegrees>49.41503279842436313629150390625</LatitudeDegrees>
              <LongitudeDegrees>20.320209972560405731201171875</LongitudeDegrees>
            </Position>
            <AltitudeMeters>474</AltitudeMeters>
            <DistanceMeters>NAN</DistanceMeters>
          </Trackpoint>
          <Trackpoint>
            <Time>2022-09-20T13:29:53.000Z</Time>
            <Position>
              <LatitudeDegrees>49.41473993472754955291748046875</LatitudeDegrees>
              <LongitudeDegrees>20.32033276744186878204345703125</LongitudeDegrees>
            </Position>
            <AltitudeMeters>474.20001220703125</AltitudeMeters>
            <DistanceMeters>NAN</DistanceMeters>
          </Trackpoint>
          <Trackpoint>
            <Time>2022-09-20T13:29:59.000Z</Time>
            <Position>
              <LatitudeDegrees>49.41458336077630519866943359375</LatitudeDegrees>
              <LongitudeDegrees>20.3203819692134857177734375</LongitudeDegrees>
            </Position>
            <AltitudeMeters>474.399993896484375</AltitudeMeters>
            <DistanceMeters>NAN</DistanceMeters>
          </Trackpoint>
          <Trackpoint>
            <Time>2022-09-20T13:30:02.000Z</Time>
            <Position>
              <LatitudeDegrees>49.4145239330828189849853515625</LatitudeDegrees>
              <LongitudeDegrees>20.32038222067058086395263671875</LongitudeDegrees>
            </Position>
            <AltitudeMeters>474.399993896484375</AltitudeMeters>
            <DistanceMeters>NAN</DistanceMeters>
          </Trackpoint>
          <Trackpoint>
            <Time>2022-09-20T13:30:04.000Z</Time>
            <Position>
              <LatitudeDegrees>49.41452083177864551544189453125</LatitudeDegrees>
              <LongitudeDegrees>20.3203801251947879791259765625</LongitudeDegrees>
            </Position>
            <AltitudeMeters>474.399993896484375</AltitudeMeters>
            <DistanceMeters>NAN</DistanceMeters>
          </Trackpoint>
          <Trackpoint>
            <Time>2022-09-20T13:30:07.000Z</Time>
            <Position>
              <LatitudeDegrees>49.41452083177864551544189453125</LatitudeDegrees>
              <LongitudeDegrees>20.3203801251947879791259765625</LongitudeDegrees>
            </Position>
            <AltitudeMeters>475.20001220703125</AltitudeMeters>
            <DistanceMeters>NAN</DistanceMeters>
          </Trackpoint>
          <Trackpoint>
            <Time>2022-09-20T13:30:12.000Z</Time>
            <Position>
              <LatitudeDegrees>49.41452083177864551544189453125</LatitudeDegrees>
              <LongitudeDegrees>20.3203801251947879791259765625</LongitudeDegrees>
            </Position>
            <AltitudeMeters>475.20001220703125</AltitudeMeters>
            <DistanceMeters>NAN</DistanceMeters>
          </Trackpoint>
          <Trackpoint>
            <Time>2022-09-20T13:30:14.000Z</Time>
            <Position>
              <LatitudeDegrees>49.41452083177864551544189453125</LatitudeDegrees>
              <LongitudeDegrees>20.3203801251947879791259765625</LongitudeDegrees>
            </Position>
            <AltitudeMeters>475.20001220703125</AltitudeMeters>
            <DistanceMeters>NAN</DistanceMeters>
          </Trackpoint>
          <Trackpoint>
            <Time>2022-09-20T13:30:32.000Z</Time>
            <Position>
              <LatitudeDegrees>49.4145215861499309539794921875</LatitudeDegrees>
              <LongitudeDegrees>20.32037886790931224822998046875</LongitudeDegrees>
            </Position>
            <AltitudeMeters>475.20001220703125</AltitudeMeters>
            <DistanceMeters>NAN</DistanceMeters>
          </Trackpoint>
          <Trackpoint>
            <Time>2022-09-20T13:30:44.000Z</Time>
            <Position>
              <LatitudeDegrees>49.4145286269485950469970703125</LatitudeDegrees>
              <LongitudeDegrees>20.32036721706390380859375</LongitudeDegrees>
            </Position>
            <AltitudeMeters>475.20001220703125</AltitudeMeters>
            <DistanceMeters>NAN</DistanceMeters>
          </Trackpoint>
          <Trackpoint>
            <Time>2022-09-20T13:30:49.000Z</Time>
            <Position>
              <LatitudeDegrees>49.414526782929897308349609375</LatitudeDegrees>
              <LongitudeDegrees>20.3203670494258403778076171875</LongitudeDegrees>
            </Position>
            <AltitudeMeters>475.20001220703125</AltitudeMeters>
            <DistanceMeters>NAN</DistanceMeters>
          </Trackpoint>
          <Trackpoint>
            <Time>2022-09-20T13:30:52.000Z</Time>
            <Position>
              <LatitudeDegrees>49.4144645892083644866943359375</LatitudeDegrees>
              <LongitudeDegrees>20.320377610623836517333984375</LongitudeDegrees>
            </Position>
            <AltitudeMeters>475.20001220703125</AltitudeMeters>
            <DistanceMeters>NAN</DistanceMeters>
          </Trackpoint>
          <Trackpoint>
            <Time>2022-09-20T13:30:54.000Z</Time>
            <Position>
              <LatitudeDegrees>49.41440130583941936492919921875</LatitudeDegrees>
              <LongitudeDegrees>20.3203955478966236114501953125</LongitudeDegrees>
            </Position>
            <AltitudeMeters>475.20001220703125</AltitudeMeters>
            <DistanceMeters>NAN</DistanceMeters>
          </Trackpoint>
          <Trackpoint>
            <Time>2022-09-20T13:30:58.000Z</Time>
            <Position>
              <LatitudeDegrees>49.4142816960811614990234375</LatitudeDegrees>
              <LongitudeDegrees>20.32041105441749095916748046875</LongitudeDegrees>
            </Position>
            <AltitudeMeters>474.600006103515625</AltitudeMeters>
            <DistanceMeters>NAN</DistanceMeters>
          </Trackpoint>
          <Trackpoint>
            <Time>2022-09-20T13:31:08.000Z</Time>
            <Position>
              <LatitudeDegrees>49.414018504321575164794921875</LatitudeDegrees>
              <LongitudeDegrees>20.32045950181782245635986328125</LongitudeDegrees>
            </Position>
            <AltitudeMeters>474.399993896484375</AltitudeMeters>
            <DistanceMeters>NAN</DistanceMeters>
          </Trackpoint>
          <Trackpoint>
            <Time>2022-09-20T13:31:12.000Z</Time>
            <Position>
              <LatitudeDegrees>49.41395304165780544281005859375</LatitudeDegrees>
              <LongitudeDegrees>20.320452712476253509521484375</LongitudeDegrees>
            </Position>
            <AltitudeMeters>474.20001220703125</AltitudeMeters>
            <DistanceMeters>NAN</DistanceMeters>
          </Trackpoint>
          <Trackpoint>
            <Time>2022-09-20T13:31:15.000Z</Time>
            <Position>
              <LatitudeDegrees>49.4138691388070583343505859375</LatitudeDegrees>
              <LongitudeDegrees>20.3204062767326831817626953125</LongitudeDegrees>
            </Position>
            <AltitudeMeters>474</AltitudeMeters>
            <DistanceMeters>NAN</DistanceMeters>
          </Trackpoint>
          <Trackpoint>
            <Time>2022-09-20T13:31:17.000Z</Time>
            <Position>
              <LatitudeDegrees>49.4138185121119022369384765625</LatitudeDegrees>
              <LongitudeDegrees>20.32040434889495372772216796875</LongitudeDegrees>
            </Position>
            <AltitudeMeters>474</AltitudeMeters>
            <DistanceMeters>NAN</DistanceMeters>
          </Trackpoint>
          <Trackpoint>
            <Time>2022-09-20T13:31:18.000Z</Time>
            <Position>
              <LatitudeDegrees>49.41379076801240444183349609375</LatitudeDegrees>
              <LongitudeDegrees>20.32042060978710651397705078125</LongitudeDegrees>
            </Position>
            <AltitudeMeters>474</AltitudeMeters>
            <DistanceMeters>NAN</DistanceMeters>
          </Trackpoint>
          <Trackpoint>
            <Time>2022-09-20T13:31:19.000Z</Time>
            <Position>
              <LatitudeDegrees>49.41377165727317333221435546875</LatitudeDegrees>
              <LongitudeDegrees>20.32044139690697193145751953125</LongitudeDegrees>
            </Position>
            <AltitudeMeters>473.79998779296875</AltitudeMeters>
            <DistanceMeters>NAN</DistanceMeters>
          </Trackpoint>
          <Trackpoint>
            <Time>2022-09-20T13:31:21.000Z</Time>
            <Position>
              <LatitudeDegrees>49.41374181769788265228271484375</LatitudeDegrees>
              <LongitudeDegrees>20.32048716209828853607177734375</LongitudeDegrees>
            </Position>
            <AltitudeMeters>473.79998779296875</AltitudeMeters>
            <DistanceMeters>NAN</DistanceMeters>
          </Trackpoint>
          <Trackpoint>
            <Time>2022-09-20T13:31:24.000Z</Time>
            <Position>
              <LatitudeDegrees>49.41367350518703460693359375</LatitudeDegrees>
              <LongitudeDegrees>20.320511721074581146240234375</LongitudeDegrees>
            </Position>
            <AltitudeMeters>473.79998779296875</AltitudeMeters>
            <DistanceMeters>NAN</DistanceMeters>
          </Trackpoint>
          <Trackpoint>
            <Time>2022-09-20T13:31:35.000Z</Time>
            <Position>
              <LatitudeDegrees>49.4133461080491542816162109375</LatitudeDegrees>
              <LongitudeDegrees>20.3205589950084686279296875</LongitudeDegrees>
            </Position>
            <AltitudeMeters>474.20001220703125</AltitudeMeters>
            <DistanceMeters>NAN</DistanceMeters>
          </Trackpoint>
          <Trackpoint>
            <Time>2022-09-20T13:31:38.000Z</Time>
            <Position>
              <LatitudeDegrees>49.41326622851192951202392578125</LatitudeDegrees>
              <LongitudeDegrees>20.32055773772299289703369140625</LongitudeDegrees>
            </Position>
            <AltitudeMeters>474</AltitudeMeters>
            <DistanceMeters>NAN</DistanceMeters>
          </Trackpoint>
          <Trackpoint>
            <Time>2022-09-20T13:31:41.000Z</Time>
            <Position>
              <LatitudeDegrees>49.4131932221353054046630859375</LatitudeDegrees>
              <LongitudeDegrees>20.320528484880924224853515625</LongitudeDegrees>
            </Position>
            <AltitudeMeters>474</AltitudeMeters>
            <DistanceMeters>NAN</DistanceMeters>
          </Trackpoint>
          <Trackpoint>
            <Time>2022-09-20T13:31:43.000Z</Time>
            <Position>
              <LatitudeDegrees>49.41315022297203540802001953125</LatitudeDegrees>
              <LongitudeDegrees>20.32052119262516498565673828125</LongitudeDegrees>
            </Position>
            <AltitudeMeters>474.20001220703125</AltitudeMeters>
            <DistanceMeters>NAN</DistanceMeters>
          </Trackpoint>
          <Trackpoint>
            <Time>2022-09-20T13:31:48.000Z</Time>
            <Position>
              <LatitudeDegrees>49.41300152800977230072021484375</LatitudeDegrees>
              <LongitudeDegrees>20.32054985873401165008544921875</LongitudeDegrees>
            </Position>
            <AltitudeMeters>474.399993896484375</AltitudeMeters>
            <DistanceMeters>NAN</DistanceMeters>
          </Trackpoint>
          <Trackpoint>
            <Time>2022-09-20T13:31:57.000Z</Time>
            <Position>
              <LatitudeDegrees>49.412705563008785247802734375</LatitudeDegrees>
              <LongitudeDegrees>20.320610292255878448486328125</LongitudeDegrees>
            </Position>
            <AltitudeMeters>474.399993896484375</AltitudeMeters>
            <DistanceMeters>NAN</DistanceMeters>
          </Trackpoint>
          <Trackpoint>
            <Time>2022-09-20T13:31:58.000Z</Time>
            <Position>
              <LatitudeDegrees>49.41267496906220912933349609375</LatitudeDegrees>
              <LongitudeDegrees>20.32061926089227199554443359375</LongitudeDegrees>
            </Position>
            <AltitudeMeters>474.399993896484375</AltitudeMeters>
            <DistanceMeters>NAN</DistanceMeters>
          </Trackpoint>
          <Trackpoint>
            <Time>2022-09-20T13:32:05.000Z</Time>
            <Position>
              <LatitudeDegrees>49.4124841131269931793212890625</LatitudeDegrees>
              <LongitudeDegrees>20.320724956691265106201171875</LongitudeDegrees>
            </Position>
            <AltitudeMeters>474.20001220703125</AltitudeMeters>
            <DistanceMeters>NAN</DistanceMeters>
          </Trackpoint>
          <Trackpoint>
            <Time>2022-09-20T13:32:13.000Z</Time>
            <Position>
              <LatitudeDegrees>49.4122336618602275848388671875</LatitudeDegrees>
              <LongitudeDegrees>20.32083190977573394775390625</LongitudeDegrees>
            </Position>
            <AltitudeMeters>473.79998779296875</AltitudeMeters>
            <DistanceMeters>NAN</DistanceMeters>
          </Trackpoint>
          <Trackpoint>
            <Time>2022-09-20T13:32:20.000Z</Time>
            <Position>
              <LatitudeDegrees>49.41202126443386077880859375</LatitudeDegrees>
              <LongitudeDegrees>20.32099041156470775604248046875</LongitudeDegrees>
            </Position>
            <AltitudeMeters>473.79998779296875</AltitudeMeters>
            <DistanceMeters>NAN</DistanceMeters>
          </Trackpoint>
          <Trackpoint>
            <Time>2022-09-20T13:32:27.000Z</Time>
            <Position>
              <LatitudeDegrees>49.41179671324789524078369140625</LatitudeDegrees>
              <LongitudeDegrees>20.3212280385196208953857421875</LongitudeDegrees>
            </Position>
            <AltitudeMeters>473.600006103515625</AltitudeMeters>
            <DistanceMeters>NAN</DistanceMeters>
          </Trackpoint>
          <Trackpoint>
            <Time>2022-09-20T13:32:33.000Z</Time>
            <Position>
              <LatitudeDegrees>49.4116113893687725067138671875</LatitudeDegrees>
              <LongitudeDegrees>20.32141688279807567596435546875</LongitudeDegrees>
            </Position>
            <AltitudeMeters>473.79998779296875</AltitudeMeters>
            <DistanceMeters>NAN</DistanceMeters>
          </Trackpoint>
          <Trackpoint>
            <Time>2022-09-20T13:32:40.000Z</Time>
            <Position>
              <LatitudeDegrees>49.41141952760517597198486328125</LatitudeDegrees>
              <LongitudeDegrees>20.3216266818344593048095703125</LongitudeDegrees>
            </Position>
            <AltitudeMeters>473.399993896484375</AltitudeMeters>
            <DistanceMeters>NAN</DistanceMeters>
          </Trackpoint>
          <Trackpoint>
            <Time>2022-09-20T13:32:46.000Z</Time>
            <Position>
              <LatitudeDegrees>49.41125004552304744720458984375</LatitudeDegrees>
              <LongitudeDegrees>20.32180161215364933013916015625</LongitudeDegrees>
            </Position>
            <AltitudeMeters>473.20001220703125</AltitudeMeters>
            <DistanceMeters>NAN</DistanceMeters>
          </Trackpoint>
          <Trackpoint>
            <Time>2022-09-20T13:32:52.000Z</Time>
            <Position>
              <LatitudeDegrees>49.411070086061954498291015625</LatitudeDegrees>
              <LongitudeDegrees>20.32198433764278888702392578125</LongitudeDegrees>
            </Position>
            <AltitudeMeters>473.399993896484375</AltitudeMeters>
            <DistanceMeters>NAN</DistanceMeters>
          </Trackpoint>
          <Trackpoint>
            <Time>2022-09-20T13:32:59.000Z</Time>
            <Position>
              <LatitudeDegrees>49.4108498096466064453125</LatitudeDegrees>
              <LongitudeDegrees>20.32219992019236087799072265625</LongitudeDegrees>
            </Position>
            <AltitudeMeters>473.20001220703125</AltitudeMeters>
            <DistanceMeters>NAN</DistanceMeters>
          </Trackpoint>
          <Trackpoint>
            <Time>2022-09-20T13:33:00.000Z</Time>
            <Position>
              <LatitudeDegrees>49.41081820987164974212646484375</LatitudeDegrees>
              <LongitudeDegrees>20.3222231380641460418701171875</LongitudeDegrees>
            </Position>
            <AltitudeMeters>473.20001220703125</AltitudeMeters>
            <DistanceMeters>NAN</DistanceMeters>
          </Trackpoint>
          <Trackpoint>
            <Time>2022-09-20T13:33:04.000Z</Time>
            <Position>
              <LatitudeDegrees>49.410690553486347198486328125</LatitudeDegrees>
              <LongitudeDegrees>20.32228876836597919464111328125</LongitudeDegrees>
            </Position>
            <AltitudeMeters>473.20001220703125</AltitudeMeters>
            <DistanceMeters>NAN</DistanceMeters>
          </Trackpoint>
          <Trackpoint>
            <Time>2022-09-20T13:33:05.000Z</Time>
            <Position>
              <LatitudeDegrees>49.41065811552107334136962890625</LatitudeDegrees>
              <LongitudeDegrees>20.32230284996330738067626953125</LongitudeDegrees>
            </Position>
            <AltitudeMeters>473.20001220703125</AltitudeMeters>
            <DistanceMeters>NAN</DistanceMeters>
          </Trackpoint>
          <Trackpoint>
            <Time>2022-09-20T13:33:08.000Z</Time>
            <Position>
              <LatitudeDegrees>49.410554431378841400146484375</LatitudeDegrees>
              <LongitudeDegrees>20.32233905978500843048095703125</LongitudeDegrees>
            </Position>
            <AltitudeMeters>473</AltitudeMeters>
            <DistanceMeters>NAN</DistanceMeters>
          </Trackpoint>
          <Trackpoint>
            <Time>2022-09-20T13:33:12.000Z</Time>
            <Position>
              <LatitudeDegrees>49.41044135950505733489990234375</LatitudeDegrees>
              <LongitudeDegrees>20.32236353494226932525634765625</LongitudeDegrees>
            </Position>
            <AltitudeMeters>473</AltitudeMeters>
            <DistanceMeters>NAN</DistanceMeters>
          </Trackpoint>
          <Trackpoint>
            <Time>2022-09-20T13:33:19.000Z</Time>
            <Position>
              <LatitudeDegrees>49.41024187020957469940185546875</LatitudeDegrees>
              <LongitudeDegrees>20.32239069230854511260986328125</LongitudeDegrees>
            </Position>
            <AltitudeMeters>473</AltitudeMeters>
            <DistanceMeters>NAN</DistanceMeters>
          </Trackpoint>
          <Trackpoint>
            <Time>2022-09-20T13:33:23.000Z</Time>
            <Position>
              <LatitudeDegrees>49.41012561321258544921875</LatitudeDegrees>
              <LongitudeDegrees>20.32241466455161571502685546875</LongitudeDegrees>
            </Position>
            <AltitudeMeters>473</AltitudeMeters>
            <DistanceMeters>NAN</DistanceMeters>
          </Trackpoint>
          <Trackpoint>
            <Time>2022-09-20T13:33:27.000Z</Time>
            <Position>
              <LatitudeDegrees>49.4099946878850460052490234375</LatitudeDegrees>
              <LongitudeDegrees>20.32242656685411930084228515625</LongitudeDegrees>
            </Position>
            <AltitudeMeters>472.79998779296875</AltitudeMeters>
            <DistanceMeters>NAN</DistanceMeters>
          </Trackpoint>
          <Trackpoint>
            <Time>2022-09-20T13:33:28.000Z</Time>
            <Position>
              <LatitudeDegrees>49.40995554439723491668701171875</LatitudeDegrees>
              <LongitudeDegrees>20.322422794997692108154296875</LongitudeDegrees>
            </Position>
            <AltitudeMeters>472.79998779296875</AltitudeMeters>
            <DistanceMeters>NAN</DistanceMeters>
          </Trackpoint>
          <Trackpoint>
            <Time>2022-09-20T13:33:38.000Z</Time>
            <Position>
              <LatitudeDegrees>49.409629739820957183837890625</LatitudeDegrees>
              <LongitudeDegrees>20.3224715776741504669189453125</LongitudeDegrees>
            </Position>
            <AltitudeMeters>472.600006103515625</AltitudeMeters>
            <DistanceMeters>NAN</DistanceMeters>
          </Trackpoint>
          <Trackpoint>
            <Time>2022-09-20T13:33:41.000Z</Time>
            <Position>
              <LatitudeDegrees>49.40952337346971035003662109375</LatitudeDegrees>
              <LongitudeDegrees>20.3225014172494411468505859375</LongitudeDegrees>
            </Position>
            <AltitudeMeters>472.600006103515625</AltitudeMeters>
            <DistanceMeters>NAN</DistanceMeters>
          </Trackpoint>
          <Trackpoint>
            <Time>2022-09-20T13:33:47.000Z</Time>
            <Position>
              <LatitudeDegrees>49.40932027995586395263671875</LatitudeDegrees>
              <LongitudeDegrees>20.32256101258099079132080078125</LongitudeDegrees>
            </Position>
            <AltitudeMeters>472.79998779296875</AltitudeMeters>
            <DistanceMeters>NAN</DistanceMeters>
          </Trackpoint>
          <Trackpoint>
            <Time>2022-09-20T13:33:48.000Z</Time>
            <Position>
              <LatitudeDegrees>49.40928666852414608001708984375</LatitudeDegrees>
              <LongitudeDegrees>20.32257794402539730072021484375</LongitudeDegrees>
            </Position>
            <AltitudeMeters>472.79998779296875</AltitudeMeters>
            <DistanceMeters>NAN</DistanceMeters>
          </Trackpoint>
          <Trackpoint>
            <Time>2022-09-20T13:33:57.000Z</Time>
            <Position>
              <LatitudeDegrees>49.40897553227841854095458984375</LatitudeDegrees>
              <LongitudeDegrees>20.3228638507425785064697265625</LongitudeDegrees>
            </Position>
            <AltitudeMeters>472.600006103515625</AltitudeMeters>
            <DistanceMeters>NAN</DistanceMeters>
          </Trackpoint>
          <Trackpoint>
            <Time>2022-09-20T13:33:58.000Z</Time>
            <Position>
              <LatitudeDegrees>49.40894368104636669158935546875</LatitudeDegrees>
              <LongitudeDegrees>20.322900228202342987060546875</LongitudeDegrees>
            </Position>
            <AltitudeMeters>472.600006103515625</AltitudeMeters>
            <DistanceMeters>NAN</DistanceMeters>
          </Trackpoint>
          <Trackpoint>
            <Time>2022-09-20T13:34:03.000Z</Time>
            <Position>
              <LatitudeDegrees>49.40879113040864467620849609375</LatitudeDegrees>
              <LongitudeDegrees>20.32307700254023075103759765625</LongitudeDegrees>
            </Position>
            <AltitudeMeters>472.600006103515625</AltitudeMeters>
            <DistanceMeters>NAN</DistanceMeters>
          </Trackpoint>
          <Trackpoint>
            <Time>2022-09-20T13:34:09.000Z</Time>
            <Position>
              <LatitudeDegrees>49.4086182117462158203125</LatitudeDegrees>
              <LongitudeDegrees>20.3232725523412227630615234375</LongitudeDegrees>
            </Position>
            <AltitudeMeters>472.399993896484375</AltitudeMeters>
            <DistanceMeters>NAN</DistanceMeters>
          </Trackpoint>
          <Trackpoint>
            <Time>2022-09-20T13:34:10.000Z</Time>
            <Position>
              <LatitudeDegrees>49.40858401358127593994140625</LatitudeDegrees>
              <LongitudeDegrees>20.32331035472452640533447265625</LongitudeDegrees>
            </Position>
            <AltitudeMeters>472.20001220703125</AltitudeMeters>
            <DistanceMeters>NAN</DistanceMeters>
          </Trackpoint>
          <Trackpoint>
            <Time>2022-09-20T13:34:11.000Z</Time>
            <Position>
              <LatitudeDegrees>49.4085493125021457672119140625</LatitudeDegrees>
              <LongitudeDegrees>20.3233426250517368316650390625</LongitudeDegrees>
            </Position>
            <AltitudeMeters>472.20001220703125</AltitudeMeters>
            <DistanceMeters>NAN</DistanceMeters>
          </Trackpoint>
          <Trackpoint>
            <Time>2022-09-20T13:34:20.000Z</Time>
            <Position>
              <LatitudeDegrees>49.40825007855892181396484375</LatitudeDegrees>
              <LongitudeDegrees>20.3236095048487186431884765625</LongitudeDegrees>
            </Position>
            <AltitudeMeters>472.20001220703125</AltitudeMeters>
            <DistanceMeters>NAN</DistanceMeters>
          </Trackpoint>
          <Trackpoint>
            <Time>2022-09-20T13:34:27.000Z</Time>
            <Position>
              <LatitudeDegrees>49.40806743688881397247314453125</LatitudeDegrees>
              <LongitudeDegrees>20.3237543441355228424072265625</LongitudeDegrees>
            </Position>
            <AltitudeMeters>472</AltitudeMeters>
            <DistanceMeters>NAN</DistanceMeters>
          </Trackpoint>
          <Trackpoint>
            <Time>2022-09-20T13:34:36.000Z</Time>
            <Position>
              <LatitudeDegrees>49.40780474804341793060302734375</LatitudeDegrees>
              <LongitudeDegrees>20.3239846788346767425537109375</LongitudeDegrees>
            </Position>
            <AltitudeMeters>472.20001220703125</AltitudeMeters>
            <DistanceMeters>NAN</DistanceMeters>
          </Trackpoint>
          <Trackpoint>
            <Time>2022-09-20T13:34:42.000Z</Time>
            <Position>
              <LatitudeDegrees>49.40761196427047252655029296875</LatitudeDegrees>
              <LongitudeDegrees>20.324192047119140625</LongitudeDegrees>
            </Position>
            <AltitudeMeters>472.399993896484375</AltitudeMeters>
            <DistanceMeters>NAN</DistanceMeters>
          </Trackpoint>
          <Trackpoint>
            <Time>2022-09-20T13:34:44.000Z</Time>
            <Position>
              <LatitudeDegrees>49.40755278803408145904541015625</LatitudeDegrees>
              <LongitudeDegrees>20.3242713399231433868408203125</LongitudeDegrees>
            </Position>
            <AltitudeMeters>472.399993896484375</AltitudeMeters>
            <DistanceMeters>NAN</DistanceMeters>
          </Trackpoint>
          <Trackpoint>
            <Time>2022-09-20T13:34:48.000Z</Time>
            <Position>
              <LatitudeDegrees>49.4074264727532863616943359375</LatitudeDegrees>
              <LongitudeDegrees>20.3244389779865741729736328125</LongitudeDegrees>
            </Position>
            <AltitudeMeters>472.600006103515625</AltitudeMeters>
            <DistanceMeters>NAN</DistanceMeters>
          </Trackpoint>
          <Trackpoint>
            <Time>2022-09-20T13:34:52.000Z</Time>
            <Position>
              <LatitudeDegrees>49.40730837173759937286376953125</LatitudeDegrees>
              <LongitudeDegrees>20.32463234849274158477783203125</LongitudeDegrees>
            </Position>
            <AltitudeMeters>472.600006103515625</AltitudeMeters>
            <DistanceMeters>NAN</DistanceMeters>
          </Trackpoint>
          <Trackpoint>
            <Time>2022-09-20T13:34:59.000Z</Time>
            <Position>
              <LatitudeDegrees>49.40716638229787349700927734375</LatitudeDegrees>
              <LongitudeDegrees>20.3249204345047473907470703125</LongitudeDegrees>
            </Position>
            <AltitudeMeters>472.600006103515625</AltitudeMeters>
            <DistanceMeters>NAN</DistanceMeters>
          </Trackpoint>
          <Trackpoint>
            <Time>2022-09-20T13:35:03.000Z</Time>
            <Position>
              <LatitudeDegrees>49.40708038397133350372314453125</LatitudeDegrees>
              <LongitudeDegrees>20.32517247833311557769775390625</LongitudeDegrees>
            </Position>
            <AltitudeMeters>472.600006103515625</AltitudeMeters>
            <DistanceMeters>NAN</DistanceMeters>
          </Trackpoint>
          <Trackpoint>
            <Time>2022-09-20T13:35:06.000Z</Time>
            <Position>
              <LatitudeDegrees>49.40701366402208805084228515625</LatitudeDegrees>
              <LongitudeDegrees>20.32534497790038585662841796875</LongitudeDegrees>
            </Position>
            <AltitudeMeters>472.600006103515625</AltitudeMeters>
            <DistanceMeters>NAN</DistanceMeters>
          </Trackpoint>
          <Trackpoint>
            <Time>2022-09-20T13:35:08.000Z</Time>
            <Position>
              <LatitudeDegrees>49.406965635716915130615234375</LatitudeDegrees>
              <LongitudeDegrees>20.3254706226289272308349609375</LongitudeDegrees>
            </Position>
            <AltitudeMeters>472.600006103515625</AltitudeMeters>
            <DistanceMeters>NAN</DistanceMeters>
          </Trackpoint>
          <Trackpoint>
            <Time>2022-09-20T13:35:11.000Z</Time>
            <Position>
              <LatitudeDegrees>49.4069037772715091705322265625</LatitudeDegrees>
              <LongitudeDegrees>20.3256526775658130645751953125</LongitudeDegrees>
            </Position>
            <AltitudeMeters>472.600006103515625</AltitudeMeters>
            <DistanceMeters>NAN</DistanceMeters>
          </Trackpoint>
          <Trackpoint>
            <Time>2022-09-20T13:35:20.000Z</Time>
            <Position>
              <LatitudeDegrees>49.40675885416567325592041015625</LatitudeDegrees>
              <LongitudeDegrees>20.326179899275302886962890625</LongitudeDegrees>
            </Position>
            <AltitudeMeters>472.79998779296875</AltitudeMeters>
            <DistanceMeters>NAN</DistanceMeters>
          </Trackpoint>
          <Trackpoint>
            <Time>2022-09-20T13:35:24.000Z</Time>
            <Position>
              <LatitudeDegrees>49.40669230185449123382568359375</LatitudeDegrees>
              <LongitudeDegrees>20.32640093006193637847900390625</LongitudeDegrees>
            </Position>
            <AltitudeMeters>472.79998779296875</AltitudeMeters>
            <DistanceMeters>NAN</DistanceMeters>
          </Trackpoint>
          <Trackpoint>
            <Time>2022-09-20T13:35:27.000Z</Time>
            <Position>
              <LatitudeDegrees>49.4066429324448108673095703125</LatitudeDegrees>
              <LongitudeDegrees>20.326559431850910186767578125</LongitudeDegrees>
            </Position>
            <AltitudeMeters>472.79998779296875</AltitudeMeters>
            <DistanceMeters>NAN</DistanceMeters>
          </Trackpoint>
          <Trackpoint>
            <Time>2022-09-20T13:35:36.000Z</Time>
            <Position>
              <LatitudeDegrees>49.406537823379039764404296875</LatitudeDegrees>
              <LongitudeDegrees>20.32702337019145488739013671875</LongitudeDegrees>
            </Position>
            <AltitudeMeters>472.600006103515625</AltitudeMeters>
            <DistanceMeters>NAN</DistanceMeters>
          </Trackpoint>
          <Trackpoint>
            <Time>2022-09-20T13:35:41.000Z</Time>
            <Position>
              <LatitudeDegrees>49.4064776413142681121826171875</LatitudeDegrees>
              <LongitudeDegrees>20.32725387252867221832275390625</LongitudeDegrees>
            </Position>
            <AltitudeMeters>472.600006103515625</AltitudeMeters>
            <DistanceMeters>NAN</DistanceMeters>
          </Trackpoint>
          <Trackpoint>
            <Time>2022-09-20T13:35:51.000Z</Time>
            <Position>
              <LatitudeDegrees>49.40633833408355712890625</LatitudeDegrees>
              <LongitudeDegrees>20.32777505926787853240966796875</LongitudeDegrees>
            </Position>
            <AltitudeMeters>472.600006103515625</AltitudeMeters>
            <DistanceMeters>NAN</DistanceMeters>
          </Trackpoint>
          <Trackpoint>
            <Time>2022-09-20T13:35:52.000Z</Time>
            <Position>
              <LatitudeDegrees>49.40632282756268978118896484375</LatitudeDegrees>
              <LongitudeDegrees>20.3278256021440029144287109375</LongitudeDegrees>
            </Position>
            <AltitudeMeters>472.600006103515625</AltitudeMeters>
            <DistanceMeters>NAN</DistanceMeters>
          </Trackpoint>
          <Trackpoint>
            <Time>2022-09-20T13:35:59.000Z</Time>
            <Position>
              <LatitudeDegrees>49.40625376068055629730224609375</LatitudeDegrees>
              <LongitudeDegrees>20.328199602663516998291015625</LongitudeDegrees>
            </Position>
            <AltitudeMeters>472.79998779296875</AltitudeMeters>
            <DistanceMeters>NAN</DistanceMeters>
          </Trackpoint>
          <Trackpoint>
            <Time>2022-09-20T13:36:06.000Z</Time>
            <Position>
              <LatitudeDegrees>49.4061514176428318023681640625</LatitudeDegrees>
              <LongitudeDegrees>20.3285102359950542449951171875</LongitudeDegrees>
            </Position>
            <AltitudeMeters>473</AltitudeMeters>
            <DistanceMeters>NAN</DistanceMeters>
          </Trackpoint>
          <Trackpoint>
            <Time>2022-09-20T13:36:13.000Z</Time>
            <Position>
              <LatitudeDegrees>49.40601269714534282684326171875</LatitudeDegrees>
              <LongitudeDegrees>20.32886185683310031890869140625</LongitudeDegrees>
            </Position>
            <AltitudeMeters>472.79998779296875</AltitudeMeters>
            <DistanceMeters>NAN</DistanceMeters>
          </Trackpoint>
          <Trackpoint>
            <Time>2022-09-20T13:36:24.000Z</Time>
            <Position>
              <LatitudeDegrees>49.40579460002481937408447265625</LatitudeDegrees>
              <LongitudeDegrees>20.32937818206846714019775390625</LongitudeDegrees>
            </Position>
            <AltitudeMeters>473</AltitudeMeters>
            <DistanceMeters>NAN</DistanceMeters>
          </Trackpoint>
          <Trackpoint>
            <Time>2022-09-20T13:36:35.000Z</Time>
            <Position>
              <LatitudeDegrees>49.40557164140045642852783203125</LatitudeDegrees>
              <LongitudeDegrees>20.32986156642436981201171875</LongitudeDegrees>
            </Position>
            <AltitudeMeters>472.600006103515625</AltitudeMeters>
            <DistanceMeters>NAN</DistanceMeters>
          </Trackpoint>
          <Trackpoint>
            <Time>2022-09-20T13:36:43.000Z</Time>
            <Position>
              <LatitudeDegrees>49.40545789897441864013671875</LatitudeDegrees>
              <LongitudeDegrees>20.33017940819263458251953125</LongitudeDegrees>
            </Position>
            <AltitudeMeters>472.600006103515625</AltitudeMeters>
            <DistanceMeters>NAN</DistanceMeters>
          </Trackpoint>
          <Trackpoint>
            <Time>2022-09-20T13:36:50.000Z</Time>
            <Position>
              <LatitudeDegrees>49.405390508472919464111328125</LatitudeDegrees>
              <LongitudeDegrees>20.33046028576791286468505859375</LongitudeDegrees>
            </Position>
            <AltitudeMeters>472.399993896484375</AltitudeMeters>
            <DistanceMeters>NAN</DistanceMeters>
          </Trackpoint>
          <Trackpoint>
            <Time>2022-09-20T13:36:51.000Z</Time>
            <Position>
              <LatitudeDegrees>49.40538120456039905548095703125</LatitudeDegrees>
              <LongitudeDegrees>20.33050403930246829986572265625</LongitudeDegrees>
            </Position>
            <AltitudeMeters>472.399993896484375</AltitudeMeters>
            <DistanceMeters>NAN</DistanceMeters>
          </Trackpoint>
          <Trackpoint>
            <Time>2022-09-20T13:36:56.000Z</Time>
            <Position>
              <LatitudeDegrees>49.4053070247173309326171875</LatitudeDegrees>
              <LongitudeDegrees>20.33067821525037288665771484375</LongitudeDegrees>
            </Position>
            <AltitudeMeters>472.399993896484375</AltitudeMeters>
            <DistanceMeters>NAN</DistanceMeters>
          </Trackpoint>
          <Trackpoint>
            <Time>2022-09-20T13:37:03.000Z</Time>
            <Position>
              <LatitudeDegrees>49.40516687929630279541015625</LatitudeDegrees>
              <LongitudeDegrees>20.33080570399761199951171875</LongitudeDegrees>
            </Position>
            <AltitudeMeters>472.399993896484375</AltitudeMeters>
            <DistanceMeters>NAN</DistanceMeters>
          </Trackpoint>
          <Trackpoint>
            <Time>2022-09-20T13:37:08.000Z</Time>
            <Position>
              <LatitudeDegrees>49.40508951433002948760986328125</LatitudeDegrees>
              <LongitudeDegrees>20.3308746032416820526123046875</LongitudeDegrees>
            </Position>
            <AltitudeMeters>472.399993896484375</AltitudeMeters>
            <DistanceMeters>NAN</DistanceMeters>
          </Trackpoint>
          <Trackpoint>
            <Time>2022-09-20T13:37:09.000Z</Time>
            <Position>
              <LatitudeDegrees>49.40508951433002948760986328125</LatitudeDegrees>
              <LongitudeDegrees>20.3308746032416820526123046875</LongitudeDegrees>
            </Position>
            <AltitudeMeters>472.399993896484375</AltitudeMeters>
            <DistanceMeters>NAN</DistanceMeters>
          </Trackpoint>
          <Trackpoint>
            <Time>2022-09-20T13:37:10.000Z</Time>
            <Position>
              <LatitudeDegrees>49.40508297644555568695068359375</LatitudeDegrees>
              <LongitudeDegrees>20.3309151716530323028564453125</LongitudeDegrees>
            </Position>
            <AltitudeMeters>472.20001220703125</AltitudeMeters>
            <DistanceMeters>NAN</DistanceMeters>
          </Trackpoint>
          <Trackpoint>
            <Time>2022-09-20T13:37:12.000Z</Time>
            <Position>
              <LatitudeDegrees>49.40508909523487091064453125</LatitudeDegrees>
              <LongitudeDegrees>20.330969989299774169921875</LongitudeDegrees>
            </Position>
            <AltitudeMeters>472.20001220703125</AltitudeMeters>
            <DistanceMeters>NAN</DistanceMeters>
          </Trackpoint>
          <Trackpoint>
            <Time>2022-09-20T13:37:13.000Z</Time>
            <Position>
              <LatitudeDegrees>49.40509554930031299591064453125</LatitudeDegrees>
              <LongitudeDegrees>20.33100242726504802703857421875</LongitudeDegrees>
            </Position>
            <AltitudeMeters>472.20001220703125</AltitudeMeters>
            <DistanceMeters>NAN</DistanceMeters>
          </Trackpoint>
          <Trackpoint>
            <Time>2022-09-20T13:37:17.000Z</Time>
            <Position>
              <LatitudeDegrees>49.40517752431333065032958984375</LatitudeDegrees>
              <LongitudeDegrees>20.3310828097164630889892578125</LongitudeDegrees>
            </Position>
            <AltitudeMeters>472.20001220703125</AltitudeMeters>
            <DistanceMeters>NAN</DistanceMeters>
          </Trackpoint>
          <Trackpoint>
            <Time>2022-09-20T13:37:23.000Z</Time>
            <Position>
              <LatitudeDegrees>49.40530878491699695587158203125</LatitudeDegrees>
              <LongitudeDegrees>20.3310921974480152130126953125</LongitudeDegrees>
            </Position>
            <AltitudeMeters>472.20001220703125</AltitudeMeters>
            <DistanceMeters>NAN</DistanceMeters>
          </Trackpoint>
          <Trackpoint>
            <Time>2022-09-20T13:37:29.000Z</Time>
            <Position>
              <LatitudeDegrees>49.40541657619178295135498046875</LatitudeDegrees>
              <LongitudeDegrees>20.3312802873551845550537109375</LongitudeDegrees>
            </Position>
            <AltitudeMeters>472</AltitudeMeters>
            <DistanceMeters>NAN</DistanceMeters>
          </Trackpoint>
          <Trackpoint>
            <Time>2022-09-20T13:37:37.000Z</Time>
            <Position>
              <LatitudeDegrees>49.40550710074603557586669921875</LatitudeDegrees>
              <LongitudeDegrees>20.331630818545818328857421875</LongitudeDegrees>
            </Position>
            <AltitudeMeters>471.79998779296875</AltitudeMeters>
            <DistanceMeters>NAN</DistanceMeters>
          </Trackpoint>
          <Trackpoint>
            <Time>2022-09-20T13:37:45.000Z</Time>
            <Position>
              <LatitudeDegrees>49.40567926503717899322509765625</LatitudeDegrees>
              <LongitudeDegrees>20.33197657205164432525634765625</LongitudeDegrees>
            </Position>
            <AltitudeMeters>471.79998779296875</AltitudeMeters>
            <DistanceMeters>NAN</DistanceMeters>
          </Trackpoint>
          <Trackpoint>
            <Time>2022-09-20T13:37:57.000Z</Time>
            <Position>
              <LatitudeDegrees>49.40591144375503063201904296875</LatitudeDegrees>
              <LongitudeDegrees>20.3324105031788349151611328125</LongitudeDegrees>
            </Position>
            <AltitudeMeters>471.20001220703125</AltitudeMeters>
            <DistanceMeters>NAN</DistanceMeters>
          </Trackpoint>
          <Trackpoint>
            <Time>2022-09-20T13:38:07.000Z</Time>
            <Position>
              <LatitudeDegrees>49.40607690252363681793212890625</LatitudeDegrees>
              <LongitudeDegrees>20.33273329026997089385986328125</LongitudeDegrees>
            </Position>
            <AltitudeMeters>471.20001220703125</AltitudeMeters>
            <DistanceMeters>NAN</DistanceMeters>
          </Trackpoint>
          <Trackpoint>
            <Time>2022-09-20T13:38:09.000Z</Time>
            <Position>
              <LatitudeDegrees>49.406112022697925567626953125</LatitudeDegrees>
              <LongitudeDegrees>20.3327937237918376922607421875</LongitudeDegrees>
            </Position>
            <AltitudeMeters>471.20001220703125</AltitudeMeters>
            <DistanceMeters>NAN</DistanceMeters>
          </Trackpoint>
          <Trackpoint>
            <Time>2022-09-20T13:38:16.000Z</Time>
            <Position>
              <LatitudeDegrees>49.40623976290225982666015625</LatitudeDegrees>
              <LongitudeDegrees>20.3330307640135288238525390625</LongitudeDegrees>
            </Position>
            <AltitudeMeters>471.20001220703125</AltitudeMeters>
            <DistanceMeters>NAN</DistanceMeters>
          </Trackpoint>
          <Trackpoint>
            <Time>2022-09-20T13:38:25.000Z</Time>
            <Position>
              <LatitudeDegrees>49.40639893524348735809326171875</LatitudeDegrees>
              <LongitudeDegrees>20.3333291597664356231689453125</LongitudeDegrees>
            </Position>
            <AltitudeMeters>471</AltitudeMeters>
            <DistanceMeters>NAN</DistanceMeters>
          </Trackpoint>
          <Trackpoint>
            <Time>2022-09-20T13:38:33.000Z</Time>
            <Position>
              <LatitudeDegrees>49.40652566961944103240966796875</LatitudeDegrees>
              <LongitudeDegrees>20.33355756662786006927490234375</LongitudeDegrees>
            </Position>
            <AltitudeMeters>471</AltitudeMeters>
            <DistanceMeters>NAN</DistanceMeters>
          </Trackpoint>
          <Trackpoint>
            <Time>2022-09-20T13:38:43.000Z</Time>
            <Position>
              <LatitudeDegrees>49.40668676979839801788330078125</LatitudeDegrees>
              <LongitudeDegrees>20.33386166207492351531982421875</LongitudeDegrees>
            </Position>
            <AltitudeMeters>471.20001220703125</AltitudeMeters>
            <DistanceMeters>NAN</DistanceMeters>
          </Trackpoint>
          <Trackpoint>
            <Time>2022-09-20T13:38:51.000Z</Time>
            <Position>
              <LatitudeDegrees>49.40683714114129543304443359375</LatitudeDegrees>
              <LongitudeDegrees>20.33413021825253963470458984375</LongitudeDegrees>
            </Position>
            <AltitudeMeters>471</AltitudeMeters>
            <DistanceMeters>NAN</DistanceMeters>
          </Trackpoint>
          <Trackpoint>
            <Time>2022-09-20T13:39:00.000Z</Time>
            <Position>
              <LatitudeDegrees>49.40696940757334232330322265625</LatitudeDegrees>
              <LongitudeDegrees>20.33438016660511493682861328125</LongitudeDegrees>
            </Position>
            <AltitudeMeters>470.79998779296875</AltitudeMeters>
            <DistanceMeters>NAN</DistanceMeters>
          </Trackpoint>
          <Trackpoint>
            <Time>2022-09-20T13:39:02.000Z</Time>
            <Position>
              <LatitudeDegrees>49.40698273479938507080078125</LatitudeDegrees>
              <LongitudeDegrees>20.3344013728201389312744140625</LongitudeDegrees>
            </Position>
            <AltitudeMeters>471</AltitudeMeters>
            <DistanceMeters>NAN</DistanceMeters>
          </Trackpoint>
          <Trackpoint>
            <Time>2022-09-20T13:39:06.000Z</Time>
            <Position>
              <LatitudeDegrees>49.40698415972292423248291015625</LatitudeDegrees>
              <LongitudeDegrees>20.33440916799008846282958984375</LongitudeDegrees>
            </Position>
            <AltitudeMeters>471</AltitudeMeters>
            <DistanceMeters>NAN</DistanceMeters>
          </Trackpoint>
          <Trackpoint>
            <Time>2022-09-20T13:39:14.000Z</Time>
            <Position>
              <LatitudeDegrees>49.40698415972292423248291015625</LatitudeDegrees>
              <LongitudeDegrees>20.33440916799008846282958984375</LongitudeDegrees>
            </Position>
            <AltitudeMeters>471</AltitudeMeters>
            <DistanceMeters>NAN</DistanceMeters>
          </Trackpoint>
          <Trackpoint>
            <Time>2022-09-20T13:39:16.000Z</Time>
            <Position>
              <LatitudeDegrees>49.40698415972292423248291015625</LatitudeDegrees>
              <LongitudeDegrees>20.33440916799008846282958984375</LongitudeDegrees>
            </Position>
            <AltitudeMeters>471</AltitudeMeters>
            <DistanceMeters>NAN</DistanceMeters>
          </Trackpoint>
          <Trackpoint>
            <Time>2022-09-20T13:39:24.000Z</Time>
            <Position>
              <LatitudeDegrees>49.40698415972292423248291015625</LatitudeDegrees>
              <LongitudeDegrees>20.33440916799008846282958984375</LongitudeDegrees>
            </Position>
            <AltitudeMeters>471</AltitudeMeters>
            <DistanceMeters>NAN</DistanceMeters>
          </Trackpoint>
          <Trackpoint>
            <Time>2022-09-20T13:39:27.000Z</Time>
            <Position>
              <LatitudeDegrees>49.40698415972292423248291015625</LatitudeDegrees>
              <LongitudeDegrees>20.33440916799008846282958984375</LongitudeDegrees>
            </Position>
            <AltitudeMeters>471.20001220703125</AltitudeMeters>
            <DistanceMeters>NAN</DistanceMeters>
          </Trackpoint>
          <Trackpoint>
            <Time>2022-09-20T13:40:01.000Z</Time>
            <Position>
              <LatitudeDegrees>49.40698415972292423248291015625</LatitudeDegrees>
              <LongitudeDegrees>20.33440916799008846282958984375</LongitudeDegrees>
            </Position>
            <AltitudeMeters>471</AltitudeMeters>
            <DistanceMeters>NAN</DistanceMeters>
          </Trackpoint>
          <Trackpoint>
            <Time>2022-09-20T13:40:14.000Z</Time>
            <Position>
              <LatitudeDegrees>49.40698415972292423248291015625</LatitudeDegrees>
              <LongitudeDegrees>20.33440916799008846282958984375</LongitudeDegrees>
            </Position>
            <AltitudeMeters>470.79998779296875</AltitudeMeters>
            <DistanceMeters>NAN</DistanceMeters>
          </Trackpoint>
          <Trackpoint>
            <Time>2022-09-20T13:40:35.000Z</Time>
            <Position>
              <LatitudeDegrees>49.4069912843406200408935546875</LatitudeDegrees>
              <LongitudeDegrees>20.334427691996097564697265625</LongitudeDegrees>
            </Position>
            <AltitudeMeters>470.79998779296875</AltitudeMeters>
            <DistanceMeters>NAN</DistanceMeters>
          </Trackpoint>
          <Trackpoint>
            <Time>2022-09-20T13:40:36.000Z</Time>
            <Position>
              <LatitudeDegrees>49.40699690021574497222900390625</LatitudeDegrees>
              <LongitudeDegrees>20.33445191569626331329345703125</LongitudeDegrees>
            </Position>
            <AltitudeMeters>470.79998779296875</AltitudeMeters>
            <DistanceMeters>NAN</DistanceMeters>
          </Trackpoint>
          <Trackpoint>
            <Time>2022-09-20T13:40:37.000Z</Time>
            <Position>
              <LatitudeDegrees>49.40700058825314044952392578125</LatitudeDegrees>
              <LongitudeDegrees>20.33447002060711383819580078125</LongitudeDegrees>
            </Position>
            <AltitudeMeters>470.79998779296875</AltitudeMeters>
            <DistanceMeters>NAN</DistanceMeters>
          </Trackpoint>
          <Trackpoint>
            <Time>2022-09-20T13:40:42.000Z</Time>
            <Position>
              <LatitudeDegrees>49.40700477920472621917724609375</LatitudeDegrees>
              <LongitudeDegrees>20.33447563648223876953125</LongitudeDegrees>
            </Position>
            <AltitudeMeters>470.79998779296875</AltitudeMeters>
            <DistanceMeters>NAN</DistanceMeters>
          </Trackpoint>
          <Trackpoint>
            <Time>2022-09-20T13:40:45.000Z</Time>
            <Position>
              <LatitudeDegrees>49.40700477920472621917724609375</LatitudeDegrees>
              <LongitudeDegrees>20.33447563648223876953125</LongitudeDegrees>
            </Position>
            <AltitudeMeters>470.600006103515625</AltitudeMeters>
            <DistanceMeters>NAN</DistanceMeters>
          </Trackpoint>
          <Trackpoint>
            <Time>2022-09-20T13:40:57.000Z</Time>
            <Position>
              <LatitudeDegrees>49.40700159408152103424072265625</LatitudeDegrees>
              <LongitudeDegrees>20.3344850242137908935546875</LongitudeDegrees>
            </Position>
            <AltitudeMeters>471</AltitudeMeters>
            <DistanceMeters>NAN</DistanceMeters>
          </Trackpoint>
          <Trackpoint>
            <Time>2022-09-20T13:41:11.000Z</Time>
            <Position>
              <LatitudeDegrees>49.4070318527519702911376953125</LatitudeDegrees>
              <LongitudeDegrees>20.334515534341335296630859375</LongitudeDegrees>
            </Position>
            <AltitudeMeters>471</AltitudeMeters>
            <DistanceMeters>NAN</DistanceMeters>
          </Trackpoint>
          <Trackpoint>
            <Time>2022-09-20T13:41:12.000Z</Time>
            <Position>
              <LatitudeDegrees>49.40704082138836383819580078125</LatitudeDegrees>
              <LongitudeDegrees>20.33453020267188549041748046875</LongitudeDegrees>
            </Position>
            <AltitudeMeters>471</AltitudeMeters>
            <DistanceMeters>NAN</DistanceMeters>
          </Trackpoint>
          <Trackpoint>
            <Time>2022-09-20T13:41:20.000Z</Time>
            <Position>
              <LatitudeDegrees>49.4071067869663238525390625</LatitudeDegrees>
              <LongitudeDegrees>20.3346209786832332611083984375</LongitudeDegrees>
            </Position>
            <AltitudeMeters>471.20001220703125</AltitudeMeters>
            <DistanceMeters>NAN</DistanceMeters>
          </Trackpoint>
          <Trackpoint>
            <Time>2022-09-20T13:41:21.000Z</Time>
            <Position>
              <LatitudeDegrees>49.4071067869663238525390625</LatitudeDegrees>
              <LongitudeDegrees>20.3346209786832332611083984375</LongitudeDegrees>
            </Position>
            <AltitudeMeters>471.399993896484375</AltitudeMeters>
            <DistanceMeters>NAN</DistanceMeters>
          </Trackpoint>
          <Trackpoint>
            <Time>2022-09-20T13:41:22.000Z</Time>
            <Position>
              <LatitudeDegrees>49.407117851078510284423828125</LatitudeDegrees>
              <LongitudeDegrees>20.33464729785919189453125</LongitudeDegrees>
            </Position>
            <AltitudeMeters>471.399993896484375</AltitudeMeters>
            <DistanceMeters>NAN</DistanceMeters>
          </Trackpoint>
          <Trackpoint>
            <Time>2022-09-20T13:41:27.000Z</Time>
            <Position>
              <LatitudeDegrees>49.40715095959603786468505859375</LatitudeDegrees>
              <LongitudeDegrees>20.33470907248556613922119140625</LongitudeDegrees>
            </Position>
            <AltitudeMeters>471.399993896484375</AltitudeMeters>
            <DistanceMeters>NAN</DistanceMeters>
          </Trackpoint>
          <Trackpoint>
            <Time>2022-09-20T13:41:28.000Z</Time>
            <Position>
              <LatitudeDegrees>49.4071575812995433807373046875</LatitudeDegrees>
              <LongitudeDegrees>20.33472307026386260986328125</LongitudeDegrees>
            </Position>
            <AltitudeMeters>471.600006103515625</AltitudeMeters>
            <DistanceMeters>NAN</DistanceMeters>
          </Trackpoint>
          <Trackpoint>
            <Time>2022-09-20T13:41:31.000Z</Time>
            <Position>
              <LatitudeDegrees>49.40715280361473560333251953125</LatitudeDegrees>
              <LongitudeDegrees>20.33476707525551319122314453125</LongitudeDegrees>
            </Position>
            <AltitudeMeters>471.79998779296875</AltitudeMeters>
            <DistanceMeters>NAN</DistanceMeters>
          </Trackpoint>
          <Trackpoint>
            <Time>2022-09-20T13:41:33.000Z</Time>
            <Position>
              <LatitudeDegrees>49.40716017968952655792236328125</LatitudeDegrees>
              <LongitudeDegrees>20.3347896225750446319580078125</LongitudeDegrees>
            </Position>
            <AltitudeMeters>471.79998779296875</AltitudeMeters>
            <DistanceMeters>NAN</DistanceMeters>
          </Trackpoint>
          <Trackpoint>
            <Time>2022-09-20T13:41:38.000Z</Time>
            <Position>
              <LatitudeDegrees>49.40718515776097774505615234375</LatitudeDegrees>
              <LongitudeDegrees>20.33485542051494121551513671875</LongitudeDegrees>
            </Position>
            <AltitudeMeters>472.20001220703125</AltitudeMeters>
            <DistanceMeters>NAN</DistanceMeters>
          </Trackpoint>
          <Trackpoint>
            <Time>2022-09-20T13:41:39.000Z</Time>
            <Position>
              <LatitudeDegrees>49.40719001926481723785400390625</LatitudeDegrees>
              <LongitudeDegrees>20.334870256483554840087890625</LongitudeDegrees>
            </Position>
            <AltitudeMeters>472.20001220703125</AltitudeMeters>
            <DistanceMeters>NAN</DistanceMeters>
          </Trackpoint>
          <Trackpoint>
            <Time>2022-09-20T13:41:43.000Z</Time>
            <Position>
              <LatitudeDegrees>49.40721399150788784027099609375</LatitudeDegrees>
              <LongitudeDegrees>20.33492532558739185333251953125</LongitudeDegrees>
            </Position>
            <AltitudeMeters>472.399993896484375</AltitudeMeters>
            <DistanceMeters>NAN</DistanceMeters>
          </Trackpoint>
          <Trackpoint>
            <Time>2022-09-20T13:41:44.000Z</Time>
            <Position>
              <LatitudeDegrees>49.40721902064979076385498046875</LatitudeDegrees>
              <LongitudeDegrees>20.3349394910037517547607421875</LongitudeDegrees>
            </Position>
            <AltitudeMeters>472.399993896484375</AltitudeMeters>
            <DistanceMeters>NAN</DistanceMeters>
          </Trackpoint>
          <Trackpoint>
            <Time>2022-09-20T13:41:47.000Z</Time>
            <Position>
              <LatitudeDegrees>49.4072289951145648956298828125</LatitudeDegrees>
              <LongitudeDegrees>20.334963463246822357177734375</LongitudeDegrees>
            </Position>
            <AltitudeMeters>472.79998779296875</AltitudeMeters>
            <DistanceMeters>NAN</DistanceMeters>
          </Trackpoint>
          <Trackpoint>
            <Time>2022-09-20T13:41:48.000Z</Time>
            <Position>
              <LatitudeDegrees>49.407239891588687896728515625</LatitudeDegrees>
              <LongitudeDegrees>20.33498601056635379791259765625</LongitudeDegrees>
            </Position>
            <AltitudeMeters>472.79998779296875</AltitudeMeters>
            <DistanceMeters>NAN</DistanceMeters>
          </Trackpoint>
          <Trackpoint>
            <Time>2022-09-20T13:41:53.000Z</Time>
            <Position>
              <LatitudeDegrees>49.40725632011890411376953125</LatitudeDegrees>
              <LongitudeDegrees>20.33504233695566654205322265625</LongitudeDegrees>
            </Position>
            <AltitudeMeters>473.20001220703125</AltitudeMeters>
            <DistanceMeters>NAN</DistanceMeters>
          </Trackpoint>
          <Trackpoint>
            <Time>2022-09-20T13:41:54.000Z</Time>
            <Position>
              <LatitudeDegrees>49.40726109780371189117431640625</LatitudeDegrees>
              <LongitudeDegrees>20.33505239523947238922119140625</LongitudeDegrees>
            </Position>
            <AltitudeMeters>473.399993896484375</AltitudeMeters>
            <DistanceMeters>NAN</DistanceMeters>
          </Trackpoint>
          <Trackpoint>
            <Time>2022-09-20T13:41:59.000Z</Time>
            <Position>
              <LatitudeDegrees>49.40728758461773395538330078125</LatitudeDegrees>
              <LongitudeDegrees>20.33512012101709842681884765625</LongitudeDegrees>
            </Position>
            <AltitudeMeters>473.600006103515625</AltitudeMeters>
            <DistanceMeters>NAN</DistanceMeters>
          </Trackpoint>
          <Trackpoint>
            <Time>2022-09-20T13:42:02.000Z</Time>
            <Position>
              <LatitudeDegrees>49.40729110501706600189208984375</LatitudeDegrees>
              <LongitudeDegrees>20.33515783958137035369873046875</LongitudeDegrees>
            </Position>
            <AltitudeMeters>473.79998779296875</AltitudeMeters>
            <DistanceMeters>NAN</DistanceMeters>
          </Trackpoint>
          <Trackpoint>
            <Time>2022-09-20T13:42:03.000Z</Time>
            <Position>
              <LatitudeDegrees>49.40729211084544658660888671875</LatitudeDegrees>
              <LongitudeDegrees>20.3351708315312862396240234375</LongitudeDegrees>
            </Position>
            <AltitudeMeters>473.79998779296875</AltitudeMeters>
            <DistanceMeters>NAN</DistanceMeters>
          </Trackpoint>
          <Trackpoint>
            <Time>2022-09-20T13:42:06.000Z</Time>
            <Position>
              <LatitudeDegrees>49.40729227848351001739501953125</LatitudeDegrees>
              <LongitudeDegrees>20.33520930446684360504150390625</LongitudeDegrees>
            </Position>
            <AltitudeMeters>474</AltitudeMeters>
            <DistanceMeters>NAN</DistanceMeters>
          </Trackpoint>
          <Trackpoint>
            <Time>2022-09-20T13:42:09.000Z</Time>
            <Position>
              <LatitudeDegrees>49.40729496069252490997314453125</LatitudeDegrees>
              <LongitudeDegrees>20.33522355370223522186279296875</LongitudeDegrees>
            </Position>
            <AltitudeMeters>474.399993896484375</AltitudeMeters>
            <DistanceMeters>NAN</DistanceMeters>
          </Trackpoint>
          <Trackpoint>
            <Time>2022-09-20T13:42:11.000Z</Time>
            <Position>
              <LatitudeDegrees>49.40729496069252490997314453125</LatitudeDegrees>
              <LongitudeDegrees>20.33522355370223522186279296875</LongitudeDegrees>
            </Position>
            <AltitudeMeters>474.600006103515625</AltitudeMeters>
            <DistanceMeters>NAN</DistanceMeters>
          </Trackpoint>
          <Trackpoint>
            <Time>2022-09-20T13:42:17.000Z</Time>
            <Position>
              <LatitudeDegrees>49.40729496069252490997314453125</LatitudeDegrees>
              <LongitudeDegrees>20.33522355370223522186279296875</LongitudeDegrees>
            </Position>
            <AltitudeMeters>474.600006103515625</AltitudeMeters>
            <DistanceMeters>NAN</DistanceMeters>
          </Trackpoint>
          <Trackpoint>
            <Time>2022-09-20T13:42:21.000Z</Time>
            <Position>
              <LatitudeDegrees>49.40729496069252490997314453125</LatitudeDegrees>
              <LongitudeDegrees>20.33522355370223522186279296875</LongitudeDegrees>
            </Position>
            <AltitudeMeters>474.600006103515625</AltitudeMeters>
            <DistanceMeters>NAN</DistanceMeters>
          </Trackpoint>
          <Trackpoint>
            <Time>2022-09-20T13:42:23.000Z</Time>
            <Position>
              <LatitudeDegrees>49.40729496069252490997314453125</LatitudeDegrees>
              <LongitudeDegrees>20.33522355370223522186279296875</LongitudeDegrees>
            </Position>
            <AltitudeMeters>474.600006103515625</AltitudeMeters>
            <DistanceMeters>NAN</DistanceMeters>
          </Trackpoint>
          <Trackpoint>
            <Time>2022-09-20T13:42:28.000Z</Time>
            <Position>
              <LatitudeDegrees>49.407294206321239471435546875</LatitudeDegrees>
              <LongitudeDegrees>20.33530200831592082977294921875</LongitudeDegrees>
            </Position>
            <AltitudeMeters>474.600006103515625</AltitudeMeters>
            <DistanceMeters>NAN</DistanceMeters>
          </Trackpoint>
          <Trackpoint>
            <Time>2022-09-20T13:42:38.000Z</Time>
            <Position>
              <LatitudeDegrees>49.40731541253626346588134765625</LatitudeDegrees>
              <LongitudeDegrees>20.3354574926197528839111328125</LongitudeDegrees>
            </Position>
            <AltitudeMeters>475.399993896484375</AltitudeMeters>
            <DistanceMeters>NAN</DistanceMeters>
          </Trackpoint>
          <Trackpoint>
            <Time>2022-09-20T13:42:45.000Z</Time>
            <Position>
              <LatitudeDegrees>49.40728624351322650909423828125</LatitudeDegrees>
              <LongitudeDegrees>20.33553888089954853057861328125</LongitudeDegrees>
            </Position>
            <AltitudeMeters>476.20001220703125</AltitudeMeters>
            <DistanceMeters>NAN</DistanceMeters>
          </Trackpoint>
          <Trackpoint>
            <Time>2022-09-20T13:42:51.000Z</Time>
            <Position>
              <LatitudeDegrees>49.40729194320738315582275390625</LatitudeDegrees>
              <LongitudeDegrees>20.33561431802809238433837890625</LongitudeDegrees>
            </Position>
            <AltitudeMeters>476.399993896484375</AltitudeMeters>
            <DistanceMeters>NAN</DistanceMeters>
          </Trackpoint>
          <Trackpoint>
            <Time>2022-09-20T13:42:52.000Z</Time>
            <Position>
              <LatitudeDegrees>49.407292865216732025146484375</LatitudeDegrees>
              <LongitudeDegrees>20.33562370575964450836181640625</LongitudeDegrees>
            </Position>
            <AltitudeMeters>476.399993896484375</AltitudeMeters>
            <DistanceMeters>NAN</DistanceMeters>
          </Trackpoint>
          <Trackpoint>
            <Time>2022-09-20T13:42:57.000Z</Time>
            <Position>
              <LatitudeDegrees>49.4072950445115566253662109375</LatitudeDegrees>
              <LongitudeDegrees>20.3356787748634815216064453125</LongitudeDegrees>
            </Position>
            <AltitudeMeters>476.79998779296875</AltitudeMeters>
            <DistanceMeters>NAN</DistanceMeters>
          </Trackpoint>
          <Trackpoint>
            <Time>2022-09-20T13:43:00.000Z</Time>
            <Position>
              <LatitudeDegrees>49.407300241291522979736328125</LatitudeDegrees>
              <LongitudeDegrees>20.3357173316180706024169921875</LongitudeDegrees>
            </Position>
            <AltitudeMeters>477</AltitudeMeters>
            <DistanceMeters>NAN</DistanceMeters>
          </Trackpoint>
          <Trackpoint>
            <Time>2022-09-20T13:43:05.000Z</Time>
            <Position>
              <LatitudeDegrees>49.40730518661439418792724609375</LatitudeDegrees>
              <LongitudeDegrees>20.33579058945178985595703125</LongitudeDegrees>
            </Position>
            <AltitudeMeters>477</AltitudeMeters>
            <DistanceMeters>NAN</DistanceMeters>
          </Trackpoint>
          <Trackpoint>
            <Time>2022-09-20T13:43:10.000Z</Time>
            <Position>
              <LatitudeDegrees>49.40731356851756572723388671875</LatitudeDegrees>
              <LongitudeDegrees>20.335855297744274139404296875</LongitudeDegrees>
            </Position>
            <AltitudeMeters>477.399993896484375</AltitudeMeters>
            <DistanceMeters>NAN</DistanceMeters>
          </Trackpoint>
          <Trackpoint>
            <Time>2022-09-20T13:43:13.000Z</Time>
            <Position>
              <LatitudeDegrees>49.40732471644878387451171875</LatitudeDegrees>
              <LongitudeDegrees>20.335901565849781036376953125</LongitudeDegrees>
            </Position>
            <AltitudeMeters>477.399993896484375</AltitudeMeters>
            <DistanceMeters>NAN</DistanceMeters>
          </Trackpoint>
          <Trackpoint>
            <Time>2022-09-20T13:43:18.000Z</Time>
            <Position>
              <LatitudeDegrees>49.40734039060771465301513671875</LatitudeDegrees>
              <LongitudeDegrees>20.33595680259168148040771484375</LongitudeDegrees>
            </Position>
            <AltitudeMeters>477.600006103515625</AltitudeMeters>
            <DistanceMeters>NAN</DistanceMeters>
          </Trackpoint>
          <Trackpoint>
            <Time>2022-09-20T13:43:22.000Z</Time>
            <Position>
              <LatitudeDegrees>49.4073535501956939697265625</LatitudeDegrees>
              <LongitudeDegrees>20.336009524762630462646484375</LongitudeDegrees>
            </Position>
            <AltitudeMeters>477.79998779296875</AltitudeMeters>
            <DistanceMeters>NAN</DistanceMeters>
          </Trackpoint>
          <Trackpoint>
            <Time>2022-09-20T13:43:27.000Z</Time>
            <Position>
              <LatitudeDegrees>49.40733334980905055999755859375</LatitudeDegrees>
              <LongitudeDegrees>20.33607758581638336181640625</LongitudeDegrees>
            </Position>
            <AltitudeMeters>478</AltitudeMeters>
            <DistanceMeters>NAN</DistanceMeters>
          </Trackpoint>
          <Trackpoint>
            <Time>2022-09-20T13:43:32.000Z</Time>
            <Position>
              <LatitudeDegrees>49.40733536146581172943115234375</LatitudeDegrees>
              <LongitudeDegrees>20.33613684587180614471435546875</LongitudeDegrees>
            </Position>
            <AltitudeMeters>478.399993896484375</AltitudeMeters>
            <DistanceMeters>NAN</DistanceMeters>
          </Trackpoint>
          <Trackpoint>
            <Time>2022-09-20T13:43:35.000Z</Time>
            <Position>
              <LatitudeDegrees>49.40733100287616252899169921875</LatitudeDegrees>
              <LongitudeDegrees>20.33617322333157062530517578125</LongitudeDegrees>
            </Position>
            <AltitudeMeters>478.600006103515625</AltitudeMeters>
            <DistanceMeters>NAN</DistanceMeters>
          </Trackpoint>
          <Trackpoint>
            <Time>2022-09-20T13:43:36.000Z</Time>
            <Position>
              <LatitudeDegrees>49.40733770839869976043701171875</LatitudeDegrees>
              <LongitudeDegrees>20.33618629910051822662353515625</LongitudeDegrees>
            </Position>
            <AltitudeMeters>478.600006103515625</AltitudeMeters>
            <DistanceMeters>NAN</DistanceMeters>
          </Trackpoint>
          <Trackpoint>
            <Time>2022-09-20T13:43:39.000Z</Time>
            <Position>
              <LatitudeDegrees>49.4073530472815036773681640625</LatitudeDegrees>
              <LongitudeDegrees>20.33622804097831249237060546875</LongitudeDegrees>
            </Position>
            <AltitudeMeters>478.79998779296875</AltitudeMeters>
            <DistanceMeters>NAN</DistanceMeters>
          </Trackpoint>
          <Trackpoint>
            <Time>2022-09-20T13:43:46.000Z</Time>
            <Position>
              <LatitudeDegrees>49.40735899843275547027587890625</LatitudeDegrees>
              <LongitudeDegrees>20.33632074482738971710205078125</LongitudeDegrees>
            </Position>
            <AltitudeMeters>479.399993896484375</AltitudeMeters>
            <DistanceMeters>NAN</DistanceMeters>
          </Trackpoint>
          <Trackpoint>
            <Time>2022-09-20T13:43:48.000Z</Time>
            <Position>
              <LatitudeDegrees>49.40736000426113605499267578125</LatitudeDegrees>
              <LongitudeDegrees>20.336350835859775543212890625</LongitudeDegrees>
            </Position>
            <AltitudeMeters>479.600006103515625</AltitudeMeters>
            <DistanceMeters>NAN</DistanceMeters>
          </Trackpoint>
          <Trackpoint>
            <Time>2022-09-20T13:43:50.000Z</Time>
            <Position>
              <LatitudeDegrees>49.40736318938434123992919921875</LatitudeDegrees>
              <LongitudeDegrees>20.3363795019686222076416015625</LongitudeDegrees>
            </Position>
            <AltitudeMeters>479.79998779296875</AltitudeMeters>
            <DistanceMeters>NAN</DistanceMeters>
          </Trackpoint>
          <Trackpoint>
            <Time>2022-09-20T13:43:51.000Z</Time>
            <Position>
              <LatitudeDegrees>49.40736092627048492431640625</LatitudeDegrees>
              <LongitudeDegrees>20.3363935835659503936767578125</LongitudeDegrees>
            </Position>
            <AltitudeMeters>480</AltitudeMeters>
            <DistanceMeters>NAN</DistanceMeters>
          </Trackpoint>
          <Trackpoint>
            <Time>2022-09-20T13:43:57.000Z</Time>
            <Position>
              <LatitudeDegrees>49.40735287964344024658203125</LatitudeDegrees>
              <LongitudeDegrees>20.3364693559706211090087890625</LongitudeDegrees>
            </Position>
            <AltitudeMeters>480.399993896484375</AltitudeMeters>
            <DistanceMeters>NAN</DistanceMeters>
          </Trackpoint>
          <Trackpoint>
            <Time>2022-09-20T13:43:58.000Z</Time>
            <Position>
              <LatitudeDegrees>49.40735287964344024658203125</LatitudeDegrees>
              <LongitudeDegrees>20.3364693559706211090087890625</LongitudeDegrees>
            </Position>
            <AltitudeMeters>480.399993896484375</AltitudeMeters>
            <DistanceMeters>NAN</DistanceMeters>
          </Trackpoint>
          <Trackpoint>
            <Time>2022-09-20T13:44:03.000Z</Time>
            <Position>
              <LatitudeDegrees>49.40735287964344024658203125</LatitudeDegrees>
              <LongitudeDegrees>20.3364693559706211090087890625</LongitudeDegrees>
            </Position>
            <AltitudeMeters>480.600006103515625</AltitudeMeters>
            <DistanceMeters>NAN</DistanceMeters>
          </Trackpoint>
          <Trackpoint>
            <Time>2022-09-20T13:44:07.000Z</Time>
            <Position>
              <LatitudeDegrees>49.407349526882171630859375</LatitudeDegrees>
              <LongitudeDegrees>20.3364951722323894500732421875</LongitudeDegrees>
            </Position>
            <AltitudeMeters>480.600006103515625</AltitudeMeters>
            <DistanceMeters>NAN</DistanceMeters>
          </Trackpoint>
          <Trackpoint>
            <Time>2022-09-20T13:44:10.000Z</Time>
            <Position>
              <LatitudeDegrees>49.407345838844776153564453125</LatitudeDegrees>
              <LongitudeDegrees>20.33651989884674549102783203125</LongitudeDegrees>
            </Position>
            <AltitudeMeters>480.79998779296875</AltitudeMeters>
            <DistanceMeters>NAN</DistanceMeters>
          </Trackpoint>
          <Trackpoint>
            <Time>2022-09-20T13:44:17.000Z</Time>
            <Position>
              <LatitudeDegrees>49.4073267281055450439453125</LatitudeDegrees>
              <LongitudeDegrees>20.33661310561001300811767578125</LongitudeDegrees>
            </Position>
            <AltitudeMeters>481.20001220703125</AltitudeMeters>
            <DistanceMeters>NAN</DistanceMeters>
          </Trackpoint>
          <Trackpoint>
            <Time>2022-09-20T13:44:24.000Z</Time>
            <Position>
              <LatitudeDegrees>49.4073208607733249664306640625</LatitudeDegrees>
              <LongitudeDegrees>20.33669591881334781646728515625</LongitudeDegrees>
            </Position>
            <AltitudeMeters>481.600006103515625</AltitudeMeters>
            <DistanceMeters>NAN</DistanceMeters>
          </Trackpoint>
          <Trackpoint>
            <Time>2022-09-20T13:44:27.000Z</Time>
            <Position>
              <LatitudeDegrees>49.40730728209018707275390625</LatitudeDegrees>
              <LongitudeDegrees>20.336739085614681243896484375</LongitudeDegrees>
            </Position>
            <AltitudeMeters>481.600006103515625</AltitudeMeters>
            <DistanceMeters>NAN</DistanceMeters>
          </Trackpoint>
          <Trackpoint>
            <Time>2022-09-20T13:44:30.000Z</Time>
            <Position>
              <LatitudeDegrees>49.4072963856160640716552734375</LatitudeDegrees>
              <LongitudeDegrees>20.3367560170590877532958984375</LongitudeDegrees>
            </Position>
            <AltitudeMeters>481.79998779296875</AltitudeMeters>
            <DistanceMeters>NAN</DistanceMeters>
          </Trackpoint>
          <Trackpoint>
            <Time>2022-09-20T13:44:31.000Z</Time>
            <Position>
              <LatitudeDegrees>49.40729211084544658660888671875</LatitudeDegrees>
              <LongitudeDegrees>20.33676481805741786956787109375</LongitudeDegrees>
            </Position>
            <AltitudeMeters>481.79998779296875</AltitudeMeters>
            <DistanceMeters>NAN</DistanceMeters>
          </Trackpoint>
          <Trackpoint>
            <Time>2022-09-20T13:44:41.000Z</Time>
            <Position>
              <LatitudeDegrees>49.4072869978845119476318359375</LatitudeDegrees>
              <LongitudeDegrees>20.33689054660499095916748046875</LongitudeDegrees>
            </Position>
            <AltitudeMeters>482.20001220703125</AltitudeMeters>
            <DistanceMeters>NAN</DistanceMeters>
          </Trackpoint>
          <Trackpoint>
            <Time>2022-09-20T13:44:46.000Z</Time>
            <Position>
              <LatitudeDegrees>49.40729982219636440277099609375</LatitudeDegrees>
              <LongitudeDegrees>20.3369365632534027099609375</LongitudeDegrees>
            </Position>
            <AltitudeMeters>482.600006103515625</AltitudeMeters>
            <DistanceMeters>NAN</DistanceMeters>
          </Trackpoint>
          <Trackpoint>
            <Time>2022-09-20T13:44:54.000Z</Time>
            <Position>
              <LatitudeDegrees>49.407260678708553314208984375</LatitudeDegrees>
              <LongitudeDegrees>20.33698006533086299896240234375</LongitudeDegrees>
            </Position>
            <AltitudeMeters>483.20001220703125</AltitudeMeters>
            <DistanceMeters>NAN</DistanceMeters>
          </Trackpoint>
          <Trackpoint>
            <Time>2022-09-20T13:45:00.000Z</Time>
            <Position>
              <LatitudeDegrees>49.4072462618350982666015625</LatitudeDegrees>
              <LongitudeDegrees>20.33704561181366443634033203125</LongitudeDegrees>
            </Position>
            <AltitudeMeters>483.20001220703125</AltitudeMeters>
            <DistanceMeters>NAN</DistanceMeters>
          </Trackpoint>
          <Trackpoint>
            <Time>2022-09-20T13:45:01.000Z</Time>
            <Position>
              <LatitudeDegrees>49.4072417356073856353759765625</LatitudeDegrees>
              <LongitudeDegrees>20.3370572626590728759765625</LongitudeDegrees>
            </Position>
            <AltitudeMeters>483.399993896484375</AltitudeMeters>
            <DistanceMeters>NAN</DistanceMeters>
          </Trackpoint>
          <Trackpoint>
            <Time>2022-09-20T13:45:06.000Z</Time>
            <Position>
              <LatitudeDegrees>49.4072534702718257904052734375</LatitudeDegrees>
              <LongitudeDegrees>20.33712876029312610626220703125</LongitudeDegrees>
            </Position>
            <AltitudeMeters>483.600006103515625</AltitudeMeters>
            <DistanceMeters>NAN</DistanceMeters>
          </Trackpoint>
          <Trackpoint>
            <Time>2022-09-20T13:45:07.000Z</Time>
            <Position>
              <LatitudeDegrees>49.40725254826247692108154296875</LatitudeDegrees>
              <LongitudeDegrees>20.33713881857693195343017578125</LongitudeDegrees>
            </Position>
            <AltitudeMeters>483.79998779296875</AltitudeMeters>
            <DistanceMeters>NAN</DistanceMeters>
          </Trackpoint>
          <Trackpoint>
            <Time>2022-09-20T13:45:10.000Z</Time>
            <Position>
              <LatitudeDegrees>49.407251290977001190185546875</LatitudeDegrees>
              <LongitudeDegrees>20.3371724300086498260498046875</LongitudeDegrees>
            </Position>
            <AltitudeMeters>484</AltitudeMeters>
            <DistanceMeters>NAN</DistanceMeters>
          </Trackpoint>
          <Trackpoint>
            <Time>2022-09-20T13:45:13.000Z</Time>
            <Position>
              <LatitudeDegrees>49.4072534702718257904052734375</LatitudeDegrees>
              <LongitudeDegrees>20.3372103162109851837158203125</LongitudeDegrees>
            </Position>
            <AltitudeMeters>484.20001220703125</AltitudeMeters>
            <DistanceMeters>NAN</DistanceMeters>
          </Trackpoint>
          <Trackpoint>
            <Time>2022-09-20T13:45:20.000Z</Time>
            <Position>
              <LatitudeDegrees>49.407265372574329376220703125</LatitudeDegrees>
              <LongitudeDegrees>20.3372968174517154693603515625</LongitudeDegrees>
            </Position>
            <AltitudeMeters>484.600006103515625</AltitudeMeters>
            <DistanceMeters>NAN</DistanceMeters>
          </Trackpoint>
          <Trackpoint>
            <Time>2022-09-20T13:45:23.000Z</Time>
            <Position>
              <LatitudeDegrees>49.407281465828418731689453125</LatitudeDegrees>
              <LongitudeDegrees>20.33734023571014404296875</LongitudeDegrees>
            </Position>
            <AltitudeMeters>484.79998779296875</AltitudeMeters>
            <DistanceMeters>NAN</DistanceMeters>
          </Trackpoint>
          <Trackpoint>
            <Time>2022-09-20T13:45:28.000Z</Time>
            <Position>
              <LatitudeDegrees>49.40728657878935337066650390625</LatitudeDegrees>
              <LongitudeDegrees>20.33740787766873836517333984375</LongitudeDegrees>
            </Position>
            <AltitudeMeters>485</AltitudeMeters>
            <DistanceMeters>NAN</DistanceMeters>
          </Trackpoint>
          <Trackpoint>
            <Time>2022-09-20T13:45:30.000Z</Time>
            <Position>
              <LatitudeDegrees>49.40728892572224140167236328125</LatitudeDegrees>
              <LongitudeDegrees>20.3374376334249973297119140625</LongitudeDegrees>
            </Position>
            <AltitudeMeters>485.20001220703125</AltitudeMeters>
            <DistanceMeters>NAN</DistanceMeters>
          </Trackpoint>
          <Trackpoint>
            <Time>2022-09-20T13:45:35.000Z</Time>
            <Position>
              <LatitudeDegrees>49.40728272311389446258544921875</LatitudeDegrees>
              <LongitudeDegrees>20.33749823458492755889892578125</LongitudeDegrees>
            </Position>
            <AltitudeMeters>485.79998779296875</AltitudeMeters>
            <DistanceMeters>NAN</DistanceMeters>
          </Trackpoint>
          <Trackpoint>
            <Time>2022-09-20T13:45:39.000Z</Time>
            <Position>
              <LatitudeDegrees>49.407268054783344268798828125</LatitudeDegrees>
              <LongitudeDegrees>20.33754919655621051788330078125</LongitudeDegrees>
            </Position>
            <AltitudeMeters>486</AltitudeMeters>
            <DistanceMeters>NAN</DistanceMeters>
          </Trackpoint>
          <Trackpoint>
            <Time>2022-09-20T13:45:44.000Z</Time>
            <Position>
              <LatitudeDegrees>49.40727367065846920013427734375</LatitudeDegrees>
              <LongitudeDegrees>20.3376220352947711944580078125</LongitudeDegrees>
            </Position>
            <AltitudeMeters>486.399993896484375</AltitudeMeters>
            <DistanceMeters>NAN</DistanceMeters>
          </Trackpoint>
          <Trackpoint>
            <Time>2022-09-20T13:45:45.000Z</Time>
            <Position>
              <LatitudeDegrees>49.40727467648684978485107421875</LatitudeDegrees>
              <LongitudeDegrees>20.3376367874443531036376953125</LongitudeDegrees>
            </Position>
            <AltitudeMeters>486.399993896484375</AltitudeMeters>
            <DistanceMeters>NAN</DistanceMeters>
          </Trackpoint>
          <Trackpoint>
            <Time>2022-09-20T13:45:48.000Z</Time>
            <Position>
              <LatitudeDegrees>49.40727501176297664642333984375</LatitudeDegrees>
              <LongitudeDegrees>20.337664783000946044921875</LongitudeDegrees>
            </Position>
            <AltitudeMeters>486.600006103515625</AltitudeMeters>
            <DistanceMeters>NAN</DistanceMeters>
          </Trackpoint>
          <Trackpoint>
            <Time>2022-09-20T13:45:51.000Z</Time>
            <Position>
              <LatitudeDegrees>49.40728238783776760101318359375</LatitudeDegrees>
              <LongitudeDegrees>20.3377075307071208953857421875</LongitudeDegrees>
            </Position>
            <AltitudeMeters>486.79998779296875</AltitudeMeters>
            <DistanceMeters>NAN</DistanceMeters>
          </Trackpoint>
          <Trackpoint>
            <Time>2022-09-20T13:45:57.000Z</Time>
            <Position>
              <LatitudeDegrees>49.4072692282497882843017578125</LatitudeDegrees>
              <LongitudeDegrees>20.3377859853208065032958984375</LongitudeDegrees>
            </Position>
            <AltitudeMeters>487</AltitudeMeters>
            <DistanceMeters>NAN</DistanceMeters>
          </Trackpoint>
          <Trackpoint>
            <Time>2022-09-20T13:46:01.000Z</Time>
            <Position>
              <LatitudeDegrees>49.40726964734494686126708984375</LatitudeDegrees>
              <LongitudeDegrees>20.337845496833324432373046875</LongitudeDegrees>
            </Position>
            <AltitudeMeters>487.399993896484375</AltitudeMeters>
            <DistanceMeters>NAN</DistanceMeters>
          </Trackpoint>
          <Trackpoint>
            <Time>2022-09-20T13:46:04.000Z</Time>
            <Position>
              <LatitudeDegrees>49.40727903507649898529052734375</LatitudeDegrees>
              <LongitudeDegrees>20.33789335750043392181396484375</LongitudeDegrees>
            </Position>
            <AltitudeMeters>487.600006103515625</AltitudeMeters>
            <DistanceMeters>NAN</DistanceMeters>
          </Trackpoint>
          <Trackpoint>
            <Time>2022-09-20T13:46:05.000Z</Time>
            <Position>
              <LatitudeDegrees>49.40728104673326015472412109375</LatitudeDegrees>
              <LongitudeDegrees>20.337909199297428131103515625</LongitudeDegrees>
            </Position>
            <AltitudeMeters>487.79998779296875</AltitudeMeters>
            <DistanceMeters>NAN</DistanceMeters>
          </Trackpoint>
          <Trackpoint>
            <Time>2022-09-20T13:46:07.000Z</Time>
            <Position>
              <LatitudeDegrees>49.4072809629142284393310546875</LatitudeDegrees>
              <LongitudeDegrees>20.33793342299759387969970703125</LongitudeDegrees>
            </Position>
            <AltitudeMeters>488</AltitudeMeters>
            <DistanceMeters>NAN</DistanceMeters>
          </Trackpoint>
          <Trackpoint>
            <Time>2022-09-20T13:46:14.000Z</Time>
            <Position>
              <LatitudeDegrees>49.4072719104588031768798828125</LatitudeDegrees>
              <LongitudeDegrees>20.338023863732814788818359375</LongitudeDegrees>
            </Position>
            <AltitudeMeters>488.399993896484375</AltitudeMeters>
            <DistanceMeters>NAN</DistanceMeters>
          </Trackpoint>
          <Trackpoint>
            <Time>2022-09-20T13:46:20.000Z</Time>
            <Position>
              <LatitudeDegrees>49.4072730839252471923828125</LatitudeDegrees>
              <LongitudeDegrees>20.3380984626710414886474609375</LongitudeDegrees>
            </Position>
            <AltitudeMeters>488.79998779296875</AltitudeMeters>
            <DistanceMeters>NAN</DistanceMeters>
          </Trackpoint>
          <Trackpoint>
            <Time>2022-09-20T13:46:24.000Z</Time>
            <Position>
              <LatitudeDegrees>49.40725690685212612152099609375</LatitudeDegrees>
              <LongitudeDegrees>20.33814749680459499359130859375</LongitudeDegrees>
            </Position>
            <AltitudeMeters>489.20001220703125</AltitudeMeters>
            <DistanceMeters>NAN</DistanceMeters>
          </Trackpoint>
          <Trackpoint>
            <Time>2022-09-20T13:46:28.000Z</Time>
            <Position>
              <LatitudeDegrees>49.40723754465579986572265625</LatitudeDegrees>
              <LongitudeDegrees>20.33819493837654590606689453125</LongitudeDegrees>
            </Position>
            <AltitudeMeters>489.20001220703125</AltitudeMeters>
            <DistanceMeters>NAN</DistanceMeters>
          </Trackpoint>
          <Trackpoint>
            <Time>2022-09-20T13:46:29.000Z</Time>
            <Position>
              <LatitudeDegrees>49.40723729319870471954345703125</LatitudeDegrees>
              <LongitudeDegrees>20.33820591866970062255859375</LongitudeDegrees>
            </Position>
            <AltitudeMeters>489.20001220703125</AltitudeMeters>
            <DistanceMeters>NAN</DistanceMeters>
          </Trackpoint>
          <Trackpoint>
            <Time>2022-09-20T13:46:38.000Z</Time>
            <Position>
              <LatitudeDegrees>49.40724156796932220458984375</LatitudeDegrees>
              <LongitudeDegrees>20.33828177489340305328369140625</LongitudeDegrees>
            </Position>
            <AltitudeMeters>489.600006103515625</AltitudeMeters>
            <DistanceMeters>NAN</DistanceMeters>
          </Trackpoint>
          <Trackpoint>
            <Time>2022-09-20T13:46:42.000Z</Time>
            <Position>
              <LatitudeDegrees>49.40723997540771961212158203125</LatitudeDegrees>
              <LongitudeDegrees>20.33831479959189891815185546875</LongitudeDegrees>
            </Position>
            <AltitudeMeters>489.79998779296875</AltitudeMeters>
            <DistanceMeters>NAN</DistanceMeters>
          </Trackpoint>
          <Trackpoint>
            <Time>2022-09-20T13:46:44.000Z</Time>
            <Position>
              <LatitudeDegrees>49.4072382152080535888671875</LatitudeDegrees>
              <LongitudeDegrees>20.33831831999123096466064453125</LongitudeDegrees>
            </Position>
            <AltitudeMeters>489.79998779296875</AltitudeMeters>
            <DistanceMeters>NAN</DistanceMeters>
          </Trackpoint>
          <Trackpoint>
            <Time>2022-09-20T13:46:50.000Z</Time>
            <Position>
              <LatitudeDegrees>49.4072192721068859100341796875</LatitudeDegrees>
              <LongitudeDegrees>20.338322930037975311279296875</LongitudeDegrees>
            </Position>
            <AltitudeMeters>490.20001220703125</AltitudeMeters>
            <DistanceMeters>NAN</DistanceMeters>
          </Trackpoint>
          <Trackpoint>
            <Time>2022-09-20T13:46:52.000Z</Time>
            <Position>
              <LatitudeDegrees>49.40723486244678497314453125</LatitudeDegrees>
              <LongitudeDegrees>20.33832619898021221160888671875</LongitudeDegrees>
            </Position>
            <AltitudeMeters>490.20001220703125</AltitudeMeters>
            <DistanceMeters>NAN</DistanceMeters>
          </Trackpoint>
          <Trackpoint>
            <Time>2022-09-20T13:46:57.000Z</Time>
            <Position>
              <LatitudeDegrees>49.4072571583092212677001953125</LatitudeDegrees>
              <LongitudeDegrees>20.33836643211543560028076171875</LongitudeDegrees>
            </Position>
            <AltitudeMeters>490.20001220703125</AltitudeMeters>
            <DistanceMeters>NAN</DistanceMeters>
          </Trackpoint>
          <Trackpoint>
            <Time>2022-09-20T13:47:01.000Z</Time>
            <Position>
              <LatitudeDegrees>49.40725632011890411376953125</LatitudeDegrees>
              <LongitudeDegrees>20.33841378986835479736328125</LongitudeDegrees>
            </Position>
            <AltitudeMeters>490.399993896484375</AltitudeMeters>
            <DistanceMeters>NAN</DistanceMeters>
          </Trackpoint>
          <Trackpoint>
            <Time>2022-09-20T13:47:04.000Z</Time>
            <Position>
              <LatitudeDegrees>49.407253302633762359619140625</LatitudeDegrees>
              <LongitudeDegrees>20.33845310099422931671142578125</LongitudeDegrees>
            </Position>
            <AltitudeMeters>490.600006103515625</AltitudeMeters>
            <DistanceMeters>NAN</DistanceMeters>
          </Trackpoint>
          <Trackpoint>
            <Time>2022-09-20T13:47:07.000Z</Time>
            <Position>
              <LatitudeDegrees>49.40725556574761867523193359375</LatitudeDegrees>
              <LongitudeDegrees>20.3384997881948947906494140625</LongitudeDegrees>
            </Position>
            <AltitudeMeters>490.79998779296875</AltitudeMeters>
            <DistanceMeters>NAN</DistanceMeters>
          </Trackpoint>
          <Trackpoint>
            <Time>2022-09-20T13:47:11.000Z</Time>
            <Position>
              <LatitudeDegrees>49.40726545639336109161376953125</LatitudeDegrees>
              <LongitudeDegrees>20.338561646640300750732421875</LongitudeDegrees>
            </Position>
            <AltitudeMeters>491</AltitudeMeters>
            <DistanceMeters>NAN</DistanceMeters>
          </Trackpoint>
          <Trackpoint>
            <Time>2022-09-20T13:47:13.000Z</Time>
            <Position>
              <LatitudeDegrees>49.40726428292691707611083984375</LatitudeDegrees>
              <LongitudeDegrees>20.338589809834957122802734375</LongitudeDegrees>
            </Position>
            <AltitudeMeters>491.20001220703125</AltitudeMeters>
            <DistanceMeters>NAN</DistanceMeters>
          </Trackpoint>
          <Trackpoint>
            <Time>2022-09-20T13:47:19.000Z</Time>
            <Position>
              <LatitudeDegrees>49.40725238062441349029541015625</LatitudeDegrees>
              <LongitudeDegrees>20.3386727906763553619384765625</LongitudeDegrees>
            </Position>
            <AltitudeMeters>491.600006103515625</AltitudeMeters>
            <DistanceMeters>NAN</DistanceMeters>
          </Trackpoint>
          <Trackpoint>
            <Time>2022-09-20T13:47:24.000Z</Time>
            <Position>
              <LatitudeDegrees>49.4072598405182361602783203125</LatitudeDegrees>
              <LongitudeDegrees>20.338734649121761322021484375</LongitudeDegrees>
            </Position>
            <AltitudeMeters>491.79998779296875</AltitudeMeters>
            <DistanceMeters>NAN</DistanceMeters>
          </Trackpoint>
          <Trackpoint>
            <Time>2022-09-20T13:47:26.000Z</Time>
            <Position>
              <LatitudeDegrees>49.40726176835596561431884765625</LatitudeDegrees>
              <LongitudeDegrees>20.33876423723995685577392578125</LongitudeDegrees>
            </Position>
            <AltitudeMeters>492</AltitudeMeters>
            <DistanceMeters>NAN</DistanceMeters>
          </Trackpoint>
          <Trackpoint>
            <Time>2022-09-20T13:47:36.000Z</Time>
            <Position>
              <LatitudeDegrees>49.40725137479603290557861328125</LatitudeDegrees>
              <LongitudeDegrees>20.3389115072786808013916015625</LongitudeDegrees>
            </Position>
            <AltitudeMeters>492.600006103515625</AltitudeMeters>
            <DistanceMeters>NAN</DistanceMeters>
          </Trackpoint>
          <Trackpoint>
            <Time>2022-09-20T13:47:38.000Z</Time>
            <Position>
              <LatitudeDegrees>49.40725363790988922119140625</LatitudeDegrees>
              <LongitudeDegrees>20.338941849768161773681640625</LongitudeDegrees>
            </Position>
            <AltitudeMeters>492.600006103515625</AltitudeMeters>
            <DistanceMeters>NAN</DistanceMeters>
          </Trackpoint>
          <Trackpoint>
            <Time>2022-09-20T13:47:45.000Z</Time>
            <Position>
              <LatitudeDegrees>49.4072380475699901580810546875</LatitudeDegrees>
              <LongitudeDegrees>20.33906020224094390869140625</LongitudeDegrees>
            </Position>
            <AltitudeMeters>493</AltitudeMeters>
            <DistanceMeters>NAN</DistanceMeters>
          </Trackpoint>
          <Trackpoint>
            <Time>2022-09-20T13:47:46.000Z</Time>
            <Position>
              <LatitudeDegrees>49.4072403945028781890869140625</LatitudeDegrees>
              <LongitudeDegrees>20.33908241428434848785400390625</LongitudeDegrees>
            </Position>
            <AltitudeMeters>493</AltitudeMeters>
            <DistanceMeters>NAN</DistanceMeters>
          </Trackpoint>
          <Trackpoint>
            <Time>2022-09-20T13:47:55.000Z</Time>
            <Position>
              <LatitudeDegrees>49.40723025240004062652587890625</LatitudeDegrees>
              <LongitudeDegrees>20.33922641538083553314208984375</LongitudeDegrees>
            </Position>
            <AltitudeMeters>493.20001220703125</AltitudeMeters>
            <DistanceMeters>NAN</DistanceMeters>
          </Trackpoint>
          <Trackpoint>
            <Time>2022-09-20T13:47:57.000Z</Time>
            <Position>
              <LatitudeDegrees>49.407223127782344818115234375</LatitudeDegrees>
              <LongitudeDegrees>20.339265055954456329345703125</LongitudeDegrees>
            </Position>
            <AltitudeMeters>493.20001220703125</AltitudeMeters>
            <DistanceMeters>NAN</DistanceMeters>
          </Trackpoint>
          <Trackpoint>
            <Time>2022-09-20T13:48:05.000Z</Time>
            <Position>
              <LatitudeDegrees>49.40721868537366390228271484375</LatitudeDegrees>
              <LongitudeDegrees>20.33937075175344944000244140625</LongitudeDegrees>
            </Position>
            <AltitudeMeters>493.600006103515625</AltitudeMeters>
            <DistanceMeters>NAN</DistanceMeters>
          </Trackpoint>
          <Trackpoint>
            <Time>2022-09-20T13:48:09.000Z</Time>
            <Position>
              <LatitudeDegrees>49.40723042003810405731201171875</LatitudeDegrees>
              <LongitudeDegrees>20.3394432552158832550048828125</LongitudeDegrees>
            </Position>
            <AltitudeMeters>493.600006103515625</AltitudeMeters>
            <DistanceMeters>NAN</DistanceMeters>
          </Trackpoint>
          <Trackpoint>
            <Time>2022-09-20T13:48:14.000Z</Time>
            <Position>
              <LatitudeDegrees>49.4072343595325946807861328125</LatitudeDegrees>
              <LongitudeDegrees>20.33946161158382892608642578125</LongitudeDegrees>
            </Position>
            <AltitudeMeters>494</AltitudeMeters>
            <DistanceMeters>NAN</DistanceMeters>
          </Trackpoint>
          <Trackpoint>
            <Time>2022-09-20T13:48:16.000Z</Time>
            <Position>
              <LatitudeDegrees>49.4072343595325946807861328125</LatitudeDegrees>
              <LongitudeDegrees>20.33946161158382892608642578125</LongitudeDegrees>
            </Position>
            <AltitudeMeters>494</AltitudeMeters>
            <DistanceMeters>NAN</DistanceMeters>
          </Trackpoint>
          <Trackpoint>
            <Time>2022-09-20T13:48:19.000Z</Time>
            <Position>
              <LatitudeDegrees>49.40723779611289501190185546875</LatitudeDegrees>
              <LongitudeDegrees>20.33947032876312732696533203125</LongitudeDegrees>
            </Position>
            <AltitudeMeters>494</AltitudeMeters>
            <DistanceMeters>NAN</DistanceMeters>
          </Trackpoint>
          <Trackpoint>
            <Time>2022-09-20T13:48:22.000Z</Time>
            <Position>
              <LatitudeDegrees>49.407240562140941619873046875</LatitudeDegrees>
              <LongitudeDegrees>20.33951072953641414642333984375</LongitudeDegrees>
            </Position>
            <AltitudeMeters>494</AltitudeMeters>
            <DistanceMeters>NAN</DistanceMeters>
          </Trackpoint>
          <Trackpoint>
            <Time>2022-09-20T13:48:28.000Z</Time>
            <Position>
              <LatitudeDegrees>49.4072408974170684814453125</LatitudeDegrees>
              <LongitudeDegrees>20.33958801068365573883056640625</LongitudeDegrees>
            </Position>
            <AltitudeMeters>494</AltitudeMeters>
            <DistanceMeters>NAN</DistanceMeters>
          </Trackpoint>
          <Trackpoint>
            <Time>2022-09-20T13:48:35.000Z</Time>
            <Position>
              <LatitudeDegrees>49.40723888576030731201171875</LatitudeDegrees>
              <LongitudeDegrees>20.33968440257012844085693359375</LongitudeDegrees>
            </Position>
            <AltitudeMeters>494.399993896484375</AltitudeMeters>
            <DistanceMeters>NAN</DistanceMeters>
          </Trackpoint>
          <Trackpoint>
            <Time>2022-09-20T13:48:36.000Z</Time>
            <Position>
              <LatitudeDegrees>49.40723410807549953460693359375</LatitudeDegrees>
              <LongitudeDegrees>20.33969814889132976531982421875</LongitudeDegrees>
            </Position>
            <AltitudeMeters>494.399993896484375</AltitudeMeters>
            <DistanceMeters>NAN</DistanceMeters>
          </Trackpoint>
          <Trackpoint>
            <Time>2022-09-20T13:48:41.000Z</Time>
            <Position>
              <LatitudeDegrees>49.4072234630584716796875</LatitudeDegrees>
              <LongitudeDegrees>20.33977844752371311187744140625</LongitudeDegrees>
            </Position>
            <AltitudeMeters>494.600006103515625</AltitudeMeters>
            <DistanceMeters>NAN</DistanceMeters>
          </Trackpoint>
          <Trackpoint>
            <Time>2022-09-20T13:48:49.000Z</Time>
            <Position>
              <LatitudeDegrees>49.4072263129055500030517578125</LatitudeDegrees>
              <LongitudeDegrees>20.339874923229217529296875</LongitudeDegrees>
            </Position>
            <AltitudeMeters>494.79998779296875</AltitudeMeters>
            <DistanceMeters>NAN</DistanceMeters>
          </Trackpoint>
          <Trackpoint>
            <Time>2022-09-20T13:48:51.000Z</Time>
            <Position>
              <LatitudeDegrees>49.407231844961643218994140625</LatitudeDegrees>
              <LongitudeDegrees>20.3399102948606014251708984375</LongitudeDegrees>
            </Position>
            <AltitudeMeters>494.79998779296875</AltitudeMeters>
            <DistanceMeters>NAN</DistanceMeters>
          </Trackpoint>
          <Trackpoint>
            <Time>2022-09-20T13:48:54.000Z</Time>
            <Position>
              <LatitudeDegrees>49.40722991712391376495361328125</LatitudeDegrees>
              <LongitudeDegrees>20.33997257240116596221923828125</LongitudeDegrees>
            </Position>
            <AltitudeMeters>495</AltitudeMeters>
            <DistanceMeters>NAN</DistanceMeters>
          </Trackpoint>
          <Trackpoint>
            <Time>2022-09-20T13:48:55.000Z</Time>
            <Position>
              <LatitudeDegrees>49.40722991712391376495361328125</LatitudeDegrees>
              <LongitudeDegrees>20.33998967148363590240478515625</LongitudeDegrees>
            </Position>
            <AltitudeMeters>495</AltitudeMeters>
            <DistanceMeters>NAN</DistanceMeters>
          </Trackpoint>
          <Trackpoint>
            <Time>2022-09-20T13:48:57.000Z</Time>
            <Position>
              <LatitudeDegrees>49.40723578445613384246826171875</LatitudeDegrees>
              <LongitudeDegrees>20.34002789296209812164306640625</LongitudeDegrees>
            </Position>
            <AltitudeMeters>495</AltitudeMeters>
            <DistanceMeters>NAN</DistanceMeters>
          </Trackpoint>
          <Trackpoint>
            <Time>2022-09-20T13:48:58.000Z</Time>
            <Position>
              <LatitudeDegrees>49.4072414003312587738037109375</LatitudeDegrees>
              <LongitudeDegrees>20.340047590434551239013671875</LongitudeDegrees>
            </Position>
            <AltitudeMeters>495</AltitudeMeters>
            <DistanceMeters>NAN</DistanceMeters>
          </Trackpoint>
          <Trackpoint>
            <Time>2022-09-20T13:49:02.000Z</Time>
            <Position>
              <LatitudeDegrees>49.4072558172047138214111328125</LatitudeDegrees>
              <LongitudeDegrees>20.34013015218079090118408203125</LongitudeDegrees>
            </Position>
            <AltitudeMeters>495.20001220703125</AltitudeMeters>
            <DistanceMeters>NAN</DistanceMeters>
          </Trackpoint>
          <Trackpoint>
            <Time>2022-09-20T13:49:03.000Z</Time>
            <Position>
              <LatitudeDegrees>49.407255649566650390625</LatitudeDegrees>
              <LongitudeDegrees>20.34014892764389514923095703125</LongitudeDegrees>
            </Position>
            <AltitudeMeters>495.20001220703125</AltitudeMeters>
            <DistanceMeters>NAN</DistanceMeters>
          </Trackpoint>
          <Trackpoint>
            <Time>2022-09-20T13:49:10.000Z</Time>
            <Position>
              <LatitudeDegrees>49.407237209379673004150390625</LatitudeDegrees>
              <LongitudeDegrees>20.3402619995176792144775390625</LongitudeDegrees>
            </Position>
            <AltitudeMeters>495.20001220703125</AltitudeMeters>
            <DistanceMeters>NAN</DistanceMeters>
          </Trackpoint>
          <Trackpoint>
            <Time>2022-09-20T13:49:15.000Z</Time>
            <Position>
              <LatitudeDegrees>49.40723595209419727325439453125</LatitudeDegrees>
              <LongitudeDegrees>20.34030047245323657989501953125</LongitudeDegrees>
            </Position>
            <AltitudeMeters>495.399993896484375</AltitudeMeters>
            <DistanceMeters>NAN</DistanceMeters>
          </Trackpoint>
          <Trackpoint>
            <Time>2022-09-20T13:49:22.000Z</Time>
            <Position>
              <LatitudeDegrees>49.40723595209419727325439453125</LatitudeDegrees>
              <LongitudeDegrees>20.34030047245323657989501953125</LongitudeDegrees>
            </Position>
            <AltitudeMeters>495.399993896484375</AltitudeMeters>
            <DistanceMeters>NAN</DistanceMeters>
          </Trackpoint>
          <Trackpoint>
            <Time>2022-09-20T13:49:30.000Z</Time>
            <Position>
              <LatitudeDegrees>49.40723595209419727325439453125</LatitudeDegrees>
              <LongitudeDegrees>20.34030047245323657989501953125</LongitudeDegrees>
            </Position>
            <AltitudeMeters>495.399993896484375</AltitudeMeters>
            <DistanceMeters>NAN</DistanceMeters>
          </Trackpoint>
          <Trackpoint>
            <Time>2022-09-20T13:49:35.000Z</Time>
            <Position>
              <LatitudeDegrees>49.40723595209419727325439453125</LatitudeDegrees>
              <LongitudeDegrees>20.34030047245323657989501953125</LongitudeDegrees>
            </Position>
            <AltitudeMeters>495.399993896484375</AltitudeMeters>
            <DistanceMeters>NAN</DistanceMeters>
          </Trackpoint>
          <Trackpoint>
            <Time>2022-09-20T13:49:38.000Z</Time>
            <Position>
              <LatitudeDegrees>49.40723611973226070404052734375</LatitudeDegrees>
              <LongitudeDegrees>20.3403042443096637725830078125</LongitudeDegrees>
            </Position>
            <AltitudeMeters>495.399993896484375</AltitudeMeters>
            <DistanceMeters>NAN</DistanceMeters>
          </Trackpoint>
          <Trackpoint>
            <Time>2022-09-20T13:49:42.000Z</Time>
            <Position>
              <LatitudeDegrees>49.40722857601940631866455078125</LatitudeDegrees>
              <LongitudeDegrees>20.3403793461620807647705078125</LongitudeDegrees>
            </Position>
            <AltitudeMeters>495.600006103515625</AltitudeMeters>
            <DistanceMeters>NAN</DistanceMeters>
          </Trackpoint>
          <Trackpoint>
            <Time>2022-09-20T13:49:44.000Z</Time>
            <Position>
              <LatitudeDegrees>49.40722472034394741058349609375</LatitudeDegrees>
              <LongitudeDegrees>20.3404108621180057525634765625</LongitudeDegrees>
            </Position>
            <AltitudeMeters>495.79998779296875</AltitudeMeters>
            <DistanceMeters>NAN</DistanceMeters>
          </Trackpoint>
          <Trackpoint>
            <Time>2022-09-20T13:49:47.000Z</Time>
            <Position>
              <LatitudeDegrees>49.4072162546217441558837890625</LatitudeDegrees>
              <LongitudeDegrees>20.34047028981149196624755859375</LongitudeDegrees>
            </Position>
            <AltitudeMeters>496</AltitudeMeters>
            <DistanceMeters>NAN</DistanceMeters>
          </Trackpoint>
          <Trackpoint>
            <Time>2022-09-20T13:49:50.000Z</Time>
            <Position>
              <LatitudeDegrees>49.40720535814762115478515625</LatitudeDegrees>
              <LongitudeDegrees>20.34052141942083835601806640625</LongitudeDegrees>
            </Position>
            <AltitudeMeters>496.20001220703125</AltitudeMeters>
            <DistanceMeters>NAN</DistanceMeters>
          </Trackpoint>
          <Trackpoint>
            <Time>2022-09-20T13:49:53.000Z</Time>
            <Position>
              <LatitudeDegrees>49.4071994908154010772705078125</LatitudeDegrees>
              <LongitudeDegrees>20.34056517295539379119873046875</LongitudeDegrees>
            </Position>
            <AltitudeMeters>496.399993896484375</AltitudeMeters>
            <DistanceMeters>NAN</DistanceMeters>
          </Trackpoint>
          <Trackpoint>
            <Time>2022-09-20T13:49:55.000Z</Time>
            <Position>
              <LatitudeDegrees>49.40719823352992534637451171875</LatitudeDegrees>
              <LongitudeDegrees>20.34059853293001651763916015625</LongitudeDegrees>
            </Position>
            <AltitudeMeters>496.600006103515625</AltitudeMeters>
            <DistanceMeters>NAN</DistanceMeters>
          </Trackpoint>
          <Trackpoint>
            <Time>2022-09-20T13:50:00.000Z</Time>
            <Position>
              <LatitudeDegrees>49.40720125101506710052490234375</LatitudeDegrees>
              <LongitudeDegrees>20.34067397005856037139892578125</LongitudeDegrees>
            </Position>
            <AltitudeMeters>496.79998779296875</AltitudeMeters>
            <DistanceMeters>NAN</DistanceMeters>
          </Trackpoint>
          <Trackpoint>
            <Time>2022-09-20T13:50:01.000Z</Time>
            <Position>
              <LatitudeDegrees>49.4071984849870204925537109375</LatitudeDegrees>
              <LongitudeDegrees>20.34068939276039600372314453125</LongitudeDegrees>
            </Position>
            <AltitudeMeters>496.79998779296875</AltitudeMeters>
            <DistanceMeters>NAN</DistanceMeters>
          </Trackpoint>
          <Trackpoint>
            <Time>2022-09-20T13:50:02.000Z</Time>
            <Position>
              <LatitudeDegrees>49.4071988202631473541259765625</LatitudeDegrees>
              <LongitudeDegrees>20.3407037258148193359375</LongitudeDegrees>
            </Position>
            <AltitudeMeters>496.79998779296875</AltitudeMeters>
            <DistanceMeters>NAN</DistanceMeters>
          </Trackpoint>
          <Trackpoint>
            <Time>2022-09-20T13:50:07.000Z</Time>
            <Position>
              <LatitudeDegrees>49.40721985884010791778564453125</LatitudeDegrees>
              <LongitudeDegrees>20.34078192897140979766845703125</LongitudeDegrees>
            </Position>
            <AltitudeMeters>497.20001220703125</AltitudeMeters>
            <DistanceMeters>NAN</DistanceMeters>
          </Trackpoint>
          <Trackpoint>
            <Time>2022-09-20T13:50:12.000Z</Time>
            <Position>
              <LatitudeDegrees>49.4072301685810089111328125</LatitudeDegrees>
              <LongitudeDegrees>20.3408597968518733978271484375</LongitudeDegrees>
            </Position>
            <AltitudeMeters>497.399993896484375</AltitudeMeters>
            <DistanceMeters>NAN</DistanceMeters>
          </Trackpoint>
          <Trackpoint>
            <Time>2022-09-20T13:50:14.000Z</Time>
            <Position>
              <LatitudeDegrees>49.40724290907382965087890625</LatitudeDegrees>
              <LongitudeDegrees>20.3408839367330074310302734375</LongitudeDegrees>
            </Position>
            <AltitudeMeters>497.399993896484375</AltitudeMeters>
            <DistanceMeters>NAN</DistanceMeters>
          </Trackpoint>
          <Trackpoint>
            <Time>2022-09-20T13:50:20.000Z</Time>
            <Position>
              <LatitudeDegrees>49.40726310946047306060791015625</LatitudeDegrees>
              <LongitudeDegrees>20.340956859290599822998046875</LongitudeDegrees>
            </Position>
            <AltitudeMeters>497.79998779296875</AltitudeMeters>
            <DistanceMeters>NAN</DistanceMeters>
          </Trackpoint>
          <Trackpoint>
            <Time>2022-09-20T13:50:25.000Z</Time>
            <Position>
              <LatitudeDegrees>49.4072435796260833740234375</LatitudeDegrees>
              <LongitudeDegrees>20.34100614488124847412109375</LongitudeDegrees>
            </Position>
            <AltitudeMeters>498</AltitudeMeters>
            <DistanceMeters>NAN</DistanceMeters>
          </Trackpoint>
          <Trackpoint>
            <Time>2022-09-20T13:50:28.000Z</Time>
            <Position>
              <LatitudeDegrees>49.40723310224711894989013671875</LatitudeDegrees>
              <LongitudeDegrees>20.341043360531330108642578125</LongitudeDegrees>
            </Position>
            <AltitudeMeters>498.20001220703125</AltitudeMeters>
            <DistanceMeters>NAN</DistanceMeters>
          </Trackpoint>
          <Trackpoint>
            <Time>2022-09-20T13:50:31.000Z</Time>
            <Position>
              <LatitudeDegrees>49.40723880194127559661865234375</LatitudeDegrees>
              <LongitudeDegrees>20.3410810790956020355224609375</LongitudeDegrees>
            </Position>
            <AltitudeMeters>498.20001220703125</AltitudeMeters>
            <DistanceMeters>NAN</DistanceMeters>
          </Trackpoint>
          <Trackpoint>
            <Time>2022-09-20T13:50:36.000Z</Time>
            <Position>
              <LatitudeDegrees>49.40724098123610019683837890625</LatitudeDegrees>
              <LongitudeDegrees>20.341117121279239654541015625</LongitudeDegrees>
            </Position>
            <AltitudeMeters>498.600006103515625</AltitudeMeters>
            <DistanceMeters>NAN</DistanceMeters>
          </Trackpoint>
          <Trackpoint>
            <Time>2022-09-20T13:50:39.000Z</Time>
            <Position>
              <LatitudeDegrees>49.40724098123610019683837890625</LatitudeDegrees>
              <LongitudeDegrees>20.341117121279239654541015625</LongitudeDegrees>
            </Position>
            <AltitudeMeters>498.79998779296875</AltitudeMeters>
            <DistanceMeters>NAN</DistanceMeters>
          </Trackpoint>
          <Trackpoint>
            <Time>2022-09-20T13:50:42.000Z</Time>
            <Position>
              <LatitudeDegrees>49.4072408974170684814453125</LatitudeDegrees>
              <LongitudeDegrees>20.34114318899810314178466796875</LongitudeDegrees>
            </Position>
            <AltitudeMeters>498.79998779296875</AltitudeMeters>
            <DistanceMeters>NAN</DistanceMeters>
          </Trackpoint>
          <Trackpoint>
            <Time>2022-09-20T13:50:43.000Z</Time>
            <Position>
              <LatitudeDegrees>49.40723913721740245819091796875</LatitudeDegrees>
              <LongitudeDegrees>20.34115643240511417388916015625</LongitudeDegrees>
            </Position>
            <AltitudeMeters>498.79998779296875</AltitudeMeters>
            <DistanceMeters>NAN</DistanceMeters>
          </Trackpoint>
          <Trackpoint>
            <Time>2022-09-20T13:50:47.000Z</Time>
            <Position>
              <LatitudeDegrees>49.407244585454463958740234375</LatitudeDegrees>
              <LongitudeDegrees>20.3411990962922573089599609375</LongitudeDegrees>
            </Position>
            <AltitudeMeters>499.20001220703125</AltitudeMeters>
            <DistanceMeters>NAN</DistanceMeters>
          </Trackpoint>
          <Trackpoint>
            <Time>2022-09-20T13:50:52.000Z</Time>
            <Position>
              <LatitudeDegrees>49.407237209379673004150390625</LatitudeDegrees>
              <LongitudeDegrees>20.34126874990761280059814453125</LongitudeDegrees>
            </Position>
            <AltitudeMeters>499.600006103515625</AltitudeMeters>
            <DistanceMeters>NAN</DistanceMeters>
          </Trackpoint>
          <Trackpoint>
            <Time>2022-09-20T13:50:58.000Z</Time>
            <Position>
              <LatitudeDegrees>49.40724533982574939727783203125</LatitudeDegrees>
              <LongitudeDegrees>20.34133077599108219146728515625</LongitudeDegrees>
            </Position>
            <AltitudeMeters>499.79998779296875</AltitudeMeters>
            <DistanceMeters>NAN</DistanceMeters>
          </Trackpoint>
          <Trackpoint>
            <Time>2022-09-20T13:51:00.000Z</Time>
            <Position>
              <LatitudeDegrees>49.40724517218768596649169921875</LatitudeDegrees>
              <LongitudeDegrees>20.341358520090579986572265625</LongitudeDegrees>
            </Position>
            <AltitudeMeters>499.79998779296875</AltitudeMeters>
            <DistanceMeters>NAN</DistanceMeters>
          </Trackpoint>
          <Trackpoint>
            <Time>2022-09-20T13:51:03.000Z</Time>
            <Position>
              <LatitudeDegrees>49.4072323478758335113525390625</LatitudeDegrees>
              <LongitudeDegrees>20.34140353091061115264892578125</LongitudeDegrees>
            </Position>
            <AltitudeMeters>500.20001220703125</AltitudeMeters>
            <DistanceMeters>NAN</DistanceMeters>
          </Trackpoint>
          <Trackpoint>
            <Time>2022-09-20T13:51:05.000Z</Time>
            <Position>
              <LatitudeDegrees>49.40723159350454807281494140625</LatitudeDegrees>
              <LongitudeDegrees>20.34141995944082736968994140625</LongitudeDegrees>
            </Position>
            <AltitudeMeters>500.399993896484375</AltitudeMeters>
            <DistanceMeters>NAN</DistanceMeters>
          </Trackpoint>
          <Trackpoint>
            <Time>2022-09-20T13:51:08.000Z</Time>
            <Position>
              <LatitudeDegrees>49.40723888576030731201171875</LatitudeDegrees>
              <LongitudeDegrees>20.3414344601333141326904296875</LongitudeDegrees>
            </Position>
            <AltitudeMeters>500.600006103515625</AltitudeMeters>
            <DistanceMeters>NAN</DistanceMeters>
          </Trackpoint>
          <Trackpoint>
            <Time>2022-09-20T13:51:12.000Z</Time>
            <Position>
              <LatitudeDegrees>49.40726570785045623779296875</LatitudeDegrees>
              <LongitudeDegrees>20.34147360362112522125244140625</LongitudeDegrees>
            </Position>
            <AltitudeMeters>501</AltitudeMeters>
            <DistanceMeters>NAN</DistanceMeters>
          </Trackpoint>
          <Trackpoint>
            <Time>2022-09-20T13:51:18.000Z</Time>
            <Position>
              <LatitudeDegrees>49.40728439949452877044677734375</LatitudeDegrees>
              <LongitudeDegrees>20.34156429581344127655029296875</LongitudeDegrees>
            </Position>
            <AltitudeMeters>501.399993896484375</AltitudeMeters>
            <DistanceMeters>NAN</DistanceMeters>
          </Trackpoint>
          <Trackpoint>
            <Time>2022-09-20T13:51:26.000Z</Time>
            <Position>
              <LatitudeDegrees>49.407337792217731475830078125</LatitudeDegrees>
              <LongitudeDegrees>20.34164710901677608489990234375</LongitudeDegrees>
            </Position>
            <AltitudeMeters>501.79998779296875</AltitudeMeters>
            <DistanceMeters>NAN</DistanceMeters>
          </Trackpoint>
          <Trackpoint>
            <Time>2022-09-20T13:51:28.000Z</Time>
            <Position>
              <LatitudeDegrees>49.4073500297963619232177734375</LatitudeDegrees>
              <LongitudeDegrees>20.34168315120041370391845703125</LongitudeDegrees>
            </Position>
            <AltitudeMeters>501.79998779296875</AltitudeMeters>
            <DistanceMeters>NAN</DistanceMeters>
          </Trackpoint>
          <Trackpoint>
            <Time>2022-09-20T13:51:34.000Z</Time>
            <Position>
              <LatitudeDegrees>49.40740174613893032073974609375</LatitudeDegrees>
              <LongitudeDegrees>20.34174886532127857208251953125</LongitudeDegrees>
            </Position>
            <AltitudeMeters>502.399993896484375</AltitudeMeters>
            <DistanceMeters>NAN</DistanceMeters>
          </Trackpoint>
          <Trackpoint>
            <Time>2022-09-20T13:51:37.000Z</Time>
            <Position>
              <LatitudeDegrees>49.40740174613893032073974609375</LatitudeDegrees>
              <LongitudeDegrees>20.34174886532127857208251953125</LongitudeDegrees>
            </Position>
            <AltitudeMeters>502.79998779296875</AltitudeMeters>
            <DistanceMeters>NAN</DistanceMeters>
          </Trackpoint>
          <Trackpoint>
            <Time>2022-09-20T13:51:42.000Z</Time>
            <Position>
              <LatitudeDegrees>49.407402835786342620849609375</LatitudeDegrees>
              <LongitudeDegrees>20.3417543135583400726318359375</LongitudeDegrees>
            </Position>
            <AltitudeMeters>502.79998779296875</AltitudeMeters>
            <DistanceMeters>NAN</DistanceMeters>
          </Trackpoint>
          <Trackpoint>
            <Time>2022-09-20T13:51:51.000Z</Time>
            <Position>
              <LatitudeDegrees>49.407425634562969207763671875</LatitudeDegrees>
              <LongitudeDegrees>20.34185011871159076690673828125</LongitudeDegrees>
            </Position>
            <AltitudeMeters>503</AltitudeMeters>
            <DistanceMeters>NAN</DistanceMeters>
          </Trackpoint>
          <Trackpoint>
            <Time>2022-09-20T13:51:53.000Z</Time>
            <Position>
              <LatitudeDegrees>49.407434351742267608642578125</LatitudeDegrees>
              <LongitudeDegrees>20.3418589197099208831787109375</LongitudeDegrees>
            </Position>
            <AltitudeMeters>503.20001220703125</AltitudeMeters>
            <DistanceMeters>NAN</DistanceMeters>
          </Trackpoint>
          <Trackpoint>
            <Time>2022-09-20T13:52:00.000Z</Time>
            <Position>
              <LatitudeDegrees>49.4074152410030364990234375</LatitudeDegrees>
              <LongitudeDegrees>20.3419038467109203338623046875</LongitudeDegrees>
            </Position>
            <AltitudeMeters>503.600006103515625</AltitudeMeters>
            <DistanceMeters>NAN</DistanceMeters>
          </Trackpoint>
          <Trackpoint>
            <Time>2022-09-20T13:52:01.000Z</Time>
            <Position>
              <LatitudeDegrees>49.4074152410030364990234375</LatitudeDegrees>
              <LongitudeDegrees>20.3419038467109203338623046875</LongitudeDegrees>
            </Position>
            <AltitudeMeters>503.600006103515625</AltitudeMeters>
            <DistanceMeters>NAN</DistanceMeters>
          </Trackpoint>
          <Trackpoint>
            <Time>2022-09-20T13:52:05.000Z</Time>
            <Position>
              <LatitudeDegrees>49.40742773003876209259033203125</LatitudeDegrees>
              <LongitudeDegrees>20.3419812954962253570556640625</LongitudeDegrees>
            </Position>
            <AltitudeMeters>503.600006103515625</AltitudeMeters>
            <DistanceMeters>NAN</DistanceMeters>
          </Trackpoint>
          <Trackpoint>
            <Time>2022-09-20T13:52:13.000Z</Time>
            <Position>
              <LatitudeDegrees>49.407477267086505889892578125</LatitudeDegrees>
              <LongitudeDegrees>20.3420899249613285064697265625</LongitudeDegrees>
            </Position>
            <AltitudeMeters>503.79998779296875</AltitudeMeters>
            <DistanceMeters>NAN</DistanceMeters>
          </Trackpoint>
          <Trackpoint>
            <Time>2022-09-20T13:52:19.000Z</Time>
            <Position>
              <LatitudeDegrees>49.40750350244343280792236328125</LatitudeDegrees>
              <LongitudeDegrees>20.34215605817735195159912109375</LongitudeDegrees>
            </Position>
            <AltitudeMeters>504.20001220703125</AltitudeMeters>
            <DistanceMeters>NAN</DistanceMeters>
          </Trackpoint>
          <Trackpoint>
            <Time>2022-09-20T13:52:23.000Z</Time>
            <Position>
              <LatitudeDegrees>49.40754189155995845794677734375</LatitudeDegrees>
              <LongitudeDegrees>20.3421975485980510711669921875</LongitudeDegrees>
            </Position>
            <AltitudeMeters>504.399993896484375</AltitudeMeters>
            <DistanceMeters>NAN</DistanceMeters>
          </Trackpoint>
          <Trackpoint>
            <Time>2022-09-20T13:52:24.000Z</Time>
            <Position>
              <LatitudeDegrees>49.40753937698900699615478515625</LatitudeDegrees>
              <LongitudeDegrees>20.34220509231090545654296875</LongitudeDegrees>
            </Position>
            <AltitudeMeters>504.399993896484375</AltitudeMeters>
            <DistanceMeters>NAN</DistanceMeters>
          </Trackpoint>
          <Trackpoint>
            <Time>2022-09-20T13:52:29.000Z</Time>
            <Position>
              <LatitudeDegrees>49.40755798481404781341552734375</LatitudeDegrees>
              <LongitudeDegrees>20.342254377901554107666015625</LongitudeDegrees>
            </Position>
            <AltitudeMeters>504.600006103515625</AltitudeMeters>
            <DistanceMeters>NAN</DistanceMeters>
          </Trackpoint>
          <Trackpoint>
            <Time>2022-09-20T13:52:33.000Z</Time>
            <Position>
              <LatitudeDegrees>49.40757391043007373809814453125</LatitudeDegrees>
              <LongitudeDegrees>20.3422790206968784332275390625</LongitudeDegrees>
            </Position>
            <AltitudeMeters>504.79998779296875</AltitudeMeters>
            <DistanceMeters>NAN</DistanceMeters>
          </Trackpoint>
          <Trackpoint>
            <Time>2022-09-20T13:52:38.000Z</Time>
            <Position>
              <LatitudeDegrees>49.40755597315728664398193359375</LatitudeDegrees>
              <LongitudeDegrees>20.34234381280839443206787109375</LongitudeDegrees>
            </Position>
            <AltitudeMeters>505</AltitudeMeters>
            <DistanceMeters>NAN</DistanceMeters>
          </Trackpoint>
          <Trackpoint>
            <Time>2022-09-20T13:52:46.000Z</Time>
            <Position>
              <LatitudeDegrees>49.4075882434844970703125</LatitudeDegrees>
              <LongitudeDegrees>20.3423802740871906280517578125</LongitudeDegrees>
            </Position>
            <AltitudeMeters>505.399993896484375</AltitudeMeters>
            <DistanceMeters>NAN</DistanceMeters>
          </Trackpoint>
          <Trackpoint>
            <Time>2022-09-20T13:52:51.000Z</Time>
            <Position>
              <LatitudeDegrees>49.407606013119220733642578125</LatitudeDegrees>
              <LongitudeDegrees>20.3424027375876903533935546875</LongitudeDegrees>
            </Position>
            <AltitudeMeters>505.399993896484375</AltitudeMeters>
            <DistanceMeters>NAN</DistanceMeters>
          </Trackpoint>
          <Trackpoint>
            <Time>2022-09-20T13:52:56.000Z</Time>
            <Position>
              <LatitudeDegrees>49.40762403421103954315185546875</LatitudeDegrees>
              <LongitudeDegrees>20.3424707986414432525634765625</LongitudeDegrees>
            </Position>
            <AltitudeMeters>505.399993896484375</AltitudeMeters>
            <DistanceMeters>NAN</DistanceMeters>
          </Trackpoint>
          <Trackpoint>
            <Time>2022-09-20T13:52:58.000Z</Time>
            <Position>
              <LatitudeDegrees>49.407634846866130828857421875</LatitudeDegrees>
              <LongitudeDegrees>20.3425117023289203643798828125</LongitudeDegrees>
            </Position>
            <AltitudeMeters>505.79998779296875</AltitudeMeters>
            <DistanceMeters>NAN</DistanceMeters>
          </Trackpoint>
          <Trackpoint>
            <Time>2022-09-20T13:53:04.000Z</Time>
            <Position>
              <LatitudeDegrees>49.40771363675594329833984375</LatitudeDegrees>
              <LongitudeDegrees>20.342521257698535919189453125</LongitudeDegrees>
            </Position>
            <AltitudeMeters>505.79998779296875</AltitudeMeters>
            <DistanceMeters>NAN</DistanceMeters>
          </Trackpoint>
          <Trackpoint>
            <Time>2022-09-20T13:53:12.000Z</Time>
            <Position>
              <LatitudeDegrees>49.4077298976480960845947265625</LatitudeDegrees>
              <LongitudeDegrees>20.3425613231956958770751953125</LongitudeDegrees>
            </Position>
            <AltitudeMeters>506.20001220703125</AltitudeMeters>
            <DistanceMeters>NAN</DistanceMeters>
          </Trackpoint>
          <Trackpoint>
            <Time>2022-09-20T13:53:15.000Z</Time>
            <Position>
              <LatitudeDegrees>49.40774087794125080108642578125</LatitudeDegrees>
              <LongitudeDegrees>20.34257414750754833221435546875</LongitudeDegrees>
            </Position>
            <AltitudeMeters>506.399993896484375</AltitudeMeters>
            <DistanceMeters>NAN</DistanceMeters>
          </Trackpoint>
          <Trackpoint>
            <Time>2022-09-20T13:53:17.000Z</Time>
            <Position>
              <LatitudeDegrees>49.4077446497976779937744140625</LatitudeDegrees>
              <LongitudeDegrees>20.34259711392223834991455078125</LongitudeDegrees>
            </Position>
            <AltitudeMeters>506.399993896484375</AltitudeMeters>
            <DistanceMeters>NAN</DistanceMeters>
          </Trackpoint>
          <Trackpoint>
            <Time>2022-09-20T13:53:18.000Z</Time>
            <Position>
              <LatitudeDegrees>49.40774071030318737030029296875</LatitudeDegrees>
              <LongitudeDegrees>20.342602394521236419677734375</LongitudeDegrees>
            </Position>
            <AltitudeMeters>506.399993896484375</AltitudeMeters>
            <DistanceMeters>NAN</DistanceMeters>
          </Trackpoint>
          <Trackpoint>
            <Time>2022-09-20T13:53:24.000Z</Time>
            <Position>
              <LatitudeDegrees>49.40776786766946315765380859375</LatitudeDegrees>
              <LongitudeDegrees>20.34270289354026317596435546875</LongitudeDegrees>
            </Position>
            <AltitudeMeters>506.20001220703125</AltitudeMeters>
            <DistanceMeters>NAN</DistanceMeters>
          </Trackpoint>
          <Trackpoint>
            <Time>2022-09-20T13:53:27.000Z</Time>
            <Position>
              <LatitudeDegrees>49.40779854543507099151611328125</LatitudeDegrees>
              <LongitudeDegrees>20.34272016026079654693603515625</LongitudeDegrees>
            </Position>
            <AltitudeMeters>506.399993896484375</AltitudeMeters>
            <DistanceMeters>NAN</DistanceMeters>
          </Trackpoint>
          <Trackpoint>
            <Time>2022-09-20T13:53:29.000Z</Time>
            <Position>
              <LatitudeDegrees>49.40780726261436939239501953125</LatitudeDegrees>
              <LongitudeDegrees>20.3427239321172237396240234375</LongitudeDegrees>
            </Position>
            <AltitudeMeters>506.399993896484375</AltitudeMeters>
            <DistanceMeters>NAN</DistanceMeters>
          </Trackpoint>
          <Trackpoint>
            <Time>2022-09-20T13:53:33.000Z</Time>
            <Position>
              <LatitudeDegrees>49.40785302780568599700927734375</LatitudeDegrees>
              <LongitudeDegrees>20.3427547775208950042724609375</LongitudeDegrees>
            </Position>
            <AltitudeMeters>506.600006103515625</AltitudeMeters>
            <DistanceMeters>NAN</DistanceMeters>
          </Trackpoint>
          <Trackpoint>
            <Time>2022-09-20T13:53:39.000Z</Time>
            <Position>
              <LatitudeDegrees>49.40788957290351390838623046875</LatitudeDegrees>
              <LongitudeDegrees>20.3427997045218944549560546875</LongitudeDegrees>
            </Position>
            <AltitudeMeters>506.79998779296875</AltitudeMeters>
            <DistanceMeters>NAN</DistanceMeters>
          </Trackpoint>
          <Trackpoint>
            <Time>2022-09-20T13:53:41.000Z</Time>
            <Position>
              <LatitudeDegrees>49.40789342857897281646728515625</LatitudeDegrees>
              <LongitudeDegrees>20.34282275475561618804931640625</LongitudeDegrees>
            </Position>
            <AltitudeMeters>506.79998779296875</AltitudeMeters>
            <DistanceMeters>NAN</DistanceMeters>
          </Trackpoint>
          <Trackpoint>
            <Time>2022-09-20T13:53:45.000Z</Time>
            <Position>
              <LatitudeDegrees>49.40789342857897281646728515625</LatitudeDegrees>
              <LongitudeDegrees>20.34282275475561618804931640625</LongitudeDegrees>
            </Position>
            <AltitudeMeters>506.79998779296875</AltitudeMeters>
            <DistanceMeters>NAN</DistanceMeters>
          </Trackpoint>
          <Trackpoint>
            <Time>2022-09-20T13:53:53.000Z</Time>
            <Position>
              <LatitudeDegrees>49.40790181048214435577392578125</LatitudeDegrees>
              <LongitudeDegrees>20.34284924156963825225830078125</LongitudeDegrees>
            </Position>
            <AltitudeMeters>507</AltitudeMeters>
            <DistanceMeters>NAN</DistanceMeters>
          </Trackpoint>
          <Trackpoint>
            <Time>2022-09-20T13:53:54.000Z</Time>
            <Position>
              <LatitudeDegrees>49.4079069234430789947509765625</LatitudeDegrees>
              <LongitudeDegrees>20.34286684356629848480224609375</LongitudeDegrees>
            </Position>
            <AltitudeMeters>506.79998779296875</AltitudeMeters>
            <DistanceMeters>NAN</DistanceMeters>
          </Trackpoint>
          <Trackpoint>
            <Time>2022-09-20T13:54:00.000Z</Time>
            <Position>
              <LatitudeDegrees>49.4079163111746311187744140625</LatitudeDegrees>
              <LongitudeDegrees>20.34292233176529407501220703125</LongitudeDegrees>
            </Position>
            <AltitudeMeters>507</AltitudeMeters>
            <DistanceMeters>NAN</DistanceMeters>
          </Trackpoint>
          <Trackpoint>
            <Time>2022-09-20T13:54:04.000Z</Time>
            <Position>
              <LatitudeDegrees>49.4079421274363994598388671875</LatitudeDegrees>
              <LongitudeDegrees>20.3429482318460941314697265625</LongitudeDegrees>
            </Position>
            <AltitudeMeters>507</AltitudeMeters>
            <DistanceMeters>NAN</DistanceMeters>
          </Trackpoint>
          <Trackpoint>
            <Time>2022-09-20T13:54:16.000Z</Time>
            <Position>
              <LatitudeDegrees>49.40804195590317249298095703125</LatitudeDegrees>
              <LongitudeDegrees>20.34306742250919342041015625</LongitudeDegrees>
            </Position>
            <AltitudeMeters>507.600006103515625</AltitudeMeters>
            <DistanceMeters>NAN</DistanceMeters>
          </Trackpoint>
          <Trackpoint>
            <Time>2022-09-20T13:54:21.000Z</Time>
            <Position>
              <LatitudeDegrees>49.4080564565956592559814453125</LatitudeDegrees>
              <LongitudeDegrees>20.3431299515068531036376953125</LongitudeDegrees>
            </Position>
            <AltitudeMeters>507.600006103515625</AltitudeMeters>
            <DistanceMeters>NAN</DistanceMeters>
          </Trackpoint>
          <Trackpoint>
            <Time>2022-09-20T13:54:22.000Z</Time>
            <Position>
              <LatitudeDegrees>49.40805754624307155609130859375</LatitudeDegrees>
              <LongitudeDegrees>20.34315266646444797515869140625</LongitudeDegrees>
            </Position>
            <AltitudeMeters>507.600006103515625</AltitudeMeters>
            <DistanceMeters>NAN</DistanceMeters>
          </Trackpoint>
          <Trackpoint>
            <Time>2022-09-20T13:54:26.000Z</Time>
            <Position>
              <LatitudeDegrees>49.40807363949716091156005859375</LatitudeDegrees>
              <LongitudeDegrees>20.34322793595492839813232421875</LongitudeDegrees>
            </Position>
            <AltitudeMeters>507.79998779296875</AltitudeMeters>
            <DistanceMeters>NAN</DistanceMeters>
          </Trackpoint>
          <Trackpoint>
            <Time>2022-09-20T13:54:28.000Z</Time>
            <Position>
              <LatitudeDegrees>49.4080852903425693511962890625</LatitudeDegrees>
              <LongitudeDegrees>20.3432489745318889617919921875</LongitudeDegrees>
            </Position>
            <AltitudeMeters>507.79998779296875</AltitudeMeters>
            <DistanceMeters>NAN</DistanceMeters>
          </Trackpoint>
          <Trackpoint>
            <Time>2022-09-20T13:54:29.000Z</Time>
            <Position>
              <LatitudeDegrees>49.40809224732220172882080078125</LatitudeDegrees>
              <LongitudeDegrees>20.34325693733990192413330078125</LongitudeDegrees>
            </Position>
            <AltitudeMeters>507.79998779296875</AltitudeMeters>
            <DistanceMeters>NAN</DistanceMeters>
          </Trackpoint>
          <Trackpoint>
            <Time>2022-09-20T13:54:37.000Z</Time>
            <Position>
              <LatitudeDegrees>49.40814203582704067230224609375</LatitudeDegrees>
              <LongitudeDegrees>20.34331879578530788421630859375</LongitudeDegrees>
            </Position>
            <AltitudeMeters>507.79998779296875</AltitudeMeters>
            <DistanceMeters>NAN</DistanceMeters>
          </Trackpoint>
          <Trackpoint>
            <Time>2022-09-20T13:54:46.000Z</Time>
            <Position>
              <LatitudeDegrees>49.4082019664347171783447265625</LatitudeDegrees>
              <LongitudeDegrees>20.34339599311351776123046875</LongitudeDegrees>
            </Position>
            <AltitudeMeters>508.20001220703125</AltitudeMeters>
            <DistanceMeters>NAN</DistanceMeters>
          </Trackpoint>
          <Trackpoint>
            <Time>2022-09-20T13:54:54.000Z</Time>
            <Position>
              <LatitudeDegrees>49.4082120247185230255126953125</LatitudeDegrees>
              <LongitudeDegrees>20.34340898506343364715576171875</LongitudeDegrees>
            </Position>
            <AltitudeMeters>508.600006103515625</AltitudeMeters>
            <DistanceMeters>NAN</DistanceMeters>
          </Trackpoint>
          <Trackpoint>
            <Time>2022-09-20T13:55:00.000Z</Time>
            <Position>
              <LatitudeDegrees>49.40823934972286224365234375</LatitudeDegrees>
              <LongitudeDegrees>20.3434140980243682861328125</LongitudeDegrees>
            </Position>
            <AltitudeMeters>508.600006103515625</AltitudeMeters>
            <DistanceMeters>NAN</DistanceMeters>
          </Trackpoint>
          <Trackpoint>
            <Time>2022-09-20T13:55:04.000Z</Time>
            <Position>
              <LatitudeDegrees>49.40827547572553157806396484375</LatitudeDegrees>
              <LongitudeDegrees>20.34339741803705692291259765625</LongitudeDegrees>
            </Position>
            <AltitudeMeters>508.600006103515625</AltitudeMeters>
            <DistanceMeters>NAN</DistanceMeters>
          </Trackpoint>
          <Trackpoint>
            <Time>2022-09-20T13:55:10.000Z</Time>
            <Position>
              <LatitudeDegrees>49.40832861699163913726806640625</LatitudeDegrees>
              <LongitudeDegrees>20.34340697340667247772216796875</LongitudeDegrees>
            </Position>
            <AltitudeMeters>508.79998779296875</AltitudeMeters>
            <DistanceMeters>NAN</DistanceMeters>
          </Trackpoint>
          <Trackpoint>
            <Time>2022-09-20T13:55:11.000Z</Time>
            <Position>
              <LatitudeDegrees>49.40833683125674724578857421875</LatitudeDegrees>
              <LongitudeDegrees>20.34341367892920970916748046875</LongitudeDegrees>
            </Position>
            <AltitudeMeters>508.79998779296875</AltitudeMeters>
            <DistanceMeters>NAN</DistanceMeters>
          </Trackpoint>
          <Trackpoint>
            <Time>2022-09-20T13:55:18.000Z</Time>
            <Position>
              <LatitudeDegrees>49.40839089453220367431640625</LatitudeDegrees>
              <LongitudeDegrees>20.3434581868350505828857421875</LongitudeDegrees>
            </Position>
            <AltitudeMeters>509.20001220703125</AltitudeMeters>
            <DistanceMeters>NAN</DistanceMeters>
          </Trackpoint>
          <Trackpoint>
            <Time>2022-09-20T13:55:28.000Z</Time>
            <Position>
              <LatitudeDegrees>49.40846608020365238189697265625</LatitudeDegrees>
              <LongitudeDegrees>20.343525074422359466552734375</LongitudeDegrees>
            </Position>
            <AltitudeMeters>509.600006103515625</AltitudeMeters>
            <DistanceMeters>NAN</DistanceMeters>
          </Trackpoint>
          <Trackpoint>
            <Time>2022-09-20T13:55:34.000Z</Time>
            <Position>
              <LatitudeDegrees>49.40846867859363555908203125</LatitudeDegrees>
              <LongitudeDegrees>20.34353035502135753631591796875</LongitudeDegrees>
            </Position>
            <AltitudeMeters>509.79998779296875</AltitudeMeters>
            <DistanceMeters>NAN</DistanceMeters>
          </Trackpoint>
          <Trackpoint>
            <Time>2022-09-20T13:55:36.000Z</Time>
            <Position>
              <LatitudeDegrees>49.40846867859363555908203125</LatitudeDegrees>
              <LongitudeDegrees>20.34353035502135753631591796875</LongitudeDegrees>
            </Position>
            <AltitudeMeters>509.79998779296875</AltitudeMeters>
            <DistanceMeters>NAN</DistanceMeters>
          </Trackpoint>
          <Trackpoint>
            <Time>2022-09-20T13:55:51.000Z</Time>
            <Position>
              <LatitudeDegrees>49.40850882790982723236083984375</LatitudeDegrees>
              <LongitudeDegrees>20.343576036393642425537109375</LongitudeDegrees>
            </Position>
            <AltitudeMeters>509.600006103515625</AltitudeMeters>
            <DistanceMeters>NAN</DistanceMeters>
          </Trackpoint>
          <Trackpoint>
            <Time>2022-09-20T13:55:57.000Z</Time>
            <Position>
              <LatitudeDegrees>49.40856280736625194549560546875</LatitudeDegrees>
              <LongitudeDegrees>20.3436291776597499847412109375</LongitudeDegrees>
            </Position>
            <AltitudeMeters>509.79998779296875</AltitudeMeters>
            <DistanceMeters>NAN</DistanceMeters>
          </Trackpoint>
          <Trackpoint>
            <Time>2022-09-20T13:55:59.000Z</Time>
            <Position>
              <LatitudeDegrees>49.40857990644872188568115234375</LatitudeDegrees>
              <LongitudeDegrees>20.343643091619014739990234375</LongitudeDegrees>
            </Position>
            <AltitudeMeters>510</AltitudeMeters>
            <DistanceMeters>NAN</DistanceMeters>
          </Trackpoint>
          <Trackpoint>
            <Time>2022-09-20T13:56:07.000Z</Time>
            <Position>
              <LatitudeDegrees>49.40864562056958675384521484375</LatitudeDegrees>
              <LongitudeDegrees>20.343709476292133331298828125</LongitudeDegrees>
            </Position>
            <AltitudeMeters>510.399993896484375</AltitudeMeters>
            <DistanceMeters>NAN</DistanceMeters>
          </Trackpoint>
          <Trackpoint>
            <Time>2022-09-20T13:56:08.000Z</Time>
            <Position>
              <LatitudeDegrees>49.40864562056958675384521484375</LatitudeDegrees>
              <LongitudeDegrees>20.343709476292133331298828125</LongitudeDegrees>
            </Position>
            <AltitudeMeters>510.399993896484375</AltitudeMeters>
            <DistanceMeters>NAN</DistanceMeters>
          </Trackpoint>
          <Trackpoint>
            <Time>2022-09-20T13:56:15.000Z</Time>
            <Position>
              <LatitudeDegrees>49.40870362333953380584716796875</LatitudeDegrees>
              <LongitudeDegrees>20.34377477131783962249755859375</LongitudeDegrees>
            </Position>
            <AltitudeMeters>510.79998779296875</AltitudeMeters>
            <DistanceMeters>NAN</DistanceMeters>
          </Trackpoint>
          <Trackpoint>
            <Time>2022-09-20T13:56:16.000Z</Time>
            <Position>
              <LatitudeDegrees>49.4087109155952930450439453125</LatitudeDegrees>
              <LongitudeDegrees>20.34378080628812313079833984375</LongitudeDegrees>
            </Position>
            <AltitudeMeters>510.79998779296875</AltitudeMeters>
            <DistanceMeters>NAN</DistanceMeters>
          </Trackpoint>
          <Trackpoint>
            <Time>2022-09-20T13:56:26.000Z</Time>
            <Position>
              <LatitudeDegrees>49.4087803177535533905029296875</LatitudeDegrees>
              <LongitudeDegrees>20.3438457660377025604248046875</LongitudeDegrees>
            </Position>
            <AltitudeMeters>511.20001220703125</AltitudeMeters>
            <DistanceMeters>NAN</DistanceMeters>
          </Trackpoint>
          <Trackpoint>
            <Time>2022-09-20T13:56:35.000Z</Time>
            <Position>
              <LatitudeDegrees>49.4088287651538848876953125</LatitudeDegrees>
              <LongitudeDegrees>20.3439175151288509368896484375</LongitudeDegrees>
            </Position>
            <AltitudeMeters>511.600006103515625</AltitudeMeters>
            <DistanceMeters>NAN</DistanceMeters>
          </Trackpoint>
          <Trackpoint>
            <Time>2022-09-20T13:56:38.000Z</Time>
            <Position>
              <LatitudeDegrees>49.4088346324861049652099609375</LatitudeDegrees>
              <LongitudeDegrees>20.34392916597425937652587890625</LongitudeDegrees>
            </Position>
            <AltitudeMeters>511.79998779296875</AltitudeMeters>
            <DistanceMeters>NAN</DistanceMeters>
          </Trackpoint>
          <Trackpoint>
            <Time>2022-09-20T13:56:43.000Z</Time>
            <Position>
              <LatitudeDegrees>49.40886472351849079132080078125</LatitudeDegrees>
              <LongitudeDegrees>20.34396805800497531890869140625</LongitudeDegrees>
            </Position>
            <AltitudeMeters>512.20001220703125</AltitudeMeters>
            <DistanceMeters>NAN</DistanceMeters>
          </Trackpoint>
          <Trackpoint>
            <Time>2022-09-20T13:56:52.000Z</Time>
            <Position>
              <LatitudeDegrees>49.40890830941498279571533203125</LatitudeDegrees>
              <LongitudeDegrees>20.34401684068143367767333984375</LongitudeDegrees>
            </Position>
            <AltitudeMeters>512.79998779296875</AltitudeMeters>
            <DistanceMeters>NAN</DistanceMeters>
          </Trackpoint>
          <Trackpoint>
            <Time>2022-09-20T13:56:58.000Z</Time>
            <Position>
              <LatitudeDegrees>49.4089177809655666351318359375</LatitudeDegrees>
              <LongitudeDegrees>20.34402430057525634765625</LongitudeDegrees>
            </Position>
            <AltitudeMeters>513</AltitudeMeters>
            <DistanceMeters>NAN</DistanceMeters>
          </Trackpoint>
          <Trackpoint>
            <Time>2022-09-20T13:57:01.000Z</Time>
            <Position>
              <LatitudeDegrees>49.40893529914319515228271484375</LatitudeDegrees>
              <LongitudeDegrees>20.34404517151415348052978515625</LongitudeDegrees>
            </Position>
            <AltitudeMeters>513</AltitudeMeters>
            <DistanceMeters>NAN</DistanceMeters>
          </Trackpoint>
          <Trackpoint>
            <Time>2022-09-20T13:57:04.000Z</Time>
            <Position>
              <LatitudeDegrees>49.40894619561731815338134765625</LatitudeDegrees>
              <LongitudeDegrees>20.34406897611916065216064453125</LongitudeDegrees>
            </Position>
            <AltitudeMeters>513</AltitudeMeters>
            <DistanceMeters>NAN</DistanceMeters>
          </Trackpoint>
          <Trackpoint>
            <Time>2022-09-20T13:57:08.000Z</Time>
            <Position>
              <LatitudeDegrees>49.408973269164562225341796875</LatitudeDegrees>
              <LongitudeDegrees>20.34410635940730571746826171875</LongitudeDegrees>
            </Position>
            <AltitudeMeters>513.4000244140625</AltitudeMeters>
            <DistanceMeters>NAN</DistanceMeters>
          </Trackpoint>
          <Trackpoint>
            <Time>2022-09-20T13:57:14.000Z</Time>
            <Position>
              <LatitudeDegrees>49.409008137881755828857421875</LatitudeDegrees>
              <LongitudeDegrees>20.34416469745337963104248046875</LongitudeDegrees>
            </Position>
            <AltitudeMeters>513.5999755859375</AltitudeMeters>
            <DistanceMeters>NAN</DistanceMeters>
          </Trackpoint>
          <Trackpoint>
            <Time>2022-09-20T13:57:18.000Z</Time>
            <Position>
              <LatitudeDegrees>49.40900822170078754425048828125</LatitudeDegrees>
              <LongitudeDegrees>20.344169139862060546875</LongitudeDegrees>
            </Position>
            <AltitudeMeters>514</AltitudeMeters>
            <DistanceMeters>NAN</DistanceMeters>
          </Trackpoint>
          <Trackpoint>
            <Time>2022-09-20T13:57:22.000Z</Time>
            <Position>
              <LatitudeDegrees>49.40900822170078754425048828125</LatitudeDegrees>
              <LongitudeDegrees>20.344169139862060546875</LongitudeDegrees>
            </Position>
            <AltitudeMeters>514.20001220703125</AltitudeMeters>
            <DistanceMeters>NAN</DistanceMeters>
          </Trackpoint>
          <Trackpoint>
            <Time>2022-09-20T13:57:28.000Z</Time>
            <Position>
              <LatitudeDegrees>49.4090448506176471710205078125</LatitudeDegrees>
              <LongitudeDegrees>20.34422588534653186798095703125</LongitudeDegrees>
            </Position>
            <AltitudeMeters>514.20001220703125</AltitudeMeters>
            <DistanceMeters>NAN</DistanceMeters>
          </Trackpoint>
          <Trackpoint>
            <Time>2022-09-20T13:57:33.000Z</Time>
            <Position>
              <LatitudeDegrees>49.40907091833651065826416015625</LatitudeDegrees>
              <LongitudeDegrees>20.34427466802299022674560546875</LongitudeDegrees>
            </Position>
            <AltitudeMeters>514.4000244140625</AltitudeMeters>
            <DistanceMeters>NAN</DistanceMeters>
          </Trackpoint>
          <Trackpoint>
            <Time>2022-09-20T13:57:38.000Z</Time>
            <Position>
              <LatitudeDegrees>49.409075193107128143310546875</LatitudeDegrees>
              <LongitudeDegrees>20.3443114645779132843017578125</LongitudeDegrees>
            </Position>
            <AltitudeMeters>514.79998779296875</AltitudeMeters>
            <DistanceMeters>NAN</DistanceMeters>
          </Trackpoint>
          <Trackpoint>
            <Time>2022-09-20T13:57:42.000Z</Time>
            <Position>
              <LatitudeDegrees>49.40910008735954761505126953125</LatitudeDegrees>
              <LongitudeDegrees>20.34435890614986419677734375</LongitudeDegrees>
            </Position>
            <AltitudeMeters>515</AltitudeMeters>
            <DistanceMeters>NAN</DistanceMeters>
          </Trackpoint>
          <Trackpoint>
            <Time>2022-09-20T13:57:45.000Z</Time>
            <Position>
              <LatitudeDegrees>49.40910394303500652313232421875</LatitudeDegrees>
              <LongitudeDegrees>20.34437089227139949798583984375</LongitudeDegrees>
            </Position>
            <AltitudeMeters>515.20001220703125</AltitudeMeters>
            <DistanceMeters>NAN</DistanceMeters>
          </Trackpoint>
          <Trackpoint>
            <Time>2022-09-20T13:57:52.000Z</Time>
            <Position>
              <LatitudeDegrees>49.40912875346839427947998046875</LatitudeDegrees>
              <LongitudeDegrees>20.34441414289176464080810546875</LongitudeDegrees>
            </Position>
            <AltitudeMeters>515.4000244140625</AltitudeMeters>
            <DistanceMeters>NAN</DistanceMeters>
          </Trackpoint>
          <Trackpoint>
            <Time>2022-09-20T13:58:02.000Z</Time>
            <Position>
              <LatitudeDegrees>49.40914727747440338134765625</LatitudeDegrees>
              <LongitudeDegrees>20.34451623447239398956298828125</LongitudeDegrees>
            </Position>
            <AltitudeMeters>516</AltitudeMeters>
            <DistanceMeters>NAN</DistanceMeters>
          </Trackpoint>
          <Trackpoint>
            <Time>2022-09-20T13:58:05.000Z</Time>
            <Position>
              <LatitudeDegrees>49.40915926359593868255615234375</LatitudeDegrees>
              <LongitudeDegrees>20.34454791806638240814208984375</LongitudeDegrees>
            </Position>
            <AltitudeMeters>516.20001220703125</AltitudeMeters>
            <DistanceMeters>NAN</DistanceMeters>
          </Trackpoint>
          <Trackpoint>
            <Time>2022-09-20T13:58:06.000Z</Time>
            <Position>
              <LatitudeDegrees>49.40916345454752445220947265625</LatitudeDegrees>
              <LongitudeDegrees>20.34456074237823486328125</LongitudeDegrees>
            </Position>
            <AltitudeMeters>516.4000244140625</AltitudeMeters>
            <DistanceMeters>NAN</DistanceMeters>
          </Trackpoint>
          <Trackpoint>
            <Time>2022-09-20T13:58:10.000Z</Time>
            <Position>
              <LatitudeDegrees>49.40917401574552059173583984375</LatitudeDegrees>
              <LongitudeDegrees>20.34460793249309062957763671875</LongitudeDegrees>
            </Position>
            <AltitudeMeters>516.5999755859375</AltitudeMeters>
            <DistanceMeters>NAN</DistanceMeters>
          </Trackpoint>
          <Trackpoint>
            <Time>2022-09-20T13:58:15.000Z</Time>
            <Position>
              <LatitudeDegrees>49.40918927080929279327392578125</LatitudeDegrees>
              <LongitudeDegrees>20.34466291777789592742919921875</LongitudeDegrees>
            </Position>
            <AltitudeMeters>517</AltitudeMeters>
            <DistanceMeters>NAN</DistanceMeters>
          </Trackpoint>
          <Trackpoint>
            <Time>2022-09-20T13:58:17.000Z</Time>
            <Position>
              <LatitudeDegrees>49.40919664688408374786376953125</LatitudeDegrees>
              <LongitudeDegrees>20.3446881473064422607421875</LongitudeDegrees>
            </Position>
            <AltitudeMeters>517.20001220703125</AltitudeMeters>
            <DistanceMeters>NAN</DistanceMeters>
          </Trackpoint>
          <Trackpoint>
            <Time>2022-09-20T13:58:30.000Z</Time>
            <Position>
              <LatitudeDegrees>49.409234784543514251708984375</LatitudeDegrees>
              <LongitudeDegrees>20.34482485614717006683349609375</LongitudeDegrees>
            </Position>
            <AltitudeMeters>518</AltitudeMeters>
            <DistanceMeters>NAN</DistanceMeters>
          </Trackpoint>
          <Trackpoint>
            <Time>2022-09-20T13:58:32.000Z</Time>
            <Position>
              <LatitudeDegrees>49.409234784543514251708984375</LatitudeDegrees>
              <LongitudeDegrees>20.34482485614717006683349609375</LongitudeDegrees>
            </Position>
            <AltitudeMeters>518.20001220703125</AltitudeMeters>
            <DistanceMeters>NAN</DistanceMeters>
          </Trackpoint>
          <Trackpoint>
            <Time>2022-09-20T13:58:38.000Z</Time>
            <Position>
              <LatitudeDegrees>49.409234784543514251708984375</LatitudeDegrees>
              <LongitudeDegrees>20.34482485614717006683349609375</LongitudeDegrees>
            </Position>
            <AltitudeMeters>518.20001220703125</AltitudeMeters>
            <DistanceMeters>NAN</DistanceMeters>
          </Trackpoint>
          <Trackpoint>
            <Time>2022-09-20T13:58:53.000Z</Time>
            <Position>
              <LatitudeDegrees>49.4092507101595401763916015625</LatitudeDegrees>
              <LongitudeDegrees>20.3448941744863986968994140625</LongitudeDegrees>
            </Position>
            <AltitudeMeters>518.20001220703125</AltitudeMeters>
            <DistanceMeters>NAN</DistanceMeters>
          </Trackpoint>
          <Trackpoint>
            <Time>2022-09-20T13:58:58.000Z</Time>
            <Position>
              <LatitudeDegrees>49.4092651270329952239990234375</LatitudeDegrees>
              <LongitudeDegrees>20.34498562105000019073486328125</LongitudeDegrees>
            </Position>
            <AltitudeMeters>518.5999755859375</AltitudeMeters>
            <DistanceMeters>NAN</DistanceMeters>
          </Trackpoint>
          <Trackpoint>
            <Time>2022-09-20T13:59:00.000Z</Time>
            <Position>
              <LatitudeDegrees>49.40927241928875446319580078125</LatitudeDegrees>
              <LongitudeDegrees>20.34501604735851287841796875</LongitudeDegrees>
            </Position>
            <AltitudeMeters>518.79998779296875</AltitudeMeters>
            <DistanceMeters>NAN</DistanceMeters>
          </Trackpoint>
          <Trackpoint>
            <Time>2022-09-20T13:59:04.000Z</Time>
            <Position>
              <LatitudeDegrees>49.40928465686738491058349609375</LatitudeDegrees>
              <LongitudeDegrees>20.34506944008171558380126953125</LongitudeDegrees>
            </Position>
            <AltitudeMeters>519</AltitudeMeters>
            <DistanceMeters>NAN</DistanceMeters>
          </Trackpoint>
          <Trackpoint>
            <Time>2022-09-20T13:59:06.000Z</Time>
            <Position>
              <LatitudeDegrees>49.40928876399993896484375</LatitudeDegrees>
              <LongitudeDegrees>20.34509307704865932464599609375</LongitudeDegrees>
            </Position>
            <AltitudeMeters>519.20001220703125</AltitudeMeters>
            <DistanceMeters>NAN</DistanceMeters>
          </Trackpoint>
          <Trackpoint>
            <Time>2022-09-20T13:59:08.000Z</Time>
            <Position>
              <LatitudeDegrees>49.4092909432947635650634765625</LatitudeDegrees>
              <LongitudeDegrees>20.34512409009039402008056640625</LongitudeDegrees>
            </Position>
            <AltitudeMeters>519.20001220703125</AltitudeMeters>
            <DistanceMeters>NAN</DistanceMeters>
          </Trackpoint>
          <Trackpoint>
            <Time>2022-09-20T13:59:16.000Z</Time>
            <Position>
              <LatitudeDegrees>49.40929672680795192718505859375</LatitudeDegrees>
              <LongitudeDegrees>20.34523389302194118499755859375</LongitudeDegrees>
            </Position>
            <AltitudeMeters>519.79998779296875</AltitudeMeters>
            <DistanceMeters>NAN</DistanceMeters>
          </Trackpoint>
          <Trackpoint>
            <Time>2022-09-20T13:59:23.000Z</Time>
            <Position>
              <LatitudeDegrees>49.40929672680795192718505859375</LatitudeDegrees>
              <LongitudeDegrees>20.34532223828136920928955078125</LongitudeDegrees>
            </Position>
            <AltitudeMeters>520.20001220703125</AltitudeMeters>
            <DistanceMeters>NAN</DistanceMeters>
          </Trackpoint>
          <Trackpoint>
            <Time>2022-09-20T13:59:24.000Z</Time>
            <Position>
              <LatitudeDegrees>49.40929454751312732696533203125</LatitudeDegrees>
              <LongitudeDegrees>20.345335900783538818359375</LongitudeDegrees>
            </Position>
            <AltitudeMeters>520.4000244140625</AltitudeMeters>
            <DistanceMeters>NAN</DistanceMeters>
          </Trackpoint>
          <Trackpoint>
            <Time>2022-09-20T13:59:26.000Z</Time>
            <Position>
              <LatitudeDegrees>49.40929052419960498809814453125</LatitudeDegrees>
              <LongitudeDegrees>20.3453575260937213897705078125</LongitudeDegrees>
            </Position>
            <AltitudeMeters>520.5999755859375</AltitudeMeters>
            <DistanceMeters>NAN</DistanceMeters>
          </Trackpoint>
          <Trackpoint>
            <Time>2022-09-20T13:59:30.000Z</Time>
            <Position>
              <LatitudeDegrees>49.40929572097957134246826171875</LatitudeDegrees>
              <LongitudeDegrees>20.34540656022727489471435546875</LongitudeDegrees>
            </Position>
            <AltitudeMeters>520.79998779296875</AltitudeMeters>
            <DistanceMeters>NAN</DistanceMeters>
          </Trackpoint>
          <Trackpoint>
            <Time>2022-09-20T13:59:36.000Z</Time>
            <Position>
              <LatitudeDegrees>49.409291446208953857421875</LatitudeDegrees>
              <LongitudeDegrees>20.3454446978867053985595703125</LongitudeDegrees>
            </Position>
            <AltitudeMeters>521.20001220703125</AltitudeMeters>
            <DistanceMeters>NAN</DistanceMeters>
          </Trackpoint>
          <Trackpoint>
            <Time>2022-09-20T13:59:37.000Z</Time>
            <Position>
              <LatitudeDegrees>49.409291446208953857421875</LatitudeDegrees>
              <LongitudeDegrees>20.3454446978867053985595703125</LongitudeDegrees>
            </Position>
            <AltitudeMeters>521.20001220703125</AltitudeMeters>
            <DistanceMeters>NAN</DistanceMeters>
          </Trackpoint>
          <Trackpoint>
            <Time>2022-09-20T13:59:41.000Z</Time>
            <Position>
              <LatitudeDegrees>49.4092885963618755340576171875</LatitudeDegrees>
              <LongitudeDegrees>20.345451571047306060791015625</LongitudeDegrees>
            </Position>
            <AltitudeMeters>521.4000244140625</AltitudeMeters>
            <DistanceMeters>NAN</DistanceMeters>
          </Trackpoint>
          <Trackpoint>
            <Time>2022-09-20T13:59:45.000Z</Time>
            <Position>
              <LatitudeDegrees>49.40928348340094089508056640625</LatitudeDegrees>
              <LongitudeDegrees>20.34550429321825504302978515625</LongitudeDegrees>
            </Position>
            <AltitudeMeters>521.4000244140625</AltitudeMeters>
            <DistanceMeters>NAN</DistanceMeters>
          </Trackpoint>
          <Trackpoint>
            <Time>2022-09-20T13:59:55.000Z</Time>
            <Position>
              <LatitudeDegrees>49.40928733907639980316162109375</LatitudeDegrees>
              <LongitudeDegrees>20.34564745612442493438720703125</LongitudeDegrees>
            </Position>
            <AltitudeMeters>522.20001220703125</AltitudeMeters>
            <DistanceMeters>NAN</DistanceMeters>
          </Trackpoint>
          <Trackpoint>
            <Time>2022-09-20T14:00:00.000Z</Time>
            <Position>
              <LatitudeDegrees>49.4092761911451816558837890625</LatitudeDegrees>
              <LongitudeDegrees>20.34571342170238494873046875</LongitudeDegrees>
            </Position>
            <AltitudeMeters>522.4000244140625</AltitudeMeters>
            <DistanceMeters>NAN</DistanceMeters>
          </Trackpoint>
          <Trackpoint>
            <Time>2022-09-20T14:00:03.000Z</Time>
            <Position>
              <LatitudeDegrees>49.409262277185916900634765625</LatitudeDegrees>
              <LongitudeDegrees>20.34574988298118114471435546875</LongitudeDegrees>
            </Position>
            <AltitudeMeters>522.5999755859375</AltitudeMeters>
            <DistanceMeters>NAN</DistanceMeters>
          </Trackpoint>
          <Trackpoint>
            <Time>2022-09-20T14:00:05.000Z</Time>
            <Position>
              <LatitudeDegrees>49.4092587567865848541259765625</LatitudeDegrees>
              <LongitudeDegrees>20.34576362930238246917724609375</LongitudeDegrees>
            </Position>
            <AltitudeMeters>522.5999755859375</AltitudeMeters>
            <DistanceMeters>NAN</DistanceMeters>
          </Trackpoint>
          <Trackpoint>
            <Time>2022-09-20T14:00:07.000Z</Time>
            <Position>
              <LatitudeDegrees>49.4092510454356670379638671875</LatitudeDegrees>
              <LongitudeDegrees>20.34580637700855731964111328125</LongitudeDegrees>
            </Position>
            <AltitudeMeters>522.79998779296875</AltitudeMeters>
            <DistanceMeters>NAN</DistanceMeters>
          </Trackpoint>
          <Trackpoint>
            <Time>2022-09-20T14:00:12.000Z</Time>
            <Position>
              <LatitudeDegrees>49.409220702946186065673828125</LatitudeDegrees>
              <LongitudeDegrees>20.34587225876748561859130859375</LongitudeDegrees>
            </Position>
            <AltitudeMeters>523.4000244140625</AltitudeMeters>
            <DistanceMeters>NAN</DistanceMeters>
          </Trackpoint>
          <Trackpoint>
            <Time>2022-09-20T14:00:13.000Z</Time>
            <Position>
              <LatitudeDegrees>49.40922045148909091949462890625</LatitudeDegrees>
              <LongitudeDegrees>20.34588131122291088104248046875</LongitudeDegrees>
            </Position>
            <AltitudeMeters>523.4000244140625</AltitudeMeters>
            <DistanceMeters>NAN</DistanceMeters>
          </Trackpoint>
          <Trackpoint>
            <Time>2022-09-20T14:00:19.000Z</Time>
            <Position>
              <LatitudeDegrees>49.40920486114919185638427734375</LatitudeDegrees>
              <LongitudeDegrees>20.3459590114653110504150390625</LongitudeDegrees>
            </Position>
            <AltitudeMeters>523.79998779296875</AltitudeMeters>
            <DistanceMeters>NAN</DistanceMeters>
          </Trackpoint>
          <Trackpoint>
            <Time>2022-09-20T14:00:28.000Z</Time>
            <Position>
              <LatitudeDegrees>49.40917954780161380767822265625</LatitudeDegrees>
              <LongitudeDegrees>20.3460602648556232452392578125</LongitudeDegrees>
            </Position>
            <AltitudeMeters>524.4000244140625</AltitudeMeters>
            <DistanceMeters>NAN</DistanceMeters>
          </Trackpoint>
          <Trackpoint>
            <Time>2022-09-20T14:00:29.000Z</Time>
            <Position>
              <LatitudeDegrees>49.40917636267840862274169921875</LatitudeDegrees>
              <LongitudeDegrees>20.3460641205310821533203125</LongitudeDegrees>
            </Position>
            <AltitudeMeters>524.5999755859375</AltitudeMeters>
            <DistanceMeters>NAN</DistanceMeters>
          </Trackpoint>
          <Trackpoint>
            <Time>2022-09-20T14:00:35.000Z</Time>
            <Position>
              <LatitudeDegrees>49.4091759435832500457763671875</LatitudeDegrees>
              <LongitudeDegrees>20.34606839530169963836669921875</LongitudeDegrees>
            </Position>
            <AltitudeMeters>524.5999755859375</AltitudeMeters>
            <DistanceMeters>NAN</DistanceMeters>
          </Trackpoint>
          <Trackpoint>
            <Time>2022-09-20T14:00:40.000Z</Time>
            <Position>
              <LatitudeDegrees>49.40914484672248363494873046875</LatitudeDegrees>
              <LongitudeDegrees>20.3461175970733165740966796875</LongitudeDegrees>
            </Position>
            <AltitudeMeters>524.79998779296875</AltitudeMeters>
            <DistanceMeters>NAN</DistanceMeters>
          </Trackpoint>
          <Trackpoint>
            <Time>2022-09-20T14:00:47.000Z</Time>
            <Position>
              <LatitudeDegrees>49.4091209582984447479248046875</LatitudeDegrees>
              <LongitudeDegrees>20.34619152545928955078125</LongitudeDegrees>
            </Position>
            <AltitudeMeters>525.20001220703125</AltitudeMeters>
            <DistanceMeters>NAN</DistanceMeters>
          </Trackpoint>
          <Trackpoint>
            <Time>2022-09-20T14:00:54.000Z</Time>
            <Position>
              <LatitudeDegrees>49.40908047370612621307373046875</LatitudeDegrees>
              <LongitudeDegrees>20.34626302309334278106689453125</LongitudeDegrees>
            </Position>
            <AltitudeMeters>525.5999755859375</AltitudeMeters>
            <DistanceMeters>NAN</DistanceMeters>
          </Trackpoint>
          <Trackpoint>
            <Time>2022-09-20T14:00:57.000Z</Time>
            <Position>
              <LatitudeDegrees>49.4090669788420200347900390625</LatitudeDegrees>
              <LongitudeDegrees>20.3462983109056949615478515625</LongitudeDegrees>
            </Position>
            <AltitudeMeters>525.79998779296875</AltitudeMeters>
            <DistanceMeters>NAN</DistanceMeters>
          </Trackpoint>
          <Trackpoint>
            <Time>2022-09-20T14:01:08.000Z</Time>
            <Position>
              <LatitudeDegrees>49.409008137881755828857421875</LatitudeDegrees>
              <LongitudeDegrees>20.34640518017113208770751953125</LongitudeDegrees>
            </Position>
            <AltitudeMeters>526.5999755859375</AltitudeMeters>
            <DistanceMeters>NAN</DistanceMeters>
          </Trackpoint>
          <Trackpoint>
            <Time>2022-09-20T14:01:16.000Z</Time>
            <Position>
              <LatitudeDegrees>49.40897938795387744903564453125</LatitudeDegrees>
              <LongitudeDegrees>20.346451699733734130859375</LongitudeDegrees>
            </Position>
            <AltitudeMeters>527</AltitudeMeters>
            <DistanceMeters>NAN</DistanceMeters>
          </Trackpoint>
          <Trackpoint>
            <Time>2022-09-20T14:01:24.000Z</Time>
            <Position>
              <LatitudeDegrees>49.4089187867939472198486328125</LatitudeDegrees>
              <LongitudeDegrees>20.34651699475944042205810546875</LongitudeDegrees>
            </Position>
            <AltitudeMeters>527.4000244140625</AltitudeMeters>
            <DistanceMeters>NAN</DistanceMeters>
          </Trackpoint>
          <Trackpoint>
            <Time>2022-09-20T14:01:31.000Z</Time>
            <Position>
              <LatitudeDegrees>49.40886774100363254547119140625</LatitudeDegrees>
              <LongitudeDegrees>20.3465718962252140045166015625</LongitudeDegrees>
            </Position>
            <AltitudeMeters>527.79998779296875</AltitudeMeters>
            <DistanceMeters>NAN</DistanceMeters>
          </Trackpoint>
          <Trackpoint>
            <Time>2022-09-20T14:01:33.000Z</Time>
            <Position>
              <LatitudeDegrees>49.408867657184600830078125</LatitudeDegrees>
              <LongitudeDegrees>20.34657382406294345855712890625</LongitudeDegrees>
            </Position>
            <AltitudeMeters>528</AltitudeMeters>
            <DistanceMeters>NAN</DistanceMeters>
          </Trackpoint>
          <Trackpoint>
            <Time>2022-09-20T14:01:38.000Z</Time>
            <Position>
              <LatitudeDegrees>49.408867657184600830078125</LatitudeDegrees>
              <LongitudeDegrees>20.34657382406294345855712890625</LongitudeDegrees>
            </Position>
            <AltitudeMeters>528</AltitudeMeters>
            <DistanceMeters>NAN</DistanceMeters>
          </Trackpoint>
          <Trackpoint>
            <Time>2022-09-20T14:01:40.000Z</Time>
            <Position>
              <LatitudeDegrees>49.40886170603334903717041015625</LatitudeDegrees>
              <LongitudeDegrees>20.346580445766448974609375</LongitudeDegrees>
            </Position>
            <AltitudeMeters>528</AltitudeMeters>
            <DistanceMeters>NAN</DistanceMeters>
          </Trackpoint>
          <Trackpoint>
            <Time>2022-09-20T14:01:45.000Z</Time>
            <Position>
              <LatitudeDegrees>49.40883823670446872711181640625</LatitudeDegrees>
              <LongitudeDegrees>20.34661171026527881622314453125</LongitudeDegrees>
            </Position>
            <AltitudeMeters>528</AltitudeMeters>
            <DistanceMeters>NAN</DistanceMeters>
          </Trackpoint>
          <Trackpoint>
            <Time>2022-09-20T14:01:54.000Z</Time>
            <Position>
              <LatitudeDegrees>49.40876313485205173492431640625</LatitudeDegrees>
              <LongitudeDegrees>20.3466885723173618316650390625</LongitudeDegrees>
            </Position>
            <AltitudeMeters>528.5999755859375</AltitudeMeters>
            <DistanceMeters>NAN</DistanceMeters>
          </Trackpoint>
          <Trackpoint>
            <Time>2022-09-20T14:02:00.000Z</Time>
            <Position>
              <LatitudeDegrees>49.4087266735732555389404296875</LatitudeDegrees>
              <LongitudeDegrees>20.3467400372028350830078125</LongitudeDegrees>
            </Position>
            <AltitudeMeters>528.79998779296875</AltitudeMeters>
            <DistanceMeters>NAN</DistanceMeters>
          </Trackpoint>
          <Trackpoint>
            <Time>2022-09-20T14:02:04.000Z</Time>
            <Position>
              <LatitudeDegrees>49.4086968339979648590087890625</LatitudeDegrees>
              <LongitudeDegrees>20.3467650152742862701416015625</LongitudeDegrees>
            </Position>
            <AltitudeMeters>529.4000244140625</AltitudeMeters>
            <DistanceMeters>NAN</DistanceMeters>
          </Trackpoint>
          <Trackpoint>
            <Time>2022-09-20T14:02:09.000Z</Time>
            <Position>
              <LatitudeDegrees>49.40865911543369293212890625</LatitudeDegrees>
              <LongitudeDegrees>20.34681354649364948272705078125</LongitudeDegrees>
            </Position>
            <AltitudeMeters>529.5999755859375</AltitudeMeters>
            <DistanceMeters>NAN</DistanceMeters>
          </Trackpoint>
          <Trackpoint>
            <Time>2022-09-20T14:02:12.000Z</Time>
            <Position>
              <LatitudeDegrees>49.40864008851349353790283203125</LatitudeDegrees>
              <LongitudeDegrees>20.34683584235608577728271484375</LongitudeDegrees>
            </Position>
            <AltitudeMeters>529.79998779296875</AltitudeMeters>
            <DistanceMeters>NAN</DistanceMeters>
          </Trackpoint>
          <Trackpoint>
            <Time>2022-09-20T14:02:13.000Z</Time>
            <Position>
              <LatitudeDegrees>49.4086324609816074371337890625</LatitudeDegrees>
              <LongitudeDegrees>20.34684036858379840850830078125</LongitudeDegrees>
            </Position>
            <AltitudeMeters>529.79998779296875</AltitudeMeters>
            <DistanceMeters>NAN</DistanceMeters>
          </Trackpoint>
          <Trackpoint>
            <Time>2022-09-20T14:02:22.000Z</Time>
            <Position>
              <LatitudeDegrees>49.408561550080776214599609375</LatitudeDegrees>
              <LongitudeDegrees>20.3469004668295383453369140625</LongitudeDegrees>
            </Position>
            <AltitudeMeters>530.4000244140625</AltitudeMeters>
            <DistanceMeters>NAN</DistanceMeters>
          </Trackpoint>
          <Trackpoint>
            <Time>2022-09-20T14:02:23.000Z</Time>
            <Position>
              <LatitudeDegrees>49.40855291672050952911376953125</LatitudeDegrees>
              <LongitudeDegrees>20.3469075076282024383544921875</LongitudeDegrees>
            </Position>
            <AltitudeMeters>530.4000244140625</AltitudeMeters>
            <DistanceMeters>NAN</DistanceMeters>
          </Trackpoint>
          <Trackpoint>
            <Time>2022-09-20T14:02:30.000Z</Time>
            <Position>
              <LatitudeDegrees>49.40850715152919292449951171875</LatitudeDegrees>
              <LongitudeDegrees>20.34695587120950222015380859375</LongitudeDegrees>
            </Position>
            <AltitudeMeters>530.79998779296875</AltitudeMeters>
            <DistanceMeters>NAN</DistanceMeters>
          </Trackpoint>
          <Trackpoint>
            <Time>2022-09-20T14:02:32.000Z</Time>
            <Position>
              <LatitudeDegrees>49.4085020385682582855224609375</LatitudeDegrees>
              <LongitudeDegrees>20.34696173854172229766845703125</LongitudeDegrees>
            </Position>
            <AltitudeMeters>531</AltitudeMeters>
            <DistanceMeters>NAN</DistanceMeters>
          </Trackpoint>
          <Trackpoint>
            <Time>2022-09-20T14:02:41.000Z</Time>
            <Position>
              <LatitudeDegrees>49.4084507413208484649658203125</LatitudeDegrees>
              <LongitudeDegrees>20.3470168076455593109130859375</LongitudeDegrees>
            </Position>
            <AltitudeMeters>531.4000244140625</AltitudeMeters>
            <DistanceMeters>NAN</DistanceMeters>
          </Trackpoint>
          <Trackpoint>
            <Time>2022-09-20T14:02:48.000Z</Time>
            <Position>
              <LatitudeDegrees>49.4084001146256923675537109375</LatitudeDegrees>
              <LongitudeDegrees>20.34706391394138336181640625</LongitudeDegrees>
            </Position>
            <AltitudeMeters>531.79998779296875</AltitudeMeters>
            <DistanceMeters>NAN</DistanceMeters>
          </Trackpoint>
          <Trackpoint>
            <Time>2022-09-20T14:02:50.000Z</Time>
            <Position>
              <LatitudeDegrees>49.40838930197060108184814453125</LatitudeDegrees>
              <LongitudeDegrees>20.3470798395574092864990234375</LongitudeDegrees>
            </Position>
            <AltitudeMeters>532</AltitudeMeters>
            <DistanceMeters>NAN</DistanceMeters>
          </Trackpoint>
          <Trackpoint>
            <Time>2022-09-20T14:02:57.000Z</Time>
            <Position>
              <LatitudeDegrees>49.40834940411150455474853515625</LatitudeDegrees>
              <LongitudeDegrees>20.34712485037744045257568359375</LongitudeDegrees>
            </Position>
            <AltitudeMeters>532.20001220703125</AltitudeMeters>
            <DistanceMeters>NAN</DistanceMeters>
          </Trackpoint>
          <Trackpoint>
            <Time>2022-09-20T14:03:08.000Z</Time>
            <Position>
              <LatitudeDegrees>49.4082976877689361572265625</LatitudeDegrees>
              <LongitudeDegrees>20.3471841104328632354736328125</LongitudeDegrees>
            </Position>
            <AltitudeMeters>532.5999755859375</AltitudeMeters>
            <DistanceMeters>NAN</DistanceMeters>
          </Trackpoint>
          <Trackpoint>
            <Time>2022-09-20T14:03:10.000Z</Time>
            <Position>
              <LatitudeDegrees>49.40827296115458011627197265625</LatitudeDegrees>
              <LongitudeDegrees>20.347206406295299530029296875</LongitudeDegrees>
            </Position>
            <AltitudeMeters>532.79998779296875</AltitudeMeters>
            <DistanceMeters>NAN</DistanceMeters>
          </Trackpoint>
          <Trackpoint>
            <Time>2022-09-20T14:03:14.000Z</Time>
            <Position>
              <LatitudeDegrees>49.4082495756447315216064453125</LatitudeDegrees>
              <LongitudeDegrees>20.34724772907793521881103515625</LongitudeDegrees>
            </Position>
            <AltitudeMeters>533</AltitudeMeters>
            <DistanceMeters>NAN</DistanceMeters>
          </Trackpoint>
          <Trackpoint>
            <Time>2022-09-20T14:03:22.000Z</Time>
            <Position>
              <LatitudeDegrees>49.40820557065308094024658203125</LatitudeDegrees>
              <LongitudeDegrees>20.3473091684281826019287109375</LongitudeDegrees>
            </Position>
            <AltitudeMeters>533.4000244140625</AltitudeMeters>
            <DistanceMeters>NAN</DistanceMeters>
          </Trackpoint>
          <Trackpoint>
            <Time>2022-09-20T14:03:31.000Z</Time>
            <Position>
              <LatitudeDegrees>49.40815729089081287384033203125</LatitudeDegrees>
              <LongitudeDegrees>20.34736691974103450775146484375</LongitudeDegrees>
            </Position>
            <AltitudeMeters>533.79998779296875</AltitudeMeters>
            <DistanceMeters>NAN</DistanceMeters>
          </Trackpoint>
          <Trackpoint>
            <Time>2022-09-20T14:03:34.000Z</Time>
            <Position>
              <LatitudeDegrees>49.40814077854156494140625</LatitudeDegrees>
              <LongitudeDegrees>20.34739877097308635711669921875</LongitudeDegrees>
            </Position>
            <AltitudeMeters>534</AltitudeMeters>
            <DistanceMeters>NAN</DistanceMeters>
          </Trackpoint>
          <Trackpoint>
            <Time>2022-09-20T14:03:41.000Z</Time>
            <Position>
              <LatitudeDegrees>49.40812258981168270111083984375</LatitudeDegrees>
              <LongitudeDegrees>20.34743665717542171478271484375</LongitudeDegrees>
            </Position>
            <AltitudeMeters>534.4000244140625</AltitudeMeters>
            <DistanceMeters>NAN</DistanceMeters>
          </Trackpoint>
          <Trackpoint>
            <Time>2022-09-20T14:03:49.000Z</Time>
            <Position>
              <LatitudeDegrees>49.408079423010349273681640625</LatitudeDegrees>
              <LongitudeDegrees>20.34751117229461669921875</LongitudeDegrees>
            </Position>
            <AltitudeMeters>534.79998779296875</AltitudeMeters>
            <DistanceMeters>NAN</DistanceMeters>
          </Trackpoint>
          <Trackpoint>
            <Time>2022-09-20T14:03:54.000Z</Time>
            <Position>
              <LatitudeDegrees>49.408056624233722686767578125</LatitudeDegrees>
              <LongitudeDegrees>20.34756456501781940460205078125</LongitudeDegrees>
            </Position>
            <AltitudeMeters>535</AltitudeMeters>
            <DistanceMeters>NAN</DistanceMeters>
          </Trackpoint>
          <Trackpoint>
            <Time>2022-09-20T14:03:59.000Z</Time>
            <Position>
              <LatitudeDegrees>49.408049918711185455322265625</LatitudeDegrees>
              <LongitudeDegrees>20.347583591938018798828125</LongitudeDegrees>
            </Position>
            <AltitudeMeters>535.4000244140625</AltitudeMeters>
            <DistanceMeters>NAN</DistanceMeters>
          </Trackpoint>
          <Trackpoint>
            <Time>2022-09-20T14:04:06.000Z</Time>
            <Position>
              <LatitudeDegrees>49.4080235995352268218994140625</LatitudeDegrees>
              <LongitudeDegrees>20.3476427681744098663330078125</LongitudeDegrees>
            </Position>
            <AltitudeMeters>535.5999755859375</AltitudeMeters>
            <DistanceMeters>NAN</DistanceMeters>
          </Trackpoint>
          <Trackpoint>
            <Time>2022-09-20T14:04:07.000Z</Time>
            <Position>
              <LatitudeDegrees>49.408020079135894775390625</LatitudeDegrees>
              <LongitudeDegrees>20.34764888696372509002685546875</LongitudeDegrees>
            </Position>
            <AltitudeMeters>535.5999755859375</AltitudeMeters>
            <DistanceMeters>NAN</DistanceMeters>
          </Trackpoint>
          <Trackpoint>
            <Time>2022-09-20T14:04:15.000Z</Time>
            <Position>
              <LatitudeDegrees>49.40797775052487850189208984375</LatitudeDegrees>
              <LongitudeDegrees>20.3477309457957744598388671875</LongitudeDegrees>
            </Position>
            <AltitudeMeters>536</AltitudeMeters>
            <DistanceMeters>NAN</DistanceMeters>
          </Trackpoint>
          <Trackpoint>
            <Time>2022-09-20T14:04:19.000Z</Time>
            <Position>
              <LatitudeDegrees>49.40796081908047199249267578125</LatitudeDegrees>
              <LongitudeDegrees>20.34777201712131500244140625</LongitudeDegrees>
            </Position>
            <AltitudeMeters>536</AltitudeMeters>
            <DistanceMeters>NAN</DistanceMeters>
          </Trackpoint>
          <Trackpoint>
            <Time>2022-09-20T14:04:27.000Z</Time>
            <Position>
              <LatitudeDegrees>49.4079287163913249969482421875</LatitudeDegrees>
              <LongitudeDegrees>20.34786723554134368896484375</LongitudeDegrees>
            </Position>
            <AltitudeMeters>536.4000244140625</AltitudeMeters>
            <DistanceMeters>NAN</DistanceMeters>
          </Trackpoint>
          <Trackpoint>
            <Time>2022-09-20T14:04:37.000Z</Time>
            <Position>
              <LatitudeDegrees>49.40789292566478252410888671875</LatitudeDegrees>
              <LongitudeDegrees>20.34798525273799896240234375</LongitudeDegrees>
            </Position>
            <AltitudeMeters>537</AltitudeMeters>
            <DistanceMeters>NAN</DistanceMeters>
          </Trackpoint>
          <Trackpoint>
            <Time>2022-09-20T14:04:43.000Z</Time>
            <Position>
              <LatitudeDegrees>49.40788152627646923065185546875</LatitudeDegrees>
              <LongitudeDegrees>20.3480564989149570465087890625</LongitudeDegrees>
            </Position>
            <AltitudeMeters>537</AltitudeMeters>
            <DistanceMeters>NAN</DistanceMeters>
          </Trackpoint>
          <Trackpoint>
            <Time>2022-09-20T14:04:46.000Z</Time>
            <Position>
              <LatitudeDegrees>49.40786643885076045989990234375</LatitudeDegrees>
              <LongitudeDegrees>20.34808206371963024139404296875</LongitudeDegrees>
            </Position>
            <AltitudeMeters>537.20001220703125</AltitudeMeters>
            <DistanceMeters>NAN</DistanceMeters>
          </Trackpoint>
          <Trackpoint>
            <Time>2022-09-20T14:04:54.000Z</Time>
            <Position>
              <LatitudeDegrees>49.40784431062638759613037109375</LatitudeDegrees>
              <LongitudeDegrees>20.3481822274625301361083984375</LongitudeDegrees>
            </Position>
            <AltitudeMeters>538</AltitudeMeters>
            <DistanceMeters>NAN</DistanceMeters>
          </Trackpoint>
          <Trackpoint>
            <Time>2022-09-20T14:04:57.000Z</Time>
            <Position>
              <LatitudeDegrees>49.40784280188381671905517578125</LatitudeDegrees>
              <LongitudeDegrees>20.348210893571376800537109375</LongitudeDegrees>
            </Position>
            <AltitudeMeters>538.20001220703125</AltitudeMeters>
            <DistanceMeters>NAN</DistanceMeters>
          </Trackpoint>
          <Trackpoint>
            <Time>2022-09-20T14:05:02.000Z</Time>
            <Position>
              <LatitudeDegrees>49.40784280188381671905517578125</LatitudeDegrees>
              <LongitudeDegrees>20.348210893571376800537109375</LongitudeDegrees>
            </Position>
            <AltitudeMeters>538.4000244140625</AltitudeMeters>
            <DistanceMeters>NAN</DistanceMeters>
          </Trackpoint>
          <Trackpoint>
            <Time>2022-09-20T14:05:09.000Z</Time>
            <Position>
              <LatitudeDegrees>49.40782897174358367919921875</LatitudeDegrees>
              <LongitudeDegrees>20.3482657112181186676025390625</LongitudeDegrees>
            </Position>
            <AltitudeMeters>538.4000244140625</AltitudeMeters>
            <DistanceMeters>NAN</DistanceMeters>
          </Trackpoint>
          <Trackpoint>
            <Time>2022-09-20T14:05:17.000Z</Time>
            <Position>
              <LatitudeDegrees>49.4078123755753040313720703125</LatitudeDegrees>
              <LongitudeDegrees>20.3483810462057590484619140625</LongitudeDegrees>
            </Position>
            <AltitudeMeters>538.79998779296875</AltitudeMeters>
            <DistanceMeters>NAN</DistanceMeters>
          </Trackpoint>
          <Trackpoint>
            <Time>2022-09-20T14:05:22.000Z</Time>
            <Position>
              <LatitudeDegrees>49.4078026525676250457763671875</LatitudeDegrees>
              <LongitudeDegrees>20.348447263240814208984375</LongitudeDegrees>
            </Position>
            <AltitudeMeters>539.20001220703125</AltitudeMeters>
            <DistanceMeters>NAN</DistanceMeters>
          </Trackpoint>
          <Trackpoint>
            <Time>2022-09-20T14:05:25.000Z</Time>
            <Position>
              <LatitudeDegrees>49.40779770724475383758544921875</LatitudeDegrees>
              <LongitudeDegrees>20.348487161099910736083984375</LongitudeDegrees>
            </Position>
            <AltitudeMeters>539.20001220703125</AltitudeMeters>
            <DistanceMeters>NAN</DistanceMeters>
          </Trackpoint>
          <Trackpoint>
            <Time>2022-09-20T14:05:30.000Z</Time>
            <Position>
              <LatitudeDegrees>49.40779066644608974456787109375</LatitudeDegrees>
              <LongitudeDegrees>20.34854088909924030303955078125</LongitudeDegrees>
            </Position>
            <AltitudeMeters>539.4000244140625</AltitudeMeters>
            <DistanceMeters>NAN</DistanceMeters>
          </Trackpoint>
          <Trackpoint>
            <Time>2022-09-20T14:05:38.000Z</Time>
            <Position>
              <LatitudeDegrees>49.40779452212154865264892578125</LatitudeDegrees>
              <LongitudeDegrees>20.34857743419706821441650390625</LongitudeDegrees>
            </Position>
            <AltitudeMeters>539.79998779296875</AltitudeMeters>
            <DistanceMeters>NAN</DistanceMeters>
          </Trackpoint>
          <Trackpoint>
            <Time>2022-09-20T14:05:45.000Z</Time>
            <Position>
              <LatitudeDegrees>49.40778127871453762054443359375</LatitudeDegrees>
              <LongitudeDegrees>20.348679609596729278564453125</LongitudeDegrees>
            </Position>
            <AltitudeMeters>539.79998779296875</AltitudeMeters>
            <DistanceMeters>NAN</DistanceMeters>
          </Trackpoint>
          <Trackpoint>
            <Time>2022-09-20T14:05:48.000Z</Time>
            <Position>
              <LatitudeDegrees>49.4077838771045207977294921875</LatitudeDegrees>
              <LongitudeDegrees>20.34872512333095073699951171875</LongitudeDegrees>
            </Position>
            <AltitudeMeters>540.20001220703125</AltitudeMeters>
            <DistanceMeters>NAN</DistanceMeters>
          </Trackpoint>
          <Trackpoint>
            <Time>2022-09-20T14:05:55.000Z</Time>
            <Position>
              <LatitudeDegrees>49.4077899120748043060302734375</LatitudeDegrees>
              <LongitudeDegrees>20.3488209284842014312744140625</LongitudeDegrees>
            </Position>
            <AltitudeMeters>540.4000244140625</AltitudeMeters>
            <DistanceMeters>NAN</DistanceMeters>
          </Trackpoint>
          <Trackpoint>
            <Time>2022-09-20T14:06:00.000Z</Time>
            <Position>
              <LatitudeDegrees>49.4077879004180431365966796875</LatitudeDegrees>
              <LongitudeDegrees>20.34889494068920612335205078125</LongitudeDegrees>
            </Position>
            <AltitudeMeters>540.5999755859375</AltitudeMeters>
            <DistanceMeters>NAN</DistanceMeters>
          </Trackpoint>
          <Trackpoint>
            <Time>2022-09-20T14:06:03.000Z</Time>
            <Position>
              <LatitudeDegrees>49.40775730647146701812744140625</LatitudeDegrees>
              <LongitudeDegrees>20.34891103394329547882080078125</LongitudeDegrees>
            </Position>
            <AltitudeMeters>540.79998779296875</AltitudeMeters>
            <DistanceMeters>NAN</DistanceMeters>
          </Trackpoint>
          <Trackpoint>
            <Time>2022-09-20T14:06:11.000Z</Time>
            <Position>
              <LatitudeDegrees>49.40772461704909801483154296875</LatitudeDegrees>
              <LongitudeDegrees>20.34900038503110408782958984375</LongitudeDegrees>
            </Position>
            <AltitudeMeters>541.20001220703125</AltitudeMeters>
            <DistanceMeters>NAN</DistanceMeters>
          </Trackpoint>
          <Trackpoint>
            <Time>2022-09-20T14:06:21.000Z</Time>
            <Position>
              <LatitudeDegrees>49.407762587070465087890625</LatitudeDegrees>
              <LongitudeDegrees>20.34915930591523647308349609375</LongitudeDegrees>
            </Position>
            <AltitudeMeters>541.5999755859375</AltitudeMeters>
            <DistanceMeters>NAN</DistanceMeters>
          </Trackpoint>
          <Trackpoint>
            <Time>2022-09-20T14:06:29.000Z</Time>
            <Position>
              <LatitudeDegrees>49.40777926705777645111083984375</LatitudeDegrees>
              <LongitudeDegrees>20.34928050823509693145751953125</LongitudeDegrees>
            </Position>
            <AltitudeMeters>541.79998779296875</AltitudeMeters>
            <DistanceMeters>NAN</DistanceMeters>
          </Trackpoint>
          <Trackpoint>
            <Time>2022-09-20T14:06:30.000Z</Time>
            <Position>
              <LatitudeDegrees>49.40777960233390331268310546875</LatitudeDegrees>
              <LongitudeDegrees>20.34929282963275909423828125</LongitudeDegrees>
            </Position>
            <AltitudeMeters>541.79998779296875</AltitudeMeters>
            <DistanceMeters>NAN</DistanceMeters>
          </Trackpoint>
          <Trackpoint>
            <Time>2022-09-20T14:06:40.000Z</Time>
            <Position>
              <LatitudeDegrees>49.40782302059233188629150390625</LatitudeDegrees>
              <LongitudeDegrees>20.3494311310350894927978515625</LongitudeDegrees>
            </Position>
            <AltitudeMeters>542.20001220703125</AltitudeMeters>
            <DistanceMeters>NAN</DistanceMeters>
          </Trackpoint>
          <Trackpoint>
            <Time>2022-09-20T14:06:44.000Z</Time>
            <Position>
              <LatitudeDegrees>49.40783224068582057952880859375</LatitudeDegrees>
              <LongitudeDegrees>20.349490307271480560302734375</LongitudeDegrees>
            </Position>
            <AltitudeMeters>542.20001220703125</AltitudeMeters>
            <DistanceMeters>NAN</DistanceMeters>
          </Trackpoint>
          <Trackpoint>
            <Time>2022-09-20T14:06:49.000Z</Time>
            <Position>
              <LatitudeDegrees>49.40785436891019344329833984375</LatitudeDegrees>
              <LongitudeDegrees>20.3495615534484386444091796875</LongitudeDegrees>
            </Position>
            <AltitudeMeters>542.4000244140625</AltitudeMeters>
            <DistanceMeters>NAN</DistanceMeters>
          </Trackpoint>
          <Trackpoint>
            <Time>2022-09-20T14:06:56.000Z</Time>
            <Position>
              <LatitudeDegrees>49.40788052044808864593505859375</LatitudeDegrees>
              <LongitudeDegrees>20.34965886734426021575927734375</LongitudeDegrees>
            </Position>
            <AltitudeMeters>542.79998779296875</AltitudeMeters>
            <DistanceMeters>NAN</DistanceMeters>
          </Trackpoint>
          <Trackpoint>
            <Time>2022-09-20T14:07:01.000Z</Time>
            <Position>
              <LatitudeDegrees>49.4078958593308925628662109375</LatitudeDegrees>
              <LongitudeDegrees>20.349734388291835784912109375</LongitudeDegrees>
            </Position>
            <AltitudeMeters>543</AltitudeMeters>
            <DistanceMeters>NAN</DistanceMeters>
          </Trackpoint>
          <Trackpoint>
            <Time>2022-09-20T14:07:03.000Z</Time>
            <Position>
              <LatitudeDegrees>49.40789426676928997039794921875</LatitudeDegrees>
              <LongitudeDegrees>20.34977001138031482696533203125</LongitudeDegrees>
            </Position>
            <AltitudeMeters>543</AltitudeMeters>
            <DistanceMeters>NAN</DistanceMeters>
          </Trackpoint>
          <Trackpoint>
            <Time>2022-09-20T14:07:06.000Z</Time>
            <Position>
              <LatitudeDegrees>49.40789812244474887847900390625</LatitudeDegrees>
              <LongitudeDegrees>20.34980756230652332305908203125</LongitudeDegrees>
            </Position>
            <AltitudeMeters>543.20001220703125</AltitudeMeters>
            <DistanceMeters>NAN</DistanceMeters>
          </Trackpoint>
          <Trackpoint>
            <Time>2022-09-20T14:07:08.000Z</Time>
            <Position>
              <LatitudeDegrees>49.40790331922471523284912109375</LatitudeDegrees>
              <LongitudeDegrees>20.34983958117663860321044921875</LongitudeDegrees>
            </Position>
            <AltitudeMeters>543.20001220703125</AltitudeMeters>
            <DistanceMeters>NAN</DistanceMeters>
          </Trackpoint>
          <Trackpoint>
            <Time>2022-09-20T14:07:09.000Z</Time>
            <Position>
              <LatitudeDegrees>49.407907761633396148681640625</LatitudeDegrees>
              <LongitudeDegrees>20.3498549200594425201416015625</LongitudeDegrees>
            </Position>
            <AltitudeMeters>543.20001220703125</AltitudeMeters>
            <DistanceMeters>NAN</DistanceMeters>
          </Trackpoint>
          <Trackpoint>
            <Time>2022-09-20T14:07:13.000Z</Time>
            <Position>
              <LatitudeDegrees>49.40792494453489780426025390625</LatitudeDegrees>
              <LongitudeDegrees>20.34991518594324588775634765625</LongitudeDegrees>
            </Position>
            <AltitudeMeters>543.20001220703125</AltitudeMeters>
            <DistanceMeters>NAN</DistanceMeters>
          </Trackpoint>
          <Trackpoint>
            <Time>2022-09-20T14:07:16.000Z</Time>
            <Position>
              <LatitudeDegrees>49.40794355235993862152099609375</LatitudeDegrees>
              <LongitudeDegrees>20.3499581851065158843994140625</LongitudeDegrees>
            </Position>
            <AltitudeMeters>543.20001220703125</AltitudeMeters>
            <DistanceMeters>NAN</DistanceMeters>
          </Trackpoint>
          <Trackpoint>
            <Time>2022-09-20T14:07:19.000Z</Time>
            <Position>
              <LatitudeDegrees>49.40796199254691600799560546875</LatitudeDegrees>
              <LongitudeDegrees>20.34999481402337551116943359375</LongitudeDegrees>
            </Position>
            <AltitudeMeters>543.4000244140625</AltitudeMeters>
            <DistanceMeters>NAN</DistanceMeters>
          </Trackpoint>
          <Trackpoint>
            <Time>2022-09-20T14:07:22.000Z</Time>
            <Position>
              <LatitudeDegrees>49.40797724761068820953369140625</LatitudeDegrees>
              <LongitudeDegrees>20.35002373158931732177734375</LongitudeDegrees>
            </Position>
            <AltitudeMeters>543.5999755859375</AltitudeMeters>
            <DistanceMeters>NAN</DistanceMeters>
          </Trackpoint>
          <Trackpoint>
            <Time>2022-09-20T14:07:29.000Z</Time>
            <Position>
              <LatitudeDegrees>49.40799870528280735015869140625</LatitudeDegrees>
              <LongitudeDegrees>20.35005264915525913238525390625</LongitudeDegrees>
            </Position>
            <AltitudeMeters>543.79998779296875</AltitudeMeters>
            <DistanceMeters>NAN</DistanceMeters>
          </Trackpoint>
          <Trackpoint>
            <Time>2022-09-20T14:07:42.000Z</Time>
            <Position>
              <LatitudeDegrees>49.40799870528280735015869140625</LatitudeDegrees>
              <LongitudeDegrees>20.35005264915525913238525390625</LongitudeDegrees>
            </Position>
            <AltitudeMeters>543.79998779296875</AltitudeMeters>
            <DistanceMeters>NAN</DistanceMeters>
          </Trackpoint>
          <Trackpoint>
            <Time>2022-09-20T14:07:48.000Z</Time>
            <Position>
              <LatitudeDegrees>49.40799870528280735015869140625</LatitudeDegrees>
              <LongitudeDegrees>20.35005264915525913238525390625</LongitudeDegrees>
            </Position>
            <AltitudeMeters>543.5999755859375</AltitudeMeters>
            <DistanceMeters>NAN</DistanceMeters>
          </Trackpoint>
          <Trackpoint>
            <Time>2022-09-20T14:07:51.000Z</Time>
            <Position>
              <LatitudeDegrees>49.40799870528280735015869140625</LatitudeDegrees>
              <LongitudeDegrees>20.35005264915525913238525390625</LongitudeDegrees>
            </Position>
            <AltitudeMeters>543.5999755859375</AltitudeMeters>
            <DistanceMeters>NAN</DistanceMeters>
          </Trackpoint>
          <Trackpoint>
            <Time>2022-09-20T14:07:52.000Z</Time>
            <Position>
              <LatitudeDegrees>49.40799870528280735015869140625</LatitudeDegrees>
              <LongitudeDegrees>20.35005264915525913238525390625</LongitudeDegrees>
            </Position>
            <AltitudeMeters>543.5999755859375</AltitudeMeters>
            <DistanceMeters>NAN</DistanceMeters>
          </Trackpoint>
          <Trackpoint>
            <Time>2022-09-20T14:07:57.000Z</Time>
            <Position>
              <LatitudeDegrees>49.40799870528280735015869140625</LatitudeDegrees>
              <LongitudeDegrees>20.35005264915525913238525390625</LongitudeDegrees>
            </Position>
            <AltitudeMeters>543.5999755859375</AltitudeMeters>
            <DistanceMeters>NAN</DistanceMeters>
          </Trackpoint>
          <Trackpoint>
            <Time>2022-09-20T14:08:10.000Z</Time>
            <Position>
              <LatitudeDegrees>49.40799870528280735015869140625</LatitudeDegrees>
              <LongitudeDegrees>20.35005264915525913238525390625</LongitudeDegrees>
            </Position>
            <AltitudeMeters>543.4000244140625</AltitudeMeters>
            <DistanceMeters>NAN</DistanceMeters>
          </Trackpoint>
          <Trackpoint>
            <Time>2022-09-20T14:08:25.000Z</Time>
            <Position>
              <LatitudeDegrees>49.40799870528280735015869140625</LatitudeDegrees>
              <LongitudeDegrees>20.35005264915525913238525390625</LongitudeDegrees>
            </Position>
            <AltitudeMeters>543.4000244140625</AltitudeMeters>
            <DistanceMeters>NAN</DistanceMeters>
          </Trackpoint>
          <Trackpoint>
            <Time>2022-09-20T14:08:42.000Z</Time>
            <Position>
              <LatitudeDegrees>49.40800038166344165802001953125</LatitudeDegrees>
              <LongitudeDegrees>20.3500540740787982940673828125</LongitudeDegrees>
            </Position>
            <AltitudeMeters>543.4000244140625</AltitudeMeters>
            <DistanceMeters>NAN</DistanceMeters>
          </Trackpoint>
          <Trackpoint>
            <Time>2022-09-20T14:08:46.000Z</Time>
            <Position>
              <LatitudeDegrees>49.40803256817162036895751953125</LatitudeDegrees>
              <LongitudeDegrees>20.3501063771545886993408203125</LongitudeDegrees>
            </Position>
            <AltitudeMeters>543.5999755859375</AltitudeMeters>
            <DistanceMeters>NAN</DistanceMeters>
          </Trackpoint>
          <Trackpoint>
            <Time>2022-09-20T14:08:50.000Z</Time>
            <Position>
              <LatitudeDegrees>49.408076740801334381103515625</LatitudeDegrees>
              <LongitudeDegrees>20.3501553274691104888916015625</LongitudeDegrees>
            </Position>
            <AltitudeMeters>543.79998779296875</AltitudeMeters>
            <DistanceMeters>NAN</DistanceMeters>
          </Trackpoint>
          <Trackpoint>
            <Time>2022-09-20T14:08:51.000Z</Time>
            <Position>
              <LatitudeDegrees>49.4080876372754573822021484375</LatitudeDegrees>
              <LongitudeDegrees>20.3501690737903118133544921875</LongitudeDegrees>
            </Position>
            <AltitudeMeters>543.79998779296875</AltitudeMeters>
            <DistanceMeters>NAN</DistanceMeters>
          </Trackpoint>
          <Trackpoint>
            <Time>2022-09-20T14:08:53.000Z</Time>
            <Position>
              <LatitudeDegrees>49.4081013835966587066650390625</LatitudeDegrees>
              <LongitudeDegrees>20.35019136965274810791015625</LongitudeDegrees>
            </Position>
            <AltitudeMeters>543.79998779296875</AltitudeMeters>
            <DistanceMeters>NAN</DistanceMeters>
          </Trackpoint>
          <Trackpoint>
            <Time>2022-09-20T14:08:55.000Z</Time>
            <Position>
              <LatitudeDegrees>49.40811236388981342315673828125</LatitudeDegrees>
              <LongitudeDegrees>20.350214503705501556396484375</LongitudeDegrees>
            </Position>
            <AltitudeMeters>544</AltitudeMeters>
            <DistanceMeters>NAN</DistanceMeters>
          </Trackpoint>
          <Trackpoint>
            <Time>2022-09-20T14:08:59.000Z</Time>
            <Position>
              <LatitudeDegrees>49.40814387984573841094970703125</LatitudeDegrees>
              <LongitudeDegrees>20.3502478636801242828369140625</LongitudeDegrees>
            </Position>
            <AltitudeMeters>544</AltitudeMeters>
            <DistanceMeters>NAN</DistanceMeters>
          </Trackpoint>
          <Trackpoint>
            <Time>2022-09-20T14:09:08.000Z</Time>
            <Position>
              <LatitudeDegrees>49.40821462310850620269775390625</LatitudeDegrees>
              <LongitudeDegrees>20.35029136575758457183837890625</LongitudeDegrees>
            </Position>
            <AltitudeMeters>544.20001220703125</AltitudeMeters>
            <DistanceMeters>NAN</DistanceMeters>
          </Trackpoint>
          <Trackpoint>
            <Time>2022-09-20T14:09:11.000Z</Time>
            <Position>
              <LatitudeDegrees>49.40823859535157680511474609375</LatitudeDegrees>
              <LongitudeDegrees>20.350329838693141937255859375</LongitudeDegrees>
            </Position>
            <AltitudeMeters>544.20001220703125</AltitudeMeters>
            <DistanceMeters>NAN</DistanceMeters>
          </Trackpoint>
          <Trackpoint>
            <Time>2022-09-20T14:09:12.000Z</Time>
            <Position>
              <LatitudeDegrees>49.40825150348246097564697265625</LatitudeDegrees>
              <LongitudeDegrees>20.35033713094890117645263671875</LongitudeDegrees>
            </Position>
            <AltitudeMeters>544.4000244140625</AltitudeMeters>
            <DistanceMeters>NAN</DistanceMeters>
          </Trackpoint>
          <Trackpoint>
            <Time>2022-09-20T14:09:13.000Z</Time>
            <Position>
              <LatitudeDegrees>49.40826156176626682281494140625</LatitudeDegrees>
              <LongitudeDegrees>20.3503417409956455230712890625</LongitudeDegrees>
            </Position>
            <AltitudeMeters>544.4000244140625</AltitudeMeters>
            <DistanceMeters>NAN</DistanceMeters>
          </Trackpoint>
          <Trackpoint>
            <Time>2022-09-20T14:09:23.000Z</Time>
            <Position>
              <LatitudeDegrees>49.40834588371217250823974609375</LatitudeDegrees>
              <LongitudeDegrees>20.350442491471767425537109375</LongitudeDegrees>
            </Position>
            <AltitudeMeters>544.79998779296875</AltitudeMeters>
            <DistanceMeters>NAN</DistanceMeters>
          </Trackpoint>
          <Trackpoint>
            <Time>2022-09-20T14:09:25.000Z</Time>
            <Position>
              <LatitudeDegrees>49.40836801193654537200927734375</LatitudeDegrees>
              <LongitudeDegrees>20.350448526442050933837890625</LongitudeDegrees>
            </Position>
            <AltitudeMeters>544.79998779296875</AltitudeMeters>
            <DistanceMeters>NAN</DistanceMeters>
          </Trackpoint>
          <Trackpoint>
            <Time>2022-09-20T14:09:28.000Z</Time>
            <Position>
              <LatitudeDegrees>49.40839382819831371307373046875</LatitudeDegrees>
              <LongitudeDegrees>20.35046721808612346649169921875</LongitudeDegrees>
            </Position>
            <AltitudeMeters>545</AltitudeMeters>
            <DistanceMeters>NAN</DistanceMeters>
          </Trackpoint>
          <Trackpoint>
            <Time>2022-09-20T14:09:30.000Z</Time>
            <Position>
              <LatitudeDegrees>49.4084111787378787994384765625</LatitudeDegrees>
              <LongitudeDegrees>20.35047861747443675994873046875</LongitudeDegrees>
            </Position>
            <AltitudeMeters>545</AltitudeMeters>
            <DistanceMeters>NAN</DistanceMeters>
          </Trackpoint>
          <Trackpoint>
            <Time>2022-09-20T14:09:32.000Z</Time>
            <Position>
              <LatitudeDegrees>49.408428780734539031982421875</LatitudeDegrees>
              <LongitudeDegrees>20.35048632882535457611083984375</LongitudeDegrees>
            </Position>
            <AltitudeMeters>545.20001220703125</AltitudeMeters>
            <DistanceMeters>NAN</DistanceMeters>
          </Trackpoint>
          <Trackpoint>
            <Time>2022-09-20T14:09:34.000Z</Time>
            <Position>
              <LatitudeDegrees>49.40845099277794361114501953125</LatitudeDegrees>
              <LongitudeDegrees>20.350482724606990814208984375</LongitudeDegrees>
            </Position>
            <AltitudeMeters>545.4000244140625</AltitudeMeters>
            <DistanceMeters>NAN</DistanceMeters>
          </Trackpoint>
          <Trackpoint>
            <Time>2022-09-20T14:09:36.000Z</Time>
            <Position>
              <LatitudeDegrees>49.40846708603203296661376953125</LatitudeDegrees>
              <LongitudeDegrees>20.3504818864166736602783203125</LongitudeDegrees>
            </Position>
            <AltitudeMeters>545.5999755859375</AltitudeMeters>
            <DistanceMeters>NAN</DistanceMeters>
          </Trackpoint>
          <Trackpoint>
            <Time>2022-09-20T14:09:38.000Z</Time>
            <Position>
              <LatitudeDegrees>49.408487118780612945556640625</LatitudeDegrees>
              <LongitudeDegrees>20.3504855744540691375732421875</LongitudeDegrees>
            </Position>
            <AltitudeMeters>545.5999755859375</AltitudeMeters>
            <DistanceMeters>NAN</DistanceMeters>
          </Trackpoint>
          <Trackpoint>
            <Time>2022-09-20T14:09:39.000Z</Time>
            <Position>
              <LatitudeDegrees>49.40849457867443561553955078125</LatitudeDegrees>
              <LongitudeDegrees>20.35049621947109699249267578125</LongitudeDegrees>
            </Position>
            <AltitudeMeters>545.5999755859375</AltitudeMeters>
            <DistanceMeters>NAN</DistanceMeters>
          </Trackpoint>
          <Trackpoint>
            <Time>2022-09-20T14:09:45.000Z</Time>
            <Position>
              <LatitudeDegrees>49.408530704677104949951171875</LatitudeDegrees>
              <LongitudeDegrees>20.35055438987910747528076171875</LongitudeDegrees>
            </Position>
            <AltitudeMeters>545.79998779296875</AltitudeMeters>
            <DistanceMeters>NAN</DistanceMeters>
          </Trackpoint>
          <Trackpoint>
            <Time>2022-09-20T14:09:52.000Z</Time>
            <Position>
              <LatitudeDegrees>49.4085496477782726287841796875</LatitudeDegrees>
              <LongitudeDegrees>20.35057551227509975433349609375</LongitudeDegrees>
            </Position>
            <AltitudeMeters>546</AltitudeMeters>
            <DistanceMeters>NAN</DistanceMeters>
          </Trackpoint>
          <Trackpoint>
            <Time>2022-09-20T14:09:58.000Z</Time>
            <Position>
              <LatitudeDegrees>49.40859206020832061767578125</LatitudeDegrees>
              <LongitudeDegrees>20.350593030452728271484375</LongitudeDegrees>
            </Position>
            <AltitudeMeters>546.20001220703125</AltitudeMeters>
            <DistanceMeters>NAN</DistanceMeters>
          </Trackpoint>
          <Trackpoint>
            <Time>2022-09-20T14:10:03.000Z</Time>
            <Position>
              <LatitudeDegrees>49.408634640276432037353515625</LatitudeDegrees>
              <LongitudeDegrees>20.35063737072050571441650390625</LongitudeDegrees>
            </Position>
            <AltitudeMeters>546.4000244140625</AltitudeMeters>
            <DistanceMeters>NAN</DistanceMeters>
          </Trackpoint>
          <Trackpoint>
            <Time>2022-09-20T14:10:06.000Z</Time>
            <Position>
              <LatitudeDegrees>49.4086611270904541015625</LatitudeDegrees>
              <LongitudeDegrees>20.3506426513195037841796875</LongitudeDegrees>
            </Position>
            <AltitudeMeters>546.5999755859375</AltitudeMeters>
            <DistanceMeters>NAN</DistanceMeters>
          </Trackpoint>
          <Trackpoint>
            <Time>2022-09-20T14:10:17.000Z</Time>
            <Position>
              <LatitudeDegrees>49.40873882733285427093505859375</LatitudeDegrees>
              <LongitudeDegrees>20.35069503821432590484619140625</LongitudeDegrees>
            </Position>
            <AltitudeMeters>546.79998779296875</AltitudeMeters>
            <DistanceMeters>NAN</DistanceMeters>
          </Trackpoint>
          <Trackpoint>
            <Time>2022-09-20T14:10:25.000Z</Time>
            <Position>
              <LatitudeDegrees>49.40881124697625637054443359375</LatitudeDegrees>
              <LongitudeDegrees>20.3507484309375286102294921875</LongitudeDegrees>
            </Position>
            <AltitudeMeters>547.20001220703125</AltitudeMeters>
            <DistanceMeters>NAN</DistanceMeters>
          </Trackpoint>
          <Trackpoint>
            <Time>2022-09-20T14:10:30.000Z</Time>
            <Position>
              <LatitudeDegrees>49.40886220894753932952880859375</LatitudeDegrees>
              <LongitudeDegrees>20.35077399574220180511474609375</LongitudeDegrees>
            </Position>
            <AltitudeMeters>547.4000244140625</AltitudeMeters>
            <DistanceMeters>NAN</DistanceMeters>
          </Trackpoint>
          <Trackpoint>
            <Time>2022-09-20T14:10:32.000Z</Time>
            <Position>
              <LatitudeDegrees>49.4088785536587238311767578125</LatitudeDegrees>
              <LongitudeDegrees>20.35078388638794422149658203125</LongitudeDegrees>
            </Position>
            <AltitudeMeters>547.5999755859375</AltitudeMeters>
            <DistanceMeters>NAN</DistanceMeters>
          </Trackpoint>
          <Trackpoint>
            <Time>2022-09-20T14:10:34.000Z</Time>
            <Position>
              <LatitudeDegrees>49.4088958203792572021484375</LatitudeDegrees>
              <LongitudeDegrees>20.35079411230981349945068359375</LongitudeDegrees>
            </Position>
            <AltitudeMeters>547.79998779296875</AltitudeMeters>
            <DistanceMeters>NAN</DistanceMeters>
          </Trackpoint>
          <Trackpoint>
            <Time>2022-09-20T14:10:38.000Z</Time>
            <Position>
              <LatitudeDegrees>49.4089285098016262054443359375</LatitudeDegrees>
              <LongitudeDegrees>20.350805930793285369873046875</LongitudeDegrees>
            </Position>
            <AltitudeMeters>548</AltitudeMeters>
            <DistanceMeters>NAN</DistanceMeters>
          </Trackpoint>
          <Trackpoint>
            <Time>2022-09-20T14:10:46.000Z</Time>
            <Position>
              <LatitudeDegrees>49.4089982472360134124755859375</LatitudeDegrees>
              <LongitudeDegrees>20.3508188389241695404052734375</LongitudeDegrees>
            </Position>
            <AltitudeMeters>548.5999755859375</AltitudeMeters>
            <DistanceMeters>NAN</DistanceMeters>
          </Trackpoint>
          <Trackpoint>
            <Time>2022-09-20T14:10:48.000Z</Time>
            <Position>
              <LatitudeDegrees>49.40901844762265682220458984375</LatitudeDegrees>
              <LongitudeDegrees>20.35081272013485431671142578125</LongitudeDegrees>
            </Position>
            <AltitudeMeters>548.5999755859375</AltitudeMeters>
            <DistanceMeters>NAN</DistanceMeters>
          </Trackpoint>
          <Trackpoint>
            <Time>2022-09-20T14:10:53.000Z</Time>
            <Position>
              <LatitudeDegrees>49.40906605683267116546630859375</LatitudeDegrees>
              <LongitudeDegrees>20.3508305735886096954345703125</LongitudeDegrees>
            </Position>
            <AltitudeMeters>549</AltitudeMeters>
            <DistanceMeters>NAN</DistanceMeters>
          </Trackpoint>
          <Trackpoint>
            <Time>2022-09-20T14:10:54.000Z</Time>
            <Position>
              <LatitudeDegrees>49.40907485783100128173828125</LatitudeDegrees>
              <LongitudeDegrees>20.35083107650279998779296875</LongitudeDegrees>
            </Position>
            <AltitudeMeters>549</AltitudeMeters>
            <DistanceMeters>NAN</DistanceMeters>
          </Trackpoint>
          <Trackpoint>
            <Time>2022-09-20T14:10:57.000Z</Time>
            <Position>
              <LatitudeDegrees>49.40910528413951396942138671875</LatitudeDegrees>
              <LongitudeDegrees>20.35082931630313396453857421875</LongitudeDegrees>
            </Position>
            <AltitudeMeters>549</AltitudeMeters>
            <DistanceMeters>NAN</DistanceMeters>
          </Trackpoint>
          <Trackpoint>
            <Time>2022-09-20T14:11:01.000Z</Time>
            <Position>
              <LatitudeDegrees>49.4091425836086273193359375</LatitudeDegrees>
              <LongitudeDegrees>20.35083183087408542633056640625</LongitudeDegrees>
            </Position>
            <AltitudeMeters>549.20001220703125</AltitudeMeters>
            <DistanceMeters>NAN</DistanceMeters>
          </Trackpoint>
          <Trackpoint>
            <Time>2022-09-20T14:11:07.000Z</Time>
            <Position>
              <LatitudeDegrees>49.409195221960544586181640625</LatitudeDegrees>
              <LongitudeDegrees>20.35084943287074565887451171875</LongitudeDegrees>
            </Position>
            <AltitudeMeters>549.5999755859375</AltitudeMeters>
            <DistanceMeters>NAN</DistanceMeters>
          </Trackpoint>
          <Trackpoint>
            <Time>2022-09-20T14:11:08.000Z</Time>
            <Position>
              <LatitudeDegrees>49.40920536406338214874267578125</LatitudeDegrees>
              <LongitudeDegrees>20.3508486784994602203369140625</LongitudeDegrees>
            </Position>
            <AltitudeMeters>549.79998779296875</AltitudeMeters>
            <DistanceMeters>NAN</DistanceMeters>
          </Trackpoint>
          <Trackpoint>
            <Time>2022-09-20T14:11:15.000Z</Time>
            <Position>
              <LatitudeDegrees>49.4092725031077861785888671875</LatitudeDegrees>
              <LongitudeDegrees>20.35085546784102916717529296875</LongitudeDegrees>
            </Position>
            <AltitudeMeters>550.20001220703125</AltitudeMeters>
            <DistanceMeters>NAN</DistanceMeters>
          </Trackpoint>
          <Trackpoint>
            <Time>2022-09-20T14:11:20.000Z</Time>
            <Position>
              <LatitudeDegrees>49.40932220779359340667724609375</LatitudeDegrees>
              <LongitudeDegrees>20.3508855588734149932861328125</LongitudeDegrees>
            </Position>
            <AltitudeMeters>550.5999755859375</AltitudeMeters>
            <DistanceMeters>NAN</DistanceMeters>
          </Trackpoint>
          <Trackpoint>
            <Time>2022-09-20T14:11:25.000Z</Time>
            <Position>
              <LatitudeDegrees>49.409363530576229095458984375</LatitudeDegrees>
              <LongitudeDegrees>20.35090492106974124908447265625</LongitudeDegrees>
            </Position>
            <AltitudeMeters>550.79998779296875</AltitudeMeters>
            <DistanceMeters>NAN</DistanceMeters>
          </Trackpoint>
          <Trackpoint>
            <Time>2022-09-20T14:11:30.000Z</Time>
            <Position>
              <LatitudeDegrees>49.409413821995258331298828125</LatitudeDegrees>
              <LongitudeDegrees>20.3509028255939483642578125</LongitudeDegrees>
            </Position>
            <AltitudeMeters>551.20001220703125</AltitudeMeters>
            <DistanceMeters>NAN</DistanceMeters>
          </Trackpoint>
          <Trackpoint>
            <Time>2022-09-20T14:11:36.000Z</Time>
            <Position>
              <LatitudeDegrees>49.40946989692747592926025390625</LatitudeDegrees>
              <LongitudeDegrees>20.3508936055004596710205078125</LongitudeDegrees>
            </Position>
            <AltitudeMeters>551.5999755859375</AltitudeMeters>
            <DistanceMeters>NAN</DistanceMeters>
          </Trackpoint>
          <Trackpoint>
            <Time>2022-09-20T14:11:37.000Z</Time>
            <Position>
              <LatitudeDegrees>49.4094763509929180145263671875</LatitudeDegrees>
              <LongitudeDegrees>20.35088983364403247833251953125</LongitudeDegrees>
            </Position>
            <AltitudeMeters>551.79998779296875</AltitudeMeters>
            <DistanceMeters>NAN</DistanceMeters>
          </Trackpoint>
          <Trackpoint>
            <Time>2022-09-20T14:11:45.000Z</Time>
            <Position>
              <LatitudeDegrees>49.4095541350543498992919921875</LatitudeDegrees>
              <LongitudeDegrees>20.350845158100128173828125</LongitudeDegrees>
            </Position>
            <AltitudeMeters>552.4000244140625</AltitudeMeters>
            <DistanceMeters>NAN</DistanceMeters>
          </Trackpoint>
          <Trackpoint>
            <Time>2022-09-20T14:11:52.000Z</Time>
            <Position>
              <LatitudeDegrees>49.40961892716586589813232421875</LatitudeDegrees>
              <LongitudeDegrees>20.35080651752650737762451171875</LongitudeDegrees>
            </Position>
            <AltitudeMeters>552.5999755859375</AltitudeMeters>
            <DistanceMeters>NAN</DistanceMeters>
          </Trackpoint>
          <Trackpoint>
            <Time>2022-09-20T14:11:54.000Z</Time>
            <Position>
              <LatitudeDegrees>49.4096389599144458770751953125</LatitudeDegrees>
              <LongitudeDegrees>20.35079947672784328460693359375</LongitudeDegrees>
            </Position>
            <AltitudeMeters>552.79998779296875</AltitudeMeters>
            <DistanceMeters>NAN</DistanceMeters>
          </Trackpoint>
          <Trackpoint>
            <Time>2022-09-20T14:11:56.000Z</Time>
            <Position>
              <LatitudeDegrees>49.4096570648252964019775390625</LatitudeDegrees>
              <LongitudeDegrees>20.3507933579385280609130859375</LongitudeDegrees>
            </Position>
            <AltitudeMeters>553</AltitudeMeters>
            <DistanceMeters>NAN</DistanceMeters>
          </Trackpoint>
          <Trackpoint>
            <Time>2022-09-20T14:12:06.000Z</Time>
            <Position>
              <LatitudeDegrees>49.4097472541034221649169921875</LatitudeDegrees>
              <LongitudeDegrees>20.35076209343969821929931640625</LongitudeDegrees>
            </Position>
            <AltitudeMeters>553.5999755859375</AltitudeMeters>
            <DistanceMeters>NAN</DistanceMeters>
          </Trackpoint>
          <Trackpoint>
            <Time>2022-09-20T14:12:13.000Z</Time>
            <Position>
              <LatitudeDegrees>49.4098102860152721405029296875</LatitudeDegrees>
              <LongitudeDegrees>20.35071850754320621490478515625</LongitudeDegrees>
            </Position>
            <AltitudeMeters>553.79998779296875</AltitudeMeters>
            <DistanceMeters>NAN</DistanceMeters>
          </Trackpoint>
          <Trackpoint>
            <Time>2022-09-20T14:12:16.000Z</Time>
            <Position>
              <LatitudeDegrees>49.40983400680124759674072265625</LatitudeDegrees>
              <LongitudeDegrees>20.35069637931883335113525390625</LongitudeDegrees>
            </Position>
            <AltitudeMeters>553.79998779296875</AltitudeMeters>
            <DistanceMeters>NAN</DistanceMeters>
          </Trackpoint>
          <Trackpoint>
            <Time>2022-09-20T14:12:19.000Z</Time>
            <Position>
              <LatitudeDegrees>49.40984808839857578277587890625</LatitudeDegrees>
              <LongitudeDegrees>20.3506877459585666656494140625</LongitudeDegrees>
            </Position>
            <AltitudeMeters>554.20001220703125</AltitudeMeters>
            <DistanceMeters>NAN</DistanceMeters>
          </Trackpoint>
          <Trackpoint>
            <Time>2022-09-20T14:12:20.000Z</Time>
            <Position>
              <LatitudeDegrees>49.40985538065433502197265625</LatitudeDegrees>
              <LongitudeDegrees>20.3506833873689174652099609375</LongitudeDegrees>
            </Position>
            <AltitudeMeters>554.20001220703125</AltitudeMeters>
            <DistanceMeters>NAN</DistanceMeters>
          </Trackpoint>
          <Trackpoint>
            <Time>2022-09-20T14:12:28.000Z</Time>
            <Position>
              <LatitudeDegrees>49.40993173979222774505615234375</LatitudeDegrees>
              <LongitudeDegrees>20.3506273962557315826416015625</LongitudeDegrees>
            </Position>
            <AltitudeMeters>554.20001220703125</AltitudeMeters>
            <DistanceMeters>NAN</DistanceMeters>
          </Trackpoint>
          <Trackpoint>
            <Time>2022-09-20T14:12:37.000Z</Time>
            <Position>
              <LatitudeDegrees>49.41000952385365962982177734375</LatitudeDegrees>
              <LongitudeDegrees>20.350577272474765777587890625</LongitudeDegrees>
            </Position>
            <AltitudeMeters>554.5999755859375</AltitudeMeters>
            <DistanceMeters>NAN</DistanceMeters>
          </Trackpoint>
          <Trackpoint>
            <Time>2022-09-20T14:12:49.000Z</Time>
            <Position>
              <LatitudeDegrees>49.41011547110974788665771484375</LatitudeDegrees>
              <LongitudeDegrees>20.35050041042268276214599609375</LongitudeDegrees>
            </Position>
            <AltitudeMeters>554.79998779296875</AltitudeMeters>
            <DistanceMeters>NAN</DistanceMeters>
          </Trackpoint>
          <Trackpoint>
            <Time>2022-09-20T14:12:52.000Z</Time>
            <Position>
              <LatitudeDegrees>49.41014044918119907379150390625</LatitudeDegrees>
              <LongitudeDegrees>20.350473336875438690185546875</LongitudeDegrees>
            </Position>
            <AltitudeMeters>555</AltitudeMeters>
            <DistanceMeters>NAN</DistanceMeters>
          </Trackpoint>
          <Trackpoint>
            <Time>2022-09-20T14:12:58.000Z</Time>
            <Position>
              <LatitudeDegrees>49.410193674266338348388671875</LatitudeDegrees>
              <LongitudeDegrees>20.35041608847677707672119140625</LongitudeDegrees>
            </Position>
            <AltitudeMeters>555.20001220703125</AltitudeMeters>
            <DistanceMeters>NAN</DistanceMeters>
          </Trackpoint>
          <Trackpoint>
            <Time>2022-09-20T14:13:06.000Z</Time>
            <Position>
              <LatitudeDegrees>49.41026316024363040924072265625</LatitudeDegrees>
              <LongitudeDegrees>20.35036504268646240234375</LongitudeDegrees>
            </Position>
            <AltitudeMeters>555</AltitudeMeters>
            <DistanceMeters>NAN</DistanceMeters>
          </Trackpoint>
          <Trackpoint>
            <Time>2022-09-20T14:13:09.000Z</Time>
            <Position>
              <LatitudeDegrees>49.41029568202793598175048828125</LatitudeDegrees>
              <LongitudeDegrees>20.3503395617008209228515625</LongitudeDegrees>
            </Position>
            <AltitudeMeters>555</AltitudeMeters>
            <DistanceMeters>NAN</DistanceMeters>
          </Trackpoint>
          <Trackpoint>
            <Time>2022-09-20T14:13:19.000Z</Time>
            <Position>
              <LatitudeDegrees>49.4103844463825225830078125</LatitudeDegrees>
              <LongitudeDegrees>20.35026068799197673797607421875</LongitudeDegrees>
            </Position>
            <AltitudeMeters>555.4000244140625</AltitudeMeters>
            <DistanceMeters>NAN</DistanceMeters>
          </Trackpoint>
          <Trackpoint>
            <Time>2022-09-20T14:13:27.000Z</Time>
            <Position>
              <LatitudeDegrees>49.41044219769537448883056640625</LatitudeDegrees>
              <LongitudeDegrees>20.35021777264773845672607421875</LongitudeDegrees>
            </Position>
            <AltitudeMeters>555.5999755859375</AltitudeMeters>
            <DistanceMeters>NAN</DistanceMeters>
          </Trackpoint>
          <Trackpoint>
            <Time>2022-09-20T14:13:36.000Z</Time>
            <Position>
              <LatitudeDegrees>49.41052651964128017425537109375</LatitudeDegrees>
              <LongitudeDegrees>20.35016010515391826629638671875</LongitudeDegrees>
            </Position>
            <AltitudeMeters>555.79998779296875</AltitudeMeters>
            <DistanceMeters>NAN</DistanceMeters>
          </Trackpoint>
          <Trackpoint>
            <Time>2022-09-20T14:13:39.000Z</Time>
            <Position>
              <LatitudeDegrees>49.41054814495146274566650390625</LatitudeDegrees>
              <LongitudeDegrees>20.35013294778764247894287109375</LongitudeDegrees>
            </Position>
            <AltitudeMeters>555.5999755859375</AltitudeMeters>
            <DistanceMeters>NAN</DistanceMeters>
          </Trackpoint>
          <Trackpoint>
            <Time>2022-09-20T14:13:41.000Z</Time>
            <Position>
              <LatitudeDegrees>49.410561136901378631591796875</LatitudeDegrees>
              <LongitudeDegrees>20.35012255422770977020263671875</LongitudeDegrees>
            </Position>
            <AltitudeMeters>555.5999755859375</AltitudeMeters>
            <DistanceMeters>NAN</DistanceMeters>
          </Trackpoint>
          <Trackpoint>
            <Time>2022-09-20T14:13:43.000Z</Time>
            <Position>
              <LatitudeDegrees>49.41057932563126087188720703125</LatitudeDegrees>
              <LongitudeDegrees>20.3501167707145214080810546875</LongitudeDegrees>
            </Position>
            <AltitudeMeters>555.79998779296875</AltitudeMeters>
            <DistanceMeters>NAN</DistanceMeters>
          </Trackpoint>
          <Trackpoint>
            <Time>2022-09-20T14:13:47.000Z</Time>
            <Position>
              <LatitudeDegrees>49.41059106029570102691650390625</LatitudeDegrees>
              <LongitudeDegrees>20.35011450760066509246826171875</LongitudeDegrees>
            </Position>
            <AltitudeMeters>556</AltitudeMeters>
            <DistanceMeters>NAN</DistanceMeters>
          </Trackpoint>
          <Trackpoint>
            <Time>2022-09-20T14:13:50.000Z</Time>
            <Position>
              <LatitudeDegrees>49.4106109254062175750732421875</LatitudeDegrees>
              <LongitudeDegrees>20.35009774379432201385498046875</LongitudeDegrees>
            </Position>
            <AltitudeMeters>555.79998779296875</AltitudeMeters>
            <DistanceMeters>NAN</DistanceMeters>
          </Trackpoint>
          <Trackpoint>
            <Time>2022-09-20T14:13:54.000Z</Time>
            <Position>
              <LatitudeDegrees>49.41064755432307720184326171875</LatitudeDegrees>
              <LongitudeDegrees>20.35005734302103519439697265625</LongitudeDegrees>
            </Position>
            <AltitudeMeters>555.79998779296875</AltitudeMeters>
            <DistanceMeters>NAN</DistanceMeters>
          </Trackpoint>
          <Trackpoint>
            <Time>2022-09-20T14:14:05.000Z</Time>
            <Position>
              <LatitudeDegrees>49.4107557646930217742919921875</LatitudeDegrees>
              <LongitudeDegrees>20.349981151521205902099609375</LongitudeDegrees>
            </Position>
            <AltitudeMeters>556</AltitudeMeters>
            <DistanceMeters>NAN</DistanceMeters>
          </Trackpoint>
          <Trackpoint>
            <Time>2022-09-20T14:14:09.000Z</Time>
            <Position>
              <LatitudeDegrees>49.410783089697360992431640625</LatitudeDegrees>
              <LongitudeDegrees>20.34995173104107379913330078125</LongitudeDegrees>
            </Position>
            <AltitudeMeters>556</AltitudeMeters>
            <DistanceMeters>NAN</DistanceMeters>
          </Trackpoint>
          <Trackpoint>
            <Time>2022-09-20T14:14:14.000Z</Time>
            <Position>
              <LatitudeDegrees>49.41083547659218311309814453125</LatitudeDegrees>
              <LongitudeDegrees>20.34991116262972354888916015625</LongitudeDegrees>
            </Position>
            <AltitudeMeters>556.20001220703125</AltitudeMeters>
            <DistanceMeters>NAN</DistanceMeters>
          </Trackpoint>
          <Trackpoint>
            <Time>2022-09-20T14:14:25.000Z</Time>
            <Position>
              <LatitudeDegrees>49.4109351374208927154541015625</LatitudeDegrees>
              <LongitudeDegrees>20.34984762780368328094482421875</LongitudeDegrees>
            </Position>
            <AltitudeMeters>556.4000244140625</AltitudeMeters>
            <DistanceMeters>NAN</DistanceMeters>
          </Trackpoint>
          <Trackpoint>
            <Time>2022-09-20T14:14:32.000Z</Time>
            <Position>
              <LatitudeDegrees>49.41099624149501323699951171875</LatitudeDegrees>
              <LongitudeDegrees>20.34979415126144886016845703125</LongitudeDegrees>
            </Position>
            <AltitudeMeters>556.79998779296875</AltitudeMeters>
            <DistanceMeters>NAN</DistanceMeters>
          </Trackpoint>
          <Trackpoint>
            <Time>2022-09-20T14:14:38.000Z</Time>
            <Position>
              <LatitudeDegrees>49.41104896366596221923828125</LatitudeDegrees>
              <LongitudeDegrees>20.3497588634490966796875</LongitudeDegrees>
            </Position>
            <AltitudeMeters>557</AltitudeMeters>
            <DistanceMeters>NAN</DistanceMeters>
          </Trackpoint>
          <Trackpoint>
            <Time>2022-09-20T14:14:39.000Z</Time>
            <Position>
              <LatitudeDegrees>49.41105809994041919708251953125</LatitudeDegrees>
              <LongitudeDegrees>20.34975551068782806396484375</LongitudeDegrees>
            </Position>
            <AltitudeMeters>557</AltitudeMeters>
            <DistanceMeters>NAN</DistanceMeters>
          </Trackpoint>
          <Trackpoint>
            <Time>2022-09-20T14:14:40.000Z</Time>
            <Position>
              <LatitudeDegrees>49.411067068576812744140625</LatitudeDegrees>
              <LongitudeDegrees>20.34974955953657627105712890625</LongitudeDegrees>
            </Position>
            <AltitudeMeters>557</AltitudeMeters>
            <DistanceMeters>NAN</DistanceMeters>
          </Trackpoint>
          <Trackpoint>
            <Time>2022-09-20T14:14:45.000Z</Time>
            <Position>
              <LatitudeDegrees>49.41110663115978240966796875</LatitudeDegrees>
              <LongitudeDegrees>20.34972491674125194549560546875</LongitudeDegrees>
            </Position>
            <AltitudeMeters>557.20001220703125</AltitudeMeters>
            <DistanceMeters>NAN</DistanceMeters>
          </Trackpoint>
          <Trackpoint>
            <Time>2022-09-20T14:14:47.000Z</Time>
            <Position>
              <LatitudeDegrees>49.41112280823290348052978515625</LatitudeDegrees>
              <LongitudeDegrees>20.34970446489751338958740234375</LongitudeDegrees>
            </Position>
            <AltitudeMeters>557.20001220703125</AltitudeMeters>
            <DistanceMeters>NAN</DistanceMeters>
          </Trackpoint>
          <Trackpoint>
            <Time>2022-09-20T14:14:55.000Z</Time>
            <Position>
              <LatitudeDegrees>49.411190450191497802734375</LatitudeDegrees>
              <LongitudeDegrees>20.34965693950653076171875</LongitudeDegrees>
            </Position>
            <AltitudeMeters>557.5999755859375</AltitudeMeters>
            <DistanceMeters>NAN</DistanceMeters>
          </Trackpoint>
          <Trackpoint>
            <Time>2022-09-20T14:15:01.000Z</Time>
            <Position>
              <LatitudeDegrees>49.41122330725193023681640625</LatitudeDegrees>
              <LongitudeDegrees>20.349622070789337158203125</LongitudeDegrees>
            </Position>
            <AltitudeMeters>558</AltitudeMeters>
            <DistanceMeters>NAN</DistanceMeters>
          </Trackpoint>
          <Trackpoint>
            <Time>2022-09-20T14:15:05.000Z</Time>
            <Position>
              <LatitudeDegrees>49.41126060672104358673095703125</LatitudeDegrees>
              <LongitudeDegrees>20.3495991043746471405029296875</LongitudeDegrees>
            </Position>
            <AltitudeMeters>558.20001220703125</AltitudeMeters>
            <DistanceMeters>NAN</DistanceMeters>
          </Trackpoint>
          <Trackpoint>
            <Time>2022-09-20T14:15:06.000Z</Time>
            <Position>
              <LatitudeDegrees>49.41126060672104358673095703125</LatitudeDegrees>
              <LongitudeDegrees>20.3495991043746471405029296875</LongitudeDegrees>
            </Position>
            <AltitudeMeters>558.4000244140625</AltitudeMeters>
            <DistanceMeters>NAN</DistanceMeters>
          </Trackpoint>
          <Trackpoint>
            <Time>2022-09-20T14:15:12.000Z</Time>
            <Position>
              <LatitudeDegrees>49.411276280879974365234375</LatitudeDegrees>
              <LongitudeDegrees>20.349572785198688507080078125</LongitudeDegrees>
            </Position>
            <AltitudeMeters>558.4000244140625</AltitudeMeters>
            <DistanceMeters>NAN</DistanceMeters>
          </Trackpoint>
          <Trackpoint>
            <Time>2022-09-20T14:15:20.000Z</Time>
            <Position>
              <LatitudeDegrees>49.41127837635576725006103515625</LatitudeDegrees>
              <LongitudeDegrees>20.34957001917064189910888671875</LongitudeDegrees>
            </Position>
            <AltitudeMeters>558.5999755859375</AltitudeMeters>
            <DistanceMeters>NAN</DistanceMeters>
          </Trackpoint>
          <Trackpoint>
            <Time>2022-09-20T14:15:25.000Z</Time>
            <Position>
              <LatitudeDegrees>49.41129036247730255126953125</LatitudeDegrees>
              <LongitudeDegrees>20.34955074079334735870361328125</LongitudeDegrees>
            </Position>
            <AltitudeMeters>558.4000244140625</AltitudeMeters>
            <DistanceMeters>NAN</DistanceMeters>
          </Trackpoint>
          <Trackpoint>
            <Time>2022-09-20T14:15:28.000Z</Time>
            <Position>
              <LatitudeDegrees>49.411319196224212646484375</LatitudeDegrees>
              <LongitudeDegrees>20.34950430504977703094482421875</LongitudeDegrees>
            </Position>
            <AltitudeMeters>558.79998779296875</AltitudeMeters>
            <DistanceMeters>NAN</DistanceMeters>
          </Trackpoint>
          <Trackpoint>
            <Time>2022-09-20T14:15:33.000Z</Time>
            <Position>
              <LatitudeDegrees>49.41136948764324188232421875</LatitudeDegrees>
              <LongitudeDegrees>20.3494438715279102325439453125</LongitudeDegrees>
            </Position>
            <AltitudeMeters>559</AltitudeMeters>
            <DistanceMeters>NAN</DistanceMeters>
          </Trackpoint>
          <Trackpoint>
            <Time>2022-09-20T14:15:38.000Z</Time>
            <Position>
              <LatitudeDegrees>49.41140594892203807830810546875</LatitudeDegrees>
              <LongitudeDegrees>20.34939785487949848175048828125</LongitudeDegrees>
            </Position>
            <AltitudeMeters>559.20001220703125</AltitudeMeters>
            <DistanceMeters>NAN</DistanceMeters>
          </Trackpoint>
          <Trackpoint>
            <Time>2022-09-20T14:15:40.000Z</Time>
            <Position>
              <LatitudeDegrees>49.4114197790622711181640625</LatitudeDegrees>
              <LongitudeDegrees>20.349380671977996826171875</LongitudeDegrees>
            </Position>
            <AltitudeMeters>559.4000244140625</AltitudeMeters>
            <DistanceMeters>NAN</DistanceMeters>
          </Trackpoint>
          <Trackpoint>
            <Time>2022-09-20T14:15:45.000Z</Time>
            <Position>
              <LatitudeDegrees>49.4114548154175281524658203125</LatitudeDegrees>
              <LongitudeDegrees>20.34933532588183879852294921875</LongitudeDegrees>
            </Position>
            <AltitudeMeters>559.79998779296875</AltitudeMeters>
            <DistanceMeters>NAN</DistanceMeters>
          </Trackpoint>
          <Trackpoint>
            <Time>2022-09-20T14:15:55.000Z</Time>
            <Position>
              <LatitudeDegrees>49.4115235470235347747802734375</LatitudeDegrees>
              <LongitudeDegrees>20.349256955087184906005859375</LongitudeDegrees>
            </Position>
            <AltitudeMeters>560</AltitudeMeters>
            <DistanceMeters>NAN</DistanceMeters>
          </Trackpoint>
          <Trackpoint>
            <Time>2022-09-20T14:15:56.000Z</Time>
            <Position>
              <LatitudeDegrees>49.4115302525460720062255859375</LatitudeDegrees>
              <LongitudeDegrees>20.34925066865980625152587890625</LongitudeDegrees>
            </Position>
            <AltitudeMeters>560</AltitudeMeters>
            <DistanceMeters>NAN</DistanceMeters>
          </Trackpoint>
          <Trackpoint>
            <Time>2022-09-20T14:16:00.000Z</Time>
            <Position>
              <LatitudeDegrees>49.41155665554106235504150390625</LatitudeDegrees>
              <LongitudeDegrees>20.3492172248661518096923828125</LongitudeDegrees>
            </Position>
            <AltitudeMeters>560.20001220703125</AltitudeMeters>
            <DistanceMeters>NAN</DistanceMeters>
          </Trackpoint>
          <Trackpoint>
            <Time>2022-09-20T14:16:03.000Z</Time>
            <Position>
              <LatitudeDegrees>49.4115825556218624114990234375</LatitudeDegrees>
              <LongitudeDegrees>20.34920674748718738555908203125</LongitudeDegrees>
            </Position>
            <AltitudeMeters>560.4000244140625</AltitudeMeters>
            <DistanceMeters>NAN</DistanceMeters>
          </Trackpoint>
          <Trackpoint>
            <Time>2022-09-20T14:16:06.000Z</Time>
            <Position>
              <LatitudeDegrees>49.4116043485701084136962890625</LatitudeDegrees>
              <LongitudeDegrees>20.34918445162475109100341796875</LongitudeDegrees>
            </Position>
            <AltitudeMeters>560.5999755859375</AltitudeMeters>
            <DistanceMeters>NAN</DistanceMeters>
          </Trackpoint>
          <Trackpoint>
            <Time>2022-09-20T14:16:15.000Z</Time>
            <Position>
              <LatitudeDegrees>49.4116700626909732818603515625</LatitudeDegrees>
              <LongitudeDegrees>20.34914287738502025604248046875</LongitudeDegrees>
            </Position>
            <AltitudeMeters>561</AltitudeMeters>
            <DistanceMeters>NAN</DistanceMeters>
          </Trackpoint>
          <Trackpoint>
            <Time>2022-09-20T14:16:24.000Z</Time>
            <Position>
              <LatitudeDegrees>49.411727227270603179931640625</LatitudeDegrees>
              <LongitudeDegrees>20.349069200456142425537109375</LongitudeDegrees>
            </Position>
            <AltitudeMeters>561.4000244140625</AltitudeMeters>
            <DistanceMeters>NAN</DistanceMeters>
          </Trackpoint>
          <Trackpoint>
            <Time>2022-09-20T14:16:25.000Z</Time>
            <Position>
              <LatitudeDegrees>49.411734603345394134521484375</LatitudeDegrees>
              <LongitudeDegrees>20.34906140528619289398193359375</LongitudeDegrees>
            </Position>
            <AltitudeMeters>561.4000244140625</AltitudeMeters>
            <DistanceMeters>NAN</DistanceMeters>
          </Trackpoint>
          <Trackpoint>
            <Time>2022-09-20T14:16:32.000Z</Time>
            <Position>
              <LatitudeDegrees>49.411769472062587738037109375</LatitudeDegrees>
              <LongitudeDegrees>20.34904916770756244659423828125</LongitudeDegrees>
            </Position>
            <AltitudeMeters>561.79998779296875</AltitudeMeters>
            <DistanceMeters>NAN</DistanceMeters>
          </Trackpoint>
          <Trackpoint>
            <Time>2022-09-20T14:16:39.000Z</Time>
            <Position>
              <LatitudeDegrees>49.4117770157754421234130859375</LatitudeDegrees>
              <LongitudeDegrees>20.34904279746115207672119140625</LongitudeDegrees>
            </Position>
            <AltitudeMeters>562</AltitudeMeters>
            <DistanceMeters>NAN</DistanceMeters>
          </Trackpoint>
          <Trackpoint>
            <Time>2022-09-20T14:16:46.000Z</Time>
            <Position>
              <LatitudeDegrees>49.4118199311196804046630859375</LatitudeDegrees>
              <LongitudeDegrees>20.34897557459771633148193359375</LongitudeDegrees>
            </Position>
            <AltitudeMeters>562.4000244140625</AltitudeMeters>
            <DistanceMeters>NAN</DistanceMeters>
          </Trackpoint>
          <Trackpoint>
            <Time>2022-09-20T14:16:47.000Z</Time>
            <Position>
              <LatitudeDegrees>49.41182571463286876678466796875</LatitudeDegrees>
              <LongitudeDegrees>20.34896668978035449981689453125</LongitudeDegrees>
            </Position>
            <AltitudeMeters>562.4000244140625</AltitudeMeters>
            <DistanceMeters>NAN</DistanceMeters>
          </Trackpoint>
          <Trackpoint>
            <Time>2022-09-20T14:16:54.000Z</Time>
            <Position>
              <LatitudeDegrees>49.4118551351130008697509765625</LatitudeDegrees>
              <LongitudeDegrees>20.34891271032392978668212890625</LongitudeDegrees>
            </Position>
            <AltitudeMeters>562.5999755859375</AltitudeMeters>
            <DistanceMeters>NAN</DistanceMeters>
          </Trackpoint>
          <Trackpoint>
            <Time>2022-09-20T14:16:58.000Z</Time>
            <Position>
              <LatitudeDegrees>49.4118705578148365020751953125</LatitudeDegrees>
              <LongitudeDegrees>20.3488842956721782684326171875</LongitudeDegrees>
            </Position>
            <AltitudeMeters>563</AltitudeMeters>
            <DistanceMeters>NAN</DistanceMeters>
          </Trackpoint>
          <Trackpoint>
            <Time>2022-09-20T14:17:04.000Z</Time>
            <Position>
              <LatitudeDegrees>49.4118762575089931488037109375</LatitudeDegrees>
              <LongitudeDegrees>20.3488563001155853271484375</LongitudeDegrees>
            </Position>
            <AltitudeMeters>563.20001220703125</AltitudeMeters>
            <DistanceMeters>NAN</DistanceMeters>
          </Trackpoint>
          <Trackpoint>
            <Time>2022-09-20T14:17:10.000Z</Time>
            <Position>
              <LatitudeDegrees>49.41190316341817378997802734375</LatitudeDegrees>
              <LongitudeDegrees>20.3488024882972240447998046875</LongitudeDegrees>
            </Position>
            <AltitudeMeters>563.4000244140625</AltitudeMeters>
            <DistanceMeters>NAN</DistanceMeters>
          </Trackpoint>
          <Trackpoint>
            <Time>2022-09-20T14:17:12.000Z</Time>
            <Position>
              <LatitudeDegrees>49.411911629140377044677734375</LatitudeDegrees>
              <LongitudeDegrees>20.3487749956548213958740234375</LongitudeDegrees>
            </Position>
            <AltitudeMeters>563.4000244140625</AltitudeMeters>
            <DistanceMeters>NAN</DistanceMeters>
          </Trackpoint>
          <Trackpoint>
            <Time>2022-09-20T14:17:17.000Z</Time>
            <Position>
              <LatitudeDegrees>49.4119282253086566925048828125</LatitudeDegrees>
              <LongitudeDegrees>20.34874691627919673919677734375</LongitudeDegrees>
            </Position>
            <AltitudeMeters>563.5999755859375</AltitudeMeters>
            <DistanceMeters>NAN</DistanceMeters>
          </Trackpoint>
          <Trackpoint>
            <Time>2022-09-20T14:17:22.000Z</Time>
            <Position>
              <LatitudeDegrees>49.41194473765790462493896484375</LatitudeDegrees>
              <LongitudeDegrees>20.34869226627051830291748046875</LongitudeDegrees>
            </Position>
            <AltitudeMeters>563.79998779296875</AltitudeMeters>
            <DistanceMeters>NAN</DistanceMeters>
          </Trackpoint>
          <Trackpoint>
            <Time>2022-09-20T14:17:28.000Z</Time>
            <Position>
              <LatitudeDegrees>49.4119610823690891265869140625</LatitudeDegrees>
              <LongitudeDegrees>20.348662175238132476806640625</LongitudeDegrees>
            </Position>
            <AltitudeMeters>564.20001220703125</AltitudeMeters>
            <DistanceMeters>NAN</DistanceMeters>
          </Trackpoint>
          <Trackpoint>
            <Time>2022-09-20T14:17:39.000Z</Time>
            <Position>
              <LatitudeDegrees>49.4119610823690891265869140625</LatitudeDegrees>
              <LongitudeDegrees>20.348662175238132476806640625</LongitudeDegrees>
            </Position>
            <AltitudeMeters>564</AltitudeMeters>
            <DistanceMeters>NAN</DistanceMeters>
          </Trackpoint>
          <Trackpoint>
            <Time>2022-09-20T14:17:45.000Z</Time>
            <Position>
              <LatitudeDegrees>49.4119610823690891265869140625</LatitudeDegrees>
              <LongitudeDegrees>20.348662175238132476806640625</LongitudeDegrees>
            </Position>
            <AltitudeMeters>564</AltitudeMeters>
            <DistanceMeters>NAN</DistanceMeters>
          </Trackpoint>
          <Trackpoint>
            <Time>2022-09-20T14:17:49.000Z</Time>
            <Position>
              <LatitudeDegrees>49.4119610823690891265869140625</LatitudeDegrees>
              <LongitudeDegrees>20.348662175238132476806640625</LongitudeDegrees>
            </Position>
            <AltitudeMeters>564</AltitudeMeters>
            <DistanceMeters>NAN</DistanceMeters>
          </Trackpoint>
          <Trackpoint>
            <Time>2022-09-20T14:17:51.000Z</Time>
            <Position>
              <LatitudeDegrees>49.4119610823690891265869140625</LatitudeDegrees>
              <LongitudeDegrees>20.348662175238132476806640625</LongitudeDegrees>
            </Position>
            <AltitudeMeters>564</AltitudeMeters>
            <DistanceMeters>NAN</DistanceMeters>
          </Trackpoint>
          <Trackpoint>
            <Time>2022-09-20T14:18:27.000Z</Time>
            <Position>
              <LatitudeDegrees>49.4119610823690891265869140625</LatitudeDegrees>
              <LongitudeDegrees>20.348662175238132476806640625</LongitudeDegrees>
            </Position>
            <AltitudeMeters>563.5999755859375</AltitudeMeters>
            <DistanceMeters>NAN</DistanceMeters>
          </Trackpoint>
          <Trackpoint>
            <Time>2022-09-20T14:18:30.000Z</Time>
            <Position>
              <LatitudeDegrees>49.4119610823690891265869140625</LatitudeDegrees>
              <LongitudeDegrees>20.348662175238132476806640625</LongitudeDegrees>
            </Position>
            <AltitudeMeters>563.5999755859375</AltitudeMeters>
            <DistanceMeters>NAN</DistanceMeters>
          </Trackpoint>
          <Trackpoint>
            <Time>2022-09-20T14:18:33.000Z</Time>
            <Position>
              <LatitudeDegrees>49.4119610823690891265869140625</LatitudeDegrees>
              <LongitudeDegrees>20.348662175238132476806640625</LongitudeDegrees>
            </Position>
            <AltitudeMeters>563.5999755859375</AltitudeMeters>
            <DistanceMeters>NAN</DistanceMeters>
          </Trackpoint>
          <Trackpoint>
            <Time>2022-09-20T14:18:42.000Z</Time>
            <Position>
              <LatitudeDegrees>49.4119674526154994964599609375</LatitudeDegrees>
              <LongitudeDegrees>20.34863174892961978912353515625</LongitudeDegrees>
            </Position>
            <AltitudeMeters>564</AltitudeMeters>
            <DistanceMeters>NAN</DistanceMeters>
          </Trackpoint>
          <Trackpoint>
            <Time>2022-09-20T14:18:44.000Z</Time>
            <Position>
              <LatitudeDegrees>49.4119801931083202362060546875</LatitudeDegrees>
              <LongitudeDegrees>20.34859679639339447021484375</LongitudeDegrees>
            </Position>
            <AltitudeMeters>564</AltitudeMeters>
            <DistanceMeters>NAN</DistanceMeters>
          </Trackpoint>
          <Trackpoint>
            <Time>2022-09-20T14:18:49.000Z</Time>
            <Position>
              <LatitudeDegrees>49.412015564739704132080078125</LatitudeDegrees>
              <LongitudeDegrees>20.34850954078137874603271484375</LongitudeDegrees>
            </Position>
            <AltitudeMeters>564.20001220703125</AltitudeMeters>
            <DistanceMeters>NAN</DistanceMeters>
          </Trackpoint>
          <Trackpoint>
            <Time>2022-09-20T14:18:53.000Z</Time>
            <Position>
              <LatitudeDegrees>49.41204674541950225830078125</LatitudeDegrees>
              <LongitudeDegrees>20.348452962934970855712890625</LongitudeDegrees>
            </Position>
            <AltitudeMeters>564.4000244140625</AltitudeMeters>
            <DistanceMeters>NAN</DistanceMeters>
          </Trackpoint>
          <Trackpoint>
            <Time>2022-09-20T14:18:54.000Z</Time>
            <Position>
              <LatitudeDegrees>49.41205420531332492828369140625</LatitudeDegrees>
              <LongitudeDegrees>20.3484405577182769775390625</LongitudeDegrees>
            </Position>
            <AltitudeMeters>564.5999755859375</AltitudeMeters>
            <DistanceMeters>NAN</DistanceMeters>
          </Trackpoint>
          <Trackpoint>
            <Time>2022-09-20T14:18:58.000Z</Time>
            <Position>
              <LatitudeDegrees>49.41207935102283954620361328125</LatitudeDegrees>
              <LongitudeDegrees>20.348411388695240020751953125</LongitudeDegrees>
            </Position>
            <AltitudeMeters>564.79998779296875</AltitudeMeters>
            <DistanceMeters>NAN</DistanceMeters>
          </Trackpoint>
          <Trackpoint>
            <Time>2022-09-20T14:19:01.000Z</Time>
            <Position>
              <LatitudeDegrees>49.4120928458869457244873046875</LatitudeDegrees>
              <LongitudeDegrees>20.34837459214031696319580078125</LongitudeDegrees>
            </Position>
            <AltitudeMeters>565</AltitudeMeters>
            <DistanceMeters>NAN</DistanceMeters>
          </Trackpoint>
          <Trackpoint>
            <Time>2022-09-20T14:19:08.000Z</Time>
            <Position>
              <LatitudeDegrees>49.41213450394570827484130859375</LatitudeDegrees>
              <LongitudeDegrees>20.34828071482479572296142578125</LongitudeDegrees>
            </Position>
            <AltitudeMeters>565.4000244140625</AltitudeMeters>
            <DistanceMeters>NAN</DistanceMeters>
          </Trackpoint>
          <Trackpoint>
            <Time>2022-09-20T14:19:09.000Z</Time>
            <Position>
              <LatitudeDegrees>49.4121377728879451751708984375</LatitudeDegrees>
              <LongitudeDegrees>20.34826797433197498321533203125</LongitudeDegrees>
            </Position>
            <AltitudeMeters>565.5999755859375</AltitudeMeters>
            <DistanceMeters>NAN</DistanceMeters>
          </Trackpoint>
          <Trackpoint>
            <Time>2022-09-20T14:19:10.000Z</Time>
            <Position>
              <LatitudeDegrees>49.4121404550969600677490234375</LatitudeDegrees>
              <LongitudeDegrees>20.34825657494366168975830078125</LongitudeDegrees>
            </Position>
            <AltitudeMeters>565.5999755859375</AltitudeMeters>
            <DistanceMeters>NAN</DistanceMeters>
          </Trackpoint>
          <Trackpoint>
            <Time>2022-09-20T14:19:20.000Z</Time>
            <Position>
              <LatitudeDegrees>49.41219024360179901123046875</LatitudeDegrees>
              <LongitudeDegrees>20.34813453443348407745361328125</LongitudeDegrees>
            </Position>
            <AltitudeMeters>566.4000244140625</AltitudeMeters>
            <DistanceMeters>NAN</DistanceMeters>
          </Trackpoint>
          <Trackpoint>
            <Time>2022-09-20T14:19:23.000Z</Time>
            <Position>
              <LatitudeDegrees>49.4122083485126495361328125</LatitudeDegrees>
              <LongitudeDegrees>20.348097570240497589111328125</LongitudeDegrees>
            </Position>
            <AltitudeMeters>566.5999755859375</AltitudeMeters>
            <DistanceMeters>NAN</DistanceMeters>
          </Trackpoint>
          <Trackpoint>
            <Time>2022-09-20T14:19:25.000Z</Time>
            <Position>
              <LatitudeDegrees>49.412211365997791290283203125</LatitudeDegrees>
              <LongitudeDegrees>20.34808717668056488037109375</LongitudeDegrees>
            </Position>
            <AltitudeMeters>566.79998779296875</AltitudeMeters>
            <DistanceMeters>NAN</DistanceMeters>
          </Trackpoint>
          <Trackpoint>
            <Time>2022-09-20T14:19:33.000Z</Time>
            <Position>
              <LatitudeDegrees>49.4122172333300113677978515625</LatitudeDegrees>
              <LongitudeDegrees>20.3480570018291473388671875</LongitudeDegrees>
            </Position>
            <AltitudeMeters>566.79998779296875</AltitudeMeters>
            <DistanceMeters>NAN</DistanceMeters>
          </Trackpoint>
          <Trackpoint>
            <Time>2022-09-20T14:19:40.000Z</Time>
            <Position>
              <LatitudeDegrees>49.41225101239979267120361328125</LatitudeDegrees>
              <LongitudeDegrees>20.34797628410160541534423828125</LongitudeDegrees>
            </Position>
            <AltitudeMeters>567.20001220703125</AltitudeMeters>
            <DistanceMeters>NAN</DistanceMeters>
          </Trackpoint>
          <Trackpoint>
            <Time>2022-09-20T14:19:48.000Z</Time>
            <Position>
              <LatitudeDegrees>49.41228353418409824371337890625</LatitudeDegrees>
              <LongitudeDegrees>20.34791241399943828582763671875</LongitudeDegrees>
            </Position>
            <AltitudeMeters>567.4000244140625</AltitudeMeters>
            <DistanceMeters>NAN</DistanceMeters>
          </Trackpoint>
          <Trackpoint>
            <Time>2022-09-20T14:19:52.000Z</Time>
            <Position>
              <LatitudeDegrees>49.41230289638042449951171875</LatitudeDegrees>
              <LongitudeDegrees>20.347873605787754058837890625</LongitudeDegrees>
            </Position>
            <AltitudeMeters>567.5999755859375</AltitudeMeters>
            <DistanceMeters>NAN</DistanceMeters>
          </Trackpoint>
          <Trackpoint>
            <Time>2022-09-20T14:19:55.000Z</Time>
            <Position>
              <LatitudeDegrees>49.41231789998710155487060546875</LatitudeDegrees>
              <LongitudeDegrees>20.34784452058374881744384765625</LongitudeDegrees>
            </Position>
            <AltitudeMeters>567.79998779296875</AltitudeMeters>
            <DistanceMeters>NAN</DistanceMeters>
          </Trackpoint>
          <Trackpoint>
            <Time>2022-09-20T14:19:58.000Z</Time>
            <Position>
              <LatitudeDegrees>49.41232896409928798675537109375</LatitudeDegrees>
              <LongitudeDegrees>20.34780956804752349853515625</LongitudeDegrees>
            </Position>
            <AltitudeMeters>567.79998779296875</AltitudeMeters>
            <DistanceMeters>NAN</DistanceMeters>
          </Trackpoint>
          <Trackpoint>
            <Time>2022-09-20T14:20:06.000Z</Time>
            <Position>
              <LatitudeDegrees>49.41236726939678192138671875</LatitudeDegrees>
              <LongitudeDegrees>20.34772700630128383636474609375</LongitudeDegrees>
            </Position>
            <AltitudeMeters>568.4000244140625</AltitudeMeters>
            <DistanceMeters>NAN</DistanceMeters>
          </Trackpoint>
          <Trackpoint>
            <Time>2022-09-20T14:20:14.000Z</Time>
            <Position>
              <LatitudeDegrees>49.41240356303751468658447265625</LatitudeDegrees>
              <LongitudeDegrees>20.34762508235871791839599609375</LongitudeDegrees>
            </Position>
            <AltitudeMeters>568.79998779296875</AltitudeMeters>
            <DistanceMeters>NAN</DistanceMeters>
          </Trackpoint>
          <Trackpoint>
            <Time>2022-09-20T14:20:17.000Z</Time>
            <Position>
              <LatitudeDegrees>49.412415884435176849365234375</LatitudeDegrees>
              <LongitudeDegrees>20.3475965000689029693603515625</LongitudeDegrees>
            </Position>
            <AltitudeMeters>569</AltitudeMeters>
            <DistanceMeters>NAN</DistanceMeters>
          </Trackpoint>
          <Trackpoint>
            <Time>2022-09-20T14:20:26.000Z</Time>
            <Position>
              <LatitudeDegrees>49.41245469264686107635498046875</LatitudeDegrees>
              <LongitudeDegrees>20.34748678095638751983642578125</LongitudeDegrees>
            </Position>
            <AltitudeMeters>569.20001220703125</AltitudeMeters>
            <DistanceMeters>NAN</DistanceMeters>
          </Trackpoint>
          <Trackpoint>
            <Time>2022-09-20T14:20:33.000Z</Time>
            <Position>
              <LatitudeDegrees>49.4124924950301647186279296875</LatitudeDegrees>
              <LongitudeDegrees>20.3474037162959575653076171875</LongitudeDegrees>
            </Position>
            <AltitudeMeters>569.20001220703125</AltitudeMeters>
            <DistanceMeters>NAN</DistanceMeters>
          </Trackpoint>
          <Trackpoint>
            <Time>2022-09-20T14:20:43.000Z</Time>
            <Position>
              <LatitudeDegrees>49.41252459771931171417236328125</LatitudeDegrees>
              <LongitudeDegrees>20.3472957573831081390380859375</LongitudeDegrees>
            </Position>
            <AltitudeMeters>569.4000244140625</AltitudeMeters>
            <DistanceMeters>NAN</DistanceMeters>
          </Trackpoint>
          <Trackpoint>
            <Time>2022-09-20T14:20:49.000Z</Time>
            <Position>
              <LatitudeDegrees>49.4125275313854217529296875</LatitudeDegrees>
              <LongitudeDegrees>20.3472907282412052154541015625</LongitudeDegrees>
            </Position>
            <AltitudeMeters>569.79998779296875</AltitudeMeters>
            <DistanceMeters>NAN</DistanceMeters>
          </Trackpoint>
          <Trackpoint>
            <Time>2022-09-20T14:20:50.000Z</Time>
            <Position>
              <LatitudeDegrees>49.4125275313854217529296875</LatitudeDegrees>
              <LongitudeDegrees>20.3472907282412052154541015625</LongitudeDegrees>
            </Position>
            <AltitudeMeters>569.79998779296875</AltitudeMeters>
            <DistanceMeters>NAN</DistanceMeters>
          </Trackpoint>
          <Trackpoint>
            <Time>2022-09-20T14:20:56.000Z</Time>
            <Position>
              <LatitudeDegrees>49.41255494020879268646240234375</LatitudeDegrees>
              <LongitudeDegrees>20.34718972630798816680908203125</LongitudeDegrees>
            </Position>
            <AltitudeMeters>569.79998779296875</AltitudeMeters>
            <DistanceMeters>NAN</DistanceMeters>
          </Trackpoint>
          <Trackpoint>
            <Time>2022-09-20T14:21:03.000Z</Time>
            <Position>
              <LatitudeDegrees>49.41259802319109439849853515625</LatitudeDegrees>
              <LongitudeDegrees>20.3470580466091632843017578125</LongitudeDegrees>
            </Position>
            <AltitudeMeters>570</AltitudeMeters>
            <DistanceMeters>NAN</DistanceMeters>
          </Trackpoint>
          <Trackpoint>
            <Time>2022-09-20T14:21:07.000Z</Time>
            <Position>
              <LatitudeDegrees>49.4125960953533649444580078125</LatitudeDegrees>
              <LongitudeDegrees>20.3469873033463954925537109375</LongitudeDegrees>
            </Position>
            <AltitudeMeters>570</AltitudeMeters>
            <DistanceMeters>NAN</DistanceMeters>
          </Trackpoint>
          <Trackpoint>
            <Time>2022-09-20T14:21:11.000Z</Time>
            <Position>
              <LatitudeDegrees>49.41263339482247829437255859375</LatitudeDegrees>
              <LongitudeDegrees>20.34693508408963680267333984375</LongitudeDegrees>
            </Position>
            <AltitudeMeters>570</AltitudeMeters>
            <DistanceMeters>NAN</DistanceMeters>
          </Trackpoint>
          <Trackpoint>
            <Time>2022-09-20T14:21:13.000Z</Time>
            <Position>
              <LatitudeDegrees>49.41264915280044078826904296875</LatitudeDegrees>
              <LongitudeDegrees>20.34690591506659984588623046875</LongitudeDegrees>
            </Position>
            <AltitudeMeters>570</AltitudeMeters>
            <DistanceMeters>NAN</DistanceMeters>
          </Trackpoint>
          <Trackpoint>
            <Time>2022-09-20T14:21:16.000Z</Time>
            <Position>
              <LatitudeDegrees>49.4126557745039463043212890625</LatitudeDegrees>
              <LongitudeDegrees>20.34687213599681854248046875</LongitudeDegrees>
            </Position>
            <AltitudeMeters>570.20001220703125</AltitudeMeters>
            <DistanceMeters>NAN</DistanceMeters>
          </Trackpoint>
          <Trackpoint>
            <Time>2022-09-20T14:21:22.000Z</Time>
            <Position>
              <LatitudeDegrees>49.41270045004785060882568359375</LatitudeDegrees>
              <LongitudeDegrees>20.3467938490211963653564453125</LongitudeDegrees>
            </Position>
            <AltitudeMeters>570.20001220703125</AltitudeMeters>
            <DistanceMeters>NAN</DistanceMeters>
          </Trackpoint>
          <Trackpoint>
            <Time>2022-09-20T14:21:25.000Z</Time>
            <Position>
              <LatitudeDegrees>49.41271922551095485687255859375</LatitudeDegrees>
              <LongitudeDegrees>20.34675269387662410736083984375</LongitudeDegrees>
            </Position>
            <AltitudeMeters>570.20001220703125</AltitudeMeters>
            <DistanceMeters>NAN</DistanceMeters>
          </Trackpoint>
          <Trackpoint>
            <Time>2022-09-20T14:21:30.000Z</Time>
            <Position>
              <LatitudeDegrees>49.41274336539208889007568359375</LatitudeDegrees>
              <LongitudeDegrees>20.34668169915676116943359375</LongitudeDegrees>
            </Position>
            <AltitudeMeters>570.20001220703125</AltitudeMeters>
            <DistanceMeters>NAN</DistanceMeters>
          </Trackpoint>
          <Trackpoint>
            <Time>2022-09-20T14:21:31.000Z</Time>
            <Position>
              <LatitudeDegrees>49.4127501547336578369140625</LatitudeDegrees>
              <LongitudeDegrees>20.34666988067328929901123046875</LongitudeDegrees>
            </Position>
            <AltitudeMeters>570.20001220703125</AltitudeMeters>
            <DistanceMeters>NAN</DistanceMeters>
          </Trackpoint>
          <Trackpoint>
            <Time>2022-09-20T14:21:37.000Z</Time>
            <Position>
              <LatitudeDegrees>49.412751831114292144775390625</LatitudeDegrees>
              <LongitudeDegrees>20.34666694700717926025390625</LongitudeDegrees>
            </Position>
            <AltitudeMeters>570.20001220703125</AltitudeMeters>
            <DistanceMeters>NAN</DistanceMeters>
          </Trackpoint>
          <Trackpoint>
            <Time>2022-09-20T14:21:48.000Z</Time>
            <Position>
              <LatitudeDegrees>49.4127523340284824371337890625</LatitudeDegrees>
              <LongitudeDegrees>20.34667122177779674530029296875</LongitudeDegrees>
            </Position>
            <AltitudeMeters>570</AltitudeMeters>
            <DistanceMeters>NAN</DistanceMeters>
          </Trackpoint>
          <Trackpoint>
            <Time>2022-09-20T14:22:12.000Z</Time>
            <Position>
              <LatitudeDegrees>49.41275241784751415252685546875</LatitudeDegrees>
              <LongitudeDegrees>20.34666803665459156036376953125</LongitudeDegrees>
            </Position>
            <AltitudeMeters>569.5999755859375</AltitudeMeters>
            <DistanceMeters>NAN</DistanceMeters>
          </Trackpoint>
          <Trackpoint>
            <Time>2022-09-20T14:22:18.000Z</Time>
            <Position>
              <LatitudeDegrees>49.41277454607188701629638671875</LatitudeDegrees>
              <LongitudeDegrees>20.34660114906728267669677734375</LongitudeDegrees>
            </Position>
            <AltitudeMeters>569.79998779296875</AltitudeMeters>
            <DistanceMeters>NAN</DistanceMeters>
          </Trackpoint>
          <Trackpoint>
            <Time>2022-09-20T14:22:19.000Z</Time>
            <Position>
              <LatitudeDegrees>49.41278007812798023223876953125</LatitudeDegrees>
              <LongitudeDegrees>20.346577428281307220458984375</LongitudeDegrees>
            </Position>
            <AltitudeMeters>569.79998779296875</AltitudeMeters>
            <DistanceMeters>NAN</DistanceMeters>
          </Trackpoint>
          <Trackpoint>
            <Time>2022-09-20T14:22:26.000Z</Time>
            <Position>
              <LatitudeDegrees>49.41282819025218486785888671875</LatitudeDegrees>
              <LongitudeDegrees>20.34642965532839298248291015625</LongitudeDegrees>
            </Position>
            <AltitudeMeters>569.79998779296875</AltitudeMeters>
            <DistanceMeters>NAN</DistanceMeters>
          </Trackpoint>
          <Trackpoint>
            <Time>2022-09-20T14:22:31.000Z</Time>
            <Position>
              <LatitudeDegrees>49.4128505699336528778076171875</LatitudeDegrees>
              <LongitudeDegrees>20.3463511168956756591796875</LongitudeDegrees>
            </Position>
            <AltitudeMeters>570</AltitudeMeters>
            <DistanceMeters>NAN</DistanceMeters>
          </Trackpoint>
          <Trackpoint>
            <Time>2022-09-20T14:22:33.000Z</Time>
            <Position>
              <LatitudeDegrees>49.4128646515309810638427734375</LatitudeDegrees>
              <LongitudeDegrees>20.34633091650903224945068359375</LongitudeDegrees>
            </Position>
            <AltitudeMeters>570</AltitudeMeters>
            <DistanceMeters>NAN</DistanceMeters>
          </Trackpoint>
          <Trackpoint>
            <Time>2022-09-20T14:22:41.000Z</Time>
            <Position>
              <LatitudeDegrees>49.41290949471294879913330078125</LatitudeDegrees>
              <LongitudeDegrees>20.3462518751621246337890625</LongitudeDegrees>
            </Position>
            <AltitudeMeters>570.4000244140625</AltitudeMeters>
            <DistanceMeters>NAN</DistanceMeters>
          </Trackpoint>
          <Trackpoint>
            <Time>2022-09-20T14:22:49.000Z</Time>
            <Position>
              <LatitudeDegrees>49.41294637508690357208251953125</LatitudeDegrees>
              <LongitudeDegrees>20.346146263182163238525390625</LongitudeDegrees>
            </Position>
            <AltitudeMeters>570.5999755859375</AltitudeMeters>
            <DistanceMeters>NAN</DistanceMeters>
          </Trackpoint>
          <Trackpoint>
            <Time>2022-09-20T14:22:51.000Z</Time>
            <Position>
              <LatitudeDegrees>49.41295467317104339599609375</LatitudeDegrees>
              <LongitudeDegrees>20.34611332230269908905029296875</LongitudeDegrees>
            </Position>
            <AltitudeMeters>570.79998779296875</AltitudeMeters>
            <DistanceMeters>NAN</DistanceMeters>
          </Trackpoint>
          <Trackpoint>
            <Time>2022-09-20T14:22:59.000Z</Time>
            <Position>
              <LatitudeDegrees>49.41300353966653347015380859375</LatitudeDegrees>
              <LongitudeDegrees>20.34599748440086841583251953125</LongitudeDegrees>
            </Position>
            <AltitudeMeters>571</AltitudeMeters>
            <DistanceMeters>NAN</DistanceMeters>
          </Trackpoint>
          <Trackpoint>
            <Time>2022-09-20T14:23:08.000Z</Time>
            <Position>
              <LatitudeDegrees>49.413040168583393096923828125</LatitudeDegrees>
              <LongitudeDegrees>20.34586907364428043365478515625</LongitudeDegrees>
            </Position>
            <AltitudeMeters>571.4000244140625</AltitudeMeters>
            <DistanceMeters>NAN</DistanceMeters>
          </Trackpoint>
          <Trackpoint>
            <Time>2022-09-20T14:23:12.000Z</Time>
            <Position>
              <LatitudeDegrees>49.41305886022746562957763671875</LatitudeDegrees>
              <LongitudeDegrees>20.3458181954920291900634765625</LongitudeDegrees>
            </Position>
            <AltitudeMeters>571.5999755859375</AltitudeMeters>
            <DistanceMeters>NAN</DistanceMeters>
          </Trackpoint>
          <Trackpoint>
            <Time>2022-09-20T14:23:14.000Z</Time>
            <Position>
              <LatitudeDegrees>49.41306171007454395294189453125</LatitudeDegrees>
              <LongitudeDegrees>20.3458145074546337127685546875</LongitudeDegrees>
            </Position>
            <AltitudeMeters>571.79998779296875</AltitudeMeters>
            <DistanceMeters>NAN</DistanceMeters>
          </Trackpoint>
          <Trackpoint>
            <Time>2022-09-20T14:23:15.000Z</Time>
            <Position>
              <LatitudeDegrees>49.41306171007454395294189453125</LatitudeDegrees>
              <LongitudeDegrees>20.34580704756081104278564453125</LongitudeDegrees>
            </Position>
            <AltitudeMeters>571.79998779296875</AltitudeMeters>
            <DistanceMeters>NAN</DistanceMeters>
          </Trackpoint>
          <Trackpoint>
            <Time>2022-09-20T14:23:21.000Z</Time>
            <Position>
              <LatitudeDegrees>49.4130896218121051788330078125</LatitudeDegrees>
              <LongitudeDegrees>20.3457176126539707183837890625</LongitudeDegrees>
            </Position>
            <AltitudeMeters>572</AltitudeMeters>
            <DistanceMeters>NAN</DistanceMeters>
          </Trackpoint>
          <Trackpoint>
            <Time>2022-09-20T14:23:33.000Z</Time>
            <Position>
              <LatitudeDegrees>49.4131503067910671234130859375</LatitudeDegrees>
              <LongitudeDegrees>20.34554871730506420135498046875</LongitudeDegrees>
            </Position>
            <AltitudeMeters>572.5999755859375</AltitudeMeters>
            <DistanceMeters>NAN</DistanceMeters>
          </Trackpoint>
          <Trackpoint>
            <Time>2022-09-20T14:23:38.000Z</Time>
            <Position>
              <LatitudeDegrees>49.41317469812929630279541015625</LatitudeDegrees>
              <LongitudeDegrees>20.34549155272543430328369140625</LongitudeDegrees>
            </Position>
            <AltitudeMeters>572.79998779296875</AltitudeMeters>
            <DistanceMeters>NAN</DistanceMeters>
          </Trackpoint>
          <Trackpoint>
            <Time>2022-09-20T14:23:42.000Z</Time>
            <Position>
              <LatitudeDegrees>49.4131875224411487579345703125</LatitudeDegrees>
              <LongitudeDegrees>20.3454537503421306610107421875</LongitudeDegrees>
            </Position>
            <AltitudeMeters>573.4000244140625</AltitudeMeters>
            <DistanceMeters>NAN</DistanceMeters>
          </Trackpoint>
          <Trackpoint>
            <Time>2022-09-20T14:23:49.000Z</Time>
            <Position>
              <LatitudeDegrees>49.413194395601749420166015625</LatitudeDegrees>
              <LongitudeDegrees>20.34544344060122966766357421875</LongitudeDegrees>
            </Position>
            <AltitudeMeters>573.4000244140625</AltitudeMeters>
            <DistanceMeters>NAN</DistanceMeters>
          </Trackpoint>
          <Trackpoint>
            <Time>2022-09-20T14:23:55.000Z</Time>
            <Position>
              <LatitudeDegrees>49.41322691738605499267578125</LatitudeDegrees>
              <LongitudeDegrees>20.3453950770199298858642578125</LongitudeDegrees>
            </Position>
            <AltitudeMeters>573.4000244140625</AltitudeMeters>
            <DistanceMeters>NAN</DistanceMeters>
          </Trackpoint>
          <Trackpoint>
            <Time>2022-09-20T14:24:01.000Z</Time>
            <Position>
              <LatitudeDegrees>49.4132468663156032562255859375</LatitudeDegrees>
              <LongitudeDegrees>20.345338918268680572509765625</LongitudeDegrees>
            </Position>
            <AltitudeMeters>573.79998779296875</AltitudeMeters>
            <DistanceMeters>NAN</DistanceMeters>
          </Trackpoint>
          <Trackpoint>
            <Time>2022-09-20T14:24:03.000Z</Time>
            <Position>
              <LatitudeDegrees>49.4132602773606777191162109375</LatitudeDegrees>
              <LongitudeDegrees>20.34531804732978343963623046875</LongitudeDegrees>
            </Position>
            <AltitudeMeters>574</AltitudeMeters>
            <DistanceMeters>NAN</DistanceMeters>
          </Trackpoint>
          <Trackpoint>
            <Time>2022-09-20T14:24:11.000Z</Time>
            <Position>
              <LatitudeDegrees>49.41327611915767192840576171875</LatitudeDegrees>
              <LongitudeDegrees>20.345258451998233795166015625</LongitudeDegrees>
            </Position>
            <AltitudeMeters>574.5999755859375</AltitudeMeters>
            <DistanceMeters>NAN</DistanceMeters>
          </Trackpoint>
          <Trackpoint>
            <Time>2022-09-20T14:24:14.000Z</Time>
            <Position>
              <LatitudeDegrees>49.41328860819339752197265625</LatitudeDegrees>
              <LongitudeDegrees>20.345218889415264129638671875</LongitudeDegrees>
            </Position>
            <AltitudeMeters>574.5999755859375</AltitudeMeters>
            <DistanceMeters>NAN</DistanceMeters>
          </Trackpoint>
          <Trackpoint>
            <Time>2022-09-20T14:24:18.000Z</Time>
            <Position>
              <LatitudeDegrees>49.413309060037136077880859375</LatitudeDegrees>
              <LongitudeDegrees>20.34517974592745304107666015625</LongitudeDegrees>
            </Position>
            <AltitudeMeters>574.79998779296875</AltitudeMeters>
            <DistanceMeters>NAN</DistanceMeters>
          </Trackpoint>
          <Trackpoint>
            <Time>2022-09-20T14:24:19.000Z</Time>
            <Position>
              <LatitudeDegrees>49.41331350244581699371337890625</LatitudeDegrees>
              <LongitudeDegrees>20.34516750834882259368896484375</LongitudeDegrees>
            </Position>
            <AltitudeMeters>575</AltitudeMeters>
            <DistanceMeters>NAN</DistanceMeters>
          </Trackpoint>
          <Trackpoint>
            <Time>2022-09-20T14:24:24.000Z</Time>
            <Position>
              <LatitudeDegrees>49.4133323617279529571533203125</LatitudeDegrees>
              <LongitudeDegrees>20.34511017613112926483154296875</LongitudeDegrees>
            </Position>
            <AltitudeMeters>575.4000244140625</AltitudeMeters>
            <DistanceMeters>NAN</DistanceMeters>
          </Trackpoint>
          <Trackpoint>
            <Time>2022-09-20T14:24:27.000Z</Time>
            <Position>
              <LatitudeDegrees>49.41333646886050701141357421875</LatitudeDegrees>
              <LongitudeDegrees>20.34509575925767421722412109375</LongitudeDegrees>
            </Position>
            <AltitudeMeters>575.4000244140625</AltitudeMeters>
            <DistanceMeters>NAN</DistanceMeters>
          </Trackpoint>
          <Trackpoint>
            <Time>2022-09-20T14:24:43.000Z</Time>
            <Position>
              <LatitudeDegrees>49.41335574723780155181884765625</LatitudeDegrees>
              <LongitudeDegrees>20.34505133517086505889892578125</LongitudeDegrees>
            </Position>
            <AltitudeMeters>575.79998779296875</AltitudeMeters>
            <DistanceMeters>NAN</DistanceMeters>
          </Trackpoint>
          <Trackpoint>
            <Time>2022-09-20T14:24:49.000Z</Time>
            <Position>
              <LatitudeDegrees>49.413368403911590576171875</LatitudeDegrees>
              <LongitudeDegrees>20.34503323026001453399658203125</LongitudeDegrees>
            </Position>
            <AltitudeMeters>575.79998779296875</AltitudeMeters>
            <DistanceMeters>NAN</DistanceMeters>
          </Trackpoint>
          <Trackpoint>
            <Time>2022-09-20T14:24:50.000Z</Time>
            <Position>
              <LatitudeDegrees>49.413376785814762115478515625</LatitudeDegrees>
              <LongitudeDegrees>20.34502166323363780975341796875</LongitudeDegrees>
            </Position>
            <AltitudeMeters>575.79998779296875</AltitudeMeters>
            <DistanceMeters>NAN</DistanceMeters>
          </Trackpoint>
          <Trackpoint>
            <Time>2022-09-20T14:24:51.000Z</Time>
            <Position>
              <LatitudeDegrees>49.41338139586150646209716796875</LatitudeDegrees>
              <LongitudeDegrees>20.3450135327875614166259765625</LongitudeDegrees>
            </Position>
            <AltitudeMeters>576</AltitudeMeters>
            <DistanceMeters>NAN</DistanceMeters>
          </Trackpoint>
          <Trackpoint>
            <Time>2022-09-20T14:24:59.000Z</Time>
            <Position>
              <LatitudeDegrees>49.41339061595499515533447265625</LatitudeDegrees>
              <LongitudeDegrees>20.34499584697186946868896484375</LongitudeDegrees>
            </Position>
            <AltitudeMeters>576.5999755859375</AltitudeMeters>
            <DistanceMeters>NAN</DistanceMeters>
          </Trackpoint>
          <Trackpoint>
            <Time>2022-09-20T14:25:06.000Z</Time>
            <Position>
              <LatitudeDegrees>49.41343881189823150634765625</LatitudeDegrees>
              <LongitudeDegrees>20.3448921628296375274658203125</LongitudeDegrees>
            </Position>
            <AltitudeMeters>576.79998779296875</AltitudeMeters>
            <DistanceMeters>NAN</DistanceMeters>
          </Trackpoint>
          <Trackpoint>
            <Time>2022-09-20T14:25:09.000Z</Time>
            <Position>
              <LatitudeDegrees>49.4134658016264438629150390625</LatitudeDegrees>
              <LongitudeDegrees>20.3448422066867351531982421875</LongitudeDegrees>
            </Position>
            <AltitudeMeters>577</AltitudeMeters>
            <DistanceMeters>NAN</DistanceMeters>
          </Trackpoint>
          <Trackpoint>
            <Time>2022-09-20T14:25:12.000Z</Time>
            <Position>
              <LatitudeDegrees>49.413476698100566864013671875</LatitudeDegrees>
              <LongitudeDegrees>20.3448140434920787811279296875</LongitudeDegrees>
            </Position>
            <AltitudeMeters>577.20001220703125</AltitudeMeters>
            <DistanceMeters>NAN</DistanceMeters>
          </Trackpoint>
          <Trackpoint>
            <Time>2022-09-20T14:25:20.000Z</Time>
            <Position>
              <LatitudeDegrees>49.41350460983812808990478515625</LatitudeDegrees>
              <LongitudeDegrees>20.34474254585802555084228515625</LongitudeDegrees>
            </Position>
            <AltitudeMeters>577.5999755859375</AltitudeMeters>
            <DistanceMeters>NAN</DistanceMeters>
          </Trackpoint>
          <Trackpoint>
            <Time>2022-09-20T14:25:27.000Z</Time>
            <Position>
              <LatitudeDegrees>49.41350460983812808990478515625</LatitudeDegrees>
              <LongitudeDegrees>20.34474254585802555084228515625</LongitudeDegrees>
            </Position>
            <AltitudeMeters>578</AltitudeMeters>
            <DistanceMeters>NAN</DistanceMeters>
          </Trackpoint>
          <Trackpoint>
            <Time>2022-09-20T14:25:28.000Z</Time>
            <Position>
              <LatitudeDegrees>49.41350460983812808990478515625</LatitudeDegrees>
              <LongitudeDegrees>20.34474254585802555084228515625</LongitudeDegrees>
            </Position>
            <AltitudeMeters>578</AltitudeMeters>
            <DistanceMeters>NAN</DistanceMeters>
          </Trackpoint>
          <Trackpoint>
            <Time>2022-09-20T14:25:33.000Z</Time>
            <Position>
              <LatitudeDegrees>49.4135308451950550079345703125</LatitudeDegrees>
              <LongitudeDegrees>20.344703905284404754638671875</LongitudeDegrees>
            </Position>
            <AltitudeMeters>578.20001220703125</AltitudeMeters>
            <DistanceMeters>NAN</DistanceMeters>
          </Trackpoint>
          <Trackpoint>
            <Time>2022-09-20T14:25:34.000Z</Time>
            <Position>
              <LatitudeDegrees>49.41353805363178253173828125</LatitudeDegrees>
              <LongitudeDegrees>20.34469091333448886871337890625</LongitudeDegrees>
            </Position>
            <AltitudeMeters>578.20001220703125</AltitudeMeters>
            <DistanceMeters>NAN</DistanceMeters>
          </Trackpoint>
          <Trackpoint>
            <Time>2022-09-20T14:25:41.000Z</Time>
            <Position>
              <LatitudeDegrees>49.4135754369199275970458984375</LatitudeDegrees>
              <LongitudeDegrees>20.34459435380995273590087890625</LongitudeDegrees>
            </Position>
            <AltitudeMeters>578.4000244140625</AltitudeMeters>
            <DistanceMeters>NAN</DistanceMeters>
          </Trackpoint>
          <Trackpoint>
            <Time>2022-09-20T14:25:43.000Z</Time>
            <Position>
              <LatitudeDegrees>49.4135838188230991363525390625</LatitudeDegrees>
              <LongitudeDegrees>20.34456552006304264068603515625</LongitudeDegrees>
            </Position>
            <AltitudeMeters>578.5999755859375</AltitudeMeters>
            <DistanceMeters>NAN</DistanceMeters>
          </Trackpoint>
          <Trackpoint>
            <Time>2022-09-20T14:25:52.000Z</Time>
            <Position>
              <LatitudeDegrees>49.41363369114696979522705078125</LatitudeDegrees>
              <LongitudeDegrees>20.34445839934051036834716796875</LongitudeDegrees>
            </Position>
            <AltitudeMeters>579</AltitudeMeters>
            <DistanceMeters>NAN</DistanceMeters>
          </Trackpoint>
          <Trackpoint>
            <Time>2022-09-20T14:25:55.000Z</Time>
            <Position>
              <LatitudeDegrees>49.41365431062877178192138671875</LatitudeDegrees>
              <LongitudeDegrees>20.3444241173565387725830078125</LongitudeDegrees>
            </Position>
            <AltitudeMeters>579</AltitudeMeters>
            <DistanceMeters>NAN</DistanceMeters>
          </Trackpoint>
          <Trackpoint>
            <Time>2022-09-20T14:25:58.000Z</Time>
            <Position>
              <LatitudeDegrees>49.413656406104564666748046875</LatitudeDegrees>
              <LongitudeDegrees>20.34442084841430187225341796875</LongitudeDegrees>
            </Position>
            <AltitudeMeters>579.4000244140625</AltitudeMeters>
            <DistanceMeters>NAN</DistanceMeters>
          </Trackpoint>
          <Trackpoint>
            <Time>2022-09-20T14:26:09.000Z</Time>
            <Position>
              <LatitudeDegrees>49.4136867485940456390380859375</LatitudeDegrees>
              <LongitudeDegrees>20.34437089227139949798583984375</LongitudeDegrees>
            </Position>
            <AltitudeMeters>579.5999755859375</AltitudeMeters>
            <DistanceMeters>NAN</DistanceMeters>
          </Trackpoint>
          <Trackpoint>
            <Time>2022-09-20T14:26:16.000Z</Time>
            <Position>
              <LatitudeDegrees>49.4137152470648288726806640625</LatitudeDegrees>
              <LongitudeDegrees>20.3443295694887638092041015625</LongitudeDegrees>
            </Position>
            <AltitudeMeters>579.79998779296875</AltitudeMeters>
            <DistanceMeters>NAN</DistanceMeters>
          </Trackpoint>
          <Trackpoint>
            <Time>2022-09-20T14:26:20.000Z</Time>
            <Position>
              <LatitudeDegrees>49.41375137306749820709228515625</LatitudeDegrees>
              <LongitudeDegrees>20.344280116260051727294921875</LongitudeDegrees>
            </Position>
            <AltitudeMeters>580.20001220703125</AltitudeMeters>
            <DistanceMeters>NAN</DistanceMeters>
          </Trackpoint>
          <Trackpoint>
            <Time>2022-09-20T14:26:24.000Z</Time>
            <Position>
              <LatitudeDegrees>49.41377341747283935546875</LatitudeDegrees>
              <LongitudeDegrees>20.34424382261931896209716796875</LongitudeDegrees>
            </Position>
            <AltitudeMeters>580.4000244140625</AltitudeMeters>
            <DistanceMeters>NAN</DistanceMeters>
          </Trackpoint>
          <Trackpoint>
            <Time>2022-09-20T14:26:29.000Z</Time>
            <Position>
              <LatitudeDegrees>49.4138101302087306976318359375</LatitudeDegrees>
              <LongitudeDegrees>20.344198308885097503662109375</LongitudeDegrees>
            </Position>
            <AltitudeMeters>580.5999755859375</AltitudeMeters>
            <DistanceMeters>NAN</DistanceMeters>
          </Trackpoint>
          <Trackpoint>
            <Time>2022-09-20T14:26:34.000Z</Time>
            <Position>
              <LatitudeDegrees>49.41384759731590747833251953125</LatitudeDegrees>
              <LongitudeDegrees>20.34413569606840610504150390625</LongitudeDegrees>
            </Position>
            <AltitudeMeters>581.20001220703125</AltitudeMeters>
            <DistanceMeters>NAN</DistanceMeters>
          </Trackpoint>
          <Trackpoint>
            <Time>2022-09-20T14:26:35.000Z</Time>
            <Position>
              <LatitudeDegrees>49.4138579070568084716796875</LatitudeDegrees>
              <LongitudeDegrees>20.3441263921558856964111328125</LongitudeDegrees>
            </Position>
            <AltitudeMeters>581.20001220703125</AltitudeMeters>
            <DistanceMeters>NAN</DistanceMeters>
          </Trackpoint>
          <Trackpoint>
            <Time>2022-09-20T14:26:43.000Z</Time>
            <Position>
              <LatitudeDegrees>49.41392135806381702423095703125</LatitudeDegrees>
              <LongitudeDegrees>20.3440988995134830474853515625</LongitudeDegrees>
            </Position>
            <AltitudeMeters>581.5999755859375</AltitudeMeters>
            <DistanceMeters>NAN</DistanceMeters>
          </Trackpoint>
          <Trackpoint>
            <Time>2022-09-20T14:26:45.000Z</Time>
            <Position>
              <LatitudeDegrees>49.41393912769854068756103515625</LatitudeDegrees>
              <LongitudeDegrees>20.3440978936851024627685546875</LongitudeDegrees>
            </Position>
            <AltitudeMeters>581.79998779296875</AltitudeMeters>
            <DistanceMeters>NAN</DistanceMeters>
          </Trackpoint>
          <Trackpoint>
            <Time>2022-09-20T14:26:51.000Z</Time>
            <Position>
              <LatitudeDegrees>49.41399796865880489349365234375</LatitudeDegrees>
              <LongitudeDegrees>20.34407190978527069091796875</LongitudeDegrees>
            </Position>
            <AltitudeMeters>581.79998779296875</AltitudeMeters>
            <DistanceMeters>NAN</DistanceMeters>
          </Trackpoint>
          <Trackpoint>
            <Time>2022-09-20T14:26:52.000Z</Time>
            <Position>
              <LatitudeDegrees>49.41400802694261074066162109375</LatitudeDegrees>
              <LongitudeDegrees>20.3440667130053043365478515625</LongitudeDegrees>
            </Position>
            <AltitudeMeters>581.79998779296875</AltitudeMeters>
            <DistanceMeters>NAN</DistanceMeters>
          </Trackpoint>
          <Trackpoint>
            <Time>2022-09-20T14:26:57.000Z</Time>
            <Position>
              <LatitudeDegrees>49.41405178047716617584228515625</LatitudeDegrees>
              <LongitudeDegrees>20.34406143240630626678466796875</LongitudeDegrees>
            </Position>
            <AltitudeMeters>582.20001220703125</AltitudeMeters>
            <DistanceMeters>NAN</DistanceMeters>
          </Trackpoint>
          <Trackpoint>
            <Time>2022-09-20T14:26:58.000Z</Time>
            <Position>
              <LatitudeDegrees>49.4140599109232425689697265625</LatitudeDegrees>
              <LongitudeDegrees>20.34405849874019622802734375</LongitudeDegrees>
            </Position>
            <AltitudeMeters>582.20001220703125</AltitudeMeters>
            <DistanceMeters>NAN</DistanceMeters>
          </Trackpoint>
          <Trackpoint>
            <Time>2022-09-20T14:26:59.000Z</Time>
            <Position>
              <LatitudeDegrees>49.4140698015689849853515625</LatitudeDegrees>
              <LongitudeDegrees>20.3440512903034687042236328125</LongitudeDegrees>
            </Position>
            <AltitudeMeters>582.20001220703125</AltitudeMeters>
            <DistanceMeters>NAN</DistanceMeters>
          </Trackpoint>
          <Trackpoint>
            <Time>2022-09-20T14:27:00.000Z</Time>
            <Position>
              <LatitudeDegrees>49.41407575272023677825927734375</LatitudeDegrees>
              <LongitudeDegrees>20.34404366277158260345458984375</LongitudeDegrees>
            </Position>
            <AltitudeMeters>582.20001220703125</AltitudeMeters>
            <DistanceMeters>NAN</DistanceMeters>
          </Trackpoint>
          <Trackpoint>
            <Time>2022-09-20T14:27:03.000Z</Time>
            <Position>
              <LatitudeDegrees>49.41410274244844913482666015625</LatitudeDegrees>
              <LongitudeDegrees>20.3440395556390285491943359375</LongitudeDegrees>
            </Position>
            <AltitudeMeters>582.4000244140625</AltitudeMeters>
            <DistanceMeters>NAN</DistanceMeters>
          </Trackpoint>
          <Trackpoint>
            <Time>2022-09-20T14:27:04.000Z</Time>
            <Position>
              <LatitudeDegrees>49.41410936415195465087890625</LatitudeDegrees>
              <LongitudeDegrees>20.3440365381538867950439453125</LongitudeDegrees>
            </Position>
            <AltitudeMeters>582.4000244140625</AltitudeMeters>
            <DistanceMeters>NAN</DistanceMeters>
          </Trackpoint>
          <Trackpoint>
            <Time>2022-09-20T14:27:10.000Z</Time>
            <Position>
              <LatitudeDegrees>49.4141551293432712554931640625</LatitudeDegrees>
              <LongitudeDegrees>20.3440294973552227020263671875</LongitudeDegrees>
            </Position>
            <AltitudeMeters>582.79998779296875</AltitudeMeters>
            <DistanceMeters>NAN</DistanceMeters>
          </Trackpoint>
          <Trackpoint>
            <Time>2022-09-20T14:27:19.000Z</Time>
            <Position>
              <LatitudeDegrees>49.41424104385077953338623046875</LatitudeDegrees>
              <LongitudeDegrees>20.34402555786073207855224609375</LongitudeDegrees>
            </Position>
            <AltitudeMeters>583</AltitudeMeters>
            <DistanceMeters>NAN</DistanceMeters>
          </Trackpoint>
          <Trackpoint>
            <Time>2022-09-20T14:27:22.000Z</Time>
            <Position>
              <LatitudeDegrees>49.4142714701592922210693359375</LatitudeDegrees>
              <LongitudeDegrees>20.34401097334921360015869140625</LongitudeDegrees>
            </Position>
            <AltitudeMeters>583.20001220703125</AltitudeMeters>
            <DistanceMeters>NAN</DistanceMeters>
          </Trackpoint>
          <Trackpoint>
            <Time>2022-09-20T14:27:27.000Z</Time>
            <Position>
              <LatitudeDegrees>49.41430650651454925537109375</LatitudeDegrees>
              <LongitudeDegrees>20.34400275908410549163818359375</LongitudeDegrees>
            </Position>
            <AltitudeMeters>583.4000244140625</AltitudeMeters>
            <DistanceMeters>NAN</DistanceMeters>
          </Trackpoint>
          <Trackpoint>
            <Time>2022-09-20T14:27:29.000Z</Time>
            <Position>
              <LatitudeDegrees>49.414314888417720794677734375</LatitudeDegrees>
              <LongitudeDegrees>20.3439845703542232513427734375</LongitudeDegrees>
            </Position>
            <AltitudeMeters>583.5999755859375</AltitudeMeters>
            <DistanceMeters>NAN</DistanceMeters>
          </Trackpoint>
          <Trackpoint>
            <Time>2022-09-20T14:27:32.000Z</Time>
            <Position>
              <LatitudeDegrees>49.414324276149272918701171875</LatitudeDegrees>
              <LongitudeDegrees>20.3439674712717533111572265625</LongitudeDegrees>
            </Position>
            <AltitudeMeters>583.79998779296875</AltitudeMeters>
            <DistanceMeters>NAN</DistanceMeters>
          </Trackpoint>
          <Trackpoint>
            <Time>2022-09-20T14:27:39.000Z</Time>
            <Position>
              <LatitudeDegrees>49.4143385253846645355224609375</LatitudeDegrees>
              <LongitudeDegrees>20.34396923147141933441162109375</LongitudeDegrees>
            </Position>
            <AltitudeMeters>583.79998779296875</AltitudeMeters>
            <DistanceMeters>NAN</DistanceMeters>
          </Trackpoint>
          <Trackpoint>
            <Time>2022-09-20T14:27:41.000Z</Time>
            <Position>
              <LatitudeDegrees>49.4143599830567836761474609375</LatitudeDegrees>
              <LongitudeDegrees>20.34396328032016754150390625</LongitudeDegrees>
            </Position>
            <AltitudeMeters>584</AltitudeMeters>
            <DistanceMeters>NAN</DistanceMeters>
          </Trackpoint>
          <Trackpoint>
            <Time>2022-09-20T14:27:47.000Z</Time>
            <Position>
              <LatitudeDegrees>49.41442125476896762847900390625</LatitudeDegrees>
              <LongitudeDegrees>20.343943499028682708740234375</LongitudeDegrees>
            </Position>
            <AltitudeMeters>584.20001220703125</AltitudeMeters>
            <DistanceMeters>NAN</DistanceMeters>
          </Trackpoint>
          <Trackpoint>
            <Time>2022-09-20T14:27:48.000Z</Time>
            <Position>
              <LatitudeDegrees>49.41442913375794887542724609375</LatitudeDegrees>
              <LongitudeDegrees>20.34394676797091960906982421875</LongitudeDegrees>
            </Position>
            <AltitudeMeters>584.20001220703125</AltitudeMeters>
            <DistanceMeters>NAN</DistanceMeters>
          </Trackpoint>
          <Trackpoint>
            <Time>2022-09-20T14:27:55.000Z</Time>
            <Position>
              <LatitudeDegrees>49.41449048928916454315185546875</LatitudeDegrees>
              <LongitudeDegrees>20.34395883791148662567138671875</LongitudeDegrees>
            </Position>
            <AltitudeMeters>584.5999755859375</AltitudeMeters>
            <DistanceMeters>NAN</DistanceMeters>
          </Trackpoint>
          <Trackpoint>
            <Time>2022-09-20T14:28:04.000Z</Time>
            <Position>
              <LatitudeDegrees>49.4145614840090274810791015625</LatitudeDegrees>
              <LongitudeDegrees>20.34400309436023235321044921875</LongitudeDegrees>
            </Position>
            <AltitudeMeters>585</AltitudeMeters>
            <DistanceMeters>NAN</DistanceMeters>
          </Trackpoint>
          <Trackpoint>
            <Time>2022-09-20T14:28:09.000Z</Time>
            <Position>
              <LatitudeDegrees>49.41459610126912593841552734375</LatitudeDegrees>
              <LongitudeDegrees>20.34401424229145050048828125</LongitudeDegrees>
            </Position>
            <AltitudeMeters>585.4000244140625</AltitudeMeters>
            <DistanceMeters>NAN</DistanceMeters>
          </Trackpoint>
          <Trackpoint>
            <Time>2022-09-20T14:28:12.000Z</Time>
            <Position>
              <LatitudeDegrees>49.4146250188350677490234375</LatitudeDegrees>
              <LongitudeDegrees>20.3440556488931179046630859375</LongitudeDegrees>
            </Position>
            <AltitudeMeters>585.5999755859375</AltitudeMeters>
            <DistanceMeters>NAN</DistanceMeters>
          </Trackpoint>
          <Trackpoint>
            <Time>2022-09-20T14:28:19.000Z</Time>
            <Position>
              <LatitudeDegrees>49.41468067467212677001953125</LatitudeDegrees>
              <LongitudeDegrees>20.3440583311021327972412109375</LongitudeDegrees>
            </Position>
            <AltitudeMeters>586</AltitudeMeters>
            <DistanceMeters>NAN</DistanceMeters>
          </Trackpoint>
          <Trackpoint>
            <Time>2022-09-20T14:28:22.000Z</Time>
            <Position>
              <LatitudeDegrees>49.4147022999823093414306640625</LatitudeDegrees>
              <LongitudeDegrees>20.344067551195621490478515625</LongitudeDegrees>
            </Position>
            <AltitudeMeters>586</AltitudeMeters>
            <DistanceMeters>NAN</DistanceMeters>
          </Trackpoint>
          <Trackpoint>
            <Time>2022-09-20T14:28:27.000Z</Time>
            <Position>
              <LatitudeDegrees>49.41469953395426273345947265625</LatitudeDegrees>
              <LongitudeDegrees>20.34407249651849269866943359375</LongitudeDegrees>
            </Position>
            <AltitudeMeters>586.4000244140625</AltitudeMeters>
            <DistanceMeters>NAN</DistanceMeters>
          </Trackpoint>
          <Trackpoint>
            <Time>2022-09-20T14:28:34.000Z</Time>
            <Position>
              <LatitudeDegrees>49.4147475622594356536865234375</LatitudeDegrees>
              <LongitudeDegrees>20.34404986537992954254150390625</LongitudeDegrees>
            </Position>
            <AltitudeMeters>586.4000244140625</AltitudeMeters>
            <DistanceMeters>NAN</DistanceMeters>
          </Trackpoint>
          <Trackpoint>
            <Time>2022-09-20T14:28:41.000Z</Time>
            <Position>
              <LatitudeDegrees>49.414821155369281768798828125</LatitudeDegrees>
              <LongitudeDegrees>20.34399789758026599884033203125</LongitudeDegrees>
            </Position>
            <AltitudeMeters>586.79998779296875</AltitudeMeters>
            <DistanceMeters>NAN</DistanceMeters>
          </Trackpoint>
          <Trackpoint>
            <Time>2022-09-20T14:28:49.000Z</Time>
            <Position>
              <LatitudeDegrees>49.414884857833385467529296875</LatitudeDegrees>
              <LongitudeDegrees>20.34397006966173648834228515625</LongitudeDegrees>
            </Position>
            <AltitudeMeters>587.4000244140625</AltitudeMeters>
            <DistanceMeters>NAN</DistanceMeters>
          </Trackpoint>
          <Trackpoint>
            <Time>2022-09-20T14:28:57.000Z</Time>
            <Position>
              <LatitudeDegrees>49.4149440340697765350341796875</LatitudeDegrees>
              <LongitudeDegrees>20.3440066985785961151123046875</LongitudeDegrees>
            </Position>
            <AltitudeMeters>587.79998779296875</AltitudeMeters>
            <DistanceMeters>NAN</DistanceMeters>
          </Trackpoint>
          <Trackpoint>
            <Time>2022-09-20T14:29:03.000Z</Time>
            <Position>
              <LatitudeDegrees>49.4149710237979888916015625</LatitudeDegrees>
              <LongitudeDegrees>20.3440160863101482391357421875</LongitudeDegrees>
            </Position>
            <AltitudeMeters>588.20001220703125</AltitudeMeters>
            <DistanceMeters>NAN</DistanceMeters>
          </Trackpoint>
          <Trackpoint>
            <Time>2022-09-20T14:29:04.000Z</Time>
            <Position>
              <LatitudeDegrees>49.41497965715825557708740234375</LatitudeDegrees>
              <LongitudeDegrees>20.34401399083435535430908203125</LongitudeDegrees>
            </Position>
            <AltitudeMeters>588.20001220703125</AltitudeMeters>
            <DistanceMeters>NAN</DistanceMeters>
          </Trackpoint>
          <Trackpoint>
            <Time>2022-09-20T14:29:07.000Z</Time>
            <Position>
              <LatitudeDegrees>49.41500983200967311859130859375</LatitudeDegrees>
              <LongitudeDegrees>20.34401197917759418487548828125</LongitudeDegrees>
            </Position>
            <AltitudeMeters>588.4000244140625</AltitudeMeters>
            <DistanceMeters>NAN</DistanceMeters>
          </Trackpoint>
          <Trackpoint>
            <Time>2022-09-20T14:29:08.000Z</Time>
            <Position>
              <LatitudeDegrees>49.4150164537131786346435546875</LatitudeDegrees>
              <LongitudeDegrees>20.34401415847241878509521484375</LongitudeDegrees>
            </Position>
            <AltitudeMeters>588.5999755859375</AltitudeMeters>
            <DistanceMeters>NAN</DistanceMeters>
          </Trackpoint>
          <Trackpoint>
            <Time>2022-09-20T14:29:11.000Z</Time>
            <Position>
              <LatitudeDegrees>49.4150439463555812835693359375</LatitudeDegrees>
              <LongitudeDegrees>20.34400728531181812286376953125</LongitudeDegrees>
            </Position>
            <AltitudeMeters>588.79998779296875</AltitudeMeters>
            <DistanceMeters>NAN</DistanceMeters>
          </Trackpoint>
          <Trackpoint>
            <Time>2022-09-20T14:29:13.000Z</Time>
            <Position>
              <LatitudeDegrees>49.41506163217127323150634765625</LatitudeDegrees>
              <LongitudeDegrees>20.3439963050186634063720703125</LongitudeDegrees>
            </Position>
            <AltitudeMeters>588.79998779296875</AltitudeMeters>
            <DistanceMeters>NAN</DistanceMeters>
          </Trackpoint>
          <Trackpoint>
            <Time>2022-09-20T14:29:18.000Z</Time>
            <Position>
              <LatitudeDegrees>49.41510287113487720489501953125</LatitudeDegrees>
              <LongitudeDegrees>20.34396621398627758026123046875</LongitudeDegrees>
            </Position>
            <AltitudeMeters>589</AltitudeMeters>
            <DistanceMeters>NAN</DistanceMeters>
          </Trackpoint>
          <Trackpoint>
            <Time>2022-09-20T14:29:21.000Z</Time>
            <Position>
              <LatitudeDegrees>49.415127597749233245849609375</LatitudeDegrees>
              <LongitudeDegrees>20.34392849542200565338134765625</LongitudeDegrees>
            </Position>
            <AltitudeMeters>589.4000244140625</AltitudeMeters>
            <DistanceMeters>NAN</DistanceMeters>
          </Trackpoint>
          <Trackpoint>
            <Time>2022-09-20T14:29:22.000Z</Time>
            <Position>
              <LatitudeDegrees>49.4151346385478973388671875</LatitudeDegrees>
              <LongitudeDegrees>20.3439218737185001373291015625</LongitudeDegrees>
            </Position>
            <AltitudeMeters>589.5999755859375</AltitudeMeters>
            <DistanceMeters>NAN</DistanceMeters>
          </Trackpoint>
          <Trackpoint>
            <Time>2022-09-20T14:29:24.000Z</Time>
            <Position>
              <LatitudeDegrees>49.41514947451651096343994140625</LatitudeDegrees>
              <LongitudeDegrees>20.34387887455523014068603515625</LongitudeDegrees>
            </Position>
            <AltitudeMeters>589.79998779296875</AltitudeMeters>
            <DistanceMeters>NAN</DistanceMeters>
          </Trackpoint>
          <Trackpoint>
            <Time>2022-09-20T14:29:25.000Z</Time>
            <Position>
              <LatitudeDegrees>49.41514947451651096343994140625</LatitudeDegrees>
              <LongitudeDegrees>20.34387887455523014068603515625</LongitudeDegrees>
            </Position>
            <AltitudeMeters>589.79998779296875</AltitudeMeters>
            <DistanceMeters>NAN</DistanceMeters>
          </Trackpoint>
          <Trackpoint>
            <Time>2022-09-20T14:29:30.000Z</Time>
            <Position>
              <LatitudeDegrees>49.41519591026008129119873046875</LatitudeDegrees>
              <LongitudeDegrees>20.34379790537059307098388671875</LongitudeDegrees>
            </Position>
            <AltitudeMeters>590.20001220703125</AltitudeMeters>
            <DistanceMeters>NAN</DistanceMeters>
          </Trackpoint>
          <Trackpoint>
            <Time>2022-09-20T14:29:33.000Z</Time>
            <Position>
              <LatitudeDegrees>49.4152159430086612701416015625</LatitudeDegrees>
              <LongitudeDegrees>20.34381399862468242645263671875</LongitudeDegrees>
            </Position>
            <AltitudeMeters>590.4000244140625</AltitudeMeters>
            <DistanceMeters>NAN</DistanceMeters>
          </Trackpoint>
          <Trackpoint>
            <Time>2022-09-20T14:29:34.000Z</Time>
            <Position>
              <LatitudeDegrees>49.41522407345473766326904296875</LatitudeDegrees>
              <LongitudeDegrees>20.3438108973205089569091796875</LongitudeDegrees>
            </Position>
            <AltitudeMeters>590.4000244140625</AltitudeMeters>
            <DistanceMeters>NAN</DistanceMeters>
          </Trackpoint>
          <Trackpoint>
            <Time>2022-09-20T14:29:38.000Z</Time>
            <Position>
              <LatitudeDegrees>49.41524921916425228118896484375</LatitudeDegrees>
              <LongitudeDegrees>20.343773849308490753173828125</LongitudeDegrees>
            </Position>
            <AltitudeMeters>590.4000244140625</AltitudeMeters>
            <DistanceMeters>NAN</DistanceMeters>
          </Trackpoint>
          <Trackpoint>
            <Time>2022-09-20T14:29:39.000Z</Time>
            <Position>
              <LatitudeDegrees>49.4152565114200115203857421875</LatitudeDegrees>
              <LongitudeDegrees>20.343761444091796875</LongitudeDegrees>
            </Position>
            <AltitudeMeters>590.5999755859375</AltitudeMeters>
            <DistanceMeters>NAN</DistanceMeters>
          </Trackpoint>
          <Trackpoint>
            <Time>2022-09-20T14:29:44.000Z</Time>
            <Position>
              <LatitudeDegrees>49.41529045812785625457763671875</LatitudeDegrees>
              <LongitudeDegrees>20.34371878020465373992919921875</LongitudeDegrees>
            </Position>
            <AltitudeMeters>591</AltitudeMeters>
            <DistanceMeters>NAN</DistanceMeters>
          </Trackpoint>
          <Trackpoint>
            <Time>2022-09-20T14:29:47.000Z</Time>
            <Position>
              <LatitudeDegrees>49.415312670171260833740234375</LatitudeDegrees>
              <LongitudeDegrees>20.3436942212283611297607421875</LongitudeDegrees>
            </Position>
            <AltitudeMeters>591.20001220703125</AltitudeMeters>
            <DistanceMeters>NAN</DistanceMeters>
          </Trackpoint>
          <Trackpoint>
            <Time>2022-09-20T14:29:51.000Z</Time>
            <Position>
              <LatitudeDegrees>49.4153366424143314361572265625</LatitudeDegrees>
              <LongitudeDegrees>20.34368676133453845977783203125</LongitudeDegrees>
            </Position>
            <AltitudeMeters>591.4000244140625</AltitudeMeters>
            <DistanceMeters>NAN</DistanceMeters>
          </Trackpoint>
          <Trackpoint>
            <Time>2022-09-20T14:29:54.000Z</Time>
            <Position>
              <LatitudeDegrees>49.41535281948745250701904296875</LatitudeDegrees>
              <LongitudeDegrees>20.3436528146266937255859375</LongitudeDegrees>
            </Position>
            <AltitudeMeters>591.5999755859375</AltitudeMeters>
            <DistanceMeters>NAN</DistanceMeters>
          </Trackpoint>
          <Trackpoint>
            <Time>2022-09-20T14:29:57.000Z</Time>
            <Position>
              <LatitudeDegrees>49.41537712700664997100830078125</LatitudeDegrees>
              <LongitudeDegrees>20.34364418126642704010009765625</LongitudeDegrees>
            </Position>
            <AltitudeMeters>591.79998779296875</AltitudeMeters>
            <DistanceMeters>NAN</DistanceMeters>
          </Trackpoint>
          <Trackpoint>
            <Time>2022-09-20T14:30:03.000Z</Time>
            <Position>
              <LatitudeDegrees>49.4154047034680843353271484375</LatitudeDegrees>
              <LongitudeDegrees>20.3436177782714366912841796875</LongitudeDegrees>
            </Position>
            <AltitudeMeters>592.20001220703125</AltitudeMeters>
            <DistanceMeters>NAN</DistanceMeters>
          </Trackpoint>
          <Trackpoint>
            <Time>2022-09-20T14:30:10.000Z</Time>
            <Position>
              <LatitudeDegrees>49.41544049419462680816650390625</LatitudeDegrees>
              <LongitudeDegrees>20.34355516545474529266357421875</LongitudeDegrees>
            </Position>
            <AltitudeMeters>592.20001220703125</AltitudeMeters>
            <DistanceMeters>NAN</DistanceMeters>
          </Trackpoint>
          <Trackpoint>
            <Time>2022-09-20T14:30:16.000Z</Time>
            <Position>
              <LatitudeDegrees>49.41548391245305538177490234375</LatitudeDegrees>
              <LongitudeDegrees>20.34352800808846950531005859375</LongitudeDegrees>
            </Position>
            <AltitudeMeters>592.79998779296875</AltitudeMeters>
            <DistanceMeters>NAN</DistanceMeters>
          </Trackpoint>
          <Trackpoint>
            <Time>2022-09-20T14:30:19.000Z</Time>
            <Position>
              <LatitudeDegrees>49.41550754941999912261962890625</LatitudeDegrees>
              <LongitudeDegrees>20.3434954024851322174072265625</LongitudeDegrees>
            </Position>
            <AltitudeMeters>593</AltitudeMeters>
            <DistanceMeters>NAN</DistanceMeters>
          </Trackpoint>
          <Trackpoint>
            <Time>2022-09-20T14:30:23.000Z</Time>
            <Position>
              <LatitudeDegrees>49.41554023884236812591552734375</LatitudeDegrees>
              <LongitudeDegrees>20.3434434346854686737060546875</LongitudeDegrees>
            </Position>
            <AltitudeMeters>593.20001220703125</AltitudeMeters>
            <DistanceMeters>NAN</DistanceMeters>
          </Trackpoint>
          <Trackpoint>
            <Time>2022-09-20T14:30:26.000Z</Time>
            <Position>
              <LatitudeDegrees>49.4155653007328510284423828125</LatitudeDegrees>
              <LongitudeDegrees>20.34340613521635532379150390625</LongitudeDegrees>
            </Position>
            <AltitudeMeters>593.20001220703125</AltitudeMeters>
            <DistanceMeters>NAN</DistanceMeters>
          </Trackpoint>
          <Trackpoint>
            <Time>2022-09-20T14:30:35.000Z</Time>
            <Position>
              <LatitudeDegrees>49.41563746891915798187255859375</LatitudeDegrees>
              <LongitudeDegrees>20.3433579392731189727783203125</LongitudeDegrees>
            </Position>
            <AltitudeMeters>593.5999755859375</AltitudeMeters>
            <DistanceMeters>NAN</DistanceMeters>
          </Trackpoint>
          <Trackpoint>
            <Time>2022-09-20T14:30:37.000Z</Time>
            <Position>
              <LatitudeDegrees>49.415651299059391021728515625</LatitudeDegrees>
              <LongitudeDegrees>20.34332902170717716217041015625</LongitudeDegrees>
            </Position>
            <AltitudeMeters>593.79998779296875</AltitudeMeters>
            <DistanceMeters>NAN</DistanceMeters>
          </Trackpoint>
          <Trackpoint>
            <Time>2022-09-20T14:30:43.000Z</Time>
            <Position>
              <LatitudeDegrees>49.41569429822266101837158203125</LatitudeDegrees>
              <LongitudeDegrees>20.3432607091963291168212890625</LongitudeDegrees>
            </Position>
            <AltitudeMeters>594.20001220703125</AltitudeMeters>
            <DistanceMeters>NAN</DistanceMeters>
          </Trackpoint>
          <Trackpoint>
            <Time>2022-09-20T14:30:47.000Z</Time>
            <Position>
              <LatitudeDegrees>49.41572514362633228302001953125</LatitudeDegrees>
              <LongitudeDegrees>20.343216955661773681640625</LongitudeDegrees>
            </Position>
            <AltitudeMeters>594.5999755859375</AltitudeMeters>
            <DistanceMeters>NAN</DistanceMeters>
          </Trackpoint>
          <Trackpoint>
            <Time>2022-09-20T14:30:51.000Z</Time>
            <Position>
              <LatitudeDegrees>49.4157567434012889862060546875</LatitudeDegrees>
              <LongitudeDegrees>20.343187786638736724853515625</LongitudeDegrees>
            </Position>
            <AltitudeMeters>594.5999755859375</AltitudeMeters>
            <DistanceMeters>NAN</DistanceMeters>
          </Trackpoint>
          <Trackpoint>
            <Time>2022-09-20T14:30:54.000Z</Time>
            <Position>
              <LatitudeDegrees>49.415778703987598419189453125</LatitudeDegrees>
              <LongitudeDegrees>20.34315568394958972930908203125</LongitudeDegrees>
            </Position>
            <AltitudeMeters>594.79998779296875</AltitudeMeters>
            <DistanceMeters>NAN</DistanceMeters>
          </Trackpoint>
          <Trackpoint>
            <Time>2022-09-20T14:30:58.000Z</Time>
            <Position>
              <LatitudeDegrees>49.415817596018314361572265625</LatitudeDegrees>
              <LongitudeDegrees>20.3431272692978382110595703125</LongitudeDegrees>
            </Position>
            <AltitudeMeters>594.79998779296875</AltitudeMeters>
            <DistanceMeters>NAN</DistanceMeters>
          </Trackpoint>
          <Trackpoint>
            <Time>2022-09-20T14:30:59.000Z</Time>
            <Position>
              <LatitudeDegrees>49.41582622937858104705810546875</LatitudeDegrees>
              <LongitudeDegrees>20.3431185521185398101806640625</LongitudeDegrees>
            </Position>
            <AltitudeMeters>594.79998779296875</AltitudeMeters>
            <DistanceMeters>NAN</DistanceMeters>
          </Trackpoint>
          <Trackpoint>
            <Time>2022-09-20T14:31:05.000Z</Time>
            <Position>
              <LatitudeDegrees>49.41587165929377079010009765625</LatitudeDegrees>
              <LongitudeDegrees>20.3430491499602794647216796875</LongitudeDegrees>
            </Position>
            <AltitudeMeters>595.20001220703125</AltitudeMeters>
            <DistanceMeters>NAN</DistanceMeters>
          </Trackpoint>
          <Trackpoint>
            <Time>2022-09-20T14:31:06.000Z</Time>
            <Position>
              <LatitudeDegrees>49.4158831425011157989501953125</LatitudeDegrees>
              <LongitudeDegrees>20.34304236061871051788330078125</LongitudeDegrees>
            </Position>
            <AltitudeMeters>595.20001220703125</AltitudeMeters>
            <DistanceMeters>NAN</DistanceMeters>
          </Trackpoint>
          <Trackpoint>
            <Time>2022-09-20T14:31:10.000Z</Time>
            <Position>
              <LatitudeDegrees>49.41591088660061359405517578125</LatitudeDegrees>
              <LongitudeDegrees>20.34300816245377063751220703125</LongitudeDegrees>
            </Position>
            <AltitudeMeters>595.20001220703125</AltitudeMeters>
            <DistanceMeters>NAN</DistanceMeters>
          </Trackpoint>
          <Trackpoint>
            <Time>2022-09-20T14:31:11.000Z</Time>
            <Position>
              <LatitudeDegrees>49.4159178435802459716796875</LatitudeDegrees>
              <LongitudeDegrees>20.34300480969250202178955078125</LongitudeDegrees>
            </Position>
            <AltitudeMeters>595.20001220703125</AltitudeMeters>
            <DistanceMeters>NAN</DistanceMeters>
          </Trackpoint>
          <Trackpoint>
            <Time>2022-09-20T14:31:16.000Z</Time>
            <Position>
              <LatitudeDegrees>49.41596101038157939910888671875</LatitudeDegrees>
              <LongitudeDegrees>20.34297832287847995758056640625</LongitudeDegrees>
            </Position>
            <AltitudeMeters>595.4000244140625</AltitudeMeters>
            <DistanceMeters>NAN</DistanceMeters>
          </Trackpoint>
          <Trackpoint>
            <Time>2022-09-20T14:31:18.000Z</Time>
            <Position>
              <LatitudeDegrees>49.41598079167306423187255859375</LatitudeDegrees>
              <LongitudeDegrees>20.34296692349016666412353515625</LongitudeDegrees>
            </Position>
            <AltitudeMeters>595.4000244140625</AltitudeMeters>
            <DistanceMeters>NAN</DistanceMeters>
          </Trackpoint>
          <Trackpoint>
            <Time>2022-09-20T14:31:22.000Z</Time>
            <Position>
              <LatitudeDegrees>49.4160117208957672119140625</LatitudeDegrees>
              <LongitudeDegrees>20.342922918498516082763671875</LongitudeDegrees>
            </Position>
            <AltitudeMeters>595.5999755859375</AltitudeMeters>
            <DistanceMeters>NAN</DistanceMeters>
          </Trackpoint>
          <Trackpoint>
            <Time>2022-09-20T14:31:29.000Z</Time>
            <Position>
              <LatitudeDegrees>49.416077770292758941650390625</LatitudeDegrees>
              <LongitudeDegrees>20.3428764827549457550048828125</LongitudeDegrees>
            </Position>
            <AltitudeMeters>595.5999755859375</AltitudeMeters>
            <DistanceMeters>NAN</DistanceMeters>
          </Trackpoint>
          <Trackpoint>
            <Time>2022-09-20T14:31:31.000Z</Time>
            <Position>
              <LatitudeDegrees>49.41609285771846771240234375</LatitudeDegrees>
              <LongitudeDegrees>20.342869274318218231201171875</LongitudeDegrees>
            </Position>
            <AltitudeMeters>595.5999755859375</AltitudeMeters>
            <DistanceMeters>NAN</DistanceMeters>
          </Trackpoint>
          <Trackpoint>
            <Time>2022-09-20T14:31:32.000Z</Time>
            <Position>
              <LatitudeDegrees>49.416104592382907867431640625</LatitudeDegrees>
              <LongitudeDegrees>20.3428664244711399078369140625</LongitudeDegrees>
            </Position>
            <AltitudeMeters>595.79998779296875</AltitudeMeters>
            <DistanceMeters>NAN</DistanceMeters>
          </Trackpoint>
          <Trackpoint>
            <Time>2022-09-20T14:31:35.000Z</Time>
            <Position>
              <LatitudeDegrees>49.4161389581859111785888671875</LatitudeDegrees>
              <LongitudeDegrees>20.3428553603589534759521484375</LongitudeDegrees>
            </Position>
            <AltitudeMeters>595.79998779296875</AltitudeMeters>
            <DistanceMeters>NAN</DistanceMeters>
          </Trackpoint>
          <Trackpoint>
            <Time>2022-09-20T14:31:38.000Z</Time>
            <Position>
              <LatitudeDegrees>49.41616837866604328155517578125</LatitudeDegrees>
              <LongitudeDegrees>20.3428494930267333984375</LongitudeDegrees>
            </Position>
            <AltitudeMeters>596</AltitudeMeters>
            <DistanceMeters>NAN</DistanceMeters>
          </Trackpoint>
          <Trackpoint>
            <Time>2022-09-20T14:31:39.000Z</Time>
            <Position>
              <LatitudeDegrees>49.41617759875953197479248046875</LatitudeDegrees>
              <LongitudeDegrees>20.34284790046513080596923828125</LongitudeDegrees>
            </Position>
            <AltitudeMeters>596</AltitudeMeters>
            <DistanceMeters>NAN</DistanceMeters>
          </Trackpoint>
          <Trackpoint>
            <Time>2022-09-20T14:31:45.000Z</Time>
            <Position>
              <LatitudeDegrees>49.4162086956202983856201171875</LatitudeDegrees>
              <LongitudeDegrees>20.34284236840903759002685546875</LongitudeDegrees>
            </Position>
            <AltitudeMeters>596.20001220703125</AltitudeMeters>
            <DistanceMeters>NAN</DistanceMeters>
          </Trackpoint>
          <Trackpoint>
            <Time>2022-09-20T14:31:54.000Z</Time>
            <Position>
              <LatitudeDegrees>49.4162489287555217742919921875</LatitudeDegrees>
              <LongitudeDegrees>20.34283700399100780487060546875</LongitudeDegrees>
            </Position>
            <AltitudeMeters>596.4000244140625</AltitudeMeters>
            <DistanceMeters>NAN</DistanceMeters>
          </Trackpoint>
          <Trackpoint>
            <Time>2022-09-20T14:31:55.000Z</Time>
            <Position>
              <LatitudeDegrees>49.41625873558223247528076171875</LatitudeDegrees>
              <LongitudeDegrees>20.34283432178199291229248046875</LongitudeDegrees>
            </Position>
            <AltitudeMeters>596.20001220703125</AltitudeMeters>
            <DistanceMeters>NAN</DistanceMeters>
          </Trackpoint>
          <Trackpoint>
            <Time>2022-09-20T14:32:00.000Z</Time>
            <Position>
              <LatitudeDegrees>49.41631271503865718841552734375</LatitudeDegrees>
              <LongitudeDegrees>20.342841781675815582275390625</LongitudeDegrees>
            </Position>
            <AltitudeMeters>596.20001220703125</AltitudeMeters>
            <DistanceMeters>NAN</DistanceMeters>
          </Trackpoint>
          <Trackpoint>
            <Time>2022-09-20T14:32:07.000Z</Time>
            <Position>
              <LatitudeDegrees>49.416317827999591827392578125</LatitudeDegrees>
              <LongitudeDegrees>20.34284211695194244384765625</LongitudeDegrees>
            </Position>
            <AltitudeMeters>596.4000244140625</AltitudeMeters>
            <DistanceMeters>NAN</DistanceMeters>
          </Trackpoint>
          <Trackpoint>
            <Time>2022-09-20T14:32:18.000Z</Time>
            <Position>
              <LatitudeDegrees>49.416317827999591827392578125</LatitudeDegrees>
              <LongitudeDegrees>20.34284211695194244384765625</LongitudeDegrees>
            </Position>
            <AltitudeMeters>596.4000244140625</AltitudeMeters>
            <DistanceMeters>NAN</DistanceMeters>
          </Trackpoint>
          <Trackpoint>
            <Time>2022-09-20T14:32:23.000Z</Time>
            <Position>
              <LatitudeDegrees>49.41631958819925785064697265625</LatitudeDegrees>
              <LongitudeDegrees>20.34284220077097415924072265625</LongitudeDegrees>
            </Position>
            <AltitudeMeters>596.4000244140625</AltitudeMeters>
            <DistanceMeters>NAN</DistanceMeters>
          </Trackpoint>
          <Trackpoint>
            <Time>2022-09-20T14:32:27.000Z</Time>
            <Position>
              <LatitudeDegrees>49.41636837087571620941162109375</LatitudeDegrees>
              <LongitudeDegrees>20.34285276196897029876708984375</LongitudeDegrees>
            </Position>
            <AltitudeMeters>596.4000244140625</AltitudeMeters>
            <DistanceMeters>NAN</DistanceMeters>
          </Trackpoint>
          <Trackpoint>
            <Time>2022-09-20T14:32:28.000Z</Time>
            <Position>
              <LatitudeDegrees>49.4163816981017589569091796875</LatitudeDegrees>
              <LongitudeDegrees>20.34285242669284343719482421875</LongitudeDegrees>
            </Position>
            <AltitudeMeters>596.4000244140625</AltitudeMeters>
            <DistanceMeters>NAN</DistanceMeters>
          </Trackpoint>
          <Trackpoint>
            <Time>2022-09-20T14:32:30.000Z</Time>
            <Position>
              <LatitudeDegrees>49.416406340897083282470703125</LatitudeDegrees>
              <LongitudeDegrees>20.34284806810319423675537109375</LongitudeDegrees>
            </Position>
            <AltitudeMeters>596.5999755859375</AltitudeMeters>
            <DistanceMeters>NAN</DistanceMeters>
          </Trackpoint>
          <Trackpoint>
            <Time>2022-09-20T14:32:33.000Z</Time>
            <Position>
              <LatitudeDegrees>49.41644263453781604766845703125</LatitudeDegrees>
              <LongitudeDegrees>20.3428647480905055999755859375</LongitudeDegrees>
            </Position>
            <AltitudeMeters>596.5999755859375</AltitudeMeters>
            <DistanceMeters>NAN</DistanceMeters>
          </Trackpoint>
          <Trackpoint>
            <Time>2022-09-20T14:32:34.000Z</Time>
            <Position>
              <LatitudeDegrees>49.4164541177451610565185546875</LatitudeDegrees>
              <LongitudeDegrees>20.34287740476429462432861328125</LongitudeDegrees>
            </Position>
            <AltitudeMeters>596.79998779296875</AltitudeMeters>
            <DistanceMeters>NAN</DistanceMeters>
          </Trackpoint>
          <Trackpoint>
            <Time>2022-09-20T14:32:35.000Z</Time>
            <Position>
              <LatitudeDegrees>49.41646627150475978851318359375</LatitudeDegrees>
              <LongitudeDegrees>20.34289718605577945709228515625</LongitudeDegrees>
            </Position>
            <AltitudeMeters>596.79998779296875</AltitudeMeters>
            <DistanceMeters>NAN</DistanceMeters>
          </Trackpoint>
          <Trackpoint>
            <Time>2022-09-20T14:32:39.000Z</Time>
            <Position>
              <LatitudeDegrees>49.41651790402829647064208984375</LatitudeDegrees>
              <LongitudeDegrees>20.34293624572455883026123046875</LongitudeDegrees>
            </Position>
            <AltitudeMeters>596.79998779296875</AltitudeMeters>
            <DistanceMeters>NAN</DistanceMeters>
          </Trackpoint>
          <Trackpoint>
            <Time>2022-09-20T14:32:43.000Z</Time>
            <Position>
              <LatitudeDegrees>49.416543804109096527099609375</LatitudeDegrees>
              <LongitudeDegrees>20.3429361619055271148681640625</LongitudeDegrees>
            </Position>
            <AltitudeMeters>597.20001220703125</AltitudeMeters>
            <DistanceMeters>NAN</DistanceMeters>
          </Trackpoint>
          <Trackpoint>
            <Time>2022-09-20T14:32:47.000Z</Time>
            <Position>
              <LatitudeDegrees>49.4165801815688610076904296875</LatitudeDegrees>
              <LongitudeDegrees>20.34294328652322292327880859375</LongitudeDegrees>
            </Position>
            <AltitudeMeters>597.20001220703125</AltitudeMeters>
            <DistanceMeters>NAN</DistanceMeters>
          </Trackpoint>
          <Trackpoint>
            <Time>2022-09-20T14:32:52.000Z</Time>
            <Position>
              <LatitudeDegrees>49.41661580465734004974365234375</LatitudeDegrees>
              <LongitudeDegrees>20.3429891355335712432861328125</LongitudeDegrees>
            </Position>
            <AltitudeMeters>597.4000244140625</AltitudeMeters>
            <DistanceMeters>NAN</DistanceMeters>
          </Trackpoint>
          <Trackpoint>
            <Time>2022-09-20T14:32:55.000Z</Time>
            <Position>
              <LatitudeDegrees>49.41664673388004302978515625</LatitudeDegrees>
              <LongitudeDegrees>20.343002714216709136962890625</LongitudeDegrees>
            </Position>
            <AltitudeMeters>597.5999755859375</AltitudeMeters>
            <DistanceMeters>NAN</DistanceMeters>
          </Trackpoint>
          <Trackpoint>
            <Time>2022-09-20T14:32:56.000Z</Time>
            <Position>
              <LatitudeDegrees>49.41665922291576862335205078125</LatitudeDegrees>
              <LongitudeDegrees>20.3430095873773097991943359375</LongitudeDegrees>
            </Position>
            <AltitudeMeters>597.5999755859375</AltitudeMeters>
            <DistanceMeters>NAN</DistanceMeters>
          </Trackpoint>
          <Trackpoint>
            <Time>2022-09-20T14:33:00.000Z</Time>
            <Position>
              <LatitudeDegrees>49.41670297645032405853271484375</LatitudeDegrees>
              <LongitudeDegrees>20.34303112886846065521240234375</LongitudeDegrees>
            </Position>
            <AltitudeMeters>597.79998779296875</AltitudeMeters>
            <DistanceMeters>NAN</DistanceMeters>
          </Trackpoint>
          <Trackpoint>
            <Time>2022-09-20T14:33:02.000Z</Time>
            <Position>
              <LatitudeDegrees>49.416717477142810821533203125</LatitudeDegrees>
              <LongitudeDegrees>20.34305241890251636505126953125</LongitudeDegrees>
            </Position>
            <AltitudeMeters>597.79998779296875</AltitudeMeters>
            <DistanceMeters>NAN</DistanceMeters>
          </Trackpoint>
          <Trackpoint>
            <Time>2022-09-20T14:33:04.000Z</Time>
            <Position>
              <LatitudeDegrees>49.4167411141097545623779296875</LatitudeDegrees>
              <LongitudeDegrees>20.34306767396628856658935546875</LongitudeDegrees>
            </Position>
            <AltitudeMeters>598</AltitudeMeters>
            <DistanceMeters>NAN</DistanceMeters>
          </Trackpoint>
          <Trackpoint>
            <Time>2022-09-20T14:33:07.000Z</Time>
            <Position>
              <LatitudeDegrees>49.4167608954012393951416015625</LatitudeDegrees>
              <LongitudeDegrees>20.34307010471820831298828125</LongitudeDegrees>
            </Position>
            <AltitudeMeters>598.20001220703125</AltitudeMeters>
            <DistanceMeters>NAN</DistanceMeters>
          </Trackpoint>
          <Trackpoint>
            <Time>2022-09-20T14:33:10.000Z</Time>
            <Position>
              <LatitudeDegrees>49.41679182462394237518310546875</LatitudeDegrees>
              <LongitudeDegrees>20.34307337366044521331787109375</LongitudeDegrees>
            </Position>
            <AltitudeMeters>598.4000244140625</AltitudeMeters>
            <DistanceMeters>NAN</DistanceMeters>
          </Trackpoint>
          <Trackpoint>
            <Time>2022-09-20T14:33:13.000Z</Time>
            <Position>
              <LatitudeDegrees>49.41681261174380779266357421875</LatitudeDegrees>
              <LongitudeDegrees>20.34311243332922458648681640625</LongitudeDegrees>
            </Position>
            <AltitudeMeters>598.79998779296875</AltitudeMeters>
            <DistanceMeters>NAN</DistanceMeters>
          </Trackpoint>
          <Trackpoint>
            <Time>2022-09-20T14:33:15.000Z</Time>
            <Position>
              <LatitudeDegrees>49.41683624871075153350830078125</LatitudeDegrees>
              <LongitudeDegrees>20.34317764453589916229248046875</LongitudeDegrees>
            </Position>
            <AltitudeMeters>599</AltitudeMeters>
            <DistanceMeters>NAN</DistanceMeters>
          </Trackpoint>
          <Trackpoint>
            <Time>2022-09-20T14:33:18.000Z</Time>
            <Position>
              <LatitudeDegrees>49.416842870414257049560546875</LatitudeDegrees>
              <LongitudeDegrees>20.3431916423141956329345703125</LongitudeDegrees>
            </Position>
            <AltitudeMeters>599</AltitudeMeters>
            <DistanceMeters>NAN</DistanceMeters>
          </Trackpoint>
          <Trackpoint>
            <Time>2022-09-20T14:33:20.000Z</Time>
            <Position>
              <LatitudeDegrees>49.41686960868537425994873046875</LatitudeDegrees>
              <LongitudeDegrees>20.3432120941579341888427734375</LongitudeDegrees>
            </Position>
            <AltitudeMeters>599.20001220703125</AltitudeMeters>
            <DistanceMeters>NAN</DistanceMeters>
          </Trackpoint>
          <Trackpoint>
            <Time>2022-09-20T14:33:24.000Z</Time>
            <Position>
              <LatitudeDegrees>49.41690078936517238616943359375</LatitudeDegrees>
              <LongitudeDegrees>20.34323598258197307586669921875</LongitudeDegrees>
            </Position>
            <AltitudeMeters>599.5999755859375</AltitudeMeters>
            <DistanceMeters>NAN</DistanceMeters>
          </Trackpoint>
          <Trackpoint>
            <Time>2022-09-20T14:33:29.000Z</Time>
            <Position>
              <LatitudeDegrees>49.4169241748750209808349609375</LatitudeDegrees>
              <LongitudeDegrees>20.34326188266277313232421875</LongitudeDegrees>
            </Position>
            <AltitudeMeters>599.79998779296875</AltitudeMeters>
            <DistanceMeters>NAN</DistanceMeters>
          </Trackpoint>
          <Trackpoint>
            <Time>2022-09-20T14:33:33.000Z</Time>
            <Position>
              <LatitudeDegrees>49.41694839857518672943115234375</LatitudeDegrees>
              <LongitudeDegrees>20.3433002717792987823486328125</LongitudeDegrees>
            </Position>
            <AltitudeMeters>599.79998779296875</AltitudeMeters>
            <DistanceMeters>NAN</DistanceMeters>
          </Trackpoint>
          <Trackpoint>
            <Time>2022-09-20T14:33:36.000Z</Time>
            <Position>
              <LatitudeDegrees>49.4169634021818637847900390625</LatitudeDegrees>
              <LongitudeDegrees>20.34332499839365482330322265625</LongitudeDegrees>
            </Position>
            <AltitudeMeters>600.20001220703125</AltitudeMeters>
            <DistanceMeters>NAN</DistanceMeters>
          </Trackpoint>
          <Trackpoint>
            <Time>2022-09-20T14:33:44.000Z</Time>
            <Position>
              <LatitudeDegrees>49.41700036637485027313232421875</LatitudeDegrees>
              <LongitudeDegrees>20.34342926926910877227783203125</LongitudeDegrees>
            </Position>
            <AltitudeMeters>600.5999755859375</AltitudeMeters>
            <DistanceMeters>NAN</DistanceMeters>
          </Trackpoint>
          <Trackpoint>
            <Time>2022-09-20T14:33:49.000Z</Time>
            <Position>
              <LatitudeDegrees>49.417031295597553253173828125</LatitudeDegrees>
              <LongitudeDegrees>20.34347805194556713104248046875</LongitudeDegrees>
            </Position>
            <AltitudeMeters>601</AltitudeMeters>
            <DistanceMeters>NAN</DistanceMeters>
          </Trackpoint>
          <Trackpoint>
            <Time>2022-09-20T14:33:52.000Z</Time>
            <Position>
              <LatitudeDegrees>49.41704948432743549346923828125</LatitudeDegrees>
              <LongitudeDegrees>20.3435155190527439117431640625</LongitudeDegrees>
            </Position>
            <AltitudeMeters>601</AltitudeMeters>
            <DistanceMeters>NAN</DistanceMeters>
          </Trackpoint>
          <Trackpoint>
            <Time>2022-09-20T14:34:01.000Z</Time>
            <Position>
              <LatitudeDegrees>49.4170854426920413970947265625</LatitudeDegrees>
              <LongitudeDegrees>20.343563295900821685791015625</LongitudeDegrees>
            </Position>
            <AltitudeMeters>601.4000244140625</AltitudeMeters>
            <DistanceMeters>NAN</DistanceMeters>
          </Trackpoint>
          <Trackpoint>
            <Time>2022-09-20T14:34:02.000Z</Time>
            <Position>
              <LatitudeDegrees>49.4170934893190860748291015625</LatitudeDegrees>
              <LongitudeDegrees>20.3435508906841278076171875</LongitudeDegrees>
            </Position>
            <AltitudeMeters>601.5999755859375</AltitudeMeters>
            <DistanceMeters>NAN</DistanceMeters>
          </Trackpoint>
          <Trackpoint>
            <Time>2022-09-20T14:34:05.000Z</Time>
            <Position>
              <LatitudeDegrees>49.417108409106731414794921875</LatitudeDegrees>
              <LongitudeDegrees>20.34354644827544689178466796875</LongitudeDegrees>
            </Position>
            <AltitudeMeters>601.79998779296875</AltitudeMeters>
            <DistanceMeters>NAN</DistanceMeters>
          </Trackpoint>
          <Trackpoint>
            <Time>2022-09-20T14:34:07.000Z</Time>
            <Position>
              <LatitudeDegrees>49.417130537331104278564453125</LatitudeDegrees>
              <LongitudeDegrees>20.34355550073087215423583984375</LongitudeDegrees>
            </Position>
            <AltitudeMeters>602</AltitudeMeters>
            <DistanceMeters>NAN</DistanceMeters>
          </Trackpoint>
          <Trackpoint>
            <Time>2022-09-20T14:34:15.000Z</Time>
            <Position>
              <LatitudeDegrees>49.41718761809170246124267578125</LatitudeDegrees>
              <LongitudeDegrees>20.34366153180599212646484375</LongitudeDegrees>
            </Position>
            <AltitudeMeters>602.4000244140625</AltitudeMeters>
            <DistanceMeters>NAN</DistanceMeters>
          </Trackpoint>
          <Trackpoint>
            <Time>2022-09-20T14:34:22.000Z</Time>
            <Position>
              <LatitudeDegrees>49.41723841242492198944091796875</LatitudeDegrees>
              <LongitudeDegrees>20.34369212575256824493408203125</LongitudeDegrees>
            </Position>
            <AltitudeMeters>602.5999755859375</AltitudeMeters>
            <DistanceMeters>NAN</DistanceMeters>
          </Trackpoint>
          <Trackpoint>
            <Time>2022-09-20T14:34:27.000Z</Time>
            <Position>
              <LatitudeDegrees>49.41726104356348514556884765625</LatitudeDegrees>
              <LongitudeDegrees>20.34371626563370227813720703125</LongitudeDegrees>
            </Position>
            <AltitudeMeters>603</AltitudeMeters>
            <DistanceMeters>NAN</DistanceMeters>
          </Trackpoint>
          <Trackpoint>
            <Time>2022-09-20T14:34:29.000Z</Time>
            <Position>
              <LatitudeDegrees>49.41727596335113048553466796875</LatitudeDegrees>
              <LongitudeDegrees>20.3437136672437191009521484375</LongitudeDegrees>
            </Position>
            <AltitudeMeters>603</AltitudeMeters>
            <DistanceMeters>NAN</DistanceMeters>
          </Trackpoint>
          <Trackpoint>
            <Time>2022-09-20T14:34:38.000Z</Time>
            <Position>
              <LatitudeDegrees>49.41737285815179347991943359375</LatitudeDegrees>
              <LongitudeDegrees>20.34376957453787326812744140625</LongitudeDegrees>
            </Position>
            <AltitudeMeters>603.79998779296875</AltitudeMeters>
            <DistanceMeters>NAN</DistanceMeters>
          </Trackpoint>
          <Trackpoint>
            <Time>2022-09-20T14:34:44.000Z</Time>
            <Position>
              <LatitudeDegrees>49.41741057671606540679931640625</LatitudeDegrees>
              <LongitudeDegrees>20.343785248696804046630859375</LongitudeDegrees>
            </Position>
            <AltitudeMeters>603.79998779296875</AltitudeMeters>
            <DistanceMeters>NAN</DistanceMeters>
          </Trackpoint>
          <Trackpoint>
            <Time>2022-09-20T14:34:45.000Z</Time>
            <Position>
              <LatitudeDegrees>49.41742365248501300811767578125</LatitudeDegrees>
              <LongitudeDegrees>20.34378214739263057708740234375</LongitudeDegrees>
            </Position>
            <AltitudeMeters>604</AltitudeMeters>
            <DistanceMeters>NAN</DistanceMeters>
          </Trackpoint>
          <Trackpoint>
            <Time>2022-09-20T14:34:46.000Z</Time>
            <Position>
              <LatitudeDegrees>49.417430274188518524169921875</LatitudeDegrees>
              <LongitudeDegrees>20.34377359785139560699462890625</LongitudeDegrees>
            </Position>
            <AltitudeMeters>604</AltitudeMeters>
            <DistanceMeters>NAN</DistanceMeters>
          </Trackpoint>
          <Trackpoint>
            <Time>2022-09-20T14:34:51.000Z</Time>
            <Position>
              <LatitudeDegrees>49.4174777157604694366455078125</LatitudeDegrees>
              <LongitudeDegrees>20.34377896226942539215087890625</LongitudeDegrees>
            </Position>
            <AltitudeMeters>604.4000244140625</AltitudeMeters>
            <DistanceMeters>NAN</DistanceMeters>
          </Trackpoint>
          <Trackpoint>
            <Time>2022-09-20T14:34:57.000Z</Time>
            <Position>
              <LatitudeDegrees>49.4175343774259090423583984375</LatitudeDegrees>
              <LongitudeDegrees>20.34379430115222930908203125</LongitudeDegrees>
            </Position>
            <AltitudeMeters>604.79998779296875</AltitudeMeters>
            <DistanceMeters>NAN</DistanceMeters>
          </Trackpoint>
          <Trackpoint>
            <Time>2022-09-20T14:35:03.000Z</Time>
            <Position>
              <LatitudeDegrees>49.41756798885762691497802734375</LatitudeDegrees>
              <LongitudeDegrees>20.34380243159830570220947265625</LongitudeDegrees>
            </Position>
            <AltitudeMeters>605.20001220703125</AltitudeMeters>
            <DistanceMeters>NAN</DistanceMeters>
          </Trackpoint>
          <Trackpoint>
            <Time>2022-09-20T14:35:11.000Z</Time>
            <Position>
              <LatitudeDegrees>49.417638815939426422119140625</LatitudeDegrees>
              <LongitudeDegrees>20.343793295323848724365234375</LongitudeDegrees>
            </Position>
            <AltitudeMeters>605.5999755859375</AltitudeMeters>
            <DistanceMeters>NAN</DistanceMeters>
          </Trackpoint>
          <Trackpoint>
            <Time>2022-09-20T14:35:18.000Z</Time>
            <Position>
              <LatitudeDegrees>49.41766957752406597137451171875</LatitudeDegrees>
              <LongitudeDegrees>20.34379455260932445526123046875</LongitudeDegrees>
            </Position>
            <AltitudeMeters>606</AltitudeMeters>
            <DistanceMeters>NAN</DistanceMeters>
          </Trackpoint>
          <Trackpoint>
            <Time>2022-09-20T14:35:25.000Z</Time>
            <Position>
              <LatitudeDegrees>49.4176735170185565948486328125</LatitudeDegrees>
              <LongitudeDegrees>20.34379237331449985504150390625</LongitudeDegrees>
            </Position>
            <AltitudeMeters>605.79998779296875</AltitudeMeters>
            <DistanceMeters>NAN</DistanceMeters>
          </Trackpoint>
          <Trackpoint>
            <Time>2022-09-20T14:35:34.000Z</Time>
            <Position>
              <LatitudeDegrees>49.41767930053174495697021484375</LatitudeDegrees>
              <LongitudeDegrees>20.3437984921038150787353515625</LongitudeDegrees>
            </Position>
            <AltitudeMeters>606</AltitudeMeters>
            <DistanceMeters>NAN</DistanceMeters>
          </Trackpoint>
          <Trackpoint>
            <Time>2022-09-20T14:35:37.000Z</Time>
            <Position>
              <LatitudeDegrees>49.41769824363291263580322265625</LatitudeDegrees>
              <LongitudeDegrees>20.34379941411316394805908203125</LongitudeDegrees>
            </Position>
            <AltitudeMeters>606.20001220703125</AltitudeMeters>
            <DistanceMeters>NAN</DistanceMeters>
          </Trackpoint>
          <Trackpoint>
            <Time>2022-09-20T14:35:38.000Z</Time>
            <Position>
              <LatitudeDegrees>49.41771869547665119171142578125</LatitudeDegrees>
              <LongitudeDegrees>20.34379522316157817840576171875</LongitudeDegrees>
            </Position>
            <AltitudeMeters>606.20001220703125</AltitudeMeters>
            <DistanceMeters>NAN</DistanceMeters>
          </Trackpoint>
          <Trackpoint>
            <Time>2022-09-20T14:35:43.000Z</Time>
            <Position>
              <LatitudeDegrees>49.41783495247364044189453125</LatitudeDegrees>
              <LongitudeDegrees>20.34377359785139560699462890625</LongitudeDegrees>
            </Position>
            <AltitudeMeters>606.5999755859375</AltitudeMeters>
            <DistanceMeters>NAN</DistanceMeters>
          </Trackpoint>
          <Trackpoint>
            <Time>2022-09-20T14:35:45.000Z</Time>
            <Position>
              <LatitudeDegrees>49.4178813882172107696533203125</LatitudeDegrees>
              <LongitudeDegrees>20.3437572531402111053466796875</LongitudeDegrees>
            </Position>
            <AltitudeMeters>606.5999755859375</AltitudeMeters>
            <DistanceMeters>NAN</DistanceMeters>
          </Trackpoint>
          <Trackpoint>
            <Time>2022-09-20T14:35:46.000Z</Time>
            <Position>
              <LatitudeDegrees>49.41789756529033184051513671875</LatitudeDegrees>
              <LongitudeDegrees>20.343743003904819488525390625</LongitudeDegrees>
            </Position>
            <AltitudeMeters>606.5999755859375</AltitudeMeters>
            <DistanceMeters>NAN</DistanceMeters>
          </Trackpoint>
          <Trackpoint>
            <Time>2022-09-20T14:35:49.000Z</Time>
            <Position>
              <LatitudeDegrees>49.41795154474675655364990234375</LatitudeDegrees>
              <LongitudeDegrees>20.343706123530864715576171875</LongitudeDegrees>
            </Position>
            <AltitudeMeters>606.79998779296875</AltitudeMeters>
            <DistanceMeters>NAN</DistanceMeters>
          </Trackpoint>
          <Trackpoint>
            <Time>2022-09-20T14:35:52.000Z</Time>
            <Position>
              <LatitudeDegrees>49.418003596365451812744140625</LatitudeDegrees>
              <LongitudeDegrees>20.34367737360298633575439453125</LongitudeDegrees>
            </Position>
            <AltitudeMeters>606.79998779296875</AltitudeMeters>
            <DistanceMeters>NAN</DistanceMeters>
          </Trackpoint>
          <Trackpoint>
            <Time>2022-09-20T14:35:55.000Z</Time>
            <Position>
              <LatitudeDegrees>49.4180594198405742645263671875</LatitudeDegrees>
              <LongitudeDegrees>20.34365189261734485626220703125</LongitudeDegrees>
            </Position>
            <AltitudeMeters>607</AltitudeMeters>
            <DistanceMeters>NAN</DistanceMeters>
          </Trackpoint>
          <Trackpoint>
            <Time>2022-09-20T14:35:56.000Z</Time>
            <Position>
              <LatitudeDegrees>49.41808230243623256683349609375</LatitudeDegrees>
              <LongitudeDegrees>20.343654155731201171875</LongitudeDegrees>
            </Position>
            <AltitudeMeters>607</AltitudeMeters>
            <DistanceMeters>NAN</DistanceMeters>
          </Trackpoint>
          <Trackpoint>
            <Time>2022-09-20T14:36:00.000Z</Time>
            <Position>
              <LatitudeDegrees>49.4181747548282146453857421875</LatitudeDegrees>
              <LongitudeDegrees>20.34361568279564380645751953125</LongitudeDegrees>
            </Position>
            <AltitudeMeters>607.20001220703125</AltitudeMeters>
            <DistanceMeters>NAN</DistanceMeters>
          </Trackpoint>
          <Trackpoint>
            <Time>2022-09-20T14:36:07.000Z</Time>
            <Position>
              <LatitudeDegrees>49.41832956857979297637939453125</LatitudeDegrees>
              <LongitudeDegrees>20.34352817572653293609619140625</LongitudeDegrees>
            </Position>
            <AltitudeMeters>607.79998779296875</AltitudeMeters>
            <DistanceMeters>NAN</DistanceMeters>
          </Trackpoint>
          <Trackpoint>
            <Time>2022-09-20T14:36:13.000Z</Time>
            <Position>
              <LatitudeDegrees>49.41849703900516033172607421875</LatitudeDegrees>
              <LongitudeDegrees>20.3433871082961559295654296875</LongitudeDegrees>
            </Position>
            <AltitudeMeters>608</AltitudeMeters>
            <DistanceMeters>NAN</DistanceMeters>
          </Trackpoint>
          <Trackpoint>
            <Time>2022-09-20T14:36:23.000Z</Time>
            <Position>
              <LatitudeDegrees>49.41880599595606327056884765625</LatitudeDegrees>
              <LongitudeDegrees>20.343032889068126678466796875</LongitudeDegrees>
            </Position>
            <AltitudeMeters>607.20001220703125</AltitudeMeters>
            <DistanceMeters>NAN</DistanceMeters>
          </Trackpoint>
          <Trackpoint>
            <Time>2022-09-20T14:36:28.000Z</Time>
            <Position>
              <LatitudeDegrees>49.41895167343318462371826171875</LatitudeDegrees>
              <LongitudeDegrees>20.34285024739801883697509765625</LongitudeDegrees>
            </Position>
            <AltitudeMeters>606</AltitudeMeters>
            <DistanceMeters>NAN</DistanceMeters>
          </Trackpoint>
          <Trackpoint>
            <Time>2022-09-20T14:36:34.000Z</Time>
            <Position>
              <LatitudeDegrees>49.41915250383317470550537109375</LatitudeDegrees>
              <LongitudeDegrees>20.342612452805042266845703125</LongitudeDegrees>
            </Position>
            <AltitudeMeters>605</AltitudeMeters>
            <DistanceMeters>NAN</DistanceMeters>
          </Trackpoint>
          <Trackpoint>
            <Time>2022-09-20T14:36:35.000Z</Time>
            <Position>
              <LatitudeDegrees>49.41919525153934955596923828125</LatitudeDegrees>
              <LongitudeDegrees>20.3425718843936920166015625</LongitudeDegrees>
            </Position>
            <AltitudeMeters>604.79998779296875</AltitudeMeters>
            <DistanceMeters>NAN</DistanceMeters>
          </Trackpoint>
          <Trackpoint>
            <Time>2022-09-20T14:36:38.000Z</Time>
            <Position>
              <LatitudeDegrees>49.4193532504141330718994140625</LatitudeDegrees>
              <LongitudeDegrees>20.342486388981342315673828125</LongitudeDegrees>
            </Position>
            <AltitudeMeters>604.20001220703125</AltitudeMeters>
            <DistanceMeters>NAN</DistanceMeters>
          </Trackpoint>
          <Trackpoint>
            <Time>2022-09-20T14:36:41.000Z</Time>
            <Position>
              <LatitudeDegrees>49.419537819921970367431640625</LatitudeDegrees>
              <LongitudeDegrees>20.3424811922013759613037109375</LongitudeDegrees>
            </Position>
            <AltitudeMeters>603.5999755859375</AltitudeMeters>
            <DistanceMeters>NAN</DistanceMeters>
          </Trackpoint>
          <Trackpoint>
            <Time>2022-09-20T14:36:42.000Z</Time>
            <Position>
              <LatitudeDegrees>49.4195963256061077117919921875</LatitudeDegrees>
              <LongitudeDegrees>20.3424909152090549468994140625</LongitudeDegrees>
            </Position>
            <AltitudeMeters>603</AltitudeMeters>
            <DistanceMeters>NAN</DistanceMeters>
          </Trackpoint>
          <Trackpoint>
            <Time>2022-09-20T14:36:43.000Z</Time>
            <Position>
              <LatitudeDegrees>49.41965491510927677154541015625</LatitudeDegrees>
              <LongitudeDegrees>20.342511869966983795166015625</LongitudeDegrees>
            </Position>
            <AltitudeMeters>602.4000244140625</AltitudeMeters>
            <DistanceMeters>NAN</DistanceMeters>
          </Trackpoint>
          <Trackpoint>
            <Time>2022-09-20T14:36:45.000Z</Time>
            <Position>
              <LatitudeDegrees>49.41977343522012233734130859375</LatitudeDegrees>
              <LongitudeDegrees>20.34260566346347332000732421875</LongitudeDegrees>
            </Position>
            <AltitudeMeters>601.5999755859375</AltitudeMeters>
            <DistanceMeters>NAN</DistanceMeters>
          </Trackpoint>
          <Trackpoint>
            <Time>2022-09-20T14:36:46.000Z</Time>
            <Position>
              <LatitudeDegrees>49.4198337011039257049560546875</LatitudeDegrees>
              <LongitudeDegrees>20.34266701899468898773193359375</LongitudeDegrees>
            </Position>
            <AltitudeMeters>601.20001220703125</AltitudeMeters>
            <DistanceMeters>NAN</DistanceMeters>
          </Trackpoint>
          <Trackpoint>
            <Time>2022-09-20T14:36:49.000Z</Time>
            <Position>
              <LatitudeDegrees>49.4200229644775390625</LatitudeDegrees>
              <LongitudeDegrees>20.3429147042334079742431640625</LongitudeDegrees>
            </Position>
            <AltitudeMeters>599.4000244140625</AltitudeMeters>
            <DistanceMeters>NAN</DistanceMeters>
          </Trackpoint>
          <Trackpoint>
            <Time>2022-09-20T14:36:50.000Z</Time>
            <Position>
              <LatitudeDegrees>49.42008532583713531494140625</LatitudeDegrees>
              <LongitudeDegrees>20.34301872365176677703857421875</LongitudeDegrees>
            </Position>
            <AltitudeMeters>598.79998779296875</AltitudeMeters>
            <DistanceMeters>NAN</DistanceMeters>
          </Trackpoint>
          <Trackpoint>
            <Time>2022-09-20T14:36:51.000Z</Time>
            <Position>
              <LatitudeDegrees>49.42014626227319240570068359375</LatitudeDegrees>
              <LongitudeDegrees>20.34312374889850616455078125</LongitudeDegrees>
            </Position>
            <AltitudeMeters>598.20001220703125</AltitudeMeters>
            <DistanceMeters>NAN</DistanceMeters>
          </Trackpoint>
          <Trackpoint>
            <Time>2022-09-20T14:36:53.000Z</Time>
            <Position>
              <LatitudeDegrees>49.42026444710791110992431640625</LatitudeDegrees>
              <LongitudeDegrees>20.34332080744206905364990234375</LongitudeDegrees>
            </Position>
            <AltitudeMeters>597.20001220703125</AltitudeMeters>
            <DistanceMeters>NAN</DistanceMeters>
          </Trackpoint>
          <Trackpoint>
            <Time>2022-09-20T14:36:56.000Z</Time>
            <Position>
              <LatitudeDegrees>49.42043543793261051177978515625</LatitudeDegrees>
              <LongitudeDegrees>20.34360528923571109771728515625</LongitudeDegrees>
            </Position>
            <AltitudeMeters>596.4000244140625</AltitudeMeters>
            <DistanceMeters>NAN</DistanceMeters>
          </Trackpoint>
          <Trackpoint>
            <Time>2022-09-20T14:36:58.000Z</Time>
            <Position>
              <LatitudeDegrees>49.4205414690077304840087890625</LatitudeDegrees>
              <LongitudeDegrees>20.34377745352685451507568359375</LongitudeDegrees>
            </Position>
            <AltitudeMeters>596.4000244140625</AltitudeMeters>
            <DistanceMeters>NAN</DistanceMeters>
          </Trackpoint>
          <Trackpoint>
            <Time>2022-09-20T14:37:01.000Z</Time>
            <Position>
              <LatitudeDegrees>49.42069678567349910736083984375</LatitudeDegrees>
              <LongitudeDegrees>20.3439976461231708526611328125</LongitudeDegrees>
            </Position>
            <AltitudeMeters>596</AltitudeMeters>
            <DistanceMeters>NAN</DistanceMeters>
          </Trackpoint>
          <Trackpoint>
            <Time>2022-09-20T14:37:04.000Z</Time>
            <Position>
              <LatitudeDegrees>49.42085620947182178497314453125</LatitudeDegrees>
              <LongitudeDegrees>20.34418129362165927886962890625</LongitudeDegrees>
            </Position>
            <AltitudeMeters>596</AltitudeMeters>
            <DistanceMeters>NAN</DistanceMeters>
          </Trackpoint>
          <Trackpoint>
            <Time>2022-09-20T14:37:09.000Z</Time>
            <Position>
              <LatitudeDegrees>49.42114421166479587554931640625</LatitudeDegrees>
              <LongitudeDegrees>20.34440928138792514801025390625</LongitudeDegrees>
            </Position>
            <AltitudeMeters>595.79998779296875</AltitudeMeters>
            <DistanceMeters>NAN</DistanceMeters>
          </Trackpoint>
          <Trackpoint>
            <Time>2022-09-20T14:37:14.000Z</Time>
            <Position>
              <LatitudeDegrees>49.42148669622838497161865234375</LatitudeDegrees>
              <LongitudeDegrees>20.3445567190647125244140625</LongitudeDegrees>
            </Position>
            <AltitudeMeters>594.79998779296875</AltitudeMeters>
            <DistanceMeters>NAN</DistanceMeters>
          </Trackpoint>
          <Trackpoint>
            <Time>2022-09-20T14:37:16.000Z</Time>
            <Position>
              <LatitudeDegrees>49.42163002677261829376220703125</LatitudeDegrees>
              <LongitudeDegrees>20.34459167160093784332275390625</LongitudeDegrees>
            </Position>
            <AltitudeMeters>594.5999755859375</AltitudeMeters>
            <DistanceMeters>NAN</DistanceMeters>
          </Trackpoint>
          <Trackpoint>
            <Time>2022-09-20T14:37:18.000Z</Time>
            <Position>
              <LatitudeDegrees>49.42177955992519855499267578125</LatitudeDegrees>
              <LongitudeDegrees>20.34463324584066867828369140625</LongitudeDegrees>
            </Position>
            <AltitudeMeters>593.5999755859375</AltitudeMeters>
            <DistanceMeters>NAN</DistanceMeters>
          </Trackpoint>
          <Trackpoint>
            <Time>2022-09-20T14:37:22.000Z</Time>
            <Position>
              <LatitudeDegrees>49.42208197899162769317626953125</LatitudeDegrees>
              <LongitudeDegrees>20.34472259692847728729248046875</LongitudeDegrees>
            </Position>
            <AltitudeMeters>592.5999755859375</AltitudeMeters>
            <DistanceMeters>NAN</DistanceMeters>
          </Trackpoint>
          <Trackpoint>
            <Time>2022-09-20T14:37:23.000Z</Time>
            <Position>
              <LatitudeDegrees>49.4221598468720912933349609375</LatitudeDegrees>
              <LongitudeDegrees>20.34475277177989482879638671875</LongitudeDegrees>
            </Position>
            <AltitudeMeters>592.20001220703125</AltitudeMeters>
            <DistanceMeters>NAN</DistanceMeters>
          </Trackpoint>
          <Trackpoint>
            <Time>2022-09-20T14:37:27.000Z</Time>
            <Position>
              <LatitudeDegrees>49.4224186800420284271240234375</LatitudeDegrees>
              <LongitudeDegrees>20.344867520034313201904296875</LongitudeDegrees>
            </Position>
            <AltitudeMeters>591.20001220703125</AltitudeMeters>
            <DistanceMeters>NAN</DistanceMeters>
          </Trackpoint>
          <Trackpoint>
            <Time>2022-09-20T14:37:29.000Z</Time>
            <Position>
              <LatitudeDegrees>49.42266653291881084442138671875</LatitudeDegrees>
              <LongitudeDegrees>20.34500506706535816192626953125</LongitudeDegrees>
            </Position>
            <AltitudeMeters>590.5999755859375</AltitudeMeters>
            <DistanceMeters>NAN</DistanceMeters>
          </Trackpoint>
          <Trackpoint>
            <Time>2022-09-20T14:37:30.000Z</Time>
            <Position>
              <LatitudeDegrees>49.42274532280862331390380859375</LatitudeDegrees>
              <LongitudeDegrees>20.345066003501415252685546875</LongitudeDegrees>
            </Position>
            <AltitudeMeters>590.20001220703125</AltitudeMeters>
            <DistanceMeters>NAN</DistanceMeters>
          </Trackpoint>
          <Trackpoint>
            <Time>2022-09-20T14:37:34.000Z</Time>
            <Position>
              <LatitudeDegrees>49.42304338328540325164794921875</LatitudeDegrees>
              <LongitudeDegrees>20.3453669138252735137939453125</LongitudeDegrees>
            </Position>
            <AltitudeMeters>589.4000244140625</AltitudeMeters>
            <DistanceMeters>NAN</DistanceMeters>
          </Trackpoint>
          <Trackpoint>
            <Time>2022-09-20T14:37:35.000Z</Time>
            <Position>
              <LatitudeDegrees>49.4231115281581878662109375</LatitudeDegrees>
              <LongitudeDegrees>20.34547059796750545501708984375</LongitudeDegrees>
            </Position>
            <AltitudeMeters>589.20001220703125</AltitudeMeters>
            <DistanceMeters>NAN</DistanceMeters>
          </Trackpoint>
          <Trackpoint>
            <Time>2022-09-20T14:37:38.000Z</Time>
            <Position>
              <LatitudeDegrees>49.4233019649982452392578125</LatitudeDegrees>
              <LongitudeDegrees>20.3458321094512939453125</LongitudeDegrees>
            </Position>
            <AltitudeMeters>587.4000244140625</AltitudeMeters>
            <DistanceMeters>NAN</DistanceMeters>
          </Trackpoint>
          <Trackpoint>
            <Time>2022-09-20T14:37:40.000Z</Time>
            <Position>
              <LatitudeDegrees>49.42340648733079433441162109375</LatitudeDegrees>
              <LongitudeDegrees>20.34610862843692302703857421875</LongitudeDegrees>
            </Position>
            <AltitudeMeters>586</AltitudeMeters>
            <DistanceMeters>NAN</DistanceMeters>
          </Trackpoint>
          <Trackpoint>
            <Time>2022-09-20T14:37:42.000Z</Time>
            <Position>
              <LatitudeDegrees>49.42348712123930454254150390625</LatitudeDegrees>
              <LongitudeDegrees>20.34641741774976253509521484375</LongitudeDegrees>
            </Position>
            <AltitudeMeters>585</AltitudeMeters>
            <DistanceMeters>NAN</DistanceMeters>
          </Trackpoint>
          <Trackpoint>
            <Time>2022-09-20T14:37:43.000Z</Time>
            <Position>
              <LatitudeDegrees>49.4235157035291194915771484375</LatitudeDegrees>
              <LongitudeDegrees>20.3465735726058483123779296875</LongitudeDegrees>
            </Position>
            <AltitudeMeters>584.5999755859375</AltitudeMeters>
            <DistanceMeters>NAN</DistanceMeters>
          </Trackpoint>
          <Trackpoint>
            <Time>2022-09-20T14:37:45.000Z</Time>
            <Position>
              <LatitudeDegrees>49.42357446067035198211669921875</LatitudeDegrees>
              <LongitudeDegrees>20.34689015708863735198974609375</LongitudeDegrees>
            </Position>
            <AltitudeMeters>583.5999755859375</AltitudeMeters>
            <DistanceMeters>NAN</DistanceMeters>
          </Trackpoint>
          <Trackpoint>
            <Time>2022-09-20T14:37:46.000Z</Time>
            <Position>
              <LatitudeDegrees>49.4235918112099170684814453125</LatitudeDegrees>
              <LongitudeDegrees>20.34704555757343769073486328125</LongitudeDegrees>
            </Position>
            <AltitudeMeters>583</AltitudeMeters>
            <DistanceMeters>NAN</DistanceMeters>
          </Trackpoint>
          <Trackpoint>
            <Time>2022-09-20T14:37:47.000Z</Time>
            <Position>
              <LatitudeDegrees>49.42360446788370609283447265625</LatitudeDegrees>
              <LongitudeDegrees>20.34719727002084255218505859375</LongitudeDegrees>
            </Position>
            <AltitudeMeters>582.5999755859375</AltitudeMeters>
            <DistanceMeters>NAN</DistanceMeters>
          </Trackpoint>
          <Trackpoint>
            <Time>2022-09-20T14:37:50.000Z</Time>
            <Position>
              <LatitudeDegrees>49.42365006543695926666259765625</LatitudeDegrees>
              <LongitudeDegrees>20.34762172959744930267333984375</LongitudeDegrees>
            </Position>
            <AltitudeMeters>582</AltitudeMeters>
            <DistanceMeters>NAN</DistanceMeters>
          </Trackpoint>
          <Trackpoint>
            <Time>2022-09-20T14:37:52.000Z</Time>
            <Position>
              <LatitudeDegrees>49.423689544200897216796875</LatitudeDegrees>
              <LongitudeDegrees>20.34788869321346282958984375</LongitudeDegrees>
            </Position>
            <AltitudeMeters>581.5999755859375</AltitudeMeters>
            <DistanceMeters>NAN</DistanceMeters>
          </Trackpoint>
          <Trackpoint>
            <Time>2022-09-20T14:37:56.000Z</Time>
            <Position>
              <LatitudeDegrees>49.4238037057220935821533203125</LatitudeDegrees>
              <LongitudeDegrees>20.348355062305927276611328125</LongitudeDegrees>
            </Position>
            <AltitudeMeters>581.20001220703125</AltitudeMeters>
            <DistanceMeters>NAN</DistanceMeters>
          </Trackpoint>
          <Trackpoint>
            <Time>2022-09-20T14:37:57.000Z</Time>
            <Position>
              <LatitudeDegrees>49.42383371293544769287109375</LatitudeDegrees>
              <LongitudeDegrees>20.34846193157136440277099609375</LongitudeDegrees>
            </Position>
            <AltitudeMeters>581.20001220703125</AltitudeMeters>
            <DistanceMeters>NAN</DistanceMeters>
          </Trackpoint>
          <Trackpoint>
            <Time>2022-09-20T14:38:00.000Z</Time>
            <Position>
              <LatitudeDegrees>49.423931278288364410400390625</LatitudeDegrees>
              <LongitudeDegrees>20.34874607808887958526611328125</LongitudeDegrees>
            </Position>
            <AltitudeMeters>581</AltitudeMeters>
            <DistanceMeters>NAN</DistanceMeters>
          </Trackpoint>
          <Trackpoint>
            <Time>2022-09-20T14:38:03.000Z</Time>
            <Position>
              <LatitudeDegrees>49.42400394938886165618896484375</LatitudeDegrees>
              <LongitudeDegrees>20.34899803809821605682373046875</LongitudeDegrees>
            </Position>
            <AltitudeMeters>581</AltitudeMeters>
            <DistanceMeters>NAN</DistanceMeters>
          </Trackpoint>
          <Trackpoint>
            <Time>2022-09-20T14:38:07.000Z</Time>
            <Position>
              <LatitudeDegrees>49.4240759499371051788330078125</LatitudeDegrees>
              <LongitudeDegrees>20.349273048341274261474609375</LongitudeDegrees>
            </Position>
            <AltitudeMeters>581.5999755859375</AltitudeMeters>
            <DistanceMeters>NAN</DistanceMeters>
          </Trackpoint>
          <Trackpoint>
            <Time>2022-09-20T14:38:08.000Z</Time>
            <Position>
              <LatitudeDegrees>49.42409145645797252655029296875</LatitudeDegrees>
              <LongitudeDegrees>20.34933130256831645965576171875</LongitudeDegrees>
            </Position>
            <AltitudeMeters>581.5999755859375</AltitudeMeters>
            <DistanceMeters>NAN</DistanceMeters>
          </Trackpoint>
          <Trackpoint>
            <Time>2022-09-20T14:38:13.000Z</Time>
            <Position>
              <LatitudeDegrees>49.424145184457302093505859375</LatitudeDegrees>
              <LongitudeDegrees>20.3495846875011920928955078125</LongitudeDegrees>
            </Position>
            <AltitudeMeters>582.4000244140625</AltitudeMeters>
            <DistanceMeters>NAN</DistanceMeters>
          </Trackpoint>
          <Trackpoint>
            <Time>2022-09-20T14:38:17.000Z</Time>
            <Position>
              <LatitudeDegrees>49.42416873760521411895751953125</LatitudeDegrees>
              <LongitudeDegrees>20.34980035386979579925537109375</LongitudeDegrees>
            </Position>
            <AltitudeMeters>583</AltitudeMeters>
            <DistanceMeters>NAN</DistanceMeters>
          </Trackpoint>
          <Trackpoint>
            <Time>2022-09-20T14:38:19.000Z</Time>
            <Position>
              <LatitudeDegrees>49.4241805560886859893798828125</LatitudeDegrees>
              <LongitudeDegrees>20.34990780986845493316650390625</LongitudeDegrees>
            </Position>
            <AltitudeMeters>583.20001220703125</AltitudeMeters>
            <DistanceMeters>NAN</DistanceMeters>
          </Trackpoint>
          <Trackpoint>
            <Time>2022-09-20T14:38:25.000Z</Time>
            <Position>
              <LatitudeDegrees>49.4242407381534576416015625</LatitudeDegrees>
              <LongitudeDegrees>20.35025364719331264495849609375</LongitudeDegrees>
            </Position>
            <AltitudeMeters>583.79998779296875</AltitudeMeters>
            <DistanceMeters>NAN</DistanceMeters>
          </Trackpoint>
          <Trackpoint>
            <Time>2022-09-20T14:38:26.000Z</Time>
            <Position>
              <LatitudeDegrees>49.42425188608467578887939453125</LatitudeDegrees>
              <LongitudeDegrees>20.35031081177294254302978515625</LongitudeDegrees>
            </Position>
            <AltitudeMeters>584</AltitudeMeters>
            <DistanceMeters>NAN</DistanceMeters>
          </Trackpoint>
          <Trackpoint>
            <Time>2022-09-20T14:38:31.000Z</Time>
            <Position>
              <LatitudeDegrees>49.42431542091071605682373046875</LatitudeDegrees>
              <LongitudeDegrees>20.35051784478127956390380859375</LongitudeDegrees>
            </Position>
            <AltitudeMeters>584.79998779296875</AltitudeMeters>
            <DistanceMeters>NAN</DistanceMeters>
          </Trackpoint>
          <Trackpoint>
            <Time>2022-09-20T14:38:32.000Z</Time>
            <Position>
              <LatitudeDegrees>49.42433587275445461273193359375</LatitudeDegrees>
              <LongitudeDegrees>20.35055221058428287506103515625</LongitudeDegrees>
            </Position>
            <AltitudeMeters>585</AltitudeMeters>
            <DistanceMeters>NAN</DistanceMeters>
          </Trackpoint>
          <Trackpoint>
            <Time>2022-09-20T14:38:37.000Z</Time>
            <Position>
              <LatitudeDegrees>49.42446897737681865692138671875</LatitudeDegrees>
              <LongitudeDegrees>20.35068296827375888824462890625</LongitudeDegrees>
            </Position>
            <AltitudeMeters>585.79998779296875</AltitudeMeters>
            <DistanceMeters>NAN</DistanceMeters>
          </Trackpoint>
          <Trackpoint>
            <Time>2022-09-20T14:38:41.000Z</Time>
            <Position>
              <LatitudeDegrees>49.4245567359030246734619140625</LatitudeDegrees>
              <LongitudeDegrees>20.35073040984570980072021484375</LongitudeDegrees>
            </Position>
            <AltitudeMeters>586</AltitudeMeters>
            <DistanceMeters>NAN</DistanceMeters>
          </Trackpoint>
          <Trackpoint>
            <Time>2022-09-20T14:38:43.000Z</Time>
            <Position>
              <LatitudeDegrees>49.4245986454188823699951171875</LatitudeDegrees>
              <LongitudeDegrees>20.350744910538196563720703125</LongitudeDegrees>
            </Position>
            <AltitudeMeters>586.4000244140625</AltitudeMeters>
            <DistanceMeters>NAN</DistanceMeters>
          </Trackpoint>
          <Trackpoint>
            <Time>2022-09-20T14:38:44.000Z</Time>
            <Position>
              <LatitudeDegrees>49.4246216118335723876953125</LatitudeDegrees>
              <LongitudeDegrees>20.350745581090450286865234375</LongitudeDegrees>
            </Position>
            <AltitudeMeters>586.4000244140625</AltitudeMeters>
            <DistanceMeters>NAN</DistanceMeters>
          </Trackpoint>
          <Trackpoint>
            <Time>2022-09-20T14:38:48.000Z</Time>
            <Position>
              <LatitudeDegrees>49.42471238784492015838623046875</LatitudeDegrees>
              <LongitudeDegrees>20.3507365286350250244140625</LongitudeDegrees>
            </Position>
            <AltitudeMeters>587</AltitudeMeters>
            <DistanceMeters>NAN</DistanceMeters>
          </Trackpoint>
          <Trackpoint>
            <Time>2022-09-20T14:38:49.000Z</Time>
            <Position>
              <LatitudeDegrees>49.42473485134541988372802734375</LatitudeDegrees>
              <LongitudeDegrees>20.3507283143699169158935546875</LongitudeDegrees>
            </Position>
            <AltitudeMeters>587.20001220703125</AltitudeMeters>
            <DistanceMeters>NAN</DistanceMeters>
          </Trackpoint>
          <Trackpoint>
            <Time>2022-09-20T14:38:51.000Z</Time>
            <Position>
              <LatitudeDegrees>49.4247823767364025115966796875</LatitudeDegrees>
              <LongitudeDegrees>20.3506991453468799591064453125</LongitudeDegrees>
            </Position>
            <AltitudeMeters>587.4000244140625</AltitudeMeters>
            <DistanceMeters>NAN</DistanceMeters>
          </Trackpoint>
          <Trackpoint>
            <Time>2022-09-20T14:38:53.000Z</Time>
            <Position>
              <LatitudeDegrees>49.42482990212738513946533203125</LatitudeDegrees>
              <LongitudeDegrees>20.35066586919128894805908203125</LongitudeDegrees>
            </Position>
            <AltitudeMeters>587.5999755859375</AltitudeMeters>
            <DistanceMeters>NAN</DistanceMeters>
          </Trackpoint>
          <Trackpoint>
            <Time>2022-09-20T14:38:54.000Z</Time>
            <Position>
              <LatitudeDegrees>49.42485270090401172637939453125</LatitudeDegrees>
              <LongitudeDegrees>20.3506377898156642913818359375</LongitudeDegrees>
            </Position>
            <AltitudeMeters>588</AltitudeMeters>
            <DistanceMeters>NAN</DistanceMeters>
          </Trackpoint>
          <Trackpoint>
            <Time>2022-09-20T14:38:55.000Z</Time>
            <Position>
              <LatitudeDegrees>49.42486946471035480499267578125</LatitudeDegrees>
              <LongitudeDegrees>20.350609123706817626953125</LongitudeDegrees>
            </Position>
            <AltitudeMeters>588.20001220703125</AltitudeMeters>
            <DistanceMeters>NAN</DistanceMeters>
          </Trackpoint>
          <Trackpoint>
            <Time>2022-09-20T14:38:58.000Z</Time>
            <Position>
              <LatitudeDegrees>49.42492059431970119476318359375</LatitudeDegrees>
              <LongitudeDegrees>20.3505543060600757598876953125</LongitudeDegrees>
            </Position>
            <AltitudeMeters>588.5999755859375</AltitudeMeters>
            <DistanceMeters>NAN</DistanceMeters>
          </Trackpoint>
          <Trackpoint>
            <Time>2022-09-20T14:39:00.000Z</Time>
            <Position>
              <LatitudeDegrees>49.42493140697479248046875</LatitudeDegrees>
              <LongitudeDegrees>20.3505365364253520965576171875</LongitudeDegrees>
            </Position>
            <AltitudeMeters>588.79998779296875</AltitudeMeters>
            <DistanceMeters>NAN</DistanceMeters>
          </Trackpoint>
          <Trackpoint>
            <Time>2022-09-20T14:39:09.000Z</Time>
            <Position>
              <LatitudeDegrees>49.42493140697479248046875</LatitudeDegrees>
              <LongitudeDegrees>20.3505365364253520965576171875</LongitudeDegrees>
            </Position>
            <AltitudeMeters>589.20001220703125</AltitudeMeters>
            <DistanceMeters>NAN</DistanceMeters>
          </Trackpoint>
          <Trackpoint>
            <Time>2022-09-20T14:39:16.000Z</Time>
            <Position>
              <LatitudeDegrees>49.42493140697479248046875</LatitudeDegrees>
              <LongitudeDegrees>20.3505365364253520965576171875</LongitudeDegrees>
            </Position>
            <AltitudeMeters>589.4000244140625</AltitudeMeters>
            <DistanceMeters>NAN</DistanceMeters>
          </Trackpoint>
          <Trackpoint>
            <Time>2022-09-20T14:39:23.000Z</Time>
            <Position>
              <LatitudeDegrees>49.42493140697479248046875</LatitudeDegrees>
              <LongitudeDegrees>20.3505365364253520965576171875</LongitudeDegrees>
            </Position>
            <AltitudeMeters>589.20001220703125</AltitudeMeters>
            <DistanceMeters>NAN</DistanceMeters>
          </Trackpoint>
          <Trackpoint>
            <Time>2022-09-20T14:39:26.000Z</Time>
            <Position>
              <LatitudeDegrees>49.4249322451651096343994140625</LatitudeDegrees>
              <LongitudeDegrees>20.35053201019763946533203125</LongitudeDegrees>
            </Position>
            <AltitudeMeters>589.4000244140625</AltitudeMeters>
            <DistanceMeters>NAN</DistanceMeters>
          </Trackpoint>
          <Trackpoint>
            <Time>2022-09-20T14:39:29.000Z</Time>
            <Position>
              <LatitudeDegrees>49.4249488413333892822265625</LatitudeDegrees>
              <LongitudeDegrees>20.3504751808941364288330078125</LongitudeDegrees>
            </Position>
            <AltitudeMeters>589.5999755859375</AltitudeMeters>
            <DistanceMeters>NAN</DistanceMeters>
          </Trackpoint>
          <Trackpoint>
            <Time>2022-09-20T14:39:30.000Z</Time>
            <Position>
              <LatitudeDegrees>49.424945823848247528076171875</LatitudeDegrees>
              <LongitudeDegrees>20.3504537232220172882080078125</LongitudeDegrees>
            </Position>
            <AltitudeMeters>589.5999755859375</AltitudeMeters>
            <DistanceMeters>NAN</DistanceMeters>
          </Trackpoint>
          <Trackpoint>
            <Time>2022-09-20T14:39:35.000Z</Time>
            <Position>
              <LatitudeDegrees>49.42497096955776214599609375</LatitudeDegrees>
              <LongitudeDegrees>20.35036529414355754852294921875</LongitudeDegrees>
            </Position>
            <AltitudeMeters>589.79998779296875</AltitudeMeters>
            <DistanceMeters>NAN</DistanceMeters>
          </Trackpoint>
          <Trackpoint>
            <Time>2022-09-20T14:39:47.000Z</Time>
            <Position>
              <LatitudeDegrees>49.4249868951737880706787109375</LatitudeDegrees>
              <LongitudeDegrees>20.35034023225307464599609375</LongitudeDegrees>
            </Position>
            <AltitudeMeters>590</AltitudeMeters>
            <DistanceMeters>NAN</DistanceMeters>
          </Trackpoint>
          <Trackpoint>
            <Time>2022-09-20T14:39:59.000Z</Time>
            <Position>
              <LatitudeDegrees>49.4249882362782955169677734375</LatitudeDegrees>
              <LongitudeDegrees>20.35033755004405975341796875</LongitudeDegrees>
            </Position>
            <AltitudeMeters>590.20001220703125</AltitudeMeters>
            <DistanceMeters>NAN</DistanceMeters>
          </Trackpoint>
          <Trackpoint>
            <Time>2022-09-20T14:40:02.000Z</Time>
            <Position>
              <LatitudeDegrees>49.4249882362782955169677734375</LatitudeDegrees>
              <LongitudeDegrees>20.35033755004405975341796875</LongitudeDegrees>
            </Position>
            <AltitudeMeters>590.20001220703125</AltitudeMeters>
            <DistanceMeters>NAN</DistanceMeters>
          </Trackpoint>
          <Trackpoint>
            <Time>2022-09-20T14:40:08.000Z</Time>
            <Position>
              <LatitudeDegrees>49.4249882362782955169677734375</LatitudeDegrees>
              <LongitudeDegrees>20.35033755004405975341796875</LongitudeDegrees>
            </Position>
            <AltitudeMeters>590</AltitudeMeters>
            <DistanceMeters>NAN</DistanceMeters>
          </Trackpoint>
          <Trackpoint>
            <Time>2022-09-20T14:40:11.000Z</Time>
            <Position>
              <LatitudeDegrees>49.42499452270567417144775390625</LatitudeDegrees>
              <LongitudeDegrees>20.35032145678997039794921875</LongitudeDegrees>
            </Position>
            <AltitudeMeters>590.4000244140625</AltitudeMeters>
            <DistanceMeters>NAN</DistanceMeters>
          </Trackpoint>
          <Trackpoint>
            <Time>2022-09-20T14:40:14.000Z</Time>
            <Position>
              <LatitudeDegrees>49.42499913275241851806640625</LatitudeDegrees>
              <LongitudeDegrees>20.3503129072487354278564453125</LongitudeDegrees>
            </Position>
            <AltitudeMeters>590.5999755859375</AltitudeMeters>
            <DistanceMeters>NAN</DistanceMeters>
          </Trackpoint>
          <Trackpoint>
            <Time>2022-09-20T14:40:28.000Z</Time>
            <Position>
              <LatitudeDegrees>49.42500240169465541839599609375</LatitudeDegrees>
              <LongitudeDegrees>20.350265465676784515380859375</LongitudeDegrees>
            </Position>
            <AltitudeMeters>590.79998779296875</AltitudeMeters>
            <DistanceMeters>NAN</DistanceMeters>
          </Trackpoint>
          <Trackpoint>
            <Time>2022-09-20T14:40:32.000Z</Time>
            <Position>
              <LatitudeDegrees>49.42500776611268520355224609375</LatitudeDegrees>
              <LongitudeDegrees>20.35024501383304595947265625</LongitudeDegrees>
            </Position>
            <AltitudeMeters>591</AltitudeMeters>
            <DistanceMeters>NAN</DistanceMeters>
          </Trackpoint>
          <Trackpoint>
            <Time>2022-09-20T14:40:38.000Z</Time>
            <Position>
              <LatitudeDegrees>49.42506141029298305511474609375</LatitudeDegrees>
              <LongitudeDegrees>20.35005684010684490203857421875</LongitudeDegrees>
            </Position>
            <AltitudeMeters>591.4000244140625</AltitudeMeters>
            <DistanceMeters>NAN</DistanceMeters>
          </Trackpoint>
          <Trackpoint>
            <Time>2022-09-20T14:40:40.000Z</Time>
            <Position>
              <LatitudeDegrees>49.4250898249447345733642578125</LatitudeDegrees>
              <LongitudeDegrees>20.34997788257896900177001953125</LongitudeDegrees>
            </Position>
            <AltitudeMeters>591.5999755859375</AltitudeMeters>
            <DistanceMeters>NAN</DistanceMeters>
          </Trackpoint>
          <Trackpoint>
            <Time>2022-09-20T14:40:44.000Z</Time>
            <Position>
              <LatitudeDegrees>49.425119496881961822509765625</LatitudeDegrees>
              <LongitudeDegrees>20.349847041070461273193359375</LongitudeDegrees>
            </Position>
            <AltitudeMeters>592.20001220703125</AltitudeMeters>
            <DistanceMeters>NAN</DistanceMeters>
          </Trackpoint>
          <Trackpoint>
            <Time>2022-09-20T14:40:47.000Z</Time>
            <Position>
              <LatitudeDegrees>49.4251370988786220550537109375</LatitudeDegrees>
              <LongitudeDegrees>20.34977721981704235076904296875</LongitudeDegrees>
            </Position>
            <AltitudeMeters>592.5999755859375</AltitudeMeters>
            <DistanceMeters>NAN</DistanceMeters>
          </Trackpoint>
          <Trackpoint>
            <Time>2022-09-20T14:40:50.000Z</Time>
            <Position>
              <LatitudeDegrees>49.425150342285633087158203125</LatitudeDegrees>
              <LongitudeDegrees>20.34968585707247257232666015625</LongitudeDegrees>
            </Position>
            <AltitudeMeters>593.20001220703125</AltitudeMeters>
            <DistanceMeters>NAN</DistanceMeters>
          </Trackpoint>
          <Trackpoint>
            <Time>2022-09-20T14:40:53.000Z</Time>
            <Position>
              <LatitudeDegrees>49.4251800142228603363037109375</LatitudeDegrees>
              <LongitudeDegrees>20.34960069693624973297119140625</LongitudeDegrees>
            </Position>
            <AltitudeMeters>593.5999755859375</AltitudeMeters>
            <DistanceMeters>NAN</DistanceMeters>
          </Trackpoint>
          <Trackpoint>
            <Time>2022-09-20T14:40:58.000Z</Time>
            <Position>
              <LatitudeDegrees>49.4252128712832927703857421875</LatitudeDegrees>
              <LongitudeDegrees>20.34943607635796070098876953125</LongitudeDegrees>
            </Position>
            <AltitudeMeters>594.4000244140625</AltitudeMeters>
            <DistanceMeters>NAN</DistanceMeters>
          </Trackpoint>
          <Trackpoint>
            <Time>2022-09-20T14:40:59.000Z</Time>
            <Position>
              <LatitudeDegrees>49.425212703645229339599609375</LatitudeDegrees>
              <LongitudeDegrees>20.34939944744110107421875</LongitudeDegrees>
            </Position>
            <AltitudeMeters>594.79998779296875</AltitudeMeters>
            <DistanceMeters>NAN</DistanceMeters>
          </Trackpoint>
          <Trackpoint>
            <Time>2022-09-20T14:41:05.000Z</Time>
            <Position>
              <LatitudeDegrees>49.42524530924856662750244140625</LatitudeDegrees>
              <LongitudeDegrees>20.34922770224511623382568359375</LongitudeDegrees>
            </Position>
            <AltitudeMeters>596</AltitudeMeters>
            <DistanceMeters>NAN</DistanceMeters>
          </Trackpoint>
          <Trackpoint>
            <Time>2022-09-20T14:41:09.000Z</Time>
            <Position>
              <LatitudeDegrees>49.425256960093975067138671875</LatitudeDegrees>
              <LongitudeDegrees>20.349135585129261016845703125</LongitudeDegrees>
            </Position>
            <AltitudeMeters>596.5999755859375</AltitudeMeters>
            <DistanceMeters>NAN</DistanceMeters>
          </Trackpoint>
          <Trackpoint>
            <Time>2022-09-20T14:41:12.000Z</Time>
            <Position>
              <LatitudeDegrees>49.42526257596909999847412109375</LatitudeDegrees>
              <LongitudeDegrees>20.34907531924545764923095703125</LongitudeDegrees>
            </Position>
            <AltitudeMeters>596.79998779296875</AltitudeMeters>
            <DistanceMeters>NAN</DistanceMeters>
          </Trackpoint>
          <Trackpoint>
            <Time>2022-09-20T14:41:13.000Z</Time>
            <Position>
              <LatitudeDegrees>49.425266347825527191162109375</LatitudeDegrees>
              <LongitudeDegrees>20.34905050881206989288330078125</LongitudeDegrees>
            </Position>
            <AltitudeMeters>597</AltitudeMeters>
            <DistanceMeters>NAN</DistanceMeters>
          </Trackpoint>
          <Trackpoint>
            <Time>2022-09-20T14:41:20.000Z</Time>
            <Position>
              <LatitudeDegrees>49.42530733533203601837158203125</LatitudeDegrees>
              <LongitudeDegrees>20.34888555295765399932861328125</LongitudeDegrees>
            </Position>
            <AltitudeMeters>598</AltitudeMeters>
            <DistanceMeters>NAN</DistanceMeters>
          </Trackpoint>
          <Trackpoint>
            <Time>2022-09-20T14:41:21.000Z</Time>
            <Position>
              <LatitudeDegrees>49.4253104366362094879150390625</LatitudeDegrees>
              <LongitudeDegrees>20.348861329257488250732421875</LongitudeDegrees>
            </Position>
            <AltitudeMeters>598</AltitudeMeters>
            <DistanceMeters>NAN</DistanceMeters>
          </Trackpoint>
          <Trackpoint>
            <Time>2022-09-20T14:41:25.000Z</Time>
            <Position>
              <LatitudeDegrees>49.42531823180615901947021484375</LatitudeDegrees>
              <LongitudeDegrees>20.348746664822101593017578125</LongitudeDegrees>
            </Position>
            <AltitudeMeters>598.5999755859375</AltitudeMeters>
            <DistanceMeters>NAN</DistanceMeters>
          </Trackpoint>
          <Trackpoint>
            <Time>2022-09-20T14:41:28.000Z</Time>
            <Position>
              <LatitudeDegrees>49.425336085259914398193359375</LatitudeDegrees>
              <LongitudeDegrees>20.34867684356868267059326171875</LongitudeDegrees>
            </Position>
            <AltitudeMeters>599.20001220703125</AltitudeMeters>
            <DistanceMeters>NAN</DistanceMeters>
          </Trackpoint>
          <Trackpoint>
            <Time>2022-09-20T14:41:31.000Z</Time>
            <Position>
              <LatitudeDegrees>49.425354190170764923095703125</LatitudeDegrees>
              <LongitudeDegrees>20.3486066870391368865966796875</LongitudeDegrees>
            </Position>
            <AltitudeMeters>599.4000244140625</AltitudeMeters>
            <DistanceMeters>NAN</DistanceMeters>
          </Trackpoint>
          <Trackpoint>
            <Time>2022-09-20T14:41:34.000Z</Time>
            <Position>
              <LatitudeDegrees>49.42537053488194942474365234375</LatitudeDegrees>
              <LongitudeDegrees>20.34852848388254642486572265625</LongitudeDegrees>
            </Position>
            <AltitudeMeters>599.5999755859375</AltitudeMeters>
            <DistanceMeters>NAN</DistanceMeters>
          </Trackpoint>
          <Trackpoint>
            <Time>2022-09-20T14:41:40.000Z</Time>
            <Position>
              <LatitudeDegrees>49.42538327537477016448974609375</LatitudeDegrees>
              <LongitudeDegrees>20.3483833931386470794677734375</LongitudeDegrees>
            </Position>
            <AltitudeMeters>600.20001220703125</AltitudeMeters>
            <DistanceMeters>NAN</DistanceMeters>
          </Trackpoint>
          <Trackpoint>
            <Time>2022-09-20T14:41:43.000Z</Time>
            <Position>
              <LatitudeDegrees>49.425379335880279541015625</LatitudeDegrees>
              <LongitudeDegrees>20.34833100624382495880126953125</LongitudeDegrees>
            </Position>
            <AltitudeMeters>600.5999755859375</AltitudeMeters>
            <DistanceMeters>NAN</DistanceMeters>
          </Trackpoint>
          <Trackpoint>
            <Time>2022-09-20T14:41:51.000Z</Time>
            <Position>
              <LatitudeDegrees>49.4253771565854549407958984375</LatitudeDegrees>
              <LongitudeDegrees>20.34814693965017795562744140625</LongitudeDegrees>
            </Position>
            <AltitudeMeters>601</AltitudeMeters>
            <DistanceMeters>NAN</DistanceMeters>
          </Trackpoint>
          <Trackpoint>
            <Time>2022-09-20T14:41:55.000Z</Time>
            <Position>
              <LatitudeDegrees>49.4253855384886264801025390625</LatitudeDegrees>
              <LongitudeDegrees>20.34806882031261920928955078125</LongitudeDegrees>
            </Position>
            <AltitudeMeters>601.20001220703125</AltitudeMeters>
            <DistanceMeters>NAN</DistanceMeters>
          </Trackpoint>
          <Trackpoint>
            <Time>2022-09-20T14:41:58.000Z</Time>
            <Position>
              <LatitudeDegrees>49.4253868795931339263916015625</LatitudeDegrees>
              <LongitudeDegrees>20.348012410104274749755859375</LongitudeDegrees>
            </Position>
            <AltitudeMeters>601.20001220703125</AltitudeMeters>
            <DistanceMeters>NAN</DistanceMeters>
          </Trackpoint>
          <Trackpoint>
            <Time>2022-09-20T14:42:07.000Z</Time>
            <Position>
              <LatitudeDegrees>49.425388388335704803466796875</LatitudeDegrees>
              <LongitudeDegrees>20.3478362224996089935302734375</LongitudeDegrees>
            </Position>
            <AltitudeMeters>602</AltitudeMeters>
            <DistanceMeters>NAN</DistanceMeters>
          </Trackpoint>
          <Trackpoint>
            <Time>2022-09-20T14:42:12.000Z</Time>
            <Position>
              <LatitudeDegrees>49.42538562230765819549560546875</LatitudeDegrees>
              <LongitudeDegrees>20.34774075262248516082763671875</LongitudeDegrees>
            </Position>
            <AltitudeMeters>602.20001220703125</AltitudeMeters>
            <DistanceMeters>NAN</DistanceMeters>
          </Trackpoint>
          <Trackpoint>
            <Time>2022-09-20T14:42:18.000Z</Time>
            <Position>
              <LatitudeDegrees>49.42537724040448665618896484375</LatitudeDegrees>
              <LongitudeDegrees>20.34760094247758388519287109375</LongitudeDegrees>
            </Position>
            <AltitudeMeters>602.5999755859375</AltitudeMeters>
            <DistanceMeters>NAN</DistanceMeters>
          </Trackpoint>
          <Trackpoint>
            <Time>2022-09-20T14:42:24.000Z</Time>
            <Position>
              <LatitudeDegrees>49.42537087015807628631591796875</LatitudeDegrees>
              <LongitudeDegrees>20.34746482037007808685302734375</LongitudeDegrees>
            </Position>
            <AltitudeMeters>603.20001220703125</AltitudeMeters>
            <DistanceMeters>NAN</DistanceMeters>
          </Trackpoint>
          <Trackpoint>
            <Time>2022-09-20T14:42:27.000Z</Time>
            <Position>
              <LatitudeDegrees>49.42535947076976299285888671875</LatitudeDegrees>
              <LongitudeDegrees>20.34739759750664234161376953125</LongitudeDegrees>
            </Position>
            <AltitudeMeters>603.20001220703125</AltitudeMeters>
            <DistanceMeters>NAN</DistanceMeters>
          </Trackpoint>
          <Trackpoint>
            <Time>2022-09-20T14:42:28.000Z</Time>
            <Position>
              <LatitudeDegrees>49.4253496639430522918701171875</LatitudeDegrees>
              <LongitudeDegrees>20.34737647511065006256103515625</LongitudeDegrees>
            </Position>
            <AltitudeMeters>603.20001220703125</AltitudeMeters>
            <DistanceMeters>NAN</DistanceMeters>
          </Trackpoint>
          <Trackpoint>
            <Time>2022-09-20T14:42:33.000Z</Time>
            <Position>
              <LatitudeDegrees>49.42532837390899658203125</LatitudeDegrees>
              <LongitudeDegrees>20.34727304242551326751708984375</LongitudeDegrees>
            </Position>
            <AltitudeMeters>603.79998779296875</AltitudeMeters>
            <DistanceMeters>NAN</DistanceMeters>
          </Trackpoint>
          <Trackpoint>
            <Time>2022-09-20T14:42:38.000Z</Time>
            <Position>
              <LatitudeDegrees>49.42533616907894611358642578125</LatitudeDegrees>
              <LongitudeDegrees>20.34716106019914150238037109375</LongitudeDegrees>
            </Position>
            <AltitudeMeters>604.20001220703125</AltitudeMeters>
            <DistanceMeters>NAN</DistanceMeters>
          </Trackpoint>
          <Trackpoint>
            <Time>2022-09-20T14:42:40.000Z</Time>
            <Position>
              <LatitudeDegrees>49.425334073603153228759765625</LatitudeDegrees>
              <LongitudeDegrees>20.34715435467660427093505859375</LongitudeDegrees>
            </Position>
            <AltitudeMeters>604.20001220703125</AltitudeMeters>
            <DistanceMeters>NAN</DistanceMeters>
          </Trackpoint>
          <Trackpoint>
            <Time>2022-09-20T14:42:44.000Z</Time>
            <Position>
              <LatitudeDegrees>49.42533164285123348236083984375</LatitudeDegrees>
              <LongitudeDegrees>20.3471584618091583251953125</LongitudeDegrees>
            </Position>
            <AltitudeMeters>604.20001220703125</AltitudeMeters>
            <DistanceMeters>NAN</DistanceMeters>
          </Trackpoint>
          <Trackpoint>
            <Time>2022-09-20T14:42:49.000Z</Time>
            <Position>
              <LatitudeDegrees>49.42533164285123348236083984375</LatitudeDegrees>
              <LongitudeDegrees>20.3471584618091583251953125</LongitudeDegrees>
            </Position>
            <AltitudeMeters>604.20001220703125</AltitudeMeters>
            <DistanceMeters>NAN</DistanceMeters>
          </Trackpoint>
          <Trackpoint>
            <Time>2022-09-20T14:42:52.000Z</Time>
            <Position>
              <LatitudeDegrees>49.42533164285123348236083984375</LatitudeDegrees>
              <LongitudeDegrees>20.3471584618091583251953125</LongitudeDegrees>
            </Position>
            <AltitudeMeters>604.20001220703125</AltitudeMeters>
            <DistanceMeters>NAN</DistanceMeters>
          </Trackpoint>
          <Trackpoint>
            <Time>2022-09-20T14:43:01.000Z</Time>
            <Position>
              <LatitudeDegrees>49.42533164285123348236083984375</LatitudeDegrees>
              <LongitudeDegrees>20.3471584618091583251953125</LongitudeDegrees>
            </Position>
            <AltitudeMeters>604.20001220703125</AltitudeMeters>
            <DistanceMeters>NAN</DistanceMeters>
          </Trackpoint>
          <Trackpoint>
            <Time>2022-09-20T14:43:07.000Z</Time>
            <Position>
              <LatitudeDegrees>49.42533306777477264404296875</LatitudeDegrees>
              <LongitudeDegrees>20.3471489064395427703857421875</LongitudeDegrees>
            </Position>
            <AltitudeMeters>604.4000244140625</AltitudeMeters>
            <DistanceMeters>NAN</DistanceMeters>
          </Trackpoint>
          <Trackpoint>
            <Time>2022-09-20T14:43:15.000Z</Time>
            <Position>
              <LatitudeDegrees>49.42533046938478946685791015625</LatitudeDegrees>
              <LongitudeDegrees>20.34712317399680614471435546875</LongitudeDegrees>
            </Position>
            <AltitudeMeters>604.4000244140625</AltitudeMeters>
            <DistanceMeters>NAN</DistanceMeters>
          </Trackpoint>
          <Trackpoint>
            <Time>2022-09-20T14:43:18.000Z</Time>
            <Position>
              <LatitudeDegrees>49.42533046938478946685791015625</LatitudeDegrees>
              <LongitudeDegrees>20.34712317399680614471435546875</LongitudeDegrees>
            </Position>
            <AltitudeMeters>604.4000244140625</AltitudeMeters>
            <DistanceMeters>NAN</DistanceMeters>
          </Trackpoint>
          <Trackpoint>
            <Time>2022-09-20T14:43:31.000Z</Time>
            <Position>
              <LatitudeDegrees>49.4253282062709331512451171875</LatitudeDegrees>
              <LongitudeDegrees>20.34710557200014591217041015625</LongitudeDegrees>
            </Position>
            <AltitudeMeters>605</AltitudeMeters>
            <DistanceMeters>NAN</DistanceMeters>
          </Trackpoint>
          <Trackpoint>
            <Time>2022-09-20T14:43:43.000Z</Time>
            <Position>
              <LatitudeDegrees>49.4253285415470600128173828125</LatitudeDegrees>
              <LongitudeDegrees>20.34703985787928104400634765625</LongitudeDegrees>
            </Position>
            <AltitudeMeters>604.79998779296875</AltitudeMeters>
            <DistanceMeters>NAN</DistanceMeters>
          </Trackpoint>
          <Trackpoint>
            <Time>2022-09-20T14:43:50.000Z</Time>
            <Position>
              <LatitudeDegrees>49.42532862536609172821044921875</LatitudeDegrees>
              <LongitudeDegrees>20.3470352478325366973876953125</LongitudeDegrees>
            </Position>
            <AltitudeMeters>604.79998779296875</AltitudeMeters>
            <DistanceMeters>NAN</DistanceMeters>
          </Trackpoint>
          <Trackpoint>
            <Time>2022-09-20T14:44:00.000Z</Time>
            <Position>
              <LatitudeDegrees>49.42532862536609172821044921875</LatitudeDegrees>
              <LongitudeDegrees>20.3470352478325366973876953125</LongitudeDegrees>
            </Position>
            <AltitudeMeters>604.79998779296875</AltitudeMeters>
            <DistanceMeters>NAN</DistanceMeters>
          </Trackpoint>
          <Trackpoint>
            <Time>2022-09-20T14:44:17.000Z</Time>
            <Position>
              <LatitudeDegrees>49.42532862536609172821044921875</LatitudeDegrees>
              <LongitudeDegrees>20.3470352478325366973876953125</LongitudeDegrees>
            </Position>
            <AltitudeMeters>605</AltitudeMeters>
            <DistanceMeters>NAN</DistanceMeters>
          </Trackpoint>
          <Trackpoint>
            <Time>2022-09-20T14:44:22.000Z</Time>
            <Position>
              <LatitudeDegrees>49.42532862536609172821044921875</LatitudeDegrees>
              <LongitudeDegrees>20.3470352478325366973876953125</LongitudeDegrees>
            </Position>
            <AltitudeMeters>605.4000244140625</AltitudeMeters>
            <DistanceMeters>NAN</DistanceMeters>
          </Trackpoint>
          <Trackpoint>
            <Time>2022-09-20T14:44:46.000Z</Time>
            <Position>
              <LatitudeDegrees>49.425318650901317596435546875</LatitudeDegrees>
              <LongitudeDegrees>20.3469822742044925689697265625</LongitudeDegrees>
            </Position>
            <AltitudeMeters>606</AltitudeMeters>
            <DistanceMeters>NAN</DistanceMeters>
          </Trackpoint>
          <Trackpoint>
            <Time>2022-09-20T14:44:58.000Z</Time>
            <Position>
              <LatitudeDegrees>49.42531622014939785003662109375</LatitudeDegrees>
              <LongitudeDegrees>20.34693743102252483367919921875</LongitudeDegrees>
            </Position>
            <AltitudeMeters>606.20001220703125</AltitudeMeters>
            <DistanceMeters>NAN</DistanceMeters>
          </Trackpoint>
          <Trackpoint>
            <Time>2022-09-20T14:45:05.000Z</Time>
            <Position>
              <LatitudeDegrees>49.42531538195908069610595703125</LatitudeDegrees>
              <LongitudeDegrees>20.34692804329097270965576171875</LongitudeDegrees>
            </Position>
            <AltitudeMeters>606.20001220703125</AltitudeMeters>
            <DistanceMeters>NAN</DistanceMeters>
          </Trackpoint>
          <Trackpoint>
            <Time>2022-09-20T14:45:12.000Z</Time>
            <Position>
              <LatitudeDegrees>49.425309598445892333984375</LatitudeDegrees>
              <LongitudeDegrees>20.34686283208429813385009765625</LongitudeDegrees>
            </Position>
            <AltitudeMeters>606.4000244140625</AltitudeMeters>
            <DistanceMeters>NAN</DistanceMeters>
          </Trackpoint>
          <Trackpoint>
            <Time>2022-09-20T14:45:24.000Z</Time>
            <Position>
              <LatitudeDegrees>49.42530280910432338714599609375</LatitudeDegrees>
              <LongitudeDegrees>20.34675411880016326904296875</LongitudeDegrees>
            </Position>
            <AltitudeMeters>607</AltitudeMeters>
            <DistanceMeters>NAN</DistanceMeters>
          </Trackpoint>
          <Trackpoint>
            <Time>2022-09-20T14:45:29.000Z</Time>
            <Position>
              <LatitudeDegrees>49.42529694177210330963134765625</LatitudeDegrees>
              <LongitudeDegrees>20.346669964492321014404296875</LongitudeDegrees>
            </Position>
            <AltitudeMeters>607</AltitudeMeters>
            <DistanceMeters>NAN</DistanceMeters>
          </Trackpoint>
          <Trackpoint>
            <Time>2022-09-20T14:45:31.000Z</Time>
            <Position>
              <LatitudeDegrees>49.42529694177210330963134765625</LatitudeDegrees>
              <LongitudeDegrees>20.346669964492321014404296875</LongitudeDegrees>
            </Position>
            <AltitudeMeters>607</AltitudeMeters>
            <DistanceMeters>NAN</DistanceMeters>
          </Trackpoint>
          <Trackpoint>
            <Time>2022-09-20T14:45:38.000Z</Time>
            <Position>
              <LatitudeDegrees>49.42529694177210330963134765625</LatitudeDegrees>
              <LongitudeDegrees>20.346669964492321014404296875</LongitudeDegrees>
            </Position>
            <AltitudeMeters>607.20001220703125</AltitudeMeters>
            <DistanceMeters>NAN</DistanceMeters>
          </Trackpoint>
          <Trackpoint>
            <Time>2022-09-20T14:45:50.000Z</Time>
            <Position>
              <LatitudeDegrees>49.42528805695474147796630859375</LatitudeDegrees>
              <LongitudeDegrees>20.3466087765991687774658203125</LongitudeDegrees>
            </Position>
            <AltitudeMeters>607.4000244140625</AltitudeMeters>
            <DistanceMeters>NAN</DistanceMeters>
          </Trackpoint>
          <Trackpoint>
            <Time>2022-09-20T14:46:19.000Z</Time>
            <Position>
              <LatitudeDegrees>49.4252819381654262542724609375</LatitudeDegrees>
              <LongitudeDegrees>20.34650458954274654388427734375</LongitudeDegrees>
            </Position>
            <AltitudeMeters>608.20001220703125</AltitudeMeters>
            <DistanceMeters>NAN</DistanceMeters>
          </Trackpoint>
          <Trackpoint>
            <Time>2022-09-20T14:46:45.000Z</Time>
            <Position>
              <LatitudeDegrees>49.42528151907026767730712890625</LatitudeDegrees>
              <LongitudeDegrees>20.3464932739734649658203125</LongitudeDegrees>
            </Position>
            <AltitudeMeters>608.4000244140625</AltitudeMeters>
            <DistanceMeters>NAN</DistanceMeters>
          </Trackpoint>
          <Trackpoint>
            <Time>2022-09-20T14:46:48.000Z</Time>
            <Position>
              <LatitudeDegrees>49.42528151907026767730712890625</LatitudeDegrees>
              <LongitudeDegrees>20.3464932739734649658203125</LongitudeDegrees>
            </Position>
            <AltitudeMeters>608.5999755859375</AltitudeMeters>
            <DistanceMeters>NAN</DistanceMeters>
          </Trackpoint>
          <Trackpoint>
            <Time>2022-09-20T14:46:55.000Z</Time>
            <Position>
              <LatitudeDegrees>49.425272047519683837890625</LatitudeDegrees>
              <LongitudeDegrees>20.34627534449100494384765625</LongitudeDegrees>
            </Position>
            <AltitudeMeters>608.5999755859375</AltitudeMeters>
            <DistanceMeters>NAN</DistanceMeters>
          </Trackpoint>
          <Trackpoint>
            <Time>2022-09-20T14:46:58.000Z</Time>
            <Position>
              <LatitudeDegrees>49.4252693653106689453125</LatitudeDegrees>
              <LongitudeDegrees>20.346213318407535552978515625</LongitudeDegrees>
            </Position>
            <AltitudeMeters>608.5999755859375</AltitudeMeters>
            <DistanceMeters>NAN</DistanceMeters>
          </Trackpoint>
          <Trackpoint>
            <Time>2022-09-20T14:46:59.000Z</Time>
            <Position>
              <LatitudeDegrees>49.42527213133871555328369140625</LatitudeDegrees>
              <LongitudeDegrees>20.34613964147865772247314453125</LongitudeDegrees>
            </Position>
            <AltitudeMeters>608.79998779296875</AltitudeMeters>
            <DistanceMeters>NAN</DistanceMeters>
          </Trackpoint>
          <Trackpoint>
            <Time>2022-09-20T14:47:02.000Z</Time>
            <Position>
              <LatitudeDegrees>49.4252812676131725311279296875</LatitudeDegrees>
              <LongitudeDegrees>20.34603067673742771148681640625</LongitudeDegrees>
            </Position>
            <AltitudeMeters>609.20001220703125</AltitudeMeters>
            <DistanceMeters>NAN</DistanceMeters>
          </Trackpoint>
          <Trackpoint>
            <Time>2022-09-20T14:47:04.000Z</Time>
            <Position>
              <LatitudeDegrees>49.42529073916375637054443359375</LatitudeDegrees>
              <LongitudeDegrees>20.34594233147799968719482421875</LongitudeDegrees>
            </Position>
            <AltitudeMeters>609.5999755859375</AltitudeMeters>
            <DistanceMeters>NAN</DistanceMeters>
          </Trackpoint>
          <Trackpoint>
            <Time>2022-09-20T14:47:07.000Z</Time>
            <Position>
              <LatitudeDegrees>49.42532141692936420440673828125</LatitudeDegrees>
              <LongitudeDegrees>20.34579162485897541046142578125</LongitudeDegrees>
            </Position>
            <AltitudeMeters>609.79998779296875</AltitudeMeters>
            <DistanceMeters>NAN</DistanceMeters>
          </Trackpoint>
          <Trackpoint>
            <Time>2022-09-20T14:47:13.000Z</Time>
            <Position>
              <LatitudeDegrees>49.42540858872234821319580078125</LatitudeDegrees>
              <LongitudeDegrees>20.3455276787281036376953125</LongitudeDegrees>
            </Position>
            <AltitudeMeters>610.5999755859375</AltitudeMeters>
            <DistanceMeters>NAN</DistanceMeters>
          </Trackpoint>
          <Trackpoint>
            <Time>2022-09-20T14:47:18.000Z</Time>
            <Position>
              <LatitudeDegrees>49.4254763983190059661865234375</LatitudeDegrees>
              <LongitudeDegrees>20.34536800347268581390380859375</LongitudeDegrees>
            </Position>
            <AltitudeMeters>611.20001220703125</AltitudeMeters>
            <DistanceMeters>NAN</DistanceMeters>
          </Trackpoint>
          <Trackpoint>
            <Time>2022-09-20T14:47:20.000Z</Time>
            <Position>
              <LatitudeDegrees>49.42553180269896984100341796875</LatitudeDegrees>
              <LongitudeDegrees>20.345308072865009307861328125</LongitudeDegrees>
            </Position>
            <AltitudeMeters>611.4000244140625</AltitudeMeters>
            <DistanceMeters>NAN</DistanceMeters>
          </Trackpoint>
          <Trackpoint>
            <Time>2022-09-20T14:47:23.000Z</Time>
            <Position>
              <LatitudeDegrees>49.4255890510976314544677734375</LatitudeDegrees>
              <LongitudeDegrees>20.3452334739267826080322265625</LongitudeDegrees>
            </Position>
            <AltitudeMeters>611.79998779296875</AltitudeMeters>
            <DistanceMeters>NAN</DistanceMeters>
          </Trackpoint>
          <Trackpoint>
            <Time>2022-09-20T14:47:27.000Z</Time>
            <Position>
              <LatitudeDegrees>49.4256453774869441986083984375</LatitudeDegrees>
              <LongitudeDegrees>20.3451932407915592193603515625</LongitudeDegrees>
            </Position>
            <AltitudeMeters>612</AltitudeMeters>
            <DistanceMeters>NAN</DistanceMeters>
          </Trackpoint>
          <Trackpoint>
            <Time>2022-09-20T14:47:35.000Z</Time>
            <Position>
              <LatitudeDegrees>49.42578661255538463592529296875</LatitudeDegrees>
              <LongitudeDegrees>20.34514755941927433013916015625</LongitudeDegrees>
            </Position>
            <AltitudeMeters>612.79998779296875</AltitudeMeters>
            <DistanceMeters>NAN</DistanceMeters>
          </Trackpoint>
          <Trackpoint>
            <Time>2022-09-20T14:47:38.000Z</Time>
            <Position>
              <LatitudeDegrees>49.4258458726108074188232421875</LatitudeDegrees>
              <LongitudeDegrees>20.345142446458339691162109375</LongitudeDegrees>
            </Position>
            <AltitudeMeters>613.20001220703125</AltitudeMeters>
            <DistanceMeters>NAN</DistanceMeters>
          </Trackpoint>
          <Trackpoint>
            <Time>2022-09-20T14:47:40.000Z</Time>
            <Position>
              <LatitudeDegrees>49.425880908966064453125</LatitudeDegrees>
              <LongitudeDegrees>20.345151163637638092041015625</LongitudeDegrees>
            </Position>
            <AltitudeMeters>613.20001220703125</AltitudeMeters>
            <DistanceMeters>NAN</DistanceMeters>
          </Trackpoint>
          <Trackpoint>
            <Time>2022-09-20T14:47:45.000Z</Time>
            <Position>
              <LatitudeDegrees>49.42594871856272220611572265625</LatitudeDegrees>
              <LongitudeDegrees>20.34515610896050930023193359375</LongitudeDegrees>
            </Position>
            <AltitudeMeters>613.79998779296875</AltitudeMeters>
            <DistanceMeters>NAN</DistanceMeters>
          </Trackpoint>
          <Trackpoint>
            <Time>2022-09-20T14:47:46.000Z</Time>
            <Position>
              <LatitudeDegrees>49.425963051617145538330078125</LatitudeDegrees>
              <LongitudeDegrees>20.34516063518822193145751953125</LongitudeDegrees>
            </Position>
            <AltitudeMeters>614</AltitudeMeters>
            <DistanceMeters>NAN</DistanceMeters>
          </Trackpoint>
          <Trackpoint>
            <Time>2022-09-20T14:47:53.000Z</Time>
            <Position>
              <LatitudeDegrees>49.426081739366054534912109375</LatitudeDegrees>
              <LongitudeDegrees>20.34521226771175861358642578125</LongitudeDegrees>
            </Position>
            <AltitudeMeters>614.5999755859375</AltitudeMeters>
            <DistanceMeters>NAN</DistanceMeters>
          </Trackpoint>
          <Trackpoint>
            <Time>2022-09-20T14:48:00.000Z</Time>
            <Position>
              <LatitudeDegrees>49.42617201246321201324462890625</LatitudeDegrees>
              <LongitudeDegrees>20.34537521190941333770751953125</LongitudeDegrees>
            </Position>
            <AltitudeMeters>614.79998779296875</AltitudeMeters>
            <DistanceMeters>NAN</DistanceMeters>
          </Trackpoint>
          <Trackpoint>
            <Time>2022-09-20T14:48:01.000Z</Time>
            <Position>
              <LatitudeDegrees>49.4261828251183032989501953125</LatitudeDegrees>
              <LongitudeDegrees>20.34539432264864444732666015625</LongitudeDegrees>
            </Position>
            <AltitudeMeters>615</AltitudeMeters>
            <DistanceMeters>NAN</DistanceMeters>
          </Trackpoint>
          <Trackpoint>
            <Time>2022-09-20T14:48:04.000Z</Time>
            <Position>
              <LatitudeDegrees>49.42621207796037197113037109375</LatitudeDegrees>
              <LongitudeDegrees>20.34547462128102779388427734375</LongitudeDegrees>
            </Position>
            <AltitudeMeters>615.4000244140625</AltitudeMeters>
            <DistanceMeters>NAN</DistanceMeters>
          </Trackpoint>
          <Trackpoint>
            <Time>2022-09-20T14:48:06.000Z</Time>
            <Position>
              <LatitudeDegrees>49.4262287579476833343505859375</LatitudeDegrees>
              <LongitudeDegrees>20.34552591852843761444091796875</LongitudeDegrees>
            </Position>
            <AltitudeMeters>615.5999755859375</AltitudeMeters>
            <DistanceMeters>NAN</DistanceMeters>
          </Trackpoint>
          <Trackpoint>
            <Time>2022-09-20T14:48:07.000Z</Time>
            <Position>
              <LatitudeDegrees>49.42623772658407688140869140625</LatitudeDegrees>
              <LongitudeDegrees>20.34554553218185901641845703125</LongitudeDegrees>
            </Position>
            <AltitudeMeters>615.5999755859375</AltitudeMeters>
            <DistanceMeters>NAN</DistanceMeters>
          </Trackpoint>
          <Trackpoint>
            <Time>2022-09-20T14:48:15.000Z</Time>
            <Position>
              <LatitudeDegrees>49.42629924975335597991943359375</LatitudeDegrees>
              <LongitudeDegrees>20.34577754326164722442626953125</LongitudeDegrees>
            </Position>
            <AltitudeMeters>616</AltitudeMeters>
            <DistanceMeters>NAN</DistanceMeters>
          </Trackpoint>
          <Trackpoint>
            <Time>2022-09-20T14:48:16.000Z</Time>
            <Position>
              <LatitudeDegrees>49.42630008794367313385009765625</LatitudeDegrees>
              <LongitudeDegrees>20.34579983912408351898193359375</LongitudeDegrees>
            </Position>
            <AltitudeMeters>616</AltitudeMeters>
            <DistanceMeters>NAN</DistanceMeters>
          </Trackpoint>
          <Trackpoint>
            <Time>2022-09-20T14:48:21.000Z</Time>
            <Position>
              <LatitudeDegrees>49.42631383426487445831298828125</LatitudeDegrees>
              <LongitudeDegrees>20.3459177725017070770263671875</LongitudeDegrees>
            </Position>
            <AltitudeMeters>616.5999755859375</AltitudeMeters>
            <DistanceMeters>NAN</DistanceMeters>
          </Trackpoint>
          <Trackpoint>
            <Time>2022-09-20T14:48:26.000Z</Time>
            <Position>
              <LatitudeDegrees>49.42632607184350490570068359375</LatitudeDegrees>
              <LongitudeDegrees>20.34605464898049831390380859375</LongitudeDegrees>
            </Position>
            <AltitudeMeters>617</AltitudeMeters>
            <DistanceMeters>NAN</DistanceMeters>
          </Trackpoint>
          <Trackpoint>
            <Time>2022-09-20T14:48:27.000Z</Time>
            <Position>
              <LatitudeDegrees>49.4263236410915851593017578125</LatitudeDegrees>
              <LongitudeDegrees>20.34608029760420322418212890625</LongitudeDegrees>
            </Position>
            <AltitudeMeters>617.20001220703125</AltitudeMeters>
            <DistanceMeters>NAN</DistanceMeters>
          </Trackpoint>
          <Trackpoint>
            <Time>2022-09-20T14:48:28.000Z</Time>
            <Position>
              <LatitudeDegrees>49.42632523365318775177001953125</LatitudeDegrees>
              <LongitudeDegrees>20.34610569477081298828125</LongitudeDegrees>
            </Position>
            <AltitudeMeters>617.20001220703125</AltitudeMeters>
            <DistanceMeters>NAN</DistanceMeters>
          </Trackpoint>
          <Trackpoint>
            <Time>2022-09-20T14:48:30.000Z</Time>
            <Position>
              <LatitudeDegrees>49.42632422782480716705322265625</LatitudeDegrees>
              <LongitudeDegrees>20.34615238197147846221923828125</LongitudeDegrees>
            </Position>
            <AltitudeMeters>617.5999755859375</AltitudeMeters>
            <DistanceMeters>NAN</DistanceMeters>
          </Trackpoint>
          <Trackpoint>
            <Time>2022-09-20T14:48:33.000Z</Time>
            <Position>
              <LatitudeDegrees>49.4263189472258090972900390625</LatitudeDegrees>
              <LongitudeDegrees>20.3461712412536144256591796875</LongitudeDegrees>
            </Position>
            <AltitudeMeters>617.79998779296875</AltitudeMeters>
            <DistanceMeters>NAN</DistanceMeters>
          </Trackpoint>
          <Trackpoint>
            <Time>2022-09-20T14:48:36.000Z</Time>
            <Position>
              <LatitudeDegrees>49.4263189472258090972900390625</LatitudeDegrees>
              <LongitudeDegrees>20.3461712412536144256591796875</LongitudeDegrees>
            </Position>
            <AltitudeMeters>618</AltitudeMeters>
            <DistanceMeters>NAN</DistanceMeters>
          </Trackpoint>
          <Trackpoint>
            <Time>2022-09-20T14:48:41.000Z</Time>
            <Position>
              <LatitudeDegrees>49.42632875405251979827880859375</LatitudeDegrees>
              <LongitudeDegrees>20.34617551602423191070556640625</LongitudeDegrees>
            </Position>
            <AltitudeMeters>618</AltitudeMeters>
            <DistanceMeters>NAN</DistanceMeters>
          </Trackpoint>
          <Trackpoint>
            <Time>2022-09-20T14:48:44.000Z</Time>
            <Position>
              <LatitudeDegrees>49.42632875405251979827880859375</LatitudeDegrees>
              <LongitudeDegrees>20.34617551602423191070556640625</LongitudeDegrees>
            </Position>
            <AltitudeMeters>618.20001220703125</AltitudeMeters>
            <DistanceMeters>NAN</DistanceMeters>
          </Trackpoint>
          <Trackpoint>
            <Time>2022-09-20T14:48:56.000Z</Time>
            <Position>
              <LatitudeDegrees>49.42632875405251979827880859375</LatitudeDegrees>
              <LongitudeDegrees>20.34617551602423191070556640625</LongitudeDegrees>
            </Position>
            <AltitudeMeters>618.4000244140625</AltitudeMeters>
            <DistanceMeters>NAN</DistanceMeters>
          </Trackpoint>
          <Trackpoint>
            <Time>2022-09-20T14:48:57.000Z</Time>
            <Position>
              <LatitudeDegrees>49.42632875405251979827880859375</LatitudeDegrees>
              <LongitudeDegrees>20.34617551602423191070556640625</LongitudeDegrees>
            </Position>
            <AltitudeMeters>618.4000244140625</AltitudeMeters>
            <DistanceMeters>NAN</DistanceMeters>
          </Trackpoint>
          <Trackpoint>
            <Time>2022-09-20T14:49:02.000Z</Time>
            <Position>
              <LatitudeDegrees>49.42632875405251979827880859375</LatitudeDegrees>
              <LongitudeDegrees>20.34617551602423191070556640625</LongitudeDegrees>
            </Position>
            <AltitudeMeters>618.20001220703125</AltitudeMeters>
            <DistanceMeters>NAN</DistanceMeters>
          </Trackpoint>
          <Trackpoint>
            <Time>2022-09-20T14:49:08.000Z</Time>
            <Position>
              <LatitudeDegrees>49.4263286702334880828857421875</LatitudeDegrees>
              <LongitudeDegrees>20.34617652185261249542236328125</LongitudeDegrees>
            </Position>
            <AltitudeMeters>618.20001220703125</AltitudeMeters>
            <DistanceMeters>NAN</DistanceMeters>
          </Trackpoint>
          <Trackpoint>
            <Time>2022-09-20T14:49:10.000Z</Time>
            <Position>
              <LatitudeDegrees>49.42633621394634246826171875</LatitudeDegrees>
              <LongitudeDegrees>20.346186496317386627197265625</LongitudeDegrees>
            </Position>
            <AltitudeMeters>618.20001220703125</AltitudeMeters>
            <DistanceMeters>NAN</DistanceMeters>
          </Trackpoint>
          <Trackpoint>
            <Time>2022-09-20T14:49:16.000Z</Time>
            <Position>
              <LatitudeDegrees>49.426329843699932098388671875</LatitudeDegrees>
              <LongitudeDegrees>20.346199236810207366943359375</LongitudeDegrees>
            </Position>
            <AltitudeMeters>618.20001220703125</AltitudeMeters>
            <DistanceMeters>NAN</DistanceMeters>
          </Trackpoint>
          <Trackpoint>
            <Time>2022-09-20T14:49:17.000Z</Time>
            <Position>
              <LatitudeDegrees>49.42632808350026607513427734375</LatitudeDegrees>
              <LongitudeDegrees>20.34622371196746826171875</LongitudeDegrees>
            </Position>
            <AltitudeMeters>618.4000244140625</AltitudeMeters>
            <DistanceMeters>NAN</DistanceMeters>
          </Trackpoint>
          <Trackpoint>
            <Time>2022-09-20T14:49:22.000Z</Time>
            <Position>
              <LatitudeDegrees>49.4263202883303165435791015625</LatitudeDegrees>
              <LongitudeDegrees>20.346277020871639251708984375</LongitudeDegrees>
            </Position>
            <AltitudeMeters>618.5999755859375</AltitudeMeters>
            <DistanceMeters>NAN</DistanceMeters>
          </Trackpoint>
          <Trackpoint>
            <Time>2022-09-20T14:49:26.000Z</Time>
            <Position>
              <LatitudeDegrees>49.42631986923515796661376953125</LatitudeDegrees>
              <LongitudeDegrees>20.34628062509000301361083984375</LongitudeDegrees>
            </Position>
            <AltitudeMeters>619</AltitudeMeters>
            <DistanceMeters>NAN</DistanceMeters>
          </Trackpoint>
          <Trackpoint>
            <Time>2022-09-20T14:49:29.000Z</Time>
            <Position>
              <LatitudeDegrees>49.42633663304150104522705078125</LatitudeDegrees>
              <LongitudeDegrees>20.34631700254976749420166015625</LongitudeDegrees>
            </Position>
            <AltitudeMeters>619.20001220703125</AltitudeMeters>
            <DistanceMeters>NAN</DistanceMeters>
          </Trackpoint>
          <Trackpoint>
            <Time>2022-09-20T14:49:30.000Z</Time>
            <Position>
              <LatitudeDegrees>49.42634836770594120025634765625</LatitudeDegrees>
              <LongitudeDegrees>20.34634583629667758941650390625</LongitudeDegrees>
            </Position>
            <AltitudeMeters>619.20001220703125</AltitudeMeters>
            <DistanceMeters>NAN</DistanceMeters>
          </Trackpoint>
          <Trackpoint>
            <Time>2022-09-20T14:49:31.000Z</Time>
            <Position>
              <LatitudeDegrees>49.42634987644851207733154296875</LatitudeDegrees>
              <LongitudeDegrees>20.346360839903354644775390625</LongitudeDegrees>
            </Position>
            <AltitudeMeters>619.4000244140625</AltitudeMeters>
            <DistanceMeters>NAN</DistanceMeters>
          </Trackpoint>
          <Trackpoint>
            <Time>2022-09-20T14:49:35.000Z</Time>
            <Position>
              <LatitudeDegrees>49.4263849966228008270263671875</LatitudeDegrees>
              <LongitudeDegrees>20.3464518673717975616455078125</LongitudeDegrees>
            </Position>
            <AltitudeMeters>619.79998779296875</AltitudeMeters>
            <DistanceMeters>NAN</DistanceMeters>
          </Trackpoint>
          <Trackpoint>
            <Time>2022-09-20T14:49:37.000Z</Time>
            <Position>
              <LatitudeDegrees>49.426393210887908935546875</LatitudeDegrees>
              <LongitudeDegrees>20.346492268145084381103515625</LongitudeDegrees>
            </Position>
            <AltitudeMeters>620.20001220703125</AltitudeMeters>
            <DistanceMeters>NAN</DistanceMeters>
          </Trackpoint>
          <Trackpoint>
            <Time>2022-09-20T14:49:38.000Z</Time>
            <Position>
              <LatitudeDegrees>49.42639145068824291229248046875</LatitudeDegrees>
              <LongitudeDegrees>20.3465068526566028594970703125</LongitudeDegrees>
            </Position>
            <AltitudeMeters>620.20001220703125</AltitudeMeters>
            <DistanceMeters>NAN</DistanceMeters>
          </Trackpoint>
          <Trackpoint>
            <Time>2022-09-20T14:49:39.000Z</Time>
            <Position>
              <LatitudeDegrees>49.42638357169926166534423828125</LatitudeDegrees>
              <LongitudeDegrees>20.3465273045003414154052734375</LongitudeDegrees>
            </Position>
            <AltitudeMeters>620.4000244140625</AltitudeMeters>
            <DistanceMeters>NAN</DistanceMeters>
          </Trackpoint>
          <Trackpoint>
            <Time>2022-09-20T14:49:41.000Z</Time>
            <Position>
              <LatitudeDegrees>49.42638021893799304962158203125</LatitudeDegrees>
              <LongitudeDegrees>20.34657198004424571990966796875</LongitudeDegrees>
            </Position>
            <AltitudeMeters>620.5999755859375</AltitudeMeters>
            <DistanceMeters>NAN</DistanceMeters>
          </Trackpoint>
          <Trackpoint>
            <Time>2022-09-20T14:49:42.000Z</Time>
            <Position>
              <LatitudeDegrees>49.42637535743415355682373046875</LatitudeDegrees>
              <LongitudeDegrees>20.34659586846828460693359375</LongitudeDegrees>
            </Position>
            <AltitudeMeters>620.5999755859375</AltitudeMeters>
            <DistanceMeters>NAN</DistanceMeters>
          </Trackpoint>
          <Trackpoint>
            <Time>2022-09-20T14:49:45.000Z</Time>
            <Position>
              <LatitudeDegrees>49.42637317813932895660400390625</LatitudeDegrees>
              <LongitudeDegrees>20.34666669555008411407470703125</LongitudeDegrees>
            </Position>
            <AltitudeMeters>620.79998779296875</AltitudeMeters>
            <DistanceMeters>NAN</DistanceMeters>
          </Trackpoint>
          <Trackpoint>
            <Time>2022-09-20T14:49:48.000Z</Time>
            <Position>
              <LatitudeDegrees>49.42638575099408626556396484375</LatitudeDegrees>
              <LongitudeDegrees>20.3467241115868091583251953125</LongitudeDegrees>
            </Position>
            <AltitudeMeters>620.79998779296875</AltitudeMeters>
            <DistanceMeters>NAN</DistanceMeters>
          </Trackpoint>
          <Trackpoint>
            <Time>2022-09-20T14:49:53.000Z</Time>
            <Position>
              <LatitudeDegrees>49.426405616104602813720703125</LatitudeDegrees>
              <LongitudeDegrees>20.346786975860595703125</LongitudeDegrees>
            </Position>
            <AltitudeMeters>621.4000244140625</AltitudeMeters>
            <DistanceMeters>NAN</DistanceMeters>
          </Trackpoint>
          <Trackpoint>
            <Time>2022-09-20T14:49:55.000Z</Time>
            <Position>
              <LatitudeDegrees>49.42641475237905979156494140625</LatitudeDegrees>
              <LongitudeDegrees>20.34682611934840679168701171875</LongitudeDegrees>
            </Position>
            <AltitudeMeters>621.4000244140625</AltitudeMeters>
            <DistanceMeters>NAN</DistanceMeters>
          </Trackpoint>
          <Trackpoint>
            <Time>2022-09-20T14:50:01.000Z</Time>
            <Position>
              <LatitudeDegrees>49.4264587573707103729248046875</LatitudeDegrees>
              <LongitudeDegrees>20.34698269329965114593505859375</LongitudeDegrees>
            </Position>
            <AltitudeMeters>621.79998779296875</AltitudeMeters>
            <DistanceMeters>NAN</DistanceMeters>
          </Trackpoint>
          <Trackpoint>
            <Time>2022-09-20T14:50:05.000Z</Time>
            <Position>
              <LatitudeDegrees>49.4264738447964191436767578125</LatitudeDegrees>
              <LongitudeDegrees>20.347099788486957550048828125</LongitudeDegrees>
            </Position>
            <AltitudeMeters>622</AltitudeMeters>
            <DistanceMeters>NAN</DistanceMeters>
          </Trackpoint>
          <Trackpoint>
            <Time>2022-09-20T14:50:07.000Z</Time>
            <Position>
              <LatitudeDegrees>49.42645917646586894989013671875</LatitudeDegrees>
              <LongitudeDegrees>20.3471113555133342742919921875</LongitudeDegrees>
            </Position>
            <AltitudeMeters>622.20001220703125</AltitudeMeters>
            <DistanceMeters>NAN</DistanceMeters>
          </Trackpoint>
          <Trackpoint>
            <Time>2022-09-20T14:50:11.000Z</Time>
            <Position>
              <LatitudeDegrees>49.426471330225467681884765625</LatitudeDegrees>
              <LongitudeDegrees>20.3471294604241847991943359375</LongitudeDegrees>
            </Position>
            <AltitudeMeters>622.4000244140625</AltitudeMeters>
            <DistanceMeters>NAN</DistanceMeters>
          </Trackpoint>
          <Trackpoint>
            <Time>2022-09-20T14:50:12.000Z</Time>
            <Position>
              <LatitudeDegrees>49.4264684803783893585205078125</LatitudeDegrees>
              <LongitudeDegrees>20.34713339991867542266845703125</LongitudeDegrees>
            </Position>
            <AltitudeMeters>622.4000244140625</AltitudeMeters>
            <DistanceMeters>NAN</DistanceMeters>
          </Trackpoint>
          <Trackpoint>
            <Time>2022-09-20T14:50:17.000Z</Time>
            <Position>
              <LatitudeDegrees>49.426425732672214508056640625</LatitudeDegrees>
              <LongitudeDegrees>20.34714178182184696197509765625</LongitudeDegrees>
            </Position>
            <AltitudeMeters>622.5999755859375</AltitudeMeters>
            <DistanceMeters>NAN</DistanceMeters>
          </Trackpoint>
          <Trackpoint>
            <Time>2022-09-20T14:50:23.000Z</Time>
            <Position>
              <LatitudeDegrees>49.426402933895587921142578125</LatitudeDegrees>
              <LongitudeDegrees>20.347189642488956451416015625</LongitudeDegrees>
            </Position>
            <AltitudeMeters>622.5999755859375</AltitudeMeters>
            <DistanceMeters>NAN</DistanceMeters>
          </Trackpoint>
          <Trackpoint>
            <Time>2022-09-20T14:50:31.000Z</Time>
            <Position>
              <LatitudeDegrees>49.4263984076678752899169921875</LatitudeDegrees>
              <LongitudeDegrees>20.3471991978585720062255859375</LongitudeDegrees>
            </Position>
            <AltitudeMeters>623</AltitudeMeters>
            <DistanceMeters>NAN</DistanceMeters>
          </Trackpoint>
          <Trackpoint>
            <Time>2022-09-20T14:50:47.000Z</Time>
            <Position>
              <LatitudeDegrees>49.426395557820796966552734375</LatitudeDegrees>
              <LongitudeDegrees>20.34721084870398044586181640625</LongitudeDegrees>
            </Position>
            <AltitudeMeters>623.20001220703125</AltitudeMeters>
            <DistanceMeters>NAN</DistanceMeters>
          </Trackpoint>
          <Trackpoint>
            <Time>2022-09-20T14:50:51.000Z</Time>
            <Position>
              <LatitudeDegrees>49.42639832384884357452392578125</LatitudeDegrees>
              <LongitudeDegrees>20.34723817370831966400146484375</LongitudeDegrees>
            </Position>
            <AltitudeMeters>623.4000244140625</AltitudeMeters>
            <DistanceMeters>NAN</DistanceMeters>
          </Trackpoint>
          <Trackpoint>
            <Time>2022-09-20T14:50:52.000Z</Time>
            <Position>
              <LatitudeDegrees>49.42639832384884357452392578125</LatitudeDegrees>
              <LongitudeDegrees>20.34723817370831966400146484375</LongitudeDegrees>
            </Position>
            <AltitudeMeters>623.5999755859375</AltitudeMeters>
            <DistanceMeters>NAN</DistanceMeters>
          </Trackpoint>
          <Trackpoint>
            <Time>2022-09-20T14:51:01.000Z</Time>
            <Position>
              <LatitudeDegrees>49.4263977371156215667724609375</LatitudeDegrees>
              <LongitudeDegrees>20.34724269993603229522705078125</LongitudeDegrees>
            </Position>
            <AltitudeMeters>624.20001220703125</AltitudeMeters>
            <DistanceMeters>NAN</DistanceMeters>
          </Trackpoint>
          <Trackpoint>
            <Time>2022-09-20T14:51:02.000Z</Time>
            <Position>
              <LatitudeDegrees>49.4263970665633678436279296875</LatitudeDegrees>
              <LongitudeDegrees>20.3472501598298549652099609375</LongitudeDegrees>
            </Position>
            <AltitudeMeters>624.4000244140625</AltitudeMeters>
            <DistanceMeters>NAN</DistanceMeters>
          </Trackpoint>
          <Trackpoint>
            <Time>2022-09-20T14:51:04.000Z</Time>
            <Position>
              <LatitudeDegrees>49.42639580927789211273193359375</LatitudeDegrees>
              <LongitudeDegrees>20.347258709371089935302734375</LongitudeDegrees>
            </Position>
            <AltitudeMeters>624.4000244140625</AltitudeMeters>
            <DistanceMeters>NAN</DistanceMeters>
          </Trackpoint>
          <Trackpoint>
            <Time>2022-09-20T14:51:08.000Z</Time>
            <Position>
              <LatitudeDegrees>49.426352977752685546875</LatitudeDegrees>
              <LongitudeDegrees>20.34732936881482601165771484375</LongitudeDegrees>
            </Position>
            <AltitudeMeters>624.5999755859375</AltitudeMeters>
            <DistanceMeters>NAN</DistanceMeters>
          </Trackpoint>
          <Trackpoint>
            <Time>2022-09-20T14:51:10.000Z</Time>
            <Position>
              <LatitudeDegrees>49.42634820006787776947021484375</LatitudeDegrees>
              <LongitudeDegrees>20.3473810851573944091796875</LongitudeDegrees>
            </Position>
            <AltitudeMeters>624.79998779296875</AltitudeMeters>
            <DistanceMeters>NAN</DistanceMeters>
          </Trackpoint>
          <Trackpoint>
            <Time>2022-09-20T14:51:14.000Z</Time>
            <Position>
              <LatitudeDegrees>49.42634023725986480712890625</LatitudeDegrees>
              <LongitudeDegrees>20.34741184674203395843505859375</LongitudeDegrees>
            </Position>
            <AltitudeMeters>625</AltitudeMeters>
            <DistanceMeters>NAN</DistanceMeters>
          </Trackpoint>
          <Trackpoint>
            <Time>2022-09-20T14:51:19.000Z</Time>
            <Position>
              <LatitudeDegrees>49.42634032107889652252197265625</LatitudeDegrees>
              <LongitudeDegrees>20.34741184674203395843505859375</LongitudeDegrees>
            </Position>
            <AltitudeMeters>625</AltitudeMeters>
            <DistanceMeters>NAN</DistanceMeters>
          </Trackpoint>
          <Trackpoint>
            <Time>2022-09-20T14:51:21.000Z</Time>
            <Position>
              <LatitudeDegrees>49.42634032107889652252197265625</LatitudeDegrees>
              <LongitudeDegrees>20.34741184674203395843505859375</LongitudeDegrees>
            </Position>
            <AltitudeMeters>625</AltitudeMeters>
            <DistanceMeters>NAN</DistanceMeters>
          </Trackpoint>
          <Trackpoint>
            <Time>2022-09-20T14:51:35.000Z</Time>
            <Position>
              <LatitudeDegrees>49.4263434223830699920654296875</LatitudeDegrees>
              <LongitudeDegrees>20.3474134393036365509033203125</LongitudeDegrees>
            </Position>
            <AltitudeMeters>625</AltitudeMeters>
            <DistanceMeters>NAN</DistanceMeters>
          </Trackpoint>
          <Trackpoint>
            <Time>2022-09-20T14:51:37.000Z</Time>
            <Position>
              <LatitudeDegrees>49.42635423503816127777099609375</LatitudeDegrees>
              <LongitudeDegrees>20.34741704352200031280517578125</LongitudeDegrees>
            </Position>
            <AltitudeMeters>625.20001220703125</AltitudeMeters>
            <DistanceMeters>NAN</DistanceMeters>
          </Trackpoint>
          <Trackpoint>
            <Time>2022-09-20T14:51:52.000Z</Time>
            <Position>
              <LatitudeDegrees>49.42636680789291858673095703125</LatitudeDegrees>
              <LongitudeDegrees>20.34752793610095977783203125</LongitudeDegrees>
            </Position>
            <AltitudeMeters>625.5999755859375</AltitudeMeters>
            <DistanceMeters>NAN</DistanceMeters>
          </Trackpoint>
          <Trackpoint>
            <Time>2022-09-20T14:51:54.000Z</Time>
            <Position>
              <LatitudeDegrees>49.4263757765293121337890625</LatitudeDegrees>
              <LongitudeDegrees>20.34756456501781940460205078125</LongitudeDegrees>
            </Position>
            <AltitudeMeters>625.5999755859375</AltitudeMeters>
            <DistanceMeters>NAN</DistanceMeters>
          </Trackpoint>
          <Trackpoint>
            <Time>2022-09-20T14:51:57.000Z</Time>
            <Position>
              <LatitudeDegrees>49.42638156004250049591064453125</LatitudeDegrees>
              <LongitudeDegrees>20.347637236118316650390625</LongitudeDegrees>
            </Position>
            <AltitudeMeters>625.79998779296875</AltitudeMeters>
            <DistanceMeters>NAN</DistanceMeters>
          </Trackpoint>
          <Trackpoint>
            <Time>2022-09-20T14:52:01.000Z</Time>
            <Position>
              <LatitudeDegrees>49.4263974018394947052001953125</LatitudeDegrees>
              <LongitudeDegrees>20.347724072635173797607421875</LongitudeDegrees>
            </Position>
            <AltitudeMeters>626</AltitudeMeters>
            <DistanceMeters>NAN</DistanceMeters>
          </Trackpoint>
          <Trackpoint>
            <Time>2022-09-20T14:52:06.000Z</Time>
            <Position>
              <LatitudeDegrees>49.426383487880229949951171875</LatitudeDegrees>
              <LongitudeDegrees>20.347762964665889739990234375</LongitudeDegrees>
            </Position>
            <AltitudeMeters>626.5999755859375</AltitudeMeters>
            <DistanceMeters>NAN</DistanceMeters>
          </Trackpoint>
          <Trackpoint>
            <Time>2022-09-20T14:52:09.000Z</Time>
            <Position>
              <LatitudeDegrees>49.4263853318989276885986328125</LatitudeDegrees>
              <LongitudeDegrees>20.34783245064318180084228515625</LongitudeDegrees>
            </Position>
            <AltitudeMeters>626.79998779296875</AltitudeMeters>
            <DistanceMeters>NAN</DistanceMeters>
          </Trackpoint>
          <Trackpoint>
            <Time>2022-09-20T14:52:10.000Z</Time>
            <Position>
              <LatitudeDegrees>49.4263836555182933807373046875</LatitudeDegrees>
              <LongitudeDegrees>20.34785139374434947967529296875</LongitudeDegrees>
            </Position>
            <AltitudeMeters>626.79998779296875</AltitudeMeters>
            <DistanceMeters>NAN</DistanceMeters>
          </Trackpoint>
          <Trackpoint>
            <Time>2022-09-20T14:52:11.000Z</Time>
            <Position>
              <LatitudeDegrees>49.42638541571795940399169921875</LatitudeDegrees>
              <LongitudeDegrees>20.34786748699843883514404296875</LongitudeDegrees>
            </Position>
            <AltitudeMeters>627</AltitudeMeters>
            <DistanceMeters>NAN</DistanceMeters>
          </Trackpoint>
          <Trackpoint>
            <Time>2022-09-20T14:52:14.000Z</Time>
            <Position>
              <LatitudeDegrees>49.42639731802046298980712890625</LatitudeDegrees>
              <LongitudeDegrees>20.34793068654835224151611328125</LongitudeDegrees>
            </Position>
            <AltitudeMeters>627.20001220703125</AltitudeMeters>
            <DistanceMeters>NAN</DistanceMeters>
          </Trackpoint>
          <Trackpoint>
            <Time>2022-09-20T14:52:19.000Z</Time>
            <Position>
              <LatitudeDegrees>49.42641123197972774505615234375</LatitudeDegrees>
              <LongitudeDegrees>20.34802422858774662017822265625</LongitudeDegrees>
            </Position>
            <AltitudeMeters>627.5999755859375</AltitudeMeters>
            <DistanceMeters>NAN</DistanceMeters>
          </Trackpoint>
          <Trackpoint>
            <Time>2022-09-20T14:52:24.000Z</Time>
            <Position>
              <LatitudeDegrees>49.426425732672214508056640625</LatitudeDegrees>
              <LongitudeDegrees>20.34812263213098049163818359375</LongitudeDegrees>
            </Position>
            <AltitudeMeters>628</AltitudeMeters>
            <DistanceMeters>NAN</DistanceMeters>
          </Trackpoint>
          <Trackpoint>
            <Time>2022-09-20T14:52:29.000Z</Time>
            <Position>
              <LatitudeDegrees>49.4264627806842327117919921875</LatitudeDegrees>
              <LongitudeDegrees>20.34821466542780399322509765625</LongitudeDegrees>
            </Position>
            <AltitudeMeters>628.20001220703125</AltitudeMeters>
            <DistanceMeters>NAN</DistanceMeters>
          </Trackpoint>
          <Trackpoint>
            <Time>2022-09-20T14:52:32.000Z</Time>
            <Position>
              <LatitudeDegrees>49.42652606405317783355712890625</LatitudeDegrees>
              <LongitudeDegrees>20.3482858277857303619384765625</LongitudeDegrees>
            </Position>
            <AltitudeMeters>628.4000244140625</AltitudeMeters>
            <DistanceMeters>NAN</DistanceMeters>
          </Trackpoint>
          <Trackpoint>
            <Time>2022-09-20T14:52:36.000Z</Time>
            <Position>
              <LatitudeDegrees>49.4265355356037616729736328125</LatitudeDegrees>
              <LongitudeDegrees>20.34830309450626373291015625</LongitudeDegrees>
            </Position>
            <AltitudeMeters>628.5999755859375</AltitudeMeters>
            <DistanceMeters>NAN</DistanceMeters>
          </Trackpoint>
          <Trackpoint>
            <Time>2022-09-20T14:52:43.000Z</Time>
            <Position>
              <LatitudeDegrees>49.42652321420609951019287109375</LatitudeDegrees>
              <LongitudeDegrees>20.34834357909858226776123046875</LongitudeDegrees>
            </Position>
            <AltitudeMeters>628.79998779296875</AltitudeMeters>
            <DistanceMeters>NAN</DistanceMeters>
          </Trackpoint>
          <Trackpoint>
            <Time>2022-09-20T14:52:44.000Z</Time>
            <Position>
              <LatitudeDegrees>49.4265234656631946563720703125</LatitudeDegrees>
              <LongitudeDegrees>20.34834743477404117584228515625</LongitudeDegrees>
            </Position>
            <AltitudeMeters>628.79998779296875</AltitudeMeters>
            <DistanceMeters>NAN</DistanceMeters>
          </Trackpoint>
          <Trackpoint>
            <Time>2022-09-20T14:52:45.000Z</Time>
            <Position>
              <LatitudeDegrees>49.42652053199708461761474609375</LatitudeDegrees>
              <LongitudeDegrees>20.34835514612495899200439453125</LongitudeDegrees>
            </Position>
            <AltitudeMeters>628.79998779296875</AltitudeMeters>
            <DistanceMeters>NAN</DistanceMeters>
          </Trackpoint>
          <Trackpoint>
            <Time>2022-09-20T14:52:48.000Z</Time>
            <Position>
              <LatitudeDegrees>49.426514916121959686279296875</LatitudeDegrees>
              <LongitudeDegrees>20.34838448278605937957763671875</LongitudeDegrees>
            </Position>
            <AltitudeMeters>629</AltitudeMeters>
            <DistanceMeters>NAN</DistanceMeters>
          </Trackpoint>
          <Trackpoint>
            <Time>2022-09-20T14:52:49.000Z</Time>
            <Position>
              <LatitudeDegrees>49.426514916121959686279296875</LatitudeDegrees>
              <LongitudeDegrees>20.34838448278605937957763671875</LongitudeDegrees>
            </Position>
            <AltitudeMeters>629</AltitudeMeters>
            <DistanceMeters>NAN</DistanceMeters>
          </Trackpoint>
          <Trackpoint>
            <Time>2022-09-20T14:52:53.000Z</Time>
            <Position>
              <LatitudeDegrees>49.42651349119842052459716796875</LatitudeDegrees>
              <LongitudeDegrees>20.348430834710597991943359375</LongitudeDegrees>
            </Position>
            <AltitudeMeters>629.20001220703125</AltitudeMeters>
            <DistanceMeters>NAN</DistanceMeters>
          </Trackpoint>
          <Trackpoint>
            <Time>2022-09-20T14:52:57.000Z</Time>
            <Position>
              <LatitudeDegrees>49.42651189863681793212890625</LatitudeDegrees>
              <LongitudeDegrees>20.34850426018238067626953125</LongitudeDegrees>
            </Position>
            <AltitudeMeters>629.4000244140625</AltitudeMeters>
            <DistanceMeters>NAN</DistanceMeters>
          </Trackpoint>
          <Trackpoint>
            <Time>2022-09-20T14:52:58.000Z</Time>
            <Position>
              <LatitudeDegrees>49.4265130721032619476318359375</LatitudeDegrees>
              <LongitudeDegrees>20.34851574338972568511962890625</LongitudeDegrees>
            </Position>
            <AltitudeMeters>629.5999755859375</AltitudeMeters>
            <DistanceMeters>NAN</DistanceMeters>
          </Trackpoint>
          <Trackpoint>
            <Time>2022-09-20T14:53:01.000Z</Time>
            <Position>
              <LatitudeDegrees>49.4265221245586872100830078125</LatitudeDegrees>
              <LongitudeDegrees>20.3485228680074214935302734375</LongitudeDegrees>
            </Position>
            <AltitudeMeters>629.79998779296875</AltitudeMeters>
            <DistanceMeters>NAN</DistanceMeters>
          </Trackpoint>
          <Trackpoint>
            <Time>2022-09-20T14:53:06.000Z</Time>
            <Position>
              <LatitudeDegrees>49.426521621644496917724609375</LatitudeDegrees>
              <LongitudeDegrees>20.34857156686484813690185546875</LongitudeDegrees>
            </Position>
            <AltitudeMeters>630</AltitudeMeters>
            <DistanceMeters>NAN</DistanceMeters>
          </Trackpoint>
          <Trackpoint>
            <Time>2022-09-20T14:53:10.000Z</Time>
            <Position>
              <LatitudeDegrees>49.42656981758773326873779296875</LatitudeDegrees>
              <LongitudeDegrees>20.348620600998401641845703125</LongitudeDegrees>
            </Position>
            <AltitudeMeters>630</AltitudeMeters>
            <DistanceMeters>NAN</DistanceMeters>
          </Trackpoint>
          <Trackpoint>
            <Time>2022-09-20T14:53:11.000Z</Time>
            <Position>
              <LatitudeDegrees>49.42657032050192356109619140625</LatitudeDegrees>
              <LongitudeDegrees>20.348659493029117584228515625</LongitudeDegrees>
            </Position>
            <AltitudeMeters>630.20001220703125</AltitudeMeters>
            <DistanceMeters>NAN</DistanceMeters>
          </Trackpoint>
          <Trackpoint>
            <Time>2022-09-20T14:53:15.000Z</Time>
            <Position>
              <LatitudeDegrees>49.42656696774065494537353515625</LatitudeDegrees>
              <LongitudeDegrees>20.34866519272327423095703125</LongitudeDegrees>
            </Position>
            <AltitudeMeters>630.4000244140625</AltitudeMeters>
            <DistanceMeters>NAN</DistanceMeters>
          </Trackpoint>
          <Trackpoint>
            <Time>2022-09-20T14:53:18.000Z</Time>
            <Position>
              <LatitudeDegrees>49.42656696774065494537353515625</LatitudeDegrees>
              <LongitudeDegrees>20.34866519272327423095703125</LongitudeDegrees>
            </Position>
            <AltitudeMeters>630.4000244140625</AltitudeMeters>
            <DistanceMeters>NAN</DistanceMeters>
          </Trackpoint>
          <Trackpoint>
            <Time>2022-09-20T14:53:22.000Z</Time>
            <Position>
              <LatitudeDegrees>49.42656110040843486785888671875</LatitudeDegrees>
              <LongitudeDegrees>20.34869846887886524200439453125</LongitudeDegrees>
            </Position>
            <AltitudeMeters>630.4000244140625</AltitudeMeters>
            <DistanceMeters>NAN</DistanceMeters>
          </Trackpoint>
          <Trackpoint>
            <Time>2022-09-20T14:53:23.000Z</Time>
            <Position>
              <LatitudeDegrees>49.4265630282461643218994140625</LatitudeDegrees>
              <LongitudeDegrees>20.348703749477863311767578125</LongitudeDegrees>
            </Position>
            <AltitudeMeters>630.5999755859375</AltitudeMeters>
            <DistanceMeters>NAN</DistanceMeters>
          </Trackpoint>
          <Trackpoint>
            <Time>2022-09-20T14:53:28.000Z</Time>
            <Position>
              <LatitudeDegrees>49.42656428553164005279541015625</LatitudeDegrees>
              <LongitudeDegrees>20.34870668314397335052490234375</LongitudeDegrees>
            </Position>
            <AltitudeMeters>630.79998779296875</AltitudeMeters>
            <DistanceMeters>NAN</DistanceMeters>
          </Trackpoint>
          <Trackpoint>
            <Time>2022-09-20T14:53:29.000Z</Time>
            <Position>
              <LatitudeDegrees>49.42657719366252422332763671875</LatitudeDegrees>
              <LongitudeDegrees>20.34871875308454036712646484375</LongitudeDegrees>
            </Position>
            <AltitudeMeters>630.79998779296875</AltitudeMeters>
            <DistanceMeters>NAN</DistanceMeters>
          </Trackpoint>
          <Trackpoint>
            <Time>2022-09-20T14:53:36.000Z</Time>
            <Position>
              <LatitudeDegrees>49.426613487303256988525390625</LatitudeDegrees>
              <LongitudeDegrees>20.3487652726471424102783203125</LongitudeDegrees>
            </Position>
            <AltitudeMeters>631.20001220703125</AltitudeMeters>
            <DistanceMeters>NAN</DistanceMeters>
          </Trackpoint>
          <Trackpoint>
            <Time>2022-09-20T14:53:44.000Z</Time>
            <Position>
              <LatitudeDegrees>49.4266183488070964813232421875</LatitudeDegrees>
              <LongitudeDegrees>20.34877390600740909576416015625</LongitudeDegrees>
            </Position>
            <AltitudeMeters>631.79998779296875</AltitudeMeters>
            <DistanceMeters>NAN</DistanceMeters>
          </Trackpoint>
          <Trackpoint>
            <Time>2022-09-20T14:53:47.000Z</Time>
            <Position>
              <LatitudeDegrees>49.4266183488070964813232421875</LatitudeDegrees>
              <LongitudeDegrees>20.34877390600740909576416015625</LongitudeDegrees>
            </Position>
            <AltitudeMeters>631.79998779296875</AltitudeMeters>
            <DistanceMeters>NAN</DistanceMeters>
          </Trackpoint>
          <Trackpoint>
            <Time>2022-09-20T14:53:52.000Z</Time>
            <Position>
              <LatitudeDegrees>49.42665145732462406158447265625</LatitudeDegrees>
              <LongitudeDegrees>20.34883526153862476348876953125</LongitudeDegrees>
            </Position>
            <AltitudeMeters>632</AltitudeMeters>
            <DistanceMeters>NAN</DistanceMeters>
          </Trackpoint>
          <Trackpoint>
            <Time>2022-09-20T14:53:53.000Z</Time>
            <Position>
              <LatitudeDegrees>49.42666352726519107818603515625</LatitudeDegrees>
              <LongitudeDegrees>20.34885420463979244232177734375</LongitudeDegrees>
            </Position>
            <AltitudeMeters>632</AltitudeMeters>
            <DistanceMeters>NAN</DistanceMeters>
          </Trackpoint>
          <Trackpoint>
            <Time>2022-09-20T14:54:00.000Z</Time>
            <Position>
              <LatitudeDegrees>49.42670862190425395965576171875</LatitudeDegrees>
              <LongitudeDegrees>20.34897440113127231597900390625</LongitudeDegrees>
            </Position>
            <AltitudeMeters>632.5999755859375</AltitudeMeters>
            <DistanceMeters>NAN</DistanceMeters>
          </Trackpoint>
          <Trackpoint>
            <Time>2022-09-20T14:54:08.000Z</Time>
            <Position>
              <LatitudeDegrees>49.42671784199774265289306640625</LatitudeDegrees>
              <LongitudeDegrees>20.34898999147117137908935546875</LongitudeDegrees>
            </Position>
            <AltitudeMeters>632.79998779296875</AltitudeMeters>
            <DistanceMeters>NAN</DistanceMeters>
          </Trackpoint>
          <Trackpoint>
            <Time>2022-09-20T14:54:10.000Z</Time>
            <Position>
              <LatitudeDegrees>49.42675723694264888763427734375</LatitudeDegrees>
              <LongitudeDegrees>20.3490026481449604034423828125</LongitudeDegrees>
            </Position>
            <AltitudeMeters>632.79998779296875</AltitudeMeters>
            <DistanceMeters>NAN</DistanceMeters>
          </Trackpoint>
          <Trackpoint>
            <Time>2022-09-20T14:54:16.000Z</Time>
            <Position>
              <LatitudeDegrees>49.42678707651793956756591796875</LatitudeDegrees>
              <LongitudeDegrees>20.34906073473393917083740234375</LongitudeDegrees>
            </Position>
            <AltitudeMeters>633</AltitudeMeters>
            <DistanceMeters>NAN</DistanceMeters>
          </Trackpoint>
          <Trackpoint>
            <Time>2022-09-20T14:54:21.000Z</Time>
            <Position>
              <LatitudeDegrees>49.426846168935298919677734375</LatitudeDegrees>
              <LongitudeDegrees>20.34910582937300205230712890625</LongitudeDegrees>
            </Position>
            <AltitudeMeters>633.20001220703125</AltitudeMeters>
            <DistanceMeters>NAN</DistanceMeters>
          </Trackpoint>
          <Trackpoint>
            <Time>2022-09-20T14:54:26.000Z</Time>
            <Position>
              <LatitudeDegrees>49.426896460354328155517578125</LatitudeDegrees>
              <LongitudeDegrees>20.34910985268652439117431640625</LongitudeDegrees>
            </Position>
            <AltitudeMeters>633.79998779296875</AltitudeMeters>
            <DistanceMeters>NAN</DistanceMeters>
          </Trackpoint>
          <Trackpoint>
            <Time>2022-09-20T14:54:29.000Z</Time>
            <Position>
              <LatitudeDegrees>49.42690274678170680999755859375</LatitudeDegrees>
              <LongitudeDegrees>20.34916785545647144317626953125</LongitudeDegrees>
            </Position>
            <AltitudeMeters>633.79998779296875</AltitudeMeters>
            <DistanceMeters>NAN</DistanceMeters>
          </Trackpoint>
          <Trackpoint>
            <Time>2022-09-20T14:54:30.000Z</Time>
            <Position>
              <LatitudeDegrees>49.42691314034163951873779296875</LatitudeDegrees>
              <LongitudeDegrees>20.34918629564344882965087890625</LongitudeDegrees>
            </Position>
            <AltitudeMeters>634</AltitudeMeters>
            <DistanceMeters>NAN</DistanceMeters>
          </Trackpoint>
          <Trackpoint>
            <Time>2022-09-20T14:54:31.000Z</Time>
            <Position>
              <LatitudeDegrees>49.4269256293773651123046875</LatitudeDegrees>
              <LongitudeDegrees>20.34920138306915760040283203125</LongitudeDegrees>
            </Position>
            <AltitudeMeters>634</AltitudeMeters>
            <DistanceMeters>NAN</DistanceMeters>
          </Trackpoint>
          <Trackpoint>
            <Time>2022-09-20T14:54:34.000Z</Time>
            <Position>
              <LatitudeDegrees>49.4269298203289508819580078125</LatitudeDegrees>
              <LongitudeDegrees>20.34925402142107486724853515625</LongitudeDegrees>
            </Position>
            <AltitudeMeters>634.4000244140625</AltitudeMeters>
            <DistanceMeters>NAN</DistanceMeters>
          </Trackpoint>
          <Trackpoint>
            <Time>2022-09-20T14:54:41.000Z</Time>
            <Position>
              <LatitudeDegrees>49.42697860300540924072265625</LatitudeDegrees>
              <LongitudeDegrees>20.3493013791739940643310546875</LongitudeDegrees>
            </Position>
            <AltitudeMeters>634.79998779296875</AltitudeMeters>
            <DistanceMeters>NAN</DistanceMeters>
          </Trackpoint>
          <Trackpoint>
            <Time>2022-09-20T14:54:42.000Z</Time>
            <Position>
              <LatitudeDegrees>49.42698128521442413330078125</LatitudeDegrees>
              <LongitudeDegrees>20.3493047319352626800537109375</LongitudeDegrees>
            </Position>
            <AltitudeMeters>635</AltitudeMeters>
            <DistanceMeters>NAN</DistanceMeters>
          </Trackpoint>
          <Trackpoint>
            <Time>2022-09-20T14:54:45.000Z</Time>
            <Position>
              <LatitudeDegrees>49.426981620490550994873046875</LatitudeDegrees>
              <LongitudeDegrees>20.34930934198200702667236328125</LongitudeDegrees>
            </Position>
            <AltitudeMeters>635.20001220703125</AltitudeMeters>
            <DistanceMeters>NAN</DistanceMeters>
          </Trackpoint>
          <Trackpoint>
            <Time>2022-09-20T14:54:48.000Z</Time>
            <Position>
              <LatitudeDegrees>49.426981620490550994873046875</LatitudeDegrees>
              <LongitudeDegrees>20.34930934198200702667236328125</LongitudeDegrees>
            </Position>
            <AltitudeMeters>635.20001220703125</AltitudeMeters>
            <DistanceMeters>NAN</DistanceMeters>
          </Trackpoint>
          <Trackpoint>
            <Time>2022-09-20T14:54:51.000Z</Time>
            <Position>
              <LatitudeDegrees>49.426981620490550994873046875</LatitudeDegrees>
              <LongitudeDegrees>20.34930934198200702667236328125</LongitudeDegrees>
            </Position>
            <AltitudeMeters>635.20001220703125</AltitudeMeters>
            <DistanceMeters>NAN</DistanceMeters>
          </Trackpoint>
          <Trackpoint>
            <Time>2022-09-20T14:54:53.000Z</Time>
            <Position>
              <LatitudeDegrees>49.426981620490550994873046875</LatitudeDegrees>
              <LongitudeDegrees>20.34930934198200702667236328125</LongitudeDegrees>
            </Position>
            <AltitudeMeters>635.20001220703125</AltitudeMeters>
            <DistanceMeters>NAN</DistanceMeters>
          </Trackpoint>
          <Trackpoint>
            <Time>2022-09-20T14:54:58.000Z</Time>
            <Position>
              <LatitudeDegrees>49.426981620490550994873046875</LatitudeDegrees>
              <LongitudeDegrees>20.34930934198200702667236328125</LongitudeDegrees>
            </Position>
            <AltitudeMeters>635</AltitudeMeters>
            <DistanceMeters>NAN</DistanceMeters>
          </Trackpoint>
          <Trackpoint>
            <Time>2022-09-20T14:55:00.000Z</Time>
            <Position>
              <LatitudeDegrees>49.426981620490550994873046875</LatitudeDegrees>
              <LongitudeDegrees>20.34930934198200702667236328125</LongitudeDegrees>
            </Position>
            <AltitudeMeters>635</AltitudeMeters>
            <DistanceMeters>NAN</DistanceMeters>
          </Trackpoint>
          <Trackpoint>
            <Time>2022-09-20T14:55:04.000Z</Time>
            <Position>
              <LatitudeDegrees>49.42699134349822998046875</LatitudeDegrees>
              <LongitudeDegrees>20.34933079965412616729736328125</LongitudeDegrees>
            </Position>
            <AltitudeMeters>635.20001220703125</AltitudeMeters>
            <DistanceMeters>NAN</DistanceMeters>
          </Trackpoint>
          <Trackpoint>
            <Time>2022-09-20T14:55:07.000Z</Time>
            <Position>
              <LatitudeDegrees>49.42700819112360477447509765625</LatitudeDegrees>
              <LongitudeDegrees>20.3493838571012020111083984375</LongitudeDegrees>
            </Position>
            <AltitudeMeters>635.4000244140625</AltitudeMeters>
            <DistanceMeters>NAN</DistanceMeters>
          </Trackpoint>
          <Trackpoint>
            <Time>2022-09-20T14:55:13.000Z</Time>
            <Position>
              <LatitudeDegrees>49.427017830312252044677734375</LatitudeDegrees>
              <LongitudeDegrees>20.3494893014430999755859375</LongitudeDegrees>
            </Position>
            <AltitudeMeters>636</AltitudeMeters>
            <DistanceMeters>NAN</DistanceMeters>
          </Trackpoint>
          <Trackpoint>
            <Time>2022-09-20T14:55:22.000Z</Time>
            <Position>
              <LatitudeDegrees>49.427074491977691650390625</LatitudeDegrees>
              <LongitudeDegrees>20.34958896227180957794189453125</LongitudeDegrees>
            </Position>
            <AltitudeMeters>636.79998779296875</AltitudeMeters>
            <DistanceMeters>NAN</DistanceMeters>
          </Trackpoint>
          <Trackpoint>
            <Time>2022-09-20T14:55:25.000Z</Time>
            <Position>
              <LatitudeDegrees>49.42708513699471950531005859375</LatitudeDegrees>
              <LongitudeDegrees>20.34964143298566341400146484375</LongitudeDegrees>
            </Position>
            <AltitudeMeters>637</AltitudeMeters>
            <DistanceMeters>NAN</DistanceMeters>
          </Trackpoint>
          <Trackpoint>
            <Time>2022-09-20T14:55:29.000Z</Time>
            <Position>
              <LatitudeDegrees>49.4270974583923816680908203125</LatitudeDegrees>
              <LongitudeDegrees>20.349654257297515869140625</LongitudeDegrees>
            </Position>
            <AltitudeMeters>637.20001220703125</AltitudeMeters>
            <DistanceMeters>NAN</DistanceMeters>
          </Trackpoint>
          <Trackpoint>
            <Time>2022-09-20T14:55:44.000Z</Time>
            <Position>
              <LatitudeDegrees>49.42710860632359981536865234375</LatitudeDegrees>
              <LongitudeDegrees>20.3496762178838253021240234375</LongitudeDegrees>
            </Position>
            <AltitudeMeters>637.5999755859375</AltitudeMeters>
            <DistanceMeters>NAN</DistanceMeters>
          </Trackpoint>
          <Trackpoint>
            <Time>2022-09-20T14:55:50.000Z</Time>
            <Position>
              <LatitudeDegrees>49.4271670281887054443359375</LatitudeDegrees>
              <LongitudeDegrees>20.34978895448148250579833984375</LongitudeDegrees>
            </Position>
            <AltitudeMeters>638</AltitudeMeters>
            <DistanceMeters>NAN</DistanceMeters>
          </Trackpoint>
          <Trackpoint>
            <Time>2022-09-20T14:55:53.000Z</Time>
            <Position>
              <LatitudeDegrees>49.4271859712898731231689453125</LatitudeDegrees>
              <LongitudeDegrees>20.34983824007213115692138671875</LongitudeDegrees>
            </Position>
            <AltitudeMeters>638.20001220703125</AltitudeMeters>
            <DistanceMeters>NAN</DistanceMeters>
          </Trackpoint>
          <Trackpoint>
            <Time>2022-09-20T14:55:56.000Z</Time>
            <Position>
              <LatitudeDegrees>49.42720583640038967132568359375</LatitudeDegrees>
              <LongitudeDegrees>20.34987847320735454559326171875</LongitudeDegrees>
            </Position>
            <AltitudeMeters>638.4000244140625</AltitudeMeters>
            <DistanceMeters>NAN</DistanceMeters>
          </Trackpoint>
          <Trackpoint>
            <Time>2022-09-20T14:55:59.000Z</Time>
            <Position>
              <LatitudeDegrees>49.4272131286561489105224609375</LatitudeDegrees>
              <LongitudeDegrees>20.3498941473662853240966796875</LongitudeDegrees>
            </Position>
            <AltitudeMeters>638.5999755859375</AltitudeMeters>
            <DistanceMeters>NAN</DistanceMeters>
          </Trackpoint>
          <Trackpoint>
            <Time>2022-09-20T14:56:03.000Z</Time>
            <Position>
              <LatitudeDegrees>49.4272131286561489105224609375</LatitudeDegrees>
              <LongitudeDegrees>20.3498941473662853240966796875</LongitudeDegrees>
            </Position>
            <AltitudeMeters>638.79998779296875</AltitudeMeters>
            <DistanceMeters>NAN</DistanceMeters>
          </Trackpoint>
          <Trackpoint>
            <Time>2022-09-20T14:56:11.000Z</Time>
            <Position>
              <LatitudeDegrees>49.427285380661487579345703125</LatitudeDegrees>
              <LongitudeDegrees>20.34993580542504787445068359375</LongitudeDegrees>
            </Position>
            <AltitudeMeters>639</AltitudeMeters>
            <DistanceMeters>NAN</DistanceMeters>
          </Trackpoint>
          <Trackpoint>
            <Time>2022-09-20T14:56:15.000Z</Time>
            <Position>
              <LatitudeDegrees>49.42732653580605983734130859375</LatitudeDegrees>
              <LongitudeDegrees>20.349981486797332763671875</LongitudeDegrees>
            </Position>
            <AltitudeMeters>639.20001220703125</AltitudeMeters>
            <DistanceMeters>NAN</DistanceMeters>
          </Trackpoint>
          <Trackpoint>
            <Time>2022-09-20T14:56:18.000Z</Time>
            <Position>
              <LatitudeDegrees>49.42732469178736209869384765625</LatitudeDegrees>
              <LongitudeDegrees>20.3500302694737911224365234375</LongitudeDegrees>
            </Position>
            <AltitudeMeters>639.4000244140625</AltitudeMeters>
            <DistanceMeters>NAN</DistanceMeters>
          </Trackpoint>
          <Trackpoint>
            <Time>2022-09-20T14:56:26.000Z</Time>
            <Position>
              <LatitudeDegrees>49.427326954901218414306640625</LatitudeDegrees>
              <LongitudeDegrees>20.35003446042537689208984375</LongitudeDegrees>
            </Position>
            <AltitudeMeters>639.79998779296875</AltitudeMeters>
            <DistanceMeters>NAN</DistanceMeters>
          </Trackpoint>
          <Trackpoint>
            <Time>2022-09-20T14:56:32.000Z</Time>
            <Position>
              <LatitudeDegrees>49.427326954901218414306640625</LatitudeDegrees>
              <LongitudeDegrees>20.35003446042537689208984375</LongitudeDegrees>
            </Position>
            <AltitudeMeters>639.79998779296875</AltitudeMeters>
            <DistanceMeters>NAN</DistanceMeters>
          </Trackpoint>
          <Trackpoint>
            <Time>2022-09-20T14:56:38.000Z</Time>
            <Position>
              <LatitudeDegrees>49.4273334927856922149658203125</LatitudeDegrees>
              <LongitudeDegrees>20.35005130805075168609619140625</LongitudeDegrees>
            </Position>
            <AltitudeMeters>640</AltitudeMeters>
            <DistanceMeters>NAN</DistanceMeters>
          </Trackpoint>
          <Trackpoint>
            <Time>2022-09-20T14:56:43.000Z</Time>
            <Position>
              <LatitudeDegrees>49.427348412573337554931640625</LatitudeDegrees>
              <LongitudeDegrees>20.35007444210350513458251953125</LongitudeDegrees>
            </Position>
            <AltitudeMeters>640.20001220703125</AltitudeMeters>
            <DistanceMeters>NAN</DistanceMeters>
          </Trackpoint>
          <Trackpoint>
            <Time>2022-09-20T14:56:44.000Z</Time>
            <Position>
              <LatitudeDegrees>49.42735905759036540985107421875</LatitudeDegrees>
              <LongitudeDegrees>20.350085087120532989501953125</LongitudeDegrees>
            </Position>
            <AltitudeMeters>640.4000244140625</AltitudeMeters>
            <DistanceMeters>NAN</DistanceMeters>
          </Trackpoint>
          <Trackpoint>
            <Time>2022-09-20T14:56:52.000Z</Time>
            <Position>
              <LatitudeDegrees>49.42741823382675647735595703125</LatitudeDegrees>
              <LongitudeDegrees>20.35019530914723873138427734375</LongitudeDegrees>
            </Position>
            <AltitudeMeters>641</AltitudeMeters>
            <DistanceMeters>NAN</DistanceMeters>
          </Trackpoint>
          <Trackpoint>
            <Time>2022-09-20T14:57:00.000Z</Time>
            <Position>
              <LatitudeDegrees>49.42745737731456756591796875</LatitudeDegrees>
              <LongitudeDegrees>20.35029253922402858734130859375</LongitudeDegrees>
            </Position>
            <AltitudeMeters>641.20001220703125</AltitudeMeters>
            <DistanceMeters>NAN</DistanceMeters>
          </Trackpoint>
          <Trackpoint>
            <Time>2022-09-20T14:57:02.000Z</Time>
            <Position>
              <LatitudeDegrees>49.42745863460004329681396484375</LatitudeDegrees>
              <LongitudeDegrees>20.35029438324272632598876953125</LongitudeDegrees>
            </Position>
            <AltitudeMeters>641.5999755859375</AltitudeMeters>
            <DistanceMeters>NAN</DistanceMeters>
          </Trackpoint>
          <Trackpoint>
            <Time>2022-09-20T14:57:03.000Z</Time>
            <Position>
              <LatitudeDegrees>49.427461065351963043212890625</LatitudeDegrees>
              <LongitudeDegrees>20.35028952173888683319091796875</LongitudeDegrees>
            </Position>
            <AltitudeMeters>641.5999755859375</AltitudeMeters>
            <DistanceMeters>NAN</DistanceMeters>
          </Trackpoint>
          <Trackpoint>
            <Time>2022-09-20T14:57:05.000Z</Time>
            <Position>
              <LatitudeDegrees>49.42746047861874103546142578125</LatitudeDegrees>
              <LongitudeDegrees>20.3502991609275341033935546875</LongitudeDegrees>
            </Position>
            <AltitudeMeters>641.79998779296875</AltitudeMeters>
            <DistanceMeters>NAN</DistanceMeters>
          </Trackpoint>
          <Trackpoint>
            <Time>2022-09-20T14:57:12.000Z</Time>
            <Position>
              <LatitudeDegrees>49.42747791297733783721923828125</LatitudeDegrees>
              <LongitudeDegrees>20.35033361054956912994384765625</LongitudeDegrees>
            </Position>
            <AltitudeMeters>641.79998779296875</AltitudeMeters>
            <DistanceMeters>NAN</DistanceMeters>
          </Trackpoint>
          <Trackpoint>
            <Time>2022-09-20T14:57:20.000Z</Time>
            <Position>
              <LatitudeDegrees>49.42753373645246028900146484375</LatitudeDegrees>
              <LongitudeDegrees>20.350424386560916900634765625</LongitudeDegrees>
            </Position>
            <AltitudeMeters>642.20001220703125</AltitudeMeters>
            <DistanceMeters>NAN</DistanceMeters>
          </Trackpoint>
          <Trackpoint>
            <Time>2022-09-20T14:57:25.000Z</Time>
            <Position>
              <LatitudeDegrees>49.42753474228084087371826171875</LatitudeDegrees>
              <LongitudeDegrees>20.350441820919513702392578125</LongitudeDegrees>
            </Position>
            <AltitudeMeters>642.20001220703125</AltitudeMeters>
            <DistanceMeters>NAN</DistanceMeters>
          </Trackpoint>
          <Trackpoint>
            <Time>2022-09-20T14:57:27.000Z</Time>
            <Position>
              <LatitudeDegrees>49.42753474228084087371826171875</LatitudeDegrees>
              <LongitudeDegrees>20.350441820919513702392578125</LongitudeDegrees>
            </Position>
            <AltitudeMeters>642.20001220703125</AltitudeMeters>
            <DistanceMeters>NAN</DistanceMeters>
          </Trackpoint>
          <Trackpoint>
            <Time>2022-09-20T14:57:39.000Z</Time>
            <Position>
              <LatitudeDegrees>49.42753474228084087371826171875</LatitudeDegrees>
              <LongitudeDegrees>20.350441820919513702392578125</LongitudeDegrees>
            </Position>
            <AltitudeMeters>642.20001220703125</AltitudeMeters>
            <DistanceMeters>NAN</DistanceMeters>
          </Trackpoint>
          <Trackpoint>
            <Time>2022-09-20T14:57:44.000Z</Time>
            <Position>
              <LatitudeDegrees>49.42755066789686679840087890625</LatitudeDegrees>
              <LongitudeDegrees>20.3504594229161739349365234375</LongitudeDegrees>
            </Position>
            <AltitudeMeters>642.20001220703125</AltitudeMeters>
            <DistanceMeters>NAN</DistanceMeters>
          </Trackpoint>
          <Trackpoint>
            <Time>2022-09-20T14:57:45.000Z</Time>
            <Position>
              <LatitudeDegrees>49.42755930125713348388671875</LatitudeDegrees>
              <LongitudeDegrees>20.3504736721515655517578125</LongitudeDegrees>
            </Position>
            <AltitudeMeters>642.20001220703125</AltitudeMeters>
            <DistanceMeters>NAN</DistanceMeters>
          </Trackpoint>
          <Trackpoint>
            <Time>2022-09-20T14:57:48.000Z</Time>
            <Position>
              <LatitudeDegrees>49.42758989520370960235595703125</LatitudeDegrees>
              <LongitudeDegrees>20.35052153281867504119873046875</LongitudeDegrees>
            </Position>
            <AltitudeMeters>642.4000244140625</AltitudeMeters>
            <DistanceMeters>NAN</DistanceMeters>
          </Trackpoint>
          <Trackpoint>
            <Time>2022-09-20T14:57:51.000Z</Time>
            <Position>
              <LatitudeDegrees>49.4276201538741588592529296875</LatitudeDegrees>
              <LongitudeDegrees>20.350563526153564453125</LongitudeDegrees>
            </Position>
            <AltitudeMeters>642.5999755859375</AltitudeMeters>
            <DistanceMeters>NAN</DistanceMeters>
          </Trackpoint>
          <Trackpoint>
            <Time>2022-09-20T14:57:57.000Z</Time>
            <Position>
              <LatitudeDegrees>49.4276499934494495391845703125</LatitudeDegrees>
              <LongitudeDegrees>20.35065011121332645416259765625</LongitudeDegrees>
            </Position>
            <AltitudeMeters>643</AltitudeMeters>
            <DistanceMeters>NAN</DistanceMeters>
          </Trackpoint>
          <Trackpoint>
            <Time>2022-09-20T14:58:02.000Z</Time>
            <Position>
              <LatitudeDegrees>49.42766466177999973297119140625</LatitudeDegrees>
              <LongitudeDegrees>20.35072035156190395355224609375</LongitudeDegrees>
            </Position>
            <AltitudeMeters>643.20001220703125</AltitudeMeters>
            <DistanceMeters>NAN</DistanceMeters>
          </Trackpoint>
          <Trackpoint>
            <Time>2022-09-20T14:58:03.000Z</Time>
            <Position>
              <LatitudeDegrees>49.4276613928377628326416015625</LatitudeDegrees>
              <LongitudeDegrees>20.3507231175899505615234375</LongitudeDegrees>
            </Position>
            <AltitudeMeters>643.20001220703125</AltitudeMeters>
            <DistanceMeters>NAN</DistanceMeters>
          </Trackpoint>
          <Trackpoint>
            <Time>2022-09-20T14:58:05.000Z</Time>
            <Position>
              <LatitudeDegrees>49.4276613928377628326416015625</LatitudeDegrees>
              <LongitudeDegrees>20.3507231175899505615234375</LongitudeDegrees>
            </Position>
            <AltitudeMeters>643.4000244140625</AltitudeMeters>
            <DistanceMeters>NAN</DistanceMeters>
          </Trackpoint>
          <Trackpoint>
            <Time>2022-09-20T14:58:08.000Z</Time>
            <Position>
              <LatitudeDegrees>49.42767220549285411834716796875</LatitudeDegrees>
              <LongitudeDegrees>20.35074046812951564788818359375</LongitudeDegrees>
            </Position>
            <AltitudeMeters>643.4000244140625</AltitudeMeters>
            <DistanceMeters>NAN</DistanceMeters>
          </Trackpoint>
          <Trackpoint>
            <Time>2022-09-20T14:58:11.000Z</Time>
            <Position>
              <LatitudeDegrees>49.4276912324130535125732421875</LatitudeDegrees>
              <LongitudeDegrees>20.3507749177515506744384765625</LongitudeDegrees>
            </Position>
            <AltitudeMeters>643.5999755859375</AltitudeMeters>
            <DistanceMeters>NAN</DistanceMeters>
          </Trackpoint>
          <Trackpoint>
            <Time>2022-09-20T14:58:15.000Z</Time>
            <Position>
              <LatitudeDegrees>49.42772132344543933868408203125</LatitudeDegrees>
              <LongitudeDegrees>20.3508161567151546478271484375</LongitudeDegrees>
            </Position>
            <AltitudeMeters>643.5999755859375</AltitudeMeters>
            <DistanceMeters>NAN</DistanceMeters>
          </Trackpoint>
          <Trackpoint>
            <Time>2022-09-20T14:58:16.000Z</Time>
            <Position>
              <LatitudeDegrees>49.4277304597198963165283203125</LatitudeDegrees>
              <LongitudeDegrees>20.3508262149989604949951171875</LongitudeDegrees>
            </Position>
            <AltitudeMeters>643.5999755859375</AltitudeMeters>
            <DistanceMeters>NAN</DistanceMeters>
          </Trackpoint>
          <Trackpoint>
            <Time>2022-09-20T14:58:22.000Z</Time>
            <Position>
              <LatitudeDegrees>49.4277837686240673065185546875</LatitudeDegrees>
              <LongitudeDegrees>20.35090860910713672637939453125</LongitudeDegrees>
            </Position>
            <AltitudeMeters>644</AltitudeMeters>
            <DistanceMeters>NAN</DistanceMeters>
          </Trackpoint>
          <Trackpoint>
            <Time>2022-09-20T14:58:24.000Z</Time>
            <Position>
              <LatitudeDegrees>49.42780111916363239288330078125</LatitudeDegrees>
              <LongitudeDegrees>20.35092771984636783599853515625</LongitudeDegrees>
            </Position>
            <AltitudeMeters>644</AltitudeMeters>
            <DistanceMeters>NAN</DistanceMeters>
          </Trackpoint>
          <Trackpoint>
            <Time>2022-09-20T14:58:30.000Z</Time>
            <Position>
              <LatitudeDegrees>49.427841603755950927734375</LatitudeDegrees>
              <LongitudeDegrees>20.35098454914987087249755859375</LongitudeDegrees>
            </Position>
            <AltitudeMeters>644.4000244140625</AltitudeMeters>
            <DistanceMeters>NAN</DistanceMeters>
          </Trackpoint>
          <Trackpoint>
            <Time>2022-09-20T14:58:33.000Z</Time>
            <Position>
              <LatitudeDegrees>49.4278669171035289764404296875</LatitudeDegrees>
              <LongitudeDegrees>20.351017154753208160400390625</LongitudeDegrees>
            </Position>
            <AltitudeMeters>644.4000244140625</AltitudeMeters>
            <DistanceMeters>NAN</DistanceMeters>
          </Trackpoint>
          <Trackpoint>
            <Time>2022-09-20T14:58:40.000Z</Time>
            <Position>
              <LatitudeDegrees>49.4279276020824909210205078125</LatitudeDegrees>
              <LongitudeDegrees>20.35109217278659343719482421875</LongitudeDegrees>
            </Position>
            <AltitudeMeters>644.5999755859375</AltitudeMeters>
            <DistanceMeters>NAN</DistanceMeters>
          </Trackpoint>
          <Trackpoint>
            <Time>2022-09-20T14:58:44.000Z</Time>
            <Position>
              <LatitudeDegrees>49.42795836366713047027587890625</LatitudeDegrees>
              <LongitudeDegrees>20.3511308133602142333984375</LongitudeDegrees>
            </Position>
            <AltitudeMeters>644.79998779296875</AltitudeMeters>
            <DistanceMeters>NAN</DistanceMeters>
          </Trackpoint>
          <Trackpoint>
            <Time>2022-09-20T14:58:45.000Z</Time>
            <Position>
              <LatitudeDegrees>49.4279663264751434326171875</LatitudeDegrees>
              <LongitudeDegrees>20.35113810561597347259521484375</LongitudeDegrees>
            </Position>
            <AltitudeMeters>644.79998779296875</AltitudeMeters>
            <DistanceMeters>NAN</DistanceMeters>
          </Trackpoint>
          <Trackpoint>
            <Time>2022-09-20T14:58:48.000Z</Time>
            <Position>
              <LatitudeDegrees>49.42798803560435771942138671875</LatitudeDegrees>
              <LongitudeDegrees>20.35116073675453662872314453125</LongitudeDegrees>
            </Position>
            <AltitudeMeters>645</AltitudeMeters>
            <DistanceMeters>NAN</DistanceMeters>
          </Trackpoint>
          <Trackpoint>
            <Time>2022-09-20T14:58:50.000Z</Time>
            <Position>
              <LatitudeDegrees>49.4280120916664600372314453125</LatitudeDegrees>
              <LongitudeDegrees>20.35117314197123050689697265625</LongitudeDegrees>
            </Position>
            <AltitudeMeters>645</AltitudeMeters>
            <DistanceMeters>NAN</DistanceMeters>
          </Trackpoint>
          <Trackpoint>
            <Time>2022-09-20T14:58:55.000Z</Time>
            <Position>
              <LatitudeDegrees>49.4280684180557727813720703125</LatitudeDegrees>
              <LongitudeDegrees>20.35120901651680469512939453125</LongitudeDegrees>
            </Position>
            <AltitudeMeters>645.20001220703125</AltitudeMeters>
            <DistanceMeters>NAN</DistanceMeters>
          </Trackpoint>
          <Trackpoint>
            <Time>2022-09-20T14:59:03.000Z</Time>
            <Position>
              <LatitudeDegrees>49.428151063621044158935546875</LatitudeDegrees>
              <LongitudeDegrees>20.3512650914490222930908203125</LongitudeDegrees>
            </Position>
            <AltitudeMeters>645.20001220703125</AltitudeMeters>
            <DistanceMeters>NAN</DistanceMeters>
          </Trackpoint>
          <Trackpoint>
            <Time>2022-09-20T14:59:07.000Z</Time>
            <Position>
              <LatitudeDegrees>49.4281773827970027923583984375</LatitudeDegrees>
              <LongitudeDegrees>20.351314544677734375</LongitudeDegrees>
            </Position>
            <AltitudeMeters>645.4000244140625</AltitudeMeters>
            <DistanceMeters>NAN</DistanceMeters>
          </Trackpoint>
          <Trackpoint>
            <Time>2022-09-20T14:59:13.000Z</Time>
            <Position>
              <LatitudeDegrees>49.428208731114864349365234375</LatitudeDegrees>
              <LongitudeDegrees>20.35136106424033641815185546875</LongitudeDegrees>
            </Position>
            <AltitudeMeters>645.79998779296875</AltitudeMeters>
            <DistanceMeters>NAN</DistanceMeters>
          </Trackpoint>
          <Trackpoint>
            <Time>2022-09-20T14:59:17.000Z</Time>
            <Position>
              <LatitudeDegrees>49.4282425940036773681640625</LatitudeDegrees>
              <LongitudeDegrees>20.3513834439218044281005859375</LongitudeDegrees>
            </Position>
            <AltitudeMeters>645.79998779296875</AltitudeMeters>
            <DistanceMeters>NAN</DistanceMeters>
          </Trackpoint>
          <Trackpoint>
            <Time>2022-09-20T14:59:21.000Z</Time>
            <Position>
              <LatitudeDegrees>49.4282531552016735076904296875</LatitudeDegrees>
              <LongitudeDegrees>20.3513881377875804901123046875</LongitudeDegrees>
            </Position>
            <AltitudeMeters>646</AltitudeMeters>
            <DistanceMeters>NAN</DistanceMeters>
          </Trackpoint>
          <Trackpoint>
            <Time>2022-09-20T14:59:31.000Z</Time>
            <Position>
              <LatitudeDegrees>49.4282531552016735076904296875</LatitudeDegrees>
              <LongitudeDegrees>20.3513881377875804901123046875</LongitudeDegrees>
            </Position>
            <AltitudeMeters>645.79998779296875</AltitudeMeters>
            <DistanceMeters>NAN</DistanceMeters>
          </Trackpoint>
          <Trackpoint>
            <Time>2022-09-20T14:59:38.000Z</Time>
            <Position>
              <LatitudeDegrees>49.4282531552016735076904296875</LatitudeDegrees>
              <LongitudeDegrees>20.3513881377875804901123046875</LongitudeDegrees>
            </Position>
            <AltitudeMeters>646</AltitudeMeters>
            <DistanceMeters>NAN</DistanceMeters>
          </Trackpoint>
          <Trackpoint>
            <Time>2022-09-20T14:59:43.000Z</Time>
            <Position>
              <LatitudeDegrees>49.4282548315823078155517578125</LatitudeDegrees>
              <LongitudeDegrees>20.35138738341629505157470703125</LongitudeDegrees>
            </Position>
            <AltitudeMeters>646.20001220703125</AltitudeMeters>
            <DistanceMeters>NAN</DistanceMeters>
          </Trackpoint>
          <Trackpoint>
            <Time>2022-09-20T14:59:46.000Z</Time>
            <Position>
              <LatitudeDegrees>49.428301937878131866455078125</LatitudeDegrees>
              <LongitudeDegrees>20.35139593295753002166748046875</LongitudeDegrees>
            </Position>
            <AltitudeMeters>646.20001220703125</AltitudeMeters>
            <DistanceMeters>NAN</DistanceMeters>
          </Trackpoint>
          <Trackpoint>
            <Time>2022-09-20T14:59:52.000Z</Time>
            <Position>
              <LatitudeDegrees>49.428427331149578094482421875</LatitudeDegrees>
              <LongitudeDegrees>20.35147505812346935272216796875</LongitudeDegrees>
            </Position>
            <AltitudeMeters>646.4000244140625</AltitudeMeters>
            <DistanceMeters>NAN</DistanceMeters>
          </Trackpoint>
          <Trackpoint>
            <Time>2022-09-20T15:00:00.000Z</Time>
            <Position>
              <LatitudeDegrees>49.4286192767322063446044921875</LatitudeDegrees>
              <LongitudeDegrees>20.35157673060894012451171875</LongitudeDegrees>
            </Position>
            <AltitudeMeters>646.79998779296875</AltitudeMeters>
            <DistanceMeters>NAN</DistanceMeters>
          </Trackpoint>
          <Trackpoint>
            <Time>2022-09-20T15:00:01.000Z</Time>
            <Position>
              <LatitudeDegrees>49.42864383570849895477294921875</LatitudeDegrees>
              <LongitudeDegrees>20.35159609280526638031005859375</LongitudeDegrees>
            </Position>
            <AltitudeMeters>647</AltitudeMeters>
            <DistanceMeters>NAN</DistanceMeters>
          </Trackpoint>
          <Trackpoint>
            <Time>2022-09-20T15:00:04.000Z</Time>
            <Position>
              <LatitudeDegrees>49.42872262559831142425537109375</LatitudeDegrees>
              <LongitudeDegrees>20.35162040032446384429931640625</LongitudeDegrees>
            </Position>
            <AltitudeMeters>647.4000244140625</AltitudeMeters>
            <DistanceMeters>NAN</DistanceMeters>
          </Trackpoint>
          <Trackpoint>
            <Time>2022-09-20T15:00:07.000Z</Time>
            <Position>
              <LatitudeDegrees>49.42880158312618732452392578125</LatitudeDegrees>
              <LongitudeDegrees>20.35164319910109043121337890625</LongitudeDegrees>
            </Position>
            <AltitudeMeters>647.79998779296875</AltitudeMeters>
            <DistanceMeters>NAN</DistanceMeters>
          </Trackpoint>
          <Trackpoint>
            <Time>2022-09-20T15:00:16.000Z</Time>
            <Position>
              <LatitudeDegrees>49.429044909775257110595703125</LatitudeDegrees>
              <LongitudeDegrees>20.3516469709575176239013671875</LongitudeDegrees>
            </Position>
            <AltitudeMeters>648.4000244140625</AltitudeMeters>
            <DistanceMeters>NAN</DistanceMeters>
          </Trackpoint>
          <Trackpoint>
            <Time>2022-09-20T15:00:23.000Z</Time>
            <Position>
              <LatitudeDegrees>49.42920257337391376495361328125</LatitudeDegrees>
              <LongitudeDegrees>20.3516338951885700225830078125</LongitudeDegrees>
            </Position>
            <AltitudeMeters>649</AltitudeMeters>
            <DistanceMeters>NAN</DistanceMeters>
          </Trackpoint>
          <Trackpoint>
            <Time>2022-09-20T15:00:24.000Z</Time>
            <Position>
              <LatitudeDegrees>49.429221935570240020751953125</LatitudeDegrees>
              <LongitudeDegrees>20.35163079388439655303955078125</LongitudeDegrees>
            </Position>
            <AltitudeMeters>648.79998779296875</AltitudeMeters>
            <DistanceMeters>NAN</DistanceMeters>
          </Trackpoint>
          <Trackpoint>
            <Time>2022-09-20T15:00:34.000Z</Time>
            <Position>
              <LatitudeDegrees>49.4294189102947711944580078125</LatitudeDegrees>
              <LongitudeDegrees>20.35156625322997570037841796875</LongitudeDegrees>
            </Position>
            <AltitudeMeters>648.5999755859375</AltitudeMeters>
            <DistanceMeters>NAN</DistanceMeters>
          </Trackpoint>
          <Trackpoint>
            <Time>2022-09-20T15:00:45.000Z</Time>
            <Position>
              <LatitudeDegrees>49.42969392053782939910888671875</LatitudeDegrees>
              <LongitudeDegrees>20.35141068510711193084716796875</LongitudeDegrees>
            </Position>
            <AltitudeMeters>648.5999755859375</AltitudeMeters>
            <DistanceMeters>NAN</DistanceMeters>
          </Trackpoint>
          <Trackpoint>
            <Time>2022-09-20T15:00:49.000Z</Time>
            <Position>
              <LatitudeDegrees>49.4297957606613636016845703125</LatitudeDegrees>
              <LongitudeDegrees>20.3513212502002716064453125</LongitudeDegrees>
            </Position>
            <AltitudeMeters>648.4000244140625</AltitudeMeters>
            <DistanceMeters>NAN</DistanceMeters>
          </Trackpoint>
          <Trackpoint>
            <Time>2022-09-20T15:00:52.000Z</Time>
            <Position>
              <LatitudeDegrees>49.4298839382827281951904296875</LatitudeDegrees>
              <LongitudeDegrees>20.3512520156800746917724609375</LongitudeDegrees>
            </Position>
            <AltitudeMeters>648.4000244140625</AltitudeMeters>
            <DistanceMeters>NAN</DistanceMeters>
          </Trackpoint>
          <Trackpoint>
            <Time>2022-09-20T15:01:02.000Z</Time>
            <Position>
              <LatitudeDegrees>49.43016079254448413848876953125</LatitudeDegrees>
              <LongitudeDegrees>20.3509422205388545989990234375</LongitudeDegrees>
            </Position>
            <AltitudeMeters>647.5999755859375</AltitudeMeters>
            <DistanceMeters>NAN</DistanceMeters>
          </Trackpoint>
          <Trackpoint>
            <Time>2022-09-20T15:01:07.000Z</Time>
            <Position>
              <LatitudeDegrees>49.43031652830541133880615234375</LatitudeDegrees>
              <LongitudeDegrees>20.350789166986942291259765625</LongitudeDegrees>
            </Position>
            <AltitudeMeters>647.4000244140625</AltitudeMeters>
            <DistanceMeters>NAN</DistanceMeters>
          </Trackpoint>
          <Trackpoint>
            <Time>2022-09-20T15:01:09.000Z</Time>
            <Position>
              <LatitudeDegrees>49.43038978613913059234619140625</LatitudeDegrees>
              <LongitudeDegrees>20.35072051919996738433837890625</LongitudeDegrees>
            </Position>
            <AltitudeMeters>647.20001220703125</AltitudeMeters>
            <DistanceMeters>NAN</DistanceMeters>
          </Trackpoint>
          <Trackpoint>
            <Time>2022-09-20T15:01:10.000Z</Time>
            <Position>
              <LatitudeDegrees>49.430426247417926788330078125</LatitudeDegrees>
              <LongitudeDegrees>20.35069218836724758148193359375</LongitudeDegrees>
            </Position>
            <AltitudeMeters>647.20001220703125</AltitudeMeters>
            <DistanceMeters>NAN</DistanceMeters>
          </Trackpoint>
          <Trackpoint>
            <Time>2022-09-20T15:01:11.000Z</Time>
            <Position>
              <LatitudeDegrees>49.4304596073925495147705078125</LatitudeDegrees>
              <LongitudeDegrees>20.35065581090748310089111328125</LongitudeDegrees>
            </Position>
            <AltitudeMeters>647</AltitudeMeters>
            <DistanceMeters>NAN</DistanceMeters>
          </Trackpoint>
          <Trackpoint>
            <Time>2022-09-20T15:01:16.000Z</Time>
            <Position>
              <LatitudeDegrees>49.43062129430472850799560546875</LatitudeDegrees>
              <LongitudeDegrees>20.35046889446675777435302734375</LongitudeDegrees>
            </Position>
            <AltitudeMeters>646.79998779296875</AltitudeMeters>
            <DistanceMeters>NAN</DistanceMeters>
          </Trackpoint>
          <Trackpoint>
            <Time>2022-09-20T15:01:17.000Z</Time>
            <Position>
              <LatitudeDegrees>49.43065415136516094207763671875</LatitudeDegrees>
              <LongitudeDegrees>20.3504336066544055938720703125</LongitudeDegrees>
            </Position>
            <AltitudeMeters>646.5999755859375</AltitudeMeters>
            <DistanceMeters>NAN</DistanceMeters>
          </Trackpoint>
          <Trackpoint>
            <Time>2022-09-20T15:01:22.000Z</Time>
            <Position>
              <LatitudeDegrees>49.4308175146579742431640625</LatitudeDegrees>
              <LongitudeDegrees>20.35024744458496570587158203125</LongitudeDegrees>
            </Position>
            <AltitudeMeters>646.4000244140625</AltitudeMeters>
            <DistanceMeters>NAN</DistanceMeters>
          </Trackpoint>
          <Trackpoint>
            <Time>2022-09-20T15:01:29.000Z</Time>
            <Position>
              <LatitudeDegrees>49.43104005418717861175537109375</LatitudeDegrees>
              <LongitudeDegrees>20.3500088118016719818115234375</LongitudeDegrees>
            </Position>
            <AltitudeMeters>645.79998779296875</AltitudeMeters>
            <DistanceMeters>NAN</DistanceMeters>
          </Trackpoint>
          <Trackpoint>
            <Time>2022-09-20T15:01:32.000Z</Time>
            <Position>
              <LatitudeDegrees>49.431147761642932891845703125</LatitudeDegrees>
              <LongitudeDegrees>20.34989154897630214691162109375</LongitudeDegrees>
            </Position>
            <AltitudeMeters>645.5999755859375</AltitudeMeters>
            <DistanceMeters>NAN</DistanceMeters>
          </Trackpoint>
          <Trackpoint>
            <Time>2022-09-20T15:01:36.000Z</Time>
            <Position>
              <LatitudeDegrees>49.43129100836813449859619140625</LatitudeDegrees>
              <LongitudeDegrees>20.349739752709865570068359375</LongitudeDegrees>
            </Position>
            <AltitudeMeters>645.4000244140625</AltitudeMeters>
            <DistanceMeters>NAN</DistanceMeters>
          </Trackpoint>
          <Trackpoint>
            <Time>2022-09-20T15:01:40.000Z</Time>
            <Position>
              <LatitudeDegrees>49.4314379431307315826416015625</LatitudeDegrees>
              <LongitudeDegrees>20.34957890398800373077392578125</LongitudeDegrees>
            </Position>
            <AltitudeMeters>644.79998779296875</AltitudeMeters>
            <DistanceMeters>NAN</DistanceMeters>
          </Trackpoint>
          <Trackpoint>
            <Time>2022-09-20T15:01:42.000Z</Time>
            <Position>
              <LatitudeDegrees>49.431515894830226898193359375</LatitudeDegrees>
              <LongitudeDegrees>20.34949625842273235321044921875</LongitudeDegrees>
            </Position>
            <AltitudeMeters>644.4000244140625</AltitudeMeters>
            <DistanceMeters>NAN</DistanceMeters>
          </Trackpoint>
          <Trackpoint>
            <Time>2022-09-20T15:01:50.000Z</Time>
            <Position>
              <LatitudeDegrees>49.431837089359760284423828125</LatitudeDegrees>
              <LongitudeDegrees>20.34913918934762477874755859375</LongitudeDegrees>
            </Position>
            <AltitudeMeters>643.20001220703125</AltitudeMeters>
            <DistanceMeters>NAN</DistanceMeters>
          </Trackpoint>
          <Trackpoint>
            <Time>2022-09-20T15:01:58.000Z</Time>
            <Position>
              <LatitudeDegrees>49.43220932967960834503173828125</LatitudeDegrees>
              <LongitudeDegrees>20.3487464971840381622314453125</LongitudeDegrees>
            </Position>
            <AltitudeMeters>642.20001220703125</AltitudeMeters>
            <DistanceMeters>NAN</DistanceMeters>
          </Trackpoint>
          <Trackpoint>
            <Time>2022-09-20T15:02:02.000Z</Time>
            <Position>
              <LatitudeDegrees>49.432419799268245697021484375</LatitudeDegrees>
              <LongitudeDegrees>20.34854591824114322662353515625</LongitudeDegrees>
            </Position>
            <AltitudeMeters>641</AltitudeMeters>
            <DistanceMeters>NAN</DistanceMeters>
          </Trackpoint>
          <Trackpoint>
            <Time>2022-09-20T15:02:05.000Z</Time>
            <Position>
              <LatitudeDegrees>49.43256975151598453521728515625</LatitudeDegrees>
              <LongitudeDegrees>20.34839370287954807281494140625</LongitudeDegrees>
            </Position>
            <AltitudeMeters>640.79998779296875</AltitudeMeters>
            <DistanceMeters>NAN</DistanceMeters>
          </Trackpoint>
          <Trackpoint>
            <Time>2022-09-20T15:02:09.000Z</Time>
            <Position>
              <LatitudeDegrees>49.43273370154201984405517578125</LatitudeDegrees>
              <LongitudeDegrees>20.3482187725603580474853515625</LongitudeDegrees>
            </Position>
            <AltitudeMeters>640.5999755859375</AltitudeMeters>
            <DistanceMeters>NAN</DistanceMeters>
          </Trackpoint>
          <Trackpoint>
            <Time>2022-09-20T15:02:12.000Z</Time>
            <Position>
              <LatitudeDegrees>49.4328370504081249237060546875</LatitudeDegrees>
              <LongitudeDegrees>20.34811911173164844512939453125</LongitudeDegrees>
            </Position>
            <AltitudeMeters>640.79998779296875</AltitudeMeters>
            <DistanceMeters>NAN</DistanceMeters>
          </Trackpoint>
          <Trackpoint>
            <Time>2022-09-20T15:02:17.000Z</Time>
            <Position>
              <LatitudeDegrees>49.43296319805085659027099609375</LatitudeDegrees>
              <LongitudeDegrees>20.347986258566379547119140625</LongitudeDegrees>
            </Position>
            <AltitudeMeters>641</AltitudeMeters>
            <DistanceMeters>NAN</DistanceMeters>
          </Trackpoint>
          <Trackpoint>
            <Time>2022-09-20T15:02:23.000Z</Time>
            <Position>
              <LatitudeDegrees>49.4331260584294795989990234375</LatitudeDegrees>
              <LongitudeDegrees>20.347801186144351959228515625</LongitudeDegrees>
            </Position>
            <AltitudeMeters>641.79998779296875</AltitudeMeters>
            <DistanceMeters>NAN</DistanceMeters>
          </Trackpoint>
          <Trackpoint>
            <Time>2022-09-20T15:02:25.000Z</Time>
            <Position>
              <LatitudeDegrees>49.43319420330226421356201171875</LatitudeDegrees>
              <LongitudeDegrees>20.3477359749376773834228515625</LongitudeDegrees>
            </Position>
            <AltitudeMeters>642</AltitudeMeters>
            <DistanceMeters>NAN</DistanceMeters>
          </Trackpoint>
          <Trackpoint>
            <Time>2022-09-20T15:02:26.000Z</Time>
            <Position>
              <LatitudeDegrees>49.43321599625051021575927734375</LatitudeDegrees>
              <LongitudeDegrees>20.34770672209560871124267578125</LongitudeDegrees>
            </Position>
            <AltitudeMeters>642.20001220703125</AltitudeMeters>
            <DistanceMeters>NAN</DistanceMeters>
          </Trackpoint>
          <Trackpoint>
            <Time>2022-09-20T15:02:31.000Z</Time>
            <Position>
              <LatitudeDegrees>49.4333671219646930694580078125</LatitudeDegrees>
              <LongitudeDegrees>20.347524918615818023681640625</LongitudeDegrees>
            </Position>
            <AltitudeMeters>642.79998779296875</AltitudeMeters>
            <DistanceMeters>NAN</DistanceMeters>
          </Trackpoint>
          <Trackpoint>
            <Time>2022-09-20T15:02:34.000Z</Time>
            <Position>
              <LatitudeDegrees>49.43345689214766025543212890625</LatitudeDegrees>
              <LongitudeDegrees>20.34742911346256732940673828125</LongitudeDegrees>
            </Position>
            <AltitudeMeters>643.20001220703125</AltitudeMeters>
            <DistanceMeters>NAN</DistanceMeters>
          </Trackpoint>
          <Trackpoint>
            <Time>2022-09-20T15:02:39.000Z</Time>
            <Position>
              <LatitudeDegrees>49.43360977806150913238525390625</LatitudeDegrees>
              <LongitudeDegrees>20.3472776524722576141357421875</LongitudeDegrees>
            </Position>
            <AltitudeMeters>644</AltitudeMeters>
            <DistanceMeters>NAN</DistanceMeters>
          </Trackpoint>
          <Trackpoint>
            <Time>2022-09-20T15:02:40.000Z</Time>
            <Position>
              <LatitudeDegrees>49.4336443953216075897216796875</LatitudeDegrees>
              <LongitudeDegrees>20.34724764525890350341796875</LongitudeDegrees>
            </Position>
            <AltitudeMeters>644.20001220703125</AltitudeMeters>
            <DistanceMeters>NAN</DistanceMeters>
          </Trackpoint>
          <Trackpoint>
            <Time>2022-09-20T15:02:44.000Z</Time>
            <Position>
              <LatitudeDegrees>49.43375797010958194732666015625</LatitudeDegrees>
              <LongitudeDegrees>20.34712552092969417572021484375</LongitudeDegrees>
            </Position>
            <AltitudeMeters>644.79998779296875</AltitudeMeters>
            <DistanceMeters>NAN</DistanceMeters>
          </Trackpoint>
          <Trackpoint>
            <Time>2022-09-20T15:02:45.000Z</Time>
            <Position>
              <LatitudeDegrees>49.433783032000064849853515625</LatitudeDegrees>
              <LongitudeDegrees>20.347099788486957550048828125</LongitudeDegrees>
            </Position>
            <AltitudeMeters>644.79998779296875</AltitudeMeters>
            <DistanceMeters>NAN</DistanceMeters>
          </Trackpoint>
          <Trackpoint>
            <Time>2022-09-20T15:02:50.000Z</Time>
            <Position>
              <LatitudeDegrees>49.43390750326216220855712890625</LatitudeDegrees>
              <LongitudeDegrees>20.34696609713137149810791015625</LongitudeDegrees>
            </Position>
            <AltitudeMeters>645</AltitudeMeters>
            <DistanceMeters>NAN</DistanceMeters>
          </Trackpoint>
          <Trackpoint>
            <Time>2022-09-20T15:02:57.000Z</Time>
            <Position>
              <LatitudeDegrees>49.4340829364955425262451171875</LatitudeDegrees>
              <LongitudeDegrees>20.34678161144256591796875</LongitudeDegrees>
            </Position>
            <AltitudeMeters>644.5999755859375</AltitudeMeters>
            <DistanceMeters>NAN</DistanceMeters>
          </Trackpoint>
          <Trackpoint>
            <Time>2022-09-20T15:03:02.000Z</Time>
            <Position>
              <LatitudeDegrees>49.43422886542975902557373046875</LatitudeDegrees>
              <LongitudeDegrees>20.34660818986594676971435546875</LongitudeDegrees>
            </Position>
            <AltitudeMeters>644.4000244140625</AltitudeMeters>
            <DistanceMeters>NAN</DistanceMeters>
          </Trackpoint>
          <Trackpoint>
            <Time>2022-09-20T15:03:04.000Z</Time>
            <Position>
              <LatitudeDegrees>49.43429809994995594024658203125</LatitudeDegrees>
              <LongitudeDegrees>20.346529483795166015625</LongitudeDegrees>
            </Position>
            <AltitudeMeters>644.4000244140625</AltitudeMeters>
            <DistanceMeters>NAN</DistanceMeters>
          </Trackpoint>
          <Trackpoint>
            <Time>2022-09-20T15:03:13.000Z</Time>
            <Position>
              <LatitudeDegrees>49.4345591962337493896484375</LatitudeDegrees>
              <LongitudeDegrees>20.3461621887981891632080078125</LongitudeDegrees>
            </Position>
            <AltitudeMeters>644</AltitudeMeters>
            <DistanceMeters>NAN</DistanceMeters>
          </Trackpoint>
          <Trackpoint>
            <Time>2022-09-20T15:03:21.000Z</Time>
            <Position>
              <LatitudeDegrees>49.434760026633739471435546875</LatitudeDegrees>
              <LongitudeDegrees>20.3458212129771709442138671875</LongitudeDegrees>
            </Position>
            <AltitudeMeters>643.79998779296875</AltitudeMeters>
            <DistanceMeters>NAN</DistanceMeters>
          </Trackpoint>
          <Trackpoint>
            <Time>2022-09-20T15:03:27.000Z</Time>
            <Position>
              <LatitudeDegrees>49.43489170633256435394287109375</LatitudeDegrees>
              <LongitudeDegrees>20.345567576587200164794921875</LongitudeDegrees>
            </Position>
            <AltitudeMeters>643.79998779296875</AltitudeMeters>
            <DistanceMeters>NAN</DistanceMeters>
          </Trackpoint>
          <Trackpoint>
            <Time>2022-09-20T15:03:29.000Z</Time>
            <Position>
              <LatitudeDegrees>49.43493294529616832733154296875</LatitudeDegrees>
              <LongitudeDegrees>20.34547076560556888580322265625</LongitudeDegrees>
            </Position>
            <AltitudeMeters>643.79998779296875</AltitudeMeters>
            <DistanceMeters>NAN</DistanceMeters>
          </Trackpoint>
          <Trackpoint>
            <Time>2022-09-20T15:03:39.000Z</Time>
            <Position>
              <LatitudeDegrees>49.43515724502503871917724609375</LatitudeDegrees>
              <LongitudeDegrees>20.34503574483096599578857421875</LongitudeDegrees>
            </Position>
            <AltitudeMeters>643.4000244140625</AltitudeMeters>
            <DistanceMeters>NAN</DistanceMeters>
          </Trackpoint>
          <Trackpoint>
            <Time>2022-09-20T15:03:43.000Z</Time>
            <Position>
              <LatitudeDegrees>49.43525128997862339019775390625</LatitudeDegrees>
              <LongitudeDegrees>20.34483902156352996826171875</LongitudeDegrees>
            </Position>
            <AltitudeMeters>643.20001220703125</AltitudeMeters>
            <DistanceMeters>NAN</DistanceMeters>
          </Trackpoint>
          <Trackpoint>
            <Time>2022-09-20T15:03:47.000Z</Time>
            <Position>
              <LatitudeDegrees>49.4353465922176837921142578125</LatitudeDegrees>
              <LongitudeDegrees>20.34464732743799686431884765625</LongitudeDegrees>
            </Position>
            <AltitudeMeters>643</AltitudeMeters>
            <DistanceMeters>NAN</DistanceMeters>
          </Trackpoint>
          <Trackpoint>
            <Time>2022-09-20T15:03:49.000Z</Time>
            <Position>
              <LatitudeDegrees>49.4353911839425563812255859375</LatitudeDegrees>
              <LongitudeDegrees>20.34455738961696624755859375</LongitudeDegrees>
            </Position>
            <AltitudeMeters>643</AltitudeMeters>
            <DistanceMeters>NAN</DistanceMeters>
          </Trackpoint>
          <Trackpoint>
            <Time>2022-09-20T15:03:54.000Z</Time>
            <Position>
              <LatitudeDegrees>49.4355172477662563323974609375</LatitudeDegrees>
              <LongitudeDegrees>20.344302915036678314208984375</LongitudeDegrees>
            </Position>
            <AltitudeMeters>642.79998779296875</AltitudeMeters>
            <DistanceMeters>NAN</DistanceMeters>
          </Trackpoint>
          <Trackpoint>
            <Time>2022-09-20T15:03:58.000Z</Time>
            <Position>
              <LatitudeDegrees>49.43561942316591739654541015625</LatitudeDegrees>
              <LongitudeDegrees>20.34408154897391796112060546875</LongitudeDegrees>
            </Position>
            <AltitudeMeters>642.4000244140625</AltitudeMeters>
            <DistanceMeters>NAN</DistanceMeters>
          </Trackpoint>
          <Trackpoint>
            <Time>2022-09-20T15:04:00.000Z</Time>
            <Position>
              <LatitudeDegrees>49.43567541427910327911376953125</LatitudeDegrees>
              <LongitudeDegrees>20.34396889619529247283935546875</LongitudeDegrees>
            </Position>
            <AltitudeMeters>642.20001220703125</AltitudeMeters>
            <DistanceMeters>NAN</DistanceMeters>
          </Trackpoint>
          <Trackpoint>
            <Time>2022-09-20T15:04:07.000Z</Time>
            <Position>
              <LatitudeDegrees>49.435873143374919891357421875</LatitudeDegrees>
              <LongitudeDegrees>20.343529097735881805419921875</LongitudeDegrees>
            </Position>
            <AltitudeMeters>641.20001220703125</AltitudeMeters>
            <DistanceMeters>NAN</DistanceMeters>
          </Trackpoint>
          <Trackpoint>
            <Time>2022-09-20T15:04:10.000Z</Time>
            <Position>
              <LatitudeDegrees>49.43599023856222629547119140625</LatitudeDegrees>
              <LongitudeDegrees>20.34329649992287158966064453125</LongitudeDegrees>
            </Position>
            <AltitudeMeters>640.4000244140625</AltitudeMeters>
            <DistanceMeters>NAN</DistanceMeters>
          </Trackpoint>
          <Trackpoint>
            <Time>2022-09-20T15:04:11.000Z</Time>
            <Position>
              <LatitudeDegrees>49.43602301180362701416015625</LatitudeDegrees>
              <LongitudeDegrees>20.3432382456958293914794921875</LongitudeDegrees>
            </Position>
            <AltitudeMeters>640</AltitudeMeters>
            <DistanceMeters>NAN</DistanceMeters>
          </Trackpoint>
          <Trackpoint>
            <Time>2022-09-20T15:04:13.000Z</Time>
            <Position>
              <LatitudeDegrees>49.43610775284469127655029296875</LatitudeDegrees>
              <LongitudeDegrees>20.34305535256862640380859375</LongitudeDegrees>
            </Position>
            <AltitudeMeters>639.5999755859375</AltitudeMeters>
            <DistanceMeters>NAN</DistanceMeters>
          </Trackpoint>
          <Trackpoint>
            <Time>2022-09-20T15:04:15.000Z</Time>
            <Position>
              <LatitudeDegrees>49.4361926615238189697265625</LatitudeDegrees>
              <LongitudeDegrees>20.34288478083908557891845703125</LongitudeDegrees>
            </Position>
            <AltitudeMeters>638.79998779296875</AltitudeMeters>
            <DistanceMeters>NAN</DistanceMeters>
          </Trackpoint>
          <Trackpoint>
            <Time>2022-09-20T15:04:18.000Z</Time>
            <Position>
              <LatitudeDegrees>49.436322748661041259765625</LatitudeDegrees>
              <LongitudeDegrees>20.3426102735102176666259765625</LongitudeDegrees>
            </Position>
            <AltitudeMeters>637.4000244140625</AltitudeMeters>
            <DistanceMeters>NAN</DistanceMeters>
          </Trackpoint>
          <Trackpoint>
            <Time>2022-09-20T15:04:19.000Z</Time>
            <Position>
              <LatitudeDegrees>49.43637035787105560302734375</LatitudeDegrees>
              <LongitudeDegrees>20.34251128323376178741455078125</LongitudeDegrees>
            </Position>
            <AltitudeMeters>636.79998779296875</AltitudeMeters>
            <DistanceMeters>NAN</DistanceMeters>
          </Trackpoint>
          <Trackpoint>
            <Time>2022-09-20T15:04:21.000Z</Time>
            <Position>
              <LatitudeDegrees>49.43645895458757877349853515625</LatitudeDegrees>
              <LongitudeDegrees>20.3423055075109004974365234375</LongitudeDegrees>
            </Position>
            <AltitudeMeters>636</AltitudeMeters>
            <DistanceMeters>NAN</DistanceMeters>
          </Trackpoint>
          <Trackpoint>
            <Time>2022-09-20T15:04:23.000Z</Time>
            <Position>
              <LatitudeDegrees>49.4365562684834003448486328125</LatitudeDegrees>
              <LongitudeDegrees>20.3420922718942165374755859375</LongitudeDegrees>
            </Position>
            <AltitudeMeters>634.5999755859375</AltitudeMeters>
            <DistanceMeters>NAN</DistanceMeters>
          </Trackpoint>
          <Trackpoint>
            <Time>2022-09-20T15:04:24.000Z</Time>
            <Position>
              <LatitudeDegrees>49.43659876473248004913330078125</LatitudeDegrees>
              <LongitudeDegrees>20.342014320194721221923828125</LongitudeDegrees>
            </Position>
            <AltitudeMeters>634</AltitudeMeters>
            <DistanceMeters>NAN</DistanceMeters>
          </Trackpoint>
          <Trackpoint>
            <Time>2022-09-20T15:04:26.000Z</Time>
            <Position>
              <LatitudeDegrees>49.43671166896820068359375</LatitudeDegrees>
              <LongitudeDegrees>20.34176998771727085113525390625</LongitudeDegrees>
            </Position>
            <AltitudeMeters>633</AltitudeMeters>
            <DistanceMeters>NAN</DistanceMeters>
          </Trackpoint>
          <Trackpoint>
            <Time>2022-09-20T15:04:28.000Z</Time>
            <Position>
              <LatitudeDegrees>49.436807893216609954833984375</LatitudeDegrees>
              <LongitudeDegrees>20.3415447659790515899658203125</LongitudeDegrees>
            </Position>
            <AltitudeMeters>632.4000244140625</AltitudeMeters>
            <DistanceMeters>NAN</DistanceMeters>
          </Trackpoint>
          <Trackpoint>
            <Time>2022-09-20T15:04:31.000Z</Time>
            <Position>
              <LatitudeDegrees>49.43695181049406528472900390625</LatitudeDegrees>
              <LongitudeDegrees>20.3412138484418392181396484375</LongitudeDegrees>
            </Position>
            <AltitudeMeters>631.79998779296875</AltitudeMeters>
            <DistanceMeters>NAN</DistanceMeters>
          </Trackpoint>
          <Trackpoint>
            <Time>2022-09-20T15:04:36.000Z</Time>
            <Position>
              <LatitudeDegrees>49.43720318377017974853515625</LatitudeDegrees>
              <LongitudeDegrees>20.34068419598042964935302734375</LongitudeDegrees>
            </Position>
            <AltitudeMeters>630.79998779296875</AltitudeMeters>
            <DistanceMeters>NAN</DistanceMeters>
          </Trackpoint>
          <Trackpoint>
            <Time>2022-09-20T15:04:37.000Z</Time>
            <Position>
              <LatitudeDegrees>49.437244422733783721923828125</LatitudeDegrees>
              <LongitudeDegrees>20.3405791707336902618408203125</LongitudeDegrees>
            </Position>
            <AltitudeMeters>630.79998779296875</AltitudeMeters>
            <DistanceMeters>NAN</DistanceMeters>
          </Trackpoint>
          <Trackpoint>
            <Time>2022-09-20T15:04:38.000Z</Time>
            <Position>
              <LatitudeDegrees>49.43729102611541748046875</LatitudeDegrees>
              <LongitudeDegrees>20.34047481603920459747314453125</LongitudeDegrees>
            </Position>
            <AltitudeMeters>630.5999755859375</AltitudeMeters>
            <DistanceMeters>NAN</DistanceMeters>
          </Trackpoint>
          <Trackpoint>
            <Time>2022-09-20T15:04:43.000Z</Time>
            <Position>
              <LatitudeDegrees>49.4374988973140716552734375</LatitudeDegrees>
              <LongitudeDegrees>20.339992605149745941162109375</LongitudeDegrees>
            </Position>
            <AltitudeMeters>630.4000244140625</AltitudeMeters>
            <DistanceMeters>NAN</DistanceMeters>
          </Trackpoint>
          <Trackpoint>
            <Time>2022-09-20T15:04:45.000Z</Time>
            <Position>
              <LatitudeDegrees>49.4375654496252536773681640625</LatitudeDegrees>
              <LongitudeDegrees>20.3398271463811397552490234375</LongitudeDegrees>
            </Position>
            <AltitudeMeters>630.20001220703125</AltitudeMeters>
            <DistanceMeters>NAN</DistanceMeters>
          </Trackpoint>
          <Trackpoint>
            <Time>2022-09-20T15:04:50.000Z</Time>
            <Position>
              <LatitudeDegrees>49.43776016123592853546142578125</LatitudeDegrees>
              <LongitudeDegrees>20.33937670290470123291015625</LongitudeDegrees>
            </Position>
            <AltitudeMeters>631.20001220703125</AltitudeMeters>
            <DistanceMeters>NAN</DistanceMeters>
          </Trackpoint>
          <Trackpoint>
            <Time>2022-09-20T15:04:51.000Z</Time>
            <Position>
              <LatitudeDegrees>49.43778933025896549224853515625</LatitudeDegrees>
              <LongitudeDegrees>20.3392977453768253326416015625</LongitudeDegrees>
            </Position>
            <AltitudeMeters>631.20001220703125</AltitudeMeters>
            <DistanceMeters>NAN</DistanceMeters>
          </Trackpoint>
          <Trackpoint>
            <Time>2022-09-20T15:04:54.000Z</Time>
            <Position>
              <LatitudeDegrees>49.437873400747776031494140625</LatitudeDegrees>
              <LongitudeDegrees>20.33907403238117694854736328125</LongitudeDegrees>
            </Position>
            <AltitudeMeters>631.4000244140625</AltitudeMeters>
            <DistanceMeters>NAN</DistanceMeters>
          </Trackpoint>
          <Trackpoint>
            <Time>2022-09-20T15:04:56.000Z</Time>
            <Position>
              <LatitudeDegrees>49.4379342533648014068603515625</LatitudeDegrees>
              <LongitudeDegrees>20.3389393351972103118896484375</LongitudeDegrees>
            </Position>
            <AltitudeMeters>631.4000244140625</AltitudeMeters>
            <DistanceMeters>NAN</DistanceMeters>
          </Trackpoint>
          <Trackpoint>
            <Time>2022-09-20T15:04:59.000Z</Time>
            <Position>
              <LatitudeDegrees>49.438008181750774383544921875</LatitudeDegrees>
              <LongitudeDegrees>20.3387562744319438934326171875</LongitudeDegrees>
            </Position>
            <AltitudeMeters>631.4000244140625</AltitudeMeters>
            <DistanceMeters>NAN</DistanceMeters>
          </Trackpoint>
          <Trackpoint>
            <Time>2022-09-20T15:05:01.000Z</Time>
            <Position>
              <LatitudeDegrees>49.43805319257080554962158203125</LatitudeDegrees>
              <LongitudeDegrees>20.33864655531942844390869140625</LongitudeDegrees>
            </Position>
            <AltitudeMeters>631.5999755859375</AltitudeMeters>
            <DistanceMeters>NAN</DistanceMeters>
          </Trackpoint>
          <Trackpoint>
            <Time>2022-09-20T15:05:02.000Z</Time>
            <Position>
              <LatitudeDegrees>49.43807465024292469024658203125</LatitudeDegrees>
              <LongitudeDegrees>20.338598191738128662109375</LongitudeDegrees>
            </Position>
            <AltitudeMeters>631.79998779296875</AltitudeMeters>
            <DistanceMeters>NAN</DistanceMeters>
          </Trackpoint>
          <Trackpoint>
            <Time>2022-09-20T15:05:04.000Z</Time>
            <Position>
              <LatitudeDegrees>49.438111446797847747802734375</LatitudeDegrees>
              <LongitudeDegrees>20.33850892446935176849365234375</LongitudeDegrees>
            </Position>
            <AltitudeMeters>632</AltitudeMeters>
            <DistanceMeters>NAN</DistanceMeters>
          </Trackpoint>
          <Trackpoint>
            <Time>2022-09-20T15:05:07.000Z</Time>
            <Position>
              <LatitudeDegrees>49.43816551007330417633056640625</LatitudeDegrees>
              <LongitudeDegrees>20.3383589722216129302978515625</LongitudeDegrees>
            </Position>
            <AltitudeMeters>632.4000244140625</AltitudeMeters>
            <DistanceMeters>NAN</DistanceMeters>
          </Trackpoint>
          <Trackpoint>
            <Time>2022-09-20T15:05:08.000Z</Time>
            <Position>
              <LatitudeDegrees>49.4381897337734699249267578125</LatitudeDegrees>
              <LongitudeDegrees>20.33830625005066394805908203125</LongitudeDegrees>
            </Position>
            <AltitudeMeters>632.4000244140625</AltitudeMeters>
            <DistanceMeters>NAN</DistanceMeters>
          </Trackpoint>
          <Trackpoint>
            <Time>2022-09-20T15:05:12.000Z</Time>
            <Position>
              <LatitudeDegrees>49.4382614828646183013916015625</LatitudeDegrees>
              <LongitudeDegrees>20.33813391812145709991455078125</LongitudeDegrees>
            </Position>
            <AltitudeMeters>632.5999755859375</AltitudeMeters>
            <DistanceMeters>NAN</DistanceMeters>
          </Trackpoint>
          <Trackpoint>
            <Time>2022-09-20T15:05:13.000Z</Time>
            <Position>
              <LatitudeDegrees>49.438311941921710968017578125</LatitudeDegrees>
              <LongitudeDegrees>20.33803450874984264373779296875</LongitudeDegrees>
            </Position>
            <AltitudeMeters>632.79998779296875</AltitudeMeters>
            <DistanceMeters>NAN</DistanceMeters>
          </Trackpoint>
          <Trackpoint>
            <Time>2022-09-20T15:05:15.000Z</Time>
            <Position>
              <LatitudeDegrees>49.43835192359983921051025390625</LatitudeDegrees>
              <LongitudeDegrees>20.33794783987104892730712890625</LongitudeDegrees>
            </Position>
            <AltitudeMeters>633</AltitudeMeters>
            <DistanceMeters>NAN</DistanceMeters>
          </Trackpoint>
          <Trackpoint>
            <Time>2022-09-20T15:05:16.000Z</Time>
            <Position>
              <LatitudeDegrees>49.438376985490322113037109375</LatitudeDegrees>
              <LongitudeDegrees>20.33789570443332195281982421875</LongitudeDegrees>
            </Position>
            <AltitudeMeters>633.20001220703125</AltitudeMeters>
            <DistanceMeters>NAN</DistanceMeters>
          </Trackpoint>
          <Trackpoint>
            <Time>2022-09-20T15:05:17.000Z</Time>
            <Position>
              <LatitudeDegrees>49.43839500658214092254638671875</LatitudeDegrees>
              <LongitudeDegrees>20.3378530405461788177490234375</LongitudeDegrees>
            </Position>
            <AltitudeMeters>633.20001220703125</AltitudeMeters>
            <DistanceMeters>NAN</DistanceMeters>
          </Trackpoint>
          <Trackpoint>
            <Time>2022-09-20T15:05:21.000Z</Time>
            <Position>
              <LatitudeDegrees>49.43847849033772945404052734375</LatitudeDegrees>
              <LongitudeDegrees>20.33767827786505222320556640625</LongitudeDegrees>
            </Position>
            <AltitudeMeters>633.5999755859375</AltitudeMeters>
            <DistanceMeters>NAN</DistanceMeters>
          </Trackpoint>
          <Trackpoint>
            <Time>2022-09-20T15:05:22.000Z</Time>
            <Position>
              <LatitudeDegrees>49.43850263021886348724365234375</LatitudeDegrees>
              <LongitudeDegrees>20.3376418165862560272216796875</LongitudeDegrees>
            </Position>
            <AltitudeMeters>633.5999755859375</AltitudeMeters>
            <DistanceMeters>NAN</DistanceMeters>
          </Trackpoint>
          <Trackpoint>
            <Time>2022-09-20T15:05:24.000Z</Time>
            <Position>
              <LatitudeDegrees>49.43855233490467071533203125</LatitudeDegrees>
              <LongitudeDegrees>20.33755321986973285675048828125</LongitudeDegrees>
            </Position>
            <AltitudeMeters>633.79998779296875</AltitudeMeters>
            <DistanceMeters>NAN</DistanceMeters>
          </Trackpoint>
          <Trackpoint>
            <Time>2022-09-20T15:05:31.000Z</Time>
            <Position>
              <LatitudeDegrees>49.438715614378452301025390625</LatitudeDegrees>
              <LongitudeDegrees>20.33730092458426952362060546875</LongitudeDegrees>
            </Position>
            <AltitudeMeters>634.20001220703125</AltitudeMeters>
            <DistanceMeters>NAN</DistanceMeters>
          </Trackpoint>
          <Trackpoint>
            <Time>2022-09-20T15:05:36.000Z</Time>
            <Position>
              <LatitudeDegrees>49.4387944042682647705078125</LatitudeDegrees>
              <LongitudeDegrees>20.33720755018293857574462890625</LongitudeDegrees>
            </Position>
            <AltitudeMeters>634.20001220703125</AltitudeMeters>
            <DistanceMeters>NAN</DistanceMeters>
          </Trackpoint>
          <Trackpoint>
            <Time>2022-09-20T15:05:39.000Z</Time>
            <Position>
              <LatitudeDegrees>49.43884092383086681365966796875</LatitudeDegrees>
              <LongitudeDegrees>20.3371442668139934539794921875</LongitudeDegrees>
            </Position>
            <AltitudeMeters>634.5999755859375</AltitudeMeters>
            <DistanceMeters>NAN</DistanceMeters>
          </Trackpoint>
          <Trackpoint>
            <Time>2022-09-20T15:05:40.000Z</Time>
            <Position>
              <LatitudeDegrees>49.43886087276041507720947265625</LatitudeDegrees>
              <LongitudeDegrees>20.3371278382837772369384765625</LongitudeDegrees>
            </Position>
            <AltitudeMeters>634.79998779296875</AltitudeMeters>
            <DistanceMeters>NAN</DistanceMeters>
          </Trackpoint>
          <Trackpoint>
            <Time>2022-09-20T15:05:42.000Z</Time>
            <Position>
              <LatitudeDegrees>49.43891217000782489776611328125</LatitudeDegrees>
              <LongitudeDegrees>20.33708668313920497894287109375</LongitudeDegrees>
            </Position>
            <AltitudeMeters>635</AltitudeMeters>
            <DistanceMeters>NAN</DistanceMeters>
          </Trackpoint>
          <Trackpoint>
            <Time>2022-09-20T15:05:47.000Z</Time>
            <Position>
              <LatitudeDegrees>49.43903756327927112579345703125</LatitudeDegrees>
              <LongitudeDegrees>20.3369990922510623931884765625</LongitudeDegrees>
            </Position>
            <AltitudeMeters>634.5999755859375</AltitudeMeters>
            <DistanceMeters>NAN</DistanceMeters>
          </Trackpoint>
          <Trackpoint>
            <Time>2022-09-20T15:05:51.000Z</Time>
            <Position>
              <LatitudeDegrees>49.4391127489507198333740234375</LatitudeDegrees>
              <LongitudeDegrees>20.33694134093821048736572265625</LongitudeDegrees>
            </Position>
            <AltitudeMeters>635.20001220703125</AltitudeMeters>
            <DistanceMeters>NAN</DistanceMeters>
          </Trackpoint>
          <Trackpoint>
            <Time>2022-09-20T15:05:53.000Z</Time>
            <Position>
              <LatitudeDegrees>49.43913579918444156646728515625</LatitudeDegrees>
              <LongitudeDegrees>20.3368850983679294586181640625</LongitudeDegrees>
            </Position>
            <AltitudeMeters>635.4000244140625</AltitudeMeters>
            <DistanceMeters>NAN</DistanceMeters>
          </Trackpoint>
          <Trackpoint>
            <Time>2022-09-20T15:05:55.000Z</Time>
            <Position>
              <LatitudeDegrees>49.43914669565856456756591796875</LatitudeDegrees>
              <LongitudeDegrees>20.33680940978229045867919921875</LongitudeDegrees>
            </Position>
            <AltitudeMeters>636</AltitudeMeters>
            <DistanceMeters>NAN</DistanceMeters>
          </Trackpoint>
          <Trackpoint>
            <Time>2022-09-20T15:05:58.000Z</Time>
            <Position>
              <LatitudeDegrees>49.439172931015491485595703125</LatitudeDegrees>
              <LongitudeDegrees>20.33670480363070964813232421875</LongitudeDegrees>
            </Position>
            <AltitudeMeters>636.20001220703125</AltitudeMeters>
            <DistanceMeters>NAN</DistanceMeters>
          </Trackpoint>
          <Trackpoint>
            <Time>2022-09-20T15:06:03.000Z</Time>
            <Position>
              <LatitudeDegrees>49.43917485885322093963623046875</LatitudeDegrees>
              <LongitudeDegrees>20.33650347031652927398681640625</LongitudeDegrees>
            </Position>
            <AltitudeMeters>637</AltitudeMeters>
            <DistanceMeters>NAN</DistanceMeters>
          </Trackpoint>
          <Trackpoint>
            <Time>2022-09-20T15:06:04.000Z</Time>
            <Position>
              <LatitudeDegrees>49.43916278891265392303466796875</LatitudeDegrees>
              <LongitudeDegrees>20.33645703457295894622802734375</LongitudeDegrees>
            </Position>
            <AltitudeMeters>637</AltitudeMeters>
            <DistanceMeters>NAN</DistanceMeters>
          </Trackpoint>
          <Trackpoint>
            <Time>2022-09-20T15:06:10.000Z</Time>
            <Position>
              <LatitudeDegrees>49.43913864903151988983154296875</LatitudeDegrees>
              <LongitudeDegrees>20.33619484864175319671630859375</LongitudeDegrees>
            </Position>
            <AltitudeMeters>637.79998779296875</AltitudeMeters>
            <DistanceMeters>NAN</DistanceMeters>
          </Trackpoint>
          <Trackpoint>
            <Time>2022-09-20T15:06:11.000Z</Time>
            <Position>
              <LatitudeDegrees>49.4391399063169956207275390625</LatitudeDegrees>
              <LongitudeDegrees>20.3361635841429233551025390625</LongitudeDegrees>
            </Position>
            <AltitudeMeters>638</AltitudeMeters>
            <DistanceMeters>NAN</DistanceMeters>
          </Trackpoint>
          <Trackpoint>
            <Time>2022-09-20T15:06:12.000Z</Time>
            <Position>
              <LatitudeDegrees>49.4391372241079807281494140625</LatitudeDegrees>
              <LongitudeDegrees>20.336132235825061798095703125</LongitudeDegrees>
            </Position>
            <AltitudeMeters>638.20001220703125</AltitudeMeters>
            <DistanceMeters>NAN</DistanceMeters>
          </Trackpoint>
          <Trackpoint>
            <Time>2022-09-20T15:06:14.000Z</Time>
            <Position>
              <LatitudeDegrees>49.439128339290618896484375</LatitudeDegrees>
              <LongitudeDegrees>20.3360837884247303009033203125</LongitudeDegrees>
            </Position>
            <AltitudeMeters>638.5999755859375</AltitudeMeters>
            <DistanceMeters>NAN</DistanceMeters>
          </Trackpoint>
          <Trackpoint>
            <Time>2022-09-20T15:06:16.000Z</Time>
            <Position>
              <LatitudeDegrees>49.43912632763385772705078125</LatitudeDegrees>
              <LongitudeDegrees>20.33601799048483371734619140625</LongitudeDegrees>
            </Position>
            <AltitudeMeters>639</AltitudeMeters>
            <DistanceMeters>NAN</DistanceMeters>
          </Trackpoint>
          <Trackpoint>
            <Time>2022-09-20T15:06:20.000Z</Time>
            <Position>
              <LatitudeDegrees>49.4391218014061450958251953125</LatitudeDegrees>
              <LongitudeDegrees>20.33588941209018230438232421875</LongitudeDegrees>
            </Position>
            <AltitudeMeters>639.20001220703125</AltitudeMeters>
            <DistanceMeters>NAN</DistanceMeters>
          </Trackpoint>
          <Trackpoint>
            <Time>2022-09-20T15:06:22.000Z</Time>
            <Position>
              <LatitudeDegrees>49.439121298491954803466796875</LatitudeDegrees>
              <LongitudeDegrees>20.33582738600671291351318359375</LongitudeDegrees>
            </Position>
            <AltitudeMeters>639.4000244140625</AltitudeMeters>
            <DistanceMeters>NAN</DistanceMeters>
          </Trackpoint>
          <Trackpoint>
            <Time>2022-09-20T15:06:31.000Z</Time>
            <Position>
              <LatitudeDegrees>49.43910746835172176361083984375</LatitudeDegrees>
              <LongitudeDegrees>20.335507951676845550537109375</LongitudeDegrees>
            </Position>
            <AltitudeMeters>639.79998779296875</AltitudeMeters>
            <DistanceMeters>NAN</DistanceMeters>
          </Trackpoint>
          <Trackpoint>
            <Time>2022-09-20T15:06:37.000Z</Time>
            <Position>
              <LatitudeDegrees>49.43910059519112110137939453125</LatitudeDegrees>
              <LongitudeDegrees>20.335279963910579681396484375</LongitudeDegrees>
            </Position>
            <AltitudeMeters>640.20001220703125</AltitudeMeters>
            <DistanceMeters>NAN</DistanceMeters>
          </Trackpoint>
          <Trackpoint>
            <Time>2022-09-20T15:06:45.000Z</Time>
            <Position>
              <LatitudeDegrees>49.43909305147826671600341796875</LatitudeDegrees>
              <LongitudeDegrees>20.334957428276538848876953125</LongitudeDegrees>
            </Position>
            <AltitudeMeters>640</AltitudeMeters>
            <DistanceMeters>NAN</DistanceMeters>
          </Trackpoint>
          <Trackpoint>
            <Time>2022-09-20T15:06:50.000Z</Time>
            <Position>
              <LatitudeDegrees>49.43908064626157283782958984375</LatitudeDegrees>
              <LongitudeDegrees>20.33474444411695003509521484375</LongitudeDegrees>
            </Position>
            <AltitudeMeters>640</AltitudeMeters>
            <DistanceMeters>NAN</DistanceMeters>
          </Trackpoint>
          <Trackpoint>
            <Time>2022-09-20T15:06:51.000Z</Time>
            <Position>
              <LatitudeDegrees>49.43908014334738254547119140625</LatitudeDegrees>
              <LongitudeDegrees>20.334689207375049591064453125</LongitudeDegrees>
            </Position>
            <AltitudeMeters>639.79998779296875</AltitudeMeters>
            <DistanceMeters>NAN</DistanceMeters>
          </Trackpoint>
          <Trackpoint>
            <Time>2022-09-20T15:06:59.000Z</Time>
            <Position>
              <LatitudeDegrees>49.4390674866735935211181640625</LatitudeDegrees>
              <LongitudeDegrees>20.33425779081881046295166015625</LongitudeDegrees>
            </Position>
            <AltitudeMeters>639.5999755859375</AltitudeMeters>
            <DistanceMeters>NAN</DistanceMeters>
          </Trackpoint>
          <Trackpoint>
            <Time>2022-09-20T15:07:10.000Z</Time>
            <Position>
              <LatitudeDegrees>49.4390332885086536407470703125</LatitudeDegrees>
              <LongitudeDegrees>20.33359847031533718109130859375</LongitudeDegrees>
            </Position>
            <AltitudeMeters>638.79998779296875</AltitudeMeters>
            <DistanceMeters>NAN</DistanceMeters>
          </Trackpoint>
          <Trackpoint>
            <Time>2022-09-20T15:07:14.000Z</Time>
            <Position>
              <LatitudeDegrees>49.43899934180080890655517578125</LatitudeDegrees>
              <LongitudeDegrees>20.33335112035274505615234375</LongitudeDegrees>
            </Position>
            <AltitudeMeters>638.20001220703125</AltitudeMeters>
            <DistanceMeters>NAN</DistanceMeters>
          </Trackpoint>
          <Trackpoint>
            <Time>2022-09-20T15:07:18.000Z</Time>
            <Position>
              <LatitudeDegrees>49.43895894102752208709716796875</LatitudeDegrees>
              <LongitudeDegrees>20.3330929577350616455078125</LongitudeDegrees>
            </Position>
            <AltitudeMeters>637.79998779296875</AltitudeMeters>
            <DistanceMeters>NAN</DistanceMeters>
          </Trackpoint>
          <Trackpoint>
            <Time>2022-09-20T15:07:20.000Z</Time>
            <Position>
              <LatitudeDegrees>49.43892440758645534515380859375</LatitudeDegrees>
              <LongitudeDegrees>20.3329677321016788482666015625</LongitudeDegrees>
            </Position>
            <AltitudeMeters>637.79998779296875</AltitudeMeters>
            <DistanceMeters>NAN</DistanceMeters>
          </Trackpoint>
          <Trackpoint>
            <Time>2022-09-20T15:07:23.000Z</Time>
            <Position>
              <LatitudeDegrees>49.4388535805046558380126953125</LatitudeDegrees>
              <LongitudeDegrees>20.33279648981988430023193359375</LongitudeDegrees>
            </Position>
            <AltitudeMeters>637.4000244140625</AltitudeMeters>
            <DistanceMeters>NAN</DistanceMeters>
          </Trackpoint>
          <Trackpoint>
            <Time>2022-09-20T15:07:24.000Z</Time>
            <Position>
              <LatitudeDegrees>49.43882399238646030426025390625</LatitudeDegrees>
              <LongitudeDegrees>20.3327350504696369171142578125</LongitudeDegrees>
            </Position>
            <AltitudeMeters>637</AltitudeMeters>
            <DistanceMeters>NAN</DistanceMeters>
          </Trackpoint>
          <Trackpoint>
            <Time>2022-09-20T15:07:28.000Z</Time>
            <Position>
              <LatitudeDegrees>49.438682757318019866943359375</LatitudeDegrees>
              <LongitudeDegrees>20.332461632788181304931640625</LongitudeDegrees>
            </Position>
            <AltitudeMeters>636</AltitudeMeters>
            <DistanceMeters>NAN</DistanceMeters>
          </Trackpoint>
          <Trackpoint>
            <Time>2022-09-20T15:07:29.000Z</Time>
            <Position>
              <LatitudeDegrees>49.43864076398313045501708984375</LatitudeDegrees>
              <LongitudeDegrees>20.3323880396783351898193359375</LongitudeDegrees>
            </Position>
            <AltitudeMeters>635</AltitudeMeters>
            <DistanceMeters>NAN</DistanceMeters>
          </Trackpoint>
          <Trackpoint>
            <Time>2022-09-20T15:07:30.000Z</Time>
            <Position>
              <LatitudeDegrees>49.4385947473347187042236328125</LatitudeDegrees>
              <LongitudeDegrees>20.33231335692107677459716796875</LongitudeDegrees>
            </Position>
            <AltitudeMeters>634.20001220703125</AltitudeMeters>
            <DistanceMeters>NAN</DistanceMeters>
          </Trackpoint>
          <Trackpoint>
            <Time>2022-09-20T15:07:33.000Z</Time>
            <Position>
              <LatitudeDegrees>49.4384564459323883056640625</LatitudeDegrees>
              <LongitudeDegrees>20.3320737183094024658203125</LongitudeDegrees>
            </Position>
            <AltitudeMeters>633</AltitudeMeters>
            <DistanceMeters>NAN</DistanceMeters>
          </Trackpoint>
          <Trackpoint>
            <Time>2022-09-20T15:07:36.000Z</Time>
            <Position>
              <LatitudeDegrees>49.43830431438982486724853515625</LatitudeDegrees>
              <LongitudeDegrees>20.33182754181325435638427734375</LongitudeDegrees>
            </Position>
            <AltitudeMeters>631.79998779296875</AltitudeMeters>
            <DistanceMeters>NAN</DistanceMeters>
          </Trackpoint>
          <Trackpoint>
            <Time>2022-09-20T15:07:39.000Z</Time>
            <Position>
              <LatitudeDegrees>49.43818395026028156280517578125</LatitudeDegrees>
              <LongitudeDegrees>20.33160592429339885711669921875</LongitudeDegrees>
            </Position>
            <AltitudeMeters>631</AltitudeMeters>
            <DistanceMeters>NAN</DistanceMeters>
          </Trackpoint>
          <Trackpoint>
            <Time>2022-09-20T15:07:40.000Z</Time>
            <Position>
              <LatitudeDegrees>49.438144303858280181884765625</LatitudeDegrees>
              <LongitudeDegrees>20.331531576812267303466796875</LongitudeDegrees>
            </Position>
            <AltitudeMeters>630.79998779296875</AltitudeMeters>
            <DistanceMeters>NAN</DistanceMeters>
          </Trackpoint>
          <Trackpoint>
            <Time>2022-09-20T15:07:43.000Z</Time>
            <Position>
              <LatitudeDegrees>49.43802553229033946990966796875</LatitudeDegrees>
              <LongitudeDegrees>20.33129529096186161041259765625</LongitudeDegrees>
            </Position>
            <AltitudeMeters>630</AltitudeMeters>
            <DistanceMeters>NAN</DistanceMeters>
          </Trackpoint>
          <Trackpoint>
            <Time>2022-09-20T15:07:45.000Z</Time>
            <Position>
              <LatitudeDegrees>49.4379520229995250701904296875</LatitudeDegrees>
              <LongitudeDegrees>20.33112891018390655517578125</LongitudeDegrees>
            </Position>
            <AltitudeMeters>629.79998779296875</AltitudeMeters>
            <DistanceMeters>NAN</DistanceMeters>
          </Trackpoint>
          <Trackpoint>
            <Time>2022-09-20T15:07:48.000Z</Time>
            <Position>
              <LatitudeDegrees>49.4378688745200634002685546875</LatitudeDegrees>
              <LongitudeDegrees>20.3308373875916004180908203125</LongitudeDegrees>
            </Position>
            <AltitudeMeters>628.79998779296875</AltitudeMeters>
            <DistanceMeters>NAN</DistanceMeters>
          </Trackpoint>
          <Trackpoint>
            <Time>2022-09-20T15:07:49.000Z</Time>
            <Position>
              <LatitudeDegrees>49.43784716539084911346435546875</LatitudeDegrees>
              <LongitudeDegrees>20.33073521219193935394287109375</LongitudeDegrees>
            </Position>
            <AltitudeMeters>628.5999755859375</AltitudeMeters>
            <DistanceMeters>NAN</DistanceMeters>
          </Trackpoint>
          <Trackpoint>
            <Time>2022-09-20T15:07:53.000Z</Time>
            <Position>
              <LatitudeDegrees>49.4377724826335906982421875</LatitudeDegrees>
              <LongitudeDegrees>20.3303200565278530120849609375</LongitudeDegrees>
            </Position>
            <AltitudeMeters>627.20001220703125</AltitudeMeters>
            <DistanceMeters>NAN</DistanceMeters>
          </Trackpoint>
          <Trackpoint>
            <Time>2022-09-20T15:07:55.000Z</Time>
            <Position>
              <LatitudeDegrees>49.4377532042562961578369140625</LatitudeDegrees>
              <LongitudeDegrees>20.3301369957625865936279296875</LongitudeDegrees>
            </Position>
            <AltitudeMeters>627</AltitudeMeters>
            <DistanceMeters>NAN</DistanceMeters>
          </Trackpoint>
          <Trackpoint>
            <Time>2022-09-20T15:07:56.000Z</Time>
            <Position>
              <LatitudeDegrees>49.4377451576292514801025390625</LatitudeDegrees>
              <LongitudeDegrees>20.330024175345897674560546875</LongitudeDegrees>
            </Position>
            <AltitudeMeters>626.79998779296875</AltitudeMeters>
            <DistanceMeters>NAN</DistanceMeters>
          </Trackpoint>
          <Trackpoint>
            <Time>2022-09-20T15:08:02.000Z</Time>
            <Position>
              <LatitudeDegrees>49.43769444711506366729736328125</LatitudeDegrees>
              <LongitudeDegrees>20.3295633383095264434814453125</LongitudeDegrees>
            </Position>
            <AltitudeMeters>627.4000244140625</AltitudeMeters>
            <DistanceMeters>NAN</DistanceMeters>
          </Trackpoint>
          <Trackpoint>
            <Time>2022-09-20T15:08:05.000Z</Time>
            <Position>
              <LatitudeDegrees>49.43767391145229339599609375</LatitudeDegrees>
              <LongitudeDegrees>20.3293571434915065765380859375</LongitudeDegrees>
            </Position>
            <AltitudeMeters>627.79998779296875</AltitudeMeters>
            <DistanceMeters>NAN</DistanceMeters>
          </Trackpoint>
          <Trackpoint>
            <Time>2022-09-20T15:08:08.000Z</Time>
            <Position>
              <LatitudeDegrees>49.43765874020755290985107421875</LatitudeDegrees>
              <LongitudeDegrees>20.32919235527515411376953125</LongitudeDegrees>
            </Position>
            <AltitudeMeters>628.20001220703125</AltitudeMeters>
            <DistanceMeters>NAN</DistanceMeters>
          </Trackpoint>
          <Trackpoint>
            <Time>2022-09-20T15:08:12.000Z</Time>
            <Position>
              <LatitudeDegrees>49.43763795308768749237060546875</LatitudeDegrees>
              <LongitudeDegrees>20.32901407219469547271728515625</LongitudeDegrees>
            </Position>
            <AltitudeMeters>628.20001220703125</AltitudeMeters>
            <DistanceMeters>NAN</DistanceMeters>
          </Trackpoint>
          <Trackpoint>
            <Time>2022-09-20T15:08:15.000Z</Time>
            <Position>
              <LatitudeDegrees>49.43762202747166156768798828125</LatitudeDegrees>
              <LongitudeDegrees>20.32890611328184604644775390625</LongitudeDegrees>
            </Position>
            <AltitudeMeters>628.20001220703125</AltitudeMeters>
            <DistanceMeters>NAN</DistanceMeters>
          </Trackpoint>
          <Trackpoint>
            <Time>2022-09-20T15:08:22.000Z</Time>
            <Position>
              <LatitudeDegrees>49.4376070238649845123291015625</LatitudeDegrees>
              <LongitudeDegrees>20.32867209054529666900634765625</LongitudeDegrees>
            </Position>
            <AltitudeMeters>628</AltitudeMeters>
            <DistanceMeters>NAN</DistanceMeters>
          </Trackpoint>
          <Trackpoint>
            <Time>2022-09-20T15:08:23.000Z</Time>
            <Position>
              <LatitudeDegrees>49.4376063533127307891845703125</LatitudeDegrees>
              <LongitudeDegrees>20.32864744774997234344482421875</LongitudeDegrees>
            </Position>
            <AltitudeMeters>628</AltitudeMeters>
            <DistanceMeters>NAN</DistanceMeters>
          </Trackpoint>
          <Trackpoint>
            <Time>2022-09-20T15:08:26.000Z</Time>
            <Position>
              <LatitudeDegrees>49.4376157410442829132080078125</LatitudeDegrees>
              <LongitudeDegrees>20.32862599007785320281982421875</LongitudeDegrees>
            </Position>
            <AltitudeMeters>628.20001220703125</AltitudeMeters>
            <DistanceMeters>NAN</DistanceMeters>
          </Trackpoint>
          <Trackpoint>
            <Time>2022-09-20T15:08:33.000Z</Time>
            <Position>
              <LatitudeDegrees>49.4376157410442829132080078125</LatitudeDegrees>
              <LongitudeDegrees>20.32862599007785320281982421875</LongitudeDegrees>
            </Position>
            <AltitudeMeters>628.4000244140625</AltitudeMeters>
            <DistanceMeters>NAN</DistanceMeters>
          </Trackpoint>
          <Trackpoint>
            <Time>2022-09-20T15:08:36.000Z</Time>
            <Position>
              <LatitudeDegrees>49.4376157410442829132080078125</LatitudeDegrees>
              <LongitudeDegrees>20.32862599007785320281982421875</LongitudeDegrees>
            </Position>
            <AltitudeMeters>628.4000244140625</AltitudeMeters>
            <DistanceMeters>NAN</DistanceMeters>
          </Trackpoint>
          <Trackpoint>
            <Time>2022-09-20T15:08:39.000Z</Time>
            <Position>
              <LatitudeDegrees>49.43761565722525119781494140625</LatitudeDegrees>
              <LongitudeDegrees>20.3286235593259334564208984375</LongitudeDegrees>
            </Position>
            <AltitudeMeters>628.4000244140625</AltitudeMeters>
            <DistanceMeters>NAN</DistanceMeters>
          </Trackpoint>
          <Trackpoint>
            <Time>2022-09-20T15:08:42.000Z</Time>
            <Position>
              <LatitudeDegrees>49.43759285844862461090087890625</LatitudeDegrees>
              <LongitudeDegrees>20.32853714190423488616943359375</LongitudeDegrees>
            </Position>
            <AltitudeMeters>628.20001220703125</AltitudeMeters>
            <DistanceMeters>NAN</DistanceMeters>
          </Trackpoint>
          <Trackpoint>
            <Time>2022-09-20T15:08:48.000Z</Time>
            <Position>
              <LatitudeDegrees>49.4375600852072238922119140625</LatitudeDegrees>
              <LongitudeDegrees>20.32833111472427845001220703125</LongitudeDegrees>
            </Position>
            <AltitudeMeters>627.79998779296875</AltitudeMeters>
            <DistanceMeters>NAN</DistanceMeters>
          </Trackpoint>
          <Trackpoint>
            <Time>2022-09-20T15:08:51.000Z</Time>
            <Position>
              <LatitudeDegrees>49.4375517033040523529052734375</LatitudeDegrees>
              <LongitudeDegrees>20.328208990395069122314453125</LongitudeDegrees>
            </Position>
            <AltitudeMeters>627</AltitudeMeters>
            <DistanceMeters>NAN</DistanceMeters>
          </Trackpoint>
          <Trackpoint>
            <Time>2022-09-20T15:08:55.000Z</Time>
            <Position>
              <LatitudeDegrees>49.437538795173168182373046875</LatitudeDegrees>
              <LongitudeDegrees>20.32805719412863254547119140625</LongitudeDegrees>
            </Position>
            <AltitudeMeters>626.5999755859375</AltitudeMeters>
            <DistanceMeters>NAN</DistanceMeters>
          </Trackpoint>
          <Trackpoint>
            <Time>2022-09-20T15:08:59.000Z</Time>
            <Position>
              <LatitudeDegrees>49.4375007413327693939208984375</LatitudeDegrees>
              <LongitudeDegrees>20.32777589745819568634033203125</LongitudeDegrees>
            </Position>
            <AltitudeMeters>625.79998779296875</AltitudeMeters>
            <DistanceMeters>NAN</DistanceMeters>
          </Trackpoint>
          <Trackpoint>
            <Time>2022-09-20T15:09:01.000Z</Time>
            <Position>
              <LatitudeDegrees>49.4374896772205829620361328125</LatitudeDegrees>
              <LongitudeDegrees>20.327672548592090606689453125</LongitudeDegrees>
            </Position>
            <AltitudeMeters>625.4000244140625</AltitudeMeters>
            <DistanceMeters>NAN</DistanceMeters>
          </Trackpoint>
          <Trackpoint>
            <Time>2022-09-20T15:09:04.000Z</Time>
            <Position>
              <LatitudeDegrees>49.43747433833777904510498046875</LatitudeDegrees>
              <LongitudeDegrees>20.32752578146755695343017578125</LongitudeDegrees>
            </Position>
            <AltitudeMeters>624.79998779296875</AltitudeMeters>
            <DistanceMeters>NAN</DistanceMeters>
          </Trackpoint>
          <Trackpoint>
            <Time>2022-09-20T15:09:08.000Z</Time>
            <Position>
              <LatitudeDegrees>49.4374397210776805877685546875</LatitudeDegrees>
              <LongitudeDegrees>20.32734657637774944305419921875</LongitudeDegrees>
            </Position>
            <AltitudeMeters>624</AltitudeMeters>
            <DistanceMeters>NAN</DistanceMeters>
          </Trackpoint>
          <Trackpoint>
            <Time>2022-09-20T15:09:09.000Z</Time>
            <Position>
              <LatitudeDegrees>49.437431506812572479248046875</LatitudeDegrees>
              <LongitudeDegrees>20.3273002244532108306884765625</LongitudeDegrees>
            </Position>
            <AltitudeMeters>623.79998779296875</AltitudeMeters>
            <DistanceMeters>NAN</DistanceMeters>
          </Trackpoint>
          <Trackpoint>
            <Time>2022-09-20T15:09:14.000Z</Time>
            <Position>
              <LatitudeDegrees>49.437418095767498016357421875</LatitudeDegrees>
              <LongitudeDegrees>20.32705086283385753631591796875</LongitudeDegrees>
            </Position>
            <AltitudeMeters>622.4000244140625</AltitudeMeters>
            <DistanceMeters>NAN</DistanceMeters>
          </Trackpoint>
          <Trackpoint>
            <Time>2022-09-20T15:09:15.000Z</Time>
            <Position>
              <LatitudeDegrees>49.4374085403978824615478515625</LatitudeDegrees>
              <LongitudeDegrees>20.3269984759390354156494140625</LongitudeDegrees>
            </Position>
            <AltitudeMeters>622.20001220703125</AltitudeMeters>
            <DistanceMeters>NAN</DistanceMeters>
          </Trackpoint>
          <Trackpoint>
            <Time>2022-09-20T15:09:18.000Z</Time>
            <Position>
              <LatitudeDegrees>49.43738691508769989013671875</LatitudeDegrees>
              <LongitudeDegrees>20.32681189477443695068359375</LongitudeDegrees>
            </Position>
            <AltitudeMeters>621</AltitudeMeters>
            <DistanceMeters>NAN</DistanceMeters>
          </Trackpoint>
          <Trackpoint>
            <Time>2022-09-20T15:09:21.000Z</Time>
            <Position>
              <LatitudeDegrees>49.4373679719865322113037109375</LatitudeDegrees>
              <LongitudeDegrees>20.32664417289197444915771484375</LongitudeDegrees>
            </Position>
            <AltitudeMeters>620</AltitudeMeters>
            <DistanceMeters>NAN</DistanceMeters>
          </Trackpoint>
          <Trackpoint>
            <Time>2022-09-20T15:09:22.000Z</Time>
            <Position>
              <LatitudeDegrees>49.4373579137027263641357421875</LatitudeDegrees>
              <LongitudeDegrees>20.3265939652919769287109375</LongitudeDegrees>
            </Position>
            <AltitudeMeters>619.79998779296875</AltitudeMeters>
            <DistanceMeters>NAN</DistanceMeters>
          </Trackpoint>
          <Trackpoint>
            <Time>2022-09-20T15:09:26.000Z</Time>
            <Position>
              <LatitudeDegrees>49.43734534084796905517578125</LatitudeDegrees>
              <LongitudeDegrees>20.32641149125993251800537109375</LongitudeDegrees>
            </Position>
            <AltitudeMeters>618.4000244140625</AltitudeMeters>
            <DistanceMeters>NAN</DistanceMeters>
          </Trackpoint>
          <Trackpoint>
            <Time>2022-09-20T15:09:29.000Z</Time>
            <Position>
              <LatitudeDegrees>49.43733050487935543060302734375</LatitudeDegrees>
              <LongitudeDegrees>20.32627813518047332763671875</LongitudeDegrees>
            </Position>
            <AltitudeMeters>617.79998779296875</AltitudeMeters>
            <DistanceMeters>NAN</DistanceMeters>
          </Trackpoint>
          <Trackpoint>
            <Time>2022-09-20T15:09:31.000Z</Time>
            <Position>
              <LatitudeDegrees>49.43732111714780330657958984375</LatitudeDegrees>
              <LongitudeDegrees>20.3261928074061870574951171875</LongitudeDegrees>
            </Position>
            <AltitudeMeters>617.4000244140625</AltitudeMeters>
            <DistanceMeters>NAN</DistanceMeters>
          </Trackpoint>
          <Trackpoint>
            <Time>2022-09-20T15:09:35.000Z</Time>
            <Position>
              <LatitudeDegrees>49.4373032636940479278564453125</LatitudeDegrees>
              <LongitudeDegrees>20.32604218460619449615478515625</LongitudeDegrees>
            </Position>
            <AltitudeMeters>616.20001220703125</AltitudeMeters>
            <DistanceMeters>NAN</DistanceMeters>
          </Trackpoint>
          <Trackpoint>
            <Time>2022-09-20T15:09:36.000Z</Time>
            <Position>
              <LatitudeDegrees>49.437300749123096466064453125</LatitudeDegrees>
              <LongitudeDegrees>20.32600848935544490814208984375</LongitudeDegrees>
            </Position>
            <AltitudeMeters>616</AltitudeMeters>
            <DistanceMeters>NAN</DistanceMeters>
          </Trackpoint>
          <Trackpoint>
            <Time>2022-09-20T15:09:39.000Z</Time>
            <Position>
              <LatitudeDegrees>49.4372844882309436798095703125</LatitudeDegrees>
              <LongitudeDegrees>20.3258907236158847808837890625</LongitudeDegrees>
            </Position>
            <AltitudeMeters>615</AltitudeMeters>
            <DistanceMeters>NAN</DistanceMeters>
          </Trackpoint>
          <Trackpoint>
            <Time>2022-09-20T15:09:43.000Z</Time>
            <Position>
              <LatitudeDegrees>49.437265209853649139404296875</LatitudeDegrees>
              <LongitudeDegrees>20.32574278302490711212158203125</LongitudeDegrees>
            </Position>
            <AltitudeMeters>614.20001220703125</AltitudeMeters>
            <DistanceMeters>NAN</DistanceMeters>
          </Trackpoint>
          <Trackpoint>
            <Time>2022-09-20T15:09:44.000Z</Time>
            <Position>
              <LatitudeDegrees>49.43726110272109508514404296875</LatitudeDegrees>
              <LongitudeDegrees>20.3257033042609691619873046875</LongitudeDegrees>
            </Position>
            <AltitudeMeters>614</AltitudeMeters>
            <DistanceMeters>NAN</DistanceMeters>
          </Trackpoint>
          <Trackpoint>
            <Time>2022-09-20T15:09:45.000Z</Time>
            <Position>
              <LatitudeDegrees>49.43726110272109508514404296875</LatitudeDegrees>
              <LongitudeDegrees>20.3257033042609691619873046875</LongitudeDegrees>
            </Position>
            <AltitudeMeters>614</AltitudeMeters>
            <DistanceMeters>NAN</DistanceMeters>
          </Trackpoint>
          <Trackpoint>
            <Time>2022-09-20T15:09:49.000Z</Time>
            <Position>
              <LatitudeDegrees>49.43723260425031185150146484375</LatitudeDegrees>
              <LongitudeDegrees>20.32553994096815586090087890625</LongitudeDegrees>
            </Position>
            <AltitudeMeters>613</AltitudeMeters>
            <DistanceMeters>NAN</DistanceMeters>
          </Trackpoint>
          <Trackpoint>
            <Time>2022-09-20T15:09:50.000Z</Time>
            <Position>
              <LatitudeDegrees>49.43722941912710666656494140625</LatitudeDegrees>
              <LongitudeDegrees>20.3255091793835163116455078125</LongitudeDegrees>
            </Position>
            <AltitudeMeters>612.79998779296875</AltitudeMeters>
            <DistanceMeters>NAN</DistanceMeters>
          </Trackpoint>
          <Trackpoint>
            <Time>2022-09-20T15:09:51.000Z</Time>
            <Position>
              <LatitudeDegrees>49.43722438998520374298095703125</LatitudeDegrees>
              <LongitudeDegrees>20.32548093236982822418212890625</LongitudeDegrees>
            </Position>
            <AltitudeMeters>612.5999755859375</AltitudeMeters>
            <DistanceMeters>NAN</DistanceMeters>
          </Trackpoint>
          <Trackpoint>
            <Time>2022-09-20T15:09:54.000Z</Time>
            <Position>
              <LatitudeDegrees>49.437223635613918304443359375</LatitudeDegrees>
              <LongitudeDegrees>20.3254079259932041168212890625</LongitudeDegrees>
            </Position>
            <AltitudeMeters>612.4000244140625</AltitudeMeters>
            <DistanceMeters>NAN</DistanceMeters>
          </Trackpoint>
          <Trackpoint>
            <Time>2022-09-20T15:09:57.000Z</Time>
            <Position>
              <LatitudeDegrees>49.43722405470907688140869140625</LatitudeDegrees>
              <LongitudeDegrees>20.3254003822803497314453125</LongitudeDegrees>
            </Position>
            <AltitudeMeters>612</AltitudeMeters>
            <DistanceMeters>NAN</DistanceMeters>
          </Trackpoint>
          <Trackpoint>
            <Time>2022-09-20T15:09:58.000Z</Time>
            <Position>
              <LatitudeDegrees>49.43722405470907688140869140625</LatitudeDegrees>
              <LongitudeDegrees>20.3254003822803497314453125</LongitudeDegrees>
            </Position>
            <AltitudeMeters>611.79998779296875</AltitudeMeters>
            <DistanceMeters>NAN</DistanceMeters>
          </Trackpoint>
          <Trackpoint>
            <Time>2022-09-20T15:10:04.000Z</Time>
            <Position>
              <LatitudeDegrees>49.43722405470907688140869140625</LatitudeDegrees>
              <LongitudeDegrees>20.3254003822803497314453125</LongitudeDegrees>
            </Position>
            <AltitudeMeters>611.4000244140625</AltitudeMeters>
            <DistanceMeters>NAN</DistanceMeters>
          </Trackpoint>
          <Trackpoint>
            <Time>2022-09-20T15:10:10.000Z</Time>
            <Position>
              <LatitudeDegrees>49.43722405470907688140869140625</LatitudeDegrees>
              <LongitudeDegrees>20.3254003822803497314453125</LongitudeDegrees>
            </Position>
            <AltitudeMeters>611.4000244140625</AltitudeMeters>
            <DistanceMeters>NAN</DistanceMeters>
          </Trackpoint>
          <Trackpoint>
            <Time>2022-09-20T15:10:24.000Z</Time>
            <Position>
              <LatitudeDegrees>49.4372234679758548736572265625</LatitudeDegrees>
              <LongitudeDegrees>20.32539761625230312347412109375</LongitudeDegrees>
            </Position>
            <AltitudeMeters>611.4000244140625</AltitudeMeters>
            <DistanceMeters>NAN</DistanceMeters>
          </Trackpoint>
          <Trackpoint>
            <Time>2022-09-20T15:10:27.000Z</Time>
            <Position>
              <LatitudeDegrees>49.4372204504907131195068359375</LatitudeDegrees>
              <LongitudeDegrees>20.32528362236917018890380859375</LongitudeDegrees>
            </Position>
            <AltitudeMeters>611</AltitudeMeters>
            <DistanceMeters>NAN</DistanceMeters>
          </Trackpoint>
          <Trackpoint>
            <Time>2022-09-20T15:10:28.000Z</Time>
            <Position>
              <LatitudeDegrees>49.43723411299288272857666015625</LatitudeDegrees>
              <LongitudeDegrees>20.32524607144296169281005859375</LongitudeDegrees>
            </Position>
            <AltitudeMeters>610.79998779296875</AltitudeMeters>
            <DistanceMeters>NAN</DistanceMeters>
          </Trackpoint>
          <Trackpoint>
            <Time>2022-09-20T15:10:30.000Z</Time>
            <Position>
              <LatitudeDegrees>49.43725682795047760009765625</LatitudeDegrees>
              <LongitudeDegrees>20.32520399428904056549072265625</LongitudeDegrees>
            </Position>
            <AltitudeMeters>610</AltitudeMeters>
            <DistanceMeters>NAN</DistanceMeters>
          </Trackpoint>
          <Trackpoint>
            <Time>2022-09-20T15:10:31.000Z</Time>
            <Position>
              <LatitudeDegrees>49.43726596422493457794189453125</LatitudeDegrees>
              <LongitudeDegrees>20.32519946806132793426513671875</LongitudeDegrees>
            </Position>
            <AltitudeMeters>610</AltitudeMeters>
            <DistanceMeters>NAN</DistanceMeters>
          </Trackpoint>
          <Trackpoint>
            <Time>2022-09-20T15:10:32.000Z</Time>
            <Position>
              <LatitudeDegrees>49.4372653774917125701904296875</LatitudeDegrees>
              <LongitudeDegrees>20.32519678585231304168701171875</LongitudeDegrees>
            </Position>
            <AltitudeMeters>610</AltitudeMeters>
            <DistanceMeters>NAN</DistanceMeters>
          </Trackpoint>
          <Trackpoint>
            <Time>2022-09-20T15:10:34.000Z</Time>
            <Position>
              <LatitudeDegrees>49.43726479075849056243896484375</LatitudeDegrees>
              <LongitudeDegrees>20.3251940198242664337158203125</LongitudeDegrees>
            </Position>
            <AltitudeMeters>609.79998779296875</AltitudeMeters>
            <DistanceMeters>NAN</DistanceMeters>
          </Trackpoint>
          <Trackpoint>
            <Time>2022-09-20T15:10:36.000Z</Time>
            <Position>
              <LatitudeDegrees>49.43726479075849056243896484375</LatitudeDegrees>
              <LongitudeDegrees>20.3251940198242664337158203125</LongitudeDegrees>
            </Position>
            <AltitudeMeters>609.79998779296875</AltitudeMeters>
            <DistanceMeters>NAN</DistanceMeters>
          </Trackpoint>
          <Trackpoint>
            <Time>2022-09-20T15:10:47.000Z</Time>
            <Position>
              <LatitudeDegrees>49.43726479075849056243896484375</LatitudeDegrees>
              <LongitudeDegrees>20.3251940198242664337158203125</LongitudeDegrees>
            </Position>
            <AltitudeMeters>610</AltitudeMeters>
            <DistanceMeters>NAN</DistanceMeters>
          </Trackpoint>
          <Trackpoint>
            <Time>2022-09-20T15:11:09.000Z</Time>
            <Position>
              <LatitudeDegrees>49.4373057782649993896484375</LatitudeDegrees>
              <LongitudeDegrees>20.3251777589321136474609375</LongitudeDegrees>
            </Position>
            <AltitudeMeters>610</AltitudeMeters>
            <DistanceMeters>NAN</DistanceMeters>
          </Trackpoint>
          <Trackpoint>
            <Time>2022-09-20T15:11:15.000Z</Time>
            <Position>
              <LatitudeDegrees>49.43742605857551097869873046875</LatitudeDegrees>
              <LongitudeDegrees>20.32513543032109737396240234375</LongitudeDegrees>
            </Position>
            <AltitudeMeters>610</AltitudeMeters>
            <DistanceMeters>NAN</DistanceMeters>
          </Trackpoint>
          <Trackpoint>
            <Time>2022-09-20T15:11:22.000Z</Time>
            <Position>
              <LatitudeDegrees>49.43756435997784137725830078125</LatitudeDegrees>
              <LongitudeDegrees>20.32509435899555683135986328125</LongitudeDegrees>
            </Position>
            <AltitudeMeters>610.20001220703125</AltitudeMeters>
            <DistanceMeters>NAN</DistanceMeters>
          </Trackpoint>
          <Trackpoint>
            <Time>2022-09-20T15:11:26.000Z</Time>
            <Position>
              <LatitudeDegrees>49.4376398809254169464111328125</LatitudeDegrees>
              <LongitudeDegrees>20.32509000040590763092041015625</LongitudeDegrees>
            </Position>
            <AltitudeMeters>610.4000244140625</AltitudeMeters>
            <DistanceMeters>NAN</DistanceMeters>
          </Trackpoint>
          <Trackpoint>
            <Time>2022-09-20T15:11:28.000Z</Time>
            <Position>
              <LatitudeDegrees>49.4376737438142299652099609375</LatitudeDegrees>
              <LongitudeDegrees>20.3251219354569911956787109375</LongitudeDegrees>
            </Position>
            <AltitudeMeters>610.20001220703125</AltitudeMeters>
            <DistanceMeters>NAN</DistanceMeters>
          </Trackpoint>
          <Trackpoint>
            <Time>2022-09-20T15:11:34.000Z</Time>
            <Position>
              <LatitudeDegrees>49.437717832624912261962890625</LatitudeDegrees>
              <LongitudeDegrees>20.32529435120522975921630859375</LongitudeDegrees>
            </Position>
            <AltitudeMeters>610.4000244140625</AltitudeMeters>
            <DistanceMeters>NAN</DistanceMeters>
          </Trackpoint>
          <Trackpoint>
            <Time>2022-09-20T15:11:41.000Z</Time>
            <Position>
              <LatitudeDegrees>49.437710456550121307373046875</LatitudeDegrees>
              <LongitudeDegrees>20.3255467303097248077392578125</LongitudeDegrees>
            </Position>
            <AltitudeMeters>611.79998779296875</AltitudeMeters>
            <DistanceMeters>NAN</DistanceMeters>
          </Trackpoint>
          <Trackpoint>
            <Time>2022-09-20T15:11:42.000Z</Time>
            <Position>
              <LatitudeDegrees>49.43771339021623134613037109375</LatitudeDegrees>
              <LongitudeDegrees>20.325587131083011627197265625</LongitudeDegrees>
            </Position>
            <AltitudeMeters>612.4000244140625</AltitudeMeters>
            <DistanceMeters>NAN</DistanceMeters>
          </Trackpoint>
          <Trackpoint>
            <Time>2022-09-20T15:11:45.000Z</Time>
            <Position>
              <LatitudeDegrees>49.43772076629102230072021484375</LatitudeDegrees>
              <LongitudeDegrees>20.32570020295679569244384765625</LongitudeDegrees>
            </Position>
            <AltitudeMeters>613</AltitudeMeters>
            <DistanceMeters>NAN</DistanceMeters>
          </Trackpoint>
          <Trackpoint>
            <Time>2022-09-20T15:11:47.000Z</Time>
            <Position>
              <LatitudeDegrees>49.4377116300165653228759765625</LatitudeDegrees>
              <LongitudeDegrees>20.3257851116359233856201171875</LongitudeDegrees>
            </Position>
            <AltitudeMeters>613.20001220703125</AltitudeMeters>
            <DistanceMeters>NAN</DistanceMeters>
          </Trackpoint>
          <Trackpoint>
            <Time>2022-09-20T15:11:48.000Z</Time>
            <Position>
              <LatitudeDegrees>49.43771339021623134613037109375</LatitudeDegrees>
              <LongitudeDegrees>20.3258263505995273590087890625</LongitudeDegrees>
            </Position>
            <AltitudeMeters>613.5999755859375</AltitudeMeters>
            <DistanceMeters>NAN</DistanceMeters>
          </Trackpoint>
          <Trackpoint>
            <Time>2022-09-20T15:11:50.000Z</Time>
            <Position>
              <LatitudeDegrees>49.43771540187299251556396484375</LatitudeDegrees>
              <LongitudeDegrees>20.3258987702429294586181640625</LongitudeDegrees>
            </Position>
            <AltitudeMeters>614.20001220703125</AltitudeMeters>
            <DistanceMeters>NAN</DistanceMeters>
          </Trackpoint>
          <Trackpoint>
            <Time>2022-09-20T15:11:51.000Z</Time>
            <Position>
              <LatitudeDegrees>49.43771456368267536163330078125</LatitudeDegrees>
              <LongitudeDegrees>20.32593020237982273101806640625</LongitudeDegrees>
            </Position>
            <AltitudeMeters>614.5999755859375</AltitudeMeters>
            <DistanceMeters>NAN</DistanceMeters>
          </Trackpoint>
          <Trackpoint>
            <Time>2022-09-20T15:11:54.000Z</Time>
            <Position>
              <LatitudeDegrees>49.43771355785429477691650390625</LatitudeDegrees>
              <LongitudeDegrees>20.3260104171931743621826171875</LongitudeDegrees>
            </Position>
            <AltitudeMeters>615.20001220703125</AltitudeMeters>
            <DistanceMeters>NAN</DistanceMeters>
          </Trackpoint>
          <Trackpoint>
            <Time>2022-09-20T15:11:55.000Z</Time>
            <Position>
              <LatitudeDegrees>49.4377153180539608001708984375</LatitudeDegrees>
              <LongitudeDegrees>20.32603983767330646514892578125</LongitudeDegrees>
            </Position>
            <AltitudeMeters>615.4000244140625</AltitudeMeters>
            <DistanceMeters>NAN</DistanceMeters>
          </Trackpoint>
          <Trackpoint>
            <Time>2022-09-20T15:12:00.000Z</Time>
            <Position>
              <LatitudeDegrees>49.437701068818569183349609375</LatitudeDegrees>
              <LongitudeDegrees>20.32614243216812610626220703125</LongitudeDegrees>
            </Position>
            <AltitudeMeters>616.20001220703125</AltitudeMeters>
            <DistanceMeters>NAN</DistanceMeters>
          </Trackpoint>
          <Trackpoint>
            <Time>2022-09-20T15:12:02.000Z</Time>
            <Position>
              <LatitudeDegrees>49.43769394420087337493896484375</LatitudeDegrees>
              <LongitudeDegrees>20.32619004137814044952392578125</LongitudeDegrees>
            </Position>
            <AltitudeMeters>616.4000244140625</AltitudeMeters>
            <DistanceMeters>NAN</DistanceMeters>
          </Trackpoint>
          <Trackpoint>
            <Time>2022-09-20T15:12:04.000Z</Time>
            <Position>
              <LatitudeDegrees>49.437690675258636474609375</LatitudeDegrees>
              <LongitudeDegrees>20.32623060978949069976806640625</LongitudeDegrees>
            </Position>
            <AltitudeMeters>616.4000244140625</AltitudeMeters>
            <DistanceMeters>NAN</DistanceMeters>
          </Trackpoint>
          <Trackpoint>
            <Time>2022-09-20T15:12:07.000Z</Time>
            <Position>
              <LatitudeDegrees>49.43769360892474651336669921875</LatitudeDegrees>
              <LongitudeDegrees>20.3263007663190364837646484375</LongitudeDegrees>
            </Position>
            <AltitudeMeters>616.4000244140625</AltitudeMeters>
            <DistanceMeters>NAN</DistanceMeters>
          </Trackpoint>
          <Trackpoint>
            <Time>2022-09-20T15:12:13.000Z</Time>
            <Position>
              <LatitudeDegrees>49.43772009573876857757568359375</LatitudeDegrees>
              <LongitudeDegrees>20.32636396586894989013671875</LongitudeDegrees>
            </Position>
            <AltitudeMeters>616.79998779296875</AltitudeMeters>
            <DistanceMeters>NAN</DistanceMeters>
          </Trackpoint>
          <Trackpoint>
            <Time>2022-09-20T15:12:16.000Z</Time>
            <Position>
              <LatitudeDegrees>49.43772009573876857757568359375</LatitudeDegrees>
              <LongitudeDegrees>20.32636396586894989013671875</LongitudeDegrees>
            </Position>
            <AltitudeMeters>616.79998779296875</AltitudeMeters>
            <DistanceMeters>NAN</DistanceMeters>
          </Trackpoint>
          <Trackpoint>
            <Time>2022-09-20T15:12:19.000Z</Time>
            <Position>
              <LatitudeDegrees>49.43772009573876857757568359375</LatitudeDegrees>
              <LongitudeDegrees>20.32636396586894989013671875</LongitudeDegrees>
            </Position>
            <AltitudeMeters>617</AltitudeMeters>
            <DistanceMeters>NAN</DistanceMeters>
          </Trackpoint>
          <Trackpoint>
            <Time>2022-09-20T15:12:20.000Z</Time>
            <Position>
              <LatitudeDegrees>49.43772009573876857757568359375</LatitudeDegrees>
              <LongitudeDegrees>20.32636396586894989013671875</LongitudeDegrees>
            </Position>
            <AltitudeMeters>617</AltitudeMeters>
            <DistanceMeters>NAN</DistanceMeters>
          </Trackpoint>
          <Trackpoint>
            <Time>2022-09-20T15:12:23.000Z</Time>
            <Position>
              <LatitudeDegrees>49.43772009573876857757568359375</LatitudeDegrees>
              <LongitudeDegrees>20.32636396586894989013671875</LongitudeDegrees>
            </Position>
            <AltitudeMeters>617</AltitudeMeters>
            <DistanceMeters>NAN</DistanceMeters>
          </Trackpoint>
          <Trackpoint>
            <Time>2022-09-20T15:12:28.000Z</Time>
            <Position>
              <LatitudeDegrees>49.43772009573876857757568359375</LatitudeDegrees>
              <LongitudeDegrees>20.32636396586894989013671875</LongitudeDegrees>
            </Position>
            <AltitudeMeters>616.79998779296875</AltitudeMeters>
            <DistanceMeters>NAN</DistanceMeters>
          </Trackpoint>
          <Trackpoint>
            <Time>2022-09-20T15:12:32.000Z</Time>
            <Position>
              <LatitudeDegrees>49.43771925754845142364501953125</LatitudeDegrees>
              <LongitudeDegrees>20.32636463642120361328125</LongitudeDegrees>
            </Position>
            <AltitudeMeters>616.79998779296875</AltitudeMeters>
            <DistanceMeters>NAN</DistanceMeters>
          </Trackpoint>
          <Trackpoint>
            <Time>2022-09-20T15:12:39.000Z</Time>
            <Position>
              <LatitudeDegrees>49.43771791644394397735595703125</LatitudeDegrees>
              <LongitudeDegrees>20.326366312801837921142578125</LongitudeDegrees>
            </Position>
            <AltitudeMeters>616.79998779296875</AltitudeMeters>
            <DistanceMeters>NAN</DistanceMeters>
          </Trackpoint>
          <Trackpoint>
            <Time>2022-09-20T15:12:45.000Z</Time>
            <Position>
              <LatitudeDegrees>49.4377119652926921844482421875</LatitudeDegrees>
              <LongitudeDegrees>20.32637092284858226776123046875</LongitudeDegrees>
            </Position>
            <AltitudeMeters>616.79998779296875</AltitudeMeters>
            <DistanceMeters>NAN</DistanceMeters>
          </Trackpoint>
          <Trackpoint>
            <Time>2022-09-20T15:13:02.000Z</Time>
            <Position>
              <LatitudeDegrees>49.4377012364566326141357421875</LatitudeDegrees>
              <LongitudeDegrees>20.32639942131936550140380859375</LongitudeDegrees>
            </Position>
            <AltitudeMeters>617</AltitudeMeters>
            <DistanceMeters>NAN</DistanceMeters>
          </Trackpoint>
          <Trackpoint>
            <Time>2022-09-20T15:13:05.000Z</Time>
            <Position>
              <LatitudeDegrees>49.4376992247998714447021484375</LatitudeDegrees>
              <LongitudeDegrees>20.32639388926327228546142578125</LongitudeDegrees>
            </Position>
            <AltitudeMeters>616.79998779296875</AltitudeMeters>
            <DistanceMeters>NAN</DistanceMeters>
          </Trackpoint>
          <Trackpoint>
            <Time>2022-09-20T15:13:23.000Z</Time>
            <Position>
              <LatitudeDegrees>49.43769779987633228302001953125</LatitudeDegrees>
              <LongitudeDegrees>20.3264070488512516021728515625</LongitudeDegrees>
            </Position>
            <AltitudeMeters>616.79998779296875</AltitudeMeters>
            <DistanceMeters>NAN</DistanceMeters>
          </Trackpoint>
          <Trackpoint>
            <Time>2022-09-20T15:13:28.000Z</Time>
            <Position>
              <LatitudeDegrees>49.4377039186656475067138671875</LatitudeDegrees>
              <LongitudeDegrees>20.3264194540679454803466796875</LongitudeDegrees>
            </Position>
            <AltitudeMeters>617</AltitudeMeters>
            <DistanceMeters>NAN</DistanceMeters>
          </Trackpoint>
          <Trackpoint>
            <Time>2022-09-20T15:13:30.000Z</Time>
            <Position>
              <LatitudeDegrees>49.43772026337683200836181640625</LatitudeDegrees>
              <LongitudeDegrees>20.3264276683330535888671875</LongitudeDegrees>
            </Position>
            <AltitudeMeters>617</AltitudeMeters>
            <DistanceMeters>NAN</DistanceMeters>
          </Trackpoint>
          <Trackpoint>
            <Time>2022-09-20T15:13:32.000Z</Time>
            <Position>
              <LatitudeDegrees>49.437733925879001617431640625</LatitudeDegrees>
              <LongitudeDegrees>20.326440744102001190185546875</LongitudeDegrees>
            </Position>
            <AltitudeMeters>617</AltitudeMeters>
            <DistanceMeters>NAN</DistanceMeters>
          </Trackpoint>
          <Trackpoint>
            <Time>2022-09-20T15:13:34.000Z</Time>
            <Position>
              <LatitudeDegrees>49.43773853592574596405029296875</LatitudeDegrees>
              <LongitudeDegrees>20.32645289786159992218017578125</LongitudeDegrees>
            </Position>
            <AltitudeMeters>617</AltitudeMeters>
            <DistanceMeters>NAN</DistanceMeters>
          </Trackpoint>
          <Trackpoint>
            <Time>2022-09-20T15:13:35.000Z</Time>
            <Position>
              <LatitudeDegrees>49.43773853592574596405029296875</LatitudeDegrees>
              <LongitudeDegrees>20.32645289786159992218017578125</LongitudeDegrees>
            </Position>
            <AltitudeMeters>617</AltitudeMeters>
            <DistanceMeters>NAN</DistanceMeters>
          </Trackpoint>
          <Trackpoint>
            <Time>2022-09-20T15:13:40.000Z</Time>
            <Position>
              <LatitudeDegrees>49.437743313610553741455078125</LatitudeDegrees>
              <LongitudeDegrees>20.32645775936543941497802734375</LongitudeDegrees>
            </Position>
            <AltitudeMeters>617</AltitudeMeters>
            <DistanceMeters>NAN</DistanceMeters>
          </Trackpoint>
          <Trackpoint>
            <Time>2022-09-20T15:13:44.000Z</Time>
            <Position>
              <LatitudeDegrees>49.43775228224694728851318359375</LatitudeDegrees>
              <LongitudeDegrees>20.32642339356243610382080078125</LongitudeDegrees>
            </Position>
            <AltitudeMeters>617.20001220703125</AltitudeMeters>
            <DistanceMeters>NAN</DistanceMeters>
          </Trackpoint>
          <Trackpoint>
            <Time>2022-09-20T15:13:46.000Z</Time>
            <Position>
              <LatitudeDegrees>49.437797963619232177734375</LatitudeDegrees>
              <LongitudeDegrees>20.32636119984090328216552734375</LongitudeDegrees>
            </Position>
            <AltitudeMeters>617.4000244140625</AltitudeMeters>
            <DistanceMeters>NAN</DistanceMeters>
          </Trackpoint>
          <Trackpoint>
            <Time>2022-09-21T07:46:47.000Z</Time>
            <Position>
              <LatitudeDegrees>49.4376988895237445831298828125</LatitudeDegrees>
              <LongitudeDegrees>20.326319374144077301025390625</LongitudeDegrees>
            </Position>
            <AltitudeMeters>638.20001220703125</AltitudeMeters>
            <DistanceMeters>NAN</DistanceMeters>
          </Trackpoint>
          <Trackpoint>
            <Time>2022-09-21T07:46:48.000Z</Time>
            <Position>
              <LatitudeDegrees>49.4377042539417743682861328125</LatitudeDegrees>
              <LongitudeDegrees>20.326189287006855010986328125</LongitudeDegrees>
            </Position>
            <AltitudeMeters>638.20001220703125</AltitudeMeters>
            <DistanceMeters>NAN</DistanceMeters>
          </Trackpoint>
          <Trackpoint>
            <Time>2022-09-21T07:46:49.000Z</Time>
            <Position>
              <LatitudeDegrees>49.43775580264627933502197265625</LatitudeDegrees>
              <LongitudeDegrees>20.32626413740217685699462890625</LongitudeDegrees>
            </Position>
            <AltitudeMeters>638.20001220703125</AltitudeMeters>
            <DistanceMeters>NAN</DistanceMeters>
          </Trackpoint>
          <Trackpoint>
            <Time>2022-09-21T07:46:54.000Z</Time>
            <Position>
              <LatitudeDegrees>49.4378041662275791168212890625</LatitudeDegrees>
              <LongitudeDegrees>20.3262189589440822601318359375</LongitudeDegrees>
            </Position>
            <AltitudeMeters>637.79998779296875</AltitudeMeters>
            <DistanceMeters>NAN</DistanceMeters>
          </Trackpoint>
          <Trackpoint>
            <Time>2022-09-21T07:46:58.000Z</Time>
            <Position>
              <LatitudeDegrees>49.43780056200921535491943359375</LatitudeDegrees>
              <LongitudeDegrees>20.3261116705834865570068359375</LongitudeDegrees>
            </Position>
            <AltitudeMeters>638</AltitudeMeters>
            <DistanceMeters>NAN</DistanceMeters>
          </Trackpoint>
          <Trackpoint>
            <Time>2022-09-21T07:46:59.000Z</Time>
            <Position>
              <LatitudeDegrees>49.43779033608734607696533203125</LatitudeDegrees>
              <LongitudeDegrees>20.32608543522655963897705078125</LongitudeDegrees>
            </Position>
            <AltitudeMeters>638</AltitudeMeters>
            <DistanceMeters>NAN</DistanceMeters>
          </Trackpoint>
          <Trackpoint>
            <Time>2022-09-21T07:47:02.000Z</Time>
            <Position>
              <LatitudeDegrees>49.43779318593442440032958984375</LatitudeDegrees>
              <LongitudeDegrees>20.3260275162756443023681640625</LongitudeDegrees>
            </Position>
            <AltitudeMeters>638.20001220703125</AltitudeMeters>
            <DistanceMeters>NAN</DistanceMeters>
          </Trackpoint>
          <Trackpoint>
            <Time>2022-09-21T07:47:04.000Z</Time>
            <Position>
              <LatitudeDegrees>49.4377954490482807159423828125</LatitudeDegrees>
              <LongitudeDegrees>20.32599843107163906097412109375</LongitudeDegrees>
            </Position>
            <AltitudeMeters>638.20001220703125</AltitudeMeters>
            <DistanceMeters>NAN</DistanceMeters>
          </Trackpoint>
          <Trackpoint>
            <Time>2022-09-21T07:47:05.000Z</Time>
            <Position>
              <LatitudeDegrees>49.43780106492340564727783203125</LatitudeDegrees>
              <LongitudeDegrees>20.32598770223557949066162109375</LongitudeDegrees>
            </Position>
            <AltitudeMeters>638</AltitudeMeters>
            <DistanceMeters>NAN</DistanceMeters>
          </Trackpoint>
          <Trackpoint>
            <Time>2022-09-21T07:47:11.000Z</Time>
            <Position>
              <LatitudeDegrees>49.43783224560320377349853515625</LatitudeDegrees>
              <LongitudeDegrees>20.32585258595645427703857421875</LongitudeDegrees>
            </Position>
            <AltitudeMeters>637.20001220703125</AltitudeMeters>
            <DistanceMeters>NAN</DistanceMeters>
          </Trackpoint>
          <Trackpoint>
            <Time>2022-09-21T07:47:15.000Z</Time>
            <Position>
              <LatitudeDegrees>49.437823779881000518798828125</LatitudeDegrees>
              <LongitudeDegrees>20.32572132535278797149658203125</LongitudeDegrees>
            </Position>
            <AltitudeMeters>636.79998779296875</AltitudeMeters>
            <DistanceMeters>NAN</DistanceMeters>
          </Trackpoint>
          <Trackpoint>
            <Time>2022-09-21T07:47:18.000Z</Time>
            <Position>
              <LatitudeDegrees>49.4378135539591312408447265625</LatitudeDegrees>
              <LongitudeDegrees>20.3256268613040447235107421875</LongitudeDegrees>
            </Position>
            <AltitudeMeters>636.20001220703125</AltitudeMeters>
            <DistanceMeters>NAN</DistanceMeters>
          </Trackpoint>
          <Trackpoint>
            <Time>2022-09-21T07:47:19.000Z</Time>
            <Position>
              <LatitudeDegrees>49.43781196139752864837646484375</LatitudeDegrees>
              <LongitudeDegrees>20.32559274695813655853271484375</LongitudeDegrees>
            </Position>
            <AltitudeMeters>636</AltitudeMeters>
            <DistanceMeters>NAN</DistanceMeters>
          </Trackpoint>
          <Trackpoint>
            <Time>2022-09-21T07:47:20.000Z</Time>
            <Position>
              <LatitudeDegrees>49.437810368835926055908203125</LatitudeDegrees>
              <LongitudeDegrees>20.32555930316448211669921875</LongitudeDegrees>
            </Position>
            <AltitudeMeters>635.79998779296875</AltitudeMeters>
            <DistanceMeters>NAN</DistanceMeters>
          </Trackpoint>
          <Trackpoint>
            <Time>2022-09-21T07:47:25.000Z</Time>
            <Position>
              <LatitudeDegrees>49.43780156783759593963623046875</LatitudeDegrees>
              <LongitudeDegrees>20.325386635959148406982421875</LongitudeDegrees>
            </Position>
            <AltitudeMeters>634.79998779296875</AltitudeMeters>
            <DistanceMeters>NAN</DistanceMeters>
          </Trackpoint>
          <Trackpoint>
            <Time>2022-09-21T07:47:26.000Z</Time>
            <Position>
              <LatitudeDegrees>49.43779922090470790863037109375</LatitudeDegrees>
              <LongitudeDegrees>20.32535738311707973480224609375</LongitudeDegrees>
            </Position>
            <AltitudeMeters>634.5999755859375</AltitudeMeters>
            <DistanceMeters>NAN</DistanceMeters>
          </Trackpoint>
          <Trackpoint>
            <Time>2022-09-21T07:47:30.000Z</Time>
            <Position>
              <LatitudeDegrees>49.4377790205180644989013671875</LatitudeDegrees>
              <LongitudeDegrees>20.32525294460356235504150390625</LongitudeDegrees>
            </Position>
            <AltitudeMeters>634.20001220703125</AltitudeMeters>
            <DistanceMeters>NAN</DistanceMeters>
          </Trackpoint>
          <Trackpoint>
            <Time>2022-09-21T07:47:36.000Z</Time>
            <Position>
              <LatitudeDegrees>49.43770048208534717559814453125</LatitudeDegrees>
              <LongitudeDegrees>20.325137861073017120361328125</LongitudeDegrees>
            </Position>
            <AltitudeMeters>634</AltitudeMeters>
            <DistanceMeters>NAN</DistanceMeters>
          </Trackpoint>
          <Trackpoint>
            <Time>2022-09-21T07:47:37.000Z</Time>
            <Position>
              <LatitudeDegrees>49.43767449818551540374755859375</LatitudeDegrees>
              <LongitudeDegrees>20.32513417303562164306640625</LongitudeDegrees>
            </Position>
            <AltitudeMeters>634</AltitudeMeters>
            <DistanceMeters>NAN</DistanceMeters>
          </Trackpoint>
          <Trackpoint>
            <Time>2022-09-21T07:47:38.000Z</Time>
            <Position>
              <LatitudeDegrees>49.43765304051339626312255859375</LatitudeDegrees>
              <LongitudeDegrees>20.32513559795916080474853515625</LongitudeDegrees>
            </Position>
            <AltitudeMeters>634</AltitudeMeters>
            <DistanceMeters>NAN</DistanceMeters>
          </Trackpoint>
          <Trackpoint>
            <Time>2022-09-21T07:47:42.000Z</Time>
            <Position>
              <LatitudeDegrees>49.43756796419620513916015625</LatitudeDegrees>
              <LongitudeDegrees>20.32515403814613819122314453125</LongitudeDegrees>
            </Position>
            <AltitudeMeters>634</AltitudeMeters>
            <DistanceMeters>NAN</DistanceMeters>
          </Trackpoint>
          <Trackpoint>
            <Time>2022-09-21T07:47:43.000Z</Time>
            <Position>
              <LatitudeDegrees>49.4375444948673248291015625</LatitudeDegrees>
              <LongitudeDegrees>20.325159989297389984130859375</LongitudeDegrees>
            </Position>
            <AltitudeMeters>634</AltitudeMeters>
            <DistanceMeters>NAN</DistanceMeters>
          </Trackpoint>
          <Trackpoint>
            <Time>2022-09-21T07:47:44.000Z</Time>
            <Position>
              <LatitudeDegrees>49.4375232048332691192626953125</LatitudeDegrees>
              <LongitudeDegrees>20.3251658566296100616455078125</LongitudeDegrees>
            </Position>
            <AltitudeMeters>634.20001220703125</AltitudeMeters>
            <DistanceMeters>NAN</DistanceMeters>
          </Trackpoint>
          <Trackpoint>
            <Time>2022-09-21T07:47:46.000Z</Time>
            <Position>
              <LatitudeDegrees>49.43748858757317066192626953125</LatitudeDegrees>
              <LongitudeDegrees>20.325175411999225616455078125</LongitudeDegrees>
            </Position>
            <AltitudeMeters>634.20001220703125</AltitudeMeters>
            <DistanceMeters>NAN</DistanceMeters>
          </Trackpoint>
          <Trackpoint>
            <Time>2022-09-21T07:47:53.000Z</Time>
            <Position>
              <LatitudeDegrees>49.4373636133968830108642578125</LatitudeDegrees>
              <LongitudeDegrees>20.325208939611911773681640625</LongitudeDegrees>
            </Position>
            <AltitudeMeters>634.5999755859375</AltitudeMeters>
            <DistanceMeters>NAN</DistanceMeters>
          </Trackpoint>
          <Trackpoint>
            <Time>2022-09-21T07:47:58.000Z</Time>
            <Position>
              <LatitudeDegrees>49.4372905232012271881103515625</LatitudeDegrees>
              <LongitudeDegrees>20.32521254383027553558349609375</LongitudeDegrees>
            </Position>
            <AltitudeMeters>634.79998779296875</AltitudeMeters>
            <DistanceMeters>NAN</DistanceMeters>
          </Trackpoint>
          <Trackpoint>
            <Time>2022-09-21T07:48:00.000Z</Time>
            <Position>
              <LatitudeDegrees>49.43726127035915851593017578125</LatitudeDegrees>
              <LongitudeDegrees>20.325193516910076141357421875</LongitudeDegrees>
            </Position>
            <AltitudeMeters>634.79998779296875</AltitudeMeters>
            <DistanceMeters>NAN</DistanceMeters>
          </Trackpoint>
          <Trackpoint>
            <Time>2022-09-21T07:48:06.000Z</Time>
            <Position>
              <LatitudeDegrees>49.43713344633579254150390625</LatitudeDegrees>
              <LongitudeDegrees>20.3251152299344539642333984375</LongitudeDegrees>
            </Position>
            <AltitudeMeters>634.20001220703125</AltitudeMeters>
            <DistanceMeters>NAN</DistanceMeters>
          </Trackpoint>
          <Trackpoint>
            <Time>2022-09-21T07:48:09.000Z</Time>
            <Position>
              <LatitudeDegrees>49.4370642118155956268310546875</LatitudeDegrees>
              <LongitudeDegrees>20.325021184980869293212890625</LongitudeDegrees>
            </Position>
            <AltitudeMeters>633.5999755859375</AltitudeMeters>
            <DistanceMeters>NAN</DistanceMeters>
          </Trackpoint>
          <Trackpoint>
            <Time>2022-09-21T07:48:12.000Z</Time>
            <Position>
              <LatitudeDegrees>49.43698458373546600341796875</LatitudeDegrees>
              <LongitudeDegrees>20.32492035068571567535400390625</LongitudeDegrees>
            </Position>
            <AltitudeMeters>632.4000244140625</AltitudeMeters>
            <DistanceMeters>NAN</DistanceMeters>
          </Trackpoint>
          <Trackpoint>
            <Time>2022-09-21T07:48:15.000Z</Time>
            <Position>
              <LatitudeDegrees>49.43689514882862567901611328125</LatitudeDegrees>
              <LongitudeDegrees>20.32482563517987728118896484375</LongitudeDegrees>
            </Position>
            <AltitudeMeters>631.20001220703125</AltitudeMeters>
            <DistanceMeters>NAN</DistanceMeters>
          </Trackpoint>
          <Trackpoint>
            <Time>2022-09-21T07:48:18.000Z</Time>
            <Position>
              <LatitudeDegrees>49.436800517141819000244140625</LatitudeDegrees>
              <LongitudeDegrees>20.32474282197654247283935546875</LongitudeDegrees>
            </Position>
            <AltitudeMeters>630</AltitudeMeters>
            <DistanceMeters>NAN</DistanceMeters>
          </Trackpoint>
          <Trackpoint>
            <Time>2022-09-21T07:48:20.000Z</Time>
            <Position>
              <LatitudeDegrees>49.43674452602863311767578125</LatitudeDegrees>
              <LongitudeDegrees>20.32470443286001682281494140625</LongitudeDegrees>
            </Position>
            <AltitudeMeters>629</AltitudeMeters>
            <DistanceMeters>NAN</DistanceMeters>
          </Trackpoint>
          <Trackpoint>
            <Time>2022-09-21T07:48:21.000Z</Time>
            <Position>
              <LatitudeDegrees>49.4367138482630252838134765625</LatitudeDegrees>
              <LongitudeDegrees>20.32468247227370738983154296875</LongitudeDegrees>
            </Position>
            <AltitudeMeters>628.79998779296875</AltitudeMeters>
            <DistanceMeters>NAN</DistanceMeters>
          </Trackpoint>
          <Trackpoint>
            <Time>2022-09-21T07:48:23.000Z</Time>
            <Position>
              <LatitudeDegrees>49.43665525875985622406005859375</LatitudeDegrees>
              <LongitudeDegrees>20.32462866045534610748291015625</LongitudeDegrees>
            </Position>
            <AltitudeMeters>627.79998779296875</AltitudeMeters>
            <DistanceMeters>NAN</DistanceMeters>
          </Trackpoint>
          <Trackpoint>
            <Time>2022-09-21T07:48:28.000Z</Time>
            <Position>
              <LatitudeDegrees>49.4365064799785614013671875</LatitudeDegrees>
              <LongitudeDegrees>20.32450117170810699462890625</LongitudeDegrees>
            </Position>
            <AltitudeMeters>626.5999755859375</AltitudeMeters>
            <DistanceMeters>NAN</DistanceMeters>
          </Trackpoint>
          <Trackpoint>
            <Time>2022-09-21T07:48:29.000Z</Time>
            <Position>
              <LatitudeDegrees>49.43647974170744419097900390625</LatitudeDegrees>
              <LongitudeDegrees>20.32447359524667263031005859375</LongitudeDegrees>
            </Position>
            <AltitudeMeters>626</AltitudeMeters>
            <DistanceMeters>NAN</DistanceMeters>
          </Trackpoint>
          <Trackpoint>
            <Time>2022-09-21T07:48:31.000Z</Time>
            <Position>
              <LatitudeDegrees>49.43642760626971721649169921875</LatitudeDegrees>
              <LongitudeDegrees>20.32440771348774433135986328125</LongitudeDegrees>
            </Position>
            <AltitudeMeters>625.20001220703125</AltitudeMeters>
            <DistanceMeters>NAN</DistanceMeters>
          </Trackpoint>
          <Trackpoint>
            <Time>2022-09-21T07:48:32.000Z</Time>
            <Position>
              <LatitudeDegrees>49.43640656769275665283203125</LatitudeDegrees>
              <LongitudeDegrees>20.3243702463805675506591796875</LongitudeDegrees>
            </Position>
            <AltitudeMeters>625</AltitudeMeters>
            <DistanceMeters>NAN</DistanceMeters>
          </Trackpoint>
          <Trackpoint>
            <Time>2022-09-21T07:48:34.000Z</Time>
            <Position>
              <LatitudeDegrees>49.4363616406917572021484375</LatitudeDegrees>
              <LongitudeDegrees>20.32429941929876804351806640625</LongitudeDegrees>
            </Position>
            <AltitudeMeters>624</AltitudeMeters>
            <DistanceMeters>NAN</DistanceMeters>
          </Trackpoint>
          <Trackpoint>
            <Time>2022-09-21T07:48:37.000Z</Time>
            <Position>
              <LatitudeDegrees>49.43629927933216094970703125</LatitudeDegrees>
              <LongitudeDegrees>20.32418978400528430938720703125</LongitudeDegrees>
            </Position>
            <AltitudeMeters>623</AltitudeMeters>
            <DistanceMeters>NAN</DistanceMeters>
          </Trackpoint>
          <Trackpoint>
            <Time>2022-09-21T07:48:38.000Z</Time>
            <Position>
              <LatitudeDegrees>49.4362806715071201324462890625</LatitudeDegrees>
              <LongitudeDegrees>20.3241477906703948974609375</LongitudeDegrees>
            </Position>
            <AltitudeMeters>622.5999755859375</AltitudeMeters>
            <DistanceMeters>NAN</DistanceMeters>
          </Trackpoint>
          <Trackpoint>
            <Time>2022-09-21T07:48:41.000Z</Time>
            <Position>
              <LatitudeDegrees>49.43623012863099575042724609375</LatitudeDegrees>
              <LongitudeDegrees>20.3240208886563777923583984375</LongitudeDegrees>
            </Position>
            <AltitudeMeters>621.4000244140625</AltitudeMeters>
            <DistanceMeters>NAN</DistanceMeters>
          </Trackpoint>
          <Trackpoint>
            <Time>2022-09-21T07:48:44.000Z</Time>
            <Position>
              <LatitudeDegrees>49.43618989549577236175537109375</LatitudeDegrees>
              <LongitudeDegrees>20.32388552092015743255615234375</LongitudeDegrees>
            </Position>
            <AltitudeMeters>620.20001220703125</AltitudeMeters>
            <DistanceMeters>NAN</DistanceMeters>
          </Trackpoint>
          <Trackpoint>
            <Time>2022-09-21T07:48:45.000Z</Time>
            <Position>
              <LatitudeDegrees>49.43617883138358592987060546875</LatitudeDegrees>
              <LongitudeDegrees>20.32383732497692108154296875</LongitudeDegrees>
            </Position>
            <AltitudeMeters>620</AltitudeMeters>
            <DistanceMeters>NAN</DistanceMeters>
          </Trackpoint>
          <Trackpoint>
            <Time>2022-09-21T07:48:49.000Z</Time>
            <Position>
              <LatitudeDegrees>49.4361401908099651336669921875</LatitudeDegrees>
              <LongitudeDegrees>20.3236121870577335357666015625</LongitudeDegrees>
            </Position>
            <AltitudeMeters>618.79998779296875</AltitudeMeters>
            <DistanceMeters>NAN</DistanceMeters>
          </Trackpoint>
          <Trackpoint>
            <Time>2022-09-21T07:48:52.000Z</Time>
            <Position>
              <LatitudeDegrees>49.43612066097557544708251953125</LatitudeDegrees>
              <LongitudeDegrees>20.323433987796306610107421875</LongitudeDegrees>
            </Position>
            <AltitudeMeters>617.4000244140625</AltitudeMeters>
            <DistanceMeters>NAN</DistanceMeters>
          </Trackpoint>
          <Trackpoint>
            <Time>2022-09-21T07:48:53.000Z</Time>
            <Position>
              <LatitudeDegrees>49.43611278198659420013427734375</LatitudeDegrees>
              <LongitudeDegrees>20.32336366362869739532470703125</LongitudeDegrees>
            </Position>
            <AltitudeMeters>617</AltitudeMeters>
            <DistanceMeters>NAN</DistanceMeters>
          </Trackpoint>
          <Trackpoint>
            <Time>2022-09-21T07:48:55.000Z</Time>
            <Position>
              <LatitudeDegrees>49.43610087968409061431884765625</LatitudeDegrees>
              <LongitudeDegrees>20.32325738109648227691650390625</LongitudeDegrees>
            </Position>
            <AltitudeMeters>616.4000244140625</AltitudeMeters>
            <DistanceMeters>NAN</DistanceMeters>
          </Trackpoint>
          <Trackpoint>
            <Time>2022-09-21T07:48:58.000Z</Time>
            <Position>
              <LatitudeDegrees>49.43607405759394168853759765625</LatitudeDegrees>
              <LongitudeDegrees>20.32308421097695827484130859375</LongitudeDegrees>
            </Position>
            <AltitudeMeters>615.20001220703125</AltitudeMeters>
            <DistanceMeters>NAN</DistanceMeters>
          </Trackpoint>
          <Trackpoint>
            <Time>2022-09-21T07:49:01.000Z</Time>
            <Position>
              <LatitudeDegrees>49.4360558688640594482421875</LatitudeDegrees>
              <LongitudeDegrees>20.32290433533489704132080078125</LongitudeDegrees>
            </Position>
            <AltitudeMeters>614.20001220703125</AltitudeMeters>
            <DistanceMeters>NAN</DistanceMeters>
          </Trackpoint>
          <Trackpoint>
            <Time>2022-09-21T07:49:03.000Z</Time>
            <Position>
              <LatitudeDegrees>49.4360439665615558624267578125</LatitudeDegrees>
              <LongitudeDegrees>20.32280207611620426177978515625</LongitudeDegrees>
            </Position>
            <AltitudeMeters>613</AltitudeMeters>
            <DistanceMeters>NAN</DistanceMeters>
          </Trackpoint>
          <Trackpoint>
            <Time>2022-09-21T07:49:04.000Z</Time>
            <Position>
              <LatitudeDegrees>49.43603650666773319244384765625</LatitudeDegrees>
              <LongitudeDegrees>20.32275161705911159515380859375</LongitudeDegrees>
            </Position>
            <AltitudeMeters>612.5999755859375</AltitudeMeters>
            <DistanceMeters>NAN</DistanceMeters>
          </Trackpoint>
          <Trackpoint>
            <Time>2022-09-21T07:49:07.000Z</Time>
            <Position>
              <LatitudeDegrees>49.4360208325088024139404296875</LatitudeDegrees>
              <LongitudeDegrees>20.3226123936474323272705078125</LongitudeDegrees>
            </Position>
            <AltitudeMeters>612</AltitudeMeters>
            <DistanceMeters>NAN</DistanceMeters>
          </Trackpoint>
          <Trackpoint>
            <Time>2022-09-21T07:49:09.000Z</Time>
            <Position>
              <LatitudeDegrees>49.4360121153295040130615234375</LatitudeDegrees>
              <LongitudeDegrees>20.3225148282945156097412109375</LongitudeDegrees>
            </Position>
            <AltitudeMeters>610.79998779296875</AltitudeMeters>
            <DistanceMeters>NAN</DistanceMeters>
          </Trackpoint>
          <Trackpoint>
            <Time>2022-09-21T07:49:11.000Z</Time>
            <Position>
              <LatitudeDegrees>49.436006583273410797119140625</LatitudeDegrees>
              <LongitudeDegrees>20.322419442236423492431640625</LongitudeDegrees>
            </Position>
            <AltitudeMeters>609.79998779296875</AltitudeMeters>
            <DistanceMeters>NAN</DistanceMeters>
          </Trackpoint>
          <Trackpoint>
            <Time>2022-09-21T07:49:12.000Z</Time>
            <Position>
              <LatitudeDegrees>49.43600096739828586578369140625</LatitudeDegrees>
              <LongitudeDegrees>20.3223721683025360107421875</LongitudeDegrees>
            </Position>
            <AltitudeMeters>609.4000244140625</AltitudeMeters>
            <DistanceMeters>NAN</DistanceMeters>
          </Trackpoint>
          <Trackpoint>
            <Time>2022-09-21T07:49:16.000Z</Time>
            <Position>
              <LatitudeDegrees>49.4359852932393550872802734375</LatitudeDegrees>
              <LongitudeDegrees>20.3221889398992061614990234375</LongitudeDegrees>
            </Position>
            <AltitudeMeters>608</AltitudeMeters>
            <DistanceMeters>NAN</DistanceMeters>
          </Trackpoint>
          <Trackpoint>
            <Time>2022-09-21T07:49:20.000Z</Time>
            <Position>
              <LatitudeDegrees>49.4359728880226612091064453125</LatitudeDegrees>
              <LongitudeDegrees>20.32199908979237079620361328125</LongitudeDegrees>
            </Position>
            <AltitudeMeters>607</AltitudeMeters>
            <DistanceMeters>NAN</DistanceMeters>
          </Trackpoint>
          <Trackpoint>
            <Time>2022-09-21T07:49:21.000Z</Time>
            <Position>
              <LatitudeDegrees>49.435969032347202301025390625</LatitudeDegrees>
              <LongitudeDegrees>20.3219545818865299224853515625</LongitudeDegrees>
            </Position>
            <AltitudeMeters>606.79998779296875</AltitudeMeters>
            <DistanceMeters>NAN</DistanceMeters>
          </Trackpoint>
          <Trackpoint>
            <Time>2022-09-21T07:49:24.000Z</Time>
            <Position>
              <LatitudeDegrees>49.43595436401665210723876953125</LatitudeDegrees>
              <LongitudeDegrees>20.32181954942643642425537109375</LongitudeDegrees>
            </Position>
            <AltitudeMeters>605.79998779296875</AltitudeMeters>
            <DistanceMeters>NAN</DistanceMeters>
          </Trackpoint>
          <Trackpoint>
            <Time>2022-09-21T07:49:26.000Z</Time>
            <Position>
              <LatitudeDegrees>49.43594329990446567535400390625</LatitudeDegrees>
              <LongitudeDegrees>20.32173757441341876983642578125</LongitudeDegrees>
            </Position>
            <AltitudeMeters>605.20001220703125</AltitudeMeters>
            <DistanceMeters>NAN</DistanceMeters>
          </Trackpoint>
          <Trackpoint>
            <Time>2022-09-21T07:49:28.000Z</Time>
            <Position>
              <LatitudeDegrees>49.43593726493418216705322265625</LatitudeDegrees>
              <LongitudeDegrees>20.32164587639272212982177734375</LongitudeDegrees>
            </Position>
            <AltitudeMeters>604.5999755859375</AltitudeMeters>
            <DistanceMeters>NAN</DistanceMeters>
          </Trackpoint>
          <Trackpoint>
            <Time>2022-09-21T07:49:31.000Z</Time>
            <Position>
              <LatitudeDegrees>49.4359225966036319732666015625</LatitudeDegrees>
              <LongitudeDegrees>20.3215046413242816925048828125</LongitudeDegrees>
            </Position>
            <AltitudeMeters>604</AltitudeMeters>
            <DistanceMeters>NAN</DistanceMeters>
          </Trackpoint>
          <Trackpoint>
            <Time>2022-09-21T07:49:36.000Z</Time>
            <Position>
              <LatitudeDegrees>49.435894601047039031982421875</LatitudeDegrees>
              <LongitudeDegrees>20.32127472572028636932373046875</LongitudeDegrees>
            </Position>
            <AltitudeMeters>603.4000244140625</AltitudeMeters>
            <DistanceMeters>NAN</DistanceMeters>
          </Trackpoint>
          <Trackpoint>
            <Time>2022-09-21T07:49:38.000Z</Time>
            <Position>
              <LatitudeDegrees>49.4358880631625652313232421875</LatitudeDegrees>
              <LongitudeDegrees>20.3211733885109424591064453125</LongitudeDegrees>
            </Position>
            <AltitudeMeters>602.5999755859375</AltitudeMeters>
            <DistanceMeters>NAN</DistanceMeters>
          </Trackpoint>
          <Trackpoint>
            <Time>2022-09-21T07:49:39.000Z</Time>
            <Position>
              <LatitudeDegrees>49.43588378839194774627685546875</LatitudeDegrees>
              <LongitudeDegrees>20.32113256864249706268310546875</LongitudeDegrees>
            </Position>
            <AltitudeMeters>602.20001220703125</AltitudeMeters>
            <DistanceMeters>NAN</DistanceMeters>
          </Trackpoint>
          <Trackpoint>
            <Time>2022-09-21T07:49:41.000Z</Time>
            <Position>
              <LatitudeDegrees>49.43587205372750759124755859375</LatitudeDegrees>
              <LongitudeDegrees>20.321020670235157012939453125</LongitudeDegrees>
            </Position>
            <AltitudeMeters>601.5999755859375</AltitudeMeters>
            <DistanceMeters>NAN</DistanceMeters>
          </Trackpoint>
          <Trackpoint>
            <Time>2022-09-21T07:49:43.000Z</Time>
            <Position>
              <LatitudeDegrees>49.43586316891014575958251953125</LatitudeDegrees>
              <LongitudeDegrees>20.32091313041746616363525390625</LongitudeDegrees>
            </Position>
            <AltitudeMeters>601.20001220703125</AltitudeMeters>
            <DistanceMeters>NAN</DistanceMeters>
          </Trackpoint>
          <Trackpoint>
            <Time>2022-09-21T07:49:45.000Z</Time>
            <Position>
              <LatitudeDegrees>49.43586610257625579833984375</LatitudeDegrees>
              <LongitudeDegrees>20.32079108990728855133056640625</LongitudeDegrees>
            </Position>
            <AltitudeMeters>600.5999755859375</AltitudeMeters>
            <DistanceMeters>NAN</DistanceMeters>
          </Trackpoint>
          <Trackpoint>
            <Time>2022-09-21T07:49:48.000Z</Time>
            <Position>
              <LatitudeDegrees>49.43587825633585453033447265625</LatitudeDegrees>
              <LongitudeDegrees>20.3205588273704051971435546875</LongitudeDegrees>
            </Position>
            <AltitudeMeters>599.5999755859375</AltitudeMeters>
            <DistanceMeters>NAN</DistanceMeters>
          </Trackpoint>
          <Trackpoint>
            <Time>2022-09-21T07:49:50.000Z</Time>
            <Position>
              <LatitudeDegrees>49.4358976185321807861328125</LatitudeDegrees>
              <LongitudeDegrees>20.32038842327892780303955078125</LongitudeDegrees>
            </Position>
            <AltitudeMeters>599</AltitudeMeters>
            <DistanceMeters>NAN</DistanceMeters>
          </Trackpoint>
          <Trackpoint>
            <Time>2022-09-21T07:49:51.000Z</Time>
            <Position>
              <LatitudeDegrees>49.4359118677675724029541015625</LatitudeDegrees>
              <LongitudeDegrees>20.32030594535171985626220703125</LongitudeDegrees>
            </Position>
            <AltitudeMeters>598.20001220703125</AltitudeMeters>
            <DistanceMeters>NAN</DistanceMeters>
          </Trackpoint>
          <Trackpoint>
            <Time>2022-09-21T07:49:54.000Z</Time>
            <Position>
              <LatitudeDegrees>49.43595134653151035308837890625</LatitudeDegrees>
              <LongitudeDegrees>20.320075191557407379150390625</LongitudeDegrees>
            </Position>
            <AltitudeMeters>597</AltitudeMeters>
            <DistanceMeters>NAN</DistanceMeters>
          </Trackpoint>
          <Trackpoint>
            <Time>2022-09-21T07:49:56.000Z</Time>
            <Position>
              <LatitudeDegrees>49.43596534430980682373046875</LatitudeDegrees>
              <LongitudeDegrees>20.3199637122452259063720703125</LongitudeDegrees>
            </Position>
            <AltitudeMeters>596.79998779296875</AltitudeMeters>
            <DistanceMeters>NAN</DistanceMeters>
          </Trackpoint>
          <Trackpoint>
            <Time>2022-09-21T07:50:01.000Z</Time>
            <Position>
              <LatitudeDegrees>49.43596802651882171630859375</LatitudeDegrees>
              <LongitudeDegrees>20.3197454474866390228271484375</LongitudeDegrees>
            </Position>
            <AltitudeMeters>596.20001220703125</AltitudeMeters>
            <DistanceMeters>NAN</DistanceMeters>
          </Trackpoint>
          <Trackpoint>
            <Time>2022-09-21T07:50:03.000Z</Time>
            <Position>
              <LatitudeDegrees>49.43595193326473236083984375</LatitudeDegrees>
              <LongitudeDegrees>20.31966422684490680694580078125</LongitudeDegrees>
            </Position>
            <AltitudeMeters>596</AltitudeMeters>
            <DistanceMeters>NAN</DistanceMeters>
          </Trackpoint>
          <Trackpoint>
            <Time>2022-09-21T07:50:07.000Z</Time>
            <Position>
              <LatitudeDegrees>49.4359353370964527130126953125</LatitudeDegrees>
              <LongitudeDegrees>20.319538414478302001953125</LongitudeDegrees>
            </Position>
            <AltitudeMeters>595.5999755859375</AltitudeMeters>
            <DistanceMeters>NAN</DistanceMeters>
          </Trackpoint>
          <Trackpoint>
            <Time>2022-09-21T07:50:12.000Z</Time>
            <Position>
              <LatitudeDegrees>49.43593022413551807403564453125</LatitudeDegrees>
              <LongitudeDegrees>20.31943179666996002197265625</LongitudeDegrees>
            </Position>
            <AltitudeMeters>595.4000244140625</AltitudeMeters>
            <DistanceMeters>NAN</DistanceMeters>
          </Trackpoint>
          <Trackpoint>
            <Time>2022-09-21T07:50:18.000Z</Time>
            <Position>
              <LatitudeDegrees>49.43592050112783908843994140625</LatitudeDegrees>
              <LongitudeDegrees>20.31932794488966464996337890625</LongitudeDegrees>
            </Position>
            <AltitudeMeters>595</AltitudeMeters>
            <DistanceMeters>NAN</DistanceMeters>
          </Trackpoint>
          <Trackpoint>
            <Time>2022-09-21T07:50:19.000Z</Time>
            <Position>
              <LatitudeDegrees>49.4359212554991245269775390625</LatitudeDegrees>
              <LongitudeDegrees>20.319322831928730010986328125</LongitudeDegrees>
            </Position>
            <AltitudeMeters>595</AltitudeMeters>
            <DistanceMeters>NAN</DistanceMeters>
          </Trackpoint>
          <Trackpoint>
            <Time>2022-09-21T07:50:22.000Z</Time>
            <Position>
              <LatitudeDegrees>49.4359212554991245269775390625</LatitudeDegrees>
              <LongitudeDegrees>20.319322831928730010986328125</LongitudeDegrees>
            </Position>
            <AltitudeMeters>595</AltitudeMeters>
            <DistanceMeters>NAN</DistanceMeters>
          </Trackpoint>
          <Trackpoint>
            <Time>2022-09-21T07:50:27.000Z</Time>
            <Position>
              <LatitudeDegrees>49.4359212554991245269775390625</LatitudeDegrees>
              <LongitudeDegrees>20.319322831928730010986328125</LongitudeDegrees>
            </Position>
            <AltitudeMeters>595</AltitudeMeters>
            <DistanceMeters>NAN</DistanceMeters>
          </Trackpoint>
          <Trackpoint>
            <Time>2022-09-21T07:50:30.000Z</Time>
            <Position>
              <LatitudeDegrees>49.4359212554991245269775390625</LatitudeDegrees>
              <LongitudeDegrees>20.319322831928730010986328125</LongitudeDegrees>
            </Position>
            <AltitudeMeters>594.79998779296875</AltitudeMeters>
            <DistanceMeters>NAN</DistanceMeters>
          </Trackpoint>
          <Trackpoint>
            <Time>2022-09-21T07:50:35.000Z</Time>
            <Position>
              <LatitudeDegrees>49.4359212554991245269775390625</LatitudeDegrees>
              <LongitudeDegrees>20.319322831928730010986328125</LongitudeDegrees>
            </Position>
            <AltitudeMeters>595</AltitudeMeters>
            <DistanceMeters>NAN</DistanceMeters>
          </Trackpoint>
          <Trackpoint>
            <Time>2022-09-21T07:50:37.000Z</Time>
            <Position>
              <LatitudeDegrees>49.4359212554991245269775390625</LatitudeDegrees>
              <LongitudeDegrees>20.319322831928730010986328125</LongitudeDegrees>
            </Position>
            <AltitudeMeters>595</AltitudeMeters>
            <DistanceMeters>NAN</DistanceMeters>
          </Trackpoint>
          <Trackpoint>
            <Time>2022-09-21T07:50:40.000Z</Time>
            <Position>
              <LatitudeDegrees>49.4359212554991245269775390625</LatitudeDegrees>
              <LongitudeDegrees>20.319322831928730010986328125</LongitudeDegrees>
            </Position>
            <AltitudeMeters>594.79998779296875</AltitudeMeters>
            <DistanceMeters>NAN</DistanceMeters>
          </Trackpoint>
          <Trackpoint>
            <Time>2022-09-21T07:50:57.000Z</Time>
            <Position>
              <LatitudeDegrees>49.4359212554991245269775390625</LatitudeDegrees>
              <LongitudeDegrees>20.319322831928730010986328125</LongitudeDegrees>
            </Position>
            <AltitudeMeters>595</AltitudeMeters>
            <DistanceMeters>NAN</DistanceMeters>
          </Trackpoint>
          <Trackpoint>
            <Time>2022-09-21T07:51:03.000Z</Time>
            <Position>
              <LatitudeDegrees>49.4359212554991245269775390625</LatitudeDegrees>
              <LongitudeDegrees>20.319322831928730010986328125</LongitudeDegrees>
            </Position>
            <AltitudeMeters>595.20001220703125</AltitudeMeters>
            <DistanceMeters>NAN</DistanceMeters>
          </Trackpoint>
          <Trackpoint>
            <Time>2022-09-21T07:51:22.000Z</Time>
            <Position>
              <LatitudeDegrees>49.4359246082603931427001953125</LatitudeDegrees>
              <LongitudeDegrees>20.3193198144435882568359375</LongitudeDegrees>
            </Position>
            <AltitudeMeters>595.4000244140625</AltitudeMeters>
            <DistanceMeters>NAN</DistanceMeters>
          </Trackpoint>
          <Trackpoint>
            <Time>2022-09-21T07:51:27.000Z</Time>
            <Position>
              <LatitudeDegrees>49.4359246082603931427001953125</LatitudeDegrees>
              <LongitudeDegrees>20.3193198144435882568359375</LongitudeDegrees>
            </Position>
            <AltitudeMeters>595.4000244140625</AltitudeMeters>
            <DistanceMeters>NAN</DistanceMeters>
          </Trackpoint>
          <Trackpoint>
            <Time>2022-09-21T07:51:45.000Z</Time>
            <Position>
              <LatitudeDegrees>49.4359246082603931427001953125</LatitudeDegrees>
              <LongitudeDegrees>20.3193198144435882568359375</LongitudeDegrees>
            </Position>
            <AltitudeMeters>595.4000244140625</AltitudeMeters>
            <DistanceMeters>NAN</DistanceMeters>
          </Trackpoint>
          <Trackpoint>
            <Time>2022-09-21T07:51:50.000Z</Time>
            <Position>
              <LatitudeDegrees>49.4359246082603931427001953125</LatitudeDegrees>
              <LongitudeDegrees>20.3193198144435882568359375</LongitudeDegrees>
            </Position>
            <AltitudeMeters>595.4000244140625</AltitudeMeters>
            <DistanceMeters>NAN</DistanceMeters>
          </Trackpoint>
          <Trackpoint>
            <Time>2022-09-21T07:51:52.000Z</Time>
            <Position>
              <LatitudeDegrees>49.4359246082603931427001953125</LatitudeDegrees>
              <LongitudeDegrees>20.3193198144435882568359375</LongitudeDegrees>
            </Position>
            <AltitudeMeters>595.4000244140625</AltitudeMeters>
            <DistanceMeters>NAN</DistanceMeters>
          </Trackpoint>
          <Trackpoint>
            <Time>2022-09-21T07:51:56.000Z</Time>
            <Position>
              <LatitudeDegrees>49.4359246082603931427001953125</LatitudeDegrees>
              <LongitudeDegrees>20.3193198144435882568359375</LongitudeDegrees>
            </Position>
            <AltitudeMeters>595.4000244140625</AltitudeMeters>
            <DistanceMeters>NAN</DistanceMeters>
          </Trackpoint>
          <Trackpoint>
            <Time>2022-09-21T07:52:17.000Z</Time>
            <Position>
              <LatitudeDegrees>49.4359246082603931427001953125</LatitudeDegrees>
              <LongitudeDegrees>20.3193198144435882568359375</LongitudeDegrees>
            </Position>
            <AltitudeMeters>595.4000244140625</AltitudeMeters>
            <DistanceMeters>NAN</DistanceMeters>
          </Trackpoint>
          <Trackpoint>
            <Time>2022-09-21T07:52:23.000Z</Time>
            <Position>
              <LatitudeDegrees>49.43592511117458343505859375</LatitudeDegrees>
              <LongitudeDegrees>20.31932006590068340301513671875</LongitudeDegrees>
            </Position>
            <AltitudeMeters>595.4000244140625</AltitudeMeters>
            <DistanceMeters>NAN</DistanceMeters>
          </Trackpoint>
          <Trackpoint>
            <Time>2022-09-21T07:52:29.000Z</Time>
            <Position>
              <LatitudeDegrees>49.4359319843351840972900390625</LatitudeDegrees>
              <LongitudeDegrees>20.319325514137744903564453125</LongitudeDegrees>
            </Position>
            <AltitudeMeters>595.4000244140625</AltitudeMeters>
            <DistanceMeters>NAN</DistanceMeters>
          </Trackpoint>
          <Trackpoint>
            <Time>2022-09-21T07:52:33.000Z</Time>
            <Position>
              <LatitudeDegrees>49.4359324872493743896484375</LatitudeDegrees>
              <LongitudeDegrees>20.31932576559484004974365234375</LongitudeDegrees>
            </Position>
            <AltitudeMeters>595.4000244140625</AltitudeMeters>
            <DistanceMeters>NAN</DistanceMeters>
          </Trackpoint>
          <Trackpoint>
            <Time>2022-09-21T07:52:35.000Z</Time>
            <Position>
              <LatitudeDegrees>49.4359324872493743896484375</LatitudeDegrees>
              <LongitudeDegrees>20.31932584941387176513671875</LongitudeDegrees>
            </Position>
            <AltitudeMeters>595.4000244140625</AltitudeMeters>
            <DistanceMeters>NAN</DistanceMeters>
          </Trackpoint>
          <Trackpoint>
            <Time>2022-09-21T07:52:37.000Z</Time>
            <Position>
              <LatitudeDegrees>49.4359324872493743896484375</LatitudeDegrees>
              <LongitudeDegrees>20.31932584941387176513671875</LongitudeDegrees>
            </Position>
            <AltitudeMeters>595.4000244140625</AltitudeMeters>
            <DistanceMeters>NAN</DistanceMeters>
          </Trackpoint>
          <Trackpoint>
            <Time>2022-09-21T07:52:54.000Z</Time>
            <Position>
              <LatitudeDegrees>49.4359324872493743896484375</LatitudeDegrees>
              <LongitudeDegrees>20.31932584941387176513671875</LongitudeDegrees>
            </Position>
            <AltitudeMeters>595.4000244140625</AltitudeMeters>
            <DistanceMeters>NAN</DistanceMeters>
          </Trackpoint>
          <Trackpoint>
            <Time>2022-09-21T07:53:13.000Z</Time>
            <Position>
              <LatitudeDegrees>49.4359269551932811737060546875</LatitudeDegrees>
              <LongitudeDegrees>20.31932794488966464996337890625</LongitudeDegrees>
            </Position>
            <AltitudeMeters>595.4000244140625</AltitudeMeters>
            <DistanceMeters>NAN</DistanceMeters>
          </Trackpoint>
          <Trackpoint>
            <Time>2022-09-21T07:53:15.000Z</Time>
            <Position>
              <LatitudeDegrees>49.43592636846005916595458984375</LatitudeDegrees>
              <LongitudeDegrees>20.319328196346759796142578125</LongitudeDegrees>
            </Position>
            <AltitudeMeters>595.4000244140625</AltitudeMeters>
            <DistanceMeters>NAN</DistanceMeters>
          </Trackpoint>
          <Trackpoint>
            <Time>2022-09-21T07:53:18.000Z</Time>
            <Position>
              <LatitudeDegrees>49.4359259493649005889892578125</LatitudeDegrees>
              <LongitudeDegrees>20.3193283639848232269287109375</LongitudeDegrees>
            </Position>
            <AltitudeMeters>595.4000244140625</AltitudeMeters>
            <DistanceMeters>NAN</DistanceMeters>
          </Trackpoint>
          <Trackpoint>
            <Time>2022-09-21T07:53:36.000Z</Time>
            <Position>
              <LatitudeDegrees>49.43592536263167858123779296875</LatitudeDegrees>
              <LongitudeDegrees>20.31932861544191837310791015625</LongitudeDegrees>
            </Position>
            <AltitudeMeters>595.4000244140625</AltitudeMeters>
            <DistanceMeters>NAN</DistanceMeters>
          </Trackpoint>
          <Trackpoint>
            <Time>2022-09-21T07:53:37.000Z</Time>
            <Position>
              <LatitudeDegrees>49.43592452444136142730712890625</LatitudeDegrees>
              <LongitudeDegrees>20.319324843585491180419921875</LongitudeDegrees>
            </Position>
            <AltitudeMeters>595.4000244140625</AltitudeMeters>
            <DistanceMeters>NAN</DistanceMeters>
          </Trackpoint>
          <Trackpoint>
            <Time>2022-09-21T07:53:40.000Z</Time>
            <Position>
              <LatitudeDegrees>49.43589937873184680938720703125</LatitudeDegrees>
              <LongitudeDegrees>20.3192150406539440155029296875</LongitudeDegrees>
            </Position>
            <AltitudeMeters>595.4000244140625</AltitudeMeters>
            <DistanceMeters>NAN</DistanceMeters>
          </Trackpoint>
          <Trackpoint>
            <Time>2022-09-21T07:53:46.000Z</Time>
            <Position>
              <LatitudeDegrees>49.4358612410724163055419921875</LatitudeDegrees>
              <LongitudeDegrees>20.3189277090132236480712890625</LongitudeDegrees>
            </Position>
            <AltitudeMeters>595</AltitudeMeters>
            <DistanceMeters>NAN</DistanceMeters>
          </Trackpoint>
          <Trackpoint>
            <Time>2022-09-21T07:53:53.000Z</Time>
            <Position>
              <LatitudeDegrees>49.43582452833652496337890625</LatitudeDegrees>
              <LongitudeDegrees>20.31863694079220294952392578125</LongitudeDegrees>
            </Position>
            <AltitudeMeters>594.4000244140625</AltitudeMeters>
            <DistanceMeters>NAN</DistanceMeters>
          </Trackpoint>
          <Trackpoint>
            <Time>2022-09-21T07:53:55.000Z</Time>
            <Position>
              <LatitudeDegrees>49.435818828642368316650390625</LatitudeDegrees>
              <LongitudeDegrees>20.31857407651841640472412109375</LongitudeDegrees>
            </Position>
            <AltitudeMeters>594</AltitudeMeters>
            <DistanceMeters>NAN</DistanceMeters>
          </Trackpoint>
          <Trackpoint>
            <Time>2022-09-21T07:53:56.000Z</Time>
            <Position>
              <LatitudeDegrees>49.43581371568143367767333984375</LatitudeDegrees>
              <LongitudeDegrees>20.3185287304222583770751953125</LongitudeDegrees>
            </Position>
            <AltitudeMeters>593.79998779296875</AltitudeMeters>
            <DistanceMeters>NAN</DistanceMeters>
          </Trackpoint>
          <Trackpoint>
            <Time>2022-09-21T07:54:04.000Z</Time>
            <Position>
              <LatitudeDegrees>49.43581220693886280059814453125</LatitudeDegrees>
              <LongitudeDegrees>20.3182333521544933319091796875</LongitudeDegrees>
            </Position>
            <AltitudeMeters>592.79998779296875</AltitudeMeters>
            <DistanceMeters>NAN</DistanceMeters>
          </Trackpoint>
          <Trackpoint>
            <Time>2022-09-21T07:54:09.000Z</Time>
            <Position>
              <LatitudeDegrees>49.43582645617425441741943359375</LatitudeDegrees>
              <LongitudeDegrees>20.318048112094402313232421875</LongitudeDegrees>
            </Position>
            <AltitudeMeters>591.79998779296875</AltitudeMeters>
            <DistanceMeters>NAN</DistanceMeters>
          </Trackpoint>
          <Trackpoint>
            <Time>2022-09-21T07:54:10.000Z</Time>
            <Position>
              <LatitudeDegrees>49.43583567626774311065673828125</LatitudeDegrees>
              <LongitudeDegrees>20.31802053563296794891357421875</LongitudeDegrees>
            </Position>
            <AltitudeMeters>591.5999755859375</AltitudeMeters>
            <DistanceMeters>NAN</DistanceMeters>
          </Trackpoint>
          <Trackpoint>
            <Time>2022-09-21T07:54:15.000Z</Time>
            <Position>
              <LatitudeDegrees>49.435865096747875213623046875</LatitudeDegrees>
              <LongitudeDegrees>20.31786647625267505645751953125</LongitudeDegrees>
            </Position>
            <AltitudeMeters>590.79998779296875</AltitudeMeters>
            <DistanceMeters>NAN</DistanceMeters>
          </Trackpoint>
          <Trackpoint>
            <Time>2022-09-21T07:54:16.000Z</Time>
            <Position>
              <LatitudeDegrees>49.43587054498493671417236328125</LatitudeDegrees>
              <LongitudeDegrees>20.3178445994853973388671875</LongitudeDegrees>
            </Position>
            <AltitudeMeters>590.4000244140625</AltitudeMeters>
            <DistanceMeters>NAN</DistanceMeters>
          </Trackpoint>
          <Trackpoint>
            <Time>2022-09-21T07:54:20.000Z</Time>
            <Position>
              <LatitudeDegrees>49.43589770235121250152587890625</LatitudeDegrees>
              <LongitudeDegrees>20.31774074770510196685791015625</LongitudeDegrees>
            </Position>
            <AltitudeMeters>589.79998779296875</AltitudeMeters>
            <DistanceMeters>NAN</DistanceMeters>
          </Trackpoint>
          <Trackpoint>
            <Time>2022-09-21T07:54:21.000Z</Time>
            <Position>
              <LatitudeDegrees>49.43590239621698856353759765625</LatitudeDegrees>
              <LongitudeDegrees>20.31771325506269931793212890625</LongitudeDegrees>
            </Position>
            <AltitudeMeters>589.5999755859375</AltitudeMeters>
            <DistanceMeters>NAN</DistanceMeters>
          </Trackpoint>
          <Trackpoint>
            <Time>2022-09-21T07:54:23.000Z</Time>
            <Position>
              <LatitudeDegrees>49.43590725772082805633544921875</LatitudeDegrees>
              <LongitudeDegrees>20.31763136386871337890625</LongitudeDegrees>
            </Position>
            <AltitudeMeters>589.4000244140625</AltitudeMeters>
            <DistanceMeters>NAN</DistanceMeters>
          </Trackpoint>
          <Trackpoint>
            <Time>2022-09-21T07:54:26.000Z</Time>
            <Position>
              <LatitudeDegrees>49.4358793459832668304443359375</LatitudeDegrees>
              <LongitudeDegrees>20.31748292036354541778564453125</LongitudeDegrees>
            </Position>
            <AltitudeMeters>588.5999755859375</AltitudeMeters>
            <DistanceMeters>NAN</DistanceMeters>
          </Trackpoint>
          <Trackpoint>
            <Time>2022-09-21T07:54:27.000Z</Time>
            <Position>
              <LatitudeDegrees>49.43586886860430240631103515625</LatitudeDegrees>
              <LongitudeDegrees>20.317440927028656005859375</LongitudeDegrees>
            </Position>
            <AltitudeMeters>588.4000244140625</AltitudeMeters>
            <DistanceMeters>NAN</DistanceMeters>
          </Trackpoint>
          <Trackpoint>
            <Time>2022-09-21T07:54:30.000Z</Time>
            <Position>
              <LatitudeDegrees>49.43586417473852634429931640625</LatitudeDegrees>
              <LongitudeDegrees>20.31733439303934574127197265625</LongitudeDegrees>
            </Position>
            <AltitudeMeters>587.20001220703125</AltitudeMeters>
            <DistanceMeters>NAN</DistanceMeters>
          </Trackpoint>
          <Trackpoint>
            <Time>2022-09-21T07:54:32.000Z</Time>
            <Position>
              <LatitudeDegrees>49.43586484529078006744384765625</LatitudeDegrees>
              <LongitudeDegrees>20.317262224853038787841796875</LongitudeDegrees>
            </Position>
            <AltitudeMeters>586.5999755859375</AltitudeMeters>
            <DistanceMeters>NAN</DistanceMeters>
          </Trackpoint>
          <Trackpoint>
            <Time>2022-09-21T07:54:33.000Z</Time>
            <Position>
              <LatitudeDegrees>49.435867108404636383056640625</LatitudeDegrees>
              <LongitudeDegrees>20.31722391955554485321044921875</LongitudeDegrees>
            </Position>
            <AltitudeMeters>586.20001220703125</AltitudeMeters>
            <DistanceMeters>NAN</DistanceMeters>
          </Trackpoint>
          <Trackpoint>
            <Time>2022-09-21T07:54:36.000Z</Time>
            <Position>
              <LatitudeDegrees>49.43589485250413417816162109375</LatitudeDegrees>
              <LongitudeDegrees>20.31710498034954071044921875</LongitudeDegrees>
            </Position>
            <AltitudeMeters>585.20001220703125</AltitudeMeters>
            <DistanceMeters>NAN</DistanceMeters>
          </Trackpoint>
          <Trackpoint>
            <Time>2022-09-21T07:54:37.000Z</Time>
            <Position>
              <LatitudeDegrees>49.43590491078794002532958984375</LatitudeDegrees>
              <LongitudeDegrees>20.31707187183201313018798828125</LongitudeDegrees>
            </Position>
            <AltitudeMeters>584.79998779296875</AltitudeMeters>
            <DistanceMeters>NAN</DistanceMeters>
          </Trackpoint>
          <Trackpoint>
            <Time>2022-09-21T07:54:39.000Z</Time>
            <Position>
              <LatitudeDegrees>49.4359209202229976654052734375</LatitudeDegrees>
              <LongitudeDegrees>20.31697330065071582794189453125</LongitudeDegrees>
            </Position>
            <AltitudeMeters>584</AltitudeMeters>
            <DistanceMeters>NAN</DistanceMeters>
          </Trackpoint>
          <Trackpoint>
            <Time>2022-09-21T07:54:41.000Z</Time>
            <Position>
              <LatitudeDegrees>49.4359480775892734527587890625</LatitudeDegrees>
              <LongitudeDegrees>20.31683784909546375274658203125</LongitudeDegrees>
            </Position>
            <AltitudeMeters>583.20001220703125</AltitudeMeters>
            <DistanceMeters>NAN</DistanceMeters>
          </Trackpoint>
          <Trackpoint>
            <Time>2022-09-21T07:54:42.000Z</Time>
            <Position>
              <LatitudeDegrees>49.43597464822232723236083984375</LatitudeDegrees>
              <LongitudeDegrees>20.3167784214019775390625</LongitudeDegrees>
            </Position>
            <AltitudeMeters>582.79998779296875</AltitudeMeters>
            <DistanceMeters>NAN</DistanceMeters>
          </Trackpoint>
          <Trackpoint>
            <Time>2022-09-21T07:54:45.000Z</Time>
            <Position>
              <LatitudeDegrees>49.4360245205461978912353515625</LatitudeDegrees>
              <LongitudeDegrees>20.3166320733726024627685546875</LongitudeDegrees>
            </Position>
            <AltitudeMeters>581.5999755859375</AltitudeMeters>
            <DistanceMeters>NAN</DistanceMeters>
          </Trackpoint>
          <Trackpoint>
            <Time>2022-09-21T07:54:46.000Z</Time>
            <Position>
              <LatitudeDegrees>49.436023347079753875732421875</LatitudeDegrees>
              <LongitudeDegrees>20.31656946055591106414794921875</LongitudeDegrees>
            </Position>
            <AltitudeMeters>581</AltitudeMeters>
            <DistanceMeters>NAN</DistanceMeters>
          </Trackpoint>
          <Trackpoint>
            <Time>2022-09-21T07:54:47.000Z</Time>
            <Position>
              <LatitudeDegrees>49.436037428677082061767578125</LatitudeDegrees>
              <LongitudeDegrees>20.31650944612920284271240234375</LongitudeDegrees>
            </Position>
            <AltitudeMeters>580.4000244140625</AltitudeMeters>
            <DistanceMeters>NAN</DistanceMeters>
          </Trackpoint>
          <Trackpoint>
            <Time>2022-09-21T07:54:49.000Z</Time>
            <Position>
              <LatitudeDegrees>49.4360573776066303253173828125</LatitudeDegrees>
              <LongitudeDegrees>20.31641104258596897125244140625</LongitudeDegrees>
            </Position>
            <AltitudeMeters>579.4000244140625</AltitudeMeters>
            <DistanceMeters>NAN</DistanceMeters>
          </Trackpoint>
          <Trackpoint>
            <Time>2022-09-21T07:54:51.000Z</Time>
            <Position>
              <LatitudeDegrees>49.4360724650323390960693359375</LatitudeDegrees>
              <LongitudeDegrees>20.31629956327378749847412109375</LongitudeDegrees>
            </Position>
            <AltitudeMeters>578</AltitudeMeters>
            <DistanceMeters>NAN</DistanceMeters>
          </Trackpoint>
          <Trackpoint>
            <Time>2022-09-21T07:54:52.000Z</Time>
            <Position>
              <LatitudeDegrees>49.4360719621181488037109375</LatitudeDegrees>
              <LongitudeDegrees>20.31624508090317249298095703125</LongitudeDegrees>
            </Position>
            <AltitudeMeters>577.5999755859375</AltitudeMeters>
            <DistanceMeters>NAN</DistanceMeters>
          </Trackpoint>
          <Trackpoint>
            <Time>2022-09-21T07:54:54.000Z</Time>
            <Position>
              <LatitudeDegrees>49.436064921319484710693359375</LatitudeDegrees>
              <LongitudeDegrees>20.3161512874066829681396484375</LongitudeDegrees>
            </Position>
            <AltitudeMeters>576.5999755859375</AltitudeMeters>
            <DistanceMeters>NAN</DistanceMeters>
          </Trackpoint>
          <Trackpoint>
            <Time>2022-09-21T07:54:56.000Z</Time>
            <Position>
              <LatitudeDegrees>49.4360419549047946929931640625</LatitudeDegrees>
              <LongitudeDegrees>20.31602245755493640899658203125</LongitudeDegrees>
            </Position>
            <AltitudeMeters>575.4000244140625</AltitudeMeters>
            <DistanceMeters>NAN</DistanceMeters>
          </Trackpoint>
          <Trackpoint>
            <Time>2022-09-21T07:54:58.000Z</Time>
            <Position>
              <LatitudeDegrees>49.436026699841022491455078125</LatitudeDegrees>
              <LongitudeDegrees>20.31591676175594329833984375</LongitudeDegrees>
            </Position>
            <AltitudeMeters>574.4000244140625</AltitudeMeters>
            <DistanceMeters>NAN</DistanceMeters>
          </Trackpoint>
          <Trackpoint>
            <Time>2022-09-21T07:55:01.000Z</Time>
            <Position>
              <LatitudeDegrees>49.43601203151047229766845703125</LatitudeDegrees>
              <LongitudeDegrees>20.315728001296520233154296875</LongitudeDegrees>
            </Position>
            <AltitudeMeters>573.20001220703125</AltitudeMeters>
            <DistanceMeters>NAN</DistanceMeters>
          </Trackpoint>
          <Trackpoint>
            <Time>2022-09-21T07:55:02.000Z</Time>
            <Position>
              <LatitudeDegrees>49.43599753081798553466796875</LatitudeDegrees>
              <LongitudeDegrees>20.315668322145938873291015625</LongitudeDegrees>
            </Position>
            <AltitudeMeters>573</AltitudeMeters>
            <DistanceMeters>NAN</DistanceMeters>
          </Trackpoint>
          <Trackpoint>
            <Time>2022-09-21T07:55:03.000Z</Time>
            <Position>
              <LatitudeDegrees>49.43598185665905475616455078125</LatitudeDegrees>
              <LongitudeDegrees>20.315603278577327728271484375</LongitudeDegrees>
            </Position>
            <AltitudeMeters>572.5999755859375</AltitudeMeters>
            <DistanceMeters>NAN</DistanceMeters>
          </Trackpoint>
          <Trackpoint>
            <Time>2022-09-21T07:55:04.000Z</Time>
            <Position>
              <LatitudeDegrees>49.43597204983234405517578125</LatitudeDegrees>
              <LongitudeDegrees>20.315538235008716583251953125</LongitudeDegrees>
            </Position>
            <AltitudeMeters>572.20001220703125</AltitudeMeters>
            <DistanceMeters>NAN</DistanceMeters>
          </Trackpoint>
          <Trackpoint>
            <Time>2022-09-21T07:55:05.000Z</Time>
            <Position>
              <LatitudeDegrees>49.43596844561398029327392578125</LatitudeDegrees>
              <LongitudeDegrees>20.315487273037433624267578125</LongitudeDegrees>
            </Position>
            <AltitudeMeters>571.79998779296875</AltitudeMeters>
            <DistanceMeters>NAN</DistanceMeters>
          </Trackpoint>
          <Trackpoint>
            <Time>2022-09-21T07:55:07.000Z</Time>
            <Position>
              <LatitudeDegrees>49.4359641708433628082275390625</LatitudeDegrees>
              <LongitudeDegrees>20.31535659916698932647705078125</LongitudeDegrees>
            </Position>
            <AltitudeMeters>571</AltitudeMeters>
            <DistanceMeters>NAN</DistanceMeters>
          </Trackpoint>
          <Trackpoint>
            <Time>2022-09-21T07:55:08.000Z</Time>
            <Position>
              <LatitudeDegrees>49.43596324883401393890380859375</LatitudeDegrees>
              <LongitudeDegrees>20.31527730636298656463623046875</LongitudeDegrees>
            </Position>
            <AltitudeMeters>570.5999755859375</AltitudeMeters>
            <DistanceMeters>NAN</DistanceMeters>
          </Trackpoint>
          <Trackpoint>
            <Time>2022-09-21T07:55:10.000Z</Time>
            <Position>
              <LatitudeDegrees>49.43596190772950649261474609375</LatitudeDegrees>
              <LongitudeDegrees>20.31515744514763355255126953125</LongitudeDegrees>
            </Position>
            <AltitudeMeters>569.79998779296875</AltitudeMeters>
            <DistanceMeters>NAN</DistanceMeters>
          </Trackpoint>
          <Trackpoint>
            <Time>2022-09-21T07:55:13.000Z</Time>
            <Position>
              <LatitudeDegrees>49.4359651766717433929443359375</LatitudeDegrees>
              <LongitudeDegrees>20.315017215907573699951171875</LongitudeDegrees>
            </Position>
            <AltitudeMeters>568.79998779296875</AltitudeMeters>
            <DistanceMeters>NAN</DistanceMeters>
          </Trackpoint>
          <Trackpoint>
            <Time>2022-09-21T07:55:14.000Z</Time>
            <Position>
              <LatitudeDegrees>49.4359673559665679931640625</LatitudeDegrees>
              <LongitudeDegrees>20.3149815090000629425048828125</LongitudeDegrees>
            </Position>
            <AltitudeMeters>568.5999755859375</AltitudeMeters>
            <DistanceMeters>NAN</DistanceMeters>
          </Trackpoint>
          <Trackpoint>
            <Time>2022-09-21T07:55:19.000Z</Time>
            <Position>
              <LatitudeDegrees>49.43599794991314411163330078125</LatitudeDegrees>
              <LongitudeDegrees>20.31484521925449371337890625</LongitudeDegrees>
            </Position>
            <AltitudeMeters>567.4000244140625</AltitudeMeters>
            <DistanceMeters>NAN</DistanceMeters>
          </Trackpoint>
          <Trackpoint>
            <Time>2022-09-21T07:55:20.000Z</Time>
            <Position>
              <LatitudeDegrees>49.43599409423768520355224609375</LatitudeDegrees>
              <LongitudeDegrees>20.31481546349823474884033203125</LongitudeDegrees>
            </Position>
            <AltitudeMeters>567.4000244140625</AltitudeMeters>
            <DistanceMeters>NAN</DistanceMeters>
          </Trackpoint>
          <Trackpoint>
            <Time>2022-09-21T07:55:22.000Z</Time>
            <Position>
              <LatitudeDegrees>49.436006583273410797119140625</LatitudeDegrees>
              <LongitudeDegrees>20.31477120704948902130126953125</LongitudeDegrees>
            </Position>
            <AltitudeMeters>567</AltitudeMeters>
            <DistanceMeters>NAN</DistanceMeters>
          </Trackpoint>
          <Trackpoint>
            <Time>2022-09-21T07:55:24.000Z</Time>
            <Position>
              <LatitudeDegrees>49.436030052602291107177734375</LatitudeDegrees>
              <LongitudeDegrees>20.3147085942327976226806640625</LongitudeDegrees>
            </Position>
            <AltitudeMeters>566.4000244140625</AltitudeMeters>
            <DistanceMeters>NAN</DistanceMeters>
          </Trackpoint>
          <Trackpoint>
            <Time>2022-09-21T07:55:27.000Z</Time>
            <Position>
              <LatitudeDegrees>49.4360674358904361724853515625</LatitudeDegrees>
              <LongitudeDegrees>20.31459988094866275787353515625</LongitudeDegrees>
            </Position>
            <AltitudeMeters>565.20001220703125</AltitudeMeters>
            <DistanceMeters>NAN</DistanceMeters>
          </Trackpoint>
          <Trackpoint>
            <Time>2022-09-21T07:55:30.000Z</Time>
            <Position>
              <LatitudeDegrees>49.4361148774623870849609375</LatitudeDegrees>
              <LongitudeDegrees>20.314495861530303955078125</LongitudeDegrees>
            </Position>
            <AltitudeMeters>563.79998779296875</AltitudeMeters>
            <DistanceMeters>NAN</DistanceMeters>
          </Trackpoint>
          <Trackpoint>
            <Time>2022-09-21T07:55:33.000Z</Time>
            <Position>
              <LatitudeDegrees>49.436173550784587860107421875</LatitudeDegrees>
              <LongitudeDegrees>20.31442604027688503265380859375</LongitudeDegrees>
            </Position>
            <AltitudeMeters>562.79998779296875</AltitudeMeters>
            <DistanceMeters>NAN</DistanceMeters>
          </Trackpoint>
          <Trackpoint>
            <Time>2022-09-21T07:55:36.000Z</Time>
            <Position>
              <LatitudeDegrees>49.43621654994785785675048828125</LatitudeDegrees>
              <LongitudeDegrees>20.31431707553565502166748046875</LongitudeDegrees>
            </Position>
            <AltitudeMeters>561.5999755859375</AltitudeMeters>
            <DistanceMeters>NAN</DistanceMeters>
          </Trackpoint>
          <Trackpoint>
            <Time>2022-09-21T07:55:40.000Z</Time>
            <Position>
              <LatitudeDegrees>49.4362650811672210693359375</LatitudeDegrees>
              <LongitudeDegrees>20.31417676247656345367431640625</LongitudeDegrees>
            </Position>
            <AltitudeMeters>560.20001220703125</AltitudeMeters>
            <DistanceMeters>NAN</DistanceMeters>
          </Trackpoint>
          <Trackpoint>
            <Time>2022-09-21T07:55:41.000Z</Time>
            <Position>
              <LatitudeDegrees>49.4362776540219783782958984375</LatitudeDegrees>
              <LongitudeDegrees>20.31415597535669803619384765625</LongitudeDegrees>
            </Position>
            <AltitudeMeters>560</AltitudeMeters>
            <DistanceMeters>NAN</DistanceMeters>
          </Trackpoint>
          <Trackpoint>
            <Time>2022-09-21T07:55:43.000Z</Time>
            <Position>
              <LatitudeDegrees>49.43629047833383083343505859375</LatitudeDegrees>
              <LongitudeDegrees>20.314118675887584686279296875</LongitudeDegrees>
            </Position>
            <AltitudeMeters>559.4000244140625</AltitudeMeters>
            <DistanceMeters>NAN</DistanceMeters>
          </Trackpoint>
          <Trackpoint>
            <Time>2022-09-21T07:55:44.000Z</Time>
            <Position>
              <LatitudeDegrees>49.436296932399272918701171875</LatitudeDegrees>
              <LongitudeDegrees>20.31412093900144100189208984375</LongitudeDegrees>
            </Position>
            <AltitudeMeters>559.20001220703125</AltitudeMeters>
            <DistanceMeters>NAN</DistanceMeters>
          </Trackpoint>
          <Trackpoint>
            <Time>2022-09-21T07:55:47.000Z</Time>
            <Position>
              <LatitudeDegrees>49.4362991116940975189208984375</LatitudeDegrees>
              <LongitudeDegrees>20.314124710857868194580078125</LongitudeDegrees>
            </Position>
            <AltitudeMeters>558.79998779296875</AltitudeMeters>
            <DistanceMeters>NAN</DistanceMeters>
          </Trackpoint>
          <Trackpoint>
            <Time>2022-09-21T07:55:49.000Z</Time>
            <Position>
              <LatitudeDegrees>49.4362991116940975189208984375</LatitudeDegrees>
              <LongitudeDegrees>20.314124710857868194580078125</LongitudeDegrees>
            </Position>
            <AltitudeMeters>558.5999755859375</AltitudeMeters>
            <DistanceMeters>NAN</DistanceMeters>
          </Trackpoint>
          <Trackpoint>
            <Time>2022-09-21T07:55:51.000Z</Time>
            <Position>
              <LatitudeDegrees>49.4362991116940975189208984375</LatitudeDegrees>
              <LongitudeDegrees>20.314124710857868194580078125</LongitudeDegrees>
            </Position>
            <AltitudeMeters>558.5999755859375</AltitudeMeters>
            <DistanceMeters>NAN</DistanceMeters>
          </Trackpoint>
          <Trackpoint>
            <Time>2022-09-21T07:55:55.000Z</Time>
            <Position>
              <LatitudeDegrees>49.43629902787506580352783203125</LatitudeDegrees>
              <LongitudeDegrees>20.314124710857868194580078125</LongitudeDegrees>
            </Position>
            <AltitudeMeters>558.4000244140625</AltitudeMeters>
            <DistanceMeters>NAN</DistanceMeters>
          </Trackpoint>
          <Trackpoint>
            <Time>2022-09-21T07:56:04.000Z</Time>
            <Position>
              <LatitudeDegrees>49.436298273503780364990234375</LatitudeDegrees>
              <LongitudeDegrees>20.3141262196004390716552734375</LongitudeDegrees>
            </Position>
            <AltitudeMeters>558.5999755859375</AltitudeMeters>
            <DistanceMeters>NAN</DistanceMeters>
          </Trackpoint>
          <Trackpoint>
            <Time>2022-09-21T07:56:05.000Z</Time>
            <Position>
              <LatitudeDegrees>49.436298273503780364990234375</LatitudeDegrees>
              <LongitudeDegrees>20.3141262196004390716552734375</LongitudeDegrees>
            </Position>
            <AltitudeMeters>558.79998779296875</AltitudeMeters>
            <DistanceMeters>NAN</DistanceMeters>
          </Trackpoint>
          <Trackpoint>
            <Time>2022-09-21T07:56:22.000Z</Time>
            <Position>
              <LatitudeDegrees>49.43629391491413116455078125</LatitudeDegrees>
              <LongitudeDegrees>20.31413837336003780364990234375</LongitudeDegrees>
            </Position>
            <AltitudeMeters>558.4000244140625</AltitudeMeters>
            <DistanceMeters>NAN</DistanceMeters>
          </Trackpoint>
          <Trackpoint>
            <Time>2022-09-21T07:56:23.000Z</Time>
            <Position>
              <LatitudeDegrees>49.43629391491413116455078125</LatitudeDegrees>
              <LongitudeDegrees>20.31413837336003780364990234375</LongitudeDegrees>
            </Position>
            <AltitudeMeters>558.20001220703125</AltitudeMeters>
            <DistanceMeters>NAN</DistanceMeters>
          </Trackpoint>
          <Trackpoint>
            <Time>2022-09-21T07:56:25.000Z</Time>
            <Position>
              <LatitudeDegrees>49.436296261847019195556640625</LatitudeDegrees>
              <LongitudeDegrees>20.31413719989359378814697265625</LongitudeDegrees>
            </Position>
            <AltitudeMeters>557.79998779296875</AltitudeMeters>
            <DistanceMeters>NAN</DistanceMeters>
          </Trackpoint>
          <Trackpoint>
            <Time>2022-09-21T07:56:30.000Z</Time>
            <Position>
              <LatitudeDegrees>49.436296261847019195556640625</LatitudeDegrees>
              <LongitudeDegrees>20.31413719989359378814697265625</LongitudeDegrees>
            </Position>
            <AltitudeMeters>557.20001220703125</AltitudeMeters>
            <DistanceMeters>NAN</DistanceMeters>
          </Trackpoint>
          <Trackpoint>
            <Time>2022-09-21T07:56:33.000Z</Time>
            <Position>
              <LatitudeDegrees>49.436296261847019195556640625</LatitudeDegrees>
              <LongitudeDegrees>20.31413719989359378814697265625</LongitudeDegrees>
            </Position>
            <AltitudeMeters>556.5999755859375</AltitudeMeters>
            <DistanceMeters>NAN</DistanceMeters>
          </Trackpoint>
          <Trackpoint>
            <Time>2022-09-21T07:56:37.000Z</Time>
            <Position>
              <LatitudeDegrees>49.43631428293883800506591796875</LatitudeDegrees>
              <LongitudeDegrees>20.31413384713232517242431640625</LongitudeDegrees>
            </Position>
            <AltitudeMeters>556</AltitudeMeters>
            <DistanceMeters>NAN</DistanceMeters>
          </Trackpoint>
          <Trackpoint>
            <Time>2022-09-21T07:56:41.000Z</Time>
            <Position>
              <LatitudeDegrees>49.43631428293883800506591796875</LatitudeDegrees>
              <LongitudeDegrees>20.314144156873226165771484375</LongitudeDegrees>
            </Position>
            <AltitudeMeters>555.5999755859375</AltitudeMeters>
            <DistanceMeters>NAN</DistanceMeters>
          </Trackpoint>
          <Trackpoint>
            <Time>2022-09-21T07:56:42.000Z</Time>
            <Position>
              <LatitudeDegrees>49.43631143309175968170166015625</LatitudeDegrees>
              <LongitudeDegrees>20.314149521291255950927734375</LongitudeDegrees>
            </Position>
            <AltitudeMeters>555.4000244140625</AltitudeMeters>
            <DistanceMeters>NAN</DistanceMeters>
          </Trackpoint>
          <Trackpoint>
            <Time>2022-09-21T07:56:44.000Z</Time>
            <Position>
              <LatitudeDegrees>49.43631210364401340484619140625</LatitudeDegrees>
              <LongitudeDegrees>20.31415161676704883575439453125</LongitudeDegrees>
            </Position>
            <AltitudeMeters>555</AltitudeMeters>
            <DistanceMeters>NAN</DistanceMeters>
          </Trackpoint>
          <Trackpoint>
            <Time>2022-09-21T07:56:46.000Z</Time>
            <Position>
              <LatitudeDegrees>49.43631210364401340484619140625</LatitudeDegrees>
              <LongitudeDegrees>20.31415161676704883575439453125</LongitudeDegrees>
            </Position>
            <AltitudeMeters>554.79998779296875</AltitudeMeters>
            <DistanceMeters>NAN</DistanceMeters>
          </Trackpoint>
          <Trackpoint>
            <Time>2022-09-21T07:56:47.000Z</Time>
            <Position>
              <LatitudeDegrees>49.43631495349109172821044921875</LatitudeDegrees>
              <LongitudeDegrees>20.3141553886234760284423828125</LongitudeDegrees>
            </Position>
            <AltitudeMeters>554.5999755859375</AltitudeMeters>
            <DistanceMeters>NAN</DistanceMeters>
          </Trackpoint>
          <Trackpoint>
            <Time>2022-09-21T07:56:50.000Z</Time>
            <Position>
              <LatitudeDegrees>49.43632417358458042144775390625</LatitudeDegrees>
              <LongitudeDegrees>20.314162261784076690673828125</LongitudeDegrees>
            </Position>
            <AltitudeMeters>553.79998779296875</AltitudeMeters>
            <DistanceMeters>NAN</DistanceMeters>
          </Trackpoint>
          <Trackpoint>
            <Time>2022-09-21T07:56:55.000Z</Time>
            <Position>
              <LatitudeDegrees>49.4363312982022762298583984375</LatitudeDegrees>
              <LongitudeDegrees>20.31417466700077056884765625</LongitudeDegrees>
            </Position>
            <AltitudeMeters>552.79998779296875</AltitudeMeters>
            <DistanceMeters>NAN</DistanceMeters>
          </Trackpoint>
          <Trackpoint>
            <Time>2022-09-21T07:56:56.000Z</Time>
            <Position>
              <LatitudeDegrees>49.43634026683866977691650390625</LatitudeDegrees>
              <LongitudeDegrees>20.31419134698808193206787109375</LongitudeDegrees>
            </Position>
            <AltitudeMeters>552.5999755859375</AltitudeMeters>
            <DistanceMeters>NAN</DistanceMeters>
          </Trackpoint>
          <Trackpoint>
            <Time>2022-09-21T07:57:00.000Z</Time>
            <Position>
              <LatitudeDegrees>49.43638049997389316558837890625</LatitudeDegrees>
              <LongitudeDegrees>20.31425236724317073822021484375</LongitudeDegrees>
            </Position>
            <AltitudeMeters>551.79998779296875</AltitudeMeters>
            <DistanceMeters>NAN</DistanceMeters>
          </Trackpoint>
          <Trackpoint>
            <Time>2022-09-21T07:57:03.000Z</Time>
            <Position>
              <LatitudeDegrees>49.43640195764601230621337890625</LatitudeDegrees>
              <LongitudeDegrees>20.3142851404845714569091796875</LongitudeDegrees>
            </Position>
            <AltitudeMeters>551.4000244140625</AltitudeMeters>
            <DistanceMeters>NAN</DistanceMeters>
          </Trackpoint>
          <Trackpoint>
            <Time>2022-09-21T07:57:06.000Z</Time>
            <Position>
              <LatitudeDegrees>49.43640933372080326080322265625</LatitudeDegrees>
              <LongitudeDegrees>20.31429469585418701171875</LongitudeDegrees>
            </Position>
            <AltitudeMeters>551</AltitudeMeters>
            <DistanceMeters>NAN</DistanceMeters>
          </Trackpoint>
          <Trackpoint>
            <Time>2022-09-21T07:57:09.000Z</Time>
            <Position>
              <LatitudeDegrees>49.43642341531813144683837890625</LatitudeDegrees>
              <LongitudeDegrees>20.31430802308022975921630859375</LongitudeDegrees>
            </Position>
            <AltitudeMeters>550.4000244140625</AltitudeMeters>
            <DistanceMeters>NAN</DistanceMeters>
          </Trackpoint>
          <Trackpoint>
            <Time>2022-09-21T07:57:14.000Z</Time>
            <Position>
              <LatitudeDegrees>49.43642341531813144683837890625</LatitudeDegrees>
              <LongitudeDegrees>20.31430802308022975921630859375</LongitudeDegrees>
            </Position>
            <AltitudeMeters>549.79998779296875</AltitudeMeters>
            <DistanceMeters>NAN</DistanceMeters>
          </Trackpoint>
          <Trackpoint>
            <Time>2022-09-21T07:57:20.000Z</Time>
            <Position>
              <LatitudeDegrees>49.43642341531813144683837890625</LatitudeDegrees>
              <LongitudeDegrees>20.31430802308022975921630859375</LongitudeDegrees>
            </Position>
            <AltitudeMeters>549.20001220703125</AltitudeMeters>
            <DistanceMeters>NAN</DistanceMeters>
          </Trackpoint>
          <Trackpoint>
            <Time>2022-09-21T07:57:27.000Z</Time>
            <Position>
              <LatitudeDegrees>49.43642827682197093963623046875</LatitudeDegrees>
              <LongitudeDegrees>20.31430584378540515899658203125</LongitudeDegrees>
            </Position>
            <AltitudeMeters>548.20001220703125</AltitudeMeters>
            <DistanceMeters>NAN</DistanceMeters>
          </Trackpoint>
          <Trackpoint>
            <Time>2022-09-21T07:57:28.000Z</Time>
            <Position>
              <LatitudeDegrees>49.43642827682197093963623046875</LatitudeDegrees>
              <LongitudeDegrees>20.31430584378540515899658203125</LongitudeDegrees>
            </Position>
            <AltitudeMeters>548.20001220703125</AltitudeMeters>
            <DistanceMeters>NAN</DistanceMeters>
          </Trackpoint>
          <Trackpoint>
            <Time>2022-09-21T07:57:35.000Z</Time>
            <Position>
              <LatitudeDegrees>49.43645928986370563507080078125</LatitudeDegrees>
              <LongitudeDegrees>20.3142707236111164093017578125</LongitudeDegrees>
            </Position>
            <AltitudeMeters>547.4000244140625</AltitudeMeters>
            <DistanceMeters>NAN</DistanceMeters>
          </Trackpoint>
          <Trackpoint>
            <Time>2022-09-21T07:57:37.000Z</Time>
            <Position>
              <LatitudeDegrees>49.43647035397589206695556640625</LatitudeDegrees>
              <LongitudeDegrees>20.3142633475363254547119140625</LongitudeDegrees>
            </Position>
            <AltitudeMeters>547</AltitudeMeters>
            <DistanceMeters>NAN</DistanceMeters>
          </Trackpoint>
          <Trackpoint>
            <Time>2022-09-21T07:57:40.000Z</Time>
            <Position>
              <LatitudeDegrees>49.43648695014417171478271484375</LatitudeDegrees>
              <LongitudeDegrees>20.314232669770717620849609375</LongitudeDegrees>
            </Position>
            <AltitudeMeters>546.5999755859375</AltitudeMeters>
            <DistanceMeters>NAN</DistanceMeters>
          </Trackpoint>
          <Trackpoint>
            <Time>2022-09-21T07:57:42.000Z</Time>
            <Position>
              <LatitudeDegrees>49.43648695014417171478271484375</LatitudeDegrees>
              <LongitudeDegrees>20.314232669770717620849609375</LongitudeDegrees>
            </Position>
            <AltitudeMeters>546.4000244140625</AltitudeMeters>
            <DistanceMeters>NAN</DistanceMeters>
          </Trackpoint>
          <Trackpoint>
            <Time>2022-09-21T07:57:43.000Z</Time>
            <Position>
              <LatitudeDegrees>49.43648695014417171478271484375</LatitudeDegrees>
              <LongitudeDegrees>20.314232669770717620849609375</LongitudeDegrees>
            </Position>
            <AltitudeMeters>546.20001220703125</AltitudeMeters>
            <DistanceMeters>NAN</DistanceMeters>
          </Trackpoint>
          <Trackpoint>
            <Time>2022-09-21T07:57:46.000Z</Time>
            <Position>
              <LatitudeDegrees>49.43648795597255229949951171875</LatitudeDegrees>
              <LongitudeDegrees>20.3142288140952587127685546875</LongitudeDegrees>
            </Position>
            <AltitudeMeters>546</AltitudeMeters>
            <DistanceMeters>NAN</DistanceMeters>
          </Trackpoint>
          <Trackpoint>
            <Time>2022-09-21T07:57:47.000Z</Time>
            <Position>
              <LatitudeDegrees>49.43648795597255229949951171875</LatitudeDegrees>
              <LongitudeDegrees>20.3142288140952587127685546875</LongitudeDegrees>
            </Position>
            <AltitudeMeters>545.79998779296875</AltitudeMeters>
            <DistanceMeters>NAN</DistanceMeters>
          </Trackpoint>
          <Trackpoint>
            <Time>2022-09-21T07:57:51.000Z</Time>
            <Position>
              <LatitudeDegrees>49.436489045619964599609375</LatitudeDegrees>
              <LongitudeDegrees>20.3142244555056095123291015625</LongitudeDegrees>
            </Position>
            <AltitudeMeters>545.20001220703125</AltitudeMeters>
            <DistanceMeters>NAN</DistanceMeters>
          </Trackpoint>
          <Trackpoint>
            <Time>2022-09-21T07:57:55.000Z</Time>
            <Position>
              <LatitudeDegrees>49.43649197928607463836669921875</LatitudeDegrees>
              <LongitudeDegrees>20.314220599830150604248046875</LongitudeDegrees>
            </Position>
            <AltitudeMeters>544.79998779296875</AltitudeMeters>
            <DistanceMeters>NAN</DistanceMeters>
          </Trackpoint>
          <Trackpoint>
            <Time>2022-09-21T07:58:00.000Z</Time>
            <Position>
              <LatitudeDegrees>49.436497427523136138916015625</LatitudeDegrees>
              <LongitudeDegrees>20.3142190910875797271728515625</LongitudeDegrees>
            </Position>
            <AltitudeMeters>544</AltitudeMeters>
            <DistanceMeters>NAN</DistanceMeters>
          </Trackpoint>
          <Trackpoint>
            <Time>2022-09-21T07:58:03.000Z</Time>
            <Position>
              <LatitudeDegrees>49.4365264289081096649169921875</LatitudeDegrees>
              <LongitudeDegrees>20.31423895619809627532958984375</LongitudeDegrees>
            </Position>
            <AltitudeMeters>543.5999755859375</AltitudeMeters>
            <DistanceMeters>NAN</DistanceMeters>
          </Trackpoint>
          <Trackpoint>
            <Time>2022-09-21T07:58:04.000Z</Time>
            <Position>
              <LatitudeDegrees>49.4365428574383258819580078125</LatitudeDegrees>
              <LongitudeDegrees>20.314249098300933837890625</LongitudeDegrees>
            </Position>
            <AltitudeMeters>543.5999755859375</AltitudeMeters>
            <DistanceMeters>NAN</DistanceMeters>
          </Trackpoint>
          <Trackpoint>
            <Time>2022-09-21T07:58:07.000Z</Time>
            <Position>
              <LatitudeDegrees>49.43659055046737194061279296875</LatitudeDegrees>
              <LongitudeDegrees>20.31429310329258441925048828125</LongitudeDegrees>
            </Position>
            <AltitudeMeters>543.20001220703125</AltitudeMeters>
            <DistanceMeters>NAN</DistanceMeters>
          </Trackpoint>
          <Trackpoint>
            <Time>2022-09-21T07:58:09.000Z</Time>
            <Position>
              <LatitudeDegrees>49.4366437755525112152099609375</LatitudeDegrees>
              <LongitudeDegrees>20.31432461924850940704345703125</LongitudeDegrees>
            </Position>
            <AltitudeMeters>543</AltitudeMeters>
            <DistanceMeters>NAN</DistanceMeters>
          </Trackpoint>
          <Trackpoint>
            <Time>2022-09-21T07:58:11.000Z</Time>
            <Position>
              <LatitudeDegrees>49.4366813264787197113037109375</LatitudeDegrees>
              <LongitudeDegrees>20.31433819793164730072021484375</LongitudeDegrees>
            </Position>
            <AltitudeMeters>542.4000244140625</AltitudeMeters>
            <DistanceMeters>NAN</DistanceMeters>
          </Trackpoint>
          <Trackpoint>
            <Time>2022-09-21T07:58:15.000Z</Time>
            <Position>
              <LatitudeDegrees>49.4367061369121074676513671875</LatitudeDegrees>
              <LongitudeDegrees>20.31435831449925899505615234375</LongitudeDegrees>
            </Position>
            <AltitudeMeters>542.20001220703125</AltitudeMeters>
            <DistanceMeters>NAN</DistanceMeters>
          </Trackpoint>
          <Trackpoint>
            <Time>2022-09-21T07:58:20.000Z</Time>
            <Position>
              <LatitudeDegrees>49.4367371499538421630859375</LatitudeDegrees>
              <LongitudeDegrees>20.31435462646186351776123046875</LongitudeDegrees>
            </Position>
            <AltitudeMeters>541.5999755859375</AltitudeMeters>
            <DistanceMeters>NAN</DistanceMeters>
          </Trackpoint>
          <Trackpoint>
            <Time>2022-09-21T07:58:22.000Z</Time>
            <Position>
              <LatitudeDegrees>49.4367477111518383026123046875</LatitudeDegrees>
              <LongitudeDegrees>20.31434926204383373260498046875</LongitudeDegrees>
            </Position>
            <AltitudeMeters>541.4000244140625</AltitudeMeters>
            <DistanceMeters>NAN</DistanceMeters>
          </Trackpoint>
          <Trackpoint>
            <Time>2022-09-21T07:58:28.000Z</Time>
            <Position>
              <LatitudeDegrees>49.43676137365400791168212890625</LatitudeDegrees>
              <LongitudeDegrees>20.3143407963216304779052734375</LongitudeDegrees>
            </Position>
            <AltitudeMeters>540.79998779296875</AltitudeMeters>
            <DistanceMeters>NAN</DistanceMeters>
          </Trackpoint>
          <Trackpoint>
            <Time>2022-09-21T07:58:29.000Z</Time>
            <Position>
              <LatitudeDegrees>49.43676137365400791168212890625</LatitudeDegrees>
              <LongitudeDegrees>20.3143407963216304779052734375</LongitudeDegrees>
            </Position>
            <AltitudeMeters>540.5999755859375</AltitudeMeters>
            <DistanceMeters>NAN</DistanceMeters>
          </Trackpoint>
          <Trackpoint>
            <Time>2022-09-21T07:58:34.000Z</Time>
            <Position>
              <LatitudeDegrees>49.43676137365400791168212890625</LatitudeDegrees>
              <LongitudeDegrees>20.3143407963216304779052734375</LongitudeDegrees>
            </Position>
            <AltitudeMeters>540.4000244140625</AltitudeMeters>
            <DistanceMeters>NAN</DistanceMeters>
          </Trackpoint>
          <Trackpoint>
            <Time>2022-09-21T07:58:35.000Z</Time>
            <Position>
              <LatitudeDegrees>49.43676137365400791168212890625</LatitudeDegrees>
              <LongitudeDegrees>20.3143407963216304779052734375</LongitudeDegrees>
            </Position>
            <AltitudeMeters>540.20001220703125</AltitudeMeters>
            <DistanceMeters>NAN</DistanceMeters>
          </Trackpoint>
          <Trackpoint>
            <Time>2022-09-21T07:58:37.000Z</Time>
            <Position>
              <LatitudeDegrees>49.43676237948238849639892578125</LatitudeDegrees>
              <LongitudeDegrees>20.3143389523029327392578125</LongitudeDegrees>
            </Position>
            <AltitudeMeters>540</AltitudeMeters>
            <DistanceMeters>NAN</DistanceMeters>
          </Trackpoint>
          <Trackpoint>
            <Time>2022-09-21T07:58:38.000Z</Time>
            <Position>
              <LatitudeDegrees>49.43677159957587718963623046875</LatitudeDegrees>
              <LongitudeDegrees>20.31433149240911006927490234375</LongitudeDegrees>
            </Position>
            <AltitudeMeters>539.79998779296875</AltitudeMeters>
            <DistanceMeters>NAN</DistanceMeters>
          </Trackpoint>
          <Trackpoint>
            <Time>2022-09-21T07:58:40.000Z</Time>
            <Position>
              <LatitudeDegrees>49.4367949850857257843017578125</LatitudeDegrees>
              <LongitudeDegrees>20.31431875191628932952880859375</LongitudeDegrees>
            </Position>
            <AltitudeMeters>539.4000244140625</AltitudeMeters>
            <DistanceMeters>NAN</DistanceMeters>
          </Trackpoint>
          <Trackpoint>
            <Time>2022-09-21T07:58:44.000Z</Time>
            <Position>
              <LatitudeDegrees>49.43680294789373874664306640625</LatitudeDegrees>
              <LongitudeDegrees>20.31431757844984531402587890625</LongitudeDegrees>
            </Position>
            <AltitudeMeters>539.20001220703125</AltitudeMeters>
            <DistanceMeters>NAN</DistanceMeters>
          </Trackpoint>
          <Trackpoint>
            <Time>2022-09-21T07:58:46.000Z</Time>
            <Position>
              <LatitudeDegrees>49.43680294789373874664306640625</LatitudeDegrees>
              <LongitudeDegrees>20.31431757844984531402587890625</LongitudeDegrees>
            </Position>
            <AltitudeMeters>538.79998779296875</AltitudeMeters>
            <DistanceMeters>NAN</DistanceMeters>
          </Trackpoint>
          <Trackpoint>
            <Time>2022-09-21T07:58:52.000Z</Time>
            <Position>
              <LatitudeDegrees>49.4368134252727031707763671875</LatitudeDegrees>
              <LongitudeDegrees>20.3143102861940860748291015625</LongitudeDegrees>
            </Position>
            <AltitudeMeters>538.5999755859375</AltitudeMeters>
            <DistanceMeters>NAN</DistanceMeters>
          </Trackpoint>
          <Trackpoint>
            <Time>2022-09-21T07:58:57.000Z</Time>
            <Position>
              <LatitudeDegrees>49.43682658486068248748779296875</LatitudeDegrees>
              <LongitudeDegrees>20.3142925165593624114990234375</LongitudeDegrees>
            </Position>
            <AltitudeMeters>538.5999755859375</AltitudeMeters>
            <DistanceMeters>NAN</DistanceMeters>
          </Trackpoint>
          <Trackpoint>
            <Time>2022-09-21T07:59:01.000Z</Time>
            <Position>
              <LatitudeDegrees>49.43685826845467090606689453125</LatitudeDegrees>
              <LongitudeDegrees>20.314225293695926666259765625</LongitudeDegrees>
            </Position>
            <AltitudeMeters>538.5999755859375</AltitudeMeters>
            <DistanceMeters>NAN</DistanceMeters>
          </Trackpoint>
          <Trackpoint>
            <Time>2022-09-21T07:59:05.000Z</Time>
            <Position>
              <LatitudeDegrees>49.43687260150909423828125</LatitudeDegrees>
              <LongitudeDegrees>20.3141191788017749786376953125</LongitudeDegrees>
            </Position>
            <AltitudeMeters>539.20001220703125</AltitudeMeters>
            <DistanceMeters>NAN</DistanceMeters>
          </Trackpoint>
          <Trackpoint>
            <Time>2022-09-21T07:59:12.000Z</Time>
            <Position>
              <LatitudeDegrees>49.4369099847972393035888671875</LatitudeDegrees>
              <LongitudeDegrees>20.3140021674335002899169921875</LongitudeDegrees>
            </Position>
            <AltitudeMeters>539.79998779296875</AltitudeMeters>
            <DistanceMeters>NAN</DistanceMeters>
          </Trackpoint>
          <Trackpoint>
            <Time>2022-09-21T07:59:15.000Z</Time>
            <Position>
              <LatitudeDegrees>49.436953067779541015625</LatitudeDegrees>
              <LongitudeDegrees>20.3139572404325008392333984375</LongitudeDegrees>
            </Position>
            <AltitudeMeters>539.79998779296875</AltitudeMeters>
            <DistanceMeters>NAN</DistanceMeters>
          </Trackpoint>
          <Trackpoint>
            <Time>2022-09-21T07:59:18.000Z</Time>
            <Position>
              <LatitudeDegrees>49.43697108887135982513427734375</LatitudeDegrees>
              <LongitudeDegrees>20.31393251381814479827880859375</LongitudeDegrees>
            </Position>
            <AltitudeMeters>540.20001220703125</AltitudeMeters>
            <DistanceMeters>NAN</DistanceMeters>
          </Trackpoint>
          <Trackpoint>
            <Time>2022-09-21T07:59:19.000Z</Time>
            <Position>
              <LatitudeDegrees>49.43697377108037471771240234375</LatitudeDegrees>
              <LongitudeDegrees>20.3139327652752399444580078125</LongitudeDegrees>
            </Position>
            <AltitudeMeters>540.20001220703125</AltitudeMeters>
            <DistanceMeters>NAN</DistanceMeters>
          </Trackpoint>
          <Trackpoint>
            <Time>2022-09-21T07:59:25.000Z</Time>
            <Position>
              <LatitudeDegrees>49.43701383657753467559814453125</LatitudeDegrees>
              <LongitudeDegrees>20.3138606809079647064208984375</LongitudeDegrees>
            </Position>
            <AltitudeMeters>541</AltitudeMeters>
            <DistanceMeters>NAN</DistanceMeters>
          </Trackpoint>
          <Trackpoint>
            <Time>2022-09-21T07:59:31.000Z</Time>
            <Position>
              <LatitudeDegrees>49.43701903335750102996826171875</LatitudeDegrees>
              <LongitudeDegrees>20.31378331594169139862060546875</LongitudeDegrees>
            </Position>
            <AltitudeMeters>541.20001220703125</AltitudeMeters>
            <DistanceMeters>NAN</DistanceMeters>
          </Trackpoint>
          <Trackpoint>
            <Time>2022-09-21T07:59:32.000Z</Time>
            <Position>
              <LatitudeDegrees>49.43701903335750102996826171875</LatitudeDegrees>
              <LongitudeDegrees>20.31378331594169139862060546875</LongitudeDegrees>
            </Position>
            <AltitudeMeters>541.20001220703125</AltitudeMeters>
            <DistanceMeters>NAN</DistanceMeters>
          </Trackpoint>
          <Trackpoint>
            <Time>2022-09-21T07:59:38.000Z</Time>
            <Position>
              <LatitudeDegrees>49.43703445605933666229248046875</LatitudeDegrees>
              <LongitudeDegrees>20.31371475197374820709228515625</LongitudeDegrees>
            </Position>
            <AltitudeMeters>541.20001220703125</AltitudeMeters>
            <DistanceMeters>NAN</DistanceMeters>
          </Trackpoint>
          <Trackpoint>
            <Time>2022-09-21T07:59:39.000Z</Time>
            <Position>
              <LatitudeDegrees>49.43703630007803440093994140625</LatitudeDegrees>
              <LongitudeDegrees>20.3136990778148174285888671875</LongitudeDegrees>
            </Position>
            <AltitudeMeters>541.20001220703125</AltitudeMeters>
            <DistanceMeters>NAN</DistanceMeters>
          </Trackpoint>
          <Trackpoint>
            <Time>2022-09-21T07:59:40.000Z</Time>
            <Position>
              <LatitudeDegrees>49.43703596480190753936767578125</LatitudeDegrees>
              <LongitudeDegrees>20.31368323601782321929931640625</LongitudeDegrees>
            </Position>
            <AltitudeMeters>541.20001220703125</AltitudeMeters>
            <DistanceMeters>NAN</DistanceMeters>
          </Trackpoint>
          <Trackpoint>
            <Time>2022-09-21T07:59:43.000Z</Time>
            <Position>
              <LatitudeDegrees>49.43703881464898586273193359375</LatitudeDegrees>
              <LongitudeDegrees>20.31357544474303722381591796875</LongitudeDegrees>
            </Position>
            <AltitudeMeters>541.20001220703125</AltitudeMeters>
            <DistanceMeters>NAN</DistanceMeters>
          </Trackpoint>
          <Trackpoint>
            <Time>2022-09-21T07:59:44.000Z</Time>
            <Position>
              <LatitudeDegrees>49.43703646771609783172607421875</LatitudeDegrees>
              <LongitudeDegrees>20.31352045945823192596435546875</LongitudeDegrees>
            </Position>
            <AltitudeMeters>541</AltitudeMeters>
            <DistanceMeters>NAN</DistanceMeters>
          </Trackpoint>
          <Trackpoint>
            <Time>2022-09-21T07:59:49.000Z</Time>
            <Position>
              <LatitudeDegrees>49.437039904296398162841796875</LatitudeDegrees>
              <LongitudeDegrees>20.313269756734371185302734375</LongitudeDegrees>
            </Position>
            <AltitudeMeters>540.5999755859375</AltitudeMeters>
            <DistanceMeters>NAN</DistanceMeters>
          </Trackpoint>
          <Trackpoint>
            <Time>2022-09-21T07:59:56.000Z</Time>
            <Position>
              <LatitudeDegrees>49.4370571710169315338134765625</LatitudeDegrees>
              <LongitudeDegrees>20.312962643802165985107421875</LongitudeDegrees>
            </Position>
            <AltitudeMeters>540.5999755859375</AltitudeMeters>
            <DistanceMeters>NAN</DistanceMeters>
          </Trackpoint>
          <Trackpoint>
            <Time>2022-09-21T08:00:04.000Z</Time>
            <Position>
              <LatitudeDegrees>49.43706379272043704986572265625</LatitudeDegrees>
              <LongitudeDegrees>20.3126169741153717041015625</LongitudeDegrees>
            </Position>
            <AltitudeMeters>540.4000244140625</AltitudeMeters>
            <DistanceMeters>NAN</DistanceMeters>
          </Trackpoint>
          <Trackpoint>
            <Time>2022-09-21T08:00:11.000Z</Time>
            <Position>
              <LatitudeDegrees>49.43704350851476192474365234375</LatitudeDegrees>
              <LongitudeDegrees>20.312291085720062255859375</LongitudeDegrees>
            </Position>
            <AltitudeMeters>540.79998779296875</AltitudeMeters>
            <DistanceMeters>NAN</DistanceMeters>
          </Trackpoint>
          <Trackpoint>
            <Time>2022-09-21T08:00:16.000Z</Time>
            <Position>
              <LatitudeDegrees>49.4370373897254467010498046875</LatitudeDegrees>
              <LongitudeDegrees>20.3120912611484527587890625</LongitudeDegrees>
            </Position>
            <AltitudeMeters>541.20001220703125</AltitudeMeters>
            <DistanceMeters>NAN</DistanceMeters>
          </Trackpoint>
          <Trackpoint>
            <Time>2022-09-21T08:00:19.000Z</Time>
            <Position>
              <LatitudeDegrees>49.43703630007803440093994140625</LatitudeDegrees>
              <LongitudeDegrees>20.31195170246064662933349609375</LongitudeDegrees>
            </Position>
            <AltitudeMeters>541.4000244140625</AltitudeMeters>
            <DistanceMeters>NAN</DistanceMeters>
          </Trackpoint>
          <Trackpoint>
            <Time>2022-09-21T08:00:22.000Z</Time>
            <Position>
              <LatitudeDegrees>49.437039904296398162841796875</LatitudeDegrees>
              <LongitudeDegrees>20.31184508465230464935302734375</LongitudeDegrees>
            </Position>
            <AltitudeMeters>541.4000244140625</AltitudeMeters>
            <DistanceMeters>NAN</DistanceMeters>
          </Trackpoint>
          <Trackpoint>
            <Time>2022-09-21T08:00:28.000Z</Time>
            <Position>
              <LatitudeDegrees>49.4370357133448123931884765625</LatitudeDegrees>
              <LongitudeDegrees>20.3116676397621631622314453125</LongitudeDegrees>
            </Position>
            <AltitudeMeters>541.4000244140625</AltitudeMeters>
            <DistanceMeters>NAN</DistanceMeters>
          </Trackpoint>
          <Trackpoint>
            <Time>2022-09-21T08:00:33.000Z</Time>
            <Position>
              <LatitudeDegrees>49.4370343722403049468994140625</LatitudeDegrees>
              <LongitudeDegrees>20.3116111457347869873046875</LongitudeDegrees>
            </Position>
            <AltitudeMeters>541.4000244140625</AltitudeMeters>
            <DistanceMeters>NAN</DistanceMeters>
          </Trackpoint>
          <Trackpoint>
            <Time>2022-09-21T08:00:41.000Z</Time>
            <Position>
              <LatitudeDegrees>49.4370343722403049468994140625</LatitudeDegrees>
              <LongitudeDegrees>20.3116111457347869873046875</LongitudeDegrees>
            </Position>
            <AltitudeMeters>541.4000244140625</AltitudeMeters>
            <DistanceMeters>NAN</DistanceMeters>
          </Trackpoint>
          <Trackpoint>
            <Time>2022-09-21T08:00:50.000Z</Time>
            <Position>
              <LatitudeDegrees>49.43703143857419490814208984375</LatitudeDegrees>
              <LongitudeDegrees>20.3116111457347869873046875</LongitudeDegrees>
            </Position>
            <AltitudeMeters>541.4000244140625</AltitudeMeters>
            <DistanceMeters>NAN</DistanceMeters>
          </Trackpoint>
          <Trackpoint>
            <Time>2022-09-21T08:00:51.000Z</Time>
            <Position>
              <LatitudeDegrees>49.4370226375758647918701171875</LatitudeDegrees>
              <LongitudeDegrees>20.3115938790142536163330078125</LongitudeDegrees>
            </Position>
            <AltitudeMeters>541.4000244140625</AltitudeMeters>
            <DistanceMeters>NAN</DistanceMeters>
          </Trackpoint>
          <Trackpoint>
            <Time>2022-09-21T08:00:56.000Z</Time>
            <Position>
              <LatitudeDegrees>49.4369669817388057708740234375</LatitudeDegrees>
              <LongitudeDegrees>20.3114555776119232177734375</LongitudeDegrees>
            </Position>
            <AltitudeMeters>541.20001220703125</AltitudeMeters>
            <DistanceMeters>NAN</DistanceMeters>
          </Trackpoint>
          <Trackpoint>
            <Time>2022-09-21T08:01:05.000Z</Time>
            <Position>
              <LatitudeDegrees>49.436863549053668975830078125</LatitudeDegrees>
              <LongitudeDegrees>20.31118459068238735198974609375</LongitudeDegrees>
            </Position>
            <AltitudeMeters>541.20001220703125</AltitudeMeters>
            <DistanceMeters>NAN</DistanceMeters>
          </Trackpoint>
          <Trackpoint>
            <Time>2022-09-21T08:01:13.000Z</Time>
            <Position>
              <LatitudeDegrees>49.43677914328873157501220703125</LatitudeDegrees>
              <LongitudeDegrees>20.3108445368707180023193359375</LongitudeDegrees>
            </Position>
            <AltitudeMeters>540.5999755859375</AltitudeMeters>
            <DistanceMeters>NAN</DistanceMeters>
          </Trackpoint>
          <Trackpoint>
            <Time>2022-09-21T08:01:19.000Z</Time>
            <Position>
              <LatitudeDegrees>49.43667721934616565704345703125</LatitudeDegrees>
              <LongitudeDegrees>20.31066776253283023834228515625</LongitudeDegrees>
            </Position>
            <AltitudeMeters>541</AltitudeMeters>
            <DistanceMeters>NAN</DistanceMeters>
          </Trackpoint>
          <Trackpoint>
            <Time>2022-09-21T08:01:23.000Z</Time>
            <Position>
              <LatitudeDegrees>49.43663044832646846771240234375</LatitudeDegrees>
              <LongitudeDegrees>20.31060196459293365478515625</LongitudeDegrees>
            </Position>
            <AltitudeMeters>541</AltitudeMeters>
            <DistanceMeters>NAN</DistanceMeters>
          </Trackpoint>
          <Trackpoint>
            <Time>2022-09-21T08:01:25.000Z</Time>
            <Position>
              <LatitudeDegrees>49.43662583827972412109375</LatitudeDegrees>
              <LongitudeDegrees>20.3106074966490268707275390625</LongitudeDegrees>
            </Position>
            <AltitudeMeters>541</AltitudeMeters>
            <DistanceMeters>NAN</DistanceMeters>
          </Trackpoint>
          <Trackpoint>
            <Time>2022-09-21T08:01:32.000Z</Time>
            <Position>
              <LatitudeDegrees>49.43659700453281402587890625</LatitudeDegrees>
              <LongitudeDegrees>20.31060053966939449310302734375</LongitudeDegrees>
            </Position>
            <AltitudeMeters>540.79998779296875</AltitudeMeters>
            <DistanceMeters>NAN</DistanceMeters>
          </Trackpoint>
          <Trackpoint>
            <Time>2022-09-21T08:01:33.000Z</Time>
            <Position>
              <LatitudeDegrees>49.43658904172480106353759765625</LatitudeDegrees>
              <LongitudeDegrees>20.31059785746037960052490234375</LongitudeDegrees>
            </Position>
            <AltitudeMeters>540.79998779296875</AltitudeMeters>
            <DistanceMeters>NAN</DistanceMeters>
          </Trackpoint>
          <Trackpoint>
            <Time>2022-09-21T08:01:38.000Z</Time>
            <Position>
              <LatitudeDegrees>49.4365552626550197601318359375</LatitudeDegrees>
              <LongitudeDegrees>20.31061562709510326385498046875</LongitudeDegrees>
            </Position>
            <AltitudeMeters>540.4000244140625</AltitudeMeters>
            <DistanceMeters>NAN</DistanceMeters>
          </Trackpoint>
          <Trackpoint>
            <Time>2022-09-21T08:01:39.000Z</Time>
            <Position>
              <LatitudeDegrees>49.43654713220894336700439453125</LatitudeDegrees>
              <LongitudeDegrees>20.31061294488608837127685546875</LongitudeDegrees>
            </Position>
            <AltitudeMeters>540.20001220703125</AltitudeMeters>
            <DistanceMeters>NAN</DistanceMeters>
          </Trackpoint>
          <Trackpoint>
            <Time>2022-09-21T08:01:44.000Z</Time>
            <Position>
              <LatitudeDegrees>49.43650270812213420867919921875</LatitudeDegrees>
              <LongitudeDegrees>20.31058779917657375335693359375</LongitudeDegrees>
            </Position>
            <AltitudeMeters>539.4000244140625</AltitudeMeters>
            <DistanceMeters>NAN</DistanceMeters>
          </Trackpoint>
          <Trackpoint>
            <Time>2022-09-21T08:01:47.000Z</Time>
            <Position>
              <LatitudeDegrees>49.43648326210677623748779296875</LatitudeDegrees>
              <LongitudeDegrees>20.31056173145771026611328125</LongitudeDegrees>
            </Position>
            <AltitudeMeters>539.20001220703125</AltitudeMeters>
            <DistanceMeters>NAN</DistanceMeters>
          </Trackpoint>
          <Trackpoint>
            <Time>2022-09-21T08:01:53.000Z</Time>
            <Position>
              <LatitudeDegrees>49.4364528357982635498046875</LatitudeDegrees>
              <LongitudeDegrees>20.31051370315253734588623046875</LongitudeDegrees>
            </Position>
            <AltitudeMeters>538.5999755859375</AltitudeMeters>
            <DistanceMeters>NAN</DistanceMeters>
          </Trackpoint>
          <Trackpoint>
            <Time>2022-09-21T08:01:56.000Z</Time>
            <Position>
              <LatitudeDegrees>49.43645057268440723419189453125</LatitudeDegrees>
              <LongitudeDegrees>20.31051001511514186859130859375</LongitudeDegrees>
            </Position>
            <AltitudeMeters>538.20001220703125</AltitudeMeters>
            <DistanceMeters>NAN</DistanceMeters>
          </Trackpoint>
          <Trackpoint>
            <Time>2022-09-21T08:02:04.000Z</Time>
            <Position>
              <LatitudeDegrees>49.4364157877862453460693359375</LatitudeDegrees>
              <LongitudeDegrees>20.31047631986439228057861328125</LongitudeDegrees>
            </Position>
            <AltitudeMeters>537.4000244140625</AltitudeMeters>
            <DistanceMeters>NAN</DistanceMeters>
          </Trackpoint>
          <Trackpoint>
            <Time>2022-09-21T08:02:16.000Z</Time>
            <Position>
              <LatitudeDegrees>49.4364157877862453460693359375</LatitudeDegrees>
              <LongitudeDegrees>20.31047631986439228057861328125</LongitudeDegrees>
            </Position>
            <AltitudeMeters>537.20001220703125</AltitudeMeters>
            <DistanceMeters>NAN</DistanceMeters>
          </Trackpoint>
          <Trackpoint>
            <Time>2022-09-21T08:02:19.000Z</Time>
            <Position>
              <LatitudeDegrees>49.4364157877862453460693359375</LatitudeDegrees>
              <LongitudeDegrees>20.31047631986439228057861328125</LongitudeDegrees>
            </Position>
            <AltitudeMeters>537.20001220703125</AltitudeMeters>
            <DistanceMeters>NAN</DistanceMeters>
          </Trackpoint>
          <Trackpoint>
            <Time>2022-09-21T08:02:20.000Z</Time>
            <Position>
              <LatitudeDegrees>49.4364157877862453460693359375</LatitudeDegrees>
              <LongitudeDegrees>20.31047631986439228057861328125</LongitudeDegrees>
            </Position>
            <AltitudeMeters>537.20001220703125</AltitudeMeters>
            <DistanceMeters>NAN</DistanceMeters>
          </Trackpoint>
          <Trackpoint>
            <Time>2022-09-21T08:02:21.000Z</Time>
            <Position>
              <LatitudeDegrees>49.4364157877862453460693359375</LatitudeDegrees>
              <LongitudeDegrees>20.31047631986439228057861328125</LongitudeDegrees>
            </Position>
            <AltitudeMeters>537.20001220703125</AltitudeMeters>
            <DistanceMeters>NAN</DistanceMeters>
          </Trackpoint>
          <Trackpoint>
            <Time>2022-09-21T08:02:25.000Z</Time>
            <Position>
              <LatitudeDegrees>49.43641419522464275360107421875</LatitudeDegrees>
              <LongitudeDegrees>20.31047732569277286529541015625</LongitudeDegrees>
            </Position>
            <AltitudeMeters>537.20001220703125</AltitudeMeters>
            <DistanceMeters>NAN</DistanceMeters>
          </Trackpoint>
          <Trackpoint>
            <Time>2022-09-21T08:02:27.000Z</Time>
            <Position>
              <LatitudeDegrees>49.43639424629509449005126953125</LatitudeDegrees>
              <LongitudeDegrees>20.31048662960529327392578125</LongitudeDegrees>
            </Position>
            <AltitudeMeters>537.20001220703125</AltitudeMeters>
            <DistanceMeters>NAN</DistanceMeters>
          </Trackpoint>
          <Trackpoint>
            <Time>2022-09-21T08:02:30.000Z</Time>
            <Position>
              <LatitudeDegrees>49.43637379445135593414306640625</LatitudeDegrees>
              <LongitudeDegrees>20.310505069792270660400390625</LongitudeDegrees>
            </Position>
            <AltitudeMeters>537.4000244140625</AltitudeMeters>
            <DistanceMeters>NAN</DistanceMeters>
          </Trackpoint>
          <Trackpoint>
            <Time>2022-09-21T08:02:36.000Z</Time>
            <Position>
              <LatitudeDegrees>49.43637379445135593414306640625</LatitudeDegrees>
              <LongitudeDegrees>20.310505069792270660400390625</LongitudeDegrees>
            </Position>
            <AltitudeMeters>537.20001220703125</AltitudeMeters>
            <DistanceMeters>NAN</DistanceMeters>
          </Trackpoint>
          <Trackpoint>
            <Time>2022-09-21T08:02:41.000Z</Time>
            <Position>
              <LatitudeDegrees>49.43637379445135593414306640625</LatitudeDegrees>
              <LongitudeDegrees>20.310505069792270660400390625</LongitudeDegrees>
            </Position>
            <AltitudeMeters>537</AltitudeMeters>
            <DistanceMeters>NAN</DistanceMeters>
          </Trackpoint>
          <Trackpoint>
            <Time>2022-09-21T08:02:48.000Z</Time>
            <Position>
              <LatitudeDegrees>49.43637060932815074920654296875</LatitudeDegrees>
              <LongitudeDegrees>20.31050649471580982208251953125</LongitudeDegrees>
            </Position>
            <AltitudeMeters>537</AltitudeMeters>
            <DistanceMeters>NAN</DistanceMeters>
          </Trackpoint>
          <Trackpoint>
            <Time>2022-09-21T08:03:10.000Z</Time>
            <Position>
              <LatitudeDegrees>49.4363517500460147857666015625</LatitudeDegrees>
              <LongitudeDegrees>20.3105300478637218475341796875</LongitudeDegrees>
            </Position>
            <AltitudeMeters>536.4000244140625</AltitudeMeters>
            <DistanceMeters>NAN</DistanceMeters>
          </Trackpoint>
          <Trackpoint>
            <Time>2022-09-21T08:03:12.000Z</Time>
            <Position>
              <LatitudeDegrees>49.4363517500460147857666015625</LatitudeDegrees>
              <LongitudeDegrees>20.3105300478637218475341796875</LongitudeDegrees>
            </Position>
            <AltitudeMeters>536.20001220703125</AltitudeMeters>
            <DistanceMeters>NAN</DistanceMeters>
          </Trackpoint>
          <Trackpoint>
            <Time>2022-09-21T08:03:13.000Z</Time>
            <Position>
              <LatitudeDegrees>49.4363517500460147857666015625</LatitudeDegrees>
              <LongitudeDegrees>20.3105300478637218475341796875</LongitudeDegrees>
            </Position>
            <AltitudeMeters>536</AltitudeMeters>
            <DistanceMeters>NAN</DistanceMeters>
          </Trackpoint>
          <Trackpoint>
            <Time>2022-09-21T08:03:19.000Z</Time>
            <Position>
              <LatitudeDegrees>49.4363504089415073394775390625</LatitudeDegrees>
              <LongitudeDegrees>20.3105303831398487091064453125</LongitudeDegrees>
            </Position>
            <AltitudeMeters>535.79998779296875</AltitudeMeters>
            <DistanceMeters>NAN</DistanceMeters>
          </Trackpoint>
          <Trackpoint>
            <Time>2022-09-21T08:03:23.000Z</Time>
            <Position>
              <LatitudeDegrees>49.4363504089415073394775390625</LatitudeDegrees>
              <LongitudeDegrees>20.3105303831398487091064453125</LongitudeDegrees>
            </Position>
            <AltitudeMeters>535.5999755859375</AltitudeMeters>
            <DistanceMeters>NAN</DistanceMeters>
          </Trackpoint>
          <Trackpoint>
            <Time>2022-09-21T08:03:28.000Z</Time>
            <Position>
              <LatitudeDegrees>49.4363386742770671844482421875</LatitudeDegrees>
              <LongitudeDegrees>20.310530550777912139892578125</LongitudeDegrees>
            </Position>
            <AltitudeMeters>535.5999755859375</AltitudeMeters>
            <DistanceMeters>NAN</DistanceMeters>
          </Trackpoint>
          <Trackpoint>
            <Time>2022-09-21T08:03:34.000Z</Time>
            <Position>
              <LatitudeDegrees>49.4363393448293209075927734375</LatitudeDegrees>
              <LongitudeDegrees>20.31053482554852962493896484375</LongitudeDegrees>
            </Position>
            <AltitudeMeters>535.5999755859375</AltitudeMeters>
            <DistanceMeters>NAN</DistanceMeters>
          </Trackpoint>
          <Trackpoint>
            <Time>2022-09-21T08:03:37.000Z</Time>
            <Position>
              <LatitudeDegrees>49.43634227849543094635009765625</LatitudeDegrees>
              <LongitudeDegrees>20.31054295599460601806640625</LongitudeDegrees>
            </Position>
            <AltitudeMeters>535.5999755859375</AltitudeMeters>
            <DistanceMeters>NAN</DistanceMeters>
          </Trackpoint>
          <Trackpoint>
            <Time>2022-09-21T08:03:44.000Z</Time>
            <Position>
              <LatitudeDegrees>49.43634227849543094635009765625</LatitudeDegrees>
              <LongitudeDegrees>20.31054295599460601806640625</LongitudeDegrees>
            </Position>
            <AltitudeMeters>535.5999755859375</AltitudeMeters>
            <DistanceMeters>NAN</DistanceMeters>
          </Trackpoint>
          <Trackpoint>
            <Time>2022-09-21T08:03:48.000Z</Time>
            <Position>
              <LatitudeDegrees>49.43634227849543094635009765625</LatitudeDegrees>
              <LongitudeDegrees>20.31054295599460601806640625</LongitudeDegrees>
            </Position>
            <AltitudeMeters>535.5999755859375</AltitudeMeters>
            <DistanceMeters>NAN</DistanceMeters>
          </Trackpoint>
          <Trackpoint>
            <Time>2022-09-21T08:03:54.000Z</Time>
            <Position>
              <LatitudeDegrees>49.43634764291346073150634765625</LatitudeDegrees>
              <LongitudeDegrees>20.3105541877448558807373046875</LongitudeDegrees>
            </Position>
            <AltitudeMeters>535.79998779296875</AltitudeMeters>
            <DistanceMeters>NAN</DistanceMeters>
          </Trackpoint>
          <Trackpoint>
            <Time>2022-09-21T08:04:10.000Z</Time>
            <Position>
              <LatitudeDegrees>49.4363443739712238311767578125</LatitudeDegrees>
              <LongitudeDegrees>20.310553349554538726806640625</LongitudeDegrees>
            </Position>
            <AltitudeMeters>535.5999755859375</AltitudeMeters>
            <DistanceMeters>NAN</DistanceMeters>
          </Trackpoint>
          <Trackpoint>
            <Time>2022-09-21T08:04:12.000Z</Time>
            <Position>
              <LatitudeDegrees>49.4363443739712238311767578125</LatitudeDegrees>
              <LongitudeDegrees>20.310553349554538726806640625</LongitudeDegrees>
            </Position>
            <AltitudeMeters>535.5999755859375</AltitudeMeters>
            <DistanceMeters>NAN</DistanceMeters>
          </Trackpoint>
          <Trackpoint>
            <Time>2022-09-21T08:04:22.000Z</Time>
            <Position>
              <LatitudeDegrees>49.4363443739712238311767578125</LatitudeDegrees>
              <LongitudeDegrees>20.31055259518325328826904296875</LongitudeDegrees>
            </Position>
            <AltitudeMeters>535.5999755859375</AltitudeMeters>
            <DistanceMeters>NAN</DistanceMeters>
          </Trackpoint>
          <Trackpoint>
            <Time>2022-09-21T08:04:38.000Z</Time>
            <Position>
              <LatitudeDegrees>49.43634194321930408477783203125</LatitudeDegrees>
              <LongitudeDegrees>20.31055427156388759613037109375</LongitudeDegrees>
            </Position>
            <AltitudeMeters>535.5999755859375</AltitudeMeters>
            <DistanceMeters>NAN</DistanceMeters>
          </Trackpoint>
          <Trackpoint>
            <Time>2022-09-21T08:04:46.000Z</Time>
            <Position>
              <LatitudeDegrees>49.4363413564860820770263671875</LatitudeDegrees>
              <LongitudeDegrees>20.310553349554538726806640625</LongitudeDegrees>
            </Position>
            <AltitudeMeters>535.4000244140625</AltitudeMeters>
            <DistanceMeters>NAN</DistanceMeters>
          </Trackpoint>
          <Trackpoint>
            <Time>2022-09-21T08:04:50.000Z</Time>
            <Position>
              <LatitudeDegrees>49.436341188848018646240234375</LatitudeDegrees>
              <LongitudeDegrees>20.3105525113642215728759765625</LongitudeDegrees>
            </Position>
            <AltitudeMeters>535.4000244140625</AltitudeMeters>
            <DistanceMeters>NAN</DistanceMeters>
          </Trackpoint>
          <Trackpoint>
            <Time>2022-09-21T08:04:53.000Z</Time>
            <Position>
              <LatitudeDegrees>49.4363500736653804779052734375</LatitudeDegrees>
              <LongitudeDegrees>20.3105622343719005584716796875</LongitudeDegrees>
            </Position>
            <AltitudeMeters>535.4000244140625</AltitudeMeters>
            <DistanceMeters>NAN</DistanceMeters>
          </Trackpoint>
          <Trackpoint>
            <Time>2022-09-21T08:04:58.000Z</Time>
            <Position>
              <LatitudeDegrees>49.4363547675311565399169921875</LatitudeDegrees>
              <LongitudeDegrees>20.310567431151866912841796875</LongitudeDegrees>
            </Position>
            <AltitudeMeters>535.20001220703125</AltitudeMeters>
            <DistanceMeters>NAN</DistanceMeters>
          </Trackpoint>
          <Trackpoint>
            <Time>2022-09-21T08:05:15.000Z</Time>
            <Position>
              <LatitudeDegrees>49.43635451607406139373779296875</LatitudeDegrees>
              <LongitudeDegrees>20.3105665929615497589111328125</LongitudeDegrees>
            </Position>
            <AltitudeMeters>535.4000244140625</AltitudeMeters>
            <DistanceMeters>NAN</DistanceMeters>
          </Trackpoint>
          <Trackpoint>
            <Time>2022-09-21T08:05:27.000Z</Time>
            <Position>
              <LatitudeDegrees>49.4363527558743953704833984375</LatitudeDegrees>
              <LongitudeDegrees>20.31055980361998081207275390625</LongitudeDegrees>
            </Position>
            <AltitudeMeters>535.4000244140625</AltitudeMeters>
            <DistanceMeters>NAN</DistanceMeters>
          </Trackpoint>
          <Trackpoint>
            <Time>2022-09-21T08:06:07.000Z</Time>
            <Position>
              <LatitudeDegrees>49.43635988049209117889404296875</LatitudeDegrees>
              <LongitudeDegrees>20.31056567095220088958740234375</LongitudeDegrees>
            </Position>
            <AltitudeMeters>535.4000244140625</AltitudeMeters>
            <DistanceMeters>NAN</DistanceMeters>
          </Trackpoint>
          <Trackpoint>
            <Time>2022-09-21T08:06:15.000Z</Time>
            <Position>
              <LatitudeDegrees>49.4363670051097869873046875</LatitudeDegrees>
              <LongitudeDegrees>20.31057556159794330596923828125</LongitudeDegrees>
            </Position>
            <AltitudeMeters>535.4000244140625</AltitudeMeters>
            <DistanceMeters>NAN</DistanceMeters>
          </Trackpoint>
          <Trackpoint>
            <Time>2022-09-21T08:06:31.000Z</Time>
            <Position>
              <LatitudeDegrees>49.4363670051097869873046875</LatitudeDegrees>
              <LongitudeDegrees>20.31057556159794330596923828125</LongitudeDegrees>
            </Position>
            <AltitudeMeters>535.4000244140625</AltitudeMeters>
            <DistanceMeters>NAN</DistanceMeters>
          </Trackpoint>
          <Trackpoint>
            <Time>2022-09-21T08:07:16.000Z</Time>
            <Position>
              <LatitudeDegrees>49.4363665021955966949462890625</LatitudeDegrees>
              <LongitudeDegrees>20.3105290420353412628173828125</LongitudeDegrees>
            </Position>
            <AltitudeMeters>535.4000244140625</AltitudeMeters>
            <DistanceMeters>NAN</DistanceMeters>
          </Trackpoint>
          <Trackpoint>
            <Time>2022-09-21T08:07:34.000Z</Time>
            <Position>
              <LatitudeDegrees>49.43639860488474369049072265625</LatitudeDegrees>
              <LongitudeDegrees>20.3105220012366771697998046875</LongitudeDegrees>
            </Position>
            <AltitudeMeters>535.4000244140625</AltitudeMeters>
            <DistanceMeters>NAN</DistanceMeters>
          </Trackpoint>
          <Trackpoint>
            <Time>2022-09-21T08:07:44.000Z</Time>
            <Position>
              <LatitudeDegrees>49.43639709614217281341552734375</LatitudeDegrees>
              <LongitudeDegrees>20.3105220012366771697998046875</LongitudeDegrees>
            </Position>
            <AltitudeMeters>535.4000244140625</AltitudeMeters>
            <DistanceMeters>NAN</DistanceMeters>
          </Trackpoint>
          <Trackpoint>
            <Time>2022-09-21T08:07:48.000Z</Time>
            <Position>
              <LatitudeDegrees>49.43639793433248996734619140625</LatitudeDegrees>
              <LongitudeDegrees>20.3105199895799160003662109375</LongitudeDegrees>
            </Position>
            <AltitudeMeters>535.4000244140625</AltitudeMeters>
            <DistanceMeters>NAN</DistanceMeters>
          </Trackpoint>
          <Trackpoint>
            <Time>2022-09-21T08:07:57.000Z</Time>
            <Position>
              <LatitudeDegrees>49.43640329875051975250244140625</LatitudeDegrees>
              <LongitudeDegrees>20.3105122782289981842041015625</LongitudeDegrees>
            </Position>
            <AltitudeMeters>535.4000244140625</AltitudeMeters>
            <DistanceMeters>NAN</DistanceMeters>
          </Trackpoint>
          <Trackpoint>
            <Time>2022-09-21T08:08:04.000Z</Time>
            <Position>
              <LatitudeDegrees>49.43640329875051975250244140625</LatitudeDegrees>
              <LongitudeDegrees>20.31050196848809719085693359375</LongitudeDegrees>
            </Position>
            <AltitudeMeters>535.5999755859375</AltitudeMeters>
            <DistanceMeters>NAN</DistanceMeters>
          </Trackpoint>
          <Trackpoint>
            <Time>2022-09-21T08:08:07.000Z</Time>
            <Position>
              <LatitudeDegrees>49.43639944307506084442138671875</LatitudeDegrees>
              <LongitudeDegrees>20.310492329299449920654296875</LongitudeDegrees>
            </Position>
            <AltitudeMeters>537.20001220703125</AltitudeMeters>
            <DistanceMeters>NAN</DistanceMeters>
          </Trackpoint>
          <Trackpoint>
            <Time>2022-09-21T08:08:11.000Z</Time>
            <Position>
              <LatitudeDegrees>49.43638636730611324310302734375</LatitudeDegrees>
              <LongitudeDegrees>20.31049191020429134368896484375</LongitudeDegrees>
            </Position>
            <AltitudeMeters>537.20001220703125</AltitudeMeters>
            <DistanceMeters>NAN</DistanceMeters>
          </Trackpoint>
          <Trackpoint>
            <Time>2022-09-21T08:08:12.000Z</Time>
            <Position>
              <LatitudeDegrees>49.43637345917522907257080078125</LatitudeDegrees>
              <LongitudeDegrees>20.31050230376422405242919921875</LongitudeDegrees>
            </Position>
            <AltitudeMeters>537.20001220703125</AltitudeMeters>
            <DistanceMeters>NAN</DistanceMeters>
          </Trackpoint>
          <Trackpoint>
            <Time>2022-09-21T08:08:15.000Z</Time>
            <Position>
              <LatitudeDegrees>49.4363160431385040283203125</LatitudeDegrees>
              <LongitudeDegrees>20.310535915195941925048828125</LongitudeDegrees>
            </Position>
            <AltitudeMeters>535.5999755859375</AltitudeMeters>
            <DistanceMeters>NAN</DistanceMeters>
          </Trackpoint>
          <Trackpoint>
            <Time>2022-09-21T08:08:16.000Z</Time>
            <Position>
              <LatitudeDegrees>49.43631025962531566619873046875</LatitudeDegrees>
              <LongitudeDegrees>20.310531221330165863037109375</LongitudeDegrees>
            </Position>
            <AltitudeMeters>535.5999755859375</AltitudeMeters>
            <DistanceMeters>NAN</DistanceMeters>
          </Trackpoint>
          <Trackpoint>
            <Time>2022-09-21T08:08:21.000Z</Time>
            <Position>
              <LatitudeDegrees>49.43631025962531566619873046875</LatitudeDegrees>
              <LongitudeDegrees>20.310531221330165863037109375</LongitudeDegrees>
            </Position>
            <AltitudeMeters>535.79998779296875</AltitudeMeters>
            <DistanceMeters>NAN</DistanceMeters>
          </Trackpoint>
          <Trackpoint>
            <Time>2022-09-21T08:08:22.000Z</Time>
            <Position>
              <LatitudeDegrees>49.43631025962531566619873046875</LatitudeDegrees>
              <LongitudeDegrees>20.310531221330165863037109375</LongitudeDegrees>
            </Position>
            <AltitudeMeters>535.79998779296875</AltitudeMeters>
            <DistanceMeters>NAN</DistanceMeters>
          </Trackpoint>
          <Trackpoint>
            <Time>2022-09-21T08:08:24.000Z</Time>
            <Position>
              <LatitudeDegrees>49.436310343444347381591796875</LatitudeDegrees>
              <LongitudeDegrees>20.31052527017891407012939453125</LongitudeDegrees>
            </Position>
            <AltitudeMeters>536</AltitudeMeters>
            <DistanceMeters>NAN</DistanceMeters>
          </Trackpoint>
          <Trackpoint>
            <Time>2022-09-21T08:08:26.000Z</Time>
            <Position>
              <LatitudeDegrees>49.43630690686404705047607421875</LatitudeDegrees>
              <LongitudeDegrees>20.31049811281263828277587890625</LongitudeDegrees>
            </Position>
            <AltitudeMeters>535.79998779296875</AltitudeMeters>
            <DistanceMeters>NAN</DistanceMeters>
          </Trackpoint>
          <Trackpoint>
            <Time>2022-09-21T08:08:30.000Z</Time>
            <Position>
              <LatitudeDegrees>49.43630464375019073486328125</LatitudeDegrees>
              <LongitudeDegrees>20.31049911864101886749267578125</LongitudeDegrees>
            </Position>
            <AltitudeMeters>535.79998779296875</AltitudeMeters>
            <DistanceMeters>NAN</DistanceMeters>
          </Trackpoint>
          <Trackpoint>
            <Time>2022-09-21T08:08:34.000Z</Time>
            <Position>
              <LatitudeDegrees>49.43630464375019073486328125</LatitudeDegrees>
              <LongitudeDegrees>20.31049911864101886749267578125</LongitudeDegrees>
            </Position>
            <AltitudeMeters>535.79998779296875</AltitudeMeters>
            <DistanceMeters>NAN</DistanceMeters>
          </Trackpoint>
          <Trackpoint>
            <Time>2022-09-21T08:08:40.000Z</Time>
            <Position>
              <LatitudeDegrees>49.436301626265048980712890625</LatitudeDegrees>
              <LongitudeDegrees>20.31050012446939945220947265625</LongitudeDegrees>
            </Position>
            <AltitudeMeters>535.79998779296875</AltitudeMeters>
            <DistanceMeters>NAN</DistanceMeters>
          </Trackpoint>
          <Trackpoint>
            <Time>2022-09-21T08:08:43.000Z</Time>
            <Position>
              <LatitudeDegrees>49.436301626265048980712890625</LatitudeDegrees>
              <LongitudeDegrees>20.31050012446939945220947265625</LongitudeDegrees>
            </Position>
            <AltitudeMeters>535.79998779296875</AltitudeMeters>
            <DistanceMeters>NAN</DistanceMeters>
          </Trackpoint>
          <Trackpoint>
            <Time>2022-09-21T08:08:46.000Z</Time>
            <Position>
              <LatitudeDegrees>49.436301626265048980712890625</LatitudeDegrees>
              <LongitudeDegrees>20.31050012446939945220947265625</LongitudeDegrees>
            </Position>
            <AltitudeMeters>535.79998779296875</AltitudeMeters>
            <DistanceMeters>NAN</DistanceMeters>
          </Trackpoint>
          <Trackpoint>
            <Time>2022-09-21T08:09:12.000Z</Time>
            <Position>
              <LatitudeDegrees>49.43628394044935703277587890625</LatitudeDegrees>
              <LongitudeDegrees>20.31050674617290496826171875</LongitudeDegrees>
            </Position>
            <AltitudeMeters>535.5999755859375</AltitudeMeters>
            <DistanceMeters>NAN</DistanceMeters>
          </Trackpoint>
          <Trackpoint>
            <Time>2022-09-21T08:09:15.000Z</Time>
            <Position>
              <LatitudeDegrees>49.43628109060227870941162109375</LatitudeDegrees>
              <LongitudeDegrees>20.31051068566739559173583984375</LongitudeDegrees>
            </Position>
            <AltitudeMeters>535.5999755859375</AltitudeMeters>
            <DistanceMeters>NAN</DistanceMeters>
          </Trackpoint>
          <Trackpoint>
            <Time>2022-09-21T08:09:34.000Z</Time>
            <Position>
              <LatitudeDegrees>49.4362811744213104248046875</LatitudeDegrees>
              <LongitudeDegrees>20.3105266951024532318115234375</LongitudeDegrees>
            </Position>
            <AltitudeMeters>535.5999755859375</AltitudeMeters>
            <DistanceMeters>NAN</DistanceMeters>
          </Trackpoint>
          <Trackpoint>
            <Time>2022-09-21T08:09:38.000Z</Time>
            <Position>
              <LatitudeDegrees>49.4362810067832469940185546875</LatitudeDegrees>
              <LongitudeDegrees>20.31053264625370502471923828125</LongitudeDegrees>
            </Position>
            <AltitudeMeters>535.5999755859375</AltitudeMeters>
            <DistanceMeters>NAN</DistanceMeters>
          </Trackpoint>
          <Trackpoint>
            <Time>2022-09-21T08:09:45.000Z</Time>
            <Position>
              <LatitudeDegrees>49.4362810067832469940185546875</LatitudeDegrees>
              <LongitudeDegrees>20.3105384297668933868408203125</LongitudeDegrees>
            </Position>
            <AltitudeMeters>535.5999755859375</AltitudeMeters>
            <DistanceMeters>NAN</DistanceMeters>
          </Trackpoint>
          <Trackpoint>
            <Time>2022-09-21T08:10:28.000Z</Time>
            <Position>
              <LatitudeDegrees>49.4362810067832469940185546875</LatitudeDegrees>
              <LongitudeDegrees>20.3105384297668933868408203125</LongitudeDegrees>
            </Position>
            <AltitudeMeters>535.5999755859375</AltitudeMeters>
            <DistanceMeters>NAN</DistanceMeters>
          </Trackpoint>
          <Trackpoint>
            <Time>2022-09-21T08:10:44.000Z</Time>
            <Position>
              <LatitudeDegrees>49.4362810067832469940185546875</LatitudeDegrees>
              <LongitudeDegrees>20.3105384297668933868408203125</LongitudeDegrees>
            </Position>
            <AltitudeMeters>535.5999755859375</AltitudeMeters>
            <DistanceMeters>NAN</DistanceMeters>
          </Trackpoint>
          <Trackpoint>
            <Time>2022-09-21T08:10:54.000Z</Time>
            <Position>
              <LatitudeDegrees>49.4362810067832469940185546875</LatitudeDegrees>
              <LongitudeDegrees>20.3105384297668933868408203125</LongitudeDegrees>
            </Position>
            <AltitudeMeters>535.5999755859375</AltitudeMeters>
            <DistanceMeters>NAN</DistanceMeters>
          </Trackpoint>
          <Trackpoint>
            <Time>2022-09-21T08:11:13.000Z</Time>
            <Position>
              <LatitudeDegrees>49.43628880195319652557373046875</LatitudeDegrees>
              <LongitudeDegrees>20.31051672063767910003662109375</LongitudeDegrees>
            </Position>
            <AltitudeMeters>535.5999755859375</AltitudeMeters>
            <DistanceMeters>NAN</DistanceMeters>
          </Trackpoint>
          <Trackpoint>
            <Time>2022-09-21T08:11:57.000Z</Time>
            <Position>
              <LatitudeDegrees>49.43628913722932338714599609375</LatitudeDegrees>
              <LongitudeDegrees>20.310501717031002044677734375</LongitudeDegrees>
            </Position>
            <AltitudeMeters>535.5999755859375</AltitudeMeters>
            <DistanceMeters>NAN</DistanceMeters>
          </Trackpoint>
          <Trackpoint>
            <Time>2022-09-21T08:12:11.000Z</Time>
            <Position>
              <LatitudeDegrees>49.4362784922122955322265625</LatitudeDegrees>
              <LongitudeDegrees>20.31050632707774639129638671875</LongitudeDegrees>
            </Position>
            <AltitudeMeters>535.5999755859375</AltitudeMeters>
            <DistanceMeters>NAN</DistanceMeters>
          </Trackpoint>
          <Trackpoint>
            <Time>2022-09-21T08:12:19.000Z</Time>
            <Position>
              <LatitudeDegrees>49.43627807311713695526123046875</LatitudeDegrees>
              <LongitudeDegrees>20.31050632707774639129638671875</LongitudeDegrees>
            </Position>
            <AltitudeMeters>535.5999755859375</AltitudeMeters>
            <DistanceMeters>NAN</DistanceMeters>
          </Trackpoint>
          <Trackpoint>
            <Time>2022-09-21T08:12:20.000Z</Time>
            <Position>
              <LatitudeDegrees>49.43627673201262950897216796875</LatitudeDegrees>
              <LongitudeDegrees>20.31050741672515869140625</LongitudeDegrees>
            </Position>
            <AltitudeMeters>535.5999755859375</AltitudeMeters>
            <DistanceMeters>NAN</DistanceMeters>
          </Trackpoint>
          <Trackpoint>
            <Time>2022-09-21T08:12:23.000Z</Time>
            <Position>
              <LatitudeDegrees>49.43626399151980876922607421875</LatitudeDegrees>
              <LongitudeDegrees>20.3105270303785800933837890625</LongitudeDegrees>
            </Position>
            <AltitudeMeters>535.5999755859375</AltitudeMeters>
            <DistanceMeters>NAN</DistanceMeters>
          </Trackpoint>
          <Trackpoint>
            <Time>2022-09-21T08:12:37.000Z</Time>
            <Position>
              <LatitudeDegrees>49.43625376559793949127197265625</LatitudeDegrees>
              <LongitudeDegrees>20.31054287217557430267333984375</LongitudeDegrees>
            </Position>
            <AltitudeMeters>535.5999755859375</AltitudeMeters>
            <DistanceMeters>NAN</DistanceMeters>
          </Trackpoint>
          <Trackpoint>
            <Time>2022-09-21T08:12:45.000Z</Time>
            <Position>
              <LatitudeDegrees>49.43622593767940998077392578125</LatitudeDegrees>
              <LongitudeDegrees>20.31063280999660491943359375</LongitudeDegrees>
            </Position>
            <AltitudeMeters>535.5999755859375</AltitudeMeters>
            <DistanceMeters>NAN</DistanceMeters>
          </Trackpoint>
          <Trackpoint>
            <Time>2022-09-21T08:12:47.000Z</Time>
            <Position>
              <LatitudeDegrees>49.43620213307440280914306640625</LatitudeDegrees>
              <LongitudeDegrees>20.31067798845469951629638671875</LongitudeDegrees>
            </Position>
            <AltitudeMeters>535.5999755859375</AltitudeMeters>
            <DistanceMeters>NAN</DistanceMeters>
          </Trackpoint>
          <Trackpoint>
            <Time>2022-09-21T08:12:51.000Z</Time>
            <Position>
              <LatitudeDegrees>49.43615351803600788116455078125</LatitudeDegrees>
              <LongitudeDegrees>20.3107178024947643280029296875</LongitudeDegrees>
            </Position>
            <AltitudeMeters>535.4000244140625</AltitudeMeters>
            <DistanceMeters>NAN</DistanceMeters>
          </Trackpoint>
          <Trackpoint>
            <Time>2022-09-21T08:12:53.000Z</Time>
            <Position>
              <LatitudeDegrees>49.43612619303166866302490234375</LatitudeDegrees>
              <LongitudeDegrees>20.310750491917133331298828125</LongitudeDegrees>
            </Position>
            <AltitudeMeters>535.4000244140625</AltitudeMeters>
            <DistanceMeters>NAN</DistanceMeters>
          </Trackpoint>
          <Trackpoint>
            <Time>2022-09-21T08:12:57.000Z</Time>
            <Position>
              <LatitudeDegrees>49.43610473535954952239990234375</LatitudeDegrees>
              <LongitudeDegrees>20.31078410334885120391845703125</LongitudeDegrees>
            </Position>
            <AltitudeMeters>535.4000244140625</AltitudeMeters>
            <DistanceMeters>NAN</DistanceMeters>
          </Trackpoint>
          <Trackpoint>
            <Time>2022-09-21T08:13:00.000Z</Time>
            <Position>
              <LatitudeDegrees>49.43606433458626270294189453125</LatitudeDegrees>
              <LongitudeDegrees>20.31081696040928363800048828125</LongitudeDegrees>
            </Position>
            <AltitudeMeters>535.4000244140625</AltitudeMeters>
            <DistanceMeters>NAN</DistanceMeters>
          </Trackpoint>
          <Trackpoint>
            <Time>2022-09-21T08:13:03.000Z</Time>
            <Position>
              <LatitudeDegrees>49.43602208979427814483642578125</LatitudeDegrees>
              <LongitudeDegrees>20.31082718633115291595458984375</LongitudeDegrees>
            </Position>
            <AltitudeMeters>535.20001220703125</AltitudeMeters>
            <DistanceMeters>NAN</DistanceMeters>
          </Trackpoint>
          <Trackpoint>
            <Time>2022-09-21T08:13:09.000Z</Time>
            <Position>
              <LatitudeDegrees>49.43594212643802165985107421875</LatitudeDegrees>
              <LongitudeDegrees>20.31087814830243587493896484375</LongitudeDegrees>
            </Position>
            <AltitudeMeters>535.20001220703125</AltitudeMeters>
            <DistanceMeters>NAN</DistanceMeters>
          </Trackpoint>
          <Trackpoint>
            <Time>2022-09-21T08:13:17.000Z</Time>
            <Position>
              <LatitudeDegrees>49.43578789941966533660888671875</LatitudeDegrees>
              <LongitudeDegrees>20.3109571896493434906005859375</LongitudeDegrees>
            </Position>
            <AltitudeMeters>535</AltitudeMeters>
            <DistanceMeters>NAN</DistanceMeters>
          </Trackpoint>
          <Trackpoint>
            <Time>2022-09-21T08:13:26.000Z</Time>
            <Position>
              <LatitudeDegrees>49.43561221472918987274169921875</LatitudeDegrees>
              <LongitudeDegrees>20.31102013774216175079345703125</LongitudeDegrees>
            </Position>
            <AltitudeMeters>535</AltitudeMeters>
            <DistanceMeters>NAN</DistanceMeters>
          </Trackpoint>
          <Trackpoint>
            <Time>2022-09-21T08:13:30.000Z</Time>
            <Position>
              <LatitudeDegrees>49.43554147146642208099365234375</LatitudeDegrees>
              <LongitudeDegrees>20.3110597841441631317138671875</LongitudeDegrees>
            </Position>
            <AltitudeMeters>535</AltitudeMeters>
            <DistanceMeters>NAN</DistanceMeters>
          </Trackpoint>
          <Trackpoint>
            <Time>2022-09-21T08:13:31.000Z</Time>
            <Position>
              <LatitudeDegrees>49.43552755750715732574462890625</LatitudeDegrees>
              <LongitudeDegrees>20.311069004237651824951171875</LongitudeDegrees>
            </Position>
            <AltitudeMeters>535</AltitudeMeters>
            <DistanceMeters>NAN</DistanceMeters>
          </Trackpoint>
          <Trackpoint>
            <Time>2022-09-21T08:13:33.000Z</Time>
            <Position>
              <LatitudeDegrees>49.43548883311450481414794921875</LatitudeDegrees>
              <LongitudeDegrees>20.31107939779758453369140625</LongitudeDegrees>
            </Position>
            <AltitudeMeters>535</AltitudeMeters>
            <DistanceMeters>NAN</DistanceMeters>
          </Trackpoint>
          <Trackpoint>
            <Time>2022-09-21T08:13:37.000Z</Time>
            <Position>
              <LatitudeDegrees>49.43541825748980045318603515625</LatitudeDegrees>
              <LongitudeDegrees>20.31110211275517940521240234375</LongitudeDegrees>
            </Position>
            <AltitudeMeters>535.20001220703125</AltitudeMeters>
            <DistanceMeters>NAN</DistanceMeters>
          </Trackpoint>
          <Trackpoint>
            <Time>2022-09-21T08:13:38.000Z</Time>
            <Position>
              <LatitudeDegrees>49.43540551699697971343994140625</LatitudeDegrees>
              <LongitudeDegrees>20.3111016936600208282470703125</LongitudeDegrees>
            </Position>
            <AltitudeMeters>535.20001220703125</AltitudeMeters>
            <DistanceMeters>NAN</DistanceMeters>
          </Trackpoint>
          <Trackpoint>
            <Time>2022-09-21T08:13:44.000Z</Time>
            <Position>
              <LatitudeDegrees>49.43529990501701831817626953125</LatitudeDegrees>
              <LongitudeDegrees>20.31109725125133991241455078125</LongitudeDegrees>
            </Position>
            <AltitudeMeters>535.4000244140625</AltitudeMeters>
            <DistanceMeters>NAN</DistanceMeters>
          </Trackpoint>
          <Trackpoint>
            <Time>2022-09-21T08:13:50.000Z</Time>
            <Position>
              <LatitudeDegrees>49.43519764579832553863525390625</LatitudeDegrees>
              <LongitudeDegrees>20.31109607778489589691162109375</LongitudeDegrees>
            </Position>
            <AltitudeMeters>535.20001220703125</AltitudeMeters>
            <DistanceMeters>NAN</DistanceMeters>
          </Trackpoint>
          <Trackpoint>
            <Time>2022-09-21T08:13:55.000Z</Time>
            <Position>
              <LatitudeDegrees>49.43508733995258808135986328125</LatitudeDegrees>
              <LongitudeDegrees>20.3110933117568492889404296875</LongitudeDegrees>
            </Position>
            <AltitudeMeters>535.20001220703125</AltitudeMeters>
            <DistanceMeters>NAN</DistanceMeters>
          </Trackpoint>
          <Trackpoint>
            <Time>2022-09-21T08:13:56.000Z</Time>
            <Position>
              <LatitudeDegrees>49.4350616075098514556884765625</LatitudeDegrees>
              <LongitudeDegrees>20.3110859356820583343505859375</LongitudeDegrees>
            </Position>
            <AltitudeMeters>535.20001220703125</AltitudeMeters>
            <DistanceMeters>NAN</DistanceMeters>
          </Trackpoint>
          <Trackpoint>
            <Time>2022-09-21T08:14:01.000Z</Time>
            <Position>
              <LatitudeDegrees>49.4349553249776363372802734375</LatitudeDegrees>
              <LongitudeDegrees>20.31106959097087383270263671875</LongitudeDegrees>
            </Position>
            <AltitudeMeters>535</AltitudeMeters>
            <DistanceMeters>NAN</DistanceMeters>
          </Trackpoint>
          <Trackpoint>
            <Time>2022-09-21T08:14:03.000Z</Time>
            <Position>
              <LatitudeDegrees>49.4348837435245513916015625</LatitudeDegrees>
              <LongitudeDegrees>20.31107797287404537200927734375</LongitudeDegrees>
            </Position>
            <AltitudeMeters>535</AltitudeMeters>
            <DistanceMeters>NAN</DistanceMeters>
          </Trackpoint>
          <Trackpoint>
            <Time>2022-09-21T08:14:05.000Z</Time>
            <Position>
              <LatitudeDegrees>49.43482783623039722442626953125</LatitudeDegrees>
              <LongitudeDegrees>20.31107327900826930999755859375</LongitudeDegrees>
            </Position>
            <AltitudeMeters>535</AltitudeMeters>
            <DistanceMeters>NAN</DistanceMeters>
          </Trackpoint>
          <Trackpoint>
            <Time>2022-09-21T08:14:06.000Z</Time>
            <Position>
              <LatitudeDegrees>49.434825740754604339599609375</LatitudeDegrees>
              <LongitudeDegrees>20.3110799007117748260498046875</LongitudeDegrees>
            </Position>
            <AltitudeMeters>535</AltitudeMeters>
            <DistanceMeters>NAN</DistanceMeters>
          </Trackpoint>
          <Trackpoint>
            <Time>2022-09-21T08:14:08.000Z</Time>
            <Position>
              <LatitudeDegrees>49.4348078034818172454833984375</LatitudeDegrees>
              <LongitudeDegrees>20.3110752068459987640380859375</LongitudeDegrees>
            </Position>
            <AltitudeMeters>534.79998779296875</AltitudeMeters>
            <DistanceMeters>NAN</DistanceMeters>
          </Trackpoint>
          <Trackpoint>
            <Time>2022-09-21T08:14:09.000Z</Time>
            <Position>
              <LatitudeDegrees>49.43479053676128387451171875</LatitudeDegrees>
              <LongitudeDegrees>20.31107109971344470977783203125</LongitudeDegrees>
            </Position>
            <AltitudeMeters>534.79998779296875</AltitudeMeters>
            <DistanceMeters>NAN</DistanceMeters>
          </Trackpoint>
          <Trackpoint>
            <Time>2022-09-21T08:14:12.000Z</Time>
            <Position>
              <LatitudeDegrees>49.4347377307713031768798828125</LatitudeDegrees>
              <LongitudeDegrees>20.311087109148502349853515625</LongitudeDegrees>
            </Position>
            <AltitudeMeters>535</AltitudeMeters>
            <DistanceMeters>NAN</DistanceMeters>
          </Trackpoint>
          <Trackpoint>
            <Time>2022-09-21T08:14:13.000Z</Time>
            <Position>
              <LatitudeDegrees>49.43472306244075298309326171875</LatitudeDegrees>
              <LongitudeDegrees>20.31109741888940334320068359375</LongitudeDegrees>
            </Position>
            <AltitudeMeters>535</AltitudeMeters>
            <DistanceMeters>NAN</DistanceMeters>
          </Trackpoint>
          <Trackpoint>
            <Time>2022-09-21T08:14:16.000Z</Time>
            <Position>
              <LatitudeDegrees>49.434675872325897216796875</LatitudeDegrees>
              <LongitudeDegrees>20.31110177747905254364013671875</LongitudeDegrees>
            </Position>
            <AltitudeMeters>535</AltitudeMeters>
            <DistanceMeters>NAN</DistanceMeters>
          </Trackpoint>
          <Trackpoint>
            <Time>2022-09-21T08:14:18.000Z</Time>
            <Position>
              <LatitudeDegrees>49.43464661948382854461669921875</LatitudeDegrees>
              <LongitudeDegrees>20.3111151047050952911376953125</LongitudeDegrees>
            </Position>
            <AltitudeMeters>535</AltitudeMeters>
            <DistanceMeters>NAN</DistanceMeters>
          </Trackpoint>
          <Trackpoint>
            <Time>2022-09-21T08:14:19.000Z</Time>
            <Position>
              <LatitudeDegrees>49.434627257287502288818359375</LatitudeDegrees>
              <LongitudeDegrees>20.31111585907638072967529296875</LongitudeDegrees>
            </Position>
            <AltitudeMeters>535</AltitudeMeters>
            <DistanceMeters>NAN</DistanceMeters>
          </Trackpoint>
          <Trackpoint>
            <Time>2022-09-21T08:14:25.000Z</Time>
            <Position>
              <LatitudeDegrees>49.43448074162006378173828125</LatitudeDegrees>
              <LongitudeDegrees>20.311101190745830535888671875</LongitudeDegrees>
            </Position>
            <AltitudeMeters>535.20001220703125</AltitudeMeters>
            <DistanceMeters>NAN</DistanceMeters>
          </Trackpoint>
          <Trackpoint>
            <Time>2022-09-21T08:14:27.000Z</Time>
            <Position>
              <LatitudeDegrees>49.43441041745245456695556640625</LatitudeDegrees>
              <LongitudeDegrees>20.31110362149775028228759765625</LongitudeDegrees>
            </Position>
            <AltitudeMeters>535.20001220703125</AltitudeMeters>
            <DistanceMeters>NAN</DistanceMeters>
          </Trackpoint>
          <Trackpoint>
            <Time>2022-09-21T08:14:29.000Z</Time>
            <Position>
              <LatitudeDegrees>49.43434118293225765228271484375</LatitudeDegrees>
              <LongitudeDegrees>20.31109490431845188140869140625</LongitudeDegrees>
            </Position>
            <AltitudeMeters>535.20001220703125</AltitudeMeters>
            <DistanceMeters>NAN</DistanceMeters>
          </Trackpoint>
          <Trackpoint>
            <Time>2022-09-21T08:14:33.000Z</Time>
            <Position>
              <LatitudeDegrees>49.43425141274929046630859375</LatitudeDegrees>
              <LongitudeDegrees>20.3110902942717075347900390625</LongitudeDegrees>
            </Position>
            <AltitudeMeters>535.20001220703125</AltitudeMeters>
            <DistanceMeters>NAN</DistanceMeters>
          </Trackpoint>
          <Trackpoint>
            <Time>2022-09-21T08:14:34.000Z</Time>
            <Position>
              <LatitudeDegrees>49.4342401809990406036376953125</LatitudeDegrees>
              <LongitudeDegrees>20.311084426939487457275390625</LongitudeDegrees>
            </Position>
            <AltitudeMeters>535.4000244140625</AltitudeMeters>
            <DistanceMeters>NAN</DistanceMeters>
          </Trackpoint>
          <Trackpoint>
            <Time>2022-09-21T08:14:38.000Z</Time>
            <Position>
              <LatitudeDegrees>49.43420506082475185394287109375</LatitudeDegrees>
              <LongitudeDegrees>20.31110496260225772857666015625</LongitudeDegrees>
            </Position>
            <AltitudeMeters>535.5999755859375</AltitudeMeters>
            <DistanceMeters>NAN</DistanceMeters>
          </Trackpoint>
          <Trackpoint>
            <Time>2022-09-21T08:14:39.000Z</Time>
            <Position>
              <LatitudeDegrees>49.434179998934268951416015625</LatitudeDegrees>
              <LongitudeDegrees>20.3111419267952442169189453125</LongitudeDegrees>
            </Position>
            <AltitudeMeters>535.5999755859375</AltitudeMeters>
            <DistanceMeters>NAN</DistanceMeters>
          </Trackpoint>
          <Trackpoint>
            <Time>2022-09-21T08:14:41.000Z</Time>
            <Position>
              <LatitudeDegrees>49.43412593565881252288818359375</LatitudeDegrees>
              <LongitudeDegrees>20.311152823269367218017578125</LongitudeDegrees>
            </Position>
            <AltitudeMeters>535.5999755859375</AltitudeMeters>
            <DistanceMeters>NAN</DistanceMeters>
          </Trackpoint>
          <Trackpoint>
            <Time>2022-09-21T08:14:44.000Z</Time>
            <Position>
              <LatitudeDegrees>49.43406365811824798583984375</LatitudeDegrees>
              <LongitudeDegrees>20.3111476264894008636474609375</LongitudeDegrees>
            </Position>
            <AltitudeMeters>535.5999755859375</AltitudeMeters>
            <DistanceMeters>NAN</DistanceMeters>
          </Trackpoint>
          <Trackpoint>
            <Time>2022-09-21T08:14:49.000Z</Time>
            <Position>
              <LatitudeDegrees>49.4339598901569843292236328125</LatitudeDegrees>
              <LongitudeDegrees>20.3112337924540042877197265625</LongitudeDegrees>
            </Position>
            <AltitudeMeters>535.4000244140625</AltitudeMeters>
            <DistanceMeters>NAN</DistanceMeters>
          </Trackpoint>
          <Trackpoint>
            <Time>2022-09-21T08:14:53.000Z</Time>
            <Position>
              <LatitudeDegrees>49.43386475555598735809326171875</LatitudeDegrees>
              <LongitudeDegrees>20.31130160205066204071044921875</LongitudeDegrees>
            </Position>
            <AltitudeMeters>535.4000244140625</AltitudeMeters>
            <DistanceMeters>NAN</DistanceMeters>
          </Trackpoint>
          <Trackpoint>
            <Time>2022-09-21T08:14:55.000Z</Time>
            <Position>
              <LatitudeDegrees>49.43382896482944488525390625</LatitudeDegrees>
              <LongitudeDegrees>20.31133026815950870513916015625</LongitudeDegrees>
            </Position>
            <AltitudeMeters>535.20001220703125</AltitudeMeters>
            <DistanceMeters>NAN</DistanceMeters>
          </Trackpoint>
          <Trackpoint>
            <Time>2022-09-21T08:14:57.000Z</Time>
            <Position>
              <LatitudeDegrees>49.43380172364413738250732421875</LatitudeDegrees>
              <LongitudeDegrees>20.311349965631961822509765625</LongitudeDegrees>
            </Position>
            <AltitudeMeters>535.4000244140625</AltitudeMeters>
            <DistanceMeters>NAN</DistanceMeters>
          </Trackpoint>
          <Trackpoint>
            <Time>2022-09-21T08:15:06.000Z</Time>
            <Position>
              <LatitudeDegrees>49.43363425321877002716064453125</LatitudeDegrees>
              <LongitudeDegrees>20.3114641271531581878662109375</LongitudeDegrees>
            </Position>
            <AltitudeMeters>535.5999755859375</AltitudeMeters>
            <DistanceMeters>NAN</DistanceMeters>
          </Trackpoint>
          <Trackpoint>
            <Time>2022-09-21T08:15:16.000Z</Time>
            <Position>
              <LatitudeDegrees>49.43343359045684337615966796875</LatitudeDegrees>
              <LongitudeDegrees>20.31161525286734104156494140625</LongitudeDegrees>
            </Position>
            <AltitudeMeters>535.5999755859375</AltitudeMeters>
            <DistanceMeters>NAN</DistanceMeters>
          </Trackpoint>
          <Trackpoint>
            <Time>2022-09-21T08:15:17.000Z</Time>
            <Position>
              <LatitudeDegrees>49.43341196514666080474853515625</LatitudeDegrees>
              <LongitudeDegrees>20.31163335777819156646728515625</LongitudeDegrees>
            </Position>
            <AltitudeMeters>535.5999755859375</AltitudeMeters>
            <DistanceMeters>NAN</DistanceMeters>
          </Trackpoint>
          <Trackpoint>
            <Time>2022-09-21T08:15:26.000Z</Time>
            <Position>
              <LatitudeDegrees>49.43321079947054386138916015625</LatitudeDegrees>
              <LongitudeDegrees>20.31175808049738407135009765625</LongitudeDegrees>
            </Position>
            <AltitudeMeters>535.79998779296875</AltitudeMeters>
            <DistanceMeters>NAN</DistanceMeters>
          </Trackpoint>
          <Trackpoint>
            <Time>2022-09-21T08:15:34.000Z</Time>
            <Position>
              <LatitudeDegrees>49.43307903595268726348876953125</LatitudeDegrees>
              <LongitudeDegrees>20.31188414432108402252197265625</LongitudeDegrees>
            </Position>
            <AltitudeMeters>535.5999755859375</AltitudeMeters>
            <DistanceMeters>NAN</DistanceMeters>
          </Trackpoint>
          <Trackpoint>
            <Time>2022-09-21T08:15:38.000Z</Time>
            <Position>
              <LatitudeDegrees>49.43298809230327606201171875</LatitudeDegrees>
              <LongitudeDegrees>20.311954133212566375732421875</LongitudeDegrees>
            </Position>
            <AltitudeMeters>535.5999755859375</AltitudeMeters>
            <DistanceMeters>NAN</DistanceMeters>
          </Trackpoint>
          <Trackpoint>
            <Time>2022-09-21T08:15:39.000Z</Time>
            <Position>
              <LatitudeDegrees>49.43296571262180805206298828125</LatitudeDegrees>
              <LongitudeDegrees>20.31196913681924343109130859375</LongitudeDegrees>
            </Position>
            <AltitudeMeters>535.5999755859375</AltitudeMeters>
            <DistanceMeters>NAN</DistanceMeters>
          </Trackpoint>
          <Trackpoint>
            <Time>2022-09-21T08:15:40.000Z</Time>
            <Position>
              <LatitudeDegrees>49.4329446740448474884033203125</LatitudeDegrees>
              <LongitudeDegrees>20.31198732554912567138671875</LongitudeDegrees>
            </Position>
            <AltitudeMeters>535.79998779296875</AltitudeMeters>
            <DistanceMeters>NAN</DistanceMeters>
          </Trackpoint>
          <Trackpoint>
            <Time>2022-09-21T08:15:50.000Z</Time>
            <Position>
              <LatitudeDegrees>49.43275742232799530029296875</LatitudeDegrees>
              <LongitudeDegrees>20.31212403438985347747802734375</LongitudeDegrees>
            </Position>
            <AltitudeMeters>535.5999755859375</AltitudeMeters>
            <DistanceMeters>NAN</DistanceMeters>
          </Trackpoint>
          <Trackpoint>
            <Time>2022-09-21T08:15:54.000Z</Time>
            <Position>
              <LatitudeDegrees>49.4326798059046268463134765625</LatitudeDegrees>
              <LongitudeDegrees>20.3121705539524555206298828125</LongitudeDegrees>
            </Position>
            <AltitudeMeters>535.79998779296875</AltitudeMeters>
            <DistanceMeters>NAN</DistanceMeters>
          </Trackpoint>
          <Trackpoint>
            <Time>2022-09-21T08:15:59.000Z</Time>
            <Position>
              <LatitudeDegrees>49.432547204196453094482421875</LatitudeDegrees>
              <LongitudeDegrees>20.312247835099697113037109375</LongitudeDegrees>
            </Position>
            <AltitudeMeters>535.79998779296875</AltitudeMeters>
            <DistanceMeters>NAN</DistanceMeters>
          </Trackpoint>
          <Trackpoint>
            <Time>2022-09-21T08:16:03.000Z</Time>
            <Position>
              <LatitudeDegrees>49.43246246315538883209228515625</LatitudeDegrees>
              <LongitudeDegrees>20.312310196459293365478515625</LongitudeDegrees>
            </Position>
            <AltitudeMeters>535.79998779296875</AltitudeMeters>
            <DistanceMeters>NAN</DistanceMeters>
          </Trackpoint>
          <Trackpoint>
            <Time>2022-09-21T08:16:04.000Z</Time>
            <Position>
              <LatitudeDegrees>49.43244636990129947662353515625</LatitudeDegrees>
              <LongitudeDegrees>20.312324948608875274658203125</LongitudeDegrees>
            </Position>
            <AltitudeMeters>536.20001220703125</AltitudeMeters>
            <DistanceMeters>NAN</DistanceMeters>
          </Trackpoint>
          <Trackpoint>
            <Time>2022-09-21T08:16:13.000Z</Time>
            <Position>
              <LatitudeDegrees>49.43229608237743377685546875</LatitudeDegrees>
              <LongitudeDegrees>20.3124394454061985015869140625</LongitudeDegrees>
            </Position>
            <AltitudeMeters>536.20001220703125</AltitudeMeters>
            <DistanceMeters>NAN</DistanceMeters>
          </Trackpoint>
          <Trackpoint>
            <Time>2022-09-21T08:16:20.000Z</Time>
            <Position>
              <LatitudeDegrees>49.4321611337363719940185546875</LatitudeDegrees>
              <LongitudeDegrees>20.3125571273267269134521484375</LongitudeDegrees>
            </Position>
            <AltitudeMeters>535.79998779296875</AltitudeMeters>
            <DistanceMeters>NAN</DistanceMeters>
          </Trackpoint>
          <Trackpoint>
            <Time>2022-09-21T08:16:29.000Z</Time>
            <Position>
              <LatitudeDegrees>49.43201176822185516357421875</LatitudeDegrees>
              <LongitudeDegrees>20.31266483478248119354248046875</LongitudeDegrees>
            </Position>
            <AltitudeMeters>535.5999755859375</AltitudeMeters>
            <DistanceMeters>NAN</DistanceMeters>
          </Trackpoint>
          <Trackpoint>
            <Time>2022-09-21T08:16:34.000Z</Time>
            <Position>
              <LatitudeDegrees>49.43194479681551456451416015625</LatitudeDegrees>
              <LongitudeDegrees>20.31269551254808902740478515625</LongitudeDegrees>
            </Position>
            <AltitudeMeters>535.5999755859375</AltitudeMeters>
            <DistanceMeters>NAN</DistanceMeters>
          </Trackpoint>
          <Trackpoint>
            <Time>2022-09-21T08:16:40.000Z</Time>
            <Position>
              <LatitudeDegrees>49.4318206608295440673828125</LatitudeDegrees>
              <LongitudeDegrees>20.3127913177013397216796875</LongitudeDegrees>
            </Position>
            <AltitudeMeters>535.5999755859375</AltitudeMeters>
            <DistanceMeters>NAN</DistanceMeters>
          </Trackpoint>
          <Trackpoint>
            <Time>2022-09-21T08:16:50.000Z</Time>
            <Position>
              <LatitudeDegrees>49.43161840550601482391357421875</LatitudeDegrees>
              <LongitudeDegrees>20.31293456442654132843017578125</LongitudeDegrees>
            </Position>
            <AltitudeMeters>535.5999755859375</AltitudeMeters>
            <DistanceMeters>NAN</DistanceMeters>
          </Trackpoint>
          <Trackpoint>
            <Time>2022-09-21T08:16:58.000Z</Time>
            <Position>
              <LatitudeDegrees>49.43146568723022937774658203125</LatitudeDegrees>
              <LongitudeDegrees>20.31303875148296356201171875</LongitudeDegrees>
            </Position>
            <AltitudeMeters>535.4000244140625</AltitudeMeters>
            <DistanceMeters>NAN</DistanceMeters>
          </Trackpoint>
          <Trackpoint>
            <Time>2022-09-21T08:17:06.000Z</Time>
            <Position>
              <LatitudeDegrees>49.43130475468933582305908203125</LatitudeDegrees>
              <LongitudeDegrees>20.31314562074840068817138671875</LongitudeDegrees>
            </Position>
            <AltitudeMeters>535.5999755859375</AltitudeMeters>
            <DistanceMeters>NAN</DistanceMeters>
          </Trackpoint>
          <Trackpoint>
            <Time>2022-09-21T08:17:09.000Z</Time>
            <Position>
              <LatitudeDegrees>49.431249015033245086669921875</LatitudeDegrees>
              <LongitudeDegrees>20.3131934814155101776123046875</LongitudeDegrees>
            </Position>
            <AltitudeMeters>535.5999755859375</AltitudeMeters>
            <DistanceMeters>NAN</DistanceMeters>
          </Trackpoint>
          <Trackpoint>
            <Time>2022-09-21T08:17:17.000Z</Time>
            <Position>
              <LatitudeDegrees>49.43108833394944667816162109375</LatitudeDegrees>
              <LongitudeDegrees>20.3133104927837848663330078125</LongitudeDegrees>
            </Position>
            <AltitudeMeters>535.5999755859375</AltitudeMeters>
            <DistanceMeters>NAN</DistanceMeters>
          </Trackpoint>
          <Trackpoint>
            <Time>2022-09-21T08:17:22.000Z</Time>
            <Position>
              <LatitudeDegrees>49.43099529482424259185791015625</LatitudeDegrees>
              <LongitudeDegrees>20.3133614547550678253173828125</LongitudeDegrees>
            </Position>
            <AltitudeMeters>535.5999755859375</AltitudeMeters>
            <DistanceMeters>NAN</DistanceMeters>
          </Trackpoint>
          <Trackpoint>
            <Time>2022-09-21T08:17:26.000Z</Time>
            <Position>
              <LatitudeDegrees>49.43091885186731815338134765625</LatitudeDegrees>
              <LongitudeDegrees>20.31339548528194427490234375</LongitudeDegrees>
            </Position>
            <AltitudeMeters>535.79998779296875</AltitudeMeters>
            <DistanceMeters>NAN</DistanceMeters>
          </Trackpoint>
          <Trackpoint>
            <Time>2022-09-21T08:17:34.000Z</Time>
            <Position>
              <LatitudeDegrees>49.43076730705797672271728515625</LatitudeDegrees>
              <LongitudeDegrees>20.3134855069220066070556640625</LongitudeDegrees>
            </Position>
            <AltitudeMeters>535.5999755859375</AltitudeMeters>
            <DistanceMeters>NAN</DistanceMeters>
          </Trackpoint>
          <Trackpoint>
            <Time>2022-09-21T08:17:41.000Z</Time>
            <Position>
              <LatitudeDegrees>49.43063319660723209381103515625</LatitudeDegrees>
              <LongitudeDegrees>20.31358147971332073211669921875</LongitudeDegrees>
            </Position>
            <AltitudeMeters>535.5999755859375</AltitudeMeters>
            <DistanceMeters>NAN</DistanceMeters>
          </Trackpoint>
          <Trackpoint>
            <Time>2022-09-21T08:17:48.000Z</Time>
            <Position>
              <LatitudeDegrees>49.430518113076686859130859375</LatitudeDegrees>
              <LongitudeDegrees>20.3136752732098102569580078125</LongitudeDegrees>
            </Position>
            <AltitudeMeters>535.5999755859375</AltitudeMeters>
            <DistanceMeters>NAN</DistanceMeters>
          </Trackpoint>
          <Trackpoint>
            <Time>2022-09-21T08:17:55.000Z</Time>
            <Position>
              <LatitudeDegrees>49.43038576282560825347900390625</LatitudeDegrees>
              <LongitudeDegrees>20.3137721680104732513427734375</LongitudeDegrees>
            </Position>
            <AltitudeMeters>535.4000244140625</AltitudeMeters>
            <DistanceMeters>NAN</DistanceMeters>
          </Trackpoint>
          <Trackpoint>
            <Time>2022-09-21T08:18:06.000Z</Time>
            <Position>
              <LatitudeDegrees>49.43014738149940967559814453125</LatitudeDegrees>
              <LongitudeDegrees>20.313916169106960296630859375</LongitudeDegrees>
            </Position>
            <AltitudeMeters>535.5999755859375</AltitudeMeters>
            <DistanceMeters>NAN</DistanceMeters>
          </Trackpoint>
          <Trackpoint>
            <Time>2022-09-21T08:18:12.000Z</Time>
            <Position>
              <LatitudeDegrees>49.43001260049641132354736328125</LatitudeDegrees>
              <LongitudeDegrees>20.31398766674101352691650390625</LongitudeDegrees>
            </Position>
            <AltitudeMeters>535.4000244140625</AltitudeMeters>
            <DistanceMeters>NAN</DistanceMeters>
          </Trackpoint>
          <Trackpoint>
            <Time>2022-09-21T08:18:16.000Z</Time>
            <Position>
              <LatitudeDegrees>49.42993448115885257720947265625</LatitudeDegrees>
              <LongitudeDegrees>20.314061008393764495849609375</LongitudeDegrees>
            </Position>
            <AltitudeMeters>535.5999755859375</AltitudeMeters>
            <DistanceMeters>NAN</DistanceMeters>
          </Trackpoint>
          <Trackpoint>
            <Time>2022-09-21T08:18:21.000Z</Time>
            <Position>
              <LatitudeDegrees>49.42983021028339862823486328125</LatitudeDegrees>
              <LongitudeDegrees>20.31412906944751739501953125</LongitudeDegrees>
            </Position>
            <AltitudeMeters>535.5999755859375</AltitudeMeters>
            <DistanceMeters>NAN</DistanceMeters>
          </Trackpoint>
          <Trackpoint>
            <Time>2022-09-21T08:18:25.000Z</Time>
            <Position>
              <LatitudeDegrees>49.42975158803164958953857421875</LatitudeDegrees>
              <LongitudeDegrees>20.31419956125319004058837890625</LongitudeDegrees>
            </Position>
            <AltitudeMeters>535.5999755859375</AltitudeMeters>
            <DistanceMeters>NAN</DistanceMeters>
          </Trackpoint>
          <Trackpoint>
            <Time>2022-09-21T08:18:34.000Z</Time>
            <Position>
              <LatitudeDegrees>49.4295741431415081024169921875</LatitudeDegrees>
              <LongitudeDegrees>20.31428338028490543365478515625</LongitudeDegrees>
            </Position>
            <AltitudeMeters>535.5999755859375</AltitudeMeters>
            <DistanceMeters>NAN</DistanceMeters>
          </Trackpoint>
          <Trackpoint>
            <Time>2022-09-21T08:18:47.000Z</Time>
            <Position>
              <LatitudeDegrees>49.4293206743896007537841796875</LatitudeDegrees>
              <LongitudeDegrees>20.3144212625920772552490234375</LongitudeDegrees>
            </Position>
            <AltitudeMeters>535.4000244140625</AltitudeMeters>
            <DistanceMeters>NAN</DistanceMeters>
          </Trackpoint>
          <Trackpoint>
            <Time>2022-09-21T08:18:55.000Z</Time>
            <Position>
              <LatitudeDegrees>49.429150521755218505859375</LatitudeDegrees>
              <LongitudeDegrees>20.31453005969524383544921875</LongitudeDegrees>
            </Position>
            <AltitudeMeters>535.4000244140625</AltitudeMeters>
            <DistanceMeters>NAN</DistanceMeters>
          </Trackpoint>
          <Trackpoint>
            <Time>2022-09-21T08:19:06.000Z</Time>
            <Position>
              <LatitudeDegrees>49.4289381243288516998291015625</LatitudeDegrees>
              <LongitudeDegrees>20.31469258479773998260498046875</LongitudeDegrees>
            </Position>
            <AltitudeMeters>535.4000244140625</AltitudeMeters>
            <DistanceMeters>NAN</DistanceMeters>
          </Trackpoint>
          <Trackpoint>
            <Time>2022-09-21T08:19:15.000Z</Time>
            <Position>
              <LatitudeDegrees>49.42879001609981060028076171875</LatitudeDegrees>
              <LongitudeDegrees>20.3147421218454837799072265625</LongitudeDegrees>
            </Position>
            <AltitudeMeters>535.4000244140625</AltitudeMeters>
            <DistanceMeters>NAN</DistanceMeters>
          </Trackpoint>
          <Trackpoint>
            <Time>2022-09-21T08:19:25.000Z</Time>
            <Position>
              <LatitudeDegrees>49.4285939633846282958984375</LatitudeDegrees>
              <LongitudeDegrees>20.31482887454330921173095703125</LongitudeDegrees>
            </Position>
            <AltitudeMeters>535.5999755859375</AltitudeMeters>
            <DistanceMeters>NAN</DistanceMeters>
          </Trackpoint>
          <Trackpoint>
            <Time>2022-09-21T08:19:30.000Z</Time>
            <Position>
              <LatitudeDegrees>49.428493045270442962646484375</LatitudeDegrees>
              <LongitudeDegrees>20.31486910767853260040283203125</LongitudeDegrees>
            </Position>
            <AltitudeMeters>535.5999755859375</AltitudeMeters>
            <DistanceMeters>NAN</DistanceMeters>
          </Trackpoint>
          <Trackpoint>
            <Time>2022-09-21T08:19:32.000Z</Time>
            <Position>
              <LatitudeDegrees>49.428450800478458404541015625</LatitudeDegrees>
              <LongitudeDegrees>20.3148923255503177642822265625</LongitudeDegrees>
            </Position>
            <AltitudeMeters>535.5999755859375</AltitudeMeters>
            <DistanceMeters>NAN</DistanceMeters>
          </Trackpoint>
          <Trackpoint>
            <Time>2022-09-21T08:19:41.000Z</Time>
            <Position>
              <LatitudeDegrees>49.42823161371052265167236328125</LatitudeDegrees>
              <LongitudeDegrees>20.3150255978107452392578125</LongitudeDegrees>
            </Position>
            <AltitudeMeters>535.5999755859375</AltitudeMeters>
            <DistanceMeters>NAN</DistanceMeters>
          </Trackpoint>
          <Trackpoint>
            <Time>2022-09-21T08:19:52.000Z</Time>
            <Position>
              <LatitudeDegrees>49.427968002855777740478515625</LatitudeDegrees>
              <LongitudeDegrees>20.31517739407718181610107421875</LongitudeDegrees>
            </Position>
            <AltitudeMeters>535.79998779296875</AltitudeMeters>
            <DistanceMeters>NAN</DistanceMeters>
          </Trackpoint>
          <Trackpoint>
            <Time>2022-09-21T08:20:02.000Z</Time>
            <Position>
              <LatitudeDegrees>49.4277705252170562744140625</LatitudeDegrees>
              <LongitudeDegrees>20.3153006918728351593017578125</LongitudeDegrees>
            </Position>
            <AltitudeMeters>535.79998779296875</AltitudeMeters>
            <DistanceMeters>NAN</DistanceMeters>
          </Trackpoint>
          <Trackpoint>
            <Time>2022-09-21T08:20:12.000Z</Time>
            <Position>
              <LatitudeDegrees>49.42758453078567981719970703125</LatitudeDegrees>
              <LongitudeDegrees>20.3154126740992069244384765625</LongitudeDegrees>
            </Position>
            <AltitudeMeters>535.79998779296875</AltitudeMeters>
            <DistanceMeters>NAN</DistanceMeters>
          </Trackpoint>
          <Trackpoint>
            <Time>2022-09-21T08:20:22.000Z</Time>
            <Position>
              <LatitudeDegrees>49.42739836871623992919921875</LatitudeDegrees>
              <LongitudeDegrees>20.3155293501913547515869140625</LongitudeDegrees>
            </Position>
            <AltitudeMeters>535.79998779296875</AltitudeMeters>
            <DistanceMeters>NAN</DistanceMeters>
          </Trackpoint>
          <Trackpoint>
            <Time>2022-09-21T08:20:26.000Z</Time>
            <Position>
              <LatitudeDegrees>49.427327625453472137451171875</LatitudeDegrees>
              <LongitudeDegrees>20.31558643095195293426513671875</LongitudeDegrees>
            </Position>
            <AltitudeMeters>535.79998779296875</AltitudeMeters>
            <DistanceMeters>NAN</DistanceMeters>
          </Trackpoint>
          <Trackpoint>
            <Time>2022-09-21T08:20:29.000Z</Time>
            <Position>
              <LatitudeDegrees>49.4272627495229244232177734375</LatitudeDegrees>
              <LongitudeDegrees>20.31559917144477367401123046875</LongitudeDegrees>
            </Position>
            <AltitudeMeters>535.79998779296875</AltitudeMeters>
            <DistanceMeters>NAN</DistanceMeters>
          </Trackpoint>
          <Trackpoint>
            <Time>2022-09-21T08:20:34.000Z</Time>
            <Position>
              <LatitudeDegrees>49.42712285555899143218994140625</LatitudeDegrees>
              <LongitudeDegrees>20.31567242927849292755126953125</LongitudeDegrees>
            </Position>
            <AltitudeMeters>535.79998779296875</AltitudeMeters>
            <DistanceMeters>NAN</DistanceMeters>
          </Trackpoint>
          <Trackpoint>
            <Time>2022-09-21T08:20:38.000Z</Time>
            <Position>
              <LatitudeDegrees>49.427023194730281829833984375</LatitudeDegrees>
              <LongitudeDegrees>20.3157187812030315399169921875</LongitudeDegrees>
            </Position>
            <AltitudeMeters>535.79998779296875</AltitudeMeters>
            <DistanceMeters>NAN</DistanceMeters>
          </Trackpoint>
          <Trackpoint>
            <Time>2022-09-21T08:20:42.000Z</Time>
            <Position>
              <LatitudeDegrees>49.42695404402911663055419921875</LatitudeDegrees>
              <LongitudeDegrees>20.31575138680636882781982421875</LongitudeDegrees>
            </Position>
            <AltitudeMeters>535.79998779296875</AltitudeMeters>
            <DistanceMeters>NAN</DistanceMeters>
          </Trackpoint>
          <Trackpoint>
            <Time>2022-09-21T08:20:46.000Z</Time>
            <Position>
              <LatitudeDegrees>49.42687341012060642242431640625</LatitudeDegrees>
              <LongitudeDegrees>20.3157536499202251434326171875</LongitudeDegrees>
            </Position>
            <AltitudeMeters>535.79998779296875</AltitudeMeters>
            <DistanceMeters>NAN</DistanceMeters>
          </Trackpoint>
          <Trackpoint>
            <Time>2022-09-21T08:20:50.000Z</Time>
            <Position>
              <LatitudeDegrees>49.426781125366687774658203125</LatitudeDegrees>
              <LongitudeDegrees>20.31576815061271190643310546875</LongitudeDegrees>
            </Position>
            <AltitudeMeters>535.79998779296875</AltitudeMeters>
            <DistanceMeters>NAN</DistanceMeters>
          </Trackpoint>
          <Trackpoint>
            <Time>2022-09-21T08:20:53.000Z</Time>
            <Position>
              <LatitudeDegrees>49.42669588141143321990966796875</LatitudeDegrees>
              <LongitudeDegrees>20.31578826718032360076904296875</LongitudeDegrees>
            </Position>
            <AltitudeMeters>535.79998779296875</AltitudeMeters>
            <DistanceMeters>NAN</DistanceMeters>
          </Trackpoint>
          <Trackpoint>
            <Time>2022-09-21T08:20:54.000Z</Time>
            <Position>
              <LatitudeDegrees>49.42668490111827850341796875</LatitudeDegrees>
              <LongitudeDegrees>20.3157627023756504058837890625</LongitudeDegrees>
            </Position>
            <AltitudeMeters>535.79998779296875</AltitudeMeters>
            <DistanceMeters>NAN</DistanceMeters>
          </Trackpoint>
          <Trackpoint>
            <Time>2022-09-21T08:20:57.000Z</Time>
            <Position>
              <LatitudeDegrees>49.426622204482555389404296875</LatitudeDegrees>
              <LongitudeDegrees>20.3157670609652996063232421875</LongitudeDegrees>
            </Position>
            <AltitudeMeters>535.79998779296875</AltitudeMeters>
            <DistanceMeters>NAN</DistanceMeters>
          </Trackpoint>
          <Trackpoint>
            <Time>2022-09-21T08:21:00.000Z</Time>
            <Position>
              <LatitudeDegrees>49.4265328533947467803955078125</LatitudeDegrees>
              <LongitudeDegrees>20.31578256748616695404052734375</LongitudeDegrees>
            </Position>
            <AltitudeMeters>535.79998779296875</AltitudeMeters>
            <DistanceMeters>NAN</DistanceMeters>
          </Trackpoint>
          <Trackpoint>
            <Time>2022-09-21T08:21:02.000Z</Time>
            <Position>
              <LatitudeDegrees>49.42649706266820430755615234375</LatitudeDegrees>
              <LongitudeDegrees>20.3157868422567844390869140625</LongitudeDegrees>
            </Position>
            <AltitudeMeters>535.79998779296875</AltitudeMeters>
            <DistanceMeters>NAN</DistanceMeters>
          </Trackpoint>
          <Trackpoint>
            <Time>2022-09-21T08:21:07.000Z</Time>
            <Position>
              <LatitudeDegrees>49.42640469409525394439697265625</LatitudeDegrees>
              <LongitudeDegrees>20.3158351220190525054931640625</LongitudeDegrees>
            </Position>
            <AltitudeMeters>535.79998779296875</AltitudeMeters>
            <DistanceMeters>NAN</DistanceMeters>
          </Trackpoint>
          <Trackpoint>
            <Time>2022-09-21T08:21:13.000Z</Time>
            <Position>
              <LatitudeDegrees>49.42627611570060253143310546875</LatitudeDegrees>
              <LongitudeDegrees>20.31590469181537628173828125</LongitudeDegrees>
            </Position>
            <AltitudeMeters>535.79998779296875</AltitudeMeters>
            <DistanceMeters>NAN</DistanceMeters>
          </Trackpoint>
          <Trackpoint>
            <Time>2022-09-21T08:21:18.000Z</Time>
            <Position>
              <LatitudeDegrees>49.4261945597827434539794921875</LatitudeDegrees>
              <LongitudeDegrees>20.3159608505666255950927734375</LongitudeDegrees>
            </Position>
            <AltitudeMeters>535.79998779296875</AltitudeMeters>
            <DistanceMeters>NAN</DistanceMeters>
          </Trackpoint>
          <Trackpoint>
            <Time>2022-09-21T08:21:20.000Z</Time>
            <Position>
              <LatitudeDegrees>49.42615994252264499664306640625</LatitudeDegrees>
              <LongitudeDegrees>20.3159802965819835662841796875</LongitudeDegrees>
            </Position>
            <AltitudeMeters>535.79998779296875</AltitudeMeters>
            <DistanceMeters>NAN</DistanceMeters>
          </Trackpoint>
          <Trackpoint>
            <Time>2022-09-21T08:21:24.000Z</Time>
            <Position>
              <LatitudeDegrees>49.4260946474969387054443359375</LatitudeDegrees>
              <LongitudeDegrees>20.31602128408849239349365234375</LongitudeDegrees>
            </Position>
            <AltitudeMeters>535.79998779296875</AltitudeMeters>
            <DistanceMeters>NAN</DistanceMeters>
          </Trackpoint>
          <Trackpoint>
            <Time>2022-09-21T08:21:27.000Z</Time>
            <Position>
              <LatitudeDegrees>49.42603136412799358367919921875</LatitudeDegrees>
              <LongitudeDegrees>20.31605816446244716644287109375</LongitudeDegrees>
            </Position>
            <AltitudeMeters>535.79998779296875</AltitudeMeters>
            <DistanceMeters>NAN</DistanceMeters>
          </Trackpoint>
          <Trackpoint>
            <Time>2022-09-21T08:21:29.000Z</Time>
            <Position>
              <LatitudeDegrees>49.42600269801914691925048828125</LatitudeDegrees>
              <LongitudeDegrees>20.316056571900844573974609375</LongitudeDegrees>
            </Position>
            <AltitudeMeters>535.5999755859375</AltitudeMeters>
            <DistanceMeters>NAN</DistanceMeters>
          </Trackpoint>
          <Trackpoint>
            <Time>2022-09-21T08:21:34.000Z</Time>
            <Position>
              <LatitudeDegrees>49.42591234110295772552490234375</LatitudeDegrees>
              <LongitudeDegrees>20.31607056967914104461669921875</LongitudeDegrees>
            </Position>
            <AltitudeMeters>535.4000244140625</AltitudeMeters>
            <DistanceMeters>NAN</DistanceMeters>
          </Trackpoint>
          <Trackpoint>
            <Time>2022-09-21T08:21:40.000Z</Time>
            <Position>
              <LatitudeDegrees>49.4257910549640655517578125</LatitudeDegrees>
              <LongitudeDegrees>20.316100828349590301513671875</LongitudeDegrees>
            </Position>
            <AltitudeMeters>535.4000244140625</AltitudeMeters>
            <DistanceMeters>NAN</DistanceMeters>
          </Trackpoint>
          <Trackpoint>
            <Time>2022-09-21T08:21:41.000Z</Time>
            <Position>
              <LatitudeDegrees>49.42577051930129528045654296875</LatitudeDegrees>
              <LongitudeDegrees>20.31610988080501556396484375</LongitudeDegrees>
            </Position>
            <AltitudeMeters>535.4000244140625</AltitudeMeters>
            <DistanceMeters>NAN</DistanceMeters>
          </Trackpoint>
          <Trackpoint>
            <Time>2022-09-21T08:21:49.000Z</Time>
            <Position>
              <LatitudeDegrees>49.425616376101970672607421875</LatitudeDegrees>
              <LongitudeDegrees>20.31615572981536388397216796875</LongitudeDegrees>
            </Position>
            <AltitudeMeters>535.4000244140625</AltitudeMeters>
            <DistanceMeters>NAN</DistanceMeters>
          </Trackpoint>
          <Trackpoint>
            <Time>2022-09-21T08:21:50.000Z</Time>
            <Position>
              <LatitudeDegrees>49.425601623952388763427734375</LatitudeDegrees>
              <LongitudeDegrees>20.316157825291156768798828125</LongitudeDegrees>
            </Position>
            <AltitudeMeters>535.4000244140625</AltitudeMeters>
            <DistanceMeters>NAN</DistanceMeters>
          </Trackpoint>
          <Trackpoint>
            <Time>2022-09-21T08:21:52.000Z</Time>
            <Position>
              <LatitudeDegrees>49.42556465975940227508544921875</LatitudeDegrees>
              <LongitudeDegrees>20.3161655366420745849609375</LongitudeDegrees>
            </Position>
            <AltitudeMeters>535.4000244140625</AltitudeMeters>
            <DistanceMeters>NAN</DistanceMeters>
          </Trackpoint>
          <Trackpoint>
            <Time>2022-09-21T08:21:58.000Z</Time>
            <Position>
              <LatitudeDegrees>49.42543976940214633941650390625</LatitudeDegrees>
              <LongitudeDegrees>20.31621356494724750518798828125</LongitudeDegrees>
            </Position>
            <AltitudeMeters>535.4000244140625</AltitudeMeters>
            <DistanceMeters>NAN</DistanceMeters>
          </Trackpoint>
          <Trackpoint>
            <Time>2022-09-21T08:22:06.000Z</Time>
            <Position>
              <LatitudeDegrees>49.42526928149163722991943359375</LatitudeDegrees>
              <LongitudeDegrees>20.3162907622754573822021484375</LongitudeDegrees>
            </Position>
            <AltitudeMeters>535.20001220703125</AltitudeMeters>
            <DistanceMeters>NAN</DistanceMeters>
          </Trackpoint>
          <Trackpoint>
            <Time>2022-09-21T08:22:12.000Z</Time>
            <Position>
              <LatitudeDegrees>49.42512930370867252349853515625</LatitudeDegrees>
              <LongitudeDegrees>20.3163492679595947265625</LongitudeDegrees>
            </Position>
            <AltitudeMeters>535.20001220703125</AltitudeMeters>
            <DistanceMeters>NAN</DistanceMeters>
          </Trackpoint>
          <Trackpoint>
            <Time>2022-09-21T08:22:17.000Z</Time>
            <Position>
              <LatitudeDegrees>49.42503576166927814483642578125</LatitudeDegrees>
              <LongitudeDegrees>20.31637533567845821380615234375</LongitudeDegrees>
            </Position>
            <AltitudeMeters>535.20001220703125</AltitudeMeters>
            <DistanceMeters>NAN</DistanceMeters>
          </Trackpoint>
          <Trackpoint>
            <Time>2022-09-21T08:22:25.000Z</Time>
            <Position>
              <LatitudeDegrees>49.42486636340618133544921875</LatitudeDegrees>
              <LongitudeDegrees>20.31644205562770366668701171875</LongitudeDegrees>
            </Position>
            <AltitudeMeters>535.20001220703125</AltitudeMeters>
            <DistanceMeters>NAN</DistanceMeters>
          </Trackpoint>
          <Trackpoint>
            <Time>2022-09-21T08:22:35.000Z</Time>
            <Position>
              <LatitudeDegrees>49.4246703945100307464599609375</LatitudeDegrees>
              <LongitudeDegrees>20.31651296652853488922119140625</LongitudeDegrees>
            </Position>
            <AltitudeMeters>535.20001220703125</AltitudeMeters>
            <DistanceMeters>NAN</DistanceMeters>
          </Trackpoint>
          <Trackpoint>
            <Time>2022-09-21T08:22:38.000Z</Time>
            <Position>
              <LatitudeDegrees>49.4246033392846584320068359375</LatitudeDegrees>
              <LongitudeDegrees>20.316545069217681884765625</LongitudeDegrees>
            </Position>
            <AltitudeMeters>535.20001220703125</AltitudeMeters>
            <DistanceMeters>NAN</DistanceMeters>
          </Trackpoint>
          <Trackpoint>
            <Time>2022-09-21T08:22:40.000Z</Time>
            <Position>
              <LatitudeDegrees>49.4245433248579502105712890625</LatitudeDegrees>
              <LongitudeDegrees>20.3165640123188495635986328125</LongitudeDegrees>
            </Position>
            <AltitudeMeters>535.20001220703125</AltitudeMeters>
            <DistanceMeters>NAN</DistanceMeters>
          </Trackpoint>
          <Trackpoint>
            <Time>2022-09-21T08:22:46.000Z</Time>
            <Position>
              <LatitudeDegrees>49.42443243227899074554443359375</LatitudeDegrees>
              <LongitudeDegrees>20.31657499261200428009033203125</LongitudeDegrees>
            </Position>
            <AltitudeMeters>535.20001220703125</AltitudeMeters>
            <DistanceMeters>NAN</DistanceMeters>
          </Trackpoint>
          <Trackpoint>
            <Time>2022-09-21T08:22:51.000Z</Time>
            <Position>
              <LatitudeDegrees>49.42432723939418792724609375</LatitudeDegrees>
              <LongitudeDegrees>20.316593013703823089599609375</LongitudeDegrees>
            </Position>
            <AltitudeMeters>535.20001220703125</AltitudeMeters>
            <DistanceMeters>NAN</DistanceMeters>
          </Trackpoint>
          <Trackpoint>
            <Time>2022-09-21T08:22:54.000Z</Time>
            <Position>
              <LatitudeDegrees>49.424269236624240875244140625</LatitudeDegrees>
              <LongitudeDegrees>20.31661690212786197662353515625</LongitudeDegrees>
            </Position>
            <AltitudeMeters>535</AltitudeMeters>
            <DistanceMeters>NAN</DistanceMeters>
          </Trackpoint>
          <Trackpoint>
            <Time>2022-09-21T08:22:59.000Z</Time>
            <Position>
              <LatitudeDegrees>49.424168653786182403564453125</LatitudeDegrees>
              <LongitudeDegrees>20.31666233204305171966552734375</LongitudeDegrees>
            </Position>
            <AltitudeMeters>535</AltitudeMeters>
            <DistanceMeters>NAN</DistanceMeters>
          </Trackpoint>
          <Trackpoint>
            <Time>2022-09-21T08:23:03.000Z</Time>
            <Position>
              <LatitudeDegrees>49.42409799434244632720947265625</LatitudeDegrees>
              <LongitudeDegrees>20.31669602729380130767822265625</LongitudeDegrees>
            </Position>
            <AltitudeMeters>535</AltitudeMeters>
            <DistanceMeters>NAN</DistanceMeters>
          </Trackpoint>
          <Trackpoint>
            <Time>2022-09-21T08:23:06.000Z</Time>
            <Position>
              <LatitudeDegrees>49.42405499517917633056640625</LatitudeDegrees>
              <LongitudeDegrees>20.31672217883169651031494140625</LongitudeDegrees>
            </Position>
            <AltitudeMeters>535</AltitudeMeters>
            <DistanceMeters>NAN</DistanceMeters>
          </Trackpoint>
          <Trackpoint>
            <Time>2022-09-21T08:23:15.000Z</Time>
            <Position>
              <LatitudeDegrees>49.4238570146262645721435546875</LatitudeDegrees>
              <LongitudeDegrees>20.316810272634029388427734375</LongitudeDegrees>
            </Position>
            <AltitudeMeters>535</AltitudeMeters>
            <DistanceMeters>NAN</DistanceMeters>
          </Trackpoint>
          <Trackpoint>
            <Time>2022-09-21T08:23:16.000Z</Time>
            <Position>
              <LatitudeDegrees>49.4238506443798542022705078125</LatitudeDegrees>
              <LongitudeDegrees>20.31682527624070644378662109375</LongitudeDegrees>
            </Position>
            <AltitudeMeters>535.20001220703125</AltitudeMeters>
            <DistanceMeters>NAN</DistanceMeters>
          </Trackpoint>
          <Trackpoint>
            <Time>2022-09-21T08:23:19.000Z</Time>
            <Position>
              <LatitudeDegrees>49.42380546592175960540771484375</LatitudeDegrees>
              <LongitudeDegrees>20.3168476559221744537353515625</LongitudeDegrees>
            </Position>
            <AltitudeMeters>535.20001220703125</AltitudeMeters>
            <DistanceMeters>NAN</DistanceMeters>
          </Trackpoint>
          <Trackpoint>
            <Time>2022-09-21T08:23:22.000Z</Time>
            <Position>
              <LatitudeDegrees>49.4237353093922138214111328125</LatitudeDegrees>
              <LongitudeDegrees>20.316860564053058624267578125</LongitudeDegrees>
            </Position>
            <AltitudeMeters>535.20001220703125</AltitudeMeters>
            <DistanceMeters>NAN</DistanceMeters>
          </Trackpoint>
          <Trackpoint>
            <Time>2022-09-21T08:23:24.000Z</Time>
            <Position>
              <LatitudeDegrees>49.42370069213211536407470703125</LatitudeDegrees>
              <LongitudeDegrees>20.31687431037425994873046875</LongitudeDegrees>
            </Position>
            <AltitudeMeters>535.20001220703125</AltitudeMeters>
            <DistanceMeters>NAN</DistanceMeters>
          </Trackpoint>
          <Trackpoint>
            <Time>2022-09-21T08:23:30.000Z</Time>
            <Position>
              <LatitudeDegrees>49.42357697524130344390869140625</LatitudeDegrees>
              <LongitudeDegrees>20.31692250631749629974365234375</LongitudeDegrees>
            </Position>
            <AltitudeMeters>535</AltitudeMeters>
            <DistanceMeters>NAN</DistanceMeters>
          </Trackpoint>
          <Trackpoint>
            <Time>2022-09-21T08:23:38.000Z</Time>
            <Position>
              <LatitudeDegrees>49.42345459945499897003173828125</LatitudeDegrees>
              <LongitudeDegrees>20.3169680200517177581787109375</LongitudeDegrees>
            </Position>
            <AltitudeMeters>534.79998779296875</AltitudeMeters>
            <DistanceMeters>NAN</DistanceMeters>
          </Trackpoint>
          <Trackpoint>
            <Time>2022-09-21T08:23:43.000Z</Time>
            <Position>
              <LatitudeDegrees>49.42339106462895870208740234375</LatitudeDegrees>
              <LongitudeDegrees>20.316998697817325592041015625</LongitudeDegrees>
            </Position>
            <AltitudeMeters>534.79998779296875</AltitudeMeters>
            <DistanceMeters>NAN</DistanceMeters>
          </Trackpoint>
          <Trackpoint>
            <Time>2022-09-21T08:23:44.000Z</Time>
            <Position>
              <LatitudeDegrees>49.42338444292545318603515625</LatitudeDegrees>
              <LongitudeDegrees>20.3170002065598964691162109375</LongitudeDegrees>
            </Position>
            <AltitudeMeters>534.5999755859375</AltitudeMeters>
            <DistanceMeters>NAN</DistanceMeters>
          </Trackpoint>
          <Trackpoint>
            <Time>2022-09-21T08:23:46.000Z</Time>
            <Position>
              <LatitudeDegrees>49.423379413783550262451171875</LatitudeDegrees>
              <LongitudeDegrees>20.31700012274086475372314453125</LongitudeDegrees>
            </Position>
            <AltitudeMeters>534.5999755859375</AltitudeMeters>
            <DistanceMeters>NAN</DistanceMeters>
          </Trackpoint>
          <Trackpoint>
            <Time>2022-09-21T08:23:52.000Z</Time>
            <Position>
              <LatitudeDegrees>49.4232950918376445770263671875</LatitudeDegrees>
              <LongitudeDegrees>20.317042283713817596435546875</LongitudeDegrees>
            </Position>
            <AltitudeMeters>534.5999755859375</AltitudeMeters>
            <DistanceMeters>NAN</DistanceMeters>
          </Trackpoint>
          <Trackpoint>
            <Time>2022-09-21T08:23:58.000Z</Time>
            <Position>
              <LatitudeDegrees>49.4232437945902347564697265625</LatitudeDegrees>
              <LongitudeDegrees>20.3170451335608959197998046875</LongitudeDegrees>
            </Position>
            <AltitudeMeters>534.5999755859375</AltitudeMeters>
            <DistanceMeters>NAN</DistanceMeters>
          </Trackpoint>
          <Trackpoint>
            <Time>2022-09-21T08:24:02.000Z</Time>
            <Position>
              <LatitudeDegrees>49.42321739159524440765380859375</LatitudeDegrees>
              <LongitudeDegrees>20.31704731285572052001953125</LongitudeDegrees>
            </Position>
            <AltitudeMeters>534.5999755859375</AltitudeMeters>
            <DistanceMeters>NAN</DistanceMeters>
          </Trackpoint>
          <Trackpoint>
            <Time>2022-09-21T08:24:21.000Z</Time>
            <Position>
              <LatitudeDegrees>49.42326868884265422821044921875</LatitudeDegrees>
              <LongitudeDegrees>20.3168158046901226043701171875</LongitudeDegrees>
            </Position>
            <AltitudeMeters>534.5999755859375</AltitudeMeters>
            <DistanceMeters>NAN</DistanceMeters>
          </Trackpoint>
          <Trackpoint>
            <Time>2022-09-21T08:24:27.000Z</Time>
            <Position>
              <LatitudeDegrees>49.42330489866435527801513671875</LatitudeDegrees>
              <LongitudeDegrees>20.3169341571629047393798828125</LongitudeDegrees>
            </Position>
            <AltitudeMeters>534.5999755859375</AltitudeMeters>
            <DistanceMeters>NAN</DistanceMeters>
          </Trackpoint>
          <Trackpoint>
            <Time>2022-09-21T08:24:32.000Z</Time>
            <Position>
              <LatitudeDegrees>49.42327581346035003662109375</LatitudeDegrees>
              <LongitudeDegrees>20.31700314022600650787353515625</LongitudeDegrees>
            </Position>
            <AltitudeMeters>534.5999755859375</AltitudeMeters>
            <DistanceMeters>NAN</DistanceMeters>
          </Trackpoint>
          <Trackpoint>
            <Time>2022-09-21T08:24:33.000Z</Time>
            <Position>
              <LatitudeDegrees>49.4232769869267940521240234375</LatitudeDegrees>
              <LongitudeDegrees>20.31700163148343563079833984375</LongitudeDegrees>
            </Position>
            <AltitudeMeters>534.5999755859375</AltitudeMeters>
            <DistanceMeters>NAN</DistanceMeters>
          </Trackpoint>
          <Trackpoint>
            <Time>2022-09-21T08:24:39.000Z</Time>
            <Position>
              <LatitudeDegrees>49.42329115234315395355224609375</LatitudeDegrees>
              <LongitudeDegrees>20.31703549437224864959716796875</LongitudeDegrees>
            </Position>
            <AltitudeMeters>534.5999755859375</AltitudeMeters>
            <DistanceMeters>NAN</DistanceMeters>
          </Trackpoint>
          <Trackpoint>
            <Time>2022-09-21T08:24:42.000Z</Time>
            <Position>
              <LatitudeDegrees>49.42328209988772869110107421875</LatitudeDegrees>
              <LongitudeDegrees>20.3170427866280078887939453125</LongitudeDegrees>
            </Position>
            <AltitudeMeters>534.5999755859375</AltitudeMeters>
            <DistanceMeters>NAN</DistanceMeters>
          </Trackpoint>
          <Trackpoint>
            <Time>2022-09-21T08:24:50.000Z</Time>
            <Position>
              <LatitudeDegrees>49.4232820160686969757080078125</LatitudeDegrees>
              <LongitudeDegrees>20.3170427866280078887939453125</LongitudeDegrees>
            </Position>
            <AltitudeMeters>534.79998779296875</AltitudeMeters>
            <DistanceMeters>NAN</DistanceMeters>
          </Trackpoint>
          <Trackpoint>
            <Time>2022-09-21T08:24:56.000Z</Time>
            <Position>
              <LatitudeDegrees>49.4232820160686969757080078125</LatitudeDegrees>
              <LongitudeDegrees>20.3170427866280078887939453125</LongitudeDegrees>
            </Position>
            <AltitudeMeters>534.20001220703125</AltitudeMeters>
            <DistanceMeters>NAN</DistanceMeters>
          </Trackpoint>
          <Trackpoint>
            <Time>2022-09-21T08:25:07.000Z</Time>
            <Position>
              <LatitudeDegrees>49.4231871329247951507568359375</LatitudeDegrees>
              <LongitudeDegrees>20.31702593900263309478759765625</LongitudeDegrees>
            </Position>
            <AltitudeMeters>534.20001220703125</AltitudeMeters>
            <DistanceMeters>NAN</DistanceMeters>
          </Trackpoint>
          <Trackpoint>
            <Time>2022-09-21T08:25:13.000Z</Time>
            <Position>
              <LatitudeDegrees>49.423093758523464202880859375</LatitudeDegrees>
              <LongitudeDegrees>20.316988639533519744873046875</LongitudeDegrees>
            </Position>
            <AltitudeMeters>534.20001220703125</AltitudeMeters>
            <DistanceMeters>NAN</DistanceMeters>
          </Trackpoint>
          <Trackpoint>
            <Time>2022-09-21T08:25:14.000Z</Time>
            <Position>
              <LatitudeDegrees>49.42308965139091014862060546875</LatitudeDegrees>
              <LongitudeDegrees>20.316983275115489959716796875</LongitudeDegrees>
            </Position>
            <AltitudeMeters>534.20001220703125</AltitudeMeters>
            <DistanceMeters>NAN</DistanceMeters>
          </Trackpoint>
          <Trackpoint>
            <Time>2022-09-21T08:25:26.000Z</Time>
            <Position>
              <LatitudeDegrees>49.42301572300493717193603515625</LatitudeDegrees>
              <LongitudeDegrees>20.3169525973498821258544921875</LongitudeDegrees>
            </Position>
            <AltitudeMeters>534</AltitudeMeters>
            <DistanceMeters>NAN</DistanceMeters>
          </Trackpoint>
          <Trackpoint>
            <Time>2022-09-21T08:25:30.000Z</Time>
            <Position>
              <LatitudeDegrees>49.42296526394784450531005859375</LatitudeDegrees>
              <LongitudeDegrees>20.31694664619863033294677734375</LongitudeDegrees>
            </Position>
            <AltitudeMeters>534.4000244140625</AltitudeMeters>
            <DistanceMeters>NAN</DistanceMeters>
          </Trackpoint>
          <Trackpoint>
            <Time>2022-09-21T08:25:35.000Z</Time>
            <Position>
              <LatitudeDegrees>49.422946237027645111083984375</LatitudeDegrees>
              <LongitudeDegrees>20.31692259013652801513671875</LongitudeDegrees>
            </Position>
            <AltitudeMeters>535.4000244140625</AltitudeMeters>
            <DistanceMeters>NAN</DistanceMeters>
          </Trackpoint>
          <Trackpoint>
            <Time>2022-09-21T08:25:37.000Z</Time>
            <Position>
              <LatitudeDegrees>49.422946237027645111083984375</LatitudeDegrees>
              <LongitudeDegrees>20.31692259013652801513671875</LongitudeDegrees>
            </Position>
            <AltitudeMeters>535.5999755859375</AltitudeMeters>
            <DistanceMeters>NAN</DistanceMeters>
          </Trackpoint>
          <Trackpoint>
            <Time>2022-09-21T08:25:42.000Z</Time>
            <Position>
              <LatitudeDegrees>49.4229370169341564178466796875</LatitudeDegrees>
              <LongitudeDegrees>20.31693910248577594757080078125</LongitudeDegrees>
            </Position>
            <AltitudeMeters>536</AltitudeMeters>
            <DistanceMeters>NAN</DistanceMeters>
          </Trackpoint>
          <Trackpoint>
            <Time>2022-09-21T08:25:44.000Z</Time>
            <Position>
              <LatitudeDegrees>49.4229370169341564178466796875</LatitudeDegrees>
              <LongitudeDegrees>20.31693910248577594757080078125</LongitudeDegrees>
            </Position>
            <AltitudeMeters>536</AltitudeMeters>
            <DistanceMeters>NAN</DistanceMeters>
          </Trackpoint>
          <Trackpoint>
            <Time>2022-09-21T08:26:00.000Z</Time>
            <Position>
              <LatitudeDegrees>49.4229370169341564178466796875</LatitudeDegrees>
              <LongitudeDegrees>20.31693910248577594757080078125</LongitudeDegrees>
            </Position>
            <AltitudeMeters>535.79998779296875</AltitudeMeters>
            <DistanceMeters>NAN</DistanceMeters>
          </Trackpoint>
          <Trackpoint>
            <Time>2022-09-21T08:26:01.000Z</Time>
            <Position>
              <LatitudeDegrees>49.4229370169341564178466796875</LatitudeDegrees>
              <LongitudeDegrees>20.31693910248577594757080078125</LongitudeDegrees>
            </Position>
            <AltitudeMeters>535.79998779296875</AltitudeMeters>
            <DistanceMeters>NAN</DistanceMeters>
          </Trackpoint>
          <Trackpoint>
            <Time>2022-09-21T08:26:05.000Z</Time>
            <Position>
              <LatitudeDegrees>49.4229370169341564178466796875</LatitudeDegrees>
              <LongitudeDegrees>20.316933654248714447021484375</LongitudeDegrees>
            </Position>
            <AltitudeMeters>535.79998779296875</AltitudeMeters>
            <DistanceMeters>NAN</DistanceMeters>
          </Trackpoint>
          <Trackpoint>
            <Time>2022-09-21T08:26:13.000Z</Time>
            <Position>
              <LatitudeDegrees>49.4229360111057758331298828125</LatitudeDegrees>
              <LongitudeDegrees>20.31693340279161930084228515625</LongitudeDegrees>
            </Position>
            <AltitudeMeters>535.79998779296875</AltitudeMeters>
            <DistanceMeters>NAN</DistanceMeters>
          </Trackpoint>
          <Trackpoint>
            <Time>2022-09-21T08:26:15.000Z</Time>
            <Position>
              <LatitudeDegrees>49.4229360111057758331298828125</LatitudeDegrees>
              <LongitudeDegrees>20.31693340279161930084228515625</LongitudeDegrees>
            </Position>
            <AltitudeMeters>535.79998779296875</AltitudeMeters>
            <DistanceMeters>NAN</DistanceMeters>
          </Trackpoint>
          <Trackpoint>
            <Time>2022-09-21T08:26:22.000Z</Time>
            <Position>
              <LatitudeDegrees>49.4229360111057758331298828125</LatitudeDegrees>
              <LongitudeDegrees>20.31693340279161930084228515625</LongitudeDegrees>
            </Position>
            <AltitudeMeters>536</AltitudeMeters>
            <DistanceMeters>NAN</DistanceMeters>
          </Trackpoint>
          <Trackpoint>
            <Time>2022-09-21T08:26:28.000Z</Time>
            <Position>
              <LatitudeDegrees>49.4229360111057758331298828125</LatitudeDegrees>
              <LongitudeDegrees>20.31693340279161930084228515625</LongitudeDegrees>
            </Position>
            <AltitudeMeters>536</AltitudeMeters>
            <DistanceMeters>NAN</DistanceMeters>
          </Trackpoint>
          <Trackpoint>
            <Time>2022-09-21T08:26:52.000Z</Time>
            <Position>
              <LatitudeDegrees>49.4229360111057758331298828125</LatitudeDegrees>
              <LongitudeDegrees>20.31693340279161930084228515625</LongitudeDegrees>
            </Position>
            <AltitudeMeters>536</AltitudeMeters>
            <DistanceMeters>NAN</DistanceMeters>
          </Trackpoint>
          <Trackpoint>
            <Time>2022-09-21T08:27:22.000Z</Time>
            <Position>
              <LatitudeDegrees>49.4229360111057758331298828125</LatitudeDegrees>
              <LongitudeDegrees>20.31693340279161930084228515625</LongitudeDegrees>
            </Position>
            <AltitudeMeters>536</AltitudeMeters>
            <DistanceMeters>NAN</DistanceMeters>
          </Trackpoint>
          <Trackpoint>
            <Time>2022-09-21T08:27:33.000Z</Time>
            <Position>
              <LatitudeDegrees>49.422936849296092987060546875</LatitudeDegrees>
              <LongitudeDegrees>20.3169170580804347991943359375</LongitudeDegrees>
            </Position>
            <AltitudeMeters>536</AltitudeMeters>
            <DistanceMeters>NAN</DistanceMeters>
          </Trackpoint>
          <Trackpoint>
            <Time>2022-09-21T08:27:53.000Z</Time>
            <Position>
              <LatitudeDegrees>49.4229453988373279571533203125</LatitudeDegrees>
              <LongitudeDegrees>20.3168959356844425201416015625</LongitudeDegrees>
            </Position>
            <AltitudeMeters>536</AltitudeMeters>
            <DistanceMeters>NAN</DistanceMeters>
          </Trackpoint>
          <Trackpoint>
            <Time>2022-09-21T08:28:02.000Z</Time>
            <Position>
              <LatitudeDegrees>49.422910027205944061279296875</LatitudeDegrees>
              <LongitudeDegrees>20.31698101200163364410400390625</LongitudeDegrees>
            </Position>
            <AltitudeMeters>536</AltitudeMeters>
            <DistanceMeters>NAN</DistanceMeters>
          </Trackpoint>
          <Trackpoint>
            <Time>2022-09-21T08:28:06.000Z</Time>
            <Position>
              <LatitudeDegrees>49.4229095242917537689208984375</LatitudeDegrees>
              <LongitudeDegrees>20.31698830425739288330078125</LongitudeDegrees>
            </Position>
            <AltitudeMeters>536</AltitudeMeters>
            <DistanceMeters>NAN</DistanceMeters>
          </Trackpoint>
          <Trackpoint>
            <Time>2022-09-21T08:28:08.000Z</Time>
            <Position>
              <LatitudeDegrees>49.4229048304259777069091796875</LatitudeDegrees>
              <LongitudeDegrees>20.31699794344604015350341796875</LongitudeDegrees>
            </Position>
            <AltitudeMeters>536</AltitudeMeters>
            <DistanceMeters>NAN</DistanceMeters>
          </Trackpoint>
          <Trackpoint>
            <Time>2022-09-21T08:28:15.000Z</Time>
            <Position>
              <LatitudeDegrees>49.4229048304259777069091796875</LatitudeDegrees>
              <LongitudeDegrees>20.31699794344604015350341796875</LongitudeDegrees>
            </Position>
            <AltitudeMeters>536</AltitudeMeters>
            <DistanceMeters>NAN</DistanceMeters>
          </Trackpoint>
          <Trackpoint>
            <Time>2022-09-21T08:28:21.000Z</Time>
            <Position>
              <LatitudeDegrees>49.42284875549376010894775390625</LatitudeDegrees>
              <LongitudeDegrees>20.3170629031956195831298828125</LongitudeDegrees>
            </Position>
            <AltitudeMeters>536</AltitudeMeters>
            <DistanceMeters>NAN</DistanceMeters>
          </Trackpoint>
          <Trackpoint>
            <Time>2022-09-21T08:28:29.000Z</Time>
            <Position>
              <LatitudeDegrees>49.42277155816555023193359375</LatitudeDegrees>
              <LongitudeDegrees>20.31709559261798858642578125</LongitudeDegrees>
            </Position>
            <AltitudeMeters>536.79998779296875</AltitudeMeters>
            <DistanceMeters>NAN</DistanceMeters>
          </Trackpoint>
          <Trackpoint>
            <Time>2022-09-21T08:28:30.000Z</Time>
            <Position>
              <LatitudeDegrees>49.42276879213750362396240234375</LatitudeDegrees>
              <LongitudeDegrees>20.31709534116089344024658203125</LongitudeDegrees>
            </Position>
            <AltitudeMeters>537</AltitudeMeters>
            <DistanceMeters>NAN</DistanceMeters>
          </Trackpoint>
          <Trackpoint>
            <Time>2022-09-21T08:28:38.000Z</Time>
            <Position>
              <LatitudeDegrees>49.42276879213750362396240234375</LatitudeDegrees>
              <LongitudeDegrees>20.31709534116089344024658203125</LongitudeDegrees>
            </Position>
            <AltitudeMeters>537.20001220703125</AltitudeMeters>
            <DistanceMeters>NAN</DistanceMeters>
          </Trackpoint>
          <Trackpoint>
            <Time>2022-09-21T08:28:46.000Z</Time>
            <Position>
              <LatitudeDegrees>49.422756135463714599609375</LatitudeDegrees>
              <LongitudeDegrees>20.31710187904536724090576171875</LongitudeDegrees>
            </Position>
            <AltitudeMeters>537.79998779296875</AltitudeMeters>
            <DistanceMeters>NAN</DistanceMeters>
          </Trackpoint>
          <Trackpoint>
            <Time>2022-09-21T08:28:56.000Z</Time>
            <Position>
              <LatitudeDegrees>49.422756135463714599609375</LatitudeDegrees>
              <LongitudeDegrees>20.31709534116089344024658203125</LongitudeDegrees>
            </Position>
            <AltitudeMeters>538.20001220703125</AltitudeMeters>
            <DistanceMeters>NAN</DistanceMeters>
          </Trackpoint>
          <Trackpoint>
            <Time>2022-09-21T08:29:03.000Z</Time>
            <Position>
              <LatitudeDegrees>49.422751776874065399169921875</LatitudeDegrees>
              <LongitudeDegrees>20.317095257341861724853515625</LongitudeDegrees>
            </Position>
            <AltitudeMeters>538.79998779296875</AltitudeMeters>
            <DistanceMeters>NAN</DistanceMeters>
          </Trackpoint>
          <Trackpoint>
            <Time>2022-09-21T08:29:16.000Z</Time>
            <Position>
              <LatitudeDegrees>49.42267902195453643798828125</LatitudeDegrees>
              <LongitudeDegrees>20.317081846296787261962890625</LongitudeDegrees>
            </Position>
            <AltitudeMeters>539.79998779296875</AltitudeMeters>
            <DistanceMeters>NAN</DistanceMeters>
          </Trackpoint>
          <Trackpoint>
            <Time>2022-09-21T08:29:27.000Z</Time>
            <Position>
              <LatitudeDegrees>49.42266938276588916778564453125</LatitudeDegrees>
              <LongitudeDegrees>20.317081846296787261962890625</LongitudeDegrees>
            </Position>
            <AltitudeMeters>540.5999755859375</AltitudeMeters>
            <DistanceMeters>NAN</DistanceMeters>
          </Trackpoint>
          <Trackpoint>
            <Time>2022-09-21T08:29:33.000Z</Time>
            <Position>
              <LatitudeDegrees>49.42266938276588916778564453125</LatitudeDegrees>
              <LongitudeDegrees>20.317081846296787261962890625</LongitudeDegrees>
            </Position>
            <AltitudeMeters>540.79998779296875</AltitudeMeters>
            <DistanceMeters>NAN</DistanceMeters>
          </Trackpoint>
          <Trackpoint>
            <Time>2022-09-21T08:29:43.000Z</Time>
            <Position>
              <LatitudeDegrees>49.42265965975821018218994140625</LatitudeDegrees>
              <LongitudeDegrees>20.3170830197632312774658203125</LongitudeDegrees>
            </Position>
            <AltitudeMeters>541.20001220703125</AltitudeMeters>
            <DistanceMeters>NAN</DistanceMeters>
          </Trackpoint>
          <Trackpoint>
            <Time>2022-09-21T08:29:52.000Z</Time>
            <Position>
              <LatitudeDegrees>49.42265965975821018218994140625</LatitudeDegrees>
              <LongitudeDegrees>20.3170830197632312774658203125</LongitudeDegrees>
            </Position>
            <AltitudeMeters>541.79998779296875</AltitudeMeters>
            <DistanceMeters>NAN</DistanceMeters>
          </Trackpoint>
          <Trackpoint>
            <Time>2022-09-21T08:29:54.000Z</Time>
            <Position>
              <LatitudeDegrees>49.42265965975821018218994140625</LatitudeDegrees>
              <LongitudeDegrees>20.3170830197632312774658203125</LongitudeDegrees>
            </Position>
            <AltitudeMeters>542.20001220703125</AltitudeMeters>
            <DistanceMeters>NAN</DistanceMeters>
          </Trackpoint>
          <Trackpoint>
            <Time>2022-09-21T08:30:00.000Z</Time>
            <Position>
              <LatitudeDegrees>49.4225591607391834259033203125</LatitudeDegrees>
              <LongitudeDegrees>20.3170655854046344757080078125</LongitudeDegrees>
            </Position>
            <AltitudeMeters>543</AltitudeMeters>
            <DistanceMeters>NAN</DistanceMeters>
          </Trackpoint>
          <Trackpoint>
            <Time>2022-09-21T08:30:05.000Z</Time>
            <Position>
              <LatitudeDegrees>49.42245899699628353118896484375</LatitudeDegrees>
              <LongitudeDegrees>20.31704689376056194305419921875</LongitudeDegrees>
            </Position>
            <AltitudeMeters>543.5999755859375</AltitudeMeters>
            <DistanceMeters>NAN</DistanceMeters>
          </Trackpoint>
          <Trackpoint>
            <Time>2022-09-21T08:30:07.000Z</Time>
            <Position>
              <LatitudeDegrees>49.42245899699628353118896484375</LatitudeDegrees>
              <LongitudeDegrees>20.31704689376056194305419921875</LongitudeDegrees>
            </Position>
            <AltitudeMeters>544</AltitudeMeters>
            <DistanceMeters>NAN</DistanceMeters>
          </Trackpoint>
          <Trackpoint>
            <Time>2022-09-21T08:30:09.000Z</Time>
            <Position>
              <LatitudeDegrees>49.42245899699628353118896484375</LatitudeDegrees>
              <LongitudeDegrees>20.31704689376056194305419921875</LongitudeDegrees>
            </Position>
            <AltitudeMeters>544.4000244140625</AltitudeMeters>
            <DistanceMeters>NAN</DistanceMeters>
          </Trackpoint>
          <Trackpoint>
            <Time>2022-09-21T08:30:13.000Z</Time>
            <Position>
              <LatitudeDegrees>49.4224381260573863983154296875</LatitudeDegrees>
              <LongitudeDegrees>20.317035578191280364990234375</LongitudeDegrees>
            </Position>
            <AltitudeMeters>544.5999755859375</AltitudeMeters>
            <DistanceMeters>NAN</DistanceMeters>
          </Trackpoint>
          <Trackpoint>
            <Time>2022-09-21T08:30:17.000Z</Time>
            <Position>
              <LatitudeDegrees>49.4224216975271701812744140625</LatitudeDegrees>
              <LongitudeDegrees>20.31703499145805835723876953125</LongitudeDegrees>
            </Position>
            <AltitudeMeters>545</AltitudeMeters>
            <DistanceMeters>NAN</DistanceMeters>
          </Trackpoint>
          <Trackpoint>
            <Time>2022-09-21T08:30:18.000Z</Time>
            <Position>
              <LatitudeDegrees>49.42240811884403228759765625</LatitudeDegrees>
              <LongitudeDegrees>20.3170236758887767791748046875</LongitudeDegrees>
            </Position>
            <AltitudeMeters>545.20001220703125</AltitudeMeters>
            <DistanceMeters>NAN</DistanceMeters>
          </Trackpoint>
          <Trackpoint>
            <Time>2022-09-21T08:30:19.000Z</Time>
            <Position>
              <LatitudeDegrees>49.42240518517792224884033203125</LatitudeDegrees>
              <LongitudeDegrees>20.31702208332717418670654296875</LongitudeDegrees>
            </Position>
            <AltitudeMeters>545.4000244140625</AltitudeMeters>
            <DistanceMeters>NAN</DistanceMeters>
          </Trackpoint>
          <Trackpoint>
            <Time>2022-09-21T08:30:27.000Z</Time>
            <Position>
              <LatitudeDegrees>49.42240518517792224884033203125</LatitudeDegrees>
              <LongitudeDegrees>20.31702208332717418670654296875</LongitudeDegrees>
            </Position>
            <AltitudeMeters>546</AltitudeMeters>
            <DistanceMeters>NAN</DistanceMeters>
          </Trackpoint>
          <Trackpoint>
            <Time>2022-09-21T08:30:28.000Z</Time>
            <Position>
              <LatitudeDegrees>49.42240518517792224884033203125</LatitudeDegrees>
              <LongitudeDegrees>20.31702208332717418670654296875</LongitudeDegrees>
            </Position>
            <AltitudeMeters>546.20001220703125</AltitudeMeters>
            <DistanceMeters>NAN</DistanceMeters>
          </Trackpoint>
          <Trackpoint>
            <Time>2022-09-21T08:30:33.000Z</Time>
            <Position>
              <LatitudeDegrees>49.42240518517792224884033203125</LatitudeDegrees>
              <LongitudeDegrees>20.31702208332717418670654296875</LongitudeDegrees>
            </Position>
            <AltitudeMeters>546.5999755859375</AltitudeMeters>
            <DistanceMeters>NAN</DistanceMeters>
          </Trackpoint>
          <Trackpoint>
            <Time>2022-09-21T08:30:36.000Z</Time>
            <Position>
              <LatitudeDegrees>49.42240518517792224884033203125</LatitudeDegrees>
              <LongitudeDegrees>20.31702208332717418670654296875</LongitudeDegrees>
            </Position>
            <AltitudeMeters>546.5999755859375</AltitudeMeters>
            <DistanceMeters>NAN</DistanceMeters>
          </Trackpoint>
          <Trackpoint>
            <Time>2022-09-21T08:30:41.000Z</Time>
            <Position>
              <LatitudeDegrees>49.4224052689969539642333984375</LatitudeDegrees>
              <LongitudeDegrees>20.31702208332717418670654296875</LongitudeDegrees>
            </Position>
            <AltitudeMeters>547</AltitudeMeters>
            <DistanceMeters>NAN</DistanceMeters>
          </Trackpoint>
          <Trackpoint>
            <Time>2022-09-21T08:30:43.000Z</Time>
            <Position>
              <LatitudeDegrees>49.42240518517792224884033203125</LatitudeDegrees>
              <LongitudeDegrees>20.31702208332717418670654296875</LongitudeDegrees>
            </Position>
            <AltitudeMeters>547.20001220703125</AltitudeMeters>
            <DistanceMeters>NAN</DistanceMeters>
          </Trackpoint>
          <Trackpoint>
            <Time>2022-09-21T08:30:44.000Z</Time>
            <Position>
              <LatitudeDegrees>49.42240518517792224884033203125</LatitudeDegrees>
              <LongitudeDegrees>20.31702208332717418670654296875</LongitudeDegrees>
            </Position>
            <AltitudeMeters>547.20001220703125</AltitudeMeters>
            <DistanceMeters>NAN</DistanceMeters>
          </Trackpoint>
          <Trackpoint>
            <Time>2022-09-21T08:30:47.000Z</Time>
            <Position>
              <LatitudeDegrees>49.42240518517792224884033203125</LatitudeDegrees>
              <LongitudeDegrees>20.31702208332717418670654296875</LongitudeDegrees>
            </Position>
            <AltitudeMeters>547.5999755859375</AltitudeMeters>
            <DistanceMeters>NAN</DistanceMeters>
          </Trackpoint>
          <Trackpoint>
            <Time>2022-09-21T08:30:49.000Z</Time>
            <Position>
              <LatitudeDegrees>49.42240518517792224884033203125</LatitudeDegrees>
              <LongitudeDegrees>20.31702208332717418670654296875</LongitudeDegrees>
            </Position>
            <AltitudeMeters>547.79998779296875</AltitudeMeters>
            <DistanceMeters>NAN</DistanceMeters>
          </Trackpoint>
          <Trackpoint>
            <Time>2022-09-21T08:30:54.000Z</Time>
            <Position>
              <LatitudeDegrees>49.42237266339361667633056640625</LatitudeDegrees>
              <LongitudeDegrees>20.31703800894320011138916015625</LongitudeDegrees>
            </Position>
            <AltitudeMeters>548.20001220703125</AltitudeMeters>
            <DistanceMeters>NAN</DistanceMeters>
          </Trackpoint>
          <Trackpoint>
            <Time>2022-09-21T08:30:55.000Z</Time>
            <Position>
              <LatitudeDegrees>49.42235791124403476715087890625</LatitudeDegrees>
              <LongitudeDegrees>20.3170431219041347503662109375</LongitudeDegrees>
            </Position>
            <AltitudeMeters>548.4000244140625</AltitudeMeters>
            <DistanceMeters>NAN</DistanceMeters>
          </Trackpoint>
          <Trackpoint>
            <Time>2022-09-21T08:31:04.000Z</Time>
            <Position>
              <LatitudeDegrees>49.42234131507575511932373046875</LatitudeDegrees>
              <LongitudeDegrees>20.31705200672149658203125</LongitudeDegrees>
            </Position>
            <AltitudeMeters>548.79998779296875</AltitudeMeters>
            <DistanceMeters>NAN</DistanceMeters>
          </Trackpoint>
          <Trackpoint>
            <Time>2022-09-21T08:31:05.000Z</Time>
            <Position>
              <LatitudeDegrees>49.42234014160931110382080078125</LatitudeDegrees>
              <LongitudeDegrees>20.31705376692116260528564453125</LongitudeDegrees>
            </Position>
            <AltitudeMeters>548.79998779296875</AltitudeMeters>
            <DistanceMeters>NAN</DistanceMeters>
          </Trackpoint>
          <Trackpoint>
            <Time>2022-09-21T08:31:06.000Z</Time>
            <Position>
              <LatitudeDegrees>49.42234014160931110382080078125</LatitudeDegrees>
              <LongitudeDegrees>20.3170538507401943206787109375</LongitudeDegrees>
            </Position>
            <AltitudeMeters>548.79998779296875</AltitudeMeters>
            <DistanceMeters>NAN</DistanceMeters>
          </Trackpoint>
          <Trackpoint>
            <Time>2022-09-21T08:31:21.000Z</Time>
            <Position>
              <LatitudeDegrees>49.42231734283268451690673828125</LatitudeDegrees>
              <LongitudeDegrees>20.3170672617852687835693359375</LongitudeDegrees>
            </Position>
            <AltitudeMeters>549</AltitudeMeters>
            <DistanceMeters>NAN</DistanceMeters>
          </Trackpoint>
          <Trackpoint>
            <Time>2022-09-21T08:31:23.000Z</Time>
            <Position>
              <LatitudeDegrees>49.42231734283268451690673828125</LatitudeDegrees>
              <LongitudeDegrees>20.3170672617852687835693359375</LongitudeDegrees>
            </Position>
            <AltitudeMeters>549.4000244140625</AltitudeMeters>
            <DistanceMeters>NAN</DistanceMeters>
          </Trackpoint>
          <Trackpoint>
            <Time>2022-09-21T08:31:30.000Z</Time>
            <Position>
              <LatitudeDegrees>49.4222956337034702301025390625</LatitudeDegrees>
              <LongitudeDegrees>20.317087210714817047119140625</LongitudeDegrees>
            </Position>
            <AltitudeMeters>550</AltitudeMeters>
            <DistanceMeters>NAN</DistanceMeters>
          </Trackpoint>
          <Trackpoint>
            <Time>2022-09-21T08:31:31.000Z</Time>
            <Position>
              <LatitudeDegrees>49.4222867488861083984375</LatitudeDegrees>
              <LongitudeDegrees>20.31709567643702030181884765625</LongitudeDegrees>
            </Position>
            <AltitudeMeters>550</AltitudeMeters>
            <DistanceMeters>NAN</DistanceMeters>
          </Trackpoint>
          <Trackpoint>
            <Time>2022-09-21T08:31:36.000Z</Time>
            <Position>
              <LatitudeDegrees>49.422267973423004150390625</LatitudeDegrees>
              <LongitudeDegrees>20.31711830757558345794677734375</LongitudeDegrees>
            </Position>
            <AltitudeMeters>550.4000244140625</AltitudeMeters>
            <DistanceMeters>NAN</DistanceMeters>
          </Trackpoint>
          <Trackpoint>
            <Time>2022-09-21T08:31:47.000Z</Time>
            <Position>
              <LatitudeDegrees>49.4221544824540615081787109375</LatitudeDegrees>
              <LongitudeDegrees>20.31721956096589565277099609375</LongitudeDegrees>
            </Position>
            <AltitudeMeters>550.79998779296875</AltitudeMeters>
            <DistanceMeters>NAN</DistanceMeters>
          </Trackpoint>
          <Trackpoint>
            <Time>2022-09-21T08:31:57.000Z</Time>
            <Position>
              <LatitudeDegrees>49.4221514649689197540283203125</LatitudeDegrees>
              <LongitudeDegrees>20.31721805222332477569580078125</LongitudeDegrees>
            </Position>
            <AltitudeMeters>551.20001220703125</AltitudeMeters>
            <DistanceMeters>NAN</DistanceMeters>
          </Trackpoint>
          <Trackpoint>
            <Time>2022-09-21T08:31:58.000Z</Time>
            <Position>
              <LatitudeDegrees>49.4221514649689197540283203125</LatitudeDegrees>
              <LongitudeDegrees>20.31721805222332477569580078125</LongitudeDegrees>
            </Position>
            <AltitudeMeters>551.20001220703125</AltitudeMeters>
            <DistanceMeters>NAN</DistanceMeters>
          </Trackpoint>
          <Trackpoint>
            <Time>2022-09-21T08:32:08.000Z</Time>
            <Position>
              <LatitudeDegrees>49.4221491180360317230224609375</LatitudeDegrees>
              <LongitudeDegrees>20.3172204829752445220947265625</LongitudeDegrees>
            </Position>
            <AltitudeMeters>551.20001220703125</AltitudeMeters>
            <DistanceMeters>NAN</DistanceMeters>
          </Trackpoint>
          <Trackpoint>
            <Time>2022-09-21T08:32:11.000Z</Time>
            <Position>
              <LatitudeDegrees>49.422145597636699676513671875</LatitudeDegrees>
              <LongitudeDegrees>20.31722509302198886871337890625</LongitudeDegrees>
            </Position>
            <AltitudeMeters>551.4000244140625</AltitudeMeters>
            <DistanceMeters>NAN</DistanceMeters>
          </Trackpoint>
          <Trackpoint>
            <Time>2022-09-21T08:32:12.000Z</Time>
            <Position>
              <LatitudeDegrees>49.4221405684947967529296875</LatitudeDegrees>
              <LongitudeDegrees>20.317231379449367523193359375</LongitudeDegrees>
            </Position>
            <AltitudeMeters>551.4000244140625</AltitudeMeters>
            <DistanceMeters>NAN</DistanceMeters>
          </Trackpoint>
          <Trackpoint>
            <Time>2022-09-21T08:32:14.000Z</Time>
            <Position>
              <LatitudeDegrees>49.42211064510047435760498046875</LatitudeDegrees>
              <LongitudeDegrees>20.31727504916489124298095703125</LongitudeDegrees>
            </Position>
            <AltitudeMeters>551.5999755859375</AltitudeMeters>
            <DistanceMeters>NAN</DistanceMeters>
          </Trackpoint>
          <Trackpoint>
            <Time>2022-09-21T08:32:15.000Z</Time>
            <Position>
              <LatitudeDegrees>49.42210142500698566436767578125</LatitudeDegrees>
              <LongitudeDegrees>20.31729751266539096832275390625</LongitudeDegrees>
            </Position>
            <AltitudeMeters>551.5999755859375</AltitudeMeters>
            <DistanceMeters>NAN</DistanceMeters>
          </Trackpoint>
          <Trackpoint>
            <Time>2022-09-21T08:32:22.000Z</Time>
            <Position>
              <LatitudeDegrees>49.42205314524471759796142578125</LatitudeDegrees>
              <LongitudeDegrees>20.31735149212181568145751953125</LongitudeDegrees>
            </Position>
            <AltitudeMeters>551.5999755859375</AltitudeMeters>
            <DistanceMeters>NAN</DistanceMeters>
          </Trackpoint>
          <Trackpoint>
            <Time>2022-09-21T08:32:23.000Z</Time>
            <Position>
              <LatitudeDegrees>49.4220574200153350830078125</LatitudeDegrees>
              <LongitudeDegrees>20.31734495423734188079833984375</LongitudeDegrees>
            </Position>
            <AltitudeMeters>551.79998779296875</AltitudeMeters>
            <DistanceMeters>NAN</DistanceMeters>
          </Trackpoint>
          <Trackpoint>
            <Time>2022-09-21T08:32:33.000Z</Time>
            <Position>
              <LatitudeDegrees>49.42204845137894153594970703125</LatitudeDegrees>
              <LongitudeDegrees>20.31732492148876190185546875</LongitudeDegrees>
            </Position>
            <AltitudeMeters>551.5999755859375</AltitudeMeters>
            <DistanceMeters>NAN</DistanceMeters>
          </Trackpoint>
          <Trackpoint>
            <Time>2022-09-21T08:32:37.000Z</Time>
            <Position>
              <LatitudeDegrees>49.42204945720732212066650390625</LatitudeDegrees>
              <LongitudeDegrees>20.31732492148876190185546875</LongitudeDegrees>
            </Position>
            <AltitudeMeters>551.5999755859375</AltitudeMeters>
            <DistanceMeters>NAN</DistanceMeters>
          </Trackpoint>
          <Trackpoint>
            <Time>2022-09-21T08:32:39.000Z</Time>
            <Position>
              <LatitudeDegrees>49.42205230705440044403076171875</LatitudeDegrees>
              <LongitudeDegrees>20.31732492148876190185546875</LongitudeDegrees>
            </Position>
            <AltitudeMeters>551.4000244140625</AltitudeMeters>
            <DistanceMeters>NAN</DistanceMeters>
          </Trackpoint>
          <Trackpoint>
            <Time>2022-09-21T08:32:43.000Z</Time>
            <Position>
              <LatitudeDegrees>49.4220601022243499755859375</LatitudeDegrees>
              <LongitudeDegrees>20.31730170361697673797607421875</LongitudeDegrees>
            </Position>
            <AltitudeMeters>551.20001220703125</AltitudeMeters>
            <DistanceMeters>NAN</DistanceMeters>
          </Trackpoint>
          <Trackpoint>
            <Time>2022-09-21T08:32:44.000Z</Time>
            <Position>
              <LatitudeDegrees>49.4220601022243499755859375</LatitudeDegrees>
              <LongitudeDegrees>20.31730170361697673797607421875</LongitudeDegrees>
            </Position>
            <AltitudeMeters>551</AltitudeMeters>
            <DistanceMeters>NAN</DistanceMeters>
          </Trackpoint>
          <Trackpoint>
            <Time>2022-09-21T08:32:49.000Z</Time>
            <Position>
              <LatitudeDegrees>49.4220601022243499755859375</LatitudeDegrees>
              <LongitudeDegrees>20.31730170361697673797607421875</LongitudeDegrees>
            </Position>
            <AltitudeMeters>551.20001220703125</AltitudeMeters>
            <DistanceMeters>NAN</DistanceMeters>
          </Trackpoint>
          <Trackpoint>
            <Time>2022-09-21T08:32:59.000Z</Time>
            <Position>
              <LatitudeDegrees>49.4220595993101596832275390625</LatitudeDegrees>
              <LongitudeDegrees>20.31729633919894695281982421875</LongitudeDegrees>
            </Position>
            <AltitudeMeters>552.20001220703125</AltitudeMeters>
            <DistanceMeters>NAN</DistanceMeters>
          </Trackpoint>
          <Trackpoint>
            <Time>2022-09-21T08:33:02.000Z</Time>
            <Position>
              <LatitudeDegrees>49.4220595993101596832275390625</LatitudeDegrees>
              <LongitudeDegrees>20.31729633919894695281982421875</LongitudeDegrees>
            </Position>
            <AltitudeMeters>552.5999755859375</AltitudeMeters>
            <DistanceMeters>NAN</DistanceMeters>
          </Trackpoint>
          <Trackpoint>
            <Time>2022-09-21T08:33:08.000Z</Time>
            <Position>
              <LatitudeDegrees>49.4220595993101596832275390625</LatitudeDegrees>
              <LongitudeDegrees>20.31727706082165241241455078125</LongitudeDegrees>
            </Position>
            <AltitudeMeters>552.79998779296875</AltitudeMeters>
            <DistanceMeters>NAN</DistanceMeters>
          </Trackpoint>
          <Trackpoint>
            <Time>2022-09-21T08:33:13.000Z</Time>
            <Position>
              <LatitudeDegrees>49.422053061425685882568359375</LatitudeDegrees>
              <LongitudeDegrees>20.31727337278425693511962890625</LongitudeDegrees>
            </Position>
            <AltitudeMeters>553.5999755859375</AltitudeMeters>
            <DistanceMeters>NAN</DistanceMeters>
          </Trackpoint>
          <Trackpoint>
            <Time>2022-09-21T08:33:14.000Z</Time>
            <Position>
              <LatitudeDegrees>49.42204694263637065887451171875</LatitudeDegrees>
              <LongitudeDegrees>20.317270942032337188720703125</LongitudeDegrees>
            </Position>
            <AltitudeMeters>553.5999755859375</AltitudeMeters>
            <DistanceMeters>NAN</DistanceMeters>
          </Trackpoint>
          <Trackpoint>
            <Time>2022-09-21T08:33:17.000Z</Time>
            <Position>
              <LatitudeDegrees>49.42203453741967678070068359375</LatitudeDegrees>
              <LongitudeDegrees>20.3172707743942737579345703125</LongitudeDegrees>
            </Position>
            <AltitudeMeters>554</AltitudeMeters>
            <DistanceMeters>NAN</DistanceMeters>
          </Trackpoint>
          <Trackpoint>
            <Time>2022-09-21T08:33:20.000Z</Time>
            <Position>
              <LatitudeDegrees>49.42203302867710590362548828125</LatitudeDegrees>
              <LongitudeDegrees>20.31727152876555919647216796875</LongitudeDegrees>
            </Position>
            <AltitudeMeters>554</AltitudeMeters>
            <DistanceMeters>NAN</DistanceMeters>
          </Trackpoint>
          <Trackpoint>
            <Time>2022-09-21T08:33:25.000Z</Time>
            <Position>
              <LatitudeDegrees>49.422030262649059295654296875</LatitudeDegrees>
              <LongitudeDegrees>20.31727152876555919647216796875</LongitudeDegrees>
            </Position>
            <AltitudeMeters>554.20001220703125</AltitudeMeters>
            <DistanceMeters>NAN</DistanceMeters>
          </Trackpoint>
          <Trackpoint>
            <Time>2022-09-21T08:33:30.000Z</Time>
            <Position>
              <LatitudeDegrees>49.4220237247645854949951171875</LatitudeDegrees>
              <LongitudeDegrees>20.3172717802226543426513671875</LongitudeDegrees>
            </Position>
            <AltitudeMeters>554.20001220703125</AltitudeMeters>
            <DistanceMeters>NAN</DistanceMeters>
          </Trackpoint>
          <Trackpoint>
            <Time>2022-09-21T08:33:58.000Z</Time>
            <Position>
              <LatitudeDegrees>49.42202045582234859466552734375</LatitudeDegrees>
              <LongitudeDegrees>20.317274294793605804443359375</LongitudeDegrees>
            </Position>
            <AltitudeMeters>554</AltitudeMeters>
            <DistanceMeters>NAN</DistanceMeters>
          </Trackpoint>
          <Trackpoint>
            <Time>2022-09-21T08:34:09.000Z</Time>
            <Position>
              <LatitudeDegrees>49.42202045582234859466552734375</LatitudeDegrees>
              <LongitudeDegrees>20.317274294793605804443359375</LongitudeDegrees>
            </Position>
            <AltitudeMeters>554.20001220703125</AltitudeMeters>
            <DistanceMeters>NAN</DistanceMeters>
          </Trackpoint>
          <Trackpoint>
            <Time>2022-09-21T08:34:16.000Z</Time>
            <Position>
              <LatitudeDegrees>49.42202045582234859466552734375</LatitudeDegrees>
              <LongitudeDegrees>20.317274294793605804443359375</LongitudeDegrees>
            </Position>
            <AltitudeMeters>554.20001220703125</AltitudeMeters>
            <DistanceMeters>NAN</DistanceMeters>
          </Trackpoint>
          <Trackpoint>
            <Time>2022-09-21T08:34:57.000Z</Time>
            <Position>
              <LatitudeDegrees>49.42201693542301654815673828125</LatitudeDegrees>
              <LongitudeDegrees>20.31727706082165241241455078125</LongitudeDegrees>
            </Position>
            <AltitudeMeters>554.4000244140625</AltitudeMeters>
            <DistanceMeters>NAN</DistanceMeters>
          </Trackpoint>
          <Trackpoint>
            <Time>2022-09-21T08:35:11.000Z</Time>
            <Position>
              <LatitudeDegrees>49.42197770811617374420166015625</LatitudeDegrees>
              <LongitudeDegrees>20.31734243966639041900634765625</LongitudeDegrees>
            </Position>
            <AltitudeMeters>554.4000244140625</AltitudeMeters>
            <DistanceMeters>NAN</DistanceMeters>
          </Trackpoint>
          <Trackpoint>
            <Time>2022-09-21T08:35:19.000Z</Time>
            <Position>
              <LatitudeDegrees>49.4218738563358783721923828125</LatitudeDegrees>
              <LongitudeDegrees>20.31749448738992214202880859375</LongitudeDegrees>
            </Position>
            <AltitudeMeters>554.4000244140625</AltitudeMeters>
            <DistanceMeters>NAN</DistanceMeters>
          </Trackpoint>
          <Trackpoint>
            <Time>2022-09-21T08:35:22.000Z</Time>
            <Position>
              <LatitudeDegrees>49.4218104891479015350341796875</LatitudeDegrees>
              <LongitudeDegrees>20.3175353072583675384521484375</LongitudeDegrees>
            </Position>
            <AltitudeMeters>554.4000244140625</AltitudeMeters>
            <DistanceMeters>NAN</DistanceMeters>
          </Trackpoint>
          <Trackpoint>
            <Time>2022-09-21T08:35:26.000Z</Time>
            <Position>
              <LatitudeDegrees>49.421750642359256744384765625</LatitudeDegrees>
              <LongitudeDegrees>20.317507646977901458740234375</LongitudeDegrees>
            </Position>
            <AltitudeMeters>554.4000244140625</AltitudeMeters>
            <DistanceMeters>NAN</DistanceMeters>
          </Trackpoint>
          <Trackpoint>
            <Time>2022-09-21T08:35:28.000Z</Time>
            <Position>
              <LatitudeDegrees>49.4217451103031635284423828125</LatitudeDegrees>
              <LongitudeDegrees>20.31749784015119075775146484375</LongitudeDegrees>
            </Position>
            <AltitudeMeters>554.4000244140625</AltitudeMeters>
            <DistanceMeters>NAN</DistanceMeters>
          </Trackpoint>
          <Trackpoint>
            <Time>2022-09-21T08:35:31.000Z</Time>
            <Position>
              <LatitudeDegrees>49.4217454455792903900146484375</LatitudeDegrees>
              <LongitudeDegrees>20.31750404275953769683837890625</LongitudeDegrees>
            </Position>
            <AltitudeMeters>554.5999755859375</AltitudeMeters>
            <DistanceMeters>NAN</DistanceMeters>
          </Trackpoint>
          <Trackpoint>
            <Time>2022-09-21T08:35:33.000Z</Time>
            <Position>
              <LatitudeDegrees>49.42174494266510009765625</LatitudeDegrees>
              <LongitudeDegrees>20.3175192140042781829833984375</LongitudeDegrees>
            </Position>
            <AltitudeMeters>554.79998779296875</AltitudeMeters>
            <DistanceMeters>NAN</DistanceMeters>
          </Trackpoint>
          <Trackpoint>
            <Time>2022-09-21T08:35:36.000Z</Time>
            <Position>
              <LatitudeDegrees>49.4217548333108425140380859375</LatitudeDegrees>
              <LongitudeDegrees>20.31757025979459285736083984375</LongitudeDegrees>
            </Position>
            <AltitudeMeters>555</AltitudeMeters>
            <DistanceMeters>NAN</DistanceMeters>
          </Trackpoint>
          <Trackpoint>
            <Time>2022-09-21T08:35:41.000Z</Time>
            <Position>
              <LatitudeDegrees>49.42172574810683727264404296875</LatitudeDegrees>
              <LongitudeDegrees>20.31763915903866291046142578125</LongitudeDegrees>
            </Position>
            <AltitudeMeters>555.20001220703125</AltitudeMeters>
            <DistanceMeters>NAN</DistanceMeters>
          </Trackpoint>
          <Trackpoint>
            <Time>2022-09-21T08:35:43.000Z</Time>
            <Position>
              <LatitudeDegrees>49.4217092357575893402099609375</LatitudeDegrees>
              <LongitudeDegrees>20.3176623769104480743408203125</LongitudeDegrees>
            </Position>
            <AltitudeMeters>555.20001220703125</AltitudeMeters>
            <DistanceMeters>NAN</DistanceMeters>
          </Trackpoint>
          <Trackpoint>
            <Time>2022-09-21T08:35:45.000Z</Time>
            <Position>
              <LatitudeDegrees>49.42169792018830776214599609375</LatitudeDegrees>
              <LongitudeDegrees>20.317684672772884368896484375</LongitudeDegrees>
            </Position>
            <AltitudeMeters>555.4000244140625</AltitudeMeters>
            <DistanceMeters>NAN</DistanceMeters>
          </Trackpoint>
          <Trackpoint>
            <Time>2022-09-21T08:35:46.000Z</Time>
            <Position>
              <LatitudeDegrees>49.42168585024774074554443359375</LatitudeDegrees>
              <LongitudeDegrees>20.3176863491535186767578125</LongitudeDegrees>
            </Position>
            <AltitudeMeters>555.4000244140625</AltitudeMeters>
            <DistanceMeters>NAN</DistanceMeters>
          </Trackpoint>
          <Trackpoint>
            <Time>2022-09-21T08:35:47.000Z</Time>
            <Position>
              <LatitudeDegrees>49.42167663015425205230712890625</LatitudeDegrees>
              <LongitudeDegrees>20.3176928870379924774169921875</LongitudeDegrees>
            </Position>
            <AltitudeMeters>555.5999755859375</AltitudeMeters>
            <DistanceMeters>NAN</DistanceMeters>
          </Trackpoint>
          <Trackpoint>
            <Time>2022-09-21T08:35:49.000Z</Time>
            <Position>
              <LatitudeDegrees>49.421661794185638427734375</LatitudeDegrees>
              <LongitudeDegrees>20.3177109919488430023193359375</LongitudeDegrees>
            </Position>
            <AltitudeMeters>555.5999755859375</AltitudeMeters>
            <DistanceMeters>NAN</DistanceMeters>
          </Trackpoint>
          <Trackpoint>
            <Time>2022-09-21T08:35:50.000Z</Time>
            <Position>
              <LatitudeDegrees>49.42165785469114780426025390625</LatitudeDegrees>
              <LongitudeDegrees>20.317722223699092864990234375</LongitudeDegrees>
            </Position>
            <AltitudeMeters>555.5999755859375</AltitudeMeters>
            <DistanceMeters>NAN</DistanceMeters>
          </Trackpoint>
          <Trackpoint>
            <Time>2022-09-21T08:35:51.000Z</Time>
            <Position>
              <LatitudeDegrees>49.42165249027311801910400390625</LatitudeDegrees>
              <LongitudeDegrees>20.3177327848970890045166015625</LongitudeDegrees>
            </Position>
            <AltitudeMeters>555.79998779296875</AltitudeMeters>
            <DistanceMeters>NAN</DistanceMeters>
          </Trackpoint>
          <Trackpoint>
            <Time>2022-09-21T08:35:53.000Z</Time>
            <Position>
              <LatitudeDegrees>49.42164880223572254180908203125</LatitudeDegrees>
              <LongitudeDegrees>20.3177394904196262359619140625</LongitudeDegrees>
            </Position>
            <AltitudeMeters>555.79998779296875</AltitudeMeters>
            <DistanceMeters>NAN</DistanceMeters>
          </Trackpoint>
          <Trackpoint>
            <Time>2022-09-21T08:35:56.000Z</Time>
            <Position>
              <LatitudeDegrees>49.42164310254156589508056640625</LatitudeDegrees>
              <LongitudeDegrees>20.31777729280292987823486328125</LongitudeDegrees>
            </Position>
            <AltitudeMeters>555.79998779296875</AltitudeMeters>
            <DistanceMeters>NAN</DistanceMeters>
          </Trackpoint>
          <Trackpoint>
            <Time>2022-09-21T08:36:02.000Z</Time>
            <Position>
              <LatitudeDegrees>49.42161820828914642333984375</LatitudeDegrees>
              <LongitudeDegrees>20.31786815263330936431884765625</LongitudeDegrees>
            </Position>
            <AltitudeMeters>556</AltitudeMeters>
            <DistanceMeters>NAN</DistanceMeters>
          </Trackpoint>
          <Trackpoint>
            <Time>2022-09-21T08:36:07.000Z</Time>
            <Position>
              <LatitudeDegrees>49.42160991020500659942626953125</LatitudeDegrees>
              <LongitudeDegrees>20.31790687702596187591552734375</LongitudeDegrees>
            </Position>
            <AltitudeMeters>556</AltitudeMeters>
            <DistanceMeters>NAN</DistanceMeters>
          </Trackpoint>
          <Trackpoint>
            <Time>2022-09-21T08:36:14.000Z</Time>
            <Position>
              <LatitudeDegrees>49.42159264348447322845458984375</LatitudeDegrees>
              <LongitudeDegrees>20.31794711016118526458740234375</LongitudeDegrees>
            </Position>
            <AltitudeMeters>556.20001220703125</AltitudeMeters>
            <DistanceMeters>NAN</DistanceMeters>
          </Trackpoint>
          <Trackpoint>
            <Time>2022-09-21T08:36:21.000Z</Time>
            <Position>
              <LatitudeDegrees>49.421569593250751495361328125</LatitudeDegrees>
              <LongitudeDegrees>20.31805515289306640625</LongitudeDegrees>
            </Position>
            <AltitudeMeters>556</AltitudeMeters>
            <DistanceMeters>NAN</DistanceMeters>
          </Trackpoint>
          <Trackpoint>
            <Time>2022-09-21T08:36:28.000Z</Time>
            <Position>
              <LatitudeDegrees>49.42155182361602783203125</LatitudeDegrees>
              <LongitudeDegrees>20.31816034577786922454833984375</LongitudeDegrees>
            </Position>
            <AltitudeMeters>556</AltitudeMeters>
            <DistanceMeters>NAN</DistanceMeters>
          </Trackpoint>
          <Trackpoint>
            <Time>2022-09-21T08:36:32.000Z</Time>
            <Position>
              <LatitudeDegrees>49.42154620774090290069580078125</LatitudeDegrees>
              <LongitudeDegrees>20.31823494471609592437744140625</LongitudeDegrees>
            </Position>
            <AltitudeMeters>556</AltitudeMeters>
            <DistanceMeters>NAN</DistanceMeters>
          </Trackpoint>
          <Trackpoint>
            <Time>2022-09-21T08:36:35.000Z</Time>
            <Position>
              <LatitudeDegrees>49.4215395860373973846435546875</LatitudeDegrees>
              <LongitudeDegrees>20.31827710568904876708984375</LongitudeDegrees>
            </Position>
            <AltitudeMeters>555.79998779296875</AltitudeMeters>
            <DistanceMeters>NAN</DistanceMeters>
          </Trackpoint>
          <Trackpoint>
            <Time>2022-09-21T08:36:40.000Z</Time>
            <Position>
              <LatitudeDegrees>49.4215643964707851409912109375</LatitudeDegrees>
              <LongitudeDegrees>20.318346507847309112548828125</LongitudeDegrees>
            </Position>
            <AltitudeMeters>555.79998779296875</AltitudeMeters>
            <DistanceMeters>NAN</DistanceMeters>
          </Trackpoint>
          <Trackpoint>
            <Time>2022-09-21T08:36:46.000Z</Time>
            <Position>
              <LatitudeDegrees>49.421603120863437652587890625</LatitudeDegrees>
              <LongitudeDegrees>20.31843527220189571380615234375</LongitudeDegrees>
            </Position>
            <AltitudeMeters>555.5999755859375</AltitudeMeters>
            <DistanceMeters>NAN</DistanceMeters>
          </Trackpoint>
          <Trackpoint>
            <Time>2022-09-21T08:36:50.000Z</Time>
            <Position>
              <LatitudeDegrees>49.42161259241402149200439453125</LatitudeDegrees>
              <LongitudeDegrees>20.318456478416919708251953125</LongitudeDegrees>
            </Position>
            <AltitudeMeters>555.79998779296875</AltitudeMeters>
            <DistanceMeters>NAN</DistanceMeters>
          </Trackpoint>
          <Trackpoint>
            <Time>2022-09-21T08:36:56.000Z</Time>
            <Position>
              <LatitudeDegrees>49.42161259241402149200439453125</LatitudeDegrees>
              <LongitudeDegrees>20.318456478416919708251953125</LongitudeDegrees>
            </Position>
            <AltitudeMeters>555.5999755859375</AltitudeMeters>
            <DistanceMeters>NAN</DistanceMeters>
          </Trackpoint>
          <Trackpoint>
            <Time>2022-09-21T08:37:00.000Z</Time>
            <Position>
              <LatitudeDegrees>49.42161259241402149200439453125</LatitudeDegrees>
              <LongitudeDegrees>20.318456478416919708251953125</LongitudeDegrees>
            </Position>
            <AltitudeMeters>555.5999755859375</AltitudeMeters>
            <DistanceMeters>NAN</DistanceMeters>
          </Trackpoint>
          <Trackpoint>
            <Time>2022-09-21T08:37:02.000Z</Time>
            <Position>
              <LatitudeDegrees>49.42161259241402149200439453125</LatitudeDegrees>
              <LongitudeDegrees>20.318456478416919708251953125</LongitudeDegrees>
            </Position>
            <AltitudeMeters>555.5999755859375</AltitudeMeters>
            <DistanceMeters>NAN</DistanceMeters>
          </Trackpoint>
          <Trackpoint>
            <Time>2022-09-21T08:37:11.000Z</Time>
            <Position>
              <LatitudeDegrees>49.42161259241402149200439453125</LatitudeDegrees>
              <LongitudeDegrees>20.318456478416919708251953125</LongitudeDegrees>
            </Position>
            <AltitudeMeters>555.5999755859375</AltitudeMeters>
            <DistanceMeters>NAN</DistanceMeters>
          </Trackpoint>
          <Trackpoint>
            <Time>2022-09-21T08:37:12.000Z</Time>
            <Position>
              <LatitudeDegrees>49.42161259241402149200439453125</LatitudeDegrees>
              <LongitudeDegrees>20.318456478416919708251953125</LongitudeDegrees>
            </Position>
            <AltitudeMeters>555.79998779296875</AltitudeMeters>
            <DistanceMeters>NAN</DistanceMeters>
          </Trackpoint>
          <Trackpoint>
            <Time>2022-09-21T08:37:20.000Z</Time>
            <Position>
              <LatitudeDegrees>49.42161024548113346099853515625</LatitudeDegrees>
              <LongitudeDegrees>20.3184588253498077392578125</LongitudeDegrees>
            </Position>
            <AltitudeMeters>555.5999755859375</AltitudeMeters>
            <DistanceMeters>NAN</DistanceMeters>
          </Trackpoint>
          <Trackpoint>
            <Time>2022-09-21T08:37:24.000Z</Time>
            <Position>
              <LatitudeDegrees>49.4216039590537548065185546875</LatitudeDegrees>
              <LongitudeDegrees>20.3184801153838634490966796875</LongitudeDegrees>
            </Position>
            <AltitudeMeters>555.4000244140625</AltitudeMeters>
            <DistanceMeters>NAN</DistanceMeters>
          </Trackpoint>
          <Trackpoint>
            <Time>2022-09-21T08:37:42.000Z</Time>
            <Position>
              <LatitudeDegrees>49.421587698161602020263671875</LatitudeDegrees>
              <LongitudeDegrees>20.318481288850307464599609375</LongitudeDegrees>
            </Position>
            <AltitudeMeters>555.5999755859375</AltitudeMeters>
            <DistanceMeters>NAN</DistanceMeters>
          </Trackpoint>
          <Trackpoint>
            <Time>2022-09-21T08:38:00.000Z</Time>
            <Position>
              <LatitudeDegrees>49.42158375866711139678955078125</LatitudeDegrees>
              <LongitudeDegrees>20.318485312163829803466796875</LongitudeDegrees>
            </Position>
            <AltitudeMeters>555.4000244140625</AltitudeMeters>
            <DistanceMeters>NAN</DistanceMeters>
          </Trackpoint>
          <Trackpoint>
            <Time>2022-09-21T08:38:34.000Z</Time>
            <Position>
              <LatitudeDegrees>49.42155442200601100921630859375</LatitudeDegrees>
              <LongitudeDegrees>20.31856619752943515777587890625</LongitudeDegrees>
            </Position>
            <AltitudeMeters>555.5999755859375</AltitudeMeters>
            <DistanceMeters>NAN</DistanceMeters>
          </Trackpoint>
          <Trackpoint>
            <Time>2022-09-21T08:38:39.000Z</Time>
            <Position>
              <LatitudeDegrees>49.4215436093509197235107421875</LatitudeDegrees>
              <LongitudeDegrees>20.3187282197177410125732421875</LongitudeDegrees>
            </Position>
            <AltitudeMeters>555.4000244140625</AltitudeMeters>
            <DistanceMeters>NAN</DistanceMeters>
          </Trackpoint>
          <Trackpoint>
            <Time>2022-09-21T08:38:47.000Z</Time>
            <Position>
              <LatitudeDegrees>49.421514607965946197509765625</LatitudeDegrees>
              <LongitudeDegrees>20.3190061636269092559814453125</LongitudeDegrees>
            </Position>
            <AltitudeMeters>555</AltitudeMeters>
            <DistanceMeters>NAN</DistanceMeters>
          </Trackpoint>
          <Trackpoint>
            <Time>2022-09-21T08:38:50.000Z</Time>
            <Position>
              <LatitudeDegrees>49.4215147756040096282958984375</LatitudeDegrees>
              <LongitudeDegrees>20.3191067464649677276611328125</LongitudeDegrees>
            </Position>
            <AltitudeMeters>554.5999755859375</AltitudeMeters>
            <DistanceMeters>NAN</DistanceMeters>
          </Trackpoint>
          <Trackpoint>
            <Time>2022-09-21T08:38:56.000Z</Time>
            <Position>
              <LatitudeDegrees>49.42146188579499721527099609375</LatitudeDegrees>
              <LongitudeDegrees>20.31927949748933315277099609375</LongitudeDegrees>
            </Position>
            <AltitudeMeters>553.79998779296875</AltitudeMeters>
            <DistanceMeters>NAN</DistanceMeters>
          </Trackpoint>
          <Trackpoint>
            <Time>2022-09-21T08:38:57.000Z</Time>
            <Position>
              <LatitudeDegrees>49.42145501263439655303955078125</LatitudeDegrees>
              <LongitudeDegrees>20.3193082474172115325927734375</LongitudeDegrees>
            </Position>
            <AltitudeMeters>553.5999755859375</AltitudeMeters>
            <DistanceMeters>NAN</DistanceMeters>
          </Trackpoint>
          <Trackpoint>
            <Time>2022-09-21T08:39:02.000Z</Time>
            <Position>
              <LatitudeDegrees>49.42137907259166240692138671875</LatitudeDegrees>
              <LongitudeDegrees>20.31948200426995754241943359375</LongitudeDegrees>
            </Position>
            <AltitudeMeters>552.5999755859375</AltitudeMeters>
            <DistanceMeters>NAN</DistanceMeters>
          </Trackpoint>
          <Trackpoint>
            <Time>2022-09-21T08:39:04.000Z</Time>
            <Position>
              <LatitudeDegrees>49.421328194439411163330078125</LatitudeDegrees>
              <LongitudeDegrees>20.3195358999073505401611328125</LongitudeDegrees>
            </Position>
            <AltitudeMeters>552.20001220703125</AltitudeMeters>
            <DistanceMeters>NAN</DistanceMeters>
          </Trackpoint>
          <Trackpoint>
            <Time>2022-09-21T08:39:08.000Z</Time>
            <Position>
              <LatitudeDegrees>49.42124278284609317779541015625</LatitudeDegrees>
              <LongitudeDegrees>20.31962365843355655670166015625</LongitudeDegrees>
            </Position>
            <AltitudeMeters>551.4000244140625</AltitudeMeters>
            <DistanceMeters>NAN</DistanceMeters>
          </Trackpoint>
          <Trackpoint>
            <Time>2022-09-21T08:39:12.000Z</Time>
            <Position>
              <LatitudeDegrees>49.42114806734025478363037109375</LatitudeDegrees>
              <LongitudeDegrees>20.31971066258847713470458984375</LongitudeDegrees>
            </Position>
            <AltitudeMeters>550.79998779296875</AltitudeMeters>
            <DistanceMeters>NAN</DistanceMeters>
          </Trackpoint>
          <Trackpoint>
            <Time>2022-09-21T08:39:15.000Z</Time>
            <Position>
              <LatitudeDegrees>49.42107179202139377593994140625</LatitudeDegrees>
              <LongitudeDegrees>20.3197622112929821014404296875</LongitudeDegrees>
            </Position>
            <AltitudeMeters>550.4000244140625</AltitudeMeters>
            <DistanceMeters>NAN</DistanceMeters>
          </Trackpoint>
          <Trackpoint>
            <Time>2022-09-21T08:39:19.000Z</Time>
            <Position>
              <LatitudeDegrees>49.42094991914927959442138671875</LatitudeDegrees>
              <LongitudeDegrees>20.31982197426259517669677734375</LongitudeDegrees>
            </Position>
            <AltitudeMeters>549.5999755859375</AltitudeMeters>
            <DistanceMeters>NAN</DistanceMeters>
          </Trackpoint>
          <Trackpoint>
            <Time>2022-09-21T08:39:21.000Z</Time>
            <Position>
              <LatitudeDegrees>49.42089091055095195770263671875</LatitudeDegrees>
              <LongitudeDegrees>20.319858603179454803466796875</LongitudeDegrees>
            </Position>
            <AltitudeMeters>549</AltitudeMeters>
            <DistanceMeters>NAN</DistanceMeters>
          </Trackpoint>
          <Trackpoint>
            <Time>2022-09-21T08:39:25.000Z</Time>
            <Position>
              <LatitudeDegrees>49.42077733576297760009765625</LatitudeDegrees>
              <LongitudeDegrees>20.3199268318712711334228515625</LongitudeDegrees>
            </Position>
            <AltitudeMeters>548</AltitudeMeters>
            <DistanceMeters>NAN</DistanceMeters>
          </Trackpoint>
          <Trackpoint>
            <Time>2022-09-21T08:39:27.000Z</Time>
            <Position>
              <LatitudeDegrees>49.42071966826915740966796875</LatitudeDegrees>
              <LongitudeDegrees>20.319957844913005828857421875</LongitudeDegrees>
            </Position>
            <AltitudeMeters>547.5999755859375</AltitudeMeters>
            <DistanceMeters>NAN</DistanceMeters>
          </Trackpoint>
          <Trackpoint>
            <Time>2022-09-21T08:39:30.000Z</Time>
            <Position>
              <LatitudeDegrees>49.4206197559833526611328125</LatitudeDegrees>
              <LongitudeDegrees>20.32001174055039882659912109375</LongitudeDegrees>
            </Position>
            <AltitudeMeters>546.79998779296875</AltitudeMeters>
            <DistanceMeters>NAN</DistanceMeters>
          </Trackpoint>
          <Trackpoint>
            <Time>2022-09-21T08:39:32.000Z</Time>
            <Position>
              <LatitudeDegrees>49.42054758779704570770263671875</LatitudeDegrees>
              <LongitudeDegrees>20.32005616463720798492431640625</LongitudeDegrees>
            </Position>
            <AltitudeMeters>546</AltitudeMeters>
            <DistanceMeters>NAN</DistanceMeters>
          </Trackpoint>
          <Trackpoint>
            <Time>2022-09-21T08:39:34.000Z</Time>
            <Position>
              <LatitudeDegrees>49.420470893383026123046875</LatitudeDegrees>
              <LongitudeDegrees>20.32009723596274852752685546875</LongitudeDegrees>
            </Position>
            <AltitudeMeters>545.5999755859375</AltitudeMeters>
            <DistanceMeters>NAN</DistanceMeters>
          </Trackpoint>
          <Trackpoint>
            <Time>2022-09-21T08:39:37.000Z</Time>
            <Position>
              <LatitudeDegrees>49.42036720924079418182373046875</LatitudeDegrees>
              <LongitudeDegrees>20.32014015130698680877685546875</LongitudeDegrees>
            </Position>
            <AltitudeMeters>544.5999755859375</AltitudeMeters>
            <DistanceMeters>NAN</DistanceMeters>
          </Trackpoint>
          <Trackpoint>
            <Time>2022-09-21T08:39:38.000Z</Time>
            <Position>
              <LatitudeDegrees>49.420331418514251708984375</LatitudeDegrees>
              <LongitudeDegrees>20.3201618604362010955810546875</LongitudeDegrees>
            </Position>
            <AltitudeMeters>544.4000244140625</AltitudeMeters>
            <DistanceMeters>NAN</DistanceMeters>
          </Trackpoint>
          <Trackpoint>
            <Time>2022-09-21T08:39:41.000Z</Time>
            <Position>
              <LatitudeDegrees>49.420241229236125946044921875</LatitudeDegrees>
              <LongitudeDegrees>20.3202027641236782073974609375</LongitudeDegrees>
            </Position>
            <AltitudeMeters>543.20001220703125</AltitudeMeters>
            <DistanceMeters>NAN</DistanceMeters>
          </Trackpoint>
          <Trackpoint>
            <Time>2022-09-21T08:39:45.000Z</Time>
            <Position>
              <LatitudeDegrees>49.42009278573095798492431640625</LatitudeDegrees>
              <LongitudeDegrees>20.320242159068584442138671875</LongitudeDegrees>
            </Position>
            <AltitudeMeters>542.5999755859375</AltitudeMeters>
            <DistanceMeters>NAN</DistanceMeters>
          </Trackpoint>
          <Trackpoint>
            <Time>2022-09-21T08:39:47.000Z</Time>
            <Position>
              <LatitudeDegrees>49.42001919262111186981201171875</LatitudeDegrees>
              <LongitudeDegrees>20.3202564083039760589599609375</LongitudeDegrees>
            </Position>
            <AltitudeMeters>542.20001220703125</AltitudeMeters>
            <DistanceMeters>NAN</DistanceMeters>
          </Trackpoint>
          <Trackpoint>
            <Time>2022-09-21T08:39:51.000Z</Time>
            <Position>
              <LatitudeDegrees>49.41988281905651092529296875</LatitudeDegrees>
              <LongitudeDegrees>20.32025112770497798919677734375</LongitudeDegrees>
            </Position>
            <AltitudeMeters>541.20001220703125</AltitudeMeters>
            <DistanceMeters>NAN</DistanceMeters>
          </Trackpoint>
          <Trackpoint>
            <Time>2022-09-21T08:39:52.000Z</Time>
            <Position>
              <LatitudeDegrees>49.4198461063206195831298828125</LatitudeDegrees>
              <LongitudeDegrees>20.32025263644754886627197265625</LongitudeDegrees>
            </Position>
            <AltitudeMeters>541</AltitudeMeters>
            <DistanceMeters>NAN</DistanceMeters>
          </Trackpoint>
          <Trackpoint>
            <Time>2022-09-21T08:39:57.000Z</Time>
            <Position>
              <LatitudeDegrees>49.41970118321478366851806640625</LatitudeDegrees>
              <LongitudeDegrees>20.3201806358993053436279296875</LongitudeDegrees>
            </Position>
            <AltitudeMeters>540</AltitudeMeters>
            <DistanceMeters>NAN</DistanceMeters>
          </Trackpoint>
          <Trackpoint>
            <Time>2022-09-21T08:39:59.000Z</Time>
            <Position>
              <LatitudeDegrees>49.41963345743715763092041015625</LatitudeDegrees>
              <LongitudeDegrees>20.32015456818044185638427734375</LongitudeDegrees>
            </Position>
            <AltitudeMeters>539.5999755859375</AltitudeMeters>
            <DistanceMeters>NAN</DistanceMeters>
          </Trackpoint>
          <Trackpoint>
            <Time>2022-09-21T08:40:02.000Z</Time>
            <Position>
              <LatitudeDegrees>49.4195379875600337982177734375</LatitudeDegrees>
              <LongitudeDegrees>20.3200854174792766571044921875</LongitudeDegrees>
            </Position>
            <AltitudeMeters>539.20001220703125</AltitudeMeters>
            <DistanceMeters>NAN</DistanceMeters>
          </Trackpoint>
          <Trackpoint>
            <Time>2022-09-21T08:40:03.000Z</Time>
            <Position>
              <LatitudeDegrees>49.41950957290828227996826171875</LatitudeDegrees>
              <LongitudeDegrees>20.32005163840949535369873046875</LongitudeDegrees>
            </Position>
            <AltitudeMeters>539</AltitudeMeters>
            <DistanceMeters>NAN</DistanceMeters>
          </Trackpoint>
          <Trackpoint>
            <Time>2022-09-21T08:40:04.000Z</Time>
            <Position>
              <LatitudeDegrees>49.419476799666881561279296875</LatitudeDegrees>
              <LongitudeDegrees>20.3200103156268596649169921875</LongitudeDegrees>
            </Position>
            <AltitudeMeters>538.79998779296875</AltitudeMeters>
            <DistanceMeters>NAN</DistanceMeters>
          </Trackpoint>
          <Trackpoint>
            <Time>2022-09-21T08:40:11.000Z</Time>
            <Position>
              <LatitudeDegrees>49.41925576888024806976318359375</LatitudeDegrees>
              <LongitudeDegrees>20.31979364342987537384033203125</LongitudeDegrees>
            </Position>
            <AltitudeMeters>538.20001220703125</AltitudeMeters>
            <DistanceMeters>NAN</DistanceMeters>
          </Trackpoint>
          <Trackpoint>
            <Time>2022-09-21T08:40:13.000Z</Time>
            <Position>
              <LatitudeDegrees>49.41919122822582721710205078125</LatitudeDegrees>
              <LongitudeDegrees>20.31972843222320079803466796875</LongitudeDegrees>
            </Position>
            <AltitudeMeters>538.20001220703125</AltitudeMeters>
            <DistanceMeters>NAN</DistanceMeters>
          </Trackpoint>
          <Trackpoint>
            <Time>2022-09-21T08:40:19.000Z</Time>
            <Position>
              <LatitudeDegrees>49.41905158571898937225341796875</LatitudeDegrees>
              <LongitudeDegrees>20.3195469640195369720458984375</LongitudeDegrees>
            </Position>
            <AltitudeMeters>538.20001220703125</AltitudeMeters>
            <DistanceMeters>NAN</DistanceMeters>
          </Trackpoint>
          <Trackpoint>
            <Time>2022-09-21T08:40:26.000Z</Time>
            <Position>
              <LatitudeDegrees>49.41889199428260326385498046875</LatitudeDegrees>
              <LongitudeDegrees>20.31934571452438831329345703125</LongitudeDegrees>
            </Position>
            <AltitudeMeters>538.20001220703125</AltitudeMeters>
            <DistanceMeters>NAN</DistanceMeters>
          </Trackpoint>
          <Trackpoint>
            <Time>2022-09-21T08:40:27.000Z</Time>
            <Position>
              <LatitudeDegrees>49.41887137480080127716064453125</LatitudeDegrees>
              <LongitudeDegrees>20.319320149719715118408203125</LongitudeDegrees>
            </Position>
            <AltitudeMeters>538.20001220703125</AltitudeMeters>
            <DistanceMeters>NAN</DistanceMeters>
          </Trackpoint>
          <Trackpoint>
            <Time>2022-09-21T08:40:32.000Z</Time>
            <Position>
              <LatitudeDegrees>49.41877163015305995941162109375</LatitudeDegrees>
              <LongitudeDegrees>20.31920053996145725250244140625</LongitudeDegrees>
            </Position>
            <AltitudeMeters>538.20001220703125</AltitudeMeters>
            <DistanceMeters>NAN</DistanceMeters>
          </Trackpoint>
          <Trackpoint>
            <Time>2022-09-21T08:40:35.000Z</Time>
            <Position>
              <LatitudeDegrees>49.4187125377357006072998046875</LatitudeDegrees>
              <LongitudeDegrees>20.3191375918686389923095703125</LongitudeDegrees>
            </Position>
            <AltitudeMeters>538.20001220703125</AltitudeMeters>
            <DistanceMeters>NAN</DistanceMeters>
          </Trackpoint>
          <Trackpoint>
            <Time>2022-09-21T08:40:43.000Z</Time>
            <Position>
              <LatitudeDegrees>49.41856183111667633056640625</LatitudeDegrees>
              <LongitudeDegrees>20.31896148808300495147705078125</LongitudeDegrees>
            </Position>
            <AltitudeMeters>538.20001220703125</AltitudeMeters>
            <DistanceMeters>NAN</DistanceMeters>
          </Trackpoint>
          <Trackpoint>
            <Time>2022-09-21T08:40:46.000Z</Time>
            <Position>
              <LatitudeDegrees>49.41851078532636165618896484375</LatitudeDegrees>
              <LongitudeDegrees>20.3188821114599704742431640625</LongitudeDegrees>
            </Position>
            <AltitudeMeters>538.20001220703125</AltitudeMeters>
            <DistanceMeters>NAN</DistanceMeters>
          </Trackpoint>
          <Trackpoint>
            <Time>2022-09-21T08:40:49.000Z</Time>
            <Position>
              <LatitudeDegrees>49.41846770234405994415283203125</LatitudeDegrees>
              <LongitudeDegrees>20.31881866045296192169189453125</LongitudeDegrees>
            </Position>
            <AltitudeMeters>538.20001220703125</AltitudeMeters>
            <DistanceMeters>NAN</DistanceMeters>
          </Trackpoint>
          <Trackpoint>
            <Time>2022-09-21T08:40:52.000Z</Time>
            <Position>
              <LatitudeDegrees>49.4184288941323757171630859375</LatitudeDegrees>
              <LongitudeDegrees>20.31875696964561939239501953125</LongitudeDegrees>
            </Position>
            <AltitudeMeters>538.20001220703125</AltitudeMeters>
            <DistanceMeters>NAN</DistanceMeters>
          </Trackpoint>
          <Trackpoint>
            <Time>2022-09-21T08:40:55.000Z</Time>
            <Position>
              <LatitudeDegrees>49.4183963723480701446533203125</LatitudeDegrees>
              <LongitudeDegrees>20.318678431212902069091796875</LongitudeDegrees>
            </Position>
            <AltitudeMeters>538.20001220703125</AltitudeMeters>
            <DistanceMeters>NAN</DistanceMeters>
          </Trackpoint>
          <Trackpoint>
            <Time>2022-09-21T08:40:59.000Z</Time>
            <Position>
              <LatitudeDegrees>49.418343566358089447021484375</LatitudeDegrees>
              <LongitudeDegrees>20.31857223249971866607666015625</LongitudeDegrees>
            </Position>
            <AltitudeMeters>538</AltitudeMeters>
            <DistanceMeters>NAN</DistanceMeters>
          </Trackpoint>
          <Trackpoint>
            <Time>2022-09-21T08:41:03.000Z</Time>
            <Position>
              <LatitudeDegrees>49.4182998128235340118408203125</LatitudeDegrees>
              <LongitudeDegrees>20.31846494413912296295166015625</LongitudeDegrees>
            </Position>
            <AltitudeMeters>538</AltitudeMeters>
            <DistanceMeters>NAN</DistanceMeters>
          </Trackpoint>
          <Trackpoint>
            <Time>2022-09-21T08:41:13.000Z</Time>
            <Position>
              <LatitudeDegrees>49.4182086177170276641845703125</LatitudeDegrees>
              <LongitudeDegrees>20.3181946277618408203125</LongitudeDegrees>
            </Position>
            <AltitudeMeters>538.4000244140625</AltitudeMeters>
            <DistanceMeters>NAN</DistanceMeters>
          </Trackpoint>
          <Trackpoint>
            <Time>2022-09-21T08:41:20.000Z</Time>
            <Position>
              <LatitudeDegrees>49.41815053112804889678955078125</LatitudeDegrees>
              <LongitudeDegrees>20.317993126809597015380859375</LongitudeDegrees>
            </Position>
            <AltitudeMeters>537.5999755859375</AltitudeMeters>
            <DistanceMeters>NAN</DistanceMeters>
          </Trackpoint>
          <Trackpoint>
            <Time>2022-09-21T08:41:23.000Z</Time>
            <Position>
              <LatitudeDegrees>49.41812085919082164764404296875</LatitudeDegrees>
              <LongitudeDegrees>20.3178799711167812347412109375</LongitudeDegrees>
            </Position>
            <AltitudeMeters>537.4000244140625</AltitudeMeters>
            <DistanceMeters>NAN</DistanceMeters>
          </Trackpoint>
          <Trackpoint>
            <Time>2022-09-21T08:41:29.000Z</Time>
            <Position>
              <LatitudeDegrees>49.4180609285831451416015625</LatitudeDegrees>
              <LongitudeDegrees>20.31760613434016704559326171875</LongitudeDegrees>
            </Position>
            <AltitudeMeters>536.79998779296875</AltitudeMeters>
            <DistanceMeters>NAN</DistanceMeters>
          </Trackpoint>
          <Trackpoint>
            <Time>2022-09-21T08:41:30.000Z</Time>
            <Position>
              <LatitudeDegrees>49.41804693080484867095947265625</LatitudeDegrees>
              <LongitudeDegrees>20.317558608949184417724609375</LongitudeDegrees>
            </Position>
            <AltitudeMeters>536.5999755859375</AltitudeMeters>
            <DistanceMeters>NAN</DistanceMeters>
          </Trackpoint>
          <Trackpoint>
            <Time>2022-09-21T08:41:35.000Z</Time>
            <Position>
              <LatitudeDegrees>49.41797912120819091796875</LatitudeDegrees>
              <LongitudeDegrees>20.317313857376575469970703125</LongitudeDegrees>
            </Position>
            <AltitudeMeters>535.4000244140625</AltitudeMeters>
            <DistanceMeters>NAN</DistanceMeters>
          </Trackpoint>
          <Trackpoint>
            <Time>2022-09-21T08:41:37.000Z</Time>
            <Position>
              <LatitudeDegrees>49.417949281632900238037109375</LatitudeDegrees>
              <LongitudeDegrees>20.3172221593558788299560546875</LongitudeDegrees>
            </Position>
            <AltitudeMeters>535.20001220703125</AltitudeMeters>
            <DistanceMeters>NAN</DistanceMeters>
          </Trackpoint>
          <Trackpoint>
            <Time>2022-09-21T08:41:44.000Z</Time>
            <Position>
              <LatitudeDegrees>49.41785280592739582061767578125</LatitudeDegrees>
              <LongitudeDegrees>20.316893421113491058349609375</LongitudeDegrees>
            </Position>
            <AltitudeMeters>534.5999755859375</AltitudeMeters>
            <DistanceMeters>NAN</DistanceMeters>
          </Trackpoint>
          <Trackpoint>
            <Time>2022-09-21T08:41:46.000Z</Time>
            <Position>
              <LatitudeDegrees>49.4178290851414203643798828125</LatitudeDegrees>
              <LongitudeDegrees>20.31680398620665073394775390625</LongitudeDegrees>
            </Position>
            <AltitudeMeters>534.4000244140625</AltitudeMeters>
            <DistanceMeters>NAN</DistanceMeters>
          </Trackpoint>
          <Trackpoint>
            <Time>2022-09-21T08:41:52.000Z</Time>
            <Position>
              <LatitudeDegrees>49.41774778068065643310546875</LatitudeDegrees>
              <LongitudeDegrees>20.3165217675268650054931640625</LongitudeDegrees>
            </Position>
            <AltitudeMeters>534</AltitudeMeters>
            <DistanceMeters>NAN</DistanceMeters>
          </Trackpoint>
          <Trackpoint>
            <Time>2022-09-21T08:41:56.000Z</Time>
            <Position>
              <LatitudeDegrees>49.41768466494977474212646484375</LatitudeDegrees>
              <LongitudeDegrees>20.31631280668079853057861328125</LongitudeDegrees>
            </Position>
            <AltitudeMeters>533.4000244140625</AltitudeMeters>
            <DistanceMeters>NAN</DistanceMeters>
          </Trackpoint>
          <Trackpoint>
            <Time>2022-09-21T08:42:01.000Z</Time>
            <Position>
              <LatitudeDegrees>49.4176078028976917266845703125</LatitudeDegrees>
              <LongitudeDegrees>20.3160399757325649261474609375</LongitudeDegrees>
            </Position>
            <AltitudeMeters>532.4000244140625</AltitudeMeters>
            <DistanceMeters>NAN</DistanceMeters>
          </Trackpoint>
          <Trackpoint>
            <Time>2022-09-21T08:42:02.000Z</Time>
            <Position>
              <LatitudeDegrees>49.41759615205228328704833984375</LatitudeDegrees>
              <LongitudeDegrees>20.3159910254180431365966796875</LongitudeDegrees>
            </Position>
            <AltitudeMeters>532.20001220703125</AltitudeMeters>
            <DistanceMeters>NAN</DistanceMeters>
          </Trackpoint>
          <Trackpoint>
            <Time>2022-09-21T08:42:05.000Z</Time>
            <Position>
              <LatitudeDegrees>49.417564384639263153076171875</LatitudeDegrees>
              <LongitudeDegrees>20.31585247255861759185791015625</LongitudeDegrees>
            </Position>
            <AltitudeMeters>531.79998779296875</AltitudeMeters>
            <DistanceMeters>NAN</DistanceMeters>
          </Trackpoint>
          <Trackpoint>
            <Time>2022-09-21T08:42:07.000Z</Time>
            <Position>
              <LatitudeDegrees>49.41754083149135112762451171875</LatitudeDegrees>
              <LongitudeDegrees>20.3157774545252323150634765625</LongitudeDegrees>
            </Position>
            <AltitudeMeters>531.5999755859375</AltitudeMeters>
            <DistanceMeters>NAN</DistanceMeters>
          </Trackpoint>
          <Trackpoint>
            <Time>2022-09-21T08:42:13.000Z</Time>
            <Position>
              <LatitudeDegrees>49.4174877740442752838134765625</LatitudeDegrees>
              <LongitudeDegrees>20.315518788993358612060546875</LongitudeDegrees>
            </Position>
            <AltitudeMeters>531.20001220703125</AltitudeMeters>
            <DistanceMeters>NAN</DistanceMeters>
          </Trackpoint>
          <Trackpoint>
            <Time>2022-09-21T08:42:15.000Z</Time>
            <Position>
              <LatitudeDegrees>49.41747863776981830596923828125</LatitudeDegrees>
              <LongitudeDegrees>20.3154654800891876220703125</LongitudeDegrees>
            </Position>
            <AltitudeMeters>531.20001220703125</AltitudeMeters>
            <DistanceMeters>NAN</DistanceMeters>
          </Trackpoint>
          <Trackpoint>
            <Time>2022-09-21T08:42:19.000Z</Time>
            <Position>
              <LatitudeDegrees>49.41747796721756458282470703125</LatitudeDegrees>
              <LongitudeDegrees>20.3154602833092212677001953125</LongitudeDegrees>
            </Position>
            <AltitudeMeters>531</AltitudeMeters>
            <DistanceMeters>NAN</DistanceMeters>
          </Trackpoint>
          <Trackpoint>
            <Time>2022-09-21T08:42:24.000Z</Time>
            <Position>
              <LatitudeDegrees>49.41747796721756458282470703125</LatitudeDegrees>
              <LongitudeDegrees>20.3154602833092212677001953125</LongitudeDegrees>
            </Position>
            <AltitudeMeters>530.79998779296875</AltitudeMeters>
            <DistanceMeters>NAN</DistanceMeters>
          </Trackpoint>
          <Trackpoint>
            <Time>2022-09-21T08:42:28.000Z</Time>
            <Position>
              <LatitudeDegrees>49.41747796721756458282470703125</LatitudeDegrees>
              <LongitudeDegrees>20.3154602833092212677001953125</LongitudeDegrees>
            </Position>
            <AltitudeMeters>531</AltitudeMeters>
            <DistanceMeters>NAN</DistanceMeters>
          </Trackpoint>
          <Trackpoint>
            <Time>2022-09-21T08:42:30.000Z</Time>
            <Position>
              <LatitudeDegrees>49.41747796721756458282470703125</LatitudeDegrees>
              <LongitudeDegrees>20.3154602833092212677001953125</LongitudeDegrees>
            </Position>
            <AltitudeMeters>531</AltitudeMeters>
            <DistanceMeters>NAN</DistanceMeters>
          </Trackpoint>
          <Trackpoint>
            <Time>2022-09-21T08:42:32.000Z</Time>
            <Position>
              <LatitudeDegrees>49.41747796721756458282470703125</LatitudeDegrees>
              <LongitudeDegrees>20.3154602833092212677001953125</LongitudeDegrees>
            </Position>
            <AltitudeMeters>531</AltitudeMeters>
            <DistanceMeters>NAN</DistanceMeters>
          </Trackpoint>
          <Trackpoint>
            <Time>2022-09-21T08:42:47.000Z</Time>
            <Position>
              <LatitudeDegrees>49.41747796721756458282470703125</LatitudeDegrees>
              <LongitudeDegrees>20.3154602833092212677001953125</LongitudeDegrees>
            </Position>
            <AltitudeMeters>531</AltitudeMeters>
            <DistanceMeters>NAN</DistanceMeters>
          </Trackpoint>
          <Trackpoint>
            <Time>2022-09-21T08:42:48.000Z</Time>
            <Position>
              <LatitudeDegrees>49.417476542294025421142578125</LatitudeDegrees>
              <LongitudeDegrees>20.3154592774808406829833984375</LongitudeDegrees>
            </Position>
            <AltitudeMeters>531</AltitudeMeters>
            <DistanceMeters>NAN</DistanceMeters>
          </Trackpoint>
          <Trackpoint>
            <Time>2022-09-21T08:42:50.000Z</Time>
            <Position>
              <LatitudeDegrees>49.41743572242558002471923828125</LatitudeDegrees>
              <LongitudeDegrees>20.3154520690441131591796875</LongitudeDegrees>
            </Position>
            <AltitudeMeters>531</AltitudeMeters>
            <DistanceMeters>NAN</DistanceMeters>
          </Trackpoint>
          <Trackpoint>
            <Time>2022-09-21T08:42:52.000Z</Time>
            <Position>
              <LatitudeDegrees>49.417389370501041412353515625</LatitudeDegrees>
              <LongitudeDegrees>20.31544737517833709716796875</LongitudeDegrees>
            </Position>
            <AltitudeMeters>531.20001220703125</AltitudeMeters>
            <DistanceMeters>NAN</DistanceMeters>
          </Trackpoint>
          <Trackpoint>
            <Time>2022-09-21T08:42:54.000Z</Time>
            <Position>
              <LatitudeDegrees>49.41736757755279541015625</LatitudeDegrees>
              <LongitudeDegrees>20.31541091389954090118408203125</LongitudeDegrees>
            </Position>
            <AltitudeMeters>531.20001220703125</AltitudeMeters>
            <DistanceMeters>NAN</DistanceMeters>
          </Trackpoint>
          <Trackpoint>
            <Time>2022-09-21T08:42:55.000Z</Time>
            <Position>
              <LatitudeDegrees>49.4173633866012096405029296875</LatitudeDegrees>
              <LongitudeDegrees>20.31538811512291431427001953125</LongitudeDegrees>
            </Position>
            <AltitudeMeters>531.20001220703125</AltitudeMeters>
            <DistanceMeters>NAN</DistanceMeters>
          </Trackpoint>
          <Trackpoint>
            <Time>2022-09-21T08:43:03.000Z</Time>
            <Position>
              <LatitudeDegrees>49.417317621409893035888671875</LatitudeDegrees>
              <LongitudeDegrees>20.31507630832493305206298828125</LongitudeDegrees>
            </Position>
            <AltitudeMeters>530.5999755859375</AltitudeMeters>
            <DistanceMeters>NAN</DistanceMeters>
          </Trackpoint>
          <Trackpoint>
            <Time>2022-09-21T08:43:05.000Z</Time>
            <Position>
              <LatitudeDegrees>49.41730127669870853424072265625</LatitudeDegrees>
              <LongitudeDegrees>20.3149774856865406036376953125</LongitudeDegrees>
            </Position>
            <AltitudeMeters>530</AltitudeMeters>
            <DistanceMeters>NAN</DistanceMeters>
          </Trackpoint>
          <Trackpoint>
            <Time>2022-09-21T08:43:07.000Z</Time>
            <Position>
              <LatitudeDegrees>49.41728283651173114776611328125</LatitudeDegrees>
              <LongitudeDegrees>20.31488008797168731689453125</LongitudeDegrees>
            </Position>
            <AltitudeMeters>529.4000244140625</AltitudeMeters>
            <DistanceMeters>NAN</DistanceMeters>
          </Trackpoint>
          <Trackpoint>
            <Time>2022-09-21T08:43:11.000Z</Time>
            <Position>
              <LatitudeDegrees>49.41724377684295177459716796875</LatitudeDegrees>
              <LongitudeDegrees>20.31467716209590435028076171875</LongitudeDegrees>
            </Position>
            <AltitudeMeters>529.20001220703125</AltitudeMeters>
            <DistanceMeters>NAN</DistanceMeters>
          </Trackpoint>
          <Trackpoint>
            <Time>2022-09-21T08:43:13.000Z</Time>
            <Position>
              <LatitudeDegrees>49.4172242470085620880126953125</LatitudeDegrees>
              <LongitudeDegrees>20.31458814628422260284423828125</LongitudeDegrees>
            </Position>
            <AltitudeMeters>529</AltitudeMeters>
            <DistanceMeters>NAN</DistanceMeters>
          </Trackpoint>
          <Trackpoint>
            <Time>2022-09-21T08:43:19.000Z</Time>
            <Position>
              <LatitudeDegrees>49.4171677529811859130859375</LatitudeDegrees>
              <LongitudeDegrees>20.31433350406587123870849609375</LongitudeDegrees>
            </Position>
            <AltitudeMeters>528</AltitudeMeters>
            <DistanceMeters>NAN</DistanceMeters>
          </Trackpoint>
          <Trackpoint>
            <Time>2022-09-21T08:43:21.000Z</Time>
            <Position>
              <LatitudeDegrees>49.4171474687755107879638671875</LatitudeDegrees>
              <LongitudeDegrees>20.314261503517627716064453125</LongitudeDegrees>
            </Position>
            <AltitudeMeters>527.4000244140625</AltitudeMeters>
            <DistanceMeters>NAN</DistanceMeters>
          </Trackpoint>
          <Trackpoint>
            <Time>2022-09-21T08:43:26.000Z</Time>
            <Position>
              <LatitudeDegrees>49.41707546822726726531982421875</LatitudeDegrees>
              <LongitudeDegrees>20.31407416798174381256103515625</LongitudeDegrees>
            </Position>
            <AltitudeMeters>526.79998779296875</AltitudeMeters>
            <DistanceMeters>NAN</DistanceMeters>
          </Trackpoint>
          <Trackpoint>
            <Time>2022-09-21T08:43:28.000Z</Time>
            <Position>
              <LatitudeDegrees>49.41702618263661861419677734375</LatitudeDegrees>
              <LongitudeDegrees>20.3140142373740673065185546875</LongitudeDegrees>
            </Position>
            <AltitudeMeters>526.5999755859375</AltitudeMeters>
            <DistanceMeters>NAN</DistanceMeters>
          </Trackpoint>
          <Trackpoint>
            <Time>2022-09-21T08:43:32.000Z</Time>
            <Position>
              <LatitudeDegrees>49.41688301973044872283935546875</LatitudeDegrees>
              <LongitudeDegrees>20.3139897622168064117431640625</LongitudeDegrees>
            </Position>
            <AltitudeMeters>526</AltitudeMeters>
            <DistanceMeters>NAN</DistanceMeters>
          </Trackpoint>
          <Trackpoint>
            <Time>2022-09-21T08:43:34.000Z</Time>
            <Position>
              <LatitudeDegrees>49.4168232567608356475830078125</LatitudeDegrees>
              <LongitudeDegrees>20.31402018852531909942626953125</LongitudeDegrees>
            </Position>
            <AltitudeMeters>525.79998779296875</AltitudeMeters>
            <DistanceMeters>NAN</DistanceMeters>
          </Trackpoint>
          <Trackpoint>
            <Time>2022-09-21T08:43:36.000Z</Time>
            <Position>
              <LatitudeDegrees>49.41676802001893520355224609375</LatitudeDegrees>
              <LongitudeDegrees>20.31410065479576587677001953125</LongitudeDegrees>
            </Position>
            <AltitudeMeters>525.4000244140625</AltitudeMeters>
            <DistanceMeters>NAN</DistanceMeters>
          </Trackpoint>
          <Trackpoint>
            <Time>2022-09-21T08:43:39.000Z</Time>
            <Position>
              <LatitudeDegrees>49.41670716740190982818603515625</LatitudeDegrees>
              <LongitudeDegrees>20.31426795758306980133056640625</LongitudeDegrees>
            </Position>
            <AltitudeMeters>524.79998779296875</AltitudeMeters>
            <DistanceMeters>NAN</DistanceMeters>
          </Trackpoint>
          <Trackpoint>
            <Time>2022-09-21T08:43:41.000Z</Time>
            <Position>
              <LatitudeDegrees>49.41668805666267871856689453125</LatitudeDegrees>
              <LongitudeDegrees>20.3144132159650325775146484375</LongitudeDegrees>
            </Position>
            <AltitudeMeters>524</AltitudeMeters>
            <DistanceMeters>NAN</DistanceMeters>
          </Trackpoint>
          <Trackpoint>
            <Time>2022-09-21T08:43:43.000Z</Time>
            <Position>
              <LatitudeDegrees>49.41667481325566768646240234375</LatitudeDegrees>
              <LongitudeDegrees>20.31457163393497467041015625</LongitudeDegrees>
            </Position>
            <AltitudeMeters>523.5999755859375</AltitudeMeters>
            <DistanceMeters>NAN</DistanceMeters>
          </Trackpoint>
          <Trackpoint>
            <Time>2022-09-21T08:43:48.000Z</Time>
            <Position>
              <LatitudeDegrees>49.4166485778987407684326171875</LatitudeDegrees>
              <LongitudeDegrees>20.31500221230089664459228515625</LongitudeDegrees>
            </Position>
            <AltitudeMeters>522.79998779296875</AltitudeMeters>
            <DistanceMeters>NAN</DistanceMeters>
          </Trackpoint>
          <Trackpoint>
            <Time>2022-09-21T08:43:49.000Z</Time>
            <Position>
              <LatitudeDegrees>49.4166412018239498138427734375</LatitudeDegrees>
              <LongitudeDegrees>20.3150911442935466766357421875</LongitudeDegrees>
            </Position>
            <AltitudeMeters>522.4000244140625</AltitudeMeters>
            <DistanceMeters>NAN</DistanceMeters>
          </Trackpoint>
          <Trackpoint>
            <Time>2022-09-21T08:43:52.000Z</Time>
            <Position>
              <LatitudeDegrees>49.4166204147040843963623046875</LatitudeDegrees>
              <LongitudeDegrees>20.31536179594695568084716796875</LongitudeDegrees>
            </Position>
            <AltitudeMeters>521.79998779296875</AltitudeMeters>
            <DistanceMeters>NAN</DistanceMeters>
          </Trackpoint>
          <Trackpoint>
            <Time>2022-09-21T08:43:55.000Z</Time>
            <Position>
              <LatitudeDegrees>49.41659468226134777069091796875</LatitudeDegrees>
              <LongitudeDegrees>20.31562305986881256103515625</LongitudeDegrees>
            </Position>
            <AltitudeMeters>521.20001220703125</AltitudeMeters>
            <DistanceMeters>NAN</DistanceMeters>
          </Trackpoint>
          <Trackpoint>
            <Time>2022-09-21T08:43:57.000Z</Time>
            <Position>
              <LatitudeDegrees>49.4165830314159393310546875</LatitudeDegrees>
              <LongitudeDegrees>20.31576982699334621429443359375</LongitudeDegrees>
            </Position>
            <AltitudeMeters>520.79998779296875</AltitudeMeters>
            <DistanceMeters>NAN</DistanceMeters>
          </Trackpoint>
          <Trackpoint>
            <Time>2022-09-21T08:43:59.000Z</Time>
            <Position>
              <LatitudeDegrees>49.41657104529440402984619140625</LatitudeDegrees>
              <LongitudeDegrees>20.31588055193424224853515625</LongitudeDegrees>
            </Position>
            <AltitudeMeters>520.5999755859375</AltitudeMeters>
            <DistanceMeters>NAN</DistanceMeters>
          </Trackpoint>
          <Trackpoint>
            <Time>2022-09-21T08:44:03.000Z</Time>
            <Position>
              <LatitudeDegrees>49.41656014882028102874755859375</LatitudeDegrees>
              <LongitudeDegrees>20.31610024161636829376220703125</LongitudeDegrees>
            </Position>
            <AltitudeMeters>520</AltitudeMeters>
            <DistanceMeters>NAN</DistanceMeters>
          </Trackpoint>
          <Trackpoint>
            <Time>2022-09-21T08:44:07.000Z</Time>
            <Position>
              <LatitudeDegrees>49.416544474661350250244140625</LatitudeDegrees>
              <LongitudeDegrees>20.3163464181125164031982421875</LongitudeDegrees>
            </Position>
            <AltitudeMeters>518.79998779296875</AltitudeMeters>
            <DistanceMeters>NAN</DistanceMeters>
          </Trackpoint>
          <Trackpoint>
            <Time>2022-09-21T08:44:12.000Z</Time>
            <Position>
              <LatitudeDegrees>49.416522346436977386474609375</LatitudeDegrees>
              <LongitudeDegrees>20.316618494689464569091796875</LongitudeDegrees>
            </Position>
            <AltitudeMeters>517.5999755859375</AltitudeMeters>
            <DistanceMeters>NAN</DistanceMeters>
          </Trackpoint>
          <Trackpoint>
            <Time>2022-09-21T08:44:14.000Z</Time>
            <Position>
              <LatitudeDegrees>49.4165047444403171539306640625</LatitudeDegrees>
              <LongitudeDegrees>20.3166925907135009765625</LongitudeDegrees>
            </Position>
            <AltitudeMeters>517.20001220703125</AltitudeMeters>
            <DistanceMeters>NAN</DistanceMeters>
          </Trackpoint>
          <Trackpoint>
            <Time>2022-09-21T08:44:17.000Z</Time>
            <Position>
              <LatitudeDegrees>49.41642939113080501556396484375</LatitudeDegrees>
              <LongitudeDegrees>20.31675361096858978271484375</LongitudeDegrees>
            </Position>
            <AltitudeMeters>516.5999755859375</AltitudeMeters>
            <DistanceMeters>NAN</DistanceMeters>
          </Trackpoint>
          <Trackpoint>
            <Time>2022-09-21T08:44:18.000Z</Time>
            <Position>
              <LatitudeDegrees>49.41641463898122310638427734375</LatitudeDegrees>
              <LongitudeDegrees>20.3167762421071529388427734375</LongitudeDegrees>
            </Position>
            <AltitudeMeters>516.4000244140625</AltitudeMeters>
            <DistanceMeters>NAN</DistanceMeters>
          </Trackpoint>
          <Trackpoint>
            <Time>2022-09-21T08:44:22.000Z</Time>
            <Position>
              <LatitudeDegrees>49.4164044968783855438232421875</LatitudeDegrees>
              <LongitudeDegrees>20.31698637641966342926025390625</LongitudeDegrees>
            </Position>
            <AltitudeMeters>516</AltitudeMeters>
            <DistanceMeters>NAN</DistanceMeters>
          </Trackpoint>
          <Trackpoint>
            <Time>2022-09-21T08:44:24.000Z</Time>
            <Position>
              <LatitudeDegrees>49.4164008088409900665283203125</LatitudeDegrees>
              <LongitudeDegrees>20.31711327843368053436279296875</LongitudeDegrees>
            </Position>
            <AltitudeMeters>515.4000244140625</AltitudeMeters>
            <DistanceMeters>NAN</DistanceMeters>
          </Trackpoint>
          <Trackpoint>
            <Time>2022-09-21T08:44:27.000Z</Time>
            <Position>
              <LatitudeDegrees>49.4163994677364826202392578125</LatitudeDegrees>
              <LongitudeDegrees>20.31731746159493923187255859375</LongitudeDegrees>
            </Position>
            <AltitudeMeters>514.20001220703125</AltitudeMeters>
            <DistanceMeters>NAN</DistanceMeters>
          </Trackpoint>
          <Trackpoint>
            <Time>2022-09-21T08:44:28.000Z</Time>
            <Position>
              <LatitudeDegrees>49.41639770753681659698486328125</LatitudeDegrees>
              <LongitudeDegrees>20.31738921068608760833740234375</LongitudeDegrees>
            </Position>
            <AltitudeMeters>514</AltitudeMeters>
            <DistanceMeters>NAN</DistanceMeters>
          </Trackpoint>
          <Trackpoint>
            <Time>2022-09-21T08:44:31.000Z</Time>
            <Position>
              <LatitudeDegrees>49.41639150492846965789794921875</LatitudeDegrees>
              <LongitudeDegrees>20.31762222759425640106201171875</LongitudeDegrees>
            </Position>
            <AltitudeMeters>513</AltitudeMeters>
            <DistanceMeters>NAN</DistanceMeters>
          </Trackpoint>
          <Trackpoint>
            <Time>2022-09-21T08:44:33.000Z</Time>
            <Position>
              <LatitudeDegrees>49.4163967855274677276611328125</LatitudeDegrees>
              <LongitudeDegrees>20.3177748620510101318359375</LongitudeDegrees>
            </Position>
            <AltitudeMeters>511.79998779296875</AltitudeMeters>
            <DistanceMeters>NAN</DistanceMeters>
          </Trackpoint>
          <Trackpoint>
            <Time>2022-09-21T08:44:35.000Z</Time>
            <Position>
              <LatitudeDegrees>49.41640122793614864349365234375</LatitudeDegrees>
              <LongitudeDegrees>20.3179597668349742889404296875</LongitudeDegrees>
            </Position>
            <AltitudeMeters>510.79998779296875</AltitudeMeters>
            <DistanceMeters>NAN</DistanceMeters>
          </Trackpoint>
          <Trackpoint>
            <Time>2022-09-21T08:44:37.000Z</Time>
            <Position>
              <LatitudeDegrees>49.41639418713748455047607421875</LatitudeDegrees>
              <LongitudeDegrees>20.31810955144464969635009765625</LongitudeDegrees>
            </Position>
            <AltitudeMeters>509.79998779296875</AltitudeMeters>
            <DistanceMeters>NAN</DistanceMeters>
          </Trackpoint>
          <Trackpoint>
            <Time>2022-09-21T08:44:40.000Z</Time>
            <Position>
              <LatitudeDegrees>49.41638815216720104217529296875</LatitudeDegrees>
              <LongitudeDegrees>20.31836704351007938385009765625</LongitudeDegrees>
            </Position>
            <AltitudeMeters>508.20001220703125</AltitudeMeters>
            <DistanceMeters>NAN</DistanceMeters>
          </Trackpoint>
          <Trackpoint>
            <Time>2022-09-21T08:44:43.000Z</Time>
            <Position>
              <LatitudeDegrees>49.41638764925301074981689453125</LatitudeDegrees>
              <LongitudeDegrees>20.3186440654098987579345703125</LongitudeDegrees>
            </Position>
            <AltitudeMeters>506.79998779296875</AltitudeMeters>
            <DistanceMeters>NAN</DistanceMeters>
          </Trackpoint>
          <Trackpoint>
            <Time>2022-09-21T08:44:45.000Z</Time>
            <Position>
              <LatitudeDegrees>49.416379518806934356689453125</LatitudeDegrees>
              <LongitudeDegrees>20.31881798990070819854736328125</LongitudeDegrees>
            </Position>
            <AltitudeMeters>506</AltitudeMeters>
            <DistanceMeters>NAN</DistanceMeters>
          </Trackpoint>
          <Trackpoint>
            <Time>2022-09-21T08:44:46.000Z</Time>
            <Position>
              <LatitudeDegrees>49.41637373529374599456787109375</LatitudeDegrees>
              <LongitudeDegrees>20.318888984620571136474609375</LongitudeDegrees>
            </Position>
            <AltitudeMeters>505.600006103515625</AltitudeMeters>
            <DistanceMeters>NAN</DistanceMeters>
          </Trackpoint>
          <Trackpoint>
            <Time>2022-09-21T08:44:48.000Z</Time>
            <Position>
              <LatitudeDegrees>49.41635110415518283843994140625</LatitudeDegrees>
              <LongitudeDegrees>20.3190537728369235992431640625</LongitudeDegrees>
            </Position>
            <AltitudeMeters>504.399993896484375</AltitudeMeters>
            <DistanceMeters>NAN</DistanceMeters>
          </Trackpoint>
          <Trackpoint>
            <Time>2022-09-21T08:44:49.000Z</Time>
            <Position>
              <LatitudeDegrees>49.4163347594439983367919921875</LatitudeDegrees>
              <LongitudeDegrees>20.3191342391073703765869140625</LongitudeDegrees>
            </Position>
            <AltitudeMeters>504</AltitudeMeters>
            <DistanceMeters>NAN</DistanceMeters>
          </Trackpoint>
          <Trackpoint>
            <Time>2022-09-21T08:44:52.000Z</Time>
            <Position>
              <LatitudeDegrees>49.416264854371547698974609375</LatitudeDegrees>
              <LongitudeDegrees>20.319368429481983184814453125</LongitudeDegrees>
            </Position>
            <AltitudeMeters>503</AltitudeMeters>
            <DistanceMeters>NAN</DistanceMeters>
          </Trackpoint>
          <Trackpoint>
            <Time>2022-09-21T08:44:53.000Z</Time>
            <Position>
              <LatitudeDegrees>49.41623694263398647308349609375</LatitudeDegrees>
              <LongitudeDegrees>20.3194309584796428680419921875</LongitudeDegrees>
            </Position>
            <AltitudeMeters>502.79998779296875</AltitudeMeters>
            <DistanceMeters>NAN</DistanceMeters>
          </Trackpoint>
          <Trackpoint>
            <Time>2022-09-21T08:44:54.000Z</Time>
            <Position>
              <LatitudeDegrees>49.4162075221538543701171875</LatitudeDegrees>
              <LongitudeDegrees>20.319486446678638458251953125</LongitudeDegrees>
            </Position>
            <AltitudeMeters>502.20001220703125</AltitudeMeters>
            <DistanceMeters>NAN</DistanceMeters>
          </Trackpoint>
          <Trackpoint>
            <Time>2022-09-21T08:44:55.000Z</Time>
            <Position>
              <LatitudeDegrees>49.41617307253181934356689453125</LatitudeDegrees>
              <LongitudeDegrees>20.31953774392604827880859375</LongitudeDegrees>
            </Position>
            <AltitudeMeters>501.79998779296875</AltitudeMeters>
            <DistanceMeters>NAN</DistanceMeters>
          </Trackpoint>
          <Trackpoint>
            <Time>2022-09-21T08:44:58.000Z</Time>
            <Position>
              <LatitudeDegrees>49.41608020104467868804931640625</LatitudeDegrees>
              <LongitudeDegrees>20.319662131369113922119140625</LongitudeDegrees>
            </Position>
            <AltitudeMeters>500.79998779296875</AltitudeMeters>
            <DistanceMeters>NAN</DistanceMeters>
          </Trackpoint>
          <Trackpoint>
            <Time>2022-09-21T08:44:59.000Z</Time>
            <Position>
              <LatitudeDegrees>49.41604767926037311553955078125</LatitudeDegrees>
              <LongitudeDegrees>20.31969708390533924102783203125</LongitudeDegrees>
            </Position>
            <AltitudeMeters>500.399993896484375</AltitudeMeters>
            <DistanceMeters>NAN</DistanceMeters>
          </Trackpoint>
          <Trackpoint>
            <Time>2022-09-21T08:45:00.000Z</Time>
            <Position>
              <LatitudeDegrees>49.41601180471479892730712890625</LatitudeDegrees>
              <LongitudeDegrees>20.31972608529031276702880859375</LongitudeDegrees>
            </Position>
            <AltitudeMeters>500</AltitudeMeters>
            <DistanceMeters>NAN</DistanceMeters>
          </Trackpoint>
          <Trackpoint>
            <Time>2022-09-21T08:45:01.000Z</Time>
            <Position>
              <LatitudeDegrees>49.4159766845405101776123046875</LatitudeDegrees>
              <LongitudeDegrees>20.31974402256309986114501953125</LongitudeDegrees>
            </Position>
            <AltitudeMeters>499.600006103515625</AltitudeMeters>
            <DistanceMeters>NAN</DistanceMeters>
          </Trackpoint>
          <Trackpoint>
            <Time>2022-09-21T08:45:04.000Z</Time>
            <Position>
              <LatitudeDegrees>49.4158680550754070281982421875</LatitudeDegrees>
              <LongitudeDegrees>20.31978760845959186553955078125</LongitudeDegrees>
            </Position>
            <AltitudeMeters>499.20001220703125</AltitudeMeters>
            <DistanceMeters>NAN</DistanceMeters>
          </Trackpoint>
          <Trackpoint>
            <Time>2022-09-21T08:45:08.000Z</Time>
            <Position>
              <LatitudeDegrees>49.4157668016850948333740234375</LatitudeDegrees>
              <LongitudeDegrees>20.3197105787694454193115234375</LongitudeDegrees>
            </Position>
            <AltitudeMeters>498.600006103515625</AltitudeMeters>
            <DistanceMeters>NAN</DistanceMeters>
          </Trackpoint>
          <Trackpoint>
            <Time>2022-09-21T08:45:11.000Z</Time>
            <Position>
              <LatitudeDegrees>49.4157542288303375244140625</LatitudeDegrees>
              <LongitudeDegrees>20.3196146897971630096435546875</LongitudeDegrees>
            </Position>
            <AltitudeMeters>498.20001220703125</AltitudeMeters>
            <DistanceMeters>NAN</DistanceMeters>
          </Trackpoint>
          <Trackpoint>
            <Time>2022-09-21T08:45:12.000Z</Time>
            <Position>
              <LatitudeDegrees>49.41573687829077243804931640625</LatitudeDegrees>
              <LongitudeDegrees>20.3195801563560962677001953125</LongitudeDegrees>
            </Position>
            <AltitudeMeters>498.20001220703125</AltitudeMeters>
            <DistanceMeters>NAN</DistanceMeters>
          </Trackpoint>
          <Trackpoint>
            <Time>2022-09-21T08:45:16.000Z</Time>
            <Position>
              <LatitudeDegrees>49.41567434929311275482177734375</LatitudeDegrees>
              <LongitudeDegrees>20.31947026960551738739013671875</LongitudeDegrees>
            </Position>
            <AltitudeMeters>498.20001220703125</AltitudeMeters>
            <DistanceMeters>NAN</DistanceMeters>
          </Trackpoint>
          <Trackpoint>
            <Time>2022-09-21T08:45:17.000Z</Time>
            <Position>
              <LatitudeDegrees>49.415676109492778778076171875</LatitudeDegrees>
              <LongitudeDegrees>20.3194405138492584228515625</LongitudeDegrees>
            </Position>
            <AltitudeMeters>498.20001220703125</AltitudeMeters>
            <DistanceMeters>NAN</DistanceMeters>
          </Trackpoint>
          <Trackpoint>
            <Time>2022-09-21T08:45:21.000Z</Time>
            <Position>
              <LatitudeDegrees>49.41568340174853801727294921875</LatitudeDegrees>
              <LongitudeDegrees>20.31943506561219692230224609375</LongitudeDegrees>
            </Position>
            <AltitudeMeters>497.79998779296875</AltitudeMeters>
            <DistanceMeters>NAN</DistanceMeters>
          </Trackpoint>
          <Trackpoint>
            <Time>2022-09-21T08:45:31.000Z</Time>
            <Position>
              <LatitudeDegrees>49.41568340174853801727294921875</LatitudeDegrees>
              <LongitudeDegrees>20.31943506561219692230224609375</LongitudeDegrees>
            </Position>
            <AltitudeMeters>497.600006103515625</AltitudeMeters>
            <DistanceMeters>NAN</DistanceMeters>
          </Trackpoint>
          <Trackpoint>
            <Time>2022-09-21T08:45:35.000Z</Time>
            <Position>
              <LatitudeDegrees>49.41568340174853801727294921875</LatitudeDegrees>
              <LongitudeDegrees>20.31943506561219692230224609375</LongitudeDegrees>
            </Position>
            <AltitudeMeters>497.600006103515625</AltitudeMeters>
            <DistanceMeters>NAN</DistanceMeters>
          </Trackpoint>
          <Trackpoint>
            <Time>2022-09-21T08:45:37.000Z</Time>
            <Position>
              <LatitudeDegrees>49.41568340174853801727294921875</LatitudeDegrees>
              <LongitudeDegrees>20.31943506561219692230224609375</LongitudeDegrees>
            </Position>
            <AltitudeMeters>497.79998779296875</AltitudeMeters>
            <DistanceMeters>NAN</DistanceMeters>
          </Trackpoint>
          <Trackpoint>
            <Time>2022-09-21T08:45:40.000Z</Time>
            <Position>
              <LatitudeDegrees>49.41568340174853801727294921875</LatitudeDegrees>
              <LongitudeDegrees>20.31943506561219692230224609375</LongitudeDegrees>
            </Position>
            <AltitudeMeters>497.79998779296875</AltitudeMeters>
            <DistanceMeters>NAN</DistanceMeters>
          </Trackpoint>
          <Trackpoint>
            <Time>2022-09-21T08:45:44.000Z</Time>
            <Position>
              <LatitudeDegrees>49.41568340174853801727294921875</LatitudeDegrees>
              <LongitudeDegrees>20.31943506561219692230224609375</LongitudeDegrees>
            </Position>
            <AltitudeMeters>497.79998779296875</AltitudeMeters>
            <DistanceMeters>NAN</DistanceMeters>
          </Trackpoint>
          <Trackpoint>
            <Time>2022-09-21T08:46:04.000Z</Time>
            <Position>
              <LatitudeDegrees>49.41568340174853801727294921875</LatitudeDegrees>
              <LongitudeDegrees>20.31943506561219692230224609375</LongitudeDegrees>
            </Position>
            <AltitudeMeters>497.79998779296875</AltitudeMeters>
            <DistanceMeters>NAN</DistanceMeters>
          </Trackpoint>
          <Trackpoint>
            <Time>2022-09-21T08:46:46.000Z</Time>
            <Position>
              <LatitudeDegrees>49.415696561336517333984375</LatitudeDegrees>
              <LongitudeDegrees>20.31942333094775676727294921875</LongitudeDegrees>
            </Position>
            <AltitudeMeters>497.79998779296875</AltitudeMeters>
            <DistanceMeters>NAN</DistanceMeters>
          </Trackpoint>
          <Trackpoint>
            <Time>2022-09-21T08:46:48.000Z</Time>
            <Position>
              <LatitudeDegrees>49.4157248921692371368408203125</LatitudeDegrees>
              <LongitudeDegrees>20.31938108615577220916748046875</LongitudeDegrees>
            </Position>
            <AltitudeMeters>497.79998779296875</AltitudeMeters>
            <DistanceMeters>NAN</DistanceMeters>
          </Trackpoint>
          <Trackpoint>
            <Time>2022-09-21T08:46:53.000Z</Time>
            <Position>
              <LatitudeDegrees>49.4158127345144748687744140625</LatitudeDegrees>
              <LongitudeDegrees>20.319193415343761444091796875</LongitudeDegrees>
            </Position>
            <AltitudeMeters>498</AltitudeMeters>
            <DistanceMeters>NAN</DistanceMeters>
          </Trackpoint>
          <Trackpoint>
            <Time>2022-09-21T08:46:57.000Z</Time>
            <Position>
              <LatitudeDegrees>49.41588121466338634490966796875</LatitudeDegrees>
              <LongitudeDegrees>20.3190353326499462127685546875</LongitudeDegrees>
            </Position>
            <AltitudeMeters>498</AltitudeMeters>
            <DistanceMeters>NAN</DistanceMeters>
          </Trackpoint>
          <Trackpoint>
            <Time>2022-09-21T08:47:00.000Z</Time>
            <Position>
              <LatitudeDegrees>49.4159035943448543548583984375</LatitudeDegrees>
              <LongitudeDegrees>20.31892217695713043212890625</LongitudeDegrees>
            </Position>
            <AltitudeMeters>498.20001220703125</AltitudeMeters>
            <DistanceMeters>NAN</DistanceMeters>
          </Trackpoint>
          <Trackpoint>
            <Time>2022-09-21T08:47:03.000Z</Time>
            <Position>
              <LatitudeDegrees>49.415922872722148895263671875</LatitudeDegrees>
              <LongitudeDegrees>20.31881631352007389068603515625</LongitudeDegrees>
            </Position>
            <AltitudeMeters>498.600006103515625</AltitudeMeters>
            <DistanceMeters>NAN</DistanceMeters>
          </Trackpoint>
          <Trackpoint>
            <Time>2022-09-21T08:47:05.000Z</Time>
            <Position>
              <LatitudeDegrees>49.41593787632882595062255859375</LatitudeDegrees>
              <LongitudeDegrees>20.3187553770840167999267578125</LongitudeDegrees>
            </Position>
            <AltitudeMeters>498.600006103515625</AltitudeMeters>
            <DistanceMeters>NAN</DistanceMeters>
          </Trackpoint>
          <Trackpoint>
            <Time>2022-09-21T08:47:06.000Z</Time>
            <Position>
              <LatitudeDegrees>49.41594223491847515106201171875</LatitudeDegrees>
              <LongitudeDegrees>20.3187339194118976593017578125</LongitudeDegrees>
            </Position>
            <AltitudeMeters>498.79998779296875</AltitudeMeters>
            <DistanceMeters>NAN</DistanceMeters>
          </Trackpoint>
          <Trackpoint>
            <Time>2022-09-21T08:47:09.000Z</Time>
            <Position>
              <LatitudeDegrees>49.4159428216516971588134765625</LatitudeDegrees>
              <LongitudeDegrees>20.31872662715613842010498046875</LongitudeDegrees>
            </Position>
            <AltitudeMeters>499</AltitudeMeters>
            <DistanceMeters>NAN</DistanceMeters>
          </Trackpoint>
          <Trackpoint>
            <Time>2022-09-21T08:47:13.000Z</Time>
            <Position>
              <LatitudeDegrees>49.4159428216516971588134765625</LatitudeDegrees>
              <LongitudeDegrees>20.31872662715613842010498046875</LongitudeDegrees>
            </Position>
            <AltitudeMeters>499.20001220703125</AltitudeMeters>
            <DistanceMeters>NAN</DistanceMeters>
          </Trackpoint>
          <Trackpoint>
            <Time>2022-09-21T08:47:24.000Z</Time>
            <Position>
              <LatitudeDegrees>49.4159428216516971588134765625</LatitudeDegrees>
              <LongitudeDegrees>20.31872662715613842010498046875</LongitudeDegrees>
            </Position>
            <AltitudeMeters>499</AltitudeMeters>
            <DistanceMeters>NAN</DistanceMeters>
          </Trackpoint>
          <Trackpoint>
            <Time>2022-09-21T08:47:26.000Z</Time>
            <Position>
              <LatitudeDegrees>49.4159428216516971588134765625</LatitudeDegrees>
              <LongitudeDegrees>20.31872662715613842010498046875</LongitudeDegrees>
            </Position>
            <AltitudeMeters>499</AltitudeMeters>
            <DistanceMeters>NAN</DistanceMeters>
          </Trackpoint>
          <Trackpoint>
            <Time>2022-09-21T08:47:29.000Z</Time>
            <Position>
              <LatitudeDegrees>49.4159428216516971588134765625</LatitudeDegrees>
              <LongitudeDegrees>20.31872662715613842010498046875</LongitudeDegrees>
            </Position>
            <AltitudeMeters>499.399993896484375</AltitudeMeters>
            <DistanceMeters>NAN</DistanceMeters>
          </Trackpoint>
          <Trackpoint>
            <Time>2022-09-21T08:47:33.000Z</Time>
            <Position>
              <LatitudeDegrees>49.4159428216516971588134765625</LatitudeDegrees>
              <LongitudeDegrees>20.31872662715613842010498046875</LongitudeDegrees>
            </Position>
            <AltitudeMeters>499.399993896484375</AltitudeMeters>
            <DistanceMeters>NAN</DistanceMeters>
          </Trackpoint>
          <Trackpoint>
            <Time>2022-09-21T08:47:37.000Z</Time>
            <Position>
              <LatitudeDegrees>49.41594391129910945892333984375</LatitudeDegrees>
              <LongitudeDegrees>20.31873165629804134368896484375</LongitudeDegrees>
            </Position>
            <AltitudeMeters>499.399993896484375</AltitudeMeters>
            <DistanceMeters>NAN</DistanceMeters>
          </Trackpoint>
          <Trackpoint>
            <Time>2022-09-21T08:47:38.000Z</Time>
            <Position>
              <LatitudeDegrees>49.4159401394426822662353515625</LatitudeDegrees>
              <LongitudeDegrees>20.31876669265329837799072265625</LongitudeDegrees>
            </Position>
            <AltitudeMeters>499.399993896484375</AltitudeMeters>
            <DistanceMeters>NAN</DistanceMeters>
          </Trackpoint>
          <Trackpoint>
            <Time>2022-09-21T08:47:42.000Z</Time>
            <Position>
              <LatitudeDegrees>49.4159297458827495574951171875</LatitudeDegrees>
              <LongitudeDegrees>20.31889795325696468353271484375</LongitudeDegrees>
            </Position>
            <AltitudeMeters>499.20001220703125</AltitudeMeters>
            <DistanceMeters>NAN</DistanceMeters>
          </Trackpoint>
          <Trackpoint>
            <Time>2022-09-21T08:47:43.000Z</Time>
            <Position>
              <LatitudeDegrees>49.41592513583600521087646484375</LatitudeDegrees>
              <LongitudeDegrees>20.3189354203641414642333984375</LongitudeDegrees>
            </Position>
            <AltitudeMeters>499.20001220703125</AltitudeMeters>
            <DistanceMeters>NAN</DistanceMeters>
          </Trackpoint>
          <Trackpoint>
            <Time>2022-09-21T08:47:51.000Z</Time>
            <Position>
              <LatitudeDegrees>49.4158301688730716705322265625</LatitudeDegrees>
              <LongitudeDegrees>20.31924546696245670318603515625</LongitudeDegrees>
            </Position>
            <AltitudeMeters>498.79998779296875</AltitudeMeters>
            <DistanceMeters>NAN</DistanceMeters>
          </Trackpoint>
          <Trackpoint>
            <Time>2022-09-21T08:47:57.000Z</Time>
            <Position>
              <LatitudeDegrees>49.4157020933926105499267578125</LatitudeDegrees>
              <LongitudeDegrees>20.3194353170692920684814453125</LongitudeDegrees>
            </Position>
            <AltitudeMeters>498.600006103515625</AltitudeMeters>
            <DistanceMeters>NAN</DistanceMeters>
          </Trackpoint>
          <Trackpoint>
            <Time>2022-09-21T08:48:05.000Z</Time>
            <Position>
              <LatitudeDegrees>49.4155879318714141845703125</LatitudeDegrees>
              <LongitudeDegrees>20.3196844272315502166748046875</LongitudeDegrees>
            </Position>
            <AltitudeMeters>498.399993896484375</AltitudeMeters>
            <DistanceMeters>NAN</DistanceMeters>
          </Trackpoint>
          <Trackpoint>
            <Time>2022-09-21T08:48:07.000Z</Time>
            <Position>
              <LatitudeDegrees>49.415546022355556488037109375</LatitudeDegrees>
              <LongitudeDegrees>20.31975257210433483123779296875</LongitudeDegrees>
            </Position>
            <AltitudeMeters>498.20001220703125</AltitudeMeters>
            <DistanceMeters>NAN</DistanceMeters>
          </Trackpoint>
          <Trackpoint>
            <Time>2022-09-21T08:48:11.000Z</Time>
            <Position>
              <LatitudeDegrees>49.41547502763569355010986328125</LatitudeDegrees>
              <LongitudeDegrees>20.31983555294573307037353515625</LongitudeDegrees>
            </Position>
            <AltitudeMeters>498</AltitudeMeters>
            <DistanceMeters>NAN</DistanceMeters>
          </Trackpoint>
          <Trackpoint>
            <Time>2022-09-21T08:48:15.000Z</Time>
            <Position>
              <LatitudeDegrees>49.41541015170514583587646484375</LatitudeDegrees>
              <LongitudeDegrees>20.31991015188395977020263671875</LongitudeDegrees>
            </Position>
            <AltitudeMeters>497.79998779296875</AltitudeMeters>
            <DistanceMeters>NAN</DistanceMeters>
          </Trackpoint>
          <Trackpoint>
            <Time>2022-09-21T08:48:18.000Z</Time>
            <Position>
              <LatitudeDegrees>49.41535181365907192230224609375</LatitudeDegrees>
              <LongitudeDegrees>20.31995524652302265167236328125</LongitudeDegrees>
            </Position>
            <AltitudeMeters>497.399993896484375</AltitudeMeters>
            <DistanceMeters>NAN</DistanceMeters>
          </Trackpoint>
          <Trackpoint>
            <Time>2022-09-21T08:48:26.000Z</Time>
            <Position>
              <LatitudeDegrees>49.41520563326776027679443359375</LatitudeDegrees>
              <LongitudeDegrees>20.320074521005153656005859375</LongitudeDegrees>
            </Position>
            <AltitudeMeters>497.20001220703125</AltitudeMeters>
            <DistanceMeters>NAN</DistanceMeters>
          </Trackpoint>
          <Trackpoint>
            <Time>2022-09-21T08:48:36.000Z</Time>
            <Position>
              <LatitudeDegrees>49.41502307541668415069580078125</LatitudeDegrees>
              <LongitudeDegrees>20.3201843239367008209228515625</LongitudeDegrees>
            </Position>
            <AltitudeMeters>496.79998779296875</AltitudeMeters>
            <DistanceMeters>NAN</DistanceMeters>
          </Trackpoint>
          <Trackpoint>
            <Time>2022-09-21T08:48:42.000Z</Time>
            <Position>
              <LatitudeDegrees>49.414922408759593963623046875</LatitudeDegrees>
              <LongitudeDegrees>20.3202532231807708740234375</LongitudeDegrees>
            </Position>
            <AltitudeMeters>496.79998779296875</AltitudeMeters>
            <DistanceMeters>NAN</DistanceMeters>
          </Trackpoint>
          <Trackpoint>
            <Time>2022-09-21T08:48:43.000Z</Time>
            <Position>
              <LatitudeDegrees>49.41490874625742435455322265625</LatitudeDegrees>
              <LongitudeDegrees>20.32026252709329128265380859375</LongitudeDegrees>
            </Position>
            <AltitudeMeters>496.79998779296875</AltitudeMeters>
            <DistanceMeters>NAN</DistanceMeters>
          </Trackpoint>
          <Trackpoint>
            <Time>2022-09-21T08:48:48.000Z</Time>
            <Position>
              <LatitudeDegrees>49.41478838212788105010986328125</LatitudeDegrees>
              <LongitudeDegrees>20.32027878798544406890869140625</LongitudeDegrees>
            </Position>
            <AltitudeMeters>497</AltitudeMeters>
            <DistanceMeters>NAN</DistanceMeters>
          </Trackpoint>
          <Trackpoint>
            <Time>2022-09-21T08:48:55.000Z</Time>
            <Position>
              <LatitudeDegrees>49.41462845541536808013916015625</LatitudeDegrees>
              <LongitudeDegrees>20.32029974274337291717529296875</LongitudeDegrees>
            </Position>
            <AltitudeMeters>496.79998779296875</AltitudeMeters>
            <DistanceMeters>NAN</DistanceMeters>
          </Trackpoint>
          <Trackpoint>
            <Time>2022-09-21T08:49:03.000Z</Time>
            <Position>
              <LatitudeDegrees>49.41443181596696376800537109375</LatitudeDegrees>
              <LongitudeDegrees>20.32033033668994903564453125</LongitudeDegrees>
            </Position>
            <AltitudeMeters>497</AltitudeMeters>
            <DistanceMeters>NAN</DistanceMeters>
          </Trackpoint>
          <Trackpoint>
            <Time>2022-09-21T08:49:09.000Z</Time>
            <Position>
              <LatitudeDegrees>49.414324946701526641845703125</LatitudeDegrees>
              <LongitudeDegrees>20.32034374773502349853515625</LongitudeDegrees>
            </Position>
            <AltitudeMeters>497</AltitudeMeters>
            <DistanceMeters>NAN</DistanceMeters>
          </Trackpoint>
          <Trackpoint>
            <Time>2022-09-21T08:49:16.000Z</Time>
            <Position>
              <LatitudeDegrees>49.41419863142073154449462890625</LatitudeDegrees>
              <LongitudeDegrees>20.320348776876926422119140625</LongitudeDegrees>
            </Position>
            <AltitudeMeters>497</AltitudeMeters>
            <DistanceMeters>NAN</DistanceMeters>
          </Trackpoint>
          <Trackpoint>
            <Time>2022-09-21T08:49:24.000Z</Time>
            <Position>
              <LatitudeDegrees>49.414023868739604949951171875</LatitudeDegrees>
              <LongitudeDegrees>20.32040032558143138885498046875</LongitudeDegrees>
            </Position>
            <AltitudeMeters>497</AltitudeMeters>
            <DistanceMeters>NAN</DistanceMeters>
          </Trackpoint>
          <Trackpoint>
            <Time>2022-09-21T08:49:26.000Z</Time>
            <Position>
              <LatitudeDegrees>49.41397986374795436859130859375</LatitudeDegrees>
              <LongitudeDegrees>20.32040267251431941986083984375</LongitudeDegrees>
            </Position>
            <AltitudeMeters>497</AltitudeMeters>
            <DistanceMeters>NAN</DistanceMeters>
          </Trackpoint>
          <Trackpoint>
            <Time>2022-09-21T08:49:29.000Z</Time>
            <Position>
              <LatitudeDegrees>49.41392588429152965545654296875</LatitudeDegrees>
              <LongitudeDegrees>20.32038087956607341766357421875</LongitudeDegrees>
            </Position>
            <AltitudeMeters>497</AltitudeMeters>
            <DistanceMeters>NAN</DistanceMeters>
          </Trackpoint>
          <Trackpoint>
            <Time>2022-09-21T08:49:32.000Z</Time>
            <Position>
              <LatitudeDegrees>49.41385078243911266326904296875</LatitudeDegrees>
              <LongitudeDegrees>20.320364534854888916015625</LongitudeDegrees>
            </Position>
            <AltitudeMeters>496.79998779296875</AltitudeMeters>
            <DistanceMeters>NAN</DistanceMeters>
          </Trackpoint>
          <Trackpoint>
            <Time>2022-09-21T08:49:33.000Z</Time>
            <Position>
              <LatitudeDegrees>49.41382831893861293792724609375</LatitudeDegrees>
              <LongitudeDegrees>20.32036797143518924713134765625</LongitudeDegrees>
            </Position>
            <AltitudeMeters>496.600006103515625</AltitudeMeters>
            <DistanceMeters>NAN</DistanceMeters>
          </Trackpoint>
          <Trackpoint>
            <Time>2022-09-21T08:49:34.000Z</Time>
            <Position>
              <LatitudeDegrees>49.41381742246448993682861328125</LatitudeDegrees>
              <LongitudeDegrees>20.32038238830864429473876953125</LongitudeDegrees>
            </Position>
            <AltitudeMeters>496.600006103515625</AltitudeMeters>
            <DistanceMeters>NAN</DistanceMeters>
          </Trackpoint>
          <Trackpoint>
            <Time>2022-09-21T08:49:39.000Z</Time>
            <Position>
              <LatitudeDegrees>49.413721449673175811767578125</LatitudeDegrees>
              <LongitudeDegrees>20.32043703831732273101806640625</LongitudeDegrees>
            </Position>
            <AltitudeMeters>497</AltitudeMeters>
            <DistanceMeters>NAN</DistanceMeters>
          </Trackpoint>
          <Trackpoint>
            <Time>2022-09-21T08:49:47.000Z</Time>
            <Position>
              <LatitudeDegrees>49.413520283997058868408203125</LatitudeDegrees>
              <LongitudeDegrees>20.32046847045421600341796875</LongitudeDegrees>
            </Position>
            <AltitudeMeters>497.20001220703125</AltitudeMeters>
            <DistanceMeters>NAN</DistanceMeters>
          </Trackpoint>
          <Trackpoint>
            <Time>2022-09-21T08:49:56.000Z</Time>
            <Position>
              <LatitudeDegrees>49.41329455934464931488037109375</LatitudeDegrees>
              <LongitudeDegrees>20.3205199353396892547607421875</LongitudeDegrees>
            </Position>
            <AltitudeMeters>497.20001220703125</AltitudeMeters>
            <DistanceMeters>NAN</DistanceMeters>
          </Trackpoint>
          <Trackpoint>
            <Time>2022-09-21T08:50:01.000Z</Time>
            <Position>
              <LatitudeDegrees>49.41318123601377010345458984375</LatitudeDegrees>
              <LongitudeDegrees>20.32048967666923999786376953125</LongitudeDegrees>
            </Position>
            <AltitudeMeters>497.600006103515625</AltitudeMeters>
            <DistanceMeters>NAN</DistanceMeters>
          </Trackpoint>
          <Trackpoint>
            <Time>2022-09-21T08:50:03.000Z</Time>
            <Position>
              <LatitudeDegrees>49.41313915885984897613525390625</LatitudeDegrees>
              <LongitudeDegrees>20.320479534566402435302734375</LongitudeDegrees>
            </Position>
            <AltitudeMeters>497.79998779296875</AltitudeMeters>
            <DistanceMeters>NAN</DistanceMeters>
          </Trackpoint>
          <Trackpoint>
            <Time>2022-09-21T08:50:09.000Z</Time>
            <Position>
              <LatitudeDegrees>49.412967078387737274169921875</LatitudeDegrees>
              <LongitudeDegrees>20.3205078653991222381591796875</LongitudeDegrees>
            </Position>
            <AltitudeMeters>498.600006103515625</AltitudeMeters>
            <DistanceMeters>NAN</DistanceMeters>
          </Trackpoint>
          <Trackpoint>
            <Time>2022-09-21T08:50:17.000Z</Time>
            <Position>
              <LatitudeDegrees>49.412748813629150390625</LatitudeDegrees>
              <LongitudeDegrees>20.3205454163253307342529296875</LongitudeDegrees>
            </Position>
            <AltitudeMeters>498.79998779296875</AltitudeMeters>
            <DistanceMeters>NAN</DistanceMeters>
          </Trackpoint>
          <Trackpoint>
            <Time>2022-09-21T08:50:19.000Z</Time>
            <Position>
              <LatitudeDegrees>49.41270053386688232421875</LatitudeDegrees>
              <LongitudeDegrees>20.3205561451613903045654296875</LongitudeDegrees>
            </Position>
            <AltitudeMeters>498.79998779296875</AltitudeMeters>
            <DistanceMeters>NAN</DistanceMeters>
          </Trackpoint>
          <Trackpoint>
            <Time>2022-09-21T08:50:22.000Z</Time>
            <Position>
              <LatitudeDegrees>49.41263725049793720245361328125</LatitudeDegrees>
              <LongitudeDegrees>20.32057131640613079071044921875</LongitudeDegrees>
            </Position>
            <AltitudeMeters>499</AltitudeMeters>
            <DistanceMeters>NAN</DistanceMeters>
          </Trackpoint>
          <Trackpoint>
            <Time>2022-09-21T08:50:25.000Z</Time>
            <Position>
              <LatitudeDegrees>49.4125659205019474029541015625</LatitudeDegrees>
              <LongitudeDegrees>20.3206211887300014495849609375</LongitudeDegrees>
            </Position>
            <AltitudeMeters>498.600006103515625</AltitudeMeters>
            <DistanceMeters>NAN</DistanceMeters>
          </Trackpoint>
          <Trackpoint>
            <Time>2022-09-21T08:50:30.000Z</Time>
            <Position>
              <LatitudeDegrees>49.41240322776138782501220703125</LatitudeDegrees>
              <LongitudeDegrees>20.32069520093500614166259765625</LongitudeDegrees>
            </Position>
            <AltitudeMeters>497.79998779296875</AltitudeMeters>
            <DistanceMeters>NAN</DistanceMeters>
          </Trackpoint>
          <Trackpoint>
            <Time>2022-09-21T08:50:37.000Z</Time>
            <Position>
              <LatitudeDegrees>49.4121964462101459503173828125</LatitudeDegrees>
              <LongitudeDegrees>20.32080969773232936859130859375</LongitudeDegrees>
            </Position>
            <AltitudeMeters>497.399993896484375</AltitudeMeters>
            <DistanceMeters>NAN</DistanceMeters>
          </Trackpoint>
          <Trackpoint>
            <Time>2022-09-21T08:50:44.000Z</Time>
            <Position>
              <LatitudeDegrees>49.4119788520038127899169921875</LatitudeDegrees>
              <LongitudeDegrees>20.32100348733365535736083984375</LongitudeDegrees>
            </Position>
            <AltitudeMeters>497.20001220703125</AltitudeMeters>
            <DistanceMeters>NAN</DistanceMeters>
          </Trackpoint>
          <Trackpoint>
            <Time>2022-09-21T08:50:48.000Z</Time>
            <Position>
              <LatitudeDegrees>49.4118749164044857025146484375</LatitudeDegrees>
              <LongitudeDegrees>20.32113659195601940155029296875</LongitudeDegrees>
            </Position>
            <AltitudeMeters>497</AltitudeMeters>
            <DistanceMeters>NAN</DistanceMeters>
          </Trackpoint>
          <Trackpoint>
            <Time>2022-09-21T08:50:50.000Z</Time>
            <Position>
              <LatitudeDegrees>49.41182546317577362060546875</LatitudeDegrees>
              <LongitudeDegrees>20.32118973322212696075439453125</LongitudeDegrees>
            </Position>
            <AltitudeMeters>497</AltitudeMeters>
            <DistanceMeters>NAN</DistanceMeters>
          </Trackpoint>
          <Trackpoint>
            <Time>2022-09-21T08:50:58.000Z</Time>
            <Position>
              <LatitudeDegrees>49.41162991337478160858154296875</LatitudeDegrees>
              <LongitudeDegrees>20.32141403295099735260009765625</LongitudeDegrees>
            </Position>
            <AltitudeMeters>497.20001220703125</AltitudeMeters>
            <DistanceMeters>NAN</DistanceMeters>
          </Trackpoint>
          <Trackpoint>
            <Time>2022-09-21T08:51:01.000Z</Time>
            <Position>
              <LatitudeDegrees>49.4115647859871387481689453125</LatitudeDegrees>
              <LongitudeDegrees>20.32147563993930816650390625</LongitudeDegrees>
            </Position>
            <AltitudeMeters>497.399993896484375</AltitudeMeters>
            <DistanceMeters>NAN</DistanceMeters>
          </Trackpoint>
          <Trackpoint>
            <Time>2022-09-21T08:51:06.000Z</Time>
            <Position>
              <LatitudeDegrees>49.41143453121185302734375</LatitudeDegrees>
              <LongitudeDegrees>20.321615450084209442138671875</LongitudeDegrees>
            </Position>
            <AltitudeMeters>497.399993896484375</AltitudeMeters>
            <DistanceMeters>NAN</DistanceMeters>
          </Trackpoint>
          <Trackpoint>
            <Time>2022-09-21T08:51:14.000Z</Time>
            <Position>
              <LatitudeDegrees>49.4112348742783069610595703125</LatitudeDegrees>
              <LongitudeDegrees>20.32182432711124420166015625</LongitudeDegrees>
            </Position>
            <AltitudeMeters>497.20001220703125</AltitudeMeters>
            <DistanceMeters>NAN</DistanceMeters>
          </Trackpoint>
          <Trackpoint>
            <Time>2022-09-21T08:51:18.000Z</Time>
            <Position>
              <LatitudeDegrees>49.4111346267163753509521484375</LatitudeDegrees>
              <LongitudeDegrees>20.32192549668252468109130859375</LongitudeDegrees>
            </Position>
            <AltitudeMeters>497.20001220703125</AltitudeMeters>
            <DistanceMeters>NAN</DistanceMeters>
          </Trackpoint>
          <Trackpoint>
            <Time>2022-09-21T08:51:24.000Z</Time>
            <Position>
              <LatitudeDegrees>49.4109887816011905670166015625</LatitudeDegrees>
              <LongitudeDegrees>20.32206262461841106414794921875</LongitudeDegrees>
            </Position>
            <AltitudeMeters>497.399993896484375</AltitudeMeters>
            <DistanceMeters>NAN</DistanceMeters>
          </Trackpoint>
          <Trackpoint>
            <Time>2022-09-21T08:51:32.000Z</Time>
            <Position>
              <LatitudeDegrees>49.41079054959118366241455078125</LatitudeDegrees>
              <LongitudeDegrees>20.3222160972654819488525390625</LongitudeDegrees>
            </Position>
            <AltitudeMeters>497.399993896484375</AltitudeMeters>
            <DistanceMeters>NAN</DistanceMeters>
          </Trackpoint>
          <Trackpoint>
            <Time>2022-09-21T08:51:39.000Z</Time>
            <Position>
              <LatitudeDegrees>49.410600364208221435546875</LatitudeDegrees>
              <LongitudeDegrees>20.32231341116130352020263671875</LongitudeDegrees>
            </Position>
            <AltitudeMeters>497.600006103515625</AltitudeMeters>
            <DistanceMeters>NAN</DistanceMeters>
          </Trackpoint>
          <Trackpoint>
            <Time>2022-09-21T08:51:41.000Z</Time>
            <Position>
              <LatitudeDegrees>49.4105552695691585540771484375</LatitudeDegrees>
              <LongitudeDegrees>20.3223267383873462677001953125</LongitudeDegrees>
            </Position>
            <AltitudeMeters>497.600006103515625</AltitudeMeters>
            <DistanceMeters>NAN</DistanceMeters>
          </Trackpoint>
          <Trackpoint>
            <Time>2022-09-21T08:51:49.000Z</Time>
            <Position>
              <LatitudeDegrees>49.41034496761858463287353515625</LatitudeDegrees>
              <LongitudeDegrees>20.32237149775028228759765625</LongitudeDegrees>
            </Position>
            <AltitudeMeters>497.20001220703125</AltitudeMeters>
            <DistanceMeters>NAN</DistanceMeters>
          </Trackpoint>
          <Trackpoint>
            <Time>2022-09-21T08:51:51.000Z</Time>
            <Position>
              <LatitudeDegrees>49.4102826900780200958251953125</LatitudeDegrees>
              <LongitudeDegrees>20.32237241975963115692138671875</LongitudeDegrees>
            </Position>
            <AltitudeMeters>497.20001220703125</AltitudeMeters>
            <DistanceMeters>NAN</DistanceMeters>
          </Trackpoint>
          <Trackpoint>
            <Time>2022-09-21T08:51:55.000Z</Time>
            <Position>
              <LatitudeDegrees>49.41014765761792659759521484375</LatitudeDegrees>
              <LongitudeDegrees>20.32240242697298526763916015625</LongitudeDegrees>
            </Position>
            <AltitudeMeters>497.20001220703125</AltitudeMeters>
            <DistanceMeters>NAN</DistanceMeters>
          </Trackpoint>
          <Trackpoint>
            <Time>2022-09-21T08:52:02.000Z</Time>
            <Position>
              <LatitudeDegrees>49.409926794469356536865234375</LatitudeDegrees>
              <LongitudeDegrees>20.32241575419902801513671875</LongitudeDegrees>
            </Position>
            <AltitudeMeters>497.20001220703125</AltitudeMeters>
            <DistanceMeters>NAN</DistanceMeters>
          </Trackpoint>
          <Trackpoint>
            <Time>2022-09-21T08:52:09.000Z</Time>
            <Position>
              <LatitudeDegrees>49.4097090326249599456787109375</LatitudeDegrees>
              <LongitudeDegrees>20.3224186040461063385009765625</LongitudeDegrees>
            </Position>
            <AltitudeMeters>497.20001220703125</AltitudeMeters>
            <DistanceMeters>NAN</DistanceMeters>
          </Trackpoint>
          <Trackpoint>
            <Time>2022-09-21T08:52:14.000Z</Time>
            <Position>
              <LatitudeDegrees>49.4095276482403278350830078125</LatitudeDegrees>
              <LongitudeDegrees>20.32244525849819183349609375</LongitudeDegrees>
            </Position>
            <AltitudeMeters>497.20001220703125</AltitudeMeters>
            <DistanceMeters>NAN</DistanceMeters>
          </Trackpoint>
          <Trackpoint>
            <Time>2022-09-21T08:52:20.000Z</Time>
            <Position>
              <LatitudeDegrees>49.4093476049602031707763671875</LatitudeDegrees>
              <LongitudeDegrees>20.32251792959868907928466796875</LongitudeDegrees>
            </Position>
            <AltitudeMeters>497.399993896484375</AltitudeMeters>
            <DistanceMeters>NAN</DistanceMeters>
          </Trackpoint>
          <Trackpoint>
            <Time>2022-09-21T08:52:25.000Z</Time>
            <Position>
              <LatitudeDegrees>49.40918977372348308563232421875</LatitudeDegrees>
              <LongitudeDegrees>20.322632677853107452392578125</LongitudeDegrees>
            </Position>
            <AltitudeMeters>497.20001220703125</AltitudeMeters>
            <DistanceMeters>NAN</DistanceMeters>
          </Trackpoint>
          <Trackpoint>
            <Time>2022-09-21T08:52:29.000Z</Time>
            <Position>
              <LatitudeDegrees>49.4090569205582141876220703125</LatitudeDegrees>
              <LongitudeDegrees>20.32276536338031291961669921875</LongitudeDegrees>
            </Position>
            <AltitudeMeters>497</AltitudeMeters>
            <DistanceMeters>NAN</DistanceMeters>
          </Trackpoint>
          <Trackpoint>
            <Time>2022-09-21T08:52:30.000Z</Time>
            <Position>
              <LatitudeDegrees>49.40901140682399272918701171875</LatitudeDegrees>
              <LongitudeDegrees>20.32281498424708843231201171875</LongitudeDegrees>
            </Position>
            <AltitudeMeters>497</AltitudeMeters>
            <DistanceMeters>NAN</DistanceMeters>
          </Trackpoint>
          <Trackpoint>
            <Time>2022-09-21T08:52:34.000Z</Time>
            <Position>
              <LatitudeDegrees>49.408877380192279815673828125</LatitudeDegrees>
              <LongitudeDegrees>20.32296954654157161712646484375</LongitudeDegrees>
            </Position>
            <AltitudeMeters>497</AltitudeMeters>
            <DistanceMeters>NAN</DistanceMeters>
          </Trackpoint>
          <Trackpoint>
            <Time>2022-09-21T08:52:36.000Z</Time>
            <Position>
              <LatitudeDegrees>49.40881459973752498626708984375</LatitudeDegrees>
              <LongitudeDegrees>20.32304666005074977874755859375</LongitudeDegrees>
            </Position>
            <AltitudeMeters>497</AltitudeMeters>
            <DistanceMeters>NAN</DistanceMeters>
          </Trackpoint>
          <Trackpoint>
            <Time>2022-09-21T08:52:37.000Z</Time>
            <Position>
              <LatitudeDegrees>49.408781826496124267578125</LatitudeDegrees>
              <LongitudeDegrees>20.3230790980160236358642578125</LongitudeDegrees>
            </Position>
            <AltitudeMeters>497</AltitudeMeters>
            <DistanceMeters>NAN</DistanceMeters>
          </Trackpoint>
          <Trackpoint>
            <Time>2022-09-21T08:52:41.000Z</Time>
            <Position>
              <LatitudeDegrees>49.408663474023342132568359375</LatitudeDegrees>
              <LongitudeDegrees>20.3232075087726116180419921875</LongitudeDegrees>
            </Position>
            <AltitudeMeters>496.79998779296875</AltitudeMeters>
            <DistanceMeters>NAN</DistanceMeters>
          </Trackpoint>
          <Trackpoint>
            <Time>2022-09-21T08:52:44.000Z</Time>
            <Position>
              <LatitudeDegrees>49.40858644433319568634033203125</LatitudeDegrees>
              <LongitudeDegrees>20.32329174689948558807373046875</LongitudeDegrees>
            </Position>
            <AltitudeMeters>497</AltitudeMeters>
            <DistanceMeters>NAN</DistanceMeters>
          </Trackpoint>
          <Trackpoint>
            <Time>2022-09-21T08:52:50.000Z</Time>
            <Position>
              <LatitudeDegrees>49.408430121839046478271484375</LatitudeDegrees>
              <LongitudeDegrees>20.32342636026442050933837890625</LongitudeDegrees>
            </Position>
            <AltitudeMeters>497.20001220703125</AltitudeMeters>
            <DistanceMeters>NAN</DistanceMeters>
          </Trackpoint>
          <Trackpoint>
            <Time>2022-09-21T08:52:56.000Z</Time>
            <Position>
              <LatitudeDegrees>49.4082274474203586578369140625</LatitudeDegrees>
              <LongitudeDegrees>20.32359969802200794219970703125</LongitudeDegrees>
            </Position>
            <AltitudeMeters>497</AltitudeMeters>
            <DistanceMeters>NAN</DistanceMeters>
          </Trackpoint>
          <Trackpoint>
            <Time>2022-09-21T08:53:02.000Z</Time>
            <Position>
              <LatitudeDegrees>49.40804279409348964691162109375</LatitudeDegrees>
              <LongitudeDegrees>20.32375191338360309600830078125</LongitudeDegrees>
            </Position>
            <AltitudeMeters>497</AltitudeMeters>
            <DistanceMeters>NAN</DistanceMeters>
          </Trackpoint>
          <Trackpoint>
            <Time>2022-09-21T08:53:06.000Z</Time>
            <Position>
              <LatitudeDegrees>49.4079350866377353668212890625</LatitudeDegrees>
              <LongitudeDegrees>20.323840342462062835693359375</LongitudeDegrees>
            </Position>
            <AltitudeMeters>497</AltitudeMeters>
            <DistanceMeters>NAN</DistanceMeters>
          </Trackpoint>
          <Trackpoint>
            <Time>2022-09-21T08:53:13.000Z</Time>
            <Position>
              <LatitudeDegrees>49.407713301479816436767578125</LatitudeDegrees>
              <LongitudeDegrees>20.32404720783233642578125</LongitudeDegrees>
            </Position>
            <AltitudeMeters>497.20001220703125</AltitudeMeters>
            <DistanceMeters>NAN</DistanceMeters>
          </Trackpoint>
          <Trackpoint>
            <Time>2022-09-21T08:53:16.000Z</Time>
            <Position>
              <LatitudeDegrees>49.40761506557464599609375</LatitudeDegrees>
              <LongitudeDegrees>20.32414351589977741241455078125</LongitudeDegrees>
            </Position>
            <AltitudeMeters>497.399993896484375</AltitudeMeters>
            <DistanceMeters>NAN</DistanceMeters>
          </Trackpoint>
          <Trackpoint>
            <Time>2022-09-21T08:53:20.000Z</Time>
            <Position>
              <LatitudeDegrees>49.40751154907047748565673828125</LatitudeDegrees>
              <LongitudeDegrees>20.32426555640995502471923828125</LongitudeDegrees>
            </Position>
            <AltitudeMeters>497.600006103515625</AltitudeMeters>
            <DistanceMeters>NAN</DistanceMeters>
          </Trackpoint>
          <Trackpoint>
            <Time>2022-09-21T08:53:26.000Z</Time>
            <Position>
              <LatitudeDegrees>49.407353885471820831298828125</LatitudeDegrees>
              <LongitudeDegrees>20.32449605874717235565185546875</LongitudeDegrees>
            </Position>
            <AltitudeMeters>497.600006103515625</AltitudeMeters>
            <DistanceMeters>NAN</DistanceMeters>
          </Trackpoint>
          <Trackpoint>
            <Time>2022-09-21T08:53:31.000Z</Time>
            <Position>
              <LatitudeDegrees>49.40723419189453125</LatitudeDegrees>
              <LongitudeDegrees>20.32468398101627826690673828125</LongitudeDegrees>
            </Position>
            <AltitudeMeters>497.600006103515625</AltitudeMeters>
            <DistanceMeters>NAN</DistanceMeters>
          </Trackpoint>
          <Trackpoint>
            <Time>2022-09-21T08:53:34.000Z</Time>
            <Position>
              <LatitudeDegrees>49.4071765244007110595703125</LatitudeDegrees>
              <LongitudeDegrees>20.32479579560458660125732421875</LongitudeDegrees>
            </Position>
            <AltitudeMeters>497.600006103515625</AltitudeMeters>
            <DistanceMeters>NAN</DistanceMeters>
          </Trackpoint>
          <Trackpoint>
            <Time>2022-09-21T08:53:43.000Z</Time>
            <Position>
              <LatitudeDegrees>49.40699975006282329559326171875</LatitudeDegrees>
              <LongitudeDegrees>20.3252520225942134857177734375</LongitudeDegrees>
            </Position>
            <AltitudeMeters>497.600006103515625</AltitudeMeters>
            <DistanceMeters>NAN</DistanceMeters>
          </Trackpoint>
          <Trackpoint>
            <Time>2022-09-21T08:53:44.000Z</Time>
            <Position>
              <LatitudeDegrees>49.406979046761989593505859375</LatitudeDegrees>
              <LongitudeDegrees>20.325302146375179290771484375</LongitudeDegrees>
            </Position>
            <AltitudeMeters>497.600006103515625</AltitudeMeters>
            <DistanceMeters>NAN</DistanceMeters>
          </Trackpoint>
          <Trackpoint>
            <Time>2022-09-21T08:53:53.000Z</Time>
            <Position>
              <LatitudeDegrees>49.40682071261107921600341796875</LatitudeDegrees>
              <LongitudeDegrees>20.3257623128592967987060546875</LongitudeDegrees>
            </Position>
            <AltitudeMeters>497.79998779296875</AltitudeMeters>
            <DistanceMeters>NAN</DistanceMeters>
          </Trackpoint>
          <Trackpoint>
            <Time>2022-09-21T08:54:02.000Z</Time>
            <Position>
              <LatitudeDegrees>49.40667067654430866241455078125</LatitudeDegrees>
              <LongitudeDegrees>20.32619942910969257354736328125</LongitudeDegrees>
            </Position>
            <AltitudeMeters>498</AltitudeMeters>
            <DistanceMeters>NAN</DistanceMeters>
          </Trackpoint>
          <Trackpoint>
            <Time>2022-09-21T08:54:09.000Z</Time>
            <Position>
              <LatitudeDegrees>49.40658442676067352294921875</LatitudeDegrees>
              <LongitudeDegrees>20.32653839327394962310791015625</LongitudeDegrees>
            </Position>
            <AltitudeMeters>498</AltitudeMeters>
            <DistanceMeters>NAN</DistanceMeters>
          </Trackpoint>
          <Trackpoint>
            <Time>2022-09-21T08:54:17.000Z</Time>
            <Position>
              <LatitudeDegrees>49.4064890407025814056396484375</LatitudeDegrees>
              <LongitudeDegrees>20.326942317187786102294921875</LongitudeDegrees>
            </Position>
            <AltitudeMeters>498</AltitudeMeters>
            <DistanceMeters>NAN</DistanceMeters>
          </Trackpoint>
          <Trackpoint>
            <Time>2022-09-21T08:54:20.000Z</Time>
            <Position>
              <LatitudeDegrees>49.40646640956401824951171875</LatitudeDegrees>
              <LongitudeDegrees>20.32708053477108478546142578125</LongitudeDegrees>
            </Position>
            <AltitudeMeters>497.79998779296875</AltitudeMeters>
            <DistanceMeters>NAN</DistanceMeters>
          </Trackpoint>
          <Trackpoint>
            <Time>2022-09-21T08:54:24.000Z</Time>
            <Position>
              <LatitudeDegrees>49.40641016699373722076416015625</LatitudeDegrees>
              <LongitudeDegrees>20.3272683732211589813232421875</LongitudeDegrees>
            </Position>
            <AltitudeMeters>497.79998779296875</AltitudeMeters>
            <DistanceMeters>NAN</DistanceMeters>
          </Trackpoint>
          <Trackpoint>
            <Time>2022-09-21T08:54:32.000Z</Time>
            <Position>
              <LatitudeDegrees>49.4063289463520050048828125</LatitudeDegrees>
              <LongitudeDegrees>20.32768704928457736968994140625</LongitudeDegrees>
            </Position>
            <AltitudeMeters>497.600006103515625</AltitudeMeters>
            <DistanceMeters>NAN</DistanceMeters>
          </Trackpoint>
          <Trackpoint>
            <Time>2022-09-21T08:54:40.000Z</Time>
            <Position>
              <LatitudeDegrees>49.40622878260910511016845703125</LatitudeDegrees>
              <LongitudeDegrees>20.32810647971928119659423828125</LongitudeDegrees>
            </Position>
            <AltitudeMeters>498</AltitudeMeters>
            <DistanceMeters>NAN</DistanceMeters>
          </Trackpoint>
          <Trackpoint>
            <Time>2022-09-21T08:54:47.000Z</Time>
            <Position>
              <LatitudeDegrees>49.40614513121545314788818359375</LatitudeDegrees>
              <LongitudeDegrees>20.32842817716300487518310546875</LongitudeDegrees>
            </Position>
            <AltitudeMeters>498.600006103515625</AltitudeMeters>
            <DistanceMeters>NAN</DistanceMeters>
          </Trackpoint>
          <Trackpoint>
            <Time>2022-09-21T08:54:53.000Z</Time>
            <Position>
              <LatitudeDegrees>49.40603935159742832183837890625</LatitudeDegrees>
              <LongitudeDegrees>20.3287281654775142669677734375</LongitudeDegrees>
            </Position>
            <AltitudeMeters>498.600006103515625</AltitudeMeters>
            <DistanceMeters>NAN</DistanceMeters>
          </Trackpoint>
          <Trackpoint>
            <Time>2022-09-21T08:54:54.000Z</Time>
            <Position>
              <LatitudeDegrees>49.40601889975368976593017578125</LatitudeDegrees>
              <LongitudeDegrees>20.32877854071557521820068359375</LongitudeDegrees>
            </Position>
            <AltitudeMeters>498.399993896484375</AltitudeMeters>
            <DistanceMeters>NAN</DistanceMeters>
          </Trackpoint>
          <Trackpoint>
            <Time>2022-09-21T08:54:59.000Z</Time>
            <Position>
              <LatitudeDegrees>49.40591731108725070953369140625</LatitudeDegrees>
              <LongitudeDegrees>20.32900032587349414825439453125</LongitudeDegrees>
            </Position>
            <AltitudeMeters>498.20001220703125</AltitudeMeters>
            <DistanceMeters>NAN</DistanceMeters>
          </Trackpoint>
          <Trackpoint>
            <Time>2022-09-21T08:55:02.000Z</Time>
            <Position>
              <LatitudeDegrees>49.405859895050525665283203125</LatitudeDegrees>
              <LongitudeDegrees>20.32912571914494037628173828125</LongitudeDegrees>
            </Position>
            <AltitudeMeters>498.20001220703125</AltitudeMeters>
            <DistanceMeters>NAN</DistanceMeters>
          </Trackpoint>
          <Trackpoint>
            <Time>2022-09-21T08:55:09.000Z</Time>
            <Position>
              <LatitudeDegrees>49.40572838298976421356201171875</LatitudeDegrees>
              <LongitudeDegrees>20.3294290602207183837890625</LongitudeDegrees>
            </Position>
            <AltitudeMeters>498</AltitudeMeters>
            <DistanceMeters>NAN</DistanceMeters>
          </Trackpoint>
          <Trackpoint>
            <Time>2022-09-21T08:55:19.000Z</Time>
            <Position>
              <LatitudeDegrees>49.405549429357051849365234375</LatitudeDegrees>
              <LongitudeDegrees>20.32982124947011470794677734375</LongitudeDegrees>
            </Position>
            <AltitudeMeters>497.600006103515625</AltitudeMeters>
            <DistanceMeters>NAN</DistanceMeters>
          </Trackpoint>
          <Trackpoint>
            <Time>2022-09-21T08:55:25.000Z</Time>
            <Position>
              <LatitudeDegrees>49.40546737052500247955322265625</LatitudeDegrees>
              <LongitudeDegrees>20.33004286698997020721435546875</LongitudeDegrees>
            </Position>
            <AltitudeMeters>497.79998779296875</AltitudeMeters>
            <DistanceMeters>NAN</DistanceMeters>
          </Trackpoint>
          <Trackpoint>
            <Time>2022-09-21T08:55:26.000Z</Time>
            <Position>
              <LatitudeDegrees>49.4054590724408626556396484375</LatitudeDegrees>
              <LongitudeDegrees>20.33008041791617870330810546875</LongitudeDegrees>
            </Position>
            <AltitudeMeters>497.79998779296875</AltitudeMeters>
            <DistanceMeters>NAN</DistanceMeters>
          </Trackpoint>
          <Trackpoint>
            <Time>2022-09-21T08:55:35.000Z</Time>
            <Position>
              <LatitudeDegrees>49.40539143048226833343505859375</LatitudeDegrees>
              <LongitudeDegrees>20.330421812832355499267578125</LongitudeDegrees>
            </Position>
            <AltitudeMeters>497.79998779296875</AltitudeMeters>
            <DistanceMeters>NAN</DistanceMeters>
          </Trackpoint>
          <Trackpoint>
            <Time>2022-09-21T08:55:38.000Z</Time>
            <Position>
              <LatitudeDegrees>49.40536938607692718505859375</LatitudeDegrees>
              <LongitudeDegrees>20.3305416740477085113525390625</LongitudeDegrees>
            </Position>
            <AltitudeMeters>497.600006103515625</AltitudeMeters>
            <DistanceMeters>NAN</DistanceMeters>
          </Trackpoint>
          <Trackpoint>
            <Time>2022-09-21T08:55:42.000Z</Time>
            <Position>
              <LatitudeDegrees>49.405312053859233856201171875</LatitudeDegrees>
              <LongitudeDegrees>20.3306754492223262786865234375</LongitudeDegrees>
            </Position>
            <AltitudeMeters>497.600006103515625</AltitudeMeters>
            <DistanceMeters>NAN</DistanceMeters>
          </Trackpoint>
          <Trackpoint>
            <Time>2022-09-21T08:55:47.000Z</Time>
            <Position>
              <LatitudeDegrees>49.405194036662578582763671875</LatitudeDegrees>
              <LongitudeDegrees>20.33078030683100223541259765625</LongitudeDegrees>
            </Position>
            <AltitudeMeters>497.79998779296875</AltitudeMeters>
            <DistanceMeters>NAN</DistanceMeters>
          </Trackpoint>
          <Trackpoint>
            <Time>2022-09-21T08:55:48.000Z</Time>
            <Position>
              <LatitudeDegrees>49.4051717408001422882080078125</LatitudeDegrees>
              <LongitudeDegrees>20.33079673536121845245361328125</LongitudeDegrees>
            </Position>
            <AltitudeMeters>497.79998779296875</AltitudeMeters>
            <DistanceMeters>NAN</DistanceMeters>
          </Trackpoint>
          <Trackpoint>
            <Time>2022-09-21T08:55:52.000Z</Time>
            <Position>
              <LatitudeDegrees>49.40509471110999584197998046875</LatitudeDegrees>
              <LongitudeDegrees>20.33086873590946197509765625</LongitudeDegrees>
            </Position>
            <AltitudeMeters>498</AltitudeMeters>
            <DistanceMeters>NAN</DistanceMeters>
          </Trackpoint>
          <Trackpoint>
            <Time>2022-09-21T08:55:53.000Z</Time>
            <Position>
              <LatitudeDegrees>49.40509420819580554962158203125</LatitudeDegrees>
              <LongitudeDegrees>20.33090134151279926300048828125</LongitudeDegrees>
            </Position>
            <AltitudeMeters>498</AltitudeMeters>
            <DistanceMeters>NAN</DistanceMeters>
          </Trackpoint>
          <Trackpoint>
            <Time>2022-09-21T08:55:58.000Z</Time>
            <Position>
              <LatitudeDegrees>49.40515774302184581756591796875</LatitudeDegrees>
              <LongitudeDegrees>20.3310569934546947479248046875</LongitudeDegrees>
            </Position>
            <AltitudeMeters>497.20001220703125</AltitudeMeters>
            <DistanceMeters>NAN</DistanceMeters>
          </Trackpoint>
          <Trackpoint>
            <Time>2022-09-21T08:55:59.000Z</Time>
            <Position>
              <LatitudeDegrees>49.4051836431026458740234375</LatitudeDegrees>
              <LongitudeDegrees>20.331060849130153656005859375</LongitudeDegrees>
            </Position>
            <AltitudeMeters>497.20001220703125</AltitudeMeters>
            <DistanceMeters>NAN</DistanceMeters>
          </Trackpoint>
          <Trackpoint>
            <Time>2022-09-21T08:56:06.000Z</Time>
            <Position>
              <LatitudeDegrees>49.40537030808627605438232421875</LatitudeDegrees>
              <LongitudeDegrees>20.33112916164100170135498046875</LongitudeDegrees>
            </Position>
            <AltitudeMeters>497.20001220703125</AltitudeMeters>
            <DistanceMeters>NAN</DistanceMeters>
          </Trackpoint>
          <Trackpoint>
            <Time>2022-09-21T08:56:10.000Z</Time>
            <Position>
              <LatitudeDegrees>49.40544256009161472320556640625</LatitudeDegrees>
              <LongitudeDegrees>20.33131130039691925048828125</LongitudeDegrees>
            </Position>
            <AltitudeMeters>497</AltitudeMeters>
            <DistanceMeters>NAN</DistanceMeters>
          </Trackpoint>
          <Trackpoint>
            <Time>2022-09-21T08:56:18.000Z</Time>
            <Position>
              <LatitudeDegrees>49.4055485911667346954345703125</LatitudeDegrees>
              <LongitudeDegrees>20.33165990374982357025146484375</LongitudeDegrees>
            </Position>
            <AltitudeMeters>497.20001220703125</AltitudeMeters>
            <DistanceMeters>NAN</DistanceMeters>
          </Trackpoint>
          <Trackpoint>
            <Time>2022-09-21T08:56:27.000Z</Time>
            <Position>
              <LatitudeDegrees>49.40572184510529041290283203125</LatitudeDegrees>
              <LongitudeDegrees>20.33199367113411426544189453125</LongitudeDegrees>
            </Position>
            <AltitudeMeters>497.20001220703125</AltitudeMeters>
            <DistanceMeters>NAN</DistanceMeters>
          </Trackpoint>
          <Trackpoint>
            <Time>2022-09-21T08:56:37.000Z</Time>
            <Position>
              <LatitudeDegrees>49.4059046544134616851806640625</LatitudeDegrees>
              <LongitudeDegrees>20.33233749680221080780029296875</LongitudeDegrees>
            </Position>
            <AltitudeMeters>497.399993896484375</AltitudeMeters>
            <DistanceMeters>NAN</DistanceMeters>
          </Trackpoint>
          <Trackpoint>
            <Time>2022-09-21T08:56:44.000Z</Time>
            <Position>
              <LatitudeDegrees>49.40601437352597713470458984375</LatitudeDegrees>
              <LongitudeDegrees>20.332559533417224884033203125</LongitudeDegrees>
            </Position>
            <AltitudeMeters>497.399993896484375</AltitudeMeters>
            <DistanceMeters>NAN</DistanceMeters>
          </Trackpoint>
          <Trackpoint>
            <Time>2022-09-21T08:56:51.000Z</Time>
            <Position>
              <LatitudeDegrees>49.4061438739299774169921875</LatitudeDegrees>
              <LongitudeDegrees>20.33279481343924999237060546875</LongitudeDegrees>
            </Position>
            <AltitudeMeters>497.20001220703125</AltitudeMeters>
            <DistanceMeters>NAN</DistanceMeters>
          </Trackpoint>
          <Trackpoint>
            <Time>2022-09-21T08:56:52.000Z</Time>
            <Position>
              <LatitudeDegrees>49.40616340376436710357666015625</LatitudeDegrees>
              <LongitudeDegrees>20.33282943069934844970703125</LongitudeDegrees>
            </Position>
            <AltitudeMeters>497</AltitudeMeters>
            <DistanceMeters>NAN</DistanceMeters>
          </Trackpoint>
          <Trackpoint>
            <Time>2022-09-21T08:57:01.000Z</Time>
            <Position>
              <LatitudeDegrees>49.40629399381577968597412109375</LatitudeDegrees>
              <LongitudeDegrees>20.33307745121419429779052734375</LongitudeDegrees>
            </Position>
            <AltitudeMeters>497.20001220703125</AltitudeMeters>
            <DistanceMeters>NAN</DistanceMeters>
          </Trackpoint>
          <Trackpoint>
            <Time>2022-09-21T08:57:05.000Z</Time>
            <Position>
              <LatitudeDegrees>49.4063539244234561920166015625</LatitudeDegrees>
              <LongitudeDegrees>20.33318482339382171630859375</LongitudeDegrees>
            </Position>
            <AltitudeMeters>497</AltitudeMeters>
            <DistanceMeters>NAN</DistanceMeters>
          </Trackpoint>
          <Trackpoint>
            <Time>2022-09-21T08:57:11.000Z</Time>
            <Position>
              <LatitudeDegrees>49.4064169563353061676025390625</LatitudeDegrees>
              <LongitudeDegrees>20.33332555554807186126708984375</LongitudeDegrees>
            </Position>
            <AltitudeMeters>497</AltitudeMeters>
            <DistanceMeters>NAN</DistanceMeters>
          </Trackpoint>
          <Trackpoint>
            <Time>2022-09-21T08:57:16.000Z</Time>
            <Position>
              <LatitudeDegrees>49.40644118003547191619873046875</LatitudeDegrees>
              <LongitudeDegrees>20.3333667106926441192626953125</LongitudeDegrees>
            </Position>
            <AltitudeMeters>497.399993896484375</AltitudeMeters>
            <DistanceMeters>NAN</DistanceMeters>
          </Trackpoint>
          <Trackpoint>
            <Time>2022-09-21T08:57:21.000Z</Time>
            <Position>
              <LatitudeDegrees>49.40644118003547191619873046875</LatitudeDegrees>
              <LongitudeDegrees>20.3333667106926441192626953125</LongitudeDegrees>
            </Position>
            <AltitudeMeters>497.600006103515625</AltitudeMeters>
            <DistanceMeters>NAN</DistanceMeters>
          </Trackpoint>
          <Trackpoint>
            <Time>2022-09-21T08:57:28.000Z</Time>
            <Position>
              <LatitudeDegrees>49.40644118003547191619873046875</LatitudeDegrees>
              <LongitudeDegrees>20.3333667106926441192626953125</LongitudeDegrees>
            </Position>
            <AltitudeMeters>497.600006103515625</AltitudeMeters>
            <DistanceMeters>NAN</DistanceMeters>
          </Trackpoint>
          <Trackpoint>
            <Time>2022-09-21T08:57:30.000Z</Time>
            <Position>
              <LatitudeDegrees>49.40644118003547191619873046875</LatitudeDegrees>
              <LongitudeDegrees>20.3333667106926441192626953125</LongitudeDegrees>
            </Position>
            <AltitudeMeters>497.600006103515625</AltitudeMeters>
            <DistanceMeters>NAN</DistanceMeters>
          </Trackpoint>
          <Trackpoint>
            <Time>2022-09-21T08:57:58.000Z</Time>
            <Position>
              <LatitudeDegrees>49.40648124553263187408447265625</LatitudeDegrees>
              <LongitudeDegrees>20.3334260545670986175537109375</LongitudeDegrees>
            </Position>
            <AltitudeMeters>497.600006103515625</AltitudeMeters>
            <DistanceMeters>NAN</DistanceMeters>
          </Trackpoint>
          <Trackpoint>
            <Time>2022-09-21T08:58:02.000Z</Time>
            <Position>
              <LatitudeDegrees>49.406536482274532318115234375</LatitudeDegrees>
              <LongitudeDegrees>20.33350668847560882568359375</LongitudeDegrees>
            </Position>
            <AltitudeMeters>497.79998779296875</AltitudeMeters>
            <DistanceMeters>NAN</DistanceMeters>
          </Trackpoint>
          <Trackpoint>
            <Time>2022-09-21T08:58:06.000Z</Time>
            <Position>
              <LatitudeDegrees>49.4065654836595058441162109375</LatitudeDegrees>
              <LongitudeDegrees>20.3335598297417163848876953125</LongitudeDegrees>
            </Position>
            <AltitudeMeters>498</AltitudeMeters>
            <DistanceMeters>NAN</DistanceMeters>
          </Trackpoint>
          <Trackpoint>
            <Time>2022-09-21T08:58:11.000Z</Time>
            <Position>
              <LatitudeDegrees>49.40656221471726894378662109375</LatitudeDegrees>
              <LongitudeDegrees>20.33356561325490474700927734375</LongitudeDegrees>
            </Position>
            <AltitudeMeters>498</AltitudeMeters>
            <DistanceMeters>NAN</DistanceMeters>
          </Trackpoint>
          <Trackpoint>
            <Time>2022-09-21T08:58:18.000Z</Time>
            <Position>
              <LatitudeDegrees>49.40656221471726894378662109375</LatitudeDegrees>
              <LongitudeDegrees>20.33356561325490474700927734375</LongitudeDegrees>
            </Position>
            <AltitudeMeters>498.20001220703125</AltitudeMeters>
            <DistanceMeters>NAN</DistanceMeters>
          </Trackpoint>
          <Trackpoint>
            <Time>2022-09-21T08:58:19.000Z</Time>
            <Position>
              <LatitudeDegrees>49.40656221471726894378662109375</LatitudeDegrees>
              <LongitudeDegrees>20.33356561325490474700927734375</LongitudeDegrees>
            </Position>
            <AltitudeMeters>498.20001220703125</AltitudeMeters>
            <DistanceMeters>NAN</DistanceMeters>
          </Trackpoint>
          <Trackpoint>
            <Time>2022-09-21T08:58:22.000Z</Time>
            <Position>
              <LatitudeDegrees>49.40656221471726894378662109375</LatitudeDegrees>
              <LongitudeDegrees>20.33356561325490474700927734375</LongitudeDegrees>
            </Position>
            <AltitudeMeters>498</AltitudeMeters>
            <DistanceMeters>NAN</DistanceMeters>
          </Trackpoint>
          <Trackpoint>
            <Time>2022-09-21T08:58:38.000Z</Time>
            <Position>
              <LatitudeDegrees>49.40660429187119007110595703125</LatitudeDegrees>
              <LongitudeDegrees>20.33363903872668743133544921875</LongitudeDegrees>
            </Position>
            <AltitudeMeters>498.20001220703125</AltitudeMeters>
            <DistanceMeters>NAN</DistanceMeters>
          </Trackpoint>
          <Trackpoint>
            <Time>2022-09-21T08:58:47.000Z</Time>
            <Position>
              <LatitudeDegrees>49.40668978728353977203369140625</LatitudeDegrees>
              <LongitudeDegrees>20.3337807767093181610107421875</LongitudeDegrees>
            </Position>
            <AltitudeMeters>498.20001220703125</AltitudeMeters>
            <DistanceMeters>NAN</DistanceMeters>
          </Trackpoint>
          <Trackpoint>
            <Time>2022-09-21T08:58:53.000Z</Time>
            <Position>
              <LatitudeDegrees>49.40670923329889774322509765625</LatitudeDegrees>
              <LongitudeDegrees>20.33381422050297260284423828125</LongitudeDegrees>
            </Position>
            <AltitudeMeters>498.399993896484375</AltitudeMeters>
            <DistanceMeters>NAN</DistanceMeters>
          </Trackpoint>
          <Trackpoint>
            <Time>2022-09-21T08:59:00.000Z</Time>
            <Position>
              <LatitudeDegrees>49.40674192272126674652099609375</LatitudeDegrees>
              <LongitudeDegrees>20.3338696248829364776611328125</LongitudeDegrees>
            </Position>
            <AltitudeMeters>498.399993896484375</AltitudeMeters>
            <DistanceMeters>NAN</DistanceMeters>
          </Trackpoint>
          <Trackpoint>
            <Time>2022-09-21T08:59:09.000Z</Time>
            <Position>
              <LatitudeDegrees>49.40678383223712444305419921875</LatitudeDegrees>
              <LongitudeDegrees>20.333930142223834991455078125</LongitudeDegrees>
            </Position>
            <AltitudeMeters>498.20001220703125</AltitudeMeters>
            <DistanceMeters>NAN</DistanceMeters>
          </Trackpoint>
          <Trackpoint>
            <Time>2022-09-21T08:59:16.000Z</Time>
            <Position>
              <LatitudeDegrees>49.40681786276400089263916015625</LatitudeDegrees>
              <LongitudeDegrees>20.3339836187660694122314453125</LongitudeDegrees>
            </Position>
            <AltitudeMeters>498.20001220703125</AltitudeMeters>
            <DistanceMeters>NAN</DistanceMeters>
          </Trackpoint>
          <Trackpoint>
            <Time>2022-09-21T08:59:24.000Z</Time>
            <Position>
              <LatitudeDegrees>49.40686471760272979736328125</LatitudeDegrees>
              <LongitudeDegrees>20.33404405228793621063232421875</LongitudeDegrees>
            </Position>
            <AltitudeMeters>498.20001220703125</AltitudeMeters>
            <DistanceMeters>NAN</DistanceMeters>
          </Trackpoint>
          <Trackpoint>
            <Time>2022-09-21T08:59:29.000Z</Time>
            <Position>
              <LatitudeDegrees>49.40689212642610073089599609375</LatitudeDegrees>
              <LongitudeDegrees>20.33408864401280879974365234375</LongitudeDegrees>
            </Position>
            <AltitudeMeters>498.20001220703125</AltitudeMeters>
            <DistanceMeters>NAN</DistanceMeters>
          </Trackpoint>
          <Trackpoint>
            <Time>2022-09-21T08:59:33.000Z</Time>
            <Position>
              <LatitudeDegrees>49.406906627118587493896484375</LatitudeDegrees>
              <LongitudeDegrees>20.3341267816722393035888671875</LongitudeDegrees>
            </Position>
            <AltitudeMeters>498.20001220703125</AltitudeMeters>
            <DistanceMeters>NAN</DistanceMeters>
          </Trackpoint>
          <Trackpoint>
            <Time>2022-09-21T08:59:39.000Z</Time>
            <Position>
              <LatitudeDegrees>49.4069324433803558349609375</LatitudeDegrees>
              <LongitudeDegrees>20.3341730497777462005615234375</LongitudeDegrees>
            </Position>
            <AltitudeMeters>498.20001220703125</AltitudeMeters>
            <DistanceMeters>NAN</DistanceMeters>
          </Trackpoint>
          <Trackpoint>
            <Time>2022-09-21T08:59:42.000Z</Time>
            <Position>
              <LatitudeDegrees>49.4069426693022251129150390625</LatitudeDegrees>
              <LongitudeDegrees>20.33419442363083362579345703125</LongitudeDegrees>
            </Position>
            <AltitudeMeters>498.20001220703125</AltitudeMeters>
            <DistanceMeters>NAN</DistanceMeters>
          </Trackpoint>
          <Trackpoint>
            <Time>2022-09-21T08:59:46.000Z</Time>
            <Position>
              <LatitudeDegrees>49.4069500453770160675048828125</LatitudeDegrees>
              <LongitudeDegrees>20.3342112712562084197998046875</LongitudeDegrees>
            </Position>
            <AltitudeMeters>498.20001220703125</AltitudeMeters>
            <DistanceMeters>NAN</DistanceMeters>
          </Trackpoint>
          <Trackpoint>
            <Time>2022-09-21T08:59:50.000Z</Time>
            <Position>
              <LatitudeDegrees>49.40695079974830150604248046875</LatitudeDegrees>
              <LongitudeDegrees>20.334223844110965728759765625</LongitudeDegrees>
            </Position>
            <AltitudeMeters>498.20001220703125</AltitudeMeters>
            <DistanceMeters>NAN</DistanceMeters>
          </Trackpoint>
          <Trackpoint>
            <Time>2022-09-21T08:59:56.000Z</Time>
            <Position>
              <LatitudeDegrees>49.40696060657501220703125</LatitudeDegrees>
              <LongitudeDegrees>20.3342624008655548095703125</LongitudeDegrees>
            </Position>
            <AltitudeMeters>498.20001220703125</AltitudeMeters>
            <DistanceMeters>NAN</DistanceMeters>
          </Trackpoint>
          <Trackpoint>
            <Time>2022-09-21T09:00:04.000Z</Time>
            <Position>
              <LatitudeDegrees>49.4069668091833591461181640625</LatitudeDegrees>
              <LongitudeDegrees>20.33429651521146297454833984375</LongitudeDegrees>
            </Position>
            <AltitudeMeters>498.20001220703125</AltitudeMeters>
            <DistanceMeters>NAN</DistanceMeters>
          </Trackpoint>
          <Trackpoint>
            <Time>2022-09-21T09:00:19.000Z</Time>
            <Position>
              <LatitudeDegrees>49.40696957521140575408935546875</LatitudeDegrees>
              <LongitudeDegrees>20.33431939780712127685546875</LongitudeDegrees>
            </Position>
            <AltitudeMeters>498.20001220703125</AltitudeMeters>
            <DistanceMeters>NAN</DistanceMeters>
          </Trackpoint>
          <Trackpoint>
            <Time>2022-09-21T09:00:31.000Z</Time>
            <Position>
              <LatitudeDegrees>49.4069780409336090087890625</LatitudeDegrees>
              <LongitudeDegrees>20.33432987518608570098876953125</LongitudeDegrees>
            </Position>
            <AltitudeMeters>498.20001220703125</AltitudeMeters>
            <DistanceMeters>NAN</DistanceMeters>
          </Trackpoint>
          <Trackpoint>
            <Time>2022-09-21T09:00:33.000Z</Time>
            <Position>
              <LatitudeDegrees>49.4069780409336090087890625</LatitudeDegrees>
              <LongitudeDegrees>20.33432987518608570098876953125</LongitudeDegrees>
            </Position>
            <AltitudeMeters>498.20001220703125</AltitudeMeters>
            <DistanceMeters>NAN</DistanceMeters>
          </Trackpoint>
          <Trackpoint>
            <Time>2022-09-21T09:00:36.000Z</Time>
            <Position>
              <LatitudeDegrees>49.4069780409336090087890625</LatitudeDegrees>
              <LongitudeDegrees>20.33432987518608570098876953125</LongitudeDegrees>
            </Position>
            <AltitudeMeters>498.20001220703125</AltitudeMeters>
            <DistanceMeters>NAN</DistanceMeters>
          </Trackpoint>
          <Trackpoint>
            <Time>2022-09-21T09:00:49.000Z</Time>
            <Position>
              <LatitudeDegrees>49.4069780409336090087890625</LatitudeDegrees>
              <LongitudeDegrees>20.33432987518608570098876953125</LongitudeDegrees>
            </Position>
            <AltitudeMeters>498.20001220703125</AltitudeMeters>
            <DistanceMeters>NAN</DistanceMeters>
          </Trackpoint>
          <Trackpoint>
            <Time>2022-09-21T09:01:14.000Z</Time>
            <Position>
              <LatitudeDegrees>49.4069780409336090087890625</LatitudeDegrees>
              <LongitudeDegrees>20.33432987518608570098876953125</LongitudeDegrees>
            </Position>
            <AltitudeMeters>498.20001220703125</AltitudeMeters>
            <DistanceMeters>NAN</DistanceMeters>
          </Trackpoint>
          <Trackpoint>
            <Time>2022-09-21T09:01:19.000Z</Time>
            <Position>
              <LatitudeDegrees>49.406994469463825225830078125</LatitudeDegrees>
              <LongitudeDegrees>20.33440900035202503204345703125</LongitudeDegrees>
            </Position>
            <AltitudeMeters>498.20001220703125</AltitudeMeters>
            <DistanceMeters>NAN</DistanceMeters>
          </Trackpoint>
          <Trackpoint>
            <Time>2022-09-21T09:01:23.000Z</Time>
            <Position>
              <LatitudeDegrees>49.4070204533636569976806640625</LatitudeDegrees>
              <LongitudeDegrees>20.33462860621511936187744140625</LongitudeDegrees>
            </Position>
            <AltitudeMeters>497.20001220703125</AltitudeMeters>
            <DistanceMeters>NAN</DistanceMeters>
          </Trackpoint>
          <Trackpoint>
            <Time>2022-09-21T09:01:24.000Z</Time>
            <Position>
              <LatitudeDegrees>49.40702590160071849822998046875</LatitudeDegrees>
              <LongitudeDegrees>20.33470219932496547698974609375</LongitudeDegrees>
            </Position>
            <AltitudeMeters>496.600006103515625</AltitudeMeters>
            <DistanceMeters>NAN</DistanceMeters>
          </Trackpoint>
          <Trackpoint>
            <Time>2022-09-21T09:01:26.000Z</Time>
            <Position>
              <LatitudeDegrees>49.40703813917934894561767578125</LatitudeDegrees>
              <LongitudeDegrees>20.3348865173757076263427734375</LongitudeDegrees>
            </Position>
            <AltitudeMeters>495</AltitudeMeters>
            <DistanceMeters>NAN</DistanceMeters>
          </Trackpoint>
          <Trackpoint>
            <Time>2022-09-21T09:01:27.000Z</Time>
            <Position>
              <LatitudeDegrees>49.40703696571290493011474609375</LatitudeDegrees>
              <LongitudeDegrees>20.3349733538925647735595703125</LongitudeDegrees>
            </Position>
            <AltitudeMeters>494.20001220703125</AltitudeMeters>
            <DistanceMeters>NAN</DistanceMeters>
          </Trackpoint>
          <Trackpoint>
            <Time>2022-09-21T09:01:28.000Z</Time>
            <Position>
              <LatitudeDegrees>49.4070345349609851837158203125</LatitudeDegrees>
              <LongitudeDegrees>20.33506195060908794403076171875</LongitudeDegrees>
            </Position>
            <AltitudeMeters>493.600006103515625</AltitudeMeters>
            <DistanceMeters>NAN</DistanceMeters>
          </Trackpoint>
          <Trackpoint>
            <Time>2022-09-21T09:01:29.000Z</Time>
            <Position>
              <LatitudeDegrees>49.4070278294384479522705078125</LatitudeDegrees>
              <LongitudeDegrees>20.335152558982372283935546875</LongitudeDegrees>
            </Position>
            <AltitudeMeters>492.79998779296875</AltitudeMeters>
            <DistanceMeters>NAN</DistanceMeters>
          </Trackpoint>
          <Trackpoint>
            <Time>2022-09-21T09:01:30.000Z</Time>
            <Position>
              <LatitudeDegrees>49.40701098181307315826416015625</LatitudeDegrees>
              <LongitudeDegrees>20.3352382220327854156494140625</LongitudeDegrees>
            </Position>
            <AltitudeMeters>492</AltitudeMeters>
            <DistanceMeters>NAN</DistanceMeters>
          </Trackpoint>
          <Trackpoint>
            <Time>2022-09-21T09:01:32.000Z</Time>
            <Position>
              <LatitudeDegrees>49.40695616416633129119873046875</LatitudeDegrees>
              <LongitudeDegrees>20.33539722673594951629638671875</LongitudeDegrees>
            </Position>
            <AltitudeMeters>491</AltitudeMeters>
            <DistanceMeters>NAN</DistanceMeters>
          </Trackpoint>
          <Trackpoint>
            <Time>2022-09-21T09:01:33.000Z</Time>
            <Position>
              <LatitudeDegrees>49.4069282524287700653076171875</LatitudeDegrees>
              <LongitudeDegrees>20.33545858226716518402099609375</LongitudeDegrees>
            </Position>
            <AltitudeMeters>490.79998779296875</AltitudeMeters>
            <DistanceMeters>NAN</DistanceMeters>
          </Trackpoint>
          <Trackpoint>
            <Time>2022-09-21T09:01:38.000Z</Time>
            <Position>
              <LatitudeDegrees>49.406793974339962005615234375</LatitudeDegrees>
              <LongitudeDegrees>20.33571138046681880950927734375</LongitudeDegrees>
            </Position>
            <AltitudeMeters>490.600006103515625</AltitudeMeters>
            <DistanceMeters>NAN</DistanceMeters>
          </Trackpoint>
          <Trackpoint>
            <Time>2022-09-21T09:01:40.000Z</Time>
            <Position>
              <LatitudeDegrees>49.40674410201609134674072265625</LatitudeDegrees>
              <LongitudeDegrees>20.33572898246347904205322265625</LongitudeDegrees>
            </Position>
            <AltitudeMeters>491</AltitudeMeters>
            <DistanceMeters>NAN</DistanceMeters>
          </Trackpoint>
          <Trackpoint>
            <Time>2022-09-21T09:01:41.000Z</Time>
            <Position>
              <LatitudeDegrees>49.40671610645949840545654296875</LatitudeDegrees>
              <LongitudeDegrees>20.33571540378034114837646484375</LongitudeDegrees>
            </Position>
            <AltitudeMeters>491</AltitudeMeters>
            <DistanceMeters>NAN</DistanceMeters>
          </Trackpoint>
          <Trackpoint>
            <Time>2022-09-21T09:01:45.000Z</Time>
            <Position>
              <LatitudeDegrees>49.4065373204648494720458984375</LatitudeDegrees>
              <LongitudeDegrees>20.33560258336365222930908203125</LongitudeDegrees>
            </Position>
            <AltitudeMeters>489.399993896484375</AltitudeMeters>
            <DistanceMeters>NAN</DistanceMeters>
          </Trackpoint>
          <Trackpoint>
            <Time>2022-09-21T09:01:48.000Z</Time>
            <Position>
              <LatitudeDegrees>49.40640044398605823516845703125</LatitudeDegrees>
              <LongitudeDegrees>20.335493199527263641357421875</LongitudeDegrees>
            </Position>
            <AltitudeMeters>489.20001220703125</AltitudeMeters>
            <DistanceMeters>NAN</DistanceMeters>
          </Trackpoint>
          <Trackpoint>
            <Time>2022-09-21T09:01:50.000Z</Time>
            <Position>
              <LatitudeDegrees>49.40632936544716358184814453125</LatitudeDegrees>
              <LongitudeDegrees>20.335470400750637054443359375</LongitudeDegrees>
            </Position>
            <AltitudeMeters>489.79998779296875</AltitudeMeters>
            <DistanceMeters>NAN</DistanceMeters>
          </Trackpoint>
          <Trackpoint>
            <Time>2022-09-21T09:01:55.000Z</Time>
            <Position>
              <LatitudeDegrees>49.40619307570159435272216796875</LatitudeDegrees>
              <LongitudeDegrees>20.3354393877089023590087890625</LongitudeDegrees>
            </Position>
            <AltitudeMeters>490.399993896484375</AltitudeMeters>
            <DistanceMeters>NAN</DistanceMeters>
          </Trackpoint>
          <Trackpoint>
            <Time>2022-09-21T09:02:01.000Z</Time>
            <Position>
              <LatitudeDegrees>49.40599710680544376373291015625</LatitudeDegrees>
              <LongitudeDegrees>20.335454642772674560546875</LongitudeDegrees>
            </Position>
            <AltitudeMeters>490</AltitudeMeters>
            <DistanceMeters>NAN</DistanceMeters>
          </Trackpoint>
          <Trackpoint>
            <Time>2022-09-21T09:02:02.000Z</Time>
            <Position>
              <LatitudeDegrees>49.405956454575061798095703125</LatitudeDegrees>
              <LongitudeDegrees>20.3354720771312713623046875</LongitudeDegrees>
            </Position>
            <AltitudeMeters>490</AltitudeMeters>
            <DistanceMeters>NAN</DistanceMeters>
          </Trackpoint>
          <Trackpoint>
            <Time>2022-09-21T09:02:03.000Z</Time>
            <Position>
              <LatitudeDegrees>49.405917227268218994140625</LatitudeDegrees>
              <LongitudeDegrees>20.33549286425113677978515625</LongitudeDegrees>
            </Position>
            <AltitudeMeters>489.600006103515625</AltitudeMeters>
            <DistanceMeters>NAN</DistanceMeters>
          </Trackpoint>
          <Trackpoint>
            <Time>2022-09-21T09:02:06.000Z</Time>
            <Position>
              <LatitudeDegrees>49.4058114476501941680908203125</LatitudeDegrees>
              <LongitudeDegrees>20.33555187284946441650390625</LongitudeDegrees>
            </Position>
            <AltitudeMeters>489</AltitudeMeters>
            <DistanceMeters>NAN</DistanceMeters>
          </Trackpoint>
          <Trackpoint>
            <Time>2022-09-21T09:02:07.000Z</Time>
            <Position>
              <LatitudeDegrees>49.4057772494852542877197265625</LatitudeDegrees>
              <LongitudeDegrees>20.33557877875864505767822265625</LongitudeDegrees>
            </Position>
            <AltitudeMeters>489</AltitudeMeters>
            <DistanceMeters>NAN</DistanceMeters>
          </Trackpoint>
          <Trackpoint>
            <Time>2022-09-21T09:02:08.000Z</Time>
            <Position>
              <LatitudeDegrees>49.40574313513934612274169921875</LatitudeDegrees>
              <LongitudeDegrees>20.33561113290488719940185546875</LongitudeDegrees>
            </Position>
            <AltitudeMeters>488.79998779296875</AltitudeMeters>
            <DistanceMeters>NAN</DistanceMeters>
          </Trackpoint>
          <Trackpoint>
            <Time>2022-09-21T09:02:15.000Z</Time>
            <Position>
              <LatitudeDegrees>49.40551900304853916168212890625</LatitudeDegrees>
              <LongitudeDegrees>20.335847251117229461669921875</LongitudeDegrees>
            </Position>
            <AltitudeMeters>489.20001220703125</AltitudeMeters>
            <DistanceMeters>NAN</DistanceMeters>
          </Trackpoint>
          <Trackpoint>
            <Time>2022-09-21T09:02:21.000Z</Time>
            <Position>
              <LatitudeDegrees>49.40533527173101902008056640625</LatitudeDegrees>
              <LongitudeDegrees>20.33598982729017734527587890625</LongitudeDegrees>
            </Position>
            <AltitudeMeters>488.79998779296875</AltitudeMeters>
            <DistanceMeters>NAN</DistanceMeters>
          </Trackpoint>
          <Trackpoint>
            <Time>2022-09-21T09:02:24.000Z</Time>
            <Position>
              <LatitudeDegrees>49.4052300788462162017822265625</LatitudeDegrees>
              <LongitudeDegrees>20.33603693358600139617919921875</LongitudeDegrees>
            </Position>
            <AltitudeMeters>488.399993896484375</AltitudeMeters>
            <DistanceMeters>NAN</DistanceMeters>
          </Trackpoint>
          <Trackpoint>
            <Time>2022-09-21T09:02:27.000Z</Time>
            <Position>
              <LatitudeDegrees>49.4051211141049861907958984375</LatitudeDegrees>
              <LongitudeDegrees>20.3360603190958499908447265625</LongitudeDegrees>
            </Position>
            <AltitudeMeters>488.20001220703125</AltitudeMeters>
            <DistanceMeters>NAN</DistanceMeters>
          </Trackpoint>
          <Trackpoint>
            <Time>2022-09-21T09:02:31.000Z</Time>
            <Position>
              <LatitudeDegrees>49.40500058233737945556640625</LatitudeDegrees>
              <LongitudeDegrees>20.3361857123672962188720703125</LongitudeDegrees>
            </Position>
            <AltitudeMeters>488.20001220703125</AltitudeMeters>
            <DistanceMeters>NAN</DistanceMeters>
          </Trackpoint>
          <Trackpoint>
            <Time>2022-09-21T09:02:32.000Z</Time>
            <Position>
              <LatitudeDegrees>49.40496504306793212890625</LatitudeDegrees>
              <LongitudeDegrees>20.3362024761736392974853515625</LongitudeDegrees>
            </Position>
            <AltitudeMeters>488.20001220703125</AltitudeMeters>
            <DistanceMeters>NAN</DistanceMeters>
          </Trackpoint>
          <Trackpoint>
            <Time>2022-09-21T09:02:36.000Z</Time>
            <Position>
              <LatitudeDegrees>49.4048337824642658233642578125</LatitudeDegrees>
              <LongitudeDegrees>20.33623457886278629302978515625</LongitudeDegrees>
            </Position>
            <AltitudeMeters>488.399993896484375</AltitudeMeters>
            <DistanceMeters>NAN</DistanceMeters>
          </Trackpoint>
          <Trackpoint>
            <Time>2022-09-21T09:02:44.000Z</Time>
            <Position>
              <LatitudeDegrees>49.40457218326628208160400390625</LatitudeDegrees>
              <LongitudeDegrees>20.33629023469984531402587890625</LongitudeDegrees>
            </Position>
            <AltitudeMeters>488.20001220703125</AltitudeMeters>
            <DistanceMeters>NAN</DistanceMeters>
          </Trackpoint>
          <Trackpoint>
            <Time>2022-09-21T09:02:50.000Z</Time>
            <Position>
              <LatitudeDegrees>49.404398761689662933349609375</LatitudeDegrees>
              <LongitudeDegrees>20.33637606538832187652587890625</LongitudeDegrees>
            </Position>
            <AltitudeMeters>488.20001220703125</AltitudeMeters>
            <DistanceMeters>NAN</DistanceMeters>
          </Trackpoint>
          <Trackpoint>
            <Time>2022-09-21T09:02:55.000Z</Time>
            <Position>
              <LatitudeDegrees>49.40421125851571559906005859375</LatitudeDegrees>
              <LongitudeDegrees>20.33649844117462635040283203125</LongitudeDegrees>
            </Position>
            <AltitudeMeters>488.600006103515625</AltitudeMeters>
            <DistanceMeters>NAN</DistanceMeters>
          </Trackpoint>
          <Trackpoint>
            <Time>2022-09-21T09:03:02.000Z</Time>
            <Position>
              <LatitudeDegrees>49.40399131737649440765380859375</LatitudeDegrees>
              <LongitudeDegrees>20.33671318553388118743896484375</LongitudeDegrees>
            </Position>
            <AltitudeMeters>488</AltitudeMeters>
            <DistanceMeters>NAN</DistanceMeters>
          </Trackpoint>
          <Trackpoint>
            <Time>2022-09-21T09:03:08.000Z</Time>
            <Position>
              <LatitudeDegrees>49.40379601903259754180908203125</LatitudeDegrees>
              <LongitudeDegrees>20.336915440857410430908203125</LongitudeDegrees>
            </Position>
            <AltitudeMeters>488</AltitudeMeters>
            <DistanceMeters>NAN</DistanceMeters>
          </Trackpoint>
          <Trackpoint>
            <Time>2022-09-21T09:03:15.000Z</Time>
            <Position>
              <LatitudeDegrees>49.4035932607948780059814453125</LatitudeDegrees>
              <LongitudeDegrees>20.33713571727275848388671875</LongitudeDegrees>
            </Position>
            <AltitudeMeters>487.79998779296875</AltitudeMeters>
            <DistanceMeters>NAN</DistanceMeters>
          </Trackpoint>
          <Trackpoint>
            <Time>2022-09-21T09:03:21.000Z</Time>
            <Position>
              <LatitudeDegrees>49.4033977948129177093505859375</LatitudeDegrees>
              <LongitudeDegrees>20.33734166063368320465087890625</LongitudeDegrees>
            </Position>
            <AltitudeMeters>487.600006103515625</AltitudeMeters>
            <DistanceMeters>NAN</DistanceMeters>
          </Trackpoint>
          <Trackpoint>
            <Time>2022-09-21T09:03:23.000Z</Time>
            <Position>
              <LatitudeDegrees>49.40332151949405670166015625</LatitudeDegrees>
              <LongitudeDegrees>20.3374207019805908203125</LongitudeDegrees>
            </Position>
            <AltitudeMeters>487.600006103515625</AltitudeMeters>
            <DistanceMeters>NAN</DistanceMeters>
          </Trackpoint>
          <Trackpoint>
            <Time>2022-09-21T09:03:27.000Z</Time>
            <Position>
              <LatitudeDegrees>49.40317190252244472503662109375</LatitudeDegrees>
              <LongitudeDegrees>20.33755104057490825653076171875</LongitudeDegrees>
            </Position>
            <AltitudeMeters>487.399993896484375</AltitudeMeters>
            <DistanceMeters>NAN</DistanceMeters>
          </Trackpoint>
          <Trackpoint>
            <Time>2022-09-21T09:03:29.000Z</Time>
            <Position>
              <LatitudeDegrees>49.40309881232678890228271484375</LatitudeDegrees>
              <LongitudeDegrees>20.33761373721063137054443359375</LongitudeDegrees>
            </Position>
            <AltitudeMeters>487.20001220703125</AltitudeMeters>
            <DistanceMeters>NAN</DistanceMeters>
          </Trackpoint>
          <Trackpoint>
            <Time>2022-09-21T09:03:31.000Z</Time>
            <Position>
              <LatitudeDegrees>49.4030279852449893951416015625</LatitudeDegrees>
              <LongitudeDegrees>20.3376820497214794158935546875</LongitudeDegrees>
            </Position>
            <AltitudeMeters>487</AltitudeMeters>
            <DistanceMeters>NAN</DistanceMeters>
          </Trackpoint>
          <Trackpoint>
            <Time>2022-09-21T09:03:32.000Z</Time>
            <Position>
              <LatitudeDegrees>49.40299403853714466094970703125</LatitudeDegrees>
              <LongitudeDegrees>20.337714739143848419189453125</LongitudeDegrees>
            </Position>
            <AltitudeMeters>487.20001220703125</AltitudeMeters>
            <DistanceMeters>NAN</DistanceMeters>
          </Trackpoint>
          <Trackpoint>
            <Time>2022-09-21T09:03:38.000Z</Time>
            <Position>
              <LatitudeDegrees>49.40275867469608783721923828125</LatitudeDegrees>
              <LongitudeDegrees>20.33796586096286773681640625</LongitudeDegrees>
            </Position>
            <AltitudeMeters>487.79998779296875</AltitudeMeters>
            <DistanceMeters>NAN</DistanceMeters>
          </Trackpoint>
          <Trackpoint>
            <Time>2022-09-21T09:03:39.000Z</Time>
            <Position>
              <LatitudeDegrees>49.4027235545217990875244140625</LatitudeDegrees>
              <LongitudeDegrees>20.33799360506236553192138671875</LongitudeDegrees>
            </Position>
            <AltitudeMeters>487.79998779296875</AltitudeMeters>
            <DistanceMeters>NAN</DistanceMeters>
          </Trackpoint>
          <Trackpoint>
            <Time>2022-09-21T09:03:44.000Z</Time>
            <Position>
              <LatitudeDegrees>49.40253789536654949188232421875</LatitudeDegrees>
              <LongitudeDegrees>20.3381618298590183258056640625</LongitudeDegrees>
            </Position>
            <AltitudeMeters>487.79998779296875</AltitudeMeters>
            <DistanceMeters>NAN</DistanceMeters>
          </Trackpoint>
          <Trackpoint>
            <Time>2022-09-21T09:03:45.000Z</Time>
            <Position>
              <LatitudeDegrees>49.402505122125148773193359375</LatitudeDegrees>
              <LongitudeDegrees>20.338203907012939453125</LongitudeDegrees>
            </Position>
            <AltitudeMeters>487.79998779296875</AltitudeMeters>
            <DistanceMeters>NAN</DistanceMeters>
          </Trackpoint>
          <Trackpoint>
            <Time>2022-09-21T09:03:51.000Z</Time>
            <Position>
              <LatitudeDegrees>49.40231828950345516204833984375</LatitudeDegrees>
              <LongitudeDegrees>20.33847422339022159576416015625</LongitudeDegrees>
            </Position>
            <AltitudeMeters>487.399993896484375</AltitudeMeters>
            <DistanceMeters>NAN</DistanceMeters>
          </Trackpoint>
          <Trackpoint>
            <Time>2022-09-21T09:03:55.000Z</Time>
            <Position>
              <LatitudeDegrees>49.4022048823535442352294921875</LatitudeDegrees>
              <LongitudeDegrees>20.338661558926105499267578125</LongitudeDegrees>
            </Position>
            <AltitudeMeters>487.20001220703125</AltitudeMeters>
            <DistanceMeters>NAN</DistanceMeters>
          </Trackpoint>
          <Trackpoint>
            <Time>2022-09-21T09:03:58.000Z</Time>
            <Position>
              <LatitudeDegrees>49.40212651155889034271240234375</LatitudeDegrees>
              <LongitudeDegrees>20.3388300351798534393310546875</LongitudeDegrees>
            </Position>
            <AltitudeMeters>487</AltitudeMeters>
            <DistanceMeters>NAN</DistanceMeters>
          </Trackpoint>
          <Trackpoint>
            <Time>2022-09-21T09:04:01.000Z</Time>
            <Position>
              <LatitudeDegrees>49.40207370556890964508056640625</LatitudeDegrees>
              <LongitudeDegrees>20.33903799019753932952880859375</LongitudeDegrees>
            </Position>
            <AltitudeMeters>486.600006103515625</AltitudeMeters>
            <DistanceMeters>NAN</DistanceMeters>
          </Trackpoint>
          <Trackpoint>
            <Time>2022-09-21T09:04:02.000Z</Time>
            <Position>
              <LatitudeDegrees>49.402059204876422882080078125</LatitudeDegrees>
              <LongitudeDegrees>20.33911124803125858306884765625</LongitudeDegrees>
            </Position>
            <AltitudeMeters>486.399993896484375</AltitudeMeters>
            <DistanceMeters>NAN</DistanceMeters>
          </Trackpoint>
          <Trackpoint>
            <Time>2022-09-21T09:04:06.000Z</Time>
            <Position>
              <LatitudeDegrees>49.4020104221999645233154296875</LatitudeDegrees>
              <LongitudeDegrees>20.339387767016887664794921875</LongitudeDegrees>
            </Position>
            <AltitudeMeters>486</AltitudeMeters>
            <DistanceMeters>NAN</DistanceMeters>
          </Trackpoint>
          <Trackpoint>
            <Time>2022-09-21T09:04:10.000Z</Time>
            <Position>
              <LatitudeDegrees>49.40195602364838123321533203125</LatitudeDegrees>
              <LongitudeDegrees>20.339617766439914703369140625</LongitudeDegrees>
            </Position>
            <AltitudeMeters>486</AltitudeMeters>
            <DistanceMeters>NAN</DistanceMeters>
          </Trackpoint>
          <Trackpoint>
            <Time>2022-09-21T09:04:16.000Z</Time>
            <Position>
              <LatitudeDegrees>49.40185812301933765411376953125</LatitudeDegrees>
              <LongitudeDegrees>20.33994273282587528228759765625</LongitudeDegrees>
            </Position>
            <AltitudeMeters>486</AltitudeMeters>
            <DistanceMeters>NAN</DistanceMeters>
          </Trackpoint>
          <Trackpoint>
            <Time>2022-09-21T09:04:18.000Z</Time>
            <Position>
              <LatitudeDegrees>49.40182794816792011260986328125</LatitudeDegrees>
              <LongitudeDegrees>20.34005127847194671630859375</LongitudeDegrees>
            </Position>
            <AltitudeMeters>486</AltitudeMeters>
            <DistanceMeters>NAN</DistanceMeters>
          </Trackpoint>
          <Trackpoint>
            <Time>2022-09-21T09:04:24.000Z</Time>
            <Position>
              <LatitudeDegrees>49.401738010346889495849609375</LatitudeDegrees>
              <LongitudeDegrees>20.3403617441654205322265625</LongitudeDegrees>
            </Position>
            <AltitudeMeters>485.79998779296875</AltitudeMeters>
            <DistanceMeters>NAN</DistanceMeters>
          </Trackpoint>
          <Trackpoint>
            <Time>2022-09-21T09:04:28.000Z</Time>
            <Position>
              <LatitudeDegrees>49.40170087851583957672119140625</LatitudeDegrees>
              <LongitudeDegrees>20.340542457997798919677734375</LongitudeDegrees>
            </Position>
            <AltitudeMeters>485.79998779296875</AltitudeMeters>
            <DistanceMeters>NAN</DistanceMeters>
          </Trackpoint>
          <Trackpoint>
            <Time>2022-09-21T09:04:30.000Z</Time>
            <Position>
              <LatitudeDegrees>49.401681683957576751708984375</LatitudeDegrees>
              <LongitudeDegrees>20.34062317572534084320068359375</LongitudeDegrees>
            </Position>
            <AltitudeMeters>485.79998779296875</AltitudeMeters>
            <DistanceMeters>NAN</DistanceMeters>
          </Trackpoint>
          <Trackpoint>
            <Time>2022-09-21T09:04:33.000Z</Time>
            <Position>
              <LatitudeDegrees>49.401650838553905487060546875</LatitudeDegrees>
              <LongitudeDegrees>20.34077036194503307342529296875</LongitudeDegrees>
            </Position>
            <AltitudeMeters>485.79998779296875</AltitudeMeters>
            <DistanceMeters>NAN</DistanceMeters>
          </Trackpoint>
          <Trackpoint>
            <Time>2022-09-21T09:04:39.000Z</Time>
            <Position>
              <LatitudeDegrees>49.4016003794968128204345703125</LatitudeDegrees>
              <LongitudeDegrees>20.34113799221813678741455078125</LongitudeDegrees>
            </Position>
            <AltitudeMeters>485.79998779296875</AltitudeMeters>
            <DistanceMeters>NAN</DistanceMeters>
          </Trackpoint>
          <Trackpoint>
            <Time>2022-09-21T09:04:40.000Z</Time>
            <Position>
              <LatitudeDegrees>49.40159660764038562774658203125</LatitudeDegrees>
              <LongitudeDegrees>20.341205634176731109619140625</LongitudeDegrees>
            </Position>
            <AltitudeMeters>485.79998779296875</AltitudeMeters>
            <DistanceMeters>NAN</DistanceMeters>
          </Trackpoint>
          <Trackpoint>
            <Time>2022-09-21T09:04:42.000Z</Time>
            <Position>
              <LatitudeDegrees>49.4015841186046600341796875</LatitudeDegrees>
              <LongitudeDegrees>20.341339744627475738525390625</LongitudeDegrees>
            </Position>
            <AltitudeMeters>485.79998779296875</AltitudeMeters>
            <DistanceMeters>NAN</DistanceMeters>
          </Trackpoint>
          <Trackpoint>
            <Time>2022-09-21T09:04:44.000Z</Time>
            <Position>
              <LatitudeDegrees>49.40155335702002048492431640625</LatitudeDegrees>
              <LongitudeDegrees>20.34147075377404689788818359375</LongitudeDegrees>
            </Position>
            <AltitudeMeters>485.79998779296875</AltitudeMeters>
            <DistanceMeters>NAN</DistanceMeters>
          </Trackpoint>
          <Trackpoint>
            <Time>2022-09-21T09:04:45.000Z</Time>
            <Position>
              <LatitudeDegrees>49.40154430456459522247314453125</LatitudeDegrees>
              <LongitudeDegrees>20.34153445623815059661865234375</LongitudeDegrees>
            </Position>
            <AltitudeMeters>485.79998779296875</AltitudeMeters>
            <DistanceMeters>NAN</DistanceMeters>
          </Trackpoint>
          <Trackpoint>
            <Time>2022-09-21T09:04:47.000Z</Time>
            <Position>
              <LatitudeDegrees>49.401536174118518829345703125</LatitudeDegrees>
              <LongitudeDegrees>20.3416647948324680328369140625</LongitudeDegrees>
            </Position>
            <AltitudeMeters>485.79998779296875</AltitudeMeters>
            <DistanceMeters>NAN</DistanceMeters>
          </Trackpoint>
          <Trackpoint>
            <Time>2022-09-21T09:04:51.000Z</Time>
            <Position>
              <LatitudeDegrees>49.4015108607709407806396484375</LatitudeDegrees>
              <LongitudeDegrees>20.3419147431850433349609375</LongitudeDegrees>
            </Position>
            <AltitudeMeters>485.600006103515625</AltitudeMeters>
            <DistanceMeters>NAN</DistanceMeters>
          </Trackpoint>
          <Trackpoint>
            <Time>2022-09-21T09:04:53.000Z</Time>
            <Position>
              <LatitudeDegrees>49.401491917669773101806640625</LatitudeDegrees>
              <LongitudeDegrees>20.34204189665615558624267578125</LongitudeDegrees>
            </Position>
            <AltitudeMeters>485.600006103515625</AltitudeMeters>
            <DistanceMeters>NAN</DistanceMeters>
          </Trackpoint>
          <Trackpoint>
            <Time>2022-09-21T09:04:54.000Z</Time>
            <Position>
              <LatitudeDegrees>49.4014850445091724395751953125</LatitudeDegrees>
              <LongitudeDegrees>20.3421050123870372772216796875</LongitudeDegrees>
            </Position>
            <AltitudeMeters>485.399993896484375</AltitudeMeters>
            <DistanceMeters>NAN</DistanceMeters>
          </Trackpoint>
          <Trackpoint>
            <Time>2022-09-21T09:05:00.000Z</Time>
            <Position>
              <LatitudeDegrees>49.4014468230307102203369140625</LatitudeDegrees>
              <LongitudeDegrees>20.34248680807650089263916015625</LongitudeDegrees>
            </Position>
            <AltitudeMeters>485.399993896484375</AltitudeMeters>
            <DistanceMeters>NAN</DistanceMeters>
          </Trackpoint>
          <Trackpoint>
            <Time>2022-09-21T09:05:01.000Z</Time>
            <Position>
              <LatitudeDegrees>49.40143953077495098114013671875</LatitudeDegrees>
              <LongitudeDegrees>20.3425505943596363067626953125</LongitudeDegrees>
            </Position>
            <AltitudeMeters>485.399993896484375</AltitudeMeters>
            <DistanceMeters>NAN</DistanceMeters>
          </Trackpoint>
          <Trackpoint>
            <Time>2022-09-21T09:05:09.000Z</Time>
            <Position>
              <LatitudeDegrees>49.40137951634824275970458984375</LatitudeDegrees>
              <LongitudeDegrees>20.343046300113201141357421875</LongitudeDegrees>
            </Position>
            <AltitudeMeters>485.399993896484375</AltitudeMeters>
            <DistanceMeters>NAN</DistanceMeters>
          </Trackpoint>
          <Trackpoint>
            <Time>2022-09-21T09:05:11.000Z</Time>
            <Position>
              <LatitudeDegrees>49.40136543475091457366943359375</LatitudeDegrees>
              <LongitudeDegrees>20.34318418242037296295166015625</LongitudeDegrees>
            </Position>
            <AltitudeMeters>485.399993896484375</AltitudeMeters>
            <DistanceMeters>NAN</DistanceMeters>
          </Trackpoint>
          <Trackpoint>
            <Time>2022-09-21T09:05:14.000Z</Time>
            <Position>
              <LatitudeDegrees>49.4013509340584278106689453125</LatitudeDegrees>
              <LongitudeDegrees>20.34339020960032939910888671875</LongitudeDegrees>
            </Position>
            <AltitudeMeters>485.20001220703125</AltitudeMeters>
            <DistanceMeters>NAN</DistanceMeters>
          </Trackpoint>
          <Trackpoint>
            <Time>2022-09-21T09:05:17.000Z</Time>
            <Position>
              <LatitudeDegrees>49.4013415463268756866455078125</LatitudeDegrees>
              <LongitudeDegrees>20.34357829950749874114990234375</LongitudeDegrees>
            </Position>
            <AltitudeMeters>485.20001220703125</AltitudeMeters>
            <DistanceMeters>NAN</DistanceMeters>
          </Trackpoint>
          <Trackpoint>
            <Time>2022-09-21T09:05:19.000Z</Time>
            <Position>
              <LatitudeDegrees>49.40134447999298572540283203125</LatitudeDegrees>
              <LongitudeDegrees>20.3436942212283611297607421875</LongitudeDegrees>
            </Position>
            <AltitudeMeters>485.399993896484375</AltitudeMeters>
            <DistanceMeters>NAN</DistanceMeters>
          </Trackpoint>
          <Trackpoint>
            <Time>2022-09-21T09:05:25.000Z</Time>
            <Position>
              <LatitudeDegrees>49.40136526711285114288330078125</LatitudeDegrees>
              <LongitudeDegrees>20.34403779543936252593994140625</LongitudeDegrees>
            </Position>
            <AltitudeMeters>485.600006103515625</AltitudeMeters>
            <DistanceMeters>NAN</DistanceMeters>
          </Trackpoint>
          <Trackpoint>
            <Time>2022-09-21T09:05:29.000Z</Time>
            <Position>
              <LatitudeDegrees>49.40137499012053012847900390625</LatitudeDegrees>
              <LongitudeDegrees>20.34426502883434295654296875</LongitudeDegrees>
            </Position>
            <AltitudeMeters>485.600006103515625</AltitudeMeters>
            <DistanceMeters>NAN</DistanceMeters>
          </Trackpoint>
          <Trackpoint>
            <Time>2022-09-21T09:05:31.000Z</Time>
            <Position>
              <LatitudeDegrees>49.401379935443401336669921875</LatitudeDegrees>
              <LongitudeDegrees>20.3443902544677257537841796875</LongitudeDegrees>
            </Position>
            <AltitudeMeters>485.399993896484375</AltitudeMeters>
            <DistanceMeters>NAN</DistanceMeters>
          </Trackpoint>
          <Trackpoint>
            <Time>2022-09-21T09:05:33.000Z</Time>
            <Position>
              <LatitudeDegrees>49.401379264891147613525390625</LatitudeDegrees>
              <LongitudeDegrees>20.3445226885378360748291015625</LongitudeDegrees>
            </Position>
            <AltitudeMeters>485</AltitudeMeters>
            <DistanceMeters>NAN</DistanceMeters>
          </Trackpoint>
          <Trackpoint>
            <Time>2022-09-21T09:05:40.000Z</Time>
            <Position>
              <LatitudeDegrees>49.4013936817646026611328125</LatitudeDegrees>
              <LongitudeDegrees>20.3450118564069271087646484375</LongitudeDegrees>
            </Position>
            <AltitudeMeters>484.399993896484375</AltitudeMeters>
            <DistanceMeters>NAN</DistanceMeters>
          </Trackpoint>
          <Trackpoint>
            <Time>2022-09-21T09:05:48.000Z</Time>
            <Position>
              <LatitudeDegrees>49.4013992138206958770751953125</LatitudeDegrees>
              <LongitudeDegrees>20.345581658184528350830078125</LongitudeDegrees>
            </Position>
            <AltitudeMeters>484.20001220703125</AltitudeMeters>
            <DistanceMeters>NAN</DistanceMeters>
          </Trackpoint>
          <Trackpoint>
            <Time>2022-09-21T09:05:49.000Z</Time>
            <Position>
              <LatitudeDegrees>49.4014017283916473388671875</LatitudeDegrees>
              <LongitudeDegrees>20.34565080888569355010986328125</LongitudeDegrees>
            </Position>
            <AltitudeMeters>484</AltitudeMeters>
            <DistanceMeters>NAN</DistanceMeters>
          </Trackpoint>
          <Trackpoint>
            <Time>2022-09-21T09:05:50.000Z</Time>
            <Position>
              <LatitudeDegrees>49.40140717662870883941650390625</LatitudeDegrees>
              <LongitudeDegrees>20.3457179479300975799560546875</LongitudeDegrees>
            </Position>
            <AltitudeMeters>484</AltitudeMeters>
            <DistanceMeters>NAN</DistanceMeters>
          </Trackpoint>
          <Trackpoint>
            <Time>2022-09-21T09:05:52.000Z</Time>
            <Position>
              <LatitudeDegrees>49.40141178667545318603515625</LatitudeDegrees>
              <LongitudeDegrees>20.345846526324748992919921875</LongitudeDegrees>
            </Position>
            <AltitudeMeters>483.79998779296875</AltitudeMeters>
            <DistanceMeters>NAN</DistanceMeters>
          </Trackpoint>
          <Trackpoint>
            <Time>2022-09-21T09:05:54.000Z</Time>
            <Position>
              <LatitudeDegrees>49.40140868537127971649169921875</LatitudeDegrees>
              <LongitudeDegrees>20.345977284014225006103515625</LongitudeDegrees>
            </Position>
            <AltitudeMeters>483.79998779296875</AltitudeMeters>
            <DistanceMeters>NAN</DistanceMeters>
          </Trackpoint>
          <Trackpoint>
            <Time>2022-09-21T09:05:55.000Z</Time>
            <Position>
              <LatitudeDegrees>49.4014106132090091705322265625</LatitudeDegrees>
              <LongitudeDegrees>20.3460424952208995819091796875</LongitudeDegrees>
            </Position>
            <AltitudeMeters>483.79998779296875</AltitudeMeters>
            <DistanceMeters>NAN</DistanceMeters>
          </Trackpoint>
          <Trackpoint>
            <Time>2022-09-21T09:05:59.000Z</Time>
            <Position>
              <LatitudeDegrees>49.4014086015522480010986328125</LatitudeDegrees>
              <LongitudeDegrees>20.3462926112115383148193359375</LongitudeDegrees>
            </Position>
            <AltitudeMeters>483.600006103515625</AltitudeMeters>
            <DistanceMeters>NAN</DistanceMeters>
          </Trackpoint>
          <Trackpoint>
            <Time>2022-09-21T09:06:01.000Z</Time>
            <Position>
              <LatitudeDegrees>49.40139946527779102325439453125</LatitudeDegrees>
              <LongitudeDegrees>20.3464149869978427886962890625</LongitudeDegrees>
            </Position>
            <AltitudeMeters>483.399993896484375</AltitudeMeters>
            <DistanceMeters>NAN</DistanceMeters>
          </Trackpoint>
          <Trackpoint>
            <Time>2022-09-21T09:06:06.000Z</Time>
            <Position>
              <LatitudeDegrees>49.40141187049448490142822265625</LatitudeDegrees>
              <LongitudeDegrees>20.3467197529971599578857421875</LongitudeDegrees>
            </Position>
            <AltitudeMeters>483.20001220703125</AltitudeMeters>
            <DistanceMeters>NAN</DistanceMeters>
          </Trackpoint>
          <Trackpoint>
            <Time>2022-09-21T09:06:12.000Z</Time>
            <Position>
              <LatitudeDegrees>49.40149418078362941741943359375</LatitudeDegrees>
              <LongitudeDegrees>20.3470540232956409454345703125</LongitudeDegrees>
            </Position>
            <AltitudeMeters>483</AltitudeMeters>
            <DistanceMeters>NAN</DistanceMeters>
          </Trackpoint>
          <Trackpoint>
            <Time>2022-09-21T09:06:17.000Z</Time>
            <Position>
              <LatitudeDegrees>49.401621334254741668701171875</LatitudeDegrees>
              <LongitudeDegrees>20.34726415760815143585205078125</LongitudeDegrees>
            </Position>
            <AltitudeMeters>483.20001220703125</AltitudeMeters>
            <DistanceMeters>NAN</DistanceMeters>
          </Trackpoint>
          <Trackpoint>
            <Time>2022-09-21T09:06:21.000Z</Time>
            <Position>
              <LatitudeDegrees>49.40166936255991458892822265625</LatitudeDegrees>
              <LongitudeDegrees>20.34748812206089496612548828125</LongitudeDegrees>
            </Position>
            <AltitudeMeters>483.399993896484375</AltitudeMeters>
            <DistanceMeters>NAN</DistanceMeters>
          </Trackpoint>
          <Trackpoint>
            <Time>2022-09-21T09:06:26.000Z</Time>
            <Position>
              <LatitudeDegrees>49.4017532654106616973876953125</LatitudeDegrees>
              <LongitudeDegrees>20.3477131761610507965087890625</LongitudeDegrees>
            </Position>
            <AltitudeMeters>483.20001220703125</AltitudeMeters>
            <DistanceMeters>NAN</DistanceMeters>
          </Trackpoint>
          <Trackpoint>
            <Time>2022-09-21T09:06:28.000Z</Time>
            <Position>
              <LatitudeDegrees>49.401811100542545318603515625</LatitudeDegrees>
              <LongitudeDegrees>20.34777042455971240997314453125</LongitudeDegrees>
            </Position>
            <AltitudeMeters>483.20001220703125</AltitudeMeters>
            <DistanceMeters>NAN</DistanceMeters>
          </Trackpoint>
          <Trackpoint>
            <Time>2022-09-21T09:06:30.000Z</Time>
            <Position>
              <LatitudeDegrees>49.40187438391149044036865234375</LatitudeDegrees>
              <LongitudeDegrees>20.34783345647156238555908203125</LongitudeDegrees>
            </Position>
            <AltitudeMeters>483</AltitudeMeters>
            <DistanceMeters>NAN</DistanceMeters>
          </Trackpoint>
          <Trackpoint>
            <Time>2022-09-21T09:06:34.000Z</Time>
            <Position>
              <LatitudeDegrees>49.40192886628210544586181640625</LatitudeDegrees>
              <LongitudeDegrees>20.3480541519820690155029296875</LongitudeDegrees>
            </Position>
            <AltitudeMeters>482.79998779296875</AltitudeMeters>
            <DistanceMeters>NAN</DistanceMeters>
          </Trackpoint>
          <Trackpoint>
            <Time>2022-09-21T09:06:42.000Z</Time>
            <Position>
              <LatitudeDegrees>49.40196029841899871826171875</LatitudeDegrees>
              <LongitudeDegrees>20.3485040925443172454833984375</LongitudeDegrees>
            </Position>
            <AltitudeMeters>482.399993896484375</AltitudeMeters>
            <DistanceMeters>NAN</DistanceMeters>
          </Trackpoint>
          <Trackpoint>
            <Time>2022-09-21T09:06:43.000Z</Time>
            <Position>
              <LatitudeDegrees>49.4019651599228382110595703125</LatitudeDegrees>
              <LongitudeDegrees>20.34855899401009082794189453125</LongitudeDegrees>
            </Position>
            <AltitudeMeters>482.20001220703125</AltitudeMeters>
            <DistanceMeters>NAN</DistanceMeters>
          </Trackpoint>
          <Trackpoint>
            <Time>2022-09-21T09:06:52.000Z</Time>
            <Position>
              <LatitudeDegrees>49.40200698561966419219970703125</LatitudeDegrees>
              <LongitudeDegrees>20.34906207583844661712646484375</LongitudeDegrees>
            </Position>
            <AltitudeMeters>482.399993896484375</AltitudeMeters>
            <DistanceMeters>NAN</DistanceMeters>
          </Trackpoint>
          <Trackpoint>
            <Time>2022-09-21T09:06:57.000Z</Time>
            <Position>
              <LatitudeDegrees>49.4020245037972927093505859375</LatitudeDegrees>
              <LongitudeDegrees>20.34937572665512561798095703125</LongitudeDegrees>
            </Position>
            <AltitudeMeters>482.399993896484375</AltitudeMeters>
            <DistanceMeters>NAN</DistanceMeters>
          </Trackpoint>
          <Trackpoint>
            <Time>2022-09-21T09:06:58.000Z</Time>
            <Position>
              <LatitudeDegrees>49.4020308740437030792236328125</LatitudeDegrees>
              <LongitudeDegrees>20.349425934255123138427734375</LongitudeDegrees>
            </Position>
            <AltitudeMeters>482.399993896484375</AltitudeMeters>
            <DistanceMeters>NAN</DistanceMeters>
          </Trackpoint>
          <Trackpoint>
            <Time>2022-09-21T09:06:59.000Z</Time>
            <Position>
              <LatitudeDegrees>49.40203749574720859527587890625</LatitudeDegrees>
              <LongitudeDegrees>20.34949659369885921478271484375</LongitudeDegrees>
            </Position>
            <AltitudeMeters>482.399993896484375</AltitudeMeters>
            <DistanceMeters>NAN</DistanceMeters>
          </Trackpoint>
          <Trackpoint>
            <Time>2022-09-21T09:07:02.000Z</Time>
            <Position>
              <LatitudeDegrees>49.40205015242099761962890625</LatitudeDegrees>
              <LongitudeDegrees>20.34966188482940196990966796875</LongitudeDegrees>
            </Position>
            <AltitudeMeters>482.399993896484375</AltitudeMeters>
            <DistanceMeters>NAN</DistanceMeters>
          </Trackpoint>
          <Trackpoint>
            <Time>2022-09-21T09:07:06.000Z</Time>
            <Position>
              <LatitudeDegrees>49.40207990817725658416748046875</LatitudeDegrees>
              <LongitudeDegrees>20.3498968295753002166748046875</LongitudeDegrees>
            </Position>
            <AltitudeMeters>482.20001220703125</AltitudeMeters>
            <DistanceMeters>NAN</DistanceMeters>
          </Trackpoint>
          <Trackpoint>
            <Time>2022-09-21T09:07:08.000Z</Time>
            <Position>
              <LatitudeDegrees>49.4020774774253368377685546875</LatitudeDegrees>
              <LongitudeDegrees>20.3500044532120227813720703125</LongitudeDegrees>
            </Position>
            <AltitudeMeters>482.20001220703125</AltitudeMeters>
            <DistanceMeters>NAN</DistanceMeters>
          </Trackpoint>
          <Trackpoint>
            <Time>2022-09-21T09:07:14.000Z</Time>
            <Position>
              <LatitudeDegrees>49.40209751017391681671142578125</LatitudeDegrees>
              <LongitudeDegrees>20.35035255365073680877685546875</LongitudeDegrees>
            </Position>
            <AltitudeMeters>482.20001220703125</AltitudeMeters>
            <DistanceMeters>NAN</DistanceMeters>
          </Trackpoint>
          <Trackpoint>
            <Time>2022-09-21T09:07:18.000Z</Time>
            <Position>
              <LatitudeDegrees>49.40211343578994274139404296875</LatitudeDegrees>
              <LongitudeDegrees>20.3505244664847850799560546875</LongitudeDegrees>
            </Position>
            <AltitudeMeters>482.79998779296875</AltitudeMeters>
            <DistanceMeters>NAN</DistanceMeters>
          </Trackpoint>
          <Trackpoint>
            <Time>2022-09-21T09:07:25.000Z</Time>
            <Position>
              <LatitudeDegrees>49.4020416028797626495361328125</LatitudeDegrees>
              <LongitudeDegrees>20.35085379146039485931396484375</LongitudeDegrees>
            </Position>
            <AltitudeMeters>483</AltitudeMeters>
            <DistanceMeters>NAN</DistanceMeters>
          </Trackpoint>
          <Trackpoint>
            <Time>2022-09-21T09:07:30.000Z</Time>
            <Position>
              <LatitudeDegrees>49.40196608193218708038330078125</LatitudeDegrees>
              <LongitudeDegrees>20.3511259518563747406005859375</LongitudeDegrees>
            </Position>
            <AltitudeMeters>483</AltitudeMeters>
            <DistanceMeters>NAN</DistanceMeters>
          </Trackpoint>
          <Trackpoint>
            <Time>2022-09-21T09:07:36.000Z</Time>
            <Position>
              <LatitudeDegrees>49.40187991596758365631103515625</LatitudeDegrees>
              <LongitudeDegrees>20.35143666900694370269775390625</LongitudeDegrees>
            </Position>
            <AltitudeMeters>482.79998779296875</AltitudeMeters>
            <DistanceMeters>NAN</DistanceMeters>
          </Trackpoint>
          <Trackpoint>
            <Time>2022-09-21T09:07:38.000Z</Time>
            <Position>
              <LatitudeDegrees>49.4018561951816082000732421875</LatitudeDegrees>
              <LongitudeDegrees>20.35153926350176334381103515625</LongitudeDegrees>
            </Position>
            <AltitudeMeters>482.79998779296875</AltitudeMeters>
            <DistanceMeters>NAN</DistanceMeters>
          </Trackpoint>
          <Trackpoint>
            <Time>2022-09-21T09:07:47.000Z</Time>
            <Position>
              <LatitudeDegrees>49.40169249661266803741455078125</LatitudeDegrees>
              <LongitudeDegrees>20.3520375676453113555908203125</LongitudeDegrees>
            </Position>
            <AltitudeMeters>482.79998779296875</AltitudeMeters>
            <DistanceMeters>NAN</DistanceMeters>
          </Trackpoint>
          <Trackpoint>
            <Time>2022-09-21T09:07:51.000Z</Time>
            <Position>
              <LatitudeDegrees>49.401629380881786346435546875</LatitudeDegrees>
              <LongitudeDegrees>20.35223630256950855255126953125</LongitudeDegrees>
            </Position>
            <AltitudeMeters>483</AltitudeMeters>
            <DistanceMeters>NAN</DistanceMeters>
          </Trackpoint>
          <Trackpoint>
            <Time>2022-09-21T09:07:52.000Z</Time>
            <Position>
              <LatitudeDegrees>49.40161563456058502197265625</LatitudeDegrees>
              <LongitudeDegrees>20.35228072665631771087646484375</LongitudeDegrees>
            </Position>
            <AltitudeMeters>483</AltitudeMeters>
            <DistanceMeters>NAN</DistanceMeters>
          </Trackpoint>
          <Trackpoint>
            <Time>2022-09-21T09:07:58.000Z</Time>
            <Position>
              <LatitudeDegrees>49.4014837034046649932861328125</LatitudeDegrees>
              <LongitudeDegrees>20.3525255620479583740234375</LongitudeDegrees>
            </Position>
            <AltitudeMeters>483.20001220703125</AltitudeMeters>
            <DistanceMeters>NAN</DistanceMeters>
          </Trackpoint>
          <Trackpoint>
            <Time>2022-09-21T09:08:05.000Z</Time>
            <Position>
              <LatitudeDegrees>49.4013066776096820831298828125</LatitudeDegrees>
              <LongitudeDegrees>20.352853797376155853271484375</LongitudeDegrees>
            </Position>
            <AltitudeMeters>483.20001220703125</AltitudeMeters>
            <DistanceMeters>NAN</DistanceMeters>
          </Trackpoint>
          <Trackpoint>
            <Time>2022-09-21T09:08:12.000Z</Time>
            <Position>
              <LatitudeDegrees>49.40115236677229404449462890625</LatitudeDegrees>
              <LongitudeDegrees>20.3531486727297306060791015625</LongitudeDegrees>
            </Position>
            <AltitudeMeters>483.399993896484375</AltitudeMeters>
            <DistanceMeters>NAN</DistanceMeters>
          </Trackpoint>
          <Trackpoint>
            <Time>2022-09-21T09:08:20.000Z</Time>
            <Position>
              <LatitudeDegrees>49.40096410922706127166748046875</LatitudeDegrees>
              <LongitudeDegrees>20.3534765727818012237548828125</LongitudeDegrees>
            </Position>
            <AltitudeMeters>483.600006103515625</AltitudeMeters>
            <DistanceMeters>NAN</DistanceMeters>
          </Trackpoint>
          <Trackpoint>
            <Time>2022-09-21T09:08:27.000Z</Time>
            <Position>
              <LatitudeDegrees>49.40080770291388034820556640625</LatitudeDegrees>
              <LongitudeDegrees>20.35377882421016693115234375</LongitudeDegrees>
            </Position>
            <AltitudeMeters>483.79998779296875</AltitudeMeters>
            <DistanceMeters>NAN</DistanceMeters>
          </Trackpoint>
          <Trackpoint>
            <Time>2022-09-21T09:08:28.000Z</Time>
            <Position>
              <LatitudeDegrees>49.4007846526801586151123046875</LatitudeDegrees>
              <LongitudeDegrees>20.35382014699280261993408203125</LongitudeDegrees>
            </Position>
            <AltitudeMeters>483.79998779296875</AltitudeMeters>
            <DistanceMeters>NAN</DistanceMeters>
          </Trackpoint>
          <Trackpoint>
            <Time>2022-09-21T09:08:33.000Z</Time>
            <Position>
              <LatitudeDegrees>49.400675185024738311767578125</LatitudeDegrees>
              <LongitudeDegrees>20.3540190495550632476806640625</LongitudeDegrees>
            </Position>
            <AltitudeMeters>483.79998779296875</AltitudeMeters>
            <DistanceMeters>NAN</DistanceMeters>
          </Trackpoint>
          <Trackpoint>
            <Time>2022-09-21T09:08:37.000Z</Time>
            <Position>
              <LatitudeDegrees>49.40060569904744625091552734375</LatitudeDegrees>
              <LongitudeDegrees>20.35415827296674251556396484375</LongitudeDegrees>
            </Position>
            <AltitudeMeters>483.79998779296875</AltitudeMeters>
            <DistanceMeters>NAN</DistanceMeters>
          </Trackpoint>
          <Trackpoint>
            <Time>2022-09-21T09:08:46.000Z</Time>
            <Position>
              <LatitudeDegrees>49.40039011649787425994873046875</LatitudeDegrees>
              <LongitudeDegrees>20.35450863651931285858154296875</LongitudeDegrees>
            </Position>
            <AltitudeMeters>484</AltitudeMeters>
            <DistanceMeters>NAN</DistanceMeters>
          </Trackpoint>
          <Trackpoint>
            <Time>2022-09-21T09:08:47.000Z</Time>
            <Position>
              <LatitudeDegrees>49.4003699161112308502197265625</LatitudeDegrees>
              <LongitudeDegrees>20.35454601980745792388916015625</LongitudeDegrees>
            </Position>
            <AltitudeMeters>484</AltitudeMeters>
            <DistanceMeters>NAN</DistanceMeters>
          </Trackpoint>
          <Trackpoint>
            <Time>2022-09-21T09:08:49.000Z</Time>
            <Position>
              <LatitudeDegrees>49.40032457001507282257080078125</LatitudeDegrees>
              <LongitudeDegrees>20.35462548024952411651611328125</LongitudeDegrees>
            </Position>
            <AltitudeMeters>484</AltitudeMeters>
            <DistanceMeters>NAN</DistanceMeters>
          </Trackpoint>
          <Trackpoint>
            <Time>2022-09-21T09:08:55.000Z</Time>
            <Position>
              <LatitudeDegrees>49.40020504407584667205810546875</LatitudeDegrees>
              <LongitudeDegrees>20.3548659570515155792236328125</LongitudeDegrees>
            </Position>
            <AltitudeMeters>484.20001220703125</AltitudeMeters>
            <DistanceMeters>NAN</DistanceMeters>
          </Trackpoint>
          <Trackpoint>
            <Time>2022-09-21T09:09:02.000Z</Time>
            <Position>
              <LatitudeDegrees>49.400091134011745452880859375</LatitudeDegrees>
              <LongitudeDegrees>20.35521757788956165313720703125</LongitudeDegrees>
            </Position>
            <AltitudeMeters>484.20001220703125</AltitudeMeters>
            <DistanceMeters>NAN</DistanceMeters>
          </Trackpoint>
          <Trackpoint>
            <Time>2022-09-21T09:09:08.000Z</Time>
            <Position>
              <LatitudeDegrees>49.39999834634363651275634765625</LatitudeDegrees>
              <LongitudeDegrees>20.35550926811993122100830078125</LongitudeDegrees>
            </Position>
            <AltitudeMeters>484.20001220703125</AltitudeMeters>
            <DistanceMeters>NAN</DistanceMeters>
          </Trackpoint>
          <Trackpoint>
            <Time>2022-09-21T09:09:09.000Z</Time>
            <Position>
              <LatitudeDegrees>49.39998946152627468109130859375</LatitudeDegrees>
              <LongitudeDegrees>20.35555310547351837158203125</LongitudeDegrees>
            </Position>
            <AltitudeMeters>484.20001220703125</AltitudeMeters>
            <DistanceMeters>NAN</DistanceMeters>
          </Trackpoint>
          <Trackpoint>
            <Time>2022-09-21T09:09:11.000Z</Time>
            <Position>
              <LatitudeDegrees>49.39997353591024875640869140625</LatitudeDegrees>
              <LongitudeDegrees>20.35563717596232891082763671875</LongitudeDegrees>
            </Position>
            <AltitudeMeters>484.20001220703125</AltitudeMeters>
            <DistanceMeters>NAN</DistanceMeters>
          </Trackpoint>
          <Trackpoint>
            <Time>2022-09-21T09:09:14.000Z</Time>
            <Position>
              <LatitudeDegrees>49.3999491445720195770263671875</LatitudeDegrees>
              <LongitudeDegrees>20.35575569607317447662353515625</LongitudeDegrees>
            </Position>
            <AltitudeMeters>484.399993896484375</AltitudeMeters>
            <DistanceMeters>NAN</DistanceMeters>
          </Trackpoint>
          <Trackpoint>
            <Time>2022-09-21T09:09:15.000Z</Time>
            <Position>
              <LatitudeDegrees>49.39995006658136844635009765625</LatitudeDegrees>
              <LongitudeDegrees>20.35578838549554347991943359375</LongitudeDegrees>
            </Position>
            <AltitudeMeters>484.399993896484375</AltitudeMeters>
            <DistanceMeters>NAN</DistanceMeters>
          </Trackpoint>
          <Trackpoint>
            <Time>2022-09-21T09:09:20.000Z</Time>
            <Position>
              <LatitudeDegrees>49.3998834304511547088623046875</LatitudeDegrees>
              <LongitudeDegrees>20.35591713152825832366943359375</LongitudeDegrees>
            </Position>
            <AltitudeMeters>484.399993896484375</AltitudeMeters>
            <DistanceMeters>NAN</DistanceMeters>
          </Trackpoint>
          <Trackpoint>
            <Time>2022-09-21T09:09:22.000Z</Time>
            <Position>
              <LatitudeDegrees>49.399868510663509368896484375</LatitudeDegrees>
              <LongitudeDegrees>20.35599164664745330810546875</LongitudeDegrees>
            </Position>
            <AltitudeMeters>484.20001220703125</AltitudeMeters>
            <DistanceMeters>NAN</DistanceMeters>
          </Trackpoint>
          <Trackpoint>
            <Time>2022-09-21T09:09:25.000Z</Time>
            <Position>
              <LatitudeDegrees>49.399841018021106719970703125</LatitudeDegrees>
              <LongitudeDegrees>20.356155931949615478515625</LongitudeDegrees>
            </Position>
            <AltitudeMeters>484</AltitudeMeters>
            <DistanceMeters>NAN</DistanceMeters>
          </Trackpoint>
          <Trackpoint>
            <Time>2022-09-21T09:09:28.000Z</Time>
            <Position>
              <LatitudeDegrees>49.39980841241776943206787109375</LatitudeDegrees>
              <LongitudeDegrees>20.3563562594354152679443359375</LongitudeDegrees>
            </Position>
            <AltitudeMeters>483.399993896484375</AltitudeMeters>
            <DistanceMeters>NAN</DistanceMeters>
          </Trackpoint>
          <Trackpoint>
            <Time>2022-09-21T09:09:31.000Z</Time>
            <Position>
              <LatitudeDegrees>49.3997875414788722991943359375</LatitudeDegrees>
              <LongitudeDegrees>20.3565748594701290130615234375</LongitudeDegrees>
            </Position>
            <AltitudeMeters>483</AltitudeMeters>
            <DistanceMeters>NAN</DistanceMeters>
          </Trackpoint>
          <Trackpoint>
            <Time>2022-09-21T09:09:34.000Z</Time>
            <Position>
              <LatitudeDegrees>49.399744458496570587158203125</LatitudeDegrees>
              <LongitudeDegrees>20.3567676432430744171142578125</LongitudeDegrees>
            </Position>
            <AltitudeMeters>482.600006103515625</AltitudeMeters>
            <DistanceMeters>NAN</DistanceMeters>
          </Trackpoint>
          <Trackpoint>
            <Time>2022-09-21T09:09:37.000Z</Time>
            <Position>
              <LatitudeDegrees>49.399665333330631256103515625</LatitudeDegrees>
              <LongitudeDegrees>20.3569486923515796661376953125</LongitudeDegrees>
            </Position>
            <AltitudeMeters>482.399993896484375</AltitudeMeters>
            <DistanceMeters>NAN</DistanceMeters>
          </Trackpoint>
          <Trackpoint>
            <Time>2022-09-21T09:09:39.000Z</Time>
            <Position>
              <LatitudeDegrees>49.39960992895066738128662109375</LatitudeDegrees>
              <LongitudeDegrees>20.3571188449859619140625</LongitudeDegrees>
            </Position>
            <AltitudeMeters>481.79998779296875</AltitudeMeters>
            <DistanceMeters>NAN</DistanceMeters>
          </Trackpoint>
          <Trackpoint>
            <Time>2022-09-21T09:09:41.000Z</Time>
            <Position>
              <LatitudeDegrees>49.399549327790737152099609375</LatitudeDegrees>
              <LongitudeDegrees>20.35731405951082706451416015625</LongitudeDegrees>
            </Position>
            <AltitudeMeters>480.79998779296875</AltitudeMeters>
            <DistanceMeters>NAN</DistanceMeters>
          </Trackpoint>
          <Trackpoint>
            <Time>2022-09-21T09:09:42.000Z</Time>
            <Position>
              <LatitudeDegrees>49.39950984902679920196533203125</LatitudeDegrees>
              <LongitudeDegrees>20.35740558989346027374267578125</LongitudeDegrees>
            </Position>
            <AltitudeMeters>480.600006103515625</AltitudeMeters>
            <DistanceMeters>NAN</DistanceMeters>
          </Trackpoint>
          <Trackpoint>
            <Time>2022-09-21T09:09:45.000Z</Time>
            <Position>
              <LatitudeDegrees>49.3993895687162876129150390625</LatitudeDegrees>
              <LongitudeDegrees>20.35764749161899089813232421875</LongitudeDegrees>
            </Position>
            <AltitudeMeters>480.399993896484375</AltitudeMeters>
            <DistanceMeters>NAN</DistanceMeters>
          </Trackpoint>
          <Trackpoint>
            <Time>2022-09-21T09:09:50.000Z</Time>
            <Position>
              <LatitudeDegrees>49.39926995895802974700927734375</LatitudeDegrees>
              <LongitudeDegrees>20.3580913133919239044189453125</LongitudeDegrees>
            </Position>
            <AltitudeMeters>480</AltitudeMeters>
            <DistanceMeters>NAN</DistanceMeters>
          </Trackpoint>
          <Trackpoint>
            <Time>2022-09-21T09:09:55.000Z</Time>
            <Position>
              <LatitudeDegrees>49.39921782352030277252197265625</LatitudeDegrees>
              <LongitudeDegrees>20.358524322509765625</LongitudeDegrees>
            </Position>
            <AltitudeMeters>479.79998779296875</AltitudeMeters>
            <DistanceMeters>NAN</DistanceMeters>
          </Trackpoint>
          <Trackpoint>
            <Time>2022-09-21T09:09:56.000Z</Time>
            <Position>
              <LatitudeDegrees>49.39922067336738109588623046875</LatitudeDegrees>
              <LongitudeDegrees>20.358609147369861602783203125</LongitudeDegrees>
            </Position>
            <AltitudeMeters>479.79998779296875</AltitudeMeters>
            <DistanceMeters>NAN</DistanceMeters>
          </Trackpoint>
          <Trackpoint>
            <Time>2022-09-21T09:09:59.000Z</Time>
            <Position>
              <LatitudeDegrees>49.39923383295536041259765625</LatitudeDegrees>
              <LongitudeDegrees>20.3588406555354595184326171875</LongitudeDegrees>
            </Position>
            <AltitudeMeters>479.79998779296875</AltitudeMeters>
            <DistanceMeters>NAN</DistanceMeters>
          </Trackpoint>
          <Trackpoint>
            <Time>2022-09-21T09:10:00.000Z</Time>
            <Position>
              <LatitudeDegrees>49.39923651516437530517578125</LatitudeDegrees>
              <LongitudeDegrees>20.35891952924430370330810546875</LongitudeDegrees>
            </Position>
            <AltitudeMeters>479.79998779296875</AltitudeMeters>
            <DistanceMeters>NAN</DistanceMeters>
          </Trackpoint>
          <Trackpoint>
            <Time>2022-09-21T09:10:04.000Z</Time>
            <Position>
              <LatitudeDegrees>49.3992534466087818145751953125</LatitudeDegrees>
              <LongitudeDegrees>20.35920493304729461669921875</LongitudeDegrees>
            </Position>
            <AltitudeMeters>479.600006103515625</AltitudeMeters>
            <DistanceMeters>NAN</DistanceMeters>
          </Trackpoint>
          <Trackpoint>
            <Time>2022-09-21T09:10:05.000Z</Time>
            <Position>
              <LatitudeDegrees>49.3992480821907520294189453125</LatitudeDegrees>
              <LongitudeDegrees>20.35927760414779186248779296875</LongitudeDegrees>
            </Position>
            <AltitudeMeters>479.600006103515625</AltitudeMeters>
            <DistanceMeters>NAN</DistanceMeters>
          </Trackpoint>
          <Trackpoint>
            <Time>2022-09-21T09:10:06.000Z</Time>
            <Position>
              <LatitudeDegrees>49.39923576079308986663818359375</LatitudeDegrees>
              <LongitudeDegrees>20.359347760677337646484375</LongitudeDegrees>
            </Position>
            <AltitudeMeters>479.600006103515625</AltitudeMeters>
            <DistanceMeters>NAN</DistanceMeters>
          </Trackpoint>
          <Trackpoint>
            <Time>2022-09-21T09:10:12.000Z</Time>
            <Position>
              <LatitudeDegrees>49.39912579022347927093505859375</LatitudeDegrees>
              <LongitudeDegrees>20.35975922830402851104736328125</LongitudeDegrees>
            </Position>
            <AltitudeMeters>479.20001220703125</AltitudeMeters>
            <DistanceMeters>NAN</DistanceMeters>
          </Trackpoint>
          <Trackpoint>
            <Time>2022-09-21T09:10:18.000Z</Time>
            <Position>
              <LatitudeDegrees>49.39903761260211467742919921875</LatitudeDegrees>
              <LongitudeDegrees>20.36016524769365787506103515625</LongitudeDegrees>
            </Position>
            <AltitudeMeters>478.79998779296875</AltitudeMeters>
            <DistanceMeters>NAN</DistanceMeters>
          </Trackpoint>
          <Trackpoint>
            <Time>2022-09-21T09:10:19.000Z</Time>
            <Position>
              <LatitudeDegrees>49.39903392456471920013427734375</LatitudeDegrees>
              <LongitudeDegrees>20.3602364100515842437744140625</LongitudeDegrees>
            </Position>
            <AltitudeMeters>478.600006103515625</AltitudeMeters>
            <DistanceMeters>NAN</DistanceMeters>
          </Trackpoint>
          <Trackpoint>
            <Time>2022-09-21T09:10:25.000Z</Time>
            <Position>
              <LatitudeDegrees>49.39899645745754241943359375</LatitudeDegrees>
              <LongitudeDegrees>20.36066011525690555572509765625</LongitudeDegrees>
            </Position>
            <AltitudeMeters>478.20001220703125</AltitudeMeters>
            <DistanceMeters>NAN</DistanceMeters>
          </Trackpoint>
          <Trackpoint>
            <Time>2022-09-21T09:10:26.000Z</Time>
            <Position>
              <LatitudeDegrees>49.39898732118308544158935546875</LatitudeDegrees>
              <LongitudeDegrees>20.36073639057576656341552734375</LongitudeDegrees>
            </Position>
            <AltitudeMeters>478</AltitudeMeters>
            <DistanceMeters>NAN</DistanceMeters>
          </Trackpoint>
          <Trackpoint>
            <Time>2022-09-21T09:10:30.000Z</Time>
            <Position>
              <LatitudeDegrees>49.39898572862148284912109375</LatitudeDegrees>
              <LongitudeDegrees>20.36105037666857242584228515625</LongitudeDegrees>
            </Position>
            <AltitudeMeters>477.600006103515625</AltitudeMeters>
            <DistanceMeters>NAN</DistanceMeters>
          </Trackpoint>
          <Trackpoint>
            <Time>2022-09-21T09:10:32.000Z</Time>
            <Position>
              <LatitudeDegrees>49.39899620600044727325439453125</LatitudeDegrees>
              <LongitudeDegrees>20.36120225675404071807861328125</LongitudeDegrees>
            </Position>
            <AltitudeMeters>477.600006103515625</AltitudeMeters>
            <DistanceMeters>NAN</DistanceMeters>
          </Trackpoint>
          <Trackpoint>
            <Time>2022-09-21T09:10:37.000Z</Time>
            <Position>
              <LatitudeDegrees>49.399019591510295867919921875</LatitudeDegrees>
              <LongitudeDegrees>20.36154943518340587615966796875</LongitudeDegrees>
            </Position>
            <AltitudeMeters>477.600006103515625</AltitudeMeters>
            <DistanceMeters>NAN</DistanceMeters>
          </Trackpoint>
          <Trackpoint>
            <Time>2022-09-21T09:10:38.000Z</Time>
            <Position>
              <LatitudeDegrees>49.3990170769393444061279296875</LatitudeDegrees>
              <LongitudeDegrees>20.36162269301712512969970703125</LongitudeDegrees>
            </Position>
            <AltitudeMeters>477.79998779296875</AltitudeMeters>
            <DistanceMeters>NAN</DistanceMeters>
          </Trackpoint>
          <Trackpoint>
            <Time>2022-09-21T09:10:43.000Z</Time>
            <Position>
              <LatitudeDegrees>49.399032332003116607666015625</LatitudeDegrees>
              <LongitudeDegrees>20.36193734966218471527099609375</LongitudeDegrees>
            </Position>
            <AltitudeMeters>478.20001220703125</AltitudeMeters>
            <DistanceMeters>NAN</DistanceMeters>
          </Trackpoint>
          <Trackpoint>
            <Time>2022-09-21T09:10:46.000Z</Time>
            <Position>
              <LatitudeDegrees>49.3990387022495269775390625</LatitudeDegrees>
              <LongitudeDegrees>20.36207263357937335968017578125</LongitudeDegrees>
            </Position>
            <AltitudeMeters>478.399993896484375</AltitudeMeters>
            <DistanceMeters>NAN</DistanceMeters>
          </Trackpoint>
          <Trackpoint>
            <Time>2022-09-21T09:10:51.000Z</Time>
            <Position>
              <LatitudeDegrees>49.39908086322247982025146484375</LatitudeDegrees>
              <LongitudeDegrees>20.36225452087819576263427734375</LongitudeDegrees>
            </Position>
            <AltitudeMeters>478.600006103515625</AltitudeMeters>
            <DistanceMeters>NAN</DistanceMeters>
          </Trackpoint>
          <Trackpoint>
            <Time>2022-09-21T09:10:54.000Z</Time>
            <Position>
              <LatitudeDegrees>49.39909041859209537506103515625</LatitudeDegrees>
              <LongitudeDegrees>20.3624153696000576019287109375</LongitudeDegrees>
            </Position>
            <AltitudeMeters>478.600006103515625</AltitudeMeters>
            <DistanceMeters>NAN</DistanceMeters>
          </Trackpoint>
          <Trackpoint>
            <Time>2022-09-21T09:10:58.000Z</Time>
            <Position>
              <LatitudeDegrees>49.3991086073219776153564453125</LatitudeDegrees>
              <LongitudeDegrees>20.36263422109186649322509765625</LongitudeDegrees>
            </Position>
            <AltitudeMeters>478.600006103515625</AltitudeMeters>
            <DistanceMeters>NAN</DistanceMeters>
          </Trackpoint>
          <Trackpoint>
            <Time>2022-09-21T09:11:01.000Z</Time>
            <Position>
              <LatitudeDegrees>49.3991421349346637725830078125</LatitudeDegrees>
              <LongitudeDegrees>20.36277168430387973785400390625</LongitudeDegrees>
            </Position>
            <AltitudeMeters>478.600006103515625</AltitudeMeters>
            <DistanceMeters>NAN</DistanceMeters>
          </Trackpoint>
          <Trackpoint>
            <Time>2022-09-21T09:11:05.000Z</Time>
            <Position>
              <LatitudeDegrees>49.3991873972117900848388671875</LatitudeDegrees>
              <LongitudeDegrees>20.36294351331889629364013671875</LongitudeDegrees>
            </Position>
            <AltitudeMeters>478.600006103515625</AltitudeMeters>
            <DistanceMeters>NAN</DistanceMeters>
          </Trackpoint>
          <Trackpoint>
            <Time>2022-09-21T09:11:12.000Z</Time>
            <Position>
              <LatitudeDegrees>49.39929678104817867279052734375</LatitudeDegrees>
              <LongitudeDegrees>20.3632999956607818603515625</LongitudeDegrees>
            </Position>
            <AltitudeMeters>478.399993896484375</AltitudeMeters>
            <DistanceMeters>NAN</DistanceMeters>
          </Trackpoint>
          <Trackpoint>
            <Time>2022-09-21T09:11:17.000Z</Time>
            <Position>
              <LatitudeDegrees>49.39935629256069660186767578125</LatitudeDegrees>
              <LongitudeDegrees>20.3635291568934917449951171875</LongitudeDegrees>
            </Position>
            <AltitudeMeters>478.399993896484375</AltitudeMeters>
            <DistanceMeters>NAN</DistanceMeters>
          </Trackpoint>
          <Trackpoint>
            <Time>2022-09-21T09:11:22.000Z</Time>
            <Position>
              <LatitudeDegrees>49.399415887892246246337890625</LatitudeDegrees>
              <LongitudeDegrees>20.36375488154590129852294921875</LongitudeDegrees>
            </Position>
            <AltitudeMeters>478</AltitudeMeters>
            <DistanceMeters>NAN</DistanceMeters>
          </Trackpoint>
          <Trackpoint>
            <Time>2022-09-21T09:11:24.000Z</Time>
            <Position>
              <LatitudeDegrees>49.39943826757371425628662109375</LatitudeDegrees>
              <LongitudeDegrees>20.3638684563338756561279296875</LongitudeDegrees>
            </Position>
            <AltitudeMeters>477.79998779296875</AltitudeMeters>
            <DistanceMeters>NAN</DistanceMeters>
          </Trackpoint>
          <Trackpoint>
            <Time>2022-09-21T09:11:26.000Z</Time>
            <Position>
              <LatitudeDegrees>49.399460144340991973876953125</LatitudeDegrees>
              <LongitudeDegrees>20.363984964787960052490234375</LongitudeDegrees>
            </Position>
            <AltitudeMeters>477.600006103515625</AltitudeMeters>
            <DistanceMeters>NAN</DistanceMeters>
          </Trackpoint>
          <Trackpoint>
            <Time>2022-09-21T09:11:30.000Z</Time>
            <Position>
              <LatitudeDegrees>49.39953918568789958953857421875</LatitudeDegrees>
              <LongitudeDegrees>20.36422812379896640777587890625</LongitudeDegrees>
            </Position>
            <AltitudeMeters>477.399993896484375</AltitudeMeters>
            <DistanceMeters>NAN</DistanceMeters>
          </Trackpoint>
          <Trackpoint>
            <Time>2022-09-21T09:11:33.000Z</Time>
            <Position>
              <LatitudeDegrees>49.3996095098555088043212890625</LatitudeDegrees>
              <LongitudeDegrees>20.36443063057959079742431640625</LongitudeDegrees>
            </Position>
            <AltitudeMeters>477.399993896484375</AltitudeMeters>
            <DistanceMeters>NAN</DistanceMeters>
          </Trackpoint>
          <Trackpoint>
            <Time>2022-09-21T09:11:36.000Z</Time>
            <Position>
              <LatitudeDegrees>49.3996936641633510589599609375</LatitudeDegrees>
              <LongitudeDegrees>20.36460095085203647613525390625</LongitudeDegrees>
            </Position>
            <AltitudeMeters>477.600006103515625</AltitudeMeters>
            <DistanceMeters>NAN</DistanceMeters>
          </Trackpoint>
          <Trackpoint>
            <Time>2022-09-21T09:11:37.000Z</Time>
            <Position>
              <LatitudeDegrees>49.39972576685249805450439453125</LatitudeDegrees>
              <LongitudeDegrees>20.3646491467952728271484375</LongitudeDegrees>
            </Position>
            <AltitudeMeters>477.600006103515625</AltitudeMeters>
            <DistanceMeters>NAN</DistanceMeters>
          </Trackpoint>
          <Trackpoint>
            <Time>2022-09-21T09:11:42.000Z</Time>
            <Position>
              <LatitudeDegrees>49.39989374019205570220947265625</LatitudeDegrees>
              <LongitudeDegrees>20.3648320399224758148193359375</LongitudeDegrees>
            </Position>
            <AltitudeMeters>477.399993896484375</AltitudeMeters>
            <DistanceMeters>NAN</DistanceMeters>
          </Trackpoint>
          <Trackpoint>
            <Time>2022-09-21T09:11:43.000Z</Time>
            <Position>
              <LatitudeDegrees>49.3999238312244415283203125</LatitudeDegrees>
              <LongitudeDegrees>20.36485726945102214813232421875</LongitudeDegrees>
            </Position>
            <AltitudeMeters>477.399993896484375</AltitudeMeters>
            <DistanceMeters>NAN</DistanceMeters>
          </Trackpoint>
          <Trackpoint>
            <Time>2022-09-21T09:11:48.000Z</Time>
            <Position>
              <LatitudeDegrees>49.40008199773728847503662109375</LatitudeDegrees>
              <LongitudeDegrees>20.3649705089628696441650390625</LongitudeDegrees>
            </Position>
            <AltitudeMeters>477.399993896484375</AltitudeMeters>
            <DistanceMeters>NAN</DistanceMeters>
          </Trackpoint>
          <Trackpoint>
            <Time>2022-09-21T09:11:53.000Z</Time>
            <Position>
              <LatitudeDegrees>49.4002016074955463409423828125</LatitudeDegrees>
              <LongitudeDegrees>20.3651746921241283416748046875</LongitudeDegrees>
            </Position>
            <AltitudeMeters>477.600006103515625</AltitudeMeters>
            <DistanceMeters>NAN</DistanceMeters>
          </Trackpoint>
          <Trackpoint>
            <Time>2022-09-21T09:11:57.000Z</Time>
            <Position>
              <LatitudeDegrees>49.40029456280171871185302734375</LatitudeDegrees>
              <LongitudeDegrees>20.36532112397253513336181640625</LongitudeDegrees>
            </Position>
            <AltitudeMeters>477.399993896484375</AltitudeMeters>
            <DistanceMeters>NAN</DistanceMeters>
          </Trackpoint>
          <Trackpoint>
            <Time>2022-09-21T09:11:59.000Z</Time>
            <Position>
              <LatitudeDegrees>49.40034116618335247039794921875</LatitudeDegrees>
              <LongitudeDegrees>20.36539287306368350982666015625</LongitudeDegrees>
            </Position>
            <AltitudeMeters>477.399993896484375</AltitudeMeters>
            <DistanceMeters>NAN</DistanceMeters>
          </Trackpoint>
          <Trackpoint>
            <Time>2022-09-21T09:12:06.000Z</Time>
            <Position>
              <LatitudeDegrees>49.4005533121526241302490234375</LatitudeDegrees>
              <LongitudeDegrees>20.36573971621692180633544921875</LongitudeDegrees>
            </Position>
            <AltitudeMeters>477.20001220703125</AltitudeMeters>
            <DistanceMeters>NAN</DistanceMeters>
          </Trackpoint>
          <Trackpoint>
            <Time>2022-09-21T09:12:13.000Z</Time>
            <Position>
              <LatitudeDegrees>49.40076260827481746673583984375</LatitudeDegrees>
              <LongitudeDegrees>20.36599569953978061676025390625</LongitudeDegrees>
            </Position>
            <AltitudeMeters>477</AltitudeMeters>
            <DistanceMeters>NAN</DistanceMeters>
          </Trackpoint>
          <Trackpoint>
            <Time>2022-09-21T09:12:20.000Z</Time>
            <Position>
              <LatitudeDegrees>49.40099914558231830596923828125</LatitudeDegrees>
              <LongitudeDegrees>20.36623056046664714813232421875</LongitudeDegrees>
            </Position>
            <AltitudeMeters>476.79998779296875</AltitudeMeters>
            <DistanceMeters>NAN</DistanceMeters>
          </Trackpoint>
          <Trackpoint>
            <Time>2022-09-21T09:12:27.000Z</Time>
            <Position>
              <LatitudeDegrees>49.40127189271152019500732421875</LatitudeDegrees>
              <LongitudeDegrees>20.36640222184360027313232421875</LongitudeDegrees>
            </Position>
            <AltitudeMeters>476.79998779296875</AltitudeMeters>
            <DistanceMeters>NAN</DistanceMeters>
          </Trackpoint>
          <Trackpoint>
            <Time>2022-09-21T09:12:28.000Z</Time>
            <Position>
              <LatitudeDegrees>49.40130609087646007537841796875</LatitudeDegrees>
              <LongitudeDegrees>20.36642946302890777587890625</LongitudeDegrees>
            </Position>
            <AltitudeMeters>476.600006103515625</AltitudeMeters>
            <DistanceMeters>NAN</DistanceMeters>
          </Trackpoint>
          <Trackpoint>
            <Time>2022-09-21T09:12:31.000Z</Time>
            <Position>
              <LatitudeDegrees>49.40140851773321628570556640625</LatitudeDegrees>
              <LongitudeDegrees>20.3665117733180522918701171875</LongitudeDegrees>
            </Position>
            <AltitudeMeters>476.600006103515625</AltitudeMeters>
            <DistanceMeters>NAN</DistanceMeters>
          </Trackpoint>
          <Trackpoint>
            <Time>2022-09-21T09:12:33.000Z</Time>
            <Position>
              <LatitudeDegrees>49.40147825516760349273681640625</LatitudeDegrees>
              <LongitudeDegrees>20.36656818352639675140380859375</LongitudeDegrees>
            </Position>
            <AltitudeMeters>476.600006103515625</AltitudeMeters>
            <DistanceMeters>NAN</DistanceMeters>
          </Trackpoint>
          <Trackpoint>
            <Time>2022-09-21T09:12:36.000Z</Time>
            <Position>
              <LatitudeDegrees>49.40160767175257205963134765625</LatitudeDegrees>
              <LongitudeDegrees>20.3666465543210506439208984375</LongitudeDegrees>
            </Position>
            <AltitudeMeters>476.79998779296875</AltitudeMeters>
            <DistanceMeters>NAN</DistanceMeters>
          </Trackpoint>
          <Trackpoint>
            <Time>2022-09-21T09:12:38.000Z</Time>
            <Position>
              <LatitudeDegrees>49.40168595872819423675537109375</LatitudeDegrees>
              <LongitudeDegrees>20.366701371967792510986328125</LongitudeDegrees>
            </Position>
            <AltitudeMeters>476.600006103515625</AltitudeMeters>
            <DistanceMeters>NAN</DistanceMeters>
          </Trackpoint>
          <Trackpoint>
            <Time>2022-09-21T09:12:40.000Z</Time>
            <Position>
              <LatitudeDegrees>49.4017522595822811126708984375</LatitudeDegrees>
              <LongitudeDegrees>20.36675535142421722412109375</LongitudeDegrees>
            </Position>
            <AltitudeMeters>476.399993896484375</AltitudeMeters>
            <DistanceMeters>NAN</DistanceMeters>
          </Trackpoint>
          <Trackpoint>
            <Time>2022-09-21T09:12:42.000Z</Time>
            <Position>
              <LatitudeDegrees>49.40181621350347995758056640625</LatitudeDegrees>
              <LongitudeDegrees>20.36681427620351314544677734375</LongitudeDegrees>
            </Position>
            <AltitudeMeters>476.20001220703125</AltitudeMeters>
            <DistanceMeters>NAN</DistanceMeters>
          </Trackpoint>
          <Trackpoint>
            <Time>2022-09-21T09:12:50.000Z</Time>
            <Position>
              <LatitudeDegrees>49.40208502113819122314453125</LatitudeDegrees>
              <LongitudeDegrees>20.36699633114039897918701171875</LongitudeDegrees>
            </Position>
            <AltitudeMeters>475.79998779296875</AltitudeMeters>
            <DistanceMeters>NAN</DistanceMeters>
          </Trackpoint>
          <Trackpoint>
            <Time>2022-09-21T09:12:55.000Z</Time>
            <Position>
              <LatitudeDegrees>49.40226648934185504913330078125</LatitudeDegrees>
              <LongitudeDegrees>20.36700068973004817962646484375</LongitudeDegrees>
            </Position>
            <AltitudeMeters>475.600006103515625</AltitudeMeters>
            <DistanceMeters>NAN</DistanceMeters>
          </Trackpoint>
          <Trackpoint>
            <Time>2022-09-21T09:12:57.000Z</Time>
            <Position>
              <LatitudeDegrees>49.4023376516997814178466796875</LatitudeDegrees>
              <LongitudeDegrees>20.36702047102153301239013671875</LongitudeDegrees>
            </Position>
            <AltitudeMeters>475.399993896484375</AltitudeMeters>
            <DistanceMeters>NAN</DistanceMeters>
          </Trackpoint>
          <Trackpoint>
            <Time>2022-09-21T09:13:02.000Z</Time>
            <Position>
              <LatitudeDegrees>49.402499757707118988037109375</LatitudeDegrees>
              <LongitudeDegrees>20.36705198697745800018310546875</LongitudeDegrees>
            </Position>
            <AltitudeMeters>475.600006103515625</AltitudeMeters>
            <DistanceMeters>NAN</DistanceMeters>
          </Trackpoint>
          <Trackpoint>
            <Time>2022-09-21T09:13:06.000Z</Time>
            <Position>
              <LatitudeDegrees>49.402609057724475860595703125</LatitudeDegrees>
              <LongitudeDegrees>20.36692357622087001800537109375</LongitudeDegrees>
            </Position>
            <AltitudeMeters>475.79998779296875</AltitudeMeters>
            <DistanceMeters>NAN</DistanceMeters>
          </Trackpoint>
          <Trackpoint>
            <Time>2022-09-21T09:13:10.000Z</Time>
            <Position>
              <LatitudeDegrees>49.40275347791612148284912109375</LatitudeDegrees>
              <LongitudeDegrees>20.36697939969599246978759765625</LongitudeDegrees>
            </Position>
            <AltitudeMeters>476.20001220703125</AltitudeMeters>
            <DistanceMeters>NAN</DistanceMeters>
          </Trackpoint>
          <Trackpoint>
            <Time>2022-09-21T09:13:17.000Z</Time>
            <Position>
              <LatitudeDegrees>49.402985237538814544677734375</LatitudeDegrees>
              <LongitudeDegrees>20.367157347500324249267578125</LongitudeDegrees>
            </Position>
            <AltitudeMeters>476</AltitudeMeters>
            <DistanceMeters>NAN</DistanceMeters>
          </Trackpoint>
          <Trackpoint>
            <Time>2022-09-21T09:13:18.000Z</Time>
            <Position>
              <LatitudeDegrees>49.40301583148539066314697265625</LatitudeDegrees>
              <LongitudeDegrees>20.36719246767461299896240234375</LongitudeDegrees>
            </Position>
            <AltitudeMeters>476</AltitudeMeters>
            <DistanceMeters>NAN</DistanceMeters>
          </Trackpoint>
          <Trackpoint>
            <Time>2022-09-21T09:13:20.000Z</Time>
            <Position>
              <LatitudeDegrees>49.403079785406589508056640625</LatitudeDegrees>
              <LongitudeDegrees>20.36724342964589595794677734375</LongitudeDegrees>
            </Position>
            <AltitudeMeters>476</AltitudeMeters>
            <DistanceMeters>NAN</DistanceMeters>
          </Trackpoint>
          <Trackpoint>
            <Time>2022-09-21T09:13:24.000Z</Time>
            <Position>
              <LatitudeDegrees>49.40321565605700016021728515625</LatitudeDegrees>
              <LongitudeDegrees>20.36732523702085018157958984375</LongitudeDegrees>
            </Position>
            <AltitudeMeters>475.79998779296875</AltitudeMeters>
            <DistanceMeters>NAN</DistanceMeters>
          </Trackpoint>
          <Trackpoint>
            <Time>2022-09-21T09:13:27.000Z</Time>
            <Position>
              <LatitudeDegrees>49.40333283506333827972412109375</LatitudeDegrees>
              <LongitudeDegrees>20.36739547736942768096923828125</LongitudeDegrees>
            </Position>
            <AltitudeMeters>475.600006103515625</AltitudeMeters>
            <DistanceMeters>NAN</DistanceMeters>
          </Trackpoint>
          <Trackpoint>
            <Time>2022-09-21T09:13:28.000Z</Time>
            <Position>
              <LatitudeDegrees>49.40337323583662509918212890625</LatitudeDegrees>
              <LongitudeDegrees>20.36741358228027820587158203125</LongitudeDegrees>
            </Position>
            <AltitudeMeters>475.79998779296875</AltitudeMeters>
            <DistanceMeters>NAN</DistanceMeters>
          </Trackpoint>
          <Trackpoint>
            <Time>2022-09-21T09:13:29.000Z</Time>
            <Position>
              <LatitudeDegrees>49.403412379324436187744140625</LatitudeDegrees>
              <LongitudeDegrees>20.3674223832786083221435546875</LongitudeDegrees>
            </Position>
            <AltitudeMeters>475.600006103515625</AltitudeMeters>
            <DistanceMeters>NAN</DistanceMeters>
          </Trackpoint>
          <Trackpoint>
            <Time>2022-09-21T09:13:30.000Z</Time>
            <Position>
              <LatitudeDegrees>49.40345294773578643798828125</LatitudeDegrees>
              <LongitudeDegrees>20.367421209812164306640625</LongitudeDegrees>
            </Position>
            <AltitudeMeters>475.600006103515625</AltitudeMeters>
            <DistanceMeters>NAN</DistanceMeters>
          </Trackpoint>
          <Trackpoint>
            <Time>2022-09-21T09:13:32.000Z</Time>
            <Position>
              <LatitudeDegrees>49.40352427773177623748779296875</LatitudeDegrees>
              <LongitudeDegrees>20.367406122386455535888671875</LongitudeDegrees>
            </Position>
            <AltitudeMeters>475.600006103515625</AltitudeMeters>
            <DistanceMeters>NAN</DistanceMeters>
          </Trackpoint>
          <Trackpoint>
            <Time>2022-09-21T09:13:34.000Z</Time>
            <Position>
              <LatitudeDegrees>49.40358865074813365936279296875</LatitudeDegrees>
              <LongitudeDegrees>20.36739849485456943511962890625</LongitudeDegrees>
            </Position>
            <AltitudeMeters>475.600006103515625</AltitudeMeters>
            <DistanceMeters>NAN</DistanceMeters>
          </Trackpoint>
          <Trackpoint>
            <Time>2022-09-21T09:13:42.000Z</Time>
            <Position>
              <LatitudeDegrees>49.40384916029870510101318359375</LatitudeDegrees>
              <LongitudeDegrees>20.3674069605767726898193359375</LongitudeDegrees>
            </Position>
            <AltitudeMeters>476.20001220703125</AltitudeMeters>
            <DistanceMeters>NAN</DistanceMeters>
          </Trackpoint>
          <Trackpoint>
            <Time>2022-09-21T09:13:45.000Z</Time>
            <Position>
              <LatitudeDegrees>49.40398494713008403778076171875</LatitudeDegrees>
              <LongitudeDegrees>20.367457084357738494873046875</LongitudeDegrees>
            </Position>
            <AltitudeMeters>476.20001220703125</AltitudeMeters>
            <DistanceMeters>NAN</DistanceMeters>
          </Trackpoint>
          <Trackpoint>
            <Time>2022-09-21T09:13:47.000Z</Time>
            <Position>
              <LatitudeDegrees>49.40405669622123241424560546875</LatitudeDegrees>
              <LongitudeDegrees>20.3675192780792713165283203125</LongitudeDegrees>
            </Position>
            <AltitudeMeters>476.20001220703125</AltitudeMeters>
            <DistanceMeters>NAN</DistanceMeters>
          </Trackpoint>
          <Trackpoint>
            <Time>2022-09-21T09:13:51.000Z</Time>
            <Position>
              <LatitudeDegrees>49.4041803292930126190185546875</LatitudeDegrees>
              <LongitudeDegrees>20.367609970271587371826171875</LongitudeDegrees>
            </Position>
            <AltitudeMeters>476</AltitudeMeters>
            <DistanceMeters>NAN</DistanceMeters>
          </Trackpoint>
          <Trackpoint>
            <Time>2022-09-21T09:13:53.000Z</Time>
            <Position>
              <LatitudeDegrees>49.4042366556823253631591796875</LatitudeDegrees>
              <LongitudeDegrees>20.367630086839199066162109375</LongitudeDegrees>
            </Position>
            <AltitudeMeters>476</AltitudeMeters>
            <DistanceMeters>NAN</DistanceMeters>
          </Trackpoint>
          <Trackpoint>
            <Time>2022-09-21T09:13:58.000Z</Time>
            <Position>
              <LatitudeDegrees>49.4043768011033535003662109375</LatitudeDegrees>
              <LongitudeDegrees>20.36769814789295196533203125</LongitudeDegrees>
            </Position>
            <AltitudeMeters>475.79998779296875</AltitudeMeters>
            <DistanceMeters>NAN</DistanceMeters>
          </Trackpoint>
          <Trackpoint>
            <Time>2022-09-21T09:14:06.000Z</Time>
            <Position>
              <LatitudeDegrees>49.4046445190906524658203125</LatitudeDegrees>
              <LongitudeDegrees>20.36777534522116184234619140625</LongitudeDegrees>
            </Position>
            <AltitudeMeters>475.79998779296875</AltitudeMeters>
            <DistanceMeters>NAN</DistanceMeters>
          </Trackpoint>
          <Trackpoint>
            <Time>2022-09-21T09:14:08.000Z</Time>
            <Position>
              <LatitudeDegrees>49.40471635200083255767822265625</LatitudeDegrees>
              <LongitudeDegrees>20.36776562221348285675048828125</LongitudeDegrees>
            </Position>
            <AltitudeMeters>475.79998779296875</AltitudeMeters>
            <DistanceMeters>NAN</DistanceMeters>
          </Trackpoint>
          <Trackpoint>
            <Time>2022-09-21T09:14:10.000Z</Time>
            <Position>
              <LatitudeDegrees>49.40476278774440288543701171875</LatitudeDegrees>
              <LongitudeDegrees>20.36770426668226718902587890625</LongitudeDegrees>
            </Position>
            <AltitudeMeters>475.79998779296875</AltitudeMeters>
            <DistanceMeters>NAN</DistanceMeters>
          </Trackpoint>
          <Trackpoint>
            <Time>2022-09-21T09:14:15.000Z</Time>
            <Position>
              <LatitudeDegrees>49.40482162870466709136962890625</LatitudeDegrees>
              <LongitudeDegrees>20.36749337799847126007080078125</LongitudeDegrees>
            </Position>
            <AltitudeMeters>476</AltitudeMeters>
            <DistanceMeters>NAN</DistanceMeters>
          </Trackpoint>
          <Trackpoint>
            <Time>2022-09-21T09:14:19.000Z</Time>
            <Position>
              <LatitudeDegrees>49.4048344530165195465087890625</LatitudeDegrees>
              <LongitudeDegrees>20.36728450097143650054931640625</LongitudeDegrees>
            </Position>
            <AltitudeMeters>476.399993896484375</AltitudeMeters>
            <DistanceMeters>NAN</DistanceMeters>
          </Trackpoint>
          <Trackpoint>
            <Time>2022-09-21T09:14:21.000Z</Time>
            <Position>
              <LatitudeDegrees>49.40484208054840564727783203125</LatitudeDegrees>
              <LongitudeDegrees>20.36717050708830356597900390625</LongitudeDegrees>
            </Position>
            <AltitudeMeters>476.600006103515625</AltitudeMeters>
            <DistanceMeters>NAN</DistanceMeters>
          </Trackpoint>
          <Trackpoint>
            <Time>2022-09-21T09:14:22.000Z</Time>
            <Position>
              <LatitudeDegrees>49.40484442748129367828369140625</LatitudeDegrees>
              <LongitudeDegrees>20.36710881628096103668212890625</LongitudeDegrees>
            </Position>
            <AltitudeMeters>476.600006103515625</AltitudeMeters>
            <DistanceMeters>NAN</DistanceMeters>
          </Trackpoint>
          <Trackpoint>
            <Time>2022-09-21T09:14:24.000Z</Time>
            <Position>
              <LatitudeDegrees>49.40485599450767040252685546875</LatitudeDegrees>
              <LongitudeDegrees>20.366985686123371124267578125</LongitudeDegrees>
            </Position>
            <AltitudeMeters>476.600006103515625</AltitudeMeters>
            <DistanceMeters>NAN</DistanceMeters>
          </Trackpoint>
          <Trackpoint>
            <Time>2022-09-21T09:14:26.000Z</Time>
            <Position>
              <LatitudeDegrees>49.4048676453530788421630859375</LatitudeDegrees>
              <LongitudeDegrees>20.366871692240238189697265625</LongitudeDegrees>
            </Position>
            <AltitudeMeters>476.600006103515625</AltitudeMeters>
            <DistanceMeters>NAN</DistanceMeters>
          </Trackpoint>
          <Trackpoint>
            <Time>2022-09-21T09:14:28.000Z</Time>
            <Position>
              <LatitudeDegrees>49.40487175248563289642333984375</LatitudeDegrees>
              <LongitudeDegrees>20.36676415242254734039306640625</LongitudeDegrees>
            </Position>
            <AltitudeMeters>476.600006103515625</AltitudeMeters>
            <DistanceMeters>NAN</DistanceMeters>
          </Trackpoint>
          <Trackpoint>
            <Time>2022-09-21T09:14:33.000Z</Time>
            <Position>
              <LatitudeDegrees>49.40489597618579864501953125</LatitudeDegrees>
              <LongitudeDegrees>20.36652644164860248565673828125</LongitudeDegrees>
            </Position>
            <AltitudeMeters>477</AltitudeMeters>
            <DistanceMeters>NAN</DistanceMeters>
          </Trackpoint>
          <Trackpoint>
            <Time>2022-09-21T09:14:40.000Z</Time>
            <Position>
              <LatitudeDegrees>49.4049025140702724456787109375</LatitudeDegrees>
              <LongitudeDegrees>20.36616702564060688018798828125</LongitudeDegrees>
            </Position>
            <AltitudeMeters>477.20001220703125</AltitudeMeters>
            <DistanceMeters>NAN</DistanceMeters>
          </Trackpoint>
          <Trackpoint>
            <Time>2022-09-21T09:14:44.000Z</Time>
            <Position>
              <LatitudeDegrees>49.40492304973304271697998046875</LatitudeDegrees>
              <LongitudeDegrees>20.36603928543627262115478515625</LongitudeDegrees>
            </Position>
            <AltitudeMeters>477.600006103515625</AltitudeMeters>
            <DistanceMeters>NAN</DistanceMeters>
          </Trackpoint>
          <Trackpoint>
            <Time>2022-09-21T09:14:45.000Z</Time>
            <Position>
              <LatitudeDegrees>49.4049320183694362640380859375</LatitudeDegrees>
              <LongitudeDegrees>20.36600944586098194122314453125</LongitudeDegrees>
            </Position>
            <AltitudeMeters>477.79998779296875</AltitudeMeters>
            <DistanceMeters>NAN</DistanceMeters>
          </Trackpoint>
          <Trackpoint>
            <Time>2022-09-21T09:14:47.000Z</Time>
            <Position>
              <LatitudeDegrees>49.40495054237544536590576171875</LatitudeDegrees>
              <LongitudeDegrees>20.365979187190532684326171875</LongitudeDegrees>
            </Position>
            <AltitudeMeters>477.79998779296875</AltitudeMeters>
            <DistanceMeters>NAN</DistanceMeters>
          </Trackpoint>
          <Trackpoint>
            <Time>2022-09-21T09:14:49.000Z</Time>
            <Position>
              <LatitudeDegrees>49.404954649507999420166015625</LatitudeDegrees>
              <LongitudeDegrees>20.365982539951801300048828125</LongitudeDegrees>
            </Position>
            <AltitudeMeters>477.79998779296875</AltitudeMeters>
            <DistanceMeters>NAN</DistanceMeters>
          </Trackpoint>
          <Trackpoint>
            <Time>2022-09-21T09:14:56.000Z</Time>
            <Position>
              <LatitudeDegrees>49.4049652107059955596923828125</LatitudeDegrees>
              <LongitudeDegrees>20.36598823964595794677734375</LongitudeDegrees>
            </Position>
            <AltitudeMeters>478</AltitudeMeters>
            <DistanceMeters>NAN</DistanceMeters>
          </Trackpoint>
          <Trackpoint>
            <Time>2022-09-21T09:14:58.000Z</Time>
            <Position>
              <LatitudeDegrees>49.40499245189130306243896484375</LatitudeDegrees>
              <LongitudeDegrees>20.36599452607333660125732421875</LongitudeDegrees>
            </Position>
            <AltitudeMeters>478</AltitudeMeters>
            <DistanceMeters>NAN</DistanceMeters>
          </Trackpoint>
          <Trackpoint>
            <Time>2022-09-21T09:15:01.000Z</Time>
            <Position>
              <LatitudeDegrees>49.40505632199347019195556640625</LatitudeDegrees>
              <LongitudeDegrees>20.36600508727133274078369140625</LongitudeDegrees>
            </Position>
            <AltitudeMeters>477.79998779296875</AltitudeMeters>
            <DistanceMeters>NAN</DistanceMeters>
          </Trackpoint>
          <Trackpoint>
            <Time>2022-09-21T09:15:07.000Z</Time>
            <Position>
              <LatitudeDegrees>49.40526469610631465911865234375</LatitudeDegrees>
              <LongitudeDegrees>20.3660410456359386444091796875</LongitudeDegrees>
            </Position>
            <AltitudeMeters>476.79998779296875</AltitudeMeters>
            <DistanceMeters>NAN</DistanceMeters>
          </Trackpoint>
          <Trackpoint>
            <Time>2022-09-21T09:15:12.000Z</Time>
            <Position>
              <LatitudeDegrees>49.40547625534236431121826171875</LatitudeDegrees>
              <LongitudeDegrees>20.36609661765396595001220703125</LongitudeDegrees>
            </Position>
            <AltitudeMeters>476.600006103515625</AltitudeMeters>
            <DistanceMeters>NAN</DistanceMeters>
          </Trackpoint>
          <Trackpoint>
            <Time>2022-09-21T09:15:15.000Z</Time>
            <Position>
              <LatitudeDegrees>49.40560500137507915496826171875</LatitudeDegrees>
              <LongitudeDegrees>20.366112291812896728515625</LongitudeDegrees>
            </Position>
            <AltitudeMeters>476.20001220703125</AltitudeMeters>
            <DistanceMeters>NAN</DistanceMeters>
          </Trackpoint>
          <Trackpoint>
            <Time>2022-09-21T09:15:16.000Z</Time>
            <Position>
              <LatitudeDegrees>49.40563903190195560455322265625</LatitudeDegrees>
              <LongitudeDegrees>20.36612545140087604522705078125</LongitudeDegrees>
            </Position>
            <AltitudeMeters>476.20001220703125</AltitudeMeters>
            <DistanceMeters>NAN</DistanceMeters>
          </Trackpoint>
          <Trackpoint>
            <Time>2022-09-21T09:15:18.000Z</Time>
            <Position>
              <LatitudeDegrees>49.40572754479944705963134765625</LatitudeDegrees>
              <LongitudeDegrees>20.36614791490137577056884765625</LongitudeDegrees>
            </Position>
            <AltitudeMeters>476</AltitudeMeters>
            <DistanceMeters>NAN</DistanceMeters>
          </Trackpoint>
          <Trackpoint>
            <Time>2022-09-21T09:15:22.000Z</Time>
            <Position>
              <LatitudeDegrees>49.405873306095600128173828125</LatitudeDegrees>
              <LongitudeDegrees>20.36618010140955448150634765625</LongitudeDegrees>
            </Position>
            <AltitudeMeters>476</AltitudeMeters>
            <DistanceMeters>NAN</DistanceMeters>
          </Trackpoint>
          <Trackpoint>
            <Time>2022-09-21T09:15:23.000Z</Time>
            <Position>
              <LatitudeDegrees>49.40590742044150829315185546875</LatitudeDegrees>
              <LongitudeDegrees>20.36618747748434543609619140625</LongitudeDegrees>
            </Position>
            <AltitudeMeters>476</AltitudeMeters>
            <DistanceMeters>NAN</DistanceMeters>
          </Trackpoint>
          <Trackpoint>
            <Time>2022-09-21T09:15:29.000Z</Time>
            <Position>
              <LatitudeDegrees>49.406085200607776641845703125</LatitudeDegrees>
              <LongitudeDegrees>20.3662613220512866973876953125</LongitudeDegrees>
            </Position>
            <AltitudeMeters>476</AltitudeMeters>
            <DistanceMeters>NAN</DistanceMeters>
          </Trackpoint>
          <Trackpoint>
            <Time>2022-09-21T09:15:35.000Z</Time>
            <Position>
              <LatitudeDegrees>49.406225681304931640625</LatitudeDegrees>
              <LongitudeDegrees>20.3663622401654720306396484375</LongitudeDegrees>
            </Position>
            <AltitudeMeters>476.399993896484375</AltitudeMeters>
            <DistanceMeters>NAN</DistanceMeters>
          </Trackpoint>
          <Trackpoint>
            <Time>2022-09-21T09:15:37.000Z</Time>
            <Position>
              <LatitudeDegrees>49.40628091804683208465576171875</LatitudeDegrees>
              <LongitudeDegrees>20.36637925542891025543212890625</LongitudeDegrees>
            </Position>
            <AltitudeMeters>476.399993896484375</AltitudeMeters>
            <DistanceMeters>NAN</DistanceMeters>
          </Trackpoint>
          <Trackpoint>
            <Time>2022-09-21T09:15:41.000Z</Time>
            <Position>
              <LatitudeDegrees>49.40639910288155078887939453125</LatitudeDegrees>
              <LongitudeDegrees>20.3663484938442707061767578125</LongitudeDegrees>
            </Position>
            <AltitudeMeters>476</AltitudeMeters>
            <DistanceMeters>NAN</DistanceMeters>
          </Trackpoint>
          <Trackpoint>
            <Time>2022-09-21T09:15:44.000Z</Time>
            <Position>
              <LatitudeDegrees>49.4064793176949024200439453125</LatitudeDegrees>
              <LongitudeDegrees>20.36635310389101505279541015625</LongitudeDegrees>
            </Position>
            <AltitudeMeters>476</AltitudeMeters>
            <DistanceMeters>NAN</DistanceMeters>
          </Trackpoint>
          <Trackpoint>
            <Time>2022-09-21T09:15:47.000Z</Time>
            <Position>
              <LatitudeDegrees>49.40653941594064235687255859375</LatitudeDegrees>
              <LongitudeDegrees>20.3663672693073749542236328125</LongitudeDegrees>
            </Position>
            <AltitudeMeters>476.20001220703125</AltitudeMeters>
            <DistanceMeters>NAN</DistanceMeters>
          </Trackpoint>
          <Trackpoint>
            <Time>2022-09-21T09:15:52.000Z</Time>
            <Position>
              <LatitudeDegrees>49.40660445950925350189208984375</LatitudeDegrees>
              <LongitudeDegrees>20.366423763334751129150390625</LongitudeDegrees>
            </Position>
            <AltitudeMeters>476.20001220703125</AltitudeMeters>
            <DistanceMeters>NAN</DistanceMeters>
          </Trackpoint>
          <Trackpoint>
            <Time>2022-09-21T09:15:53.000Z</Time>
            <Position>
              <LatitudeDegrees>49.40662876702845096588134765625</LatitudeDegrees>
              <LongitudeDegrees>20.36643088795244693756103515625</LongitudeDegrees>
            </Position>
            <AltitudeMeters>476.20001220703125</AltitudeMeters>
            <DistanceMeters>NAN</DistanceMeters>
          </Trackpoint>
          <Trackpoint>
            <Time>2022-09-21T09:15:59.000Z</Time>
            <Position>
              <LatitudeDegrees>49.406761117279529571533203125</LatitudeDegrees>
              <LongitudeDegrees>20.36643491126596927642822265625</LongitudeDegrees>
            </Position>
            <AltitudeMeters>475.79998779296875</AltitudeMeters>
            <DistanceMeters>NAN</DistanceMeters>
          </Trackpoint>
          <Trackpoint>
            <Time>2022-09-21T09:16:00.000Z</Time>
            <Position>
              <LatitudeDegrees>49.4067803956568241119384765625</LatitudeDegrees>
              <LongitudeDegrees>20.36643348634243011474609375</LongitudeDegrees>
            </Position>
            <AltitudeMeters>476</AltitudeMeters>
            <DistanceMeters>NAN</DistanceMeters>
          </Trackpoint>
          <Trackpoint>
            <Time>2022-09-21T09:16:02.000Z</Time>
            <Position>
              <LatitudeDegrees>49.4068209640681743621826171875</LatitudeDegrees>
              <LongitudeDegrees>20.36644865758717060089111328125</LongitudeDegrees>
            </Position>
            <AltitudeMeters>476.20001220703125</AltitudeMeters>
            <DistanceMeters>NAN</DistanceMeters>
          </Trackpoint>
          <Trackpoint>
            <Time>2022-09-21T09:16:08.000Z</Time>
            <Position>
              <LatitudeDegrees>49.406971000134944915771484375</LatitudeDegrees>
              <LongitudeDegrees>20.36649593152105808258056640625</LongitudeDegrees>
            </Position>
            <AltitudeMeters>476.79998779296875</AltitudeMeters>
            <DistanceMeters>NAN</DistanceMeters>
          </Trackpoint>
          <Trackpoint>
            <Time>2022-09-21T09:16:16.000Z</Time>
            <Position>
              <LatitudeDegrees>49.40717727877199649810791015625</LatitudeDegrees>
              <LongitudeDegrees>20.36654479801654815673828125</LongitudeDegrees>
            </Position>
            <AltitudeMeters>477.600006103515625</AltitudeMeters>
            <DistanceMeters>NAN</DistanceMeters>
          </Trackpoint>
          <Trackpoint>
            <Time>2022-09-21T09:16:18.000Z</Time>
            <Position>
              <LatitudeDegrees>49.40722052939236164093017578125</LatitudeDegrees>
              <LongitudeDegrees>20.36655980162322521209716796875</LongitudeDegrees>
            </Position>
            <AltitudeMeters>477.600006103515625</AltitudeMeters>
            <DistanceMeters>NAN</DistanceMeters>
          </Trackpoint>
          <Trackpoint>
            <Time>2022-09-21T09:16:24.000Z</Time>
            <Position>
              <LatitudeDegrees>49.40731960348784923553466796875</LatitudeDegrees>
              <LongitudeDegrees>20.36659131757915019989013671875</LongitudeDegrees>
            </Position>
            <AltitudeMeters>477.399993896484375</AltitudeMeters>
            <DistanceMeters>NAN</DistanceMeters>
          </Trackpoint>
          <Trackpoint>
            <Time>2022-09-21T09:16:30.000Z</Time>
            <Position>
              <LatitudeDegrees>49.4074345193803310394287109375</LatitudeDegrees>
              <LongitudeDegrees>20.36664194427430629730224609375</LongitudeDegrees>
            </Position>
            <AltitudeMeters>477.399993896484375</AltitudeMeters>
            <DistanceMeters>NAN</DistanceMeters>
          </Trackpoint>
          <Trackpoint>
            <Time>2022-09-21T09:16:35.000Z</Time>
            <Position>
              <LatitudeDegrees>49.407531581819057464599609375</LatitudeDegrees>
              <LongitudeDegrees>20.36667815409600734710693359375</LongitudeDegrees>
            </Position>
            <AltitudeMeters>477.20001220703125</AltitudeMeters>
            <DistanceMeters>NAN</DistanceMeters>
          </Trackpoint>
          <Trackpoint>
            <Time>2022-09-21T09:16:37.000Z</Time>
            <Position>
              <LatitudeDegrees>49.40758111886680126190185546875</LatitudeDegrees>
              <LongitudeDegrees>20.3666931577026844024658203125</LongitudeDegrees>
            </Position>
            <AltitudeMeters>477.20001220703125</AltitudeMeters>
            <DistanceMeters>NAN</DistanceMeters>
          </Trackpoint>
          <Trackpoint>
            <Time>2022-09-21T09:16:42.000Z</Time>
            <Position>
              <LatitudeDegrees>49.4077117927372455596923828125</LatitudeDegrees>
              <LongitudeDegrees>20.3667189739644527435302734375</LongitudeDegrees>
            </Position>
            <AltitudeMeters>477</AltitudeMeters>
            <DistanceMeters>NAN</DistanceMeters>
          </Trackpoint>
          <Trackpoint>
            <Time>2022-09-21T09:16:49.000Z</Time>
            <Position>
              <LatitudeDegrees>49.407917819917201995849609375</LatitudeDegrees>
              <LongitudeDegrees>20.3668856061995029449462890625</LongitudeDegrees>
            </Position>
            <AltitudeMeters>477</AltitudeMeters>
            <DistanceMeters>NAN</DistanceMeters>
          </Trackpoint>
          <Trackpoint>
            <Time>2022-09-21T09:16:56.000Z</Time>
            <Position>
              <LatitudeDegrees>49.40808235667645931243896484375</LatitudeDegrees>
              <LongitudeDegrees>20.367024242877960205078125</LongitudeDegrees>
            </Position>
            <AltitudeMeters>477.399993896484375</AltitudeMeters>
            <DistanceMeters>NAN</DistanceMeters>
          </Trackpoint>
          <Trackpoint>
            <Time>2022-09-21T09:17:05.000Z</Time>
            <Position>
              <LatitudeDegrees>49.408285282552242279052734375</LatitudeDegrees>
              <LongitudeDegrees>20.367244519293308258056640625</LongitudeDegrees>
            </Position>
            <AltitudeMeters>477.79998779296875</AltitudeMeters>
            <DistanceMeters>NAN</DistanceMeters>
          </Trackpoint>
          <Trackpoint>
            <Time>2022-09-21T09:17:09.000Z</Time>
            <Position>
              <LatitudeDegrees>49.4083642400801181793212890625</LatitudeDegrees>
              <LongitudeDegrees>20.36735390312969684600830078125</LongitudeDegrees>
            </Position>
            <AltitudeMeters>477.600006103515625</AltitudeMeters>
            <DistanceMeters>NAN</DistanceMeters>
          </Trackpoint>
          <Trackpoint>
            <Time>2022-09-21T09:17:13.000Z</Time>
            <Position>
              <LatitudeDegrees>49.40844462253153324127197265625</LatitudeDegrees>
              <LongitudeDegrees>20.36749924533069133758544921875</LongitudeDegrees>
            </Position>
            <AltitudeMeters>477.600006103515625</AltitudeMeters>
            <DistanceMeters>NAN</DistanceMeters>
          </Trackpoint>
          <Trackpoint>
            <Time>2022-09-21T09:17:19.000Z</Time>
            <Position>
              <LatitudeDegrees>49.4085999391973018646240234375</LatitudeDegrees>
              <LongitudeDegrees>20.36781348288059234619140625</LongitudeDegrees>
            </Position>
            <AltitudeMeters>476.600006103515625</AltitudeMeters>
            <DistanceMeters>NAN</DistanceMeters>
          </Trackpoint>
          <Trackpoint>
            <Time>2022-09-21T09:17:20.000Z</Time>
            <Position>
              <LatitudeDegrees>49.40862399525940418243408203125</LatitudeDegrees>
              <LongitudeDegrees>20.3678689710795879364013671875</LongitudeDegrees>
            </Position>
            <AltitudeMeters>476.399993896484375</AltitudeMeters>
            <DistanceMeters>NAN</DistanceMeters>
          </Trackpoint>
          <Trackpoint>
            <Time>2022-09-21T09:17:24.000Z</Time>
            <Position>
              <LatitudeDegrees>49.40873664803802967071533203125</LatitudeDegrees>
              <LongitudeDegrees>20.36810827441513538360595703125</LongitudeDegrees>
            </Position>
            <AltitudeMeters>476</AltitudeMeters>
            <DistanceMeters>NAN</DistanceMeters>
          </Trackpoint>
          <Trackpoint>
            <Time>2022-09-21T09:17:26.000Z</Time>
            <Position>
              <LatitudeDegrees>49.40878794528543949127197265625</LatitudeDegrees>
              <LongitudeDegrees>20.36823861300945281982421875</LongitudeDegrees>
            </Position>
            <AltitudeMeters>475.79998779296875</AltitudeMeters>
            <DistanceMeters>NAN</DistanceMeters>
          </Trackpoint>
          <Trackpoint>
            <Time>2022-09-21T09:17:29.000Z</Time>
            <Position>
              <LatitudeDegrees>49.4088386557996273040771484375</LatitudeDegrees>
              <LongitudeDegrees>20.36841421388089656829833984375</LongitudeDegrees>
            </Position>
            <AltitudeMeters>475.79998779296875</AltitudeMeters>
            <DistanceMeters>NAN</DistanceMeters>
          </Trackpoint>
          <Trackpoint>
            <Time>2022-09-21T09:17:32.000Z</Time>
            <Position>
              <LatitudeDegrees>49.4088542461395263671875</LatitudeDegrees>
              <LongitudeDegrees>20.36854966543614864349365234375</LongitudeDegrees>
            </Position>
            <AltitudeMeters>476.20001220703125</AltitudeMeters>
            <DistanceMeters>NAN</DistanceMeters>
          </Trackpoint>
          <Trackpoint>
            <Time>2022-09-21T09:17:39.000Z</Time>
            <Position>
              <LatitudeDegrees>49.408857934176921844482421875</LatitudeDegrees>
              <LongitudeDegrees>20.368830375373363494873046875</LongitudeDegrees>
            </Position>
            <AltitudeMeters>477.600006103515625</AltitudeMeters>
            <DistanceMeters>NAN</DistanceMeters>
          </Trackpoint>
          <Trackpoint>
            <Time>2022-09-21T09:17:40.000Z</Time>
            <Position>
              <LatitudeDegrees>49.40885382704436779022216796875</LatitudeDegrees>
              <LongitudeDegrees>20.3688709437847137451171875</LongitudeDegrees>
            </Position>
            <AltitudeMeters>477.600006103515625</AltitudeMeters>
            <DistanceMeters>NAN</DistanceMeters>
          </Trackpoint>
          <Trackpoint>
            <Time>2022-09-21T09:17:46.000Z</Time>
            <Position>
              <LatitudeDegrees>49.40883873961865901947021484375</LatitudeDegrees>
              <LongitudeDegrees>20.369127430021762847900390625</LongitudeDegrees>
            </Position>
            <AltitudeMeters>478.79998779296875</AltitudeMeters>
            <DistanceMeters>NAN</DistanceMeters>
          </Trackpoint>
          <Trackpoint>
            <Time>2022-09-21T09:17:47.000Z</Time>
            <Position>
              <LatitudeDegrees>49.4088386557996273040771484375</LatitudeDegrees>
              <LongitudeDegrees>20.369172357022762298583984375</LongitudeDegrees>
            </Position>
            <AltitudeMeters>479</AltitudeMeters>
            <DistanceMeters>NAN</DistanceMeters>
          </Trackpoint>
          <Trackpoint>
            <Time>2022-09-21T09:17:53.000Z</Time>
            <Position>
              <LatitudeDegrees>49.4087980873882770538330078125</LatitudeDegrees>
              <LongitudeDegrees>20.369430519640445709228515625</LongitudeDegrees>
            </Position>
            <AltitudeMeters>479.79998779296875</AltitudeMeters>
            <DistanceMeters>NAN</DistanceMeters>
          </Trackpoint>
          <Trackpoint>
            <Time>2022-09-21T09:17:58.000Z</Time>
            <Position>
              <LatitudeDegrees>49.408781826496124267578125</LatitudeDegrees>
              <LongitudeDegrees>20.36969061009585857391357421875</LongitudeDegrees>
            </Position>
            <AltitudeMeters>480.600006103515625</AltitudeMeters>
            <DistanceMeters>NAN</DistanceMeters>
          </Trackpoint>
          <Trackpoint>
            <Time>2022-09-21T09:17:59.000Z</Time>
            <Position>
              <LatitudeDegrees>49.40877822227776050567626953125</LatitudeDegrees>
              <LongitudeDegrees>20.3697495348751544952392578125</LongitudeDegrees>
            </Position>
            <AltitudeMeters>480.79998779296875</AltitudeMeters>
            <DistanceMeters>NAN</DistanceMeters>
          </Trackpoint>
          <Trackpoint>
            <Time>2022-09-21T09:18:00.000Z</Time>
            <Position>
              <LatitudeDegrees>49.408773444592952728271484375</LatitudeDegrees>
              <LongitudeDegrees>20.369795300066471099853515625</LongitudeDegrees>
            </Position>
            <AltitudeMeters>481</AltitudeMeters>
            <DistanceMeters>NAN</DistanceMeters>
          </Trackpoint>
          <Trackpoint>
            <Time>2022-09-21T09:18:03.000Z</Time>
            <Position>
              <LatitudeDegrees>49.408760704100131988525390625</LatitudeDegrees>
              <LongitudeDegrees>20.3698930330574512481689453125</LongitudeDegrees>
            </Position>
            <AltitudeMeters>481.79998779296875</AltitudeMeters>
            <DistanceMeters>NAN</DistanceMeters>
          </Trackpoint>
          <Trackpoint>
            <Time>2022-09-21T09:18:04.000Z</Time>
            <Position>
              <LatitudeDegrees>49.40875927917659282684326171875</LatitudeDegrees>
              <LongitudeDegrees>20.3699211962521076202392578125</LongitudeDegrees>
            </Position>
            <AltitudeMeters>482</AltitudeMeters>
            <DistanceMeters>NAN</DistanceMeters>
          </Trackpoint>
          <Trackpoint>
            <Time>2022-09-21T09:18:06.000Z</Time>
            <Position>
              <LatitudeDegrees>49.40875659696757793426513671875</LatitudeDegrees>
              <LongitudeDegrees>20.36997056566178798675537109375</LongitudeDegrees>
            </Position>
            <AltitudeMeters>482.20001220703125</AltitudeMeters>
            <DistanceMeters>NAN</DistanceMeters>
          </Trackpoint>
          <Trackpoint>
            <Time>2022-09-21T09:18:09.000Z</Time>
            <Position>
              <LatitudeDegrees>49.408744610846042633056640625</LatitudeDegrees>
              <LongitudeDegrees>20.3700457513332366943359375</LongitudeDegrees>
            </Position>
            <AltitudeMeters>482.600006103515625</AltitudeMeters>
            <DistanceMeters>NAN</DistanceMeters>
          </Trackpoint>
          <Trackpoint>
            <Time>2022-09-21T09:18:12.000Z</Time>
            <Position>
              <LatitudeDegrees>49.40875207073986530303955078125</LatitudeDegrees>
              <LongitudeDegrees>20.3701330907642841339111328125</LongitudeDegrees>
            </Position>
            <AltitudeMeters>483.20001220703125</AltitudeMeters>
            <DistanceMeters>NAN</DistanceMeters>
          </Trackpoint>
          <Trackpoint>
            <Time>2022-09-21T09:18:13.000Z</Time>
            <Position>
              <LatitudeDegrees>49.40875089727342128753662109375</LatitudeDegrees>
              <LongitudeDegrees>20.37014876492321491241455078125</LongitudeDegrees>
            </Position>
            <AltitudeMeters>483.20001220703125</AltitudeMeters>
            <DistanceMeters>NAN</DistanceMeters>
          </Trackpoint>
          <Trackpoint>
            <Time>2022-09-21T09:18:16.000Z</Time>
            <Position>
              <LatitudeDegrees>49.40874000079929828643798828125</LatitudeDegrees>
              <LongitudeDegrees>20.370237529277801513671875</LongitudeDegrees>
            </Position>
            <AltitudeMeters>483.79998779296875</AltitudeMeters>
            <DistanceMeters>NAN</DistanceMeters>
          </Trackpoint>
          <Trackpoint>
            <Time>2022-09-21T09:18:19.000Z</Time>
            <Position>
              <LatitudeDegrees>49.40873061306774616241455078125</LatitudeDegrees>
              <LongitudeDegrees>20.37033651955425739288330078125</LongitudeDegrees>
            </Position>
            <AltitudeMeters>484.20001220703125</AltitudeMeters>
            <DistanceMeters>NAN</DistanceMeters>
          </Trackpoint>
          <Trackpoint>
            <Time>2022-09-21T09:18:22.000Z</Time>
            <Position>
              <LatitudeDegrees>49.408723823726177215576171875</LatitudeDegrees>
              <LongitudeDegrees>20.3704200871288776397705078125</LongitudeDegrees>
            </Position>
            <AltitudeMeters>484.600006103515625</AltitudeMeters>
            <DistanceMeters>NAN</DistanceMeters>
          </Trackpoint>
          <Trackpoint>
            <Time>2022-09-21T09:18:23.000Z</Time>
            <Position>
              <LatitudeDegrees>49.4087216444313526153564453125</LatitudeDegrees>
              <LongitudeDegrees>20.370449759066104888916015625</LongitudeDegrees>
            </Position>
            <AltitudeMeters>484.600006103515625</AltitudeMeters>
            <DistanceMeters>NAN</DistanceMeters>
          </Trackpoint>
          <Trackpoint>
            <Time>2022-09-21T09:18:32.000Z</Time>
            <Position>
              <LatitudeDegrees>49.40873530693352222442626953125</LatitudeDegrees>
              <LongitudeDegrees>20.37069526500999927520751953125</LongitudeDegrees>
            </Position>
            <AltitudeMeters>484.600006103515625</AltitudeMeters>
            <DistanceMeters>NAN</DistanceMeters>
          </Trackpoint>
          <Trackpoint>
            <Time>2022-09-21T09:18:38.000Z</Time>
            <Position>
              <LatitudeDegrees>49.40877906046807765960693359375</LatitudeDegrees>
              <LongitudeDegrees>20.37095527164638042449951171875</LongitudeDegrees>
            </Position>
            <AltitudeMeters>484.20001220703125</AltitudeMeters>
            <DistanceMeters>NAN</DistanceMeters>
          </Trackpoint>
          <Trackpoint>
            <Time>2022-09-21T09:18:43.000Z</Time>
            <Position>
              <LatitudeDegrees>49.40883488394320011138916015625</LatitudeDegrees>
              <LongitudeDegrees>20.37127713672816753387451171875</LongitudeDegrees>
            </Position>
            <AltitudeMeters>483.399993896484375</AltitudeMeters>
            <DistanceMeters>NAN</DistanceMeters>
          </Trackpoint>
          <Trackpoint>
            <Time>2022-09-21T09:18:45.000Z</Time>
            <Position>
              <LatitudeDegrees>49.40885751508176326751708984375</LatitudeDegrees>
              <LongitudeDegrees>20.37142851389944553375244140625</LongitudeDegrees>
            </Position>
            <AltitudeMeters>483.20001220703125</AltitudeMeters>
            <DistanceMeters>NAN</DistanceMeters>
          </Trackpoint>
          <Trackpoint>
            <Time>2022-09-21T09:18:48.000Z</Time>
            <Position>
              <LatitudeDegrees>49.4088996760547161102294921875</LatitudeDegrees>
              <LongitudeDegrees>20.37167812697589397430419921875</LongitudeDegrees>
            </Position>
            <AltitudeMeters>482.600006103515625</AltitudeMeters>
            <DistanceMeters>NAN</DistanceMeters>
          </Trackpoint>
          <Trackpoint>
            <Time>2022-09-21T09:18:49.000Z</Time>
            <Position>
              <LatitudeDegrees>49.408914260566234588623046875</LatitudeDegrees>
              <LongitudeDegrees>20.3717668913304805755615234375</LongitudeDegrees>
            </Position>
            <AltitudeMeters>482.399993896484375</AltitudeMeters>
            <DistanceMeters>NAN</DistanceMeters>
          </Trackpoint>
          <Trackpoint>
            <Time>2022-09-21T09:18:51.000Z</Time>
            <Position>
              <LatitudeDegrees>49.408947788178920745849609375</LatitudeDegrees>
              <LongitudeDegrees>20.371931008994579315185546875</LongitudeDegrees>
            </Position>
            <AltitudeMeters>482</AltitudeMeters>
            <DistanceMeters>NAN</DistanceMeters>
          </Trackpoint>
          <Trackpoint>
            <Time>2022-09-21T09:18:52.000Z</Time>
            <Position>
              <LatitudeDegrees>49.408970586955547332763671875</LatitudeDegrees>
              <LongitudeDegrees>20.37204609252512454986572265625</LongitudeDegrees>
            </Position>
            <AltitudeMeters>481.399993896484375</AltitudeMeters>
            <DistanceMeters>NAN</DistanceMeters>
          </Trackpoint>
          <Trackpoint>
            <Time>2022-09-21T09:18:54.000Z</Time>
            <Position>
              <LatitudeDegrees>49.40900604240596294403076171875</LatitudeDegrees>
              <LongitudeDegrees>20.37225010804831981658935546875</LongitudeDegrees>
            </Position>
            <AltitudeMeters>480.79998779296875</AltitudeMeters>
            <DistanceMeters>NAN</DistanceMeters>
          </Trackpoint>
          <Trackpoint>
            <Time>2022-09-21T09:18:55.000Z</Time>
            <Position>
              <LatitudeDegrees>49.40901450812816619873046875</LatitudeDegrees>
              <LongitudeDegrees>20.37233996205031871795654296875</LongitudeDegrees>
            </Position>
            <AltitudeMeters>480.399993896484375</AltitudeMeters>
            <DistanceMeters>NAN</DistanceMeters>
          </Trackpoint>
          <Trackpoint>
            <Time>2022-09-21T09:18:57.000Z</Time>
            <Position>
              <LatitudeDegrees>49.4090408273041248321533203125</LatitudeDegrees>
              <LongitudeDegrees>20.3726077638566493988037109375</LongitudeDegrees>
            </Position>
            <AltitudeMeters>479.79998779296875</AltitudeMeters>
            <DistanceMeters>NAN</DistanceMeters>
          </Trackpoint>
          <Trackpoint>
            <Time>2022-09-21T09:19:00.000Z</Time>
            <Position>
              <LatitudeDegrees>49.4090783782303333282470703125</LatitudeDegrees>
              <LongitudeDegrees>20.37298612296581268310546875</LongitudeDegrees>
            </Position>
            <AltitudeMeters>478.600006103515625</AltitudeMeters>
            <DistanceMeters>NAN</DistanceMeters>
          </Trackpoint>
          <Trackpoint>
            <Time>2022-09-21T09:19:01.000Z</Time>
            <Position>
              <LatitudeDegrees>49.4090907834470272064208984375</LatitudeDegrees>
              <LongitudeDegrees>20.3731106780469417572021484375</LongitudeDegrees>
            </Position>
            <AltitudeMeters>478.20001220703125</AltitudeMeters>
            <DistanceMeters>NAN</DistanceMeters>
          </Trackpoint>
          <Trackpoint>
            <Time>2022-09-21T09:19:05.000Z</Time>
            <Position>
              <LatitudeDegrees>49.409110061824321746826171875</LatitudeDegrees>
              <LongitudeDegrees>20.37358249537646770477294921875</LongitudeDegrees>
            </Position>
            <AltitudeMeters>477.399993896484375</AltitudeMeters>
            <DistanceMeters>NAN</DistanceMeters>
          </Trackpoint>
          <Trackpoint>
            <Time>2022-09-21T09:19:07.000Z</Time>
            <Position>
              <LatitudeDegrees>49.40910126082599163055419921875</LatitudeDegrees>
              <LongitudeDegrees>20.3737845830619335174560546875</LongitudeDegrees>
            </Position>
            <AltitudeMeters>477</AltitudeMeters>
            <DistanceMeters>NAN</DistanceMeters>
          </Trackpoint>
          <Trackpoint>
            <Time>2022-09-21T09:19:09.000Z</Time>
            <Position>
              <LatitudeDegrees>49.4090770371258258819580078125</LatitudeDegrees>
              <LongitudeDegrees>20.37401399575173854827880859375</LongitudeDegrees>
            </Position>
            <AltitudeMeters>476.399993896484375</AltitudeMeters>
            <DistanceMeters>NAN</DistanceMeters>
          </Trackpoint>
          <Trackpoint>
            <Time>2022-09-21T09:19:10.000Z</Time>
            <Position>
              <LatitudeDegrees>49.40905381925404071807861328125</LatitudeDegrees>
              <LongitudeDegrees>20.374124050140380859375</LongitudeDegrees>
            </Position>
            <AltitudeMeters>476.20001220703125</AltitudeMeters>
            <DistanceMeters>NAN</DistanceMeters>
          </Trackpoint>
          <Trackpoint>
            <Time>2022-09-21T09:19:11.000Z</Time>
            <Position>
              <LatitudeDegrees>49.40902582369744777679443359375</LatitudeDegrees>
              <LongitudeDegrees>20.374235026538372039794921875</LongitudeDegrees>
            </Position>
            <AltitudeMeters>475.79998779296875</AltitudeMeters>
            <DistanceMeters>NAN</DistanceMeters>
          </Trackpoint>
          <Trackpoint>
            <Time>2022-09-21T09:19:13.000Z</Time>
            <Position>
              <LatitudeDegrees>49.40896689891815185546875</LatitudeDegrees>
              <LongitudeDegrees>20.3744561411440372467041015625</LongitudeDegrees>
            </Position>
            <AltitudeMeters>475.399993896484375</AltitudeMeters>
            <DistanceMeters>NAN</DistanceMeters>
          </Trackpoint>
          <Trackpoint>
            <Time>2022-09-21T09:19:14.000Z</Time>
            <Position>
              <LatitudeDegrees>49.4089321978390216827392578125</LatitudeDegrees>
              <LongitudeDegrees>20.37456586025655269622802734375</LongitudeDegrees>
            </Position>
            <AltitudeMeters>475</AltitudeMeters>
            <DistanceMeters>NAN</DistanceMeters>
          </Trackpoint>
          <Trackpoint>
            <Time>2022-09-21T09:19:17.000Z</Time>
            <Position>
              <LatitudeDegrees>49.40880839712917804718017578125</LatitudeDegrees>
              <LongitudeDegrees>20.37489074282348155975341796875</LongitudeDegrees>
            </Position>
            <AltitudeMeters>474.600006103515625</AltitudeMeters>
            <DistanceMeters>NAN</DistanceMeters>
          </Trackpoint>
          <Trackpoint>
            <Time>2022-09-21T09:19:18.000Z</Time>
            <Position>
              <LatitudeDegrees>49.40876045264303684234619140625</LatitudeDegrees>
              <LongitudeDegrees>20.3749888949096202850341796875</LongitudeDegrees>
            </Position>
            <AltitudeMeters>474.600006103515625</AltitudeMeters>
            <DistanceMeters>NAN</DistanceMeters>
          </Trackpoint>
          <Trackpoint>
            <Time>2022-09-21T09:19:21.000Z</Time>
            <Position>
              <LatitudeDegrees>49.40861226059496402740478515625</LatitudeDegrees>
              <LongitudeDegrees>20.37524546496570110321044921875</LongitudeDegrees>
            </Position>
            <AltitudeMeters>474.399993896484375</AltitudeMeters>
            <DistanceMeters>NAN</DistanceMeters>
          </Trackpoint>
          <Trackpoint>
            <Time>2022-09-21T09:19:23.000Z</Time>
            <Position>
              <LatitudeDegrees>49.40851829946041107177734375</LatitudeDegrees>
              <LongitudeDegrees>20.375398434698581695556640625</LongitudeDegrees>
            </Position>
            <AltitudeMeters>474.20001220703125</AltitudeMeters>
            <DistanceMeters>NAN</DistanceMeters>
          </Trackpoint>
          <Trackpoint>
            <Time>2022-09-21T09:19:26.000Z</Time>
            <Position>
              <LatitudeDegrees>49.40837723203003406524658203125</LatitudeDegrees>
              <LongitudeDegrees>20.37563673220574855804443359375</LongitudeDegrees>
            </Position>
            <AltitudeMeters>474.20001220703125</AltitudeMeters>
            <DistanceMeters>NAN</DistanceMeters>
          </Trackpoint>
          <Trackpoint>
            <Time>2022-09-21T09:19:27.000Z</Time>
            <Position>
              <LatitudeDegrees>49.408328533172607421875</LatitudeDegrees>
              <LongitudeDegrees>20.37570026703178882598876953125</LongitudeDegrees>
            </Position>
            <AltitudeMeters>474</AltitudeMeters>
            <DistanceMeters>NAN</DistanceMeters>
          </Trackpoint>
          <Trackpoint>
            <Time>2022-09-21T09:19:29.000Z</Time>
            <Position>
              <LatitudeDegrees>49.40823624841868877410888671875</LatitudeDegrees>
              <LongitudeDegrees>20.3758267499506473541259765625</LongitudeDegrees>
            </Position>
            <AltitudeMeters>474</AltitudeMeters>
            <DistanceMeters>NAN</DistanceMeters>
          </Trackpoint>
          <Trackpoint>
            <Time>2022-09-21T09:19:30.000Z</Time>
            <Position>
              <LatitudeDegrees>49.40819450654089450836181640625</LatitudeDegrees>
              <LongitudeDegrees>20.375897325575351715087890625</LongitudeDegrees>
            </Position>
            <AltitudeMeters>473.79998779296875</AltitudeMeters>
            <DistanceMeters>NAN</DistanceMeters>
          </Trackpoint>
          <Trackpoint>
            <Time>2022-09-21T09:19:32.000Z</Time>
            <Position>
              <LatitudeDegrees>49.40810859203338623046875</LatitudeDegrees>
              <LongitudeDegrees>20.37603839300572872161865234375</LongitudeDegrees>
            </Position>
            <AltitudeMeters>473.600006103515625</AltitudeMeters>
            <DistanceMeters>NAN</DistanceMeters>
          </Trackpoint>
          <Trackpoint>
            <Time>2022-09-21T09:19:36.000Z</Time>
            <Position>
              <LatitudeDegrees>49.40794807858765125274658203125</LatitudeDegrees>
              <LongitudeDegrees>20.37628934718668460845947265625</LongitudeDegrees>
            </Position>
            <AltitudeMeters>473.399993896484375</AltitudeMeters>
            <DistanceMeters>NAN</DistanceMeters>
          </Trackpoint>
          <Trackpoint>
            <Time>2022-09-21T09:19:38.000Z</Time>
            <Position>
              <LatitudeDegrees>49.40786576829850673675537109375</LatitudeDegrees>
              <LongitudeDegrees>20.37640619091689586639404296875</LongitudeDegrees>
            </Position>
            <AltitudeMeters>473.399993896484375</AltitudeMeters>
            <DistanceMeters>NAN</DistanceMeters>
          </Trackpoint>
          <Trackpoint>
            <Time>2022-09-21T09:19:40.000Z</Time>
            <Position>
              <LatitudeDegrees>49.4077939353883266448974609375</LatitudeDegrees>
              <LongitudeDegrees>20.3765214420855045318603515625</LongitudeDegrees>
            </Position>
            <AltitudeMeters>473.20001220703125</AltitudeMeters>
            <DistanceMeters>NAN</DistanceMeters>
          </Trackpoint>
          <Trackpoint>
            <Time>2022-09-21T09:19:42.000Z</Time>
            <Position>
              <LatitudeDegrees>49.407732076942920684814453125</LatitudeDegrees>
              <LongitudeDegrees>20.37663065828382968902587890625</LongitudeDegrees>
            </Position>
            <AltitudeMeters>473.20001220703125</AltitudeMeters>
            <DistanceMeters>NAN</DistanceMeters>
          </Trackpoint>
          <Trackpoint>
            <Time>2022-09-21T09:19:46.000Z</Time>
            <Position>
              <LatitudeDegrees>49.4076056778430938720703125</LatitudeDegrees>
              <LongitudeDegrees>20.37683735601603984832763671875</LongitudeDegrees>
            </Position>
            <AltitudeMeters>473</AltitudeMeters>
            <DistanceMeters>NAN</DistanceMeters>
          </Trackpoint>
          <Trackpoint>
            <Time>2022-09-21T09:19:48.000Z</Time>
            <Position>
              <LatitudeDegrees>49.4075421430170536041259765625</LatitudeDegrees>
              <LongitudeDegrees>20.37693777121603488922119140625</LongitudeDegrees>
            </Position>
            <AltitudeMeters>473</AltitudeMeters>
            <DistanceMeters>NAN</DistanceMeters>
          </Trackpoint>
          <Trackpoint>
            <Time>2022-09-21T09:19:51.000Z</Time>
            <Position>
              <LatitudeDegrees>49.40744181163609027862548828125</LatitudeDegrees>
              <LongitudeDegrees>20.37707121111452579498291015625</LongitudeDegrees>
            </Position>
            <AltitudeMeters>473</AltitudeMeters>
            <DistanceMeters>NAN</DistanceMeters>
          </Trackpoint>
          <Trackpoint>
            <Time>2022-09-21T09:19:58.000Z</Time>
            <Position>
              <LatitudeDegrees>49.4072162546217441558837890625</LatitudeDegrees>
              <LongitudeDegrees>20.37745677866041660308837890625</LongitudeDegrees>
            </Position>
            <AltitudeMeters>472.79998779296875</AltitudeMeters>
            <DistanceMeters>NAN</DistanceMeters>
          </Trackpoint>
          <Trackpoint>
            <Time>2022-09-21T09:20:06.000Z</Time>
            <Position>
              <LatitudeDegrees>49.4069922901690006256103515625</LatitudeDegrees>
              <LongitudeDegrees>20.3778897039592266082763671875</LongitudeDegrees>
            </Position>
            <AltitudeMeters>472.399993896484375</AltitudeMeters>
            <DistanceMeters>NAN</DistanceMeters>
          </Trackpoint>
          <Trackpoint>
            <Time>2022-09-21T09:20:14.000Z</Time>
            <Position>
              <LatitudeDegrees>49.40678986720740795135498046875</LatitudeDegrees>
              <LongitudeDegrees>20.37830335088074207305908203125</LongitudeDegrees>
            </Position>
            <AltitudeMeters>472.20001220703125</AltitudeMeters>
            <DistanceMeters>NAN</DistanceMeters>
          </Trackpoint>
          <Trackpoint>
            <Time>2022-09-21T09:20:15.000Z</Time>
            <Position>
              <LatitudeDegrees>49.406765811145305633544921875</LatitudeDegrees>
              <LongitudeDegrees>20.3783641196787357330322265625</LongitudeDegrees>
            </Position>
            <AltitudeMeters>472.20001220703125</AltitudeMeters>
            <DistanceMeters>NAN</DistanceMeters>
          </Trackpoint>
          <Trackpoint>
            <Time>2022-09-21T09:20:17.000Z</Time>
            <Position>
              <LatitudeDegrees>49.4067140109837055206298828125</LatitudeDegrees>
              <LongitudeDegrees>20.3784784488379955291748046875</LongitudeDegrees>
            </Position>
            <AltitudeMeters>472.20001220703125</AltitudeMeters>
            <DistanceMeters>NAN</DistanceMeters>
          </Trackpoint>
          <Trackpoint>
            <Time>2022-09-21T09:20:18.000Z</Time>
            <Position>
              <LatitudeDegrees>49.406688027083873748779296875</LatitudeDegrees>
              <LongitudeDegrees>20.37853418849408626556396484375</LongitudeDegrees>
            </Position>
            <AltitudeMeters>472</AltitudeMeters>
            <DistanceMeters>NAN</DistanceMeters>
          </Trackpoint>
          <Trackpoint>
            <Time>2022-09-21T09:20:21.000Z</Time>
            <Position>
              <LatitudeDegrees>49.4065953232347965240478515625</LatitudeDegrees>
              <LongitudeDegrees>20.37869981490075588226318359375</LongitudeDegrees>
            </Position>
            <AltitudeMeters>471.79998779296875</AltitudeMeters>
            <DistanceMeters>NAN</DistanceMeters>
          </Trackpoint>
          <Trackpoint>
            <Time>2022-09-21T09:20:26.000Z</Time>
            <Position>
              <LatitudeDegrees>49.40646632574498653411865234375</LatitudeDegrees>
              <LongitudeDegrees>20.37896401248872280120849609375</LongitudeDegrees>
            </Position>
            <AltitudeMeters>471.79998779296875</AltitudeMeters>
            <DistanceMeters>NAN</DistanceMeters>
          </Trackpoint>
          <Trackpoint>
            <Time>2022-09-21T09:20:28.000Z</Time>
            <Position>
              <LatitudeDegrees>49.40641385503113269805908203125</LatitudeDegrees>
              <LongitudeDegrees>20.3790648467838764190673828125</LongitudeDegrees>
            </Position>
            <AltitudeMeters>471.79998779296875</AltitudeMeters>
            <DistanceMeters>NAN</DistanceMeters>
          </Trackpoint>
          <Trackpoint>
            <Time>2022-09-21T09:20:30.000Z</Time>
            <Position>
              <LatitudeDegrees>49.4063611328601837158203125</LatitudeDegrees>
              <LongitudeDegrees>20.3791614063084125518798828125</LongitudeDegrees>
            </Position>
            <AltitudeMeters>471.79998779296875</AltitudeMeters>
            <DistanceMeters>NAN</DistanceMeters>
          </Trackpoint>
          <Trackpoint>
            <Time>2022-09-21T09:20:35.000Z</Time>
            <Position>
              <LatitudeDegrees>49.40621872432529926300048828125</LatitudeDegrees>
              <LongitudeDegrees>20.379400290548801422119140625</LongitudeDegrees>
            </Position>
            <AltitudeMeters>471.600006103515625</AltitudeMeters>
            <DistanceMeters>NAN</DistanceMeters>
          </Trackpoint>
          <Trackpoint>
            <Time>2022-09-21T09:20:42.000Z</Time>
            <Position>
              <LatitudeDegrees>49.40601236186921596527099609375</LatitudeDegrees>
              <LongitudeDegrees>20.37980052642524242401123046875</LongitudeDegrees>
            </Position>
            <AltitudeMeters>471.399993896484375</AltitudeMeters>
            <DistanceMeters>NAN</DistanceMeters>
          </Trackpoint>
          <Trackpoint>
            <Time>2022-09-21T09:20:48.000Z</Time>
            <Position>
              <LatitudeDegrees>49.40584053285419940948486328125</LatitudeDegrees>
              <LongitudeDegrees>20.38012959994375705718994140625</LongitudeDegrees>
            </Position>
            <AltitudeMeters>471.399993896484375</AltitudeMeters>
            <DistanceMeters>NAN</DistanceMeters>
          </Trackpoint>
          <Trackpoint>
            <Time>2022-09-21T09:20:49.000Z</Time>
            <Position>
              <LatitudeDegrees>49.40581203438341617584228515625</LatitudeDegrees>
              <LongitudeDegrees>20.38017134182155132293701171875</LongitudeDegrees>
            </Position>
            <AltitudeMeters>471.399993896484375</AltitudeMeters>
            <DistanceMeters>NAN</DistanceMeters>
          </Trackpoint>
          <Trackpoint>
            <Time>2022-09-21T09:20:51.000Z</Time>
            <Position>
              <LatitudeDegrees>49.40575436688959598541259765625</LatitudeDegrees>
              <LongitudeDegrees>20.38026203401386737823486328125</LongitudeDegrees>
            </Position>
            <AltitudeMeters>471.20001220703125</AltitudeMeters>
            <DistanceMeters>NAN</DistanceMeters>
          </Trackpoint>
          <Trackpoint>
            <Time>2022-09-21T09:20:52.000Z</Time>
            <Position>
              <LatitudeDegrees>49.4057227671146392822265625</LatitudeDegrees>
              <LongitudeDegrees>20.3803077153861522674560546875</LongitudeDegrees>
            </Position>
            <AltitudeMeters>471.20001220703125</AltitudeMeters>
            <DistanceMeters>NAN</DistanceMeters>
          </Trackpoint>
          <Trackpoint>
            <Time>2022-09-21T09:20:53.000Z</Time>
            <Position>
              <LatitudeDegrees>49.4056870602071285247802734375</LatitudeDegrees>
              <LongitudeDegrees>20.380346775054931640625</LongitudeDegrees>
            </Position>
            <AltitudeMeters>471.399993896484375</AltitudeMeters>
            <DistanceMeters>NAN</DistanceMeters>
          </Trackpoint>
          <Trackpoint>
            <Time>2022-09-21T09:20:55.000Z</Time>
            <Position>
              <LatitudeDegrees>49.4056109525263309478759765625</LatitudeDegrees>
              <LongitudeDegrees>20.3804218769073486328125</LongitudeDegrees>
            </Position>
            <AltitudeMeters>471.399993896484375</AltitudeMeters>
            <DistanceMeters>NAN</DistanceMeters>
          </Trackpoint>
          <Trackpoint>
            <Time>2022-09-21T09:20:56.000Z</Time>
            <Position>
              <LatitudeDegrees>49.405571557581424713134765625</LatitudeDegrees>
              <LongitudeDegrees>20.38046604953706264495849609375</LongitudeDegrees>
            </Position>
            <AltitudeMeters>471.20001220703125</AltitudeMeters>
            <DistanceMeters>NAN</DistanceMeters>
          </Trackpoint>
          <Trackpoint>
            <Time>2022-09-21T09:21:02.000Z</Time>
            <Position>
              <LatitudeDegrees>49.40535329282283782958984375</LatitudeDegrees>
              <LongitudeDegrees>20.3807133994996547698974609375</LongitudeDegrees>
            </Position>
            <AltitudeMeters>471.600006103515625</AltitudeMeters>
            <DistanceMeters>NAN</DistanceMeters>
          </Trackpoint>
          <Trackpoint>
            <Time>2022-09-21T09:21:03.000Z</Time>
            <Position>
              <LatitudeDegrees>49.4053192622959613800048828125</LatitudeDegrees>
              <LongitudeDegrees>20.380750112235546112060546875</LongitudeDegrees>
            </Position>
            <AltitudeMeters>471.399993896484375</AltitudeMeters>
            <DistanceMeters>NAN</DistanceMeters>
          </Trackpoint>
          <Trackpoint>
            <Time>2022-09-21T09:21:13.000Z</Time>
            <Position>
              <LatitudeDegrees>49.4049756042659282684326171875</LatitudeDegrees>
              <LongitudeDegrees>20.381143391132354736328125</LongitudeDegrees>
            </Position>
            <AltitudeMeters>471.20001220703125</AltitudeMeters>
            <DistanceMeters>NAN</DistanceMeters>
          </Trackpoint>
          <Trackpoint>
            <Time>2022-09-21T09:21:15.000Z</Time>
            <Position>
              <LatitudeDegrees>49.40489689819514751434326171875</LatitudeDegrees>
              <LongitudeDegrees>20.38122544996440410614013671875</LongitudeDegrees>
            </Position>
            <AltitudeMeters>471.20001220703125</AltitudeMeters>
            <DistanceMeters>NAN</DistanceMeters>
          </Trackpoint>
          <Trackpoint>
            <Time>2022-09-21T09:21:20.000Z</Time>
            <Position>
              <LatitudeDegrees>49.40468408167362213134765625</LatitudeDegrees>
              <LongitudeDegrees>20.38136802613735198974609375</LongitudeDegrees>
            </Position>
            <AltitudeMeters>471</AltitudeMeters>
            <DistanceMeters>NAN</DistanceMeters>
          </Trackpoint>
          <Trackpoint>
            <Time>2022-09-21T09:21:21.000Z</Time>
            <Position>
              <LatitudeDegrees>49.4046403281390666961669921875</LatitudeDegrees>
              <LongitudeDegrees>20.3813836164772510528564453125</LongitudeDegrees>
            </Position>
            <AltitudeMeters>471</AltitudeMeters>
            <DistanceMeters>NAN</DistanceMeters>
          </Trackpoint>
          <Trackpoint>
            <Time>2022-09-21T09:21:27.000Z</Time>
            <Position>
              <LatitudeDegrees>49.404377974569797515869140625</LatitudeDegrees>
              <LongitudeDegrees>20.38143516518175601959228515625</LongitudeDegrees>
            </Position>
            <AltitudeMeters>470.79998779296875</AltitudeMeters>
            <DistanceMeters>NAN</DistanceMeters>
          </Trackpoint>
          <Trackpoint>
            <Time>2022-09-21T09:21:31.000Z</Time>
            <Position>
              <LatitudeDegrees>49.4042265973985195159912109375</LatitudeDegrees>
              <LongitudeDegrees>20.38146869279444217681884765625</LongitudeDegrees>
            </Position>
            <AltitudeMeters>470.79998779296875</AltitudeMeters>
            <DistanceMeters>NAN</DistanceMeters>
          </Trackpoint>
          <Trackpoint>
            <Time>2022-09-21T09:21:34.000Z</Time>
            <Position>
              <LatitudeDegrees>49.40409290604293346405029296875</LatitudeDegrees>
              <LongitudeDegrees>20.38148193620145320892333984375</LongitudeDegrees>
            </Position>
            <AltitudeMeters>470.79998779296875</AltitudeMeters>
            <DistanceMeters>NAN</DistanceMeters>
          </Trackpoint>
          <Trackpoint>
            <Time>2022-09-21T09:21:39.000Z</Time>
            <Position>
              <LatitudeDegrees>49.4038532674312591552734375</LatitudeDegrees>
              <LongitudeDegrees>20.3815254382789134979248046875</LongitudeDegrees>
            </Position>
            <AltitudeMeters>470.79998779296875</AltitudeMeters>
            <DistanceMeters>NAN</DistanceMeters>
          </Trackpoint>
          <Trackpoint>
            <Time>2022-09-21T09:21:43.000Z</Time>
            <Position>
              <LatitudeDegrees>49.403684623539447784423828125</LatitudeDegrees>
              <LongitudeDegrees>20.38156055845320224761962890625</LongitudeDegrees>
            </Position>
            <AltitudeMeters>470.600006103515625</AltitudeMeters>
            <DistanceMeters>NAN</DistanceMeters>
          </Trackpoint>
          <Trackpoint>
            <Time>2022-09-21T09:21:47.000Z</Time>
            <Position>
              <LatitudeDegrees>49.4035124592483043670654296875</LatitudeDegrees>
              <LongitudeDegrees>20.3815928287804126739501953125</LongitudeDegrees>
            </Position>
            <AltitudeMeters>470.399993896484375</AltitudeMeters>
            <DistanceMeters>NAN</DistanceMeters>
          </Trackpoint>
          <Trackpoint>
            <Time>2022-09-21T09:21:51.000Z</Time>
            <Position>
              <LatitudeDegrees>49.40335546620190143585205078125</LatitudeDegrees>
              <LongitudeDegrees>20.38163247518241405487060546875</LongitudeDegrees>
            </Position>
            <AltitudeMeters>470.20001220703125</AltitudeMeters>
            <DistanceMeters>NAN</DistanceMeters>
          </Trackpoint>
          <Trackpoint>
            <Time>2022-09-21T09:21:59.000Z</Time>
            <Position>
              <LatitudeDegrees>49.4030035100877285003662109375</LatitudeDegrees>
              <LongitudeDegrees>20.38165904581546783447265625</LongitudeDegrees>
            </Position>
            <AltitudeMeters>470.20001220703125</AltitudeMeters>
            <DistanceMeters>NAN</DistanceMeters>
          </Trackpoint>
          <Trackpoint>
            <Time>2022-09-21T09:22:06.000Z</Time>
            <Position>
              <LatitudeDegrees>49.40268726088106632232666015625</LatitudeDegrees>
              <LongitudeDegrees>20.38166013546288013458251953125</LongitudeDegrees>
            </Position>
            <AltitudeMeters>470.20001220703125</AltitudeMeters>
            <DistanceMeters>NAN</DistanceMeters>
          </Trackpoint>
          <Trackpoint>
            <Time>2022-09-21T09:22:08.000Z</Time>
            <Position>
              <LatitudeDegrees>49.402601681649684906005859375</LatitudeDegrees>
              <LongitudeDegrees>20.38166583515703678131103515625</LongitudeDegrees>
            </Position>
            <AltitudeMeters>470</AltitudeMeters>
            <DistanceMeters>NAN</DistanceMeters>
          </Trackpoint>
          <Trackpoint>
            <Time>2022-09-21T09:22:10.000Z</Time>
            <Position>
              <LatitudeDegrees>49.4025233946740627288818359375</LatitudeDegrees>
              <LongitudeDegrees>20.38167606107890605926513671875</LongitudeDegrees>
            </Position>
            <AltitudeMeters>470</AltitudeMeters>
            <DistanceMeters>NAN</DistanceMeters>
          </Trackpoint>
          <Trackpoint>
            <Time>2022-09-21T09:22:12.000Z</Time>
            <Position>
              <LatitudeDegrees>49.4024343788623809814453125</LatitudeDegrees>
              <LongitudeDegrees>20.3816665895283222198486328125</LongitudeDegrees>
            </Position>
            <AltitudeMeters>470</AltitudeMeters>
            <DistanceMeters>NAN</DistanceMeters>
          </Trackpoint>
          <Trackpoint>
            <Time>2022-09-21T09:22:19.000Z</Time>
            <Position>
              <LatitudeDegrees>49.40216816961765289306640625</LatitudeDegrees>
              <LongitudeDegrees>20.381704308092594146728515625</LongitudeDegrees>
            </Position>
            <AltitudeMeters>469.600006103515625</AltitudeMeters>
            <DistanceMeters>NAN</DistanceMeters>
          </Trackpoint>
          <Trackpoint>
            <Time>2022-09-21T09:22:26.000Z</Time>
            <Position>
              <LatitudeDegrees>49.40191629342734813690185546875</LatitudeDegrees>
              <LongitudeDegrees>20.3817091695964336395263671875</LongitudeDegrees>
            </Position>
            <AltitudeMeters>469.600006103515625</AltitudeMeters>
            <DistanceMeters>NAN</DistanceMeters>
          </Trackpoint>
          <Trackpoint>
            <Time>2022-09-21T09:22:34.000Z</Time>
            <Position>
              <LatitudeDegrees>49.40160758793354034423828125</LatitudeDegrees>
              <LongitudeDegrees>20.38172869943082332611083984375</LongitudeDegrees>
            </Position>
            <AltitudeMeters>469.600006103515625</AltitudeMeters>
            <DistanceMeters>NAN</DistanceMeters>
          </Trackpoint>
          <Trackpoint>
            <Time>2022-09-21T09:22:37.000Z</Time>
            <Position>
              <LatitudeDegrees>49.401468448340892791748046875</LatitudeDegrees>
              <LongitudeDegrees>20.38173171691596508026123046875</LongitudeDegrees>
            </Position>
            <AltitudeMeters>469.600006103515625</AltitudeMeters>
            <DistanceMeters>NAN</DistanceMeters>
          </Trackpoint>
          <Trackpoint>
            <Time>2022-09-21T09:22:39.000Z</Time>
            <Position>
              <LatitudeDegrees>49.401385970413684844970703125</LatitudeDegrees>
              <LongitudeDegrees>20.3817443735897541046142578125</LongitudeDegrees>
            </Position>
            <AltitudeMeters>469.600006103515625</AltitudeMeters>
            <DistanceMeters>NAN</DistanceMeters>
          </Trackpoint>
          <Trackpoint>
            <Time>2022-09-21T09:22:40.000Z</Time>
            <Position>
              <LatitudeDegrees>49.40134012140333652496337890625</LatitudeDegrees>
              <LongitudeDegrees>20.3817406855523586273193359375</LongitudeDegrees>
            </Position>
            <AltitudeMeters>469.600006103515625</AltitudeMeters>
            <DistanceMeters>NAN</DistanceMeters>
          </Trackpoint>
          <Trackpoint>
            <Time>2022-09-21T09:22:47.000Z</Time>
            <Position>
              <LatitudeDegrees>49.40106578171253204345703125</LatitudeDegrees>
              <LongitudeDegrees>20.3817487321794033050537109375</LongitudeDegrees>
            </Position>
            <AltitudeMeters>469.399993896484375</AltitudeMeters>
            <DistanceMeters>NAN</DistanceMeters>
          </Trackpoint>
          <Trackpoint>
            <Time>2022-09-21T09:22:48.000Z</Time>
            <Position>
              <LatitudeDegrees>49.40102580003440380096435546875</LatitudeDegrees>
              <LongitudeDegrees>20.38175669498741626739501953125</LongitudeDegrees>
            </Position>
            <AltitudeMeters>469.399993896484375</AltitudeMeters>
            <DistanceMeters>NAN</DistanceMeters>
          </Trackpoint>
          <Trackpoint>
            <Time>2022-09-21T09:22:54.000Z</Time>
            <Position>
              <LatitudeDegrees>49.4007869996130466461181640625</LatitudeDegrees>
              <LongitudeDegrees>20.381782762706279754638671875</LongitudeDegrees>
            </Position>
            <AltitudeMeters>469.399993896484375</AltitudeMeters>
            <DistanceMeters>NAN</DistanceMeters>
          </Trackpoint>
          <Trackpoint>
            <Time>2022-09-21T09:23:00.000Z</Time>
            <Position>
              <LatitudeDegrees>49.40057435072958469390869140625</LatitudeDegrees>
              <LongitudeDegrees>20.38180162198841571807861328125</LongitudeDegrees>
            </Position>
            <AltitudeMeters>469.20001220703125</AltitudeMeters>
            <DistanceMeters>NAN</DistanceMeters>
          </Trackpoint>
          <Trackpoint>
            <Time>2022-09-21T09:23:07.000Z</Time>
            <Position>
              <LatitudeDegrees>49.40027989447116851806640625</LatitudeDegrees>
              <LongitudeDegrees>20.38185107521712779998779296875</LongitudeDegrees>
            </Position>
            <AltitudeMeters>469</AltitudeMeters>
            <DistanceMeters>NAN</DistanceMeters>
          </Trackpoint>
          <Trackpoint>
            <Time>2022-09-21T09:23:08.000Z</Time>
            <Position>
              <LatitudeDegrees>49.40023236908018589019775390625</LatitudeDegrees>
              <LongitudeDegrees>20.38186130113899707794189453125</LongitudeDegrees>
            </Position>
            <AltitudeMeters>469</AltitudeMeters>
            <DistanceMeters>NAN</DistanceMeters>
          </Trackpoint>
          <Trackpoint>
            <Time>2022-09-21T09:23:16.000Z</Time>
            <Position>
              <LatitudeDegrees>49.3998701870441436767578125</LatitudeDegrees>
              <LongitudeDegrees>20.38192299194633960723876953125</LongitudeDegrees>
            </Position>
            <AltitudeMeters>468.79998779296875</AltitudeMeters>
            <DistanceMeters>NAN</DistanceMeters>
          </Trackpoint>
          <Trackpoint>
            <Time>2022-09-21T09:23:17.000Z</Time>
            <Position>
              <LatitudeDegrees>49.39982936717569828033447265625</LatitudeDegrees>
              <LongitudeDegrees>20.38192994892597198486328125</LongitudeDegrees>
            </Position>
            <AltitudeMeters>468.79998779296875</AltitudeMeters>
            <DistanceMeters>NAN</DistanceMeters>
          </Trackpoint>
          <Trackpoint>
            <Time>2022-09-21T09:23:22.000Z</Time>
            <Position>
              <LatitudeDegrees>49.399623759090900421142578125</LatitudeDegrees>
              <LongitudeDegrees>20.381949730217456817626953125</LongitudeDegrees>
            </Position>
            <AltitudeMeters>468.79998779296875</AltitudeMeters>
            <DistanceMeters>NAN</DistanceMeters>
          </Trackpoint>
          <Trackpoint>
            <Time>2022-09-21T09:23:23.000Z</Time>
            <Position>
              <LatitudeDegrees>49.3995853699743747711181640625</LatitudeDegrees>
              <LongitudeDegrees>20.381949059665203094482421875</LongitudeDegrees>
            </Position>
            <AltitudeMeters>468.600006103515625</AltitudeMeters>
            <DistanceMeters>NAN</DistanceMeters>
          </Trackpoint>
          <Trackpoint>
            <Time>2022-09-21T09:23:25.000Z</Time>
            <Position>
              <LatitudeDegrees>49.39950549043715000152587890625</LatitudeDegrees>
              <LongitudeDegrees>20.38193254731595516204833984375</LongitudeDegrees>
            </Position>
            <AltitudeMeters>468.600006103515625</AltitudeMeters>
            <DistanceMeters>NAN</DistanceMeters>
          </Trackpoint>
          <Trackpoint>
            <Time>2022-09-21T09:23:33.000Z</Time>
            <Position>
              <LatitudeDegrees>49.39915713854134082794189453125</LatitudeDegrees>
              <LongitudeDegrees>20.3819143585860729217529296875</LongitudeDegrees>
            </Position>
            <AltitudeMeters>468.399993896484375</AltitudeMeters>
            <DistanceMeters>NAN</DistanceMeters>
          </Trackpoint>
          <Trackpoint>
            <Time>2022-09-21T09:23:40.000Z</Time>
            <Position>
              <LatitudeDegrees>49.39884088933467864990234375</LatitudeDegrees>
              <LongitudeDegrees>20.3818761371076107025146484375</LongitudeDegrees>
            </Position>
            <AltitudeMeters>468.399993896484375</AltitudeMeters>
            <DistanceMeters>NAN</DistanceMeters>
          </Trackpoint>
          <Trackpoint>
            <Time>2022-09-21T09:23:41.000Z</Time>
            <Position>
              <LatitudeDegrees>49.398801326751708984375</LatitudeDegrees>
              <LongitudeDegrees>20.3818687610328197479248046875</LongitudeDegrees>
            </Position>
            <AltitudeMeters>468.399993896484375</AltitudeMeters>
            <DistanceMeters>NAN</DistanceMeters>
          </Trackpoint>
          <Trackpoint>
            <Time>2022-09-21T09:23:47.000Z</Time>
            <Position>
              <LatitudeDegrees>49.398584403097629547119140625</LatitudeDegrees>
              <LongitudeDegrees>20.38184545934200286865234375</LongitudeDegrees>
            </Position>
            <AltitudeMeters>468.600006103515625</AltitudeMeters>
            <DistanceMeters>NAN</DistanceMeters>
          </Trackpoint>
          <Trackpoint>
            <Time>2022-09-21T09:23:51.000Z</Time>
            <Position>
              <LatitudeDegrees>49.398448280990123748779296875</LatitudeDegrees>
              <LongitudeDegrees>20.38183347322046756744384765625</LongitudeDegrees>
            </Position>
            <AltitudeMeters>468.600006103515625</AltitudeMeters>
            <DistanceMeters>NAN</DistanceMeters>
          </Trackpoint>
          <Trackpoint>
            <Time>2022-09-21T09:23:54.000Z</Time>
            <Position>
              <LatitudeDegrees>49.39834426157176494598388671875</LatitudeDegrees>
              <LongitudeDegrees>20.38181151263415813446044921875</LongitudeDegrees>
            </Position>
            <AltitudeMeters>468.600006103515625</AltitudeMeters>
            <DistanceMeters>NAN</DistanceMeters>
          </Trackpoint>
          <Trackpoint>
            <Time>2022-09-21T09:23:58.000Z</Time>
            <Position>
              <LatitudeDegrees>49.3981966562569141387939453125</LatitudeDegrees>
              <LongitudeDegrees>20.381792820990085601806640625</LongitudeDegrees>
            </Position>
            <AltitudeMeters>468.79998779296875</AltitudeMeters>
            <DistanceMeters>NAN</DistanceMeters>
          </Trackpoint>
          <Trackpoint>
            <Time>2022-09-21T09:24:01.000Z</Time>
            <Position>
              <LatitudeDegrees>49.3980729393661022186279296875</LatitudeDegrees>
              <LongitudeDegrees>20.3817725367844104766845703125</LongitudeDegrees>
            </Position>
            <AltitudeMeters>468.600006103515625</AltitudeMeters>
            <DistanceMeters>NAN</DistanceMeters>
          </Trackpoint>
          <Trackpoint>
            <Time>2022-09-21T09:24:04.000Z</Time>
            <Position>
              <LatitudeDegrees>49.3979455344378948211669921875</LatitudeDegrees>
              <LongitudeDegrees>20.3817589581012725830078125</LongitudeDegrees>
            </Position>
            <AltitudeMeters>468.600006103515625</AltitudeMeters>
            <DistanceMeters>NAN</DistanceMeters>
          </Trackpoint>
          <Trackpoint>
            <Time>2022-09-21T09:24:09.000Z</Time>
            <Position>
              <LatitudeDegrees>49.39775015227496623992919921875</LatitudeDegrees>
              <LongitudeDegrees>20.38174361921846866607666015625</LongitudeDegrees>
            </Position>
            <AltitudeMeters>468.399993896484375</AltitudeMeters>
            <DistanceMeters>NAN</DistanceMeters>
          </Trackpoint>
          <Trackpoint>
            <Time>2022-09-21T09:24:17.000Z</Time>
            <Position>
              <LatitudeDegrees>49.3974561989307403564453125</LatitudeDegrees>
              <LongitudeDegrees>20.38175761699676513671875</LongitudeDegrees>
            </Position>
            <AltitudeMeters>468.399993896484375</AltitudeMeters>
            <DistanceMeters>NAN</DistanceMeters>
          </Trackpoint>
          <Trackpoint>
            <Time>2022-09-21T09:24:24.000Z</Time>
            <Position>
              <LatitudeDegrees>49.39716911874711513519287109375</LatitudeDegrees>
              <LongitudeDegrees>20.38178988732397556304931640625</LongitudeDegrees>
            </Position>
            <AltitudeMeters>468.20001220703125</AltitudeMeters>
            <DistanceMeters>NAN</DistanceMeters>
          </Trackpoint>
          <Trackpoint>
            <Time>2022-09-21T09:24:30.000Z</Time>
            <Position>
              <LatitudeDegrees>49.39690408296883106231689453125</LatitudeDegrees>
              <LongitudeDegrees>20.3818295337259769439697265625</LongitudeDegrees>
            </Position>
            <AltitudeMeters>468</AltitudeMeters>
            <DistanceMeters>NAN</DistanceMeters>
          </Trackpoint>
          <Trackpoint>
            <Time>2022-09-21T09:24:32.000Z</Time>
            <Position>
              <LatitudeDegrees>49.39681070856750011444091796875</LatitudeDegrees>
              <LongitudeDegrees>20.38186063058674335479736328125</LongitudeDegrees>
            </Position>
            <AltitudeMeters>468</AltitudeMeters>
            <DistanceMeters>NAN</DistanceMeters>
          </Trackpoint>
          <Trackpoint>
            <Time>2022-09-21T09:24:35.000Z</Time>
            <Position>
              <LatitudeDegrees>49.39670409075915813446044921875</LatitudeDegrees>
              <LongitudeDegrees>20.38190438412129878997802734375</LongitudeDegrees>
            </Position>
            <AltitudeMeters>468</AltitudeMeters>
            <DistanceMeters>NAN</DistanceMeters>
          </Trackpoint>
          <Trackpoint>
            <Time>2022-09-21T09:24:39.000Z</Time>
            <Position>
              <LatitudeDegrees>49.3965662084519863128662109375</LatitudeDegrees>
              <LongitudeDegrees>20.38199432194232940673828125</LongitudeDegrees>
            </Position>
            <AltitudeMeters>468</AltitudeMeters>
            <DistanceMeters>NAN</DistanceMeters>
          </Trackpoint>
          <Trackpoint>
            <Time>2022-09-21T09:24:44.000Z</Time>
            <Position>
              <LatitudeDegrees>49.39643335528671741485595703125</LatitudeDegrees>
              <LongitudeDegrees>20.38208627142012119293212890625</LongitudeDegrees>
            </Position>
            <AltitudeMeters>468.20001220703125</AltitudeMeters>
            <DistanceMeters>NAN</DistanceMeters>
          </Trackpoint>
          <Trackpoint>
            <Time>2022-09-21T09:24:49.000Z</Time>
            <Position>
              <LatitudeDegrees>49.39630460925400257110595703125</LatitudeDegrees>
              <LongitudeDegrees>20.38217562250792980194091796875</LongitudeDegrees>
            </Position>
            <AltitudeMeters>468.399993896484375</AltitudeMeters>
            <DistanceMeters>NAN</DistanceMeters>
          </Trackpoint>
          <Trackpoint>
            <Time>2022-09-21T09:24:50.000Z</Time>
            <Position>
              <LatitudeDegrees>49.39627929590642452239990234375</LatitudeDegrees>
              <LongitudeDegrees>20.38218987174332141876220703125</LongitudeDegrees>
            </Position>
            <AltitudeMeters>468.399993896484375</AltitudeMeters>
            <DistanceMeters>NAN</DistanceMeters>
          </Trackpoint>
          <Trackpoint>
            <Time>2022-09-21T09:24:53.000Z</Time>
            <Position>
              <LatitudeDegrees>49.39619564451277256011962890625</LatitudeDegrees>
              <LongitudeDegrees>20.3821996785700321197509765625</LongitudeDegrees>
            </Position>
            <AltitudeMeters>468.399993896484375</AltitudeMeters>
            <DistanceMeters>NAN</DistanceMeters>
          </Trackpoint>
          <Trackpoint>
            <Time>2022-09-21T09:24:55.000Z</Time>
            <Position>
              <LatitudeDegrees>49.39614451490342617034912109375</LatitudeDegrees>
              <LongitudeDegrees>20.38216204382479190826416015625</LongitudeDegrees>
            </Position>
            <AltitudeMeters>468.20001220703125</AltitudeMeters>
            <DistanceMeters>NAN</DistanceMeters>
          </Trackpoint>
          <Trackpoint>
            <Time>2022-09-21T09:25:00.000Z</Time>
            <Position>
              <LatitudeDegrees>49.39599632285535335540771484375</LatitudeDegrees>
              <LongitudeDegrees>20.38206732831895351409912109375</LongitudeDegrees>
            </Position>
            <AltitudeMeters>467.399993896484375</AltitudeMeters>
            <DistanceMeters>NAN</DistanceMeters>
          </Trackpoint>
          <Trackpoint>
            <Time>2022-09-21T09:25:05.000Z</Time>
            <Position>
              <LatitudeDegrees>49.3959246575832366943359375</LatitudeDegrees>
              <LongitudeDegrees>20.382065065205097198486328125</LongitudeDegrees>
            </Position>
            <AltitudeMeters>467.20001220703125</AltitudeMeters>
            <DistanceMeters>NAN</DistanceMeters>
          </Trackpoint>
          <Trackpoint>
            <Time>2022-09-21T09:25:08.000Z</Time>
            <Position>
              <LatitudeDegrees>49.3959246575832366943359375</LatitudeDegrees>
              <LongitudeDegrees>20.382065065205097198486328125</LongitudeDegrees>
            </Position>
            <AltitudeMeters>467</AltitudeMeters>
            <DistanceMeters>NAN</DistanceMeters>
          </Trackpoint>
          <Trackpoint>
            <Time>2022-09-21T09:25:16.000Z</Time>
            <Position>
              <LatitudeDegrees>49.3959246575832366943359375</LatitudeDegrees>
              <LongitudeDegrees>20.382065065205097198486328125</LongitudeDegrees>
            </Position>
            <AltitudeMeters>466.79998779296875</AltitudeMeters>
            <DistanceMeters>NAN</DistanceMeters>
          </Trackpoint>
          <Trackpoint>
            <Time>2022-09-21T09:25:28.000Z</Time>
            <Position>
              <LatitudeDegrees>49.3959246575832366943359375</LatitudeDegrees>
              <LongitudeDegrees>20.382065065205097198486328125</LongitudeDegrees>
            </Position>
            <AltitudeMeters>467.20001220703125</AltitudeMeters>
            <DistanceMeters>NAN</DistanceMeters>
          </Trackpoint>
          <Trackpoint>
            <Time>2022-09-21T09:25:33.000Z</Time>
            <Position>
              <LatitudeDegrees>49.3959246575832366943359375</LatitudeDegrees>
              <LongitudeDegrees>20.382065065205097198486328125</LongitudeDegrees>
            </Position>
            <AltitudeMeters>466.79998779296875</AltitudeMeters>
            <DistanceMeters>NAN</DistanceMeters>
          </Trackpoint>
          <Trackpoint>
            <Time>2022-09-21T09:25:39.000Z</Time>
            <Position>
              <LatitudeDegrees>49.3959246575832366943359375</LatitudeDegrees>
              <LongitudeDegrees>20.382065065205097198486328125</LongitudeDegrees>
            </Position>
            <AltitudeMeters>466.79998779296875</AltitudeMeters>
            <DistanceMeters>NAN</DistanceMeters>
          </Trackpoint>
          <Trackpoint>
            <Time>2022-09-21T09:25:42.000Z</Time>
            <Position>
              <LatitudeDegrees>49.3959246575832366943359375</LatitudeDegrees>
              <LongitudeDegrees>20.382065065205097198486328125</LongitudeDegrees>
            </Position>
            <AltitudeMeters>466.79998779296875</AltitudeMeters>
            <DistanceMeters>NAN</DistanceMeters>
          </Trackpoint>
          <Trackpoint>
            <Time>2022-09-21T09:25:44.000Z</Time>
            <Position>
              <LatitudeDegrees>49.39592532813549041748046875</LatitudeDegrees>
              <LongitudeDegrees>20.38206263445317745208740234375</LongitudeDegrees>
            </Position>
            <AltitudeMeters>466.600006103515625</AltitudeMeters>
            <DistanceMeters>NAN</DistanceMeters>
          </Trackpoint>
          <Trackpoint>
            <Time>2022-09-21T09:25:45.000Z</Time>
            <Position>
              <LatitudeDegrees>49.39592625014483928680419921875</LatitudeDegrees>
              <LongitudeDegrees>20.3820595331490039825439453125</LongitudeDegrees>
            </Position>
            <AltitudeMeters>466.600006103515625</AltitudeMeters>
            <DistanceMeters>NAN</DistanceMeters>
          </Trackpoint>
          <Trackpoint>
            <Time>2022-09-21T09:25:48.000Z</Time>
            <Position>
              <LatitudeDegrees>49.39592641778290271759033203125</LatitudeDegrees>
              <LongitudeDegrees>20.382059030234813690185546875</LongitudeDegrees>
            </Position>
            <AltitudeMeters>466.600006103515625</AltitudeMeters>
            <DistanceMeters>NAN</DistanceMeters>
          </Trackpoint>
          <Trackpoint>
            <Time>2022-09-21T09:26:22.000Z</Time>
            <Position>
              <LatitudeDegrees>49.3959265016019344329833984375</LatitudeDegrees>
              <LongitudeDegrees>20.38205442018806934356689453125</LongitudeDegrees>
            </Position>
            <AltitudeMeters>466.79998779296875</AltitudeMeters>
            <DistanceMeters>NAN</DistanceMeters>
          </Trackpoint>
          <Trackpoint>
            <Time>2022-09-21T09:26:49.000Z</Time>
            <Position>
              <LatitudeDegrees>49.3959265016019344329833984375</LatitudeDegrees>
              <LongitudeDegrees>20.38205442018806934356689453125</LongitudeDegrees>
            </Position>
            <AltitudeMeters>466.79998779296875</AltitudeMeters>
            <DistanceMeters>NAN</DistanceMeters>
          </Trackpoint>
          <Trackpoint>
            <Time>2022-09-21T09:26:50.000Z</Time>
            <Position>
              <LatitudeDegrees>49.3959248252213001251220703125</LatitudeDegrees>
              <LongitudeDegrees>20.3820571862161159515380859375</LongitudeDegrees>
            </Position>
            <AltitudeMeters>466.79998779296875</AltitudeMeters>
            <DistanceMeters>NAN</DistanceMeters>
          </Trackpoint>
          <Trackpoint>
            <Time>2022-09-21T09:26:52.000Z</Time>
            <Position>
              <LatitudeDegrees>49.39588886685669422149658203125</LatitudeDegrees>
              <LongitudeDegrees>20.3820746205747127532958984375</LongitudeDegrees>
            </Position>
            <AltitudeMeters>466.79998779296875</AltitudeMeters>
            <DistanceMeters>NAN</DistanceMeters>
          </Trackpoint>
          <Trackpoint>
            <Time>2022-09-21T09:26:58.000Z</Time>
            <Position>
              <LatitudeDegrees>49.3957152776420116424560546875</LatitudeDegrees>
              <LongitudeDegrees>20.38211091421544551849365234375</LongitudeDegrees>
            </Position>
            <AltitudeMeters>466.79998779296875</AltitudeMeters>
            <DistanceMeters>NAN</DistanceMeters>
          </Trackpoint>
          <Trackpoint>
            <Time>2022-09-21T09:27:04.000Z</Time>
            <Position>
              <LatitudeDegrees>49.39547379501163959503173828125</LatitudeDegrees>
              <LongitudeDegrees>20.3821413405239582061767578125</LongitudeDegrees>
            </Position>
            <AltitudeMeters>466.600006103515625</AltitudeMeters>
            <DistanceMeters>NAN</DistanceMeters>
          </Trackpoint>
          <Trackpoint>
            <Time>2022-09-21T09:27:12.000Z</Time>
            <Position>
              <LatitudeDegrees>49.3951857089996337890625</LatitudeDegrees>
              <LongitudeDegrees>20.38216506130993366241455078125</LongitudeDegrees>
            </Position>
            <AltitudeMeters>466.399993896484375</AltitudeMeters>
            <DistanceMeters>NAN</DistanceMeters>
          </Trackpoint>
          <Trackpoint>
            <Time>2022-09-21T09:27:18.000Z</Time>
            <Position>
              <LatitudeDegrees>49.3949883989989757537841796875</LatitudeDegrees>
              <LongitudeDegrees>20.38223127834498882293701171875</LongitudeDegrees>
            </Position>
            <AltitudeMeters>466.20001220703125</AltitudeMeters>
            <DistanceMeters>NAN</DistanceMeters>
          </Trackpoint>
          <Trackpoint>
            <Time>2022-09-21T09:27:25.000Z</Time>
            <Position>
              <LatitudeDegrees>49.39477206207811832427978515625</LatitudeDegrees>
              <LongitudeDegrees>20.38240930996835231781005859375</LongitudeDegrees>
            </Position>
            <AltitudeMeters>466</AltitudeMeters>
            <DistanceMeters>NAN</DistanceMeters>
          </Trackpoint>
          <Trackpoint>
            <Time>2022-09-21T09:27:26.000Z</Time>
            <Position>
              <LatitudeDegrees>49.39474289305508136749267578125</LatitudeDegrees>
              <LongitudeDegrees>20.38243831135332584381103515625</LongitudeDegrees>
            </Position>
            <AltitudeMeters>466</AltitudeMeters>
            <DistanceMeters>NAN</DistanceMeters>
          </Trackpoint>
          <Trackpoint>
            <Time>2022-09-21T09:27:30.000Z</Time>
            <Position>
              <LatitudeDegrees>49.3946138955652713775634765625</LatitudeDegrees>
              <LongitudeDegrees>20.3825175203382968902587890625</LongitudeDegrees>
            </Position>
            <AltitudeMeters>465.79998779296875</AltitudeMeters>
            <DistanceMeters>NAN</DistanceMeters>
          </Trackpoint>
          <Trackpoint>
            <Time>2022-09-21T09:27:31.000Z</Time>
            <Position>
              <LatitudeDegrees>49.394575841724872589111328125</LatitudeDegrees>
              <LongitudeDegrees>20.38252632133662700653076171875</LongitudeDegrees>
            </Position>
            <AltitudeMeters>465.79998779296875</AltitudeMeters>
            <DistanceMeters>NAN</DistanceMeters>
          </Trackpoint>
          <Trackpoint>
            <Time>2022-09-21T09:27:37.000Z</Time>
            <Position>
              <LatitudeDegrees>49.394328407943248748779296875</LatitudeDegrees>
              <LongitudeDegrees>20.382532440125942230224609375</LongitudeDegrees>
            </Position>
            <AltitudeMeters>465.79998779296875</AltitudeMeters>
            <DistanceMeters>NAN</DistanceMeters>
          </Trackpoint>
          <Trackpoint>
            <Time>2022-09-21T09:27:44.000Z</Time>
            <Position>
              <LatitudeDegrees>49.39402691088616847991943359375</LatitudeDegrees>
              <LongitudeDegrees>20.3825413249433040618896484375</LongitudeDegrees>
            </Position>
            <AltitudeMeters>465.600006103515625</AltitudeMeters>
            <DistanceMeters>NAN</DistanceMeters>
          </Trackpoint>
          <Trackpoint>
            <Time>2022-09-21T09:27:46.000Z</Time>
            <Position>
              <LatitudeDegrees>49.393923394381999969482421875</LatitudeDegrees>
              <LongitudeDegrees>20.38256973959505558013916015625</LongitudeDegrees>
            </Position>
            <AltitudeMeters>465.600006103515625</AltitudeMeters>
            <DistanceMeters>NAN</DistanceMeters>
          </Trackpoint>
          <Trackpoint>
            <Time>2022-09-21T09:27:48.000Z</Time>
            <Position>
              <LatitudeDegrees>49.39382876269519329071044921875</LatitudeDegrees>
              <LongitudeDegrees>20.38258331827819347381591796875</LongitudeDegrees>
            </Position>
            <AltitudeMeters>465.79998779296875</AltitudeMeters>
            <DistanceMeters>NAN</DistanceMeters>
          </Trackpoint>
          <Trackpoint>
            <Time>2022-09-21T09:27:52.000Z</Time>
            <Position>
              <LatitudeDegrees>49.39365525729954242706298828125</LatitudeDegrees>
              <LongitudeDegrees>20.38262891583144664764404296875</LongitudeDegrees>
            </Position>
            <AltitudeMeters>465.600006103515625</AltitudeMeters>
            <DistanceMeters>NAN</DistanceMeters>
          </Trackpoint>
          <Trackpoint>
            <Time>2022-09-21T09:28:01.000Z</Time>
            <Position>
              <LatitudeDegrees>49.39326449297368526458740234375</LatitudeDegrees>
              <LongitudeDegrees>20.38272715173661708831787109375</LongitudeDegrees>
            </Position>
            <AltitudeMeters>465.399993896484375</AltitudeMeters>
            <DistanceMeters>NAN</DistanceMeters>
          </Trackpoint>
          <Trackpoint>
            <Time>2022-09-21T09:28:09.000Z</Time>
            <Position>
              <LatitudeDegrees>49.39294044859707355499267578125</LatitudeDegrees>
              <LongitudeDegrees>20.38279152475297451019287109375</LongitudeDegrees>
            </Position>
            <AltitudeMeters>465.399993896484375</AltitudeMeters>
            <DistanceMeters>NAN</DistanceMeters>
          </Trackpoint>
          <Trackpoint>
            <Time>2022-09-21T09:28:10.000Z</Time>
            <Position>
              <LatitudeDegrees>49.3928959406912326812744140625</LatitudeDegrees>
              <LongitudeDegrees>20.38280191831290721893310546875</LongitudeDegrees>
            </Position>
            <AltitudeMeters>465.399993896484375</AltitudeMeters>
            <DistanceMeters>NAN</DistanceMeters>
          </Trackpoint>
          <Trackpoint>
            <Time>2022-09-21T09:28:15.000Z</Time>
            <Position>
              <LatitudeDegrees>49.3926632590591907501220703125</LatitudeDegrees>
              <LongitudeDegrees>20.38285740651190280914306640625</LongitudeDegrees>
            </Position>
            <AltitudeMeters>464.79998779296875</AltitudeMeters>
            <DistanceMeters>NAN</DistanceMeters>
          </Trackpoint>
          <Trackpoint>
            <Time>2022-09-21T09:28:18.000Z</Time>
            <Position>
              <LatitudeDegrees>49.392527639865875244140625</LatitudeDegrees>
              <LongitudeDegrees>20.38288347423076629638671875</LongitudeDegrees>
            </Position>
            <AltitudeMeters>464.79998779296875</AltitudeMeters>
            <DistanceMeters>NAN</DistanceMeters>
          </Trackpoint>
          <Trackpoint>
            <Time>2022-09-21T09:28:26.000Z</Time>
            <Position>
              <LatitudeDegrees>49.39219982363283634185791015625</LatitudeDegrees>
              <LongitudeDegrees>20.3829436562955379486083984375</LongitudeDegrees>
            </Position>
            <AltitudeMeters>464.79998779296875</AltitudeMeters>
            <DistanceMeters>NAN</DistanceMeters>
          </Trackpoint>
          <Trackpoint>
            <Time>2022-09-21T09:28:27.000Z</Time>
            <Position>
              <LatitudeDegrees>49.3921600095927715301513671875</LatitudeDegrees>
              <LongitudeDegrees>20.3829538822174072265625</LongitudeDegrees>
            </Position>
            <AltitudeMeters>464.79998779296875</AltitudeMeters>
            <DistanceMeters>NAN</DistanceMeters>
          </Trackpoint>
          <Trackpoint>
            <Time>2022-09-21T09:28:29.000Z</Time>
            <Position>
              <LatitudeDegrees>49.39208063296973705291748046875</LatitudeDegrees>
              <LongitudeDegrees>20.38299168460071086883544921875</LongitudeDegrees>
            </Position>
            <AltitudeMeters>464.79998779296875</AltitudeMeters>
            <DistanceMeters>NAN</DistanceMeters>
          </Trackpoint>
          <Trackpoint>
            <Time>2022-09-21T09:28:30.000Z</Time>
            <Position>
              <LatitudeDegrees>49.3920416571199893951416015625</LatitudeDegrees>
              <LongitudeDegrees>20.3830154053866863250732421875</LongitudeDegrees>
            </Position>
            <AltitudeMeters>464.600006103515625</AltitudeMeters>
            <DistanceMeters>NAN</DistanceMeters>
          </Trackpoint>
          <Trackpoint>
            <Time>2022-09-21T09:28:32.000Z</Time>
            <Position>
              <LatitudeDegrees>49.391976781189441680908203125</LatitudeDegrees>
              <LongitudeDegrees>20.38309193216264247894287109375</LongitudeDegrees>
            </Position>
            <AltitudeMeters>464.600006103515625</AltitudeMeters>
            <DistanceMeters>NAN</DistanceMeters>
          </Trackpoint>
          <Trackpoint>
            <Time>2022-09-21T09:28:34.000Z</Time>
            <Position>
              <LatitudeDegrees>49.39193126745522022247314453125</LatitudeDegrees>
              <LongitudeDegrees>20.383203327655792236328125</LongitudeDegrees>
            </Position>
            <AltitudeMeters>464.600006103515625</AltitudeMeters>
            <DistanceMeters>NAN</DistanceMeters>
          </Trackpoint>
          <Trackpoint>
            <Time>2022-09-21T09:28:36.000Z</Time>
            <Position>
              <LatitudeDegrees>49.3919035233557224273681640625</LatitudeDegrees>
              <LongitudeDegrees>20.38333676755428314208984375</LongitudeDegrees>
            </Position>
            <AltitudeMeters>464.399993896484375</AltitudeMeters>
            <DistanceMeters>NAN</DistanceMeters>
          </Trackpoint>
          <Trackpoint>
            <Time>2022-09-21T09:28:38.000Z</Time>
            <Position>
              <LatitudeDegrees>49.3918951414525508880615234375</LatitudeDegrees>
              <LongitudeDegrees>20.38348655216395854949951171875</LongitudeDegrees>
            </Position>
            <AltitudeMeters>464.399993896484375</AltitudeMeters>
            <DistanceMeters>NAN</DistanceMeters>
          </Trackpoint>
          <Trackpoint>
            <Time>2022-09-21T09:28:39.000Z</Time>
            <Position>
              <LatitudeDegrees>49.39189589582383632659912109375</LatitudeDegrees>
              <LongitudeDegrees>20.383565425872802734375</LongitudeDegrees>
            </Position>
            <AltitudeMeters>464.399993896484375</AltitudeMeters>
            <DistanceMeters>NAN</DistanceMeters>
          </Trackpoint>
          <Trackpoint>
            <Time>2022-09-21T09:28:41.000Z</Time>
            <Position>
              <LatitudeDegrees>49.3919072113931179046630859375</LatitudeDegrees>
              <LongitudeDegrees>20.38372526876628398895263671875</LongitudeDegrees>
            </Position>
            <AltitudeMeters>464.20001220703125</AltitudeMeters>
            <DistanceMeters>NAN</DistanceMeters>
          </Trackpoint>
          <Trackpoint>
            <Time>2022-09-21T09:28:45.000Z</Time>
            <Position>
              <LatitudeDegrees>49.39197041094303131103515625</LatitudeDegrees>
              <LongitudeDegrees>20.38406523875892162322998046875</LongitudeDegrees>
            </Position>
            <AltitudeMeters>464.20001220703125</AltitudeMeters>
            <DistanceMeters>NAN</DistanceMeters>
          </Trackpoint>
          <Trackpoint>
            <Time>2022-09-21T09:28:46.000Z</Time>
            <Position>
              <LatitudeDegrees>49.3919866718351840972900390625</LatitudeDegrees>
              <LongitudeDegrees>20.38415425457060337066650390625</LongitudeDegrees>
            </Position>
            <AltitudeMeters>464.20001220703125</AltitudeMeters>
            <DistanceMeters>NAN</DistanceMeters>
          </Trackpoint>
          <Trackpoint>
            <Time>2022-09-21T09:28:51.000Z</Time>
            <Position>
              <LatitudeDegrees>49.392062611877918243408203125</LatitudeDegrees>
              <LongitudeDegrees>20.38456781767308712005615234375</LongitudeDegrees>
            </Position>
            <AltitudeMeters>464.20001220703125</AltitudeMeters>
            <DistanceMeters>NAN</DistanceMeters>
          </Trackpoint>
          <Trackpoint>
            <Time>2022-09-21T09:28:52.000Z</Time>
            <Position>
              <LatitudeDegrees>49.39206588082015514373779296875</LatitudeDegrees>
              <LongitudeDegrees>20.384645350277423858642578125</LongitudeDegrees>
            </Position>
            <AltitudeMeters>464.20001220703125</AltitudeMeters>
            <DistanceMeters>NAN</DistanceMeters>
          </Trackpoint>
          <Trackpoint>
            <Time>2022-09-21T09:28:53.000Z</Time>
            <Position>
              <LatitudeDegrees>49.39206051640212535858154296875</LatitudeDegrees>
              <LongitudeDegrees>20.38471735082566738128662109375</LongitudeDegrees>
            </Position>
            <AltitudeMeters>464.20001220703125</AltitudeMeters>
            <DistanceMeters>NAN</DistanceMeters>
          </Trackpoint>
          <Trackpoint>
            <Time>2022-09-21T09:28:57.000Z</Time>
            <Position>
              <LatitudeDegrees>49.39203000627458095550537109375</LatitudeDegrees>
              <LongitudeDegrees>20.38498791866004467010498046875</LongitudeDegrees>
            </Position>
            <AltitudeMeters>464.20001220703125</AltitudeMeters>
            <DistanceMeters>NAN</DistanceMeters>
          </Trackpoint>
          <Trackpoint>
            <Time>2022-09-21T09:29:06.000Z</Time>
            <Position>
              <LatitudeDegrees>49.392002932727336883544921875</LatitudeDegrees>
              <LongitudeDegrees>20.3856074251234531402587890625</LongitudeDegrees>
            </Position>
            <AltitudeMeters>464.399993896484375</AltitudeMeters>
            <DistanceMeters>NAN</DistanceMeters>
          </Trackpoint>
          <Trackpoint>
            <Time>2022-09-21T09:29:11.000Z</Time>
            <Position>
              <LatitudeDegrees>49.3920041061937808990478515625</LatitudeDegrees>
              <LongitudeDegrees>20.385960638523101806640625</LongitudeDegrees>
            </Position>
            <AltitudeMeters>464.20001220703125</AltitudeMeters>
            <DistanceMeters>NAN</DistanceMeters>
          </Trackpoint>
          <Trackpoint>
            <Time>2022-09-21T09:29:15.000Z</Time>
            <Position>
              <LatitudeDegrees>49.3920007534325122833251953125</LatitudeDegrees>
              <LongitudeDegrees>20.38624419830739498138427734375</LongitudeDegrees>
            </Position>
            <AltitudeMeters>464.20001220703125</AltitudeMeters>
            <DistanceMeters>NAN</DistanceMeters>
          </Trackpoint>
          <Trackpoint>
            <Time>2022-09-21T09:29:19.000Z</Time>
            <Position>
              <LatitudeDegrees>49.39199312590062618255615234375</LatitudeDegrees>
              <LongitudeDegrees>20.38653194904327392578125</LongitudeDegrees>
            </Position>
            <AltitudeMeters>463.79998779296875</AltitudeMeters>
            <DistanceMeters>NAN</DistanceMeters>
          </Trackpoint>
          <Trackpoint>
            <Time>2022-09-21T09:29:23.000Z</Time>
            <Position>
              <LatitudeDegrees>49.3919571675360202789306640625</LatitudeDegrees>
              <LongitudeDegrees>20.38681148551404476165771484375</LongitudeDegrees>
            </Position>
            <AltitudeMeters>463.79998779296875</AltitudeMeters>
            <DistanceMeters>NAN</DistanceMeters>
          </Trackpoint>
          <Trackpoint>
            <Time>2022-09-21T09:29:25.000Z</Time>
            <Position>
              <LatitudeDegrees>49.3919296748936176300048828125</LatitudeDegrees>
              <LongitudeDegrees>20.38693604059517383575439453125</LongitudeDegrees>
            </Position>
            <AltitudeMeters>463.600006103515625</AltitudeMeters>
            <DistanceMeters>NAN</DistanceMeters>
          </Trackpoint>
          <Trackpoint>
            <Time>2022-09-21T09:29:27.000Z</Time>
            <Position>
              <LatitudeDegrees>49.39187510870397090911865234375</LatitudeDegrees>
              <LongitudeDegrees>20.38703360594809055328369140625</LongitudeDegrees>
            </Position>
            <AltitudeMeters>463.600006103515625</AltitudeMeters>
            <DistanceMeters>NAN</DistanceMeters>
          </Trackpoint>
          <Trackpoint>
            <Time>2022-09-21T09:29:29.000Z</Time>
            <Position>
              <LatitudeDegrees>49.39181350171566009521484375</LatitudeDegrees>
              <LongitudeDegrees>20.3871138207614421844482421875</LongitudeDegrees>
            </Position>
            <AltitudeMeters>463.600006103515625</AltitudeMeters>
            <DistanceMeters>NAN</DistanceMeters>
          </Trackpoint>
          <Trackpoint>
            <Time>2022-09-21T09:29:32.000Z</Time>
            <Position>
              <LatitudeDegrees>49.39174602739512920379638671875</LatitudeDegrees>
              <LongitudeDegrees>20.387257821857929229736328125</LongitudeDegrees>
            </Position>
            <AltitudeMeters>463.600006103515625</AltitudeMeters>
            <DistanceMeters>NAN</DistanceMeters>
          </Trackpoint>
          <Trackpoint>
            <Time>2022-09-21T09:29:38.000Z</Time>
            <Position>
              <LatitudeDegrees>49.39166505821049213409423828125</LatitudeDegrees>
              <LongitudeDegrees>20.38756920956075191497802734375</LongitudeDegrees>
            </Position>
            <AltitudeMeters>464</AltitudeMeters>
            <DistanceMeters>NAN</DistanceMeters>
          </Trackpoint>
          <Trackpoint>
            <Time>2022-09-21T09:29:46.000Z</Time>
            <Position>
              <LatitudeDegrees>49.39158827997744083404541015625</LatitudeDegrees>
              <LongitudeDegrees>20.3879865445196628570556640625</LongitudeDegrees>
            </Position>
            <AltitudeMeters>464</AltitudeMeters>
            <DistanceMeters>NAN</DistanceMeters>
          </Trackpoint>
          <Trackpoint>
            <Time>2022-09-21T09:29:52.000Z</Time>
            <Position>
              <LatitudeDegrees>49.3915796466171741485595703125</LatitudeDegrees>
              <LongitudeDegrees>20.38834386505186557769775390625</LongitudeDegrees>
            </Position>
            <AltitudeMeters>463.79998779296875</AltitudeMeters>
            <DistanceMeters>NAN</DistanceMeters>
          </Trackpoint>
          <Trackpoint>
            <Time>2022-09-21T09:29:55.000Z</Time>
            <Position>
              <LatitudeDegrees>49.3915813229978084564208984375</LatitudeDegrees>
              <LongitudeDegrees>20.38851619698107242584228515625</LongitudeDegrees>
            </Position>
            <AltitudeMeters>463.79998779296875</AltitudeMeters>
            <DistanceMeters>NAN</DistanceMeters>
          </Trackpoint>
          <Trackpoint>
            <Time>2022-09-21T09:30:02.000Z</Time>
            <Position>
              <LatitudeDegrees>49.39155810512602329254150390625</LatitudeDegrees>
              <LongitudeDegrees>20.38897686637938022613525390625</LongitudeDegrees>
            </Position>
            <AltitudeMeters>463.79998779296875</AltitudeMeters>
            <DistanceMeters>NAN</DistanceMeters>
          </Trackpoint>
          <Trackpoint>
            <Time>2022-09-21T09:30:03.000Z</Time>
            <Position>
              <LatitudeDegrees>49.3915545009076595306396484375</LatitudeDegrees>
              <LongitudeDegrees>20.38904928602278232574462890625</LongitudeDegrees>
            </Position>
            <AltitudeMeters>463.79998779296875</AltitudeMeters>
            <DistanceMeters>NAN</DistanceMeters>
          </Trackpoint>
          <Trackpoint>
            <Time>2022-09-21T09:30:07.000Z</Time>
            <Position>
              <LatitudeDegrees>49.39154662191867828369140625</LatitudeDegrees>
              <LongitudeDegrees>20.38933142088353633880615234375</LongitudeDegrees>
            </Position>
            <AltitudeMeters>463.399993896484375</AltitudeMeters>
            <DistanceMeters>NAN</DistanceMeters>
          </Trackpoint>
          <Trackpoint>
            <Time>2022-09-21T09:30:16.000Z</Time>
            <Position>
              <LatitudeDegrees>49.391563721001148223876953125</LatitudeDegrees>
              <LongitudeDegrees>20.38990281522274017333984375</LongitudeDegrees>
            </Position>
            <AltitudeMeters>463.399993896484375</AltitudeMeters>
            <DistanceMeters>NAN</DistanceMeters>
          </Trackpoint>
          <Trackpoint>
            <Time>2022-09-21T09:30:22.000Z</Time>
            <Position>
              <LatitudeDegrees>49.3915726058185100555419921875</LatitudeDegrees>
              <LongitudeDegrees>20.390304811298847198486328125</LongitudeDegrees>
            </Position>
            <AltitudeMeters>463</AltitudeMeters>
            <DistanceMeters>NAN</DistanceMeters>
          </Trackpoint>
          <Trackpoint>
            <Time>2022-09-21T09:30:23.000Z</Time>
            <Position>
              <LatitudeDegrees>49.3915826641023159027099609375</LatitudeDegrees>
              <LongitudeDegrees>20.39037379436194896697998046875</LongitudeDegrees>
            </Position>
            <AltitudeMeters>463</AltitudeMeters>
            <DistanceMeters>NAN</DistanceMeters>
          </Trackpoint>
          <Trackpoint>
            <Time>2022-09-21T09:30:27.000Z</Time>
            <Position>
              <LatitudeDegrees>49.39164577983319759368896484375</LatitudeDegrees>
              <LongitudeDegrees>20.39063866250216960906982421875</LongitudeDegrees>
            </Position>
            <AltitudeMeters>462.79998779296875</AltitudeMeters>
            <DistanceMeters>NAN</DistanceMeters>
          </Trackpoint>
          <Trackpoint>
            <Time>2022-09-21T09:30:28.000Z</Time>
            <Position>
              <LatitudeDegrees>49.39166220836341381072998046875</LatitudeDegrees>
              <LongitudeDegrees>20.39070236496627330780029296875</LongitudeDegrees>
            </Position>
            <AltitudeMeters>462.79998779296875</AltitudeMeters>
            <DistanceMeters>NAN</DistanceMeters>
          </Trackpoint>
          <Trackpoint>
            <Time>2022-09-21T09:30:29.000Z</Time>
            <Position>
              <LatitudeDegrees>49.39168299548327922821044921875</LatitudeDegrees>
              <LongitudeDegrees>20.390770845115184783935546875</LongitudeDegrees>
            </Position>
            <AltitudeMeters>462.600006103515625</AltitudeMeters>
            <DistanceMeters>NAN</DistanceMeters>
          </Trackpoint>
          <Trackpoint>
            <Time>2022-09-21T09:30:31.000Z</Time>
            <Position>
              <LatitudeDegrees>49.391727335751056671142578125</LatitudeDegrees>
              <LongitudeDegrees>20.390906967222690582275390625</LongitudeDegrees>
            </Position>
            <AltitudeMeters>462.600006103515625</AltitudeMeters>
            <DistanceMeters>NAN</DistanceMeters>
          </Trackpoint>
          <Trackpoint>
            <Time>2022-09-21T09:30:35.000Z</Time>
            <Position>
              <LatitudeDegrees>49.3917918764054775238037109375</LatitudeDegrees>
              <LongitudeDegrees>20.39118432439863681793212890625</LongitudeDegrees>
            </Position>
            <AltitudeMeters>462.600006103515625</AltitudeMeters>
            <DistanceMeters>NAN</DistanceMeters>
          </Trackpoint>
          <Trackpoint>
            <Time>2022-09-21T09:30:37.000Z</Time>
            <Position>
              <LatitudeDegrees>49.39181224443018436431884765625</LatitudeDegrees>
              <LongitudeDegrees>20.3913255594670772552490234375</LongitudeDegrees>
            </Position>
            <AltitudeMeters>462.600006103515625</AltitudeMeters>
            <DistanceMeters>NAN</DistanceMeters>
          </Trackpoint>
          <Trackpoint>
            <Time>2022-09-21T09:30:40.000Z</Time>
            <Position>
              <LatitudeDegrees>49.391825236380100250244140625</LatitudeDegrees>
              <LongitudeDegrees>20.39154189638793468475341796875</LongitudeDegrees>
            </Position>
            <AltitudeMeters>462.399993896484375</AltitudeMeters>
            <DistanceMeters>NAN</DistanceMeters>
          </Trackpoint>
          <Trackpoint>
            <Time>2022-09-21T09:30:44.000Z</Time>
            <Position>
              <LatitudeDegrees>49.3918173573911190032958984375</LatitudeDegrees>
              <LongitudeDegrees>20.39182302542030811309814453125</LongitudeDegrees>
            </Position>
            <AltitudeMeters>462</AltitudeMeters>
            <DistanceMeters>NAN</DistanceMeters>
          </Trackpoint>
          <Trackpoint>
            <Time>2022-09-21T09:30:52.000Z</Time>
            <Position>
              <LatitudeDegrees>49.39182833768427371978759765625</LatitudeDegrees>
              <LongitudeDegrees>20.39232845418155193328857421875</LongitudeDegrees>
            </Position>
            <AltitudeMeters>461.79998779296875</AltitudeMeters>
            <DistanceMeters>NAN</DistanceMeters>
          </Trackpoint>
          <Trackpoint>
            <Time>2022-09-21T09:30:54.000Z</Time>
            <Position>
              <LatitudeDegrees>49.3918364681303501129150390625</LatitudeDegrees>
              <LongitudeDegrees>20.39239190518856048583984375</LongitudeDegrees>
            </Position>
            <AltitudeMeters>462</AltitudeMeters>
            <DistanceMeters>NAN</DistanceMeters>
          </Trackpoint>
          <Trackpoint>
            <Time>2022-09-21T09:30:55.000Z</Time>
            <Position>
              <LatitudeDegrees>49.3918495438992977142333984375</LatitudeDegrees>
              <LongitudeDegrees>20.3924202360212802886962890625</LongitudeDegrees>
            </Position>
            <AltitudeMeters>462</AltitudeMeters>
            <DistanceMeters>NAN</DistanceMeters>
          </Trackpoint>
          <Trackpoint>
            <Time>2022-09-21T09:30:57.000Z</Time>
            <Position>
              <LatitudeDegrees>49.3918622843921184539794921875</LatitudeDegrees>
              <LongitudeDegrees>20.39248905144631862640380859375</LongitudeDegrees>
            </Position>
            <AltitudeMeters>462</AltitudeMeters>
            <DistanceMeters>NAN</DistanceMeters>
          </Trackpoint>
          <Trackpoint>
            <Time>2022-09-21T09:31:00.000Z</Time>
            <Position>
              <LatitudeDegrees>49.3918646313250064849853515625</LatitudeDegrees>
              <LongitudeDegrees>20.3926004469394683837890625</LongitudeDegrees>
            </Position>
            <AltitudeMeters>462</AltitudeMeters>
            <DistanceMeters>NAN</DistanceMeters>
          </Trackpoint>
          <Trackpoint>
            <Time>2022-09-21T09:31:05.000Z</Time>
            <Position>
              <LatitudeDegrees>49.39188617281615734100341796875</LatitudeDegrees>
              <LongitudeDegrees>20.3928108327090740203857421875</LongitudeDegrees>
            </Position>
            <AltitudeMeters>461.600006103515625</AltitudeMeters>
            <DistanceMeters>NAN</DistanceMeters>
          </Trackpoint>
          <Trackpoint>
            <Time>2022-09-21T09:31:07.000Z</Time>
            <Position>
              <LatitudeDegrees>49.391903020441532135009765625</LatitudeDegrees>
              <LongitudeDegrees>20.3929157741367816925048828125</LongitudeDegrees>
            </Position>
            <AltitudeMeters>461.600006103515625</AltitudeMeters>
            <DistanceMeters>NAN</DistanceMeters>
          </Trackpoint>
          <Trackpoint>
            <Time>2022-09-21T09:31:13.000Z</Time>
            <Position>
              <LatitudeDegrees>49.39194065518677234649658203125</LatitudeDegrees>
              <LongitudeDegrees>20.39316882379353046417236328125</LongitudeDegrees>
            </Position>
            <AltitudeMeters>461</AltitudeMeters>
            <DistanceMeters>NAN</DistanceMeters>
          </Trackpoint>
          <Trackpoint>
            <Time>2022-09-21T09:31:18.000Z</Time>
            <Position>
              <LatitudeDegrees>49.39201475121080875396728515625</LatitudeDegrees>
              <LongitudeDegrees>20.39329388178884983062744140625</LongitudeDegrees>
            </Position>
            <AltitudeMeters>461.20001220703125</AltitudeMeters>
            <DistanceMeters>NAN</DistanceMeters>
          </Trackpoint>
          <Trackpoint>
            <Time>2022-09-21T09:31:26.000Z</Time>
            <Position>
              <LatitudeDegrees>49.392139054834842681884765625</LatitudeDegrees>
              <LongitudeDegrees>20.39351063780486583709716796875</LongitudeDegrees>
            </Position>
            <AltitudeMeters>460.79998779296875</AltitudeMeters>
            <DistanceMeters>NAN</DistanceMeters>
          </Trackpoint>
          <Trackpoint>
            <Time>2022-09-21T09:31:32.000Z</Time>
            <Position>
              <LatitudeDegrees>49.392281882464885711669921875</LatitudeDegrees>
              <LongitudeDegrees>20.39369319565594196319580078125</LongitudeDegrees>
            </Position>
            <AltitudeMeters>461.20001220703125</AltitudeMeters>
            <DistanceMeters>NAN</DistanceMeters>
          </Trackpoint>
          <Trackpoint>
            <Time>2022-09-21T09:31:35.000Z</Time>
            <Position>
              <LatitudeDegrees>49.39236008562147617340087890625</LatitudeDegrees>
              <LongitudeDegrees>20.39381305687129497528076171875</LongitudeDegrees>
            </Position>
            <AltitudeMeters>461</AltitudeMeters>
            <DistanceMeters>NAN</DistanceMeters>
          </Trackpoint>
          <Trackpoint>
            <Time>2022-09-21T09:31:36.000Z</Time>
            <Position>
              <LatitudeDegrees>49.3923856504261493682861328125</LatitudeDegrees>
              <LongitudeDegrees>20.3938448242843151092529296875</LongitudeDegrees>
            </Position>
            <AltitudeMeters>461</AltitudeMeters>
            <DistanceMeters>NAN</DistanceMeters>
          </Trackpoint>
          <Trackpoint>
            <Time>2022-09-21T09:31:38.000Z</Time>
            <Position>
              <LatitudeDegrees>49.39241875894367694854736328125</LatitudeDegrees>
              <LongitudeDegrees>20.3939051739871501922607421875</LongitudeDegrees>
            </Position>
            <AltitudeMeters>461</AltitudeMeters>
            <DistanceMeters>NAN</DistanceMeters>
          </Trackpoint>
          <Trackpoint>
            <Time>2022-09-21T09:31:42.000Z</Time>
            <Position>
              <LatitudeDegrees>49.39250509254634380340576171875</LatitudeDegrees>
              <LongitudeDegrees>20.39399410597980022430419921875</LongitudeDegrees>
            </Position>
            <AltitudeMeters>461</AltitudeMeters>
            <DistanceMeters>NAN</DistanceMeters>
          </Trackpoint>
          <Trackpoint>
            <Time>2022-09-21T09:31:43.000Z</Time>
            <Position>
              <LatitudeDegrees>49.3925288133323192596435546875</LatitudeDegrees>
              <LongitudeDegrees>20.3940164856612682342529296875</LongitudeDegrees>
            </Position>
            <AltitudeMeters>461</AltitudeMeters>
            <DistanceMeters>NAN</DistanceMeters>
          </Trackpoint>
          <Trackpoint>
            <Time>2022-09-21T09:31:51.000Z</Time>
            <Position>
              <LatitudeDegrees>49.3926994688808917999267578125</LatitudeDegrees>
              <LongitudeDegrees>20.39428596384823322296142578125</LongitudeDegrees>
            </Position>
            <AltitudeMeters>461</AltitudeMeters>
            <DistanceMeters>NAN</DistanceMeters>
          </Trackpoint>
          <Trackpoint>
            <Time>2022-09-21T09:31:58.000Z</Time>
            <Position>
              <LatitudeDegrees>49.39280457794666290283203125</LatitudeDegrees>
              <LongitudeDegrees>20.39454211480915546417236328125</LongitudeDegrees>
            </Position>
            <AltitudeMeters>461</AltitudeMeters>
            <DistanceMeters>NAN</DistanceMeters>
          </Trackpoint>
          <Trackpoint>
            <Time>2022-09-21T09:31:59.000Z</Time>
            <Position>
              <LatitudeDegrees>49.3928181566298007965087890625</LatitudeDegrees>
              <LongitudeDegrees>20.39458184503018856048583984375</LongitudeDegrees>
            </Position>
            <AltitudeMeters>460.79998779296875</AltitudeMeters>
            <DistanceMeters>NAN</DistanceMeters>
          </Trackpoint>
          <Trackpoint>
            <Time>2022-09-21T09:32:05.000Z</Time>
            <Position>
              <LatitudeDegrees>49.3929190747439861297607421875</LatitudeDegrees>
              <LongitudeDegrees>20.39476222358644008636474609375</LongitudeDegrees>
            </Position>
            <AltitudeMeters>461</AltitudeMeters>
            <DistanceMeters>NAN</DistanceMeters>
          </Trackpoint>
          <Trackpoint>
            <Time>2022-09-21T09:32:06.000Z</Time>
            <Position>
              <LatitudeDegrees>49.39293676055967807769775390625</LatitudeDegrees>
              <LongitudeDegrees>20.39477563463151454925537109375</LongitudeDegrees>
            </Position>
            <AltitudeMeters>461</AltitudeMeters>
            <DistanceMeters>NAN</DistanceMeters>
          </Trackpoint>
          <Trackpoint>
            <Time>2022-09-21T09:32:08.000Z</Time>
            <Position>
              <LatitudeDegrees>49.3929608166217803955078125</LatitudeDegrees>
              <LongitudeDegrees>20.394794158637523651123046875</LongitudeDegrees>
            </Position>
            <AltitudeMeters>461</AltitudeMeters>
            <DistanceMeters>NAN</DistanceMeters>
          </Trackpoint>
          <Trackpoint>
            <Time>2022-09-21T09:32:11.000Z</Time>
            <Position>
              <LatitudeDegrees>49.39296358264982700347900390625</LatitudeDegrees>
              <LongitudeDegrees>20.39479960687458515167236328125</LongitudeDegrees>
            </Position>
            <AltitudeMeters>461.20001220703125</AltitudeMeters>
            <DistanceMeters>NAN</DistanceMeters>
          </Trackpoint>
          <Trackpoint>
            <Time>2022-09-21T09:32:15.000Z</Time>
            <Position>
              <LatitudeDegrees>49.39296358264982700347900390625</LatitudeDegrees>
              <LongitudeDegrees>20.39479960687458515167236328125</LongitudeDegrees>
            </Position>
            <AltitudeMeters>461.20001220703125</AltitudeMeters>
            <DistanceMeters>NAN</DistanceMeters>
          </Trackpoint>
          <Trackpoint>
            <Time>2022-09-21T09:32:19.000Z</Time>
            <Position>
              <LatitudeDegrees>49.3929730542004108428955078125</LatitudeDegrees>
              <LongitudeDegrees>20.39480857551097869873046875</LongitudeDegrees>
            </Position>
            <AltitudeMeters>461.399993896484375</AltitudeMeters>
            <DistanceMeters>NAN</DistanceMeters>
          </Trackpoint>
          <Trackpoint>
            <Time>2022-09-21T09:32:20.000Z</Time>
            <Position>
              <LatitudeDegrees>49.3929807655513286590576171875</LatitudeDegrees>
              <LongitudeDegrees>20.3948120959103107452392578125</LongitudeDegrees>
            </Position>
            <AltitudeMeters>461.399993896484375</AltitudeMeters>
            <DistanceMeters>NAN</DistanceMeters>
          </Trackpoint>
          <Trackpoint>
            <Time>2022-09-21T09:32:27.000Z</Time>
            <Position>
              <LatitudeDegrees>49.3930434621870517730712890625</LatitudeDegrees>
              <LongitudeDegrees>20.39485744200646877288818359375</LongitudeDegrees>
            </Position>
            <AltitudeMeters>462</AltitudeMeters>
            <DistanceMeters>NAN</DistanceMeters>
          </Trackpoint>
          <Trackpoint>
            <Time>2022-09-21T09:32:31.000Z</Time>
            <Position>
              <LatitudeDegrees>49.39307053573429584503173828125</LatitudeDegrees>
              <LongitudeDegrees>20.39487353526055812835693359375</LongitudeDegrees>
            </Position>
            <AltitudeMeters>462.399993896484375</AltitudeMeters>
            <DistanceMeters>NAN</DistanceMeters>
          </Trackpoint>
          <Trackpoint>
            <Time>2022-09-21T09:32:33.000Z</Time>
            <Position>
              <LatitudeDegrees>49.3931044824421405792236328125</LatitudeDegrees>
              <LongitudeDegrees>20.39490924216806888580322265625</LongitudeDegrees>
            </Position>
            <AltitudeMeters>462.399993896484375</AltitudeMeters>
            <DistanceMeters>NAN</DistanceMeters>
          </Trackpoint>
          <Trackpoint>
            <Time>2022-09-21T09:32:37.000Z</Time>
            <Position>
              <LatitudeDegrees>49.39313591457903385162353515625</LatitudeDegrees>
              <LongitudeDegrees>20.394923575222492218017578125</LongitudeDegrees>
            </Position>
            <AltitudeMeters>462.600006103515625</AltitudeMeters>
            <DistanceMeters>NAN</DistanceMeters>
          </Trackpoint>
          <Trackpoint>
            <Time>2022-09-21T09:32:38.000Z</Time>
            <Position>
              <LatitudeDegrees>49.39313717186450958251953125</LatitudeDegrees>
              <LongitudeDegrees>20.394926927983760833740234375</LongitudeDegrees>
            </Position>
            <AltitudeMeters>462.600006103515625</AltitudeMeters>
            <DistanceMeters>NAN</DistanceMeters>
          </Trackpoint>
          <Trackpoint>
            <Time>2022-09-21T09:32:45.000Z</Time>
            <Position>
              <LatitudeDegrees>49.39313717186450958251953125</LatitudeDegrees>
              <LongitudeDegrees>20.394926927983760833740234375</LongitudeDegrees>
            </Position>
            <AltitudeMeters>463</AltitudeMeters>
            <DistanceMeters>NAN</DistanceMeters>
          </Trackpoint>
          <Trackpoint>
            <Time>2022-09-21T09:32:52.000Z</Time>
            <Position>
              <LatitudeDegrees>49.39314865507185459136962890625</LatitudeDegrees>
              <LongitudeDegrees>20.39493757300078868865966796875</LongitudeDegrees>
            </Position>
            <AltitudeMeters>463.20001220703125</AltitudeMeters>
            <DistanceMeters>NAN</DistanceMeters>
          </Trackpoint>
          <Trackpoint>
            <Time>2022-09-21T09:32:58.000Z</Time>
            <Position>
              <LatitudeDegrees>49.393220655620098114013671875</LatitudeDegrees>
              <LongitudeDegrees>20.3949968330562114715576171875</LongitudeDegrees>
            </Position>
            <AltitudeMeters>463.399993896484375</AltitudeMeters>
            <DistanceMeters>NAN</DistanceMeters>
          </Trackpoint>
          <Trackpoint>
            <Time>2022-09-21T09:33:04.000Z</Time>
            <Position>
              <LatitudeDegrees>49.3932437896728515625</LatitudeDegrees>
              <LongitudeDegrees>20.39502759464085102081298828125</LongitudeDegrees>
            </Position>
            <AltitudeMeters>463.600006103515625</AltitudeMeters>
            <DistanceMeters>NAN</DistanceMeters>
          </Trackpoint>
          <Trackpoint>
            <Time>2022-09-21T09:33:06.000Z</Time>
            <Position>
              <LatitudeDegrees>49.39324915409088134765625</LatitudeDegrees>
              <LongitudeDegrees>20.39503698237240314483642578125</LongitudeDegrees>
            </Position>
            <AltitudeMeters>463.79998779296875</AltitudeMeters>
            <DistanceMeters>NAN</DistanceMeters>
          </Trackpoint>
          <Trackpoint>
            <Time>2022-09-21T09:33:07.000Z</Time>
            <Position>
              <LatitudeDegrees>49.39325963146984577178955078125</LatitudeDegrees>
              <LongitudeDegrees>20.39504268206655979156494140625</LongitudeDegrees>
            </Position>
            <AltitudeMeters>463.79998779296875</AltitudeMeters>
            <DistanceMeters>NAN</DistanceMeters>
          </Trackpoint>
          <Trackpoint>
            <Time>2022-09-21T09:33:16.000Z</Time>
            <Position>
              <LatitudeDegrees>49.39327253960072994232177734375</LatitudeDegrees>
              <LongitudeDegrees>20.39505341090261936187744140625</LongitudeDegrees>
            </Position>
            <AltitudeMeters>464.600006103515625</AltitudeMeters>
            <DistanceMeters>NAN</DistanceMeters>
          </Trackpoint>
          <Trackpoint>
            <Time>2022-09-21T09:33:22.000Z</Time>
            <Position>
              <LatitudeDegrees>49.39327253960072994232177734375</LatitudeDegrees>
              <LongitudeDegrees>20.39505341090261936187744140625</LongitudeDegrees>
            </Position>
            <AltitudeMeters>464.79998779296875</AltitudeMeters>
            <DistanceMeters>NAN</DistanceMeters>
          </Trackpoint>
          <Trackpoint>
            <Time>2022-09-21T09:33:23.000Z</Time>
            <Position>
              <LatitudeDegrees>49.39327253960072994232177734375</LatitudeDegrees>
              <LongitudeDegrees>20.39505341090261936187744140625</LongitudeDegrees>
            </Position>
            <AltitudeMeters>464.79998779296875</AltitudeMeters>
            <DistanceMeters>NAN</DistanceMeters>
          </Trackpoint>
          <Trackpoint>
            <Time>2022-09-21T09:33:27.000Z</Time>
            <Position>
              <LatitudeDegrees>49.39327538944780826568603515625</LatitudeDegrees>
              <LongitudeDegrees>20.39505257271230220794677734375</LongitudeDegrees>
            </Position>
            <AltitudeMeters>465.20001220703125</AltitudeMeters>
            <DistanceMeters>NAN</DistanceMeters>
          </Trackpoint>
          <Trackpoint>
            <Time>2022-09-21T09:33:28.000Z</Time>
            <Position>
              <LatitudeDegrees>49.39328670501708984375</LatitudeDegrees>
              <LongitudeDegrees>20.39504586718976497650146484375</LongitudeDegrees>
            </Position>
            <AltitudeMeters>465.399993896484375</AltitudeMeters>
            <DistanceMeters>NAN</DistanceMeters>
          </Trackpoint>
          <Trackpoint>
            <Time>2022-09-21T09:33:33.000Z</Time>
            <Position>
              <LatitudeDegrees>49.3933103419840335845947265625</LatitudeDegrees>
              <LongitudeDegrees>20.39503346197307109832763671875</LongitudeDegrees>
            </Position>
            <AltitudeMeters>465.600006103515625</AltitudeMeters>
            <DistanceMeters>NAN</DistanceMeters>
          </Trackpoint>
          <Trackpoint>
            <Time>2022-09-21T09:33:52.000Z</Time>
            <Position>
              <LatitudeDegrees>49.3933244235813617706298828125</LatitudeDegrees>
              <LongitudeDegrees>20.39502910338342189788818359375</LongitudeDegrees>
            </Position>
            <AltitudeMeters>465.399993896484375</AltitudeMeters>
            <DistanceMeters>NAN</DistanceMeters>
          </Trackpoint>
          <Trackpoint>
            <Time>2022-09-21T09:33:59.000Z</Time>
            <Position>
              <LatitudeDegrees>49.3933244235813617706298828125</LatitudeDegrees>
              <LongitudeDegrees>20.39502910338342189788818359375</LongitudeDegrees>
            </Position>
            <AltitudeMeters>465.399993896484375</AltitudeMeters>
            <DistanceMeters>NAN</DistanceMeters>
          </Trackpoint>
          <Trackpoint>
            <Time>2022-09-21T09:34:02.000Z</Time>
            <Position>
              <LatitudeDegrees>49.3933244235813617706298828125</LatitudeDegrees>
              <LongitudeDegrees>20.39502910338342189788818359375</LongitudeDegrees>
            </Position>
            <AltitudeMeters>465.600006103515625</AltitudeMeters>
            <DistanceMeters>NAN</DistanceMeters>
          </Trackpoint>
          <Trackpoint>
            <Time>2022-09-21T09:34:07.000Z</Time>
            <Position>
              <LatitudeDegrees>49.3933244235813617706298828125</LatitudeDegrees>
              <LongitudeDegrees>20.39502910338342189788818359375</LongitudeDegrees>
            </Position>
            <AltitudeMeters>465.600006103515625</AltitudeMeters>
            <DistanceMeters>NAN</DistanceMeters>
          </Trackpoint>
          <Trackpoint>
            <Time>2022-09-21T09:34:10.000Z</Time>
            <Position>
              <LatitudeDegrees>49.39332450740039348602294921875</LatitudeDegrees>
              <LongitudeDegrees>20.39502675645053386688232421875</LongitudeDegrees>
            </Position>
            <AltitudeMeters>465.79998779296875</AltitudeMeters>
            <DistanceMeters>NAN</DistanceMeters>
          </Trackpoint>
          <Trackpoint>
            <Time>2022-09-21T09:34:13.000Z</Time>
            <Position>
              <LatitudeDegrees>49.39332501031458377838134765625</LatitudeDegrees>
              <LongitudeDegrees>20.39495986886322498321533203125</LongitudeDegrees>
            </Position>
            <AltitudeMeters>465.79998779296875</AltitudeMeters>
            <DistanceMeters>NAN</DistanceMeters>
          </Trackpoint>
          <Trackpoint>
            <Time>2022-09-21T09:34:17.000Z</Time>
            <Position>
              <LatitudeDegrees>49.393323920667171478271484375</LatitudeDegrees>
              <LongitudeDegrees>20.3948298655450344085693359375</LongitudeDegrees>
            </Position>
            <AltitudeMeters>466</AltitudeMeters>
            <DistanceMeters>NAN</DistanceMeters>
          </Trackpoint>
          <Trackpoint>
            <Time>2022-09-21T09:34:18.000Z</Time>
            <Position>
              <LatitudeDegrees>49.39332584850490093231201171875</LatitudeDegrees>
              <LongitudeDegrees>20.39478921331465244293212890625</LongitudeDegrees>
            </Position>
            <AltitudeMeters>466</AltitudeMeters>
            <DistanceMeters>NAN</DistanceMeters>
          </Trackpoint>
          <Trackpoint>
            <Time>2022-09-21T09:34:23.000Z</Time>
            <Position>
              <LatitudeDegrees>49.39333825372159481048583984375</LatitudeDegrees>
              <LongitudeDegrees>20.39456809870898723602294921875</LongitudeDegrees>
            </Position>
            <AltitudeMeters>466.600006103515625</AltitudeMeters>
            <DistanceMeters>NAN</DistanceMeters>
          </Trackpoint>
          <Trackpoint>
            <Time>2022-09-21T09:34:24.000Z</Time>
            <Position>
              <LatitudeDegrees>49.39333967864513397216796875</LatitudeDegrees>
              <LongitudeDegrees>20.3945217467844486236572265625</LongitudeDegrees>
            </Position>
            <AltitudeMeters>466.600006103515625</AltitudeMeters>
            <DistanceMeters>NAN</DistanceMeters>
          </Trackpoint>
          <Trackpoint>
            <Time>2022-09-21T09:34:25.000Z</Time>
            <Position>
              <LatitudeDegrees>49.39333976246416568756103515625</LatitudeDegrees>
              <LongitudeDegrees>20.39448226802051067352294921875</LongitudeDegrees>
            </Position>
            <AltitudeMeters>466.79998779296875</AltitudeMeters>
            <DistanceMeters>NAN</DistanceMeters>
          </Trackpoint>
          <Trackpoint>
            <Time>2022-09-21T09:34:28.000Z</Time>
            <Position>
              <LatitudeDegrees>49.39333959482610225677490234375</LatitudeDegrees>
              <LongitudeDegrees>20.394372381269931793212890625</LongitudeDegrees>
            </Position>
            <AltitudeMeters>466.79998779296875</AltitudeMeters>
            <DistanceMeters>NAN</DistanceMeters>
          </Trackpoint>
          <Trackpoint>
            <Time>2022-09-21T09:34:30.000Z</Time>
            <Position>
              <LatitudeDegrees>49.39334043301641941070556640625</LatitudeDegrees>
              <LongitudeDegrees>20.39429049007594585418701171875</LongitudeDegrees>
            </Position>
            <AltitudeMeters>466.79998779296875</AltitudeMeters>
            <DistanceMeters>NAN</DistanceMeters>
          </Trackpoint>
          <Trackpoint>
            <Time>2022-09-21T09:34:31.000Z</Time>
            <Position>
              <LatitudeDegrees>49.39334177412092685699462890625</LatitudeDegrees>
              <LongitudeDegrees>20.394254364073276519775390625</LongitudeDegrees>
            </Position>
            <AltitudeMeters>467</AltitudeMeters>
            <DistanceMeters>NAN</DistanceMeters>
          </Trackpoint>
          <Trackpoint>
            <Time>2022-09-21T09:34:33.000Z</Time>
            <Position>
              <LatitudeDegrees>49.3933488987386226654052734375</LatitudeDegrees>
              <LongitudeDegrees>20.39419074542820453643798828125</LongitudeDegrees>
            </Position>
            <AltitudeMeters>467</AltitudeMeters>
            <DistanceMeters>NAN</DistanceMeters>
          </Trackpoint>
          <Trackpoint>
            <Time>2022-09-21T09:34:40.000Z</Time>
            <Position>
              <LatitudeDegrees>49.393362812697887420654296875</LatitudeDegrees>
              <LongitudeDegrees>20.39391766302287578582763671875</LongitudeDegrees>
            </Position>
            <AltitudeMeters>467.20001220703125</AltitudeMeters>
            <DistanceMeters>NAN</DistanceMeters>
          </Trackpoint>
          <Trackpoint>
            <Time>2022-09-21T09:34:45.000Z</Time>
            <Position>
              <LatitudeDegrees>49.39336893148720264434814453125</LatitudeDegrees>
              <LongitudeDegrees>20.39373259060084819793701171875</LongitudeDegrees>
            </Position>
            <AltitudeMeters>467.20001220703125</AltitudeMeters>
            <DistanceMeters>NAN</DistanceMeters>
          </Trackpoint>
          <Trackpoint>
            <Time>2022-09-21T09:34:47.000Z</Time>
            <Position>
              <LatitudeDegrees>49.39337052404880523681640625</LatitudeDegrees>
              <LongitudeDegrees>20.39365447126328945159912109375</LongitudeDegrees>
            </Position>
            <AltitudeMeters>467.399993896484375</AltitudeMeters>
            <DistanceMeters>NAN</DistanceMeters>
          </Trackpoint>
          <Trackpoint>
            <Time>2022-09-21T09:34:56.000Z</Time>
            <Position>
              <LatitudeDegrees>49.39338502474129199981689453125</LatitudeDegrees>
              <LongitudeDegrees>20.393238477408885955810546875</LongitudeDegrees>
            </Position>
            <AltitudeMeters>467</AltitudeMeters>
            <DistanceMeters>NAN</DistanceMeters>
          </Trackpoint>
          <Trackpoint>
            <Time>2022-09-21T09:35:04.000Z</Time>
            <Position>
              <LatitudeDegrees>49.39340807497501373291015625</LatitudeDegrees>
              <LongitudeDegrees>20.3928902931511402130126953125</LongitudeDegrees>
            </Position>
            <AltitudeMeters>466.79998779296875</AltitudeMeters>
            <DistanceMeters>NAN</DistanceMeters>
          </Trackpoint>
          <Trackpoint>
            <Time>2022-09-21T09:35:09.000Z</Time>
            <Position>
              <LatitudeDegrees>49.39341251738369464874267578125</LatitudeDegrees>
              <LongitudeDegrees>20.39269273169338703155517578125</LongitudeDegrees>
            </Position>
            <AltitudeMeters>466.79998779296875</AltitudeMeters>
            <DistanceMeters>NAN</DistanceMeters>
          </Trackpoint>
          <Trackpoint>
            <Time>2022-09-21T09:35:15.000Z</Time>
            <Position>
              <LatitudeDegrees>49.39345928840339183807373046875</LatitudeDegrees>
              <LongitudeDegrees>20.3923682682216167449951171875</LongitudeDegrees>
            </Position>
            <AltitudeMeters>467</AltitudeMeters>
            <DistanceMeters>NAN</DistanceMeters>
          </Trackpoint>
          <Trackpoint>
            <Time>2022-09-21T09:35:22.000Z</Time>
            <Position>
              <LatitudeDegrees>49.39353824593126773834228515625</LatitudeDegrees>
              <LongitudeDegrees>20.39205436594784259796142578125</LongitudeDegrees>
            </Position>
            <AltitudeMeters>467</AltitudeMeters>
            <DistanceMeters>NAN</DistanceMeters>
          </Trackpoint>
          <Trackpoint>
            <Time>2022-09-21T09:35:30.000Z</Time>
            <Position>
              <LatitudeDegrees>49.393630363047122955322265625</LatitudeDegrees>
              <LongitudeDegrees>20.39170048199594020843505859375</LongitudeDegrees>
            </Position>
            <AltitudeMeters>467</AltitudeMeters>
            <DistanceMeters>NAN</DistanceMeters>
          </Trackpoint>
          <Trackpoint>
            <Time>2022-09-21T09:35:32.000Z</Time>
            <Position>
              <LatitudeDegrees>49.39364922232925891876220703125</LatitudeDegrees>
              <LongitudeDegrees>20.39162688888609409332275390625</LongitudeDegrees>
            </Position>
            <AltitudeMeters>467</AltitudeMeters>
            <DistanceMeters>NAN</DistanceMeters>
          </Trackpoint>
          <Trackpoint>
            <Time>2022-09-21T09:35:38.000Z</Time>
            <Position>
              <LatitudeDegrees>49.3937106616795063018798828125</LatitudeDegrees>
              <LongitudeDegrees>20.39140074513852596282958984375</LongitudeDegrees>
            </Position>
            <AltitudeMeters>467.20001220703125</AltitudeMeters>
            <DistanceMeters>NAN</DistanceMeters>
          </Trackpoint>
          <Trackpoint>
            <Time>2022-09-21T09:35:44.000Z</Time>
            <Position>
              <LatitudeDegrees>49.39376707188785076141357421875</LatitudeDegrees>
              <LongitudeDegrees>20.3912125714123249053955078125</LongitudeDegrees>
            </Position>
            <AltitudeMeters>467.20001220703125</AltitudeMeters>
            <DistanceMeters>NAN</DistanceMeters>
          </Trackpoint>
          <Trackpoint>
            <Time>2022-09-21T09:35:50.000Z</Time>
            <Position>
              <LatitudeDegrees>49.39384066499769687652587890625</LatitudeDegrees>
              <LongitudeDegrees>20.39094208739697933197021484375</LongitudeDegrees>
            </Position>
            <AltitudeMeters>467.399993896484375</AltitudeMeters>
            <DistanceMeters>NAN</DistanceMeters>
          </Trackpoint>
          <Trackpoint>
            <Time>2022-09-21T09:35:51.000Z</Time>
            <Position>
              <LatitudeDegrees>49.3938521482050418853759765625</LatitudeDegrees>
              <LongitudeDegrees>20.3908997587859630584716796875</LongitudeDegrees>
            </Position>
            <AltitudeMeters>467.399993896484375</AltitudeMeters>
            <DistanceMeters>NAN</DistanceMeters>
          </Trackpoint>
          <Trackpoint>
            <Time>2022-09-21T09:35:55.000Z</Time>
            <Position>
              <LatitudeDegrees>49.393895901739597320556640625</LatitudeDegrees>
              <LongitudeDegrees>20.39074829779565334320068359375</LongitudeDegrees>
            </Position>
            <AltitudeMeters>467.399993896484375</AltitudeMeters>
            <DistanceMeters>NAN</DistanceMeters>
          </Trackpoint>
          <Trackpoint>
            <Time>2022-09-21T09:35:59.000Z</Time>
            <Position>
              <LatitudeDegrees>49.39392766915261745452880859375</LatitudeDegrees>
              <LongitudeDegrees>20.39060077629983425140380859375</LongitudeDegrees>
            </Position>
            <AltitudeMeters>467.399993896484375</AltitudeMeters>
            <DistanceMeters>NAN</DistanceMeters>
          </Trackpoint>
          <Trackpoint>
            <Time>2022-09-21T09:36:07.000Z</Time>
            <Position>
              <LatitudeDegrees>49.3940006755292415618896484375</LatitudeDegrees>
              <LongitudeDegrees>20.3902479819953441619873046875</LongitudeDegrees>
            </Position>
            <AltitudeMeters>467.600006103515625</AltitudeMeters>
            <DistanceMeters>NAN</DistanceMeters>
          </Trackpoint>
          <Trackpoint>
            <Time>2022-09-21T09:36:13.000Z</Time>
            <Position>
              <LatitudeDegrees>49.39405574463307857513427734375</LatitudeDegrees>
              <LongitudeDegrees>20.3899137116968631744384765625</LongitudeDegrees>
            </Position>
            <AltitudeMeters>468</AltitudeMeters>
            <DistanceMeters>NAN</DistanceMeters>
          </Trackpoint>
          <Trackpoint>
            <Time>2022-09-21T09:36:19.000Z</Time>
            <Position>
              <LatitudeDegrees>49.394099749624729156494140625</LatitudeDegrees>
              <LongitudeDegrees>20.38961774669587612152099609375</LongitudeDegrees>
            </Position>
            <AltitudeMeters>468.399993896484375</AltitudeMeters>
            <DistanceMeters>NAN</DistanceMeters>
          </Trackpoint>
          <Trackpoint>
            <Time>2022-09-21T09:36:25.000Z</Time>
            <Position>
              <LatitudeDegrees>49.39412497915327548980712890625</LatitudeDegrees>
              <LongitudeDegrees>20.3893749229609966278076171875</LongitudeDegrees>
            </Position>
            <AltitudeMeters>468.600006103515625</AltitudeMeters>
            <DistanceMeters>NAN</DistanceMeters>
          </Trackpoint>
          <Trackpoint>
            <Time>2022-09-21T09:36:31.000Z</Time>
            <Position>
              <LatitudeDegrees>49.3941599316895008087158203125</LatitudeDegrees>
              <LongitudeDegrees>20.3891013376414775848388671875</LongitudeDegrees>
            </Position>
            <AltitudeMeters>469</AltitudeMeters>
            <DistanceMeters>NAN</DistanceMeters>
          </Trackpoint>
          <Trackpoint>
            <Time>2022-09-21T09:36:33.000Z</Time>
            <Position>
              <LatitudeDegrees>49.39417225308716297149658203125</LatitudeDegrees>
              <LongitudeDegrees>20.38901492021977901458740234375</LongitudeDegrees>
            </Position>
            <AltitudeMeters>469.20001220703125</AltitudeMeters>
            <DistanceMeters>NAN</DistanceMeters>
          </Trackpoint>
          <Trackpoint>
            <Time>2022-09-21T09:36:38.000Z</Time>
            <Position>
              <LatitudeDegrees>49.394201673567295074462890625</LatitudeDegrees>
              <LongitudeDegrees>20.38874770514667034149169921875</LongitudeDegrees>
            </Position>
            <AltitudeMeters>470</AltitudeMeters>
            <DistanceMeters>NAN</DistanceMeters>
          </Trackpoint>
          <Trackpoint>
            <Time>2022-09-21T09:36:39.000Z</Time>
            <Position>
              <LatitudeDegrees>49.3942045234143733978271484375</LatitudeDegrees>
              <LongitudeDegrees>20.3886849246919155120849609375</LongitudeDegrees>
            </Position>
            <AltitudeMeters>470</AltitudeMeters>
            <DistanceMeters>NAN</DistanceMeters>
          </Trackpoint>
          <Trackpoint>
            <Time>2022-09-21T09:36:40.000Z</Time>
            <Position>
              <LatitudeDegrees>49.39420628361403942108154296875</LatitudeDegrees>
              <LongitudeDegrees>20.38862985558807849884033203125</LongitudeDegrees>
            </Position>
            <AltitudeMeters>470.20001220703125</AltitudeMeters>
            <DistanceMeters>NAN</DistanceMeters>
          </Trackpoint>
          <Trackpoint>
            <Time>2022-09-21T09:36:45.000Z</Time>
            <Position>
              <LatitudeDegrees>49.39423017203807830810546875</LatitudeDegrees>
              <LongitudeDegrees>20.38842801935970783233642578125</LongitudeDegrees>
            </Position>
            <AltitudeMeters>470.399993896484375</AltitudeMeters>
            <DistanceMeters>NAN</DistanceMeters>
          </Trackpoint>
          <Trackpoint>
            <Time>2022-09-21T09:36:46.000Z</Time>
            <Position>
              <LatitudeDegrees>49.39423344098031520843505859375</LatitudeDegrees>
              <LongitudeDegrees>20.38839147426187992095947265625</LongitudeDegrees>
            </Position>
            <AltitudeMeters>470.600006103515625</AltitudeMeters>
            <DistanceMeters>NAN</DistanceMeters>
          </Trackpoint>
          <Trackpoint>
            <Time>2022-09-21T09:36:49.000Z</Time>
            <Position>
              <LatitudeDegrees>49.39424685202538967132568359375</LatitudeDegrees>
              <LongitudeDegrees>20.38828686811029911041259765625</LongitudeDegrees>
            </Position>
            <AltitudeMeters>470.79998779296875</AltitudeMeters>
            <DistanceMeters>NAN</DistanceMeters>
          </Trackpoint>
          <Trackpoint>
            <Time>2022-09-21T09:36:52.000Z</Time>
            <Position>
              <LatitudeDegrees>49.39425607211887836456298828125</LatitudeDegrees>
              <LongitudeDegrees>20.388186872005462646484375</LongitudeDegrees>
            </Position>
            <AltitudeMeters>471</AltitudeMeters>
            <DistanceMeters>NAN</DistanceMeters>
          </Trackpoint>
          <Trackpoint>
            <Time>2022-09-21T09:36:53.000Z</Time>
            <Position>
              <LatitudeDegrees>49.39425406046211719512939453125</LatitudeDegrees>
              <LongitudeDegrees>20.38815376348793506622314453125</LongitudeDegrees>
            </Position>
            <AltitudeMeters>471.20001220703125</AltitudeMeters>
            <DistanceMeters>NAN</DistanceMeters>
          </Trackpoint>
          <Trackpoint>
            <Time>2022-09-21T09:36:57.000Z</Time>
            <Position>
              <LatitudeDegrees>49.39423687756061553955078125</LatitudeDegrees>
              <LongitudeDegrees>20.388037003576755523681640625</LongitudeDegrees>
            </Position>
            <AltitudeMeters>471.20001220703125</AltitudeMeters>
            <DistanceMeters>NAN</DistanceMeters>
          </Trackpoint>
          <Trackpoint>
            <Time>2022-09-21T09:37:02.000Z</Time>
            <Position>
              <LatitudeDegrees>49.39422321505844593048095703125</LatitudeDegrees>
              <LongitudeDegrees>20.38793264888226985931396484375</LongitudeDegrees>
            </Position>
            <AltitudeMeters>471.20001220703125</AltitudeMeters>
            <DistanceMeters>NAN</DistanceMeters>
          </Trackpoint>
          <Trackpoint>
            <Time>2022-09-21T09:37:03.000Z</Time>
            <Position>
              <LatitudeDegrees>49.39422480762004852294921875</LatitudeDegrees>
              <LongitudeDegrees>20.3879251889884471893310546875</LongitudeDegrees>
            </Position>
            <AltitudeMeters>471.20001220703125</AltitudeMeters>
            <DistanceMeters>NAN</DistanceMeters>
          </Trackpoint>
          <Trackpoint>
            <Time>2022-09-21T09:37:05.000Z</Time>
            <Position>
              <LatitudeDegrees>49.39423008821904659271240234375</LatitudeDegrees>
              <LongitudeDegrees>20.3878983668982982635498046875</LongitudeDegrees>
            </Position>
            <AltitudeMeters>471.20001220703125</AltitudeMeters>
            <DistanceMeters>NAN</DistanceMeters>
          </Trackpoint>
          <Trackpoint>
            <Time>2022-09-21T09:37:11.000Z</Time>
            <Position>
              <LatitudeDegrees>49.39425540156662464141845703125</LatitudeDegrees>
              <LongitudeDegrees>20.38777758367359638214111328125</LongitudeDegrees>
            </Position>
            <AltitudeMeters>471.399993896484375</AltitudeMeters>
            <DistanceMeters>NAN</DistanceMeters>
          </Trackpoint>
          <Trackpoint>
            <Time>2022-09-21T09:37:13.000Z</Time>
            <Position>
              <LatitudeDegrees>49.39425707794725894927978515625</LatitudeDegrees>
              <LongitudeDegrees>20.387741960585117340087890625</LongitudeDegrees>
            </Position>
            <AltitudeMeters>471.399993896484375</AltitudeMeters>
            <DistanceMeters>NAN</DistanceMeters>
          </Trackpoint>
          <Trackpoint>
            <Time>2022-09-21T09:37:16.000Z</Time>
            <Position>
              <LatitudeDegrees>49.39426328055560588836669921875</LatitudeDegrees>
              <LongitudeDegrees>20.38767314516007900238037109375</LongitudeDegrees>
            </Position>
            <AltitudeMeters>471.600006103515625</AltitudeMeters>
            <DistanceMeters>NAN</DistanceMeters>
          </Trackpoint>
          <Trackpoint>
            <Time>2022-09-21T09:37:19.000Z</Time>
            <Position>
              <LatitudeDegrees>49.3942658789455890655517578125</LatitudeDegrees>
              <LongitudeDegrees>20.38761715404689311981201171875</LongitudeDegrees>
            </Position>
            <AltitudeMeters>471.600006103515625</AltitudeMeters>
            <DistanceMeters>NAN</DistanceMeters>
          </Trackpoint>
          <Trackpoint>
            <Time>2022-09-21T09:37:20.000Z</Time>
            <Position>
              <LatitudeDegrees>49.39425699412822723388671875</LatitudeDegrees>
              <LongitudeDegrees>20.387595109641551971435546875</LongitudeDegrees>
            </Position>
            <AltitudeMeters>471.600006103515625</AltitudeMeters>
            <DistanceMeters>NAN</DistanceMeters>
          </Trackpoint>
          <Trackpoint>
            <Time>2022-09-21T09:37:21.000Z</Time>
            <Position>
              <LatitudeDegrees>49.39424014650285243988037109375</LatitudeDegrees>
              <LongitudeDegrees>20.387577675282955169677734375</LongitudeDegrees>
            </Position>
            <AltitudeMeters>471.600006103515625</AltitudeMeters>
            <DistanceMeters>NAN</DistanceMeters>
          </Trackpoint>
          <Trackpoint>
            <Time>2022-09-21T09:37:23.000Z</Time>
            <Position>
              <LatitudeDegrees>49.39416856504976749420166015625</LatitudeDegrees>
              <LongitudeDegrees>20.38755294866859912872314453125</LongitudeDegrees>
            </Position>
            <AltitudeMeters>471.20001220703125</AltitudeMeters>
            <DistanceMeters>NAN</DistanceMeters>
          </Trackpoint>
          <Trackpoint>
            <Time>2022-09-21T09:37:28.000Z</Time>
            <Position>
              <LatitudeDegrees>49.39390436746180057525634765625</LatitudeDegrees>
              <LongitudeDegrees>20.38750617764890193939208984375</LongitudeDegrees>
            </Position>
            <AltitudeMeters>470</AltitudeMeters>
            <DistanceMeters>NAN</DistanceMeters>
          </Trackpoint>
          <Trackpoint>
            <Time>2022-09-21T09:37:32.000Z</Time>
            <Position>
              <LatitudeDegrees>49.39365324564278125762939453125</LatitudeDegrees>
              <LongitudeDegrees>20.38749041967093944549560546875</LongitudeDegrees>
            </Position>
            <AltitudeMeters>469</AltitudeMeters>
            <DistanceMeters>NAN</DistanceMeters>
          </Trackpoint>
          <Trackpoint>
            <Time>2022-09-21T09:37:34.000Z</Time>
            <Position>
              <LatitudeDegrees>49.3935279361903667449951171875</LatitudeDegrees>
              <LongitudeDegrees>20.387489162385463714599609375</LongitudeDegrees>
            </Position>
            <AltitudeMeters>468.79998779296875</AltitudeMeters>
            <DistanceMeters>NAN</DistanceMeters>
          </Trackpoint>
          <Trackpoint>
            <Time>2022-09-21T09:37:40.000Z</Time>
            <Position>
              <LatitudeDegrees>49.3931517563760280609130859375</LatitudeDegrees>
              <LongitudeDegrees>20.38753576576709747314453125</LongitudeDegrees>
            </Position>
            <AltitudeMeters>468.20001220703125</AltitudeMeters>
            <DistanceMeters>NAN</DistanceMeters>
          </Trackpoint>
          <Trackpoint>
            <Time>2022-09-21T09:37:46.000Z</Time>
            <Position>
              <LatitudeDegrees>49.3928027339279651641845703125</LatitudeDegrees>
              <LongitudeDegrees>20.38762888871133327484130859375</LongitudeDegrees>
            </Position>
            <AltitudeMeters>467.79998779296875</AltitudeMeters>
            <DistanceMeters>NAN</DistanceMeters>
          </Trackpoint>
          <Trackpoint>
            <Time>2022-09-21T09:37:48.000Z</Time>
            <Position>
              <LatitudeDegrees>49.39269594848155975341796875</LatitudeDegrees>
              <LongitudeDegrees>20.38765235804021358489990234375</LongitudeDegrees>
            </Position>
            <AltitudeMeters>467.600006103515625</AltitudeMeters>
            <DistanceMeters>NAN</DistanceMeters>
          </Trackpoint>
          <Trackpoint>
            <Time>2022-09-21T09:37:50.000Z</Time>
            <Position>
              <LatitudeDegrees>49.3925868161022663116455078125</LatitudeDegrees>
              <LongitudeDegrees>20.38768035359680652618408203125</LongitudeDegrees>
            </Position>
            <AltitudeMeters>467.600006103515625</AltitudeMeters>
            <DistanceMeters>NAN</DistanceMeters>
          </Trackpoint>
          <Trackpoint>
            <Time>2022-09-21T09:37:52.000Z</Time>
            <Position>
              <LatitudeDegrees>49.392485059797763824462890625</LatitudeDegrees>
              <LongitudeDegrees>20.387713126838207244873046875</LongitudeDegrees>
            </Position>
            <AltitudeMeters>467.399993896484375</AltitudeMeters>
            <DistanceMeters>NAN</DistanceMeters>
          </Trackpoint>
          <Trackpoint>
            <Time>2022-09-21T09:37:53.000Z</Time>
            <Position>
              <LatitudeDegrees>49.39243569038808345794677734375</LatitudeDegrees>
              <LongitudeDegrees>20.38772561587393283843994140625</LongitudeDegrees>
            </Position>
            <AltitudeMeters>467.20001220703125</AltitudeMeters>
            <DistanceMeters>NAN</DistanceMeters>
          </Trackpoint>
          <Trackpoint>
            <Time>2022-09-21T09:37:54.000Z</Time>
            <Position>
              <LatitudeDegrees>49.392388500273227691650390625</LatitudeDegrees>
              <LongitudeDegrees>20.38773751817643642425537109375</LongitudeDegrees>
            </Position>
            <AltitudeMeters>467.20001220703125</AltitudeMeters>
            <DistanceMeters>NAN</DistanceMeters>
          </Trackpoint>
          <Trackpoint>
            <Time>2022-09-21T09:37:55.000Z</Time>
            <Position>
              <LatitudeDegrees>49.39234516583383083343505859375</LatitudeDegrees>
              <LongitudeDegrees>20.38776165805757045745849609375</LongitudeDegrees>
            </Position>
            <AltitudeMeters>467.20001220703125</AltitudeMeters>
            <DistanceMeters>NAN</DistanceMeters>
          </Trackpoint>
          <Trackpoint>
            <Time>2022-09-21T09:37:57.000Z</Time>
            <Position>
              <LatitudeDegrees>49.3922736681997776031494140625</LatitudeDegrees>
              <LongitudeDegrees>20.38784421980381011962890625</LongitudeDegrees>
            </Position>
            <AltitudeMeters>467</AltitudeMeters>
            <DistanceMeters>NAN</DistanceMeters>
          </Trackpoint>
          <Trackpoint>
            <Time>2022-09-21T09:38:02.000Z</Time>
            <Position>
              <LatitudeDegrees>49.39217668958008289337158203125</LatitudeDegrees>
              <LongitudeDegrees>20.388144962489604949951171875</LongitudeDegrees>
            </Position>
            <AltitudeMeters>467</AltitudeMeters>
            <DistanceMeters>NAN</DistanceMeters>
          </Trackpoint>
          <Trackpoint>
            <Time>2022-09-21T09:38:06.000Z</Time>
            <Position>
              <LatitudeDegrees>49.3920916132628917694091796875</LatitudeDegrees>
              <LongitudeDegrees>20.38838292472064495086669921875</LongitudeDegrees>
            </Position>
            <AltitudeMeters>466.79998779296875</AltitudeMeters>
            <DistanceMeters>NAN</DistanceMeters>
          </Trackpoint>
          <Trackpoint>
            <Time>2022-09-21T09:38:10.000Z</Time>
            <Position>
              <LatitudeDegrees>49.392020367085933685302734375</LatitudeDegrees>
              <LongitudeDegrees>20.38860253058373928070068359375</LongitudeDegrees>
            </Position>
            <AltitudeMeters>466.600006103515625</AltitudeMeters>
            <DistanceMeters>NAN</DistanceMeters>
          </Trackpoint>
          <Trackpoint>
            <Time>2022-09-21T09:38:13.000Z</Time>
            <Position>
              <LatitudeDegrees>49.39200502820312976837158203125</LatitudeDegrees>
              <LongitudeDegrees>20.38879212923347949981689453125</LongitudeDegrees>
            </Position>
            <AltitudeMeters>466.79998779296875</AltitudeMeters>
            <DistanceMeters>NAN</DistanceMeters>
          </Trackpoint>
          <Trackpoint>
            <Time>2022-09-21T09:38:15.000Z</Time>
            <Position>
              <LatitudeDegrees>49.392015673220157623291015625</LatitudeDegrees>
              <LongitudeDegrees>20.38892255164682865142822265625</LongitudeDegrees>
            </Position>
            <AltitudeMeters>466.79998779296875</AltitudeMeters>
            <DistanceMeters>NAN</DistanceMeters>
          </Trackpoint>
          <Trackpoint>
            <Time>2022-09-21T09:38:16.000Z</Time>
            <Position>
              <LatitudeDegrees>49.3920193612575531005859375</LatitudeDegrees>
              <LongitudeDegrees>20.38897485472261905670166015625</LongitudeDegrees>
            </Position>
            <AltitudeMeters>466.79998779296875</AltitudeMeters>
            <DistanceMeters>NAN</DistanceMeters>
          </Trackpoint>
          <Trackpoint>
            <Time>2022-09-21T09:38:21.000Z</Time>
            <Position>
              <LatitudeDegrees>49.3920108117163181304931640625</LatitudeDegrees>
              <LongitudeDegrees>20.3892786987125873565673828125</LongitudeDegrees>
            </Position>
            <AltitudeMeters>466.600006103515625</AltitudeMeters>
            <DistanceMeters>NAN</DistanceMeters>
          </Trackpoint>
          <Trackpoint>
            <Time>2022-09-21T09:38:23.000Z</Time>
            <Position>
              <LatitudeDegrees>49.39200569875538349151611328125</LatitudeDegrees>
              <LongitudeDegrees>20.38938791491091251373291015625</LongitudeDegrees>
            </Position>
            <AltitudeMeters>466.399993896484375</AltitudeMeters>
            <DistanceMeters>NAN</DistanceMeters>
          </Trackpoint>
          <Trackpoint>
            <Time>2022-09-21T09:38:24.000Z</Time>
            <Position>
              <LatitudeDegrees>49.3920031003654003143310546875</LatitudeDegrees>
              <LongitudeDegrees>20.3894426487386226654052734375</LongitudeDegrees>
            </Position>
            <AltitudeMeters>466.399993896484375</AltitudeMeters>
            <DistanceMeters>NAN</DistanceMeters>
          </Trackpoint>
          <Trackpoint>
            <Time>2022-09-21T09:38:28.000Z</Time>
            <Position>
              <LatitudeDegrees>49.39196311868727207183837890625</LatitudeDegrees>
              <LongitudeDegrees>20.38965311832726001739501953125</LongitudeDegrees>
            </Position>
            <AltitudeMeters>466.399993896484375</AltitudeMeters>
            <DistanceMeters>NAN</DistanceMeters>
          </Trackpoint>
          <Trackpoint>
            <Time>2022-09-21T09:38:35.000Z</Time>
            <Position>
              <LatitudeDegrees>49.391909055411815643310546875</LatitudeDegrees>
              <LongitudeDegrees>20.38995780050754547119140625</LongitudeDegrees>
            </Position>
            <AltitudeMeters>466.399993896484375</AltitudeMeters>
            <DistanceMeters>NAN</DistanceMeters>
          </Trackpoint>
          <Trackpoint>
            <Time>2022-09-21T09:38:39.000Z</Time>
            <Position>
              <LatitudeDegrees>49.39190595410764217376708984375</LatitudeDegrees>
              <LongitudeDegrees>20.38996425457298755645751953125</LongitudeDegrees>
            </Position>
            <AltitudeMeters>466.20001220703125</AltitudeMeters>
            <DistanceMeters>NAN</DistanceMeters>
          </Trackpoint>
          <Trackpoint>
            <Time>2022-09-21T09:38:40.000Z</Time>
            <Position>
              <LatitudeDegrees>49.39190595410764217376708984375</LatitudeDegrees>
              <LongitudeDegrees>20.38996425457298755645751953125</LongitudeDegrees>
            </Position>
            <AltitudeMeters>466.20001220703125</AltitudeMeters>
            <DistanceMeters>NAN</DistanceMeters>
          </Trackpoint>
          <Trackpoint>
            <Time>2022-09-21T09:38:50.000Z</Time>
            <Position>
              <LatitudeDegrees>49.39190595410764217376708984375</LatitudeDegrees>
              <LongitudeDegrees>20.38996425457298755645751953125</LongitudeDegrees>
            </Position>
            <AltitudeMeters>466.20001220703125</AltitudeMeters>
            <DistanceMeters>NAN</DistanceMeters>
          </Trackpoint>
          <Trackpoint>
            <Time>2022-09-21T09:39:10.000Z</Time>
            <Position>
              <LatitudeDegrees>49.39190595410764217376708984375</LatitudeDegrees>
              <LongitudeDegrees>20.38996425457298755645751953125</LongitudeDegrees>
            </Position>
            <AltitudeMeters>466.20001220703125</AltitudeMeters>
            <DistanceMeters>NAN</DistanceMeters>
          </Trackpoint>
          <Trackpoint>
            <Time>2022-09-21T09:39:36.000Z</Time>
            <Position>
              <LatitudeDegrees>49.39190595410764217376708984375</LatitudeDegrees>
              <LongitudeDegrees>20.38996425457298755645751953125</LongitudeDegrees>
            </Position>
            <AltitudeMeters>466.20001220703125</AltitudeMeters>
            <DistanceMeters>NAN</DistanceMeters>
          </Trackpoint>
          <Trackpoint>
            <Time>2022-09-21T09:39:40.000Z</Time>
            <Position>
              <LatitudeDegrees>49.39190595410764217376708984375</LatitudeDegrees>
              <LongitudeDegrees>20.38996425457298755645751953125</LongitudeDegrees>
            </Position>
            <AltitudeMeters>466.20001220703125</AltitudeMeters>
            <DistanceMeters>NAN</DistanceMeters>
          </Trackpoint>
          <Trackpoint>
            <Time>2022-09-21T09:40:07.000Z</Time>
            <Position>
              <LatitudeDegrees>49.39190411008894443511962890625</LatitudeDegrees>
              <LongitudeDegrees>20.389988981187343597412109375</LongitudeDegrees>
            </Position>
            <AltitudeMeters>466.20001220703125</AltitudeMeters>
            <DistanceMeters>NAN</DistanceMeters>
          </Trackpoint>
          <Trackpoint>
            <Time>2022-09-21T09:40:09.000Z</Time>
            <Position>
              <LatitudeDegrees>49.39189991913735866546630859375</LatitudeDegrees>
              <LongitudeDegrees>20.390045307576656341552734375</LongitudeDegrees>
            </Position>
            <AltitudeMeters>466.20001220703125</AltitudeMeters>
            <DistanceMeters>NAN</DistanceMeters>
          </Trackpoint>
          <Trackpoint>
            <Time>2022-09-21T09:40:11.000Z</Time>
            <Position>
              <LatitudeDegrees>49.3918676488101482391357421875</LatitudeDegrees>
              <LongitudeDegrees>20.39010934531688690185546875</LongitudeDegrees>
            </Position>
            <AltitudeMeters>466.20001220703125</AltitudeMeters>
            <DistanceMeters>NAN</DistanceMeters>
          </Trackpoint>
          <Trackpoint>
            <Time>2022-09-21T09:40:13.000Z</Time>
            <Position>
              <LatitudeDegrees>49.3918170221149921417236328125</LatitudeDegrees>
              <LongitudeDegrees>20.390158630907535552978515625</LongitudeDegrees>
            </Position>
            <AltitudeMeters>466.20001220703125</AltitudeMeters>
            <DistanceMeters>NAN</DistanceMeters>
          </Trackpoint>
          <Trackpoint>
            <Time>2022-09-21T09:40:14.000Z</Time>
            <Position>
              <LatitudeDegrees>49.39178827218711376190185546875</LatitudeDegrees>
              <LongitudeDegrees>20.39017916657030582427978515625</LongitudeDegrees>
            </Position>
            <AltitudeMeters>466.20001220703125</AltitudeMeters>
            <DistanceMeters>NAN</DistanceMeters>
          </Trackpoint>
          <Trackpoint>
            <Time>2022-09-21T09:40:18.000Z</Time>
            <Position>
              <LatitudeDegrees>49.39168701879680156707763671875</LatitudeDegrees>
              <LongitudeDegrees>20.3902214951813220977783203125</LongitudeDegrees>
            </Position>
            <AltitudeMeters>465.79998779296875</AltitudeMeters>
            <DistanceMeters>NAN</DistanceMeters>
          </Trackpoint>
          <Trackpoint>
            <Time>2022-09-21T09:40:19.000Z</Time>
            <Position>
              <LatitudeDegrees>49.39166539348661899566650390625</LatitudeDegrees>
              <LongitudeDegrees>20.3902355767786502838134765625</LongitudeDegrees>
            </Position>
            <AltitudeMeters>465.79998779296875</AltitudeMeters>
            <DistanceMeters>NAN</DistanceMeters>
          </Trackpoint>
          <Trackpoint>
            <Time>2022-09-21T09:40:21.000Z</Time>
            <Position>
              <LatitudeDegrees>49.39161904156208038330078125</LatitudeDegrees>
              <LongitudeDegrees>20.3902573697268962860107421875</LongitudeDegrees>
            </Position>
            <AltitudeMeters>465.399993896484375</AltitudeMeters>
            <DistanceMeters>NAN</DistanceMeters>
          </Trackpoint>
          <Trackpoint>
            <Time>2022-09-21T09:40:22.000Z</Time>
            <Position>
              <LatitudeDegrees>49.39159951172769069671630859375</LatitudeDegrees>
              <LongitudeDegrees>20.39025644771754741668701171875</LongitudeDegrees>
            </Position>
            <AltitudeMeters>465.20001220703125</AltitudeMeters>
            <DistanceMeters>NAN</DistanceMeters>
          </Trackpoint>
          <Trackpoint>
            <Time>2022-09-21T09:40:24.000Z</Time>
            <Position>
              <LatitudeDegrees>49.39158626832067966461181640625</LatitudeDegrees>
              <LongitudeDegrees>20.3901893086731433868408203125</LongitudeDegrees>
            </Position>
            <AltitudeMeters>465</AltitudeMeters>
            <DistanceMeters>NAN</DistanceMeters>
          </Trackpoint>
          <Trackpoint>
            <Time>2022-09-21T09:40:32.000Z</Time>
            <Position>
              <LatitudeDegrees>49.39158911816775798797607421875</LatitudeDegrees>
              <LongitudeDegrees>20.38989208638668060302734375</LongitudeDegrees>
            </Position>
            <AltitudeMeters>464.79998779296875</AltitudeMeters>
            <DistanceMeters>NAN</DistanceMeters>
          </Trackpoint>
          <Trackpoint>
            <Time>2022-09-21T09:40:39.000Z</Time>
            <Position>
              <LatitudeDegrees>49.3915689177811145782470703125</LatitudeDegrees>
              <LongitudeDegrees>20.38959461264312267303466796875</LongitudeDegrees>
            </Position>
            <AltitudeMeters>465.600006103515625</AltitudeMeters>
            <DistanceMeters>NAN</DistanceMeters>
          </Trackpoint>
          <Trackpoint>
            <Time>2022-09-21T09:40:41.000Z</Time>
            <Position>
              <LatitudeDegrees>49.39156061969697475433349609375</LatitudeDegrees>
              <LongitudeDegrees>20.38948598317801952362060546875</LongitudeDegrees>
            </Position>
            <AltitudeMeters>465.600006103515625</AltitudeMeters>
            <DistanceMeters>NAN</DistanceMeters>
          </Trackpoint>
          <Trackpoint>
            <Time>2022-09-21T09:40:49.000Z</Time>
            <Position>
              <LatitudeDegrees>49.391545616090297698974609375</LatitudeDegrees>
              <LongitudeDegrees>20.38910108618438243865966796875</LongitudeDegrees>
            </Position>
            <AltitudeMeters>465.600006103515625</AltitudeMeters>
            <DistanceMeters>NAN</DistanceMeters>
          </Trackpoint>
          <Trackpoint>
            <Time>2022-09-21T09:40:55.000Z</Time>
            <Position>
              <LatitudeDegrees>49.39156833104789257049560546875</LatitudeDegrees>
              <LongitudeDegrees>20.38884879089891910552978515625</LongitudeDegrees>
            </Position>
            <AltitudeMeters>465.79998779296875</AltitudeMeters>
            <DistanceMeters>NAN</DistanceMeters>
          </Trackpoint>
          <Trackpoint>
            <Time>2022-09-21T09:40:57.000Z</Time>
            <Position>
              <LatitudeDegrees>49.391566403210163116455078125</LatitudeDegrees>
              <LongitudeDegrees>20.38876379840075969696044921875</LongitudeDegrees>
            </Position>
            <AltitudeMeters>465.600006103515625</AltitudeMeters>
            <DistanceMeters>NAN</DistanceMeters>
          </Trackpoint>
          <Trackpoint>
            <Time>2022-09-21T09:41:02.000Z</Time>
            <Position>
              <LatitudeDegrees>49.39157553948462009429931640625</LatitudeDegrees>
              <LongitudeDegrees>20.388548634946346282958984375</LongitudeDegrees>
            </Position>
            <AltitudeMeters>465.600006103515625</AltitudeMeters>
            <DistanceMeters>NAN</DistanceMeters>
          </Trackpoint>
          <Trackpoint>
            <Time>2022-09-21T09:41:09.000Z</Time>
            <Position>
              <LatitudeDegrees>49.391591884195804595947265625</LatitudeDegrees>
              <LongitudeDegrees>20.38823875598609447479248046875</LongitudeDegrees>
            </Position>
            <AltitudeMeters>466</AltitudeMeters>
            <DistanceMeters>NAN</DistanceMeters>
          </Trackpoint>
          <Trackpoint>
            <Time>2022-09-21T09:41:16.000Z</Time>
            <Position>
              <LatitudeDegrees>49.391615353524684906005859375</LatitudeDegrees>
              <LongitudeDegrees>20.38790197111666202545166015625</LongitudeDegrees>
            </Position>
            <AltitudeMeters>466</AltitudeMeters>
            <DistanceMeters>NAN</DistanceMeters>
          </Trackpoint>
          <Trackpoint>
            <Time>2022-09-21T09:41:22.000Z</Time>
            <Position>
              <LatitudeDegrees>49.39168567769229412078857421875</LatitudeDegrees>
              <LongitudeDegrees>20.38759879767894744873046875</LongitudeDegrees>
            </Position>
            <AltitudeMeters>466.600006103515625</AltitudeMeters>
            <DistanceMeters>NAN</DistanceMeters>
          </Trackpoint>
          <Trackpoint>
            <Time>2022-09-21T09:41:30.000Z</Time>
            <Position>
              <LatitudeDegrees>49.3917955644428730010986328125</LatitudeDegrees>
              <LongitudeDegrees>20.3871929459273815155029296875</LongitudeDegrees>
            </Position>
            <AltitudeMeters>466.600006103515625</AltitudeMeters>
            <DistanceMeters>NAN</DistanceMeters>
          </Trackpoint>
          <Trackpoint>
            <Time>2022-09-21T09:41:37.000Z</Time>
            <Position>
              <LatitudeDegrees>49.3919390626251697540283203125</LatitudeDegrees>
              <LongitudeDegrees>20.38693964481353759765625</LongitudeDegrees>
            </Position>
            <AltitudeMeters>466</AltitudeMeters>
            <DistanceMeters>NAN</DistanceMeters>
          </Trackpoint>
          <Trackpoint>
            <Time>2022-09-21T09:41:41.000Z</Time>
            <Position>
              <LatitudeDegrees>49.39198155887424945831298828125</LatitudeDegrees>
              <LongitudeDegrees>20.3867899440228939056396484375</LongitudeDegrees>
            </Position>
            <AltitudeMeters>466</AltitudeMeters>
            <DistanceMeters>NAN</DistanceMeters>
          </Trackpoint>
          <Trackpoint>
            <Time>2022-09-21T09:41:47.000Z</Time>
            <Position>
              <LatitudeDegrees>49.392010979354381561279296875</LatitudeDegrees>
              <LongitudeDegrees>20.386491380631923675537109375</LongitudeDegrees>
            </Position>
            <AltitudeMeters>465.79998779296875</AltitudeMeters>
            <DistanceMeters>NAN</DistanceMeters>
          </Trackpoint>
          <Trackpoint>
            <Time>2022-09-21T09:41:56.000Z</Time>
            <Position>
              <LatitudeDegrees>49.392020367085933685302734375</LatitudeDegrees>
              <LongitudeDegrees>20.3860349021852016448974609375</LongitudeDegrees>
            </Position>
            <AltitudeMeters>466.20001220703125</AltitudeMeters>
            <DistanceMeters>NAN</DistanceMeters>
          </Trackpoint>
          <Trackpoint>
            <Time>2022-09-21T09:42:00.000Z</Time>
            <Position>
              <LatitudeDegrees>49.39201558940112590789794921875</LatitudeDegrees>
              <LongitudeDegrees>20.385798700153827667236328125</LongitudeDegrees>
            </Position>
            <AltitudeMeters>466.79998779296875</AltitudeMeters>
            <DistanceMeters>NAN</DistanceMeters>
          </Trackpoint>
          <Trackpoint>
            <Time>2022-09-21T09:42:04.000Z</Time>
            <Position>
              <LatitudeDegrees>49.39201961271464824676513671875</LatitudeDegrees>
              <LongitudeDegrees>20.3856117837131023406982421875</LongitudeDegrees>
            </Position>
            <AltitudeMeters>466.600006103515625</AltitudeMeters>
            <DistanceMeters>NAN</DistanceMeters>
          </Trackpoint>
          <Trackpoint>
            <Time>2022-09-21T09:42:09.000Z</Time>
            <Position>
              <LatitudeDegrees>49.39202229492366313934326171875</LatitudeDegrees>
              <LongitudeDegrees>20.385397709906101226806640625</LongitudeDegrees>
            </Position>
            <AltitudeMeters>466.79998779296875</AltitudeMeters>
            <DistanceMeters>NAN</DistanceMeters>
          </Trackpoint>
          <Trackpoint>
            <Time>2022-09-21T09:42:18.000Z</Time>
            <Position>
              <LatitudeDegrees>49.39205632545053958892822265625</LatitudeDegrees>
              <LongitudeDegrees>20.38497467525303363800048828125</LongitudeDegrees>
            </Position>
            <AltitudeMeters>466.600006103515625</AltitudeMeters>
            <DistanceMeters>NAN</DistanceMeters>
          </Trackpoint>
          <Trackpoint>
            <Time>2022-09-21T09:42:25.000Z</Time>
            <Position>
              <LatitudeDegrees>49.39207979477941989898681640625</LatitudeDegrees>
              <LongitudeDegrees>20.3847229667007923126220703125</LongitudeDegrees>
            </Position>
            <AltitudeMeters>466.600006103515625</AltitudeMeters>
            <DistanceMeters>NAN</DistanceMeters>
          </Trackpoint>
          <Trackpoint>
            <Time>2022-09-21T09:42:29.000Z</Time>
            <Position>
              <LatitudeDegrees>49.3920825608074665069580078125</LatitudeDegrees>
              <LongitudeDegrees>20.3846994973719120025634765625</LongitudeDegrees>
            </Position>
            <AltitudeMeters>466.20001220703125</AltitudeMeters>
            <DistanceMeters>NAN</DistanceMeters>
          </Trackpoint>
          <Trackpoint>
            <Time>2022-09-21T09:42:40.000Z</Time>
            <Position>
              <LatitudeDegrees>49.3920825608074665069580078125</LatitudeDegrees>
              <LongitudeDegrees>20.3846994973719120025634765625</LongitudeDegrees>
            </Position>
            <AltitudeMeters>466.20001220703125</AltitudeMeters>
            <DistanceMeters>NAN</DistanceMeters>
          </Trackpoint>
          <Trackpoint>
            <Time>2022-09-21T09:42:44.000Z</Time>
            <Position>
              <LatitudeDegrees>49.3920825608074665069580078125</LatitudeDegrees>
              <LongitudeDegrees>20.3846994973719120025634765625</LongitudeDegrees>
            </Position>
            <AltitudeMeters>466.20001220703125</AltitudeMeters>
            <DistanceMeters>NAN</DistanceMeters>
          </Trackpoint>
          <Trackpoint>
            <Time>2022-09-21T09:42:48.000Z</Time>
            <Position>
              <LatitudeDegrees>49.3920825608074665069580078125</LatitudeDegrees>
              <LongitudeDegrees>20.3846994973719120025634765625</LongitudeDegrees>
            </Position>
            <AltitudeMeters>466.20001220703125</AltitudeMeters>
            <DistanceMeters>NAN</DistanceMeters>
          </Trackpoint>
          <Trackpoint>
            <Time>2022-09-21T09:43:07.000Z</Time>
            <Position>
              <LatitudeDegrees>49.3920782022178173065185546875</LatitudeDegrees>
              <LongitudeDegrees>20.38460067473351955413818359375</LongitudeDegrees>
            </Position>
            <AltitudeMeters>466.20001220703125</AltitudeMeters>
            <DistanceMeters>NAN</DistanceMeters>
          </Trackpoint>
          <Trackpoint>
            <Time>2022-09-21T09:43:08.000Z</Time>
            <Position>
              <LatitudeDegrees>49.39207728020846843719482421875</LatitudeDegrees>
              <LongitudeDegrees>20.38456429727375507354736328125</LongitudeDegrees>
            </Position>
            <AltitudeMeters>466.20001220703125</AltitudeMeters>
            <DistanceMeters>NAN</DistanceMeters>
          </Trackpoint>
          <Trackpoint>
            <Time>2022-09-21T09:43:11.000Z</Time>
            <Position>
              <LatitudeDegrees>49.39206202514469623565673828125</LatitudeDegrees>
              <LongitudeDegrees>20.38440286181867122650146484375</LongitudeDegrees>
            </Position>
            <AltitudeMeters>466.20001220703125</AltitudeMeters>
            <DistanceMeters>NAN</DistanceMeters>
          </Trackpoint>
          <Trackpoint>
            <Time>2022-09-21T09:43:12.000Z</Time>
            <Position>
              <LatitudeDegrees>49.392055235803127288818359375</LatitudeDegrees>
              <LongitudeDegrees>20.38434938527643680572509765625</LongitudeDegrees>
            </Position>
            <AltitudeMeters>466.20001220703125</AltitudeMeters>
            <DistanceMeters>NAN</DistanceMeters>
          </Trackpoint>
          <Trackpoint>
            <Time>2022-09-21T09:43:19.000Z</Time>
            <Position>
              <LatitudeDegrees>49.39198390580713748931884765625</LatitudeDegrees>
              <LongitudeDegrees>20.3840081579983234405517578125</LongitudeDegrees>
            </Position>
            <AltitudeMeters>465.79998779296875</AltitudeMeters>
            <DistanceMeters>NAN</DistanceMeters>
          </Trackpoint>
          <Trackpoint>
            <Time>2022-09-21T09:43:22.000Z</Time>
            <Position>
              <LatitudeDegrees>49.3919645436108112335205078125</LatitudeDegrees>
              <LongitudeDegrees>20.383870191872119903564453125</LongitudeDegrees>
            </Position>
            <AltitudeMeters>465.79998779296875</AltitudeMeters>
            <DistanceMeters>NAN</DistanceMeters>
          </Trackpoint>
          <Trackpoint>
            <Time>2022-09-21T09:43:30.000Z</Time>
            <Position>
              <LatitudeDegrees>49.39193361438810825347900390625</LatitudeDegrees>
              <LongitudeDegrees>20.38346123881638050079345703125</LongitudeDegrees>
            </Position>
            <AltitudeMeters>466.20001220703125</AltitudeMeters>
            <DistanceMeters>NAN</DistanceMeters>
          </Trackpoint>
          <Trackpoint>
            <Time>2022-09-21T09:43:35.000Z</Time>
            <Position>
              <LatitudeDegrees>49.39195171929895877838134765625</LatitudeDegrees>
              <LongitudeDegrees>20.38323928602039813995361328125</LongitudeDegrees>
            </Position>
            <AltitudeMeters>466.20001220703125</AltitudeMeters>
            <DistanceMeters>NAN</DistanceMeters>
          </Trackpoint>
          <Trackpoint>
            <Time>2022-09-21T09:43:37.000Z</Time>
            <Position>
              <LatitudeDegrees>49.3919786252081394195556640625</LatitudeDegrees>
              <LongitudeDegrees>20.38314322941005229949951171875</LongitudeDegrees>
            </Position>
            <AltitudeMeters>466.20001220703125</AltitudeMeters>
            <DistanceMeters>NAN</DistanceMeters>
          </Trackpoint>
          <Trackpoint>
            <Time>2022-09-21T09:43:41.000Z</Time>
            <Position>
              <LatitudeDegrees>49.3920654617249965667724609375</LatitudeDegrees>
              <LongitudeDegrees>20.38300978951156139373779296875</LongitudeDegrees>
            </Position>
            <AltitudeMeters>466.399993896484375</AltitudeMeters>
            <DistanceMeters>NAN</DistanceMeters>
          </Trackpoint>
          <Trackpoint>
            <Time>2022-09-21T09:43:43.000Z</Time>
            <Position>
              <LatitudeDegrees>49.3921159207820892333984375</LatitudeDegrees>
              <LongitudeDegrees>20.38297978229820728302001953125</LongitudeDegrees>
            </Position>
            <AltitudeMeters>466.399993896484375</AltitudeMeters>
            <DistanceMeters>NAN</DistanceMeters>
          </Trackpoint>
          <Trackpoint>
            <Time>2022-09-21T09:43:49.000Z</Time>
            <Position>
              <LatitudeDegrees>49.39230727963149547576904296875</LatitudeDegrees>
              <LongitudeDegrees>20.38293871097266674041748046875</LongitudeDegrees>
            </Position>
            <AltitudeMeters>467</AltitudeMeters>
            <DistanceMeters>NAN</DistanceMeters>
          </Trackpoint>
          <Trackpoint>
            <Time>2022-09-21T09:43:54.000Z</Time>
            <Position>
              <LatitudeDegrees>49.39249268732964992523193359375</LatitudeDegrees>
              <LongitudeDegrees>20.38288875482976436614990234375</LongitudeDegrees>
            </Position>
            <AltitudeMeters>467.399993896484375</AltitudeMeters>
            <DistanceMeters>NAN</DistanceMeters>
          </Trackpoint>
          <Trackpoint>
            <Time>2022-09-21T09:44:02.000Z</Time>
            <Position>
              <LatitudeDegrees>49.39272603951394557952880859375</LatitudeDegrees>
              <LongitudeDegrees>20.38284994661808013916015625</LongitudeDegrees>
            </Position>
            <AltitudeMeters>466.20001220703125</AltitudeMeters>
            <DistanceMeters>NAN</DistanceMeters>
          </Trackpoint>
          <Trackpoint>
            <Time>2022-09-21T09:44:11.000Z</Time>
            <Position>
              <LatitudeDegrees>49.39301915466785430908203125</LatitudeDegrees>
              <LongitudeDegrees>20.3827776946127414703369140625</LongitudeDegrees>
            </Position>
            <AltitudeMeters>467</AltitudeMeters>
            <DistanceMeters>NAN</DistanceMeters>
          </Trackpoint>
          <Trackpoint>
            <Time>2022-09-21T09:44:12.000Z</Time>
            <Position>
              <LatitudeDegrees>49.3930508382618427276611328125</LatitudeDegrees>
              <LongitudeDegrees>20.3827713243663311004638671875</LongitudeDegrees>
            </Position>
            <AltitudeMeters>467</AltitudeMeters>
            <DistanceMeters>NAN</DistanceMeters>
          </Trackpoint>
          <Trackpoint>
            <Time>2022-09-21T09:44:14.000Z</Time>
            <Position>
              <LatitudeDegrees>49.39310808666050434112548828125</LatitudeDegrees>
              <LongitudeDegrees>20.38275984115898609161376953125</LongitudeDegrees>
            </Position>
            <AltitudeMeters>467</AltitudeMeters>
            <DistanceMeters>NAN</DistanceMeters>
          </Trackpoint>
          <Trackpoint>
            <Time>2022-09-21T09:44:19.000Z</Time>
            <Position>
              <LatitudeDegrees>49.393272958695888519287109375</LatitudeDegrees>
              <LongitudeDegrees>20.38270619697868824005126953125</LongitudeDegrees>
            </Position>
            <AltitudeMeters>467</AltitudeMeters>
            <DistanceMeters>NAN</DistanceMeters>
          </Trackpoint>
          <Trackpoint>
            <Time>2022-09-21T09:44:27.000Z</Time>
            <Position>
              <LatitudeDegrees>49.39352835528552532196044921875</LatitudeDegrees>
              <LongitudeDegrees>20.38264567963778972625732421875</LongitudeDegrees>
            </Position>
            <AltitudeMeters>467.20001220703125</AltitudeMeters>
            <DistanceMeters>NAN</DistanceMeters>
          </Trackpoint>
          <Trackpoint>
            <Time>2022-09-21T09:44:35.000Z</Time>
            <Position>
              <LatitudeDegrees>49.39378266222774982452392578125</LatitudeDegrees>
              <LongitudeDegrees>20.382569991052150726318359375</LongitudeDegrees>
            </Position>
            <AltitudeMeters>467.79998779296875</AltitudeMeters>
            <DistanceMeters>NAN</DistanceMeters>
          </Trackpoint>
          <Trackpoint>
            <Time>2022-09-21T09:44:44.000Z</Time>
            <Position>
              <LatitudeDegrees>49.39404786564409732818603515625</LatitudeDegrees>
              <LongitudeDegrees>20.3825233876705169677734375</LongitudeDegrees>
            </Position>
            <AltitudeMeters>467.600006103515625</AltitudeMeters>
            <DistanceMeters>NAN</DistanceMeters>
          </Trackpoint>
          <Trackpoint>
            <Time>2022-09-21T09:44:48.000Z</Time>
            <Position>
              <LatitudeDegrees>49.39417007379233837127685546875</LatitudeDegrees>
              <LongitudeDegrees>20.38252397440373897552490234375</LongitudeDegrees>
            </Position>
            <AltitudeMeters>467.79998779296875</AltitudeMeters>
            <DistanceMeters>NAN</DistanceMeters>
          </Trackpoint>
          <Trackpoint>
            <Time>2022-09-21T09:44:50.000Z</Time>
            <Position>
              <LatitudeDegrees>49.39422489143908023834228515625</LatitudeDegrees>
              <LongitudeDegrees>20.38252783007919788360595703125</LongitudeDegrees>
            </Position>
            <AltitudeMeters>467.79998779296875</AltitudeMeters>
            <DistanceMeters>NAN</DistanceMeters>
          </Trackpoint>
          <Trackpoint>
            <Time>2022-09-21T09:44:55.000Z</Time>
            <Position>
              <LatitudeDegrees>49.39439437352120876312255859375</LatitudeDegrees>
              <LongitudeDegrees>20.38255297578871250152587890625</LongitudeDegrees>
            </Position>
            <AltitudeMeters>468</AltitudeMeters>
            <DistanceMeters>NAN</DistanceMeters>
          </Trackpoint>
          <Trackpoint>
            <Time>2022-09-21T09:44:59.000Z</Time>
            <Position>
              <LatitudeDegrees>49.39453116618096828460693359375</LatitudeDegrees>
              <LongitudeDegrees>20.38255163468420505523681640625</LongitudeDegrees>
            </Position>
            <AltitudeMeters>467.79998779296875</AltitudeMeters>
            <DistanceMeters>NAN</DistanceMeters>
          </Trackpoint>
          <Trackpoint>
            <Time>2022-09-21T09:45:06.000Z</Time>
            <Position>
              <LatitudeDegrees>49.39474088139832019805908203125</LatitudeDegrees>
              <LongitudeDegrees>20.38246731273829936981201171875</LongitudeDegrees>
            </Position>
            <AltitudeMeters>468</AltitudeMeters>
            <DistanceMeters>NAN</DistanceMeters>
          </Trackpoint>
          <Trackpoint>
            <Time>2022-09-21T09:45:13.000Z</Time>
            <Position>
              <LatitudeDegrees>49.39492209814488887786865234375</LatitudeDegrees>
              <LongitudeDegrees>20.3822965733706951141357421875</LongitudeDegrees>
            </Position>
            <AltitudeMeters>468.20001220703125</AltitudeMeters>
            <DistanceMeters>NAN</DistanceMeters>
          </Trackpoint>
          <Trackpoint>
            <Time>2022-09-21T09:45:20.000Z</Time>
            <Position>
              <LatitudeDegrees>49.3951101042330265045166015625</LatitudeDegrees>
              <LongitudeDegrees>20.3822057135403156280517578125</LongitudeDegrees>
            </Position>
            <AltitudeMeters>468.399993896484375</AltitudeMeters>
            <DistanceMeters>NAN</DistanceMeters>
          </Trackpoint>
          <Trackpoint>
            <Time>2022-09-21T09:45:26.000Z</Time>
            <Position>
              <LatitudeDegrees>49.3952891416847705841064453125</LatitudeDegrees>
              <LongitudeDegrees>20.38215952925384044647216796875</LongitudeDegrees>
            </Position>
            <AltitudeMeters>468.399993896484375</AltitudeMeters>
            <DistanceMeters>NAN</DistanceMeters>
          </Trackpoint>
          <Trackpoint>
            <Time>2022-09-21T09:45:28.000Z</Time>
            <Position>
              <LatitudeDegrees>49.3953426182270050048828125</LatitudeDegrees>
              <LongitudeDegrees>20.38215349428355693817138671875</LongitudeDegrees>
            </Position>
            <AltitudeMeters>468.399993896484375</AltitudeMeters>
            <DistanceMeters>NAN</DistanceMeters>
          </Trackpoint>
          <Trackpoint>
            <Time>2022-09-21T09:45:35.000Z</Time>
            <Position>
              <LatitudeDegrees>49.3955597095191478729248046875</LatitudeDegrees>
              <LongitudeDegrees>20.38214343599975109100341796875</LongitudeDegrees>
            </Position>
            <AltitudeMeters>466.600006103515625</AltitudeMeters>
            <DistanceMeters>NAN</DistanceMeters>
          </Trackpoint>
          <Trackpoint>
            <Time>2022-09-21T09:45:36.000Z</Time>
            <Position>
              <LatitudeDegrees>49.39558678306639194488525390625</LatitudeDegrees>
              <LongitudeDegrees>20.38214645348489284515380859375</LongitudeDegrees>
            </Position>
            <AltitudeMeters>466.600006103515625</AltitudeMeters>
            <DistanceMeters>NAN</DistanceMeters>
          </Trackpoint>
          <Trackpoint>
            <Time>2022-09-21T09:45:44.000Z</Time>
            <Position>
              <LatitudeDegrees>49.39576976001262664794921875</LatitudeDegrees>
              <LongitudeDegrees>20.382125079631805419921875</LongitudeDegrees>
            </Position>
            <AltitudeMeters>466.79998779296875</AltitudeMeters>
            <DistanceMeters>NAN</DistanceMeters>
          </Trackpoint>
          <Trackpoint>
            <Time>2022-09-21T09:45:52.000Z</Time>
            <Position>
              <LatitudeDegrees>49.3959908746182918548583984375</LatitudeDegrees>
              <LongitudeDegrees>20.38210873492062091827392578125</LongitudeDegrees>
            </Position>
            <AltitudeMeters>466.79998779296875</AltitudeMeters>
            <DistanceMeters>NAN</DistanceMeters>
          </Trackpoint>
          <Trackpoint>
            <Time>2022-09-21T09:45:54.000Z</Time>
            <Position>
              <LatitudeDegrees>49.39603663980960845947265625</LatitudeDegrees>
              <LongitudeDegrees>20.38211896084249019622802734375</LongitudeDegrees>
            </Position>
            <AltitudeMeters>467.20001220703125</AltitudeMeters>
            <DistanceMeters>NAN</DistanceMeters>
          </Trackpoint>
          <Trackpoint>
            <Time>2022-09-21T09:45:58.000Z</Time>
            <Position>
              <LatitudeDegrees>49.3961298465728759765625</LatitudeDegrees>
              <LongitudeDegrees>20.38218685425817966461181640625</LongitudeDegrees>
            </Position>
            <AltitudeMeters>467.20001220703125</AltitudeMeters>
            <DistanceMeters>NAN</DistanceMeters>
          </Trackpoint>
          <Trackpoint>
            <Time>2022-09-21T09:46:02.000Z</Time>
            <Position>
              <LatitudeDegrees>49.39614837057888507843017578125</LatitudeDegrees>
              <LongitudeDegrees>20.38230269216001033782958984375</LongitudeDegrees>
            </Position>
            <AltitudeMeters>467.79998779296875</AltitudeMeters>
            <DistanceMeters>NAN</DistanceMeters>
          </Trackpoint>
          <Trackpoint>
            <Time>2022-09-21T09:46:03.000Z</Time>
            <Position>
              <LatitudeDegrees>49.3961407430469989776611328125</LatitudeDegrees>
              <LongitudeDegrees>20.38231777958571910858154296875</LongitudeDegrees>
            </Position>
            <AltitudeMeters>467.79998779296875</AltitudeMeters>
            <DistanceMeters>NAN</DistanceMeters>
          </Trackpoint>
          <Trackpoint>
            <Time>2022-09-21T09:46:08.000Z</Time>
            <Position>
              <LatitudeDegrees>49.39612842164933681488037109375</LatitudeDegrees>
              <LongitudeDegrees>20.3823383152484893798828125</LongitudeDegrees>
            </Position>
            <AltitudeMeters>468</AltitudeMeters>
            <DistanceMeters>NAN</DistanceMeters>
          </Trackpoint>
          <Trackpoint>
            <Time>2022-09-21T09:46:14.000Z</Time>
            <Position>
              <LatitudeDegrees>49.39608600921928882598876953125</LatitudeDegrees>
              <LongitudeDegrees>20.382382236421108245849609375</LongitudeDegrees>
            </Position>
            <AltitudeMeters>468.20001220703125</AltitudeMeters>
            <DistanceMeters>NAN</DistanceMeters>
          </Trackpoint>
          <Trackpoint>
            <Time>2022-09-21T09:46:21.000Z</Time>
            <Position>
              <LatitudeDegrees>49.39608835615217685699462890625</LatitudeDegrees>
              <LongitudeDegrees>20.38238190114498138427734375</LongitudeDegrees>
            </Position>
            <AltitudeMeters>468.20001220703125</AltitudeMeters>
            <DistanceMeters>NAN</DistanceMeters>
          </Trackpoint>
          <Trackpoint>
            <Time>2022-09-21T09:46:32.000Z</Time>
            <Position>
              <LatitudeDegrees>49.39608835615217685699462890625</LatitudeDegrees>
              <LongitudeDegrees>20.38238190114498138427734375</LongitudeDegrees>
            </Position>
            <AltitudeMeters>468.20001220703125</AltitudeMeters>
            <DistanceMeters>NAN</DistanceMeters>
          </Trackpoint>
          <Trackpoint>
            <Time>2022-09-21T09:46:36.000Z</Time>
            <Position>
              <LatitudeDegrees>49.39608835615217685699462890625</LatitudeDegrees>
              <LongitudeDegrees>20.38238190114498138427734375</LongitudeDegrees>
            </Position>
            <AltitudeMeters>468.20001220703125</AltitudeMeters>
            <DistanceMeters>NAN</DistanceMeters>
          </Trackpoint>
          <Trackpoint>
            <Time>2022-09-21T09:46:47.000Z</Time>
            <Position>
              <LatitudeDegrees>49.39605675637722015380859375</LatitudeDegrees>
              <LongitudeDegrees>20.3824160993099212646484375</LongitudeDegrees>
            </Position>
            <AltitudeMeters>468</AltitudeMeters>
            <DistanceMeters>NAN</DistanceMeters>
          </Trackpoint>
          <Trackpoint>
            <Time>2022-09-21T09:46:57.000Z</Time>
            <Position>
              <LatitudeDegrees>49.39605231396853923797607421875</LatitudeDegrees>
              <LongitudeDegrees>20.38241836242377758026123046875</LongitudeDegrees>
            </Position>
            <AltitudeMeters>468.20001220703125</AltitudeMeters>
            <DistanceMeters>NAN</DistanceMeters>
          </Trackpoint>
          <Trackpoint>
            <Time>2022-09-21T09:47:01.000Z</Time>
            <Position>
              <LatitudeDegrees>49.39605231396853923797607421875</LatitudeDegrees>
              <LongitudeDegrees>20.38241945207118988037109375</LongitudeDegrees>
            </Position>
            <AltitudeMeters>468.20001220703125</AltitudeMeters>
            <DistanceMeters>NAN</DistanceMeters>
          </Trackpoint>
          <Trackpoint>
            <Time>2022-09-21T09:47:10.000Z</Time>
            <Position>
              <LatitudeDegrees>49.39604745246469974517822265625</LatitudeDegrees>
              <LongitudeDegrees>20.3824263252317905426025390625</LongitudeDegrees>
            </Position>
            <AltitudeMeters>468.20001220703125</AltitudeMeters>
            <DistanceMeters>NAN</DistanceMeters>
          </Trackpoint>
          <Trackpoint>
            <Time>2022-09-21T09:47:14.000Z</Time>
            <Position>
              <LatitudeDegrees>49.39604745246469974517822265625</LatitudeDegrees>
              <LongitudeDegrees>20.3824263252317905426025390625</LongitudeDegrees>
            </Position>
            <AltitudeMeters>468.20001220703125</AltitudeMeters>
            <DistanceMeters>NAN</DistanceMeters>
          </Trackpoint>
          <Trackpoint>
            <Time>2022-09-21T09:47:16.000Z</Time>
            <Position>
              <LatitudeDegrees>49.39604745246469974517822265625</LatitudeDegrees>
              <LongitudeDegrees>20.3824263252317905426025390625</LongitudeDegrees>
            </Position>
            <AltitudeMeters>468.20001220703125</AltitudeMeters>
            <DistanceMeters>NAN</DistanceMeters>
          </Trackpoint>
          <Trackpoint>
            <Time>2022-09-21T09:47:30.000Z</Time>
            <Position>
              <LatitudeDegrees>49.39604745246469974517822265625</LatitudeDegrees>
              <LongitudeDegrees>20.3824263252317905426025390625</LongitudeDegrees>
            </Position>
            <AltitudeMeters>468.20001220703125</AltitudeMeters>
            <DistanceMeters>NAN</DistanceMeters>
          </Trackpoint>
          <Trackpoint>
            <Time>2022-09-21T09:47:32.000Z</Time>
            <Position>
              <LatitudeDegrees>49.39604745246469974517822265625</LatitudeDegrees>
              <LongitudeDegrees>20.3824263252317905426025390625</LongitudeDegrees>
            </Position>
            <AltitudeMeters>468.20001220703125</AltitudeMeters>
            <DistanceMeters>NAN</DistanceMeters>
          </Trackpoint>
          <Trackpoint>
            <Time>2022-09-21T09:47:42.000Z</Time>
            <Position>
              <LatitudeDegrees>49.39604745246469974517822265625</LatitudeDegrees>
              <LongitudeDegrees>20.3824263252317905426025390625</LongitudeDegrees>
            </Position>
            <AltitudeMeters>468.20001220703125</AltitudeMeters>
            <DistanceMeters>NAN</DistanceMeters>
          </Trackpoint>
          <Trackpoint>
            <Time>2022-09-21T09:47:51.000Z</Time>
            <Position>
              <LatitudeDegrees>49.39604745246469974517822265625</LatitudeDegrees>
              <LongitudeDegrees>20.3824263252317905426025390625</LongitudeDegrees>
            </Position>
            <AltitudeMeters>468.20001220703125</AltitudeMeters>
            <DistanceMeters>NAN</DistanceMeters>
          </Trackpoint>
          <Trackpoint>
            <Time>2022-09-21T09:48:02.000Z</Time>
            <Position>
              <LatitudeDegrees>49.39604745246469974517822265625</LatitudeDegrees>
              <LongitudeDegrees>20.3824263252317905426025390625</LongitudeDegrees>
            </Position>
            <AltitudeMeters>468.20001220703125</AltitudeMeters>
            <DistanceMeters>NAN</DistanceMeters>
          </Trackpoint>
          <Trackpoint>
            <Time>2022-09-21T09:48:08.000Z</Time>
            <Position>
              <LatitudeDegrees>49.39604745246469974517822265625</LatitudeDegrees>
              <LongitudeDegrees>20.3824263252317905426025390625</LongitudeDegrees>
            </Position>
            <AltitudeMeters>468.20001220703125</AltitudeMeters>
            <DistanceMeters>NAN</DistanceMeters>
          </Trackpoint>
          <Trackpoint>
            <Time>2022-09-21T09:48:48.000Z</Time>
            <Position>
              <LatitudeDegrees>49.39604745246469974517822265625</LatitudeDegrees>
              <LongitudeDegrees>20.3824263252317905426025390625</LongitudeDegrees>
            </Position>
            <AltitudeMeters>468.20001220703125</AltitudeMeters>
            <DistanceMeters>NAN</DistanceMeters>
          </Trackpoint>
          <Trackpoint>
            <Time>2022-09-21T09:48:52.000Z</Time>
            <Position>
              <LatitudeDegrees>49.39604745246469974517822265625</LatitudeDegrees>
              <LongitudeDegrees>20.3824266605079174041748046875</LongitudeDegrees>
            </Position>
            <AltitudeMeters>468.20001220703125</AltitudeMeters>
            <DistanceMeters>NAN</DistanceMeters>
          </Trackpoint>
          <Trackpoint>
            <Time>2022-09-21T09:48:59.000Z</Time>
            <Position>
              <LatitudeDegrees>49.39604745246469974517822265625</LatitudeDegrees>
              <LongitudeDegrees>20.3824266605079174041748046875</LongitudeDegrees>
            </Position>
            <AltitudeMeters>468.20001220703125</AltitudeMeters>
            <DistanceMeters>NAN</DistanceMeters>
          </Trackpoint>
          <Trackpoint>
            <Time>2022-09-21T09:49:05.000Z</Time>
            <Position>
              <LatitudeDegrees>49.39601727761328220367431640625</LatitudeDegrees>
              <LongitudeDegrees>20.38247720338404178619384765625</LongitudeDegrees>
            </Position>
            <AltitudeMeters>468.20001220703125</AltitudeMeters>
            <DistanceMeters>NAN</DistanceMeters>
          </Trackpoint>
          <Trackpoint>
            <Time>2022-09-21T09:49:06.000Z</Time>
            <Position>
              <LatitudeDegrees>49.39599665813148021697998046875</LatitudeDegrees>
              <LongitudeDegrees>20.3824953921139240264892578125</LongitudeDegrees>
            </Position>
            <AltitudeMeters>468.20001220703125</AltitudeMeters>
            <DistanceMeters>NAN</DistanceMeters>
          </Trackpoint>
          <Trackpoint>
            <Time>2022-09-21T09:49:11.000Z</Time>
            <Position>
              <LatitudeDegrees>49.39586363732814788818359375</LatitudeDegrees>
              <LongitudeDegrees>20.3826405666768550872802734375</LongitudeDegrees>
            </Position>
            <AltitudeMeters>468.20001220703125</AltitudeMeters>
            <DistanceMeters>NAN</DistanceMeters>
          </Trackpoint>
          <Trackpoint>
            <Time>2022-09-21T09:49:21.000Z</Time>
            <Position>
              <LatitudeDegrees>49.39561042003333568572998046875</LatitudeDegrees>
              <LongitudeDegrees>20.382877103984355926513671875</LongitudeDegrees>
            </Position>
            <AltitudeMeters>467.79998779296875</AltitudeMeters>
            <DistanceMeters>NAN</DistanceMeters>
          </Trackpoint>
          <Trackpoint>
            <Time>2022-09-21T09:49:27.000Z</Time>
            <Position>
              <LatitudeDegrees>49.39546323381364345550537109375</LatitudeDegrees>
              <LongitudeDegrees>20.38301817141473293304443359375</LongitudeDegrees>
            </Position>
            <AltitudeMeters>467.79998779296875</AltitudeMeters>
            <DistanceMeters>NAN</DistanceMeters>
          </Trackpoint>
          <Trackpoint>
            <Time>2022-09-21T09:49:30.000Z</Time>
            <Position>
              <LatitudeDegrees>49.39539114944636821746826171875</LatitudeDegrees>
              <LongitudeDegrees>20.3831585682928562164306640625</LongitudeDegrees>
            </Position>
            <AltitudeMeters>467.79998779296875</AltitudeMeters>
            <DistanceMeters>NAN</DistanceMeters>
          </Trackpoint>
          <Trackpoint>
            <Time>2022-09-21T09:49:32.000Z</Time>
            <Position>
              <LatitudeDegrees>49.3953533470630645751953125</LatitudeDegrees>
              <LongitudeDegrees>20.3832863084971904754638671875</LongitudeDegrees>
            </Position>
            <AltitudeMeters>467.79998779296875</AltitudeMeters>
            <DistanceMeters>NAN</DistanceMeters>
          </Trackpoint>
          <Trackpoint>
            <Time>2022-09-21T09:49:39.000Z</Time>
            <Position>
              <LatitudeDegrees>49.395253099501132965087890625</LatitudeDegrees>
              <LongitudeDegrees>20.3836879692971706390380859375</LongitudeDegrees>
            </Position>
            <AltitudeMeters>468</AltitudeMeters>
            <DistanceMeters>NAN</DistanceMeters>
          </Trackpoint>
          <Trackpoint>
            <Time>2022-09-21T09:49:47.000Z</Time>
            <Position>
              <LatitudeDegrees>49.3951436318457126617431640625</LatitudeDegrees>
              <LongitudeDegrees>20.38402047939598560333251953125</LongitudeDegrees>
            </Position>
            <AltitudeMeters>468.399993896484375</AltitudeMeters>
            <DistanceMeters>NAN</DistanceMeters>
          </Trackpoint>
          <Trackpoint>
            <Time>2022-09-21T09:49:53.000Z</Time>
            <Position>
              <LatitudeDegrees>49.39502410590648651123046875</LatitudeDegrees>
              <LongitudeDegrees>20.3842938132584095001220703125</LongitudeDegrees>
            </Position>
            <AltitudeMeters>468.600006103515625</AltitudeMeters>
            <DistanceMeters>NAN</DistanceMeters>
          </Trackpoint>
          <Trackpoint>
            <Time>2022-09-21T09:49:59.000Z</Time>
            <Position>
              <LatitudeDegrees>49.39488463103771209716796875</LatitudeDegrees>
              <LongitudeDegrees>20.384581647813320159912109375</LongitudeDegrees>
            </Position>
            <AltitudeMeters>468.399993896484375</AltitudeMeters>
            <DistanceMeters>NAN</DistanceMeters>
          </Trackpoint>
          <Trackpoint>
            <Time>2022-09-21T09:50:07.000Z</Time>
            <Position>
              <LatitudeDegrees>49.39471573568880558013916015625</LatitudeDegrees>
              <LongitudeDegrees>20.38492891006171703338623046875</LongitudeDegrees>
            </Position>
            <AltitudeMeters>468.20001220703125</AltitudeMeters>
            <DistanceMeters>NAN</DistanceMeters>
          </Trackpoint>
          <Trackpoint>
            <Time>2022-09-21T09:50:15.000Z</Time>
            <Position>
              <LatitudeDegrees>49.39453837461769580841064453125</LatitudeDegrees>
              <LongitudeDegrees>20.385378263890743255615234375</LongitudeDegrees>
            </Position>
            <AltitudeMeters>468.399993896484375</AltitudeMeters>
            <DistanceMeters>NAN</DistanceMeters>
          </Trackpoint>
          <Trackpoint>
            <Time>2022-09-21T09:50:23.000Z</Time>
            <Position>
              <LatitudeDegrees>49.3944574892520904541015625</LatitudeDegrees>
              <LongitudeDegrees>20.38579962216317653656005859375</LongitudeDegrees>
            </Position>
            <AltitudeMeters>468.20001220703125</AltitudeMeters>
            <DistanceMeters>NAN</DistanceMeters>
          </Trackpoint>
          <Trackpoint>
            <Time>2022-09-21T09:50:30.000Z</Time>
            <Position>
              <LatitudeDegrees>49.39442119561135768890380859375</LatitudeDegrees>
              <LongitudeDegrees>20.38622072897851467132568359375</LongitudeDegrees>
            </Position>
            <AltitudeMeters>468.79998779296875</AltitudeMeters>
            <DistanceMeters>NAN</DistanceMeters>
          </Trackpoint>
          <Trackpoint>
            <Time>2022-09-21T09:50:31.000Z</Time>
            <Position>
              <LatitudeDegrees>49.39441096968948841094970703125</LatitudeDegrees>
              <LongitudeDegrees>20.3862892091274261474609375</LongitudeDegrees>
            </Position>
            <AltitudeMeters>468.79998779296875</AltitudeMeters>
            <DistanceMeters>NAN</DistanceMeters>
          </Trackpoint>
          <Trackpoint>
            <Time>2022-09-21T09:50:37.000Z</Time>
            <Position>
              <LatitudeDegrees>49.39437006600201129913330078125</LatitudeDegrees>
              <LongitudeDegrees>20.38664393126964569091796875</LongitudeDegrees>
            </Position>
            <AltitudeMeters>469.20001220703125</AltitudeMeters>
            <DistanceMeters>NAN</DistanceMeters>
          </Trackpoint>
          <Trackpoint>
            <Time>2022-09-21T09:50:48.000Z</Time>
            <Position>
              <LatitudeDegrees>49.394293539226055145263671875</LatitudeDegrees>
              <LongitudeDegrees>20.3872435726225376129150390625</LongitudeDegrees>
            </Position>
            <AltitudeMeters>469.79998779296875</AltitudeMeters>
            <DistanceMeters>NAN</DistanceMeters>
          </Trackpoint>
          <Trackpoint>
            <Time>2022-09-21T09:50:57.000Z</Time>
            <Position>
              <LatitudeDegrees>49.3942524679005146026611328125</LatitudeDegrees>
              <LongitudeDegrees>20.3876412101089954376220703125</LongitudeDegrees>
            </Position>
            <AltitudeMeters>470.20001220703125</AltitudeMeters>
            <DistanceMeters>NAN</DistanceMeters>
          </Trackpoint>
          <Trackpoint>
            <Time>2022-09-21T09:51:05.000Z</Time>
            <Position>
              <LatitudeDegrees>49.39421768300235271453857421875</LatitudeDegrees>
              <LongitudeDegrees>20.3879302181303501129150390625</LongitudeDegrees>
            </Position>
            <AltitudeMeters>470.20001220703125</AltitudeMeters>
            <DistanceMeters>NAN</DistanceMeters>
          </Trackpoint>
          <Trackpoint>
            <Time>2022-09-21T09:51:13.000Z</Time>
            <Position>
              <LatitudeDegrees>49.39418817870318889617919921875</LatitudeDegrees>
              <LongitudeDegrees>20.3882949985563755035400390625</LongitudeDegrees>
            </Position>
            <AltitudeMeters>469.79998779296875</AltitudeMeters>
            <DistanceMeters>NAN</DistanceMeters>
          </Trackpoint>
          <Trackpoint>
            <Time>2022-09-21T09:51:19.000Z</Time>
            <Position>
              <LatitudeDegrees>49.3941455148160457611083984375</LatitudeDegrees>
              <LongitudeDegrees>20.38870093412697315216064453125</LongitudeDegrees>
            </Position>
            <AltitudeMeters>469</AltitudeMeters>
            <DistanceMeters>NAN</DistanceMeters>
          </Trackpoint>
          <Trackpoint>
            <Time>2022-09-21T09:51:20.000Z</Time>
            <Position>
              <LatitudeDegrees>49.3941374681890010833740234375</LatitudeDegrees>
              <LongitudeDegrees>20.38876379840075969696044921875</LongitudeDegrees>
            </Position>
            <AltitudeMeters>468.79998779296875</AltitudeMeters>
            <DistanceMeters>NAN</DistanceMeters>
          </Trackpoint>
          <Trackpoint>
            <Time>2022-09-21T09:51:24.000Z</Time>
            <Position>
              <LatitudeDegrees>49.39411089755594730377197265625</LatitudeDegrees>
              <LongitudeDegrees>20.3891187720000743865966796875</LongitudeDegrees>
            </Position>
            <AltitudeMeters>468.399993896484375</AltitudeMeters>
            <DistanceMeters>NAN</DistanceMeters>
          </Trackpoint>
          <Trackpoint>
            <Time>2022-09-21T09:51:25.000Z</Time>
            <Position>
              <LatitudeDegrees>49.3941052816808223724365234375</LatitudeDegrees>
              <LongitudeDegrees>20.38920971564948558807373046875</LongitudeDegrees>
            </Position>
            <AltitudeMeters>468.20001220703125</AltitudeMeters>
            <DistanceMeters>NAN</DistanceMeters>
          </Trackpoint>
          <Trackpoint>
            <Time>2022-09-21T09:51:28.000Z</Time>
            <Position>
              <LatitudeDegrees>49.39407988451421260833740234375</LatitudeDegrees>
              <LongitudeDegrees>20.389462597668170928955078125</LongitudeDegrees>
            </Position>
            <AltitudeMeters>467.79998779296875</AltitudeMeters>
            <DistanceMeters>NAN</DistanceMeters>
          </Trackpoint>
          <Trackpoint>
            <Time>2022-09-21T09:51:29.000Z</Time>
            <Position>
              <LatitudeDegrees>49.39406865276396274566650390625</LatitudeDegrees>
              <LongitudeDegrees>20.38955152966082096099853515625</LongitudeDegrees>
            </Position>
            <AltitudeMeters>467.79998779296875</AltitudeMeters>
            <DistanceMeters>NAN</DistanceMeters>
          </Trackpoint>
          <Trackpoint>
            <Time>2022-09-21T09:51:33.000Z</Time>
            <Position>
              <LatitudeDegrees>49.39402070827782154083251953125</LatitudeDegrees>
              <LongitudeDegrees>20.38994170725345611572265625</LongitudeDegrees>
            </Position>
            <AltitudeMeters>467.399993896484375</AltitudeMeters>
            <DistanceMeters>NAN</DistanceMeters>
          </Trackpoint>
          <Trackpoint>
            <Time>2022-09-21T09:51:38.000Z</Time>
            <Position>
              <LatitudeDegrees>49.39395281486213207244873046875</LatitudeDegrees>
              <LongitudeDegrees>20.39039324037730693817138671875</LongitudeDegrees>
            </Position>
            <AltitudeMeters>466.600006103515625</AltitudeMeters>
            <DistanceMeters>NAN</DistanceMeters>
          </Trackpoint>
          <Trackpoint>
            <Time>2022-09-21T09:51:41.000Z</Time>
            <Position>
              <LatitudeDegrees>49.393903948366641998291015625</LatitudeDegrees>
              <LongitudeDegrees>20.3906570188701152801513671875</LongitudeDegrees>
            </Position>
            <AltitudeMeters>466.399993896484375</AltitudeMeters>
            <DistanceMeters>NAN</DistanceMeters>
          </Trackpoint>
          <Trackpoint>
            <Time>2022-09-21T09:51:44.000Z</Time>
            <Position>
              <LatitudeDegrees>49.39384317956864833831787109375</LatitudeDegrees>
              <LongitudeDegrees>20.390900932252407073974609375</LongitudeDegrees>
            </Position>
            <AltitudeMeters>466.20001220703125</AltitudeMeters>
            <DistanceMeters>NAN</DistanceMeters>
          </Trackpoint>
          <Trackpoint>
            <Time>2022-09-21T09:51:46.000Z</Time>
            <Position>
              <LatitudeDegrees>49.39380504190921783447265625</LatitudeDegrees>
              <LongitudeDegrees>20.3910513035953044891357421875</LongitudeDegrees>
            </Position>
            <AltitudeMeters>466.20001220703125</AltitudeMeters>
            <DistanceMeters>NAN</DistanceMeters>
          </Trackpoint>
          <Trackpoint>
            <Time>2022-09-21T09:51:48.000Z</Time>
            <Position>
              <LatitudeDegrees>49.39376749098300933837890625</LatitudeDegrees>
              <LongitudeDegrees>20.39119823835790157318115234375</LongitudeDegrees>
            </Position>
            <AltitudeMeters>466.20001220703125</AltitudeMeters>
            <DistanceMeters>NAN</DistanceMeters>
          </Trackpoint>
          <Trackpoint>
            <Time>2022-09-21T09:51:51.000Z</Time>
            <Position>
              <LatitudeDegrees>49.393707476556301116943359375</LatitudeDegrees>
              <LongitudeDegrees>20.3914110548794269561767578125</LongitudeDegrees>
            </Position>
            <AltitudeMeters>466.20001220703125</AltitudeMeters>
            <DistanceMeters>NAN</DistanceMeters>
          </Trackpoint>
          <Trackpoint>
            <Time>2022-09-21T09:51:58.000Z</Time>
            <Position>
              <LatitudeDegrees>49.39358468167483806610107421875</LatitudeDegrees>
              <LongitudeDegrees>20.3918257914483547210693359375</LongitudeDegrees>
            </Position>
            <AltitudeMeters>466.20001220703125</AltitudeMeters>
            <DistanceMeters>NAN</DistanceMeters>
          </Trackpoint>
          <Trackpoint>
            <Time>2022-09-21T09:52:02.000Z</Time>
            <Position>
              <LatitudeDegrees>49.3935316242277622222900390625</LatitudeDegrees>
              <LongitudeDegrees>20.39208118803799152374267578125</LongitudeDegrees>
            </Position>
            <AltitudeMeters>466</AltitudeMeters>
            <DistanceMeters>NAN</DistanceMeters>
          </Trackpoint>
          <Trackpoint>
            <Time>2022-09-21T09:52:07.000Z</Time>
            <Position>
              <LatitudeDegrees>49.3934615515172481536865234375</LatitudeDegrees>
              <LongitudeDegrees>20.39236231707036495208740234375</LongitudeDegrees>
            </Position>
            <AltitudeMeters>465.79998779296875</AltitudeMeters>
            <DistanceMeters>NAN</DistanceMeters>
          </Trackpoint>
          <Trackpoint>
            <Time>2022-09-21T09:52:15.000Z</Time>
            <Position>
              <LatitudeDegrees>49.39339198172092437744140625</LatitudeDegrees>
              <LongitudeDegrees>20.392796583473682403564453125</LongitudeDegrees>
            </Position>
            <AltitudeMeters>465.79998779296875</AltitudeMeters>
            <DistanceMeters>NAN</DistanceMeters>
          </Trackpoint>
          <Trackpoint>
            <Time>2022-09-21T09:52:20.000Z</Time>
            <Position>
              <LatitudeDegrees>49.39336918294429779052734375</LatitudeDegrees>
              <LongitudeDegrees>20.39307494647800922393798828125</LongitudeDegrees>
            </Position>
            <AltitudeMeters>466</AltitudeMeters>
            <DistanceMeters>NAN</DistanceMeters>
          </Trackpoint>
          <Trackpoint>
            <Time>2022-09-21T09:52:24.000Z</Time>
            <Position>
              <LatitudeDegrees>49.39335987903177738189697265625</LatitudeDegrees>
              <LongitudeDegrees>20.3933139145374298095703125</LongitudeDegrees>
            </Position>
            <AltitudeMeters>466</AltitudeMeters>
            <DistanceMeters>NAN</DistanceMeters>
          </Trackpoint>
          <Trackpoint>
            <Time>2022-09-21T09:52:25.000Z</Time>
            <Position>
              <LatitudeDegrees>49.39335350878536701202392578125</LatitudeDegrees>
              <LongitudeDegrees>20.39337183348834514617919921875</LongitudeDegrees>
            </Position>
            <AltitudeMeters>466</AltitudeMeters>
            <DistanceMeters>NAN</DistanceMeters>
          </Trackpoint>
          <Trackpoint>
            <Time>2022-09-21T09:52:32.000Z</Time>
            <Position>
              <LatitudeDegrees>49.39332081936299800872802734375</LatitudeDegrees>
              <LongitudeDegrees>20.39379847235977649688720703125</LongitudeDegrees>
            </Position>
            <AltitudeMeters>466.20001220703125</AltitudeMeters>
            <DistanceMeters>NAN</DistanceMeters>
          </Trackpoint>
          <Trackpoint>
            <Time>2022-09-21T09:52:35.000Z</Time>
            <Position>
              <LatitudeDegrees>49.3933173827826976776123046875</LatitudeDegrees>
              <LongitudeDegrees>20.3939598239958286285400390625</LongitudeDegrees>
            </Position>
            <AltitudeMeters>466.20001220703125</AltitudeMeters>
            <DistanceMeters>NAN</DistanceMeters>
          </Trackpoint>
          <Trackpoint>
            <Time>2022-09-21T09:52:44.000Z</Time>
            <Position>
              <LatitudeDegrees>49.393297098577022552490234375</LatitudeDegrees>
              <LongitudeDegrees>20.39445343427360057830810546875</LongitudeDegrees>
            </Position>
            <AltitudeMeters>466.20001220703125</AltitudeMeters>
            <DistanceMeters>NAN</DistanceMeters>
          </Trackpoint>
          <Trackpoint>
            <Time>2022-09-21T09:52:54.000Z</Time>
            <Position>
              <LatitudeDegrees>49.39325510524213314056396484375</LatitudeDegrees>
              <LongitudeDegrees>20.3950573503971099853515625</LongitudeDegrees>
            </Position>
            <AltitudeMeters>465.600006103515625</AltitudeMeters>
            <DistanceMeters>NAN</DistanceMeters>
          </Trackpoint>
          <Trackpoint>
            <Time>2022-09-21T09:53:01.000Z</Time>
            <Position>
              <LatitudeDegrees>49.39322174526751041412353515625</LatitudeDegrees>
              <LongitudeDegrees>20.3955825604498386383056640625</LongitudeDegrees>
            </Position>
            <AltitudeMeters>464.600006103515625</AltitudeMeters>
            <DistanceMeters>NAN</DistanceMeters>
          </Trackpoint>
          <Trackpoint>
            <Time>2022-09-21T09:53:02.000Z</Time>
            <Position>
              <LatitudeDegrees>49.39321571029722690582275390625</LatitudeDegrees>
              <LongitudeDegrees>20.39566109888255596160888671875</LongitudeDegrees>
            </Position>
            <AltitudeMeters>464.399993896484375</AltitudeMeters>
            <DistanceMeters>NAN</DistanceMeters>
          </Trackpoint>
          <Trackpoint>
            <Time>2022-09-21T09:53:03.000Z</Time>
            <Position>
              <LatitudeDegrees>49.393209256231784820556640625</LatitudeDegrees>
              <LongitudeDegrees>20.395740307867527008056640625</LongitudeDegrees>
            </Position>
            <AltitudeMeters>464.399993896484375</AltitudeMeters>
            <DistanceMeters>NAN</DistanceMeters>
          </Trackpoint>
          <Trackpoint>
            <Time>2022-09-21T09:53:05.000Z</Time>
            <Position>
              <LatitudeDegrees>49.39319483935832977294921875</LatitudeDegrees>
              <LongitudeDegrees>20.3958987258374691009521484375</LongitudeDegrees>
            </Position>
            <AltitudeMeters>464</AltitudeMeters>
            <DistanceMeters>NAN</DistanceMeters>
          </Trackpoint>
          <Trackpoint>
            <Time>2022-09-21T09:53:10.000Z</Time>
            <Position>
              <LatitudeDegrees>49.39314647577702999114990234375</LatitudeDegrees>
              <LongitudeDegrees>20.39631136693060398101806640625</LongitudeDegrees>
            </Position>
            <AltitudeMeters>463.399993896484375</AltitudeMeters>
            <DistanceMeters>NAN</DistanceMeters>
          </Trackpoint>
          <Trackpoint>
            <Time>2022-09-21T09:53:11.000Z</Time>
            <Position>
              <LatitudeDegrees>49.3931366689503192901611328125</LatitudeDegrees>
              <LongitudeDegrees>20.3963989578187465667724609375</LongitudeDegrees>
            </Position>
            <AltitudeMeters>463.20001220703125</AltitudeMeters>
            <DistanceMeters>NAN</DistanceMeters>
          </Trackpoint>
          <Trackpoint>
            <Time>2022-09-21T09:53:18.000Z</Time>
            <Position>
              <LatitudeDegrees>49.393015801906585693359375</LatitudeDegrees>
              <LongitudeDegrees>20.39701444096863269805908203125</LongitudeDegrees>
            </Position>
            <AltitudeMeters>462.600006103515625</AltitudeMeters>
            <DistanceMeters>NAN</DistanceMeters>
          </Trackpoint>
          <Trackpoint>
            <Time>2022-09-21T09:53:19.000Z</Time>
            <Position>
              <LatitudeDegrees>49.3929925002157688140869140625</LatitudeDegrees>
              <LongitudeDegrees>20.39709649980068206787109375</LongitudeDegrees>
            </Position>
            <AltitudeMeters>462.399993896484375</AltitudeMeters>
            <DistanceMeters>NAN</DistanceMeters>
          </Trackpoint>
          <Trackpoint>
            <Time>2022-09-21T09:53:26.000Z</Time>
            <Position>
              <LatitudeDegrees>49.39284170977771282196044921875</LatitudeDegrees>
              <LongitudeDegrees>20.3976746834814548492431640625</LongitudeDegrees>
            </Position>
            <AltitudeMeters>461.79998779296875</AltitudeMeters>
            <DistanceMeters>NAN</DistanceMeters>
          </Trackpoint>
          <Trackpoint>
            <Time>2022-09-21T09:53:28.000Z</Time>
            <Position>
              <LatitudeDegrees>49.39280348829925060272216796875</LatitudeDegrees>
              <LongitudeDegrees>20.3978436626493930816650390625</LongitudeDegrees>
            </Position>
            <AltitudeMeters>461.79998779296875</AltitudeMeters>
            <DistanceMeters>NAN</DistanceMeters>
          </Trackpoint>
          <Trackpoint>
            <Time>2022-09-21T09:53:35.000Z</Time>
            <Position>
              <LatitudeDegrees>49.39270022325217723846435546875</LatitudeDegrees>
              <LongitudeDegrees>20.39839980192482471466064453125</LongitudeDegrees>
            </Position>
            <AltitudeMeters>461.20001220703125</AltitudeMeters>
            <DistanceMeters>NAN</DistanceMeters>
          </Trackpoint>
          <Trackpoint>
            <Time>2022-09-21T09:53:36.000Z</Time>
            <Position>
              <LatitudeDegrees>49.392690919339656829833984375</LatitudeDegrees>
              <LongitudeDegrees>20.3984783403575420379638671875</LongitudeDegrees>
            </Position>
            <AltitudeMeters>461.20001220703125</AltitudeMeters>
            <DistanceMeters>NAN</DistanceMeters>
          </Trackpoint>
          <Trackpoint>
            <Time>2022-09-21T09:53:44.000Z</Time>
            <Position>
              <LatitudeDegrees>49.3926012329757213592529296875</LatitudeDegrees>
              <LongitudeDegrees>20.39911058731377124786376953125</LongitudeDegrees>
            </Position>
            <AltitudeMeters>461.20001220703125</AltitudeMeters>
            <DistanceMeters>NAN</DistanceMeters>
          </Trackpoint>
          <Trackpoint>
            <Time>2022-09-21T09:53:50.000Z</Time>
            <Position>
              <LatitudeDegrees>49.392534680664539337158203125</LatitudeDegrees>
              <LongitudeDegrees>20.3995639644563198089599609375</LongitudeDegrees>
            </Position>
            <AltitudeMeters>461.20001220703125</AltitudeMeters>
            <DistanceMeters>NAN</DistanceMeters>
          </Trackpoint>
          <Trackpoint>
            <Time>2022-09-21T09:53:54.000Z</Time>
            <Position>
              <LatitudeDegrees>49.39250417053699493408203125</LatitudeDegrees>
              <LongitudeDegrees>20.39982975460588932037353515625</LongitudeDegrees>
            </Position>
            <AltitudeMeters>461.399993896484375</AltitudeMeters>
            <DistanceMeters>NAN</DistanceMeters>
          </Trackpoint>
          <Trackpoint>
            <Time>2022-09-21T09:53:58.000Z</Time>
            <Position>
              <LatitudeDegrees>49.392478354275226593017578125</LatitudeDegrees>
              <LongitudeDegrees>20.40011574514210224151611328125</LongitudeDegrees>
            </Position>
            <AltitudeMeters>461.399993896484375</AltitudeMeters>
            <DistanceMeters>NAN</DistanceMeters>
          </Trackpoint>
          <Trackpoint>
            <Time>2022-09-21T09:54:02.000Z</Time>
            <Position>
              <LatitudeDegrees>49.39246804453432559967041015625</LatitudeDegrees>
              <LongitudeDegrees>20.4004075191915035247802734375</LongitudeDegrees>
            </Position>
            <AltitudeMeters>461.20001220703125</AltitudeMeters>
            <DistanceMeters>NAN</DistanceMeters>
          </Trackpoint>
          <Trackpoint>
            <Time>2022-09-21T09:54:11.000Z</Time>
            <Position>
              <LatitudeDegrees>49.39246519468724727630615234375</LatitudeDegrees>
              <LongitudeDegrees>20.4010279476642608642578125</LongitudeDegrees>
            </Position>
            <AltitudeMeters>461.399993896484375</AltitudeMeters>
            <DistanceMeters>NAN</DistanceMeters>
          </Trackpoint>
          <Trackpoint>
            <Time>2022-09-21T09:54:15.000Z</Time>
            <Position>
              <LatitudeDegrees>49.392452873289585113525390625</LatitudeDegrees>
              <LongitudeDegrees>20.4013010300695896148681640625</LongitudeDegrees>
            </Position>
            <AltitudeMeters>461.399993896484375</AltitudeMeters>
            <DistanceMeters>NAN</DistanceMeters>
          </Trackpoint>
          <Trackpoint>
            <Time>2022-09-21T09:54:18.000Z</Time>
            <Position>
              <LatitudeDegrees>49.3924547173082828521728515625</LatitudeDegrees>
              <LongitudeDegrees>20.4014716856181621551513671875</LongitudeDegrees>
            </Position>
            <AltitudeMeters>461.600006103515625</AltitudeMeters>
            <DistanceMeters>NAN</DistanceMeters>
          </Trackpoint>
          <Trackpoint>
            <Time>2022-09-21T09:54:20.000Z</Time>
            <Position>
              <LatitudeDegrees>49.3924580700695514678955078125</LatitudeDegrees>
              <LongitudeDegrees>20.40158878080546855926513671875</LongitudeDegrees>
            </Position>
            <AltitudeMeters>461.600006103515625</AltitudeMeters>
            <DistanceMeters>NAN</DistanceMeters>
          </Trackpoint>
          <Trackpoint>
            <Time>2022-09-21T09:54:25.000Z</Time>
            <Position>
              <LatitudeDegrees>49.3924724869430065155029296875</LatitudeDegrees>
              <LongitudeDegrees>20.4018528945744037628173828125</LongitudeDegrees>
            </Position>
            <AltitudeMeters>461.20001220703125</AltitudeMeters>
            <DistanceMeters>NAN</DistanceMeters>
          </Trackpoint>
          <Trackpoint>
            <Time>2022-09-21T09:54:28.000Z</Time>
            <Position>
              <LatitudeDegrees>49.39248933456838130950927734375</LatitudeDegrees>
              <LongitudeDegrees>20.4019927047193050384521484375</LongitudeDegrees>
            </Position>
            <AltitudeMeters>461.399993896484375</AltitudeMeters>
            <DistanceMeters>NAN</DistanceMeters>
          </Trackpoint>
          <Trackpoint>
            <Time>2022-09-21T09:54:32.000Z</Time>
            <Position>
              <LatitudeDegrees>49.39253275282680988311767578125</LatitudeDegrees>
              <LongitudeDegrees>20.4021697305142879486083984375</LongitudeDegrees>
            </Position>
            <AltitudeMeters>461.20001220703125</AltitudeMeters>
            <DistanceMeters>NAN</DistanceMeters>
          </Trackpoint>
          <Trackpoint>
            <Time>2022-09-21T09:54:36.000Z</Time>
            <Position>
              <LatitudeDegrees>49.3925678730010986328125</LatitudeDegrees>
              <LongitudeDegrees>20.402378775179386138916015625</LongitudeDegrees>
            </Position>
            <AltitudeMeters>461.20001220703125</AltitudeMeters>
            <DistanceMeters>NAN</DistanceMeters>
          </Trackpoint>
          <Trackpoint>
            <Time>2022-09-21T09:54:37.000Z</Time>
            <Position>
              <LatitudeDegrees>49.39257550053298473358154296875</LatitudeDegrees>
              <LongitudeDegrees>20.40243401192128658294677734375</LongitudeDegrees>
            </Position>
            <AltitudeMeters>461.20001220703125</AltitudeMeters>
            <DistanceMeters>NAN</DistanceMeters>
          </Trackpoint>
          <Trackpoint>
            <Time>2022-09-21T09:54:44.000Z</Time>
            <Position>
              <LatitudeDegrees>49.39261891879141330718994140625</LatitudeDegrees>
              <LongitudeDegrees>20.40281706489622592926025390625</LongitudeDegrees>
            </Position>
            <AltitudeMeters>461.399993896484375</AltitudeMeters>
            <DistanceMeters>NAN</DistanceMeters>
          </Trackpoint>
          <Trackpoint>
            <Time>2022-09-21T09:54:45.000Z</Time>
            <Position>
              <LatitudeDegrees>49.39262579195201396942138671875</LatitudeDegrees>
              <LongitudeDegrees>20.402864255011081695556640625</LongitudeDegrees>
            </Position>
            <AltitudeMeters>461.399993896484375</AltitudeMeters>
            <DistanceMeters>NAN</DistanceMeters>
          </Trackpoint>
          <Trackpoint>
            <Time>2022-09-21T09:54:49.000Z</Time>
            <Position>
              <LatitudeDegrees>49.3926548771560192108154296875</LatitudeDegrees>
              <LongitudeDegrees>20.40305024944245815277099609375</LongitudeDegrees>
            </Position>
            <AltitudeMeters>461.20001220703125</AltitudeMeters>
            <DistanceMeters>NAN</DistanceMeters>
          </Trackpoint>
          <Trackpoint>
            <Time>2022-09-21T09:54:51.000Z</Time>
            <Position>
              <LatitudeDegrees>49.3926706351339817047119140625</LatitudeDegrees>
              <LongitudeDegrees>20.40314622223377227783203125</LongitudeDegrees>
            </Position>
            <AltitudeMeters>461.399993896484375</AltitudeMeters>
            <DistanceMeters>NAN</DistanceMeters>
          </Trackpoint>
          <Trackpoint>
            <Time>2022-09-21T09:54:53.000Z</Time>
            <Position>
              <LatitudeDegrees>49.392683207988739013671875</LatitudeDegrees>
              <LongitudeDegrees>20.4032365791499614715576171875</LongitudeDegrees>
            </Position>
            <AltitudeMeters>461.399993896484375</AltitudeMeters>
            <DistanceMeters>NAN</DistanceMeters>
          </Trackpoint>
          <Trackpoint>
            <Time>2022-09-21T09:55:01.000Z</Time>
            <Position>
              <LatitudeDegrees>49.39274934120476245880126953125</LatitudeDegrees>
              <LongitudeDegrees>20.40354511700570583343505859375</LongitudeDegrees>
            </Position>
            <AltitudeMeters>461.399993896484375</AltitudeMeters>
            <DistanceMeters>NAN</DistanceMeters>
          </Trackpoint>
          <Trackpoint>
            <Time>2022-09-21T09:55:03.000Z</Time>
            <Position>
              <LatitudeDegrees>49.392760656774044036865234375</LatitudeDegrees>
              <LongitudeDegrees>20.403604544699192047119140625</LongitudeDegrees>
            </Position>
            <AltitudeMeters>461.399993896484375</AltitudeMeters>
            <DistanceMeters>NAN</DistanceMeters>
          </Trackpoint>
          <Trackpoint>
            <Time>2022-09-21T09:55:08.000Z</Time>
            <Position>
              <LatitudeDegrees>49.39278152771294116973876953125</LatitudeDegrees>
              <LongitudeDegrees>20.4037569276988506317138671875</LongitudeDegrees>
            </Position>
            <AltitudeMeters>461.399993896484375</AltitudeMeters>
            <DistanceMeters>NAN</DistanceMeters>
          </Trackpoint>
          <Trackpoint>
            <Time>2022-09-21T09:55:09.000Z</Time>
            <Position>
              <LatitudeDegrees>49.39278286881744861602783203125</LatitudeDegrees>
              <LongitudeDegrees>20.40377595461905002593994140625</LongitudeDegrees>
            </Position>
            <AltitudeMeters>461.399993896484375</AltitudeMeters>
            <DistanceMeters>NAN</DistanceMeters>
          </Trackpoint>
          <Trackpoint>
            <Time>2022-09-21T09:55:12.000Z</Time>
            <Position>
              <LatitudeDegrees>49.3927811086177825927734375</LatitudeDegrees>
              <LongitudeDegrees>20.403786599636077880859375</LongitudeDegrees>
            </Position>
            <AltitudeMeters>461.600006103515625</AltitudeMeters>
            <DistanceMeters>NAN</DistanceMeters>
          </Trackpoint>
          <Trackpoint>
            <Time>2022-09-21T09:55:18.000Z</Time>
            <Position>
              <LatitudeDegrees>49.3927811086177825927734375</LatitudeDegrees>
              <LongitudeDegrees>20.403786599636077880859375</LongitudeDegrees>
            </Position>
            <AltitudeMeters>461.399993896484375</AltitudeMeters>
            <DistanceMeters>NAN</DistanceMeters>
          </Trackpoint>
          <Trackpoint>
            <Time>2022-09-21T09:55:22.000Z</Time>
            <Position>
              <LatitudeDegrees>49.3927752412855625152587890625</LatitudeDegrees>
              <LongitudeDegrees>20.4037881083786487579345703125</LongitudeDegrees>
            </Position>
            <AltitudeMeters>461.399993896484375</AltitudeMeters>
            <DistanceMeters>NAN</DistanceMeters>
          </Trackpoint>
          <Trackpoint>
            <Time>2022-09-21T09:55:23.000Z</Time>
            <Position>
              <LatitudeDegrees>49.3927752412855625152587890625</LatitudeDegrees>
              <LongitudeDegrees>20.4037881083786487579345703125</LongitudeDegrees>
            </Position>
            <AltitudeMeters>461.399993896484375</AltitudeMeters>
            <DistanceMeters>NAN</DistanceMeters>
          </Trackpoint>
          <Trackpoint>
            <Time>2022-09-21T09:55:40.000Z</Time>
            <Position>
              <LatitudeDegrees>49.3927811086177825927734375</LatitudeDegrees>
              <LongitudeDegrees>20.403786599636077880859375</LongitudeDegrees>
            </Position>
            <AltitudeMeters>461.600006103515625</AltitudeMeters>
            <DistanceMeters>NAN</DistanceMeters>
          </Trackpoint>
          <Trackpoint>
            <Time>2022-09-21T09:55:51.000Z</Time>
            <Position>
              <LatitudeDegrees>49.39278286881744861602783203125</LatitudeDegrees>
              <LongitudeDegrees>20.40378550998866558074951171875</LongitudeDegrees>
            </Position>
            <AltitudeMeters>461.600006103515625</AltitudeMeters>
            <DistanceMeters>NAN</DistanceMeters>
          </Trackpoint>
          <Trackpoint>
            <Time>2022-09-21T09:55:58.000Z</Time>
            <Position>
              <LatitudeDegrees>49.39278286881744861602783203125</LatitudeDegrees>
              <LongitudeDegrees>20.40378550998866558074951171875</LongitudeDegrees>
            </Position>
            <AltitudeMeters>461.399993896484375</AltitudeMeters>
            <DistanceMeters>NAN</DistanceMeters>
          </Trackpoint>
          <Trackpoint>
            <Time>2022-09-21T09:55:59.000Z</Time>
            <Position>
              <LatitudeDegrees>49.39278286881744861602783203125</LatitudeDegrees>
              <LongitudeDegrees>20.40378550998866558074951171875</LongitudeDegrees>
            </Position>
            <AltitudeMeters>461.600006103515625</AltitudeMeters>
            <DistanceMeters>NAN</DistanceMeters>
          </Trackpoint>
          <Trackpoint>
            <Time>2022-09-21T09:56:06.000Z</Time>
            <Position>
              <LatitudeDegrees>49.39278286881744861602783203125</LatitudeDegrees>
              <LongitudeDegrees>20.40378550998866558074951171875</LongitudeDegrees>
            </Position>
            <AltitudeMeters>461.399993896484375</AltitudeMeters>
            <DistanceMeters>NAN</DistanceMeters>
          </Trackpoint>
          <Trackpoint>
            <Time>2022-09-21T09:56:13.000Z</Time>
            <Position>
              <LatitudeDegrees>49.39278236590325832366943359375</LatitudeDegrees>
              <LongitudeDegrees>20.4037911258637905120849609375</LongitudeDegrees>
            </Position>
            <AltitudeMeters>461.399993896484375</AltitudeMeters>
            <DistanceMeters>NAN</DistanceMeters>
          </Trackpoint>
          <Trackpoint>
            <Time>2022-09-21T09:56:15.000Z</Time>
            <Position>
              <LatitudeDegrees>49.392814971506595611572265625</LatitudeDegrees>
              <LongitudeDegrees>20.40381702594459056854248046875</LongitudeDegrees>
            </Position>
            <AltitudeMeters>461.600006103515625</AltitudeMeters>
            <DistanceMeters>NAN</DistanceMeters>
          </Trackpoint>
          <Trackpoint>
            <Time>2022-09-21T09:56:16.000Z</Time>
            <Position>
              <LatitudeDegrees>49.392828382551670074462890625</LatitudeDegrees>
              <LongitudeDegrees>20.403836555778980255126953125</LongitudeDegrees>
            </Position>
            <AltitudeMeters>461.600006103515625</AltitudeMeters>
            <DistanceMeters>NAN</DistanceMeters>
          </Trackpoint>
          <Trackpoint>
            <Time>2022-09-21T09:56:22.000Z</Time>
            <Position>
              <LatitudeDegrees>49.39289887435734272003173828125</LatitudeDegrees>
              <LongitudeDegrees>20.4039772041141986846923828125</LongitudeDegrees>
            </Position>
            <AltitudeMeters>461.600006103515625</AltitudeMeters>
            <DistanceMeters>NAN</DistanceMeters>
          </Trackpoint>
          <Trackpoint>
            <Time>2022-09-21T09:56:28.000Z</Time>
            <Position>
              <LatitudeDegrees>49.39298168756067752838134765625</LatitudeDegrees>
              <LongitudeDegrees>20.40417375974357128143310546875</LongitudeDegrees>
            </Position>
            <AltitudeMeters>461.600006103515625</AltitudeMeters>
            <DistanceMeters>NAN</DistanceMeters>
          </Trackpoint>
          <Trackpoint>
            <Time>2022-09-21T09:56:31.000Z</Time>
            <Position>
              <LatitudeDegrees>49.3930399417877197265625</LatitudeDegrees>
              <LongitudeDegrees>20.40428616106510162353515625</LongitudeDegrees>
            </Position>
            <AltitudeMeters>461.399993896484375</AltitudeMeters>
            <DistanceMeters>NAN</DistanceMeters>
          </Trackpoint>
          <Trackpoint>
            <Time>2022-09-21T09:56:35.000Z</Time>
            <Position>
              <LatitudeDegrees>49.39309266395866870880126953125</LatitudeDegrees>
              <LongitudeDegrees>20.40443678386509418487548828125</LongitudeDegrees>
            </Position>
            <AltitudeMeters>461.20001220703125</AltitudeMeters>
            <DistanceMeters>NAN</DistanceMeters>
          </Trackpoint>
          <Trackpoint>
            <Time>2022-09-21T09:56:41.000Z</Time>
            <Position>
              <LatitudeDegrees>49.39318218268454074859619140625</LatitudeDegrees>
              <LongitudeDegrees>20.4046829603612422943115234375</LongitudeDegrees>
            </Position>
            <AltitudeMeters>461</AltitudeMeters>
            <DistanceMeters>NAN</DistanceMeters>
          </Trackpoint>
          <Trackpoint>
            <Time>2022-09-21T09:56:47.000Z</Time>
            <Position>
              <LatitudeDegrees>49.3932597152888774871826171875</LatitudeDegrees>
              <LongitudeDegrees>20.40490172803401947021484375</LongitudeDegrees>
            </Position>
            <AltitudeMeters>460.79998779296875</AltitudeMeters>
            <DistanceMeters>NAN</DistanceMeters>
          </Trackpoint>
          <Trackpoint>
            <Time>2022-09-21T09:56:50.000Z</Time>
            <Position>
              <LatitudeDegrees>49.39330103807151317596435546875</LatitudeDegrees>
              <LongitudeDegrees>20.405012704432010650634765625</LongitudeDegrees>
            </Position>
            <AltitudeMeters>460.79998779296875</AltitudeMeters>
            <DistanceMeters>NAN</DistanceMeters>
          </Trackpoint>
          <Trackpoint>
            <Time>2022-09-21T09:56:56.000Z</Time>
            <Position>
              <LatitudeDegrees>49.393382929265499114990234375</LatitudeDegrees>
              <LongitudeDegrees>20.40525351651012897491455078125</LongitudeDegrees>
            </Position>
            <AltitudeMeters>460.79998779296875</AltitudeMeters>
            <DistanceMeters>NAN</DistanceMeters>
          </Trackpoint>
          <Trackpoint>
            <Time>2022-09-21T09:56:59.000Z</Time>
            <Position>
              <LatitudeDegrees>49.39341939054429531097412109375</LatitudeDegrees>
              <LongitudeDegrees>20.4053702764213085174560546875</LongitudeDegrees>
            </Position>
            <AltitudeMeters>460.79998779296875</AltitudeMeters>
            <DistanceMeters>NAN</DistanceMeters>
          </Trackpoint>
          <Trackpoint>
            <Time>2022-09-21T09:57:00.000Z</Time>
            <Position>
              <LatitudeDegrees>49.3934328854084014892578125</LatitudeDegrees>
              <LongitudeDegrees>20.4054068215191364288330078125</LongitudeDegrees>
            </Position>
            <AltitudeMeters>460.79998779296875</AltitudeMeters>
            <DistanceMeters>NAN</DistanceMeters>
          </Trackpoint>
          <Trackpoint>
            <Time>2022-09-21T09:57:02.000Z</Time>
            <Position>
              <LatitudeDegrees>49.393458031117916107177734375</LatitudeDegrees>
              <LongitudeDegrees>20.4054815880954265594482421875</LongitudeDegrees>
            </Position>
            <AltitudeMeters>460.79998779296875</AltitudeMeters>
            <DistanceMeters>NAN</DistanceMeters>
          </Trackpoint>
          <Trackpoint>
            <Time>2022-09-21T09:57:04.000Z</Time>
            <Position>
              <LatitudeDegrees>49.39348342828452587127685546875</LatitudeDegrees>
              <LongitudeDegrees>20.40555912069976329803466796875</LongitudeDegrees>
            </Position>
            <AltitudeMeters>460.79998779296875</AltitudeMeters>
            <DistanceMeters>NAN</DistanceMeters>
          </Trackpoint>
          <Trackpoint>
            <Time>2022-09-21T09:57:09.000Z</Time>
            <Position>
              <LatitudeDegrees>49.39356389455497264862060546875</LatitudeDegrees>
              <LongitudeDegrees>20.4057781398296356201171875</LongitudeDegrees>
            </Position>
            <AltitudeMeters>460.399993896484375</AltitudeMeters>
            <DistanceMeters>NAN</DistanceMeters>
          </Trackpoint>
          <Trackpoint>
            <Time>2022-09-21T09:57:14.000Z</Time>
            <Position>
              <LatitudeDegrees>49.39363882876932621002197265625</LatitudeDegrees>
              <LongitudeDegrees>20.405981652438640594482421875</LongitudeDegrees>
            </Position>
            <AltitudeMeters>460.20001220703125</AltitudeMeters>
            <DistanceMeters>NAN</DistanceMeters>
          </Trackpoint>
          <Trackpoint>
            <Time>2022-09-21T09:57:15.000Z</Time>
            <Position>
              <LatitudeDegrees>49.39365408383309841156005859375</LatitudeDegrees>
              <LongitudeDegrees>20.40602146647870540618896484375</LongitudeDegrees>
            </Position>
            <AltitudeMeters>460.20001220703125</AltitudeMeters>
            <DistanceMeters>NAN</DistanceMeters>
          </Trackpoint>
          <Trackpoint>
            <Time>2022-09-21T09:57:20.000Z</Time>
            <Position>
              <LatitudeDegrees>49.3936955742537975311279296875</LatitudeDegrees>
              <LongitudeDegrees>20.40625548921525478363037109375</LongitudeDegrees>
            </Position>
            <AltitudeMeters>460.20001220703125</AltitudeMeters>
            <DistanceMeters>NAN</DistanceMeters>
          </Trackpoint>
          <Trackpoint>
            <Time>2022-09-21T09:57:23.000Z</Time>
            <Position>
              <LatitudeDegrees>49.39373672939836978912353515625</LatitudeDegrees>
              <LongitudeDegrees>20.4064015857875347137451171875</LongitudeDegrees>
            </Position>
            <AltitudeMeters>460.20001220703125</AltitudeMeters>
            <DistanceMeters>NAN</DistanceMeters>
          </Trackpoint>
          <Trackpoint>
            <Time>2022-09-21T09:57:24.000Z</Time>
            <Position>
              <LatitudeDegrees>49.39375567249953746795654296875</LatitudeDegrees>
              <LongitudeDegrees>20.40645581670105457305908203125</LongitudeDegrees>
            </Position>
            <AltitudeMeters>460</AltitudeMeters>
            <DistanceMeters>NAN</DistanceMeters>
          </Trackpoint>
          <Trackpoint>
            <Time>2022-09-21T09:57:26.000Z</Time>
            <Position>
              <LatitudeDegrees>49.39379238523542881011962890625</LatitudeDegrees>
              <LongitudeDegrees>20.4065621830523014068603515625</LongitudeDegrees>
            </Position>
            <AltitudeMeters>460</AltitudeMeters>
            <DistanceMeters>NAN</DistanceMeters>
          </Trackpoint>
          <Trackpoint>
            <Time>2022-09-21T09:57:28.000Z</Time>
            <Position>
              <LatitudeDegrees>49.39382993616163730621337890625</LatitudeDegrees>
              <LongitudeDegrees>20.40666435845196247100830078125</LongitudeDegrees>
            </Position>
            <AltitudeMeters>460</AltitudeMeters>
            <DistanceMeters>NAN</DistanceMeters>
          </Trackpoint>
          <Trackpoint>
            <Time>2022-09-21T09:57:32.000Z</Time>
            <Position>
              <LatitudeDegrees>49.3939017690718173980712890625</LatitudeDegrees>
              <LongitudeDegrees>20.40686200372874736785888671875</LongitudeDegrees>
            </Position>
            <AltitudeMeters>460</AltitudeMeters>
            <DistanceMeters>NAN</DistanceMeters>
          </Trackpoint>
          <Trackpoint>
            <Time>2022-09-21T09:57:36.000Z</Time>
            <Position>
              <LatitudeDegrees>49.39397226087749004364013671875</LatitudeDegrees>
              <LongitudeDegrees>20.4070495069026947021484375</LongitudeDegrees>
            </Position>
            <AltitudeMeters>460.20001220703125</AltitudeMeters>
            <DistanceMeters>NAN</DistanceMeters>
          </Trackpoint>
          <Trackpoint>
            <Time>2022-09-21T09:57:38.000Z</Time>
            <Position>
              <LatitudeDegrees>49.3940095603466033935546875</LatitudeDegrees>
              <LongitudeDegrees>20.4071469046175479888916015625</LongitudeDegrees>
            </Position>
            <AltitudeMeters>460.399993896484375</AltitudeMeters>
            <DistanceMeters>NAN</DistanceMeters>
          </Trackpoint>
          <Trackpoint>
            <Time>2022-09-21T09:57:46.000Z</Time>
            <Position>
              <LatitudeDegrees>49.394144006073474884033203125</LatitudeDegrees>
              <LongitudeDegrees>20.4075106792151927947998046875</LongitudeDegrees>
            </Position>
            <AltitudeMeters>460.20001220703125</AltitudeMeters>
            <DistanceMeters>NAN</DistanceMeters>
          </Trackpoint>
          <Trackpoint>
            <Time>2022-09-21T09:57:52.000Z</Time>
            <Position>
              <LatitudeDegrees>49.39425841905176639556884765625</LatitudeDegrees>
              <LongitudeDegrees>20.40776859037578105926513671875</LongitudeDegrees>
            </Position>
            <AltitudeMeters>460</AltitudeMeters>
            <DistanceMeters>NAN</DistanceMeters>
          </Trackpoint>
          <Trackpoint>
            <Time>2022-09-21T09:57:53.000Z</Time>
            <Position>
              <LatitudeDegrees>49.39427283592522144317626953125</LatitudeDegrees>
              <LongitudeDegrees>20.4077691771090030670166015625</LongitudeDegrees>
            </Position>
            <AltitudeMeters>460</AltitudeMeters>
            <DistanceMeters>NAN</DistanceMeters>
          </Trackpoint>
          <Trackpoint>
            <Time>2022-09-21T09:57:54.000Z</Time>
            <Position>
              <LatitudeDegrees>49.3942789547145366668701171875</LatitudeDegrees>
              <LongitudeDegrees>20.40775685571134090423583984375</LongitudeDegrees>
            </Position>
            <AltitudeMeters>460</AltitudeMeters>
            <DistanceMeters>NAN</DistanceMeters>
          </Trackpoint>
          <Trackpoint>
            <Time>2022-09-21T09:57:57.000Z</Time>
            <Position>
              <LatitudeDegrees>49.3943181820213794708251953125</LatitudeDegrees>
              <LongitudeDegrees>20.40766448713839054107666015625</LongitudeDegrees>
            </Position>
            <AltitudeMeters>460</AltitudeMeters>
            <DistanceMeters>NAN</DistanceMeters>
          </Trackpoint>
          <Trackpoint>
            <Time>2022-09-21T09:58:04.000Z</Time>
            <Position>
              <LatitudeDegrees>49.39448925666511058807373046875</LatitudeDegrees>
              <LongitudeDegrees>20.4074389301240444183349609375</LongitudeDegrees>
            </Position>
            <AltitudeMeters>460.20001220703125</AltitudeMeters>
            <DistanceMeters>NAN</DistanceMeters>
          </Trackpoint>
          <Trackpoint>
            <Time>2022-09-21T09:58:11.000Z</Time>
            <Position>
              <LatitudeDegrees>49.3946829624474048614501953125</LatitudeDegrees>
              <LongitudeDegrees>20.4072119481861591339111328125</LongitudeDegrees>
            </Position>
            <AltitudeMeters>460.79998779296875</AltitudeMeters>
            <DistanceMeters>NAN</DistanceMeters>
          </Trackpoint>
          <Trackpoint>
            <Time>2022-09-21T09:58:16.000Z</Time>
            <Position>
              <LatitudeDegrees>49.39480911009013652801513671875</LatitudeDegrees>
              <LongitudeDegrees>20.4071247763931751251220703125</LongitudeDegrees>
            </Position>
            <AltitudeMeters>461</AltitudeMeters>
            <DistanceMeters>NAN</DistanceMeters>
          </Trackpoint>
          <Trackpoint>
            <Time>2022-09-21T09:58:17.000Z</Time>
            <Position>
              <LatitudeDegrees>49.394825287163257598876953125</LatitudeDegrees>
              <LongitudeDegrees>20.40713869035243988037109375</LongitudeDegrees>
            </Position>
            <AltitudeMeters>461</AltitudeMeters>
            <DistanceMeters>NAN</DistanceMeters>
          </Trackpoint>
          <Trackpoint>
            <Time>2022-09-21T09:58:23.000Z</Time>
            <Position>
              <LatitudeDegrees>49.394908435642719268798828125</LatitudeDegrees>
              <LongitudeDegrees>20.407288558781147003173828125</LongitudeDegrees>
            </Position>
            <AltitudeMeters>461.399993896484375</AltitudeMeters>
            <DistanceMeters>NAN</DistanceMeters>
          </Trackpoint>
          <Trackpoint>
            <Time>2022-09-21T09:58:24.000Z</Time>
            <Position>
              <LatitudeDegrees>49.39492360688745975494384765625</LatitudeDegrees>
              <LongitudeDegrees>20.40732317604124546051025390625</LongitudeDegrees>
            </Position>
            <AltitudeMeters>461.399993896484375</AltitudeMeters>
            <DistanceMeters>NAN</DistanceMeters>
          </Trackpoint>
          <Trackpoint>
            <Time>2022-09-21T09:58:32.000Z</Time>
            <Position>
              <LatitudeDegrees>49.39505067653954029083251953125</LatitudeDegrees>
              <LongitudeDegrees>20.40755602531135082244873046875</LongitudeDegrees>
            </Position>
            <AltitudeMeters>461.600006103515625</AltitudeMeters>
            <DistanceMeters>NAN</DistanceMeters>
          </Trackpoint>
          <Trackpoint>
            <Time>2022-09-21T09:58:42.000Z</Time>
            <Position>
              <LatitudeDegrees>49.39519836567342281341552734375</LatitudeDegrees>
              <LongitudeDegrees>20.40783581323921680450439453125</LongitudeDegrees>
            </Position>
            <AltitudeMeters>461.399993896484375</AltitudeMeters>
            <DistanceMeters>NAN</DistanceMeters>
          </Trackpoint>
          <Trackpoint>
            <Time>2022-09-21T09:58:44.000Z</Time>
            <Position>
              <LatitudeDegrees>49.39522854052484035491943359375</LatitudeDegrees>
              <LongitudeDegrees>20.4078979231417179107666015625</LongitudeDegrees>
            </Position>
            <AltitudeMeters>461.20001220703125</AltitudeMeters>
            <DistanceMeters>NAN</DistanceMeters>
          </Trackpoint>
          <Trackpoint>
            <Time>2022-09-21T09:58:45.000Z</Time>
            <Position>
              <LatitudeDegrees>49.39524404704570770263671875</LatitudeDegrees>
              <LongitudeDegrees>20.407927595078945159912109375</LongitudeDegrees>
            </Position>
            <AltitudeMeters>461.20001220703125</AltitudeMeters>
            <DistanceMeters>NAN</DistanceMeters>
          </Trackpoint>
          <Trackpoint>
            <Time>2022-09-21T09:58:48.000Z</Time>
            <Position>
              <LatitudeDegrees>49.395281933248043060302734375</LatitudeDegrees>
              <LongitudeDegrees>20.4080300219357013702392578125</LongitudeDegrees>
            </Position>
            <AltitudeMeters>461</AltitudeMeters>
            <DistanceMeters>NAN</DistanceMeters>
          </Trackpoint>
          <Trackpoint>
            <Time>2022-09-21T09:58:57.000Z</Time>
            <Position>
              <LatitudeDegrees>49.39540523104369640350341796875</LatitudeDegrees>
              <LongitudeDegrees>20.40838323533535003662109375</LongitudeDegrees>
            </Position>
            <AltitudeMeters>460.79998779296875</AltitudeMeters>
            <DistanceMeters>NAN</DistanceMeters>
          </Trackpoint>
          <Trackpoint>
            <Time>2022-09-21T09:59:00.000Z</Time>
            <Position>
              <LatitudeDegrees>49.395452253520488739013671875</LatitudeDegrees>
              <LongitudeDegrees>20.408500246703624725341796875</LongitudeDegrees>
            </Position>
            <AltitudeMeters>460.600006103515625</AltitudeMeters>
            <DistanceMeters>NAN</DistanceMeters>
          </Trackpoint>
          <Trackpoint>
            <Time>2022-09-21T09:59:05.000Z</Time>
            <Position>
              <LatitudeDegrees>49.39553531818091869354248046875</LatitudeDegrees>
              <LongitudeDegrees>20.40869009681046009063720703125</LongitudeDegrees>
            </Position>
            <AltitudeMeters>460.399993896484375</AltitudeMeters>
            <DistanceMeters>NAN</DistanceMeters>
          </Trackpoint>
          <Trackpoint>
            <Time>2022-09-21T09:59:10.000Z</Time>
            <Position>
              <LatitudeDegrees>49.39563003368675708770751953125</LatitudeDegrees>
              <LongitudeDegrees>20.40883962996304035186767578125</LongitudeDegrees>
            </Position>
            <AltitudeMeters>460.600006103515625</AltitudeMeters>
            <DistanceMeters>NAN</DistanceMeters>
          </Trackpoint>
          <Trackpoint>
            <Time>2022-09-21T09:59:17.000Z</Time>
            <Position>
              <LatitudeDegrees>49.39576582051813602447509765625</LatitudeDegrees>
              <LongitudeDegrees>20.40905110538005828857421875</LongitudeDegrees>
            </Position>
            <AltitudeMeters>460.600006103515625</AltitudeMeters>
            <DistanceMeters>NAN</DistanceMeters>
          </Trackpoint>
          <Trackpoint>
            <Time>2022-09-21T09:59:24.000Z</Time>
            <Position>
              <LatitudeDegrees>49.39589691348373889923095703125</LatitudeDegrees>
              <LongitudeDegrees>20.40924699045717716217041015625</LongitudeDegrees>
            </Position>
            <AltitudeMeters>460.79998779296875</AltitudeMeters>
            <DistanceMeters>NAN</DistanceMeters>
          </Trackpoint>
          <Trackpoint>
            <Time>2022-09-21T09:59:30.000Z</Time>
            <Position>
              <LatitudeDegrees>49.39603085629642009735107421875</LatitudeDegrees>
              <LongitudeDegrees>20.409451089799404144287109375</LongitudeDegrees>
            </Position>
            <AltitudeMeters>460.399993896484375</AltitudeMeters>
            <DistanceMeters>NAN</DistanceMeters>
          </Trackpoint>
          <Trackpoint>
            <Time>2022-09-21T09:59:38.000Z</Time>
            <Position>
              <LatitudeDegrees>49.3961856700479984283447265625</LatitudeDegrees>
              <LongitudeDegrees>20.40968184359371662139892578125</LongitudeDegrees>
            </Position>
            <AltitudeMeters>460.600006103515625</AltitudeMeters>
            <DistanceMeters>NAN</DistanceMeters>
          </Trackpoint>
          <Trackpoint>
            <Time>2022-09-21T09:59:44.000Z</Time>
            <Position>
              <LatitudeDegrees>49.3963647074997425079345703125</LatitudeDegrees>
              <LongitudeDegrees>20.40990027599036693572998046875</LongitudeDegrees>
            </Position>
            <AltitudeMeters>460.399993896484375</AltitudeMeters>
            <DistanceMeters>NAN</DistanceMeters>
          </Trackpoint>
          <Trackpoint>
            <Time>2022-09-21T09:59:45.000Z</Time>
            <Position>
              <LatitudeDegrees>49.39639764837920665740966796875</LatitudeDegrees>
              <LongitudeDegrees>20.4099367372691631317138671875</LongitudeDegrees>
            </Position>
            <AltitudeMeters>460.20001220703125</AltitudeMeters>
            <DistanceMeters>NAN</DistanceMeters>
          </Trackpoint>
          <Trackpoint>
            <Time>2022-09-21T09:59:49.000Z</Time>
            <Position>
              <LatitudeDegrees>49.396524466574192047119140625</LatitudeDegrees>
              <LongitudeDegrees>20.41007705032825469970703125</LongitudeDegrees>
            </Position>
            <AltitudeMeters>460.20001220703125</AltitudeMeters>
            <DistanceMeters>NAN</DistanceMeters>
          </Trackpoint>
          <Trackpoint>
            <Time>2022-09-21T09:59:52.000Z</Time>
            <Position>
              <LatitudeDegrees>49.39662781544029712677001953125</LatitudeDegrees>
              <LongitudeDegrees>20.41016011498868465423583984375</LongitudeDegrees>
            </Position>
            <AltitudeMeters>460.20001220703125</AltitudeMeters>
            <DistanceMeters>NAN</DistanceMeters>
          </Trackpoint>
          <Trackpoint>
            <Time>2022-09-21T09:59:54.000Z</Time>
            <Position>
              <LatitudeDegrees>49.39670073799788951873779296875</LatitudeDegrees>
              <LongitudeDegrees>20.4102123342454433441162109375</LongitudeDegrees>
            </Position>
            <AltitudeMeters>460.20001220703125</AltitudeMeters>
            <DistanceMeters>NAN</DistanceMeters>
          </Trackpoint>
          <Trackpoint>
            <Time>2022-09-21T10:00:00.000Z</Time>
            <Position>
              <LatitudeDegrees>49.39691682346165180206298828125</LatitudeDegrees>
              <LongitudeDegrees>20.41034267283976078033447265625</LongitudeDegrees>
            </Position>
            <AltitudeMeters>460.20001220703125</AltitudeMeters>
            <DistanceMeters>NAN</DistanceMeters>
          </Trackpoint>
          <Trackpoint>
            <Time>2022-09-21T10:00:02.000Z</Time>
            <Position>
              <LatitudeDegrees>49.39698270522058010101318359375</LatitudeDegrees>
              <LongitudeDegrees>20.4103692434728145599365234375</LongitudeDegrees>
            </Position>
            <AltitudeMeters>460.20001220703125</AltitudeMeters>
            <DistanceMeters>NAN</DistanceMeters>
          </Trackpoint>
          <Trackpoint>
            <Time>2022-09-21T10:00:09.000Z</Time>
            <Position>
              <LatitudeDegrees>49.3972210027277469635009765625</LatitudeDegrees>
              <LongitudeDegrees>20.41043118573725223541259765625</LongitudeDegrees>
            </Position>
            <AltitudeMeters>460.20001220703125</AltitudeMeters>
            <DistanceMeters>NAN</DistanceMeters>
          </Trackpoint>
          <Trackpoint>
            <Time>2022-09-21T10:00:13.000Z</Time>
            <Position>
              <LatitudeDegrees>49.3973718769848346710205078125</LatitudeDegrees>
              <LongitudeDegrees>20.41043051518499851226806640625</LongitudeDegrees>
            </Position>
            <AltitudeMeters>460.20001220703125</AltitudeMeters>
            <DistanceMeters>NAN</DistanceMeters>
          </Trackpoint>
          <Trackpoint>
            <Time>2022-09-21T10:00:15.000Z</Time>
            <Position>
              <LatitudeDegrees>49.39744203351438045501708984375</LatitudeDegrees>
              <LongitudeDegrees>20.410408638417720794677734375</LongitudeDegrees>
            </Position>
            <AltitudeMeters>460.20001220703125</AltitudeMeters>
            <DistanceMeters>NAN</DistanceMeters>
          </Trackpoint>
          <Trackpoint>
            <Time>2022-09-21T10:00:16.000Z</Time>
            <Position>
              <LatitudeDegrees>49.3974774889647960662841796875</LatitudeDegrees>
              <LongitudeDegrees>20.410398580133914947509765625</LongitudeDegrees>
            </Position>
            <AltitudeMeters>460</AltitudeMeters>
            <DistanceMeters>NAN</DistanceMeters>
          </Trackpoint>
          <Trackpoint>
            <Time>2022-09-21T10:00:23.000Z</Time>
            <Position>
              <LatitudeDegrees>49.39772198908030986785888671875</LatitudeDegrees>
              <LongitudeDegrees>20.4102922976016998291015625</LongitudeDegrees>
            </Position>
            <AltitudeMeters>460.20001220703125</AltitudeMeters>
            <DistanceMeters>NAN</DistanceMeters>
          </Trackpoint>
          <Trackpoint>
            <Time>2022-09-21T10:00:32.000Z</Time>
            <Position>
              <LatitudeDegrees>49.39807017333805561065673828125</LatitudeDegrees>
              <LongitudeDegrees>20.4102012701332569122314453125</LongitudeDegrees>
            </Position>
            <AltitudeMeters>460.20001220703125</AltitudeMeters>
            <DistanceMeters>NAN</DistanceMeters>
          </Trackpoint>
          <Trackpoint>
            <Time>2022-09-21T10:00:35.000Z</Time>
            <Position>
              <LatitudeDegrees>49.398179389536380767822265625</LatitudeDegrees>
              <LongitudeDegrees>20.41016782633960247039794921875</LongitudeDegrees>
            </Position>
            <AltitudeMeters>460.20001220703125</AltitudeMeters>
            <DistanceMeters>NAN</DistanceMeters>
          </Trackpoint>
          <Trackpoint>
            <Time>2022-09-21T10:00:39.000Z</Time>
            <Position>
              <LatitudeDegrees>49.39832766540348529815673828125</LatitudeDegrees>
              <LongitudeDegrees>20.4101486317813396453857421875</LongitudeDegrees>
            </Position>
            <AltitudeMeters>460.20001220703125</AltitudeMeters>
            <DistanceMeters>NAN</DistanceMeters>
          </Trackpoint>
          <Trackpoint>
            <Time>2022-09-21T10:00:40.000Z</Time>
            <Position>
              <LatitudeDegrees>49.398367144167423248291015625</LatitudeDegrees>
              <LongitudeDegrees>20.41014268063008785247802734375</LongitudeDegrees>
            </Position>
            <AltitudeMeters>460.20001220703125</AltitudeMeters>
            <DistanceMeters>NAN</DistanceMeters>
          </Trackpoint>
          <Trackpoint>
            <Time>2022-09-21T10:00:49.000Z</Time>
            <Position>
              <LatitudeDegrees>49.3986932002007961273193359375</LatitudeDegrees>
              <LongitudeDegrees>20.41007101535797119140625</LongitudeDegrees>
            </Position>
            <AltitudeMeters>460.20001220703125</AltitudeMeters>
            <DistanceMeters>NAN</DistanceMeters>
          </Trackpoint>
          <Trackpoint>
            <Time>2022-09-21T10:00:50.000Z</Time>
            <Position>
              <LatitudeDegrees>49.398733265697956085205078125</LatitudeDegrees>
              <LongitudeDegrees>20.41005802340805530548095703125</LongitudeDegrees>
            </Position>
            <AltitudeMeters>460.20001220703125</AltitudeMeters>
            <DistanceMeters>NAN</DistanceMeters>
          </Trackpoint>
          <Trackpoint>
            <Time>2022-09-21T10:00:51.000Z</Time>
            <Position>
              <LatitudeDegrees>49.39876536838710308074951171875</LatitudeDegrees>
              <LongitudeDegrees>20.4100493900477886199951171875</LongitudeDegrees>
            </Position>
            <AltitudeMeters>460.20001220703125</AltitudeMeters>
            <DistanceMeters>NAN</DistanceMeters>
          </Trackpoint>
          <Trackpoint>
            <Time>2022-09-21T10:00:56.000Z</Time>
            <Position>
              <LatitudeDegrees>49.3989086151123046875</LatitudeDegrees>
              <LongitudeDegrees>20.40999926626682281494140625</LongitudeDegrees>
            </Position>
            <AltitudeMeters>460.20001220703125</AltitudeMeters>
            <DistanceMeters>NAN</DistanceMeters>
          </Trackpoint>
          <Trackpoint>
            <Time>2022-09-21T10:01:02.000Z</Time>
            <Position>
              <LatitudeDegrees>49.39906745217740535736083984375</LatitudeDegrees>
              <LongitudeDegrees>20.40993564762175083160400390625</LongitudeDegrees>
            </Position>
            <AltitudeMeters>460</AltitudeMeters>
            <DistanceMeters>NAN</DistanceMeters>
          </Trackpoint>
          <Trackpoint>
            <Time>2022-09-21T10:01:10.000Z</Time>
            <Position>
              <LatitudeDegrees>49.39933483488857746124267578125</LatitudeDegrees>
              <LongitudeDegrees>20.40984193794429302215576171875</LongitudeDegrees>
            </Position>
            <AltitudeMeters>460.20001220703125</AltitudeMeters>
            <DistanceMeters>NAN</DistanceMeters>
          </Trackpoint>
          <Trackpoint>
            <Time>2022-09-21T10:01:17.000Z</Time>
            <Position>
              <LatitudeDegrees>49.39960003830492496490478515625</LatitudeDegrees>
              <LongitudeDegrees>20.40974621661007404327392578125</LongitudeDegrees>
            </Position>
            <AltitudeMeters>460.600006103515625</AltitudeMeters>
            <DistanceMeters>NAN</DistanceMeters>
          </Trackpoint>
          <Trackpoint>
            <Time>2022-09-21T10:01:24.000Z</Time>
            <Position>
              <LatitudeDegrees>49.39983062446117401123046875</LatitudeDegrees>
              <LongitudeDegrees>20.40967329405248165130615234375</LongitudeDegrees>
            </Position>
            <AltitudeMeters>460.600006103515625</AltitudeMeters>
            <DistanceMeters>NAN</DistanceMeters>
          </Trackpoint>
          <Trackpoint>
            <Time>2022-09-21T10:01:30.000Z</Time>
            <Position>
              <LatitudeDegrees>49.4000123441219329833984375</LatitudeDegrees>
              <LongitudeDegrees>20.4096215777099132537841796875</LongitudeDegrees>
            </Position>
            <AltitudeMeters>461</AltitudeMeters>
            <DistanceMeters>NAN</DistanceMeters>
          </Trackpoint>
          <Trackpoint>
            <Time>2022-09-21T10:01:34.000Z</Time>
            <Position>
              <LatitudeDegrees>49.4001278467476367950439453125</LatitudeDegrees>
              <LongitudeDegrees>20.409605987370014190673828125</LongitudeDegrees>
            </Position>
            <AltitudeMeters>461.399993896484375</AltitudeMeters>
            <DistanceMeters>NAN</DistanceMeters>
          </Trackpoint>
          <Trackpoint>
            <Time>2022-09-21T10:01:39.000Z</Time>
            <Position>
              <LatitudeDegrees>49.4002907909452915191650390625</LatitudeDegrees>
              <LongitudeDegrees>20.40958561934530735015869140625</LongitudeDegrees>
            </Position>
            <AltitudeMeters>461.79998779296875</AltitudeMeters>
            <DistanceMeters>NAN</DistanceMeters>
          </Trackpoint>
          <Trackpoint>
            <Time>2022-09-21T10:01:43.000Z</Time>
            <Position>
              <LatitudeDegrees>49.400408305227756500244140625</LatitudeDegrees>
              <LongitudeDegrees>20.40957204066216945648193359375</LongitudeDegrees>
            </Position>
            <AltitudeMeters>462.399993896484375</AltitudeMeters>
            <DistanceMeters>NAN</DistanceMeters>
          </Trackpoint>
          <Trackpoint>
            <Time>2022-09-21T10:01:48.000Z</Time>
            <Position>
              <LatitudeDegrees>49.40054065547883510589599609375</LatitudeDegrees>
              <LongitudeDegrees>20.40958427824079990386962890625</LongitudeDegrees>
            </Position>
            <AltitudeMeters>463</AltitudeMeters>
            <DistanceMeters>NAN</DistanceMeters>
          </Trackpoint>
          <Trackpoint>
            <Time>2022-09-21T10:01:53.000Z</Time>
            <Position>
              <LatitudeDegrees>49.40066537819802761077880859375</LatitudeDegrees>
              <LongitudeDegrees>20.4095833562314510345458984375</LongitudeDegrees>
            </Position>
            <AltitudeMeters>463.399993896484375</AltitudeMeters>
            <DistanceMeters>NAN</DistanceMeters>
          </Trackpoint>
          <Trackpoint>
            <Time>2022-09-21T10:01:54.000Z</Time>
            <Position>
              <LatitudeDegrees>49.4006854109466075897216796875</LatitudeDegrees>
              <LongitudeDegrees>20.4095788300037384033203125</LongitudeDegrees>
            </Position>
            <AltitudeMeters>463.600006103515625</AltitudeMeters>
            <DistanceMeters>NAN</DistanceMeters>
          </Trackpoint>
          <Trackpoint>
            <Time>2022-09-21T10:01:59.000Z</Time>
            <Position>
              <LatitudeDegrees>49.4007843174040317535400390625</LatitudeDegrees>
              <LongitudeDegrees>20.4095535166561603546142578125</LongitudeDegrees>
            </Position>
            <AltitudeMeters>464</AltitudeMeters>
            <DistanceMeters>NAN</DistanceMeters>
          </Trackpoint>
          <Trackpoint>
            <Time>2022-09-21T10:02:06.000Z</Time>
            <Position>
              <LatitudeDegrees>49.40092253498733043670654296875</LatitudeDegrees>
              <LongitudeDegrees>20.40954119525849819183349609375</LongitudeDegrees>
            </Position>
            <AltitudeMeters>464.20001220703125</AltitudeMeters>
            <DistanceMeters>NAN</DistanceMeters>
          </Trackpoint>
          <Trackpoint>
            <Time>2022-09-21T10:02:15.000Z</Time>
            <Position>
              <LatitudeDegrees>49.4011112116277217864990234375</LatitudeDegrees>
              <LongitudeDegrees>20.40956868790090084075927734375</LongitudeDegrees>
            </Position>
            <AltitudeMeters>464.399993896484375</AltitudeMeters>
            <DistanceMeters>NAN</DistanceMeters>
          </Trackpoint>
          <Trackpoint>
            <Time>2022-09-21T10:02:20.000Z</Time>
            <Position>
              <LatitudeDegrees>49.40126116387546062469482421875</LatitudeDegrees>
              <LongitudeDegrees>20.40962484665215015411376953125</LongitudeDegrees>
            </Position>
            <AltitudeMeters>463.600006103515625</AltitudeMeters>
            <DistanceMeters>NAN</DistanceMeters>
          </Trackpoint>
          <Trackpoint>
            <Time>2022-09-21T10:02:26.000Z</Time>
            <Position>
              <LatitudeDegrees>49.40137817524373531341552734375</LatitudeDegrees>
              <LongitudeDegrees>20.4096711985766887664794921875</LongitudeDegrees>
            </Position>
            <AltitudeMeters>462.79998779296875</AltitudeMeters>
            <DistanceMeters>NAN</DistanceMeters>
          </Trackpoint>
          <Trackpoint>
            <Time>2022-09-21T10:02:31.000Z</Time>
            <Position>
              <LatitudeDegrees>49.4015403650701045989990234375</LatitudeDegrees>
              <LongitudeDegrees>20.40973314084112644195556640625</LongitudeDegrees>
            </Position>
            <AltitudeMeters>462.399993896484375</AltitudeMeters>
            <DistanceMeters>NAN</DistanceMeters>
          </Trackpoint>
          <Trackpoint>
            <Time>2022-09-21T10:02:35.000Z</Time>
            <Position>
              <LatitudeDegrees>49.401706494390964508056640625</LatitudeDegrees>
              <LongitudeDegrees>20.4098029620945453643798828125</LongitudeDegrees>
            </Position>
            <AltitudeMeters>462.20001220703125</AltitudeMeters>
            <DistanceMeters>NAN</DistanceMeters>
          </Trackpoint>
          <Trackpoint>
            <Time>2022-09-21T10:02:36.000Z</Time>
            <Position>
              <LatitudeDegrees>49.40175502561032772064208984375</LatitudeDegrees>
              <LongitudeDegrees>20.40981880389153957366943359375</LongitudeDegrees>
            </Position>
            <AltitudeMeters>462</AltitudeMeters>
            <DistanceMeters>NAN</DistanceMeters>
          </Trackpoint>
          <Trackpoint>
            <Time>2022-09-21T10:02:37.000Z</Time>
            <Position>
              <LatitudeDegrees>49.40180799923837184906005859375</LatitudeDegrees>
              <LongitudeDegrees>20.4098378308117389678955078125</LongitudeDegrees>
            </Position>
            <AltitudeMeters>462</AltitudeMeters>
            <DistanceMeters>NAN</DistanceMeters>
          </Trackpoint>
          <Trackpoint>
            <Time>2022-09-21T10:02:39.000Z</Time>
            <Position>
              <LatitudeDegrees>49.40189869143068790435791015625</LatitudeDegrees>
              <LongitudeDegrees>20.4098649881780147552490234375</LongitudeDegrees>
            </Position>
            <AltitudeMeters>461.79998779296875</AltitudeMeters>
            <DistanceMeters>NAN</DistanceMeters>
          </Trackpoint>
          <Trackpoint>
            <Time>2022-09-21T10:02:43.000Z</Time>
            <Position>
              <LatitudeDegrees>49.40206917934119701385498046875</LatitudeDegrees>
              <LongitudeDegrees>20.4099079035222530364990234375</LongitudeDegrees>
            </Position>
            <AltitudeMeters>461.600006103515625</AltitudeMeters>
            <DistanceMeters>NAN</DistanceMeters>
          </Trackpoint>
          <Trackpoint>
            <Time>2022-09-21T10:02:44.000Z</Time>
            <Position>
              <LatitudeDegrees>49.402109496295452117919921875</LatitudeDegrees>
              <LongitudeDegrees>20.409916453063488006591796875</LongitudeDegrees>
            </Position>
            <AltitudeMeters>461.600006103515625</AltitudeMeters>
            <DistanceMeters>NAN</DistanceMeters>
          </Trackpoint>
          <Trackpoint>
            <Time>2022-09-21T10:02:47.000Z</Time>
            <Position>
              <LatitudeDegrees>49.4022337161004543304443359375</LatitudeDegrees>
              <LongitudeDegrees>20.4099427722394466400146484375</LongitudeDegrees>
            </Position>
            <AltitudeMeters>461.600006103515625</AltitudeMeters>
            <DistanceMeters>NAN</DistanceMeters>
          </Trackpoint>
          <Trackpoint>
            <Time>2022-09-21T10:02:51.000Z</Time>
            <Position>
              <LatitudeDegrees>49.4023798964917659759521484375</LatitudeDegrees>
              <LongitudeDegrees>20.40995660237967967987060546875</LongitudeDegrees>
            </Position>
            <AltitudeMeters>461.79998779296875</AltitudeMeters>
            <DistanceMeters>NAN</DistanceMeters>
          </Trackpoint>
          <Trackpoint>
            <Time>2022-09-21T10:03:02.000Z</Time>
            <Position>
              <LatitudeDegrees>49.40280712209641933441162109375</LatitudeDegrees>
              <LongitudeDegrees>20.40998392738401889801025390625</LongitudeDegrees>
            </Position>
            <AltitudeMeters>462.79998779296875</AltitudeMeters>
            <DistanceMeters>NAN</DistanceMeters>
          </Trackpoint>
          <Trackpoint>
            <Time>2022-09-21T10:03:07.000Z</Time>
            <Position>
              <LatitudeDegrees>49.4029649533331394195556640625</LatitudeDegrees>
              <LongitudeDegrees>20.4099816642701625823974609375</LongitudeDegrees>
            </Position>
            <AltitudeMeters>463.20001220703125</AltitudeMeters>
            <DistanceMeters>NAN</DistanceMeters>
          </Trackpoint>
          <Trackpoint>
            <Time>2022-09-21T10:03:08.000Z</Time>
            <Position>
              <LatitudeDegrees>49.4029830582439899444580078125</LatitudeDegrees>
              <LongitudeDegrees>20.409987866878509521484375</LongitudeDegrees>
            </Position>
            <AltitudeMeters>463.399993896484375</AltitudeMeters>
            <DistanceMeters>NAN</DistanceMeters>
          </Trackpoint>
          <Trackpoint>
            <Time>2022-09-21T10:03:09.000Z</Time>
            <Position>
              <LatitudeDegrees>49.40299722366034984588623046875</LatitudeDegrees>
              <LongitudeDegrees>20.4100024513900279998779296875</LongitudeDegrees>
            </Position>
            <AltitudeMeters>463.600006103515625</AltitudeMeters>
            <DistanceMeters>NAN</DistanceMeters>
          </Trackpoint>
          <Trackpoint>
            <Time>2022-09-21T10:03:11.000Z</Time>
            <Position>
              <LatitudeDegrees>49.40301951952278614044189453125</LatitudeDegrees>
              <LongitudeDegrees>20.41004075668752193450927734375</LongitudeDegrees>
            </Position>
            <AltitudeMeters>463.79998779296875</AltitudeMeters>
            <DistanceMeters>NAN</DistanceMeters>
          </Trackpoint>
          <Trackpoint>
            <Time>2022-09-21T10:03:17.000Z</Time>
            <Position>
              <LatitudeDegrees>49.40305690281093120574951171875</LatitudeDegrees>
              <LongitudeDegrees>20.41013631038367748260498046875</LongitudeDegrees>
            </Position>
            <AltitudeMeters>463.79998779296875</AltitudeMeters>
            <DistanceMeters>NAN</DistanceMeters>
          </Trackpoint>
          <Trackpoint>
            <Time>2022-09-21T10:03:22.000Z</Time>
            <Position>
              <LatitudeDegrees>49.40302454866468906402587890625</LatitudeDegrees>
              <LongitudeDegrees>20.41035591624677181243896484375</LongitudeDegrees>
            </Position>
            <AltitudeMeters>463.399993896484375</AltitudeMeters>
            <DistanceMeters>NAN</DistanceMeters>
          </Trackpoint>
          <Trackpoint>
            <Time>2022-09-21T10:03:24.000Z</Time>
            <Position>
              <LatitudeDegrees>49.40298280678689479827880859375</LatitudeDegrees>
              <LongitudeDegrees>20.410499833524227142333984375</LongitudeDegrees>
            </Position>
            <AltitudeMeters>462.600006103515625</AltitudeMeters>
            <DistanceMeters>NAN</DistanceMeters>
          </Trackpoint>
          <Trackpoint>
            <Time>2022-09-21T10:03:26.000Z</Time>
            <Position>
              <LatitudeDegrees>49.40293469466269016265869140625</LatitudeDegrees>
              <LongitudeDegrees>20.41064542718231678009033203125</LongitudeDegrees>
            </Position>
            <AltitudeMeters>462.20001220703125</AltitudeMeters>
            <DistanceMeters>NAN</DistanceMeters>
          </Trackpoint>
          <Trackpoint>
            <Time>2022-09-21T10:03:27.000Z</Time>
            <Position>
              <LatitudeDegrees>49.40290577709674835205078125</LatitudeDegrees>
              <LongitudeDegrees>20.41071583516895771026611328125</LongitudeDegrees>
            </Position>
            <AltitudeMeters>461.79998779296875</AltitudeMeters>
            <DistanceMeters>NAN</DistanceMeters>
          </Trackpoint>
          <Trackpoint>
            <Time>2022-09-21T10:03:28.000Z</Time>
            <Position>
              <LatitudeDegrees>49.40286780707538127899169921875</LatitudeDegrees>
              <LongitudeDegrees>20.41078381240367889404296875</LongitudeDegrees>
            </Position>
            <AltitudeMeters>461.399993896484375</AltitudeMeters>
            <DistanceMeters>NAN</DistanceMeters>
          </Trackpoint>
          <Trackpoint>
            <Time>2022-09-21T10:03:31.000Z</Time>
            <Position>
              <LatitudeDegrees>49.402776695787906646728515625</LatitudeDegrees>
              <LongitudeDegrees>20.4109574854373931884765625</LongitudeDegrees>
            </Position>
            <AltitudeMeters>460.600006103515625</AltitudeMeters>
            <DistanceMeters>NAN</DistanceMeters>
          </Trackpoint>
          <Trackpoint>
            <Time>2022-09-21T10:03:32.000Z</Time>
            <Position>
              <LatitudeDegrees>49.40274459309875965118408203125</LatitudeDegrees>
              <LongitudeDegrees>20.41099830530583858489990234375</LongitudeDegrees>
            </Position>
            <AltitudeMeters>460.399993896484375</AltitudeMeters>
            <DistanceMeters>NAN</DistanceMeters>
          </Trackpoint>
          <Trackpoint>
            <Time>2022-09-21T10:03:37.000Z</Time>
            <Position>
              <LatitudeDegrees>49.4025658071041107177734375</LatitudeDegrees>
              <LongitudeDegrees>20.411205589771270751953125</LongitudeDegrees>
            </Position>
            <AltitudeMeters>459.399993896484375</AltitudeMeters>
            <DistanceMeters>NAN</DistanceMeters>
          </Trackpoint>
          <Trackpoint>
            <Time>2022-09-21T10:03:38.000Z</Time>
            <Position>
              <LatitudeDegrees>49.40252733416855335235595703125</LatitudeDegrees>
              <LongitudeDegrees>20.41124825365841388702392578125</LongitudeDegrees>
            </Position>
            <AltitudeMeters>459.20001220703125</AltitudeMeters>
            <DistanceMeters>NAN</DistanceMeters>
          </Trackpoint>
          <Trackpoint>
            <Time>2022-09-21T10:03:40.000Z</Time>
            <Position>
              <LatitudeDegrees>49.40245105884969234466552734375</LatitudeDegrees>
              <LongitudeDegrees>20.41133492253720760345458984375</LongitudeDegrees>
            </Position>
            <AltitudeMeters>459</AltitudeMeters>
            <DistanceMeters>NAN</DistanceMeters>
          </Trackpoint>
          <Trackpoint>
            <Time>2022-09-21T10:03:45.000Z</Time>
            <Position>
              <LatitudeDegrees>49.40226967446506023406982421875</LatitudeDegrees>
              <LongitudeDegrees>20.4115205816924571990966796875</LongitudeDegrees>
            </Position>
            <AltitudeMeters>458.399993896484375</AltitudeMeters>
            <DistanceMeters>NAN</DistanceMeters>
          </Trackpoint>
          <Trackpoint>
            <Time>2022-09-21T10:03:47.000Z</Time>
            <Position>
              <LatitudeDegrees>49.402204714715480804443359375</LatitudeDegrees>
              <LongitudeDegrees>20.4115909896790981292724609375</LongitudeDegrees>
            </Position>
            <AltitudeMeters>458.399993896484375</AltitudeMeters>
            <DistanceMeters>NAN</DistanceMeters>
          </Trackpoint>
          <Trackpoint>
            <Time>2022-09-21T10:03:50.000Z</Time>
            <Position>
              <LatitudeDegrees>49.4021071493625640869140625</LatitudeDegrees>
              <LongitudeDegrees>20.41170171461999416351318359375</LongitudeDegrees>
            </Position>
            <AltitudeMeters>458.399993896484375</AltitudeMeters>
            <DistanceMeters>NAN</DistanceMeters>
          </Trackpoint>
          <Trackpoint>
            <Time>2022-09-21T10:03:51.000Z</Time>
            <Position>
              <LatitudeDegrees>49.40207035280764102935791015625</LatitudeDegrees>
              <LongitudeDegrees>20.41174001991748809814453125</LongitudeDegrees>
            </Position>
            <AltitudeMeters>458.399993896484375</AltitudeMeters>
            <DistanceMeters>NAN</DistanceMeters>
          </Trackpoint>
          <Trackpoint>
            <Time>2022-09-21T10:03:56.000Z</Time>
            <Position>
              <LatitudeDegrees>49.40189919434487819671630859375</LatitudeDegrees>
              <LongitudeDegrees>20.411972366273403167724609375</LongitudeDegrees>
            </Position>
            <AltitudeMeters>458.600006103515625</AltitudeMeters>
            <DistanceMeters>NAN</DistanceMeters>
          </Trackpoint>
          <Trackpoint>
            <Time>2022-09-21T10:03:58.000Z</Time>
            <Position>
              <LatitudeDegrees>49.40183264203369617462158203125</LatitudeDegrees>
              <LongitudeDegrees>20.4120509885251522064208984375</LongitudeDegrees>
            </Position>
            <AltitudeMeters>458.399993896484375</AltitudeMeters>
            <DistanceMeters>NAN</DistanceMeters>
          </Trackpoint>
          <Trackpoint>
            <Time>2022-09-21T10:04:02.000Z</Time>
            <Position>
              <LatitudeDegrees>49.40170657820999622344970703125</LatitudeDegrees>
              <LongitudeDegrees>20.4122006893157958984375</LongitudeDegrees>
            </Position>
            <AltitudeMeters>458.600006103515625</AltitudeMeters>
            <DistanceMeters>NAN</DistanceMeters>
          </Trackpoint>
          <Trackpoint>
            <Time>2022-09-21T10:04:05.000Z</Time>
            <Position>
              <LatitudeDegrees>49.40162259154021739959716796875</LatitudeDegrees>
              <LongitudeDegrees>20.4123307764530181884765625</LongitudeDegrees>
            </Position>
            <AltitudeMeters>458.600006103515625</AltitudeMeters>
            <DistanceMeters>NAN</DistanceMeters>
          </Trackpoint>
          <Trackpoint>
            <Time>2022-09-21T10:04:10.000Z</Time>
            <Position>
              <LatitudeDegrees>49.401479847729206085205078125</LatitudeDegrees>
              <LongitudeDegrees>20.4124781303107738494873046875</LongitudeDegrees>
            </Position>
            <AltitudeMeters>458.399993896484375</AltitudeMeters>
            <DistanceMeters>NAN</DistanceMeters>
          </Trackpoint>
          <Trackpoint>
            <Time>2022-09-21T10:04:18.000Z</Time>
            <Position>
              <LatitudeDegrees>49.4012620858848094940185546875</LatitudeDegrees>
              <LongitudeDegrees>20.4127201996743679046630859375</LongitudeDegrees>
            </Position>
            <AltitudeMeters>458.20001220703125</AltitudeMeters>
            <DistanceMeters>NAN</DistanceMeters>
          </Trackpoint>
          <Trackpoint>
            <Time>2022-09-21T10:04:23.000Z</Time>
            <Position>
              <LatitudeDegrees>49.40112889744341373443603515625</LatitudeDegrees>
              <LongitudeDegrees>20.41280108503997325897216796875</LongitudeDegrees>
            </Position>
            <AltitudeMeters>458.20001220703125</AltitudeMeters>
            <DistanceMeters>NAN</DistanceMeters>
          </Trackpoint>
          <Trackpoint>
            <Time>2022-09-21T10:04:29.000Z</Time>
            <Position>
              <LatitudeDegrees>49.40097592771053314208984375</LatitudeDegrees>
              <LongitudeDegrees>20.4128549806773662567138671875</LongitudeDegrees>
            </Position>
            <AltitudeMeters>457.79998779296875</AltitudeMeters>
            <DistanceMeters>NAN</DistanceMeters>
          </Trackpoint>
          <Trackpoint>
            <Time>2022-09-21T10:04:36.000Z</Time>
            <Position>
              <LatitudeDegrees>49.40076830796897411346435546875</LatitudeDegrees>
              <LongitudeDegrees>20.4128918610513210296630859375</LongitudeDegrees>
            </Position>
            <AltitudeMeters>457.600006103515625</AltitudeMeters>
            <DistanceMeters>NAN</DistanceMeters>
          </Trackpoint>
          <Trackpoint>
            <Time>2022-09-21T10:04:45.000Z</Time>
            <Position>
              <LatitudeDegrees>49.4004597701132297515869140625</LatitudeDegrees>
              <LongitudeDegrees>20.412839390337467193603515625</LongitudeDegrees>
            </Position>
            <AltitudeMeters>457.600006103515625</AltitudeMeters>
            <DistanceMeters>NAN</DistanceMeters>
          </Trackpoint>
          <Trackpoint>
            <Time>2022-09-21T10:04:48.000Z</Time>
            <Position>
              <LatitudeDegrees>49.4003598578274250030517578125</LatitudeDegrees>
              <LongitudeDegrees>20.412800498306751251220703125</LongitudeDegrees>
            </Position>
            <AltitudeMeters>457.600006103515625</AltitudeMeters>
            <DistanceMeters>NAN</DistanceMeters>
          </Trackpoint>
          <Trackpoint>
            <Time>2022-09-21T10:04:51.000Z</Time>
            <Position>
              <LatitudeDegrees>49.40025969408452510833740234375</LatitudeDegrees>
              <LongitudeDegrees>20.41278230957686901092529296875</LongitudeDegrees>
            </Position>
            <AltitudeMeters>457.79998779296875</AltitudeMeters>
            <DistanceMeters>NAN</DistanceMeters>
          </Trackpoint>
          <Trackpoint>
            <Time>2022-09-21T10:04:52.000Z</Time>
            <Position>
              <LatitudeDegrees>49.4002269208431243896484375</LatitudeDegrees>
              <LongitudeDegrees>20.41277426294982433319091796875</LongitudeDegrees>
            </Position>
            <AltitudeMeters>457.79998779296875</AltitudeMeters>
            <DistanceMeters>NAN</DistanceMeters>
          </Trackpoint>
          <Trackpoint>
            <Time>2022-09-21T10:05:00.000Z</Time>
            <Position>
              <LatitudeDegrees>49.39993866719305515289306640625</LatitudeDegrees>
              <LongitudeDegrees>20.4127151705324649810791015625</LongitudeDegrees>
            </Position>
            <AltitudeMeters>458</AltitudeMeters>
            <DistanceMeters>NAN</DistanceMeters>
          </Trackpoint>
          <Trackpoint>
            <Time>2022-09-21T10:05:05.000Z</Time>
            <Position>
              <LatitudeDegrees>49.3997885473072528839111328125</LatitudeDegrees>
              <LongitudeDegrees>20.41268608532845973968505859375</LongitudeDegrees>
            </Position>
            <AltitudeMeters>458</AltitudeMeters>
            <DistanceMeters>NAN</DistanceMeters>
          </Trackpoint>
          <Trackpoint>
            <Time>2022-09-21T10:05:11.000Z</Time>
            <Position>
              <LatitudeDegrees>49.39962032251060009002685546875</LatitudeDegrees>
              <LongitudeDegrees>20.41265004314482212066650390625</LongitudeDegrees>
            </Position>
            <AltitudeMeters>458</AltitudeMeters>
            <DistanceMeters>NAN</DistanceMeters>
          </Trackpoint>
          <Trackpoint>
            <Time>2022-09-21T10:05:12.000Z</Time>
            <Position>
              <LatitudeDegrees>49.3995934166014194488525390625</LatitudeDegrees>
              <LongitudeDegrees>20.41264903731644153594970703125</LongitudeDegrees>
            </Position>
            <AltitudeMeters>458</AltitudeMeters>
            <DistanceMeters>NAN</DistanceMeters>
          </Trackpoint>
          <Trackpoint>
            <Time>2022-09-21T10:05:16.000Z</Time>
            <Position>
              <LatitudeDegrees>49.39949744381010532379150390625</LatitudeDegrees>
              <LongitudeDegrees>20.4126320220530033111572265625</LongitudeDegrees>
            </Position>
            <AltitudeMeters>458.20001220703125</AltitudeMeters>
            <DistanceMeters>NAN</DistanceMeters>
          </Trackpoint>
          <Trackpoint>
            <Time>2022-09-21T10:05:23.000Z</Time>
            <Position>
              <LatitudeDegrees>49.399342797696590423583984375</LatitudeDegrees>
              <LongitudeDegrees>20.4126298427581787109375</LongitudeDegrees>
            </Position>
            <AltitudeMeters>458.20001220703125</AltitudeMeters>
            <DistanceMeters>NAN</DistanceMeters>
          </Trackpoint>
          <Trackpoint>
            <Time>2022-09-21T10:05:28.000Z</Time>
            <Position>
              <LatitudeDegrees>49.39919787459075450897216796875</LatitudeDegrees>
              <LongitudeDegrees>20.41263076476752758026123046875</LongitudeDegrees>
            </Position>
            <AltitudeMeters>458.20001220703125</AltitudeMeters>
            <DistanceMeters>NAN</DistanceMeters>
          </Trackpoint>
          <Trackpoint>
            <Time>2022-09-21T10:05:32.000Z</Time>
            <Position>
              <LatitudeDegrees>49.39907583408057689666748046875</LatitudeDegrees>
              <LongitudeDegrees>20.4126484505832195281982421875</LongitudeDegrees>
            </Position>
            <AltitudeMeters>458.399993896484375</AltitudeMeters>
            <DistanceMeters>NAN</DistanceMeters>
          </Trackpoint>
          <Trackpoint>
            <Time>2022-09-21T10:05:39.000Z</Time>
            <Position>
              <LatitudeDegrees>49.398836195468902587890625</LatitudeDegrees>
              <LongitudeDegrees>20.4126444272696971893310546875</LongitudeDegrees>
            </Position>
            <AltitudeMeters>458.600006103515625</AltitudeMeters>
            <DistanceMeters>NAN</DistanceMeters>
          </Trackpoint>
          <Trackpoint>
            <Time>2022-09-21T10:05:47.000Z</Time>
            <Position>
              <LatitudeDegrees>49.39859739504754543304443359375</LatitudeDegrees>
              <LongitudeDegrees>20.4126601852476596832275390625</LongitudeDegrees>
            </Position>
            <AltitudeMeters>459</AltitudeMeters>
            <DistanceMeters>NAN</DistanceMeters>
          </Trackpoint>
          <Trackpoint>
            <Time>2022-09-21T10:05:50.000Z</Time>
            <Position>
              <LatitudeDegrees>49.39851977862417697906494140625</LatitudeDegrees>
              <LongitudeDegrees>20.41266479529440402984619140625</LongitudeDegrees>
            </Position>
            <AltitudeMeters>459</AltitudeMeters>
            <DistanceMeters>NAN</DistanceMeters>
          </Trackpoint>
          <Trackpoint>
            <Time>2022-09-21T10:05:55.000Z</Time>
            <Position>
              <LatitudeDegrees>49.39839304424822330474853515625</LatitudeDegrees>
              <LongitudeDegrees>20.412640236318111419677734375</LongitudeDegrees>
            </Position>
            <AltitudeMeters>458.79998779296875</AltitudeMeters>
            <DistanceMeters>NAN</DistanceMeters>
          </Trackpoint>
          <Trackpoint>
            <Time>2022-09-21T10:06:04.000Z</Time>
            <Position>
              <LatitudeDegrees>49.3981259129941463470458984375</LatitudeDegrees>
              <LongitudeDegrees>20.41255935095250606536865234375</LongitudeDegrees>
            </Position>
            <AltitudeMeters>458.79998779296875</AltitudeMeters>
            <DistanceMeters>NAN</DistanceMeters>
          </Trackpoint>
          <Trackpoint>
            <Time>2022-09-21T10:06:11.000Z</Time>
            <Position>
              <LatitudeDegrees>49.39790077507495880126953125</LatitudeDegrees>
              <LongitudeDegrees>20.41245508007705211639404296875</LongitudeDegrees>
            </Position>
            <AltitudeMeters>459</AltitudeMeters>
            <DistanceMeters>NAN</DistanceMeters>
          </Trackpoint>
          <Trackpoint>
            <Time>2022-09-21T10:06:19.000Z</Time>
            <Position>
              <LatitudeDegrees>49.39768510870635509490966796875</LatitudeDegrees>
              <LongitudeDegrees>20.41234728880226612091064453125</LongitudeDegrees>
            </Position>
            <AltitudeMeters>459.20001220703125</AltitudeMeters>
            <DistanceMeters>NAN</DistanceMeters>
          </Trackpoint>
          <Trackpoint>
            <Time>2022-09-21T10:06:20.000Z</Time>
            <Position>
              <LatitudeDegrees>49.39766096882522106170654296875</LatitudeDegrees>
              <LongitudeDegrees>20.41232876479625701904296875</LongitudeDegrees>
            </Position>
            <AltitudeMeters>459.20001220703125</AltitudeMeters>
            <DistanceMeters>NAN</DistanceMeters>
          </Trackpoint>
          <Trackpoint>
            <Time>2022-09-21T10:06:21.000Z</Time>
            <Position>
              <LatitudeDegrees>49.3976297043263912200927734375</LatitudeDegrees>
              <LongitudeDegrees>20.41230940259993076324462890625</LongitudeDegrees>
            </Position>
            <AltitudeMeters>459.20001220703125</AltitudeMeters>
            <DistanceMeters>NAN</DistanceMeters>
          </Trackpoint>
          <Trackpoint>
            <Time>2022-09-21T10:06:25.000Z</Time>
            <Position>
              <LatitudeDegrees>49.39752702601253986358642578125</LatitudeDegrees>
              <LongitudeDegrees>20.4122561775147914886474609375</LongitudeDegrees>
            </Position>
            <AltitudeMeters>459.20001220703125</AltitudeMeters>
            <DistanceMeters>NAN</DistanceMeters>
          </Trackpoint>
          <Trackpoint>
            <Time>2022-09-21T10:06:30.000Z</Time>
            <Position>
              <LatitudeDegrees>49.3973832763731479644775390625</LatitudeDegrees>
              <LongitudeDegrees>20.4121537506580352783203125</LongitudeDegrees>
            </Position>
            <AltitudeMeters>459.20001220703125</AltitudeMeters>
            <DistanceMeters>NAN</DistanceMeters>
          </Trackpoint>
          <Trackpoint>
            <Time>2022-09-21T10:06:31.000Z</Time>
            <Position>
              <LatitudeDegrees>49.39735804684460163116455078125</LatitudeDegrees>
              <LongitudeDegrees>20.4121287725865840911865234375</LongitudeDegrees>
            </Position>
            <AltitudeMeters>459.20001220703125</AltitudeMeters>
            <DistanceMeters>NAN</DistanceMeters>
          </Trackpoint>
          <Trackpoint>
            <Time>2022-09-21T10:06:35.000Z</Time>
            <Position>
              <LatitudeDegrees>49.39724824391305446624755859375</LatitudeDegrees>
              <LongitudeDegrees>20.4120315425097942352294921875</LongitudeDegrees>
            </Position>
            <AltitudeMeters>459.399993896484375</AltitudeMeters>
            <DistanceMeters>NAN</DistanceMeters>
          </Trackpoint>
          <Trackpoint>
            <Time>2022-09-21T10:06:37.000Z</Time>
            <Position>
              <LatitudeDegrees>49.3972018919885158538818359375</LatitudeDegrees>
              <LongitudeDegrees>20.41197697632014751434326171875</LongitudeDegrees>
            </Position>
            <AltitudeMeters>459.399993896484375</AltitudeMeters>
            <DistanceMeters>NAN</DistanceMeters>
          </Trackpoint>
          <Trackpoint>
            <Time>2022-09-21T10:06:38.000Z</Time>
            <Position>
              <LatitudeDegrees>49.3971700407564640045166015625</LatitudeDegrees>
              <LongitudeDegrees>20.41194093413650989532470703125</LongitudeDegrees>
            </Position>
            <AltitudeMeters>459.399993896484375</AltitudeMeters>
            <DistanceMeters>NAN</DistanceMeters>
          </Trackpoint>
          <Trackpoint>
            <Time>2022-09-21T10:06:40.000Z</Time>
            <Position>
              <LatitudeDegrees>49.39712067134678363800048828125</LatitudeDegrees>
              <LongitudeDegrees>20.41188418865203857421875</LongitudeDegrees>
            </Position>
            <AltitudeMeters>459.600006103515625</AltitudeMeters>
            <DistanceMeters>NAN</DistanceMeters>
          </Trackpoint>
          <Trackpoint>
            <Time>2022-09-21T10:06:41.000Z</Time>
            <Position>
              <LatitudeDegrees>49.39709435217082500457763671875</LatitudeDegrees>
              <LongitudeDegrees>20.41185208596289157867431640625</LongitudeDegrees>
            </Position>
            <AltitudeMeters>459.600006103515625</AltitudeMeters>
            <DistanceMeters>NAN</DistanceMeters>
          </Trackpoint>
          <Trackpoint>
            <Time>2022-09-21T10:06:42.000Z</Time>
            <Position>
              <LatitudeDegrees>49.3970684520900249481201171875</LatitudeDegrees>
              <LongitudeDegrees>20.4118162952363491058349609375</LongitudeDegrees>
            </Position>
            <AltitudeMeters>459.600006103515625</AltitudeMeters>
            <DistanceMeters>NAN</DistanceMeters>
          </Trackpoint>
          <Trackpoint>
            <Time>2022-09-21T10:06:43.000Z</Time>
            <Position>
              <LatitudeDegrees>49.39704473130404949188232421875</LatitudeDegrees>
              <LongitudeDegrees>20.411783270537853240966796875</LongitudeDegrees>
            </Position>
            <AltitudeMeters>459.600006103515625</AltitudeMeters>
            <DistanceMeters>NAN</DistanceMeters>
          </Trackpoint>
          <Trackpoint>
            <Time>2022-09-21T10:06:50.000Z</Time>
            <Position>
              <LatitudeDegrees>49.39688245765864849090576171875</LatitudeDegrees>
              <LongitudeDegrees>20.41158973239362239837646484375</LongitudeDegrees>
            </Position>
            <AltitudeMeters>459.600006103515625</AltitudeMeters>
            <DistanceMeters>NAN</DistanceMeters>
          </Trackpoint>
          <Trackpoint>
            <Time>2022-09-21T10:06:58.000Z</Time>
            <Position>
              <LatitudeDegrees>49.3967214412987232208251953125</LatitudeDegrees>
              <LongitudeDegrees>20.41140784509479999542236328125</LongitudeDegrees>
            </Position>
            <AltitudeMeters>460</AltitudeMeters>
            <DistanceMeters>NAN</DistanceMeters>
          </Trackpoint>
          <Trackpoint>
            <Time>2022-09-21T10:07:02.000Z</Time>
            <Position>
              <LatitudeDegrees>49.39665815792977809906005859375</LatitudeDegrees>
              <LongitudeDegrees>20.4113438911736011505126953125</LongitudeDegrees>
            </Position>
            <AltitudeMeters>459.79998779296875</AltitudeMeters>
            <DistanceMeters>NAN</DistanceMeters>
          </Trackpoint>
          <Trackpoint>
            <Time>2022-09-21T10:07:04.000Z</Time>
            <Position>
              <LatitudeDegrees>49.39662312157452106475830078125</LatitudeDegrees>
              <LongitudeDegrees>20.41131061501801013946533203125</LongitudeDegrees>
            </Position>
            <AltitudeMeters>459.79998779296875</AltitudeMeters>
            <DistanceMeters>NAN</DistanceMeters>
          </Trackpoint>
          <Trackpoint>
            <Time>2022-09-21T10:07:05.000Z</Time>
            <Position>
              <LatitudeDegrees>49.39660367555916309356689453125</LatitudeDegrees>
              <LongitudeDegrees>20.41128337383270263671875</LongitudeDegrees>
            </Position>
            <AltitudeMeters>459.79998779296875</AltitudeMeters>
            <DistanceMeters>NAN</DistanceMeters>
          </Trackpoint>
          <Trackpoint>
            <Time>2022-09-21T10:07:10.000Z</Time>
            <Position>
              <LatitudeDegrees>49.39650292508304119110107421875</LatitudeDegrees>
              <LongitudeDegrees>20.4111618362367153167724609375</LongitudeDegrees>
            </Position>
            <AltitudeMeters>460</AltitudeMeters>
            <DistanceMeters>NAN</DistanceMeters>
          </Trackpoint>
          <Trackpoint>
            <Time>2022-09-21T10:07:14.000Z</Time>
            <Position>
              <LatitudeDegrees>49.39641357399523258209228515625</LatitudeDegrees>
              <LongitudeDegrees>20.41105463169515132904052734375</LongitudeDegrees>
            </Position>
            <AltitudeMeters>459.79998779296875</AltitudeMeters>
            <DistanceMeters>NAN</DistanceMeters>
          </Trackpoint>
          <Trackpoint>
            <Time>2022-09-21T10:07:23.000Z</Time>
            <Position>
              <LatitudeDegrees>49.39622581936419010162353515625</LatitudeDegrees>
              <LongitudeDegrees>20.4108171723783016204833984375</LongitudeDegrees>
            </Position>
            <AltitudeMeters>459.79998779296875</AltitudeMeters>
            <DistanceMeters>NAN</DistanceMeters>
          </Trackpoint>
          <Trackpoint>
            <Time>2022-09-21T10:07:34.000Z</Time>
            <Position>
              <LatitudeDegrees>49.3959809839725494384765625</LatitudeDegrees>
              <LongitudeDegrees>20.4105422459542751312255859375</LongitudeDegrees>
            </Position>
            <AltitudeMeters>460</AltitudeMeters>
            <DistanceMeters>NAN</DistanceMeters>
          </Trackpoint>
          <Trackpoint>
            <Time>2022-09-21T10:07:36.000Z</Time>
            <Position>
              <LatitudeDegrees>49.3959265016019344329833984375</LatitudeDegrees>
              <LongitudeDegrees>20.41048130951821804046630859375</LongitudeDegrees>
            </Position>
            <AltitudeMeters>460.20001220703125</AltitudeMeters>
            <DistanceMeters>NAN</DistanceMeters>
          </Trackpoint>
          <Trackpoint>
            <Time>2022-09-21T10:07:40.000Z</Time>
            <Position>
              <LatitudeDegrees>49.39583505503833293914794921875</LatitudeDegrees>
              <LongitudeDegrees>20.41036798618733882904052734375</LongitudeDegrees>
            </Position>
            <AltitudeMeters>460.20001220703125</AltitudeMeters>
            <DistanceMeters>NAN</DistanceMeters>
          </Trackpoint>
          <Trackpoint>
            <Time>2022-09-21T10:07:48.000Z</Time>
            <Position>
              <LatitudeDegrees>49.39565652050077915191650390625</LatitudeDegrees>
              <LongitudeDegrees>20.410148799419403076171875</LongitudeDegrees>
            </Position>
            <AltitudeMeters>460.399993896484375</AltitudeMeters>
            <DistanceMeters>NAN</DistanceMeters>
          </Trackpoint>
          <Trackpoint>
            <Time>2022-09-21T10:07:54.000Z</Time>
            <Position>
              <LatitudeDegrees>49.3955597095191478729248046875</LatitudeDegrees>
              <LongitudeDegrees>20.4100141860544681549072265625</LongitudeDegrees>
            </Position>
            <AltitudeMeters>460.600006103515625</AltitudeMeters>
            <DistanceMeters>NAN</DistanceMeters>
          </Trackpoint>
          <Trackpoint>
            <Time>2022-09-21T10:08:00.000Z</Time>
            <Position>
              <LatitudeDegrees>49.395472705364227294921875</LatitudeDegrees>
              <LongitudeDegrees>20.40988217107951641082763671875</LongitudeDegrees>
            </Position>
            <AltitudeMeters>460.600006103515625</AltitudeMeters>
            <DistanceMeters>NAN</DistanceMeters>
          </Trackpoint>
          <Trackpoint>
            <Time>2022-09-21T10:08:09.000Z</Time>
            <Position>
              <LatitudeDegrees>49.3953655846416950225830078125</LatitudeDegrees>
              <LongitudeDegrees>20.40967614389955997467041015625</LongitudeDegrees>
            </Position>
            <AltitudeMeters>460.79998779296875</AltitudeMeters>
            <DistanceMeters>NAN</DistanceMeters>
          </Trackpoint>
          <Trackpoint>
            <Time>2022-09-21T10:08:14.000Z</Time>
            <Position>
              <LatitudeDegrees>49.3953692726790904998779296875</LatitudeDegrees>
              <LongitudeDegrees>20.40966809727251529693603515625</LongitudeDegrees>
            </Position>
            <AltitudeMeters>460.399993896484375</AltitudeMeters>
            <DistanceMeters>NAN</DistanceMeters>
          </Trackpoint>
          <Trackpoint>
            <Time>2022-09-21T10:08:21.000Z</Time>
            <Position>
              <LatitudeDegrees>49.3953692726790904998779296875</LatitudeDegrees>
              <LongitudeDegrees>20.40966809727251529693603515625</LongitudeDegrees>
            </Position>
            <AltitudeMeters>460.399993896484375</AltitudeMeters>
            <DistanceMeters>NAN</DistanceMeters>
          </Trackpoint>
          <Trackpoint>
            <Time>2022-09-21T10:08:31.000Z</Time>
            <Position>
              <LatitudeDegrees>49.3953692726790904998779296875</LatitudeDegrees>
              <LongitudeDegrees>20.40966809727251529693603515625</LongitudeDegrees>
            </Position>
            <AltitudeMeters>460.399993896484375</AltitudeMeters>
            <DistanceMeters>NAN</DistanceMeters>
          </Trackpoint>
          <Trackpoint>
            <Time>2022-09-21T10:08:34.000Z</Time>
            <Position>
              <LatitudeDegrees>49.3953692726790904998779296875</LatitudeDegrees>
              <LongitudeDegrees>20.40966809727251529693603515625</LongitudeDegrees>
            </Position>
            <AltitudeMeters>460.399993896484375</AltitudeMeters>
            <DistanceMeters>NAN</DistanceMeters>
          </Trackpoint>
          <Trackpoint>
            <Time>2022-09-21T10:08:36.000Z</Time>
            <Position>
              <LatitudeDegrees>49.3953692726790904998779296875</LatitudeDegrees>
              <LongitudeDegrees>20.40966809727251529693603515625</LongitudeDegrees>
            </Position>
            <AltitudeMeters>460.399993896484375</AltitudeMeters>
            <DistanceMeters>NAN</DistanceMeters>
          </Trackpoint>
          <Trackpoint>
            <Time>2022-09-21T10:08:38.000Z</Time>
            <Position>
              <LatitudeDegrees>49.3953692726790904998779296875</LatitudeDegrees>
              <LongitudeDegrees>20.40966809727251529693603515625</LongitudeDegrees>
            </Position>
            <AltitudeMeters>460.399993896484375</AltitudeMeters>
            <DistanceMeters>NAN</DistanceMeters>
          </Trackpoint>
          <Trackpoint>
            <Time>2022-09-21T10:08:43.000Z</Time>
            <Position>
              <LatitudeDegrees>49.3953692726790904998779296875</LatitudeDegrees>
              <LongitudeDegrees>20.40966809727251529693603515625</LongitudeDegrees>
            </Position>
            <AltitudeMeters>460.399993896484375</AltitudeMeters>
            <DistanceMeters>NAN</DistanceMeters>
          </Trackpoint>
          <Trackpoint>
            <Time>2022-09-21T10:08:44.000Z</Time>
            <Position>
              <LatitudeDegrees>49.3953692726790904998779296875</LatitudeDegrees>
              <LongitudeDegrees>20.40966809727251529693603515625</LongitudeDegrees>
            </Position>
            <AltitudeMeters>460.399993896484375</AltitudeMeters>
            <DistanceMeters>NAN</DistanceMeters>
          </Trackpoint>
          <Trackpoint>
            <Time>2022-09-21T10:09:26.000Z</Time>
            <Position>
              <LatitudeDegrees>49.39535879530012607574462890625</LatitudeDegrees>
              <LongitudeDegrees>20.40967480279505252838134765625</LongitudeDegrees>
            </Position>
            <AltitudeMeters>460.399993896484375</AltitudeMeters>
            <DistanceMeters>NAN</DistanceMeters>
          </Trackpoint>
          <Trackpoint>
            <Time>2022-09-21T10:09:29.000Z</Time>
            <Position>
              <LatitudeDegrees>49.39533096738159656524658203125</LatitudeDegrees>
              <LongitudeDegrees>20.409698523581027984619140625</LongitudeDegrees>
            </Position>
            <AltitudeMeters>460.399993896484375</AltitudeMeters>
            <DistanceMeters>NAN</DistanceMeters>
          </Trackpoint>
          <Trackpoint>
            <Time>2022-09-21T10:09:31.000Z</Time>
            <Position>
              <LatitudeDegrees>49.39531453885138034820556640625</LatitudeDegrees>
              <LongitudeDegrees>20.4097129404544830322265625</LongitudeDegrees>
            </Position>
            <AltitudeMeters>460.399993896484375</AltitudeMeters>
            <DistanceMeters>NAN</DistanceMeters>
          </Trackpoint>
          <Trackpoint>
            <Time>2022-09-21T10:09:35.000Z</Time>
            <Position>
              <LatitudeDegrees>49.3952790834009647369384765625</LatitudeDegrees>
              <LongitudeDegrees>20.4097000323235988616943359375</LongitudeDegrees>
            </Position>
            <AltitudeMeters>460.20001220703125</AltitudeMeters>
            <DistanceMeters>NAN</DistanceMeters>
          </Trackpoint>
          <Trackpoint>
            <Time>2022-09-21T10:09:41.000Z</Time>
            <Position>
              <LatitudeDegrees>49.39523709006607532501220703125</LatitudeDegrees>
              <LongitudeDegrees>20.40966994129121303558349609375</LongitudeDegrees>
            </Position>
            <AltitudeMeters>460.20001220703125</AltitudeMeters>
            <DistanceMeters>NAN</DistanceMeters>
          </Trackpoint>
          <Trackpoint>
            <Time>2022-09-21T10:09:43.000Z</Time>
            <Position>
              <LatitudeDegrees>49.3952234275639057159423828125</LatitudeDegrees>
              <LongitudeDegrees>20.40966759435832500457763671875</LongitudeDegrees>
            </Position>
            <AltitudeMeters>460.399993896484375</AltitudeMeters>
            <DistanceMeters>NAN</DistanceMeters>
          </Trackpoint>
          <Trackpoint>
            <Time>2022-09-21T10:09:50.000Z</Time>
            <Position>
              <LatitudeDegrees>49.39522233791649341583251953125</LatitudeDegrees>
              <LongitudeDegrees>20.40966407395899295806884765625</LongitudeDegrees>
            </Position>
            <AltitudeMeters>460.399993896484375</AltitudeMeters>
            <DistanceMeters>NAN</DistanceMeters>
          </Trackpoint>
          <Trackpoint>
            <Time>2022-09-21T10:09:55.000Z</Time>
            <Position>
              <LatitudeDegrees>49.39522233791649341583251953125</LatitudeDegrees>
              <LongitudeDegrees>20.40966407395899295806884765625</LongitudeDegrees>
            </Position>
            <AltitudeMeters>460.399993896484375</AltitudeMeters>
            <DistanceMeters>NAN</DistanceMeters>
          </Trackpoint>
          <Trackpoint>
            <Time>2022-09-21T10:10:05.000Z</Time>
            <Position>
              <LatitudeDegrees>49.39522233791649341583251953125</LatitudeDegrees>
              <LongitudeDegrees>20.40966407395899295806884765625</LongitudeDegrees>
            </Position>
            <AltitudeMeters>460.399993896484375</AltitudeMeters>
            <DistanceMeters>NAN</DistanceMeters>
          </Trackpoint>
          <Trackpoint>
            <Time>2022-09-21T10:10:06.000Z</Time>
            <Position>
              <LatitudeDegrees>49.39522233791649341583251953125</LatitudeDegrees>
              <LongitudeDegrees>20.40966407395899295806884765625</LongitudeDegrees>
            </Position>
            <AltitudeMeters>460.399993896484375</AltitudeMeters>
            <DistanceMeters>NAN</DistanceMeters>
          </Trackpoint>
          <Trackpoint>
            <Time>2022-09-21T10:10:10.000Z</Time>
            <Position>
              <LatitudeDegrees>49.39522233791649341583251953125</LatitudeDegrees>
              <LongitudeDegrees>20.40966407395899295806884765625</LongitudeDegrees>
            </Position>
            <AltitudeMeters>460.399993896484375</AltitudeMeters>
            <DistanceMeters>NAN</DistanceMeters>
          </Trackpoint>
          <Trackpoint>
            <Time>2022-09-21T10:10:22.000Z</Time>
            <Position>
              <LatitudeDegrees>49.39522233791649341583251953125</LatitudeDegrees>
              <LongitudeDegrees>20.40966407395899295806884765625</LongitudeDegrees>
            </Position>
            <AltitudeMeters>460.399993896484375</AltitudeMeters>
            <DistanceMeters>NAN</DistanceMeters>
          </Trackpoint>
          <Trackpoint>
            <Time>2022-09-21T10:10:23.000Z</Time>
            <Position>
              <LatitudeDegrees>49.395221583545207977294921875</LatitudeDegrees>
              <LongitudeDegrees>20.40966264903545379638671875</LongitudeDegrees>
            </Position>
            <AltitudeMeters>460.399993896484375</AltitudeMeters>
            <DistanceMeters>NAN</DistanceMeters>
          </Trackpoint>
          <Trackpoint>
            <Time>2022-09-21T10:10:26.000Z</Time>
            <Position>
              <LatitudeDegrees>49.39518176950514316558837890625</LatitudeDegrees>
              <LongitudeDegrees>20.4096413590013980865478515625</LongitudeDegrees>
            </Position>
            <AltitudeMeters>460.399993896484375</AltitudeMeters>
            <DistanceMeters>NAN</DistanceMeters>
          </Trackpoint>
          <Trackpoint>
            <Time>2022-09-21T10:10:29.000Z</Time>
            <Position>
              <LatitudeDegrees>49.39513600431382656097412109375</LatitudeDegrees>
              <LongitudeDegrees>20.40961302816867828369140625</LongitudeDegrees>
            </Position>
            <AltitudeMeters>460.399993896484375</AltitudeMeters>
            <DistanceMeters>NAN</DistanceMeters>
          </Trackpoint>
          <Trackpoint>
            <Time>2022-09-21T10:10:31.000Z</Time>
            <Position>
              <LatitudeDegrees>49.39509526826441287994384765625</LatitudeDegrees>
              <LongitudeDegrees>20.4096229188144207000732421875</LongitudeDegrees>
            </Position>
            <AltitudeMeters>460.399993896484375</AltitudeMeters>
            <DistanceMeters>NAN</DistanceMeters>
          </Trackpoint>
          <Trackpoint>
            <Time>2022-09-21T10:10:37.000Z</Time>
            <Position>
              <LatitudeDegrees>49.39499334432184696197509765625</LatitudeDegrees>
              <LongitudeDegrees>20.409738756716251373291015625</LongitudeDegrees>
            </Position>
            <AltitudeMeters>460.399993896484375</AltitudeMeters>
            <DistanceMeters>NAN</DistanceMeters>
          </Trackpoint>
          <Trackpoint>
            <Time>2022-09-21T10:10:38.000Z</Time>
            <Position>
              <LatitudeDegrees>49.39497842453420162200927734375</LatitudeDegrees>
              <LongitudeDegrees>20.409768931567668914794921875</LongitudeDegrees>
            </Position>
            <AltitudeMeters>460.600006103515625</AltitudeMeters>
            <DistanceMeters>NAN</DistanceMeters>
          </Trackpoint>
          <Trackpoint>
            <Time>2022-09-21T10:10:43.000Z</Time>
            <Position>
              <LatitudeDegrees>49.39489561133086681365966796875</LatitudeDegrees>
              <LongitudeDegrees>20.40989331901073455810546875</LongitudeDegrees>
            </Position>
            <AltitudeMeters>461.399993896484375</AltitudeMeters>
            <DistanceMeters>NAN</DistanceMeters>
          </Trackpoint>
          <Trackpoint>
            <Time>2022-09-21T10:10:48.000Z</Time>
            <Position>
              <LatitudeDegrees>49.3948110379278659820556640625</LatitudeDegrees>
              <LongitudeDegrees>20.410001613199710845947265625</LongitudeDegrees>
            </Position>
            <AltitudeMeters>462.600006103515625</AltitudeMeters>
            <DistanceMeters>NAN</DistanceMeters>
          </Trackpoint>
          <Trackpoint>
            <Time>2022-09-21T10:10:52.000Z</Time>
            <Position>
              <LatitudeDegrees>49.3947349302470684051513671875</LatitudeDegrees>
              <LongitudeDegrees>20.41009180247783660888671875</LongitudeDegrees>
            </Position>
            <AltitudeMeters>463</AltitudeMeters>
            <DistanceMeters>NAN</DistanceMeters>
          </Trackpoint>
          <Trackpoint>
            <Time>2022-09-21T10:10:59.000Z</Time>
            <Position>
              <LatitudeDegrees>49.39460165798664093017578125</LatitudeDegrees>
              <LongitudeDegrees>20.4102472029626369476318359375</LongitudeDegrees>
            </Position>
            <AltitudeMeters>463.600006103515625</AltitudeMeters>
            <DistanceMeters>NAN</DistanceMeters>
          </Trackpoint>
          <Trackpoint>
            <Time>2022-09-21T10:11:00.000Z</Time>
            <Position>
              <LatitudeDegrees>49.39458824694156646728515625</LatitudeDegrees>
              <LongitudeDegrees>20.4102656431496143341064453125</LongitudeDegrees>
            </Position>
            <AltitudeMeters>463.600006103515625</AltitudeMeters>
            <DistanceMeters>NAN</DistanceMeters>
          </Trackpoint>
          <Trackpoint>
            <Time>2022-09-21T10:11:05.000Z</Time>
            <Position>
              <LatitudeDegrees>49.39450375735759735107421875</LatitudeDegrees>
              <LongitudeDegrees>20.410379134118556976318359375</LongitudeDegrees>
            </Position>
            <AltitudeMeters>464.20001220703125</AltitudeMeters>
            <DistanceMeters>NAN</DistanceMeters>
          </Trackpoint>
          <Trackpoint>
            <Time>2022-09-21T10:11:13.000Z</Time>
            <Position>
              <LatitudeDegrees>49.394398145377635955810546875</LatitudeDegrees>
              <LongitudeDegrees>20.41051969863474369049072265625</LongitudeDegrees>
            </Position>
            <AltitudeMeters>464.600006103515625</AltitudeMeters>
            <DistanceMeters>NAN</DistanceMeters>
          </Trackpoint>
          <Trackpoint>
            <Time>2022-09-21T10:11:14.000Z</Time>
            <Position>
              <LatitudeDegrees>49.39438280649483203887939453125</LatitudeDegrees>
              <LongitudeDegrees>20.4105362109839916229248046875</LongitudeDegrees>
            </Position>
            <AltitudeMeters>464.600006103515625</AltitudeMeters>
            <DistanceMeters>NAN</DistanceMeters>
          </Trackpoint>
          <Trackpoint>
            <Time>2022-09-21T10:11:16.000Z</Time>
            <Position>
              <LatitudeDegrees>49.3943555653095245361328125</LatitudeDegrees>
              <LongitudeDegrees>20.410568900406360626220703125</LongitudeDegrees>
            </Position>
            <AltitudeMeters>464.600006103515625</AltitudeMeters>
            <DistanceMeters>NAN</DistanceMeters>
          </Trackpoint>
          <Trackpoint>
            <Time>2022-09-21T10:11:22.000Z</Time>
            <Position>
              <LatitudeDegrees>49.39426428638398647308349609375</LatitudeDegrees>
              <LongitudeDegrees>20.41068532504141330718994140625</LongitudeDegrees>
            </Position>
            <AltitudeMeters>464.79998779296875</AltitudeMeters>
            <DistanceMeters>NAN</DistanceMeters>
          </Trackpoint>
          <Trackpoint>
            <Time>2022-09-21T10:11:26.000Z</Time>
            <Position>
              <LatitudeDegrees>49.3942008353769779205322265625</LatitudeDegrees>
              <LongitudeDegrees>20.41076964698731899261474609375</LongitudeDegrees>
            </Position>
            <AltitudeMeters>464.79998779296875</AltitudeMeters>
            <DistanceMeters>NAN</DistanceMeters>
          </Trackpoint>
          <Trackpoint>
            <Time>2022-09-21T10:11:30.000Z</Time>
            <Position>
              <LatitudeDegrees>49.3941277451813220977783203125</LatitudeDegrees>
              <LongitudeDegrees>20.4108654521405696868896484375</LongitudeDegrees>
            </Position>
            <AltitudeMeters>464.399993896484375</AltitudeMeters>
            <DistanceMeters>NAN</DistanceMeters>
          </Trackpoint>
          <Trackpoint>
            <Time>2022-09-21T10:11:34.000Z</Time>
            <Position>
              <LatitudeDegrees>49.394052140414714813232421875</LatitudeDegrees>
              <LongitudeDegrees>20.41094751097261905670166015625</LongitudeDegrees>
            </Position>
            <AltitudeMeters>463.600006103515625</AltitudeMeters>
            <DistanceMeters>NAN</DistanceMeters>
          </Trackpoint>
          <Trackpoint>
            <Time>2022-09-21T10:11:35.000Z</Time>
            <Position>
              <LatitudeDegrees>49.39403814263641834259033203125</LatitudeDegrees>
              <LongitudeDegrees>20.4109643585979938507080078125</LongitudeDegrees>
            </Position>
            <AltitudeMeters>463.399993896484375</AltitudeMeters>
            <DistanceMeters>NAN</DistanceMeters>
          </Trackpoint>
          <Trackpoint>
            <Time>2022-09-21T10:11:36.000Z</Time>
            <Position>
              <LatitudeDegrees>49.39403302967548370361328125</LatitudeDegrees>
              <LongitudeDegrees>20.41098631918430328369140625</LongitudeDegrees>
            </Position>
            <AltitudeMeters>463.399993896484375</AltitudeMeters>
            <DistanceMeters>NAN</DistanceMeters>
          </Trackpoint>
          <Trackpoint>
            <Time>2022-09-21T10:11:37.000Z</Time>
            <Position>
              <LatitudeDegrees>49.39403143711388111114501953125</LatitudeDegrees>
              <LongitudeDegrees>20.41102227754890918731689453125</LongitudeDegrees>
            </Position>
            <AltitudeMeters>463.20001220703125</AltitudeMeters>
            <DistanceMeters>NAN</DistanceMeters>
          </Trackpoint>
          <Trackpoint>
            <Time>2022-09-21T10:11:40.000Z</Time>
            <Position>
              <LatitudeDegrees>49.39406312070786952972412109375</LatitudeDegrees>
              <LongitudeDegrees>20.411125458776950836181640625</LongitudeDegrees>
            </Position>
            <AltitudeMeters>462.600006103515625</AltitudeMeters>
            <DistanceMeters>NAN</DistanceMeters>
          </Trackpoint>
          <Trackpoint>
            <Time>2022-09-21T10:11:41.000Z</Time>
            <Position>
              <LatitudeDegrees>49.39407904632389545440673828125</LatitudeDegrees>
              <LongitudeDegrees>20.41117046959698200225830078125</LongitudeDegrees>
            </Position>
            <AltitudeMeters>462.399993896484375</AltitudeMeters>
            <DistanceMeters>NAN</DistanceMeters>
          </Trackpoint>
          <Trackpoint>
            <Time>2022-09-21T10:11:47.000Z</Time>
            <Position>
              <LatitudeDegrees>49.39413185231387615203857421875</LatitudeDegrees>
              <LongitudeDegrees>20.41135990060865879058837890625</LongitudeDegrees>
            </Position>
            <AltitudeMeters>461.20001220703125</AltitudeMeters>
            <DistanceMeters>NAN</DistanceMeters>
          </Trackpoint>
          <Trackpoint>
            <Time>2022-09-21T10:11:48.000Z</Time>
            <Position>
              <LatitudeDegrees>49.394133277237415313720703125</LatitudeDegrees>
              <LongitudeDegrees>20.411377586424350738525390625</LongitudeDegrees>
            </Position>
            <AltitudeMeters>461</AltitudeMeters>
            <DistanceMeters>NAN</DistanceMeters>
          </Trackpoint>
          <Trackpoint>
            <Time>2022-09-21T10:11:54.000Z</Time>
            <Position>
              <LatitudeDegrees>49.3941904418170452117919921875</LatitudeDegrees>
              <LongitudeDegrees>20.41150758974254131317138671875</LongitudeDegrees>
            </Position>
            <AltitudeMeters>460.79998779296875</AltitudeMeters>
            <DistanceMeters>NAN</DistanceMeters>
          </Trackpoint>
          <Trackpoint>
            <Time>2022-09-21T10:11:59.000Z</Time>
            <Position>
              <LatitudeDegrees>49.394304268062114715576171875</LatitudeDegrees>
              <LongitudeDegrees>20.41168159805238246917724609375</LongitudeDegrees>
            </Position>
            <AltitudeMeters>460.600006103515625</AltitudeMeters>
            <DistanceMeters>NAN</DistanceMeters>
          </Trackpoint>
          <Trackpoint>
            <Time>2022-09-21T10:12:07.000Z</Time>
            <Position>
              <LatitudeDegrees>49.39447802491486072540283203125</LatitudeDegrees>
              <LongitudeDegrees>20.41193070821464061737060546875</LongitudeDegrees>
            </Position>
            <AltitudeMeters>460.399993896484375</AltitudeMeters>
            <DistanceMeters>NAN</DistanceMeters>
          </Trackpoint>
          <Trackpoint>
            <Time>2022-09-21T10:12:08.000Z</Time>
            <Position>
              <LatitudeDegrees>49.3945059366524219512939453125</LatitudeDegrees>
              <LongitudeDegrees>20.41196591220796108245849609375</LongitudeDegrees>
            </Position>
            <AltitudeMeters>460.20001220703125</AltitudeMeters>
            <DistanceMeters>NAN</DistanceMeters>
          </Trackpoint>
          <Trackpoint>
            <Time>2022-09-21T10:12:13.000Z</Time>
            <Position>
              <LatitudeDegrees>49.39466728828847408294677734375</LatitudeDegrees>
              <LongitudeDegrees>20.41218099184334278106689453125</LongitudeDegrees>
            </Position>
            <AltitudeMeters>460.399993896484375</AltitudeMeters>
            <DistanceMeters>NAN</DistanceMeters>
          </Trackpoint>
          <Trackpoint>
            <Time>2022-09-21T10:12:14.000Z</Time>
            <Position>
              <LatitudeDegrees>49.39469712786376476287841796875</LatitudeDegrees>
              <LongitudeDegrees>20.41222549974918365478515625</LongitudeDegrees>
            </Position>
            <AltitudeMeters>460.399993896484375</AltitudeMeters>
            <DistanceMeters>NAN</DistanceMeters>
          </Trackpoint>
          <Trackpoint>
            <Time>2022-09-21T10:12:15.000Z</Time>
            <Position>
              <LatitudeDegrees>49.39472428523004055023193359375</LatitudeDegrees>
              <LongitudeDegrees>20.4122692532837390899658203125</LongitudeDegrees>
            </Position>
            <AltitudeMeters>460.20001220703125</AltitudeMeters>
            <DistanceMeters>NAN</DistanceMeters>
          </Trackpoint>
          <Trackpoint>
            <Time>2022-09-21T10:12:16.000Z</Time>
            <Position>
              <LatitudeDegrees>49.3947537057101726531982421875</LatitudeDegrees>
              <LongitudeDegrees>20.41231376118957996368408203125</LongitudeDegrees>
            </Position>
            <AltitudeMeters>460.20001220703125</AltitudeMeters>
            <DistanceMeters>NAN</DistanceMeters>
          </Trackpoint>
          <Trackpoint>
            <Time>2022-09-21T10:12:21.000Z</Time>
            <Position>
              <LatitudeDegrees>49.3948801048099994659423828125</LatitudeDegrees>
              <LongitudeDegrees>20.41249464266002178192138671875</LongitudeDegrees>
            </Position>
            <AltitudeMeters>460</AltitudeMeters>
            <DistanceMeters>NAN</DistanceMeters>
          </Trackpoint>
          <Trackpoint>
            <Time>2022-09-21T10:12:29.000Z</Time>
            <Position>
              <LatitudeDegrees>49.39507146365940570831298828125</LatitudeDegrees>
              <LongitudeDegrees>20.412800498306751251220703125</LongitudeDegrees>
            </Position>
            <AltitudeMeters>459.79998779296875</AltitudeMeters>
            <DistanceMeters>NAN</DistanceMeters>
          </Trackpoint>
          <Trackpoint>
            <Time>2022-09-21T10:12:37.000Z</Time>
            <Position>
              <LatitudeDegrees>49.3952529318630695343017578125</LatitudeDegrees>
              <LongitudeDegrees>20.41306813247501850128173828125</LongitudeDegrees>
            </Position>
            <AltitudeMeters>459.79998779296875</AltitudeMeters>
            <DistanceMeters>NAN</DistanceMeters>
          </Trackpoint>
          <Trackpoint>
            <Time>2022-09-21T10:12:44.000Z</Time>
            <Position>
              <LatitudeDegrees>49.3953960947692394256591796875</LatitudeDegrees>
              <LongitudeDegrees>20.41323342360556125640869140625</LongitudeDegrees>
            </Position>
            <AltitudeMeters>459.600006103515625</AltitudeMeters>
            <DistanceMeters>NAN</DistanceMeters>
          </Trackpoint>
          <Trackpoint>
            <Time>2022-09-21T10:12:52.000Z</Time>
            <Position>
              <LatitudeDegrees>49.395556859672069549560546875</LatitudeDegrees>
              <LongitudeDegrees>20.413453280925750732421875</LongitudeDegrees>
            </Position>
            <AltitudeMeters>459.600006103515625</AltitudeMeters>
            <DistanceMeters>NAN</DistanceMeters>
          </Trackpoint>
          <Trackpoint>
            <Time>2022-09-21T10:12:58.000Z</Time>
            <Position>
              <LatitudeDegrees>49.3957062251865863800048828125</LatitudeDegrees>
              <LongitudeDegrees>20.41366995312273502349853515625</LongitudeDegrees>
            </Position>
            <AltitudeMeters>459.399993896484375</AltitudeMeters>
            <DistanceMeters>NAN</DistanceMeters>
          </Trackpoint>
          <Trackpoint>
            <Time>2022-09-21T10:13:04.000Z</Time>
            <Position>
              <LatitudeDegrees>49.39587042666971683502197265625</LatitudeDegrees>
              <LongitudeDegrees>20.41384077630937099456787109375</LongitudeDegrees>
            </Position>
            <AltitudeMeters>459.399993896484375</AltitudeMeters>
            <DistanceMeters>NAN</DistanceMeters>
          </Trackpoint>
          <Trackpoint>
            <Time>2022-09-21T10:13:12.000Z</Time>
            <Position>
              <LatitudeDegrees>49.3961031921207904815673828125</LatitudeDegrees>
              <LongitudeDegrees>20.4140876233577728271484375</LongitudeDegrees>
            </Position>
            <AltitudeMeters>459.600006103515625</AltitudeMeters>
            <DistanceMeters>NAN</DistanceMeters>
          </Trackpoint>
          <Trackpoint>
            <Time>2022-09-21T10:13:18.000Z</Time>
            <Position>
              <LatitudeDegrees>49.3962279148399829864501953125</LatitudeDegrees>
              <LongitudeDegrees>20.41422181762754917144775390625</LongitudeDegrees>
            </Position>
            <AltitudeMeters>459.399993896484375</AltitudeMeters>
            <DistanceMeters>NAN</DistanceMeters>
          </Trackpoint>
          <Trackpoint>
            <Time>2022-09-21T10:13:25.000Z</Time>
            <Position>
              <LatitudeDegrees>49.39641214907169342041015625</LatitudeDegrees>
              <LongitudeDegrees>20.41441460140049457550048828125</LongitudeDegrees>
            </Position>
            <AltitudeMeters>459.600006103515625</AltitudeMeters>
            <DistanceMeters>NAN</DistanceMeters>
          </Trackpoint>
          <Trackpoint>
            <Time>2022-09-21T10:13:26.000Z</Time>
            <Position>
              <LatitudeDegrees>49.3964354507625102996826171875</LatitudeDegrees>
              <LongitudeDegrees>20.41443907655775547027587890625</LongitudeDegrees>
            </Position>
            <AltitudeMeters>459.600006103515625</AltitudeMeters>
            <DistanceMeters>NAN</DistanceMeters>
          </Trackpoint>
          <Trackpoint>
            <Time>2022-09-21T10:13:30.000Z</Time>
            <Position>
              <LatitudeDegrees>49.39654936082661151885986328125</LatitudeDegrees>
              <LongitudeDegrees>20.41456178762018680572509765625</LongitudeDegrees>
            </Position>
            <AltitudeMeters>459.600006103515625</AltitudeMeters>
            <DistanceMeters>NAN</DistanceMeters>
          </Trackpoint>
          <Trackpoint>
            <Time>2022-09-21T10:13:34.000Z</Time>
            <Position>
              <LatitudeDegrees>49.3966543860733509063720703125</LatitudeDegrees>
              <LongitudeDegrees>20.41467879898846149444580078125</LongitudeDegrees>
            </Position>
            <AltitudeMeters>459.600006103515625</AltitudeMeters>
            <DistanceMeters>NAN</DistanceMeters>
          </Trackpoint>
          <Trackpoint>
            <Time>2022-09-21T10:13:43.000Z</Time>
            <Position>
              <LatitudeDegrees>49.39691665582358837127685546875</LatitudeDegrees>
              <LongitudeDegrees>20.41494333185255527496337890625</LongitudeDegrees>
            </Position>
            <AltitudeMeters>459.79998779296875</AltitudeMeters>
            <DistanceMeters>NAN</DistanceMeters>
          </Trackpoint>
          <Trackpoint>
            <Time>2022-09-21T10:13:50.000Z</Time>
            <Position>
              <LatitudeDegrees>49.3971197493374347686767578125</LatitudeDegrees>
              <LongitudeDegrees>20.4150832258164882659912109375</LongitudeDegrees>
            </Position>
            <AltitudeMeters>459.399993896484375</AltitudeMeters>
            <DistanceMeters>NAN</DistanceMeters>
          </Trackpoint>
          <Trackpoint>
            <Time>2022-09-21T10:13:54.000Z</Time>
            <Position>
              <LatitudeDegrees>49.39726500771939754486083984375</LatitudeDegrees>
              <LongitudeDegrees>20.41513628326356410980224609375</LongitudeDegrees>
            </Position>
            <AltitudeMeters>459.20001220703125</AltitudeMeters>
            <DistanceMeters>NAN</DistanceMeters>
          </Trackpoint>
          <Trackpoint>
            <Time>2022-09-21T10:13:55.000Z</Time>
            <Position>
              <LatitudeDegrees>49.3973031453788280487060546875</LatitudeDegrees>
              <LongitudeDegrees>20.4151606746017932891845703125</LongitudeDegrees>
            </Position>
            <AltitudeMeters>459.20001220703125</AltitudeMeters>
            <DistanceMeters>NAN</DistanceMeters>
          </Trackpoint>
          <Trackpoint>
            <Time>2022-09-21T10:14:00.000Z</Time>
            <Position>
              <LatitudeDegrees>49.39746935851871967315673828125</LatitudeDegrees>
              <LongitudeDegrees>20.41523150168359279632568359375</LongitudeDegrees>
            </Position>
            <AltitudeMeters>459.399993896484375</AltitudeMeters>
            <DistanceMeters>NAN</DistanceMeters>
          </Trackpoint>
          <Trackpoint>
            <Time>2022-09-21T10:14:01.000Z</Time>
            <Position>
              <LatitudeDegrees>49.3974982760846614837646484375</LatitudeDegrees>
              <LongitudeDegrees>20.41523653082549571990966796875</LongitudeDegrees>
            </Position>
            <AltitudeMeters>459.399993896484375</AltitudeMeters>
            <DistanceMeters>NAN</DistanceMeters>
          </Trackpoint>
          <Trackpoint>
            <Time>2022-09-21T10:14:08.000Z</Time>
            <Position>
              <LatitudeDegrees>49.3977406807243824005126953125</LatitudeDegrees>
              <LongitudeDegrees>20.4152438230812549591064453125</LongitudeDegrees>
            </Position>
            <AltitudeMeters>459.399993896484375</AltitudeMeters>
            <DistanceMeters>NAN</DistanceMeters>
          </Trackpoint>
          <Trackpoint>
            <Time>2022-09-21T10:14:10.000Z</Time>
            <Position>
              <LatitudeDegrees>49.397805221378803253173828125</LatitudeDegrees>
              <LongitudeDegrees>20.41524373926222324371337890625</LongitudeDegrees>
            </Position>
            <AltitudeMeters>459.399993896484375</AltitudeMeters>
            <DistanceMeters>NAN</DistanceMeters>
          </Trackpoint>
          <Trackpoint>
            <Time>2022-09-21T10:14:13.000Z</Time>
            <Position>
              <LatitudeDegrees>49.3979099951684474945068359375</LatitudeDegrees>
              <LongitudeDegrees>20.4152280651032924652099609375</LongitudeDegrees>
            </Position>
            <AltitudeMeters>459.399993896484375</AltitudeMeters>
            <DistanceMeters>NAN</DistanceMeters>
          </Trackpoint>
          <Trackpoint>
            <Time>2022-09-21T10:14:20.000Z</Time>
            <Position>
              <LatitudeDegrees>49.39814460463821887969970703125</LatitudeDegrees>
              <LongitudeDegrees>20.41521926410496234893798828125</LongitudeDegrees>
            </Position>
            <AltitudeMeters>459.600006103515625</AltitudeMeters>
            <DistanceMeters>NAN</DistanceMeters>
          </Trackpoint>
          <Trackpoint>
            <Time>2022-09-21T10:14:26.000Z</Time>
            <Position>
              <LatitudeDegrees>49.3983059562742710113525390625</LatitudeDegrees>
              <LongitudeDegrees>20.4152284003794193267822265625</LongitudeDegrees>
            </Position>
            <AltitudeMeters>459.79998779296875</AltitudeMeters>
            <DistanceMeters>NAN</DistanceMeters>
          </Trackpoint>
          <Trackpoint>
            <Time>2022-09-21T10:14:32.000Z</Time>
            <Position>
              <LatitudeDegrees>49.39845733344554901123046875</LatitudeDegrees>
              <LongitudeDegrees>20.4152250476181507110595703125</LongitudeDegrees>
            </Position>
            <AltitudeMeters>460.20001220703125</AltitudeMeters>
            <DistanceMeters>NAN</DistanceMeters>
          </Trackpoint>
          <Trackpoint>
            <Time>2022-09-21T10:14:33.000Z</Time>
            <Position>
              <LatitudeDegrees>49.3984823115170001983642578125</LatitudeDegrees>
              <LongitudeDegrees>20.41522228159010410308837890625</LongitudeDegrees>
            </Position>
            <AltitudeMeters>460.20001220703125</AltitudeMeters>
            <DistanceMeters>NAN</DistanceMeters>
          </Trackpoint>
          <Trackpoint>
            <Time>2022-09-21T10:14:40.000Z</Time>
            <Position>
              <LatitudeDegrees>49.39864684827625751495361328125</LatitudeDegrees>
              <LongitudeDegrees>20.41522957384586334228515625</LongitudeDegrees>
            </Position>
            <AltitudeMeters>460.20001220703125</AltitudeMeters>
            <DistanceMeters>NAN</DistanceMeters>
          </Trackpoint>
          <Trackpoint>
            <Time>2022-09-21T10:14:44.000Z</Time>
            <Position>
              <LatitudeDegrees>49.39866394735872745513916015625</LatitudeDegrees>
              <LongitudeDegrees>20.41523619554936885833740234375</LongitudeDegrees>
            </Position>
            <AltitudeMeters>460.20001220703125</AltitudeMeters>
            <DistanceMeters>NAN</DistanceMeters>
          </Trackpoint>
          <Trackpoint>
            <Time>2022-09-21T10:14:47.000Z</Time>
            <Position>
              <LatitudeDegrees>49.39866394735872745513916015625</LatitudeDegrees>
              <LongitudeDegrees>20.41523619554936885833740234375</LongitudeDegrees>
            </Position>
            <AltitudeMeters>460</AltitudeMeters>
            <DistanceMeters>NAN</DistanceMeters>
          </Trackpoint>
          <Trackpoint>
            <Time>2022-09-21T10:14:50.000Z</Time>
            <Position>
              <LatitudeDegrees>49.39866394735872745513916015625</LatitudeDegrees>
              <LongitudeDegrees>20.41523619554936885833740234375</LongitudeDegrees>
            </Position>
            <AltitudeMeters>460</AltitudeMeters>
            <DistanceMeters>NAN</DistanceMeters>
          </Trackpoint>
          <Trackpoint>
            <Time>2022-09-21T10:14:52.000Z</Time>
            <Position>
              <LatitudeDegrees>49.39866394735872745513916015625</LatitudeDegrees>
              <LongitudeDegrees>20.41523619554936885833740234375</LongitudeDegrees>
            </Position>
            <AltitudeMeters>460</AltitudeMeters>
            <DistanceMeters>NAN</DistanceMeters>
          </Trackpoint>
          <Trackpoint>
            <Time>2022-09-21T10:15:25.000Z</Time>
            <Position>
              <LatitudeDegrees>49.39866394735872745513916015625</LatitudeDegrees>
              <LongitudeDegrees>20.41523619554936885833740234375</LongitudeDegrees>
            </Position>
            <AltitudeMeters>460</AltitudeMeters>
            <DistanceMeters>NAN</DistanceMeters>
          </Trackpoint>
          <Trackpoint>
            <Time>2022-09-21T10:15:31.000Z</Time>
            <Position>
              <LatitudeDegrees>49.39866394735872745513916015625</LatitudeDegrees>
              <LongitudeDegrees>20.41523619554936885833740234375</LongitudeDegrees>
            </Position>
            <AltitudeMeters>460</AltitudeMeters>
            <DistanceMeters>NAN</DistanceMeters>
          </Trackpoint>
          <Trackpoint>
            <Time>2022-09-21T10:15:36.000Z</Time>
            <Position>
              <LatitudeDegrees>49.39866545610129833221435546875</LatitudeDegrees>
              <LongitudeDegrees>20.415234602987766265869140625</LongitudeDegrees>
            </Position>
            <AltitudeMeters>460</AltitudeMeters>
            <DistanceMeters>NAN</DistanceMeters>
          </Trackpoint>
          <Trackpoint>
            <Time>2022-09-21T10:15:39.000Z</Time>
            <Position>
              <LatitudeDegrees>49.3987599201500415802001953125</LatitudeDegrees>
              <LongitudeDegrees>20.41517995297908782958984375</LongitudeDegrees>
            </Position>
            <AltitudeMeters>460</AltitudeMeters>
            <DistanceMeters>NAN</DistanceMeters>
          </Trackpoint>
          <Trackpoint>
            <Time>2022-09-21T10:15:40.000Z</Time>
            <Position>
              <LatitudeDegrees>49.39880493097007274627685546875</LatitudeDegrees>
              <LongitudeDegrees>20.41516117751598358154296875</LongitudeDegrees>
            </Position>
            <AltitudeMeters>460</AltitudeMeters>
            <DistanceMeters>NAN</DistanceMeters>
          </Trackpoint>
          <Trackpoint>
            <Time>2022-09-21T10:15:43.000Z</Time>
            <Position>
              <LatitudeDegrees>49.3989319168031215667724609375</LatitudeDegrees>
              <LongitudeDegrees>20.41512924246490001678466796875</LongitudeDegrees>
            </Position>
            <AltitudeMeters>460</AltitudeMeters>
            <DistanceMeters>NAN</DistanceMeters>
          </Trackpoint>
          <Trackpoint>
            <Time>2022-09-21T10:15:44.000Z</Time>
            <Position>
              <LatitudeDegrees>49.39896762371063232421875</LatitudeDegrees>
              <LongitudeDegrees>20.4151202738285064697265625</LongitudeDegrees>
            </Position>
            <AltitudeMeters>460</AltitudeMeters>
            <DistanceMeters>NAN</DistanceMeters>
          </Trackpoint>
          <Trackpoint>
            <Time>2022-09-21T10:15:49.000Z</Time>
            <Position>
              <LatitudeDegrees>49.3991391174495220184326171875</LatitudeDegrees>
              <LongitudeDegrees>20.4150906018912792205810546875</LongitudeDegrees>
            </Position>
            <AltitudeMeters>460.20001220703125</AltitudeMeters>
            <DistanceMeters>NAN</DistanceMeters>
          </Trackpoint>
          <Trackpoint>
            <Time>2022-09-21T10:15:54.000Z</Time>
            <Position>
              <LatitudeDegrees>49.399264343082904815673828125</LatitudeDegrees>
              <LongitudeDegrees>20.415112562477588653564453125</LongitudeDegrees>
            </Position>
            <AltitudeMeters>460.399993896484375</AltitudeMeters>
            <DistanceMeters>NAN</DistanceMeters>
          </Trackpoint>
          <Trackpoint>
            <Time>2022-09-21T10:15:59.000Z</Time>
            <Position>
              <LatitudeDegrees>49.39940775744616985321044921875</LatitudeDegrees>
              <LongitudeDegrees>20.41513041593134403228759765625</LongitudeDegrees>
            </Position>
            <AltitudeMeters>460.399993896484375</AltitudeMeters>
            <DistanceMeters>NAN</DistanceMeters>
          </Trackpoint>
          <Trackpoint>
            <Time>2022-09-21T10:16:07.000Z</Time>
            <Position>
              <LatitudeDegrees>49.39958159811794757843017578125</LatitudeDegrees>
              <LongitudeDegrees>20.41523225605487823486328125</LongitudeDegrees>
            </Position>
            <AltitudeMeters>460.399993896484375</AltitudeMeters>
            <DistanceMeters>NAN</DistanceMeters>
          </Trackpoint>
          <Trackpoint>
            <Time>2022-09-21T10:16:12.000Z</Time>
            <Position>
              <LatitudeDegrees>49.39961872994899749755859375</LatitudeDegrees>
              <LongitudeDegrees>20.41527760215103626251220703125</LongitudeDegrees>
            </Position>
            <AltitudeMeters>460.399993896484375</AltitudeMeters>
            <DistanceMeters>NAN</DistanceMeters>
          </Trackpoint>
          <Trackpoint>
            <Time>2022-09-21T10:16:18.000Z</Time>
            <Position>
              <LatitudeDegrees>49.39961872994899749755859375</LatitudeDegrees>
              <LongitudeDegrees>20.41527760215103626251220703125</LongitudeDegrees>
            </Position>
            <AltitudeMeters>460.399993896484375</AltitudeMeters>
            <DistanceMeters>NAN</DistanceMeters>
          </Trackpoint>
          <Trackpoint>
            <Time>2022-09-21T10:16:19.000Z</Time>
            <Position>
              <LatitudeDegrees>49.39961479045450687408447265625</LatitudeDegrees>
              <LongitudeDegrees>20.41528481058776378631591796875</LongitudeDegrees>
            </Position>
            <AltitudeMeters>460.399993896484375</AltitudeMeters>
            <DistanceMeters>NAN</DistanceMeters>
          </Trackpoint>
          <Trackpoint>
            <Time>2022-09-21T10:16:23.000Z</Time>
            <Position>
              <LatitudeDegrees>49.3996044807136058807373046875</LatitudeDegrees>
              <LongitudeDegrees>20.41534616611897945404052734375</LongitudeDegrees>
            </Position>
            <AltitudeMeters>460.399993896484375</AltitudeMeters>
            <DistanceMeters>NAN</DistanceMeters>
          </Trackpoint>
          <Trackpoint>
            <Time>2022-09-21T10:16:25.000Z</Time>
            <Position>
              <LatitudeDegrees>49.39958780072629451751708984375</LatitudeDegrees>
              <LongitudeDegrees>20.4153724014759063720703125</LongitudeDegrees>
            </Position>
            <AltitudeMeters>460.600006103515625</AltitudeMeters>
            <DistanceMeters>NAN</DistanceMeters>
          </Trackpoint>
          <Trackpoint>
            <Time>2022-09-21T10:16:28.000Z</Time>
            <Position>
              <LatitudeDegrees>49.3995803408324718475341796875</LatitudeDegrees>
              <LongitudeDegrees>20.41542193852365016937255859375</LongitudeDegrees>
            </Position>
            <AltitudeMeters>460.600006103515625</AltitudeMeters>
            <DistanceMeters>NAN</DistanceMeters>
          </Trackpoint>
          <Trackpoint>
            <Time>2022-09-21T10:16:31.000Z</Time>
            <Position>
              <LatitudeDegrees>49.39958344213664531707763671875</LatitudeDegrees>
              <LongitudeDegrees>20.41547860018908977508544921875</LongitudeDegrees>
            </Position>
            <AltitudeMeters>460.600006103515625</AltitudeMeters>
            <DistanceMeters>NAN</DistanceMeters>
          </Trackpoint>
          <Trackpoint>
            <Time>2022-09-21T10:16:34.000Z</Time>
            <Position>
              <LatitudeDegrees>49.399594925343990325927734375</LatitudeDegrees>
              <LongitudeDegrees>20.41554900817573070526123046875</LongitudeDegrees>
            </Position>
            <AltitudeMeters>460.600006103515625</AltitudeMeters>
            <DistanceMeters>NAN</DistanceMeters>
          </Trackpoint>
          <Trackpoint>
            <Time>2022-09-21T10:16:37.000Z</Time>
            <Position>
              <LatitudeDegrees>49.399607665836811065673828125</LatitudeDegrees>
              <LongitudeDegrees>20.41563685052096843719482421875</LongitudeDegrees>
            </Position>
            <AltitudeMeters>460.600006103515625</AltitudeMeters>
            <DistanceMeters>NAN</DistanceMeters>
          </Trackpoint>
          <Trackpoint>
            <Time>2022-09-21T10:16:43.000Z</Time>
            <Position>
              <LatitudeDegrees>49.39954421482980251312255859375</LatitudeDegrees>
              <LongitudeDegrees>20.41591353714466094970703125</LongitudeDegrees>
            </Position>
            <AltitudeMeters>461</AltitudeMeters>
            <DistanceMeters>NAN</DistanceMeters>
          </Trackpoint>
          <Trackpoint>
            <Time>2022-09-21T10:16:45.000Z</Time>
            <Position>
              <LatitudeDegrees>49.39950331114232540130615234375</LatitudeDegrees>
              <LongitudeDegrees>20.41602292098104953765869140625</LongitudeDegrees>
            </Position>
            <AltitudeMeters>461.20001220703125</AltitudeMeters>
            <DistanceMeters>NAN</DistanceMeters>
          </Trackpoint>
          <Trackpoint>
            <Time>2022-09-21T10:16:50.000Z</Time>
            <Position>
              <LatitudeDegrees>49.39945654012262821197509765625</LatitudeDegrees>
              <LongitudeDegrees>20.416234396398067474365234375</LongitudeDegrees>
            </Position>
            <AltitudeMeters>462</AltitudeMeters>
            <DistanceMeters>NAN</DistanceMeters>
          </Trackpoint>
          <Trackpoint>
            <Time>2022-09-21T10:16:55.000Z</Time>
            <Position>
              <LatitudeDegrees>49.3994579650461673736572265625</LatitudeDegrees>
              <LongitudeDegrees>20.41626214049756526947021484375</LongitudeDegrees>
            </Position>
            <AltitudeMeters>462.20001220703125</AltitudeMeters>
            <DistanceMeters>NAN</DistanceMeters>
          </Trackpoint>
          <Trackpoint>
            <Time>2022-09-21T10:16:56.000Z</Time>
            <Position>
              <LatitudeDegrees>49.3994579650461673736572265625</LatitudeDegrees>
              <LongitudeDegrees>20.41626214049756526947021484375</LongitudeDegrees>
            </Position>
            <AltitudeMeters>462.20001220703125</AltitudeMeters>
            <DistanceMeters>NAN</DistanceMeters>
          </Trackpoint>
          <Trackpoint>
            <Time>2022-09-21T10:17:03.000Z</Time>
            <Position>
              <LatitudeDegrees>49.399461485445499420166015625</LatitudeDegrees>
              <LongitudeDegrees>20.4162543453276157379150390625</LongitudeDegrees>
            </Position>
            <AltitudeMeters>462.20001220703125</AltitudeMeters>
            <DistanceMeters>NAN</DistanceMeters>
          </Trackpoint>
          <Trackpoint>
            <Time>2022-09-21T10:17:12.000Z</Time>
            <Position>
              <LatitudeDegrees>49.399461485445499420166015625</LatitudeDegrees>
              <LongitudeDegrees>20.4162543453276157379150390625</LongitudeDegrees>
            </Position>
            <AltitudeMeters>462.20001220703125</AltitudeMeters>
            <DistanceMeters>NAN</DistanceMeters>
          </Trackpoint>
          <Trackpoint>
            <Time>2022-09-21T10:17:14.000Z</Time>
            <Position>
              <LatitudeDegrees>49.399461485445499420166015625</LatitudeDegrees>
              <LongitudeDegrees>20.4162543453276157379150390625</LongitudeDegrees>
            </Position>
            <AltitudeMeters>462.20001220703125</AltitudeMeters>
            <DistanceMeters>NAN</DistanceMeters>
          </Trackpoint>
          <Trackpoint>
            <Time>2022-09-21T10:17:26.000Z</Time>
            <Position>
              <LatitudeDegrees>49.399461485445499420166015625</LatitudeDegrees>
              <LongitudeDegrees>20.4162543453276157379150390625</LongitudeDegrees>
            </Position>
            <AltitudeMeters>462.20001220703125</AltitudeMeters>
            <DistanceMeters>NAN</DistanceMeters>
          </Trackpoint>
          <Trackpoint>
            <Time>2022-09-21T10:17:31.000Z</Time>
            <Position>
              <LatitudeDegrees>49.399461485445499420166015625</LatitudeDegrees>
              <LongitudeDegrees>20.4162543453276157379150390625</LongitudeDegrees>
            </Position>
            <AltitudeMeters>462.20001220703125</AltitudeMeters>
            <DistanceMeters>NAN</DistanceMeters>
          </Trackpoint>
          <Trackpoint>
            <Time>2022-09-21T10:17:38.000Z</Time>
            <Position>
              <LatitudeDegrees>49.399461485445499420166015625</LatitudeDegrees>
              <LongitudeDegrees>20.4162543453276157379150390625</LongitudeDegrees>
            </Position>
            <AltitudeMeters>462.20001220703125</AltitudeMeters>
            <DistanceMeters>NAN</DistanceMeters>
          </Trackpoint>
          <Trackpoint>
            <Time>2022-09-21T10:17:44.000Z</Time>
            <Position>
              <LatitudeDegrees>49.399461485445499420166015625</LatitudeDegrees>
              <LongitudeDegrees>20.4162543453276157379150390625</LongitudeDegrees>
            </Position>
            <AltitudeMeters>462.20001220703125</AltitudeMeters>
            <DistanceMeters>NAN</DistanceMeters>
          </Trackpoint>
          <Trackpoint>
            <Time>2022-09-21T10:17:46.000Z</Time>
            <Position>
              <LatitudeDegrees>49.399461485445499420166015625</LatitudeDegrees>
              <LongitudeDegrees>20.4162543453276157379150390625</LongitudeDegrees>
            </Position>
            <AltitudeMeters>462.20001220703125</AltitudeMeters>
            <DistanceMeters>NAN</DistanceMeters>
          </Trackpoint>
          <Trackpoint>
            <Time>2022-09-21T10:17:48.000Z</Time>
            <Position>
              <LatitudeDegrees>49.399461485445499420166015625</LatitudeDegrees>
              <LongitudeDegrees>20.4162543453276157379150390625</LongitudeDegrees>
            </Position>
            <AltitudeMeters>462.20001220703125</AltitudeMeters>
            <DistanceMeters>NAN</DistanceMeters>
          </Trackpoint>
          <Trackpoint>
            <Time>2022-09-21T10:17:55.000Z</Time>
            <Position>
              <LatitudeDegrees>49.399461485445499420166015625</LatitudeDegrees>
              <LongitudeDegrees>20.4162543453276157379150390625</LongitudeDegrees>
            </Position>
            <AltitudeMeters>462.20001220703125</AltitudeMeters>
            <DistanceMeters>NAN</DistanceMeters>
          </Trackpoint>
          <Trackpoint>
            <Time>2022-09-21T10:18:08.000Z</Time>
            <Position>
              <LatitudeDegrees>49.3994690291583538055419921875</LatitudeDegrees>
              <LongitudeDegrees>20.41625627316534519195556640625</LongitudeDegrees>
            </Position>
            <AltitudeMeters>461.79998779296875</AltitudeMeters>
            <DistanceMeters>NAN</DistanceMeters>
          </Trackpoint>
          <Trackpoint>
            <Time>2022-09-21T10:18:11.000Z</Time>
            <Position>
              <LatitudeDegrees>49.3994690291583538055419921875</LatitudeDegrees>
              <LongitudeDegrees>20.41625627316534519195556640625</LongitudeDegrees>
            </Position>
            <AltitudeMeters>462.20001220703125</AltitudeMeters>
            <DistanceMeters>NAN</DistanceMeters>
          </Trackpoint>
          <Trackpoint>
            <Time>2022-09-21T10:18:14.000Z</Time>
            <Position>
              <LatitudeDegrees>49.39947766251862049102783203125</LatitudeDegrees>
              <LongitudeDegrees>20.41625644080340862274169921875</LongitudeDegrees>
            </Position>
            <AltitudeMeters>462.20001220703125</AltitudeMeters>
            <DistanceMeters>NAN</DistanceMeters>
          </Trackpoint>
          <Trackpoint>
            <Time>2022-09-21T10:18:15.000Z</Time>
            <Position>
              <LatitudeDegrees>49.39949777908623218536376953125</LatitudeDegrees>
              <LongitudeDegrees>20.41626884602010250091552734375</LongitudeDegrees>
            </Position>
            <AltitudeMeters>462.20001220703125</AltitudeMeters>
            <DistanceMeters>NAN</DistanceMeters>
          </Trackpoint>
          <Trackpoint>
            <Time>2022-09-21T10:18:22.000Z</Time>
            <Position>
              <LatitudeDegrees>49.3996232561767101287841796875</LatitudeDegrees>
              <LongitudeDegrees>20.41634310968220233917236328125</LongitudeDegrees>
            </Position>
            <AltitudeMeters>462</AltitudeMeters>
            <DistanceMeters>NAN</DistanceMeters>
          </Trackpoint>
          <Trackpoint>
            <Time>2022-09-21T10:18:26.000Z</Time>
            <Position>
              <LatitudeDegrees>49.399713613092899322509765625</LatitudeDegrees>
              <LongitudeDegrees>20.41641552932560443878173828125</LongitudeDegrees>
            </Position>
            <AltitudeMeters>462</AltitudeMeters>
            <DistanceMeters>NAN</DistanceMeters>
          </Trackpoint>
          <Trackpoint>
            <Time>2022-09-21T10:18:27.000Z</Time>
            <Position>
              <LatitudeDegrees>49.39973532222211360931396484375</LatitudeDegrees>
              <LongitudeDegrees>20.4164345562458038330078125</LongitudeDegrees>
            </Position>
            <AltitudeMeters>462</AltitudeMeters>
            <DistanceMeters>NAN</DistanceMeters>
          </Trackpoint>
          <Trackpoint>
            <Time>2022-09-21T10:18:30.000Z</Time>
            <Position>
              <LatitudeDegrees>49.399791061878204345703125</LatitudeDegrees>
              <LongitudeDegrees>20.41648057289421558380126953125</LongitudeDegrees>
            </Position>
            <AltitudeMeters>462</AltitudeMeters>
            <DistanceMeters>NAN</DistanceMeters>
          </Trackpoint>
          <Trackpoint>
            <Time>2022-09-21T10:18:33.000Z</Time>
            <Position>
              <LatitudeDegrees>49.39984344877302646636962890625</LatitudeDegrees>
              <LongitudeDegrees>20.4165094904601573944091796875</LongitudeDegrees>
            </Position>
            <AltitudeMeters>462.20001220703125</AltitudeMeters>
            <DistanceMeters>NAN</DistanceMeters>
          </Trackpoint>
          <Trackpoint>
            <Time>2022-09-21T10:18:34.000Z</Time>
            <Position>
              <LatitudeDegrees>49.3998539261519908905029296875</LatitudeDegrees>
              <LongitudeDegrees>20.41650471277534961700439453125</LongitudeDegrees>
            </Position>
            <AltitudeMeters>462.20001220703125</AltitudeMeters>
            <DistanceMeters>NAN</DistanceMeters>
          </Trackpoint>
          <Trackpoint>
            <Time>2022-09-21T10:18:37.000Z</Time>
            <Position>
              <LatitudeDegrees>49.3998572789132595062255859375</LatitudeDegrees>
              <LongitudeDegrees>20.41650387458503246307373046875</LongitudeDegrees>
            </Position>
            <AltitudeMeters>462.20001220703125</AltitudeMeters>
            <DistanceMeters>NAN</DistanceMeters>
          </Trackpoint>
          <Trackpoint>
            <Time>2022-09-21T10:18:41.000Z</Time>
            <Position>
              <LatitudeDegrees>49.3998572789132595062255859375</LatitudeDegrees>
              <LongitudeDegrees>20.41650387458503246307373046875</LongitudeDegrees>
            </Position>
            <AltitudeMeters>462.20001220703125</AltitudeMeters>
            <DistanceMeters>NAN</DistanceMeters>
          </Trackpoint>
          <Trackpoint>
            <Time>2022-09-21T10:18:43.000Z</Time>
            <Position>
              <LatitudeDegrees>49.3998572789132595062255859375</LatitudeDegrees>
              <LongitudeDegrees>20.41650387458503246307373046875</LongitudeDegrees>
            </Position>
            <AltitudeMeters>462.20001220703125</AltitudeMeters>
            <DistanceMeters>NAN</DistanceMeters>
          </Trackpoint>
          <Trackpoint>
            <Time>2022-09-21T10:18:45.000Z</Time>
            <Position>
              <LatitudeDegrees>49.3998572789132595062255859375</LatitudeDegrees>
              <LongitudeDegrees>20.41650387458503246307373046875</LongitudeDegrees>
            </Position>
            <AltitudeMeters>462.20001220703125</AltitudeMeters>
            <DistanceMeters>NAN</DistanceMeters>
          </Trackpoint>
          <Trackpoint>
            <Time>2022-09-21T10:18:58.000Z</Time>
            <Position>
              <LatitudeDegrees>49.3998572789132595062255859375</LatitudeDegrees>
              <LongitudeDegrees>20.41650387458503246307373046875</LongitudeDegrees>
            </Position>
            <AltitudeMeters>462.20001220703125</AltitudeMeters>
            <DistanceMeters>NAN</DistanceMeters>
          </Trackpoint>
          <Trackpoint>
            <Time>2022-09-21T10:19:05.000Z</Time>
            <Position>
              <LatitudeDegrees>49.3998572789132595062255859375</LatitudeDegrees>
              <LongitudeDegrees>20.41650387458503246307373046875</LongitudeDegrees>
            </Position>
            <AltitudeMeters>462.20001220703125</AltitudeMeters>
            <DistanceMeters>NAN</DistanceMeters>
          </Trackpoint>
          <Trackpoint>
            <Time>2022-09-21T10:19:30.000Z</Time>
            <Position>
              <LatitudeDegrees>49.3998572789132595062255859375</LatitudeDegrees>
              <LongitudeDegrees>20.41650387458503246307373046875</LongitudeDegrees>
            </Position>
            <AltitudeMeters>462.20001220703125</AltitudeMeters>
            <DistanceMeters>NAN</DistanceMeters>
          </Trackpoint>
          <Trackpoint>
            <Time>2022-09-21T10:19:35.000Z</Time>
            <Position>
              <LatitudeDegrees>49.3998572789132595062255859375</LatitudeDegrees>
              <LongitudeDegrees>20.41650387458503246307373046875</LongitudeDegrees>
            </Position>
            <AltitudeMeters>462.20001220703125</AltitudeMeters>
            <DistanceMeters>NAN</DistanceMeters>
          </Trackpoint>
          <Trackpoint>
            <Time>2022-09-21T10:19:39.000Z</Time>
            <Position>
              <LatitudeDegrees>49.39991134218871593475341796875</LatitudeDegrees>
              <LongitudeDegrees>20.41645375080406665802001953125</LongitudeDegrees>
            </Position>
            <AltitudeMeters>462.20001220703125</AltitudeMeters>
            <DistanceMeters>NAN</DistanceMeters>
          </Trackpoint>
          <Trackpoint>
            <Time>2022-09-21T10:19:42.000Z</Time>
            <Position>
              <LatitudeDegrees>49.39996833913028240203857421875</LatitudeDegrees>
              <LongitudeDegrees>20.41638451628386974334716796875</LongitudeDegrees>
            </Position>
            <AltitudeMeters>462.20001220703125</AltitudeMeters>
            <DistanceMeters>NAN</DistanceMeters>
          </Trackpoint>
          <Trackpoint>
            <Time>2022-09-21T10:19:43.000Z</Time>
            <Position>
              <LatitudeDegrees>49.39998929388821125030517578125</LatitudeDegrees>
              <LongitudeDegrees>20.41636305861175060272216796875</LongitudeDegrees>
            </Position>
            <AltitudeMeters>462.20001220703125</AltitudeMeters>
            <DistanceMeters>NAN</DistanceMeters>
          </Trackpoint>
          <Trackpoint>
            <Time>2022-09-21T10:19:44.000Z</Time>
            <Position>
              <LatitudeDegrees>49.40000957809388637542724609375</LatitudeDegrees>
              <LongitudeDegrees>20.4163545928895473480224609375</LongitudeDegrees>
            </Position>
            <AltitudeMeters>462</AltitudeMeters>
            <DistanceMeters>NAN</DistanceMeters>
          </Trackpoint>
          <Trackpoint>
            <Time>2022-09-21T10:19:50.000Z</Time>
            <Position>
              <LatitudeDegrees>49.40015383064746856689453125</LatitudeDegrees>
              <LongitudeDegrees>20.4162536747753620147705078125</LongitudeDegrees>
            </Position>
            <AltitudeMeters>462.20001220703125</AltitudeMeters>
            <DistanceMeters>NAN</DistanceMeters>
          </Trackpoint>
          <Trackpoint>
            <Time>2022-09-21T10:19:57.000Z</Time>
            <Position>
              <LatitudeDegrees>49.400305040180683135986328125</LatitudeDegrees>
              <LongitudeDegrees>20.41620044969022274017333984375</LongitudeDegrees>
            </Position>
            <AltitudeMeters>462.399993896484375</AltitudeMeters>
            <DistanceMeters>NAN</DistanceMeters>
          </Trackpoint>
          <Trackpoint>
            <Time>2022-09-21T10:20:07.000Z</Time>
            <Position>
              <LatitudeDegrees>49.40050209872424602508544921875</LatitudeDegrees>
              <LongitudeDegrees>20.416258871555328369140625</LongitudeDegrees>
            </Position>
            <AltitudeMeters>462.600006103515625</AltitudeMeters>
            <DistanceMeters>NAN</DistanceMeters>
          </Trackpoint>
          <Trackpoint>
            <Time>2022-09-21T10:20:12.000Z</Time>
            <Position>
              <LatitudeDegrees>49.40064542926847934722900390625</LatitudeDegrees>
              <LongitudeDegrees>20.41633204557001590728759765625</LongitudeDegrees>
            </Position>
            <AltitudeMeters>462.600006103515625</AltitudeMeters>
            <DistanceMeters>NAN</DistanceMeters>
          </Trackpoint>
          <Trackpoint>
            <Time>2022-09-21T10:20:17.000Z</Time>
            <Position>
              <LatitudeDegrees>49.40074567683041095733642578125</LatitudeDegrees>
              <LongitudeDegrees>20.41645928286015987396240234375</LongitudeDegrees>
            </Position>
            <AltitudeMeters>463</AltitudeMeters>
            <DistanceMeters>NAN</DistanceMeters>
          </Trackpoint>
          <Trackpoint>
            <Time>2022-09-21T10:20:19.000Z</Time>
            <Position>
              <LatitudeDegrees>49.40078658051788806915283203125</LatitudeDegrees>
              <LongitudeDegrees>20.41650018654763698577880859375</LongitudeDegrees>
            </Position>
            <AltitudeMeters>463.399993896484375</AltitudeMeters>
            <DistanceMeters>NAN</DistanceMeters>
          </Trackpoint>
          <Trackpoint>
            <Time>2022-09-21T10:20:24.000Z</Time>
            <Position>
              <LatitudeDegrees>49.4008637778460979461669921875</LatitudeDegrees>
              <LongitudeDegrees>20.41656757704913616180419921875</LongitudeDegrees>
            </Position>
            <AltitudeMeters>463.79998779296875</AltitudeMeters>
            <DistanceMeters>NAN</DistanceMeters>
          </Trackpoint>
          <Trackpoint>
            <Time>2022-09-21T10:20:28.000Z</Time>
            <Position>
              <LatitudeDegrees>49.40086788497865200042724609375</LatitudeDegrees>
              <LongitudeDegrees>20.4165713489055633544921875</LongitudeDegrees>
            </Position>
            <AltitudeMeters>464.399993896484375</AltitudeMeters>
            <DistanceMeters>NAN</DistanceMeters>
          </Trackpoint>
          <Trackpoint>
            <Time>2022-09-21T10:20:30.000Z</Time>
            <Position>
              <LatitudeDegrees>49.400879703462123870849609375</LatitudeDegrees>
              <LongitudeDegrees>20.4165728576481342315673828125</LongitudeDegrees>
            </Position>
            <AltitudeMeters>464.600006103515625</AltitudeMeters>
            <DistanceMeters>NAN</DistanceMeters>
          </Trackpoint>
          <Trackpoint>
            <Time>2022-09-21T10:20:36.000Z</Time>
            <Position>
              <LatitudeDegrees>49.4008921086788177490234375</LatitudeDegrees>
              <LongitudeDegrees>20.41657310910522937774658203125</LongitudeDegrees>
            </Position>
            <AltitudeMeters>464.600006103515625</AltitudeMeters>
            <DistanceMeters>NAN</DistanceMeters>
          </Trackpoint>
          <Trackpoint>
            <Time>2022-09-21T10:20:42.000Z</Time>
            <Position>
              <LatitudeDegrees>49.400895796716213226318359375</LatitudeDegrees>
              <LongitudeDegrees>20.41657394729554653167724609375</LongitudeDegrees>
            </Position>
            <AltitudeMeters>464.79998779296875</AltitudeMeters>
            <DistanceMeters>NAN</DistanceMeters>
          </Trackpoint>
          <Trackpoint>
            <Time>2022-09-21T10:20:46.000Z</Time>
            <Position>
              <LatitudeDegrees>49.400895796716213226318359375</LatitudeDegrees>
              <LongitudeDegrees>20.41657394729554653167724609375</LongitudeDegrees>
            </Position>
            <AltitudeMeters>464.79998779296875</AltitudeMeters>
            <DistanceMeters>NAN</DistanceMeters>
          </Trackpoint>
          <Trackpoint>
            <Time>2022-09-21T10:21:00.000Z</Time>
            <Position>
              <LatitudeDegrees>49.40089353360235691070556640625</LatitudeDegrees>
              <LongitudeDegrees>20.41657595895230770111083984375</LongitudeDegrees>
            </Position>
            <AltitudeMeters>464.600006103515625</AltitudeMeters>
            <DistanceMeters>NAN</DistanceMeters>
          </Trackpoint>
          <Trackpoint>
            <Time>2022-09-21T10:21:05.000Z</Time>
            <Position>
              <LatitudeDegrees>49.40089353360235691070556640625</LatitudeDegrees>
              <LongitudeDegrees>20.41657595895230770111083984375</LongitudeDegrees>
            </Position>
            <AltitudeMeters>464.79998779296875</AltitudeMeters>
            <DistanceMeters>NAN</DistanceMeters>
          </Trackpoint>
          <Trackpoint>
            <Time>2022-09-21T10:21:07.000Z</Time>
            <Position>
              <LatitudeDegrees>49.40089353360235691070556640625</LatitudeDegrees>
              <LongitudeDegrees>20.41657595895230770111083984375</LongitudeDegrees>
            </Position>
            <AltitudeMeters>465</AltitudeMeters>
            <DistanceMeters>NAN</DistanceMeters>
          </Trackpoint>
          <Trackpoint>
            <Time>2022-09-21T10:21:12.000Z</Time>
            <Position>
              <LatitudeDegrees>49.400955140590667724609375</LatitudeDegrees>
              <LongitudeDegrees>20.41658501140773296356201171875</LongitudeDegrees>
            </Position>
            <AltitudeMeters>465</AltitudeMeters>
            <DistanceMeters>NAN</DistanceMeters>
          </Trackpoint>
          <Trackpoint>
            <Time>2022-09-21T10:21:17.000Z</Time>
            <Position>
              <LatitudeDegrees>49.4010879099369049072265625</LatitudeDegrees>
              <LongitudeDegrees>20.416620634496212005615234375</LongitudeDegrees>
            </Position>
            <AltitudeMeters>464.600006103515625</AltitudeMeters>
            <DistanceMeters>NAN</DistanceMeters>
          </Trackpoint>
          <Trackpoint>
            <Time>2022-09-21T10:21:19.000Z</Time>
            <Position>
              <LatitudeDegrees>49.40115907229483127593994140625</LatitudeDegrees>
              <LongitudeDegrees>20.41662675328552722930908203125</LongitudeDegrees>
            </Position>
            <AltitudeMeters>464.399993896484375</AltitudeMeters>
            <DistanceMeters>NAN</DistanceMeters>
          </Trackpoint>
          <Trackpoint>
            <Time>2022-09-21T10:21:23.000Z</Time>
            <Position>
              <LatitudeDegrees>49.4013231061398983001708984375</LatitudeDegrees>
              <LongitudeDegrees>20.41669565252959728240966796875</LongitudeDegrees>
            </Position>
            <AltitudeMeters>463.79998779296875</AltitudeMeters>
            <DistanceMeters>NAN</DistanceMeters>
          </Trackpoint>
          <Trackpoint>
            <Time>2022-09-21T10:21:27.000Z</Time>
            <Position>
              <LatitudeDegrees>49.4015034846961498260498046875</LatitudeDegrees>
              <LongitudeDegrees>20.4167522303760051727294921875</LongitudeDegrees>
            </Position>
            <AltitudeMeters>463</AltitudeMeters>
            <DistanceMeters>NAN</DistanceMeters>
          </Trackpoint>
          <Trackpoint>
            <Time>2022-09-21T10:21:28.000Z</Time>
            <Position>
              <LatitudeDegrees>49.4015604816377162933349609375</LatitudeDegrees>
              <LongitudeDegrees>20.41676647961139678955078125</LongitudeDegrees>
            </Position>
            <AltitudeMeters>462.79998779296875</AltitudeMeters>
            <DistanceMeters>NAN</DistanceMeters>
          </Trackpoint>
          <Trackpoint>
            <Time>2022-09-21T10:21:30.000Z</Time>
            <Position>
              <LatitudeDegrees>49.401658885180950164794921875</LatitudeDegrees>
              <LongitudeDegrees>20.41678768582642078399658203125</LongitudeDegrees>
            </Position>
            <AltitudeMeters>462.600006103515625</AltitudeMeters>
            <DistanceMeters>NAN</DistanceMeters>
          </Trackpoint>
          <Trackpoint>
            <Time>2022-09-21T10:21:31.000Z</Time>
            <Position>
              <LatitudeDegrees>49.401711188256740570068359375</LatitudeDegrees>
              <LongitudeDegrees>20.41680461727082729339599609375</LongitudeDegrees>
            </Position>
            <AltitudeMeters>462.600006103515625</AltitudeMeters>
            <DistanceMeters>NAN</DistanceMeters>
          </Trackpoint>
          <Trackpoint>
            <Time>2022-09-21T10:21:38.000Z</Time>
            <Position>
              <LatitudeDegrees>49.4020285271108150482177734375</LatitudeDegrees>
              <LongitudeDegrees>20.4168383963406085968017578125</LongitudeDegrees>
            </Position>
            <AltitudeMeters>462.20001220703125</AltitudeMeters>
            <DistanceMeters>NAN</DistanceMeters>
          </Trackpoint>
          <Trackpoint>
            <Time>2022-09-21T10:21:40.000Z</Time>
            <Position>
              <LatitudeDegrees>49.40210320986807346343994140625</LatitudeDegrees>
              <LongitudeDegrees>20.41684518568217754364013671875</LongitudeDegrees>
            </Position>
            <AltitudeMeters>462</AltitudeMeters>
            <DistanceMeters>NAN</DistanceMeters>
          </Trackpoint>
          <Trackpoint>
            <Time>2022-09-21T10:21:44.000Z</Time>
            <Position>
              <LatitudeDegrees>49.40221921540796756744384765625</LatitudeDegrees>
              <LongitudeDegrees>20.4168380610644817352294921875</LongitudeDegrees>
            </Position>
            <AltitudeMeters>461.79998779296875</AltitudeMeters>
            <DistanceMeters>NAN</DistanceMeters>
          </Trackpoint>
          <Trackpoint>
            <Time>2022-09-21T10:21:50.000Z</Time>
            <Position>
              <LatitudeDegrees>49.40236506052315235137939453125</LatitudeDegrees>
              <LongitudeDegrees>20.416837893426418304443359375</LongitudeDegrees>
            </Position>
            <AltitudeMeters>461.79998779296875</AltitudeMeters>
            <DistanceMeters>NAN</DistanceMeters>
          </Trackpoint>
          <Trackpoint>
            <Time>2022-09-21T10:21:51.000Z</Time>
            <Position>
              <LatitudeDegrees>49.40239012241363525390625</LatitudeDegrees>
              <LongitudeDegrees>20.4168370552361011505126953125</LongitudeDegrees>
            </Position>
            <AltitudeMeters>461.79998779296875</AltitudeMeters>
            <DistanceMeters>NAN</DistanceMeters>
          </Trackpoint>
          <Trackpoint>
            <Time>2022-09-21T10:21:54.000Z</Time>
            <Position>
              <LatitudeDegrees>49.40245072357356548309326171875</LatitudeDegrees>
              <LongitudeDegrees>20.41683060117065906524658203125</LongitudeDegrees>
            </Position>
            <AltitudeMeters>461.79998779296875</AltitudeMeters>
            <DistanceMeters>NAN</DistanceMeters>
          </Trackpoint>
          <Trackpoint>
            <Time>2022-09-21T10:21:56.000Z</Time>
            <Position>
              <LatitudeDegrees>49.40248508937656879425048828125</LatitudeDegrees>
              <LongitudeDegrees>20.41681517846882343292236328125</LongitudeDegrees>
            </Position>
            <AltitudeMeters>461.79998779296875</AltitudeMeters>
            <DistanceMeters>NAN</DistanceMeters>
          </Trackpoint>
          <Trackpoint>
            <Time>2022-09-21T10:22:01.000Z</Time>
            <Position>
              <LatitudeDegrees>49.40258986316621303558349609375</LatitudeDegrees>
              <LongitudeDegrees>20.4167636297643184661865234375</LongitudeDegrees>
            </Position>
            <AltitudeMeters>461.79998779296875</AltitudeMeters>
            <DistanceMeters>NAN</DistanceMeters>
          </Trackpoint>
          <Trackpoint>
            <Time>2022-09-21T10:22:02.000Z</Time>
            <Position>
              <LatitudeDegrees>49.402612410485744476318359375</LatitudeDegrees>
              <LongitudeDegrees>20.416750051081180572509765625</LongitudeDegrees>
            </Position>
            <AltitudeMeters>461.79998779296875</AltitudeMeters>
            <DistanceMeters>NAN</DistanceMeters>
          </Trackpoint>
          <Trackpoint>
            <Time>2022-09-21T10:22:05.000Z</Time>
            <Position>
              <LatitudeDegrees>49.40269161947071552276611328125</LatitudeDegrees>
              <LongitudeDegrees>20.41673253290355205535888671875</LongitudeDegrees>
            </Position>
            <AltitudeMeters>461.600006103515625</AltitudeMeters>
            <DistanceMeters>NAN</DistanceMeters>
          </Trackpoint>
          <Trackpoint>
            <Time>2022-09-21T10:22:07.000Z</Time>
            <Position>
              <LatitudeDegrees>49.40274844877421855926513671875</LatitudeDegrees>
              <LongitudeDegrees>20.41672398336231708526611328125</LongitudeDegrees>
            </Position>
            <AltitudeMeters>461.399993896484375</AltitudeMeters>
            <DistanceMeters>NAN</DistanceMeters>
          </Trackpoint>
          <Trackpoint>
            <Time>2022-09-21T10:22:15.000Z</Time>
            <Position>
              <LatitudeDegrees>49.40297693945467472076416015625</LatitudeDegrees>
              <LongitudeDegrees>20.41658408939838409423828125</LongitudeDegrees>
            </Position>
            <AltitudeMeters>461</AltitudeMeters>
            <DistanceMeters>NAN</DistanceMeters>
          </Trackpoint>
          <Trackpoint>
            <Time>2022-09-21T10:22:16.000Z</Time>
            <Position>
              <LatitudeDegrees>49.403002671897411346435546875</LatitudeDegrees>
              <LongitudeDegrees>20.41656875051558017730712890625</LongitudeDegrees>
            </Position>
            <AltitudeMeters>460.79998779296875</AltitudeMeters>
            <DistanceMeters>NAN</DistanceMeters>
          </Trackpoint>
          <Trackpoint>
            <Time>2022-09-21T10:22:21.000Z</Time>
            <Position>
              <LatitudeDegrees>49.40316553227603435516357421875</LatitudeDegrees>
              <LongitudeDegrees>20.41646934114396572113037109375</LongitudeDegrees>
            </Position>
            <AltitudeMeters>460.399993896484375</AltitudeMeters>
            <DistanceMeters>NAN</DistanceMeters>
          </Trackpoint>
          <Trackpoint>
            <Time>2022-09-21T10:22:25.000Z</Time>
            <Position>
              <LatitudeDegrees>49.403307773172855377197265625</LatitudeDegrees>
              <LongitudeDegrees>20.41640144772827625274658203125</LongitudeDegrees>
            </Position>
            <AltitudeMeters>460.20001220703125</AltitudeMeters>
            <DistanceMeters>NAN</DistanceMeters>
          </Trackpoint>
          <Trackpoint>
            <Time>2022-09-21T10:22:27.000Z</Time>
            <Position>
              <LatitudeDegrees>49.40340592525899410247802734375</LatitudeDegrees>
              <LongitudeDegrees>20.4163916409015655517578125</LongitudeDegrees>
            </Position>
            <AltitudeMeters>460</AltitudeMeters>
            <DistanceMeters>NAN</DistanceMeters>
          </Trackpoint>
          <Trackpoint>
            <Time>2022-09-21T10:22:31.000Z</Time>
            <Position>
              <LatitudeDegrees>49.40355327911674976348876953125</LatitudeDegrees>
              <LongitudeDegrees>20.41638619266450405120849609375</LongitudeDegrees>
            </Position>
            <AltitudeMeters>460</AltitudeMeters>
            <DistanceMeters>NAN</DistanceMeters>
          </Trackpoint>
          <Trackpoint>
            <Time>2022-09-21T10:22:34.000Z</Time>
            <Position>
              <LatitudeDegrees>49.4036599807441234588623046875</LatitudeDegrees>
              <LongitudeDegrees>20.41637060232460498809814453125</LongitudeDegrees>
            </Position>
            <AltitudeMeters>460</AltitudeMeters>
            <DistanceMeters>NAN</DistanceMeters>
          </Trackpoint>
          <Trackpoint>
            <Time>2022-09-21T10:22:39.000Z</Time>
            <Position>
              <LatitudeDegrees>49.4038289599120616912841796875</LatitudeDegrees>
              <LongitudeDegrees>20.41633154265582561492919921875</LongitudeDegrees>
            </Position>
            <AltitudeMeters>460</AltitudeMeters>
            <DistanceMeters>NAN</DistanceMeters>
          </Trackpoint>
          <Trackpoint>
            <Time>2022-09-21T10:22:43.000Z</Time>
            <Position>
              <LatitudeDegrees>49.40391831099987030029296875</LatitudeDegrees>
              <LongitudeDegrees>20.416342355310916900634765625</LongitudeDegrees>
            </Position>
            <AltitudeMeters>460</AltitudeMeters>
            <DistanceMeters>NAN</DistanceMeters>
          </Trackpoint>
          <Trackpoint>
            <Time>2022-09-21T10:22:44.000Z</Time>
            <Position>
              <LatitudeDegrees>49.4039268605411052703857421875</LatitudeDegrees>
              <LongitudeDegrees>20.41634763590991497039794921875</LongitudeDegrees>
            </Position>
            <AltitudeMeters>460</AltitudeMeters>
            <DistanceMeters>NAN</DistanceMeters>
          </Trackpoint>
          <Trackpoint>
            <Time>2022-09-21T10:22:48.000Z</Time>
            <Position>
              <LatitudeDegrees>49.4039295427501201629638671875</LatitudeDegrees>
              <LongitudeDegrees>20.4163498990237712860107421875</LongitudeDegrees>
            </Position>
            <AltitudeMeters>460</AltitudeMeters>
            <DistanceMeters>NAN</DistanceMeters>
          </Trackpoint>
          <Trackpoint>
            <Time>2022-09-21T10:22:51.000Z</Time>
            <Position>
              <LatitudeDegrees>49.4039295427501201629638671875</LatitudeDegrees>
              <LongitudeDegrees>20.4163498990237712860107421875</LongitudeDegrees>
            </Position>
            <AltitudeMeters>460</AltitudeMeters>
            <DistanceMeters>NAN</DistanceMeters>
          </Trackpoint>
          <Trackpoint>
            <Time>2022-09-21T10:23:03.000Z</Time>
            <Position>
              <LatitudeDegrees>49.4039295427501201629638671875</LatitudeDegrees>
              <LongitudeDegrees>20.4163498990237712860107421875</LongitudeDegrees>
            </Position>
            <AltitudeMeters>460.20001220703125</AltitudeMeters>
            <DistanceMeters>NAN</DistanceMeters>
          </Trackpoint>
          <Trackpoint>
            <Time>2022-09-21T10:23:04.000Z</Time>
            <Position>
              <LatitudeDegrees>49.4039295427501201629638671875</LatitudeDegrees>
              <LongitudeDegrees>20.4163498990237712860107421875</LongitudeDegrees>
            </Position>
            <AltitudeMeters>460.20001220703125</AltitudeMeters>
            <DistanceMeters>NAN</DistanceMeters>
          </Trackpoint>
          <Trackpoint>
            <Time>2022-09-21T10:23:17.000Z</Time>
            <Position>
              <LatitudeDegrees>49.40392945893108844757080078125</LatitudeDegrees>
              <LongitudeDegrees>20.41634797118604183197021484375</LongitudeDegrees>
            </Position>
            <AltitudeMeters>460.20001220703125</AltitudeMeters>
            <DistanceMeters>NAN</DistanceMeters>
          </Trackpoint>
          <Trackpoint>
            <Time>2022-09-21T10:23:20.000Z</Time>
            <Position>
              <LatitudeDegrees>49.40393197350203990936279296875</LatitudeDegrees>
              <LongitudeDegrees>20.416343696415424346923828125</LongitudeDegrees>
            </Position>
            <AltitudeMeters>460.20001220703125</AltitudeMeters>
            <DistanceMeters>NAN</DistanceMeters>
          </Trackpoint>
          <Trackpoint>
            <Time>2022-09-21T10:23:23.000Z</Time>
            <Position>
              <LatitudeDegrees>49.40399886108934879302978515625</LatitudeDegrees>
              <LongitudeDegrees>20.41633539833128452301025390625</LongitudeDegrees>
            </Position>
            <AltitudeMeters>460.20001220703125</AltitudeMeters>
            <DistanceMeters>NAN</DistanceMeters>
          </Trackpoint>
          <Trackpoint>
            <Time>2022-09-21T10:23:28.000Z</Time>
            <Position>
              <LatitudeDegrees>49.40415543504059314727783203125</LatitudeDegrees>
              <LongitudeDegrees>20.41634730063378810882568359375</LongitudeDegrees>
            </Position>
            <AltitudeMeters>460.20001220703125</AltitudeMeters>
            <DistanceMeters>NAN</DistanceMeters>
          </Trackpoint>
          <Trackpoint>
            <Time>2022-09-21T10:23:34.000Z</Time>
            <Position>
              <LatitudeDegrees>49.4043650664389133453369140625</LatitudeDegrees>
              <LongitudeDegrees>20.416349060833454132080078125</LongitudeDegrees>
            </Position>
            <AltitudeMeters>460</AltitudeMeters>
            <DistanceMeters>NAN</DistanceMeters>
          </Trackpoint>
          <Trackpoint>
            <Time>2022-09-21T10:23:37.000Z</Time>
            <Position>
              <LatitudeDegrees>49.4044726900756359100341796875</LatitudeDegrees>
              <LongitudeDegrees>20.41634378023445606231689453125</LongitudeDegrees>
            </Position>
            <AltitudeMeters>459.79998779296875</AltitudeMeters>
            <DistanceMeters>NAN</DistanceMeters>
          </Trackpoint>
          <Trackpoint>
            <Time>2022-09-21T10:23:42.000Z</Time>
            <Position>
              <LatitudeDegrees>49.404660277068614959716796875</LatitudeDegrees>
              <LongitudeDegrees>20.4163696803152561187744140625</LongitudeDegrees>
            </Position>
            <AltitudeMeters>459.600006103515625</AltitudeMeters>
            <DistanceMeters>NAN</DistanceMeters>
          </Trackpoint>
          <Trackpoint>
            <Time>2022-09-21T10:23:47.000Z</Time>
            <Position>
              <LatitudeDegrees>49.4048698246479034423828125</LatitudeDegrees>
              <LongitudeDegrees>20.416456349194049835205078125</LongitudeDegrees>
            </Position>
            <AltitudeMeters>459.600006103515625</AltitudeMeters>
            <DistanceMeters>NAN</DistanceMeters>
          </Trackpoint>
          <Trackpoint>
            <Time>2022-09-21T10:23:49.000Z</Time>
            <Position>
              <LatitudeDegrees>49.4049450941383838653564453125</LatitudeDegrees>
              <LongitudeDegrees>20.41648644022643566131591796875</LongitudeDegrees>
            </Position>
            <AltitudeMeters>459.600006103515625</AltitudeMeters>
            <DistanceMeters>NAN</DistanceMeters>
          </Trackpoint>
          <Trackpoint>
            <Time>2022-09-21T10:23:55.000Z</Time>
            <Position>
              <LatitudeDegrees>49.40512622706592082977294921875</LatitudeDegrees>
              <LongitudeDegrees>20.4166922159492969512939453125</LongitudeDegrees>
            </Position>
            <AltitudeMeters>460</AltitudeMeters>
            <DistanceMeters>NAN</DistanceMeters>
          </Trackpoint>
          <Trackpoint>
            <Time>2022-09-21T10:24:01.000Z</Time>
            <Position>
              <LatitudeDegrees>49.40526369027793407440185546875</LatitudeDegrees>
              <LongitudeDegrees>20.4169642925262451171875</LongitudeDegrees>
            </Position>
            <AltitudeMeters>460</AltitudeMeters>
            <DistanceMeters>NAN</DistanceMeters>
          </Trackpoint>
          <Trackpoint>
            <Time>2022-09-21T10:24:07.000Z</Time>
            <Position>
              <LatitudeDegrees>49.40535320900380611419677734375</LatitudeDegrees>
              <LongitudeDegrees>20.417236201465129852294921875</LongitudeDegrees>
            </Position>
            <AltitudeMeters>460.399993896484375</AltitudeMeters>
            <DistanceMeters>NAN</DistanceMeters>
          </Trackpoint>
          <Trackpoint>
            <Time>2022-09-21T10:24:12.000Z</Time>
            <Position>
              <LatitudeDegrees>49.40536477603018283843994140625</LatitudeDegrees>
              <LongitudeDegrees>20.41726511903107166290283203125</LongitudeDegrees>
            </Position>
            <AltitudeMeters>460.600006103515625</AltitudeMeters>
            <DistanceMeters>NAN</DistanceMeters>
          </Trackpoint>
          <Trackpoint>
            <Time>2022-09-21T10:24:20.000Z</Time>
            <Position>
              <LatitudeDegrees>49.40536477603018283843994140625</LatitudeDegrees>
              <LongitudeDegrees>20.41726511903107166290283203125</LongitudeDegrees>
            </Position>
            <AltitudeMeters>460.79998779296875</AltitudeMeters>
            <DistanceMeters>NAN</DistanceMeters>
          </Trackpoint>
          <Trackpoint>
            <Time>2022-09-21T10:24:23.000Z</Time>
            <Position>
              <LatitudeDegrees>49.40536477603018283843994140625</LatitudeDegrees>
              <LongitudeDegrees>20.41726511903107166290283203125</LongitudeDegrees>
            </Position>
            <AltitudeMeters>460.79998779296875</AltitudeMeters>
            <DistanceMeters>NAN</DistanceMeters>
          </Trackpoint>
          <Trackpoint>
            <Time>2022-09-21T10:24:37.000Z</Time>
            <Position>
              <LatitudeDegrees>49.40536477603018283843994140625</LatitudeDegrees>
              <LongitudeDegrees>20.41726511903107166290283203125</LongitudeDegrees>
            </Position>
            <AltitudeMeters>460.79998779296875</AltitudeMeters>
            <DistanceMeters>NAN</DistanceMeters>
          </Trackpoint>
          <Trackpoint>
            <Time>2022-09-21T10:24:43.000Z</Time>
            <Position>
              <LatitudeDegrees>49.40536477603018283843994140625</LatitudeDegrees>
              <LongitudeDegrees>20.41726511903107166290283203125</LongitudeDegrees>
            </Position>
            <AltitudeMeters>460.79998779296875</AltitudeMeters>
            <DistanceMeters>NAN</DistanceMeters>
          </Trackpoint>
          <Trackpoint>
            <Time>2022-09-21T10:24:50.000Z</Time>
            <Position>
              <LatitudeDegrees>49.40536477603018283843994140625</LatitudeDegrees>
              <LongitudeDegrees>20.41726511903107166290283203125</LongitudeDegrees>
            </Position>
            <AltitudeMeters>460.79998779296875</AltitudeMeters>
            <DistanceMeters>NAN</DistanceMeters>
          </Trackpoint>
          <Trackpoint>
            <Time>2022-09-21T10:24:53.000Z</Time>
            <Position>
              <LatitudeDegrees>49.40536963753402233123779296875</LatitudeDegrees>
              <LongitudeDegrees>20.417303256690502166748046875</LongitudeDegrees>
            </Position>
            <AltitudeMeters>460.79998779296875</AltitudeMeters>
            <DistanceMeters>NAN</DistanceMeters>
          </Trackpoint>
          <Trackpoint>
            <Time>2022-09-21T10:24:54.000Z</Time>
            <Position>
              <LatitudeDegrees>49.40536804497241973876953125</LatitudeDegrees>
              <LongitudeDegrees>20.41732362471520900726318359375</LongitudeDegrees>
            </Position>
            <AltitudeMeters>460.79998779296875</AltitudeMeters>
            <DistanceMeters>NAN</DistanceMeters>
          </Trackpoint>
          <Trackpoint>
            <Time>2022-09-21T10:24:56.000Z</Time>
            <Position>
              <LatitudeDegrees>49.405377767980098724365234375</LatitudeDegrees>
              <LongitudeDegrees>20.41737877763807773590087890625</LongitudeDegrees>
            </Position>
            <AltitudeMeters>460.79998779296875</AltitudeMeters>
            <DistanceMeters>NAN</DistanceMeters>
          </Trackpoint>
          <Trackpoint>
            <Time>2022-09-21T10:24:58.000Z</Time>
            <Position>
              <LatitudeDegrees>49.40539813600480556488037109375</LatitudeDegrees>
              <LongitudeDegrees>20.41745002381503582000732421875</LongitudeDegrees>
            </Position>
            <AltitudeMeters>460.79998779296875</AltitudeMeters>
            <DistanceMeters>NAN</DistanceMeters>
          </Trackpoint>
          <Trackpoint>
            <Time>2022-09-21T10:25:02.000Z</Time>
            <Position>
              <LatitudeDegrees>49.40543711185455322265625</LatitudeDegrees>
              <LongitudeDegrees>20.41764331050217151641845703125</LongitudeDegrees>
            </Position>
            <AltitudeMeters>460.600006103515625</AltitudeMeters>
            <DistanceMeters>NAN</DistanceMeters>
          </Trackpoint>
          <Trackpoint>
            <Time>2022-09-21T10:25:03.000Z</Time>
            <Position>
              <LatitudeDegrees>49.4054500199854373931884765625</LatitudeDegrees>
              <LongitudeDegrees>20.4176930151879787445068359375</LongitudeDegrees>
            </Position>
            <AltitudeMeters>460.600006103515625</AltitudeMeters>
            <DistanceMeters>NAN</DistanceMeters>
          </Trackpoint>
          <Trackpoint>
            <Time>2022-09-21T10:25:09.000Z</Time>
            <Position>
              <LatitudeDegrees>49.40549989230930805206298828125</LatitudeDegrees>
              <LongitudeDegrees>20.4180353321135044097900390625</LongitudeDegrees>
            </Position>
            <AltitudeMeters>459.600006103515625</AltitudeMeters>
            <DistanceMeters>NAN</DistanceMeters>
          </Trackpoint>
          <Trackpoint>
            <Time>2022-09-21T10:25:10.000Z</Time>
            <Position>
              <LatitudeDegrees>49.405497126281261444091796875</LatitudeDegrees>
              <LongitudeDegrees>20.4181094281375408172607421875</LongitudeDegrees>
            </Position>
            <AltitudeMeters>459.20001220703125</AltitudeMeters>
            <DistanceMeters>NAN</DistanceMeters>
          </Trackpoint>
          <Trackpoint>
            <Time>2022-09-21T10:25:13.000Z</Time>
            <Position>
              <LatitudeDegrees>49.40548740327358245849609375</LatitudeDegrees>
              <LongitudeDegrees>20.4183350689709186553955078125</LongitudeDegrees>
            </Position>
            <AltitudeMeters>458.600006103515625</AltitudeMeters>
            <DistanceMeters>NAN</DistanceMeters>
          </Trackpoint>
          <Trackpoint>
            <Time>2022-09-21T10:25:14.000Z</Time>
            <Position>
              <LatitudeDegrees>49.4054912589490413665771484375</LatitudeDegrees>
              <LongitudeDegrees>20.41841260157525539398193359375</LongitudeDegrees>
            </Position>
            <AltitudeMeters>458.600006103515625</AltitudeMeters>
            <DistanceMeters>NAN</DistanceMeters>
          </Trackpoint>
          <Trackpoint>
            <Time>2022-09-21T10:25:16.000Z</Time>
            <Position>
              <LatitudeDegrees>49.4054872356355190277099609375</LatitudeDegrees>
              <LongitudeDegrees>20.4185550101101398468017578125</LongitudeDegrees>
            </Position>
            <AltitudeMeters>458.399993896484375</AltitudeMeters>
            <DistanceMeters>NAN</DistanceMeters>
          </Trackpoint>
          <Trackpoint>
            <Time>2022-09-21T10:25:22.000Z</Time>
            <Position>
              <LatitudeDegrees>49.4054936058819293975830078125</LatitudeDegrees>
              <LongitudeDegrees>20.41892339475452899932861328125</LongitudeDegrees>
            </Position>
            <AltitudeMeters>458.79998779296875</AltitudeMeters>
            <DistanceMeters>NAN</DistanceMeters>
          </Trackpoint>
          <Trackpoint>
            <Time>2022-09-21T10:25:28.000Z</Time>
            <Position>
              <LatitudeDegrees>49.405513219535350799560546875</LatitudeDegrees>
              <LongitudeDegrees>20.4192205332219600677490234375</LongitudeDegrees>
            </Position>
            <AltitudeMeters>458.600006103515625</AltitudeMeters>
            <DistanceMeters>NAN</DistanceMeters>
          </Trackpoint>
          <Trackpoint>
            <Time>2022-09-21T10:25:36.000Z</Time>
            <Position>
              <LatitudeDegrees>49.405439458787441253662109375</LatitudeDegrees>
              <LongitudeDegrees>20.4196245409548282623291015625</LongitudeDegrees>
            </Position>
            <AltitudeMeters>458.20001220703125</AltitudeMeters>
            <DistanceMeters>NAN</DistanceMeters>
          </Trackpoint>
          <Trackpoint>
            <Time>2022-09-21T10:25:43.000Z</Time>
            <Position>
              <LatitudeDegrees>49.40536343492567539215087890625</LatitudeDegrees>
              <LongitudeDegrees>20.41994196362793445587158203125</LongitudeDegrees>
            </Position>
            <AltitudeMeters>458.20001220703125</AltitudeMeters>
            <DistanceMeters>NAN</DistanceMeters>
          </Trackpoint>
          <Trackpoint>
            <Time>2022-09-21T10:25:49.000Z</Time>
            <Position>
              <LatitudeDegrees>49.40528514795005321502685546875</LatitudeDegrees>
              <LongitudeDegrees>20.42017430998384952545166015625</LongitudeDegrees>
            </Position>
            <AltitudeMeters>458</AltitudeMeters>
            <DistanceMeters>NAN</DistanceMeters>
          </Trackpoint>
          <Trackpoint>
            <Time>2022-09-21T10:25:56.000Z</Time>
            <Position>
              <LatitudeDegrees>49.40521289594471454620361328125</LatitudeDegrees>
              <LongitudeDegrees>20.42044605128467082977294921875</LongitudeDegrees>
            </Position>
            <AltitudeMeters>458</AltitudeMeters>
            <DistanceMeters>NAN</DistanceMeters>
          </Trackpoint>
          <Trackpoint>
            <Time>2022-09-21T10:26:01.000Z</Time>
            <Position>
              <LatitudeDegrees>49.40510359592735767364501953125</LatitudeDegrees>
              <LongitudeDegrees>20.42057395912706851959228515625</LongitudeDegrees>
            </Position>
            <AltitudeMeters>458</AltitudeMeters>
            <DistanceMeters>NAN</DistanceMeters>
          </Trackpoint>
          <Trackpoint>
            <Time>2022-09-21T10:26:04.000Z</Time>
            <Position>
              <LatitudeDegrees>49.40506084822118282318115234375</LatitudeDegrees>
              <LongitudeDegrees>20.42063799686729907989501953125</LongitudeDegrees>
            </Position>
            <AltitudeMeters>458</AltitudeMeters>
            <DistanceMeters>NAN</DistanceMeters>
          </Trackpoint>
          <Trackpoint>
            <Time>2022-09-21T10:26:06.000Z</Time>
            <Position>
              <LatitudeDegrees>49.40503218211233615875244140625</LatitudeDegrees>
              <LongitudeDegrees>20.42068518698215484619140625</LongitudeDegrees>
            </Position>
            <AltitudeMeters>458</AltitudeMeters>
            <DistanceMeters>NAN</DistanceMeters>
          </Trackpoint>
          <Trackpoint>
            <Time>2022-09-21T10:26:09.000Z</Time>
            <Position>
              <LatitudeDegrees>49.4049953855574131011962890625</LatitudeDegrees>
              <LongitudeDegrees>20.42080194689333438873291015625</LongitudeDegrees>
            </Position>
            <AltitudeMeters>457.600006103515625</AltitudeMeters>
            <DistanceMeters>NAN</DistanceMeters>
          </Trackpoint>
          <Trackpoint>
            <Time>2022-09-21T10:26:11.000Z</Time>
            <Position>
              <LatitudeDegrees>49.4049719162285327911376953125</LatitudeDegrees>
              <LongitudeDegrees>20.42086699046194553375244140625</LongitudeDegrees>
            </Position>
            <AltitudeMeters>457.399993896484375</AltitudeMeters>
            <DistanceMeters>NAN</DistanceMeters>
          </Trackpoint>
          <Trackpoint>
            <Time>2022-09-21T10:26:16.000Z</Time>
            <Position>
              <LatitudeDegrees>49.40490494482219219207763671875</LatitudeDegrees>
              <LongitudeDegrees>20.4210575111210346221923828125</LongitudeDegrees>
            </Position>
            <AltitudeMeters>457.399993896484375</AltitudeMeters>
            <DistanceMeters>NAN</DistanceMeters>
          </Trackpoint>
          <Trackpoint>
            <Time>2022-09-21T10:26:22.000Z</Time>
            <Position>
              <LatitudeDegrees>49.40477016381919384002685546875</LatitudeDegrees>
              <LongitudeDegrees>20.4212663881480693817138671875</LongitudeDegrees>
            </Position>
            <AltitudeMeters>457.20001220703125</AltitudeMeters>
            <DistanceMeters>NAN</DistanceMeters>
          </Trackpoint>
          <Trackpoint>
            <Time>2022-09-21T10:26:29.000Z</Time>
            <Position>
              <LatitudeDegrees>49.4047020189464092254638671875</LatitudeDegrees>
              <LongitudeDegrees>20.42161189019680023193359375</LongitudeDegrees>
            </Position>
            <AltitudeMeters>457.20001220703125</AltitudeMeters>
            <DistanceMeters>NAN</DistanceMeters>
          </Trackpoint>
          <Trackpoint>
            <Time>2022-09-21T10:26:36.000Z</Time>
            <Position>
              <LatitudeDegrees>49.40458760596811771392822265625</LatitudeDegrees>
              <LongitudeDegrees>20.4219210147857666015625</LongitudeDegrees>
            </Position>
            <AltitudeMeters>456.79998779296875</AltitudeMeters>
            <DistanceMeters>NAN</DistanceMeters>
          </Trackpoint>
          <Trackpoint>
            <Time>2022-09-21T10:26:37.000Z</Time>
            <Position>
              <LatitudeDegrees>49.40457637421786785125732421875</LatitudeDegrees>
              <LongitudeDegrees>20.42196468450129032135009765625</LongitudeDegrees>
            </Position>
            <AltitudeMeters>456.79998779296875</AltitudeMeters>
            <DistanceMeters>NAN</DistanceMeters>
          </Trackpoint>
          <Trackpoint>
            <Time>2022-09-21T10:26:43.000Z</Time>
            <Position>
              <LatitudeDegrees>49.4045104086399078369140625</LatitudeDegrees>
              <LongitudeDegrees>20.42223810218274593353271484375</LongitudeDegrees>
            </Position>
            <AltitudeMeters>457</AltitudeMeters>
            <DistanceMeters>NAN</DistanceMeters>
          </Trackpoint>
          <Trackpoint>
            <Time>2022-09-21T10:26:50.000Z</Time>
            <Position>
              <LatitudeDegrees>49.4043130986392498016357421875</LatitudeDegrees>
              <LongitudeDegrees>20.422621406614780426025390625</LongitudeDegrees>
            </Position>
            <AltitudeMeters>457.20001220703125</AltitudeMeters>
            <DistanceMeters>NAN</DistanceMeters>
          </Trackpoint>
          <Trackpoint>
            <Time>2022-09-21T10:26:51.000Z</Time>
            <Position>
              <LatitudeDegrees>49.40429692156612873077392578125</LatitudeDegrees>
              <LongitudeDegrees>20.42266524396836757659912109375</LongitudeDegrees>
            </Position>
            <AltitudeMeters>457.20001220703125</AltitudeMeters>
            <DistanceMeters>NAN</DistanceMeters>
          </Trackpoint>
          <Trackpoint>
            <Time>2022-09-21T10:26:55.000Z</Time>
            <Position>
              <LatitudeDegrees>49.404250569641590118408203125</LatitudeDegrees>
              <LongitudeDegrees>20.42286288924515247344970703125</LongitudeDegrees>
            </Position>
            <AltitudeMeters>457.399993896484375</AltitudeMeters>
            <DistanceMeters>NAN</DistanceMeters>
          </Trackpoint>
          <Trackpoint>
            <Time>2022-09-21T10:27:01.000Z</Time>
            <Position>
              <LatitudeDegrees>49.40405535511672496795654296875</LatitudeDegrees>
              <LongitudeDegrees>20.4230866022408008575439453125</LongitudeDegrees>
            </Position>
            <AltitudeMeters>457.399993896484375</AltitudeMeters>
            <DistanceMeters>NAN</DistanceMeters>
          </Trackpoint>
          <Trackpoint>
            <Time>2022-09-21T10:27:04.000Z</Time>
            <Position>
              <LatitudeDegrees>49.40397539176046848297119140625</LatitudeDegrees>
              <LongitudeDegrees>20.42319430969655513763427734375</LongitudeDegrees>
            </Position>
            <AltitudeMeters>457.399993896484375</AltitudeMeters>
            <DistanceMeters>NAN</DistanceMeters>
          </Trackpoint>
          <Trackpoint>
            <Time>2022-09-21T10:27:09.000Z</Time>
            <Position>
              <LatitudeDegrees>49.40389593131840229034423828125</LatitudeDegrees>
              <LongitudeDegrees>20.4233749397099018096923828125</LongitudeDegrees>
            </Position>
            <AltitudeMeters>457.600006103515625</AltitudeMeters>
            <DistanceMeters>NAN</DistanceMeters>
          </Trackpoint>
          <Trackpoint>
            <Time>2022-09-21T10:27:16.000Z</Time>
            <Position>
              <LatitudeDegrees>49.40379166044294834136962890625</LatitudeDegrees>
              <LongitudeDegrees>20.42364542372524738311767578125</LongitudeDegrees>
            </Position>
            <AltitudeMeters>457.600006103515625</AltitudeMeters>
            <DistanceMeters>NAN</DistanceMeters>
          </Trackpoint>
          <Trackpoint>
            <Time>2022-09-21T10:27:20.000Z</Time>
            <Position>
              <LatitudeDegrees>49.40371312201023101806640625</LatitudeDegrees>
              <LongitudeDegrees>20.42383166961371898651123046875</LongitudeDegrees>
            </Position>
            <AltitudeMeters>457.600006103515625</AltitudeMeters>
            <DistanceMeters>NAN</DistanceMeters>
          </Trackpoint>
          <Trackpoint>
            <Time>2022-09-21T10:27:23.000Z</Time>
            <Position>
              <LatitudeDegrees>49.403663836419582366943359375</LatitudeDegrees>
              <LongitudeDegrees>20.4239526204764842987060546875</LongitudeDegrees>
            </Position>
            <AltitudeMeters>457.600006103515625</AltitudeMeters>
            <DistanceMeters>NAN</DistanceMeters>
          </Trackpoint>
          <Trackpoint>
            <Time>2022-09-21T10:27:24.000Z</Time>
            <Position>
              <LatitudeDegrees>49.403647072613239288330078125</LatitudeDegrees>
              <LongitudeDegrees>20.42398405261337757110595703125</LongitudeDegrees>
            </Position>
            <AltitudeMeters>457.600006103515625</AltitudeMeters>
            <DistanceMeters>NAN</DistanceMeters>
          </Trackpoint>
          <Trackpoint>
            <Time>2022-09-21T10:27:31.000Z</Time>
            <Position>
              <LatitudeDegrees>49.403487145900726318359375</LatitudeDegrees>
              <LongitudeDegrees>20.424293763935565948486328125</LongitudeDegrees>
            </Position>
            <AltitudeMeters>458</AltitudeMeters>
            <DistanceMeters>NAN</DistanceMeters>
          </Trackpoint>
          <Trackpoint>
            <Time>2022-09-21T10:27:37.000Z</Time>
            <Position>
              <LatitudeDegrees>49.4033806957304477691650390625</LatitudeDegrees>
              <LongitudeDegrees>20.42454731650650501251220703125</LongitudeDegrees>
            </Position>
            <AltitudeMeters>458</AltitudeMeters>
            <DistanceMeters>NAN</DistanceMeters>
          </Trackpoint>
          <Trackpoint>
            <Time>2022-09-21T10:27:43.000Z</Time>
            <Position>
              <LatitudeDegrees>49.403293691575527191162109375</LatitudeDegrees>
              <LongitudeDegrees>20.424844957888126373291015625</LongitudeDegrees>
            </Position>
            <AltitudeMeters>458.20001220703125</AltitudeMeters>
            <DistanceMeters>NAN</DistanceMeters>
          </Trackpoint>
          <Trackpoint>
            <Time>2022-09-21T10:27:48.000Z</Time>
            <Position>
              <LatitudeDegrees>49.40317424945533275604248046875</LatitudeDegrees>
              <LongitudeDegrees>20.42505643330514430999755859375</LongitudeDegrees>
            </Position>
            <AltitudeMeters>458.399993896484375</AltitudeMeters>
            <DistanceMeters>NAN</DistanceMeters>
          </Trackpoint>
          <Trackpoint>
            <Time>2022-09-21T10:27:53.000Z</Time>
            <Position>
              <LatitudeDegrees>49.4030995666980743408203125</LatitudeDegrees>
              <LongitudeDegrees>20.4252283461391925811767578125</LongitudeDegrees>
            </Position>
            <AltitudeMeters>458.600006103515625</AltitudeMeters>
            <DistanceMeters>NAN</DistanceMeters>
          </Trackpoint>
          <Trackpoint>
            <Time>2022-09-21T10:27:54.000Z</Time>
            <Position>
              <LatitudeDegrees>49.40308758057653903961181640625</LatitudeDegrees>
              <LongitudeDegrees>20.4252662323415279388427734375</LongitudeDegrees>
            </Position>
            <AltitudeMeters>458.600006103515625</AltitudeMeters>
            <DistanceMeters>NAN</DistanceMeters>
          </Trackpoint>
          <Trackpoint>
            <Time>2022-09-21T10:28:00.000Z</Time>
            <Position>
              <LatitudeDegrees>49.40303326584398746490478515625</LatitudeDegrees>
              <LongitudeDegrees>20.4255183599889278411865234375</LongitudeDegrees>
            </Position>
            <AltitudeMeters>458.600006103515625</AltitudeMeters>
            <DistanceMeters>NAN</DistanceMeters>
          </Trackpoint>
          <Trackpoint>
            <Time>2022-09-21T10:28:07.000Z</Time>
            <Position>
              <LatitudeDegrees>49.4029894284904003143310546875</LatitudeDegrees>
              <LongitudeDegrees>20.42583242990076541900634765625</LongitudeDegrees>
            </Position>
            <AltitudeMeters>458.600006103515625</AltitudeMeters>
            <DistanceMeters>NAN</DistanceMeters>
          </Trackpoint>
          <Trackpoint>
            <Time>2022-09-21T10:28:12.000Z</Time>
            <Position>
              <LatitudeDegrees>49.40283696167171001434326171875</LatitudeDegrees>
              <LongitudeDegrees>20.4260460846126079559326171875</LongitudeDegrees>
            </Position>
            <AltitudeMeters>458.20001220703125</AltitudeMeters>
            <DistanceMeters>NAN</DistanceMeters>
          </Trackpoint>
          <Trackpoint>
            <Time>2022-09-21T10:28:20.000Z</Time>
            <Position>
              <LatitudeDegrees>49.40274911932647228240966796875</LatitudeDegrees>
              <LongitudeDegrees>20.426358394324779510498046875</LongitudeDegrees>
            </Position>
            <AltitudeMeters>458.399993896484375</AltitudeMeters>
            <DistanceMeters>NAN</DistanceMeters>
          </Trackpoint>
          <Trackpoint>
            <Time>2022-09-21T10:28:21.000Z</Time>
            <Position>
              <LatitudeDegrees>49.40274626947939395904541015625</LatitudeDegrees>
              <LongitudeDegrees>20.42639317922294139862060546875</LongitudeDegrees>
            </Position>
            <AltitudeMeters>458.20001220703125</AltitudeMeters>
            <DistanceMeters>NAN</DistanceMeters>
          </Trackpoint>
          <Trackpoint>
            <Time>2022-09-21T10:28:27.000Z</Time>
            <Position>
              <LatitudeDegrees>49.4026967324316501617431640625</LatitudeDegrees>
              <LongitudeDegrees>20.426666848361492156982421875</LongitudeDegrees>
            </Position>
            <AltitudeMeters>458.600006103515625</AltitudeMeters>
            <DistanceMeters>NAN</DistanceMeters>
          </Trackpoint>
          <Trackpoint>
            <Time>2022-09-21T10:28:29.000Z</Time>
            <Position>
              <LatitudeDegrees>49.40266161225736141204833984375</LatitudeDegrees>
              <LongitudeDegrees>20.42674723081290721893310546875</LongitudeDegrees>
            </Position>
            <AltitudeMeters>458.600006103515625</AltitudeMeters>
            <DistanceMeters>NAN</DistanceMeters>
          </Trackpoint>
          <Trackpoint>
            <Time>2022-09-21T10:28:33.000Z</Time>
            <Position>
              <LatitudeDegrees>49.402645267546176910400390625</LatitudeDegrees>
              <LongitudeDegrees>20.426945798099040985107421875</LongitudeDegrees>
            </Position>
            <AltitudeMeters>458.600006103515625</AltitudeMeters>
            <DistanceMeters>NAN</DistanceMeters>
          </Trackpoint>
          <Trackpoint>
            <Time>2022-09-21T10:28:35.000Z</Time>
            <Position>
              <LatitudeDegrees>49.40261207520961761474609375</LatitudeDegrees>
              <LongitudeDegrees>20.4270173795521259307861328125</LongitudeDegrees>
            </Position>
            <AltitudeMeters>458.600006103515625</AltitudeMeters>
            <DistanceMeters>NAN</DistanceMeters>
          </Trackpoint>
          <Trackpoint>
            <Time>2022-09-21T10:28:41.000Z</Time>
            <Position>
              <LatitudeDegrees>49.4024697504937648773193359375</LatitudeDegrees>
              <LongitudeDegrees>20.4272747039794921875</LongitudeDegrees>
            </Position>
            <AltitudeMeters>458</AltitudeMeters>
            <DistanceMeters>NAN</DistanceMeters>
          </Trackpoint>
          <Trackpoint>
            <Time>2022-09-21T10:28:44.000Z</Time>
            <Position>
              <LatitudeDegrees>49.40239557065069675445556640625</LatitudeDegrees>
              <LongitudeDegrees>20.427390038967132568359375</LongitudeDegrees>
            </Position>
            <AltitudeMeters>457.600006103515625</AltitudeMeters>
            <DistanceMeters>NAN</DistanceMeters>
          </Trackpoint>
          <Trackpoint>
            <Time>2022-09-21T10:28:48.000Z</Time>
            <Position>
              <LatitudeDegrees>49.402333796024322509765625</LatitudeDegrees>
              <LongitudeDegrees>20.4275818169116973876953125</LongitudeDegrees>
            </Position>
            <AltitudeMeters>457.600006103515625</AltitudeMeters>
            <DistanceMeters>NAN</DistanceMeters>
          </Trackpoint>
          <Trackpoint>
            <Time>2022-09-21T10:28:54.000Z</Time>
            <Position>
              <LatitudeDegrees>49.402140676975250244140625</LatitudeDegrees>
              <LongitudeDegrees>20.42776999063789844512939453125</LongitudeDegrees>
            </Position>
            <AltitudeMeters>458</AltitudeMeters>
            <DistanceMeters>NAN</DistanceMeters>
          </Trackpoint>
          <Trackpoint>
            <Time>2022-09-21T10:29:00.000Z</Time>
            <Position>
              <LatitudeDegrees>49.40188092179596424102783203125</LatitudeDegrees>
              <LongitudeDegrees>20.42788465507328510284423828125</LongitudeDegrees>
            </Position>
            <AltitudeMeters>458.399993896484375</AltitudeMeters>
            <DistanceMeters>NAN</DistanceMeters>
          </Trackpoint>
          <Trackpoint>
            <Time>2022-09-21T10:29:06.000Z</Time>
            <Position>
              <LatitudeDegrees>49.40161588601768016815185546875</LatitudeDegrees>
              <LongitudeDegrees>20.42800267226994037628173828125</LongitudeDegrees>
            </Position>
            <AltitudeMeters>458.399993896484375</AltitudeMeters>
            <DistanceMeters>NAN</DistanceMeters>
          </Trackpoint>
          <Trackpoint>
            <Time>2022-09-21T10:29:11.000Z</Time>
            <Position>
              <LatitudeDegrees>49.40141472034156322479248046875</LatitudeDegrees>
              <LongitudeDegrees>20.42808615602552890777587890625</LongitudeDegrees>
            </Position>
            <AltitudeMeters>458.399993896484375</AltitudeMeters>
            <DistanceMeters>NAN</DistanceMeters>
          </Trackpoint>
          <Trackpoint>
            <Time>2022-09-21T10:29:12.000Z</Time>
            <Position>
              <LatitudeDegrees>49.4013722240924835205078125</LatitudeDegrees>
              <LongitudeDegrees>20.4281073622405529022216796875</LongitudeDegrees>
            </Position>
            <AltitudeMeters>458.20001220703125</AltitudeMeters>
            <DistanceMeters>NAN</DistanceMeters>
          </Trackpoint>
          <Trackpoint>
            <Time>2022-09-21T10:29:14.000Z</Time>
            <Position>
              <LatitudeDegrees>49.4012835435569286346435546875</LatitudeDegrees>
              <LongitudeDegrees>20.42814013548195362091064453125</LongitudeDegrees>
            </Position>
            <AltitudeMeters>458.399993896484375</AltitudeMeters>
            <DistanceMeters>NAN</DistanceMeters>
          </Trackpoint>
          <Trackpoint>
            <Time>2022-09-21T10:29:16.000Z</Time>
            <Position>
              <LatitudeDegrees>49.4012071006000041961669921875</LatitudeDegrees>
              <LongitudeDegrees>20.4281888343393802642822265625</LongitudeDegrees>
            </Position>
            <AltitudeMeters>458.399993896484375</AltitudeMeters>
            <DistanceMeters>NAN</DistanceMeters>
          </Trackpoint>
          <Trackpoint>
            <Time>2022-09-21T10:29:17.000Z</Time>
            <Position>
              <LatitudeDegrees>49.4011715613305568695068359375</LatitudeDegrees>
              <LongitudeDegrees>20.42820786125957965850830078125</LongitudeDegrees>
            </Position>
            <AltitudeMeters>458.399993896484375</AltitudeMeters>
            <DistanceMeters>NAN</DistanceMeters>
          </Trackpoint>
          <Trackpoint>
            <Time>2022-09-21T10:29:20.000Z</Time>
            <Position>
              <LatitudeDegrees>49.4010726548731327056884765625</LatitudeDegrees>
              <LongitudeDegrees>20.42824633419513702392578125</LongitudeDegrees>
            </Position>
            <AltitudeMeters>458.600006103515625</AltitudeMeters>
            <DistanceMeters>NAN</DistanceMeters>
          </Trackpoint>
          <Trackpoint>
            <Time>2022-09-21T10:29:21.000Z</Time>
            <Position>
              <LatitudeDegrees>49.40104306675493717193603515625</LatitudeDegrees>
              <LongitudeDegrees>20.42826502583920955657958984375</LongitudeDegrees>
            </Position>
            <AltitudeMeters>458.600006103515625</AltitudeMeters>
            <DistanceMeters>NAN</DistanceMeters>
          </Trackpoint>
          <Trackpoint>
            <Time>2022-09-21T10:29:22.000Z</Time>
            <Position>
              <LatitudeDegrees>49.40101892687380313873291015625</LatitudeDegrees>
              <LongitudeDegrees>20.42827583849430084228515625</LongitudeDegrees>
            </Position>
            <AltitudeMeters>458.79998779296875</AltitudeMeters>
            <DistanceMeters>NAN</DistanceMeters>
          </Trackpoint>
          <Trackpoint>
            <Time>2022-09-21T10:29:24.000Z</Time>
            <Position>
              <LatitudeDegrees>49.400972239673137664794921875</LatitudeDegrees>
              <LongitudeDegrees>20.42829989455640316009521484375</LongitudeDegrees>
            </Position>
            <AltitudeMeters>458.79998779296875</AltitudeMeters>
            <DistanceMeters>NAN</DistanceMeters>
          </Trackpoint>
          <Trackpoint>
            <Time>2022-09-21T10:29:29.000Z</Time>
            <Position>
              <LatitudeDegrees>49.40080937929451465606689453125</LatitudeDegrees>
              <LongitudeDegrees>20.42838840745389461517333984375</LongitudeDegrees>
            </Position>
            <AltitudeMeters>458.600006103515625</AltitudeMeters>
            <DistanceMeters>NAN</DistanceMeters>
          </Trackpoint>
          <Trackpoint>
            <Time>2022-09-21T10:29:30.000Z</Time>
            <Position>
              <LatitudeDegrees>49.40076478756964206695556640625</LatitudeDegrees>
              <LongitudeDegrees>20.4284134693443775177001953125</LongitudeDegrees>
            </Position>
            <AltitudeMeters>458.600006103515625</AltitudeMeters>
            <DistanceMeters>NAN</DistanceMeters>
          </Trackpoint>
          <Trackpoint>
            <Time>2022-09-21T10:29:34.000Z</Time>
            <Position>
              <LatitudeDegrees>49.40059639513492584228515625</LatitudeDegrees>
              <LongitudeDegrees>20.4284884035587310791015625</LongitudeDegrees>
            </Position>
            <AltitudeMeters>458.600006103515625</AltitudeMeters>
            <DistanceMeters>NAN</DistanceMeters>
          </Trackpoint>
          <Trackpoint>
            <Time>2022-09-21T10:29:39.000Z</Time>
            <Position>
              <LatitudeDegrees>49.4004141725599765777587890625</LatitudeDegrees>
              <LongitudeDegrees>20.42863114736974239349365234375</LongitudeDegrees>
            </Position>
            <AltitudeMeters>458.79998779296875</AltitudeMeters>
            <DistanceMeters>NAN</DistanceMeters>
          </Trackpoint>
          <Trackpoint>
            <Time>2022-09-21T10:29:45.000Z</Time>
            <Position>
              <LatitudeDegrees>49.40019406378269195556640625</LatitudeDegrees>
              <LongitudeDegrees>20.4287708736956119537353515625</LongitudeDegrees>
            </Position>
            <AltitudeMeters>458.399993896484375</AltitudeMeters>
            <DistanceMeters>NAN</DistanceMeters>
          </Trackpoint>
          <Trackpoint>
            <Time>2022-09-21T10:29:50.000Z</Time>
            <Position>
              <LatitudeDegrees>49.400012679398059844970703125</LatitudeDegrees>
              <LongitudeDegrees>20.42883465997874736785888671875</LongitudeDegrees>
            </Position>
            <AltitudeMeters>458.399993896484375</AltitudeMeters>
            <DistanceMeters>NAN</DistanceMeters>
          </Trackpoint>
          <Trackpoint>
            <Time>2022-09-21T10:29:58.000Z</Time>
            <Position>
              <LatitudeDegrees>49.3997268564999103546142578125</LatitudeDegrees>
              <LongitudeDegrees>20.42894613929092884063720703125</LongitudeDegrees>
            </Position>
            <AltitudeMeters>458.600006103515625</AltitudeMeters>
            <DistanceMeters>NAN</DistanceMeters>
          </Trackpoint>
          <Trackpoint>
            <Time>2022-09-21T10:30:03.000Z</Time>
            <Position>
              <LatitudeDegrees>49.3995384313166141510009765625</LatitudeDegrees>
              <LongitudeDegrees>20.4290384240448474884033203125</LongitudeDegrees>
            </Position>
            <AltitudeMeters>458.600006103515625</AltitudeMeters>
            <DistanceMeters>NAN</DistanceMeters>
          </Trackpoint>
          <Trackpoint>
            <Time>2022-09-21T10:30:04.000Z</Time>
            <Position>
              <LatitudeDegrees>49.399498365819454193115234375</LatitudeDegrees>
              <LongitudeDegrees>20.42906817980110645294189453125</LongitudeDegrees>
            </Position>
            <AltitudeMeters>458.600006103515625</AltitudeMeters>
            <DistanceMeters>NAN</DistanceMeters>
          </Trackpoint>
          <Trackpoint>
            <Time>2022-09-21T10:30:08.000Z</Time>
            <Position>
              <LatitudeDegrees>49.39937791787087917327880859375</LatitudeDegrees>
              <LongitudeDegrees>20.4291336424648761749267578125</LongitudeDegrees>
            </Position>
            <AltitudeMeters>458.600006103515625</AltitudeMeters>
            <DistanceMeters>NAN</DistanceMeters>
          </Trackpoint>
          <Trackpoint>
            <Time>2022-09-21T10:30:14.000Z</Time>
            <Position>
              <LatitudeDegrees>49.39917189069092273712158203125</LatitudeDegrees>
              <LongitudeDegrees>20.4292573593556880950927734375</LongitudeDegrees>
            </Position>
            <AltitudeMeters>458.600006103515625</AltitudeMeters>
            <DistanceMeters>NAN</DistanceMeters>
          </Trackpoint>
          <Trackpoint>
            <Time>2022-09-21T10:30:19.000Z</Time>
            <Position>
              <LatitudeDegrees>49.39899972639977931976318359375</LatitudeDegrees>
              <LongitudeDegrees>20.42937688529491424560546875</LongitudeDegrees>
            </Position>
            <AltitudeMeters>459.20001220703125</AltitudeMeters>
            <DistanceMeters>NAN</DistanceMeters>
          </Trackpoint>
          <Trackpoint>
            <Time>2022-09-21T10:30:25.000Z</Time>
            <Position>
              <LatitudeDegrees>49.39881783910095691680908203125</LatitudeDegrees>
              <LongitudeDegrees>20.42946481145918369293212890625</LongitudeDegrees>
            </Position>
            <AltitudeMeters>459.20001220703125</AltitudeMeters>
            <DistanceMeters>NAN</DistanceMeters>
          </Trackpoint>
          <Trackpoint>
            <Time>2022-09-21T10:30:31.000Z</Time>
            <Position>
              <LatitudeDegrees>49.3986137397587299346923828125</LatitudeDegrees>
              <LongitudeDegrees>20.42954745702445507049560546875</LongitudeDegrees>
            </Position>
            <AltitudeMeters>459.600006103515625</AltitudeMeters>
            <DistanceMeters>NAN</DistanceMeters>
          </Trackpoint>
          <Trackpoint>
            <Time>2022-09-21T10:30:32.000Z</Time>
            <Position>
              <LatitudeDegrees>49.39858616329729557037353515625</LatitudeDegrees>
              <LongitudeDegrees>20.429560951888561248779296875</LongitudeDegrees>
            </Position>
            <AltitudeMeters>459.600006103515625</AltitudeMeters>
            <DistanceMeters>NAN</DistanceMeters>
          </Trackpoint>
          <Trackpoint>
            <Time>2022-09-21T10:30:34.000Z</Time>
            <Position>
              <LatitudeDegrees>49.3985264003276824951171875</LatitudeDegrees>
              <LongitudeDegrees>20.4295765422284603118896484375</LongitudeDegrees>
            </Position>
            <AltitudeMeters>459.79998779296875</AltitudeMeters>
            <DistanceMeters>NAN</DistanceMeters>
          </Trackpoint>
          <Trackpoint>
            <Time>2022-09-21T10:30:37.000Z</Time>
            <Position>
              <LatitudeDegrees>49.398434869945049285888671875</LatitudeDegrees>
              <LongitudeDegrees>20.4296122491359710693359375</LongitudeDegrees>
            </Position>
            <AltitudeMeters>459.79998779296875</AltitudeMeters>
            <DistanceMeters>NAN</DistanceMeters>
          </Trackpoint>
          <Trackpoint>
            <Time>2022-09-21T10:30:44.000Z</Time>
            <Position>
              <LatitudeDegrees>49.3982104025781154632568359375</LatitudeDegrees>
              <LongitudeDegrees>20.429710485041141510009765625</LongitudeDegrees>
            </Position>
            <AltitudeMeters>460.79998779296875</AltitudeMeters>
            <DistanceMeters>NAN</DistanceMeters>
          </Trackpoint>
          <Trackpoint>
            <Time>2022-09-21T10:30:50.000Z</Time>
            <Position>
              <LatitudeDegrees>49.3980045430362224578857421875</LatitudeDegrees>
              <LongitudeDegrees>20.4297428391873836517333984375</LongitudeDegrees>
            </Position>
            <AltitudeMeters>461.20001220703125</AltitudeMeters>
            <DistanceMeters>NAN</DistanceMeters>
          </Trackpoint>
          <Trackpoint>
            <Time>2022-09-21T10:30:54.000Z</Time>
            <Position>
              <LatitudeDegrees>49.39790454693138599395751953125</LatitudeDegrees>
              <LongitudeDegrees>20.4297517240047454833984375</LongitudeDegrees>
            </Position>
            <AltitudeMeters>461.79998779296875</AltitudeMeters>
            <DistanceMeters>NAN</DistanceMeters>
          </Trackpoint>
          <Trackpoint>
            <Time>2022-09-21T10:30:56.000Z</Time>
            <Position>
              <LatitudeDegrees>49.39786263741552829742431640625</LatitudeDegrees>
              <LongitudeDegrees>20.42976915836334228515625</LongitudeDegrees>
            </Position>
            <AltitudeMeters>461.79998779296875</AltitudeMeters>
            <DistanceMeters>NAN</DistanceMeters>
          </Trackpoint>
          <Trackpoint>
            <Time>2022-09-21T10:31:01.000Z</Time>
            <Position>
              <LatitudeDegrees>49.3977458775043487548828125</LatitudeDegrees>
              <LongitudeDegrees>20.42983629740774631500244140625</LongitudeDegrees>
            </Position>
            <AltitudeMeters>462.399993896484375</AltitudeMeters>
            <DistanceMeters>NAN</DistanceMeters>
          </Trackpoint>
          <Trackpoint>
            <Time>2022-09-21T10:31:06.000Z</Time>
            <Position>
              <LatitudeDegrees>49.39759391359984874725341796875</LatitudeDegrees>
              <LongitudeDegrees>20.4299369640648365020751953125</LongitudeDegrees>
            </Position>
            <AltitudeMeters>462.399993896484375</AltitudeMeters>
            <DistanceMeters>NAN</DistanceMeters>
          </Trackpoint>
          <Trackpoint>
            <Time>2022-09-21T10:31:11.000Z</Time>
            <Position>
              <LatitudeDegrees>49.39743868075311183929443359375</LatitudeDegrees>
              <LongitudeDegrees>20.42998013086616992950439453125</LongitudeDegrees>
            </Position>
            <AltitudeMeters>462.399993896484375</AltitudeMeters>
            <DistanceMeters>NAN</DistanceMeters>
          </Trackpoint>
          <Trackpoint>
            <Time>2022-09-21T10:31:16.000Z</Time>
            <Position>
              <LatitudeDegrees>49.39728789031505584716796875</LatitudeDegrees>
              <LongitudeDegrees>20.43005104176700115203857421875</LongitudeDegrees>
            </Position>
            <AltitudeMeters>462.20001220703125</AltitudeMeters>
            <DistanceMeters>NAN</DistanceMeters>
          </Trackpoint>
          <Trackpoint>
            <Time>2022-09-21T10:31:18.000Z</Time>
            <Position>
              <LatitudeDegrees>49.397229887545108795166015625</LatitudeDegrees>
              <LongitudeDegrees>20.43010150082409381866455078125</LongitudeDegrees>
            </Position>
            <AltitudeMeters>462.20001220703125</AltitudeMeters>
            <DistanceMeters>NAN</DistanceMeters>
          </Trackpoint>
          <Trackpoint>
            <Time>2022-09-21T10:31:24.000Z</Time>
            <Position>
              <LatitudeDegrees>49.39702226780354976654052734375</LatitudeDegrees>
              <LongitudeDegrees>20.4302118904888629913330078125</LongitudeDegrees>
            </Position>
            <AltitudeMeters>462.20001220703125</AltitudeMeters>
            <DistanceMeters>NAN</DistanceMeters>
          </Trackpoint>
          <Trackpoint>
            <Time>2022-09-21T10:31:31.000Z</Time>
            <Position>
              <LatitudeDegrees>49.3967829644680023193359375</LatitudeDegrees>
              <LongitudeDegrees>20.430276431143283843994140625</LongitudeDegrees>
            </Position>
            <AltitudeMeters>462.20001220703125</AltitudeMeters>
            <DistanceMeters>NAN</DistanceMeters>
          </Trackpoint>
          <Trackpoint>
            <Time>2022-09-21T10:31:40.000Z</Time>
            <Position>
              <LatitudeDegrees>49.396487586200237274169921875</LatitudeDegrees>
              <LongitudeDegrees>20.43044733814895153045654296875</LongitudeDegrees>
            </Position>
            <AltitudeMeters>462.20001220703125</AltitudeMeters>
            <DistanceMeters>NAN</DistanceMeters>
          </Trackpoint>
          <Trackpoint>
            <Time>2022-09-21T10:31:44.000Z</Time>
            <Position>
              <LatitudeDegrees>49.39637535251677036285400390625</LatitudeDegrees>
              <LongitudeDegrees>20.4305243678390979766845703125</LongitudeDegrees>
            </Position>
            <AltitudeMeters>462.399993896484375</AltitudeMeters>
            <DistanceMeters>NAN</DistanceMeters>
          </Trackpoint>
          <Trackpoint>
            <Time>2022-09-21T10:31:50.000Z</Time>
            <Position>
              <LatitudeDegrees>49.396236799657344818115234375</LatitudeDegrees>
              <LongitudeDegrees>20.43067507445812225341796875</LongitudeDegrees>
            </Position>
            <AltitudeMeters>462</AltitudeMeters>
            <DistanceMeters>NAN</DistanceMeters>
          </Trackpoint>
          <Trackpoint>
            <Time>2022-09-21T10:31:55.000Z</Time>
            <Position>
              <LatitudeDegrees>49.3960827402770519256591796875</LatitudeDegrees>
              <LongitudeDegrees>20.4308499209582805633544921875</LongitudeDegrees>
            </Position>
            <AltitudeMeters>462.20001220703125</AltitudeMeters>
            <DistanceMeters>NAN</DistanceMeters>
          </Trackpoint>
          <Trackpoint>
            <Time>2022-09-21T10:31:56.000Z</Time>
            <Position>
              <LatitudeDegrees>49.39605331979691982269287109375</LatitudeDegrees>
              <LongitudeDegrees>20.4308777488768100738525390625</LongitudeDegrees>
            </Position>
            <AltitudeMeters>462.20001220703125</AltitudeMeters>
            <DistanceMeters>NAN</DistanceMeters>
          </Trackpoint>
          <Trackpoint>
            <Time>2022-09-21T10:32:03.000Z</Time>
            <Position>
              <LatitudeDegrees>49.39588065259158611297607421875</LatitudeDegrees>
              <LongitudeDegrees>20.431107915937900543212890625</LongitudeDegrees>
            </Position>
            <AltitudeMeters>461.79998779296875</AltitudeMeters>
            <DistanceMeters>NAN</DistanceMeters>
          </Trackpoint>
          <Trackpoint>
            <Time>2022-09-21T10:32:05.000Z</Time>
            <Position>
              <LatitudeDegrees>49.39583002589643001556396484375</LatitudeDegrees>
              <LongitudeDegrees>20.43119584210216999053955078125</LongitudeDegrees>
            </Position>
            <AltitudeMeters>461.79998779296875</AltitudeMeters>
            <DistanceMeters>NAN</DistanceMeters>
          </Trackpoint>
          <Trackpoint>
            <Time>2022-09-21T10:32:11.000Z</Time>
            <Position>
              <LatitudeDegrees>49.395692981779575347900390625</LatitudeDegrees>
              <LongitudeDegrees>20.431445874273777008056640625</LongitudeDegrees>
            </Position>
            <AltitudeMeters>462.399993896484375</AltitudeMeters>
            <DistanceMeters>NAN</DistanceMeters>
          </Trackpoint>
          <Trackpoint>
            <Time>2022-09-21T10:32:12.000Z</Time>
            <Position>
              <LatitudeDegrees>49.39567462541162967681884765625</LatitudeDegrees>
              <LongitudeDegrees>20.43149624951183795928955078125</LongitudeDegrees>
            </Position>
            <AltitudeMeters>462.399993896484375</AltitudeMeters>
            <DistanceMeters>NAN</DistanceMeters>
          </Trackpoint>
          <Trackpoint>
            <Time>2022-09-21T10:32:15.000Z</Time>
            <Position>
              <LatitudeDegrees>49.39563271589577198028564453125</LatitudeDegrees>
              <LongitudeDegrees>20.4316274262964725494384765625</LongitudeDegrees>
            </Position>
            <AltitudeMeters>462.399993896484375</AltitudeMeters>
            <DistanceMeters>NAN</DistanceMeters>
          </Trackpoint>
          <Trackpoint>
            <Time>2022-09-21T10:32:16.000Z</Time>
            <Position>
              <LatitudeDegrees>49.39561410807073116302490234375</LatitudeDegrees>
              <LongitudeDegrees>20.43168987147510051727294921875</LongitudeDegrees>
            </Position>
            <AltitudeMeters>462.20001220703125</AltitudeMeters>
            <DistanceMeters>NAN</DistanceMeters>
          </Trackpoint>
          <Trackpoint>
            <Time>2022-09-21T10:32:22.000Z</Time>
            <Position>
              <LatitudeDegrees>49.39559700898826122283935546875</LatitudeDegrees>
              <LongitudeDegrees>20.43182046152651309967041015625</LongitudeDegrees>
            </Position>
            <AltitudeMeters>462.20001220703125</AltitudeMeters>
            <DistanceMeters>NAN</DistanceMeters>
          </Trackpoint>
          <Trackpoint>
            <Time>2022-09-21T10:32:26.000Z</Time>
            <Position>
              <LatitudeDegrees>49.39562215469777584075927734375</LatitudeDegrees>
              <LongitudeDegrees>20.43193973600864410400390625</LongitudeDegrees>
            </Position>
            <AltitudeMeters>462.20001220703125</AltitudeMeters>
            <DistanceMeters>NAN</DistanceMeters>
          </Trackpoint>
          <Trackpoint>
            <Time>2022-09-21T10:32:30.000Z</Time>
            <Position>
              <LatitudeDegrees>49.39568317495286464691162109375</LatitudeDegrees>
              <LongitudeDegrees>20.4320693202316761016845703125</LongitudeDegrees>
            </Position>
            <AltitudeMeters>462.399993896484375</AltitudeMeters>
            <DistanceMeters>NAN</DistanceMeters>
          </Trackpoint>
          <Trackpoint>
            <Time>2022-09-21T10:32:33.000Z</Time>
            <Position>
              <LatitudeDegrees>49.3957253359258174896240234375</LatitudeDegrees>
              <LongitudeDegrees>20.43215565383434295654296875</LongitudeDegrees>
            </Position>
            <AltitudeMeters>462.399993896484375</AltitudeMeters>
            <DistanceMeters>NAN</DistanceMeters>
          </Trackpoint>
          <Trackpoint>
            <Time>2022-09-21T10:32:39.000Z</Time>
            <Position>
              <LatitudeDegrees>49.39584813080728054046630859375</LatitudeDegrees>
              <LongitudeDegrees>20.432428903877735137939453125</LongitudeDegrees>
            </Position>
            <AltitudeMeters>461.79998779296875</AltitudeMeters>
            <DistanceMeters>NAN</DistanceMeters>
          </Trackpoint>
          <Trackpoint>
            <Time>2022-09-21T10:32:45.000Z</Time>
            <Position>
              <LatitudeDegrees>49.39598022960126399993896484375</LatitudeDegrees>
              <LongitudeDegrees>20.4327050037682056427001953125</LongitudeDegrees>
            </Position>
            <AltitudeMeters>461.600006103515625</AltitudeMeters>
            <DistanceMeters>NAN</DistanceMeters>
          </Trackpoint>
          <Trackpoint>
            <Time>2022-09-21T10:32:49.000Z</Time>
            <Position>
              <LatitudeDegrees>49.3960689939558506011962890625</LatitudeDegrees>
              <LongitudeDegrees>20.4328739829361438751220703125</LongitudeDegrees>
            </Position>
            <AltitudeMeters>461.399993896484375</AltitudeMeters>
            <DistanceMeters>NAN</DistanceMeters>
          </Trackpoint>
          <Trackpoint>
            <Time>2022-09-21T10:32:54.000Z</Time>
            <Position>
              <LatitudeDegrees>49.396177120506763458251953125</LatitudeDegrees>
              <LongitudeDegrees>20.43313642032444477081298828125</LongitudeDegrees>
            </Position>
            <AltitudeMeters>461.399993896484375</AltitudeMeters>
            <DistanceMeters>NAN</DistanceMeters>
          </Trackpoint>
          <Trackpoint>
            <Time>2022-09-21T10:32:56.000Z</Time>
            <Position>
              <LatitudeDegrees>49.3962339498102664947509765625</LatitudeDegrees>
              <LongitudeDegrees>20.43324052356183528900146484375</LongitudeDegrees>
            </Position>
            <AltitudeMeters>461.399993896484375</AltitudeMeters>
            <DistanceMeters>NAN</DistanceMeters>
          </Trackpoint>
          <Trackpoint>
            <Time>2022-09-21T10:33:01.000Z</Time>
            <Position>
              <LatitudeDegrees>49.3963331915438175201416015625</LatitudeDegrees>
              <LongitudeDegrees>20.43347555212676525115966796875</LongitudeDegrees>
            </Position>
            <AltitudeMeters>461.600006103515625</AltitudeMeters>
            <DistanceMeters>NAN</DistanceMeters>
          </Trackpoint>
          <Trackpoint>
            <Time>2022-09-21T10:33:07.000Z</Time>
            <Position>
              <LatitudeDegrees>49.39644492231309413909912109375</LatitudeDegrees>
              <LongitudeDegrees>20.43373757041990756988525390625</LongitudeDegrees>
            </Position>
            <AltitudeMeters>461.399993896484375</AltitudeMeters>
            <DistanceMeters>NAN</DistanceMeters>
          </Trackpoint>
          <Trackpoint>
            <Time>2022-09-21T10:33:13.000Z</Time>
            <Position>
              <LatitudeDegrees>49.396588169038295745849609375</LatitudeDegrees>
              <LongitudeDegrees>20.43396572582423686981201171875</LongitudeDegrees>
            </Position>
            <AltitudeMeters>462</AltitudeMeters>
            <DistanceMeters>NAN</DistanceMeters>
          </Trackpoint>
          <Trackpoint>
            <Time>2022-09-21T10:33:17.000Z</Time>
            <Position>
              <LatitudeDegrees>49.3967137299478054046630859375</LatitudeDegrees>
              <LongitudeDegrees>20.43405138887465000152587890625</LongitudeDegrees>
            </Position>
            <AltitudeMeters>462</AltitudeMeters>
            <DistanceMeters>NAN</DistanceMeters>
          </Trackpoint>
          <Trackpoint>
            <Time>2022-09-21T10:33:19.000Z</Time>
            <Position>
              <LatitudeDegrees>49.39681087620556354522705078125</LatitudeDegrees>
              <LongitudeDegrees>20.4341218806803226470947265625</LongitudeDegrees>
            </Position>
            <AltitudeMeters>462</AltitudeMeters>
            <DistanceMeters>NAN</DistanceMeters>
          </Trackpoint>
          <Trackpoint>
            <Time>2022-09-21T10:33:20.000Z</Time>
            <Position>
              <LatitudeDegrees>49.396861754357814788818359375</LatitudeDegrees>
              <LongitudeDegrees>20.43415700085461139678955078125</LongitudeDegrees>
            </Position>
            <AltitudeMeters>462</AltitudeMeters>
            <DistanceMeters>NAN</DistanceMeters>
          </Trackpoint>
          <Trackpoint>
            <Time>2022-09-21T10:33:22.000Z</Time>
            <Position>
              <LatitudeDegrees>49.39692352898418903350830078125</LatitudeDegrees>
              <LongitudeDegrees>20.43421567417681217193603515625</LongitudeDegrees>
            </Position>
            <AltitudeMeters>462</AltitudeMeters>
            <DistanceMeters>NAN</DistanceMeters>
          </Trackpoint>
          <Trackpoint>
            <Time>2022-09-21T10:33:24.000Z</Time>
            <Position>
              <LatitudeDegrees>49.39698345959186553955078125</LatitudeDegrees>
              <LongitudeDegrees>20.43428272940218448638916015625</LongitudeDegrees>
            </Position>
            <AltitudeMeters>462.20001220703125</AltitudeMeters>
            <DistanceMeters>NAN</DistanceMeters>
          </Trackpoint>
          <Trackpoint>
            <Time>2022-09-21T10:33:32.000Z</Time>
            <Position>
              <LatitudeDegrees>49.3972448073327541351318359375</LatitudeDegrees>
              <LongitudeDegrees>20.43451691977679729461669921875</LongitudeDegrees>
            </Position>
            <AltitudeMeters>462</AltitudeMeters>
            <DistanceMeters>NAN</DistanceMeters>
          </Trackpoint>
          <Trackpoint>
            <Time>2022-09-21T10:33:38.000Z</Time>
            <Position>
              <LatitudeDegrees>49.3974669277667999267578125</LatitudeDegrees>
              <LongitudeDegrees>20.4345969669520854949951171875</LongitudeDegrees>
            </Position>
            <AltitudeMeters>462.20001220703125</AltitudeMeters>
            <DistanceMeters>NAN</DistanceMeters>
          </Trackpoint>
          <Trackpoint>
            <Time>2022-09-21T10:33:42.000Z</Time>
            <Position>
              <LatitudeDegrees>49.39758670516312122344970703125</LatitudeDegrees>
              <LongitudeDegrees>20.43463577516376972198486328125</LongitudeDegrees>
            </Position>
            <AltitudeMeters>462</AltitudeMeters>
            <DistanceMeters>NAN</DistanceMeters>
          </Trackpoint>
          <Trackpoint>
            <Time>2022-09-21T10:33:45.000Z</Time>
            <Position>
              <LatitudeDegrees>49.3976615555584430694580078125</LatitudeDegrees>
              <LongitudeDegrees>20.43466025032103061676025390625</LongitudeDegrees>
            </Position>
            <AltitudeMeters>461.79998779296875</AltitudeMeters>
            <DistanceMeters>NAN</DistanceMeters>
          </Trackpoint>
          <Trackpoint>
            <Time>2022-09-21T10:33:51.000Z</Time>
            <Position>
              <LatitudeDegrees>49.397814609110355377197265625</LatitudeDegrees>
              <LongitudeDegrees>20.4347495175898075103759765625</LongitudeDegrees>
            </Position>
            <AltitudeMeters>461.79998779296875</AltitudeMeters>
            <DistanceMeters>NAN</DistanceMeters>
          </Trackpoint>
          <Trackpoint>
            <Time>2022-09-21T10:33:55.000Z</Time>
            <Position>
              <LatitudeDegrees>49.39794478006660938262939453125</LatitudeDegrees>
              <LongitudeDegrees>20.434814393520355224609375</LongitudeDegrees>
            </Position>
            <AltitudeMeters>461.79998779296875</AltitudeMeters>
            <DistanceMeters>NAN</DistanceMeters>
          </Trackpoint>
          <Trackpoint>
            <Time>2022-09-21T10:33:57.000Z</Time>
            <Position>
              <LatitudeDegrees>49.39802415668964385986328125</LatitudeDegrees>
              <LongitudeDegrees>20.434873066842555999755859375</LongitudeDegrees>
            </Position>
            <AltitudeMeters>461.79998779296875</AltitudeMeters>
            <DistanceMeters>NAN</DistanceMeters>
          </Trackpoint>
          <Trackpoint>
            <Time>2022-09-21T10:33:59.000Z</Time>
            <Position>
              <LatitudeDegrees>49.39809079281985759735107421875</LatitudeDegrees>
              <LongitudeDegrees>20.43490617536008358001708984375</LongitudeDegrees>
            </Position>
            <AltitudeMeters>462</AltitudeMeters>
            <DistanceMeters>NAN</DistanceMeters>
          </Trackpoint>
          <Trackpoint>
            <Time>2022-09-21T10:34:05.000Z</Time>
            <Position>
              <LatitudeDegrees>49.39829581417143344879150390625</LatitudeDegrees>
              <LongitudeDegrees>20.43499770574271678924560546875</LongitudeDegrees>
            </Position>
            <AltitudeMeters>462</AltitudeMeters>
            <DistanceMeters>NAN</DistanceMeters>
          </Trackpoint>
          <Trackpoint>
            <Time>2022-09-21T10:34:08.000Z</Time>
            <Position>
              <LatitudeDegrees>49.3983813934028148651123046875</LatitudeDegrees>
              <LongitudeDegrees>20.43505956418812274932861328125</LongitudeDegrees>
            </Position>
            <AltitudeMeters>462</AltitudeMeters>
            <DistanceMeters>NAN</DistanceMeters>
          </Trackpoint>
          <Trackpoint>
            <Time>2022-09-21T10:34:12.000Z</Time>
            <Position>
              <LatitudeDegrees>49.39850234426558017730712890625</LatitudeDegrees>
              <LongitudeDegrees>20.43518252670764923095703125</LongitudeDegrees>
            </Position>
            <AltitudeMeters>462.399993896484375</AltitudeMeters>
            <DistanceMeters>NAN</DistanceMeters>
          </Trackpoint>
          <Trackpoint>
            <Time>2022-09-21T10:34:15.000Z</Time>
            <Position>
              <LatitudeDegrees>49.398609884083271026611328125</LatitudeDegrees>
              <LongitudeDegrees>20.4352708719670772552490234375</LongitudeDegrees>
            </Position>
            <AltitudeMeters>462.399993896484375</AltitudeMeters>
            <DistanceMeters>NAN</DistanceMeters>
          </Trackpoint>
          <Trackpoint>
            <Time>2022-09-21T10:34:18.000Z</Time>
            <Position>
              <LatitudeDegrees>49.39870384521782398223876953125</LatitudeDegrees>
              <LongitudeDegrees>20.4353365860879421234130859375</LongitudeDegrees>
            </Position>
            <AltitudeMeters>462.600006103515625</AltitudeMeters>
            <DistanceMeters>NAN</DistanceMeters>
          </Trackpoint>
          <Trackpoint>
            <Time>2022-09-21T10:34:23.000Z</Time>
            <Position>
              <LatitudeDegrees>49.3988393805921077728271484375</LatitudeDegrees>
              <LongitudeDegrees>20.43545636348426342010498046875</LongitudeDegrees>
            </Position>
            <AltitudeMeters>462.600006103515625</AltitudeMeters>
            <DistanceMeters>NAN</DistanceMeters>
          </Trackpoint>
          <Trackpoint>
            <Time>2022-09-21T10:34:30.000Z</Time>
            <Position>
              <LatitudeDegrees>49.39901791512966156005859375</LatitudeDegrees>
              <LongitudeDegrees>20.43556071817874908447265625</LongitudeDegrees>
            </Position>
            <AltitudeMeters>462.79998779296875</AltitudeMeters>
            <DistanceMeters>NAN</DistanceMeters>
          </Trackpoint>
          <Trackpoint>
            <Time>2022-09-21T10:34:34.000Z</Time>
            <Position>
              <LatitudeDegrees>49.39913190901279449462890625</LatitudeDegrees>
              <LongitudeDegrees>20.435617379844188690185546875</LongitudeDegrees>
            </Position>
            <AltitudeMeters>462.79998779296875</AltitudeMeters>
            <DistanceMeters>NAN</DistanceMeters>
          </Trackpoint>
          <Trackpoint>
            <Time>2022-09-21T10:34:37.000Z</Time>
            <Position>
              <LatitudeDegrees>49.39921128563582897186279296875</LatitudeDegrees>
              <LongitudeDegrees>20.43563858605921268463134765625</LongitudeDegrees>
            </Position>
            <AltitudeMeters>462.79998779296875</AltitudeMeters>
            <DistanceMeters>NAN</DistanceMeters>
          </Trackpoint>
          <Trackpoint>
            <Time>2022-09-21T10:34:38.000Z</Time>
            <Position>
              <LatitudeDegrees>49.39924464561045169830322265625</LatitudeDegrees>
              <LongitudeDegrees>20.4356453754007816314697265625</LongitudeDegrees>
            </Position>
            <AltitudeMeters>463</AltitudeMeters>
            <DistanceMeters>NAN</DistanceMeters>
          </Trackpoint>
          <Trackpoint>
            <Time>2022-09-21T10:34:42.000Z</Time>
            <Position>
              <LatitudeDegrees>49.39934003166854381561279296875</LatitudeDegrees>
              <LongitudeDegrees>20.4356768913567066192626953125</LongitudeDegrees>
            </Position>
            <AltitudeMeters>463</AltitudeMeters>
            <DistanceMeters>NAN</DistanceMeters>
          </Trackpoint>
          <Trackpoint>
            <Time>2022-09-21T10:34:43.000Z</Time>
            <Position>
              <LatitudeDegrees>49.3993630819022655487060546875</LatitudeDegrees>
              <LongitudeDegrees>20.43568435125052928924560546875</LongitudeDegrees>
            </Position>
            <AltitudeMeters>463</AltitudeMeters>
            <DistanceMeters>NAN</DistanceMeters>
          </Trackpoint>
          <Trackpoint>
            <Time>2022-09-21T10:34:49.000Z</Time>
            <Position>
              <LatitudeDegrees>49.3995474837720394134521484375</LatitudeDegrees>
              <LongitudeDegrees>20.43568301014602184295654296875</LongitudeDegrees>
            </Position>
            <AltitudeMeters>463.399993896484375</AltitudeMeters>
            <DistanceMeters>NAN</DistanceMeters>
          </Trackpoint>
          <Trackpoint>
            <Time>2022-09-21T10:34:53.000Z</Time>
            <Position>
              <LatitudeDegrees>49.39965552650392055511474609375</LatitudeDegrees>
              <LongitudeDegrees>20.4356849379837512969970703125</LongitudeDegrees>
            </Position>
            <AltitudeMeters>463.399993896484375</AltitudeMeters>
            <DistanceMeters>NAN</DistanceMeters>
          </Trackpoint>
          <Trackpoint>
            <Time>2022-09-21T10:34:54.000Z</Time>
            <Position>
              <LatitudeDegrees>49.3996799178421497344970703125</LatitudeDegrees>
              <LongitudeDegrees>20.43567337095737457275390625</LongitudeDegrees>
            </Position>
            <AltitudeMeters>463.399993896484375</AltitudeMeters>
            <DistanceMeters>NAN</DistanceMeters>
          </Trackpoint>
          <Trackpoint>
            <Time>2022-09-21T10:34:59.000Z</Time>
            <Position>
              <LatitudeDegrees>49.39982953481376171112060546875</LatitudeDegrees>
              <LongitudeDegrees>20.4356480576097965240478515625</LongitudeDegrees>
            </Position>
            <AltitudeMeters>464</AltitudeMeters>
            <DistanceMeters>NAN</DistanceMeters>
          </Trackpoint>
          <Trackpoint>
            <Time>2022-09-21T10:35:04.000Z</Time>
            <Position>
              <LatitudeDegrees>49.39994403161108493804931640625</LatitudeDegrees>
              <LongitudeDegrees>20.43565434403717517852783203125</LongitudeDegrees>
            </Position>
            <AltitudeMeters>464.399993896484375</AltitudeMeters>
            <DistanceMeters>NAN</DistanceMeters>
          </Trackpoint>
          <Trackpoint>
            <Time>2022-09-21T10:35:05.000Z</Time>
            <Position>
              <LatitudeDegrees>49.39995727501809597015380859375</LatitudeDegrees>
              <LongitudeDegrees>20.43564914725720882415771484375</LongitudeDegrees>
            </Position>
            <AltitudeMeters>464.399993896484375</AltitudeMeters>
            <DistanceMeters>NAN</DistanceMeters>
          </Trackpoint>
          <Trackpoint>
            <Time>2022-09-21T10:35:08.000Z</Time>
            <Position>
              <LatitudeDegrees>49.39995962195098400115966796875</LatitudeDegrees>
              <LongitudeDegrees>20.4356470517814159393310546875</LongitudeDegrees>
            </Position>
            <AltitudeMeters>464.399993896484375</AltitudeMeters>
            <DistanceMeters>NAN</DistanceMeters>
          </Trackpoint>
          <Trackpoint>
            <Time>2022-09-21T10:35:19.000Z</Time>
            <Position>
              <LatitudeDegrees>49.39995962195098400115966796875</LatitudeDegrees>
              <LongitudeDegrees>20.4356470517814159393310546875</LongitudeDegrees>
            </Position>
            <AltitudeMeters>464.600006103515625</AltitudeMeters>
            <DistanceMeters>NAN</DistanceMeters>
          </Trackpoint>
          <Trackpoint>
            <Time>2022-09-21T10:35:36.000Z</Time>
            <Position>
              <LatitudeDegrees>49.39995962195098400115966796875</LatitudeDegrees>
              <LongitudeDegrees>20.4356470517814159393310546875</LongitudeDegrees>
            </Position>
            <AltitudeMeters>464.20001220703125</AltitudeMeters>
            <DistanceMeters>NAN</DistanceMeters>
          </Trackpoint>
          <Trackpoint>
            <Time>2022-09-21T10:35:40.000Z</Time>
            <Position>
              <LatitudeDegrees>49.39995962195098400115966796875</LatitudeDegrees>
              <LongitudeDegrees>20.4356470517814159393310546875</LongitudeDegrees>
            </Position>
            <AltitudeMeters>464.20001220703125</AltitudeMeters>
            <DistanceMeters>NAN</DistanceMeters>
          </Trackpoint>
          <Trackpoint>
            <Time>2022-09-21T10:35:55.000Z</Time>
            <Position>
              <LatitudeDegrees>49.3999618850648403167724609375</LatitudeDegrees>
              <LongitudeDegrees>20.4356463812291622161865234375</LongitudeDegrees>
            </Position>
            <AltitudeMeters>464</AltitudeMeters>
            <DistanceMeters>NAN</DistanceMeters>
          </Trackpoint>
          <Trackpoint>
            <Time>2022-09-21T10:35:58.000Z</Time>
            <Position>
              <LatitudeDegrees>49.4000272639095783233642578125</LatitudeDegrees>
              <LongitudeDegrees>20.43563473038375377655029296875</LongitudeDegrees>
            </Position>
            <AltitudeMeters>464</AltitudeMeters>
            <DistanceMeters>NAN</DistanceMeters>
          </Trackpoint>
          <Trackpoint>
            <Time>2022-09-21T10:36:02.000Z</Time>
            <Position>
              <LatitudeDegrees>49.40014922060072422027587890625</LatitudeDegrees>
              <LongitudeDegrees>20.43561796657741069793701171875</LongitudeDegrees>
            </Position>
            <AltitudeMeters>463.79998779296875</AltitudeMeters>
            <DistanceMeters>NAN</DistanceMeters>
          </Trackpoint>
          <Trackpoint>
            <Time>2022-09-21T10:36:03.000Z</Time>
            <Position>
              <LatitudeDegrees>49.400187693536281585693359375</LatitudeDegrees>
              <LongitudeDegrees>20.43561310507357120513916015625</LongitudeDegrees>
            </Position>
            <AltitudeMeters>463.600006103515625</AltitudeMeters>
            <DistanceMeters>NAN</DistanceMeters>
          </Trackpoint>
          <Trackpoint>
            <Time>2022-09-21T10:36:07.000Z</Time>
            <Position>
              <LatitudeDegrees>49.4003514759242534637451171875</LatitudeDegrees>
              <LongitudeDegrees>20.43557345867156982421875</LongitudeDegrees>
            </Position>
            <AltitudeMeters>463</AltitudeMeters>
            <DistanceMeters>NAN</DistanceMeters>
          </Trackpoint>
          <Trackpoint>
            <Time>2022-09-21T10:36:09.000Z</Time>
            <Position>
              <LatitudeDegrees>49.40042314119637012481689453125</LatitudeDegrees>
              <LongitudeDegrees>20.43555594049394130706787109375</LongitudeDegrees>
            </Position>
            <AltitudeMeters>462.20001220703125</AltitudeMeters>
            <DistanceMeters>NAN</DistanceMeters>
          </Trackpoint>
          <Trackpoint>
            <Time>2022-09-21T10:36:13.000Z</Time>
            <Position>
              <LatitudeDegrees>49.4005965627729892730712890625</LatitudeDegrees>
              <LongitudeDegrees>20.43549232184886932373046875</LongitudeDegrees>
            </Position>
            <AltitudeMeters>461.79998779296875</AltitudeMeters>
            <DistanceMeters>NAN</DistanceMeters>
          </Trackpoint>
          <Trackpoint>
            <Time>2022-09-21T10:36:15.000Z</Time>
            <Position>
              <LatitudeDegrees>49.40066906623542308807373046875</LatitudeDegrees>
              <LongitudeDegrees>20.43544982559978961944580078125</LongitudeDegrees>
            </Position>
            <AltitudeMeters>461.79998779296875</AltitudeMeters>
            <DistanceMeters>NAN</DistanceMeters>
          </Trackpoint>
          <Trackpoint>
            <Time>2022-09-21T10:36:18.000Z</Time>
            <Position>
              <LatitudeDegrees>49.4007940404117107391357421875</LatitudeDegrees>
              <LongitudeDegrees>20.43538209982216358184814453125</LongitudeDegrees>
            </Position>
            <AltitudeMeters>461.600006103515625</AltitudeMeters>
            <DistanceMeters>NAN</DistanceMeters>
          </Trackpoint>
          <Trackpoint>
            <Time>2022-09-21T10:36:20.000Z</Time>
            <Position>
              <LatitudeDegrees>49.4008711539208889007568359375</LatitudeDegrees>
              <LongitudeDegrees>20.43533666990697383880615234375</LongitudeDegrees>
            </Position>
            <AltitudeMeters>461.399993896484375</AltitudeMeters>
            <DistanceMeters>NAN</DistanceMeters>
          </Trackpoint>
          <Trackpoint>
            <Time>2022-09-21T10:36:21.000Z</Time>
            <Position>
              <LatitudeDegrees>49.400910548865795135498046875</LatitudeDegrees>
              <LongitudeDegrees>20.43531990610063076019287109375</LongitudeDegrees>
            </Position>
            <AltitudeMeters>461.399993896484375</AltitudeMeters>
            <DistanceMeters>NAN</DistanceMeters>
          </Trackpoint>
          <Trackpoint>
            <Time>2022-09-21T10:36:22.000Z</Time>
            <Position>
              <LatitudeDegrees>49.4009475968778133392333984375</LatitudeDegrees>
              <LongitudeDegrees>20.43530113063752651214599609375</LongitudeDegrees>
            </Position>
            <AltitudeMeters>461.20001220703125</AltitudeMeters>
            <DistanceMeters>NAN</DistanceMeters>
          </Trackpoint>
          <Trackpoint>
            <Time>2022-09-21T10:36:25.000Z</Time>
            <Position>
              <LatitudeDegrees>49.40106838010251522064208984375</LatitudeDegrees>
              <LongitudeDegrees>20.43522946536540985107421875</LongitudeDegrees>
            </Position>
            <AltitudeMeters>460.79998779296875</AltitudeMeters>
            <DistanceMeters>NAN</DistanceMeters>
          </Trackpoint>
          <Trackpoint>
            <Time>2022-09-21T10:36:27.000Z</Time>
            <Position>
              <LatitudeDegrees>49.40115152858197689056396484375</LatitudeDegrees>
              <LongitudeDegrees>20.435192584991455078125</LongitudeDegrees>
            </Position>
            <AltitudeMeters>460.600006103515625</AltitudeMeters>
            <DistanceMeters>NAN</DistanceMeters>
          </Trackpoint>
          <Trackpoint>
            <Time>2022-09-21T10:36:28.000Z</Time>
            <Position>
              <LatitudeDegrees>49.4011816196143627166748046875</LatitudeDegrees>
              <LongitudeDegrees>20.4351749829947948455810546875</LongitudeDegrees>
            </Position>
            <AltitudeMeters>460.399993896484375</AltitudeMeters>
            <DistanceMeters>NAN</DistanceMeters>
          </Trackpoint>
          <Trackpoint>
            <Time>2022-09-21T10:36:32.000Z</Time>
            <Position>
              <LatitudeDegrees>49.40132603980600833892822265625</LatitudeDegrees>
              <LongitudeDegrees>20.43510767631232738494873046875</LongitudeDegrees>
            </Position>
            <AltitudeMeters>460.20001220703125</AltitudeMeters>
            <DistanceMeters>NAN</DistanceMeters>
          </Trackpoint>
          <Trackpoint>
            <Time>2022-09-21T10:36:38.000Z</Time>
            <Position>
              <LatitudeDegrees>49.40154547803103923797607421875</LatitudeDegrees>
              <LongitudeDegrees>20.43506962247192859649658203125</LongitudeDegrees>
            </Position>
            <AltitudeMeters>460</AltitudeMeters>
            <DistanceMeters>NAN</DistanceMeters>
          </Trackpoint>
          <Trackpoint>
            <Time>2022-09-21T10:36:41.000Z</Time>
            <Position>
              <LatitudeDegrees>49.40166768617928028106689453125</LatitudeDegrees>
              <LongitudeDegrees>20.4350613243877887725830078125</LongitudeDegrees>
            </Position>
            <AltitudeMeters>460</AltitudeMeters>
            <DistanceMeters>NAN</DistanceMeters>
          </Trackpoint>
          <Trackpoint>
            <Time>2022-09-21T10:36:45.000Z</Time>
            <Position>
              <LatitudeDegrees>49.40182677470147609710693359375</LatitudeDegrees>
              <LongitudeDegrees>20.4350586421787738800048828125</LongitudeDegrees>
            </Position>
            <AltitudeMeters>460.20001220703125</AltitudeMeters>
            <DistanceMeters>NAN</DistanceMeters>
          </Trackpoint>
          <Trackpoint>
            <Time>2022-09-21T10:36:51.000Z</Time>
            <Position>
              <LatitudeDegrees>49.40207772888243198394775390625</LatitudeDegrees>
              <LongitudeDegrees>20.43508236296474933624267578125</LongitudeDegrees>
            </Position>
            <AltitudeMeters>460.20001220703125</AltitudeMeters>
            <DistanceMeters>NAN</DistanceMeters>
          </Trackpoint>
          <Trackpoint>
            <Time>2022-09-21T10:36:52.000Z</Time>
            <Position>
              <LatitudeDegrees>49.402124248445034027099609375</LatitudeDegrees>
              <LongitudeDegrees>20.43508420698344707489013671875</LongitudeDegrees>
            </Position>
            <AltitudeMeters>460.20001220703125</AltitudeMeters>
            <DistanceMeters>NAN</DistanceMeters>
          </Trackpoint>
          <Trackpoint>
            <Time>2022-09-21T10:36:56.000Z</Time>
            <Position>
              <LatitudeDegrees>49.40224486403167247772216796875</LatitudeDegrees>
              <LongitudeDegrees>20.43512494303286075592041015625</LongitudeDegrees>
            </Position>
            <AltitudeMeters>460.399993896484375</AltitudeMeters>
            <DistanceMeters>NAN</DistanceMeters>
          </Trackpoint>
          <Trackpoint>
            <Time>2022-09-21T10:37:02.000Z</Time>
            <Position>
              <LatitudeDegrees>49.40241619013249874114990234375</LatitudeDegrees>
              <LongitudeDegrees>20.435210354626178741455078125</LongitudeDegrees>
            </Position>
            <AltitudeMeters>460.79998779296875</AltitudeMeters>
            <DistanceMeters>NAN</DistanceMeters>
          </Trackpoint>
          <Trackpoint>
            <Time>2022-09-21T10:37:05.000Z</Time>
            <Position>
              <LatitudeDegrees>49.40247134305536746978759765625</LatitudeDegrees>
              <LongitudeDegrees>20.43525301851332187652587890625</LongitudeDegrees>
            </Position>
            <AltitudeMeters>461</AltitudeMeters>
            <DistanceMeters>NAN</DistanceMeters>
          </Trackpoint>
          <Trackpoint>
            <Time>2022-09-21T10:37:07.000Z</Time>
            <Position>
              <LatitudeDegrees>49.40252096392214298248291015625</LatitudeDegrees>
              <LongitudeDegrees>20.43528218753635883331298828125</LongitudeDegrees>
            </Position>
            <AltitudeMeters>461</AltitudeMeters>
            <DistanceMeters>NAN</DistanceMeters>
          </Trackpoint>
          <Trackpoint>
            <Time>2022-09-21T10:37:15.000Z</Time>
            <Position>
              <LatitudeDegrees>49.4026984088122844696044921875</LatitudeDegrees>
              <LongitudeDegrees>20.4354663379490375518798828125</LongitudeDegrees>
            </Position>
            <AltitudeMeters>461</AltitudeMeters>
            <DistanceMeters>NAN</DistanceMeters>
          </Trackpoint>
          <Trackpoint>
            <Time>2022-09-21T10:37:22.000Z</Time>
            <Position>
              <LatitudeDegrees>49.40290653146803379058837890625</LatitudeDegrees>
              <LongitudeDegrees>20.43561344034969806671142578125</LongitudeDegrees>
            </Position>
            <AltitudeMeters>461.20001220703125</AltitudeMeters>
            <DistanceMeters>NAN</DistanceMeters>
          </Trackpoint>
          <Trackpoint>
            <Time>2022-09-21T10:37:28.000Z</Time>
            <Position>
              <LatitudeDegrees>49.40303762443363666534423828125</LatitudeDegrees>
              <LongitudeDegrees>20.4356956668198108673095703125</LongitudeDegrees>
            </Position>
            <AltitudeMeters>461.600006103515625</AltitudeMeters>
            <DistanceMeters>NAN</DistanceMeters>
          </Trackpoint>
          <Trackpoint>
            <Time>2022-09-21T10:37:33.000Z</Time>
            <Position>
              <LatitudeDegrees>49.40315027721226215362548828125</LatitudeDegrees>
              <LongitudeDegrees>20.435830615460872650146484375</LongitudeDegrees>
            </Position>
            <AltitudeMeters>461.399993896484375</AltitudeMeters>
            <DistanceMeters>NAN</DistanceMeters>
          </Trackpoint>
          <Trackpoint>
            <Time>2022-09-21T10:37:35.000Z</Time>
            <Position>
              <LatitudeDegrees>49.4032043404877185821533203125</LatitudeDegrees>
              <LongitudeDegrees>20.4358441941440105438232421875</LongitudeDegrees>
            </Position>
            <AltitudeMeters>461.600006103515625</AltitudeMeters>
            <DistanceMeters>NAN</DistanceMeters>
          </Trackpoint>
          <Trackpoint>
            <Time>2022-09-21T10:37:36.000Z</Time>
            <Position>
              <LatitudeDegrees>49.403233341872692108154296875</LatitudeDegrees>
              <LongitudeDegrees>20.4358569346368312835693359375</LongitudeDegrees>
            </Position>
            <AltitudeMeters>461.79998779296875</AltitudeMeters>
            <DistanceMeters>NAN</DistanceMeters>
          </Trackpoint>
          <Trackpoint>
            <Time>2022-09-21T10:37:37.000Z</Time>
            <Position>
              <LatitudeDegrees>49.40326712094247341156005859375</LatitudeDegrees>
              <LongitudeDegrees>20.43587998487055301666259765625</LongitudeDegrees>
            </Position>
            <AltitudeMeters>462</AltitudeMeters>
            <DistanceMeters>NAN</DistanceMeters>
          </Trackpoint>
          <Trackpoint>
            <Time>2022-09-21T10:37:42.000Z</Time>
            <Position>
              <LatitudeDegrees>49.40342805348336696624755859375</LatitudeDegrees>
              <LongitudeDegrees>20.43597252108156681060791015625</LongitudeDegrees>
            </Position>
            <AltitudeMeters>462.79998779296875</AltitudeMeters>
            <DistanceMeters>NAN</DistanceMeters>
          </Trackpoint>
          <Trackpoint>
            <Time>2022-09-21T10:37:47.000Z</Time>
            <Position>
              <LatitudeDegrees>49.4035805203020572662353515625</LatitudeDegrees>
              <LongitudeDegrees>20.4360872693359851837158203125</LongitudeDegrees>
            </Position>
            <AltitudeMeters>464</AltitudeMeters>
            <DistanceMeters>NAN</DistanceMeters>
          </Trackpoint>
          <Trackpoint>
            <Time>2022-09-21T10:37:48.000Z</Time>
            <Position>
              <LatitudeDegrees>49.40360256470739841461181640625</LatitudeDegrees>
              <LongitudeDegrees>20.43609171174466609954833984375</LongitudeDegrees>
            </Position>
            <AltitudeMeters>464</AltitudeMeters>
            <DistanceMeters>NAN</DistanceMeters>
          </Trackpoint>
          <Trackpoint>
            <Time>2022-09-21T10:37:54.000Z</Time>
            <Position>
              <LatitudeDegrees>49.4037142954766750335693359375</LatitudeDegrees>
              <LongitudeDegrees>20.4361808113753795623779296875</LongitudeDegrees>
            </Position>
            <AltitudeMeters>464.399993896484375</AltitudeMeters>
            <DistanceMeters>NAN</DistanceMeters>
          </Trackpoint>
          <Trackpoint>
            <Time>2022-09-21T10:37:59.000Z</Time>
            <Position>
              <LatitudeDegrees>49.40380431711673736572265625</LatitudeDegrees>
              <LongitudeDegrees>20.43625180609524250030517578125</LongitudeDegrees>
            </Position>
            <AltitudeMeters>465</AltitudeMeters>
            <DistanceMeters>NAN</DistanceMeters>
          </Trackpoint>
          <Trackpoint>
            <Time>2022-09-21T10:38:01.000Z</Time>
            <Position>
              <LatitudeDegrees>49.403845556080341339111328125</LatitudeDegrees>
              <LongitudeDegrees>20.436289273202419281005859375</LongitudeDegrees>
            </Position>
            <AltitudeMeters>465.20001220703125</AltitudeMeters>
            <DistanceMeters>NAN</DistanceMeters>
          </Trackpoint>
          <Trackpoint>
            <Time>2022-09-21T10:38:03.000Z</Time>
            <Position>
              <LatitudeDegrees>49.40387464128434658050537109375</LatitudeDegrees>
              <LongitudeDegrees>20.43632321991026401519775390625</LongitudeDegrees>
            </Position>
            <AltitudeMeters>465.20001220703125</AltitudeMeters>
            <DistanceMeters>NAN</DistanceMeters>
          </Trackpoint>
          <Trackpoint>
            <Time>2022-09-21T10:38:06.000Z</Time>
            <Position>
              <LatitudeDegrees>49.403912611305713653564453125</LatitudeDegrees>
              <LongitudeDegrees>20.436385832726955413818359375</LongitudeDegrees>
            </Position>
            <AltitudeMeters>465.20001220703125</AltitudeMeters>
            <DistanceMeters>NAN</DistanceMeters>
          </Trackpoint>
          <Trackpoint>
            <Time>2022-09-21T10:38:12.000Z</Time>
            <Position>
              <LatitudeDegrees>49.4040773995220661163330078125</LatitudeDegrees>
              <LongitudeDegrees>20.43643511831760406494140625</LongitudeDegrees>
            </Position>
            <AltitudeMeters>464.79998779296875</AltitudeMeters>
            <DistanceMeters>NAN</DistanceMeters>
          </Trackpoint>
          <Trackpoint>
            <Time>2022-09-21T10:38:17.000Z</Time>
            <Position>
              <LatitudeDegrees>49.40425450913608074188232421875</LatitudeDegrees>
              <LongitudeDegrees>20.43654014356434345245361328125</LongitudeDegrees>
            </Position>
            <AltitudeMeters>464.20001220703125</AltitudeMeters>
            <DistanceMeters>NAN</DistanceMeters>
          </Trackpoint>
          <Trackpoint>
            <Time>2022-09-21T10:38:19.000Z</Time>
            <Position>
              <LatitudeDegrees>49.40434151329100131988525390625</LatitudeDegrees>
              <LongitudeDegrees>20.436606109142303466796875</LongitudeDegrees>
            </Position>
            <AltitudeMeters>464</AltitudeMeters>
            <DistanceMeters>NAN</DistanceMeters>
          </Trackpoint>
          <Trackpoint>
            <Time>2022-09-21T10:38:20.000Z</Time>
            <Position>
              <LatitudeDegrees>49.4043858535587787628173828125</LatitudeDegrees>
              <LongitudeDegrees>20.43664542026817798614501953125</LongitudeDegrees>
            </Position>
            <AltitudeMeters>463.79998779296875</AltitudeMeters>
            <DistanceMeters>NAN</DistanceMeters>
          </Trackpoint>
          <Trackpoint>
            <Time>2022-09-21T10:38:21.000Z</Time>
            <Position>
              <LatitudeDegrees>49.40442935563623905181884765625</LatitudeDegrees>
              <LongitudeDegrees>20.4366864077746868133544921875</LongitudeDegrees>
            </Position>
            <AltitudeMeters>463.399993896484375</AltitudeMeters>
            <DistanceMeters>NAN</DistanceMeters>
          </Trackpoint>
          <Trackpoint>
            <Time>2022-09-21T10:38:23.000Z</Time>
            <Position>
              <LatitudeDegrees>49.40451535396277904510498046875</LatitudeDegrees>
              <LongitudeDegrees>20.436753965914249420166015625</LongitudeDegrees>
            </Position>
            <AltitudeMeters>463</AltitudeMeters>
            <DistanceMeters>NAN</DistanceMeters>
          </Trackpoint>
          <Trackpoint>
            <Time>2022-09-21T10:38:26.000Z</Time>
            <Position>
              <LatitudeDegrees>49.40463353879749774932861328125</LatitudeDegrees>
              <LongitudeDegrees>20.4368220269680023193359375</LongitudeDegrees>
            </Position>
            <AltitudeMeters>462.79998779296875</AltitudeMeters>
            <DistanceMeters>NAN</DistanceMeters>
          </Trackpoint>
          <Trackpoint>
            <Time>2022-09-21T10:38:31.000Z</Time>
            <Position>
              <LatitudeDegrees>49.40484358929097652435302734375</LatitudeDegrees>
              <LongitudeDegrees>20.4369288124144077301025390625</LongitudeDegrees>
            </Position>
            <AltitudeMeters>462</AltitudeMeters>
            <DistanceMeters>NAN</DistanceMeters>
          </Trackpoint>
          <Trackpoint>
            <Time>2022-09-21T10:38:33.000Z</Time>
            <Position>
              <LatitudeDegrees>49.4049373827874660491943359375</LatitudeDegrees>
              <LongitudeDegrees>20.43697600252926349639892578125</LongitudeDegrees>
            </Position>
            <AltitudeMeters>461.79998779296875</AltitudeMeters>
            <DistanceMeters>NAN</DistanceMeters>
          </Trackpoint>
          <Trackpoint>
            <Time>2022-09-21T10:38:35.000Z</Time>
            <Position>
              <LatitudeDegrees>49.40500217489898204803466796875</LatitudeDegrees>
              <LongitudeDegrees>20.43707272969186305999755859375</LongitudeDegrees>
            </Position>
            <AltitudeMeters>461.600006103515625</AltitudeMeters>
            <DistanceMeters>NAN</DistanceMeters>
          </Trackpoint>
          <Trackpoint>
            <Time>2022-09-21T10:38:37.000Z</Time>
            <Position>
              <LatitudeDegrees>49.4050895981490612030029296875</LatitudeDegrees>
              <LongitudeDegrees>20.4371293075382709503173828125</LongitudeDegrees>
            </Position>
            <AltitudeMeters>461.399993896484375</AltitudeMeters>
            <DistanceMeters>NAN</DistanceMeters>
          </Trackpoint>
          <Trackpoint>
            <Time>2022-09-21T10:38:38.000Z</Time>
            <Position>
              <LatitudeDegrees>49.40511466003954410552978515625</LatitudeDegrees>
              <LongitudeDegrees>20.43714112602174282073974609375</LongitudeDegrees>
            </Position>
            <AltitudeMeters>461.399993896484375</AltitudeMeters>
            <DistanceMeters>NAN</DistanceMeters>
          </Trackpoint>
          <Trackpoint>
            <Time>2022-09-21T10:38:42.000Z</Time>
            <Position>
              <LatitudeDegrees>49.40524608828127384185791015625</LatitudeDegrees>
              <LongitudeDegrees>20.43725193478167057037353515625</LongitudeDegrees>
            </Position>
            <AltitudeMeters>461.20001220703125</AltitudeMeters>
            <DistanceMeters>NAN</DistanceMeters>
          </Trackpoint>
          <Trackpoint>
            <Time>2022-09-21T10:38:43.000Z</Time>
            <Position>
              <LatitudeDegrees>49.4052800349891185760498046875</LatitudeDegrees>
              <LongitudeDegrees>20.43726886622607707977294921875</LongitudeDegrees>
            </Position>
            <AltitudeMeters>461</AltitudeMeters>
            <DistanceMeters>NAN</DistanceMeters>
          </Trackpoint>
          <Trackpoint>
            <Time>2022-09-21T10:38:50.000Z</Time>
            <Position>
              <LatitudeDegrees>49.40553777851164340972900390625</LatitudeDegrees>
              <LongitudeDegrees>20.4373743943870067596435546875</LongitudeDegrees>
            </Position>
            <AltitudeMeters>460.600006103515625</AltitudeMeters>
            <DistanceMeters>NAN</DistanceMeters>
          </Trackpoint>
          <Trackpoint>
            <Time>2022-09-21T10:38:53.000Z</Time>
            <Position>
              <LatitudeDegrees>49.4056530296802520751953125</LatitudeDegrees>
              <LongitudeDegrees>20.43742124922573566436767578125</LongitudeDegrees>
            </Position>
            <AltitudeMeters>460.399993896484375</AltitudeMeters>
            <DistanceMeters>NAN</DistanceMeters>
          </Trackpoint>
          <Trackpoint>
            <Time>2022-09-21T10:38:56.000Z</Time>
            <Position>
              <LatitudeDegrees>49.40576023422181606292724609375</LatitudeDegrees>
              <LongitudeDegrees>20.43744488619267940521240234375</LongitudeDegrees>
            </Position>
            <AltitudeMeters>460.20001220703125</AltitudeMeters>
            <DistanceMeters>NAN</DistanceMeters>
          </Trackpoint>
          <Trackpoint>
            <Time>2022-09-21T10:39:03.000Z</Time>
            <Position>
              <LatitudeDegrees>49.40606139600276947021484375</LatitudeDegrees>
              <LongitudeDegrees>20.43749551288783550262451171875</LongitudeDegrees>
            </Position>
            <AltitudeMeters>459.600006103515625</AltitudeMeters>
            <DistanceMeters>NAN</DistanceMeters>
          </Trackpoint>
          <Trackpoint>
            <Time>2022-09-21T10:39:06.000Z</Time>
            <Position>
              <LatitudeDegrees>49.40617798827588558197021484375</LatitudeDegrees>
              <LongitudeDegrees>20.43743600137531757354736328125</LongitudeDegrees>
            </Position>
            <AltitudeMeters>459.399993896484375</AltitudeMeters>
            <DistanceMeters>NAN</DistanceMeters>
          </Trackpoint>
          <Trackpoint>
            <Time>2022-09-21T10:39:09.000Z</Time>
            <Position>
              <LatitudeDegrees>49.406303800642490386962890625</LatitudeDegrees>
              <LongitudeDegrees>20.43744421564042568206787109375</LongitudeDegrees>
            </Position>
            <AltitudeMeters>459.399993896484375</AltitudeMeters>
            <DistanceMeters>NAN</DistanceMeters>
          </Trackpoint>
          <Trackpoint>
            <Time>2022-09-21T10:39:13.000Z</Time>
            <Position>
              <LatitudeDegrees>49.40646850503981113433837890625</LatitudeDegrees>
              <LongitudeDegrees>20.4374216683208942413330078125</LongitudeDegrees>
            </Position>
            <AltitudeMeters>459.600006103515625</AltitudeMeters>
            <DistanceMeters>NAN</DistanceMeters>
          </Trackpoint>
          <Trackpoint>
            <Time>2022-09-21T10:39:19.000Z</Time>
            <Position>
              <LatitudeDegrees>49.4066848419606685638427734375</LatitudeDegrees>
              <LongitudeDegrees>20.43742074631154537200927734375</LongitudeDegrees>
            </Position>
            <AltitudeMeters>459.399993896484375</AltitudeMeters>
            <DistanceMeters>NAN</DistanceMeters>
          </Trackpoint>
          <Trackpoint>
            <Time>2022-09-21T10:39:26.000Z</Time>
            <Position>
              <LatitudeDegrees>49.4068987481296062469482421875</LatitudeDegrees>
              <LongitudeDegrees>20.43732971884310245513916015625</LongitudeDegrees>
            </Position>
            <AltitudeMeters>459.20001220703125</AltitudeMeters>
            <DistanceMeters>NAN</DistanceMeters>
          </Trackpoint>
          <Trackpoint>
            <Time>2022-09-21T10:39:31.000Z</Time>
            <Position>
              <LatitudeDegrees>49.40706378780305385589599609375</LatitudeDegrees>
              <LongitudeDegrees>20.43721907772123813629150390625</LongitudeDegrees>
            </Position>
            <AltitudeMeters>459</AltitudeMeters>
            <DistanceMeters>NAN</DistanceMeters>
          </Trackpoint>
          <Trackpoint>
            <Time>2022-09-21T10:39:38.000Z</Time>
            <Position>
              <LatitudeDegrees>49.40729252994060516357421875</LatitudeDegrees>
              <LongitudeDegrees>20.436983294785022735595703125</LongitudeDegrees>
            </Position>
            <AltitudeMeters>458.600006103515625</AltitudeMeters>
            <DistanceMeters>NAN</DistanceMeters>
          </Trackpoint>
          <Trackpoint>
            <Time>2022-09-21T10:39:40.000Z</Time>
            <Position>
              <LatitudeDegrees>49.4073496945202350616455078125</LatitudeDegrees>
              <LongitudeDegrees>20.43690643273293972015380859375</LongitudeDegrees>
            </Position>
            <AltitudeMeters>458.399993896484375</AltitudeMeters>
            <DistanceMeters>NAN</DistanceMeters>
          </Trackpoint>
          <Trackpoint>
            <Time>2022-09-21T10:39:44.000Z</Time>
            <Position>
              <LatitudeDegrees>49.40746159292757511138916015625</LatitudeDegrees>
              <LongitudeDegrees>20.4367464222013950347900390625</LongitudeDegrees>
            </Position>
            <AltitudeMeters>458</AltitudeMeters>
            <DistanceMeters>NAN</DistanceMeters>
          </Trackpoint>
          <Trackpoint>
            <Time>2022-09-21T10:39:52.000Z</Time>
            <Position>
              <LatitudeDegrees>49.40763342194259166717529296875</LatitudeDegrees>
              <LongitudeDegrees>20.43638206087052822113037109375</LongitudeDegrees>
            </Position>
            <AltitudeMeters>457.399993896484375</AltitudeMeters>
            <DistanceMeters>NAN</DistanceMeters>
          </Trackpoint>
          <Trackpoint>
            <Time>2022-09-21T10:39:53.000Z</Time>
            <Position>
              <LatitudeDegrees>49.4076551310718059539794921875</LatitudeDegrees>
              <LongitudeDegrees>20.43633495457470417022705078125</LongitudeDegrees>
            </Position>
            <AltitudeMeters>457.399993896484375</AltitudeMeters>
            <DistanceMeters>NAN</DistanceMeters>
          </Trackpoint>
          <Trackpoint>
            <Time>2022-09-21T10:40:02.000Z</Time>
            <Position>
              <LatitudeDegrees>49.40784732811152935028076171875</LatitudeDegrees>
              <LongitudeDegrees>20.4359142668545246124267578125</LongitudeDegrees>
            </Position>
            <AltitudeMeters>456.600006103515625</AltitudeMeters>
            <DistanceMeters>NAN</DistanceMeters>
          </Trackpoint>
          <Trackpoint>
            <Time>2022-09-21T10:40:10.000Z</Time>
            <Position>
              <LatitudeDegrees>49.4079987891018390655517578125</LatitudeDegrees>
              <LongitudeDegrees>20.43555292300879955291748046875</LongitudeDegrees>
            </Position>
            <AltitudeMeters>456.600006103515625</AltitudeMeters>
            <DistanceMeters>NAN</DistanceMeters>
          </Trackpoint>
          <Trackpoint>
            <Time>2022-09-21T10:40:12.000Z</Time>
            <Position>
              <LatitudeDegrees>49.40803072415292263031005859375</LatitudeDegrees>
              <LongitudeDegrees>20.4354519210755825042724609375</LongitudeDegrees>
            </Position>
            <AltitudeMeters>456.399993896484375</AltitudeMeters>
            <DistanceMeters>NAN</DistanceMeters>
          </Trackpoint>
          <Trackpoint>
            <Time>2022-09-21T10:40:16.000Z</Time>
            <Position>
              <LatitudeDegrees>49.408113956451416015625</LatitudeDegrees>
              <LongitudeDegrees>20.43526391498744487762451171875</LongitudeDegrees>
            </Position>
            <AltitudeMeters>455.79998779296875</AltitudeMeters>
            <DistanceMeters>NAN</DistanceMeters>
          </Trackpoint>
          <Trackpoint>
            <Time>2022-09-21T10:40:21.000Z</Time>
            <Position>
              <LatitudeDegrees>49.4081922434270381927490234375</LatitudeDegrees>
              <LongitudeDegrees>20.43500415980815887451171875</LongitudeDegrees>
            </Position>
            <AltitudeMeters>455</AltitudeMeters>
            <DistanceMeters>NAN</DistanceMeters>
          </Trackpoint>
          <Trackpoint>
            <Time>2022-09-21T10:40:24.000Z</Time>
            <Position>
              <LatitudeDegrees>49.40823021344840526580810546875</LatitudeDegrees>
              <LongitudeDegrees>20.4348336718976497650146484375</LongitudeDegrees>
            </Position>
            <AltitudeMeters>454.79998779296875</AltitudeMeters>
            <DistanceMeters>NAN</DistanceMeters>
          </Trackpoint>
          <Trackpoint>
            <Time>2022-09-21T10:40:30.000Z</Time>
            <Position>
              <LatitudeDegrees>49.40831420011818408966064453125</LatitudeDegrees>
              <LongitudeDegrees>20.43451331555843353271484375</LongitudeDegrees>
            </Position>
            <AltitudeMeters>454.79998779296875</AltitudeMeters>
            <DistanceMeters>NAN</DistanceMeters>
          </Trackpoint>
          <Trackpoint>
            <Time>2022-09-21T10:40:32.000Z</Time>
            <Position>
              <LatitudeDegrees>49.408336579799652099609375</LatitudeDegrees>
              <LongitudeDegrees>20.43440527282655239105224609375</LongitudeDegrees>
            </Position>
            <AltitudeMeters>454.79998779296875</AltitudeMeters>
            <DistanceMeters>NAN</DistanceMeters>
          </Trackpoint>
          <Trackpoint>
            <Time>2022-09-21T10:40:34.000Z</Time>
            <Position>
              <LatitudeDegrees>49.40836767666041851043701171875</LatitudeDegrees>
              <LongitudeDegrees>20.43429605662822723388671875</LongitudeDegrees>
            </Position>
            <AltitudeMeters>454.399993896484375</AltitudeMeters>
            <DistanceMeters>NAN</DistanceMeters>
          </Trackpoint>
          <Trackpoint>
            <Time>2022-09-21T10:40:36.000Z</Time>
            <Position>
              <LatitudeDegrees>49.40839868970215320587158203125</LatitudeDegrees>
              <LongitudeDegrees>20.434185750782489776611328125</LongitudeDegrees>
            </Position>
            <AltitudeMeters>454</AltitudeMeters>
            <DistanceMeters>NAN</DistanceMeters>
          </Trackpoint>
          <Trackpoint>
            <Time>2022-09-21T10:40:41.000Z</Time>
            <Position>
              <LatitudeDegrees>49.408457279205322265625</LatitudeDegrees>
              <LongitudeDegrees>20.433867909014225006103515625</LongitudeDegrees>
            </Position>
            <AltitudeMeters>453.79998779296875</AltitudeMeters>
            <DistanceMeters>NAN</DistanceMeters>
          </Trackpoint>
          <Trackpoint>
            <Time>2022-09-21T10:40:49.000Z</Time>
            <Position>
              <LatitudeDegrees>49.408515281975269317626953125</LatitudeDegrees>
              <LongitudeDegrees>20.433402545750141143798828125</LongitudeDegrees>
            </Position>
            <AltitudeMeters>453.600006103515625</AltitudeMeters>
            <DistanceMeters>NAN</DistanceMeters>
          </Trackpoint>
          <Trackpoint>
            <Time>2022-09-21T10:40:53.000Z</Time>
            <Position>
              <LatitudeDegrees>49.40852358005940914154052734375</LatitudeDegrees>
              <LongitudeDegrees>20.43315754272043704986572265625</LongitudeDegrees>
            </Position>
            <AltitudeMeters>453.399993896484375</AltitudeMeters>
            <DistanceMeters>NAN</DistanceMeters>
          </Trackpoint>
          <Trackpoint>
            <Time>2022-09-21T10:40:55.000Z</Time>
            <Position>
              <LatitudeDegrees>49.408525340259075164794921875</LatitudeDegrees>
              <LongitudeDegrees>20.4330293834209442138671875</LongitudeDegrees>
            </Position>
            <AltitudeMeters>453.399993896484375</AltitudeMeters>
            <DistanceMeters>NAN</DistanceMeters>
          </Trackpoint>
          <Trackpoint>
            <Time>2022-09-21T10:40:59.000Z</Time>
            <Position>
              <LatitudeDegrees>49.40851829946041107177734375</LatitudeDegrees>
              <LongitudeDegrees>20.43278572149574756622314453125</LongitudeDegrees>
            </Position>
            <AltitudeMeters>453.399993896484375</AltitudeMeters>
            <DistanceMeters>NAN</DistanceMeters>
          </Trackpoint>
          <Trackpoint>
            <Time>2022-09-21T10:41:02.000Z</Time>
            <Position>
              <LatitudeDegrees>49.40851435996592044830322265625</LatitudeDegrees>
              <LongitudeDegrees>20.43261758051812648773193359375</LongitudeDegrees>
            </Position>
            <AltitudeMeters>453.20001220703125</AltitudeMeters>
            <DistanceMeters>NAN</DistanceMeters>
          </Trackpoint>
          <Trackpoint>
            <Time>2022-09-21T10:41:07.000Z</Time>
            <Position>
              <LatitudeDegrees>49.4085107557475566864013671875</LatitudeDegrees>
              <LongitudeDegrees>20.43236813507974147796630859375</LongitudeDegrees>
            </Position>
            <AltitudeMeters>453.399993896484375</AltitudeMeters>
            <DistanceMeters>NAN</DistanceMeters>
          </Trackpoint>
          <Trackpoint>
            <Time>2022-09-21T10:41:16.000Z</Time>
            <Position>
              <LatitudeDegrees>49.40847228281199932098388671875</LatitudeDegrees>
              <LongitudeDegrees>20.4318664781749248504638671875</LongitudeDegrees>
            </Position>
            <AltitudeMeters>453.399993896484375</AltitudeMeters>
            <DistanceMeters>NAN</DistanceMeters>
          </Trackpoint>
          <Trackpoint>
            <Time>2022-09-21T10:41:22.000Z</Time>
            <Position>
              <LatitudeDegrees>49.40841310657560825347900390625</LatitudeDegrees>
              <LongitudeDegrees>20.43147973716259002685546875</LongitudeDegrees>
            </Position>
            <AltitudeMeters>453.600006103515625</AltitudeMeters>
            <DistanceMeters>NAN</DistanceMeters>
          </Trackpoint>
          <Trackpoint>
            <Time>2022-09-21T10:41:26.000Z</Time>
            <Position>
              <LatitudeDegrees>49.40837186761200428009033203125</LatitudeDegrees>
              <LongitudeDegrees>20.4312478937208652496337890625</LongitudeDegrees>
            </Position>
            <AltitudeMeters>453.399993896484375</AltitudeMeters>
            <DistanceMeters>NAN</DistanceMeters>
          </Trackpoint>
          <Trackpoint>
            <Time>2022-09-21T10:41:28.000Z</Time>
            <Position>
              <LatitudeDegrees>49.40833951346576213836669921875</LatitudeDegrees>
              <LongitudeDegrees>20.4311352409422397613525390625</LongitudeDegrees>
            </Position>
            <AltitudeMeters>453.20001220703125</AltitudeMeters>
            <DistanceMeters>NAN</DistanceMeters>
          </Trackpoint>
          <Trackpoint>
            <Time>2022-09-21T10:41:33.000Z</Time>
            <Position>
              <LatitudeDegrees>49.40825602971017360687255859375</LatitudeDegrees>
              <LongitudeDegrees>20.4309226758778095245361328125</LongitudeDegrees>
            </Position>
            <AltitudeMeters>453</AltitudeMeters>
            <DistanceMeters>NAN</DistanceMeters>
          </Trackpoint>
          <Trackpoint>
            <Time>2022-09-21T10:41:35.000Z</Time>
            <Position>
              <LatitudeDegrees>49.40821227617561817169189453125</LatitudeDegrees>
              <LongitudeDegrees>20.430840365588665008544921875</LongitudeDegrees>
            </Position>
            <AltitudeMeters>452.79998779296875</AltitudeMeters>
            <DistanceMeters>NAN</DistanceMeters>
          </Trackpoint>
          <Trackpoint>
            <Time>2022-09-21T10:41:40.000Z</Time>
            <Position>
              <LatitudeDegrees>49.40812342800199985504150390625</LatitudeDegrees>
              <LongitudeDegrees>20.430578850209712982177734375</LongitudeDegrees>
            </Position>
            <AltitudeMeters>452.79998779296875</AltitudeMeters>
            <DistanceMeters>NAN</DistanceMeters>
          </Trackpoint>
          <Trackpoint>
            <Time>2022-09-21T10:41:42.000Z</Time>
            <Position>
              <LatitudeDegrees>49.40809023566544055938720703125</LatitudeDegrees>
              <LongitudeDegrees>20.430482961237430572509765625</LongitudeDegrees>
            </Position>
            <AltitudeMeters>453</AltitudeMeters>
            <DistanceMeters>NAN</DistanceMeters>
          </Trackpoint>
          <Trackpoint>
            <Time>2022-09-21T10:41:47.000Z</Time>
            <Position>
              <LatitudeDegrees>49.40802435390651226043701171875</LatitudeDegrees>
              <LongitudeDegrees>20.43030249886214733123779296875</LongitudeDegrees>
            </Position>
            <AltitudeMeters>453.20001220703125</AltitudeMeters>
            <DistanceMeters>NAN</DistanceMeters>
          </Trackpoint>
          <Trackpoint>
            <Time>2022-09-21T10:41:53.000Z</Time>
            <Position>
              <LatitudeDegrees>49.407974816858768463134765625</LatitudeDegrees>
              <LongitudeDegrees>20.4300226271152496337890625</LongitudeDegrees>
            </Position>
            <AltitudeMeters>453</AltitudeMeters>
            <DistanceMeters>NAN</DistanceMeters>
          </Trackpoint>
          <Trackpoint>
            <Time>2022-09-21T10:41:57.000Z</Time>
            <Position>
              <LatitudeDegrees>49.40795277245342731475830078125</LatitudeDegrees>
              <LongitudeDegrees>20.42982372455298900604248046875</LongitudeDegrees>
            </Position>
            <AltitudeMeters>452.79998779296875</AltitudeMeters>
            <DistanceMeters>NAN</DistanceMeters>
          </Trackpoint>
          <Trackpoint>
            <Time>2022-09-21T10:42:00.000Z</Time>
            <Position>
              <LatitudeDegrees>49.40794564783573150634765625</LatitudeDegrees>
              <LongitudeDegrees>20.4296499677002429962158203125</LongitudeDegrees>
            </Position>
            <AltitudeMeters>452.600006103515625</AltitudeMeters>
            <DistanceMeters>NAN</DistanceMeters>
          </Trackpoint>
          <Trackpoint>
            <Time>2022-09-21T10:42:05.000Z</Time>
            <Position>
              <LatitudeDegrees>49.40800608135759830474853515625</LatitudeDegrees>
              <LongitudeDegrees>20.42942541651427745819091796875</LongitudeDegrees>
            </Position>
            <AltitudeMeters>452.399993896484375</AltitudeMeters>
            <DistanceMeters>NAN</DistanceMeters>
          </Trackpoint>
          <Trackpoint>
            <Time>2022-09-21T10:42:10.000Z</Time>
            <Position>
              <LatitudeDegrees>49.408142454922199249267578125</LatitudeDegrees>
              <LongitudeDegrees>20.42928795330226421356201171875</LongitudeDegrees>
            </Position>
            <AltitudeMeters>452.399993896484375</AltitudeMeters>
            <DistanceMeters>NAN</DistanceMeters>
          </Trackpoint>
          <Trackpoint>
            <Time>2022-09-21T10:42:16.000Z</Time>
            <Position>
              <LatitudeDegrees>49.40832761116325855255126953125</LatitudeDegrees>
              <LongitudeDegrees>20.4293130151927471160888671875</LongitudeDegrees>
            </Position>
            <AltitudeMeters>452.600006103515625</AltitudeMeters>
            <DistanceMeters>NAN</DistanceMeters>
          </Trackpoint>
          <Trackpoint>
            <Time>2022-09-21T10:42:23.000Z</Time>
            <Position>
              <LatitudeDegrees>49.40852961502969264984130859375</LatitudeDegrees>
              <LongitudeDegrees>20.4294719360768795013427734375</LongitudeDegrees>
            </Position>
            <AltitudeMeters>452.600006103515625</AltitudeMeters>
            <DistanceMeters>NAN</DistanceMeters>
          </Trackpoint>
          <Trackpoint>
            <Time>2022-09-21T10:42:28.000Z</Time>
            <Position>
              <LatitudeDegrees>49.4087053835391998291015625</LatitudeDegrees>
              <LongitudeDegrees>20.429564304649829864501953125</LongitudeDegrees>
            </Position>
            <AltitudeMeters>452.399993896484375</AltitudeMeters>
            <DistanceMeters>NAN</DistanceMeters>
          </Trackpoint>
          <Trackpoint>
            <Time>2022-09-21T10:42:34.000Z</Time>
            <Position>
              <LatitudeDegrees>49.40888576209545135498046875</LatitudeDegrees>
              <LongitudeDegrees>20.42962574400007724761962890625</LongitudeDegrees>
            </Position>
            <AltitudeMeters>452.600006103515625</AltitudeMeters>
            <DistanceMeters>NAN</DistanceMeters>
          </Trackpoint>
          <Trackpoint>
            <Time>2022-09-21T10:42:41.000Z</Time>
            <Position>
              <LatitudeDegrees>49.4091132469475269317626953125</LatitudeDegrees>
              <LongitudeDegrees>20.42969095520675182342529296875</LongitudeDegrees>
            </Position>
            <AltitudeMeters>452.600006103515625</AltitudeMeters>
            <DistanceMeters>NAN</DistanceMeters>
          </Trackpoint>
          <Trackpoint>
            <Time>2022-09-21T10:42:42.000Z</Time>
            <Position>
              <LatitudeDegrees>49.40914166159927845001220703125</LatitudeDegrees>
              <LongitudeDegrees>20.429698415100574493408203125</LongitudeDegrees>
            </Position>
            <AltitudeMeters>452.600006103515625</AltitudeMeters>
            <DistanceMeters>NAN</DistanceMeters>
          </Trackpoint>
          <Trackpoint>
            <Time>2022-09-21T10:42:48.000Z</Time>
            <Position>
              <LatitudeDegrees>49.40930812619626522064208984375</LatitudeDegrees>
              <LongitudeDegrees>20.429727248847484588623046875</LongitudeDegrees>
            </Position>
            <AltitudeMeters>452.79998779296875</AltitudeMeters>
            <DistanceMeters>NAN</DistanceMeters>
          </Trackpoint>
          <Trackpoint>
            <Time>2022-09-21T10:42:51.000Z</Time>
            <Position>
              <LatitudeDegrees>49.40940988250076770782470703125</LatitudeDegrees>
              <LongitudeDegrees>20.42973420582711696624755859375</LongitudeDegrees>
            </Position>
            <AltitudeMeters>453</AltitudeMeters>
            <DistanceMeters>NAN</DistanceMeters>
          </Trackpoint>
          <Trackpoint>
            <Time>2022-09-21T10:42:53.000Z</Time>
            <Position>
              <LatitudeDegrees>49.40948146395385265350341796875</LatitudeDegrees>
              <LongitudeDegrees>20.4297086410224437713623046875</LongitudeDegrees>
            </Position>
            <AltitudeMeters>453.20001220703125</AltitudeMeters>
            <DistanceMeters>NAN</DistanceMeters>
          </Trackpoint>
          <Trackpoint>
            <Time>2022-09-21T10:42:56.000Z</Time>
            <Position>
              <LatitudeDegrees>49.40956930629909038543701171875</LatitudeDegrees>
              <LongitudeDegrees>20.42970134876668453216552734375</LongitudeDegrees>
            </Position>
            <AltitudeMeters>453.20001220703125</AltitudeMeters>
            <DistanceMeters>NAN</DistanceMeters>
          </Trackpoint>
          <Trackpoint>
            <Time>2022-09-21T10:42:58.000Z</Time>
            <Position>
              <LatitudeDegrees>49.40962915308773517608642578125</LatitudeDegrees>
              <LongitudeDegrees>20.42970939539372920989990234375</LongitudeDegrees>
            </Position>
            <AltitudeMeters>453.20001220703125</AltitudeMeters>
            <DistanceMeters>NAN</DistanceMeters>
          </Trackpoint>
          <Trackpoint>
            <Time>2022-09-21T10:43:04.000Z</Time>
            <Position>
              <LatitudeDegrees>49.40981020219624042510986328125</LatitudeDegrees>
              <LongitudeDegrees>20.42970947921276092529296875</LongitudeDegrees>
            </Position>
            <AltitudeMeters>453.399993896484375</AltitudeMeters>
            <DistanceMeters>NAN</DistanceMeters>
          </Trackpoint>
          <Trackpoint>
            <Time>2022-09-21T10:43:11.000Z</Time>
            <Position>
              <LatitudeDegrees>49.41000835038721561431884765625</LatitudeDegrees>
              <LongitudeDegrees>20.4296969063580036163330078125</LongitudeDegrees>
            </Position>
            <AltitudeMeters>453.600006103515625</AltitudeMeters>
            <DistanceMeters>NAN</DistanceMeters>
          </Trackpoint>
          <Trackpoint>
            <Time>2022-09-21T10:43:18.000Z</Time>
            <Position>
              <LatitudeDegrees>49.41025494597852230072021484375</LatitudeDegrees>
              <LongitudeDegrees>20.4296402446925640106201171875</LongitudeDegrees>
            </Position>
            <AltitudeMeters>454</AltitudeMeters>
            <DistanceMeters>NAN</DistanceMeters>
          </Trackpoint>
          <Trackpoint>
            <Time>2022-09-21T10:43:19.000Z</Time>
            <Position>
              <LatitudeDegrees>49.41028076224029064178466796875</LatitudeDegrees>
              <LongitudeDegrees>20.42964602820575237274169921875</LongitudeDegrees>
            </Position>
            <AltitudeMeters>454.20001220703125</AltitudeMeters>
            <DistanceMeters>NAN</DistanceMeters>
          </Trackpoint>
          <Trackpoint>
            <Time>2022-09-21T10:43:24.000Z</Time>
            <Position>
              <LatitudeDegrees>49.4104127772152423858642578125</LatitudeDegrees>
              <LongitudeDegrees>20.42963974177837371826171875</LongitudeDegrees>
            </Position>
            <AltitudeMeters>454.399993896484375</AltitudeMeters>
            <DistanceMeters>NAN</DistanceMeters>
          </Trackpoint>
          <Trackpoint>
            <Time>2022-09-21T10:43:31.000Z</Time>
            <Position>
              <LatitudeDegrees>49.41062475554645061492919921875</LatitudeDegrees>
              <LongitudeDegrees>20.42969715781509876251220703125</LongitudeDegrees>
            </Position>
            <AltitudeMeters>454.399993896484375</AltitudeMeters>
            <DistanceMeters>NAN</DistanceMeters>
          </Trackpoint>
          <Trackpoint>
            <Time>2022-09-21T10:43:35.000Z</Time>
            <Position>
              <LatitudeDegrees>49.41072332672774791717529296875</LatitudeDegrees>
              <LongitudeDegrees>20.42971325106918811798095703125</LongitudeDegrees>
            </Position>
            <AltitudeMeters>454.399993896484375</AltitudeMeters>
            <DistanceMeters>NAN</DistanceMeters>
          </Trackpoint>
          <Trackpoint>
            <Time>2022-09-21T10:43:41.000Z</Time>
            <Position>
              <LatitudeDegrees>49.41090387292206287384033203125</LatitudeDegrees>
              <LongitudeDegrees>20.4296771250665187835693359375</LongitudeDegrees>
            </Position>
            <AltitudeMeters>454.20001220703125</AltitudeMeters>
            <DistanceMeters>NAN</DistanceMeters>
          </Trackpoint>
          <Trackpoint>
            <Time>2022-09-21T10:43:48.000Z</Time>
            <Position>
              <LatitudeDegrees>49.41111627034842967987060546875</LatitudeDegrees>
              <LongitudeDegrees>20.42967905290424823760986328125</LongitudeDegrees>
            </Position>
            <AltitudeMeters>454</AltitudeMeters>
            <DistanceMeters>NAN</DistanceMeters>
          </Trackpoint>
          <Trackpoint>
            <Time>2022-09-21T10:43:54.000Z</Time>
            <Position>
              <LatitudeDegrees>49.41127753816545009613037109375</LatitudeDegrees>
              <LongitudeDegrees>20.42965977452695369720458984375</LongitudeDegrees>
            </Position>
            <AltitudeMeters>454.399993896484375</AltitudeMeters>
            <DistanceMeters>NAN</DistanceMeters>
          </Trackpoint>
          <Trackpoint>
            <Time>2022-09-21T10:43:55.000Z</Time>
            <Position>
              <LatitudeDegrees>49.4113036058843135833740234375</LatitudeDegrees>
              <LongitudeDegrees>20.4296439327299594879150390625</LongitudeDegrees>
            </Position>
            <AltitudeMeters>454.600006103515625</AltitudeMeters>
            <DistanceMeters>NAN</DistanceMeters>
          </Trackpoint>
          <Trackpoint>
            <Time>2022-09-21T10:44:01.000Z</Time>
            <Position>
              <LatitudeDegrees>49.4114787876605987548828125</LatitudeDegrees>
              <LongitudeDegrees>20.42953354306519031524658203125</LongitudeDegrees>
            </Position>
            <AltitudeMeters>454.79998779296875</AltitudeMeters>
            <DistanceMeters>NAN</DistanceMeters>
          </Trackpoint>
          <Trackpoint>
            <Time>2022-09-21T10:44:05.000Z</Time>
            <Position>
              <LatitudeDegrees>49.4115698151290416717529296875</LatitudeDegrees>
              <LongitudeDegrees>20.4295416735112667083740234375</LongitudeDegrees>
            </Position>
            <AltitudeMeters>455</AltitudeMeters>
            <DistanceMeters>NAN</DistanceMeters>
          </Trackpoint>
          <Trackpoint>
            <Time>2022-09-21T10:44:07.000Z</Time>
            <Position>
              <LatitudeDegrees>49.411618597805500030517578125</LatitudeDegrees>
              <LongitudeDegrees>20.4295446909964084625244140625</LongitudeDegrees>
            </Position>
            <AltitudeMeters>455.20001220703125</AltitudeMeters>
            <DistanceMeters>NAN</DistanceMeters>
          </Trackpoint>
          <Trackpoint>
            <Time>2022-09-21T10:44:14.000Z</Time>
            <Position>
              <LatitudeDegrees>49.411801993846893310546875</LatitudeDegrees>
              <LongitudeDegrees>20.4295118339359760284423828125</LongitudeDegrees>
            </Position>
            <AltitudeMeters>455.399993896484375</AltitudeMeters>
            <DistanceMeters>NAN</DistanceMeters>
          </Trackpoint>
          <Trackpoint>
            <Time>2022-09-21T10:44:21.000Z</Time>
            <Position>
              <LatitudeDegrees>49.4120018184185028076171875</LatitudeDegrees>
              <LongitudeDegrees>20.4294729419052600860595703125</LongitudeDegrees>
            </Position>
            <AltitudeMeters>455.600006103515625</AltitudeMeters>
            <DistanceMeters>NAN</DistanceMeters>
          </Trackpoint>
          <Trackpoint>
            <Time>2022-09-21T10:44:24.000Z</Time>
            <Position>
              <LatitudeDegrees>49.4120636768639087677001953125</LatitudeDegrees>
              <LongitudeDegrees>20.42947218753397464752197265625</LongitudeDegrees>
            </Position>
            <AltitudeMeters>456.20001220703125</AltitudeMeters>
            <DistanceMeters>NAN</DistanceMeters>
          </Trackpoint>
          <Trackpoint>
            <Time>2022-09-21T10:44:25.000Z</Time>
            <Position>
              <LatitudeDegrees>49.41207901574671268463134765625</LatitudeDegrees>
              <LongitudeDegrees>20.42946045286953449249267578125</LongitudeDegrees>
            </Position>
            <AltitudeMeters>456.399993896484375</AltitudeMeters>
            <DistanceMeters>NAN</DistanceMeters>
          </Trackpoint>
          <Trackpoint>
            <Time>2022-09-21T10:44:27.000Z</Time>
            <Position>
              <LatitudeDegrees>49.41208940930664539337158203125</LatitudeDegrees>
              <LongitudeDegrees>20.4294283501803874969482421875</LongitudeDegrees>
            </Position>
            <AltitudeMeters>456.600006103515625</AltitudeMeters>
            <DistanceMeters>NAN</DistanceMeters>
          </Trackpoint>
          <Trackpoint>
            <Time>2022-09-21T10:44:28.000Z</Time>
            <Position>
              <LatitudeDegrees>49.41208899021148681640625</LatitudeDegrees>
              <LongitudeDegrees>20.4294260032474994659423828125</LongitudeDegrees>
            </Position>
            <AltitudeMeters>456.79998779296875</AltitudeMeters>
            <DistanceMeters>NAN</DistanceMeters>
          </Trackpoint>
          <Trackpoint>
            <Time>2022-09-21T10:44:29.000Z</Time>
            <Position>
              <LatitudeDegrees>49.41209142096340656280517578125</LatitudeDegrees>
              <LongitudeDegrees>20.4294239915907382965087890625</LongitudeDegrees>
            </Position>
            <AltitudeMeters>456.79998779296875</AltitudeMeters>
            <DistanceMeters>NAN</DistanceMeters>
          </Trackpoint>
          <Trackpoint>
            <Time>2022-09-21T10:44:31.000Z</Time>
            <Position>
              <LatitudeDegrees>49.4121273793280124664306640625</LatitudeDegrees>
              <LongitudeDegrees>20.42938367463648319244384765625</LongitudeDegrees>
            </Position>
            <AltitudeMeters>456.79998779296875</AltitudeMeters>
            <DistanceMeters>NAN</DistanceMeters>
          </Trackpoint>
          <Trackpoint>
            <Time>2022-09-21T10:44:34.000Z</Time>
            <Position>
              <LatitudeDegrees>49.41212712787091732025146484375</LatitudeDegrees>
              <LongitudeDegrees>20.4293793998658657073974609375</LongitudeDegrees>
            </Position>
            <AltitudeMeters>457</AltitudeMeters>
            <DistanceMeters>NAN</DistanceMeters>
          </Trackpoint>
          <Trackpoint>
            <Time>2022-09-21T10:44:35.000Z</Time>
            <Position>
              <LatitudeDegrees>49.4121263734996318817138671875</LatitudeDegrees>
              <LongitudeDegrees>20.42937562800943851470947265625</LongitudeDegrees>
            </Position>
            <AltitudeMeters>457</AltitudeMeters>
            <DistanceMeters>NAN</DistanceMeters>
          </Trackpoint>
          <Trackpoint>
            <Time>2022-09-21T10:44:40.000Z</Time>
            <Position>
              <LatitudeDegrees>49.412144981324672698974609375</LatitudeDegrees>
              <LongitudeDegrees>20.42935098521411418914794921875</LongitudeDegrees>
            </Position>
            <AltitudeMeters>457.20001220703125</AltitudeMeters>
            <DistanceMeters>NAN</DistanceMeters>
          </Trackpoint>
          <Trackpoint>
            <Time>2022-09-21T10:44:43.000Z</Time>
            <Position>
              <LatitudeDegrees>49.41214456222951412200927734375</LatitudeDegrees>
              <LongitudeDegrees>20.42935752309858798980712890625</LongitudeDegrees>
            </Position>
            <AltitudeMeters>457.399993896484375</AltitudeMeters>
            <DistanceMeters>NAN</DistanceMeters>
          </Trackpoint>
          <Trackpoint>
            <Time>2022-09-21T10:44:45.000Z</Time>
            <Position>
              <LatitudeDegrees>49.41214825026690959930419921875</LatitudeDegrees>
              <LongitudeDegrees>20.429373197257518768310546875</LongitudeDegrees>
            </Position>
            <AltitudeMeters>457.600006103515625</AltitudeMeters>
            <DistanceMeters>NAN</DistanceMeters>
          </Trackpoint>
          <Trackpoint>
            <Time>2022-09-21T10:44:49.000Z</Time>
            <Position>
              <LatitudeDegrees>49.41213668324053287506103515625</LatitudeDegrees>
              <LongitudeDegrees>20.4293324612081050872802734375</LongitudeDegrees>
            </Position>
            <AltitudeMeters>457.79998779296875</AltitudeMeters>
            <DistanceMeters>NAN</DistanceMeters>
          </Trackpoint>
          <Trackpoint>
            <Time>2022-09-21T10:44:52.000Z</Time>
            <Position>
              <LatitudeDegrees>49.41214171238243579864501953125</LatitudeDegrees>
              <LongitudeDegrees>20.4293012805283069610595703125</LongitudeDegrees>
            </Position>
            <AltitudeMeters>458</AltitudeMeters>
            <DistanceMeters>NAN</DistanceMeters>
          </Trackpoint>
          <Trackpoint>
            <Time>2022-09-21T10:44:53.000Z</Time>
            <Position>
              <LatitudeDegrees>49.412136264145374298095703125</LatitudeDegrees>
              <LongitudeDegrees>20.4293099977076053619384765625</LongitudeDegrees>
            </Position>
            <AltitudeMeters>458</AltitudeMeters>
            <DistanceMeters>NAN</DistanceMeters>
          </Trackpoint>
          <Trackpoint>
            <Time>2022-09-21T10:44:54.000Z</Time>
            <Position>
              <LatitudeDegrees>49.4121387787163257598876953125</LatitudeDegrees>
              <LongitudeDegrees>20.42930756695568561553955078125</LongitudeDegrees>
            </Position>
            <AltitudeMeters>458.20001220703125</AltitudeMeters>
            <DistanceMeters>NAN</DistanceMeters>
          </Trackpoint>
          <Trackpoint>
            <Time>2022-09-21T10:44:55.000Z</Time>
            <Position>
              <LatitudeDegrees>49.412150681018829345703125</LatitudeDegrees>
              <LongitudeDegrees>20.42931058444082736968994140625</LongitudeDegrees>
            </Position>
            <AltitudeMeters>458.20001220703125</AltitudeMeters>
            <DistanceMeters>NAN</DistanceMeters>
          </Trackpoint>
          <Trackpoint>
            <Time>2022-09-21T10:44:56.000Z</Time>
            <Position>
              <LatitudeDegrees>49.4121639244258403778076171875</LatitudeDegrees>
              <LongitudeDegrees>20.42931661941111087799072265625</LongitudeDegrees>
            </Position>
            <AltitudeMeters>458.399993896484375</AltitudeMeters>
            <DistanceMeters>NAN</DistanceMeters>
          </Trackpoint>
          <Trackpoint>
            <Time>2022-09-21T10:44:57.000Z</Time>
            <Position>
              <LatitudeDegrees>49.41217507235705852508544921875</LatitudeDegrees>
              <LongitudeDegrees>20.4293056391179561614990234375</LongitudeDegrees>
            </Position>
            <AltitudeMeters>458.399993896484375</AltitudeMeters>
            <DistanceMeters>NAN</DistanceMeters>
          </Trackpoint>
          <Trackpoint>
            <Time>2022-09-21T10:44:59.000Z</Time>
            <Position>
              <LatitudeDegrees>49.41217540763318538665771484375</LatitudeDegrees>
              <LongitudeDegrees>20.42930446565151214599609375</LongitudeDegrees>
            </Position>
            <AltitudeMeters>458.600006103515625</AltitudeMeters>
            <DistanceMeters>NAN</DistanceMeters>
          </Trackpoint>
          <Trackpoint>
            <Time>2022-09-21T10:45:03.000Z</Time>
            <Position>
              <LatitudeDegrees>49.41217591054737567901611328125</LatitudeDegrees>
              <LongitudeDegrees>20.42931075207889080047607421875</LongitudeDegrees>
            </Position>
            <AltitudeMeters>458.79998779296875</AltitudeMeters>
            <DistanceMeters>NAN</DistanceMeters>
          </Trackpoint>
          <Trackpoint>
            <Time>2022-09-21T10:45:05.000Z</Time>
            <Position>
              <LatitudeDegrees>49.41217859275639057159423828125</LatitudeDegrees>
              <LongitudeDegrees>20.42931946925818920135498046875</LongitudeDegrees>
            </Position>
            <AltitudeMeters>459</AltitudeMeters>
            <DistanceMeters>NAN</DistanceMeters>
          </Trackpoint>
          <Trackpoint>
            <Time>2022-09-21T10:45:09.000Z</Time>
            <Position>
              <LatitudeDegrees>49.41217959858477115631103515625</LatitudeDegrees>
              <LongitudeDegrees>20.42933606542646884918212890625</LongitudeDegrees>
            </Position>
            <AltitudeMeters>459.399993896484375</AltitudeMeters>
            <DistanceMeters>NAN</DistanceMeters>
          </Trackpoint>
          <Trackpoint>
            <Time>2022-09-21T10:45:11.000Z</Time>
            <Position>
              <LatitudeDegrees>49.4121709652245044708251953125</LatitudeDegrees>
              <LongitudeDegrees>20.4293482191860675811767578125</LongitudeDegrees>
            </Position>
            <AltitudeMeters>459.399993896484375</AltitudeMeters>
            <DistanceMeters>NAN</DistanceMeters>
          </Trackpoint>
          <Trackpoint>
            <Time>2022-09-21T10:45:13.000Z</Time>
            <Position>
              <LatitudeDegrees>49.41215612925589084625244140625</LatitudeDegrees>
              <LongitudeDegrees>20.429367832839488983154296875</LongitudeDegrees>
            </Position>
            <AltitudeMeters>459.600006103515625</AltitudeMeters>
            <DistanceMeters>NAN</DistanceMeters>
          </Trackpoint>
          <Trackpoint>
            <Time>2022-09-21T10:45:16.000Z</Time>
            <Position>
              <LatitudeDegrees>49.41218228079378604888916015625</LatitudeDegrees>
              <LongitudeDegrees>20.42934645898640155792236328125</LongitudeDegrees>
            </Position>
            <AltitudeMeters>460</AltitudeMeters>
            <DistanceMeters>NAN</DistanceMeters>
          </Trackpoint>
          <Trackpoint>
            <Time>2022-09-21T10:45:18.000Z</Time>
            <Position>
              <LatitudeDegrees>49.4121823646128177642822265625</LatitudeDegrees>
              <LongitudeDegrees>20.429347716271877288818359375</LongitudeDegrees>
            </Position>
            <AltitudeMeters>460.20001220703125</AltitudeMeters>
            <DistanceMeters>NAN</DistanceMeters>
          </Trackpoint>
          <Trackpoint>
            <Time>2022-09-21T10:45:20.000Z</Time>
            <Position>
              <LatitudeDegrees>49.41217540763318538665771484375</LatitudeDegrees>
              <LongitudeDegrees>20.42936372570693492889404296875</LongitudeDegrees>
            </Position>
            <AltitudeMeters>460.399993896484375</AltitudeMeters>
            <DistanceMeters>NAN</DistanceMeters>
          </Trackpoint>
          <Trackpoint>
            <Time>2022-09-21T10:45:28.000Z</Time>
            <Position>
              <LatitudeDegrees>49.4121776707470417022705078125</LatitudeDegrees>
              <LongitudeDegrees>20.42936389334499835968017578125</LongitudeDegrees>
            </Position>
            <AltitudeMeters>461.600006103515625</AltitudeMeters>
            <DistanceMeters>NAN</DistanceMeters>
          </Trackpoint>
          <Trackpoint>
            <Time>2022-09-21T10:45:31.000Z</Time>
            <Position>
              <LatitudeDegrees>49.4121776707470417022705078125</LatitudeDegrees>
              <LongitudeDegrees>20.42936389334499835968017578125</LongitudeDegrees>
            </Position>
            <AltitudeMeters>462</AltitudeMeters>
            <DistanceMeters>NAN</DistanceMeters>
          </Trackpoint>
          <Trackpoint>
            <Time>2022-09-21T10:45:35.000Z</Time>
            <Position>
              <LatitudeDegrees>49.4121776707470417022705078125</LatitudeDegrees>
              <LongitudeDegrees>20.42936389334499835968017578125</LongitudeDegrees>
            </Position>
            <AltitudeMeters>462.600006103515625</AltitudeMeters>
            <DistanceMeters>NAN</DistanceMeters>
          </Trackpoint>
          <Trackpoint>
            <Time>2022-09-21T10:45:45.000Z</Time>
            <Position>
              <LatitudeDegrees>49.412200637161731719970703125</LatitudeDegrees>
              <LongitudeDegrees>20.4293680004775524139404296875</LongitudeDegrees>
            </Position>
            <AltitudeMeters>463.399993896484375</AltitudeMeters>
            <DistanceMeters>NAN</DistanceMeters>
          </Trackpoint>
          <Trackpoint>
            <Time>2022-09-21T10:45:46.000Z</Time>
            <Position>
              <LatitudeDegrees>49.4122056663036346435546875</LatitudeDegrees>
              <LongitudeDegrees>20.4293763823807239532470703125</LongitudeDegrees>
            </Position>
            <AltitudeMeters>463.600006103515625</AltitudeMeters>
            <DistanceMeters>NAN</DistanceMeters>
          </Trackpoint>
          <Trackpoint>
            <Time>2022-09-21T10:45:47.000Z</Time>
            <Position>
              <LatitudeDegrees>49.41220843233168125152587890625</LatitudeDegrees>
              <LongitudeDegrees>20.42937981896102428436279296875</LongitudeDegrees>
            </Position>
            <AltitudeMeters>463.79998779296875</AltitudeMeters>
            <DistanceMeters>NAN</DistanceMeters>
          </Trackpoint>
          <Trackpoint>
            <Time>2022-09-21T10:45:48.000Z</Time>
            <Position>
              <LatitudeDegrees>49.41221111454069614410400390625</LatitudeDegrees>
              <LongitudeDegrees>20.42938283644616603851318359375</LongitudeDegrees>
            </Position>
            <AltitudeMeters>464</AltitudeMeters>
            <DistanceMeters>NAN</DistanceMeters>
          </Trackpoint>
          <Trackpoint>
            <Time>2022-09-21T10:45:50.000Z</Time>
            <Position>
              <LatitudeDegrees>49.41221647895872592926025390625</LatitudeDegrees>
              <LongitudeDegrees>20.42938090860843658447265625</LongitudeDegrees>
            </Position>
            <AltitudeMeters>464.399993896484375</AltitudeMeters>
            <DistanceMeters>NAN</DistanceMeters>
          </Trackpoint>
          <Trackpoint>
            <Time>2022-09-21T10:45:52.000Z</Time>
            <Position>
              <LatitudeDegrees>49.412223435938358306884765625</LatitudeDegrees>
              <LongitudeDegrees>20.429374873638153076171875</LongitudeDegrees>
            </Position>
            <AltitudeMeters>464.600006103515625</AltitudeMeters>
            <DistanceMeters>NAN</DistanceMeters>
          </Trackpoint>
          <Trackpoint>
            <Time>2022-09-21T10:45:53.000Z</Time>
            <Position>
              <LatitudeDegrees>49.412223435938358306884765625</LatitudeDegrees>
              <LongitudeDegrees>20.429374873638153076171875</LongitudeDegrees>
            </Position>
            <AltitudeMeters>464.79998779296875</AltitudeMeters>
            <DistanceMeters>NAN</DistanceMeters>
          </Trackpoint>
          <Trackpoint>
            <Time>2022-09-21T10:45:54.000Z</Time>
            <Position>
              <LatitudeDegrees>49.41222905181348323822021484375</LatitudeDegrees>
              <LongitudeDegrees>20.42937294580042362213134765625</LongitudeDegrees>
            </Position>
            <AltitudeMeters>465</AltitudeMeters>
            <DistanceMeters>NAN</DistanceMeters>
          </Trackpoint>
          <Trackpoint>
            <Time>2022-09-21T10:45:56.000Z</Time>
            <Position>
              <LatitudeDegrees>49.41225671209394931793212890625</LatitudeDegrees>
              <LongitudeDegrees>20.42939205653965473175048828125</LongitudeDegrees>
            </Position>
            <AltitudeMeters>465.20001220703125</AltitudeMeters>
            <DistanceMeters>NAN</DistanceMeters>
          </Trackpoint>
          <Trackpoint>
            <Time>2022-09-21T10:45:58.000Z</Time>
            <Position>
              <LatitudeDegrees>49.412279427051544189453125</LatitudeDegrees>
              <LongitudeDegrees>20.42942189611494541168212890625</LongitudeDegrees>
            </Position>
            <AltitudeMeters>465.600006103515625</AltitudeMeters>
            <DistanceMeters>NAN</DistanceMeters>
          </Trackpoint>
          <Trackpoint>
            <Time>2022-09-21T10:46:00.000Z</Time>
            <Position>
              <LatitudeDegrees>49.41228889860212802886962890625</LatitudeDegrees>
              <LongitudeDegrees>20.42942323721945285797119140625</LongitudeDegrees>
            </Position>
            <AltitudeMeters>465.79998779296875</AltitudeMeters>
            <DistanceMeters>NAN</DistanceMeters>
          </Trackpoint>
          <Trackpoint>
            <Time>2022-09-21T10:46:02.000Z</Time>
            <Position>
              <LatitudeDegrees>49.4123097695410251617431640625</LatitudeDegrees>
              <LongitudeDegrees>20.42942357249557971954345703125</LongitudeDegrees>
            </Position>
            <AltitudeMeters>466</AltitudeMeters>
            <DistanceMeters>NAN</DistanceMeters>
          </Trackpoint>
          <Trackpoint>
            <Time>2022-09-21T10:46:04.000Z</Time>
            <Position>
              <LatitudeDegrees>49.4123325683176517486572265625</LatitudeDegrees>
              <LongitudeDegrees>20.4294119216501712799072265625</LongitudeDegrees>
            </Position>
            <AltitudeMeters>466.20001220703125</AltitudeMeters>
            <DistanceMeters>NAN</DistanceMeters>
          </Trackpoint>
          <Trackpoint>
            <Time>2022-09-21T10:46:05.000Z</Time>
            <Position>
              <LatitudeDegrees>49.4123590551316738128662109375</LatitudeDegrees>
              <LongitudeDegrees>20.42938551865518093109130859375</LongitudeDegrees>
            </Position>
            <AltitudeMeters>466.399993896484375</AltitudeMeters>
            <DistanceMeters>NAN</DistanceMeters>
          </Trackpoint>
          <Trackpoint>
            <Time>2022-09-21T10:46:06.000Z</Time>
            <Position>
              <LatitudeDegrees>49.41238344646990299224853515625</LatitudeDegrees>
              <LongitudeDegrees>20.42937110178172588348388671875</LongitudeDegrees>
            </Position>
            <AltitudeMeters>466.600006103515625</AltitudeMeters>
            <DistanceMeters>NAN</DistanceMeters>
          </Trackpoint>
          <Trackpoint>
            <Time>2022-09-21T10:46:08.000Z</Time>
            <Position>
              <LatitudeDegrees>49.41238696686923503875732421875</LatitudeDegrees>
              <LongitudeDegrees>20.429371185600757598876953125</LongitudeDegrees>
            </Position>
            <AltitudeMeters>467</AltitudeMeters>
            <DistanceMeters>NAN</DistanceMeters>
          </Trackpoint>
          <Trackpoint>
            <Time>2022-09-21T10:46:09.000Z</Time>
            <Position>
              <LatitudeDegrees>49.41238696686923503875732421875</LatitudeDegrees>
              <LongitudeDegrees>20.429371185600757598876953125</LongitudeDegrees>
            </Position>
            <AltitudeMeters>467</AltitudeMeters>
            <DistanceMeters>NAN</DistanceMeters>
          </Trackpoint>
          <Trackpoint>
            <Time>2022-09-21T10:46:13.000Z</Time>
            <Position>
              <LatitudeDegrees>49.41238696686923503875732421875</LatitudeDegrees>
              <LongitudeDegrees>20.429371185600757598876953125</LongitudeDegrees>
            </Position>
            <AltitudeMeters>467.399993896484375</AltitudeMeters>
            <DistanceMeters>NAN</DistanceMeters>
          </Trackpoint>
          <Trackpoint>
            <Time>2022-09-21T10:46:18.000Z</Time>
            <Position>
              <LatitudeDegrees>49.41238696686923503875732421875</LatitudeDegrees>
              <LongitudeDegrees>20.429371185600757598876953125</LongitudeDegrees>
            </Position>
            <AltitudeMeters>468</AltitudeMeters>
            <DistanceMeters>NAN</DistanceMeters>
          </Trackpoint>
          <Trackpoint>
            <Time>2022-09-21T10:46:20.000Z</Time>
            <Position>
              <LatitudeDegrees>49.41242535598576068878173828125</LatitudeDegrees>
              <LongitudeDegrees>20.42932366020977497100830078125</LongitudeDegrees>
            </Position>
            <AltitudeMeters>468</AltitudeMeters>
            <DistanceMeters>NAN</DistanceMeters>
          </Trackpoint>
          <Trackpoint>
            <Time>2022-09-21T10:46:23.000Z</Time>
            <Position>
              <LatitudeDegrees>49.41242954693734645843505859375</LatitudeDegrees>
              <LongitudeDegrees>20.42932567186653614044189453125</LongitudeDegrees>
            </Position>
            <AltitudeMeters>468.20001220703125</AltitudeMeters>
            <DistanceMeters>NAN</DistanceMeters>
          </Trackpoint>
          <Trackpoint>
            <Time>2022-09-21T10:46:25.000Z</Time>
            <Position>
              <LatitudeDegrees>49.41243172623217105865478515625</LatitudeDegrees>
              <LongitudeDegrees>20.42932483367621898651123046875</LongitudeDegrees>
            </Position>
            <AltitudeMeters>468.600006103515625</AltitudeMeters>
            <DistanceMeters>NAN</DistanceMeters>
          </Trackpoint>
          <Trackpoint>
            <Time>2022-09-21T10:46:28.000Z</Time>
            <Position>
              <LatitudeDegrees>49.41246449947357177734375</LatitudeDegrees>
              <LongitudeDegrees>20.42931980453431606292724609375</LongitudeDegrees>
            </Position>
            <AltitudeMeters>469</AltitudeMeters>
            <DistanceMeters>NAN</DistanceMeters>
          </Trackpoint>
          <Trackpoint>
            <Time>2022-09-21T10:46:29.000Z</Time>
            <Position>
              <LatitudeDegrees>49.41246441565454006195068359375</LatitudeDegrees>
              <LongitudeDegrees>20.4293193854391574859619140625</LongitudeDegrees>
            </Position>
            <AltitudeMeters>469.20001220703125</AltitudeMeters>
            <DistanceMeters>NAN</DistanceMeters>
          </Trackpoint>
          <Trackpoint>
            <Time>2022-09-21T10:46:31.000Z</Time>
            <Position>
              <LatitudeDegrees>49.4124676845967769622802734375</LatitudeDegrees>
              <LongitudeDegrees>20.42931728996336460113525390625</LongitudeDegrees>
            </Position>
            <AltitudeMeters>469.399993896484375</AltitudeMeters>
            <DistanceMeters>NAN</DistanceMeters>
          </Trackpoint>
          <Trackpoint>
            <Time>2022-09-21T10:46:33.000Z</Time>
            <Position>
              <LatitudeDegrees>49.41247212700545787811279296875</LatitudeDegrees>
              <LongitudeDegrees>20.42931594885885715484619140625</LongitudeDegrees>
            </Position>
            <AltitudeMeters>469.600006103515625</AltitudeMeters>
            <DistanceMeters>NAN</DistanceMeters>
          </Trackpoint>
          <Trackpoint>
            <Time>2022-09-21T10:46:35.000Z</Time>
            <Position>
              <LatitudeDegrees>49.41247715614736080169677734375</LatitudeDegrees>
              <LongitudeDegrees>20.4293140210211277008056640625</LongitudeDegrees>
            </Position>
            <AltitudeMeters>470</AltitudeMeters>
            <DistanceMeters>NAN</DistanceMeters>
          </Trackpoint>
          <Trackpoint>
            <Time>2022-09-21T10:46:36.000Z</Time>
            <Position>
              <LatitudeDegrees>49.41247832961380481719970703125</LatitudeDegrees>
              <LongitudeDegrees>20.429311506450176239013671875</LongitudeDegrees>
            </Position>
            <AltitudeMeters>470.20001220703125</AltitudeMeters>
            <DistanceMeters>NAN</DistanceMeters>
          </Trackpoint>
          <Trackpoint>
            <Time>2022-09-21T10:46:40.000Z</Time>
            <Position>
              <LatitudeDegrees>49.41249844618141651153564453125</LatitudeDegrees>
              <LongitudeDegrees>20.4293037950992584228515625</LongitudeDegrees>
            </Position>
            <AltitudeMeters>470.600006103515625</AltitudeMeters>
            <DistanceMeters>NAN</DistanceMeters>
          </Trackpoint>
          <Trackpoint>
            <Time>2022-09-21T10:46:42.000Z</Time>
            <Position>
              <LatitudeDegrees>49.41256265155971050262451171875</LatitudeDegrees>
              <LongitudeDegrees>20.4293264262378215789794921875</LongitudeDegrees>
            </Position>
            <AltitudeMeters>470.600006103515625</AltitudeMeters>
            <DistanceMeters>NAN</DistanceMeters>
          </Trackpoint>
          <Trackpoint>
            <Time>2022-09-21T10:46:44.000Z</Time>
            <Position>
              <LatitudeDegrees>49.41259416751563549041748046875</LatitudeDegrees>
              <LongitudeDegrees>20.4293106682598590850830078125</LongitudeDegrees>
            </Position>
            <AltitudeMeters>470.79998779296875</AltitudeMeters>
            <DistanceMeters>NAN</DistanceMeters>
          </Trackpoint>
          <Trackpoint>
            <Time>2022-09-21T10:46:48.000Z</Time>
            <Position>
              <LatitudeDegrees>49.41259232349693775177001953125</LatitudeDegrees>
              <LongitudeDegrees>20.42932751588523387908935546875</LongitudeDegrees>
            </Position>
            <AltitudeMeters>471.20001220703125</AltitudeMeters>
            <DistanceMeters>NAN</DistanceMeters>
          </Trackpoint>
          <Trackpoint>
            <Time>2022-09-21T10:46:53.000Z</Time>
            <Position>
              <LatitudeDegrees>49.41259433515369892120361328125</LatitudeDegrees>
              <LongitudeDegrees>20.42933857999742031097412109375</LongitudeDegrees>
            </Position>
            <AltitudeMeters>471.399993896484375</AltitudeMeters>
            <DistanceMeters>NAN</DistanceMeters>
          </Trackpoint>
          <Trackpoint>
            <Time>2022-09-21T10:47:03.000Z</Time>
            <Position>
              <LatitudeDegrees>49.412604980170726776123046875</LatitudeDegrees>
              <LongitudeDegrees>20.42934176512062549591064453125</LongitudeDegrees>
            </Position>
            <AltitudeMeters>472</AltitudeMeters>
            <DistanceMeters>NAN</DistanceMeters>
          </Trackpoint>
          <Trackpoint>
            <Time>2022-09-21T10:47:07.000Z</Time>
            <Position>
              <LatitudeDegrees>49.412604980170726776123046875</LatitudeDegrees>
              <LongitudeDegrees>20.42934176512062549591064453125</LongitudeDegrees>
            </Position>
            <AltitudeMeters>472.20001220703125</AltitudeMeters>
            <DistanceMeters>NAN</DistanceMeters>
          </Trackpoint>
          <Trackpoint>
            <Time>2022-09-21T10:47:08.000Z</Time>
            <Position>
              <LatitudeDegrees>49.412604980170726776123046875</LatitudeDegrees>
              <LongitudeDegrees>20.42934176512062549591064453125</LongitudeDegrees>
            </Position>
            <AltitudeMeters>472.20001220703125</AltitudeMeters>
            <DistanceMeters>NAN</DistanceMeters>
          </Trackpoint>
          <Trackpoint>
            <Time>2022-09-21T10:47:17.000Z</Time>
            <Position>
              <LatitudeDegrees>49.41263557411730289459228515625</LatitudeDegrees>
              <LongitudeDegrees>20.4293512366712093353271484375</LongitudeDegrees>
            </Position>
            <AltitudeMeters>472.600006103515625</AltitudeMeters>
            <DistanceMeters>NAN</DistanceMeters>
          </Trackpoint>
          <Trackpoint>
            <Time>2022-09-21T10:47:21.000Z</Time>
            <Position>
              <LatitudeDegrees>49.4126416929066181182861328125</LatitudeDegrees>
              <LongitudeDegrees>20.429352410137653350830078125</LongitudeDegrees>
            </Position>
            <AltitudeMeters>472.79998779296875</AltitudeMeters>
            <DistanceMeters>NAN</DistanceMeters>
          </Trackpoint>
          <Trackpoint>
            <Time>2022-09-21T10:47:23.000Z</Time>
            <Position>
              <LatitudeDegrees>49.4126450456678867340087890625</LatitudeDegrees>
              <LongitudeDegrees>20.42935299687087535858154296875</LongitudeDegrees>
            </Position>
            <AltitudeMeters>472.79998779296875</AltitudeMeters>
            <DistanceMeters>NAN</DistanceMeters>
          </Trackpoint>
          <Trackpoint>
            <Time>2022-09-21T10:47:24.000Z</Time>
            <Position>
              <LatitudeDegrees>49.41264932043850421905517578125</LatitudeDegrees>
              <LongitudeDegrees>20.4293529130518436431884765625</LongitudeDegrees>
            </Position>
            <AltitudeMeters>473</AltitudeMeters>
            <DistanceMeters>NAN</DistanceMeters>
          </Trackpoint>
          <Trackpoint>
            <Time>2022-09-21T10:47:25.000Z</Time>
            <Position>
              <LatitudeDegrees>49.41265099681913852691650390625</LatitudeDegrees>
              <LongitudeDegrees>20.42935316450893878936767578125</LongitudeDegrees>
            </Position>
            <AltitudeMeters>473</AltitudeMeters>
            <DistanceMeters>NAN</DistanceMeters>
          </Trackpoint>
          <Trackpoint>
            <Time>2022-09-21T10:47:28.000Z</Time>
            <Position>
              <LatitudeDegrees>49.41266692243516445159912109375</LatitudeDegrees>
              <LongitudeDegrees>20.42936154641211032867431640625</LongitudeDegrees>
            </Position>
            <AltitudeMeters>473.20001220703125</AltitudeMeters>
            <DistanceMeters>NAN</DistanceMeters>
          </Trackpoint>
          <Trackpoint>
            <Time>2022-09-21T10:47:30.000Z</Time>
            <Position>
              <LatitudeDegrees>49.41267840564250946044921875</LatitudeDegrees>
              <LongitudeDegrees>20.4293733648955821990966796875</LongitudeDegrees>
            </Position>
            <AltitudeMeters>473.20001220703125</AltitudeMeters>
            <DistanceMeters>NAN</DistanceMeters>
          </Trackpoint>
          <Trackpoint>
            <Time>2022-09-21T10:47:34.000Z</Time>
            <Position>
              <LatitudeDegrees>49.4126872904598712921142578125</LatitudeDegrees>
              <LongitudeDegrees>20.429390631616115570068359375</LongitudeDegrees>
            </Position>
            <AltitudeMeters>473.399993896484375</AltitudeMeters>
            <DistanceMeters>NAN</DistanceMeters>
          </Trackpoint>
          <Trackpoint>
            <Time>2022-09-21T10:47:39.000Z</Time>
            <Position>
              <LatitudeDegrees>49.41269257105886936187744140625</LatitudeDegrees>
              <LongitudeDegrees>20.42939323000609874725341796875</LongitudeDegrees>
            </Position>
            <AltitudeMeters>473.600006103515625</AltitudeMeters>
            <DistanceMeters>NAN</DistanceMeters>
          </Trackpoint>
          <Trackpoint>
            <Time>2022-09-21T10:47:41.000Z</Time>
            <Position>
              <LatitudeDegrees>49.4126951694488525390625</LatitudeDegrees>
              <LongitudeDegrees>20.4293944872915744781494140625</LongitudeDegrees>
            </Position>
            <AltitudeMeters>473.79998779296875</AltitudeMeters>
            <DistanceMeters>NAN</DistanceMeters>
          </Trackpoint>
          <Trackpoint>
            <Time>2022-09-21T10:47:47.000Z</Time>
            <Position>
              <LatitudeDegrees>49.41269407980144023895263671875</LatitudeDegrees>
              <LongitudeDegrees>20.4293968342244625091552734375</LongitudeDegrees>
            </Position>
            <AltitudeMeters>474</AltitudeMeters>
            <DistanceMeters>NAN</DistanceMeters>
          </Trackpoint>
          <Trackpoint>
            <Time>2022-09-21T10:47:51.000Z</Time>
            <Position>
              <LatitudeDegrees>49.4126953370869159698486328125</LatitudeDegrees>
              <LongitudeDegrees>20.42940563522279262542724609375</LongitudeDegrees>
            </Position>
            <AltitudeMeters>474.20001220703125</AltitudeMeters>
            <DistanceMeters>NAN</DistanceMeters>
          </Trackpoint>
          <Trackpoint>
            <Time>2022-09-21T10:47:53.000Z</Time>
            <Position>
              <LatitudeDegrees>49.412708580493927001953125</LatitudeDegrees>
              <LongitudeDegrees>20.4293998517096042633056640625</LongitudeDegrees>
            </Position>
            <AltitudeMeters>474.399993896484375</AltitudeMeters>
            <DistanceMeters>NAN</DistanceMeters>
          </Trackpoint>
          <Trackpoint>
            <Time>2022-09-21T10:47:55.000Z</Time>
            <Position>
              <LatitudeDegrees>49.4127114303410053253173828125</LatitudeDegrees>
              <LongitudeDegrees>20.42939440347254276275634765625</LongitudeDegrees>
            </Position>
            <AltitudeMeters>474.399993896484375</AltitudeMeters>
            <DistanceMeters>NAN</DistanceMeters>
          </Trackpoint>
          <Trackpoint>
            <Time>2022-09-21T10:48:02.000Z</Time>
            <Position>
              <LatitudeDegrees>49.412724673748016357421875</LatitudeDegrees>
              <LongitudeDegrees>20.4293639771640300750732421875</LongitudeDegrees>
            </Position>
            <AltitudeMeters>474.399993896484375</AltitudeMeters>
            <DistanceMeters>NAN</DistanceMeters>
          </Trackpoint>
          <Trackpoint>
            <Time>2022-09-21T10:48:05.000Z</Time>
            <Position>
              <LatitudeDegrees>49.4127211533486843109130859375</LatitudeDegrees>
              <LongitudeDegrees>20.42938602156937122344970703125</LongitudeDegrees>
            </Position>
            <AltitudeMeters>474.20001220703125</AltitudeMeters>
            <DistanceMeters>NAN</DistanceMeters>
          </Trackpoint>
          <Trackpoint>
            <Time>2022-09-21T10:48:06.000Z</Time>
            <Position>
              <LatitudeDegrees>49.4127211533486843109130859375</LatitudeDegrees>
              <LongitudeDegrees>20.42939138598740100860595703125</LongitudeDegrees>
            </Position>
            <AltitudeMeters>474.20001220703125</AltitudeMeters>
            <DistanceMeters>NAN</DistanceMeters>
          </Trackpoint>
          <Trackpoint>
            <Time>2022-09-21T10:48:10.000Z</Time>
            <Position>
              <LatitudeDegrees>49.41270296461880207061767578125</LatitudeDegrees>
              <LongitudeDegrees>20.4294692538678646087646484375</LongitudeDegrees>
            </Position>
            <AltitudeMeters>474.20001220703125</AltitudeMeters>
            <DistanceMeters>NAN</DistanceMeters>
          </Trackpoint>
          <Trackpoint>
            <Time>2022-09-21T10:48:14.000Z</Time>
            <Position>
              <LatitudeDegrees>49.4127211533486843109130859375</LatitudeDegrees>
              <LongitudeDegrees>20.42946699075400829315185546875</LongitudeDegrees>
            </Position>
            <AltitudeMeters>474.20001220703125</AltitudeMeters>
            <DistanceMeters>NAN</DistanceMeters>
          </Trackpoint>
          <Trackpoint>
            <Time>2022-09-21T10:48:15.000Z</Time>
            <Position>
              <LatitudeDegrees>49.41271989606320858001708984375</LatitudeDegrees>
              <LongitudeDegrees>20.42947201989591121673583984375</LongitudeDegrees>
            </Position>
            <AltitudeMeters>474.20001220703125</AltitudeMeters>
            <DistanceMeters>NAN</DistanceMeters>
          </Trackpoint>
          <Trackpoint>
            <Time>2022-09-21T10:48:19.000Z</Time>
            <Position>
              <LatitudeDegrees>49.41272660158574581146240234375</LatitudeDegrees>
              <LongitudeDegrees>20.42947839014232158660888671875</LongitudeDegrees>
            </Position>
            <AltitudeMeters>474</AltitudeMeters>
            <DistanceMeters>NAN</DistanceMeters>
          </Trackpoint>
          <Trackpoint>
            <Time>2022-09-21T10:48:20.000Z</Time>
            <Position>
              <LatitudeDegrees>49.4127674214541912078857421875</LatitudeDegrees>
              <LongitudeDegrees>20.42946581728756427764892578125</LongitudeDegrees>
            </Position>
            <AltitudeMeters>474</AltitudeMeters>
            <DistanceMeters>NAN</DistanceMeters>
          </Trackpoint>
          <Trackpoint>
            <Time>2022-09-21T10:48:21.000Z</Time>
            <Position>
              <LatitudeDegrees>49.41278167068958282470703125</LatitudeDegrees>
              <LongitudeDegrees>20.42948685586452484130859375</LongitudeDegrees>
            </Position>
            <AltitudeMeters>474</AltitudeMeters>
            <DistanceMeters>NAN</DistanceMeters>
          </Trackpoint>
          <Trackpoint>
            <Time>2022-09-21T10:48:23.000Z</Time>
            <Position>
              <LatitudeDegrees>49.41280589438974857330322265625</LatitudeDegrees>
              <LongitudeDegrees>20.42953454889357089996337890625</LongitudeDegrees>
            </Position>
            <AltitudeMeters>474</AltitudeMeters>
            <DistanceMeters>NAN</DistanceMeters>
          </Trackpoint>
          <Trackpoint>
            <Time>2022-09-21T10:48:26.000Z</Time>
            <Position>
              <LatitudeDegrees>49.41283858381211757659912109375</LatitudeDegrees>
              <LongitudeDegrees>20.42956732213497161865234375</LongitudeDegrees>
            </Position>
            <AltitudeMeters>474</AltitudeMeters>
            <DistanceMeters>NAN</DistanceMeters>
          </Trackpoint>
          <Trackpoint>
            <Time>2022-09-21T10:48:27.000Z</Time>
            <Position>
              <LatitudeDegrees>49.41286146640777587890625</LatitudeDegrees>
              <LongitudeDegrees>20.42956422083079814910888671875</LongitudeDegrees>
            </Position>
            <AltitudeMeters>474</AltitudeMeters>
            <DistanceMeters>NAN</DistanceMeters>
          </Trackpoint>
          <Trackpoint>
            <Time>2022-09-21T10:48:29.000Z</Time>
            <Position>
              <LatitudeDegrees>49.412913434207439422607421875</LatitudeDegrees>
              <LongitudeDegrees>20.42949699796736240386962890625</LongitudeDegrees>
            </Position>
            <AltitudeMeters>474</AltitudeMeters>
            <DistanceMeters>NAN</DistanceMeters>
          </Trackpoint>
          <Trackpoint>
            <Time>2022-09-21T10:48:35.000Z</Time>
            <Position>
              <LatitudeDegrees>49.41310144029557704925537109375</LatitudeDegrees>
              <LongitudeDegrees>20.42939792387187480926513671875</LongitudeDegrees>
            </Position>
            <AltitudeMeters>473.79998779296875</AltitudeMeters>
            <DistanceMeters>NAN</DistanceMeters>
          </Trackpoint>
          <Trackpoint>
            <Time>2022-09-21T10:48:41.000Z</Time>
            <Position>
              <LatitudeDegrees>49.41333353519439697265625</LatitudeDegrees>
              <LongitudeDegrees>20.42937546037137508392333984375</LongitudeDegrees>
            </Position>
            <AltitudeMeters>473.600006103515625</AltitudeMeters>
            <DistanceMeters>NAN</DistanceMeters>
          </Trackpoint>
          <Trackpoint>
            <Time>2022-09-21T10:48:43.000Z</Time>
            <Position>
              <LatitudeDegrees>49.41340520046651363372802734375</LatitudeDegrees>
              <LongitudeDegrees>20.4293619655072689056396484375</LongitudeDegrees>
            </Position>
            <AltitudeMeters>473.20001220703125</AltitudeMeters>
            <DistanceMeters>NAN</DistanceMeters>
          </Trackpoint>
          <Trackpoint>
            <Time>2022-09-21T10:48:47.000Z</Time>
            <Position>
              <LatitudeDegrees>49.4135519675910472869873046875</LatitudeDegrees>
              <LongitudeDegrees>20.42935718782246112823486328125</LongitudeDegrees>
            </Position>
            <AltitudeMeters>472.600006103515625</AltitudeMeters>
            <DistanceMeters>NAN</DistanceMeters>
          </Trackpoint>
          <Trackpoint>
            <Time>2022-09-21T10:48:51.000Z</Time>
            <Position>
              <LatitudeDegrees>49.41367342136800289154052734375</LatitudeDegrees>
              <LongitudeDegrees>20.42934310622513294219970703125</LongitudeDegrees>
            </Position>
            <AltitudeMeters>472.600006103515625</AltitudeMeters>
            <DistanceMeters>NAN</DistanceMeters>
          </Trackpoint>
          <Trackpoint>
            <Time>2022-09-21T10:48:56.000Z</Time>
            <Position>
              <LatitudeDegrees>49.4138285703957080841064453125</LatitudeDegrees>
              <LongitudeDegrees>20.4293458722531795501708984375</LongitudeDegrees>
            </Position>
            <AltitudeMeters>472.399993896484375</AltitudeMeters>
            <DistanceMeters>NAN</DistanceMeters>
          </Trackpoint>
          <Trackpoint>
            <Time>2022-09-21T10:48:58.000Z</Time>
            <Position>
              <LatitudeDegrees>49.4139164127409458160400390625</LatitudeDegrees>
              <LongitudeDegrees>20.42937663383781909942626953125</LongitudeDegrees>
            </Position>
            <AltitudeMeters>472.20001220703125</AltitudeMeters>
            <DistanceMeters>NAN</DistanceMeters>
          </Trackpoint>
          <Trackpoint>
            <Time>2022-09-21T10:49:00.000Z</Time>
            <Position>
              <LatitudeDegrees>49.4140107929706573486328125</LatitudeDegrees>
              <LongitudeDegrees>20.429396331310272216796875</LongitudeDegrees>
            </Position>
            <AltitudeMeters>471</AltitudeMeters>
            <DistanceMeters>NAN</DistanceMeters>
          </Trackpoint>
          <Trackpoint>
            <Time>2022-09-21T10:49:01.000Z</Time>
            <Position>
              <LatitudeDegrees>49.4140595756471157073974609375</LatitudeDegrees>
              <LongitudeDegrees>20.429404713213443756103515625</LongitudeDegrees>
            </Position>
            <AltitudeMeters>470.79998779296875</AltitudeMeters>
            <DistanceMeters>NAN</DistanceMeters>
          </Trackpoint>
          <Trackpoint>
            <Time>2022-09-21T10:49:04.000Z</Time>
            <Position>
              <LatitudeDegrees>49.4142235256731510162353515625</LatitudeDegrees>
              <LongitudeDegrees>20.4294538311660289764404296875</LongitudeDegrees>
            </Position>
            <AltitudeMeters>469.79998779296875</AltitudeMeters>
            <DistanceMeters>NAN</DistanceMeters>
          </Trackpoint>
          <Trackpoint>
            <Time>2022-09-21T10:49:05.000Z</Time>
            <Position>
              <LatitudeDegrees>49.414269961416721343994140625</LatitudeDegrees>
              <LongitudeDegrees>20.42948526330292224884033203125</LongitudeDegrees>
            </Position>
            <AltitudeMeters>469.600006103515625</AltitudeMeters>
            <DistanceMeters>NAN</DistanceMeters>
          </Trackpoint>
          <Trackpoint>
            <Time>2022-09-21T10:49:08.000Z</Time>
            <Position>
              <LatitudeDegrees>49.4144050776958465576171875</LatitudeDegrees>
              <LongitudeDegrees>20.4295746982097625732421875</LongitudeDegrees>
            </Position>
            <AltitudeMeters>469.600006103515625</AltitudeMeters>
            <DistanceMeters>NAN</DistanceMeters>
          </Trackpoint>
          <Trackpoint>
            <Time>2022-09-21T10:49:09.000Z</Time>
            <Position>
              <LatitudeDegrees>49.4144471548497676849365234375</LatitudeDegrees>
              <LongitudeDegrees>20.4295809008181095123291015625</LongitudeDegrees>
            </Position>
            <AltitudeMeters>469.600006103515625</AltitudeMeters>
            <DistanceMeters>NAN</DistanceMeters>
          </Trackpoint>
          <Trackpoint>
            <Time>2022-09-21T10:49:10.000Z</Time>
            <Position>
              <LatitudeDegrees>49.41448780708014965057373046875</LatitudeDegrees>
              <LongitudeDegrees>20.4295909591019153594970703125</LongitudeDegrees>
            </Position>
            <AltitudeMeters>469.600006103515625</AltitudeMeters>
            <DistanceMeters>NAN</DistanceMeters>
          </Trackpoint>
          <Trackpoint>
            <Time>2022-09-21T10:49:12.000Z</Time>
            <Position>
              <LatitudeDegrees>49.414540864527225494384765625</LatitudeDegrees>
              <LongitudeDegrees>20.42963043786585330963134765625</LongitudeDegrees>
            </Position>
            <AltitudeMeters>469.600006103515625</AltitudeMeters>
            <DistanceMeters>NAN</DistanceMeters>
          </Trackpoint>
          <Trackpoint>
            <Time>2022-09-21T10:49:13.000Z</Time>
            <Position>
              <LatitudeDegrees>49.41455461084842681884765625</LatitudeDegrees>
              <LongitudeDegrees>20.42965357191860675811767578125</LongitudeDegrees>
            </Position>
            <AltitudeMeters>469.600006103515625</AltitudeMeters>
            <DistanceMeters>NAN</DistanceMeters>
          </Trackpoint>
          <Trackpoint>
            <Time>2022-09-21T10:49:14.000Z</Time>
            <Position>
              <LatitudeDegrees>49.41457229666411876678466796875</LatitudeDegrees>
              <LongitudeDegrees>20.42967368848621845245361328125</LongitudeDegrees>
            </Position>
            <AltitudeMeters>469.600006103515625</AltitudeMeters>
            <DistanceMeters>NAN</DistanceMeters>
          </Trackpoint>
          <Trackpoint>
            <Time>2022-09-21T10:49:17.000Z</Time>
            <Position>
              <LatitudeDegrees>49.41461873240768909454345703125</LatitudeDegrees>
              <LongitudeDegrees>20.42972515337169170379638671875</LongitudeDegrees>
            </Position>
            <AltitudeMeters>469.79998779296875</AltitudeMeters>
            <DistanceMeters>NAN</DistanceMeters>
          </Trackpoint>
          <Trackpoint>
            <Time>2022-09-21T10:49:23.000Z</Time>
            <Position>
              <LatitudeDegrees>49.414777569472789764404296875</LatitudeDegrees>
              <LongitudeDegrees>20.4298697412014007568359375</LongitudeDegrees>
            </Position>
            <AltitudeMeters>470.399993896484375</AltitudeMeters>
            <DistanceMeters>NAN</DistanceMeters>
          </Trackpoint>
          <Trackpoint>
            <Time>2022-09-21T10:49:27.000Z</Time>
            <Position>
              <LatitudeDegrees>49.41492140293121337890625</LatitudeDegrees>
              <LongitudeDegrees>20.42996219359338283538818359375</LongitudeDegrees>
            </Position>
            <AltitudeMeters>470.79998779296875</AltitudeMeters>
            <DistanceMeters>NAN</DistanceMeters>
          </Trackpoint>
          <Trackpoint>
            <Time>2022-09-21T10:49:28.000Z</Time>
            <Position>
              <LatitudeDegrees>49.414943866431713104248046875</LatitudeDegrees>
              <LongitudeDegrees>20.4299904406070709228515625</LongitudeDegrees>
            </Position>
            <AltitudeMeters>471</AltitudeMeters>
            <DistanceMeters>NAN</DistanceMeters>
          </Trackpoint>
          <Trackpoint>
            <Time>2022-09-21T10:49:29.000Z</Time>
            <Position>
              <LatitudeDegrees>49.4149576127529144287109375</LatitudeDegrees>
              <LongitudeDegrees>20.43001935817301273345947265625</LongitudeDegrees>
            </Position>
            <AltitudeMeters>471</AltitudeMeters>
            <DistanceMeters>NAN</DistanceMeters>
          </Trackpoint>
          <Trackpoint>
            <Time>2022-09-21T10:49:32.000Z</Time>
            <Position>
              <LatitudeDegrees>49.41502810455858707427978515625</LatitudeDegrees>
              <LongitudeDegrees>20.4300945438444614410400390625</LongitudeDegrees>
            </Position>
            <AltitudeMeters>471.20001220703125</AltitudeMeters>
            <DistanceMeters>NAN</DistanceMeters>
          </Trackpoint>
          <Trackpoint>
            <Time>2022-09-21T10:49:34.000Z</Time>
            <Position>
              <LatitudeDegrees>49.41508057527244091033935546875</LatitudeDegrees>
              <LongitudeDegrees>20.4301218688488006591796875</LongitudeDegrees>
            </Position>
            <AltitudeMeters>471.399993896484375</AltitudeMeters>
            <DistanceMeters>NAN</DistanceMeters>
          </Trackpoint>
          <Trackpoint>
            <Time>2022-09-21T10:49:40.000Z</Time>
            <Position>
              <LatitudeDegrees>49.4152420945465564727783203125</LatitudeDegrees>
              <LongitudeDegrees>20.4302316717803478240966796875</LongitudeDegrees>
            </Position>
            <AltitudeMeters>471.399993896484375</AltitudeMeters>
            <DistanceMeters>NAN</DistanceMeters>
          </Trackpoint>
          <Trackpoint>
            <Time>2022-09-21T10:49:47.000Z</Time>
            <Position>
              <LatitudeDegrees>49.41538299433887004852294921875</LatitudeDegrees>
              <LongitudeDegrees>20.43027718551456928253173828125</LongitudeDegrees>
            </Position>
            <AltitudeMeters>471</AltitudeMeters>
            <DistanceMeters>NAN</DistanceMeters>
          </Trackpoint>
          <Trackpoint>
            <Time>2022-09-21T10:49:53.000Z</Time>
            <Position>
              <LatitudeDegrees>49.4155039452016353607177734375</LatitudeDegrees>
              <LongitudeDegrees>20.43034440837800502777099609375</LongitudeDegrees>
            </Position>
            <AltitudeMeters>470.79998779296875</AltitudeMeters>
            <DistanceMeters>NAN</DistanceMeters>
          </Trackpoint>
          <Trackpoint>
            <Time>2022-09-21T10:49:58.000Z</Time>
            <Position>
              <LatitudeDegrees>49.41560511477291584014892578125</LatitudeDegrees>
              <LongitudeDegrees>20.430390425026416778564453125</LongitudeDegrees>
            </Position>
            <AltitudeMeters>470.399993896484375</AltitudeMeters>
            <DistanceMeters>NAN</DistanceMeters>
          </Trackpoint>
          <Trackpoint>
            <Time>2022-09-21T10:50:01.000Z</Time>
            <Position>
              <LatitudeDegrees>49.4156692363321781158447265625</LatitudeDegrees>
              <LongitudeDegrees>20.43041414581239223480224609375</LongitudeDegrees>
            </Position>
            <AltitudeMeters>470</AltitudeMeters>
            <DistanceMeters>NAN</DistanceMeters>
          </Trackpoint>
          <Trackpoint>
            <Time>2022-09-21T10:50:05.000Z</Time>
            <Position>
              <LatitudeDegrees>49.41576956771314144134521484375</LatitudeDegrees>
              <LongitudeDegrees>20.4304207675158977508544921875</LongitudeDegrees>
            </Position>
            <AltitudeMeters>469.600006103515625</AltitudeMeters>
            <DistanceMeters>NAN</DistanceMeters>
          </Trackpoint>
          <Trackpoint>
            <Time>2022-09-21T10:50:10.000Z</Time>
            <Position>
              <LatitudeDegrees>49.41587886773049831390380859375</LatitudeDegrees>
              <LongitudeDegrees>20.4304707236588001251220703125</LongitudeDegrees>
            </Position>
            <AltitudeMeters>469.399993896484375</AltitudeMeters>
            <DistanceMeters>NAN</DistanceMeters>
          </Trackpoint>
          <Trackpoint>
            <Time>2022-09-21T10:50:14.000Z</Time>
            <Position>
              <LatitudeDegrees>49.41597886383533477783203125</LatitudeDegrees>
              <LongitudeDegrees>20.43045069091022014617919921875</LongitudeDegrees>
            </Position>
            <AltitudeMeters>469.600006103515625</AltitudeMeters>
            <DistanceMeters>NAN</DistanceMeters>
          </Trackpoint>
          <Trackpoint>
            <Time>2022-09-21T10:50:15.000Z</Time>
            <Position>
              <LatitudeDegrees>49.41600074060261249542236328125</LatitudeDegrees>
              <LongitudeDegrees>20.43047885410487651824951171875</LongitudeDegrees>
            </Position>
            <AltitudeMeters>469.600006103515625</AltitudeMeters>
            <DistanceMeters>NAN</DistanceMeters>
          </Trackpoint>
          <Trackpoint>
            <Time>2022-09-21T10:50:16.000Z</Time>
            <Position>
              <LatitudeDegrees>49.4160209409892559051513671875</LatitudeDegrees>
              <LongitudeDegrees>20.43050701729953289031982421875</LongitudeDegrees>
            </Position>
            <AltitudeMeters>469.600006103515625</AltitudeMeters>
            <DistanceMeters>NAN</DistanceMeters>
          </Trackpoint>
          <Trackpoint>
            <Time>2022-09-21T10:50:19.000Z</Time>
            <Position>
              <LatitudeDegrees>49.41611356101930141448974609375</LatitudeDegrees>
              <LongitudeDegrees>20.430562086403369903564453125</LongitudeDegrees>
            </Position>
            <AltitudeMeters>469.600006103515625</AltitudeMeters>
            <DistanceMeters>NAN</DistanceMeters>
          </Trackpoint>
          <Trackpoint>
            <Time>2022-09-21T10:50:20.000Z</Time>
            <Position>
              <LatitudeDegrees>49.416148848831653594970703125</LatitudeDegrees>
              <LongitudeDegrees>20.43053266592323780059814453125</LongitudeDegrees>
            </Position>
            <AltitudeMeters>469.399993896484375</AltitudeMeters>
            <DistanceMeters>NAN</DistanceMeters>
          </Trackpoint>
          <Trackpoint>
            <Time>2022-09-21T10:50:22.000Z</Time>
            <Position>
              <LatitudeDegrees>49.4161825440824031829833984375</LatitudeDegrees>
              <LongitudeDegrees>20.43060575611889362335205078125</LongitudeDegrees>
            </Position>
            <AltitudeMeters>469.399993896484375</AltitudeMeters>
            <DistanceMeters>NAN</DistanceMeters>
          </Trackpoint>
          <Trackpoint>
            <Time>2022-09-21T10:50:26.000Z</Time>
            <Position>
              <LatitudeDegrees>49.4161771796643733978271484375</LatitudeDegrees>
              <LongitudeDegrees>20.4307741485536098480224609375</LongitudeDegrees>
            </Position>
            <AltitudeMeters>469.399993896484375</AltitudeMeters>
            <DistanceMeters>NAN</DistanceMeters>
          </Trackpoint>
          <Trackpoint>
            <Time>2022-09-21T10:50:27.000Z</Time>
            <Position>
              <LatitudeDegrees>49.41618396900594234466552734375</LatitudeDegrees>
              <LongitudeDegrees>20.43077071197330951690673828125</LongitudeDegrees>
            </Position>
            <AltitudeMeters>469.600006103515625</AltitudeMeters>
            <DistanceMeters>NAN</DistanceMeters>
          </Trackpoint>
          <Trackpoint>
            <Time>2022-09-21T10:50:30.000Z</Time>
            <Position>
              <LatitudeDegrees>49.41619050689041614532470703125</LatitudeDegrees>
              <LongitudeDegrees>20.43080289848148822784423828125</LongitudeDegrees>
            </Position>
            <AltitudeMeters>469.600006103515625</AltitudeMeters>
            <DistanceMeters>NAN</DistanceMeters>
          </Trackpoint>
          <Trackpoint>
            <Time>2022-09-21T10:50:35.000Z</Time>
            <Position>
              <LatitudeDegrees>49.416191093623638153076171875</LatitudeDegrees>
              <LongitudeDegrees>20.4308675229549407958984375</LongitudeDegrees>
            </Position>
            <AltitudeMeters>469.600006103515625</AltitudeMeters>
            <DistanceMeters>NAN</DistanceMeters>
          </Trackpoint>
          <Trackpoint>
            <Time>2022-09-21T10:50:39.000Z</Time>
            <Position>
              <LatitudeDegrees>49.41618598066270351409912109375</LatitudeDegrees>
              <LongitudeDegrees>20.430876910686492919921875</LongitudeDegrees>
            </Position>
            <AltitudeMeters>469</AltitudeMeters>
            <DistanceMeters>NAN</DistanceMeters>
          </Trackpoint>
          <Trackpoint>
            <Time>2022-09-21T10:50:41.000Z</Time>
            <Position>
              <LatitudeDegrees>49.41618598066270351409912109375</LatitudeDegrees>
              <LongitudeDegrees>20.430876910686492919921875</LongitudeDegrees>
            </Position>
            <AltitudeMeters>469</AltitudeMeters>
            <DistanceMeters>NAN</DistanceMeters>
          </Trackpoint>
          <Trackpoint>
            <Time>2022-09-21T10:50:49.000Z</Time>
            <Position>
              <LatitudeDegrees>49.416186399757862091064453125</LatitudeDegrees>
              <LongitudeDegrees>20.43088965117931365966796875</LongitudeDegrees>
            </Position>
            <AltitudeMeters>469</AltitudeMeters>
            <DistanceMeters>NAN</DistanceMeters>
          </Trackpoint>
          <Trackpoint>
            <Time>2022-09-21T10:50:55.000Z</Time>
            <Position>
              <LatitudeDegrees>49.41618732176721096038818359375</LatitudeDegrees>
              <LongitudeDegrees>20.430912114679813385009765625</LongitudeDegrees>
            </Position>
            <AltitudeMeters>469</AltitudeMeters>
            <DistanceMeters>NAN</DistanceMeters>
          </Trackpoint>
          <Trackpoint>
            <Time>2022-09-21T10:50:59.000Z</Time>
            <Position>
              <LatitudeDegrees>49.4161726534366607666015625</LatitudeDegrees>
              <LongitudeDegrees>20.43095813132822513580322265625</LongitudeDegrees>
            </Position>
            <AltitudeMeters>469.20001220703125</AltitudeMeters>
            <DistanceMeters>NAN</DistanceMeters>
          </Trackpoint>
          <Trackpoint>
            <Time>2022-09-21T10:51:00.000Z</Time>
            <Position>
              <LatitudeDegrees>49.41616469062864780426025390625</LatitudeDegrees>
              <LongitudeDegrees>20.4309935867786407470703125</LongitudeDegrees>
            </Position>
            <AltitudeMeters>469.20001220703125</AltitudeMeters>
            <DistanceMeters>NAN</DistanceMeters>
          </Trackpoint>
          <Trackpoint>
            <Time>2022-09-21T10:51:02.000Z</Time>
            <Position>
              <LatitudeDegrees>49.41615614108741283416748046875</LatitudeDegrees>
              <LongitudeDegrees>20.4310634918510913848876953125</LongitudeDegrees>
            </Position>
            <AltitudeMeters>469.399993896484375</AltitudeMeters>
            <DistanceMeters>NAN</DistanceMeters>
          </Trackpoint>
          <Trackpoint>
            <Time>2022-09-21T10:51:04.000Z</Time>
            <Position>
              <LatitudeDegrees>49.41620014607906341552734375</LatitudeDegrees>
              <LongitudeDegrees>20.43110867030918598175048828125</LongitudeDegrees>
            </Position>
            <AltitudeMeters>469.399993896484375</AltitudeMeters>
            <DistanceMeters>NAN</DistanceMeters>
          </Trackpoint>
          <Trackpoint>
            <Time>2022-09-21T10:51:05.000Z</Time>
            <Position>
              <LatitudeDegrees>49.4162130542099475860595703125</LatitudeDegrees>
              <LongitudeDegrees>20.4311593808233737945556640625</LongitudeDegrees>
            </Position>
            <AltitudeMeters>469.399993896484375</AltitudeMeters>
            <DistanceMeters>NAN</DistanceMeters>
          </Trackpoint>
          <Trackpoint>
            <Time>2022-09-21T10:51:09.000Z</Time>
            <Position>
              <LatitudeDegrees>49.4162730686366558074951171875</LatitudeDegrees>
              <LongitudeDegrees>20.431166924536228179931640625</LongitudeDegrees>
            </Position>
            <AltitudeMeters>469.600006103515625</AltitudeMeters>
            <DistanceMeters>NAN</DistanceMeters>
          </Trackpoint>
          <Trackpoint>
            <Time>2022-09-21T10:51:12.000Z</Time>
            <Position>
              <LatitudeDegrees>49.416315816342830657958984375</LatitudeDegrees>
              <LongitudeDegrees>20.4312177188694477081298828125</LongitudeDegrees>
            </Position>
            <AltitudeMeters>469.600006103515625</AltitudeMeters>
            <DistanceMeters>NAN</DistanceMeters>
          </Trackpoint>
          <Trackpoint>
            <Time>2022-09-21T10:51:13.000Z</Time>
            <Position>
              <LatitudeDegrees>49.41632696427404880523681640625</LatitudeDegrees>
              <LongitudeDegrees>20.4312344826757907867431640625</LongitudeDegrees>
            </Position>
            <AltitudeMeters>469.600006103515625</AltitudeMeters>
            <DistanceMeters>NAN</DistanceMeters>
          </Trackpoint>
          <Trackpoint>
            <Time>2022-09-21T10:51:17.000Z</Time>
            <Position>
              <LatitudeDegrees>49.41634498536586761474609375</LatitudeDegrees>
              <LongitudeDegrees>20.431252084672451019287109375</LongitudeDegrees>
            </Position>
            <AltitudeMeters>470</AltitudeMeters>
            <DistanceMeters>NAN</DistanceMeters>
          </Trackpoint>
          <Trackpoint>
            <Time>2022-09-21T10:51:20.000Z</Time>
            <Position>
              <LatitudeDegrees>49.416410028934478759765625</LatitudeDegrees>
              <LongitudeDegrees>20.43127295561134815216064453125</LongitudeDegrees>
            </Position>
            <AltitudeMeters>470.20001220703125</AltitudeMeters>
            <DistanceMeters>NAN</DistanceMeters>
          </Trackpoint>
          <Trackpoint>
            <Time>2022-09-21T10:51:21.000Z</Time>
            <Position>
              <LatitudeDegrees>49.41644699312746524810791015625</LatitudeDegrees>
              <LongitudeDegrees>20.4312924854457378387451171875</LongitudeDegrees>
            </Position>
            <AltitudeMeters>470.20001220703125</AltitudeMeters>
            <DistanceMeters>NAN</DistanceMeters>
          </Trackpoint>
          <Trackpoint>
            <Time>2022-09-21T10:51:24.000Z</Time>
            <Position>
              <LatitudeDegrees>49.4164980389177799224853515625</LatitudeDegrees>
              <LongitudeDegrees>20.4313290305435657501220703125</LongitudeDegrees>
            </Position>
            <AltitudeMeters>470.399993896484375</AltitudeMeters>
            <DistanceMeters>NAN</DistanceMeters>
          </Trackpoint>
          <Trackpoint>
            <Time>2022-09-21T10:51:25.000Z</Time>
            <Position>
              <LatitudeDegrees>49.41649711690843105316162109375</LatitudeDegrees>
              <LongitudeDegrees>20.4313327185809612274169921875</LongitudeDegrees>
            </Position>
            <AltitudeMeters>470.600006103515625</AltitudeMeters>
            <DistanceMeters>NAN</DistanceMeters>
          </Trackpoint>
          <Trackpoint>
            <Time>2022-09-21T10:51:26.000Z</Time>
            <Position>
              <LatitudeDegrees>49.41654724068939685821533203125</LatitudeDegrees>
              <LongitudeDegrees>20.43127446435391902923583984375</LongitudeDegrees>
            </Position>
            <AltitudeMeters>470.600006103515625</AltitudeMeters>
            <DistanceMeters>NAN</DistanceMeters>
          </Trackpoint>
          <Trackpoint>
            <Time>2022-09-21T10:51:28.000Z</Time>
            <Position>
              <LatitudeDegrees>49.4165905751287937164306640625</LatitudeDegrees>
              <LongitudeDegrees>20.4312965087592601776123046875</LongitudeDegrees>
            </Position>
            <AltitudeMeters>470.79998779296875</AltitudeMeters>
            <DistanceMeters>NAN</DistanceMeters>
          </Trackpoint>
          <Trackpoint>
            <Time>2022-09-21T10:51:29.000Z</Time>
            <Position>
              <LatitudeDegrees>49.41660624928772449493408203125</LatitudeDegrees>
              <LongitudeDegrees>20.43131805025041103363037109375</LongitudeDegrees>
            </Position>
            <AltitudeMeters>470.79998779296875</AltitudeMeters>
            <DistanceMeters>NAN</DistanceMeters>
          </Trackpoint>
          <Trackpoint>
            <Time>2022-09-21T10:51:30.000Z</Time>
            <Position>
              <LatitudeDegrees>49.4166184030473232269287109375</LatitudeDegrees>
              <LongitudeDegrees>20.43135040439665317535400390625</LongitudeDegrees>
            </Position>
            <AltitudeMeters>471</AltitudeMeters>
            <DistanceMeters>NAN</DistanceMeters>
          </Trackpoint>
          <Trackpoint>
            <Time>2022-09-21T10:51:31.000Z</Time>
            <Position>
              <LatitudeDegrees>49.416612200438976287841796875</LatitudeDegrees>
              <LongitudeDegrees>20.4313789866864681243896484375</LongitudeDegrees>
            </Position>
            <AltitudeMeters>471.20001220703125</AltitudeMeters>
            <DistanceMeters>NAN</DistanceMeters>
          </Trackpoint>
          <Trackpoint>
            <Time>2022-09-21T10:51:37.000Z</Time>
            <Position>
              <LatitudeDegrees>49.4165966100990772247314453125</LatitudeDegrees>
              <LongitudeDegrees>20.4314138554036617279052734375</LongitudeDegrees>
            </Position>
            <AltitudeMeters>471.399993896484375</AltitudeMeters>
            <DistanceMeters>NAN</DistanceMeters>
          </Trackpoint>
          <Trackpoint>
            <Time>2022-09-21T10:51:43.000Z</Time>
            <Position>
              <LatitudeDegrees>49.41659669391810894012451171875</LatitudeDegrees>
              <LongitudeDegrees>20.4314447008073329925537109375</LongitudeDegrees>
            </Position>
            <AltitudeMeters>471.600006103515625</AltitudeMeters>
            <DistanceMeters>NAN</DistanceMeters>
          </Trackpoint>
          <Trackpoint>
            <Time>2022-09-21T10:51:45.000Z</Time>
            <Position>
              <LatitudeDegrees>49.41665075719356536865234375</LatitudeDegrees>
              <LongitudeDegrees>20.43146230280399322509765625</LongitudeDegrees>
            </Position>
            <AltitudeMeters>471.79998779296875</AltitudeMeters>
            <DistanceMeters>NAN</DistanceMeters>
          </Trackpoint>
          <Trackpoint>
            <Time>2022-09-21T10:51:47.000Z</Time>
            <Position>
              <LatitudeDegrees>49.416651092469692230224609375</LatitudeDegrees>
              <LongitudeDegrees>20.43147931806743144989013671875</LongitudeDegrees>
            </Position>
            <AltitudeMeters>471.79998779296875</AltitudeMeters>
            <DistanceMeters>NAN</DistanceMeters>
          </Trackpoint>
          <Trackpoint>
            <Time>2022-09-21T10:51:49.000Z</Time>
            <Position>
              <LatitudeDegrees>49.41659384407103061676025390625</LatitudeDegrees>
              <LongitudeDegrees>20.4315543361008167266845703125</LongitudeDegrees>
            </Position>
            <AltitudeMeters>472</AltitudeMeters>
            <DistanceMeters>NAN</DistanceMeters>
          </Trackpoint>
          <Trackpoint>
            <Time>2022-09-21T10:51:50.000Z</Time>
            <Position>
              <LatitudeDegrees>49.416608847677707672119140625</LatitudeDegrees>
              <LongitudeDegrees>20.43157906271517276763916015625</LongitudeDegrees>
            </Position>
            <AltitudeMeters>472</AltitudeMeters>
            <DistanceMeters>NAN</DistanceMeters>
          </Trackpoint>
          <Trackpoint>
            <Time>2022-09-21T10:51:51.000Z</Time>
            <Position>
              <LatitudeDegrees>49.4166324846446514129638671875</LatitudeDegrees>
              <LongitudeDegrees>20.43164041824638843536376953125</LongitudeDegrees>
            </Position>
            <AltitudeMeters>472.20001220703125</AltitudeMeters>
            <DistanceMeters>NAN</DistanceMeters>
          </Trackpoint>
          <Trackpoint>
            <Time>2022-09-21T10:51:52.000Z</Time>
            <Position>
              <LatitudeDegrees>49.4166308082640171051025390625</LatitudeDegrees>
              <LongitudeDegrees>20.43164737522602081298828125</LongitudeDegrees>
            </Position>
            <AltitudeMeters>472.20001220703125</AltitudeMeters>
            <DistanceMeters>NAN</DistanceMeters>
          </Trackpoint>
          <Trackpoint>
            <Time>2022-09-21T10:51:53.000Z</Time>
            <Position>
              <LatitudeDegrees>49.4166422076523303985595703125</LatitudeDegrees>
              <LongitudeDegrees>20.43164544738829135894775390625</LongitudeDegrees>
            </Position>
            <AltitudeMeters>472.399993896484375</AltitudeMeters>
            <DistanceMeters>NAN</DistanceMeters>
          </Trackpoint>
          <Trackpoint>
            <Time>2022-09-21T10:51:55.000Z</Time>
            <Position>
              <LatitudeDegrees>49.41664245910942554473876953125</LatitudeDegrees>
              <LongitudeDegrees>20.43164008297026157379150390625</LongitudeDegrees>
            </Position>
            <AltitudeMeters>472.600006103515625</AltitudeMeters>
            <DistanceMeters>NAN</DistanceMeters>
          </Trackpoint>
          <Trackpoint>
            <Time>2022-09-21T10:51:59.000Z</Time>
            <Position>
              <LatitudeDegrees>49.41664245910942554473876953125</LatitudeDegrees>
              <LongitudeDegrees>20.43164008297026157379150390625</LongitudeDegrees>
            </Position>
            <AltitudeMeters>472.600006103515625</AltitudeMeters>
            <DistanceMeters>NAN</DistanceMeters>
          </Trackpoint>
          <Trackpoint>
            <Time>2022-09-21T10:52:01.000Z</Time>
            <Position>
              <LatitudeDegrees>49.41664447076618671417236328125</LatitudeDegrees>
              <LongitudeDegrees>20.43167461641132831573486328125</LongitudeDegrees>
            </Position>
            <AltitudeMeters>472.600006103515625</AltitudeMeters>
            <DistanceMeters>NAN</DistanceMeters>
          </Trackpoint>
          <Trackpoint>
            <Time>2022-09-21T10:52:03.000Z</Time>
            <Position>
              <LatitudeDegrees>49.41660574637353420257568359375</LatitudeDegrees>
              <LongitudeDegrees>20.43173161335289478302001953125</LongitudeDegrees>
            </Position>
            <AltitudeMeters>472.600006103515625</AltitudeMeters>
            <DistanceMeters>NAN</DistanceMeters>
          </Trackpoint>
          <Trackpoint>
            <Time>2022-09-21T10:52:08.000Z</Time>
            <Position>
              <LatitudeDegrees>49.41660658456385135650634765625</LatitudeDegrees>
              <LongitudeDegrees>20.43178978376090526580810546875</LongitudeDegrees>
            </Position>
            <AltitudeMeters>472.79998779296875</AltitudeMeters>
            <DistanceMeters>NAN</DistanceMeters>
          </Trackpoint>
          <Trackpoint>
            <Time>2022-09-21T10:52:12.000Z</Time>
            <Position>
              <LatitudeDegrees>49.4166019745171070098876953125</LatitudeDegrees>
              <LongitudeDegrees>20.4318197071552276611328125</LongitudeDegrees>
            </Position>
            <AltitudeMeters>473.20001220703125</AltitudeMeters>
            <DistanceMeters>NAN</DistanceMeters>
          </Trackpoint>
          <Trackpoint>
            <Time>2022-09-21T10:52:13.000Z</Time>
            <Position>
              <LatitudeDegrees>49.41660373471677303314208984375</LatitudeDegrees>
              <LongitudeDegrees>20.43184543959796428680419921875</LongitudeDegrees>
            </Position>
            <AltitudeMeters>473.20001220703125</AltitudeMeters>
            <DistanceMeters>NAN</DistanceMeters>
          </Trackpoint>
          <Trackpoint>
            <Time>2022-09-21T10:52:16.000Z</Time>
            <Position>
              <LatitudeDegrees>49.4166039861738681793212890625</LatitudeDegrees>
              <LongitudeDegrees>20.43185197748243808746337890625</LongitudeDegrees>
            </Position>
            <AltitudeMeters>473.399993896484375</AltitudeMeters>
            <DistanceMeters>NAN</DistanceMeters>
          </Trackpoint>
          <Trackpoint>
            <Time>2022-09-21T10:52:18.000Z</Time>
            <Position>
              <LatitudeDegrees>49.41660918295383453369140625</LatitudeDegrees>
              <LongitudeDegrees>20.43186035938560962677001953125</LongitudeDegrees>
            </Position>
            <AltitudeMeters>473.600006103515625</AltitudeMeters>
            <DistanceMeters>NAN</DistanceMeters>
          </Trackpoint>
          <Trackpoint>
            <Time>2022-09-21T10:52:21.000Z</Time>
            <Position>
              <LatitudeDegrees>49.41660918295383453369140625</LatitudeDegrees>
              <LongitudeDegrees>20.43186035938560962677001953125</LongitudeDegrees>
            </Position>
            <AltitudeMeters>473.79998779296875</AltitudeMeters>
            <DistanceMeters>NAN</DistanceMeters>
          </Trackpoint>
          <Trackpoint>
            <Time>2022-09-21T10:52:25.000Z</Time>
            <Position>
              <LatitudeDegrees>49.4166113622486591339111328125</LatitudeDegrees>
              <LongitudeDegrees>20.43186756782233715057373046875</LongitudeDegrees>
            </Position>
            <AltitudeMeters>474.20001220703125</AltitudeMeters>
            <DistanceMeters>NAN</DistanceMeters>
          </Trackpoint>
          <Trackpoint>
            <Time>2022-09-21T10:52:26.000Z</Time>
            <Position>
              <LatitudeDegrees>49.4166113622486591339111328125</LatitudeDegrees>
              <LongitudeDegrees>20.43186756782233715057373046875</LongitudeDegrees>
            </Position>
            <AltitudeMeters>474.20001220703125</AltitudeMeters>
            <DistanceMeters>NAN</DistanceMeters>
          </Trackpoint>
          <Trackpoint>
            <Time>2022-09-21T10:52:27.000Z</Time>
            <Position>
              <LatitudeDegrees>49.41661320626735687255859375</LatitudeDegrees>
              <LongitudeDegrees>20.43187058530747890472412109375</LongitudeDegrees>
            </Position>
            <AltitudeMeters>474.399993896484375</AltitudeMeters>
            <DistanceMeters>NAN</DistanceMeters>
          </Trackpoint>
          <Trackpoint>
            <Time>2022-09-21T10:52:30.000Z</Time>
            <Position>
              <LatitudeDegrees>49.41661580465734004974365234375</LatitudeDegrees>
              <LongitudeDegrees>20.43187745846807956695556640625</LongitudeDegrees>
            </Position>
            <AltitudeMeters>474.600006103515625</AltitudeMeters>
            <DistanceMeters>NAN</DistanceMeters>
          </Trackpoint>
          <Trackpoint>
            <Time>2022-09-21T10:52:32.000Z</Time>
            <Position>
              <LatitudeDegrees>49.416634999215602874755859375</LatitudeDegrees>
              <LongitudeDegrees>20.43191023170948028564453125</LongitudeDegrees>
            </Position>
            <AltitudeMeters>474.79998779296875</AltitudeMeters>
            <DistanceMeters>NAN</DistanceMeters>
          </Trackpoint>
          <Trackpoint>
            <Time>2022-09-21T10:52:33.000Z</Time>
            <Position>
              <LatitudeDegrees>49.41663734614849090576171875</LatitudeDegrees>
              <LongitudeDegrees>20.431939400732517242431640625</LongitudeDegrees>
            </Position>
            <AltitudeMeters>475</AltitudeMeters>
            <DistanceMeters>NAN</DistanceMeters>
          </Trackpoint>
          <Trackpoint>
            <Time>2022-09-21T10:52:36.000Z</Time>
            <Position>
              <LatitudeDegrees>49.416669867932796478271484375</LatitudeDegrees>
              <LongitudeDegrees>20.4319868423044681549072265625</LongitudeDegrees>
            </Position>
            <AltitudeMeters>475.20001220703125</AltitudeMeters>
            <DistanceMeters>NAN</DistanceMeters>
          </Trackpoint>
          <Trackpoint>
            <Time>2022-09-21T10:52:38.000Z</Time>
            <Position>
              <LatitudeDegrees>49.41669425927102565765380859375</LatitudeDegrees>
              <LongitudeDegrees>20.43203151784837245941162109375</LongitudeDegrees>
            </Position>
            <AltitudeMeters>475.20001220703125</AltitudeMeters>
            <DistanceMeters>NAN</DistanceMeters>
          </Trackpoint>
          <Trackpoint>
            <Time>2022-09-21T10:52:39.000Z</Time>
            <Position>
              <LatitudeDegrees>49.41670197062194347381591796875</LatitudeDegrees>
              <LongitudeDegrees>20.43203604407608509063720703125</LongitudeDegrees>
            </Position>
            <AltitudeMeters>475.20001220703125</AltitudeMeters>
            <DistanceMeters>NAN</DistanceMeters>
          </Trackpoint>
          <Trackpoint>
            <Time>2022-09-21T10:52:40.000Z</Time>
            <Position>
              <LatitudeDegrees>49.4167090952396392822265625</LatitudeDegrees>
              <LongitudeDegrees>20.43204509653151035308837890625</LongitudeDegrees>
            </Position>
            <AltitudeMeters>475.399993896484375</AltitudeMeters>
            <DistanceMeters>NAN</DistanceMeters>
          </Trackpoint>
          <Trackpoint>
            <Time>2022-09-21T10:52:41.000Z</Time>
            <Position>
              <LatitudeDegrees>49.4167287088930606842041015625</LatitudeDegrees>
              <LongitudeDegrees>20.43205113150179386138916015625</LongitudeDegrees>
            </Position>
            <AltitudeMeters>475.399993896484375</AltitudeMeters>
            <DistanceMeters>NAN</DistanceMeters>
          </Trackpoint>
          <Trackpoint>
            <Time>2022-09-21T10:52:44.000Z</Time>
            <Position>
              <LatitudeDegrees>49.41688788123428821563720703125</LatitudeDegrees>
              <LongitudeDegrees>20.43199597857892513275146484375</LongitudeDegrees>
            </Position>
            <AltitudeMeters>475.600006103515625</AltitudeMeters>
            <DistanceMeters>NAN</DistanceMeters>
          </Trackpoint>
          <Trackpoint>
            <Time>2022-09-21T10:52:45.000Z</Time>
            <Position>
              <LatitudeDegrees>49.4168983586132526397705078125</LatitudeDegrees>
              <LongitudeDegrees>20.43201860971748828887939453125</LongitudeDegrees>
            </Position>
            <AltitudeMeters>475.600006103515625</AltitudeMeters>
            <DistanceMeters>NAN</DistanceMeters>
          </Trackpoint>
          <Trackpoint>
            <Time>2022-09-21T10:52:49.000Z</Time>
            <Position>
              <LatitudeDegrees>49.41700053401291370391845703125</LatitudeDegrees>
              <LongitudeDegrees>20.4320919513702392578125</LongitudeDegrees>
            </Position>
            <AltitudeMeters>476.20001220703125</AltitudeMeters>
            <DistanceMeters>NAN</DistanceMeters>
          </Trackpoint>
          <Trackpoint>
            <Time>2022-09-21T10:52:50.000Z</Time>
            <Position>
              <LatitudeDegrees>49.4170542620122432708740234375</LatitudeDegrees>
              <LongitudeDegrees>20.43208030052483081817626953125</LongitudeDegrees>
            </Position>
            <AltitudeMeters>476.399993896484375</AltitudeMeters>
            <DistanceMeters>NAN</DistanceMeters>
          </Trackpoint>
          <Trackpoint>
            <Time>2022-09-21T10:52:52.000Z</Time>
            <Position>
              <LatitudeDegrees>49.4170797429978847503662109375</LatitudeDegrees>
              <LongitudeDegrees>20.4320919513702392578125</LongitudeDegrees>
            </Position>
            <AltitudeMeters>476.399993896484375</AltitudeMeters>
            <DistanceMeters>NAN</DistanceMeters>
          </Trackpoint>
          <Trackpoint>
            <Time>2022-09-21T10:52:56.000Z</Time>
            <Position>
              <LatitudeDegrees>49.4170841015875339508056640625</LatitudeDegrees>
              <LongitudeDegrees>20.43210335075855255126953125</LongitudeDegrees>
            </Position>
            <AltitudeMeters>476.600006103515625</AltitudeMeters>
            <DistanceMeters>NAN</DistanceMeters>
          </Trackpoint>
          <Trackpoint>
            <Time>2022-09-21T10:52:57.000Z</Time>
            <Position>
              <LatitudeDegrees>49.41706088371574878692626953125</LatitudeDegrees>
              <LongitudeDegrees>20.432164371013641357421875</LongitudeDegrees>
            </Position>
            <AltitudeMeters>476.600006103515625</AltitudeMeters>
            <DistanceMeters>NAN</DistanceMeters>
          </Trackpoint>
          <Trackpoint>
            <Time>2022-09-21T10:52:58.000Z</Time>
            <Position>
              <LatitudeDegrees>49.41706155426800251007080078125</LatitudeDegrees>
              <LongitudeDegrees>20.43216680176556110382080078125</LongitudeDegrees>
            </Position>
            <AltitudeMeters>476.600006103515625</AltitudeMeters>
            <DistanceMeters>NAN</DistanceMeters>
          </Trackpoint>
          <Trackpoint>
            <Time>2022-09-21T10:52:59.000Z</Time>
            <Position>
              <LatitudeDegrees>49.417115114629268646240234375</LatitudeDegrees>
              <LongitudeDegrees>20.43211583979427814483642578125</LongitudeDegrees>
            </Position>
            <AltitudeMeters>476.600006103515625</AltitudeMeters>
            <DistanceMeters>NAN</DistanceMeters>
          </Trackpoint>
          <Trackpoint>
            <Time>2022-09-21T10:53:02.000Z</Time>
            <Position>
              <LatitudeDegrees>49.4171427749097347259521484375</LatitudeDegrees>
              <LongitudeDegrees>20.43211734853684902191162109375</LongitudeDegrees>
            </Position>
            <AltitudeMeters>476.79998779296875</AltitudeMeters>
            <DistanceMeters>NAN</DistanceMeters>
          </Trackpoint>
          <Trackpoint>
            <Time>2022-09-21T10:53:05.000Z</Time>
            <Position>
              <LatitudeDegrees>49.41714151762425899505615234375</LatitudeDegrees>
              <LongitudeDegrees>20.4322030954062938690185546875</LongitudeDegrees>
            </Position>
            <AltitudeMeters>477.20001220703125</AltitudeMeters>
            <DistanceMeters>NAN</DistanceMeters>
          </Trackpoint>
          <Trackpoint>
            <Time>2022-09-21T10:53:06.000Z</Time>
            <Position>
              <LatitudeDegrees>49.4171628914773464202880859375</LatitudeDegrees>
              <LongitudeDegrees>20.4322148300707340240478515625</LongitudeDegrees>
            </Position>
            <AltitudeMeters>477.20001220703125</AltitudeMeters>
            <DistanceMeters>NAN</DistanceMeters>
          </Trackpoint>
          <Trackpoint>
            <Time>2022-09-21T10:53:08.000Z</Time>
            <Position>
              <LatitudeDegrees>49.417165406048297882080078125</LatitudeDegrees>
              <LongitudeDegrees>20.432213656604290008544921875</LongitudeDegrees>
            </Position>
            <AltitudeMeters>477.399993896484375</AltitudeMeters>
            <DistanceMeters>NAN</DistanceMeters>
          </Trackpoint>
          <Trackpoint>
            <Time>2022-09-21T10:53:09.000Z</Time>
            <Position>
              <LatitudeDegrees>49.41718359477818012237548828125</LatitudeDegrees>
              <LongitudeDegrees>20.4322206974029541015625</LongitudeDegrees>
            </Position>
            <AltitudeMeters>477.399993896484375</AltitudeMeters>
            <DistanceMeters>NAN</DistanceMeters>
          </Trackpoint>
          <Trackpoint>
            <Time>2022-09-21T10:53:10.000Z</Time>
            <Position>
              <LatitudeDegrees>49.417193569242954254150390625</LatitudeDegrees>
              <LongitudeDegrees>20.43223268352448940277099609375</LongitudeDegrees>
            </Position>
            <AltitudeMeters>477.399993896484375</AltitudeMeters>
            <DistanceMeters>NAN</DistanceMeters>
          </Trackpoint>
          <Trackpoint>
            <Time>2022-09-21T10:53:12.000Z</Time>
            <Position>
              <LatitudeDegrees>49.41718376241624355316162109375</LatitudeDegrees>
              <LongitudeDegrees>20.4322889260947704315185546875</LongitudeDegrees>
            </Position>
            <AltitudeMeters>477.600006103515625</AltitudeMeters>
            <DistanceMeters>NAN</DistanceMeters>
          </Trackpoint>
          <Trackpoint>
            <Time>2022-09-21T10:53:16.000Z</Time>
            <Position>
              <LatitudeDegrees>49.417225085198879241943359375</LatitudeDegrees>
              <LongitudeDegrees>20.43235413730144500732421875</LongitudeDegrees>
            </Position>
            <AltitudeMeters>477.79998779296875</AltitudeMeters>
            <DistanceMeters>NAN</DistanceMeters>
          </Trackpoint>
          <Trackpoint>
            <Time>2022-09-21T10:53:17.000Z</Time>
            <Position>
              <LatitudeDegrees>49.41725769080221652984619140625</LatitudeDegrees>
              <LongitudeDegrees>20.43233393691480159759521484375</LongitudeDegrees>
            </Position>
            <AltitudeMeters>477.600006103515625</AltitudeMeters>
            <DistanceMeters>NAN</DistanceMeters>
          </Trackpoint>
          <Trackpoint>
            <Time>2022-09-21T10:53:19.000Z</Time>
            <Position>
              <LatitudeDegrees>49.41723673604428768157958984375</LatitudeDegrees>
              <LongitudeDegrees>20.43237291276454925537109375</LongitudeDegrees>
            </Position>
            <AltitudeMeters>477.79998779296875</AltitudeMeters>
            <DistanceMeters>NAN</DistanceMeters>
          </Trackpoint>
          <Trackpoint>
            <Time>2022-09-21T10:53:20.000Z</Time>
            <Position>
              <LatitudeDegrees>49.41723355092108249664306640625</LatitudeDegrees>
              <LongitudeDegrees>20.43235572986304759979248046875</LongitudeDegrees>
            </Position>
            <AltitudeMeters>477.79998779296875</AltitudeMeters>
            <DistanceMeters>NAN</DistanceMeters>
          </Trackpoint>
          <Trackpoint>
            <Time>2022-09-21T10:53:23.000Z</Time>
            <Position>
              <LatitudeDegrees>49.41725467331707477569580078125</LatitudeDegrees>
              <LongitudeDegrees>20.4323348589241504669189453125</LongitudeDegrees>
            </Position>
            <AltitudeMeters>478</AltitudeMeters>
            <DistanceMeters>NAN</DistanceMeters>
          </Trackpoint>
          <Trackpoint>
            <Time>2022-09-21T10:53:24.000Z</Time>
            <Position>
              <LatitudeDegrees>49.4172959960997104644775390625</LatitudeDegrees>
              <LongitudeDegrees>20.43231683783233165740966796875</LongitudeDegrees>
            </Position>
            <AltitudeMeters>478</AltitudeMeters>
            <DistanceMeters>NAN</DistanceMeters>
          </Trackpoint>
          <Trackpoint>
            <Time>2022-09-21T10:53:26.000Z</Time>
            <Position>
              <LatitudeDegrees>49.417263977229595184326171875</LatitudeDegrees>
              <LongitudeDegrees>20.4323744215071201324462890625</LongitudeDegrees>
            </Position>
            <AltitudeMeters>478</AltitudeMeters>
            <DistanceMeters>NAN</DistanceMeters>
          </Trackpoint>
          <Trackpoint>
            <Time>2022-09-21T10:53:30.000Z</Time>
            <Position>
              <LatitudeDegrees>49.4172111712396144866943359375</LatitudeDegrees>
              <LongitudeDegrees>20.432480536401271820068359375</LongitudeDegrees>
            </Position>
            <AltitudeMeters>478.20001220703125</AltitudeMeters>
            <DistanceMeters>NAN</DistanceMeters>
          </Trackpoint>
          <Trackpoint>
            <Time>2022-09-21T10:53:32.000Z</Time>
            <Position>
              <LatitudeDegrees>49.41723145544528961181640625</LatitudeDegrees>
              <LongitudeDegrees>20.4325041733682155609130859375</LongitudeDegrees>
            </Position>
            <AltitudeMeters>478.20001220703125</AltitudeMeters>
            <DistanceMeters>NAN</DistanceMeters>
          </Trackpoint>
          <Trackpoint>
            <Time>2022-09-21T10:53:33.000Z</Time>
            <Position>
              <LatitudeDegrees>49.41726900637149810791015625</LatitudeDegrees>
              <LongitudeDegrees>20.4325179196894168853759765625</LongitudeDegrees>
            </Position>
            <AltitudeMeters>478.20001220703125</AltitudeMeters>
            <DistanceMeters>NAN</DistanceMeters>
          </Trackpoint>
          <Trackpoint>
            <Time>2022-09-21T10:53:34.000Z</Time>
            <Position>
              <LatitudeDegrees>49.417268000543117523193359375</LatitudeDegrees>
              <LongitudeDegrees>20.43252353556454181671142578125</LongitudeDegrees>
            </Position>
            <AltitudeMeters>478.399993896484375</AltitudeMeters>
            <DistanceMeters>NAN</DistanceMeters>
          </Trackpoint>
          <Trackpoint>
            <Time>2022-09-21T10:53:38.000Z</Time>
            <Position>
              <LatitudeDegrees>49.41727512516081333160400390625</LatitudeDegrees>
              <LongitudeDegrees>20.43254348449409008026123046875</LongitudeDegrees>
            </Position>
            <AltitudeMeters>478.399993896484375</AltitudeMeters>
            <DistanceMeters>NAN</DistanceMeters>
          </Trackpoint>
          <Trackpoint>
            <Time>2022-09-21T10:53:41.000Z</Time>
            <Position>
              <LatitudeDegrees>49.4172742031514644622802734375</LatitudeDegrees>
              <LongitudeDegrees>20.4325504414737224578857421875</LongitudeDegrees>
            </Position>
            <AltitudeMeters>478.600006103515625</AltitudeMeters>
            <DistanceMeters>NAN</DistanceMeters>
          </Trackpoint>
          <Trackpoint>
            <Time>2022-09-21T10:53:42.000Z</Time>
            <Position>
              <LatitudeDegrees>49.41732357256114482879638671875</LatitudeDegrees>
              <LongitudeDegrees>20.43256930075585842132568359375</LongitudeDegrees>
            </Position>
            <AltitudeMeters>478.600006103515625</AltitudeMeters>
            <DistanceMeters>NAN</DistanceMeters>
          </Trackpoint>
          <Trackpoint>
            <Time>2022-09-21T10:53:44.000Z</Time>
            <Position>
              <LatitudeDegrees>49.417331032454967498779296875</LatitudeDegrees>
              <LongitudeDegrees>20.432595871388912200927734375</LongitudeDegrees>
            </Position>
            <AltitudeMeters>478.600006103515625</AltitudeMeters>
            <DistanceMeters>NAN</DistanceMeters>
          </Trackpoint>
          <Trackpoint>
            <Time>2022-09-21T10:53:48.000Z</Time>
            <Position>
              <LatitudeDegrees>49.4173546694219112396240234375</LatitudeDegrees>
              <LongitudeDegrees>20.43272369541227817535400390625</LongitudeDegrees>
            </Position>
            <AltitudeMeters>479</AltitudeMeters>
            <DistanceMeters>NAN</DistanceMeters>
          </Trackpoint>
          <Trackpoint>
            <Time>2022-09-21T10:53:50.000Z</Time>
            <Position>
              <LatitudeDegrees>49.41733731888234615325927734375</LatitudeDegrees>
              <LongitudeDegrees>20.43275437317788600921630859375</LongitudeDegrees>
            </Position>
            <AltitudeMeters>479.20001220703125</AltitudeMeters>
            <DistanceMeters>NAN</DistanceMeters>
          </Trackpoint>
          <Trackpoint>
            <Time>2022-09-21T10:53:53.000Z</Time>
            <Position>
              <LatitudeDegrees>49.41728015430271625518798828125</LatitudeDegrees>
              <LongitudeDegrees>20.43279477395117282867431640625</LongitudeDegrees>
            </Position>
            <AltitudeMeters>479.399993896484375</AltitudeMeters>
            <DistanceMeters>NAN</DistanceMeters>
          </Trackpoint>
          <Trackpoint>
            <Time>2022-09-21T10:53:55.000Z</Time>
            <Position>
              <LatitudeDegrees>49.417276047170162200927734375</LatitudeDegrees>
              <LongitudeDegrees>20.43281841091811656951904296875</LongitudeDegrees>
            </Position>
            <AltitudeMeters>479.399993896484375</AltitudeMeters>
            <DistanceMeters>NAN</DistanceMeters>
          </Trackpoint>
          <Trackpoint>
            <Time>2022-09-21T10:53:57.000Z</Time>
            <Position>
              <LatitudeDegrees>49.417273700237274169921875</LatitudeDegrees>
              <LongitudeDegrees>20.43282729573547840118408203125</LongitudeDegrees>
            </Position>
            <AltitudeMeters>479.399993896484375</AltitudeMeters>
            <DistanceMeters>NAN</DistanceMeters>
          </Trackpoint>
          <Trackpoint>
            <Time>2022-09-21T10:53:58.000Z</Time>
            <Position>
              <LatitudeDegrees>49.417274706065654754638671875</LatitudeDegrees>
              <LongitudeDegrees>20.43283031322062015533447265625</LongitudeDegrees>
            </Position>
            <AltitudeMeters>479.399993896484375</AltitudeMeters>
            <DistanceMeters>NAN</DistanceMeters>
          </Trackpoint>
          <Trackpoint>
            <Time>2022-09-21T10:54:00.000Z</Time>
            <Position>
              <LatitudeDegrees>49.417274706065654754638671875</LatitudeDegrees>
              <LongitudeDegrees>20.43283031322062015533447265625</LongitudeDegrees>
            </Position>
            <AltitudeMeters>479.399993896484375</AltitudeMeters>
            <DistanceMeters>NAN</DistanceMeters>
          </Trackpoint>
          <Trackpoint>
            <Time>2022-09-21T10:54:02.000Z</Time>
            <Position>
              <LatitudeDegrees>49.4172688387334346771240234375</LatitudeDegrees>
              <LongitudeDegrees>20.43283760547637939453125</LongitudeDegrees>
            </Position>
            <AltitudeMeters>479.600006103515625</AltitudeMeters>
            <DistanceMeters>NAN</DistanceMeters>
          </Trackpoint>
          <Trackpoint>
            <Time>2022-09-21T10:54:04.000Z</Time>
            <Position>
              <LatitudeDegrees>49.4172688387334346771240234375</LatitudeDegrees>
              <LongitudeDegrees>20.43283760547637939453125</LongitudeDegrees>
            </Position>
            <AltitudeMeters>479.79998779296875</AltitudeMeters>
            <DistanceMeters>NAN</DistanceMeters>
          </Trackpoint>
          <Trackpoint>
            <Time>2022-09-21T10:54:10.000Z</Time>
            <Position>
              <LatitudeDegrees>49.4172678329050540924072265625</LatitudeDegrees>
              <LongitudeDegrees>20.43283936567604541778564453125</LongitudeDegrees>
            </Position>
            <AltitudeMeters>479.600006103515625</AltitudeMeters>
            <DistanceMeters>NAN</DistanceMeters>
          </Trackpoint>
          <Trackpoint>
            <Time>2022-09-21T10:54:11.000Z</Time>
            <Position>
              <LatitudeDegrees>49.41726288758218288421630859375</LatitudeDegrees>
              <LongitudeDegrees>20.4328444786369800567626953125</LongitudeDegrees>
            </Position>
            <AltitudeMeters>479.600006103515625</AltitudeMeters>
            <DistanceMeters>NAN</DistanceMeters>
          </Trackpoint>
          <Trackpoint>
            <Time>2022-09-21T10:54:18.000Z</Time>
            <Position>
              <LatitudeDegrees>49.4172631390392780303955078125</LatitudeDegrees>
              <LongitudeDegrees>20.4328458197414875030517578125</LongitudeDegrees>
            </Position>
            <AltitudeMeters>479.600006103515625</AltitudeMeters>
            <DistanceMeters>NAN</DistanceMeters>
          </Trackpoint>
          <Trackpoint>
            <Time>2022-09-21T10:54:21.000Z</Time>
            <Position>
              <LatitudeDegrees>49.41726766526699066162109375</LatitudeDegrees>
              <LongitudeDegrees>20.43284255079925060272216796875</LongitudeDegrees>
            </Position>
            <AltitudeMeters>479.600006103515625</AltitudeMeters>
            <DistanceMeters>NAN</DistanceMeters>
          </Trackpoint>
          <Trackpoint>
            <Time>2022-09-21T10:54:29.000Z</Time>
            <Position>
              <LatitudeDegrees>49.41726766526699066162109375</LatitudeDegrees>
              <LongitudeDegrees>20.43285327963531017303466796875</LongitudeDegrees>
            </Position>
            <AltitudeMeters>479.600006103515625</AltitudeMeters>
            <DistanceMeters>NAN</DistanceMeters>
          </Trackpoint>
          <Trackpoint>
            <Time>2022-09-21T10:54:38.000Z</Time>
            <Position>
              <LatitudeDegrees>49.4172621332108974456787109375</LatitudeDegrees>
              <LongitudeDegrees>20.43285847641527652740478515625</LongitudeDegrees>
            </Position>
            <AltitudeMeters>479.79998779296875</AltitudeMeters>
            <DistanceMeters>NAN</DistanceMeters>
          </Trackpoint>
          <Trackpoint>
            <Time>2022-09-21T10:54:39.000Z</Time>
            <Position>
              <LatitudeDegrees>49.4172621332108974456787109375</LatitudeDegrees>
              <LongitudeDegrees>20.43285847641527652740478515625</LongitudeDegrees>
            </Position>
            <AltitudeMeters>479.79998779296875</AltitudeMeters>
            <DistanceMeters>NAN</DistanceMeters>
          </Trackpoint>
          <Trackpoint>
            <Time>2022-09-21T10:54:40.000Z</Time>
            <Position>
              <LatitudeDegrees>49.4172621332108974456787109375</LatitudeDegrees>
              <LongitudeDegrees>20.43285847641527652740478515625</LongitudeDegrees>
            </Position>
            <AltitudeMeters>479.600006103515625</AltitudeMeters>
            <DistanceMeters>NAN</DistanceMeters>
          </Trackpoint>
          <Trackpoint>
            <Time>2022-09-21T10:54:41.000Z</Time>
            <Position>
              <LatitudeDegrees>49.4172621332108974456787109375</LatitudeDegrees>
              <LongitudeDegrees>20.4328604042530059814453125</LongitudeDegrees>
            </Position>
            <AltitudeMeters>479.79998779296875</AltitudeMeters>
            <DistanceMeters>NAN</DistanceMeters>
          </Trackpoint>
          <Trackpoint>
            <Time>2022-09-21T10:54:46.000Z</Time>
            <Position>
              <LatitudeDegrees>49.4172621332108974456787109375</LatitudeDegrees>
              <LongitudeDegrees>20.432862751185894012451171875</LongitudeDegrees>
            </Position>
            <AltitudeMeters>479.600006103515625</AltitudeMeters>
            <DistanceMeters>NAN</DistanceMeters>
          </Trackpoint>
          <Trackpoint>
            <Time>2022-09-21T10:54:47.000Z</Time>
            <Position>
              <LatitudeDegrees>49.4172621332108974456787109375</LatitudeDegrees>
              <LongitudeDegrees>20.432862751185894012451171875</LongitudeDegrees>
            </Position>
            <AltitudeMeters>479.600006103515625</AltitudeMeters>
            <DistanceMeters>NAN</DistanceMeters>
          </Trackpoint>
          <Trackpoint>
            <Time>2022-09-21T10:54:49.000Z</Time>
            <Position>
              <LatitudeDegrees>49.4172621332108974456787109375</LatitudeDegrees>
              <LongitudeDegrees>20.432862751185894012451171875</LongitudeDegrees>
            </Position>
            <AltitudeMeters>479.600006103515625</AltitudeMeters>
            <DistanceMeters>NAN</DistanceMeters>
          </Trackpoint>
          <Trackpoint>
            <Time>2022-09-21T10:54:53.000Z</Time>
            <Position>
              <LatitudeDegrees>49.4172621332108974456787109375</LatitudeDegrees>
              <LongitudeDegrees>20.432862751185894012451171875</LongitudeDegrees>
            </Position>
            <AltitudeMeters>479.600006103515625</AltitudeMeters>
            <DistanceMeters>NAN</DistanceMeters>
          </Trackpoint>
          <Trackpoint>
            <Time>2022-09-21T10:55:04.000Z</Time>
            <Position>
              <LatitudeDegrees>49.417269341647624969482421875</LatitudeDegrees>
              <LongitudeDegrees>20.4328657686710357666015625</LongitudeDegrees>
            </Position>
            <AltitudeMeters>479.399993896484375</AltitudeMeters>
            <DistanceMeters>NAN</DistanceMeters>
          </Trackpoint>
          <Trackpoint>
            <Time>2022-09-21T10:55:11.000Z</Time>
            <Position>
              <LatitudeDegrees>49.41726942546665668487548828125</LatitudeDegrees>
              <LongitudeDegrees>20.432872474193572998046875</LongitudeDegrees>
            </Position>
            <AltitudeMeters>479.20001220703125</AltitudeMeters>
            <DistanceMeters>NAN</DistanceMeters>
          </Trackpoint>
          <Trackpoint>
            <Time>2022-09-21T10:55:14.000Z</Time>
            <Position>
              <LatitudeDegrees>49.41720865666866302490234375</LatitudeDegrees>
              <LongitudeDegrees>20.43292217887938022613525390625</LongitudeDegrees>
            </Position>
            <AltitudeMeters>479.20001220703125</AltitudeMeters>
            <DistanceMeters>NAN</DistanceMeters>
          </Trackpoint>
          <Trackpoint>
            <Time>2022-09-21T10:55:18.000Z</Time>
            <Position>
              <LatitudeDegrees>49.41720019094645977020263671875</LatitudeDegrees>
              <LongitudeDegrees>20.43292921967804431915283203125</LongitudeDegrees>
            </Position>
            <AltitudeMeters>479.20001220703125</AltitudeMeters>
            <DistanceMeters>NAN</DistanceMeters>
          </Trackpoint>
          <Trackpoint>
            <Time>2022-09-21T10:55:34.000Z</Time>
            <Position>
              <LatitudeDegrees>49.41719415597617626190185546875</LatitudeDegrees>
              <LongitudeDegrees>20.432936847209930419921875</LongitudeDegrees>
            </Position>
            <AltitudeMeters>479</AltitudeMeters>
            <DistanceMeters>NAN</DistanceMeters>
          </Trackpoint>
          <Trackpoint>
            <Time>2022-09-21T10:55:42.000Z</Time>
            <Position>
              <LatitudeDegrees>49.41719415597617626190185546875</LatitudeDegrees>
              <LongitudeDegrees>20.432936847209930419921875</LongitudeDegrees>
            </Position>
            <AltitudeMeters>479</AltitudeMeters>
            <DistanceMeters>NAN</DistanceMeters>
          </Trackpoint>
          <Trackpoint>
            <Time>2022-09-21T10:55:53.000Z</Time>
            <Position>
              <LatitudeDegrees>49.41719415597617626190185546875</LatitudeDegrees>
              <LongitudeDegrees>20.432936847209930419921875</LongitudeDegrees>
            </Position>
            <AltitudeMeters>479</AltitudeMeters>
            <DistanceMeters>NAN</DistanceMeters>
          </Trackpoint>
          <Trackpoint>
            <Time>2022-09-21T10:56:18.000Z</Time>
            <Position>
              <LatitudeDegrees>49.41719851456582546234130859375</LatitudeDegrees>
              <LongitudeDegrees>20.43293441645801067352294921875</LongitudeDegrees>
            </Position>
            <AltitudeMeters>479</AltitudeMeters>
            <DistanceMeters>NAN</DistanceMeters>
          </Trackpoint>
          <Trackpoint>
            <Time>2022-09-21T10:56:27.000Z</Time>
            <Position>
              <LatitudeDegrees>49.41719750873744487762451171875</LatitudeDegrees>
              <LongitudeDegrees>20.432935841381549835205078125</LongitudeDegrees>
            </Position>
            <AltitudeMeters>478.79998779296875</AltitudeMeters>
            <DistanceMeters>NAN</DistanceMeters>
          </Trackpoint>
          <Trackpoint>
            <Time>2022-09-21T10:56:45.000Z</Time>
            <Position>
              <LatitudeDegrees>49.41720195114612579345703125</LatitudeDegrees>
              <LongitudeDegrees>20.43295084498822689056396484375</LongitudeDegrees>
            </Position>
            <AltitudeMeters>478.79998779296875</AltitudeMeters>
            <DistanceMeters>NAN</DistanceMeters>
          </Trackpoint>
          <Trackpoint>
            <Time>2022-09-21T10:56:48.000Z</Time>
            <Position>
              <LatitudeDegrees>49.4172068126499652862548828125</LatitudeDegrees>
              <LongitudeDegrees>20.43295084498822689056396484375</LongitudeDegrees>
            </Position>
            <AltitudeMeters>478.79998779296875</AltitudeMeters>
            <DistanceMeters>NAN</DistanceMeters>
          </Trackpoint>
          <Trackpoint>
            <Time>2022-09-21T10:56:50.000Z</Time>
            <Position>
              <LatitudeDegrees>49.41724360920488834381103515625</LatitudeDegrees>
              <LongitudeDegrees>20.4329490847885608673095703125</LongitudeDegrees>
            </Position>
            <AltitudeMeters>479</AltitudeMeters>
            <DistanceMeters>NAN</DistanceMeters>
          </Trackpoint>
          <Trackpoint>
            <Time>2022-09-21T10:56:54.000Z</Time>
            <Position>
              <LatitudeDegrees>49.417284093797206878662109375</LatitudeDegrees>
              <LongitudeDegrees>20.4329504258930683135986328125</LongitudeDegrees>
            </Position>
            <AltitudeMeters>479</AltitudeMeters>
            <DistanceMeters>NAN</DistanceMeters>
          </Trackpoint>
          <Trackpoint>
            <Time>2022-09-21T10:56:57.000Z</Time>
            <Position>
              <LatitudeDegrees>49.4172986783087253570556640625</LatitudeDegrees>
              <LongitudeDegrees>20.4329504258930683135986328125</LongitudeDegrees>
            </Position>
            <AltitudeMeters>479</AltitudeMeters>
            <DistanceMeters>NAN</DistanceMeters>
          </Trackpoint>
          <Trackpoint>
            <Time>2022-09-21T10:57:03.000Z</Time>
            <Position>
              <LatitudeDegrees>49.4172986783087253570556640625</LatitudeDegrees>
              <LongitudeDegrees>20.4329504258930683135986328125</LongitudeDegrees>
            </Position>
            <AltitudeMeters>479</AltitudeMeters>
            <DistanceMeters>NAN</DistanceMeters>
          </Trackpoint>
          <Trackpoint>
            <Time>2022-09-21T10:57:12.000Z</Time>
            <Position>
              <LatitudeDegrees>49.41729507409036159515380859375</LatitudeDegrees>
              <LongitudeDegrees>20.4329517669975757598876953125</LongitudeDegrees>
            </Position>
            <AltitudeMeters>479.20001220703125</AltitudeMeters>
            <DistanceMeters>NAN</DistanceMeters>
          </Trackpoint>
          <Trackpoint>
            <Time>2022-09-21T10:57:19.000Z</Time>
            <Position>
              <LatitudeDegrees>49.41729507409036159515380859375</LatitudeDegrees>
              <LongitudeDegrees>20.4329517669975757598876953125</LongitudeDegrees>
            </Position>
            <AltitudeMeters>479.399993896484375</AltitudeMeters>
            <DistanceMeters>NAN</DistanceMeters>
          </Trackpoint>
          <Trackpoint>
            <Time>2022-09-21T10:57:20.000Z</Time>
            <Position>
              <LatitudeDegrees>49.41729507409036159515380859375</LatitudeDegrees>
              <LongitudeDegrees>20.4329517669975757598876953125</LongitudeDegrees>
            </Position>
            <AltitudeMeters>479.399993896484375</AltitudeMeters>
            <DistanceMeters>NAN</DistanceMeters>
          </Trackpoint>
          <Trackpoint>
            <Time>2022-09-21T10:57:35.000Z</Time>
            <Position>
              <LatitudeDegrees>49.41727395169436931610107421875</LatitudeDegrees>
              <LongitudeDegrees>20.4329658485949039459228515625</LongitudeDegrees>
            </Position>
            <AltitudeMeters>479.600006103515625</AltitudeMeters>
            <DistanceMeters>NAN</DistanceMeters>
          </Trackpoint>
          <Trackpoint>
            <Time>2022-09-21T10:57:37.000Z</Time>
            <Position>
              <LatitudeDegrees>49.41730462945997714996337890625</LatitudeDegrees>
              <LongitudeDegrees>20.4329769127070903778076171875</LongitudeDegrees>
            </Position>
            <AltitudeMeters>479.79998779296875</AltitudeMeters>
            <DistanceMeters>NAN</DistanceMeters>
          </Trackpoint>
          <Trackpoint>
            <Time>2022-09-21T10:57:39.000Z</Time>
            <Position>
              <LatitudeDegrees>49.41730680875480175018310546875</LatitudeDegrees>
              <LongitudeDegrees>20.43302594684064388275146484375</LongitudeDegrees>
            </Position>
            <AltitudeMeters>479.79998779296875</AltitudeMeters>
            <DistanceMeters>NAN</DistanceMeters>
          </Trackpoint>
          <Trackpoint>
            <Time>2022-09-21T10:57:40.000Z</Time>
            <Position>
              <LatitudeDegrees>49.4173208065330982208251953125</LatitudeDegrees>
              <LongitudeDegrees>20.4330463148653507232666015625</LongitudeDegrees>
            </Position>
            <AltitudeMeters>479.79998779296875</AltitudeMeters>
            <DistanceMeters>NAN</DistanceMeters>
          </Trackpoint>
          <Trackpoint>
            <Time>2022-09-21T10:57:44.000Z</Time>
            <Position>
              <LatitudeDegrees>49.4173600338399410247802734375</LatitudeDegrees>
              <LongitudeDegrees>20.43314673006534576416015625</LongitudeDegrees>
            </Position>
            <AltitudeMeters>479.79998779296875</AltitudeMeters>
            <DistanceMeters>NAN</DistanceMeters>
          </Trackpoint>
          <Trackpoint>
            <Time>2022-09-21T10:57:45.000Z</Time>
            <Position>
              <LatitudeDegrees>49.41737537272274494171142578125</LatitudeDegrees>
              <LongitudeDegrees>20.43318134732544422149658203125</LongitudeDegrees>
            </Position>
            <AltitudeMeters>479.79998779296875</AltitudeMeters>
            <DistanceMeters>NAN</DistanceMeters>
          </Trackpoint>
          <Trackpoint>
            <Time>2022-09-21T10:57:47.000Z</Time>
            <Position>
              <LatitudeDegrees>49.41739582456648349761962890625</LatitudeDegrees>
              <LongitudeDegrees>20.4332251846790313720703125</LongitudeDegrees>
            </Position>
            <AltitudeMeters>479.79998779296875</AltitudeMeters>
            <DistanceMeters>NAN</DistanceMeters>
          </Trackpoint>
          <Trackpoint>
            <Time>2022-09-21T10:57:50.000Z</Time>
            <Position>
              <LatitudeDegrees>49.41737889312207698822021484375</LatitudeDegrees>
              <LongitudeDegrees>20.433326773345470428466796875</LongitudeDegrees>
            </Position>
            <AltitudeMeters>480</AltitudeMeters>
            <DistanceMeters>NAN</DistanceMeters>
          </Trackpoint>
          <Trackpoint>
            <Time>2022-09-21T10:57:51.000Z</Time>
            <Position>
              <LatitudeDegrees>49.41737252287566661834716796875</LatitudeDegrees>
              <LongitudeDegrees>20.433360971510410308837890625</LongitudeDegrees>
            </Position>
            <AltitudeMeters>480</AltitudeMeters>
            <DistanceMeters>NAN</DistanceMeters>
          </Trackpoint>
          <Trackpoint>
            <Time>2022-09-21T10:57:53.000Z</Time>
            <Position>
              <LatitudeDegrees>49.41738878376781940460205078125</LatitudeDegrees>
              <LongitudeDegrees>20.4334258474409580230712890625</LongitudeDegrees>
            </Position>
            <AltitudeMeters>480</AltitudeMeters>
            <DistanceMeters>NAN</DistanceMeters>
          </Trackpoint>
          <Trackpoint>
            <Time>2022-09-21T10:57:55.000Z</Time>
            <Position>
              <LatitudeDegrees>49.41740035079419612884521484375</LatitudeDegrees>
              <LongitudeDegrees>20.4334907233715057373046875</LongitudeDegrees>
            </Position>
            <AltitudeMeters>480</AltitudeMeters>
            <DistanceMeters>NAN</DistanceMeters>
          </Trackpoint>
          <Trackpoint>
            <Time>2022-09-21T10:57:56.000Z</Time>
            <Position>
              <LatitudeDegrees>49.417403452098369598388671875</LatitudeDegrees>
              <LongitudeDegrees>20.433521904051303863525390625</LongitudeDegrees>
            </Position>
            <AltitudeMeters>480.20001220703125</AltitudeMeters>
            <DistanceMeters>NAN</DistanceMeters>
          </Trackpoint>
          <Trackpoint>
            <Time>2022-09-21T10:57:59.000Z</Time>
            <Position>
              <LatitudeDegrees>49.41740848124027252197265625</LatitudeDegrees>
              <LongitudeDegrees>20.43360815383493900299072265625</LongitudeDegrees>
            </Position>
            <AltitudeMeters>480.399993896484375</AltitudeMeters>
            <DistanceMeters>NAN</DistanceMeters>
          </Trackpoint>
          <Trackpoint>
            <Time>2022-09-21T10:58:02.000Z</Time>
            <Position>
              <LatitudeDegrees>49.4174059666693210601806640625</LatitudeDegrees>
              <LongitudeDegrees>20.4337275959551334381103515625</LongitudeDegrees>
            </Position>
            <AltitudeMeters>480.20001220703125</AltitudeMeters>
            <DistanceMeters>NAN</DistanceMeters>
          </Trackpoint>
          <Trackpoint>
            <Time>2022-09-21T10:58:03.000Z</Time>
            <Position>
              <LatitudeDegrees>49.41740135662257671356201171875</LatitudeDegrees>
              <LongitudeDegrees>20.433763302862644195556640625</LongitudeDegrees>
            </Position>
            <AltitudeMeters>480.20001220703125</AltitudeMeters>
            <DistanceMeters>NAN</DistanceMeters>
          </Trackpoint>
          <Trackpoint>
            <Time>2022-09-21T10:58:05.000Z</Time>
            <Position>
              <LatitudeDegrees>49.4174150191247463226318359375</LatitudeDegrees>
              <LongitudeDegrees>20.43384167365729808807373046875</LongitudeDegrees>
            </Position>
            <AltitudeMeters>480</AltitudeMeters>
            <DistanceMeters>NAN</DistanceMeters>
          </Trackpoint>
          <Trackpoint>
            <Time>2022-09-21T10:58:08.000Z</Time>
            <Position>
              <LatitudeDegrees>49.41742449067533016204833984375</LatitudeDegrees>
              <LongitudeDegrees>20.43394468724727630615234375</LongitudeDegrees>
            </Position>
            <AltitudeMeters>479.600006103515625</AltitudeMeters>
            <DistanceMeters>NAN</DistanceMeters>
          </Trackpoint>
          <Trackpoint>
            <Time>2022-09-21T10:58:11.000Z</Time>
            <Position>
              <LatitudeDegrees>49.4174116663634777069091796875</LatitudeDegrees>
              <LongitudeDegrees>20.43405055068433284759521484375</LongitudeDegrees>
            </Position>
            <AltitudeMeters>479.20001220703125</AltitudeMeters>
            <DistanceMeters>NAN</DistanceMeters>
          </Trackpoint>
          <Trackpoint>
            <Time>2022-09-21T10:58:13.000Z</Time>
            <Position>
              <LatitudeDegrees>49.41742750816047191619873046875</LatitudeDegrees>
              <LongitudeDegrees>20.43412716127932071685791015625</LongitudeDegrees>
            </Position>
            <AltitudeMeters>479.20001220703125</AltitudeMeters>
            <DistanceMeters>NAN</DistanceMeters>
          </Trackpoint>
          <Trackpoint>
            <Time>2022-09-21T10:58:18.000Z</Time>
            <Position>
              <LatitudeDegrees>49.417482577264308929443359375</LatitudeDegrees>
              <LongitudeDegrees>20.434341989457607269287109375</LongitudeDegrees>
            </Position>
            <AltitudeMeters>478.20001220703125</AltitudeMeters>
            <DistanceMeters>NAN</DistanceMeters>
          </Trackpoint>
          <Trackpoint>
            <Time>2022-09-21T10:58:19.000Z</Time>
            <Position>
              <LatitudeDegrees>49.41749188117682933807373046875</LatitudeDegrees>
              <LongitudeDegrees>20.43439454399049282073974609375</LongitudeDegrees>
            </Position>
            <AltitudeMeters>478</AltitudeMeters>
            <DistanceMeters>NAN</DistanceMeters>
          </Trackpoint>
          <Trackpoint>
            <Time>2022-09-21T10:58:22.000Z</Time>
            <Position>
              <LatitudeDegrees>49.41751099191606044769287109375</LatitudeDegrees>
              <LongitudeDegrees>20.4344866611063480377197265625</LongitudeDegrees>
            </Position>
            <AltitudeMeters>477.600006103515625</AltitudeMeters>
            <DistanceMeters>NAN</DistanceMeters>
          </Trackpoint>
          <Trackpoint>
            <Time>2022-09-21T10:58:25.000Z</Time>
            <Position>
              <LatitudeDegrees>49.41755491308867931365966796875</LatitudeDegrees>
              <LongitudeDegrees>20.43454349040985107421875</LongitudeDegrees>
            </Position>
            <AltitudeMeters>477.20001220703125</AltitudeMeters>
            <DistanceMeters>NAN</DistanceMeters>
          </Trackpoint>
          <Trackpoint>
            <Time>2022-09-21T10:58:26.000Z</Time>
            <Position>
              <LatitudeDegrees>49.41756941378116607666015625</LatitudeDegrees>
              <LongitudeDegrees>20.43458648957312107086181640625</LongitudeDegrees>
            </Position>
            <AltitudeMeters>477.20001220703125</AltitudeMeters>
            <DistanceMeters>NAN</DistanceMeters>
          </Trackpoint>
          <Trackpoint>
            <Time>2022-09-21T10:58:28.000Z</Time>
            <Position>
              <LatitudeDegrees>49.41755457781255245208740234375</LatitudeDegrees>
              <LongitudeDegrees>20.434657149016857147216796875</LongitudeDegrees>
            </Position>
            <AltitudeMeters>476.79998779296875</AltitudeMeters>
            <DistanceMeters>NAN</DistanceMeters>
          </Trackpoint>
          <Trackpoint>
            <Time>2022-09-21T10:58:29.000Z</Time>
            <Position>
              <LatitudeDegrees>49.41754921339452266693115234375</LatitudeDegrees>
              <LongitudeDegrees>20.434685647487640380859375</LongitudeDegrees>
            </Position>
            <AltitudeMeters>476.79998779296875</AltitudeMeters>
            <DistanceMeters>NAN</DistanceMeters>
          </Trackpoint>
          <Trackpoint>
            <Time>2022-09-21T10:58:30.000Z</Time>
            <Position>
              <LatitudeDegrees>49.41756010986864566802978515625</LatitudeDegrees>
              <LongitudeDegrees>20.43471842072904109954833984375</LongitudeDegrees>
            </Position>
            <AltitudeMeters>476.600006103515625</AltitudeMeters>
            <DistanceMeters>NAN</DistanceMeters>
          </Trackpoint>
          <Trackpoint>
            <Time>2022-09-21T10:58:32.000Z</Time>
            <Position>
              <LatitudeDegrees>49.4175486266613006591796875</LatitudeDegrees>
              <LongitudeDegrees>20.43477617204189300537109375</LongitudeDegrees>
            </Position>
            <AltitudeMeters>476.399993896484375</AltitudeMeters>
            <DistanceMeters>NAN</DistanceMeters>
          </Trackpoint>
          <Trackpoint>
            <Time>2022-09-21T10:58:33.000Z</Time>
            <Position>
              <LatitudeDegrees>49.4175459444522857666015625</LatitudeDegrees>
              <LongitudeDegrees>20.4348061792552471160888671875</LongitudeDegrees>
            </Position>
            <AltitudeMeters>476</AltitudeMeters>
            <DistanceMeters>NAN</DistanceMeters>
          </Trackpoint>
          <Trackpoint>
            <Time>2022-09-21T10:58:36.000Z</Time>
            <Position>
              <LatitudeDegrees>49.41755005158483982086181640625</LatitudeDegrees>
              <LongitudeDegrees>20.4349171556532382965087890625</LongitudeDegrees>
            </Position>
            <AltitudeMeters>475.399993896484375</AltitudeMeters>
            <DistanceMeters>NAN</DistanceMeters>
          </Trackpoint>
          <Trackpoint>
            <Time>2022-09-21T10:58:37.000Z</Time>
            <Position>
              <LatitudeDegrees>49.41754770465195178985595703125</LatitudeDegrees>
              <LongitudeDegrees>20.434960909187793731689453125</LongitudeDegrees>
            </Position>
            <AltitudeMeters>475</AltitudeMeters>
            <DistanceMeters>NAN</DistanceMeters>
          </Trackpoint>
          <Trackpoint>
            <Time>2022-09-21T10:58:40.000Z</Time>
            <Position>
              <LatitudeDegrees>49.417560361325740814208984375</LatitudeDegrees>
              <LongitudeDegrees>20.43506987392902374267578125</LongitudeDegrees>
            </Position>
            <AltitudeMeters>474.20001220703125</AltitudeMeters>
            <DistanceMeters>NAN</DistanceMeters>
          </Trackpoint>
          <Trackpoint>
            <Time>2022-09-21T10:58:43.000Z</Time>
            <Position>
              <LatitudeDegrees>49.4175432622432708740234375</LatitudeDegrees>
              <LongitudeDegrees>20.4351686127483844757080078125</LongitudeDegrees>
            </Position>
            <AltitudeMeters>473.79998779296875</AltitudeMeters>
            <DistanceMeters>NAN</DistanceMeters>
          </Trackpoint>
          <Trackpoint>
            <Time>2022-09-21T10:58:45.000Z</Time>
            <Position>
              <LatitudeDegrees>49.41757419146597385406494140625</LatitudeDegrees>
              <LongitudeDegrees>20.43518847785890102386474609375</LongitudeDegrees>
            </Position>
            <AltitudeMeters>473</AltitudeMeters>
            <DistanceMeters>NAN</DistanceMeters>
          </Trackpoint>
          <Trackpoint>
            <Time>2022-09-21T10:58:46.000Z</Time>
            <Position>
              <LatitudeDegrees>49.41758391447365283966064453125</LatitudeDegrees>
              <LongitudeDegrees>20.43520909734070301055908203125</LongitudeDegrees>
            </Position>
            <AltitudeMeters>472.79998779296875</AltitudeMeters>
            <DistanceMeters>NAN</DistanceMeters>
          </Trackpoint>
          <Trackpoint>
            <Time>2022-09-21T10:58:47.000Z</Time>
            <Position>
              <LatitudeDegrees>49.4175937213003635406494140625</LatitudeDegrees>
              <LongitudeDegrees>20.43523474596440792083740234375</LongitudeDegrees>
            </Position>
            <AltitudeMeters>472.399993896484375</AltitudeMeters>
            <DistanceMeters>NAN</DistanceMeters>
          </Trackpoint>
          <Trackpoint>
            <Time>2022-09-21T10:58:48.000Z</Time>
            <Position>
              <LatitudeDegrees>49.4175933860242366790771484375</LatitudeDegrees>
              <LongitudeDegrees>20.4352609813213348388671875</LongitudeDegrees>
            </Position>
            <AltitudeMeters>472.20001220703125</AltitudeMeters>
            <DistanceMeters>NAN</DistanceMeters>
          </Trackpoint>
          <Trackpoint>
            <Time>2022-09-21T10:58:49.000Z</Time>
            <Position>
              <LatitudeDegrees>49.4175863452255725860595703125</LatitudeDegrees>
              <LongitudeDegrees>20.43530859053134918212890625</LongitudeDegrees>
            </Position>
            <AltitudeMeters>471.79998779296875</AltitudeMeters>
            <DistanceMeters>NAN</DistanceMeters>
          </Trackpoint>
          <Trackpoint>
            <Time>2022-09-21T10:58:51.000Z</Time>
            <Position>
              <LatitudeDegrees>49.41759288311004638671875</LatitudeDegrees>
              <LongitudeDegrees>20.435404814779758453369140625</LongitudeDegrees>
            </Position>
            <AltitudeMeters>471.20001220703125</AltitudeMeters>
            <DistanceMeters>NAN</DistanceMeters>
          </Trackpoint>
          <Trackpoint>
            <Time>2022-09-21T10:58:54.000Z</Time>
            <Position>
              <LatitudeDegrees>49.4176078028976917266845703125</LatitudeDegrees>
              <LongitudeDegrees>20.4355816729366779327392578125</LongitudeDegrees>
            </Position>
            <AltitudeMeters>470.20001220703125</AltitudeMeters>
            <DistanceMeters>NAN</DistanceMeters>
          </Trackpoint>
          <Trackpoint>
            <Time>2022-09-21T10:58:55.000Z</Time>
            <Position>
              <LatitudeDegrees>49.41762330941855907440185546875</LatitudeDegrees>
              <LongitudeDegrees>20.43564520776271820068359375</LongitudeDegrees>
            </Position>
            <AltitudeMeters>469.79998779296875</AltitudeMeters>
            <DistanceMeters>NAN</DistanceMeters>
          </Trackpoint>
          <Trackpoint>
            <Time>2022-09-21T10:58:57.000Z</Time>
            <Position>
              <LatitudeDegrees>49.4175786338746547698974609375</LatitudeDegrees>
              <LongitudeDegrees>20.435667671263217926025390625</LongitudeDegrees>
            </Position>
            <AltitudeMeters>469.399993896484375</AltitudeMeters>
            <DistanceMeters>NAN</DistanceMeters>
          </Trackpoint>
          <Trackpoint>
            <Time>2022-09-21T10:58:59.000Z</Time>
            <Position>
              <LatitudeDegrees>49.41754384897649288177490234375</LatitudeDegrees>
              <LongitudeDegrees>20.43571100570261478424072265625</LongitudeDegrees>
            </Position>
            <AltitudeMeters>469</AltitudeMeters>
            <DistanceMeters>NAN</DistanceMeters>
          </Trackpoint>
          <Trackpoint>
            <Time>2022-09-21T10:59:01.000Z</Time>
            <Position>
              <LatitudeDegrees>49.41752792336046695709228515625</LatitudeDegrees>
              <LongitudeDegrees>20.43576783500611782073974609375</LongitudeDegrees>
            </Position>
            <AltitudeMeters>468.600006103515625</AltitudeMeters>
            <DistanceMeters>NAN</DistanceMeters>
          </Trackpoint>
          <Trackpoint>
            <Time>2022-09-21T10:59:03.000Z</Time>
            <Position>
              <LatitudeDegrees>49.4175253249704837799072265625</LatitudeDegrees>
              <LongitudeDegrees>20.4357808269560337066650390625</LongitudeDegrees>
            </Position>
            <AltitudeMeters>468</AltitudeMeters>
            <DistanceMeters>NAN</DistanceMeters>
          </Trackpoint>
          <Trackpoint>
            <Time>2022-09-21T10:59:04.000Z</Time>
            <Position>
              <LatitudeDegrees>49.4175159372389316558837890625</LatitudeDegrees>
              <LongitudeDegrees>20.435805134475231170654296875</LongitudeDegrees>
            </Position>
            <AltitudeMeters>467.79998779296875</AltitudeMeters>
            <DistanceMeters>NAN</DistanceMeters>
          </Trackpoint>
          <Trackpoint>
            <Time>2022-09-21T10:59:06.000Z</Time>
            <Position>
              <LatitudeDegrees>49.41750898025929927825927734375</LatitudeDegrees>
              <LongitudeDegrees>20.435855090618133544921875</LongitudeDegrees>
            </Position>
            <AltitudeMeters>467.20001220703125</AltitudeMeters>
            <DistanceMeters>NAN</DistanceMeters>
          </Trackpoint>
          <Trackpoint>
            <Time>2022-09-21T10:59:08.000Z</Time>
            <Position>
              <LatitudeDegrees>49.41750680096447467803955078125</LatitudeDegrees>
              <LongitudeDegrees>20.43590605258941650390625</LongitudeDegrees>
            </Position>
            <AltitudeMeters>466.600006103515625</AltitudeMeters>
            <DistanceMeters>NAN</DistanceMeters>
          </Trackpoint>
          <Trackpoint>
            <Time>2022-09-21T10:59:09.000Z</Time>
            <Position>
              <LatitudeDegrees>49.417502693831920623779296875</LatitudeDegrees>
              <LongitudeDegrees>20.43594502843916416168212890625</LongitudeDegrees>
            </Position>
            <AltitudeMeters>466.399993896484375</AltitudeMeters>
            <DistanceMeters>NAN</DistanceMeters>
          </Trackpoint>
          <Trackpoint>
            <Time>2022-09-21T10:59:12.000Z</Time>
            <Position>
              <LatitudeDegrees>49.41750235855579376220703125</LatitudeDegrees>
              <LongitudeDegrees>20.43603412806987762451171875</LongitudeDegrees>
            </Position>
            <AltitudeMeters>465.600006103515625</AltitudeMeters>
            <DistanceMeters>NAN</DistanceMeters>
          </Trackpoint>
          <Trackpoint>
            <Time>2022-09-21T10:59:13.000Z</Time>
            <Position>
              <LatitudeDegrees>49.41750059835612773895263671875</LatitudeDegrees>
              <LongitudeDegrees>20.43606807477772235870361328125</LongitudeDegrees>
            </Position>
            <AltitudeMeters>465.20001220703125</AltitudeMeters>
            <DistanceMeters>NAN</DistanceMeters>
          </Trackpoint>
          <Trackpoint>
            <Time>2022-09-21T10:59:15.000Z</Time>
            <Position>
              <LatitudeDegrees>49.41750210709869861602783203125</LatitudeDegrees>
              <LongitudeDegrees>20.4361268319189548492431640625</LongitudeDegrees>
            </Position>
            <AltitudeMeters>465</AltitudeMeters>
            <DistanceMeters>NAN</DistanceMeters>
          </Trackpoint>
          <Trackpoint>
            <Time>2022-09-21T10:59:16.000Z</Time>
            <Position>
              <LatitudeDegrees>49.41750076599419116973876953125</LatitudeDegrees>
              <LongitudeDegrees>20.43615222908556461334228515625</LongitudeDegrees>
            </Position>
            <AltitudeMeters>464.79998779296875</AltitudeMeters>
            <DistanceMeters>NAN</DistanceMeters>
          </Trackpoint>
          <Trackpoint>
            <Time>2022-09-21T10:59:18.000Z</Time>
            <Position>
              <LatitudeDegrees>49.41748349927365779876708984375</LatitudeDegrees>
              <LongitudeDegrees>20.43619749136269092559814453125</LongitudeDegrees>
            </Position>
            <AltitudeMeters>464.20001220703125</AltitudeMeters>
            <DistanceMeters>NAN</DistanceMeters>
          </Trackpoint>
          <Trackpoint>
            <Time>2022-09-21T10:59:20.000Z</Time>
            <Position>
              <LatitudeDegrees>49.41737218759953975677490234375</LatitudeDegrees>
              <LongitudeDegrees>20.43630746193230152130126953125</LongitudeDegrees>
            </Position>
            <AltitudeMeters>463.399993896484375</AltitudeMeters>
            <DistanceMeters>NAN</DistanceMeters>
          </Trackpoint>
          <Trackpoint>
            <Time>2022-09-21T10:59:22.000Z</Time>
            <Position>
              <LatitudeDegrees>49.41727302968502044677734375</LatitudeDegrees>
              <LongitudeDegrees>20.436426736414432525634765625</LongitudeDegrees>
            </Position>
            <AltitudeMeters>463.20001220703125</AltitudeMeters>
            <DistanceMeters>NAN</DistanceMeters>
          </Trackpoint>
          <Trackpoint>
            <Time>2022-09-21T10:59:25.000Z</Time>
            <Position>
              <LatitudeDegrees>49.4172363169491291046142578125</LatitudeDegrees>
              <LongitudeDegrees>20.43651156127452850341796875</LongitudeDegrees>
            </Position>
            <AltitudeMeters>462</AltitudeMeters>
            <DistanceMeters>NAN</DistanceMeters>
          </Trackpoint>
          <Trackpoint>
            <Time>2022-09-21T10:59:27.000Z</Time>
            <Position>
              <LatitudeDegrees>49.41720689646899700164794921875</LatitudeDegrees>
              <LongitudeDegrees>20.4365620203316211700439453125</LongitudeDegrees>
            </Position>
            <AltitudeMeters>461.600006103515625</AltitudeMeters>
            <DistanceMeters>NAN</DistanceMeters>
          </Trackpoint>
          <Trackpoint>
            <Time>2022-09-21T10:59:29.000Z</Time>
            <Position>
              <LatitudeDegrees>49.41717035137116909027099609375</LatitudeDegrees>
              <LongitudeDegrees>20.43659915216267108917236328125</LongitudeDegrees>
            </Position>
            <AltitudeMeters>461.20001220703125</AltitudeMeters>
            <DistanceMeters>NAN</DistanceMeters>
          </Trackpoint>
          <Trackpoint>
            <Time>2022-09-21T10:59:31.000Z</Time>
            <Position>
              <LatitudeDegrees>49.41711788065731525421142578125</LatitudeDegrees>
              <LongitudeDegrees>20.43665514327585697174072265625</LongitudeDegrees>
            </Position>
            <AltitudeMeters>460.79998779296875</AltitudeMeters>
            <DistanceMeters>NAN</DistanceMeters>
          </Trackpoint>
          <Trackpoint>
            <Time>2022-09-21T10:59:37.000Z</Time>
            <Position>
              <LatitudeDegrees>49.41689291037619113922119140625</LatitudeDegrees>
              <LongitudeDegrees>20.4367973841726779937744140625</LongitudeDegrees>
            </Position>
            <AltitudeMeters>460</AltitudeMeters>
            <DistanceMeters>NAN</DistanceMeters>
          </Trackpoint>
          <Trackpoint>
            <Time>2022-09-21T10:59:38.000Z</Time>
            <Position>
              <LatitudeDegrees>49.4168500788509845733642578125</LatitudeDegrees>
              <LongitudeDegrees>20.4368282295763492584228515625</LongitudeDegrees>
            </Position>
            <AltitudeMeters>459.79998779296875</AltitudeMeters>
            <DistanceMeters>NAN</DistanceMeters>
          </Trackpoint>
          <Trackpoint>
            <Time>2022-09-21T10:59:41.000Z</Time>
            <Position>
              <LatitudeDegrees>49.41673080436885356903076171875</LatitudeDegrees>
              <LongitudeDegrees>20.43694247491657733917236328125</LongitudeDegrees>
            </Position>
            <AltitudeMeters>459.20001220703125</AltitudeMeters>
            <DistanceMeters>NAN</DistanceMeters>
          </Trackpoint>
          <Trackpoint>
            <Time>2022-09-21T10:59:43.000Z</Time>
            <Position>
              <LatitudeDegrees>49.41666693426668643951416015625</LatitudeDegrees>
              <LongitudeDegrees>20.4370008967816829681396484375</LongitudeDegrees>
            </Position>
            <AltitudeMeters>459</AltitudeMeters>
            <DistanceMeters>NAN</DistanceMeters>
          </Trackpoint>
          <Trackpoint>
            <Time>2022-09-21T10:59:45.000Z</Time>
            <Position>
              <LatitudeDegrees>49.41660557873547077178955078125</LatitudeDegrees>
              <LongitudeDegrees>20.4370461590588092803955078125</LongitudeDegrees>
            </Position>
            <AltitudeMeters>459</AltitudeMeters>
            <DistanceMeters>NAN</DistanceMeters>
          </Trackpoint>
          <Trackpoint>
            <Time>2022-09-21T10:59:49.000Z</Time>
            <Position>
              <LatitudeDegrees>49.41648504696786403656005859375</LatitudeDegrees>
              <LongitudeDegrees>20.4371551238000392913818359375</LongitudeDegrees>
            </Position>
            <AltitudeMeters>459.20001220703125</AltitudeMeters>
            <DistanceMeters>NAN</DistanceMeters>
          </Trackpoint>
          <Trackpoint>
            <Time>2022-09-21T10:59:54.000Z</Time>
            <Position>
              <LatitudeDegrees>49.4163330830633640289306640625</LatitudeDegrees>
              <LongitudeDegrees>20.437271296977996826171875</LongitudeDegrees>
            </Position>
            <AltitudeMeters>459.20001220703125</AltitudeMeters>
            <DistanceMeters>NAN</DistanceMeters>
          </Trackpoint>
          <Trackpoint>
            <Time>2022-09-21T10:59:58.000Z</Time>
            <Position>
              <LatitudeDegrees>49.41620819270610809326171875</LatitudeDegrees>
              <LongitudeDegrees>20.437317900359630584716796875</LongitudeDegrees>
            </Position>
            <AltitudeMeters>459.20001220703125</AltitudeMeters>
            <DistanceMeters>NAN</DistanceMeters>
          </Trackpoint>
          <Trackpoint>
            <Time>2022-09-21T11:00:00.000Z</Time>
            <Position>
              <LatitudeDegrees>49.4161510281264781951904296875</LatitudeDegrees>
              <LongitudeDegrees>20.4373328201472759246826171875</LongitudeDegrees>
            </Position>
            <AltitudeMeters>459.20001220703125</AltitudeMeters>
            <DistanceMeters>NAN</DistanceMeters>
          </Trackpoint>
          <Trackpoint>
            <Time>2022-09-21T11:00:03.000Z</Time>
            <Position>
              <LatitudeDegrees>49.41607282496988773345947265625</LatitudeDegrees>
              <LongitudeDegrees>20.43736659921705722808837890625</LongitudeDegrees>
            </Position>
            <AltitudeMeters>458.79998779296875</AltitudeMeters>
            <DistanceMeters>NAN</DistanceMeters>
          </Trackpoint>
          <Trackpoint>
            <Time>2022-09-21T11:00:05.000Z</Time>
            <Position>
              <LatitudeDegrees>49.41602647304534912109375</LatitudeDegrees>
              <LongitudeDegrees>20.43740029446780681610107421875</LongitudeDegrees>
            </Position>
            <AltitudeMeters>458.79998779296875</AltitudeMeters>
            <DistanceMeters>NAN</DistanceMeters>
          </Trackpoint>
          <Trackpoint>
            <Time>2022-09-21T11:00:06.000Z</Time>
            <Position>
              <LatitudeDegrees>49.41600174643099308013916015625</LatitudeDegrees>
              <LongitudeDegrees>20.43741873465478420257568359375</LongitudeDegrees>
            </Position>
            <AltitudeMeters>458.79998779296875</AltitudeMeters>
            <DistanceMeters>NAN</DistanceMeters>
          </Trackpoint>
          <Trackpoint>
            <Time>2022-09-21T11:00:10.000Z</Time>
            <Position>
              <LatitudeDegrees>49.41587417386472225189208984375</LatitudeDegrees>
              <LongitudeDegrees>20.437504984438419342041015625</LongitudeDegrees>
            </Position>
            <AltitudeMeters>459</AltitudeMeters>
            <DistanceMeters>NAN</DistanceMeters>
          </Trackpoint>
          <Trackpoint>
            <Time>2022-09-21T11:00:12.000Z</Time>
            <Position>
              <LatitudeDegrees>49.41581499762833118438720703125</LatitudeDegrees>
              <LongitudeDegrees>20.4375463910400867462158203125</LongitudeDegrees>
            </Position>
            <AltitudeMeters>459.20001220703125</AltitudeMeters>
            <DistanceMeters>NAN</DistanceMeters>
          </Trackpoint>
          <Trackpoint>
            <Time>2022-09-21T11:00:15.000Z</Time>
            <Position>
              <LatitudeDegrees>49.4157248921692371368408203125</LatitudeDegrees>
              <LongitudeDegrees>20.43756910599768161773681640625</LongitudeDegrees>
            </Position>
            <AltitudeMeters>459.399993896484375</AltitudeMeters>
            <DistanceMeters>NAN</DistanceMeters>
          </Trackpoint>
          <Trackpoint>
            <Time>2022-09-21T11:00:20.000Z</Time>
            <Position>
              <LatitudeDegrees>49.4155880995094776153564453125</LatitudeDegrees>
              <LongitudeDegrees>20.4376620613038539886474609375</LongitudeDegrees>
            </Position>
            <AltitudeMeters>459.399993896484375</AltitudeMeters>
            <DistanceMeters>NAN</DistanceMeters>
          </Trackpoint>
          <Trackpoint>
            <Time>2022-09-21T11:00:23.000Z</Time>
            <Position>
              <LatitudeDegrees>49.4155200384557247161865234375</LatitudeDegrees>
              <LongitudeDegrees>20.43765057809650897979736328125</LongitudeDegrees>
            </Position>
            <AltitudeMeters>459.399993896484375</AltitudeMeters>
            <DistanceMeters>NAN</DistanceMeters>
          </Trackpoint>
          <Trackpoint>
            <Time>2022-09-21T11:00:25.000Z</Time>
            <Position>
              <LatitudeDegrees>49.41546790301799774169921875</LatitudeDegrees>
              <LongitudeDegrees>20.43769198469817638397216796875</LongitudeDegrees>
            </Position>
            <AltitudeMeters>459.20001220703125</AltitudeMeters>
            <DistanceMeters>NAN</DistanceMeters>
          </Trackpoint>
          <Trackpoint>
            <Time>2022-09-21T11:00:28.000Z</Time>
            <Position>
              <LatitudeDegrees>49.4154107384383678436279296875</LatitudeDegrees>
              <LongitudeDegrees>20.43774764053523540496826171875</LongitudeDegrees>
            </Position>
            <AltitudeMeters>459.399993896484375</AltitudeMeters>
            <DistanceMeters>NAN</DistanceMeters>
          </Trackpoint>
          <Trackpoint>
            <Time>2022-09-21T11:00:30.000Z</Time>
            <Position>
              <LatitudeDegrees>49.41540109924972057342529296875</LatitudeDegrees>
              <LongitudeDegrees>20.43775820173323154449462890625</LongitudeDegrees>
            </Position>
            <AltitudeMeters>459.600006103515625</AltitudeMeters>
            <DistanceMeters>NAN</DistanceMeters>
          </Trackpoint>
          <Trackpoint>
            <Time>2022-09-21T11:00:31.000Z</Time>
            <Position>
              <LatitudeDegrees>49.4153966568410396575927734375</LatitudeDegrees>
              <LongitudeDegrees>20.43778083287179470062255859375</LongitudeDegrees>
            </Position>
            <AltitudeMeters>459.600006103515625</AltitudeMeters>
            <DistanceMeters>NAN</DistanceMeters>
          </Trackpoint>
          <Trackpoint>
            <Time>2022-09-21T11:00:32.000Z</Time>
            <Position>
              <LatitudeDegrees>49.41538517363369464874267578125</LatitudeDegrees>
              <LongitudeDegrees>20.43780446983873844146728515625</LongitudeDegrees>
            </Position>
            <AltitudeMeters>459.79998779296875</AltitudeMeters>
            <DistanceMeters>NAN</DistanceMeters>
          </Trackpoint>
          <Trackpoint>
            <Time>2022-09-21T11:00:34.000Z</Time>
            <Position>
              <LatitudeDegrees>49.41532163880765438079833984375</LatitudeDegrees>
              <LongitudeDegrees>20.43783414177596569061279296875</LongitudeDegrees>
            </Position>
            <AltitudeMeters>459.600006103515625</AltitudeMeters>
            <DistanceMeters>NAN</DistanceMeters>
          </Trackpoint>
          <Trackpoint>
            <Time>2022-09-21T11:00:38.000Z</Time>
            <Position>
              <LatitudeDegrees>49.4151542522013187408447265625</LatitudeDegrees>
              <LongitudeDegrees>20.43795417062938213348388671875</LongitudeDegrees>
            </Position>
            <AltitudeMeters>459.399993896484375</AltitudeMeters>
            <DistanceMeters>NAN</DistanceMeters>
          </Trackpoint>
          <Trackpoint>
            <Time>2022-09-21T11:00:39.000Z</Time>
            <Position>
              <LatitudeDegrees>49.41514159552752971649169921875</LatitudeDegrees>
              <LongitudeDegrees>20.43800094164907932281494140625</LongitudeDegrees>
            </Position>
            <AltitudeMeters>459.399993896484375</AltitudeMeters>
            <DistanceMeters>NAN</DistanceMeters>
          </Trackpoint>
          <Trackpoint>
            <Time>2022-09-21T11:00:40.000Z</Time>
            <Position>
              <LatitudeDegrees>49.41512986086308956146240234375</LatitudeDegrees>
              <LongitudeDegrees>20.4379959963262081146240234375</LongitudeDegrees>
            </Position>
            <AltitudeMeters>459.399993896484375</AltitudeMeters>
            <DistanceMeters>NAN</DistanceMeters>
          </Trackpoint>
          <Trackpoint>
            <Time>2022-09-21T11:00:42.000Z</Time>
            <Position>
              <LatitudeDegrees>49.41511913202702999114990234375</LatitudeDegrees>
              <LongitudeDegrees>20.4380077309906482696533203125</LongitudeDegrees>
            </Position>
            <AltitudeMeters>459.399993896484375</AltitudeMeters>
            <DistanceMeters>NAN</DistanceMeters>
          </Trackpoint>
          <Trackpoint>
            <Time>2022-09-21T11:00:44.000Z</Time>
            <Position>
              <LatitudeDegrees>49.41506699658930301666259765625</LatitudeDegrees>
              <LongitudeDegrees>20.43805123306810855865478515625</LongitudeDegrees>
            </Position>
            <AltitudeMeters>459.399993896484375</AltitudeMeters>
            <DistanceMeters>NAN</DistanceMeters>
          </Trackpoint>
          <Trackpoint>
            <Time>2022-09-21T11:00:45.000Z</Time>
            <Position>
              <LatitudeDegrees>49.41504872404038906097412109375</LatitudeDegrees>
              <LongitudeDegrees>20.43805542401969432830810546875</LongitudeDegrees>
            </Position>
            <AltitudeMeters>459.399993896484375</AltitudeMeters>
            <DistanceMeters>NAN</DistanceMeters>
          </Trackpoint>
          <Trackpoint>
            <Time>2022-09-21T11:00:49.000Z</Time>
            <Position>
              <LatitudeDegrees>49.41495635546743869781494140625</LatitudeDegrees>
              <LongitudeDegrees>20.4381120018661022186279296875</LongitudeDegrees>
            </Position>
            <AltitudeMeters>459.399993896484375</AltitudeMeters>
            <DistanceMeters>NAN</DistanceMeters>
          </Trackpoint>
          <Trackpoint>
            <Time>2022-09-21T11:00:54.000Z</Time>
            <Position>
              <LatitudeDegrees>49.4148310460150241851806640625</LatitudeDegrees>
              <LongitudeDegrees>20.4382253251969814300537109375</LongitudeDegrees>
            </Position>
            <AltitudeMeters>459.399993896484375</AltitudeMeters>
            <DistanceMeters>NAN</DistanceMeters>
          </Trackpoint>
          <Trackpoint>
            <Time>2022-09-21T11:00:56.000Z</Time>
            <Position>
              <LatitudeDegrees>49.414709508419036865234375</LatitudeDegrees>
              <LongitudeDegrees>20.43833521194756031036376953125</LongitudeDegrees>
            </Position>
            <AltitudeMeters>459.399993896484375</AltitudeMeters>
            <DistanceMeters>NAN</DistanceMeters>
          </Trackpoint>
          <Trackpoint>
            <Time>2022-09-21T11:00:57.000Z</Time>
            <Position>
              <LatitudeDegrees>49.4146758131682872772216796875</LatitudeDegrees>
              <LongitudeDegrees>20.4383624531328678131103515625</LongitudeDegrees>
            </Position>
            <AltitudeMeters>459.20001220703125</AltitudeMeters>
            <DistanceMeters>NAN</DistanceMeters>
          </Trackpoint>
          <Trackpoint>
            <Time>2022-09-21T11:01:01.000Z</Time>
            <Position>
              <LatitudeDegrees>49.41460297442972660064697265625</LatitudeDegrees>
              <LongitudeDegrees>20.4383936338126659393310546875</LongitudeDegrees>
            </Position>
            <AltitudeMeters>459</AltitudeMeters>
            <DistanceMeters>NAN</DistanceMeters>
          </Trackpoint>
          <Trackpoint>
            <Time>2022-09-21T11:01:02.000Z</Time>
            <Position>
              <LatitudeDegrees>49.4146023876965045928955078125</LatitudeDegrees>
              <LongitudeDegrees>20.43839044868946075439453125</LongitudeDegrees>
            </Position>
            <AltitudeMeters>459</AltitudeMeters>
            <DistanceMeters>NAN</DistanceMeters>
          </Trackpoint>
          <Trackpoint>
            <Time>2022-09-21T11:01:05.000Z</Time>
            <Position>
              <LatitudeDegrees>49.414612948894500732421875</LatitudeDegrees>
              <LongitudeDegrees>20.43840612284839153289794921875</LongitudeDegrees>
            </Position>
            <AltitudeMeters>459</AltitudeMeters>
            <DistanceMeters>NAN</DistanceMeters>
          </Trackpoint>
          <Trackpoint>
            <Time>2022-09-21T11:01:08.000Z</Time>
            <Position>
              <LatitudeDegrees>49.4145681895315647125244140625</LatitudeDegrees>
              <LongitudeDegrees>20.438553392887115478515625</LongitudeDegrees>
            </Position>
            <AltitudeMeters>459</AltitudeMeters>
            <DistanceMeters>NAN</DistanceMeters>
          </Trackpoint>
          <Trackpoint>
            <Time>2022-09-21T11:01:11.000Z</Time>
            <Position>
              <LatitudeDegrees>49.41455150954425334930419921875</LatitudeDegrees>
              <LongitudeDegrees>20.43863830156624317169189453125</LongitudeDegrees>
            </Position>
            <AltitudeMeters>459</AltitudeMeters>
            <DistanceMeters>NAN</DistanceMeters>
          </Trackpoint>
          <Trackpoint>
            <Time>2022-09-21T11:01:12.000Z</Time>
            <Position>
              <LatitudeDegrees>49.41454614512622356414794921875</LatitudeDegrees>
              <LongitudeDegrees>20.43866646476089954376220703125</LongitudeDegrees>
            </Position>
            <AltitudeMeters>459</AltitudeMeters>
            <DistanceMeters>NAN</DistanceMeters>
          </Trackpoint>
          <Trackpoint>
            <Time>2022-09-21T11:01:16.000Z</Time>
            <Position>
              <LatitudeDegrees>49.4145142100751399993896484375</LatitudeDegrees>
              <LongitudeDegrees>20.43876738287508487701416015625</LongitudeDegrees>
            </Position>
            <AltitudeMeters>458.79998779296875</AltitudeMeters>
            <DistanceMeters>NAN</DistanceMeters>
          </Trackpoint>
          <Trackpoint>
            <Time>2022-09-21T11:01:18.000Z</Time>
            <Position>
              <LatitudeDegrees>49.41449836827814579010009765625</LatitudeDegrees>
              <LongitudeDegrees>20.4388149082660675048828125</LongitudeDegrees>
            </Position>
            <AltitudeMeters>458.79998779296875</AltitudeMeters>
            <DistanceMeters>NAN</DistanceMeters>
          </Trackpoint>
          <Trackpoint>
            <Time>2022-09-21T11:01:22.000Z</Time>
            <Position>
              <LatitudeDegrees>49.4144763238728046417236328125</LatitudeDegrees>
              <LongitudeDegrees>20.43892932124435901641845703125</LongitudeDegrees>
            </Position>
            <AltitudeMeters>458.79998779296875</AltitudeMeters>
            <DistanceMeters>NAN</DistanceMeters>
          </Trackpoint>
          <Trackpoint>
            <Time>2022-09-21T11:01:25.000Z</Time>
            <Position>
              <LatitudeDegrees>49.4144578836858272552490234375</LatitudeDegrees>
              <LongitudeDegrees>20.438998304307460784912109375</LongitudeDegrees>
            </Position>
            <AltitudeMeters>459</AltitudeMeters>
            <DistanceMeters>NAN</DistanceMeters>
          </Trackpoint>
          <Trackpoint>
            <Time>2022-09-21T11:01:28.000Z</Time>
            <Position>
              <LatitudeDegrees>49.41443525254726409912109375</LatitudeDegrees>
              <LongitudeDegrees>20.4391161538660526275634765625</LongitudeDegrees>
            </Position>
            <AltitudeMeters>459.20001220703125</AltitudeMeters>
            <DistanceMeters>NAN</DistanceMeters>
          </Trackpoint>
          <Trackpoint>
            <Time>2022-09-21T11:01:33.000Z</Time>
            <Position>
              <LatitudeDegrees>49.41440566442906856536865234375</LatitudeDegrees>
              <LongitudeDegrees>20.43933668173849582672119140625</LongitudeDegrees>
            </Position>
            <AltitudeMeters>459</AltitudeMeters>
            <DistanceMeters>NAN</DistanceMeters>
          </Trackpoint>
          <Trackpoint>
            <Time>2022-09-21T11:01:36.000Z</Time>
            <Position>
              <LatitudeDegrees>49.41438504494726657867431640625</LatitudeDegrees>
              <LongitudeDegrees>20.43943055905401706695556640625</LongitudeDegrees>
            </Position>
            <AltitudeMeters>459.20001220703125</AltitudeMeters>
            <DistanceMeters>NAN</DistanceMeters>
          </Trackpoint>
          <Trackpoint>
            <Time>2022-09-21T11:01:38.000Z</Time>
            <Position>
              <LatitudeDegrees>49.4143807701766490936279296875</LatitudeDegrees>
              <LongitudeDegrees>20.439505241811275482177734375</LongitudeDegrees>
            </Position>
            <AltitudeMeters>459.20001220703125</AltitudeMeters>
            <DistanceMeters>NAN</DistanceMeters>
          </Trackpoint>
          <Trackpoint>
            <Time>2022-09-21T11:01:46.000Z</Time>
            <Position>
              <LatitudeDegrees>49.41441320814192295074462890625</LatitudeDegrees>
              <LongitudeDegrees>20.43986943550407886505126953125</LongitudeDegrees>
            </Position>
            <AltitudeMeters>459</AltitudeMeters>
            <DistanceMeters>NAN</DistanceMeters>
          </Trackpoint>
          <Trackpoint>
            <Time>2022-09-21T11:01:51.000Z</Time>
            <Position>
              <LatitudeDegrees>49.41441371105611324310302734375</LatitudeDegrees>
              <LongitudeDegrees>20.44012826867401599884033203125</LongitudeDegrees>
            </Position>
            <AltitudeMeters>459.20001220703125</AltitudeMeters>
            <DistanceMeters>NAN</DistanceMeters>
          </Trackpoint>
          <Trackpoint>
            <Time>2022-09-21T11:01:56.000Z</Time>
            <Position>
              <LatitudeDegrees>49.4144072569906711578369140625</LatitudeDegrees>
              <LongitudeDegrees>20.4403382353484630584716796875</LongitudeDegrees>
            </Position>
            <AltitudeMeters>459.20001220703125</AltitudeMeters>
            <DistanceMeters>NAN</DistanceMeters>
          </Trackpoint>
          <Trackpoint>
            <Time>2022-09-21T11:02:01.000Z</Time>
            <Position>
              <LatitudeDegrees>49.4144039042294025421142578125</LatitudeDegrees>
              <LongitudeDegrees>20.4405648820102214813232421875</LongitudeDegrees>
            </Position>
            <AltitudeMeters>459.20001220703125</AltitudeMeters>
            <DistanceMeters>NAN</DistanceMeters>
          </Trackpoint>
          <Trackpoint>
            <Time>2022-09-21T11:02:02.000Z</Time>
            <Position>
              <LatitudeDegrees>49.41439091227948665618896484375</LatitudeDegrees>
              <LongitudeDegrees>20.44061123393476009368896484375</LongitudeDegrees>
            </Position>
            <AltitudeMeters>459.20001220703125</AltitudeMeters>
            <DistanceMeters>NAN</DistanceMeters>
          </Trackpoint>
          <Trackpoint>
            <Time>2022-09-21T11:02:07.000Z</Time>
            <Position>
              <LatitudeDegrees>49.4143120385706424713134765625</LatitudeDegrees>
              <LongitudeDegrees>20.44084944762289524078369140625</LongitudeDegrees>
            </Position>
            <AltitudeMeters>459.79998779296875</AltitudeMeters>
            <DistanceMeters>NAN</DistanceMeters>
          </Trackpoint>
          <Trackpoint>
            <Time>2022-09-21T11:02:11.000Z</Time>
            <Position>
              <LatitudeDegrees>49.4142897427082061767578125</LatitudeDegrees>
              <LongitudeDegrees>20.44097366742789745330810546875</LongitudeDegrees>
            </Position>
            <AltitudeMeters>459.79998779296875</AltitudeMeters>
            <DistanceMeters>NAN</DistanceMeters>
          </Trackpoint>
          <Trackpoint>
            <Time>2022-09-21T11:02:17.000Z</Time>
            <Position>
              <LatitudeDegrees>49.41426216624677181243896484375</LatitudeDegrees>
              <LongitudeDegrees>20.441178940236568450927734375</LongitudeDegrees>
            </Position>
            <AltitudeMeters>461</AltitudeMeters>
            <DistanceMeters>NAN</DistanceMeters>
          </Trackpoint>
          <Trackpoint>
            <Time>2022-09-21T11:02:19.000Z</Time>
            <Position>
              <LatitudeDegrees>49.41425093449652194976806640625</LatitudeDegrees>
              <LongitudeDegrees>20.441252030432224273681640625</LongitudeDegrees>
            </Position>
            <AltitudeMeters>461.399993896484375</AltitudeMeters>
            <DistanceMeters>NAN</DistanceMeters>
          </Trackpoint>
          <Trackpoint>
            <Time>2022-09-21T11:02:21.000Z</Time>
            <Position>
              <LatitudeDegrees>49.41423953510820865631103515625</LatitudeDegrees>
              <LongitudeDegrees>20.44133492745459079742431640625</LongitudeDegrees>
            </Position>
            <AltitudeMeters>461.399993896484375</AltitudeMeters>
            <DistanceMeters>NAN</DistanceMeters>
          </Trackpoint>
          <Trackpoint>
            <Time>2022-09-21T11:02:25.000Z</Time>
            <Position>
              <LatitudeDegrees>49.4142039120197296142578125</LatitudeDegrees>
              <LongitudeDegrees>20.44149351306259632110595703125</LongitudeDegrees>
            </Position>
            <AltitudeMeters>462</AltitudeMeters>
            <DistanceMeters>NAN</DistanceMeters>
          </Trackpoint>
          <Trackpoint>
            <Time>2022-09-21T11:02:28.000Z</Time>
            <Position>
              <LatitudeDegrees>49.41416166722774505615234375</LatitudeDegrees>
              <LongitudeDegrees>20.44158361852169036865234375</LongitudeDegrees>
            </Position>
            <AltitudeMeters>462.600006103515625</AltitudeMeters>
            <DistanceMeters>NAN</DistanceMeters>
          </Trackpoint>
          <Trackpoint>
            <Time>2022-09-21T11:02:29.000Z</Time>
            <Position>
              <LatitudeDegrees>49.41415093839168548583984375</LatitudeDegrees>
              <LongitudeDegrees>20.44160784222185611724853515625</LongitudeDegrees>
            </Position>
            <AltitudeMeters>462.79998779296875</AltitudeMeters>
            <DistanceMeters>NAN</DistanceMeters>
          </Trackpoint>
          <Trackpoint>
            <Time>2022-09-21T11:02:31.000Z</Time>
            <Position>
              <LatitudeDegrees>49.41414297558367252349853515625</LatitudeDegrees>
              <LongitudeDegrees>20.44166701845824718475341796875</LongitudeDegrees>
            </Position>
            <AltitudeMeters>463</AltitudeMeters>
            <DistanceMeters>NAN</DistanceMeters>
          </Trackpoint>
          <Trackpoint>
            <Time>2022-09-21T11:02:35.000Z</Time>
            <Position>
              <LatitudeDegrees>49.41411296837031841278076171875</LatitudeDegrees>
              <LongitudeDegrees>20.4417903162539005279541015625</LongitudeDegrees>
            </Position>
            <AltitudeMeters>463.20001220703125</AltitudeMeters>
            <DistanceMeters>NAN</DistanceMeters>
          </Trackpoint>
          <Trackpoint>
            <Time>2022-09-21T11:02:36.000Z</Time>
            <Position>
              <LatitudeDegrees>49.41411313600838184356689453125</LatitudeDegrees>
              <LongitudeDegrees>20.4418228380382061004638671875</LongitudeDegrees>
            </Position>
            <AltitudeMeters>463.20001220703125</AltitudeMeters>
            <DistanceMeters>NAN</DistanceMeters>
          </Trackpoint>
          <Trackpoint>
            <Time>2022-09-21T11:02:41.000Z</Time>
            <Position>
              <LatitudeDegrees>49.4140832126140594482421875</LatitudeDegrees>
              <LongitudeDegrees>20.44199793599545955657958984375</LongitudeDegrees>
            </Position>
            <AltitudeMeters>463.600006103515625</AltitudeMeters>
            <DistanceMeters>NAN</DistanceMeters>
          </Trackpoint>
          <Trackpoint>
            <Time>2022-09-21T11:02:45.000Z</Time>
            <Position>
              <LatitudeDegrees>49.41404323093593120574951171875</LatitudeDegrees>
              <LongitudeDegrees>20.442146547138690948486328125</LongitudeDegrees>
            </Position>
            <AltitudeMeters>463.399993896484375</AltitudeMeters>
            <DistanceMeters>NAN</DistanceMeters>
          </Trackpoint>
          <Trackpoint>
            <Time>2022-09-21T11:02:52.000Z</Time>
            <Position>
              <LatitudeDegrees>49.41391264088451862335205078125</LatitudeDegrees>
              <LongitudeDegrees>20.44239138253033161163330078125</LongitudeDegrees>
            </Position>
            <AltitudeMeters>462.79998779296875</AltitudeMeters>
            <DistanceMeters>NAN</DistanceMeters>
          </Trackpoint>
          <Trackpoint>
            <Time>2022-09-21T11:02:53.000Z</Time>
            <Position>
              <LatitudeDegrees>49.413887746632099151611328125</LatitudeDegrees>
              <LongitudeDegrees>20.44242524541914463043212890625</LongitudeDegrees>
            </Position>
            <AltitudeMeters>462.600006103515625</AltitudeMeters>
            <DistanceMeters>NAN</DistanceMeters>
          </Trackpoint>
          <Trackpoint>
            <Time>2022-09-21T11:02:56.000Z</Time>
            <Position>
              <LatitudeDegrees>49.41383049823343753814697265625</LatitudeDegrees>
              <LongitudeDegrees>20.44253303669393062591552734375</LongitudeDegrees>
            </Position>
            <AltitudeMeters>462.399993896484375</AltitudeMeters>
            <DistanceMeters>NAN</DistanceMeters>
          </Trackpoint>
          <Trackpoint>
            <Time>2022-09-21T11:02:59.000Z</Time>
            <Position>
              <LatitudeDegrees>49.4137588329613208770751953125</LatitudeDegrees>
              <LongitudeDegrees>20.4426556639373302459716796875</LongitudeDegrees>
            </Position>
            <AltitudeMeters>462</AltitudeMeters>
            <DistanceMeters>NAN</DistanceMeters>
          </Trackpoint>
          <Trackpoint>
            <Time>2022-09-21T11:03:01.000Z</Time>
            <Position>
              <LatitudeDegrees>49.41367660649120807647705078125</LatitudeDegrees>
              <LongitudeDegrees>20.442731268703937530517578125</LongitudeDegrees>
            </Position>
            <AltitudeMeters>461.79998779296875</AltitudeMeters>
            <DistanceMeters>NAN</DistanceMeters>
          </Trackpoint>
          <Trackpoint>
            <Time>2022-09-21T11:03:02.000Z</Time>
            <Position>
              <LatitudeDegrees>49.41364894621074199676513671875</LatitudeDegrees>
              <LongitudeDegrees>20.4427894391119480133056640625</LongitudeDegrees>
            </Position>
            <AltitudeMeters>461.20001220703125</AltitudeMeters>
            <DistanceMeters>NAN</DistanceMeters>
          </Trackpoint>
          <Trackpoint>
            <Time>2022-09-21T11:03:03.000Z</Time>
            <Position>
              <LatitudeDegrees>49.41359530203044414520263671875</LatitudeDegrees>
              <LongitudeDegrees>20.44285138137638568878173828125</LongitudeDegrees>
            </Position>
            <AltitudeMeters>460.399993896484375</AltitudeMeters>
            <DistanceMeters>NAN</DistanceMeters>
          </Trackpoint>
          <Trackpoint>
            <Time>2022-09-21T11:03:04.000Z</Time>
            <Position>
              <LatitudeDegrees>49.41354953683912754058837890625</LatitudeDegrees>
              <LongitudeDegrees>20.44291005469858646392822265625</LongitudeDegrees>
            </Position>
            <AltitudeMeters>460</AltitudeMeters>
            <DistanceMeters>NAN</DistanceMeters>
          </Trackpoint>
          <Trackpoint>
            <Time>2022-09-21T11:03:11.000Z</Time>
            <Position>
              <LatitudeDegrees>49.41325047053396701812744140625</LatitudeDegrees>
              <LongitudeDegrees>20.443309955298900604248046875</LongitudeDegrees>
            </Position>
            <AltitudeMeters>459.399993896484375</AltitudeMeters>
            <DistanceMeters>NAN</DistanceMeters>
          </Trackpoint>
          <Trackpoint>
            <Time>2022-09-21T11:03:12.000Z</Time>
            <Position>
              <LatitudeDegrees>49.41321928985416889190673828125</LatitudeDegrees>
              <LongitudeDegrees>20.44335597194731235504150390625</LongitudeDegrees>
            </Position>
            <AltitudeMeters>459.399993896484375</AltitudeMeters>
            <DistanceMeters>NAN</DistanceMeters>
          </Trackpoint>
          <Trackpoint>
            <Time>2022-09-21T11:03:14.000Z</Time>
            <Position>
              <LatitudeDegrees>49.41313974559307098388671875</LatitudeDegrees>
              <LongitudeDegrees>20.44342772103846073150634765625</LongitudeDegrees>
            </Position>
            <AltitudeMeters>459.399993896484375</AltitudeMeters>
            <DistanceMeters>NAN</DistanceMeters>
          </Trackpoint>
          <Trackpoint>
            <Time>2022-09-21T11:03:15.000Z</Time>
            <Position>
              <LatitudeDegrees>49.41307269036769866943359375</LatitudeDegrees>
              <LongitudeDegrees>20.443467535078525543212890625</LongitudeDegrees>
            </Position>
            <AltitudeMeters>459.399993896484375</AltitudeMeters>
            <DistanceMeters>NAN</DistanceMeters>
          </Trackpoint>
          <Trackpoint>
            <Time>2022-09-21T11:03:16.000Z</Time>
            <Position>
              <LatitudeDegrees>49.41302977502346038818359375</LatitudeDegrees>
              <LongitudeDegrees>20.44351539574563503265380859375</LongitudeDegrees>
            </Position>
            <AltitudeMeters>459.20001220703125</AltitudeMeters>
            <DistanceMeters>NAN</DistanceMeters>
          </Trackpoint>
          <Trackpoint>
            <Time>2022-09-21T11:03:18.000Z</Time>
            <Position>
              <LatitudeDegrees>49.41295190714299678802490234375</LatitudeDegrees>
              <LongitudeDegrees>20.44361111707985401153564453125</LongitudeDegrees>
            </Position>
            <AltitudeMeters>459</AltitudeMeters>
            <DistanceMeters>NAN</DistanceMeters>
          </Trackpoint>
          <Trackpoint>
            <Time>2022-09-21T11:03:19.000Z</Time>
            <Position>
              <LatitudeDegrees>49.41290848888456821441650390625</LatitudeDegrees>
              <LongitudeDegrees>20.44364464469254016876220703125</LongitudeDegrees>
            </Position>
            <AltitudeMeters>459</AltitudeMeters>
            <DistanceMeters>NAN</DistanceMeters>
          </Trackpoint>
          <Trackpoint>
            <Time>2022-09-21T11:03:24.000Z</Time>
            <Position>
              <LatitudeDegrees>49.41279365681111812591552734375</LatitudeDegrees>
              <LongitudeDegrees>20.44377473182976245880126953125</LongitudeDegrees>
            </Position>
            <AltitudeMeters>459.20001220703125</AltitudeMeters>
            <DistanceMeters>NAN</DistanceMeters>
          </Trackpoint>
          <Trackpoint>
            <Time>2022-09-21T11:03:29.000Z</Time>
            <Position>
              <LatitudeDegrees>49.41270313225686550140380859375</LatitudeDegrees>
              <LongitudeDegrees>20.4438676871359348297119140625</LongitudeDegrees>
            </Position>
            <AltitudeMeters>459</AltitudeMeters>
            <DistanceMeters>NAN</DistanceMeters>
          </Trackpoint>
          <Trackpoint>
            <Time>2022-09-21T11:03:34.000Z</Time>
            <Position>
              <LatitudeDegrees>49.41261948086321353912353515625</LatitudeDegrees>
              <LongitudeDegrees>20.4440165497362613677978515625</LongitudeDegrees>
            </Position>
            <AltitudeMeters>459</AltitudeMeters>
            <DistanceMeters>NAN</DistanceMeters>
          </Trackpoint>
          <Trackpoint>
            <Time>2022-09-21T11:03:38.000Z</Time>
            <Position>
              <LatitudeDegrees>49.41254655830562114715576171875</LatitudeDegrees>
              <LongitudeDegrees>20.44414152391254901885986328125</LongitudeDegrees>
            </Position>
            <AltitudeMeters>459.20001220703125</AltitudeMeters>
            <DistanceMeters>NAN</DistanceMeters>
          </Trackpoint>
          <Trackpoint>
            <Time>2022-09-21T11:03:39.000Z</Time>
            <Position>
              <LatitudeDegrees>49.4125270284712314605712890625</LatitudeDegrees>
              <LongitudeDegrees>20.444183349609375</LongitudeDegrees>
            </Position>
            <AltitudeMeters>459.20001220703125</AltitudeMeters>
            <DistanceMeters>NAN</DistanceMeters>
          </Trackpoint>
          <Trackpoint>
            <Time>2022-09-21T11:03:40.000Z</Time>
            <Position>
              <LatitudeDegrees>49.4125055707991123199462890625</LatitudeDegrees>
              <LongitudeDegrees>20.4442249238491058349609375</LongitudeDegrees>
            </Position>
            <AltitudeMeters>459.20001220703125</AltitudeMeters>
            <DistanceMeters>NAN</DistanceMeters>
          </Trackpoint>
          <Trackpoint>
            <Time>2022-09-21T11:03:41.000Z</Time>
            <Position>
              <LatitudeDegrees>49.4124899804592132568359375</LatitudeDegrees>
              <LongitudeDegrees>20.4442713595926761627197265625</LongitudeDegrees>
            </Position>
            <AltitudeMeters>459</AltitudeMeters>
            <DistanceMeters>NAN</DistanceMeters>
          </Trackpoint>
          <Trackpoint>
            <Time>2022-09-21T11:03:42.000Z</Time>
            <Position>
              <LatitudeDegrees>49.41248101182281970977783203125</LatitudeDegrees>
              <LongitudeDegrees>20.44430061243474483489990234375</LongitudeDegrees>
            </Position>
            <AltitudeMeters>459</AltitudeMeters>
            <DistanceMeters>NAN</DistanceMeters>
          </Trackpoint>
          <Trackpoint>
            <Time>2022-09-21T11:03:43.000Z</Time>
            <Position>
              <LatitudeDegrees>49.41246173344552516937255859375</LatitudeDegrees>
              <LongitudeDegrees>20.444339923560619354248046875</LongitudeDegrees>
            </Position>
            <AltitudeMeters>459.20001220703125</AltitudeMeters>
            <DistanceMeters>NAN</DistanceMeters>
          </Trackpoint>
          <Trackpoint>
            <Time>2022-09-21T11:03:48.000Z</Time>
            <Position>
              <LatitudeDegrees>49.41237472929060459136962890625</LatitudeDegrees>
              <LongitudeDegrees>20.4445516504347324371337890625</LongitudeDegrees>
            </Position>
            <AltitudeMeters>459.600006103515625</AltitudeMeters>
            <DistanceMeters>NAN</DistanceMeters>
          </Trackpoint>
          <Trackpoint>
            <Time>2022-09-21T11:03:53.000Z</Time>
            <Position>
              <LatitudeDegrees>49.412330053746700286865234375</LatitudeDegrees>
              <LongitudeDegrees>20.4447635449469089508056640625</LongitudeDegrees>
            </Position>
            <AltitudeMeters>459.20001220703125</AltitudeMeters>
            <DistanceMeters>NAN</DistanceMeters>
          </Trackpoint>
          <Trackpoint>
            <Time>2022-09-21T11:03:57.000Z</Time>
            <Position>
              <LatitudeDegrees>49.41225151531398296356201171875</LatitudeDegrees>
              <LongitudeDegrees>20.4448966495692729949951171875</LongitudeDegrees>
            </Position>
            <AltitudeMeters>459.20001220703125</AltitudeMeters>
            <DistanceMeters>NAN</DistanceMeters>
          </Trackpoint>
          <Trackpoint>
            <Time>2022-09-21T11:04:00.000Z</Time>
            <Position>
              <LatitudeDegrees>49.41222603432834148406982421875</LatitudeDegrees>
              <LongitudeDegrees>20.44495507143437862396240234375</LongitudeDegrees>
            </Position>
            <AltitudeMeters>459.20001220703125</AltitudeMeters>
            <DistanceMeters>NAN</DistanceMeters>
          </Trackpoint>
          <Trackpoint>
            <Time>2022-09-21T11:04:02.000Z</Time>
            <Position>
              <LatitudeDegrees>49.41219770349562168121337890625</LatitudeDegrees>
              <LongitudeDegrees>20.44499874114990234375</LongitudeDegrees>
            </Position>
            <AltitudeMeters>459.20001220703125</AltitudeMeters>
            <DistanceMeters>NAN</DistanceMeters>
          </Trackpoint>
          <Trackpoint>
            <Time>2022-09-21T11:04:06.000Z</Time>
            <Position>
              <LatitudeDegrees>49.41212595440447330474853515625</LatitudeDegrees>
              <LongitudeDegrees>20.44518289156258106231689453125</LongitudeDegrees>
            </Position>
            <AltitudeMeters>459</AltitudeMeters>
            <DistanceMeters>NAN</DistanceMeters>
          </Trackpoint>
          <Trackpoint>
            <Time>2022-09-21T11:04:07.000Z</Time>
            <Position>
              <LatitudeDegrees>49.4121143035590648651123046875</LatitudeDegrees>
              <LongitudeDegrees>20.44523117132484912872314453125</LongitudeDegrees>
            </Position>
            <AltitudeMeters>459</AltitudeMeters>
            <DistanceMeters>NAN</DistanceMeters>
          </Trackpoint>
          <Trackpoint>
            <Time>2022-09-21T11:04:13.000Z</Time>
            <Position>
              <LatitudeDegrees>49.4120529480278491973876953125</LatitudeDegrees>
              <LongitudeDegrees>20.4455216042697429656982421875</LongitudeDegrees>
            </Position>
            <AltitudeMeters>459</AltitudeMeters>
            <DistanceMeters>NAN</DistanceMeters>
          </Trackpoint>
          <Trackpoint>
            <Time>2022-09-21T11:04:14.000Z</Time>
            <Position>
              <LatitudeDegrees>49.4120259582996368408203125</LatitudeDegrees>
              <LongitudeDegrees>20.4455705545842647552490234375</LongitudeDegrees>
            </Position>
            <AltitudeMeters>459</AltitudeMeters>
            <DistanceMeters>NAN</DistanceMeters>
          </Trackpoint>
          <Trackpoint>
            <Time>2022-09-21T11:04:20.000Z</Time>
            <Position>
              <LatitudeDegrees>49.4119724817574024200439453125</LatitudeDegrees>
              <LongitudeDegrees>20.44581186957657337188720703125</LongitudeDegrees>
            </Position>
            <AltitudeMeters>458.600006103515625</AltitudeMeters>
            <DistanceMeters>NAN</DistanceMeters>
          </Trackpoint>
          <Trackpoint>
            <Time>2022-09-21T11:04:23.000Z</Time>
            <Position>
              <LatitudeDegrees>49.411959238350391387939453125</LatitudeDegrees>
              <LongitudeDegrees>20.44595486484467983245849609375</LongitudeDegrees>
            </Position>
            <AltitudeMeters>458.399993896484375</AltitudeMeters>
            <DistanceMeters>NAN</DistanceMeters>
          </Trackpoint>
          <Trackpoint>
            <Time>2022-09-21T11:04:26.000Z</Time>
            <Position>
              <LatitudeDegrees>49.41193970851600170135498046875</LatitudeDegrees>
              <LongitudeDegrees>20.4461284540593624114990234375</LongitudeDegrees>
            </Position>
            <AltitudeMeters>458.399993896484375</AltitudeMeters>
            <DistanceMeters>NAN</DistanceMeters>
          </Trackpoint>
          <Trackpoint>
            <Time>2022-09-21T11:04:31.000Z</Time>
            <Position>
              <LatitudeDegrees>49.41190400160849094390869140625</LatitudeDegrees>
              <LongitudeDegrees>20.4463473893702030181884765625</LongitudeDegrees>
            </Position>
            <AltitudeMeters>458.399993896484375</AltitudeMeters>
            <DistanceMeters>NAN</DistanceMeters>
          </Trackpoint>
          <Trackpoint>
            <Time>2022-09-21T11:04:32.000Z</Time>
            <Position>
              <LatitudeDegrees>49.411892853677272796630859375</LatitudeDegrees>
              <LongitudeDegrees>20.4463812522590160369873046875</LongitudeDegrees>
            </Position>
            <AltitudeMeters>458.399993896484375</AltitudeMeters>
            <DistanceMeters>NAN</DistanceMeters>
          </Trackpoint>
          <Trackpoint>
            <Time>2022-09-21T11:04:33.000Z</Time>
            <Position>
              <LatitudeDegrees>49.41188908182084560394287109375</LatitudeDegrees>
              <LongitudeDegrees>20.44641922228038311004638671875</LongitudeDegrees>
            </Position>
            <AltitudeMeters>458.399993896484375</AltitudeMeters>
            <DistanceMeters>NAN</DistanceMeters>
          </Trackpoint>
          <Trackpoint>
            <Time>2022-09-21T11:04:36.000Z</Time>
            <Position>
              <LatitudeDegrees>49.41187919117510318756103515625</LatitudeDegrees>
              <LongitudeDegrees>20.44655517674982547760009765625</LongitudeDegrees>
            </Position>
            <AltitudeMeters>458.399993896484375</AltitudeMeters>
            <DistanceMeters>NAN</DistanceMeters>
          </Trackpoint>
          <Trackpoint>
            <Time>2022-09-21T11:04:41.000Z</Time>
            <Position>
              <LatitudeDegrees>49.4118591584265232086181640625</LatitudeDegrees>
              <LongitudeDegrees>20.44680261053144931793212890625</LongitudeDegrees>
            </Position>
            <AltitudeMeters>458.600006103515625</AltitudeMeters>
            <DistanceMeters>NAN</DistanceMeters>
          </Trackpoint>
          <Trackpoint>
            <Time>2022-09-21T11:04:46.000Z</Time>
            <Position>
              <LatitudeDegrees>49.411831162869930267333984375</LatitudeDegrees>
              <LongitudeDegrees>20.44702489860355854034423828125</LongitudeDegrees>
            </Position>
            <AltitudeMeters>458.79998779296875</AltitudeMeters>
            <DistanceMeters>NAN</DistanceMeters>
          </Trackpoint>
          <Trackpoint>
            <Time>2022-09-21T11:04:47.000Z</Time>
            <Position>
              <LatitudeDegrees>49.41184415481984615325927734375</LatitudeDegrees>
              <LongitudeDegrees>20.4470648802816867828369140625</LongitudeDegrees>
            </Position>
            <AltitudeMeters>459</AltitudeMeters>
            <DistanceMeters>NAN</DistanceMeters>
          </Trackpoint>
          <Trackpoint>
            <Time>2022-09-21T11:04:52.000Z</Time>
            <Position>
              <LatitudeDegrees>49.4118336774408817291259765625</LatitudeDegrees>
              <LongitudeDegrees>20.4472660459578037261962890625</LongitudeDegrees>
            </Position>
            <AltitudeMeters>458.79998779296875</AltitudeMeters>
            <DistanceMeters>NAN</DistanceMeters>
          </Trackpoint>
          <Trackpoint>
            <Time>2022-09-21T11:04:56.000Z</Time>
            <Position>
              <LatitudeDegrees>49.41184063442051410675048828125</LatitudeDegrees>
              <LongitudeDegrees>20.44739319942891597747802734375</LongitudeDegrees>
            </Position>
            <AltitudeMeters>458.79998779296875</AltitudeMeters>
            <DistanceMeters>NAN</DistanceMeters>
          </Trackpoint>
          <Trackpoint>
            <Time>2022-09-21T11:04:58.000Z</Time>
            <Position>
              <LatitudeDegrees>49.41184096969664096832275390625</LatitudeDegrees>
              <LongitudeDegrees>20.44747785665094852447509765625</LongitudeDegrees>
            </Position>
            <AltitudeMeters>458.79998779296875</AltitudeMeters>
            <DistanceMeters>NAN</DistanceMeters>
          </Trackpoint>
          <Trackpoint>
            <Time>2022-09-21T11:05:00.000Z</Time>
            <Position>
              <LatitudeDegrees>49.4118403829634189605712890625</LatitudeDegrees>
              <LongitudeDegrees>20.44756636954843997955322265625</LongitudeDegrees>
            </Position>
            <AltitudeMeters>458.79998779296875</AltitudeMeters>
            <DistanceMeters>NAN</DistanceMeters>
          </Trackpoint>
          <Trackpoint>
            <Time>2022-09-21T11:05:03.000Z</Time>
            <Position>
              <LatitudeDegrees>49.41181682981550693511962890625</LatitudeDegrees>
              <LongitudeDegrees>20.44768002815544605255126953125</LongitudeDegrees>
            </Position>
            <AltitudeMeters>459</AltitudeMeters>
            <DistanceMeters>NAN</DistanceMeters>
          </Trackpoint>
          <Trackpoint>
            <Time>2022-09-21T11:05:09.000Z</Time>
            <Position>
              <LatitudeDegrees>49.41178833134472370147705078125</LatitudeDegrees>
              <LongitudeDegrees>20.4479345865547657012939453125</LongitudeDegrees>
            </Position>
            <AltitudeMeters>458.399993896484375</AltitudeMeters>
            <DistanceMeters>NAN</DistanceMeters>
          </Trackpoint>
          <Trackpoint>
            <Time>2022-09-21T11:05:15.000Z</Time>
            <Position>
              <LatitudeDegrees>49.411772824823856353759765625</LatitudeDegrees>
              <LongitudeDegrees>20.44819517992436885833740234375</LongitudeDegrees>
            </Position>
            <AltitudeMeters>458.600006103515625</AltitudeMeters>
            <DistanceMeters>NAN</DistanceMeters>
          </Trackpoint>
          <Trackpoint>
            <Time>2022-09-21T11:05:18.000Z</Time>
            <Position>
              <LatitudeDegrees>49.41177341155707836151123046875</LatitudeDegrees>
              <LongitudeDegrees>20.448319651186466217041015625</LongitudeDegrees>
            </Position>
            <AltitudeMeters>458.399993896484375</AltitudeMeters>
            <DistanceMeters>NAN</DistanceMeters>
          </Trackpoint>
          <Trackpoint>
            <Time>2022-09-21T11:05:20.000Z</Time>
            <Position>
              <LatitudeDegrees>49.41178095526993274688720703125</LatitudeDegrees>
              <LongitudeDegrees>20.44840707443654537200927734375</LongitudeDegrees>
            </Position>
            <AltitudeMeters>458.399993896484375</AltitudeMeters>
            <DistanceMeters>NAN</DistanceMeters>
          </Trackpoint>
          <Trackpoint>
            <Time>2022-09-21T11:05:25.000Z</Time>
            <Position>
              <LatitudeDegrees>49.4117649458348751068115234375</LatitudeDegrees>
              <LongitudeDegrees>20.44866733253002166748046875</LongitudeDegrees>
            </Position>
            <AltitudeMeters>458.600006103515625</AltitudeMeters>
            <DistanceMeters>NAN</DistanceMeters>
          </Trackpoint>
          <Trackpoint>
            <Time>2022-09-21T11:05:27.000Z</Time>
            <Position>
              <LatitudeDegrees>49.4117703102529048919677734375</LatitudeDegrees>
              <LongitudeDegrees>20.44877059757709503173828125</LongitudeDegrees>
            </Position>
            <AltitudeMeters>458.399993896484375</AltitudeMeters>
            <DistanceMeters>NAN</DistanceMeters>
          </Trackpoint>
          <Trackpoint>
            <Time>2022-09-21T11:05:32.000Z</Time>
            <Position>
              <LatitudeDegrees>49.4117934443056583404541015625</LatitudeDegrees>
              <LongitudeDegrees>20.44901861809194087982177734375</LongitudeDegrees>
            </Position>
            <AltitudeMeters>458.399993896484375</AltitudeMeters>
            <DistanceMeters>NAN</DistanceMeters>
          </Trackpoint>
          <Trackpoint>
            <Time>2022-09-21T11:05:35.000Z</Time>
            <Position>
              <LatitudeDegrees>49.41181465052068233489990234375</LatitudeDegrees>
              <LongitudeDegrees>20.44914652593433856964111328125</LongitudeDegrees>
            </Position>
            <AltitudeMeters>458.399993896484375</AltitudeMeters>
            <DistanceMeters>NAN</DistanceMeters>
          </Trackpoint>
          <Trackpoint>
            <Time>2022-09-21T11:05:39.000Z</Time>
            <Position>
              <LatitudeDegrees>49.41183174960315227508544921875</LatitudeDegrees>
              <LongitudeDegrees>20.449330843985080718994140625</LongitudeDegrees>
            </Position>
            <AltitudeMeters>458.399993896484375</AltitudeMeters>
            <DistanceMeters>NAN</DistanceMeters>
          </Trackpoint>
          <Trackpoint>
            <Time>2022-09-21T11:05:44.000Z</Time>
            <Position>
              <LatitudeDegrees>49.41185957752168178558349609375</LatitudeDegrees>
              <LongitudeDegrees>20.44954298995435237884521484375</LongitudeDegrees>
            </Position>
            <AltitudeMeters>458.20001220703125</AltitudeMeters>
            <DistanceMeters>NAN</DistanceMeters>
          </Trackpoint>
          <Trackpoint>
            <Time>2022-09-21T11:05:51.000Z</Time>
            <Position>
              <LatitudeDegrees>49.41188137046992778778076171875</LatitudeDegrees>
              <LongitudeDegrees>20.44977952726185321807861328125</LongitudeDegrees>
            </Position>
            <AltitudeMeters>458.20001220703125</AltitudeMeters>
            <DistanceMeters>NAN</DistanceMeters>
          </Trackpoint>
          <Trackpoint>
            <Time>2022-09-21T11:05:57.000Z</Time>
            <Position>
              <LatitudeDegrees>49.41184666939079761505126953125</LatitudeDegrees>
              <LongitudeDegrees>20.4499982111155986785888671875</LongitudeDegrees>
            </Position>
            <AltitudeMeters>458.20001220703125</AltitudeMeters>
            <DistanceMeters>NAN</DistanceMeters>
          </Trackpoint>
          <Trackpoint>
            <Time>2022-09-21T11:06:02.000Z</Time>
            <Position>
              <LatitudeDegrees>49.41183191724121570587158203125</LatitudeDegrees>
              <LongitudeDegrees>20.45022661797702312469482421875</LongitudeDegrees>
            </Position>
            <AltitudeMeters>458.20001220703125</AltitudeMeters>
            <DistanceMeters>NAN</DistanceMeters>
          </Trackpoint>
          <Trackpoint>
            <Time>2022-09-21T11:06:03.000Z</Time>
            <Position>
              <LatitudeDegrees>49.41182856447994709014892578125</LatitudeDegrees>
              <LongitudeDegrees>20.4502835310995578765869140625</LongitudeDegrees>
            </Position>
            <AltitudeMeters>458.20001220703125</AltitudeMeters>
            <DistanceMeters>NAN</DistanceMeters>
          </Trackpoint>
          <Trackpoint>
            <Time>2022-09-21T11:06:09.000Z</Time>
            <Position>
              <LatitudeDegrees>49.41187650896608829498291015625</LatitudeDegrees>
              <LongitudeDegrees>20.4505710303783416748046875</LongitudeDegrees>
            </Position>
            <AltitudeMeters>458.20001220703125</AltitudeMeters>
            <DistanceMeters>NAN</DistanceMeters>
          </Trackpoint>
          <Trackpoint>
            <Time>2022-09-21T11:06:16.000Z</Time>
            <Position>
              <LatitudeDegrees>49.4119708053767681121826171875</LatitudeDegrees>
              <LongitudeDegrees>20.45086481608450412750244140625</LongitudeDegrees>
            </Position>
            <AltitudeMeters>457.79998779296875</AltitudeMeters>
            <DistanceMeters>NAN</DistanceMeters>
          </Trackpoint>
          <Trackpoint>
            <Time>2022-09-21T11:06:22.000Z</Time>
            <Position>
              <LatitudeDegrees>49.41213282756507396697998046875</LatitudeDegrees>
              <LongitudeDegrees>20.4511220566928386688232421875</LongitudeDegrees>
            </Position>
            <AltitudeMeters>458</AltitudeMeters>
            <DistanceMeters>NAN</DistanceMeters>
          </Trackpoint>
          <Trackpoint>
            <Time>2022-09-21T11:06:28.000Z</Time>
            <Position>
              <LatitudeDegrees>49.4122976996004581451416015625</LatitudeDegrees>
              <LongitudeDegrees>20.45136689208447933197021484375</LongitudeDegrees>
            </Position>
            <AltitudeMeters>458.20001220703125</AltitudeMeters>
            <DistanceMeters>NAN</DistanceMeters>
          </Trackpoint>
          <Trackpoint>
            <Time>2022-09-21T11:06:29.000Z</Time>
            <Position>
              <LatitudeDegrees>49.4123263657093048095703125</LatitudeDegrees>
              <LongitudeDegrees>20.4514051973819732666015625</LongitudeDegrees>
            </Position>
            <AltitudeMeters>458.20001220703125</AltitudeMeters>
            <DistanceMeters>NAN</DistanceMeters>
          </Trackpoint>
          <Trackpoint>
            <Time>2022-09-21T11:06:33.000Z</Time>
            <Position>
              <LatitudeDegrees>49.41245335154235363006591796875</LatitudeDegrees>
              <LongitudeDegrees>20.45156654901802539825439453125</LongitudeDegrees>
            </Position>
            <AltitudeMeters>457.600006103515625</AltitudeMeters>
            <DistanceMeters>NAN</DistanceMeters>
          </Trackpoint>
          <Trackpoint>
            <Time>2022-09-21T11:06:35.000Z</Time>
            <Position>
              <LatitudeDegrees>49.412521831691265106201171875</LatitudeDegrees>
              <LongitudeDegrees>20.4516534693539142608642578125</LongitudeDegrees>
            </Position>
            <AltitudeMeters>457.399993896484375</AltitudeMeters>
            <DistanceMeters>NAN</DistanceMeters>
          </Trackpoint>
          <Trackpoint>
            <Time>2022-09-21T11:06:36.000Z</Time>
            <Position>
              <LatitudeDegrees>49.41255577839910984039306640625</LatitudeDegrees>
              <LongitudeDegrees>20.4516906850039958953857421875</LongitudeDegrees>
            </Position>
            <AltitudeMeters>457.20001220703125</AltitudeMeters>
            <DistanceMeters>NAN</DistanceMeters>
          </Trackpoint>
          <Trackpoint>
            <Time>2022-09-21T11:06:39.000Z</Time>
            <Position>
              <LatitudeDegrees>49.41265485249459743499755859375</LatitudeDegrees>
              <LongitudeDegrees>20.4517560638487339019775390625</LongitudeDegrees>
            </Position>
            <AltitudeMeters>457</AltitudeMeters>
            <DistanceMeters>NAN</DistanceMeters>
          </Trackpoint>
          <Trackpoint>
            <Time>2022-09-21T11:06:41.000Z</Time>
            <Position>
              <LatitudeDegrees>49.41272174008190631866455078125</LatitudeDegrees>
              <LongitudeDegrees>20.451755560934543609619140625</LongitudeDegrees>
            </Position>
            <AltitudeMeters>456.79998779296875</AltitudeMeters>
            <DistanceMeters>NAN</DistanceMeters>
          </Trackpoint>
          <Trackpoint>
            <Time>2022-09-21T11:06:49.000Z</Time>
            <Position>
              <LatitudeDegrees>49.41298996098339557647705078125</LatitudeDegrees>
              <LongitudeDegrees>20.45167048461735248565673828125</LongitudeDegrees>
            </Position>
            <AltitudeMeters>457</AltitudeMeters>
            <DistanceMeters>NAN</DistanceMeters>
          </Trackpoint>
          <Trackpoint>
            <Time>2022-09-21T11:06:54.000Z</Time>
            <Position>
              <LatitudeDegrees>49.41313412971794605255126953125</LatitudeDegrees>
              <LongitudeDegrees>20.45154408551752567291259765625</LongitudeDegrees>
            </Position>
            <AltitudeMeters>457</AltitudeMeters>
            <DistanceMeters>NAN</DistanceMeters>
          </Trackpoint>
          <Trackpoint>
            <Time>2022-09-21T11:06:59.000Z</Time>
            <Position>
              <LatitudeDegrees>49.4132378138601779937744140625</LatitudeDegrees>
              <LongitudeDegrees>20.45136387459933757781982421875</LongitudeDegrees>
            </Position>
            <AltitudeMeters>457</AltitudeMeters>
            <DistanceMeters>NAN</DistanceMeters>
          </Trackpoint>
          <Trackpoint>
            <Time>2022-09-21T11:07:02.000Z</Time>
            <Position>
              <LatitudeDegrees>49.41328500397503376007080078125</LatitudeDegrees>
              <LongitudeDegrees>20.45126178301870822906494140625</LongitudeDegrees>
            </Position>
            <AltitudeMeters>457</AltitudeMeters>
            <DistanceMeters>NAN</DistanceMeters>
          </Trackpoint>
          <Trackpoint>
            <Time>2022-09-21T11:07:06.000Z</Time>
            <Position>
              <LatitudeDegrees>49.413344599306583404541015625</LatitudeDegrees>
              <LongitudeDegrees>20.45109699480235576629638671875</LongitudeDegrees>
            </Position>
            <AltitudeMeters>457</AltitudeMeters>
            <DistanceMeters>NAN</DistanceMeters>
          </Trackpoint>
          <Trackpoint>
            <Time>2022-09-21T11:07:08.000Z</Time>
            <Position>
              <LatitudeDegrees>49.41338039003312587738037109375</LatitudeDegrees>
              <LongitudeDegrees>20.4510181210935115814208984375</LongitudeDegrees>
            </Position>
            <AltitudeMeters>457</AltitudeMeters>
            <DistanceMeters>NAN</DistanceMeters>
          </Trackpoint>
          <Trackpoint>
            <Time>2022-09-21T11:07:17.000Z</Time>
            <Position>
              <LatitudeDegrees>49.413520283997058868408203125</LatitudeDegrees>
              <LongitudeDegrees>20.45073523186147212982177734375</LongitudeDegrees>
            </Position>
            <AltitudeMeters>457.79998779296875</AltitudeMeters>
            <DistanceMeters>NAN</DistanceMeters>
          </Trackpoint>
          <Trackpoint>
            <Time>2022-09-21T11:07:25.000Z</Time>
            <Position>
              <LatitudeDegrees>49.41364307887852191925048828125</LatitudeDegrees>
              <LongitudeDegrees>20.45058385469019412994384765625</LongitudeDegrees>
            </Position>
            <AltitudeMeters>458.20001220703125</AltitudeMeters>
            <DistanceMeters>NAN</DistanceMeters>
          </Trackpoint>
          <Trackpoint>
            <Time>2022-09-21T11:07:32.000Z</Time>
            <Position>
              <LatitudeDegrees>49.4137506186962127685546875</LatitudeDegrees>
              <LongitudeDegrees>20.45048209838569164276123046875</LongitudeDegrees>
            </Position>
            <AltitudeMeters>458.20001220703125</AltitudeMeters>
            <DistanceMeters>NAN</DistanceMeters>
          </Trackpoint>
          <Trackpoint>
            <Time>2022-09-21T11:07:35.000Z</Time>
            <Position>
              <LatitudeDegrees>49.41381038166582584381103515625</LatitudeDegrees>
              <LongitudeDegrees>20.450430549681186676025390625</LongitudeDegrees>
            </Position>
            <AltitudeMeters>457.79998779296875</AltitudeMeters>
            <DistanceMeters>NAN</DistanceMeters>
          </Trackpoint>
          <Trackpoint>
            <Time>2022-09-21T11:07:38.000Z</Time>
            <Position>
              <LatitudeDegrees>49.413856901228427886962890625</LatitudeDegrees>
              <LongitudeDegrees>20.45033776201307773590087890625</LongitudeDegrees>
            </Position>
            <AltitudeMeters>457.600006103515625</AltitudeMeters>
            <DistanceMeters>NAN</DistanceMeters>
          </Trackpoint>
          <Trackpoint>
            <Time>2022-09-21T11:07:45.000Z</Time>
            <Position>
              <LatitudeDegrees>49.4139611721038818359375</LatitudeDegrees>
              <LongitudeDegrees>20.45018571428954601287841796875</LongitudeDegrees>
            </Position>
            <AltitudeMeters>457.79998779296875</AltitudeMeters>
            <DistanceMeters>NAN</DistanceMeters>
          </Trackpoint>
          <Trackpoint>
            <Time>2022-09-21T11:07:48.000Z</Time>
            <Position>
              <LatitudeDegrees>49.41399964503943920135498046875</LatitudeDegrees>
              <LongitudeDegrees>20.45015771873295307159423828125</LongitudeDegrees>
            </Position>
            <AltitudeMeters>457.79998779296875</AltitudeMeters>
            <DistanceMeters>NAN</DistanceMeters>
          </Trackpoint>
          <Trackpoint>
            <Time>2022-09-21T11:07:50.000Z</Time>
            <Position>
              <LatitudeDegrees>49.41401858814060688018798828125</LatitudeDegrees>
              <LongitudeDegrees>20.4501403681933879852294921875</LongitudeDegrees>
            </Position>
            <AltitudeMeters>457.79998779296875</AltitudeMeters>
            <DistanceMeters>NAN</DistanceMeters>
          </Trackpoint>
          <Trackpoint>
            <Time>2022-09-21T11:07:55.000Z</Time>
            <Position>
              <LatitudeDegrees>49.41402579657733440399169921875</LatitudeDegrees>
              <LongitudeDegrees>20.4501383565366268157958984375</LongitudeDegrees>
            </Position>
            <AltitudeMeters>457.600006103515625</AltitudeMeters>
            <DistanceMeters>NAN</DistanceMeters>
          </Trackpoint>
          <Trackpoint>
            <Time>2022-09-21T11:08:01.000Z</Time>
            <Position>
              <LatitudeDegrees>49.4140294007956981658935546875</LatitudeDegrees>
              <LongitudeDegrees>20.450132824480533599853515625</LongitudeDegrees>
            </Position>
            <AltitudeMeters>457.79998779296875</AltitudeMeters>
            <DistanceMeters>NAN</DistanceMeters>
          </Trackpoint>
          <Trackpoint>
            <Time>2022-09-21T11:08:02.000Z</Time>
            <Position>
              <LatitudeDegrees>49.41402529366314411163330078125</LatitudeDegrees>
              <LongitudeDegrees>20.45013089664280414581298828125</LongitudeDegrees>
            </Position>
            <AltitudeMeters>457.79998779296875</AltitudeMeters>
            <DistanceMeters>NAN</DistanceMeters>
          </Trackpoint>
          <Trackpoint>
            <Time>2022-09-21T11:08:05.000Z</Time>
            <Position>
              <LatitudeDegrees>49.41402361728250980377197265625</LatitudeDegrees>
              <LongitudeDegrees>20.45013106428086757659912109375</LongitudeDegrees>
            </Position>
            <AltitudeMeters>457.79998779296875</AltitudeMeters>
            <DistanceMeters>NAN</DistanceMeters>
          </Trackpoint>
          <Trackpoint>
            <Time>2022-09-21T11:08:06.000Z</Time>
            <Position>
              <LatitudeDegrees>49.41401875577867031097412109375</LatitudeDegrees>
              <LongitudeDegrees>20.45014145784080028533935546875</LongitudeDegrees>
            </Position>
            <AltitudeMeters>457.79998779296875</AltitudeMeters>
            <DistanceMeters>NAN</DistanceMeters>
          </Trackpoint>
          <Trackpoint>
            <Time>2022-09-21T11:08:11.000Z</Time>
            <Position>
              <LatitudeDegrees>49.414015822112560272216796875</LatitudeDegrees>
              <LongitudeDegrees>20.450145900249481201171875</LongitudeDegrees>
            </Position>
            <AltitudeMeters>457.79998779296875</AltitudeMeters>
            <DistanceMeters>NAN</DistanceMeters>
          </Trackpoint>
          <Trackpoint>
            <Time>2022-09-21T11:08:19.000Z</Time>
            <Position>
              <LatitudeDegrees>49.414015822112560272216796875</LatitudeDegrees>
              <LongitudeDegrees>20.450145900249481201171875</LongitudeDegrees>
            </Position>
            <AltitudeMeters>457.79998779296875</AltitudeMeters>
            <DistanceMeters>NAN</DistanceMeters>
          </Trackpoint>
          <Trackpoint>
            <Time>2022-09-21T11:08:28.000Z</Time>
            <Position>
              <LatitudeDegrees>49.4140039198100566864013671875</LatitudeDegrees>
              <LongitudeDegrees>20.45015034265816211700439453125</LongitudeDegrees>
            </Position>
            <AltitudeMeters>457.79998779296875</AltitudeMeters>
            <DistanceMeters>NAN</DistanceMeters>
          </Trackpoint>
          <Trackpoint>
            <Time>2022-09-21T11:08:36.000Z</Time>
            <Position>
              <LatitudeDegrees>49.41398908384144306182861328125</LatitudeDegrees>
              <LongitudeDegrees>20.450183786451816558837890625</LongitudeDegrees>
            </Position>
            <AltitudeMeters>457.399993896484375</AltitudeMeters>
            <DistanceMeters>NAN</DistanceMeters>
          </Trackpoint>
          <Trackpoint>
            <Time>2022-09-21T11:08:45.000Z</Time>
            <Position>
              <LatitudeDegrees>49.41398824565112590789794921875</LatitudeDegrees>
              <LongitudeDegrees>20.45018521137535572052001953125</LongitudeDegrees>
            </Position>
            <AltitudeMeters>457.20001220703125</AltitudeMeters>
            <DistanceMeters>NAN</DistanceMeters>
          </Trackpoint>
          <Trackpoint>
            <Time>2022-09-21T11:08:55.000Z</Time>
            <Position>
              <LatitudeDegrees>49.413986988365650177001953125</LatitudeDegrees>
              <LongitudeDegrees>20.4501933418214321136474609375</LongitudeDegrees>
            </Position>
            <AltitudeMeters>457.20001220703125</AltitudeMeters>
            <DistanceMeters>NAN</DistanceMeters>
          </Trackpoint>
          <Trackpoint>
            <Time>2022-09-21T11:08:57.000Z</Time>
            <Position>
              <LatitudeDegrees>49.413986988365650177001953125</LatitudeDegrees>
              <LongitudeDegrees>20.4501963593065738677978515625</LongitudeDegrees>
            </Position>
            <AltitudeMeters>457.20001220703125</AltitudeMeters>
            <DistanceMeters>NAN</DistanceMeters>
          </Trackpoint>
          <Trackpoint>
            <Time>2022-09-21T11:08:59.000Z</Time>
            <Position>
              <LatitudeDegrees>49.413986988365650177001953125</LatitudeDegrees>
              <LongitudeDegrees>20.45019661076366901397705078125</LongitudeDegrees>
            </Position>
            <AltitudeMeters>457.20001220703125</AltitudeMeters>
            <DistanceMeters>NAN</DistanceMeters>
          </Trackpoint>
          <Trackpoint>
            <Time>2022-09-21T11:09:01.000Z</Time>
            <Position>
              <LatitudeDegrees>49.413986988365650177001953125</LatitudeDegrees>
              <LongitudeDegrees>20.45019661076366901397705078125</LongitudeDegrees>
            </Position>
            <AltitudeMeters>457.20001220703125</AltitudeMeters>
            <DistanceMeters>NAN</DistanceMeters>
          </Trackpoint>
          <Trackpoint>
            <Time>2022-09-21T11:09:38.000Z</Time>
            <Position>
              <LatitudeDegrees>49.41398732364177703857421875</LatitudeDegrees>
              <LongitudeDegrees>20.45020348392426967620849609375</LongitudeDegrees>
            </Position>
            <AltitudeMeters>457</AltitudeMeters>
            <DistanceMeters>NAN</DistanceMeters>
          </Trackpoint>
          <Trackpoint>
            <Time>2022-09-21T11:10:13.000Z</Time>
            <Position>
              <LatitudeDegrees>49.4139861501753330230712890625</LatitudeDegrees>
              <LongitudeDegrees>20.45020381920039653778076171875</LongitudeDegrees>
            </Position>
            <AltitudeMeters>457</AltitudeMeters>
            <DistanceMeters>NAN</DistanceMeters>
          </Trackpoint>
          <Trackpoint>
            <Time>2022-09-21T11:10:21.000Z</Time>
            <Position>
              <LatitudeDegrees>49.4139861501753330230712890625</LatitudeDegrees>
              <LongitudeDegrees>20.45020381920039653778076171875</LongitudeDegrees>
            </Position>
            <AltitudeMeters>457</AltitudeMeters>
            <DistanceMeters>NAN</DistanceMeters>
          </Trackpoint>
          <Trackpoint>
            <Time>2022-09-21T11:11:02.000Z</Time>
            <Position>
              <LatitudeDegrees>49.41396159119904041290283203125</LatitudeDegrees>
              <LongitudeDegrees>20.45020021498203277587890625</LongitudeDegrees>
            </Position>
            <AltitudeMeters>457</AltitudeMeters>
            <DistanceMeters>NAN</DistanceMeters>
          </Trackpoint>
          <Trackpoint>
            <Time>2022-09-21T11:11:10.000Z</Time>
            <Position>
              <LatitudeDegrees>49.41396175883710384368896484375</LatitudeDegrees>
              <LongitudeDegrees>20.45020080171525478363037109375</LongitudeDegrees>
            </Position>
            <AltitudeMeters>457</AltitudeMeters>
            <DistanceMeters>NAN</DistanceMeters>
          </Trackpoint>
          <Trackpoint>
            <Time>2022-09-21T11:11:12.000Z</Time>
            <Position>
              <LatitudeDegrees>49.41396326757967472076416015625</LatitudeDegrees>
              <LongitudeDegrees>20.45020231045782566070556640625</LongitudeDegrees>
            </Position>
            <AltitudeMeters>457</AltitudeMeters>
            <DistanceMeters>NAN</DistanceMeters>
          </Trackpoint>
          <Trackpoint>
            <Time>2022-09-21T11:11:35.000Z</Time>
            <Position>
              <LatitudeDegrees>49.41396846435964107513427734375</LatitudeDegrees>
              <LongitudeDegrees>20.45020784251391887664794921875</LongitudeDegrees>
            </Position>
            <AltitudeMeters>457</AltitudeMeters>
            <DistanceMeters>NAN</DistanceMeters>
          </Trackpoint>
          <Trackpoint>
            <Time>2022-09-21T11:11:52.000Z</Time>
            <Position>
              <LatitudeDegrees>49.4139754213392734527587890625</LatitudeDegrees>
              <LongitudeDegrees>20.45021630823612213134765625</LongitudeDegrees>
            </Position>
            <AltitudeMeters>457</AltitudeMeters>
            <DistanceMeters>NAN</DistanceMeters>
          </Trackpoint>
          <Trackpoint>
            <Time>2022-09-21T11:11:54.000Z</Time>
            <Position>
              <LatitudeDegrees>49.4139754213392734527587890625</LatitudeDegrees>
              <LongitudeDegrees>20.45021630823612213134765625</LongitudeDegrees>
            </Position>
            <AltitudeMeters>457</AltitudeMeters>
            <DistanceMeters>NAN</DistanceMeters>
          </Trackpoint>
          <Trackpoint>
            <Time>2022-09-21T11:12:05.000Z</Time>
            <Position>
              <LatitudeDegrees>49.4139764271676540374755859375</LatitudeDegrees>
              <LongitudeDegrees>20.45021119527518749237060546875</LongitudeDegrees>
            </Position>
            <AltitudeMeters>457</AltitudeMeters>
            <DistanceMeters>NAN</DistanceMeters>
          </Trackpoint>
          <Trackpoint>
            <Time>2022-09-21T11:12:08.000Z</Time>
            <Position>
              <LatitudeDegrees>49.4139770977199077606201171875</LatitudeDegrees>
              <LongitudeDegrees>20.45020901598036289215087890625</LongitudeDegrees>
            </Position>
            <AltitudeMeters>457</AltitudeMeters>
            <DistanceMeters>NAN</DistanceMeters>
          </Trackpoint>
          <Trackpoint>
            <Time>2022-09-21T11:12:11.000Z</Time>
            <Position>
              <LatitudeDegrees>49.41397550515830516815185546875</LatitudeDegrees>
              <LongitudeDegrees>20.45020951889455318450927734375</LongitudeDegrees>
            </Position>
            <AltitudeMeters>457</AltitudeMeters>
            <DistanceMeters>NAN</DistanceMeters>
          </Trackpoint>
          <Trackpoint>
            <Time>2022-09-21T11:12:16.000Z</Time>
            <Position>
              <LatitudeDegrees>49.413982965052127838134765625</LatitudeDegrees>
              <LongitudeDegrees>20.45023751445114612579345703125</LongitudeDegrees>
            </Position>
            <AltitudeMeters>457</AltitudeMeters>
            <DistanceMeters>NAN</DistanceMeters>
          </Trackpoint>
          <Trackpoint>
            <Time>2022-09-21T11:12:18.000Z</Time>
            <Position>
              <LatitudeDegrees>49.41398237831890583038330078125</LatitudeDegrees>
              <LongitudeDegrees>20.45024371705949306488037109375</LongitudeDegrees>
            </Position>
            <AltitudeMeters>457</AltitudeMeters>
            <DistanceMeters>NAN</DistanceMeters>
          </Trackpoint>
          <Trackpoint>
            <Time>2022-09-21T11:12:21.000Z</Time>
            <Position>
              <LatitudeDegrees>49.41395337693393230438232421875</LatitudeDegrees>
              <LongitudeDegrees>20.45026986859738826751708984375</LongitudeDegrees>
            </Position>
            <AltitudeMeters>457</AltitudeMeters>
            <DistanceMeters>NAN</DistanceMeters>
          </Trackpoint>
          <Trackpoint>
            <Time>2022-09-21T11:12:24.000Z</Time>
            <Position>
              <LatitudeDegrees>49.41395337693393230438232421875</LatitudeDegrees>
              <LongitudeDegrees>20.45026986859738826751708984375</LongitudeDegrees>
            </Position>
            <AltitudeMeters>457</AltitudeMeters>
            <DistanceMeters>NAN</DistanceMeters>
          </Trackpoint>
          <Trackpoint>
            <Time>2022-09-21T11:12:26.000Z</Time>
            <Position>
              <LatitudeDegrees>49.4139509461820125579833984375</LatitudeDegrees>
              <LongitudeDegrees>20.45026986859738826751708984375</LongitudeDegrees>
            </Position>
            <AltitudeMeters>457</AltitudeMeters>
            <DistanceMeters>NAN</DistanceMeters>
          </Trackpoint>
          <Trackpoint>
            <Time>2022-09-21T11:12:28.000Z</Time>
            <Position>
              <LatitudeDegrees>49.41389839164912700653076171875</LatitudeDegrees>
              <LongitudeDegrees>20.45027422718703746795654296875</LongitudeDegrees>
            </Position>
            <AltitudeMeters>457</AltitudeMeters>
            <DistanceMeters>NAN</DistanceMeters>
          </Trackpoint>
          <Trackpoint>
            <Time>2022-09-21T11:12:31.000Z</Time>
            <Position>
              <LatitudeDegrees>49.41389839164912700653076171875</LatitudeDegrees>
              <LongitudeDegrees>20.45027422718703746795654296875</LongitudeDegrees>
            </Position>
            <AltitudeMeters>457</AltitudeMeters>
            <DistanceMeters>NAN</DistanceMeters>
          </Trackpoint>
          <Trackpoint>
            <Time>2022-09-21T11:12:39.000Z</Time>
            <Position>
              <LatitudeDegrees>49.41389839164912700653076171875</LatitudeDegrees>
              <LongitudeDegrees>20.45027422718703746795654296875</LongitudeDegrees>
            </Position>
            <AltitudeMeters>457</AltitudeMeters>
            <DistanceMeters>NAN</DistanceMeters>
          </Trackpoint>
          <Trackpoint>
            <Time>2022-09-21T11:12:46.000Z</Time>
            <Position>
              <LatitudeDegrees>49.41389369778335094451904296875</LatitudeDegrees>
              <LongitudeDegrees>20.45027422718703746795654296875</LongitudeDegrees>
            </Position>
            <AltitudeMeters>457</AltitudeMeters>
            <DistanceMeters>NAN</DistanceMeters>
          </Trackpoint>
          <Trackpoint>
            <Time>2022-09-21T11:12:47.000Z</Time>
            <Position>
              <LatitudeDegrees>49.41389235667884349822998046875</LatitudeDegrees>
              <LongitudeDegrees>20.45027422718703746795654296875</LongitudeDegrees>
            </Position>
            <AltitudeMeters>457</AltitudeMeters>
            <DistanceMeters>NAN</DistanceMeters>
          </Trackpoint>
          <Trackpoint>
            <Time>2022-09-21T11:12:56.000Z</Time>
            <Position>
              <LatitudeDegrees>49.4138882495462894439697265625</LatitudeDegrees>
              <LongitudeDegrees>20.450274311006069183349609375</LongitudeDegrees>
            </Position>
            <AltitudeMeters>457</AltitudeMeters>
            <DistanceMeters>NAN</DistanceMeters>
          </Trackpoint>
          <Trackpoint>
            <Time>2022-09-21T11:13:17.000Z</Time>
            <Position>
              <LatitudeDegrees>49.41388674080371856689453125</LatitudeDegrees>
              <LongitudeDegrees>20.45027456246316432952880859375</LongitudeDegrees>
            </Position>
            <AltitudeMeters>456.79998779296875</AltitudeMeters>
            <DistanceMeters>NAN</DistanceMeters>
          </Trackpoint>
          <Trackpoint>
            <Time>2022-09-21T11:13:22.000Z</Time>
            <Position>
              <LatitudeDegrees>49.41388766281306743621826171875</LatitudeDegrees>
              <LongitudeDegrees>20.45028143562376499176025390625</LongitudeDegrees>
            </Position>
            <AltitudeMeters>456.79998779296875</AltitudeMeters>
            <DistanceMeters>NAN</DistanceMeters>
          </Trackpoint>
          <Trackpoint>
            <Time>2022-09-21T11:13:30.000Z</Time>
            <Position>
              <LatitudeDegrees>49.41389143466949462890625</LatitudeDegrees>
              <LongitudeDegrees>20.4502892307937145233154296875</LongitudeDegrees>
            </Position>
            <AltitudeMeters>456.79998779296875</AltitudeMeters>
            <DistanceMeters>NAN</DistanceMeters>
          </Trackpoint>
          <Trackpoint>
            <Time>2022-09-21T11:13:34.000Z</Time>
            <Position>
              <LatitudeDegrees>49.41388263367116451263427734375</LatitudeDegrees>
              <LongitudeDegrees>20.45029467903077602386474609375</LongitudeDegrees>
            </Position>
            <AltitudeMeters>456.79998779296875</AltitudeMeters>
            <DistanceMeters>NAN</DistanceMeters>
          </Trackpoint>
          <Trackpoint>
            <Time>2022-09-21T11:13:36.000Z</Time>
            <Position>
              <LatitudeDegrees>49.41388263367116451263427734375</LatitudeDegrees>
              <LongitudeDegrees>20.45029467903077602386474609375</LongitudeDegrees>
            </Position>
            <AltitudeMeters>456.79998779296875</AltitudeMeters>
            <DistanceMeters>NAN</DistanceMeters>
          </Trackpoint>
          <Trackpoint>
            <Time>2022-09-21T11:13:41.000Z</Time>
            <Position>
              <LatitudeDegrees>49.41390560008585453033447265625</LatitudeDegrees>
              <LongitudeDegrees>20.450283028185367584228515625</LongitudeDegrees>
            </Position>
            <AltitudeMeters>456.79998779296875</AltitudeMeters>
            <DistanceMeters>NAN</DistanceMeters>
          </Trackpoint>
          <Trackpoint>
            <Time>2022-09-21T11:13:44.000Z</Time>
            <Position>
              <LatitudeDegrees>49.41390040330588817596435546875</LatitudeDegrees>
              <LongitudeDegrees>20.450281687080860137939453125</LongitudeDegrees>
            </Position>
            <AltitudeMeters>456.79998779296875</AltitudeMeters>
            <DistanceMeters>NAN</DistanceMeters>
          </Trackpoint>
          <Trackpoint>
            <Time>2022-09-21T11:13:45.000Z</Time>
            <Position>
              <LatitudeDegrees>49.41390040330588817596435546875</LatitudeDegrees>
              <LongitudeDegrees>20.450281687080860137939453125</LongitudeDegrees>
            </Position>
            <AltitudeMeters>456.79998779296875</AltitudeMeters>
            <DistanceMeters>NAN</DistanceMeters>
          </Trackpoint>
          <Trackpoint>
            <Time>2022-09-21T11:13:52.000Z</Time>
            <Position>
              <LatitudeDegrees>49.41389537416398525238037109375</LatitudeDegrees>
              <LongitudeDegrees>20.4502717964351177215576171875</LongitudeDegrees>
            </Position>
            <AltitudeMeters>456.79998779296875</AltitudeMeters>
            <DistanceMeters>NAN</DistanceMeters>
          </Trackpoint>
          <Trackpoint>
            <Time>2022-09-21T11:14:06.000Z</Time>
            <Position>
              <LatitudeDegrees>49.4138912670314311981201171875</LatitudeDegrees>
              <LongitudeDegrees>20.45023248530924320220947265625</LongitudeDegrees>
            </Position>
            <AltitudeMeters>456.79998779296875</AltitudeMeters>
            <DistanceMeters>NAN</DistanceMeters>
          </Trackpoint>
          <Trackpoint>
            <Time>2022-09-21T11:14:09.000Z</Time>
            <Position>
              <LatitudeDegrees>49.4138869084417819976806640625</LatitudeDegrees>
              <LongitudeDegrees>20.45024472288787364959716796875</LongitudeDegrees>
            </Position>
            <AltitudeMeters>456.79998779296875</AltitudeMeters>
            <DistanceMeters>NAN</DistanceMeters>
          </Trackpoint>
          <Trackpoint>
            <Time>2022-09-21T11:14:13.000Z</Time>
            <Position>
              <LatitudeDegrees>49.41389604471623897552490234375</LatitudeDegrees>
              <LongitudeDegrees>20.45025922358036041259765625</LongitudeDegrees>
            </Position>
            <AltitudeMeters>456.79998779296875</AltitudeMeters>
            <DistanceMeters>NAN</DistanceMeters>
          </Trackpoint>
          <Trackpoint>
            <Time>2022-09-21T11:14:17.000Z</Time>
            <Position>
              <LatitudeDegrees>49.4138976372778415679931640625</LatitudeDegrees>
              <LongitudeDegrees>20.45026886276900768280029296875</LongitudeDegrees>
            </Position>
            <AltitudeMeters>456.79998779296875</AltitudeMeters>
            <DistanceMeters>NAN</DistanceMeters>
          </Trackpoint>
          <Trackpoint>
            <Time>2022-09-21T11:14:22.000Z</Time>
            <Position>
              <LatitudeDegrees>49.4139040075242519378662109375</LatitudeDegrees>
              <LongitudeDegrees>20.45026618055999279022216796875</LongitudeDegrees>
            </Position>
            <AltitudeMeters>456.79998779296875</AltitudeMeters>
            <DistanceMeters>NAN</DistanceMeters>
          </Trackpoint>
          <Trackpoint>
            <Time>2022-09-21T11:14:24.000Z</Time>
            <Position>
              <LatitudeDegrees>49.413907863199710845947265625</LatitudeDegrees>
              <LongitudeDegrees>20.45027129352092742919921875</LongitudeDegrees>
            </Position>
            <AltitudeMeters>456.79998779296875</AltitudeMeters>
            <DistanceMeters>NAN</DistanceMeters>
          </Trackpoint>
          <Trackpoint>
            <Time>2022-09-21T11:14:27.000Z</Time>
            <Position>
              <LatitudeDegrees>49.41390073858201503753662109375</LatitudeDegrees>
              <LongitudeDegrees>20.45028604567050933837890625</LongitudeDegrees>
            </Position>
            <AltitudeMeters>456.79998779296875</AltitudeMeters>
            <DistanceMeters>NAN</DistanceMeters>
          </Trackpoint>
          <Trackpoint>
            <Time>2022-09-21T11:14:40.000Z</Time>
            <Position>
              <LatitudeDegrees>49.41390551626682281494140625</LatitudeDegrees>
              <LongitudeDegrees>20.450289733707904815673828125</LongitudeDegrees>
            </Position>
            <AltitudeMeters>456.79998779296875</AltitudeMeters>
            <DistanceMeters>NAN</DistanceMeters>
          </Trackpoint>
          <Trackpoint>
            <Time>2022-09-21T11:14:55.000Z</Time>
            <Position>
              <LatitudeDegrees>49.41390962339937686920166015625</LatitudeDegrees>
              <LongitudeDegrees>20.45029685832560062408447265625</LongitudeDegrees>
            </Position>
            <AltitudeMeters>457</AltitudeMeters>
            <DistanceMeters>NAN</DistanceMeters>
          </Trackpoint>
          <Trackpoint>
            <Time>2022-09-21T11:15:07.000Z</Time>
            <Position>
              <LatitudeDegrees>49.41390962339937686920166015625</LatitudeDegrees>
              <LongitudeDegrees>20.45029685832560062408447265625</LongitudeDegrees>
            </Position>
            <AltitudeMeters>456.79998779296875</AltitudeMeters>
            <DistanceMeters>NAN</DistanceMeters>
          </Trackpoint>
          <Trackpoint>
            <Time>2022-09-21T11:15:17.000Z</Time>
            <Position>
              <LatitudeDegrees>49.41390962339937686920166015625</LatitudeDegrees>
              <LongitudeDegrees>20.45029685832560062408447265625</LongitudeDegrees>
            </Position>
            <AltitudeMeters>457</AltitudeMeters>
            <DistanceMeters>NAN</DistanceMeters>
          </Trackpoint>
          <Trackpoint>
            <Time>2022-09-21T11:15:32.000Z</Time>
            <Position>
              <LatitudeDegrees>49.413910545408725738525390625</LatitudeDegrees>
              <LongitudeDegrees>20.45030021108686923980712890625</LongitudeDegrees>
            </Position>
            <AltitudeMeters>456.79998779296875</AltitudeMeters>
            <DistanceMeters>NAN</DistanceMeters>
          </Trackpoint>
          <Trackpoint>
            <Time>2022-09-21T11:15:42.000Z</Time>
            <Position>
              <LatitudeDegrees>49.413910545408725738525390625</LatitudeDegrees>
              <LongitudeDegrees>20.45030021108686923980712890625</LongitudeDegrees>
            </Position>
            <AltitudeMeters>456.79998779296875</AltitudeMeters>
            <DistanceMeters>NAN</DistanceMeters>
          </Trackpoint>
          <Trackpoint>
            <Time>2022-09-21T11:15:44.000Z</Time>
            <Position>
              <LatitudeDegrees>49.413910545408725738525390625</LatitudeDegrees>
              <LongitudeDegrees>20.45030021108686923980712890625</LongitudeDegrees>
            </Position>
            <AltitudeMeters>456.79998779296875</AltitudeMeters>
            <DistanceMeters>NAN</DistanceMeters>
          </Trackpoint>
          <Trackpoint>
            <Time>2022-09-21T11:15:46.000Z</Time>
            <Position>
              <LatitudeDegrees>49.413910545408725738525390625</LatitudeDegrees>
              <LongitudeDegrees>20.45030021108686923980712890625</LongitudeDegrees>
            </Position>
            <AltitudeMeters>456.79998779296875</AltitudeMeters>
            <DistanceMeters>NAN</DistanceMeters>
          </Trackpoint>
          <Trackpoint>
            <Time>2022-09-21T11:16:06.000Z</Time>
            <Position>
              <LatitudeDegrees>49.4139073602855205535888671875</LatitudeDegrees>
              <LongitudeDegrees>20.4503247700631618499755859375</LongitudeDegrees>
            </Position>
            <AltitudeMeters>456.79998779296875</AltitudeMeters>
            <DistanceMeters>NAN</DistanceMeters>
          </Trackpoint>
          <Trackpoint>
            <Time>2022-09-21T11:16:12.000Z</Time>
            <Position>
              <LatitudeDegrees>49.413905180990695953369140625</LatitudeDegrees>
              <LongitudeDegrees>20.4503264464437961578369140625</LongitudeDegrees>
            </Position>
            <AltitudeMeters>456.79998779296875</AltitudeMeters>
            <DistanceMeters>NAN</DistanceMeters>
          </Trackpoint>
          <Trackpoint>
            <Time>2022-09-21T11:16:18.000Z</Time>
            <Position>
              <LatitudeDegrees>49.41390342079102993011474609375</LatitudeDegrees>
              <LongitudeDegrees>20.4503296315670013427734375</LongitudeDegrees>
            </Position>
            <AltitudeMeters>456.79998779296875</AltitudeMeters>
            <DistanceMeters>NAN</DistanceMeters>
          </Trackpoint>
          <Trackpoint>
            <Time>2022-09-21T11:16:25.000Z</Time>
            <Position>
              <LatitudeDegrees>49.41389889456331729888916015625</LatitudeDegrees>
              <LongitudeDegrees>20.45034815557301044464111328125</LongitudeDegrees>
            </Position>
            <AltitudeMeters>456.79998779296875</AltitudeMeters>
            <DistanceMeters>NAN</DistanceMeters>
          </Trackpoint>
          <Trackpoint>
            <Time>2022-09-21T11:16:26.000Z</Time>
            <Position>
              <LatitudeDegrees>49.4138986431062221527099609375</LatitudeDegrees>
              <LongitudeDegrees>20.45035553164780139923095703125</LongitudeDegrees>
            </Position>
            <AltitudeMeters>456.79998779296875</AltitudeMeters>
            <DistanceMeters>NAN</DistanceMeters>
          </Trackpoint>
          <Trackpoint>
            <Time>2022-09-21T11:16:31.000Z</Time>
            <Position>
              <LatitudeDegrees>49.4138986431062221527099609375</LatitudeDegrees>
              <LongitudeDegrees>20.45035553164780139923095703125</LongitudeDegrees>
            </Position>
            <AltitudeMeters>456.79998779296875</AltitudeMeters>
            <DistanceMeters>NAN</DistanceMeters>
          </Trackpoint>
          <Trackpoint>
            <Time>2022-09-21T11:17:16.000Z</Time>
            <Position>
              <LatitudeDegrees>49.41390107385814189910888671875</LatitudeDegrees>
              <LongitudeDegrees>20.45036877505481243133544921875</LongitudeDegrees>
            </Position>
            <AltitudeMeters>456.79998779296875</AltitudeMeters>
            <DistanceMeters>NAN</DistanceMeters>
          </Trackpoint>
          <Trackpoint>
            <Time>2022-09-21T11:17:17.000Z</Time>
            <Position>
              <LatitudeDegrees>49.4138932786881923675537109375</LatitudeDegrees>
              <LongitudeDegrees>20.4503764025866985321044921875</LongitudeDegrees>
            </Position>
            <AltitudeMeters>456.79998779296875</AltitudeMeters>
            <DistanceMeters>NAN</DistanceMeters>
          </Trackpoint>
          <Trackpoint>
            <Time>2022-09-21T11:17:20.000Z</Time>
            <Position>
              <LatitudeDegrees>49.41389554180204868316650390625</LatitudeDegrees>
              <LongitudeDegrees>20.4503774084150791168212890625</LongitudeDegrees>
            </Position>
            <AltitudeMeters>456.79998779296875</AltitudeMeters>
            <DistanceMeters>NAN</DistanceMeters>
          </Trackpoint>
          <Trackpoint>
            <Time>2022-09-21T11:17:26.000Z</Time>
            <Position>
              <LatitudeDegrees>49.4138989783823490142822265625</LatitudeDegrees>
              <LongitudeDegrees>20.4503800906240940093994140625</LongitudeDegrees>
            </Position>
            <AltitudeMeters>456.79998779296875</AltitudeMeters>
            <DistanceMeters>NAN</DistanceMeters>
          </Trackpoint>
          <Trackpoint>
            <Time>2022-09-21T11:17:36.000Z</Time>
            <Position>
              <LatitudeDegrees>49.41390191204845905303955078125</LatitudeDegrees>
              <LongitudeDegrees>20.4503807611763477325439453125</LongitudeDegrees>
            </Position>
            <AltitudeMeters>456.79998779296875</AltitudeMeters>
            <DistanceMeters>NAN</DistanceMeters>
          </Trackpoint>
          <Trackpoint>
            <Time>2022-09-21T11:17:38.000Z</Time>
            <Position>
              <LatitudeDegrees>49.41390392370522022247314453125</LatitudeDegrees>
              <LongitudeDegrees>20.4503831081092357635498046875</LongitudeDegrees>
            </Position>
            <AltitudeMeters>456.79998779296875</AltitudeMeters>
            <DistanceMeters>NAN</DistanceMeters>
          </Trackpoint>
          <Trackpoint>
            <Time>2022-09-21T11:17:40.000Z</Time>
            <Position>
              <LatitudeDegrees>49.41393510438501834869384765625</LatitudeDegrees>
              <LongitudeDegrees>20.450415797531604766845703125</LongitudeDegrees>
            </Position>
            <AltitudeMeters>456.79998779296875</AltitudeMeters>
            <DistanceMeters>NAN</DistanceMeters>
          </Trackpoint>
          <Trackpoint>
            <Time>2022-09-21T11:17:43.000Z</Time>
            <Position>
              <LatitudeDegrees>49.41393896006047725677490234375</LatitudeDegrees>
              <LongitudeDegrees>20.4503723792731761932373046875</LongitudeDegrees>
            </Position>
            <AltitudeMeters>456.79998779296875</AltitudeMeters>
            <DistanceMeters>NAN</DistanceMeters>
          </Trackpoint>
          <Trackpoint>
            <Time>2022-09-21T11:17:46.000Z</Time>
            <Position>
              <LatitudeDegrees>49.41393896006047725677490234375</LatitudeDegrees>
              <LongitudeDegrees>20.4503723792731761932373046875</LongitudeDegrees>
            </Position>
            <AltitudeMeters>456.79998779296875</AltitudeMeters>
            <DistanceMeters>NAN</DistanceMeters>
          </Trackpoint>
          <Trackpoint>
            <Time>2022-09-21T11:18:01.000Z</Time>
            <Position>
              <LatitudeDegrees>49.413947761058807373046875</LatitudeDegrees>
              <LongitudeDegrees>20.450381934642791748046875</LongitudeDegrees>
            </Position>
            <AltitudeMeters>456.79998779296875</AltitudeMeters>
            <DistanceMeters>NAN</DistanceMeters>
          </Trackpoint>
          <Trackpoint>
            <Time>2022-09-21T11:18:03.000Z</Time>
            <Position>
              <LatitudeDegrees>49.41393770277500152587890625</LatitudeDegrees>
              <LongitudeDegrees>20.4503832757472991943359375</LongitudeDegrees>
            </Position>
            <AltitudeMeters>456.79998779296875</AltitudeMeters>
            <DistanceMeters>NAN</DistanceMeters>
          </Trackpoint>
          <Trackpoint>
            <Time>2022-09-21T11:18:07.000Z</Time>
            <Position>
              <LatitudeDegrees>49.41392655484378337860107421875</LatitudeDegrees>
              <LongitudeDegrees>20.45037631876766681671142578125</LongitudeDegrees>
            </Position>
            <AltitudeMeters>456.79998779296875</AltitudeMeters>
            <DistanceMeters>NAN</DistanceMeters>
          </Trackpoint>
          <Trackpoint>
            <Time>2022-09-21T11:18:11.000Z</Time>
            <Position>
              <LatitudeDegrees>49.413957484066486358642578125</LatitudeDegrees>
              <LongitudeDegrees>20.4503351636230945587158203125</LongitudeDegrees>
            </Position>
            <AltitudeMeters>456.79998779296875</AltitudeMeters>
            <DistanceMeters>NAN</DistanceMeters>
          </Trackpoint>
          <Trackpoint>
            <Time>2022-09-21T11:18:16.000Z</Time>
            <Position>
              <LatitudeDegrees>49.41397952847182750701904296875</LatitudeDegrees>
              <LongitudeDegrees>20.450312197208404541015625</LongitudeDegrees>
            </Position>
            <AltitudeMeters>456.79998779296875</AltitudeMeters>
            <DistanceMeters>NAN</DistanceMeters>
          </Trackpoint>
          <Trackpoint>
            <Time>2022-09-21T11:18:21.000Z</Time>
            <Position>
              <LatitudeDegrees>49.414001069962978363037109375</LatitudeDegrees>
              <LongitudeDegrees>20.450269281864166259765625</LongitudeDegrees>
            </Position>
            <AltitudeMeters>456.79998779296875</AltitudeMeters>
            <DistanceMeters>NAN</DistanceMeters>
          </Trackpoint>
          <Trackpoint>
            <Time>2022-09-21T11:18:32.000Z</Time>
            <Position>
              <LatitudeDegrees>49.41401548683643341064453125</LatitudeDegrees>
              <LongitudeDegrees>20.45025461353361606597900390625</LongitudeDegrees>
            </Position>
            <AltitudeMeters>457</AltitudeMeters>
            <DistanceMeters>NAN</DistanceMeters>
          </Trackpoint>
          <Trackpoint>
            <Time>2022-09-21T11:18:33.000Z</Time>
            <Position>
              <LatitudeDegrees>49.41401414573192596435546875</LatitudeDegrees>
              <LongitudeDegrees>20.450277663767337799072265625</LongitudeDegrees>
            </Position>
            <AltitudeMeters>457</AltitudeMeters>
            <DistanceMeters>NAN</DistanceMeters>
          </Trackpoint>
          <Trackpoint>
            <Time>2022-09-21T11:18:35.000Z</Time>
            <Position>
              <LatitudeDegrees>49.4140129722654819488525390625</LatitudeDegrees>
              <LongitudeDegrees>20.450274311006069183349609375</LongitudeDegrees>
            </Position>
            <AltitudeMeters>457</AltitudeMeters>
            <DistanceMeters>NAN</DistanceMeters>
          </Trackpoint>
          <Trackpoint>
            <Time>2022-09-21T11:18:42.000Z</Time>
            <Position>
              <LatitudeDegrees>49.4140344299376010894775390625</LatitudeDegrees>
              <LongitudeDegrees>20.4502241872251033782958984375</LongitudeDegrees>
            </Position>
            <AltitudeMeters>457</AltitudeMeters>
            <DistanceMeters>NAN</DistanceMeters>
          </Trackpoint>
          <Trackpoint>
            <Time>2022-09-21T11:18:47.000Z</Time>
            <Position>
              <LatitudeDegrees>49.4140344299376010894775390625</LatitudeDegrees>
              <LongitudeDegrees>20.4502241872251033782958984375</LongitudeDegrees>
            </Position>
            <AltitudeMeters>457</AltitudeMeters>
            <DistanceMeters>NAN</DistanceMeters>
          </Trackpoint>
          <Trackpoint>
            <Time>2022-09-21T11:18:52.000Z</Time>
            <Position>
              <LatitudeDegrees>49.4140424765646457672119140625</LatitudeDegrees>
              <LongitudeDegrees>20.45023483224213123321533203125</LongitudeDegrees>
            </Position>
            <AltitudeMeters>457</AltitudeMeters>
            <DistanceMeters>NAN</DistanceMeters>
          </Trackpoint>
          <Trackpoint>
            <Time>2022-09-21T11:18:53.000Z</Time>
            <Position>
              <LatitudeDegrees>49.4140498526394367218017578125</LatitudeDegrees>
              <LongitudeDegrees>20.450221337378025054931640625</LongitudeDegrees>
            </Position>
            <AltitudeMeters>457</AltitudeMeters>
            <DistanceMeters>NAN</DistanceMeters>
          </Trackpoint>
          <Trackpoint>
            <Time>2022-09-21T11:18:55.000Z</Time>
            <Position>
              <LatitudeDegrees>49.414064101874828338623046875</LatitudeDegrees>
              <LongitudeDegrees>20.45022812671959400177001953125</LongitudeDegrees>
            </Position>
            <AltitudeMeters>457</AltitudeMeters>
            <DistanceMeters>NAN</DistanceMeters>
          </Trackpoint>
          <Trackpoint>
            <Time>2022-09-21T11:18:58.000Z</Time>
            <Position>
              <LatitudeDegrees>49.41409553401172161102294921875</LatitudeDegrees>
              <LongitudeDegrees>20.450255535542964935302734375</LongitudeDegrees>
            </Position>
            <AltitudeMeters>457</AltitudeMeters>
            <DistanceMeters>NAN</DistanceMeters>
          </Trackpoint>
          <Trackpoint>
            <Time>2022-09-21T11:18:59.000Z</Time>
            <Position>
              <LatitudeDegrees>49.41408664919435977935791015625</LatitudeDegrees>
              <LongitudeDegrees>20.4502893984317779541015625</LongitudeDegrees>
            </Position>
            <AltitudeMeters>457</AltitudeMeters>
            <DistanceMeters>NAN</DistanceMeters>
          </Trackpoint>
          <Trackpoint>
            <Time>2022-09-21T11:19:01.000Z</Time>
            <Position>
              <LatitudeDegrees>49.41407022066414356231689453125</LatitudeDegrees>
              <LongitudeDegrees>20.45031546615064144134521484375</LongitudeDegrees>
            </Position>
            <AltitudeMeters>457</AltitudeMeters>
            <DistanceMeters>NAN</DistanceMeters>
          </Trackpoint>
          <Trackpoint>
            <Time>2022-09-21T11:19:06.000Z</Time>
            <Position>
              <LatitudeDegrees>49.414114058017730712890625</LatitudeDegrees>
              <LongitudeDegrees>20.45039894990622997283935546875</LongitudeDegrees>
            </Position>
            <AltitudeMeters>457</AltitudeMeters>
            <DistanceMeters>NAN</DistanceMeters>
          </Trackpoint>
          <Trackpoint>
            <Time>2022-09-21T11:19:10.000Z</Time>
            <Position>
              <LatitudeDegrees>49.4143167324364185333251953125</LatitudeDegrees>
              <LongitudeDegrees>20.45037455856800079345703125</LongitudeDegrees>
            </Position>
            <AltitudeMeters>457</AltitudeMeters>
            <DistanceMeters>NAN</DistanceMeters>
          </Trackpoint>
          <Trackpoint>
            <Time>2022-09-21T11:19:12.000Z</Time>
            <Position>
              <LatitudeDegrees>49.4143526069819927215576171875</LatitudeDegrees>
              <LongitudeDegrees>20.45035385526716709136962890625</LongitudeDegrees>
            </Position>
            <AltitudeMeters>457</AltitudeMeters>
            <DistanceMeters>NAN</DistanceMeters>
          </Trackpoint>
          <Trackpoint>
            <Time>2022-09-21T11:19:17.000Z</Time>
            <Position>
              <LatitudeDegrees>49.41410810686647891998291015625</LatitudeDegrees>
              <LongitudeDegrees>20.45053523965179920196533203125</LongitudeDegrees>
            </Position>
            <AltitudeMeters>457</AltitudeMeters>
            <DistanceMeters>NAN</DistanceMeters>
          </Trackpoint>
          <Trackpoint>
            <Time>2022-09-21T11:19:24.000Z</Time>
            <Position>
              <LatitudeDegrees>49.41413090564310550689697265625</LatitudeDegrees>
              <LongitudeDegrees>20.45045561157166957855224609375</LongitudeDegrees>
            </Position>
            <AltitudeMeters>457</AltitudeMeters>
            <DistanceMeters>NAN</DistanceMeters>
          </Trackpoint>
          <Trackpoint>
            <Time>2022-09-21T11:19:28.000Z</Time>
            <Position>
              <LatitudeDegrees>49.41412889398634433746337890625</LatitudeDegrees>
              <LongitudeDegrees>20.4504441283643245697021484375</LongitudeDegrees>
            </Position>
            <AltitudeMeters>457</AltitudeMeters>
            <DistanceMeters>NAN</DistanceMeters>
          </Trackpoint>
          <Trackpoint>
            <Time>2022-09-21T11:19:31.000Z</Time>
            <Position>
              <LatitudeDegrees>49.41425579600036144256591796875</LatitudeDegrees>
              <LongitudeDegrees>20.4503623209893703460693359375</LongitudeDegrees>
            </Position>
            <AltitudeMeters>457</AltitudeMeters>
            <DistanceMeters>NAN</DistanceMeters>
          </Trackpoint>
          <Trackpoint>
            <Time>2022-09-21T11:19:32.000Z</Time>
            <Position>
              <LatitudeDegrees>49.4143016450107097625732421875</LatitudeDegrees>
              <LongitudeDegrees>20.45035318471491336822509765625</LongitudeDegrees>
            </Position>
            <AltitudeMeters>457</AltitudeMeters>
            <DistanceMeters>NAN</DistanceMeters>
          </Trackpoint>
          <Trackpoint>
            <Time>2022-09-21T11:19:36.000Z</Time>
            <Position>
              <LatitudeDegrees>49.41430860199034214019775390625</LatitudeDegrees>
              <LongitudeDegrees>20.450404398143291473388671875</LongitudeDegrees>
            </Position>
            <AltitudeMeters>457</AltitudeMeters>
            <DistanceMeters>NAN</DistanceMeters>
          </Trackpoint>
          <Trackpoint>
            <Time>2022-09-21T11:19:37.000Z</Time>
            <Position>
              <LatitudeDegrees>49.4142919220030307769775390625</LatitudeDegrees>
              <LongitudeDegrees>20.4504407756030559539794921875</LongitudeDegrees>
            </Position>
            <AltitudeMeters>457</AltitudeMeters>
            <DistanceMeters>NAN</DistanceMeters>
          </Trackpoint>
          <Trackpoint>
            <Time>2022-09-21T11:19:41.000Z</Time>
            <Position>
              <LatitudeDegrees>49.414290077984333038330078125</LatitudeDegrees>
              <LongitudeDegrees>20.45049726963043212890625</LongitudeDegrees>
            </Position>
            <AltitudeMeters>457</AltitudeMeters>
            <DistanceMeters>NAN</DistanceMeters>
          </Trackpoint>
          <Trackpoint>
            <Time>2022-09-21T11:19:42.000Z</Time>
            <Position>
              <LatitudeDegrees>49.41429686732590198516845703125</LatitudeDegrees>
              <LongitudeDegrees>20.45048729516565799713134765625</LongitudeDegrees>
            </Position>
            <AltitudeMeters>457</AltitudeMeters>
            <DistanceMeters>NAN</DistanceMeters>
          </Trackpoint>
          <Trackpoint>
            <Time>2022-09-21T11:19:44.000Z</Time>
            <Position>
              <LatitudeDegrees>49.4143304787576198577880859375</LatitudeDegrees>
              <LongitudeDegrees>20.4504572041332721710205078125</LongitudeDegrees>
            </Position>
            <AltitudeMeters>457</AltitudeMeters>
            <DistanceMeters>NAN</DistanceMeters>
          </Trackpoint>
          <Trackpoint>
            <Time>2022-09-21T11:19:45.000Z</Time>
            <Position>
              <LatitudeDegrees>49.41433005966246128082275390625</LatitudeDegrees>
              <LongitudeDegrees>20.45046600513160228729248046875</LongitudeDegrees>
            </Position>
            <AltitudeMeters>457</AltitudeMeters>
            <DistanceMeters>NAN</DistanceMeters>
          </Trackpoint>
          <Trackpoint>
            <Time>2022-09-21T11:19:47.000Z</Time>
            <Position>
              <LatitudeDegrees>49.414218999445438385009765625</LatitudeDegrees>
              <LongitudeDegrees>20.45072316192090511322021484375</LongitudeDegrees>
            </Position>
            <AltitudeMeters>457</AltitudeMeters>
            <DistanceMeters>NAN</DistanceMeters>
          </Trackpoint>
          <Trackpoint>
            <Time>2022-09-21T11:19:49.000Z</Time>
            <Position>
              <LatitudeDegrees>49.41407273523509502410888671875</LatitudeDegrees>
              <LongitudeDegrees>20.4508608765900135040283203125</LongitudeDegrees>
            </Position>
            <AltitudeMeters>457</AltitudeMeters>
            <DistanceMeters>NAN</DistanceMeters>
          </Trackpoint>
          <Trackpoint>
            <Time>2022-09-21T11:19:52.000Z</Time>
            <Position>
              <LatitudeDegrees>49.41389872692525386810302734375</LatitudeDegrees>
              <LongitudeDegrees>20.45092918910086154937744140625</LongitudeDegrees>
            </Position>
            <AltitudeMeters>457</AltitudeMeters>
            <DistanceMeters>NAN</DistanceMeters>
          </Trackpoint>
          <Trackpoint>
            <Time>2022-09-21T11:19:56.000Z</Time>
            <Position>
              <LatitudeDegrees>49.41384357400238513946533203125</LatitudeDegrees>
              <LongitudeDegrees>20.45097243972122669219970703125</LongitudeDegrees>
            </Position>
            <AltitudeMeters>457</AltitudeMeters>
            <DistanceMeters>NAN</DistanceMeters>
          </Trackpoint>
          <Trackpoint>
            <Time>2022-09-21T11:20:02.000Z</Time>
            <Position>
              <LatitudeDegrees>49.4137766025960445404052734375</LatitudeDegrees>
              <LongitudeDegrees>20.4503564536571502685546875</LongitudeDegrees>
            </Position>
            <AltitudeMeters>457.20001220703125</AltitudeMeters>
            <DistanceMeters>NAN</DistanceMeters>
          </Trackpoint>
          <Trackpoint>
            <Time>2022-09-21T11:20:08.000Z</Time>
            <Position>
              <LatitudeDegrees>49.4138339348137378692626953125</LatitudeDegrees>
              <LongitudeDegrees>20.450364835560321807861328125</LongitudeDegrees>
            </Position>
            <AltitudeMeters>457.20001220703125</AltitudeMeters>
            <DistanceMeters>NAN</DistanceMeters>
          </Trackpoint>
          <Trackpoint>
            <Time>2022-09-21T11:20:14.000Z</Time>
            <Position>
              <LatitudeDegrees>49.4138755090534687042236328125</LatitudeDegrees>
              <LongitudeDegrees>20.4503753967583179473876953125</LongitudeDegrees>
            </Position>
            <AltitudeMeters>457.20001220703125</AltitudeMeters>
            <DistanceMeters>NAN</DistanceMeters>
          </Trackpoint>
          <Trackpoint>
            <Time>2022-09-21T11:20:22.000Z</Time>
            <Position>
              <LatitudeDegrees>49.41387274302542209625244140625</LatitudeDegrees>
              <LongitudeDegrees>20.45037447474896907806396484375</LongitudeDegrees>
            </Position>
            <AltitudeMeters>457.20001220703125</AltitudeMeters>
            <DistanceMeters>NAN</DistanceMeters>
          </Trackpoint>
          <Trackpoint>
            <Time>2022-09-21T11:20:28.000Z</Time>
            <Position>
              <LatitudeDegrees>49.4138902612030506134033203125</LatitudeDegrees>
              <LongitudeDegrees>20.4503774084150791168212890625</LongitudeDegrees>
            </Position>
            <AltitudeMeters>457.20001220703125</AltitudeMeters>
            <DistanceMeters>NAN</DistanceMeters>
          </Trackpoint>
          <Trackpoint>
            <Time>2022-09-21T11:20:29.000Z</Time>
            <Position>
              <LatitudeDegrees>49.413901157677173614501953125</LatitudeDegrees>
              <LongitudeDegrees>20.45037246309220790863037109375</LongitudeDegrees>
            </Position>
            <AltitudeMeters>457.20001220703125</AltitudeMeters>
            <DistanceMeters>NAN</DistanceMeters>
          </Trackpoint>
          <Trackpoint>
            <Time>2022-09-21T11:20:33.000Z</Time>
            <Position>
              <LatitudeDegrees>49.41403334029018878936767578125</LatitudeDegrees>
              <LongitudeDegrees>20.45024572871625423431396484375</LongitudeDegrees>
            </Position>
            <AltitudeMeters>457.20001220703125</AltitudeMeters>
            <DistanceMeters>NAN</DistanceMeters>
          </Trackpoint>
          <Trackpoint>
            <Time>2022-09-21T11:20:36.000Z</Time>
            <Position>
              <LatitudeDegrees>49.41410265862941741943359375</LatitudeDegrees>
              <LongitudeDegrees>20.450191833078861236572265625</LongitudeDegrees>
            </Position>
            <AltitudeMeters>457.20001220703125</AltitudeMeters>
            <DistanceMeters>NAN</DistanceMeters>
          </Trackpoint>
          <Trackpoint>
            <Time>2022-09-21T11:20:38.000Z</Time>
            <Position>
              <LatitudeDegrees>49.41410265862941741943359375</LatitudeDegrees>
              <LongitudeDegrees>20.45019225217401981353759765625</LongitudeDegrees>
            </Position>
            <AltitudeMeters>457.20001220703125</AltitudeMeters>
            <DistanceMeters>NAN</DistanceMeters>
          </Trackpoint>
          <Trackpoint>
            <Time>2022-09-21T11:20:40.000Z</Time>
            <Position>
              <LatitudeDegrees>49.41407382488250732421875</LatitudeDegrees>
              <LongitudeDegrees>20.45017741620540618896484375</LongitudeDegrees>
            </Position>
            <AltitudeMeters>457.20001220703125</AltitudeMeters>
            <DistanceMeters>NAN</DistanceMeters>
          </Trackpoint>
          <Trackpoint>
            <Time>2022-09-21T11:20:41.000Z</Time>
            <Position>
              <LatitudeDegrees>49.41406510770320892333984375</LatitudeDegrees>
              <LongitudeDegrees>20.45015185140073299407958984375</LongitudeDegrees>
            </Position>
            <AltitudeMeters>457.20001220703125</AltitudeMeters>
            <DistanceMeters>NAN</DistanceMeters>
          </Trackpoint>
          <Trackpoint>
            <Time>2022-09-21T11:20:44.000Z</Time>
            <Position>
              <LatitudeDegrees>49.41407340578734874725341796875</LatitudeDegrees>
              <LongitudeDegrees>20.450127460062503814697265625</LongitudeDegrees>
            </Position>
            <AltitudeMeters>457.20001220703125</AltitudeMeters>
            <DistanceMeters>NAN</DistanceMeters>
          </Trackpoint>
          <Trackpoint>
            <Time>2022-09-21T11:20:45.000Z</Time>
            <Position>
              <LatitudeDegrees>49.4140817038714885711669921875</LatitudeDegrees>
              <LongitudeDegrees>20.4501212574541568756103515625</LongitudeDegrees>
            </Position>
            <AltitudeMeters>457.20001220703125</AltitudeMeters>
            <DistanceMeters>NAN</DistanceMeters>
          </Trackpoint>
          <Trackpoint>
            <Time>2022-09-21T11:20:47.000Z</Time>
            <Position>
              <LatitudeDegrees>49.41407005302608013153076171875</LatitudeDegrees>
              <LongitudeDegrees>20.45012938790023326873779296875</LongitudeDegrees>
            </Position>
            <AltitudeMeters>457.20001220703125</AltitudeMeters>
            <DistanceMeters>NAN</DistanceMeters>
          </Trackpoint>
          <Trackpoint>
            <Time>2022-09-21T11:20:51.000Z</Time>
            <Position>
              <LatitudeDegrees>49.4140934385359287261962890625</LatitudeDegrees>
              <LongitudeDegrees>20.450116731226444244384765625</LongitudeDegrees>
            </Position>
            <AltitudeMeters>457</AltitudeMeters>
            <DistanceMeters>NAN</DistanceMeters>
          </Trackpoint>
          <Trackpoint>
            <Time>2022-09-21T11:20:53.000Z</Time>
            <Position>
              <LatitudeDegrees>49.41403350792825222015380859375</LatitudeDegrees>
              <LongitudeDegrees>20.4501847922801971435546875</LongitudeDegrees>
            </Position>
            <AltitudeMeters>457</AltitudeMeters>
            <DistanceMeters>NAN</DistanceMeters>
          </Trackpoint>
          <Trackpoint>
            <Time>2022-09-21T11:20:57.000Z</Time>
            <Position>
              <LatitudeDegrees>49.4139677099883556365966796875</LatitudeDegrees>
              <LongitudeDegrees>20.450233407318592071533203125</LongitudeDegrees>
            </Position>
            <AltitudeMeters>457</AltitudeMeters>
            <DistanceMeters>NAN</DistanceMeters>
          </Trackpoint>
          <Trackpoint>
            <Time>2022-09-21T11:20:59.000Z</Time>
            <Position>
              <LatitudeDegrees>49.41401707939803600311279296875</LatitudeDegrees>
              <LongitudeDegrees>20.45022108592092990875244140625</LongitudeDegrees>
            </Position>
            <AltitudeMeters>457.20001220703125</AltitudeMeters>
            <DistanceMeters>NAN</DistanceMeters>
          </Trackpoint>
          <Trackpoint>
            <Time>2022-09-21T11:21:00.000Z</Time>
            <Position>
              <LatitudeDegrees>49.41401816904544830322265625</LatitudeDegrees>
              <LongitudeDegrees>20.4502196609973907470703125</LongitudeDegrees>
            </Position>
            <AltitudeMeters>457.20001220703125</AltitudeMeters>
            <DistanceMeters>NAN</DistanceMeters>
          </Trackpoint>
          <Trackpoint>
            <Time>2022-09-21T11:21:01.000Z</Time>
            <Position>
              <LatitudeDegrees>49.4140156544744968414306640625</LatitudeDegrees>
              <LongitudeDegrees>20.450222007930278778076171875</LongitudeDegrees>
            </Position>
            <AltitudeMeters>457.20001220703125</AltitudeMeters>
            <DistanceMeters>NAN</DistanceMeters>
          </Trackpoint>
          <Trackpoint>
            <Time>2022-09-21T11:21:02.000Z</Time>
            <Position>
              <LatitudeDegrees>49.4140129722654819488525390625</LatitudeDegrees>
              <LongitudeDegrees>20.4502245225012302398681640625</LongitudeDegrees>
            </Position>
            <AltitudeMeters>457.20001220703125</AltitudeMeters>
            <DistanceMeters>NAN</DistanceMeters>
          </Trackpoint>
          <Trackpoint>
            <Time>2022-09-21T11:21:07.000Z</Time>
            <Position>
              <LatitudeDegrees>49.41401205025613307952880859375</LatitudeDegrees>
              <LongitudeDegrees>20.4501675255596637725830078125</LongitudeDegrees>
            </Position>
            <AltitudeMeters>457.20001220703125</AltitudeMeters>
            <DistanceMeters>NAN</DistanceMeters>
          </Trackpoint>
          <Trackpoint>
            <Time>2022-09-21T11:21:12.000Z</Time>
            <Position>
              <LatitudeDegrees>49.41392152570188045501708984375</LatitudeDegrees>
              <LongitudeDegrees>20.4502345807850360870361328125</LongitudeDegrees>
            </Position>
            <AltitudeMeters>457.20001220703125</AltitudeMeters>
            <DistanceMeters>NAN</DistanceMeters>
          </Trackpoint>
          <Trackpoint>
            <Time>2022-09-21T11:21:15.000Z</Time>
            <Position>
              <LatitudeDegrees>49.4139341823756694793701171875</LatitudeDegrees>
              <LongitudeDegrees>20.45028202235698699951171875</LongitudeDegrees>
            </Position>
            <AltitudeMeters>457.20001220703125</AltitudeMeters>
            <DistanceMeters>NAN</DistanceMeters>
          </Trackpoint>
          <Trackpoint>
            <Time>2022-09-21T11:21:16.000Z</Time>
            <Position>
              <LatitudeDegrees>49.41396226175129413604736328125</LatitudeDegrees>
              <LongitudeDegrees>20.45035402290523052215576171875</LongitudeDegrees>
            </Position>
            <AltitudeMeters>457.20001220703125</AltitudeMeters>
            <DistanceMeters>NAN</DistanceMeters>
          </Trackpoint>
          <Trackpoint>
            <Time>2022-09-21T11:21:19.000Z</Time>
            <Position>
              <LatitudeDegrees>49.41397751681506633758544921875</LatitudeDegrees>
              <LongitudeDegrees>20.4503596387803554534912109375</LongitudeDegrees>
            </Position>
            <AltitudeMeters>457.20001220703125</AltitudeMeters>
            <DistanceMeters>NAN</DistanceMeters>
          </Trackpoint>
          <Trackpoint>
            <Time>2022-09-21T11:21:25.000Z</Time>
            <Position>
              <LatitudeDegrees>49.41397366113960742950439453125</LatitudeDegrees>
              <LongitudeDegrees>20.45036022551357746124267578125</LongitudeDegrees>
            </Position>
            <AltitudeMeters>457.20001220703125</AltitudeMeters>
            <DistanceMeters>NAN</DistanceMeters>
          </Trackpoint>
          <Trackpoint>
            <Time>2022-09-21T11:21:27.000Z</Time>
            <Position>
              <LatitudeDegrees>49.41397366113960742950439453125</LatitudeDegrees>
              <LongitudeDegrees>20.45036022551357746124267578125</LongitudeDegrees>
            </Position>
            <AltitudeMeters>457.20001220703125</AltitudeMeters>
            <DistanceMeters>NAN</DistanceMeters>
          </Trackpoint>
          <Trackpoint>
            <Time>2022-09-21T11:21:33.000Z</Time>
            <Position>
              <LatitudeDegrees>49.4139737449586391448974609375</LatitudeDegrees>
              <LongitudeDegrees>20.45036022551357746124267578125</LongitudeDegrees>
            </Position>
            <AltitudeMeters>457.20001220703125</AltitudeMeters>
            <DistanceMeters>NAN</DistanceMeters>
          </Trackpoint>
          <Trackpoint>
            <Time>2022-09-21T11:21:39.000Z</Time>
            <Position>
              <LatitudeDegrees>49.4140542112290859222412109375</LatitudeDegrees>
              <LongitudeDegrees>20.45023902319371700286865234375</LongitudeDegrees>
            </Position>
            <AltitudeMeters>457.20001220703125</AltitudeMeters>
            <DistanceMeters>NAN</DistanceMeters>
          </Trackpoint>
          <Trackpoint>
            <Time>2022-09-21T11:21:45.000Z</Time>
            <Position>
              <LatitudeDegrees>49.4142121262848377227783203125</LatitudeDegrees>
              <LongitudeDegrees>20.450169034302234649658203125</LongitudeDegrees>
            </Position>
            <AltitudeMeters>457.20001220703125</AltitudeMeters>
            <DistanceMeters>NAN</DistanceMeters>
          </Trackpoint>
          <Trackpoint>
            <Time>2022-09-21T11:21:46.000Z</Time>
            <Position>
              <LatitudeDegrees>49.414180107414722442626953125</LatitudeDegrees>
              <LongitudeDegrees>20.45019091106951236724853515625</LongitudeDegrees>
            </Position>
            <AltitudeMeters>457.20001220703125</AltitudeMeters>
            <DistanceMeters>NAN</DistanceMeters>
          </Trackpoint>
          <Trackpoint>
            <Time>2022-09-21T11:21:47.000Z</Time>
            <Position>
              <LatitudeDegrees>49.41418505273759365081787109375</LatitudeDegrees>
              <LongitudeDegrees>20.45016610063612461090087890625</LongitudeDegrees>
            </Position>
            <AltitudeMeters>457.20001220703125</AltitudeMeters>
            <DistanceMeters>NAN</DistanceMeters>
          </Trackpoint>
          <Trackpoint>
            <Time>2022-09-21T11:21:49.000Z</Time>
            <Position>
              <LatitudeDegrees>49.4141953624784946441650390625</LatitudeDegrees>
              <LongitudeDegrees>20.45015671290457248687744140625</LongitudeDegrees>
            </Position>
            <AltitudeMeters>457.20001220703125</AltitudeMeters>
            <DistanceMeters>NAN</DistanceMeters>
          </Trackpoint>
          <Trackpoint>
            <Time>2022-09-21T11:21:51.000Z</Time>
            <Position>
              <LatitudeDegrees>49.4142704643309116363525390625</LatitudeDegrees>
              <LongitudeDegrees>20.4501338303089141845703125</LongitudeDegrees>
            </Position>
            <AltitudeMeters>457.20001220703125</AltitudeMeters>
            <DistanceMeters>NAN</DistanceMeters>
          </Trackpoint>
          <Trackpoint>
            <Time>2022-09-21T11:21:54.000Z</Time>
            <Position>
              <LatitudeDegrees>49.41428010351955890655517578125</LatitudeDegrees>
              <LongitudeDegrees>20.45012377202510833740234375</LongitudeDegrees>
            </Position>
            <AltitudeMeters>457.20001220703125</AltitudeMeters>
            <DistanceMeters>NAN</DistanceMeters>
          </Trackpoint>
          <Trackpoint>
            <Time>2022-09-21T11:21:56.000Z</Time>
            <Position>
              <LatitudeDegrees>49.41426769830286502838134765625</LatitudeDegrees>
              <LongitudeDegrees>20.45020465739071369171142578125</LongitudeDegrees>
            </Position>
            <AltitudeMeters>457.20001220703125</AltitudeMeters>
            <DistanceMeters>NAN</DistanceMeters>
          </Trackpoint>
          <Trackpoint>
            <Time>2022-09-21T11:22:00.000Z</Time>
            <Position>
              <LatitudeDegrees>49.41423199139535427093505859375</LatitudeDegrees>
              <LongitudeDegrees>20.4502687789499759674072265625</LongitudeDegrees>
            </Position>
            <AltitudeMeters>457.20001220703125</AltitudeMeters>
            <DistanceMeters>NAN</DistanceMeters>
          </Trackpoint>
          <Trackpoint>
            <Time>2022-09-21T11:22:07.000Z</Time>
            <Position>
              <LatitudeDegrees>49.4141162373125553131103515625</LatitudeDegrees>
              <LongitudeDegrees>20.45026718638837337493896484375</LongitudeDegrees>
            </Position>
            <AltitudeMeters>457.20001220703125</AltitudeMeters>
            <DistanceMeters>NAN</DistanceMeters>
          </Trackpoint>
          <Trackpoint>
            <Time>2022-09-21T11:22:15.000Z</Time>
            <Position>
              <LatitudeDegrees>49.4141162373125553131103515625</LatitudeDegrees>
              <LongitudeDegrees>20.45026718638837337493896484375</LongitudeDegrees>
            </Position>
            <AltitudeMeters>457.20001220703125</AltitudeMeters>
            <DistanceMeters>NAN</DistanceMeters>
          </Trackpoint>
          <Trackpoint>
            <Time>2022-09-21T11:22:22.000Z</Time>
            <Position>
              <LatitudeDegrees>49.41411615349352359771728515625</LatitudeDegrees>
              <LongitudeDegrees>20.45026718638837337493896484375</LongitudeDegrees>
            </Position>
            <AltitudeMeters>457.20001220703125</AltitudeMeters>
            <DistanceMeters>NAN</DistanceMeters>
          </Trackpoint>
          <Trackpoint>
            <Time>2022-09-21T11:22:24.000Z</Time>
            <Position>
              <LatitudeDegrees>49.414115734398365020751953125</LatitudeDegrees>
              <LongitudeDegrees>20.45030188746750354766845703125</LongitudeDegrees>
            </Position>
            <AltitudeMeters>457.20001220703125</AltitudeMeters>
            <DistanceMeters>NAN</DistanceMeters>
          </Trackpoint>
          <Trackpoint>
            <Time>2022-09-21T11:22:26.000Z</Time>
            <Position>
              <LatitudeDegrees>49.4141162373125553131103515625</LatitudeDegrees>
              <LongitudeDegrees>20.45030037872493267059326171875</LongitudeDegrees>
            </Position>
            <AltitudeMeters>457.20001220703125</AltitudeMeters>
            <DistanceMeters>NAN</DistanceMeters>
          </Trackpoint>
          <Trackpoint>
            <Time>2022-09-21T11:22:32.000Z</Time>
            <Position>
              <LatitudeDegrees>49.41409586928784847259521484375</LatitudeDegrees>
              <LongitudeDegrees>20.450346060097217559814453125</LongitudeDegrees>
            </Position>
            <AltitudeMeters>457.20001220703125</AltitudeMeters>
            <DistanceMeters>NAN</DistanceMeters>
          </Trackpoint>
          <Trackpoint>
            <Time>2022-09-21T11:22:39.000Z</Time>
            <Position>
              <LatitudeDegrees>49.41409553401172161102294921875</LatitudeDegrees>
              <LongitudeDegrees>20.450349748134613037109375</LongitudeDegrees>
            </Position>
            <AltitudeMeters>457.399993896484375</AltitudeMeters>
            <DistanceMeters>NAN</DistanceMeters>
          </Trackpoint>
          <Trackpoint>
            <Time>2022-09-21T11:22:43.000Z</Time>
            <Position>
              <LatitudeDegrees>49.414091594517230987548828125</LatitudeDegrees>
              <LongitudeDegrees>20.45035670511424541473388671875</LongitudeDegrees>
            </Position>
            <AltitudeMeters>457.399993896484375</AltitudeMeters>
            <DistanceMeters>NAN</DistanceMeters>
          </Trackpoint>
          <Trackpoint>
            <Time>2022-09-21T11:22:47.000Z</Time>
            <Position>
              <LatitudeDegrees>49.41409117542207241058349609375</LatitudeDegrees>
              <LongitudeDegrees>20.45035486109554767608642578125</LongitudeDegrees>
            </Position>
            <AltitudeMeters>457.20001220703125</AltitudeMeters>
            <DistanceMeters>NAN</DistanceMeters>
          </Trackpoint>
          <Trackpoint>
            <Time>2022-09-21T11:22:53.000Z</Time>
            <Position>
              <LatitudeDegrees>49.41409117542207241058349609375</LatitudeDegrees>
              <LongitudeDegrees>20.45035486109554767608642578125</LongitudeDegrees>
            </Position>
            <AltitudeMeters>457</AltitudeMeters>
            <DistanceMeters>NAN</DistanceMeters>
          </Trackpoint>
          <Trackpoint>
            <Time>2022-09-21T11:23:02.000Z</Time>
            <Position>
              <LatitudeDegrees>49.4140858948230743408203125</LatitudeDegrees>
              <LongitudeDegrees>20.45034580864012241363525390625</LongitudeDegrees>
            </Position>
            <AltitudeMeters>457.399993896484375</AltitudeMeters>
            <DistanceMeters>NAN</DistanceMeters>
          </Trackpoint>
          <Trackpoint>
            <Time>2022-09-21T11:23:05.000Z</Time>
            <Position>
              <LatitudeDegrees>49.4140813685953617095947265625</LatitudeDegrees>
              <LongitudeDegrees>20.45033792965114116668701171875</LongitudeDegrees>
            </Position>
            <AltitudeMeters>457.399993896484375</AltitudeMeters>
            <DistanceMeters>NAN</DistanceMeters>
          </Trackpoint>
          <Trackpoint>
            <Time>2022-09-21T11:23:12.000Z</Time>
            <Position>
              <LatitudeDegrees>49.4140676222741603851318359375</LatitudeDegrees>
              <LongitudeDegrees>20.4503162205219268798828125</LongitudeDegrees>
            </Position>
            <AltitudeMeters>457.399993896484375</AltitudeMeters>
            <DistanceMeters>NAN</DistanceMeters>
          </Trackpoint>
          <Trackpoint>
            <Time>2022-09-21T11:23:17.000Z</Time>
            <Position>
              <LatitudeDegrees>49.41401875577867031097412109375</LatitudeDegrees>
              <LongitudeDegrees>20.45021421276032924652099609375</LongitudeDegrees>
            </Position>
            <AltitudeMeters>457.399993896484375</AltitudeMeters>
            <DistanceMeters>NAN</DistanceMeters>
          </Trackpoint>
          <Trackpoint>
            <Time>2022-09-21T11:23:19.000Z</Time>
            <Position>
              <LatitudeDegrees>49.41399612464010715484619140625</LatitudeDegrees>
              <LongitudeDegrees>20.4501713812351226806640625</LongitudeDegrees>
            </Position>
            <AltitudeMeters>457.399993896484375</AltitudeMeters>
            <DistanceMeters>NAN</DistanceMeters>
          </Trackpoint>
          <Trackpoint>
            <Time>2022-09-21T11:23:23.000Z</Time>
            <Position>
              <LatitudeDegrees>49.413982294499874114990234375</LatitudeDegrees>
              <LongitudeDegrees>20.45011329464614391326904296875</LongitudeDegrees>
            </Position>
            <AltitudeMeters>457.399993896484375</AltitudeMeters>
            <DistanceMeters>NAN</DistanceMeters>
          </Trackpoint>
          <Trackpoint>
            <Time>2022-09-21T11:23:27.000Z</Time>
            <Position>
              <LatitudeDegrees>49.4139222800731658935546875</LatitudeDegrees>
              <LongitudeDegrees>20.45006467960774898529052734375</LongitudeDegrees>
            </Position>
            <AltitudeMeters>457.399993896484375</AltitudeMeters>
            <DistanceMeters>NAN</DistanceMeters>
          </Trackpoint>
          <Trackpoint>
            <Time>2022-09-21T11:23:34.000Z</Time>
            <Position>
              <LatitudeDegrees>49.41390761174261569976806640625</LatitudeDegrees>
              <LongitudeDegrees>20.45003391802310943603515625</LongitudeDegrees>
            </Position>
            <AltitudeMeters>457.399993896484375</AltitudeMeters>
            <DistanceMeters>NAN</DistanceMeters>
          </Trackpoint>
          <Trackpoint>
            <Time>2022-09-21T11:23:39.000Z</Time>
            <Position>
              <LatitudeDegrees>49.41390409134328365325927734375</LatitudeDegrees>
              <LongitudeDegrees>20.45003953389823436737060546875</LongitudeDegrees>
            </Position>
            <AltitudeMeters>457.20001220703125</AltitudeMeters>
            <DistanceMeters>NAN</DistanceMeters>
          </Trackpoint>
          <Trackpoint>
            <Time>2022-09-21T11:23:49.000Z</Time>
            <Position>
              <LatitudeDegrees>49.41390409134328365325927734375</LatitudeDegrees>
              <LongitudeDegrees>20.45003953389823436737060546875</LongitudeDegrees>
            </Position>
            <AltitudeMeters>457.20001220703125</AltitudeMeters>
            <DistanceMeters>NAN</DistanceMeters>
          </Trackpoint>
          <Trackpoint>
            <Time>2022-09-21T11:23:51.000Z</Time>
            <Position>
              <LatitudeDegrees>49.41390409134328365325927734375</LatitudeDegrees>
              <LongitudeDegrees>20.45003953389823436737060546875</LongitudeDegrees>
            </Position>
            <AltitudeMeters>457.20001220703125</AltitudeMeters>
            <DistanceMeters>NAN</DistanceMeters>
          </Trackpoint>
          <Trackpoint>
            <Time>2022-09-21T11:23:59.000Z</Time>
            <Position>
              <LatitudeDegrees>49.41390409134328365325927734375</LatitudeDegrees>
              <LongitudeDegrees>20.45003953389823436737060546875</LongitudeDegrees>
            </Position>
            <AltitudeMeters>457</AltitudeMeters>
            <DistanceMeters>NAN</DistanceMeters>
          </Trackpoint>
          <Trackpoint>
            <Time>2022-09-21T11:24:01.000Z</Time>
            <Position>
              <LatitudeDegrees>49.41390409134328365325927734375</LatitudeDegrees>
              <LongitudeDegrees>20.45003953389823436737060546875</LongitudeDegrees>
            </Position>
            <AltitudeMeters>457</AltitudeMeters>
            <DistanceMeters>NAN</DistanceMeters>
          </Trackpoint>
          <Trackpoint>
            <Time>2022-09-21T11:24:02.000Z</Time>
            <Position>
              <LatitudeDegrees>49.41390409134328365325927734375</LatitudeDegrees>
              <LongitudeDegrees>20.45003953389823436737060546875</LongitudeDegrees>
            </Position>
            <AltitudeMeters>457</AltitudeMeters>
            <DistanceMeters>NAN</DistanceMeters>
          </Trackpoint>
          <Trackpoint>
            <Time>2022-09-21T11:24:05.000Z</Time>
            <Position>
              <LatitudeDegrees>49.41390409134328365325927734375</LatitudeDegrees>
              <LongitudeDegrees>20.45003953389823436737060546875</LongitudeDegrees>
            </Position>
            <AltitudeMeters>457</AltitudeMeters>
            <DistanceMeters>NAN</DistanceMeters>
          </Trackpoint>
          <Trackpoint>
            <Time>2022-09-21T11:24:13.000Z</Time>
            <Position>
              <LatitudeDegrees>49.41390409134328365325927734375</LatitudeDegrees>
              <LongitudeDegrees>20.45003953389823436737060546875</LongitudeDegrees>
            </Position>
            <AltitudeMeters>457</AltitudeMeters>
            <DistanceMeters>NAN</DistanceMeters>
          </Trackpoint>
          <Trackpoint>
            <Time>2022-09-21T11:24:48.000Z</Time>
            <Position>
              <LatitudeDegrees>49.41387224011123180389404296875</LatitudeDegrees>
              <LongitudeDegrees>20.4499837942421436309814453125</LongitudeDegrees>
            </Position>
            <AltitudeMeters>457</AltitudeMeters>
            <DistanceMeters>NAN</DistanceMeters>
          </Trackpoint>
          <Trackpoint>
            <Time>2022-09-21T11:24:52.000Z</Time>
            <Position>
              <LatitudeDegrees>49.41385857760906219482421875</LatitudeDegrees>
              <LongitudeDegrees>20.44990978203713893890380859375</LongitudeDegrees>
            </Position>
            <AltitudeMeters>456.79998779296875</AltitudeMeters>
            <DistanceMeters>NAN</DistanceMeters>
          </Trackpoint>
          <Trackpoint>
            <Time>2022-09-21T11:24:57.000Z</Time>
            <Position>
              <LatitudeDegrees>49.41383921541273593902587890625</LatitudeDegrees>
              <LongitudeDegrees>20.4498356021940708160400390625</LongitudeDegrees>
            </Position>
            <AltitudeMeters>456.20001220703125</AltitudeMeters>
            <DistanceMeters>NAN</DistanceMeters>
          </Trackpoint>
          <Trackpoint>
            <Time>2022-09-21T11:25:03.000Z</Time>
            <Position>
              <LatitudeDegrees>49.41383703611791133880615234375</LatitudeDegrees>
              <LongitudeDegrees>20.44974415563046932220458984375</LongitudeDegrees>
            </Position>
            <AltitudeMeters>455.79998779296875</AltitudeMeters>
            <DistanceMeters>NAN</DistanceMeters>
          </Trackpoint>
          <Trackpoint>
            <Time>2022-09-21T11:25:06.000Z</Time>
            <Position>
              <LatitudeDegrees>49.41382211633026599884033203125</LatitudeDegrees>
              <LongitudeDegrees>20.4496776871383190155029296875</LongitudeDegrees>
            </Position>
            <AltitudeMeters>455.600006103515625</AltitudeMeters>
            <DistanceMeters>NAN</DistanceMeters>
          </Trackpoint>
          <Trackpoint>
            <Time>2022-09-21T11:25:09.000Z</Time>
            <Position>
              <LatitudeDegrees>49.41381172277033329010009765625</LatitudeDegrees>
              <LongitudeDegrees>20.4496054351329803466796875</LongitudeDegrees>
            </Position>
            <AltitudeMeters>455.399993896484375</AltitudeMeters>
            <DistanceMeters>NAN</DistanceMeters>
          </Trackpoint>
          <Trackpoint>
            <Time>2022-09-21T11:25:10.000Z</Time>
            <Position>
              <LatitudeDegrees>49.413808621466159820556640625</LatitudeDegrees>
              <LongitudeDegrees>20.44958540238440036773681640625</LongitudeDegrees>
            </Position>
            <AltitudeMeters>455.399993896484375</AltitudeMeters>
            <DistanceMeters>NAN</DistanceMeters>
          </Trackpoint>
          <Trackpoint>
            <Time>2022-09-21T11:25:15.000Z</Time>
            <Position>
              <LatitudeDegrees>49.4138108007609844207763671875</LatitudeDegrees>
              <LongitudeDegrees>20.4494989849627017974853515625</LongitudeDegrees>
            </Position>
            <AltitudeMeters>455.399993896484375</AltitudeMeters>
            <DistanceMeters>NAN</DistanceMeters>
          </Trackpoint>
          <Trackpoint>
            <Time>2022-09-21T11:25:20.000Z</Time>
            <Position>
              <LatitudeDegrees>49.41382060758769512176513671875</LatitudeDegrees>
              <LongitudeDegrees>20.4494208656251430511474609375</LongitudeDegrees>
            </Position>
            <AltitudeMeters>455.600006103515625</AltitudeMeters>
            <DistanceMeters>NAN</DistanceMeters>
          </Trackpoint>
          <Trackpoint>
            <Time>2022-09-21T11:25:23.000Z</Time>
            <Position>
              <LatitudeDegrees>49.41381876356899738311767578125</LatitudeDegrees>
              <LongitudeDegrees>20.449368394911289215087890625</LongitudeDegrees>
            </Position>
            <AltitudeMeters>455.600006103515625</AltitudeMeters>
            <DistanceMeters>NAN</DistanceMeters>
          </Trackpoint>
          <Trackpoint>
            <Time>2022-09-21T11:25:24.000Z</Time>
            <Position>
              <LatitudeDegrees>49.41381759010255336761474609375</LatitudeDegrees>
              <LongitudeDegrees>20.4493534751236438751220703125</LongitudeDegrees>
            </Position>
            <AltitudeMeters>455.600006103515625</AltitudeMeters>
            <DistanceMeters>NAN</DistanceMeters>
          </Trackpoint>
          <Trackpoint>
            <Time>2022-09-21T11:25:27.000Z</Time>
            <Position>
              <LatitudeDegrees>49.41381909884512424468994140625</LatitudeDegrees>
              <LongitudeDegrees>20.4492994956672191619873046875</LongitudeDegrees>
            </Position>
            <AltitudeMeters>455.399993896484375</AltitudeMeters>
            <DistanceMeters>NAN</DistanceMeters>
          </Trackpoint>
          <Trackpoint>
            <Time>2022-09-21T11:25:34.000Z</Time>
            <Position>
              <LatitudeDegrees>49.41389302723109722137451171875</LatitudeDegrees>
              <LongitudeDegrees>20.44921542517840862274169921875</LongitudeDegrees>
            </Position>
            <AltitudeMeters>455.600006103515625</AltitudeMeters>
            <DistanceMeters>NAN</DistanceMeters>
          </Trackpoint>
          <Trackpoint>
            <Time>2022-09-21T11:25:44.000Z</Time>
            <Position>
              <LatitudeDegrees>49.41399361006915569305419921875</LatitudeDegrees>
              <LongitudeDegrees>20.449108891189098358154296875</LongitudeDegrees>
            </Position>
            <AltitudeMeters>456.20001220703125</AltitudeMeters>
            <DistanceMeters>NAN</DistanceMeters>
          </Trackpoint>
          <Trackpoint>
            <Time>2022-09-21T11:25:51.000Z</Time>
            <Position>
              <LatitudeDegrees>49.4140277244150638580322265625</LatitudeDegrees>
              <LongitudeDegrees>20.44904845766723155975341796875</LongitudeDegrees>
            </Position>
            <AltitudeMeters>457</AltitudeMeters>
            <DistanceMeters>NAN</DistanceMeters>
          </Trackpoint>
          <Trackpoint>
            <Time>2022-09-21T11:25:52.000Z</Time>
            <Position>
              <LatitudeDegrees>49.41403602249920368194580078125</LatitudeDegrees>
              <LongitudeDegrees>20.44903923757374286651611328125</LongitudeDegrees>
            </Position>
            <AltitudeMeters>457</AltitudeMeters>
            <DistanceMeters>NAN</DistanceMeters>
          </Trackpoint>
          <Trackpoint>
            <Time>2022-09-21T11:25:54.000Z</Time>
            <Position>
              <LatitudeDegrees>49.41405077464878559112548828125</LatitudeDegrees>
              <LongitudeDegrees>20.4490181989967823028564453125</LongitudeDegrees>
            </Position>
            <AltitudeMeters>457.20001220703125</AltitudeMeters>
            <DistanceMeters>NAN</DistanceMeters>
          </Trackpoint>
          <Trackpoint>
            <Time>2022-09-21T11:26:00.000Z</Time>
            <Position>
              <LatitudeDegrees>49.414091594517230987548828125</LatitudeDegrees>
              <LongitudeDegrees>20.4489578492939472198486328125</LongitudeDegrees>
            </Position>
            <AltitudeMeters>457.600006103515625</AltitudeMeters>
            <DistanceMeters>NAN</DistanceMeters>
          </Trackpoint>
          <Trackpoint>
            <Time>2022-09-21T11:26:02.000Z</Time>
            <Position>
              <LatitudeDegrees>49.41411062143743038177490234375</LatitudeDegrees>
              <LongitudeDegrees>20.4489437676966190338134765625</LongitudeDegrees>
            </Position>
            <AltitudeMeters>457.600006103515625</AltitudeMeters>
            <DistanceMeters>NAN</DistanceMeters>
          </Trackpoint>
          <Trackpoint>
            <Time>2022-09-21T11:26:04.000Z</Time>
            <Position>
              <LatitudeDegrees>49.4141236133873462677001953125</LatitudeDegrees>
              <LongitudeDegrees>20.448926500976085662841796875</LongitudeDegrees>
            </Position>
            <AltitudeMeters>457.600006103515625</AltitudeMeters>
            <DistanceMeters>NAN</DistanceMeters>
          </Trackpoint>
          <Trackpoint>
            <Time>2022-09-21T11:26:07.000Z</Time>
            <Position>
              <LatitudeDegrees>49.414139203727245330810546875</LatitudeDegrees>
              <LongitudeDegrees>20.44889129698276519775390625</LongitudeDegrees>
            </Position>
            <AltitudeMeters>457.79998779296875</AltitudeMeters>
            <DistanceMeters>NAN</DistanceMeters>
          </Trackpoint>
          <Trackpoint>
            <Time>2022-09-21T11:26:08.000Z</Time>
            <Position>
              <LatitudeDegrees>49.41414649598300457000732421875</LatitudeDegrees>
              <LongitudeDegrees>20.4488854296505451202392578125</LongitudeDegrees>
            </Position>
            <AltitudeMeters>457.79998779296875</AltitudeMeters>
            <DistanceMeters>NAN</DistanceMeters>
          </Trackpoint>
          <Trackpoint>
            <Time>2022-09-21T11:26:11.000Z</Time>
            <Position>
              <LatitudeDegrees>49.41416895948350429534912109375</LatitudeDegrees>
              <LongitudeDegrees>20.4488629661500453948974609375</LongitudeDegrees>
            </Position>
            <AltitudeMeters>458</AltitudeMeters>
            <DistanceMeters>NAN</DistanceMeters>
          </Trackpoint>
          <Trackpoint>
            <Time>2022-09-21T11:26:12.000Z</Time>
            <Position>
              <LatitudeDegrees>49.41417851485311985015869140625</LatitudeDegrees>
              <LongitudeDegrees>20.4488586075603961944580078125</LongitudeDegrees>
            </Position>
            <AltitudeMeters>458</AltitudeMeters>
            <DistanceMeters>NAN</DistanceMeters>
          </Trackpoint>
          <Trackpoint>
            <Time>2022-09-21T11:26:14.000Z</Time>
            <Position>
              <LatitudeDegrees>49.4141940213739871978759765625</LatitudeDegrees>
              <LongitudeDegrees>20.4488492198288440704345703125</LongitudeDegrees>
            </Position>
            <AltitudeMeters>458</AltitudeMeters>
            <DistanceMeters>NAN</DistanceMeters>
          </Trackpoint>
          <Trackpoint>
            <Time>2022-09-21T11:26:18.000Z</Time>
            <Position>
              <LatitudeDegrees>49.41421355120837688446044921875</LatitudeDegrees>
              <LongitudeDegrees>20.44881929643452167510986328125</LongitudeDegrees>
            </Position>
            <AltitudeMeters>458</AltitudeMeters>
            <DistanceMeters>NAN</DistanceMeters>
          </Trackpoint>
          <Trackpoint>
            <Time>2022-09-21T11:26:21.000Z</Time>
            <Position>
              <LatitudeDegrees>49.41422930918633937835693359375</LatitudeDegrees>
              <LongitudeDegrees>20.44879046268761157989501953125</LongitudeDegrees>
            </Position>
            <AltitudeMeters>458.20001220703125</AltitudeMeters>
            <DistanceMeters>NAN</DistanceMeters>
          </Trackpoint>
          <Trackpoint>
            <Time>2022-09-21T11:26:23.000Z</Time>
            <Position>
              <LatitudeDegrees>49.41423869691789150238037109375</LatitudeDegrees>
              <LongitudeDegrees>20.4487685859203338623046875</LongitudeDegrees>
            </Position>
            <AltitudeMeters>458.20001220703125</AltitudeMeters>
            <DistanceMeters>NAN</DistanceMeters>
          </Trackpoint>
          <Trackpoint>
            <Time>2022-09-21T11:26:29.000Z</Time>
            <Position>
              <LatitudeDegrees>49.414284043014049530029296875</LatitudeDegrees>
              <LongitudeDegrees>20.44869482517242431640625</LongitudeDegrees>
            </Position>
            <AltitudeMeters>458.20001220703125</AltitudeMeters>
            <DistanceMeters>NAN</DistanceMeters>
          </Trackpoint>
          <Trackpoint>
            <Time>2022-09-21T11:26:30.000Z</Time>
            <Position>
              <LatitudeDegrees>49.41429368220269680023193359375</LatitudeDegrees>
              <LongitudeDegrees>20.448698513209819793701171875</LongitudeDegrees>
            </Position>
            <AltitudeMeters>458.20001220703125</AltitudeMeters>
            <DistanceMeters>NAN</DistanceMeters>
          </Trackpoint>
          <Trackpoint>
            <Time>2022-09-21T11:26:35.000Z</Time>
            <Position>
              <LatitudeDegrees>49.4142959453165531158447265625</LatitudeDegrees>
              <LongitudeDegrees>20.44870220124721527099609375</LongitudeDegrees>
            </Position>
            <AltitudeMeters>458.20001220703125</AltitudeMeters>
            <DistanceMeters>NAN</DistanceMeters>
          </Trackpoint>
          <Trackpoint>
            <Time>2022-09-21T11:26:37.000Z</Time>
            <Position>
              <LatitudeDegrees>49.41429586149752140045166015625</LatitudeDegrees>
              <LongitudeDegrees>20.44867982156574726104736328125</LongitudeDegrees>
            </Position>
            <AltitudeMeters>458.399993896484375</AltitudeMeters>
            <DistanceMeters>NAN</DistanceMeters>
          </Trackpoint>
          <Trackpoint>
            <Time>2022-09-21T11:26:40.000Z</Time>
            <Position>
              <LatitudeDegrees>49.41430759616196155548095703125</LatitudeDegrees>
              <LongitudeDegrees>20.4486631415784358978271484375</LongitudeDegrees>
            </Position>
            <AltitudeMeters>458.399993896484375</AltitudeMeters>
            <DistanceMeters>NAN</DistanceMeters>
          </Trackpoint>
          <Trackpoint>
            <Time>2022-09-21T11:26:42.000Z</Time>
            <Position>
              <LatitudeDegrees>49.4143227674067020416259765625</LatitudeDegrees>
              <LongitudeDegrees>20.4486371576786041259765625</LongitudeDegrees>
            </Position>
            <AltitudeMeters>458.399993896484375</AltitudeMeters>
            <DistanceMeters>NAN</DistanceMeters>
          </Trackpoint>
          <Trackpoint>
            <Time>2022-09-21T11:26:45.000Z</Time>
            <Position>
              <LatitudeDegrees>49.414355456829071044921875</LatitudeDegrees>
              <LongitudeDegrees>20.44856649823486804962158203125</LongitudeDegrees>
            </Position>
            <AltitudeMeters>458.399993896484375</AltitudeMeters>
            <DistanceMeters>NAN</DistanceMeters>
          </Trackpoint>
          <Trackpoint>
            <Time>2022-09-21T11:26:51.000Z</Time>
            <Position>
              <LatitudeDegrees>49.41448085010051727294921875</LatitudeDegrees>
              <LongitudeDegrees>20.44836717657744884490966796875</LongitudeDegrees>
            </Position>
            <AltitudeMeters>458.399993896484375</AltitudeMeters>
            <DistanceMeters>NAN</DistanceMeters>
          </Trackpoint>
          <Trackpoint>
            <Time>2022-09-21T11:26:58.000Z</Time>
            <Position>
              <LatitudeDegrees>49.4146174751222133636474609375</LatitudeDegrees>
              <LongitudeDegrees>20.448169447481632232666015625</LongitudeDegrees>
            </Position>
            <AltitudeMeters>458.399993896484375</AltitudeMeters>
            <DistanceMeters>NAN</DistanceMeters>
          </Trackpoint>
          <Trackpoint>
            <Time>2022-09-21T11:27:00.000Z</Time>
            <Position>
              <LatitudeDegrees>49.414662234485149383544921875</LatitudeDegrees>
              <LongitudeDegrees>20.4481139592826366424560546875</LongitudeDegrees>
            </Position>
            <AltitudeMeters>458.399993896484375</AltitudeMeters>
            <DistanceMeters>NAN</DistanceMeters>
          </Trackpoint>
          <Trackpoint>
            <Time>2022-09-21T11:27:02.000Z</Time>
            <Position>
              <LatitudeDegrees>49.4147123582661151885986328125</LatitudeDegrees>
              <LongitudeDegrees>20.44804832898080348968505859375</LongitudeDegrees>
            </Position>
            <AltitudeMeters>458.399993896484375</AltitudeMeters>
            <DistanceMeters>NAN</DistanceMeters>
          </Trackpoint>
          <Trackpoint>
            <Time>2022-09-21T11:27:04.000Z</Time>
            <Position>
              <LatitudeDegrees>49.41476474516093730926513671875</LatitudeDegrees>
              <LongitudeDegrees>20.44797909446060657501220703125</LongitudeDegrees>
            </Position>
            <AltitudeMeters>458.399993896484375</AltitudeMeters>
            <DistanceMeters>NAN</DistanceMeters>
          </Trackpoint>
          <Trackpoint>
            <Time>2022-09-21T11:27:05.000Z</Time>
            <Position>
              <LatitudeDegrees>49.4147908128798007965087890625</LatitudeDegrees>
              <LongitudeDegrees>20.44794925488531589508056640625</LongitudeDegrees>
            </Position>
            <AltitudeMeters>458.600006103515625</AltitudeMeters>
            <DistanceMeters>NAN</DistanceMeters>
          </Trackpoint>
          <Trackpoint>
            <Time>2022-09-21T11:27:13.000Z</Time>
            <Position>
              <LatitudeDegrees>49.41496037878096103668212890625</LatitudeDegrees>
              <LongitudeDegrees>20.44771757908165454864501953125</LongitudeDegrees>
            </Position>
            <AltitudeMeters>458.79998779296875</AltitudeMeters>
            <DistanceMeters>NAN</DistanceMeters>
          </Trackpoint>
          <Trackpoint>
            <Time>2022-09-21T11:27:18.000Z</Time>
            <Position>
              <LatitudeDegrees>49.4150600396096706390380859375</LatitudeDegrees>
              <LongitudeDegrees>20.4475986398756504058837890625</LongitudeDegrees>
            </Position>
            <AltitudeMeters>458.79998779296875</AltitudeMeters>
            <DistanceMeters>NAN</DistanceMeters>
          </Trackpoint>
          <Trackpoint>
            <Time>2022-09-21T11:27:23.000Z</Time>
            <Position>
              <LatitudeDegrees>49.41519205458462238311767578125</LatitudeDegrees>
              <LongitudeDegrees>20.447457991540431976318359375</LongitudeDegrees>
            </Position>
            <AltitudeMeters>459</AltitudeMeters>
            <DistanceMeters>NAN</DistanceMeters>
          </Trackpoint>
          <Trackpoint>
            <Time>2022-09-21T11:27:29.000Z</Time>
            <Position>
              <LatitudeDegrees>49.41530738957226276397705078125</LatitudeDegrees>
              <LongitudeDegrees>20.4473136551678180694580078125</LongitudeDegrees>
            </Position>
            <AltitudeMeters>459</AltitudeMeters>
            <DistanceMeters>NAN</DistanceMeters>
          </Trackpoint>
          <Trackpoint>
            <Time>2022-09-21T11:27:35.000Z</Time>
            <Position>
              <LatitudeDegrees>49.41543705761432647705078125</LatitudeDegrees>
              <LongitudeDegrees>20.44717342592775821685791015625</LongitudeDegrees>
            </Position>
            <AltitudeMeters>459</AltitudeMeters>
            <DistanceMeters>NAN</DistanceMeters>
          </Trackpoint>
          <Trackpoint>
            <Time>2022-09-21T11:27:36.000Z</Time>
            <Position>
              <LatitudeDegrees>49.41546295769512653350830078125</LatitudeDegrees>
              <LongitudeDegrees>20.44715196825563907623291015625</LongitudeDegrees>
            </Position>
            <AltitudeMeters>459</AltitudeMeters>
            <DistanceMeters>NAN</DistanceMeters>
          </Trackpoint>
          <Trackpoint>
            <Time>2022-09-21T11:27:44.000Z</Time>
            <Position>
              <LatitudeDegrees>49.41563478671014308929443359375</LatitudeDegrees>
              <LongitudeDegrees>20.44691048562526702880859375</LongitudeDegrees>
            </Position>
            <AltitudeMeters>458.399993896484375</AltitudeMeters>
            <DistanceMeters>NAN</DistanceMeters>
          </Trackpoint>
          <Trackpoint>
            <Time>2022-09-21T11:27:47.000Z</Time>
            <Position>
              <LatitudeDegrees>49.41565406508743762969970703125</LatitudeDegrees>
              <LongitudeDegrees>20.44677369296550750732421875</LongitudeDegrees>
            </Position>
            <AltitudeMeters>457.79998779296875</AltitudeMeters>
            <DistanceMeters>NAN</DistanceMeters>
          </Trackpoint>
          <Trackpoint>
            <Time>2022-09-21T11:27:49.000Z</Time>
            <Position>
              <LatitudeDegrees>49.41568692214787006378173828125</LatitudeDegrees>
              <LongitudeDegrees>20.44670487754046916961669921875</LongitudeDegrees>
            </Position>
            <AltitudeMeters>456.79998779296875</AltitudeMeters>
            <DistanceMeters>NAN</DistanceMeters>
          </Trackpoint>
          <Trackpoint>
            <Time>2022-09-21T11:27:53.000Z</Time>
            <Position>
              <LatitudeDegrees>49.41574257798492908477783203125</LatitudeDegrees>
              <LongitudeDegrees>20.44651930220425128936767578125</LongitudeDegrees>
            </Position>
            <AltitudeMeters>455.79998779296875</AltitudeMeters>
            <DistanceMeters>NAN</DistanceMeters>
          </Trackpoint>
          <Trackpoint>
            <Time>2022-09-21T11:27:54.000Z</Time>
            <Position>
              <LatitudeDegrees>49.415758587419986724853515625</LatitudeDegrees>
              <LongitudeDegrees>20.44650320895016193389892578125</LongitudeDegrees>
            </Position>
            <AltitudeMeters>455.600006103515625</AltitudeMeters>
            <DistanceMeters>NAN</DistanceMeters>
          </Trackpoint>
          <Trackpoint>
            <Time>2022-09-21T11:27:59.000Z</Time>
            <Position>
              <LatitudeDegrees>49.4157932884991168975830078125</LatitudeDegrees>
              <LongitudeDegrees>20.44648175127804279327392578125</LongitudeDegrees>
            </Position>
            <AltitudeMeters>455</AltitudeMeters>
            <DistanceMeters>NAN</DistanceMeters>
          </Trackpoint>
          <Trackpoint>
            <Time>2022-09-21T11:28:02.000Z</Time>
            <Position>
              <LatitudeDegrees>49.4157932884991168975830078125</LatitudeDegrees>
              <LongitudeDegrees>20.44648175127804279327392578125</LongitudeDegrees>
            </Position>
            <AltitudeMeters>454.79998779296875</AltitudeMeters>
            <DistanceMeters>NAN</DistanceMeters>
          </Trackpoint>
          <Trackpoint>
            <Time>2022-09-21T11:28:07.000Z</Time>
            <Position>
              <LatitudeDegrees>49.41579136066138744354248046875</LatitudeDegrees>
              <LongitudeDegrees>20.4464791528880596160888671875</LongitudeDegrees>
            </Position>
            <AltitudeMeters>455</AltitudeMeters>
            <DistanceMeters>NAN</DistanceMeters>
          </Trackpoint>
          <Trackpoint>
            <Time>2022-09-21T11:28:20.000Z</Time>
            <Position>
              <LatitudeDegrees>49.41579303704202175140380859375</LatitudeDegrees>
              <LongitudeDegrees>20.4464831762015819549560546875</LongitudeDegrees>
            </Position>
            <AltitudeMeters>454.600006103515625</AltitudeMeters>
            <DistanceMeters>NAN</DistanceMeters>
          </Trackpoint>
          <Trackpoint>
            <Time>2022-09-21T11:28:34.000Z</Time>
            <Position>
              <LatitudeDegrees>49.41577635705471038818359375</LatitudeDegrees>
              <LongitudeDegrees>20.44652919284999370574951171875</LongitudeDegrees>
            </Position>
            <AltitudeMeters>455.20001220703125</AltitudeMeters>
            <DistanceMeters>NAN</DistanceMeters>
          </Trackpoint>
          <Trackpoint>
            <Time>2022-09-21T11:28:45.000Z</Time>
            <Position>
              <LatitudeDegrees>49.41577359102666378021240234375</LatitudeDegrees>
              <LongitudeDegrees>20.446545369923114776611328125</LongitudeDegrees>
            </Position>
            <AltitudeMeters>455.600006103515625</AltitudeMeters>
            <DistanceMeters>NAN</DistanceMeters>
          </Trackpoint>
          <Trackpoint>
            <Time>2022-09-21T11:28:47.000Z</Time>
            <Position>
              <LatitudeDegrees>49.41577241756021976470947265625</LatitudeDegrees>
              <LongitudeDegrees>20.446556098759174346923828125</LongitudeDegrees>
            </Position>
            <AltitudeMeters>455.600006103515625</AltitudeMeters>
            <DistanceMeters>NAN</DistanceMeters>
          </Trackpoint>
          <Trackpoint>
            <Time>2022-09-21T11:28:50.000Z</Time>
            <Position>
              <LatitudeDegrees>49.41577241756021976470947265625</LatitudeDegrees>
              <LongitudeDegrees>20.446556098759174346923828125</LongitudeDegrees>
            </Position>
            <AltitudeMeters>455.79998779296875</AltitudeMeters>
            <DistanceMeters>NAN</DistanceMeters>
          </Trackpoint>
          <Trackpoint>
            <Time>2022-09-21T11:28:59.000Z</Time>
            <Position>
              <LatitudeDegrees>49.415749870240688323974609375</LatitudeDegrees>
              <LongitudeDegrees>20.4465861059725284576416015625</LongitudeDegrees>
            </Position>
            <AltitudeMeters>456.20001220703125</AltitudeMeters>
            <DistanceMeters>NAN</DistanceMeters>
          </Trackpoint>
          <Trackpoint>
            <Time>2022-09-21T11:29:09.000Z</Time>
            <Position>
              <LatitudeDegrees>49.415749870240688323974609375</LatitudeDegrees>
              <LongitudeDegrees>20.4465934820473194122314453125</LongitudeDegrees>
            </Position>
            <AltitudeMeters>456.20001220703125</AltitudeMeters>
            <DistanceMeters>NAN</DistanceMeters>
          </Trackpoint>
          <Trackpoint>
            <Time>2022-09-21T11:29:20.000Z</Time>
            <Position>
              <LatitudeDegrees>49.41574911586940288543701171875</LatitudeDegrees>
              <LongitudeDegrees>20.44662290252745151519775390625</LongitudeDegrees>
            </Position>
            <AltitudeMeters>456.399993896484375</AltitudeMeters>
            <DistanceMeters>NAN</DistanceMeters>
          </Trackpoint>
          <Trackpoint>
            <Time>2022-09-21T11:29:26.000Z</Time>
            <Position>
              <LatitudeDegrees>49.41574794240295886993408203125</LatitudeDegrees>
              <LongitudeDegrees>20.44662290252745151519775390625</LongitudeDegrees>
            </Position>
            <AltitudeMeters>456.399993896484375</AltitudeMeters>
            <DistanceMeters>NAN</DistanceMeters>
          </Trackpoint>
          <Trackpoint>
            <Time>2022-09-21T11:29:41.000Z</Time>
            <Position>
              <LatitudeDegrees>49.415751211345195770263671875</LatitudeDegrees>
              <LongitudeDegrees>20.44662910513579845428466796875</LongitudeDegrees>
            </Position>
            <AltitudeMeters>456.20001220703125</AltitudeMeters>
            <DistanceMeters>NAN</DistanceMeters>
          </Trackpoint>
          <Trackpoint>
            <Time>2022-09-21T11:29:48.000Z</Time>
            <Position>
              <LatitudeDegrees>49.41574458964169025421142578125</LatitudeDegrees>
              <LongitudeDegrees>20.44663933105766773223876953125</LongitudeDegrees>
            </Position>
            <AltitudeMeters>456.20001220703125</AltitudeMeters>
            <DistanceMeters>NAN</DistanceMeters>
          </Trackpoint>
          <Trackpoint>
            <Time>2022-09-21T11:29:50.000Z</Time>
            <Position>
              <LatitudeDegrees>49.41574207507073879241943359375</LatitudeDegrees>
              <LongitudeDegrees>20.44664368964731693267822265625</LongitudeDegrees>
            </Position>
            <AltitudeMeters>456.20001220703125</AltitudeMeters>
            <DistanceMeters>NAN</DistanceMeters>
          </Trackpoint>
          <Trackpoint>
            <Time>2022-09-21T11:29:51.000Z</Time>
            <Position>
              <LatitudeDegrees>49.41574207507073879241943359375</LatitudeDegrees>
              <LongitudeDegrees>20.44664368964731693267822265625</LongitudeDegrees>
            </Position>
            <AltitudeMeters>456.20001220703125</AltitudeMeters>
            <DistanceMeters>NAN</DistanceMeters>
          </Trackpoint>
          <Trackpoint>
            <Time>2022-09-21T11:29:56.000Z</Time>
            <Position>
              <LatitudeDegrees>49.41568356938660144805908203125</LatitudeDegrees>
              <LongitudeDegrees>20.446761287748813629150390625</LongitudeDegrees>
            </Position>
            <AltitudeMeters>456.600006103515625</AltitudeMeters>
            <DistanceMeters>NAN</DistanceMeters>
          </Trackpoint>
          <Trackpoint>
            <Time>2022-09-21T11:30:00.000Z</Time>
            <Position>
              <LatitudeDegrees>49.41565339453518390655517578125</LatitudeDegrees>
              <LongitudeDegrees>20.44682641513645648956298828125</LongitudeDegrees>
            </Position>
            <AltitudeMeters>457</AltitudeMeters>
            <DistanceMeters>NAN</DistanceMeters>
          </Trackpoint>
          <Trackpoint>
            <Time>2022-09-21T11:30:05.000Z</Time>
            <Position>
              <LatitudeDegrees>49.41565968096256256103515625</LatitudeDegrees>
              <LongitudeDegrees>20.44681853614747524261474609375</LongitudeDegrees>
            </Position>
            <AltitudeMeters>457.399993896484375</AltitudeMeters>
            <DistanceMeters>NAN</DistanceMeters>
          </Trackpoint>
          <Trackpoint>
            <Time>2022-09-21T11:30:11.000Z</Time>
            <Position>
              <LatitudeDegrees>49.4156742654740810394287109375</LatitudeDegrees>
              <LongitudeDegrees>20.44682272709906101226806640625</LongitudeDegrees>
            </Position>
            <AltitudeMeters>457.600006103515625</AltitudeMeters>
            <DistanceMeters>NAN</DistanceMeters>
          </Trackpoint>
          <Trackpoint>
            <Time>2022-09-21T11:30:12.000Z</Time>
            <Position>
              <LatitudeDegrees>49.41567686386406421661376953125</LatitudeDegrees>
              <LongitudeDegrees>20.4468204639852046966552734375</LongitudeDegrees>
            </Position>
            <AltitudeMeters>457.600006103515625</AltitudeMeters>
            <DistanceMeters>NAN</DistanceMeters>
          </Trackpoint>
          <Trackpoint>
            <Time>2022-09-21T11:30:19.000Z</Time>
            <Position>
              <LatitudeDegrees>49.415696561336517333984375</LatitudeDegrees>
              <LongitudeDegrees>20.4468033649027347564697265625</LongitudeDegrees>
            </Position>
            <AltitudeMeters>457.600006103515625</AltitudeMeters>
            <DistanceMeters>NAN</DistanceMeters>
          </Trackpoint>
          <Trackpoint>
            <Time>2022-09-21T11:30:48.000Z</Time>
            <Position>
              <LatitudeDegrees>49.41569765098392963409423828125</LatitudeDegrees>
              <LongitudeDegrees>20.4467936418950557708740234375</LongitudeDegrees>
            </Position>
            <AltitudeMeters>457.79998779296875</AltitudeMeters>
            <DistanceMeters>NAN</DistanceMeters>
          </Trackpoint>
          <Trackpoint>
            <Time>2022-09-21T11:30:50.000Z</Time>
            <Position>
              <LatitudeDegrees>49.41569765098392963409423828125</LatitudeDegrees>
              <LongitudeDegrees>20.4467936418950557708740234375</LongitudeDegrees>
            </Position>
            <AltitudeMeters>457.79998779296875</AltitudeMeters>
            <DistanceMeters>NAN</DistanceMeters>
          </Trackpoint>
          <Trackpoint>
            <Time>2022-09-21T11:30:53.000Z</Time>
            <Position>
              <LatitudeDegrees>49.41570469178259372711181640625</LatitudeDegrees>
              <LongitudeDegrees>20.446787774562835693359375</LongitudeDegrees>
            </Position>
            <AltitudeMeters>458</AltitudeMeters>
            <DistanceMeters>NAN</DistanceMeters>
          </Trackpoint>
          <Trackpoint>
            <Time>2022-09-21T11:30:54.000Z</Time>
            <Position>
              <LatitudeDegrees>49.41571894101798534393310546875</LatitudeDegrees>
              <LongitudeDegrees>20.44678048230707645416259765625</LongitudeDegrees>
            </Position>
            <AltitudeMeters>458</AltitudeMeters>
            <DistanceMeters>NAN</DistanceMeters>
          </Trackpoint>
          <Trackpoint>
            <Time>2022-09-21T11:30:56.000Z</Time>
            <Position>
              <LatitudeDegrees>49.41571894101798534393310546875</LatitudeDegrees>
              <LongitudeDegrees>20.44678048230707645416259765625</LongitudeDegrees>
            </Position>
            <AltitudeMeters>458</AltitudeMeters>
            <DistanceMeters>NAN</DistanceMeters>
          </Trackpoint>
          <Trackpoint>
            <Time>2022-09-21T11:31:00.000Z</Time>
            <Position>
              <LatitudeDegrees>49.41572547890245914459228515625</LatitudeDegrees>
              <LongitudeDegrees>20.44677495025098323822021484375</LongitudeDegrees>
            </Position>
            <AltitudeMeters>458</AltitudeMeters>
            <DistanceMeters>NAN</DistanceMeters>
          </Trackpoint>
          <Trackpoint>
            <Time>2022-09-21T11:31:02.000Z</Time>
            <Position>
              <LatitudeDegrees>49.4157255627214908599853515625</LatitudeDegrees>
              <LongitudeDegrees>20.44678509235382080078125</LongitudeDegrees>
            </Position>
            <AltitudeMeters>458.20001220703125</AltitudeMeters>
            <DistanceMeters>NAN</DistanceMeters>
          </Trackpoint>
          <Trackpoint>
            <Time>2022-09-21T11:31:05.000Z</Time>
            <Position>
              <LatitudeDegrees>49.4157295860350131988525390625</LatitudeDegrees>
              <LongitudeDegrees>20.44678903184831142425537109375</LongitudeDegrees>
            </Position>
            <AltitudeMeters>458.20001220703125</AltitudeMeters>
            <DistanceMeters>NAN</DistanceMeters>
          </Trackpoint>
          <Trackpoint>
            <Time>2022-09-21T11:32:10.000Z</Time>
            <Position>
              <LatitudeDegrees>49.41607919521629810333251953125</LatitudeDegrees>
              <LongitudeDegrees>20.44672013260424137115478515625</LongitudeDegrees>
            </Position>
            <AltitudeMeters>457.79998779296875</AltitudeMeters>
            <DistanceMeters>NAN</DistanceMeters>
          </Trackpoint>
          <Trackpoint>
            <Time>2022-09-21T11:32:11.000Z</Time>
            <Position>
              <LatitudeDegrees>49.41502894274890422821044921875</LatitudeDegrees>
              <LongitudeDegrees>20.44721701182425022125244140625</LongitudeDegrees>
            </Position>
            <AltitudeMeters>457.79998779296875</AltitudeMeters>
            <DistanceMeters>NAN</DistanceMeters>
          </Trackpoint>
          <Trackpoint>
            <Time>2022-09-21T11:32:15.000Z</Time>
            <Position>
              <LatitudeDegrees>49.41536522470414638519287109375</LatitudeDegrees>
              <LongitudeDegrees>20.4469607770442962646484375</LongitudeDegrees>
            </Position>
            <AltitudeMeters>458</AltitudeMeters>
            <DistanceMeters>NAN</DistanceMeters>
          </Trackpoint>
          <Trackpoint>
            <Time>2022-09-21T11:32:16.000Z</Time>
            <Position>
              <LatitudeDegrees>49.4154442660510540008544921875</LatitudeDegrees>
              <LongitudeDegrees>20.44687519781291484832763671875</LongitudeDegrees>
            </Position>
            <AltitudeMeters>458</AltitudeMeters>
            <DistanceMeters>NAN</DistanceMeters>
          </Trackpoint>
          <Trackpoint>
            <Time>2022-09-21T11:32:17.000Z</Time>
            <Position>
              <LatitudeDegrees>49.4154573418200016021728515625</LatitudeDegrees>
              <LongitudeDegrees>20.44682758860290050506591796875</LongitudeDegrees>
            </Position>
            <AltitudeMeters>458</AltitudeMeters>
            <DistanceMeters>NAN</DistanceMeters>
          </Trackpoint>
          <Trackpoint>
            <Time>2022-09-21T11:32:20.000Z</Time>
            <Position>
              <LatitudeDegrees>49.41543613560497760772705078125</LatitudeDegrees>
              <LongitudeDegrees>20.44679607264697551727294921875</LongitudeDegrees>
            </Position>
            <AltitudeMeters>458</AltitudeMeters>
            <DistanceMeters>NAN</DistanceMeters>
          </Trackpoint>
          <Trackpoint>
            <Time>2022-09-21T11:32:23.000Z</Time>
            <Position>
              <LatitudeDegrees>49.4154818169772624969482421875</LatitudeDegrees>
              <LongitudeDegrees>20.44669800437986850738525390625</LongitudeDegrees>
            </Position>
            <AltitudeMeters>458</AltitudeMeters>
            <DistanceMeters>NAN</DistanceMeters>
          </Trackpoint>
          <Trackpoint>
            <Time>2022-09-21T11:32:25.000Z</Time>
            <Position>
              <LatitudeDegrees>49.415482990443706512451171875</LatitudeDegrees>
              <LongitudeDegrees>20.44667981564998626708984375</LongitudeDegrees>
            </Position>
            <AltitudeMeters>458</AltitudeMeters>
            <DistanceMeters>NAN</DistanceMeters>
          </Trackpoint>
          <Trackpoint>
            <Time>2022-09-21T11:32:28.000Z</Time>
            <Position>
              <LatitudeDegrees>49.41545239649713039398193359375</LatitudeDegrees>
              <LongitudeDegrees>20.44674527831375598907470703125</LongitudeDegrees>
            </Position>
            <AltitudeMeters>458.20001220703125</AltitudeMeters>
            <DistanceMeters>NAN</DistanceMeters>
          </Trackpoint>
          <Trackpoint>
            <Time>2022-09-21T11:32:29.000Z</Time>
            <Position>
              <LatitudeDegrees>49.415454827249050140380859375</LatitudeDegrees>
              <LongitudeDegrees>20.44676271267235279083251953125</LongitudeDegrees>
            </Position>
            <AltitudeMeters>458.20001220703125</AltitudeMeters>
            <DistanceMeters>NAN</DistanceMeters>
          </Trackpoint>
          <Trackpoint>
            <Time>2022-09-21T11:32:32.000Z</Time>
            <Position>
              <LatitudeDegrees>49.4154492951929569244384765625</LatitudeDegrees>
              <LongitudeDegrees>20.4467788897454738616943359375</LongitudeDegrees>
            </Position>
            <AltitudeMeters>458.20001220703125</AltitudeMeters>
            <DistanceMeters>NAN</DistanceMeters>
          </Trackpoint>
          <Trackpoint>
            <Time>2022-09-21T11:32:34.000Z</Time>
            <Position>
              <LatitudeDegrees>49.41544921137392520904541015625</LatitudeDegrees>
              <LongitudeDegrees>20.44676832854747772216796875</LongitudeDegrees>
            </Position>
            <AltitudeMeters>458.20001220703125</AltitudeMeters>
            <DistanceMeters>NAN</DistanceMeters>
          </Trackpoint>
          <Trackpoint>
            <Time>2022-09-21T11:32:39.000Z</Time>
            <Position>
              <LatitudeDegrees>49.415476284921169281005859375</LatitudeDegrees>
              <LongitudeDegrees>20.44675491750240325927734375</LongitudeDegrees>
            </Position>
            <AltitudeMeters>458.20001220703125</AltitudeMeters>
            <DistanceMeters>NAN</DistanceMeters>
          </Trackpoint>
          <Trackpoint>
            <Time>2022-09-21T11:32:40.000Z</Time>
            <Position>
              <LatitudeDegrees>49.41546882502734661102294921875</LatitudeDegrees>
              <LongitudeDegrees>20.44676707126200199127197265625</LongitudeDegrees>
            </Position>
            <AltitudeMeters>458.20001220703125</AltitudeMeters>
            <DistanceMeters>NAN</DistanceMeters>
          </Trackpoint>
          <Trackpoint>
            <Time>2022-09-21T11:32:41.000Z</Time>
            <Position>
              <LatitudeDegrees>49.4154630415141582489013671875</LatitudeDegrees>
              <LongitudeDegrees>20.44677813537418842315673828125</LongitudeDegrees>
            </Position>
            <AltitudeMeters>458.399993896484375</AltitudeMeters>
            <DistanceMeters>NAN</DistanceMeters>
          </Trackpoint>
          <Trackpoint>
            <Time>2022-09-21T11:32:46.000Z</Time>
            <Position>
              <LatitudeDegrees>49.41551190800964832305908203125</LatitudeDegrees>
              <LongitudeDegrees>20.44684804044663906097412109375</LongitudeDegrees>
            </Position>
            <AltitudeMeters>458.600006103515625</AltitudeMeters>
            <DistanceMeters>NAN</DistanceMeters>
          </Trackpoint>
          <Trackpoint>
            <Time>2022-09-21T11:32:48.000Z</Time>
            <Position>
              <LatitudeDegrees>49.41549212671816349029541015625</LatitudeDegrees>
              <LongitudeDegrees>20.44682473875582218170166015625</LongitudeDegrees>
            </Position>
            <AltitudeMeters>458.600006103515625</AltitudeMeters>
            <DistanceMeters>NAN</DistanceMeters>
          </Trackpoint>
          <Trackpoint>
            <Time>2022-09-21T11:32:49.000Z</Time>
            <Position>
              <LatitudeDegrees>49.415516518056392669677734375</LatitudeDegrees>
              <LongitudeDegrees>20.4468037001788616180419921875</LongitudeDegrees>
            </Position>
            <AltitudeMeters>458.600006103515625</AltitudeMeters>
            <DistanceMeters>NAN</DistanceMeters>
          </Trackpoint>
          <Trackpoint>
            <Time>2022-09-21T11:32:54.000Z</Time>
            <Position>
              <LatitudeDegrees>49.4156511314213275909423828125</LatitudeDegrees>
              <LongitudeDegrees>20.44671258889138698577880859375</LongitudeDegrees>
            </Position>
            <AltitudeMeters>458.600006103515625</AltitudeMeters>
            <DistanceMeters>NAN</DistanceMeters>
          </Trackpoint>
          <Trackpoint>
            <Time>2022-09-21T11:33:01.000Z</Time>
            <Position>
              <LatitudeDegrees>49.41575548611581325531005859375</LatitudeDegrees>
              <LongitudeDegrees>20.44665743596851825714111328125</LongitudeDegrees>
            </Position>
            <AltitudeMeters>458.79998779296875</AltitudeMeters>
            <DistanceMeters>NAN</DistanceMeters>
          </Trackpoint>
          <Trackpoint>
            <Time>2022-09-21T11:33:06.000Z</Time>
            <Position>
              <LatitudeDegrees>49.41581667400896549224853515625</LatitudeDegrees>
              <LongitudeDegrees>20.44669054448604583740234375</LongitudeDegrees>
            </Position>
            <AltitudeMeters>458.600006103515625</AltitudeMeters>
            <DistanceMeters>NAN</DistanceMeters>
          </Trackpoint>
          <Trackpoint>
            <Time>2022-09-21T11:33:08.000Z</Time>
            <Position>
              <LatitudeDegrees>49.41586512140929698944091796875</LatitudeDegrees>
              <LongitudeDegrees>20.4466692544519901275634765625</LongitudeDegrees>
            </Position>
            <AltitudeMeters>458.600006103515625</AltitudeMeters>
            <DistanceMeters>NAN</DistanceMeters>
          </Trackpoint>
          <Trackpoint>
            <Time>2022-09-21T11:33:10.000Z</Time>
            <Position>
              <LatitudeDegrees>49.41588372923433780670166015625</LatitudeDegrees>
              <LongitudeDegrees>20.44667537324130535125732421875</LongitudeDegrees>
            </Position>
            <AltitudeMeters>458.399993896484375</AltitudeMeters>
            <DistanceMeters>NAN</DistanceMeters>
          </Trackpoint>
          <Trackpoint>
            <Time>2022-09-21T11:33:17.000Z</Time>
            <Position>
              <LatitudeDegrees>49.4159431569278240203857421875</LatitudeDegrees>
              <LongitudeDegrees>20.44666816480457782745361328125</LongitudeDegrees>
            </Position>
            <AltitudeMeters>458.399993896484375</AltitudeMeters>
            <DistanceMeters>NAN</DistanceMeters>
          </Trackpoint>
          <Trackpoint>
            <Time>2022-09-21T11:33:21.000Z</Time>
            <Position>
              <LatitudeDegrees>49.415906779468059539794921875</LatitudeDegrees>
              <LongitudeDegrees>20.4466451145708560943603515625</LongitudeDegrees>
            </Position>
            <AltitudeMeters>458.20001220703125</AltitudeMeters>
            <DistanceMeters>NAN</DistanceMeters>
          </Trackpoint>
          <Trackpoint>
            <Time>2022-09-21T11:33:24.000Z</Time>
            <Position>
              <LatitudeDegrees>49.4159393012523651123046875</LatitudeDegrees>
              <LongitudeDegrees>20.4466806538403034210205078125</LongitudeDegrees>
            </Position>
            <AltitudeMeters>458.399993896484375</AltitudeMeters>
            <DistanceMeters>NAN</DistanceMeters>
          </Trackpoint>
          <Trackpoint>
            <Time>2022-09-21T11:33:25.000Z</Time>
            <Position>
              <LatitudeDegrees>49.4159495271742343902587890625</LatitudeDegrees>
              <LongitudeDegrees>20.4466823302209377288818359375</LongitudeDegrees>
            </Position>
            <AltitudeMeters>458.399993896484375</AltitudeMeters>
            <DistanceMeters>NAN</DistanceMeters>
          </Trackpoint>
          <Trackpoint>
            <Time>2022-09-21T11:33:27.000Z</Time>
            <Position>
              <LatitudeDegrees>49.4159535504877567291259765625</LatitudeDegrees>
              <LongitudeDegrees>20.44668057002127170562744140625</LongitudeDegrees>
            </Position>
            <AltitudeMeters>458.399993896484375</AltitudeMeters>
            <DistanceMeters>NAN</DistanceMeters>
          </Trackpoint>
          <Trackpoint>
            <Time>2022-09-21T11:33:30.000Z</Time>
            <Position>
              <LatitudeDegrees>49.4159401394426822662353515625</LatitudeDegrees>
              <LongitudeDegrees>20.4466833360493183135986328125</LongitudeDegrees>
            </Position>
            <AltitudeMeters>458.399993896484375</AltitudeMeters>
            <DistanceMeters>NAN</DistanceMeters>
          </Trackpoint>
          <Trackpoint>
            <Time>2022-09-21T11:33:34.000Z</Time>
            <Position>
              <LatitudeDegrees>49.41596813499927520751953125</LatitudeDegrees>
              <LongitudeDegrees>20.44663044624030590057373046875</LongitudeDegrees>
            </Position>
            <AltitudeMeters>458.399993896484375</AltitudeMeters>
            <DistanceMeters>NAN</DistanceMeters>
          </Trackpoint>
          <Trackpoint>
            <Time>2022-09-21T11:33:36.000Z</Time>
            <Position>
              <LatitudeDegrees>49.41599168814718723297119140625</LatitudeDegrees>
              <LongitudeDegrees>20.446605384349822998046875</LongitudeDegrees>
            </Position>
            <AltitudeMeters>458.399993896484375</AltitudeMeters>
            <DistanceMeters>NAN</DistanceMeters>
          </Trackpoint>
          <Trackpoint>
            <Time>2022-09-21T11:33:40.000Z</Time>
            <Position>
              <LatitudeDegrees>49.41601063124835491180419921875</LatitudeDegrees>
              <LongitudeDegrees>20.4465348087251186370849609375</LongitudeDegrees>
            </Position>
            <AltitudeMeters>457.79998779296875</AltitudeMeters>
            <DistanceMeters>NAN</DistanceMeters>
          </Trackpoint>
          <Trackpoint>
            <Time>2022-09-21T11:33:44.000Z</Time>
            <Position>
              <LatitudeDegrees>49.41611356101930141448974609375</LatitudeDegrees>
              <LongitudeDegrees>20.44650170020759105682373046875</LongitudeDegrees>
            </Position>
            <AltitudeMeters>456.79998779296875</AltitudeMeters>
            <DistanceMeters>NAN</DistanceMeters>
          </Trackpoint>
          <Trackpoint>
            <Time>2022-09-21T11:33:49.000Z</Time>
            <Position>
              <LatitudeDegrees>49.41621716134250164031982421875</LatitudeDegrees>
              <LongitudeDegrees>20.44656808488070964813232421875</LongitudeDegrees>
            </Position>
            <AltitudeMeters>456.600006103515625</AltitudeMeters>
            <DistanceMeters>NAN</DistanceMeters>
          </Trackpoint>
          <Trackpoint>
            <Time>2022-09-21T11:33:50.000Z</Time>
            <Position>
              <LatitudeDegrees>49.4162288121879100799560546875</LatitudeDegrees>
              <LongitudeDegrees>20.44657261110842227935791015625</LongitudeDegrees>
            </Position>
            <AltitudeMeters>456.600006103515625</AltitudeMeters>
            <DistanceMeters>NAN</DistanceMeters>
          </Trackpoint>
          <Trackpoint>
            <Time>2022-09-21T11:33:52.000Z</Time>
            <Position>
              <LatitudeDegrees>49.41625873558223247528076171875</LatitudeDegrees>
              <LongitudeDegrees>20.44659666717052459716796875</LongitudeDegrees>
            </Position>
            <AltitudeMeters>456.600006103515625</AltitudeMeters>
            <DistanceMeters>NAN</DistanceMeters>
          </Trackpoint>
          <Trackpoint>
            <Time>2022-09-21T11:33:53.000Z</Time>
            <Position>
              <LatitudeDegrees>49.4162693805992603302001953125</LatitudeDegrees>
              <LongitudeDegrees>20.44661770574748516082763671875</LongitudeDegrees>
            </Position>
            <AltitudeMeters>456.600006103515625</AltitudeMeters>
            <DistanceMeters>NAN</DistanceMeters>
          </Trackpoint>
          <Trackpoint>
            <Time>2022-09-21T11:33:56.000Z</Time>
            <Position>
              <LatitudeDegrees>49.41630181856453418731689453125</LatitudeDegrees>
              <LongitudeDegrees>20.446648299694061279296875</LongitudeDegrees>
            </Position>
            <AltitudeMeters>457.399993896484375</AltitudeMeters>
            <DistanceMeters>NAN</DistanceMeters>
          </Trackpoint>
          <Trackpoint>
            <Time>2022-09-21T11:33:58.000Z</Time>
            <Position>
              <LatitudeDegrees>49.416360743343830108642578125</LatitudeDegrees>
              <LongitudeDegrees>20.446649976074695587158203125</LongitudeDegrees>
            </Position>
            <AltitudeMeters>457.79998779296875</AltitudeMeters>
            <DistanceMeters>NAN</DistanceMeters>
          </Trackpoint>
          <Trackpoint>
            <Time>2022-09-21T11:33:59.000Z</Time>
            <Position>
              <LatitudeDegrees>49.41636979579925537109375</LatitudeDegrees>
              <LongitudeDegrees>20.44667570851743221282958984375</LongitudeDegrees>
            </Position>
            <AltitudeMeters>458</AltitudeMeters>
            <DistanceMeters>NAN</DistanceMeters>
          </Trackpoint>
          <Trackpoint>
            <Time>2022-09-21T11:34:00.000Z</Time>
            <Position>
              <LatitudeDegrees>49.4163843803107738494873046875</LatitudeDegrees>
              <LongitudeDegrees>20.446689538657665252685546875</LongitudeDegrees>
            </Position>
            <AltitudeMeters>458.20001220703125</AltitudeMeters>
            <DistanceMeters>NAN</DistanceMeters>
          </Trackpoint>
          <Trackpoint>
            <Time>2022-09-21T11:34:02.000Z</Time>
            <Position>
              <LatitudeDegrees>49.41638647578656673431396484375</LatitudeDegrees>
              <LongitudeDegrees>20.44676958583295345306396484375</LongitudeDegrees>
            </Position>
            <AltitudeMeters>458.600006103515625</AltitudeMeters>
            <DistanceMeters>NAN</DistanceMeters>
          </Trackpoint>
          <Trackpoint>
            <Time>2022-09-21T11:34:03.000Z</Time>
            <Position>
              <LatitudeDegrees>49.41640667617321014404296875</LatitudeDegrees>
              <LongitudeDegrees>20.44678844511508941650390625</LongitudeDegrees>
            </Position>
            <AltitudeMeters>458.79998779296875</AltitudeMeters>
            <DistanceMeters>NAN</DistanceMeters>
          </Trackpoint>
          <Trackpoint>
            <Time>2022-09-21T11:34:04.000Z</Time>
            <Position>
              <LatitudeDegrees>49.41642947494983673095703125</LatitudeDegrees>
              <LongitudeDegrees>20.4468010179698467254638671875</LongitudeDegrees>
            </Position>
            <AltitudeMeters>458.79998779296875</AltitudeMeters>
            <DistanceMeters>NAN</DistanceMeters>
          </Trackpoint>
          <Trackpoint>
            <Time>2022-09-21T11:34:05.000Z</Time>
            <Position>
              <LatitudeDegrees>49.4164688698947429656982421875</LatitudeDegrees>
              <LongitudeDegrees>20.44680462218821048736572265625</LongitudeDegrees>
            </Position>
            <AltitudeMeters>459</AltitudeMeters>
            <DistanceMeters>NAN</DistanceMeters>
          </Trackpoint>
          <Trackpoint>
            <Time>2022-09-21T11:34:06.000Z</Time>
            <Position>
              <LatitudeDegrees>49.41648982465267181396484375</LatitudeDegrees>
              <LongitudeDegrees>20.4468080587685108184814453125</LongitudeDegrees>
            </Position>
            <AltitudeMeters>459.20001220703125</AltitudeMeters>
            <DistanceMeters>NAN</DistanceMeters>
          </Trackpoint>
          <Trackpoint>
            <Time>2022-09-21T11:34:08.000Z</Time>
            <Position>
              <LatitudeDegrees>49.41655076108872890472412109375</LatitudeDegrees>
              <LongitudeDegrees>20.44685726054012775421142578125</LongitudeDegrees>
            </Position>
            <AltitudeMeters>459.20001220703125</AltitudeMeters>
            <DistanceMeters>NAN</DistanceMeters>
          </Trackpoint>
          <Trackpoint>
            <Time>2022-09-21T11:34:09.000Z</Time>
            <Position>
              <LatitudeDegrees>49.4165429659187793731689453125</LatitudeDegrees>
              <LongitudeDegrees>20.44693772681057453155517578125</LongitudeDegrees>
            </Position>
            <AltitudeMeters>459.399993896484375</AltitudeMeters>
            <DistanceMeters>NAN</DistanceMeters>
          </Trackpoint>
          <Trackpoint>
            <Time>2022-09-21T11:34:13.000Z</Time>
            <Position>
              <LatitudeDegrees>49.41658780910074710845947265625</LatitudeDegrees>
              <LongitudeDegrees>20.4471228830516338348388671875</LongitudeDegrees>
            </Position>
            <AltitudeMeters>459.600006103515625</AltitudeMeters>
            <DistanceMeters>NAN</DistanceMeters>
          </Trackpoint>
          <Trackpoint>
            <Time>2022-09-21T11:34:18.000Z</Time>
            <Position>
              <LatitudeDegrees>49.41663390956819057464599609375</LatitudeDegrees>
              <LongitudeDegrees>20.44729982502758502960205078125</LongitudeDegrees>
            </Position>
            <AltitudeMeters>459.399993896484375</AltitudeMeters>
            <DistanceMeters>NAN</DistanceMeters>
          </Trackpoint>
          <Trackpoint>
            <Time>2022-09-21T11:34:20.000Z</Time>
            <Position>
              <LatitudeDegrees>49.41661991178989410400390625</LatitudeDegrees>
              <LongitudeDegrees>20.44738515280187129974365234375</LongitudeDegrees>
            </Position>
            <AltitudeMeters>459.399993896484375</AltitudeMeters>
            <DistanceMeters>NAN</DistanceMeters>
          </Trackpoint>
          <Trackpoint>
            <Time>2022-09-21T11:34:21.000Z</Time>
            <Position>
              <LatitudeDegrees>49.41663424484431743621826171875</LatitudeDegrees>
              <LongitudeDegrees>20.44742052443325519561767578125</LongitudeDegrees>
            </Position>
            <AltitudeMeters>459.399993896484375</AltitudeMeters>
            <DistanceMeters>NAN</DistanceMeters>
          </Trackpoint>
          <Trackpoint>
            <Time>2022-09-21T11:34:27.000Z</Time>
            <Position>
              <LatitudeDegrees>49.41672024317085742950439453125</LatitudeDegrees>
              <LongitudeDegrees>20.4477397911250591278076171875</LongitudeDegrees>
            </Position>
            <AltitudeMeters>459.600006103515625</AltitudeMeters>
            <DistanceMeters>NAN</DistanceMeters>
          </Trackpoint>
          <Trackpoint>
            <Time>2022-09-21T11:34:33.000Z</Time>
            <Position>
              <LatitudeDegrees>49.416735582053661346435546875</LatitudeDegrees>
              <LongitudeDegrees>20.448060818016529083251953125</LongitudeDegrees>
            </Position>
            <AltitudeMeters>459.79998779296875</AltitudeMeters>
            <DistanceMeters>NAN</DistanceMeters>
          </Trackpoint>
          <Trackpoint>
            <Time>2022-09-21T11:34:37.000Z</Time>
            <Position>
              <LatitudeDegrees>49.41674404777586460113525390625</LatitudeDegrees>
              <LongitudeDegrees>20.44820440001785755157470703125</LongitudeDegrees>
            </Position>
            <AltitudeMeters>459.79998779296875</AltitudeMeters>
            <DistanceMeters>NAN</DistanceMeters>
          </Trackpoint>
          <Trackpoint>
            <Time>2022-09-21T11:34:43.000Z</Time>
            <Position>
              <LatitudeDegrees>49.41673248074948787689208984375</LatitudeDegrees>
              <LongitudeDegrees>20.44848226010799407958984375</LongitudeDegrees>
            </Position>
            <AltitudeMeters>459.79998779296875</AltitudeMeters>
            <DistanceMeters>NAN</DistanceMeters>
          </Trackpoint>
          <Trackpoint>
            <Time>2022-09-21T11:34:46.000Z</Time>
            <Position>
              <LatitudeDegrees>49.41670431755483150482177734375</LatitudeDegrees>
              <LongitudeDegrees>20.44863774441182613372802734375</LongitudeDegrees>
            </Position>
            <AltitudeMeters>460</AltitudeMeters>
            <DistanceMeters>NAN</DistanceMeters>
          </Trackpoint>
          <Trackpoint>
            <Time>2022-09-21T11:34:47.000Z</Time>
            <Position>
              <LatitudeDegrees>49.4166951812803745269775390625</LatitudeDegrees>
              <LongitudeDegrees>20.44867965392768383026123046875</LongitudeDegrees>
            </Position>
            <AltitudeMeters>460</AltitudeMeters>
            <DistanceMeters>NAN</DistanceMeters>
          </Trackpoint>
          <Trackpoint>
            <Time>2022-09-21T11:34:52.000Z</Time>
            <Position>
              <LatitudeDegrees>49.41666190512478351593017578125</LatitudeDegrees>
              <LongitudeDegrees>20.4488824121654033660888671875</LongitudeDegrees>
            </Position>
            <AltitudeMeters>460</AltitudeMeters>
            <DistanceMeters>NAN</DistanceMeters>
          </Trackpoint>
          <Trackpoint>
            <Time>2022-09-21T11:34:59.000Z</Time>
            <Position>
              <LatitudeDegrees>49.4166163913905620574951171875</LatitudeDegrees>
              <LongitudeDegrees>20.4491762816905975341796875</LongitudeDegrees>
            </Position>
            <AltitudeMeters>460.20001220703125</AltitudeMeters>
            <DistanceMeters>NAN</DistanceMeters>
          </Trackpoint>
          <Trackpoint>
            <Time>2022-09-21T11:35:05.000Z</Time>
            <Position>
              <LatitudeDegrees>49.4165717996656894683837890625</LatitudeDegrees>
              <LongitudeDegrees>20.44948163442313671112060546875</LongitudeDegrees>
            </Position>
            <AltitudeMeters>460</AltitudeMeters>
            <DistanceMeters>NAN</DistanceMeters>
          </Trackpoint>
          <Trackpoint>
            <Time>2022-09-21T11:35:13.000Z</Time>
            <Position>
              <LatitudeDegrees>49.41653969697654247283935546875</LatitudeDegrees>
              <LongitudeDegrees>20.44990642927587032318115234375</LongitudeDegrees>
            </Position>
            <AltitudeMeters>460.20001220703125</AltitudeMeters>
            <DistanceMeters>NAN</DistanceMeters>
          </Trackpoint>
          <Trackpoint>
            <Time>2022-09-21T11:35:18.000Z</Time>
            <Position>
              <LatitudeDegrees>49.41653466783463954925537109375</LatitudeDegrees>
              <LongitudeDegrees>20.45008546672761440277099609375</LongitudeDegrees>
            </Position>
            <AltitudeMeters>460</AltitudeMeters>
            <DistanceMeters>NAN</DistanceMeters>
          </Trackpoint>
          <Trackpoint>
            <Time>2022-09-21T11:35:19.000Z</Time>
            <Position>
              <LatitudeDegrees>49.41654019989073276519775390625</LatitudeDegrees>
              <LongitudeDegrees>20.45012067072093486785888671875</LongitudeDegrees>
            </Position>
            <AltitudeMeters>460</AltitudeMeters>
            <DistanceMeters>NAN</DistanceMeters>
          </Trackpoint>
          <Trackpoint>
            <Time>2022-09-21T11:35:22.000Z</Time>
            <Position>
              <LatitudeDegrees>49.4165888987481594085693359375</LatitudeDegrees>
              <LongitudeDegrees>20.450253523886203765869140625</LongitudeDegrees>
            </Position>
            <AltitudeMeters>459.79998779296875</AltitudeMeters>
            <DistanceMeters>NAN</DistanceMeters>
          </Trackpoint>
          <Trackpoint>
            <Time>2022-09-21T11:35:28.000Z</Time>
            <Position>
              <LatitudeDegrees>49.41666894592344760894775390625</LatitudeDegrees>
              <LongitudeDegrees>20.4505209065973758697509765625</LongitudeDegrees>
            </Position>
            <AltitudeMeters>459.600006103515625</AltitudeMeters>
            <DistanceMeters>NAN</DistanceMeters>
          </Trackpoint>
          <Trackpoint>
            <Time>2022-09-21T11:35:37.000Z</Time>
            <Position>
              <LatitudeDegrees>49.41684429533779621124267578125</LatitudeDegrees>
              <LongitudeDegrees>20.45097596012055873870849609375</LongitudeDegrees>
            </Position>
            <AltitudeMeters>459</AltitudeMeters>
            <DistanceMeters>NAN</DistanceMeters>
          </Trackpoint>
          <Trackpoint>
            <Time>2022-09-21T11:35:41.000Z</Time>
            <Position>
              <LatitudeDegrees>49.41692291758954524993896484375</LatitudeDegrees>
              <LongitudeDegrees>20.4511906206607818603515625</LongitudeDegrees>
            </Position>
            <AltitudeMeters>459</AltitudeMeters>
            <DistanceMeters>NAN</DistanceMeters>
          </Trackpoint>
          <Trackpoint>
            <Time>2022-09-21T11:35:44.000Z</Time>
            <Position>
              <LatitudeDegrees>49.41696717403829097747802734375</LatitudeDegrees>
              <LongitudeDegrees>20.45139656402170658111572265625</LongitudeDegrees>
            </Position>
            <AltitudeMeters>458.79998779296875</AltitudeMeters>
            <DistanceMeters>NAN</DistanceMeters>
          </Trackpoint>
          <Trackpoint>
            <Time>2022-09-21T11:35:46.000Z</Time>
            <Position>
              <LatitudeDegrees>49.41695678047835826873779296875</LatitudeDegrees>
              <LongitudeDegrees>20.4515285789966583251953125</LongitudeDegrees>
            </Position>
            <AltitudeMeters>458.600006103515625</AltitudeMeters>
            <DistanceMeters>NAN</DistanceMeters>
          </Trackpoint>
          <Trackpoint>
            <Time>2022-09-21T11:35:48.000Z</Time>
            <Position>
              <LatitudeDegrees>49.41694605164229869842529296875</LatitudeDegrees>
              <LongitudeDegrees>20.4516507871448993682861328125</LongitudeDegrees>
            </Position>
            <AltitudeMeters>458.600006103515625</AltitudeMeters>
            <DistanceMeters>NAN</DistanceMeters>
          </Trackpoint>
          <Trackpoint>
            <Time>2022-09-21T11:35:51.000Z</Time>
            <Position>
              <LatitudeDegrees>49.416950829327106475830078125</LatitudeDegrees>
              <LongitudeDegrees>20.45179269276559352874755859375</LongitudeDegrees>
            </Position>
            <AltitudeMeters>458.600006103515625</AltitudeMeters>
            <DistanceMeters>NAN</DistanceMeters>
          </Trackpoint>
          <Trackpoint>
            <Time>2022-09-21T11:35:56.000Z</Time>
            <Position>
              <LatitudeDegrees>49.4170405156910419464111328125</LatitudeDegrees>
              <LongitudeDegrees>20.45202051289379596710205078125</LongitudeDegrees>
            </Position>
            <AltitudeMeters>458.600006103515625</AltitudeMeters>
            <DistanceMeters>NAN</DistanceMeters>
          </Trackpoint>
          <Trackpoint>
            <Time>2022-09-21T11:36:02.000Z</Time>
            <Position>
              <LatitudeDegrees>49.41717286594212055206298828125</LatitudeDegrees>
              <LongitudeDegrees>20.45228957198560237884521484375</LongitudeDegrees>
            </Position>
            <AltitudeMeters>458.399993896484375</AltitudeMeters>
            <DistanceMeters>NAN</DistanceMeters>
          </Trackpoint>
          <Trackpoint>
            <Time>2022-09-21T11:36:05.000Z</Time>
            <Position>
              <LatitudeDegrees>49.417216368019580841064453125</LatitudeDegrees>
              <LongitudeDegrees>20.4524075053632259368896484375</LongitudeDegrees>
            </Position>
            <AltitudeMeters>458.399993896484375</AltitudeMeters>
            <DistanceMeters>NAN</DistanceMeters>
          </Trackpoint>
          <Trackpoint>
            <Time>2022-09-21T11:36:11.000Z</Time>
            <Position>
              <LatitudeDegrees>49.41727713681757450103759765625</LatitudeDegrees>
              <LongitudeDegrees>20.4527176357805728912353515625</LongitudeDegrees>
            </Position>
            <AltitudeMeters>458.399993896484375</AltitudeMeters>
            <DistanceMeters>NAN</DistanceMeters>
          </Trackpoint>
          <Trackpoint>
            <Time>2022-09-21T11:36:16.000Z</Time>
            <Position>
              <LatitudeDegrees>49.41731435246765613555908203125</LatitudeDegrees>
              <LongitudeDegrees>20.4529650695621967315673828125</LongitudeDegrees>
            </Position>
            <AltitudeMeters>458.20001220703125</AltitudeMeters>
            <DistanceMeters>NAN</DistanceMeters>
          </Trackpoint>
          <Trackpoint>
            <Time>2022-09-21T11:36:18.000Z</Time>
            <Position>
              <LatitudeDegrees>49.41733228974044322967529296875</LatitudeDegrees>
              <LongitudeDegrees>20.45305836014449596405029296875</LongitudeDegrees>
            </Position>
            <AltitudeMeters>458.20001220703125</AltitudeMeters>
            <DistanceMeters>NAN</DistanceMeters>
          </Trackpoint>
          <Trackpoint>
            <Time>2022-09-21T11:36:24.000Z</Time>
            <Position>
              <LatitudeDegrees>49.4173751212656497955322265625</LatitudeDegrees>
              <LongitudeDegrees>20.45331417582929134368896484375</LongitudeDegrees>
            </Position>
            <AltitudeMeters>458.20001220703125</AltitudeMeters>
            <DistanceMeters>NAN</DistanceMeters>
          </Trackpoint>
          <Trackpoint>
            <Time>2022-09-21T11:36:29.000Z</Time>
            <Position>
              <LatitudeDegrees>49.417405463755130767822265625</LatitudeDegrees>
              <LongitudeDegrees>20.4535397328436374664306640625</LongitudeDegrees>
            </Position>
            <AltitudeMeters>458.20001220703125</AltitudeMeters>
            <DistanceMeters>NAN</DistanceMeters>
          </Trackpoint>
          <Trackpoint>
            <Time>2022-09-21T11:36:30.000Z</Time>
            <Position>
              <LatitudeDegrees>49.4174150191247463226318359375</LatitudeDegrees>
              <LongitudeDegrees>20.4535839892923831939697265625</LongitudeDegrees>
            </Position>
            <AltitudeMeters>458.399993896484375</AltitudeMeters>
            <DistanceMeters>NAN</DistanceMeters>
          </Trackpoint>
          <Trackpoint>
            <Time>2022-09-21T11:36:36.000Z</Time>
            <Position>
              <LatitudeDegrees>49.41748559474945068359375</LatitudeDegrees>
              <LongitudeDegrees>20.45381356962025165557861328125</LongitudeDegrees>
            </Position>
            <AltitudeMeters>458.399993896484375</AltitudeMeters>
            <DistanceMeters>NAN</DistanceMeters>
          </Trackpoint>
          <Trackpoint>
            <Time>2022-09-21T11:36:43.000Z</Time>
            <Position>
              <LatitudeDegrees>49.41758240573108196258544921875</LatitudeDegrees>
              <LongitudeDegrees>20.45412965118885040283203125</LongitudeDegrees>
            </Position>
            <AltitudeMeters>458.20001220703125</AltitudeMeters>
            <DistanceMeters>NAN</DistanceMeters>
          </Trackpoint>
          <Trackpoint>
            <Time>2022-09-21T11:36:46.000Z</Time>
            <Position>
              <LatitudeDegrees>49.41763437353074550628662109375</LatitudeDegrees>
              <LongitudeDegrees>20.45429435558617115020751953125</LongitudeDegrees>
            </Position>
            <AltitudeMeters>458.20001220703125</AltitudeMeters>
            <DistanceMeters>NAN</DistanceMeters>
          </Trackpoint>
          <Trackpoint>
            <Time>2022-09-21T11:36:50.000Z</Time>
            <Position>
              <LatitudeDegrees>49.4177177734673023223876953125</LatitudeDegrees>
              <LongitudeDegrees>20.45448638498783111572265625</LongitudeDegrees>
            </Position>
            <AltitudeMeters>458.20001220703125</AltitudeMeters>
            <DistanceMeters>NAN</DistanceMeters>
          </Trackpoint>
          <Trackpoint>
            <Time>2022-09-21T11:36:55.000Z</Time>
            <Position>
              <LatitudeDegrees>49.41779698245227336883544921875</LatitudeDegrees>
              <LongitudeDegrees>20.4546773247420787811279296875</LongitudeDegrees>
            </Position>
            <AltitudeMeters>458.20001220703125</AltitudeMeters>
            <DistanceMeters>NAN</DistanceMeters>
          </Trackpoint>
          <Trackpoint>
            <Time>2022-09-21T11:37:01.000Z</Time>
            <Position>
              <LatitudeDegrees>49.41787979565560817718505859375</LatitudeDegrees>
              <LongitudeDegrees>20.4549618065357208251953125</LongitudeDegrees>
            </Position>
            <AltitudeMeters>458</AltitudeMeters>
            <DistanceMeters>NAN</DistanceMeters>
          </Trackpoint>
          <Trackpoint>
            <Time>2022-09-21T11:37:08.000Z</Time>
            <Position>
              <LatitudeDegrees>49.41800585947930812835693359375</LatitudeDegrees>
              <LongitudeDegrees>20.45522608794271945953369140625</LongitudeDegrees>
            </Position>
            <AltitudeMeters>458</AltitudeMeters>
            <DistanceMeters>NAN</DistanceMeters>
          </Trackpoint>
          <Trackpoint>
            <Time>2022-09-21T11:37:12.000Z</Time>
            <Position>
              <LatitudeDegrees>49.41809454001486301422119140625</LatitudeDegrees>
              <LongitudeDegrees>20.4553723521530628204345703125</LongitudeDegrees>
            </Position>
            <AltitudeMeters>458</AltitudeMeters>
            <DistanceMeters>NAN</DistanceMeters>
          </Trackpoint>
          <Trackpoint>
            <Time>2022-09-21T11:37:16.000Z</Time>
            <Position>
              <LatitudeDegrees>49.4181532971560955047607421875</LatitudeDegrees>
              <LongitudeDegrees>20.45556128025054931640625</LongitudeDegrees>
            </Position>
            <AltitudeMeters>457.79998779296875</AltitudeMeters>
            <DistanceMeters>NAN</DistanceMeters>
          </Trackpoint>
          <Trackpoint>
            <Time>2022-09-21T11:37:22.000Z</Time>
            <Position>
              <LatitudeDegrees>49.418252371251583099365234375</LatitudeDegrees>
              <LongitudeDegrees>20.45575029216706752777099609375</LongitudeDegrees>
            </Position>
            <AltitudeMeters>457.79998779296875</AltitudeMeters>
            <DistanceMeters>NAN</DistanceMeters>
          </Trackpoint>
          <Trackpoint>
            <Time>2022-09-21T11:37:32.000Z</Time>
            <Position>
              <LatitudeDegrees>49.41844020970165729522705078125</LatitudeDegrees>
              <LongitudeDegrees>20.45609168708324432373046875</LongitudeDegrees>
            </Position>
            <AltitudeMeters>457.20001220703125</AltitudeMeters>
            <DistanceMeters>NAN</DistanceMeters>
          </Trackpoint>
          <Trackpoint>
            <Time>2022-09-21T11:37:41.000Z</Time>
            <Position>
              <LatitudeDegrees>49.4186515174806118011474609375</LatitudeDegrees>
              <LongitudeDegrees>20.4563848860561847686767578125</LongitudeDegrees>
            </Position>
            <AltitudeMeters>456.79998779296875</AltitudeMeters>
            <DistanceMeters>NAN</DistanceMeters>
          </Trackpoint>
          <Trackpoint>
            <Time>2022-09-21T11:37:42.000Z</Time>
            <Position>
              <LatitudeDegrees>49.4186863861978054046630859375</LatitudeDegrees>
              <LongitudeDegrees>20.45642159879207611083984375</LongitudeDegrees>
            </Position>
            <AltitudeMeters>456.79998779296875</AltitudeMeters>
            <DistanceMeters>NAN</DistanceMeters>
          </Trackpoint>
          <Trackpoint>
            <Time>2022-09-21T11:37:50.000Z</Time>
            <Position>
              <LatitudeDegrees>49.4189123623073101043701171875</LatitudeDegrees>
              <LongitudeDegrees>20.45664145611226558685302734375</LongitudeDegrees>
            </Position>
            <AltitudeMeters>456.600006103515625</AltitudeMeters>
            <DistanceMeters>NAN</DistanceMeters>
          </Trackpoint>
          <Trackpoint>
            <Time>2022-09-21T11:37:56.000Z</Time>
            <Position>
              <LatitudeDegrees>49.41903792321681976318359375</LatitudeDegrees>
              <LongitudeDegrees>20.45683465898036956787109375</LongitudeDegrees>
            </Position>
            <AltitudeMeters>456.600006103515625</AltitudeMeters>
            <DistanceMeters>NAN</DistanceMeters>
          </Trackpoint>
          <Trackpoint>
            <Time>2022-09-21T11:38:06.000Z</Time>
            <Position>
              <LatitudeDegrees>49.4193247519433498382568359375</LatitudeDegrees>
              <LongitudeDegrees>20.4572063125669956207275390625</LongitudeDegrees>
            </Position>
            <AltitudeMeters>456.600006103515625</AltitudeMeters>
            <DistanceMeters>NAN</DistanceMeters>
          </Trackpoint>
          <Trackpoint>
            <Time>2022-09-21T11:38:07.000Z</Time>
            <Position>
              <LatitudeDegrees>49.41935065202414989471435546875</LatitudeDegrees>
              <LongitudeDegrees>20.45724260620772838592529296875</LongitudeDegrees>
            </Position>
            <AltitudeMeters>456.600006103515625</AltitudeMeters>
            <DistanceMeters>NAN</DistanceMeters>
          </Trackpoint>
          <Trackpoint>
            <Time>2022-09-21T11:38:14.000Z</Time>
            <Position>
              <LatitudeDegrees>49.4195182062685489654541015625</LatitudeDegrees>
              <LongitudeDegrees>20.45747864060103893280029296875</LongitudeDegrees>
            </Position>
            <AltitudeMeters>456.20001220703125</AltitudeMeters>
            <DistanceMeters>NAN</DistanceMeters>
          </Trackpoint>
          <Trackpoint>
            <Time>2022-09-21T11:38:21.000Z</Time>
            <Position>
              <LatitudeDegrees>49.41969615407288074493408203125</LatitudeDegrees>
              <LongitudeDegrees>20.457715094089508056640625</LongitudeDegrees>
            </Position>
            <AltitudeMeters>456.20001220703125</AltitudeMeters>
            <DistanceMeters>NAN</DistanceMeters>
          </Trackpoint>
          <Trackpoint>
            <Time>2022-09-21T11:38:31.000Z</Time>
            <Position>
              <LatitudeDegrees>49.4199704937636852264404296875</LatitudeDegrees>
              <LongitudeDegrees>20.45801642350852489471435546875</LongitudeDegrees>
            </Position>
            <AltitudeMeters>456</AltitudeMeters>
            <DistanceMeters>NAN</DistanceMeters>
          </Trackpoint>
          <Trackpoint>
            <Time>2022-09-21T11:38:33.000Z</Time>
            <Position>
              <LatitudeDegrees>49.42003847099840641021728515625</LatitudeDegrees>
              <LongitudeDegrees>20.4580636136233806610107421875</LongitudeDegrees>
            </Position>
            <AltitudeMeters>456</AltitudeMeters>
            <DistanceMeters>NAN</DistanceMeters>
          </Trackpoint>
          <Trackpoint>
            <Time>2022-09-21T11:38:38.000Z</Time>
            <Position>
              <LatitudeDegrees>49.42018247209489345550537109375</LatitudeDegrees>
              <LongitudeDegrees>20.458192192018032073974609375</LongitudeDegrees>
            </Position>
            <AltitudeMeters>455.79998779296875</AltitudeMeters>
            <DistanceMeters>NAN</DistanceMeters>
          </Trackpoint>
          <Trackpoint>
            <Time>2022-09-21T11:38:40.000Z</Time>
            <Position>
              <LatitudeDegrees>49.42024148069322109222412109375</LatitudeDegrees>
              <LongitudeDegrees>20.4582389630377292633056640625</LongitudeDegrees>
            </Position>
            <AltitudeMeters>455.79998779296875</AltitudeMeters>
            <DistanceMeters>NAN</DistanceMeters>
          </Trackpoint>
          <Trackpoint>
            <Time>2022-09-21T11:38:45.000Z</Time>
            <Position>
              <LatitudeDegrees>49.4203761778771877288818359375</LatitudeDegrees>
              <LongitudeDegrees>20.4583227820694446563720703125</LongitudeDegrees>
            </Position>
            <AltitudeMeters>455.600006103515625</AltitudeMeters>
            <DistanceMeters>NAN</DistanceMeters>
          </Trackpoint>
          <Trackpoint>
            <Time>2022-09-21T11:38:47.000Z</Time>
            <Position>
              <LatitudeDegrees>49.4204257987439632415771484375</LatitudeDegrees>
              <LongitudeDegrees>20.4583559744060039520263671875</LongitudeDegrees>
            </Position>
            <AltitudeMeters>455.600006103515625</AltitudeMeters>
            <DistanceMeters>NAN</DistanceMeters>
          </Trackpoint>
          <Trackpoint>
            <Time>2022-09-21T11:38:55.000Z</Time>
            <Position>
              <LatitudeDegrees>49.42059871740639209747314453125</LatitudeDegrees>
              <LongitudeDegrees>20.4584840498864650726318359375</LongitudeDegrees>
            </Position>
            <AltitudeMeters>455.600006103515625</AltitudeMeters>
            <DistanceMeters>NAN</DistanceMeters>
          </Trackpoint>
          <Trackpoint>
            <Time>2022-09-21T11:39:02.000Z</Time>
            <Position>
              <LatitudeDegrees>49.4207469932734966278076171875</LatitudeDegrees>
              <LongitudeDegrees>20.45859745703637599945068359375</LongitudeDegrees>
            </Position>
            <AltitudeMeters>455.600006103515625</AltitudeMeters>
            <DistanceMeters>NAN</DistanceMeters>
          </Trackpoint>
          <Trackpoint>
            <Time>2022-09-21T11:39:10.000Z</Time>
            <Position>
              <LatitudeDegrees>49.420925192534923553466796875</LatitudeDegrees>
              <LongitudeDegrees>20.45871664769947528839111328125</LongitudeDegrees>
            </Position>
            <AltitudeMeters>455.600006103515625</AltitudeMeters>
            <DistanceMeters>NAN</DistanceMeters>
          </Trackpoint>
          <Trackpoint>
            <Time>2022-09-21T11:39:17.000Z</Time>
            <Position>
              <LatitudeDegrees>49.42112292163074016571044921875</LatitudeDegrees>
              <LongitudeDegrees>20.45883332379162311553955078125</LongitudeDegrees>
            </Position>
            <AltitudeMeters>455.600006103515625</AltitudeMeters>
            <DistanceMeters>NAN</DistanceMeters>
          </Trackpoint>
          <Trackpoint>
            <Time>2022-09-21T11:39:26.000Z</Time>
            <Position>
              <LatitudeDegrees>49.42136742174625396728515625</LatitudeDegrees>
              <LongitudeDegrees>20.45891613699495792388916015625</LongitudeDegrees>
            </Position>
            <AltitudeMeters>455.600006103515625</AltitudeMeters>
            <DistanceMeters>NAN</DistanceMeters>
          </Trackpoint>
          <Trackpoint>
            <Time>2022-09-21T11:39:28.000Z</Time>
            <Position>
              <LatitudeDegrees>49.42141645587980747222900390625</LatitudeDegrees>
              <LongitudeDegrees>20.45893290080130100250244140625</LongitudeDegrees>
            </Position>
            <AltitudeMeters>455.600006103515625</AltitudeMeters>
            <DistanceMeters>NAN</DistanceMeters>
          </Trackpoint>
          <Trackpoint>
            <Time>2022-09-21T11:39:31.000Z</Time>
            <Position>
              <LatitudeDegrees>49.421484768390655517578125</LatitudeDegrees>
              <LongitudeDegrees>20.4589433781802654266357421875</LongitudeDegrees>
            </Position>
            <AltitudeMeters>455.79998779296875</AltitudeMeters>
            <DistanceMeters>NAN</DistanceMeters>
          </Trackpoint>
          <Trackpoint>
            <Time>2022-09-21T11:39:33.000Z</Time>
            <Position>
              <LatitudeDegrees>49.4215288572013378143310546875</LatitudeDegrees>
              <LongitudeDegrees>20.4589588008821010589599609375</LongitudeDegrees>
            </Position>
            <AltitudeMeters>455.600006103515625</AltitudeMeters>
            <DistanceMeters>NAN</DistanceMeters>
          </Trackpoint>
          <Trackpoint>
            <Time>2022-09-21T11:39:39.000Z</Time>
            <Position>
              <LatitudeDegrees>49.42165735177695751190185546875</LatitudeDegrees>
              <LongitudeDegrees>20.4589856229722499847412109375</LongitudeDegrees>
            </Position>
            <AltitudeMeters>455.399993896484375</AltitudeMeters>
            <DistanceMeters>NAN</DistanceMeters>
          </Trackpoint>
          <Trackpoint>
            <Time>2022-09-21T11:39:41.000Z</Time>
            <Position>
              <LatitudeDegrees>49.42169540561735630035400390625</LatitudeDegrees>
              <LongitudeDegrees>20.45900993049144744873046875</LongitudeDegrees>
            </Position>
            <AltitudeMeters>455.600006103515625</AltitudeMeters>
            <DistanceMeters>NAN</DistanceMeters>
          </Trackpoint>
          <Trackpoint>
            <Time>2022-09-21T11:39:51.000Z</Time>
            <Position>
              <LatitudeDegrees>49.4219090603291988372802734375</LatitudeDegrees>
              <LongitudeDegrees>20.45907924883067607879638671875</LongitudeDegrees>
            </Position>
            <AltitudeMeters>455.600006103515625</AltitudeMeters>
            <DistanceMeters>NAN</DistanceMeters>
          </Trackpoint>
          <Trackpoint>
            <Time>2022-09-21T11:39:58.000Z</Time>
            <Position>
              <LatitudeDegrees>49.4220549054443836212158203125</LatitudeDegrees>
              <LongitudeDegrees>20.45912551693618297576904296875</LongitudeDegrees>
            </Position>
            <AltitudeMeters>455.600006103515625</AltitudeMeters>
            <DistanceMeters>NAN</DistanceMeters>
          </Trackpoint>
          <Trackpoint>
            <Time>2022-09-21T11:40:04.000Z</Time>
            <Position>
              <LatitudeDegrees>49.422172419726848602294921875</LatitudeDegrees>
              <LongitudeDegrees>20.4591656662523746490478515625</LongitudeDegrees>
            </Position>
            <AltitudeMeters>455.399993896484375</AltitudeMeters>
            <DistanceMeters>NAN</DistanceMeters>
          </Trackpoint>
          <Trackpoint>
            <Time>2022-09-21T11:40:11.000Z</Time>
            <Position>
              <LatitudeDegrees>49.4222718290984630584716796875</LatitudeDegrees>
              <LongitudeDegrees>20.4592397622764110565185546875</LongitudeDegrees>
            </Position>
            <AltitudeMeters>455.399993896484375</AltitudeMeters>
            <DistanceMeters>NAN</DistanceMeters>
          </Trackpoint>
          <Trackpoint>
            <Time>2022-09-21T11:40:16.000Z</Time>
            <Position>
              <LatitudeDegrees>49.42228230647742748260498046875</LatitudeDegrees>
              <LongitudeDegrees>20.4592582024633884429931640625</LongitudeDegrees>
            </Position>
            <AltitudeMeters>455.20001220703125</AltitudeMeters>
            <DistanceMeters>NAN</DistanceMeters>
          </Trackpoint>
          <Trackpoint>
            <Time>2022-09-21T11:40:23.000Z</Time>
            <Position>
              <LatitudeDegrees>49.4222899340093135833740234375</LatitudeDegrees>
              <LongitudeDegrees>20.45927387662231922149658203125</LongitudeDegrees>
            </Position>
            <AltitudeMeters>455.20001220703125</AltitudeMeters>
            <DistanceMeters>NAN</DistanceMeters>
          </Trackpoint>
          <Trackpoint>
            <Time>2022-09-21T11:40:25.000Z</Time>
            <Position>
              <LatitudeDegrees>49.4222939573228359222412109375</LatitudeDegrees>
              <LongitudeDegrees>20.45927320607006549835205078125</LongitudeDegrees>
            </Position>
            <AltitudeMeters>455.20001220703125</AltitudeMeters>
            <DistanceMeters>NAN</DistanceMeters>
          </Trackpoint>
          <Trackpoint>
            <Time>2022-09-21T11:40:28.000Z</Time>
            <Position>
              <LatitudeDegrees>49.4222939573228359222412109375</LatitudeDegrees>
              <LongitudeDegrees>20.45927320607006549835205078125</LongitudeDegrees>
            </Position>
            <AltitudeMeters>455.20001220703125</AltitudeMeters>
            <DistanceMeters>NAN</DistanceMeters>
          </Trackpoint>
          <Trackpoint>
            <Time>2022-09-21T11:40:31.000Z</Time>
            <Position>
              <LatitudeDegrees>49.4222939573228359222412109375</LatitudeDegrees>
              <LongitudeDegrees>20.45927320607006549835205078125</LongitudeDegrees>
            </Position>
            <AltitudeMeters>455.20001220703125</AltitudeMeters>
            <DistanceMeters>NAN</DistanceMeters>
          </Trackpoint>
          <Trackpoint>
            <Time>2022-09-21T11:40:57.000Z</Time>
            <Position>
              <LatitudeDegrees>49.42228205502033233642578125</LatitudeDegrees>
              <LongitudeDegrees>20.4592863656580448150634765625</LongitudeDegrees>
            </Position>
            <AltitudeMeters>455.20001220703125</AltitudeMeters>
            <DistanceMeters>NAN</DistanceMeters>
          </Trackpoint>
          <Trackpoint>
            <Time>2022-09-21T11:41:39.000Z</Time>
            <Position>
              <LatitudeDegrees>49.42229353822767734527587890625</LatitudeDegrees>
              <LongitudeDegrees>20.45927789993584156036376953125</LongitudeDegrees>
            </Position>
            <AltitudeMeters>455.20001220703125</AltitudeMeters>
            <DistanceMeters>NAN</DistanceMeters>
          </Trackpoint>
          <Trackpoint>
            <Time>2022-09-21T11:41:48.000Z</Time>
            <Position>
              <LatitudeDegrees>49.42229278385639190673828125</LatitudeDegrees>
              <LongitudeDegrees>20.4592774808406829833984375</LongitudeDegrees>
            </Position>
            <AltitudeMeters>455.20001220703125</AltitudeMeters>
            <DistanceMeters>NAN</DistanceMeters>
          </Trackpoint>
          <Trackpoint>
            <Time>2022-09-21T11:41:55.000Z</Time>
            <Position>
              <LatitudeDegrees>49.4222922809422016143798828125</LatitudeDegrees>
              <LongitudeDegrees>20.45927572064101696014404296875</LongitudeDegrees>
            </Position>
            <AltitudeMeters>455.20001220703125</AltitudeMeters>
            <DistanceMeters>NAN</DistanceMeters>
          </Trackpoint>
          <Trackpoint>
            <Time>2022-09-21T11:41:56.000Z</Time>
            <Position>
              <LatitudeDegrees>49.422292448580265045166015625</LatitudeDegrees>
              <LongitudeDegrees>20.45927538536489009857177734375</LongitudeDegrees>
            </Position>
            <AltitudeMeters>455.20001220703125</AltitudeMeters>
            <DistanceMeters>NAN</DistanceMeters>
          </Trackpoint>
          <Trackpoint>
            <Time>2022-09-21T11:42:03.000Z</Time>
            <Position>
              <LatitudeDegrees>49.42229253239929676055908203125</LatitudeDegrees>
              <LongitudeDegrees>20.4592742957174777984619140625</LongitudeDegrees>
            </Position>
            <AltitudeMeters>455.20001220703125</AltitudeMeters>
            <DistanceMeters>NAN</DistanceMeters>
          </Trackpoint>
          <Trackpoint>
            <Time>2022-09-21T11:42:07.000Z</Time>
            <Position>
              <LatitudeDegrees>49.42229353822767734527587890625</LatitudeDegrees>
              <LongitudeDegrees>20.45927186496555805206298828125</LongitudeDegrees>
            </Position>
            <AltitudeMeters>455.20001220703125</AltitudeMeters>
            <DistanceMeters>NAN</DistanceMeters>
          </Trackpoint>
          <Trackpoint>
            <Time>2022-09-21T11:42:18.000Z</Time>
            <Position>
              <LatitudeDegrees>49.42234684713184833526611328125</LatitudeDegrees>
              <LongitudeDegrees>20.45931302011013031005859375</LongitudeDegrees>
            </Position>
            <AltitudeMeters>455.20001220703125</AltitudeMeters>
            <DistanceMeters>NAN</DistanceMeters>
          </Trackpoint>
          <Trackpoint>
            <Time>2022-09-21T11:42:19.000Z</Time>
            <Position>
              <LatitudeDegrees>49.4223578274250030517578125</LatitudeDegrees>
              <LongitudeDegrees>20.45933313667774200439453125</LongitudeDegrees>
            </Position>
            <AltitudeMeters>455.20001220703125</AltitudeMeters>
            <DistanceMeters>NAN</DistanceMeters>
          </Trackpoint>
          <Trackpoint>
            <Time>2022-09-21T11:42:21.000Z</Time>
            <Position>
              <LatitudeDegrees>49.42238263785839080810546875</LatitudeDegrees>
              <LongitudeDegrees>20.4593765549361705780029296875</LongitudeDegrees>
            </Position>
            <AltitudeMeters>455</AltitudeMeters>
            <DistanceMeters>NAN</DistanceMeters>
          </Trackpoint>
          <Trackpoint>
            <Time>2022-09-21T11:42:24.000Z</Time>
            <Position>
              <LatitudeDegrees>49.42243418656289577484130859375</LatitudeDegrees>
              <LongitudeDegrees>20.4594087414443492889404296875</LongitudeDegrees>
            </Position>
            <AltitudeMeters>455</AltitudeMeters>
            <DistanceMeters>NAN</DistanceMeters>
          </Trackpoint>
          <Trackpoint>
            <Time>2022-09-21T11:42:28.000Z</Time>
            <Position>
              <LatitudeDegrees>49.42248565144836902618408203125</LatitudeDegrees>
              <LongitudeDegrees>20.4594456218183040618896484375</LongitudeDegrees>
            </Position>
            <AltitudeMeters>455</AltitudeMeters>
            <DistanceMeters>NAN</DistanceMeters>
          </Trackpoint>
          <Trackpoint>
            <Time>2022-09-21T11:42:33.000Z</Time>
            <Position>
              <LatitudeDegrees>49.422567375004291534423828125</LatitudeDegrees>
              <LongitudeDegrees>20.45949733816087245941162109375</LongitudeDegrees>
            </Position>
            <AltitudeMeters>455</AltitudeMeters>
            <DistanceMeters>NAN</DistanceMeters>
          </Trackpoint>
          <Trackpoint>
            <Time>2022-09-21T11:42:39.000Z</Time>
            <Position>
              <LatitudeDegrees>49.42267642356455326080322265625</LatitudeDegrees>
              <LongitudeDegrees>20.459601692855358123779296875</LongitudeDegrees>
            </Position>
            <AltitudeMeters>455</AltitudeMeters>
            <DistanceMeters>NAN</DistanceMeters>
          </Trackpoint>
          <Trackpoint>
            <Time>2022-09-21T11:42:44.000Z</Time>
            <Position>
              <LatitudeDegrees>49.4227573089301586151123046875</LatitudeDegrees>
              <LongitudeDegrees>20.45968324877321720123291015625</LongitudeDegrees>
            </Position>
            <AltitudeMeters>455.20001220703125</AltitudeMeters>
            <DistanceMeters>NAN</DistanceMeters>
          </Trackpoint>
          <Trackpoint>
            <Time>2022-09-21T11:42:45.000Z</Time>
            <Position>
              <LatitudeDegrees>49.4227708876132965087890625</LatitudeDegrees>
              <LongitudeDegrees>20.45970370061695575714111328125</LongitudeDegrees>
            </Position>
            <AltitudeMeters>455.20001220703125</AltitudeMeters>
            <DistanceMeters>NAN</DistanceMeters>
          </Trackpoint>
          <Trackpoint>
            <Time>2022-09-21T11:42:49.000Z</Time>
            <Position>
              <LatitudeDegrees>49.42284171469509601593017578125</LatitudeDegrees>
              <LongitudeDegrees>20.4597483761608600616455078125</LongitudeDegrees>
            </Position>
            <AltitudeMeters>455.399993896484375</AltitudeMeters>
            <DistanceMeters>NAN</DistanceMeters>
          </Trackpoint>
          <Trackpoint>
            <Time>2022-09-21T11:42:52.000Z</Time>
            <Position>
              <LatitudeDegrees>49.4228884018957614898681640625</LatitudeDegrees>
              <LongitudeDegrees>20.45980461873114109039306640625</LongitudeDegrees>
            </Position>
            <AltitudeMeters>455.399993896484375</AltitudeMeters>
            <DistanceMeters>NAN</DistanceMeters>
          </Trackpoint>
          <Trackpoint>
            <Time>2022-09-21T11:42:54.000Z</Time>
            <Position>
              <LatitudeDegrees>49.42292402498424053192138671875</LatitudeDegrees>
              <LongitudeDegrees>20.45983110554516315460205078125</LongitudeDegrees>
            </Position>
            <AltitudeMeters>455.79998779296875</AltitudeMeters>
            <DistanceMeters>NAN</DistanceMeters>
          </Trackpoint>
          <Trackpoint>
            <Time>2022-09-21T11:43:03.000Z</Time>
            <Position>
              <LatitudeDegrees>49.423101134598255157470703125</LatitudeDegrees>
              <LongitudeDegrees>20.4599579237401485443115234375</LongitudeDegrees>
            </Position>
            <AltitudeMeters>456</AltitudeMeters>
            <DistanceMeters>NAN</DistanceMeters>
          </Trackpoint>
          <Trackpoint>
            <Time>2022-09-21T11:43:10.000Z</Time>
            <Position>
              <LatitudeDegrees>49.42323784343898296356201171875</LatitudeDegrees>
              <LongitudeDegrees>20.460081808269023895263671875</LongitudeDegrees>
            </Position>
            <AltitudeMeters>456.79998779296875</AltitudeMeters>
            <DistanceMeters>NAN</DistanceMeters>
          </Trackpoint>
          <Trackpoint>
            <Time>2022-09-21T11:43:13.000Z</Time>
            <Position>
              <LatitudeDegrees>49.42328847013413906097412109375</LatitudeDegrees>
              <LongitudeDegrees>20.4601302556693553924560546875</LongitudeDegrees>
            </Position>
            <AltitudeMeters>456.79998779296875</AltitudeMeters>
            <DistanceMeters>NAN</DistanceMeters>
          </Trackpoint>
          <Trackpoint>
            <Time>2022-09-21T11:43:18.000Z</Time>
            <Position>
              <LatitudeDegrees>49.4233742170035839080810546875</LatitudeDegrees>
              <LongitudeDegrees>20.460187755525112152099609375</LongitudeDegrees>
            </Position>
            <AltitudeMeters>457</AltitudeMeters>
            <DistanceMeters>NAN</DistanceMeters>
          </Trackpoint>
          <Trackpoint>
            <Time>2022-09-21T11:43:24.000Z</Time>
            <Position>
              <LatitudeDegrees>49.4234575331211090087890625</LatitudeDegrees>
              <LongitudeDegrees>20.46022924594581127166748046875</LongitudeDegrees>
            </Position>
            <AltitudeMeters>457.399993896484375</AltitudeMeters>
            <DistanceMeters>NAN</DistanceMeters>
          </Trackpoint>
          <Trackpoint>
            <Time>2022-09-21T11:43:25.000Z</Time>
            <Position>
              <LatitudeDegrees>49.42347018979489803314208984375</LatitudeDegrees>
              <LongitudeDegrees>20.46023695729672908782958984375</LongitudeDegrees>
            </Position>
            <AltitudeMeters>457.399993896484375</AltitudeMeters>
            <DistanceMeters>NAN</DistanceMeters>
          </Trackpoint>
          <Trackpoint>
            <Time>2022-09-21T11:43:29.000Z</Time>
            <Position>
              <LatitudeDegrees>49.4235317967832088470458984375</LatitudeDegrees>
              <LongitudeDegrees>20.4602613486349582672119140625</LongitudeDegrees>
            </Position>
            <AltitudeMeters>457.399993896484375</AltitudeMeters>
            <DistanceMeters>NAN</DistanceMeters>
          </Trackpoint>
          <Trackpoint>
            <Time>2022-09-21T11:43:30.000Z</Time>
            <Position>
              <LatitudeDegrees>49.423547051846981048583984375</LatitudeDegrees>
              <LongitudeDegrees>20.4602596722543239593505859375</LongitudeDegrees>
            </Position>
            <AltitudeMeters>457.399993896484375</AltitudeMeters>
            <DistanceMeters>NAN</DistanceMeters>
          </Trackpoint>
          <Trackpoint>
            <Time>2022-09-21T11:43:34.000Z</Time>
            <Position>
              <LatitudeDegrees>49.42357697524130344390869140625</LatitudeDegrees>
              <LongitudeDegrees>20.46025313436985015869140625</LongitudeDegrees>
            </Position>
            <AltitudeMeters>457.600006103515625</AltitudeMeters>
            <DistanceMeters>NAN</DistanceMeters>
          </Trackpoint>
          <Trackpoint>
            <Time>2022-09-21T11:43:42.000Z</Time>
            <Position>
              <LatitudeDegrees>49.42357161082327365875244140625</LatitudeDegrees>
              <LongitudeDegrees>20.46025573275983333587646484375</LongitudeDegrees>
            </Position>
            <AltitudeMeters>457.399993896484375</AltitudeMeters>
            <DistanceMeters>NAN</DistanceMeters>
          </Trackpoint>
          <Trackpoint>
            <Time>2022-09-21T11:43:46.000Z</Time>
            <Position>
              <LatitudeDegrees>49.42360882647335529327392578125</LatitudeDegrees>
              <LongitudeDegrees>20.4602613486349582672119140625</LongitudeDegrees>
            </Position>
            <AltitudeMeters>457.399993896484375</AltitudeMeters>
            <DistanceMeters>NAN</DistanceMeters>
          </Trackpoint>
          <Trackpoint>
            <Time>2022-09-21T11:43:47.000Z</Time>
            <Position>
              <LatitudeDegrees>49.42362274043262004852294921875</LatitudeDegrees>
              <LongitudeDegrees>20.46025020070374011993408203125</LongitudeDegrees>
            </Position>
            <AltitudeMeters>457.600006103515625</AltitudeMeters>
            <DistanceMeters>NAN</DistanceMeters>
          </Trackpoint>
          <Trackpoint>
            <Time>2022-09-21T11:43:48.000Z</Time>
            <Position>
              <LatitudeDegrees>49.423639588057994842529296875</LatitudeDegrees>
              <LongitudeDegrees>20.46023276634514331817626953125</LongitudeDegrees>
            </Position>
            <AltitudeMeters>457.600006103515625</AltitudeMeters>
            <DistanceMeters>NAN</DistanceMeters>
          </Trackpoint>
          <Trackpoint>
            <Time>2022-09-21T11:43:51.000Z</Time>
            <Position>
              <LatitudeDegrees>49.42370421253144741058349609375</LatitudeDegrees>
              <LongitudeDegrees>20.46017794869840145111083984375</LongitudeDegrees>
            </Position>
            <AltitudeMeters>457.600006103515625</AltitudeMeters>
            <DistanceMeters>NAN</DistanceMeters>
          </Trackpoint>
          <Trackpoint>
            <Time>2022-09-21T11:43:56.000Z</Time>
            <Position>
              <LatitudeDegrees>49.4238365627825260162353515625</LatitudeDegrees>
              <LongitudeDegrees>20.460068397223949432373046875</LongitudeDegrees>
            </Position>
            <AltitudeMeters>458</AltitudeMeters>
            <DistanceMeters>NAN</DistanceMeters>
          </Trackpoint>
          <Trackpoint>
            <Time>2022-09-21T11:43:57.000Z</Time>
            <Position>
              <LatitudeDegrees>49.4238600321114063262939453125</LatitudeDegrees>
              <LongitudeDegrees>20.4600457660853862762451171875</LongitudeDegrees>
            </Position>
            <AltitudeMeters>458</AltitudeMeters>
            <DistanceMeters>NAN</DistanceMeters>
          </Trackpoint>
          <Trackpoint>
            <Time>2022-09-21T11:44:00.000Z</Time>
            <Position>
              <LatitudeDegrees>49.42391912452876567840576171875</LatitudeDegrees>
              <LongitudeDegrees>20.46000100672245025634765625</LongitudeDegrees>
            </Position>
            <AltitudeMeters>458</AltitudeMeters>
            <DistanceMeters>NAN</DistanceMeters>
          </Trackpoint>
          <Trackpoint>
            <Time>2022-09-21T11:44:06.000Z</Time>
            <Position>
              <LatitudeDegrees>49.42406647838652133941650390625</LatitudeDegrees>
              <LongitudeDegrees>20.4599160142242908477783203125</LongitudeDegrees>
            </Position>
            <AltitudeMeters>458.399993896484375</AltitudeMeters>
            <DistanceMeters>NAN</DistanceMeters>
          </Trackpoint>
          <Trackpoint>
            <Time>2022-09-21T11:44:16.000Z</Time>
            <Position>
              <LatitudeDegrees>49.4242747686803340911865234375</LatitudeDegrees>
              <LongitudeDegrees>20.45975516550242900848388671875</LongitudeDegrees>
            </Position>
            <AltitudeMeters>458.20001220703125</AltitudeMeters>
            <DistanceMeters>NAN</DistanceMeters>
          </Trackpoint>
          <Trackpoint>
            <Time>2022-09-21T11:44:22.000Z</Time>
            <Position>
              <LatitudeDegrees>49.4243896007537841796875</LatitudeDegrees>
              <LongitudeDegrees>20.45966246165335178375244140625</LongitudeDegrees>
            </Position>
            <AltitudeMeters>458.20001220703125</AltitudeMeters>
            <DistanceMeters>NAN</DistanceMeters>
          </Trackpoint>
          <Trackpoint>
            <Time>2022-09-21T11:44:24.000Z</Time>
            <Position>
              <LatitudeDegrees>49.4244296662509441375732421875</LatitudeDegrees>
              <LongitudeDegrees>20.45963195152580738067626953125</LongitudeDegrees>
            </Position>
            <AltitudeMeters>458.20001220703125</AltitudeMeters>
            <DistanceMeters>NAN</DistanceMeters>
          </Trackpoint>
          <Trackpoint>
            <Time>2022-09-21T11:44:31.000Z</Time>
            <Position>
              <LatitudeDegrees>49.424561597406864166259765625</LatitudeDegrees>
              <LongitudeDegrees>20.45952935703098773956298828125</LongitudeDegrees>
            </Position>
            <AltitudeMeters>458</AltitudeMeters>
            <DistanceMeters>NAN</DistanceMeters>
          </Trackpoint>
          <Trackpoint>
            <Time>2022-09-21T11:44:33.000Z</Time>
            <Position>
              <LatitudeDegrees>49.424601495265960693359375</LatitudeDegrees>
              <LongitudeDegrees>20.45950018800795078277587890625</LongitudeDegrees>
            </Position>
            <AltitudeMeters>458</AltitudeMeters>
            <DistanceMeters>NAN</DistanceMeters>
          </Trackpoint>
          <Trackpoint>
            <Time>2022-09-21T11:44:38.000Z</Time>
            <Position>
              <LatitudeDegrees>49.42465002648532390594482421875</LatitudeDegrees>
              <LongitudeDegrees>20.4594637267291545867919921875</LongitudeDegrees>
            </Position>
            <AltitudeMeters>458</AltitudeMeters>
            <DistanceMeters>NAN</DistanceMeters>
          </Trackpoint>
          <Trackpoint>
            <Time>2022-09-21T11:44:43.000Z</Time>
            <Position>
              <LatitudeDegrees>49.42465287633240222930908203125</LatitudeDegrees>
              <LongitudeDegrees>20.4594503156840801239013671875</LongitudeDegrees>
            </Position>
            <AltitudeMeters>458</AltitudeMeters>
            <DistanceMeters>NAN</DistanceMeters>
          </Trackpoint>
          <Trackpoint>
            <Time>2022-09-21T11:44:48.000Z</Time>
            <Position>
              <LatitudeDegrees>49.42466628737747669219970703125</LatitudeDegrees>
              <LongitudeDegrees>20.4594670794904232025146484375</LongitudeDegrees>
            </Position>
            <AltitudeMeters>458</AltitudeMeters>
            <DistanceMeters>NAN</DistanceMeters>
          </Trackpoint>
          <Trackpoint>
            <Time>2022-09-21T11:44:55.000Z</Time>
            <Position>
              <LatitudeDegrees>49.4246693886816501617431640625</LatitudeDegrees>
              <LongitudeDegrees>20.4594895429909229278564453125</LongitudeDegrees>
            </Position>
            <AltitudeMeters>458.20001220703125</AltitudeMeters>
            <DistanceMeters>NAN</DistanceMeters>
          </Trackpoint>
          <Trackpoint>
            <Time>2022-09-21T11:45:04.000Z</Time>
            <Position>
              <LatitudeDegrees>49.424672909080982208251953125</LatitudeDegrees>
              <LongitudeDegrees>20.45949230901896953582763671875</LongitudeDegrees>
            </Position>
            <AltitudeMeters>458</AltitudeMeters>
            <DistanceMeters>NAN</DistanceMeters>
          </Trackpoint>
          <Trackpoint>
            <Time>2022-09-21T11:45:09.000Z</Time>
            <Position>
              <LatitudeDegrees>49.424672909080982208251953125</LatitudeDegrees>
              <LongitudeDegrees>20.45949230901896953582763671875</LongitudeDegrees>
            </Position>
            <AltitudeMeters>458</AltitudeMeters>
            <DistanceMeters>NAN</DistanceMeters>
          </Trackpoint>
          <Trackpoint>
            <Time>2022-09-21T11:45:11.000Z</Time>
            <Position>
              <LatitudeDegrees>49.4246727414429187774658203125</LatitudeDegrees>
              <LongitudeDegrees>20.45949230901896953582763671875</LongitudeDegrees>
            </Position>
            <AltitudeMeters>458</AltitudeMeters>
            <DistanceMeters>NAN</DistanceMeters>
          </Trackpoint>
          <Trackpoint>
            <Time>2022-09-21T11:45:38.000Z</Time>
            <Position>
              <LatitudeDegrees>49.4246484339237213134765625</LatitudeDegrees>
              <LongitudeDegrees>20.459496416151523590087890625</LongitudeDegrees>
            </Position>
            <AltitudeMeters>457.79998779296875</AltitudeMeters>
            <DistanceMeters>NAN</DistanceMeters>
          </Trackpoint>
          <Trackpoint>
            <Time>2022-09-21T11:45:47.000Z</Time>
            <Position>
              <LatitudeDegrees>49.42465254105627536773681640625</LatitudeDegrees>
              <LongitudeDegrees>20.4595096595585346221923828125</LongitudeDegrees>
            </Position>
            <AltitudeMeters>457.79998779296875</AltitudeMeters>
            <DistanceMeters>NAN</DistanceMeters>
          </Trackpoint>
          <Trackpoint>
            <Time>2022-09-21T11:45:54.000Z</Time>
            <Position>
              <LatitudeDegrees>49.424652792513370513916015625</LatitudeDegrees>
              <LongitudeDegrees>20.45950991101562976837158203125</LongitudeDegrees>
            </Position>
            <AltitudeMeters>457.79998779296875</AltitudeMeters>
            <DistanceMeters>NAN</DistanceMeters>
          </Trackpoint>
          <Trackpoint>
            <Time>2022-09-21T11:46:33.000Z</Time>
            <Position>
              <LatitudeDegrees>49.42462840117514133453369140625</LatitudeDegrees>
              <LongitudeDegrees>20.4594784788787364959716796875</LongitudeDegrees>
            </Position>
            <AltitudeMeters>458</AltitudeMeters>
            <DistanceMeters>NAN</DistanceMeters>
          </Trackpoint>
          <Trackpoint>
            <Time>2022-09-21T11:46:52.000Z</Time>
            <Position>
              <LatitudeDegrees>49.42462102510035037994384765625</LatitudeDegrees>
              <LongitudeDegrees>20.4594670794904232025146484375</LongitudeDegrees>
            </Position>
            <AltitudeMeters>457.79998779296875</AltitudeMeters>
            <DistanceMeters>NAN</DistanceMeters>
          </Trackpoint>
          <Trackpoint>
            <Time>2022-09-21T11:47:03.000Z</Time>
            <Position>
              <LatitudeDegrees>49.42463058046996593475341796875</LatitudeDegrees>
              <LongitudeDegrees>20.45949365012347698211669921875</LongitudeDegrees>
            </Position>
            <AltitudeMeters>457.79998779296875</AltitudeMeters>
            <DistanceMeters>NAN</DistanceMeters>
          </Trackpoint>
          <Trackpoint>
            <Time>2022-09-21T11:47:10.000Z</Time>
            <Position>
              <LatitudeDegrees>49.42463711835443973541259765625</LatitudeDegrees>
              <LongitudeDegrees>20.45950689353048801422119140625</LongitudeDegrees>
            </Position>
            <AltitudeMeters>457.79998779296875</AltitudeMeters>
            <DistanceMeters>NAN</DistanceMeters>
          </Trackpoint>
          <Trackpoint>
            <Time>2022-09-21T11:47:25.000Z</Time>
            <Position>
              <LatitudeDegrees>49.42464047111570835113525390625</LatitudeDegrees>
              <LongitudeDegrees>20.45951058156788349151611328125</LongitudeDegrees>
            </Position>
            <AltitudeMeters>457.79998779296875</AltitudeMeters>
            <DistanceMeters>NAN</DistanceMeters>
          </Trackpoint>
          <Trackpoint>
            <Time>2022-09-21T11:47:37.000Z</Time>
            <Position>
              <LatitudeDegrees>49.424641393125057220458984375</LatitudeDegrees>
              <LongitudeDegrees>20.45950991101562976837158203125</LongitudeDegrees>
            </Position>
            <AltitudeMeters>457.79998779296875</AltitudeMeters>
            <DistanceMeters>NAN</DistanceMeters>
          </Trackpoint>
          <Trackpoint>
            <Time>2022-09-21T11:47:44.000Z</Time>
            <Position>
              <LatitudeDegrees>49.42464239895343780517578125</LatitudeDegrees>
              <LongitudeDegrees>20.45951150357723236083984375</LongitudeDegrees>
            </Position>
            <AltitudeMeters>457.79998779296875</AltitudeMeters>
            <DistanceMeters>NAN</DistanceMeters>
          </Trackpoint>
          <Trackpoint>
            <Time>2022-09-21T11:47:49.000Z</Time>
            <Position>
              <LatitudeDegrees>49.42464751191437244415283203125</LatitudeDegrees>
              <LongitudeDegrees>20.45951628126204013824462890625</LongitudeDegrees>
            </Position>
            <AltitudeMeters>457.79998779296875</AltitudeMeters>
            <DistanceMeters>NAN</DistanceMeters>
          </Trackpoint>
          <Trackpoint>
            <Time>2022-09-21T11:47:55.000Z</Time>
            <Position>
              <LatitudeDegrees>49.42464969120919704437255859375</LatitudeDegrees>
              <LongitudeDegrees>20.4595190472900867462158203125</LongitudeDegrees>
            </Position>
            <AltitudeMeters>457.79998779296875</AltitudeMeters>
            <DistanceMeters>NAN</DistanceMeters>
          </Trackpoint>
          <Trackpoint>
            <Time>2022-09-21T11:48:00.000Z</Time>
            <Position>
              <LatitudeDegrees>49.42465036176145076751708984375</LatitudeDegrees>
              <LongitudeDegrees>20.45951996929943561553955078125</LongitudeDegrees>
            </Position>
            <AltitudeMeters>457.79998779296875</AltitudeMeters>
            <DistanceMeters>NAN</DistanceMeters>
          </Trackpoint>
          <Trackpoint>
            <Time>2022-09-21T11:48:03.000Z</Time>
            <Position>
              <LatitudeDegrees>49.424649775028228759765625</LatitudeDegrees>
              <LongitudeDegrees>20.4595200531184673309326171875</LongitudeDegrees>
            </Position>
            <AltitudeMeters>457.79998779296875</AltitudeMeters>
            <DistanceMeters>NAN</DistanceMeters>
          </Trackpoint>
          <Trackpoint>
            <Time>2022-09-21T11:48:13.000Z</Time>
            <Position>
              <LatitudeDegrees>49.4246351905167102813720703125</LatitudeDegrees>
              <LongitudeDegrees>20.45951443724334239959716796875</LongitudeDegrees>
            </Position>
            <AltitudeMeters>457.79998779296875</AltitudeMeters>
            <DistanceMeters>NAN</DistanceMeters>
          </Trackpoint>
          <Trackpoint>
            <Time>2022-09-21T11:48:15.000Z</Time>
            <Position>
              <LatitudeDegrees>49.42463343031704425811767578125</LatitudeDegrees>
              <LongitudeDegrees>20.4595177061855792999267578125</LongitudeDegrees>
            </Position>
            <AltitudeMeters>457.79998779296875</AltitudeMeters>
            <DistanceMeters>NAN</DistanceMeters>
          </Trackpoint>
          <Trackpoint>
            <Time>2022-09-21T11:48:21.000Z</Time>
            <Position>
              <LatitudeDegrees>49.424629993736743927001953125</LatitudeDegrees>
              <LongitudeDegrees>20.45951460488140583038330078125</LongitudeDegrees>
            </Position>
            <AltitudeMeters>457.79998779296875</AltitudeMeters>
            <DistanceMeters>NAN</DistanceMeters>
          </Trackpoint>
          <Trackpoint>
            <Time>2022-09-21T11:48:25.000Z</Time>
            <Position>
              <LatitudeDegrees>49.42464013583958148956298828125</LatitudeDegrees>
              <LongitudeDegrees>20.4595019482076168060302734375</LongitudeDegrees>
            </Position>
            <AltitudeMeters>457.79998779296875</AltitudeMeters>
            <DistanceMeters>NAN</DistanceMeters>
          </Trackpoint>
          <Trackpoint>
            <Time>2022-09-21T11:48:30.000Z</Time>
            <Position>
              <LatitudeDegrees>49.4246472604572772979736328125</LatitudeDegrees>
              <LongitudeDegrees>20.4594871960580348968505859375</LongitudeDegrees>
            </Position>
            <AltitudeMeters>457.79998779296875</AltitudeMeters>
            <DistanceMeters>NAN</DistanceMeters>
          </Trackpoint>
          <Trackpoint>
            <Time>2022-09-21T11:48:40.000Z</Time>
            <Position>
              <LatitudeDegrees>49.42464885301887989044189453125</LatitudeDegrees>
              <LongitudeDegrees>20.459482669830322265625</LongitudeDegrees>
            </Position>
            <AltitudeMeters>457.79998779296875</AltitudeMeters>
            <DistanceMeters>NAN</DistanceMeters>
          </Trackpoint>
          <Trackpoint>
            <Time>2022-09-21T11:48:53.000Z</Time>
            <Position>
              <LatitudeDegrees>49.4246492721140384674072265625</LatitudeDegrees>
              <LongitudeDegrees>20.4594657383859157562255859375</LongitudeDegrees>
            </Position>
            <AltitudeMeters>457.79998779296875</AltitudeMeters>
            <DistanceMeters>NAN</DistanceMeters>
          </Trackpoint>
          <Trackpoint>
            <Time>2022-09-21T11:49:13.000Z</Time>
            <Position>
              <LatitudeDegrees>49.42464717663824558258056640625</LatitudeDegrees>
              <LongitudeDegrees>20.45941335149109363555908203125</LongitudeDegrees>
            </Position>
            <AltitudeMeters>457.79998779296875</AltitudeMeters>
            <DistanceMeters>NAN</DistanceMeters>
          </Trackpoint>
          <Trackpoint>
            <Time>2022-09-21T11:49:17.000Z</Time>
            <Position>
              <LatitudeDegrees>49.42464449442923069000244140625</LatitudeDegrees>
              <LongitudeDegrees>20.45941083692014217376708984375</LongitudeDegrees>
            </Position>
            <AltitudeMeters>457.79998779296875</AltitudeMeters>
            <DistanceMeters>NAN</DistanceMeters>
          </Trackpoint>
          <Trackpoint>
            <Time>2022-09-21T11:49:26.000Z</Time>
            <Position>
              <LatitudeDegrees>49.4246452488005161285400390625</LatitudeDegrees>
              <LongitudeDegrees>20.45941083692014217376708984375</LongitudeDegrees>
            </Position>
            <AltitudeMeters>457.79998779296875</AltitudeMeters>
            <DistanceMeters>NAN</DistanceMeters>
          </Trackpoint>
          <Trackpoint>
            <Time>2022-09-21T11:49:30.000Z</Time>
            <Position>
              <LatitudeDegrees>49.42464700900018215179443359375</LatitudeDegrees>
              <LongitudeDegrees>20.45941670425236225128173828125</LongitudeDegrees>
            </Position>
            <AltitudeMeters>457.79998779296875</AltitudeMeters>
            <DistanceMeters>NAN</DistanceMeters>
          </Trackpoint>
          <Trackpoint>
            <Time>2022-09-21T11:49:39.000Z</Time>
            <Position>
              <LatitudeDegrees>49.42464851774275302886962890625</LatitudeDegrees>
              <LongitudeDegrees>20.4594439454376697540283203125</LongitudeDegrees>
            </Position>
            <AltitudeMeters>457.79998779296875</AltitudeMeters>
            <DistanceMeters>NAN</DistanceMeters>
          </Trackpoint>
          <Trackpoint>
            <Time>2022-09-21T11:49:44.000Z</Time>
            <Position>
              <LatitudeDegrees>49.42465069703757762908935546875</LatitudeDegrees>
              <LongitudeDegrees>20.45945308171212673187255859375</LongitudeDegrees>
            </Position>
            <AltitudeMeters>457.79998779296875</AltitudeMeters>
            <DistanceMeters>NAN</DistanceMeters>
          </Trackpoint>
          <Trackpoint>
            <Time>2022-09-21T11:50:13.000Z</Time>
            <Position>
              <LatitudeDegrees>49.42465824075043201446533203125</LatitudeDegrees>
              <LongitudeDegrees>20.459469258785247802734375</LongitudeDegrees>
            </Position>
            <AltitudeMeters>457.79998779296875</AltitudeMeters>
            <DistanceMeters>NAN</DistanceMeters>
          </Trackpoint>
          <Trackpoint>
            <Time>2022-09-21T11:50:25.000Z</Time>
            <Position>
              <LatitudeDegrees>49.4246700592339038848876953125</LatitudeDegrees>
              <LongitudeDegrees>20.4594942368566989898681640625</LongitudeDegrees>
            </Position>
            <AltitudeMeters>457.79998779296875</AltitudeMeters>
            <DistanceMeters>NAN</DistanceMeters>
          </Trackpoint>
          <Trackpoint>
            <Time>2022-09-21T11:50:29.000Z</Time>
            <Position>
              <LatitudeDegrees>49.4246730767190456390380859375</LatitudeDegrees>
              <LongitudeDegrees>20.4595066420733928680419921875</LongitudeDegrees>
            </Position>
            <AltitudeMeters>457.79998779296875</AltitudeMeters>
            <DistanceMeters>NAN</DistanceMeters>
          </Trackpoint>
          <Trackpoint>
            <Time>2022-09-21T11:50:41.000Z</Time>
            <Position>
              <LatitudeDegrees>49.42470182664692401885986328125</LatitudeDegrees>
              <LongitudeDegrees>20.4595029540359973907470703125</LongitudeDegrees>
            </Position>
            <AltitudeMeters>457.79998779296875</AltitudeMeters>
            <DistanceMeters>NAN</DistanceMeters>
          </Trackpoint>
          <Trackpoint>
            <Time>2022-09-21T11:50:45.000Z</Time>
            <Position>
              <LatitudeDegrees>49.42471222020685672760009765625</LatitudeDegrees>
              <LongitudeDegrees>20.45948007144033908843994140625</LongitudeDegrees>
            </Position>
            <AltitudeMeters>457.79998779296875</AltitudeMeters>
            <DistanceMeters>NAN</DistanceMeters>
          </Trackpoint>
          <Trackpoint>
            <Time>2022-09-21T11:50:48.000Z</Time>
            <Position>
              <LatitudeDegrees>49.42472563125193119049072265625</LatitudeDegrees>
              <LongitudeDegrees>20.459458865225315093994140625</LongitudeDegrees>
            </Position>
            <AltitudeMeters>457.79998779296875</AltitudeMeters>
            <DistanceMeters>NAN</DistanceMeters>
          </Trackpoint>
          <Trackpoint>
            <Time>2022-09-21T11:50:53.000Z</Time>
            <Position>
              <LatitudeDegrees>49.42471976391971111297607421875</LatitudeDegrees>
              <LongitudeDegrees>20.45943598262965679168701171875</LongitudeDegrees>
            </Position>
            <AltitudeMeters>457.79998779296875</AltitudeMeters>
            <DistanceMeters>NAN</DistanceMeters>
          </Trackpoint>
          <Trackpoint>
            <Time>2022-09-21T11:50:59.000Z</Time>
            <Position>
              <LatitudeDegrees>49.4247109629213809967041015625</LatitudeDegrees>
              <LongitudeDegrees>20.45943782664835453033447265625</LongitudeDegrees>
            </Position>
            <AltitudeMeters>457.79998779296875</AltitudeMeters>
            <DistanceMeters>NAN</DistanceMeters>
          </Trackpoint>
          <Trackpoint>
            <Time>2022-09-21T11:51:11.000Z</Time>
            <Position>
              <LatitudeDegrees>49.42471507005393505096435546875</LatitudeDegrees>
              <LongitudeDegrees>20.4594357311725616455078125</LongitudeDegrees>
            </Position>
            <AltitudeMeters>457.79998779296875</AltitudeMeters>
            <DistanceMeters>NAN</DistanceMeters>
          </Trackpoint>
          <Trackpoint>
            <Time>2022-09-21T11:51:13.000Z</Time>
            <Position>
              <LatitudeDegrees>49.42471574060618877410888671875</LatitudeDegrees>
              <LongitudeDegrees>20.45943631790578365325927734375</LongitudeDegrees>
            </Position>
            <AltitudeMeters>457.79998779296875</AltitudeMeters>
            <DistanceMeters>NAN</DistanceMeters>
          </Trackpoint>
          <Trackpoint>
            <Time>2022-09-21T11:51:15.000Z</Time>
            <Position>
              <LatitudeDegrees>49.42471724934875965118408203125</LatitudeDegrees>
              <LongitudeDegrees>20.4594369046390056610107421875</LongitudeDegrees>
            </Position>
            <AltitudeMeters>457.79998779296875</AltitudeMeters>
            <DistanceMeters>NAN</DistanceMeters>
          </Trackpoint>
          <Trackpoint>
            <Time>2022-09-21T11:51:18.000Z</Time>
            <Position>
              <LatitudeDegrees>49.424717836081981658935546875</LatitudeDegrees>
              <LongitudeDegrees>20.45943849720060825347900390625</LongitudeDegrees>
            </Position>
            <AltitudeMeters>457.79998779296875</AltitudeMeters>
            <DistanceMeters>NAN</DistanceMeters>
          </Trackpoint>
          <Trackpoint>
            <Time>2022-09-21T11:51:22.000Z</Time>
            <Position>
              <LatitudeDegrees>49.42471909336745738983154296875</LatitudeDegrees>
              <LongitudeDegrees>20.45944151468575000762939453125</LongitudeDegrees>
            </Position>
            <AltitudeMeters>457.79998779296875</AltitudeMeters>
            <DistanceMeters>NAN</DistanceMeters>
          </Trackpoint>
          <Trackpoint>
            <Time>2022-09-21T11:51:31.000Z</Time>
            <Position>
              <LatitudeDegrees>49.42473434843122959136962890625</LatitudeDegrees>
              <LongitudeDegrees>20.45943103730678558349609375</LongitudeDegrees>
            </Position>
            <AltitudeMeters>457.79998779296875</AltitudeMeters>
            <DistanceMeters>NAN</DistanceMeters>
          </Trackpoint>
          <Trackpoint>
            <Time>2022-09-21T11:51:45.000Z</Time>
            <Position>
              <LatitudeDegrees>49.4247287325561046600341796875</LatitudeDegrees>
              <LongitudeDegrees>20.45949666760861873626708984375</LongitudeDegrees>
            </Position>
            <AltitudeMeters>457.79998779296875</AltitudeMeters>
            <DistanceMeters>NAN</DistanceMeters>
          </Trackpoint>
          <Trackpoint>
            <Time>2022-09-21T11:51:52.000Z</Time>
            <Position>
              <LatitudeDegrees>49.42469445057213306427001953125</LatitudeDegrees>
              <LongitudeDegrees>20.45952030457556247711181640625</LongitudeDegrees>
            </Position>
            <AltitudeMeters>457.79998779296875</AltitudeMeters>
            <DistanceMeters>NAN</DistanceMeters>
          </Trackpoint>
          <Trackpoint>
            <Time>2022-09-21T11:52:01.000Z</Time>
            <Position>
              <LatitudeDegrees>49.424700401723384857177734375</LatitudeDegrees>
              <LongitudeDegrees>20.45952181331813335418701171875</LongitudeDegrees>
            </Position>
            <AltitudeMeters>457.79998779296875</AltitudeMeters>
            <DistanceMeters>NAN</DistanceMeters>
          </Trackpoint>
          <Trackpoint>
            <Time>2022-09-21T11:52:16.000Z</Time>
            <Position>
              <LatitudeDegrees>49.42470610141754150390625</LatitudeDegrees>
              <LongitudeDegrees>20.45948929153382778167724609375</LongitudeDegrees>
            </Position>
            <AltitudeMeters>457.79998779296875</AltitudeMeters>
            <DistanceMeters>NAN</DistanceMeters>
          </Trackpoint>
          <Trackpoint>
            <Time>2022-09-21T11:52:17.000Z</Time>
            <Position>
              <LatitudeDegrees>49.42471071146428585052490234375</LatitudeDegrees>
              <LongitudeDegrees>20.45948199927806854248046875</LongitudeDegrees>
            </Position>
            <AltitudeMeters>457.79998779296875</AltitudeMeters>
            <DistanceMeters>NAN</DistanceMeters>
          </Trackpoint>
          <Trackpoint>
            <Time>2022-09-21T11:52:23.000Z</Time>
            <Position>
              <LatitudeDegrees>49.4247377850115299224853515625</LatitudeDegrees>
              <LongitudeDegrees>20.45944981276988983154296875</LongitudeDegrees>
            </Position>
            <AltitudeMeters>457.79998779296875</AltitudeMeters>
            <DistanceMeters>NAN</DistanceMeters>
          </Trackpoint>
          <Trackpoint>
            <Time>2022-09-21T11:52:25.000Z</Time>
            <Position>
              <LatitudeDegrees>49.424750693142414093017578125</LatitudeDegrees>
              <LongitudeDegrees>20.45944134704768657684326171875</LongitudeDegrees>
            </Position>
            <AltitudeMeters>457.79998779296875</AltitudeMeters>
            <DistanceMeters>NAN</DistanceMeters>
          </Trackpoint>
          <Trackpoint>
            <Time>2022-09-21T11:52:31.000Z</Time>
            <Position>
              <LatitudeDegrees>49.4247543811798095703125</LatitudeDegrees>
              <LongitudeDegrees>20.4594281874597072601318359375</LongitudeDegrees>
            </Position>
            <AltitudeMeters>457.600006103515625</AltitudeMeters>
            <DistanceMeters>NAN</DistanceMeters>
          </Trackpoint>
          <Trackpoint>
            <Time>2022-09-21T11:52:35.000Z</Time>
            <Position>
              <LatitudeDegrees>49.4247716479003429412841796875</LatitudeDegrees>
              <LongitudeDegrees>20.4594107531011104583740234375</LongitudeDegrees>
            </Position>
            <AltitudeMeters>457.600006103515625</AltitudeMeters>
            <DistanceMeters>NAN</DistanceMeters>
          </Trackpoint>
          <Trackpoint>
            <Time>2022-09-21T11:52:36.000Z</Time>
            <Position>
              <LatitudeDegrees>49.4247825443744659423828125</LatitudeDegrees>
              <LongitudeDegrees>20.45940153300762176513671875</LongitudeDegrees>
            </Position>
            <AltitudeMeters>457.600006103515625</AltitudeMeters>
            <DistanceMeters>NAN</DistanceMeters>
          </Trackpoint>
          <Trackpoint>
            <Time>2022-09-21T11:52:43.000Z</Time>
            <Position>
              <LatitudeDegrees>49.42483023740351200103759765625</LatitudeDegrees>
              <LongitudeDegrees>20.4593685083091259002685546875</LongitudeDegrees>
            </Position>
            <AltitudeMeters>457.600006103515625</AltitudeMeters>
            <DistanceMeters>NAN</DistanceMeters>
          </Trackpoint>
          <Trackpoint>
            <Time>2022-09-21T11:52:50.000Z</Time>
            <Position>
              <LatitudeDegrees>49.42487181164324283599853515625</LatitudeDegrees>
              <LongitudeDegrees>20.45931310392916202545166015625</LongitudeDegrees>
            </Position>
            <AltitudeMeters>457.600006103515625</AltitudeMeters>
            <DistanceMeters>NAN</DistanceMeters>
          </Trackpoint>
          <Trackpoint>
            <Time>2022-09-21T11:52:54.000Z</Time>
            <Position>
              <LatitudeDegrees>49.4248630106449127197265625</LatitudeDegrees>
              <LongitudeDegrees>20.459313690662384033203125</LongitudeDegrees>
            </Position>
            <AltitudeMeters>457.600006103515625</AltitudeMeters>
            <DistanceMeters>NAN</DistanceMeters>
          </Trackpoint>
          <Trackpoint>
            <Time>2022-09-21T11:52:58.000Z</Time>
            <Position>
              <LatitudeDegrees>49.42486342974007129669189453125</LatitudeDegrees>
              <LongitudeDegrees>20.45925593934953212738037109375</LongitudeDegrees>
            </Position>
            <AltitudeMeters>457.399993896484375</AltitudeMeters>
            <DistanceMeters>NAN</DistanceMeters>
          </Trackpoint>
          <Trackpoint>
            <Time>2022-09-21T11:52:59.000Z</Time>
            <Position>
              <LatitudeDegrees>49.42486829124391078948974609375</LatitudeDegrees>
              <LongitudeDegrees>20.45924738980829715728759765625</LongitudeDegrees>
            </Position>
            <AltitudeMeters>457.399993896484375</AltitudeMeters>
            <DistanceMeters>NAN</DistanceMeters>
          </Trackpoint>
          <Trackpoint>
            <Time>2022-09-21T11:53:04.000Z</Time>
            <Position>
              <LatitudeDegrees>49.42486929707229137420654296875</LatitudeDegrees>
              <LongitudeDegrees>20.459187962114810943603515625</LongitudeDegrees>
            </Position>
            <AltitudeMeters>457.399993896484375</AltitudeMeters>
            <DistanceMeters>NAN</DistanceMeters>
          </Trackpoint>
          <Trackpoint>
            <Time>2022-09-21T11:53:11.000Z</Time>
            <Position>
              <LatitudeDegrees>49.42487885244190692901611328125</LatitudeDegrees>
              <LongitudeDegrees>20.4591851122677326202392578125</LongitudeDegrees>
            </Position>
            <AltitudeMeters>457.399993896484375</AltitudeMeters>
            <DistanceMeters>NAN</DistanceMeters>
          </Trackpoint>
          <Trackpoint>
            <Time>2022-09-21T11:53:18.000Z</Time>
            <Position>
              <LatitudeDegrees>49.42486979998648166656494140625</LatitudeDegrees>
              <LongitudeDegrees>20.45917463488876819610595703125</LongitudeDegrees>
            </Position>
            <AltitudeMeters>457.399993896484375</AltitudeMeters>
            <DistanceMeters>NAN</DistanceMeters>
          </Trackpoint>
          <Trackpoint>
            <Time>2022-09-21T11:53:22.000Z</Time>
            <Position>
              <LatitudeDegrees>49.42486979998648166656494140625</LatitudeDegrees>
              <LongitudeDegrees>20.45917463488876819610595703125</LongitudeDegrees>
            </Position>
            <AltitudeMeters>457.20001220703125</AltitudeMeters>
            <DistanceMeters>NAN</DistanceMeters>
          </Trackpoint>
          <Trackpoint>
            <Time>2022-09-21T11:53:25.000Z</Time>
            <Position>
              <LatitudeDegrees>49.424897544085979461669921875</LatitudeDegrees>
              <LongitudeDegrees>20.45914814807474613189697265625</LongitudeDegrees>
            </Position>
            <AltitudeMeters>457.20001220703125</AltitudeMeters>
            <DistanceMeters>NAN</DistanceMeters>
          </Trackpoint>
          <Trackpoint>
            <Time>2022-09-21T11:53:29.000Z</Time>
            <Position>
              <LatitudeDegrees>49.4249434769153594970703125</LatitudeDegrees>
              <LongitudeDegrees>20.4591157101094722747802734375</LongitudeDegrees>
            </Position>
            <AltitudeMeters>457.399993896484375</AltitudeMeters>
            <DistanceMeters>NAN</DistanceMeters>
          </Trackpoint>
          <Trackpoint>
            <Time>2022-09-21T11:53:34.000Z</Time>
            <Position>
              <LatitudeDegrees>49.42498630844056606292724609375</LatitudeDegrees>
              <LongitudeDegrees>20.45906449668109416961669921875</LongitudeDegrees>
            </Position>
            <AltitudeMeters>457.399993896484375</AltitudeMeters>
            <DistanceMeters>NAN</DistanceMeters>
          </Trackpoint>
          <Trackpoint>
            <Time>2022-09-21T11:53:42.000Z</Time>
            <Position>
              <LatitudeDegrees>49.42503978498280048370361328125</LatitudeDegrees>
              <LongitudeDegrees>20.45901554636657238006591796875</LongitudeDegrees>
            </Position>
            <AltitudeMeters>457.600006103515625</AltitudeMeters>
            <DistanceMeters>NAN</DistanceMeters>
          </Trackpoint>
          <Trackpoint>
            <Time>2022-09-21T11:53:44.000Z</Time>
            <Position>
              <LatitudeDegrees>49.42505839280784130096435546875</LatitudeDegrees>
              <LongitudeDegrees>20.45898889191448688507080078125</LongitudeDegrees>
            </Position>
            <AltitudeMeters>457.600006103515625</AltitudeMeters>
            <DistanceMeters>NAN</DistanceMeters>
          </Trackpoint>
          <Trackpoint>
            <Time>2022-09-21T11:53:47.000Z</Time>
            <Position>
              <LatitudeDegrees>49.4250790961086750030517578125</LatitudeDegrees>
              <LongitudeDegrees>20.458974055945873260498046875</LongitudeDegrees>
            </Position>
            <AltitudeMeters>457.600006103515625</AltitudeMeters>
            <DistanceMeters>NAN</DistanceMeters>
          </Trackpoint>
          <Trackpoint>
            <Time>2022-09-21T11:53:50.000Z</Time>
            <Position>
              <LatitudeDegrees>49.425094015896320343017578125</LatitudeDegrees>
              <LongitudeDegrees>20.45900397934019565582275390625</LongitudeDegrees>
            </Position>
            <AltitudeMeters>457.399993896484375</AltitudeMeters>
            <DistanceMeters>NAN</DistanceMeters>
          </Trackpoint>
          <Trackpoint>
            <Time>2022-09-21T11:53:57.000Z</Time>
            <Position>
              <LatitudeDegrees>49.425089992582798004150390625</LatitudeDegrees>
              <LongitudeDegrees>20.45900733210146427154541015625</LongitudeDegrees>
            </Position>
            <AltitudeMeters>457.20001220703125</AltitudeMeters>
            <DistanceMeters>NAN</DistanceMeters>
          </Trackpoint>
          <Trackpoint>
            <Time>2022-09-21T11:54:02.000Z</Time>
            <Position>
              <LatitudeDegrees>49.42509108223021030426025390625</LatitudeDegrees>
              <LongitudeDegrees>20.4590080864727497100830078125</LongitudeDegrees>
            </Position>
            <AltitudeMeters>457.399993896484375</AltitudeMeters>
            <DistanceMeters>NAN</DistanceMeters>
          </Trackpoint>
          <Trackpoint>
            <Time>2022-09-21T11:54:06.000Z</Time>
            <Position>
              <LatitudeDegrees>49.42509108223021030426025390625</LatitudeDegrees>
              <LongitudeDegrees>20.4590080864727497100830078125</LongitudeDegrees>
            </Position>
            <AltitudeMeters>457.399993896484375</AltitudeMeters>
            <DistanceMeters>NAN</DistanceMeters>
          </Trackpoint>
          <Trackpoint>
            <Time>2022-09-21T11:54:11.000Z</Time>
            <Position>
              <LatitudeDegrees>49.42509326152503490447998046875</LatitudeDegrees>
              <LongitudeDegrees>20.4590080864727497100830078125</LongitudeDegrees>
            </Position>
            <AltitudeMeters>457.399993896484375</AltitudeMeters>
            <DistanceMeters>NAN</DistanceMeters>
          </Trackpoint>
          <Trackpoint>
            <Time>2022-09-21T11:54:27.000Z</Time>
            <Position>
              <LatitudeDegrees>49.425120837986469268798828125</LatitudeDegrees>
              <LongitudeDegrees>20.45900129713118076324462890625</LongitudeDegrees>
            </Position>
            <AltitudeMeters>457.399993896484375</AltitudeMeters>
            <DistanceMeters>NAN</DistanceMeters>
          </Trackpoint>
          <Trackpoint>
            <Time>2022-09-21T11:54:35.000Z</Time>
            <Position>
              <LatitudeDegrees>49.425120837986469268798828125</LatitudeDegrees>
              <LongitudeDegrees>20.45899710617959499359130859375</LongitudeDegrees>
            </Position>
            <AltitudeMeters>457.399993896484375</AltitudeMeters>
            <DistanceMeters>NAN</DistanceMeters>
          </Trackpoint>
          <Trackpoint>
            <Time>2022-09-21T11:54:54.000Z</Time>
            <Position>
              <LatitudeDegrees>49.42514975555241107940673828125</LatitudeDegrees>
              <LongitudeDegrees>20.45896123163402080535888671875</LongitudeDegrees>
            </Position>
            <AltitudeMeters>457.600006103515625</AltitudeMeters>
            <DistanceMeters>NAN</DistanceMeters>
          </Trackpoint>
          <Trackpoint>
            <Time>2022-09-21T11:55:01.000Z</Time>
            <Position>
              <LatitudeDegrees>49.42519065923988819122314453125</LatitudeDegrees>
              <LongitudeDegrees>20.45893725939095020294189453125</LongitudeDegrees>
            </Position>
            <AltitudeMeters>457.600006103515625</AltitudeMeters>
            <DistanceMeters>NAN</DistanceMeters>
          </Trackpoint>
          <Trackpoint>
            <Time>2022-09-21T11:55:03.000Z</Time>
            <Position>
              <LatitudeDegrees>49.42520641721785068511962890625</LatitudeDegrees>
              <LongitudeDegrees>20.45892250724136829376220703125</LongitudeDegrees>
            </Position>
            <AltitudeMeters>457.600006103515625</AltitudeMeters>
            <DistanceMeters>NAN</DistanceMeters>
          </Trackpoint>
          <Trackpoint>
            <Time>2022-09-21T11:55:08.000Z</Time>
            <Position>
              <LatitudeDegrees>49.42524430342018604278564453125</LatitudeDegrees>
              <LongitudeDegrees>20.45888076536357402801513671875</LongitudeDegrees>
            </Position>
            <AltitudeMeters>457.399993896484375</AltitudeMeters>
            <DistanceMeters>NAN</DistanceMeters>
          </Trackpoint>
          <Trackpoint>
            <Time>2022-09-21T11:55:11.000Z</Time>
            <Position>
              <LatitudeDegrees>49.42527313716709613800048828125</LatitudeDegrees>
              <LongitudeDegrees>20.45886433683335781097412109375</LongitudeDegrees>
            </Position>
            <AltitudeMeters>457.399993896484375</AltitudeMeters>
            <DistanceMeters>NAN</DistanceMeters>
          </Trackpoint>
          <Trackpoint>
            <Time>2022-09-21T11:55:16.000Z</Time>
            <Position>
              <LatitudeDegrees>49.42530867643654346466064453125</LatitudeDegrees>
              <LongitudeDegrees>20.4588402807712554931640625</LongitudeDegrees>
            </Position>
            <AltitudeMeters>457.20001220703125</AltitudeMeters>
            <DistanceMeters>NAN</DistanceMeters>
          </Trackpoint>
          <Trackpoint>
            <Time>2022-09-21T11:55:17.000Z</Time>
            <Position>
              <LatitudeDegrees>49.42532342858612537384033203125</LatitudeDegrees>
              <LongitudeDegrees>20.4588283784687519073486328125</LongitudeDegrees>
            </Position>
            <AltitudeMeters>457.20001220703125</AltitudeMeters>
            <DistanceMeters>NAN</DistanceMeters>
          </Trackpoint>
          <Trackpoint>
            <Time>2022-09-21T11:55:19.000Z</Time>
            <Position>
              <LatitudeDegrees>49.42533734254539012908935546875</LatitudeDegrees>
              <LongitudeDegrees>20.4588102735579013824462890625</LongitudeDegrees>
            </Position>
            <AltitudeMeters>457.20001220703125</AltitudeMeters>
            <DistanceMeters>NAN</DistanceMeters>
          </Trackpoint>
          <Trackpoint>
            <Time>2022-09-21T11:55:24.000Z</Time>
            <Position>
              <LatitudeDegrees>49.4253766536712646484375</LatitudeDegrees>
              <LongitudeDegrees>20.4587624967098236083984375</LongitudeDegrees>
            </Position>
            <AltitudeMeters>457</AltitudeMeters>
            <DistanceMeters>NAN</DistanceMeters>
          </Trackpoint>
          <Trackpoint>
            <Time>2022-09-21T11:55:26.000Z</Time>
            <Position>
              <LatitudeDegrees>49.42539517767727375030517578125</LatitudeDegrees>
              <LongitudeDegrees>20.4587539471685886383056640625</LongitudeDegrees>
            </Position>
            <AltitudeMeters>457</AltitudeMeters>
            <DistanceMeters>NAN</DistanceMeters>
          </Trackpoint>
          <Trackpoint>
            <Time>2022-09-21T11:55:27.000Z</Time>
            <Position>
              <LatitudeDegrees>49.42540280520915985107421875</LatitudeDegrees>
              <LongitudeDegrees>20.45875704847276210784912109375</LongitudeDegrees>
            </Position>
            <AltitudeMeters>457</AltitudeMeters>
            <DistanceMeters>NAN</DistanceMeters>
          </Trackpoint>
          <Trackpoint>
            <Time>2022-09-21T11:55:30.000Z</Time>
            <Position>
              <LatitudeDegrees>49.42542702890932559967041015625</LatitudeDegrees>
              <LongitudeDegrees>20.45878018252551555633544921875</LongitudeDegrees>
            </Position>
            <AltitudeMeters>456.79998779296875</AltitudeMeters>
            <DistanceMeters>NAN</DistanceMeters>
          </Trackpoint>
          <Trackpoint>
            <Time>2022-09-21T11:55:38.000Z</Time>
            <Position>
              <LatitudeDegrees>49.425504393875598907470703125</LatitudeDegrees>
              <LongitudeDegrees>20.4587824456393718719482421875</LongitudeDegrees>
            </Position>
            <AltitudeMeters>456.600006103515625</AltitudeMeters>
            <DistanceMeters>NAN</DistanceMeters>
          </Trackpoint>
          <Trackpoint>
            <Time>2022-09-21T11:55:39.000Z</Time>
            <Position>
              <LatitudeDegrees>49.42551000975072383880615234375</LatitudeDegrees>
              <LongitudeDegrees>20.458786301314830780029296875</LongitudeDegrees>
            </Position>
            <AltitudeMeters>456.600006103515625</AltitudeMeters>
            <DistanceMeters>NAN</DistanceMeters>
          </Trackpoint>
          <Trackpoint>
            <Time>2022-09-21T11:55:41.000Z</Time>
            <Position>
              <LatitudeDegrees>49.42552526481449604034423828125</LatitudeDegrees>
              <LongitudeDegrees>20.45880516059696674346923828125</LongitudeDegrees>
            </Position>
            <AltitudeMeters>456.600006103515625</AltitudeMeters>
            <DistanceMeters>NAN</DistanceMeters>
          </Trackpoint>
          <Trackpoint>
            <Time>2022-09-21T11:55:42.000Z</Time>
            <Position>
              <LatitudeDegrees>49.42553381435573101043701171875</LatitudeDegrees>
              <LongitudeDegrees>20.45880884863436222076416015625</LongitudeDegrees>
            </Position>
            <AltitudeMeters>456.600006103515625</AltitudeMeters>
            <DistanceMeters>NAN</DistanceMeters>
          </Trackpoint>
          <Trackpoint>
            <Time>2022-09-21T11:55:45.000Z</Time>
            <Position>
              <LatitudeDegrees>49.42555644549429416656494140625</LatitudeDegrees>
              <LongitudeDegrees>20.458825528621673583984375</LongitudeDegrees>
            </Position>
            <AltitudeMeters>456.600006103515625</AltitudeMeters>
            <DistanceMeters>NAN</DistanceMeters>
          </Trackpoint>
          <Trackpoint>
            <Time>2022-09-21T11:55:47.000Z</Time>
            <Position>
              <LatitudeDegrees>49.4255759753286838531494140625</LatitudeDegrees>
              <LongitudeDegrees>20.4588283784687519073486328125</LongitudeDegrees>
            </Position>
            <AltitudeMeters>456.600006103515625</AltitudeMeters>
            <DistanceMeters>NAN</DistanceMeters>
          </Trackpoint>
          <Trackpoint>
            <Time>2022-09-21T11:55:49.000Z</Time>
            <Position>
              <LatitudeDegrees>49.42559449933469295501708984375</LatitudeDegrees>
              <LongitudeDegrees>20.458836592733860015869140625</LongitudeDegrees>
            </Position>
            <AltitudeMeters>456.600006103515625</AltitudeMeters>
            <DistanceMeters>NAN</DistanceMeters>
          </Trackpoint>
          <Trackpoint>
            <Time>2022-09-21T11:55:57.000Z</Time>
            <Position>
              <LatitudeDegrees>49.4256678409874439239501953125</LatitudeDegrees>
              <LongitudeDegrees>20.4589135386049747467041015625</LongitudeDegrees>
            </Position>
            <AltitudeMeters>457</AltitudeMeters>
            <DistanceMeters>NAN</DistanceMeters>
          </Trackpoint>
          <Trackpoint>
            <Time>2022-09-21T11:56:00.000Z</Time>
            <Position>
              <LatitudeDegrees>49.42568619735538959503173828125</LatitudeDegrees>
              <LongitudeDegrees>20.45895687304437160491943359375</LongitudeDegrees>
            </Position>
            <AltitudeMeters>457</AltitudeMeters>
            <DistanceMeters>NAN</DistanceMeters>
          </Trackpoint>
          <Trackpoint>
            <Time>2022-09-21T11:56:06.000Z</Time>
            <Position>
              <LatitudeDegrees>49.4257003627717494964599609375</LatitudeDegrees>
              <LongitudeDegrees>20.4590575397014617919921875</LongitudeDegrees>
            </Position>
            <AltitudeMeters>457.20001220703125</AltitudeMeters>
            <DistanceMeters>NAN</DistanceMeters>
          </Trackpoint>
          <Trackpoint>
            <Time>2022-09-21T11:56:07.000Z</Time>
            <Position>
              <LatitudeDegrees>49.425703547894954681396484375</LatitudeDegrees>
              <LongitudeDegrees>20.45906986109912395477294921875</LongitudeDegrees>
            </Position>
            <AltitudeMeters>457.399993896484375</AltitudeMeters>
            <DistanceMeters>NAN</DistanceMeters>
          </Trackpoint>
          <Trackpoint>
            <Time>2022-09-21T11:56:09.000Z</Time>
            <Position>
              <LatitudeDegrees>49.4257077388465404510498046875</LatitudeDegrees>
              <LongitudeDegrees>20.459104813635349273681640625</LongitudeDegrees>
            </Position>
            <AltitudeMeters>457.399993896484375</AltitudeMeters>
            <DistanceMeters>NAN</DistanceMeters>
          </Trackpoint>
          <Trackpoint>
            <Time>2022-09-21T11:56:11.000Z</Time>
            <Position>
              <LatitudeDegrees>49.42570866085588932037353515625</LatitudeDegrees>
              <LongitudeDegrees>20.45913222245872020721435546875</LongitudeDegrees>
            </Position>
            <AltitudeMeters>457.600006103515625</AltitudeMeters>
            <DistanceMeters>NAN</DistanceMeters>
          </Trackpoint>
          <Trackpoint>
            <Time>2022-09-21T11:56:13.000Z</Time>
            <Position>
              <LatitudeDegrees>49.425718970596790313720703125</LatitudeDegrees>
              <LongitudeDegrees>20.45916943810880184173583984375</LongitudeDegrees>
            </Position>
            <AltitudeMeters>457.600006103515625</AltitudeMeters>
            <DistanceMeters>NAN</DistanceMeters>
          </Trackpoint>
          <Trackpoint>
            <Time>2022-09-21T11:56:14.000Z</Time>
            <Position>
              <LatitudeDegrees>49.425720982253551483154296875</LatitudeDegrees>
              <LongitudeDegrees>20.45919232070446014404296875</LongitudeDegrees>
            </Position>
            <AltitudeMeters>457.79998779296875</AltitudeMeters>
            <DistanceMeters>NAN</DistanceMeters>
          </Trackpoint>
          <Trackpoint>
            <Time>2022-09-21T11:56:18.000Z</Time>
            <Position>
              <LatitudeDegrees>49.4257385842502117156982421875</LatitudeDegrees>
              <LongitudeDegrees>20.459251664578914642333984375</LongitudeDegrees>
            </Position>
            <AltitudeMeters>457.79998779296875</AltitudeMeters>
            <DistanceMeters>NAN</DistanceMeters>
          </Trackpoint>
          <Trackpoint>
            <Time>2022-09-21T11:56:20.000Z</Time>
            <Position>
              <LatitudeDegrees>49.42574855871498584747314453125</LatitudeDegrees>
              <LongitudeDegrees>20.459280498325824737548828125</LongitudeDegrees>
            </Position>
            <AltitudeMeters>458</AltitudeMeters>
            <DistanceMeters>NAN</DistanceMeters>
          </Trackpoint>
          <Trackpoint>
            <Time>2022-09-21T11:56:21.000Z</Time>
            <Position>
              <LatitudeDegrees>49.4257523305714130401611328125</LatitudeDegrees>
              <LongitudeDegrees>20.4592977650463581085205078125</LongitudeDegrees>
            </Position>
            <AltitudeMeters>458</AltitudeMeters>
            <DistanceMeters>NAN</DistanceMeters>
          </Trackpoint>
          <Trackpoint>
            <Time>2022-09-21T11:56:26.000Z</Time>
            <Position>
              <LatitudeDegrees>49.42577890120446681976318359375</LatitudeDegrees>
              <LongitudeDegrees>20.45939323492348194122314453125</LongitudeDegrees>
            </Position>
            <AltitudeMeters>458.399993896484375</AltitudeMeters>
            <DistanceMeters>NAN</DistanceMeters>
          </Trackpoint>
          <Trackpoint>
            <Time>2022-09-21T11:56:29.000Z</Time>
            <Position>
              <LatitudeDegrees>49.425785355269908905029296875</LatitudeDegrees>
              <LongitudeDegrees>20.45945760793983936309814453125</LongitudeDegrees>
            </Position>
            <AltitudeMeters>458.600006103515625</AltitudeMeters>
            <DistanceMeters>NAN</DistanceMeters>
          </Trackpoint>
          <Trackpoint>
            <Time>2022-09-21T11:56:30.000Z</Time>
            <Position>
              <LatitudeDegrees>49.42578711546957492828369140625</LatitudeDegrees>
              <LongitudeDegrees>20.459463894367218017578125</LongitudeDegrees>
            </Position>
            <AltitudeMeters>458.600006103515625</AltitudeMeters>
            <DistanceMeters>NAN</DistanceMeters>
          </Trackpoint>
          <Trackpoint>
            <Time>2022-09-21T11:56:31.000Z</Time>
            <Position>
              <LatitudeDegrees>49.425791390240192413330078125</LatitudeDegrees>
              <LongitudeDegrees>20.45947319827973842620849609375</LongitudeDegrees>
            </Position>
            <AltitudeMeters>458.600006103515625</AltitudeMeters>
            <DistanceMeters>NAN</DistanceMeters>
          </Trackpoint>
          <Trackpoint>
            <Time>2022-09-21T11:56:32.000Z</Time>
            <Position>
              <LatitudeDegrees>49.4257965870201587677001953125</LatitudeDegrees>
              <LongitudeDegrees>20.459475629031658172607421875</LongitudeDegrees>
            </Position>
            <AltitudeMeters>458.600006103515625</AltitudeMeters>
            <DistanceMeters>NAN</DistanceMeters>
          </Trackpoint>
          <Trackpoint>
            <Time>2022-09-21T11:56:34.000Z</Time>
            <Position>
              <LatitudeDegrees>49.42579717375338077545166015625</LatitudeDegrees>
              <LongitudeDegrees>20.45950085856020450592041015625</LongitudeDegrees>
            </Position>
            <AltitudeMeters>458.79998779296875</AltitudeMeters>
            <DistanceMeters>NAN</DistanceMeters>
          </Trackpoint>
          <Trackpoint>
            <Time>2022-09-21T11:56:36.000Z</Time>
            <Position>
              <LatitudeDegrees>49.42580002360045909881591796875</LatitudeDegrees>
              <LongitudeDegrees>20.4595297761261463165283203125</LongitudeDegrees>
            </Position>
            <AltitudeMeters>459</AltitudeMeters>
            <DistanceMeters>NAN</DistanceMeters>
          </Trackpoint>
          <Trackpoint>
            <Time>2022-09-21T11:56:37.000Z</Time>
            <Position>
              <LatitudeDegrees>49.425799436867237091064453125</LatitudeDegrees>
              <LongitudeDegrees>20.45954561792314052581787109375</LongitudeDegrees>
            </Position>
            <AltitudeMeters>459</AltitudeMeters>
            <DistanceMeters>NAN</DistanceMeters>
          </Trackpoint>
          <Trackpoint>
            <Time>2022-09-21T11:56:39.000Z</Time>
            <Position>
              <LatitudeDegrees>49.42578359507024288177490234375</LatitudeDegrees>
              <LongitudeDegrees>20.45956372283399105072021484375</LongitudeDegrees>
            </Position>
            <AltitudeMeters>459</AltitudeMeters>
            <DistanceMeters>NAN</DistanceMeters>
          </Trackpoint>
          <Trackpoint>
            <Time>2022-09-21T11:56:43.000Z</Time>
            <Position>
              <LatitudeDegrees>49.425773955881595611572265625</LatitudeDegrees>
              <LongitudeDegrees>20.45955902896821498870849609375</LongitudeDegrees>
            </Position>
            <AltitudeMeters>459.20001220703125</AltitudeMeters>
            <DistanceMeters>NAN</DistanceMeters>
          </Trackpoint>
          <Trackpoint>
            <Time>2022-09-21T11:56:55.000Z</Time>
            <Position>
              <LatitudeDegrees>49.42577923648059368133544921875</LatitudeDegrees>
              <LongitudeDegrees>20.45964737422764301300048828125</LongitudeDegrees>
            </Position>
            <AltitudeMeters>459.20001220703125</AltitudeMeters>
            <DistanceMeters>NAN</DistanceMeters>
          </Trackpoint>
          <Trackpoint>
            <Time>2022-09-21T11:57:03.000Z</Time>
            <Position>
              <LatitudeDegrees>49.42575928755104541778564453125</LatitudeDegrees>
              <LongitudeDegrees>20.4597369767725467681884765625</LongitudeDegrees>
            </Position>
            <AltitudeMeters>459.600006103515625</AltitudeMeters>
            <DistanceMeters>NAN</DistanceMeters>
          </Trackpoint>
          <Trackpoint>
            <Time>2022-09-21T11:57:08.000Z</Time>
            <Position>
              <LatitudeDegrees>49.42576079629361629486083984375</LatitudeDegrees>
              <LongitudeDegrees>20.45981450937688350677490234375</LongitudeDegrees>
            </Position>
            <AltitudeMeters>460</AltitudeMeters>
            <DistanceMeters>NAN</DistanceMeters>
          </Trackpoint>
          <Trackpoint>
            <Time>2022-09-21T11:57:11.000Z</Time>
            <Position>
              <LatitudeDegrees>49.42574503831565380096435546875</LatitudeDegrees>
              <LongitudeDegrees>20.45984803698956966400146484375</LongitudeDegrees>
            </Position>
            <AltitudeMeters>460.399993896484375</AltitudeMeters>
            <DistanceMeters>NAN</DistanceMeters>
          </Trackpoint>
          <Trackpoint>
            <Time>2022-09-21T11:57:17.000Z</Time>
            <Position>
              <LatitudeDegrees>49.42573648877441883087158203125</LatitudeDegrees>
              <LongitudeDegrees>20.45992867089807987213134765625</LongitudeDegrees>
            </Position>
            <AltitudeMeters>460.600006103515625</AltitudeMeters>
            <DistanceMeters>NAN</DistanceMeters>
          </Trackpoint>
          <Trackpoint>
            <Time>2022-09-21T11:57:24.000Z</Time>
            <Position>
              <LatitudeDegrees>49.4257271848618984222412109375</LatitudeDegrees>
              <LongitudeDegrees>20.460026152431964874267578125</LongitudeDegrees>
            </Position>
            <AltitudeMeters>461.20001220703125</AltitudeMeters>
            <DistanceMeters>NAN</DistanceMeters>
          </Trackpoint>
          <Trackpoint>
            <Time>2022-09-21T11:57:27.000Z</Time>
            <Position>
              <LatitudeDegrees>49.42573078908026218414306640625</LatitudeDegrees>
              <LongitudeDegrees>20.4600740969181060791015625</LongitudeDegrees>
            </Position>
            <AltitudeMeters>461.399993896484375</AltitudeMeters>
            <DistanceMeters>NAN</DistanceMeters>
          </Trackpoint>
          <Trackpoint>
            <Time>2022-09-21T11:57:31.000Z</Time>
            <Position>
              <LatitudeDegrees>49.42572190426290035247802734375</LatitudeDegrees>
              <LongitudeDegrees>20.460126064717769622802734375</LongitudeDegrees>
            </Position>
            <AltitudeMeters>461.600006103515625</AltitudeMeters>
            <DistanceMeters>NAN</DistanceMeters>
          </Trackpoint>
          <Trackpoint>
            <Time>2022-09-21T11:57:32.000Z</Time>
            <Position>
              <LatitudeDegrees>49.42572525702416896820068359375</LatitudeDegrees>
              <LongitudeDegrees>20.46014358289539813995361328125</LongitudeDegrees>
            </Position>
            <AltitudeMeters>461.79998779296875</AltitudeMeters>
            <DistanceMeters>NAN</DistanceMeters>
          </Trackpoint>
          <Trackpoint>
            <Time>2022-09-21T11:57:40.000Z</Time>
            <Position>
              <LatitudeDegrees>49.4256879575550556182861328125</LatitudeDegrees>
              <LongitudeDegrees>20.460268557071685791015625</LongitudeDegrees>
            </Position>
            <AltitudeMeters>462.20001220703125</AltitudeMeters>
            <DistanceMeters>NAN</DistanceMeters>
          </Trackpoint>
          <Trackpoint>
            <Time>2022-09-21T11:57:41.000Z</Time>
            <Position>
              <LatitudeDegrees>49.42568083293735980987548828125</LatitudeDegrees>
              <LongitudeDegrees>20.4602784477174282073974609375</LongitudeDegrees>
            </Position>
            <AltitudeMeters>462.20001220703125</AltitudeMeters>
            <DistanceMeters>NAN</DistanceMeters>
          </Trackpoint>
          <Trackpoint>
            <Time>2022-09-21T11:57:42.000Z</Time>
            <Position>
              <LatitudeDegrees>49.42567848600447177886962890625</LatitudeDegrees>
              <LongitudeDegrees>20.46029261313378810882568359375</LongitudeDegrees>
            </Position>
            <AltitudeMeters>462.399993896484375</AltitudeMeters>
            <DistanceMeters>NAN</DistanceMeters>
          </Trackpoint>
          <Trackpoint>
            <Time>2022-09-21T11:57:46.000Z</Time>
            <Position>
              <LatitudeDegrees>49.4256916455924510955810546875</LatitudeDegrees>
              <LongitudeDegrees>20.46035313047468662261962890625</LongitudeDegrees>
            </Position>
            <AltitudeMeters>462.600006103515625</AltitudeMeters>
            <DistanceMeters>NAN</DistanceMeters>
          </Trackpoint>
          <Trackpoint>
            <Time>2022-09-21T11:57:50.000Z</Time>
            <Position>
              <LatitudeDegrees>49.4256825931370258331298828125</LatitudeDegrees>
              <LongitudeDegrees>20.4604172520339488983154296875</LongitudeDegrees>
            </Position>
            <AltitudeMeters>462.79998779296875</AltitudeMeters>
            <DistanceMeters>NAN</DistanceMeters>
          </Trackpoint>
          <Trackpoint>
            <Time>2022-09-21T11:57:53.000Z</Time>
            <Position>
              <LatitudeDegrees>49.42567102611064910888671875</LatitudeDegrees>
              <LongitudeDegrees>20.46044482849538326263427734375</LongitudeDegrees>
            </Position>
            <AltitudeMeters>463</AltitudeMeters>
            <DistanceMeters>NAN</DistanceMeters>
          </Trackpoint>
          <Trackpoint>
            <Time>2022-09-21T11:57:58.000Z</Time>
            <Position>
              <LatitudeDegrees>49.42565334029495716094970703125</LatitudeDegrees>
              <LongitudeDegrees>20.46051322482526302337646484375</LongitudeDegrees>
            </Position>
            <AltitudeMeters>463.20001220703125</AltitudeMeters>
            <DistanceMeters>NAN</DistanceMeters>
          </Trackpoint>
          <Trackpoint>
            <Time>2022-09-21T11:57:59.000Z</Time>
            <Position>
              <LatitudeDegrees>49.42565300501883029937744140625</LatitudeDegrees>
              <LongitudeDegrees>20.46052529476583003997802734375</LongitudeDegrees>
            </Position>
            <AltitudeMeters>463.399993896484375</AltitudeMeters>
            <DistanceMeters>NAN</DistanceMeters>
          </Trackpoint>
          <Trackpoint>
            <Time>2022-09-21T11:58:00.000Z</Time>
            <Position>
              <LatitudeDegrees>49.4256547652184963226318359375</LatitudeDegrees>
              <LongitudeDegrees>20.4605376161634922027587890625</LongitudeDegrees>
            </Position>
            <AltitudeMeters>463.399993896484375</AltitudeMeters>
            <DistanceMeters>NAN</DistanceMeters>
          </Trackpoint>
          <Trackpoint>
            <Time>2022-09-21T11:58:07.000Z</Time>
            <Position>
              <LatitudeDegrees>49.42564286291599273681640625</LatitudeDegrees>
              <LongitudeDegrees>20.4606346786022186279296875</LongitudeDegrees>
            </Position>
            <AltitudeMeters>463.79998779296875</AltitudeMeters>
            <DistanceMeters>NAN</DistanceMeters>
          </Trackpoint>
          <Trackpoint>
            <Time>2022-09-21T11:58:13.000Z</Time>
            <Position>
              <LatitudeDegrees>49.42563355900347232818603515625</LatitudeDegrees>
              <LongitudeDegrees>20.4606767557561397552490234375</LongitudeDegrees>
            </Position>
            <AltitudeMeters>464</AltitudeMeters>
            <DistanceMeters>NAN</DistanceMeters>
          </Trackpoint>
          <Trackpoint>
            <Time>2022-09-21T11:58:21.000Z</Time>
            <Position>
              <LatitudeDegrees>49.42562081851065158843994140625</LatitudeDegrees>
              <LongitudeDegrees>20.4607840441167354583740234375</LongitudeDegrees>
            </Position>
            <AltitudeMeters>464.399993896484375</AltitudeMeters>
            <DistanceMeters>NAN</DistanceMeters>
          </Trackpoint>
          <Trackpoint>
            <Time>2022-09-21T11:58:26.000Z</Time>
            <Position>
              <LatitudeDegrees>49.4256095029413700103759765625</LatitudeDegrees>
              <LongitudeDegrees>20.4608591459691524505615234375</LongitudeDegrees>
            </Position>
            <AltitudeMeters>464.600006103515625</AltitudeMeters>
            <DistanceMeters>NAN</DistanceMeters>
          </Trackpoint>
          <Trackpoint>
            <Time>2022-09-21T11:58:29.000Z</Time>
            <Position>
              <LatitudeDegrees>49.425617717206478118896484375</LatitudeDegrees>
              <LongitudeDegrees>20.46091639436781406402587890625</LongitudeDegrees>
            </Position>
            <AltitudeMeters>464.600006103515625</AltitudeMeters>
            <DistanceMeters>NAN</DistanceMeters>
          </Trackpoint>
          <Trackpoint>
            <Time>2022-09-21T11:58:31.000Z</Time>
            <Position>
              <LatitudeDegrees>49.42561344243586063385009765625</LatitudeDegrees>
              <LongitudeDegrees>20.4609463177621364593505859375</LongitudeDegrees>
            </Position>
            <AltitudeMeters>464.79998779296875</AltitudeMeters>
            <DistanceMeters>NAN</DistanceMeters>
          </Trackpoint>
          <Trackpoint>
            <Time>2022-09-21T11:58:35.000Z</Time>
            <Position>
              <LatitudeDegrees>49.4256205670535564422607421875</LatitudeDegrees>
              <LongitudeDegrees>20.46100859530270099639892578125</LongitudeDegrees>
            </Position>
            <AltitudeMeters>464.79998779296875</AltitudeMeters>
            <DistanceMeters>NAN</DistanceMeters>
          </Trackpoint>
          <Trackpoint>
            <Time>2022-09-21T11:58:37.000Z</Time>
            <Position>
              <LatitudeDegrees>49.425609670579433441162109375</LatitudeDegrees>
              <LongitudeDegrees>20.46103575266897678375244140625</LongitudeDegrees>
            </Position>
            <AltitudeMeters>465</AltitudeMeters>
            <DistanceMeters>NAN</DistanceMeters>
          </Trackpoint>
          <Trackpoint>
            <Time>2022-09-21T11:58:40.000Z</Time>
            <Position>
              <LatitudeDegrees>49.425576142966747283935546875</LatitudeDegrees>
              <LongitudeDegrees>20.46105000190436840057373046875</LongitudeDegrees>
            </Position>
            <AltitudeMeters>465</AltitudeMeters>
            <DistanceMeters>NAN</DistanceMeters>
          </Trackpoint>
          <Trackpoint>
            <Time>2022-09-21T11:58:42.000Z</Time>
            <Position>
              <LatitudeDegrees>49.4255662523210048675537109375</LatitudeDegrees>
              <LongitudeDegrees>20.4610598087310791015625</LongitudeDegrees>
            </Position>
            <AltitudeMeters>465</AltitudeMeters>
            <DistanceMeters>NAN</DistanceMeters>
          </Trackpoint>
          <Trackpoint>
            <Time>2022-09-21T11:58:49.000Z</Time>
            <Position>
              <LatitudeDegrees>49.42556717433035373687744140625</LatitudeDegrees>
              <LongitudeDegrees>20.461124517023563385009765625</LongitudeDegrees>
            </Position>
            <AltitudeMeters>465.20001220703125</AltitudeMeters>
            <DistanceMeters>NAN</DistanceMeters>
          </Trackpoint>
          <Trackpoint>
            <Time>2022-09-21T11:58:54.000Z</Time>
            <Position>
              <LatitudeDegrees>49.42556315101683139801025390625</LatitudeDegrees>
              <LongitudeDegrees>20.461140610277652740478515625</LongitudeDegrees>
            </Position>
            <AltitudeMeters>465.20001220703125</AltitudeMeters>
            <DistanceMeters>NAN</DistanceMeters>
          </Trackpoint>
          <Trackpoint>
            <Time>2022-09-21T11:58:56.000Z</Time>
            <Position>
              <LatitudeDegrees>49.425560049712657928466796875</LatitudeDegrees>
              <LongitudeDegrees>20.46117707155644893646240234375</LongitudeDegrees>
            </Position>
            <AltitudeMeters>465.20001220703125</AltitudeMeters>
            <DistanceMeters>NAN</DistanceMeters>
          </Trackpoint>
          <Trackpoint>
            <Time>2022-09-21T11:58:57.000Z</Time>
            <Position>
              <LatitudeDegrees>49.42556415684521198272705078125</LatitudeDegrees>
              <LongitudeDegrees>20.46119593083858489990234375</LongitudeDegrees>
            </Position>
            <AltitudeMeters>465.20001220703125</AltitudeMeters>
            <DistanceMeters>NAN</DistanceMeters>
          </Trackpoint>
          <Trackpoint>
            <Time>2022-09-21T11:58:58.000Z</Time>
            <Position>
              <LatitudeDegrees>49.42556767724454402923583984375</LatitudeDegrees>
              <LongitudeDegrees>20.4612192325294017791748046875</LongitudeDegrees>
            </Position>
            <AltitudeMeters>465.20001220703125</AltitudeMeters>
            <DistanceMeters>NAN</DistanceMeters>
          </Trackpoint>
          <Trackpoint>
            <Time>2022-09-21T11:59:02.000Z</Time>
            <Position>
              <LatitudeDegrees>49.4255578704178333282470703125</LatitudeDegrees>
              <LongitudeDegrees>20.46132761053740978240966796875</LongitudeDegrees>
            </Position>
            <AltitudeMeters>465.399993896484375</AltitudeMeters>
            <DistanceMeters>NAN</DistanceMeters>
          </Trackpoint>
          <Trackpoint>
            <Time>2022-09-21T11:59:05.000Z</Time>
            <Position>
              <LatitudeDegrees>49.42555007524788379669189453125</LatitudeDegrees>
              <LongitudeDegrees>20.4614435322582721710205078125</LongitudeDegrees>
            </Position>
            <AltitudeMeters>465.600006103515625</AltitudeMeters>
            <DistanceMeters>NAN</DistanceMeters>
          </Trackpoint>
          <Trackpoint>
            <Time>2022-09-21T11:59:10.000Z</Time>
            <Position>
              <LatitudeDegrees>49.42554990760982036590576171875</LatitudeDegrees>
              <LongitudeDegrees>20.46161008067429065704345703125</LongitudeDegrees>
            </Position>
            <AltitudeMeters>465.600006103515625</AltitudeMeters>
            <DistanceMeters>NAN</DistanceMeters>
          </Trackpoint>
          <Trackpoint>
            <Time>2022-09-21T11:59:12.000Z</Time>
            <Position>
              <LatitudeDegrees>49.42554772831499576568603515625</LatitudeDegrees>
              <LongitudeDegrees>20.46170177869498729705810546875</LongitudeDegrees>
            </Position>
            <AltitudeMeters>465.399993896484375</AltitudeMeters>
            <DistanceMeters>NAN</DistanceMeters>
          </Trackpoint>
          <Trackpoint>
            <Time>2022-09-21T11:59:13.000Z</Time>
            <Position>
              <LatitudeDegrees>49.42554236389696598052978515625</LatitudeDegrees>
              <LongitudeDegrees>20.46174176037311553955078125</LongitudeDegrees>
            </Position>
            <AltitudeMeters>465.399993896484375</AltitudeMeters>
            <DistanceMeters>NAN</DistanceMeters>
          </Trackpoint>
          <Trackpoint>
            <Time>2022-09-21T11:59:22.000Z</Time>
            <Position>
              <LatitudeDegrees>49.42552962340414524078369140625</LatitudeDegrees>
              <LongitudeDegrees>20.46205499209463596343994140625</LongitudeDegrees>
            </Position>
            <AltitudeMeters>465.600006103515625</AltitudeMeters>
            <DistanceMeters>NAN</DistanceMeters>
          </Trackpoint>
          <Trackpoint>
            <Time>2022-09-21T11:59:29.000Z</Time>
            <Position>
              <LatitudeDegrees>49.4255297072231769561767578125</LatitudeDegrees>
              <LongitudeDegrees>20.46232991851866245269775390625</LongitudeDegrees>
            </Position>
            <AltitudeMeters>465.79998779296875</AltitudeMeters>
            <DistanceMeters>NAN</DistanceMeters>
          </Trackpoint>
          <Trackpoint>
            <Time>2022-09-21T11:59:36.000Z</Time>
            <Position>
              <LatitudeDegrees>49.4255255162715911865234375</LatitudeDegrees>
              <LongitudeDegrees>20.46259948052465915679931640625</LongitudeDegrees>
            </Position>
            <AltitudeMeters>465.79998779296875</AltitudeMeters>
            <DistanceMeters>NAN</DistanceMeters>
          </Trackpoint>
          <Trackpoint>
            <Time>2022-09-21T11:59:42.000Z</Time>
            <Position>
              <LatitudeDegrees>49.4255434535443782806396484375</LatitudeDegrees>
              <LongitudeDegrees>20.462851189076900482177734375</LongitudeDegrees>
            </Position>
            <AltitudeMeters>466</AltitudeMeters>
            <DistanceMeters>NAN</DistanceMeters>
          </Trackpoint>
          <Trackpoint>
            <Time>2022-09-21T11:59:50.000Z</Time>
            <Position>
              <LatitudeDegrees>49.42557069472968578338623046875</LatitudeDegrees>
              <LongitudeDegrees>20.46312754042446613311767578125</LongitudeDegrees>
            </Position>
            <AltitudeMeters>466.20001220703125</AltitudeMeters>
            <DistanceMeters>NAN</DistanceMeters>
          </Trackpoint>
          <Trackpoint>
            <Time>2022-09-21T11:59:56.000Z</Time>
            <Position>
              <LatitudeDegrees>49.4255997799336910247802734375</LatitudeDegrees>
              <LongitudeDegrees>20.46335083432495594024658203125</LongitudeDegrees>
            </Position>
            <AltitudeMeters>466.399993896484375</AltitudeMeters>
            <DistanceMeters>NAN</DistanceMeters>
          </Trackpoint>
          <Trackpoint>
            <Time>2022-09-21T11:59:58.000Z</Time>
            <Position>
              <LatitudeDegrees>49.42562811076641082763671875</LatitudeDegrees>
              <LongitudeDegrees>20.4634183086454868316650390625</LongitudeDegrees>
            </Position>
            <AltitudeMeters>466.399993896484375</AltitudeMeters>
            <DistanceMeters>NAN</DistanceMeters>
          </Trackpoint>
          <Trackpoint>
            <Time>2022-09-21T12:00:02.000Z</Time>
            <Position>
              <LatitudeDegrees>49.42565786652266979217529296875</LatitudeDegrees>
              <LongitudeDegrees>20.46359038911759853363037109375</LongitudeDegrees>
            </Position>
            <AltitudeMeters>466.399993896484375</AltitudeMeters>
            <DistanceMeters>NAN</DistanceMeters>
          </Trackpoint>
          <Trackpoint>
            <Time>2022-09-21T12:00:03.000Z</Time>
            <Position>
              <LatitudeDegrees>49.42566541023552417755126953125</LatitudeDegrees>
              <LongitudeDegrees>20.463626347482204437255859375</LongitudeDegrees>
            </Position>
            <AltitudeMeters>466.399993896484375</AltitudeMeters>
            <DistanceMeters>NAN</DistanceMeters>
          </Trackpoint>
          <Trackpoint>
            <Time>2022-09-21T12:00:06.000Z</Time>
            <Position>
              <LatitudeDegrees>49.4257000274956226348876953125</LatitudeDegrees>
              <LongitudeDegrees>20.46377847902476787567138671875</LongitudeDegrees>
            </Position>
            <AltitudeMeters>466.79998779296875</AltitudeMeters>
            <DistanceMeters>NAN</DistanceMeters>
          </Trackpoint>
          <Trackpoint>
            <Time>2022-09-21T12:00:15.000Z</Time>
            <Position>
              <LatitudeDegrees>49.425826929509639739990234375</LatitudeDegrees>
              <LongitudeDegrees>20.46420243568718433380126953125</LongitudeDegrees>
            </Position>
            <AltitudeMeters>467</AltitudeMeters>
            <DistanceMeters>NAN</DistanceMeters>
          </Trackpoint>
          <Trackpoint>
            <Time>2022-09-21T12:00:20.000Z</Time>
            <Position>
              <LatitudeDegrees>49.42586909048259258270263671875</LatitudeDegrees>
              <LongitudeDegrees>20.46439471654593944549560546875</LongitudeDegrees>
            </Position>
            <AltitudeMeters>467.20001220703125</AltitudeMeters>
            <DistanceMeters>NAN</DistanceMeters>
          </Trackpoint>
          <Trackpoint>
            <Time>2022-09-21T12:00:24.000Z</Time>
            <Position>
              <LatitudeDegrees>49.425876550376415252685546875</LatitudeDegrees>
              <LongitudeDegrees>20.46441064216196537017822265625</LongitudeDegrees>
            </Position>
            <AltitudeMeters>467.20001220703125</AltitudeMeters>
            <DistanceMeters>NAN</DistanceMeters>
          </Trackpoint>
          <Trackpoint>
            <Time>2022-09-21T12:00:33.000Z</Time>
            <Position>
              <LatitudeDegrees>49.42588962614536285400390625</LatitudeDegrees>
              <LongitudeDegrees>20.46441650949418544769287109375</LongitudeDegrees>
            </Position>
            <AltitudeMeters>467.20001220703125</AltitudeMeters>
            <DistanceMeters>NAN</DistanceMeters>
          </Trackpoint>
          <Trackpoint>
            <Time>2022-09-21T12:00:44.000Z</Time>
            <Position>
              <LatitudeDegrees>49.42589507438242435455322265625</LatitudeDegrees>
              <LongitudeDegrees>20.464447773993015289306640625</LongitudeDegrees>
            </Position>
            <AltitudeMeters>467.20001220703125</AltitudeMeters>
            <DistanceMeters>NAN</DistanceMeters>
          </Trackpoint>
          <Trackpoint>
            <Time>2022-09-21T12:00:45.000Z</Time>
            <Position>
              <LatitudeDegrees>49.425900690257549285888671875</LatitudeDegrees>
              <LongitudeDegrees>20.46446545980870723724365234375</LongitudeDegrees>
            </Position>
            <AltitudeMeters>467.20001220703125</AltitudeMeters>
            <DistanceMeters>NAN</DistanceMeters>
          </Trackpoint>
          <Trackpoint>
            <Time>2022-09-21T12:00:49.000Z</Time>
            <Position>
              <LatitudeDegrees>49.42593731917440891265869140625</LatitudeDegrees>
              <LongitudeDegrees>20.46454408206045627593994140625</LongitudeDegrees>
            </Position>
            <AltitudeMeters>467.600006103515625</AltitudeMeters>
            <DistanceMeters>NAN</DistanceMeters>
          </Trackpoint>
          <Trackpoint>
            <Time>2022-09-21T12:00:51.000Z</Time>
            <Position>
              <LatitudeDegrees>49.42596212960779666900634765625</LatitudeDegrees>
              <LongitudeDegrees>20.46459160745143890380859375</LongitudeDegrees>
            </Position>
            <AltitudeMeters>467.600006103515625</AltitudeMeters>
            <DistanceMeters>NAN</DistanceMeters>
          </Trackpoint>
          <Trackpoint>
            <Time>2022-09-21T12:01:00.000Z</Time>
            <Position>
              <LatitudeDegrees>49.42605583928525447845458984375</LatitudeDegrees>
              <LongitudeDegrees>20.46480140648782253265380859375</LongitudeDegrees>
            </Position>
            <AltitudeMeters>467.600006103515625</AltitudeMeters>
            <DistanceMeters>NAN</DistanceMeters>
          </Trackpoint>
          <Trackpoint>
            <Time>2022-09-21T12:01:04.000Z</Time>
            <Position>
              <LatitudeDegrees>49.42613965831696987152099609375</LatitudeDegrees>
              <LongitudeDegrees>20.4648744128644466400146484375</LongitudeDegrees>
            </Position>
            <AltitudeMeters>467.600006103515625</AltitudeMeters>
            <DistanceMeters>NAN</DistanceMeters>
          </Trackpoint>
          <Trackpoint>
            <Time>2022-09-21T12:01:06.000Z</Time>
            <Position>
              <LatitudeDegrees>49.42619279958307743072509765625</LatitudeDegrees>
              <LongitudeDegrees>20.46490366570651531219482421875</LongitudeDegrees>
            </Position>
            <AltitudeMeters>467.79998779296875</AltitudeMeters>
            <DistanceMeters>NAN</DistanceMeters>
          </Trackpoint>
          <Trackpoint>
            <Time>2022-09-21T12:01:12.000Z</Time>
            <Position>
              <LatitudeDegrees>49.4263712503015995025634765625</LatitudeDegrees>
              <LongitudeDegrees>20.46498714946210384368896484375</LongitudeDegrees>
            </Position>
            <AltitudeMeters>468.399993896484375</AltitudeMeters>
            <DistanceMeters>NAN</DistanceMeters>
          </Trackpoint>
          <Trackpoint>
            <Time>2022-09-21T12:01:14.000Z</Time>
            <Position>
              <LatitudeDegrees>49.426425732672214508056640625</LatitudeDegrees>
              <LongitudeDegrees>20.46501807868480682373046875</LongitudeDegrees>
            </Position>
            <AltitudeMeters>468.600006103515625</AltitudeMeters>
            <DistanceMeters>NAN</DistanceMeters>
          </Trackpoint>
          <Trackpoint>
            <Time>2022-09-21T12:01:20.000Z</Time>
            <Position>
              <LatitudeDegrees>49.4265596754848957061767578125</LatitudeDegrees>
              <LongitudeDegrees>20.465111620724201202392578125</LongitudeDegrees>
            </Position>
            <AltitudeMeters>468.79998779296875</AltitudeMeters>
            <DistanceMeters>NAN</DistanceMeters>
          </Trackpoint>
          <Trackpoint>
            <Time>2022-09-21T12:01:28.000Z</Time>
            <Position>
              <LatitudeDegrees>49.42672572098672389984130859375</LatitudeDegrees>
              <LongitudeDegrees>20.46521044336259365081787109375</LongitudeDegrees>
            </Position>
            <AltitudeMeters>469.399993896484375</AltitudeMeters>
            <DistanceMeters>NAN</DistanceMeters>
          </Trackpoint>
          <Trackpoint>
            <Time>2022-09-21T12:01:33.000Z</Time>
            <Position>
              <LatitudeDegrees>49.426834769546985626220703125</LatitudeDegrees>
              <LongitudeDegrees>20.46531622298061847686767578125</LongitudeDegrees>
            </Position>
            <AltitudeMeters>469.600006103515625</AltitudeMeters>
            <DistanceMeters>NAN</DistanceMeters>
          </Trackpoint>
          <Trackpoint>
            <Time>2022-09-21T12:01:35.000Z</Time>
            <Position>
              <LatitudeDegrees>49.4268724881112575531005859375</LatitudeDegrees>
              <LongitudeDegrees>20.46535209752619266510009765625</LongitudeDegrees>
            </Position>
            <AltitudeMeters>469.600006103515625</AltitudeMeters>
            <DistanceMeters>NAN</DistanceMeters>
          </Trackpoint>
          <Trackpoint>
            <Time>2022-09-21T12:01:38.000Z</Time>
            <Position>
              <LatitudeDegrees>49.426901824772357940673828125</LatitudeDegrees>
              <LongitudeDegrees>20.46539618633687496185302734375</LongitudeDegrees>
            </Position>
            <AltitudeMeters>469.600006103515625</AltitudeMeters>
            <DistanceMeters>NAN</DistanceMeters>
          </Trackpoint>
          <Trackpoint>
            <Time>2022-09-21T12:01:40.000Z</Time>
            <Position>
              <LatitudeDegrees>49.42690551280975341796875</LatitudeDegrees>
              <LongitudeDegrees>20.46541831456124782562255859375</LongitudeDegrees>
            </Position>
            <AltitudeMeters>469.79998779296875</AltitudeMeters>
            <DistanceMeters>NAN</DistanceMeters>
          </Trackpoint>
          <Trackpoint>
            <Time>2022-09-21T12:01:46.000Z</Time>
            <Position>
              <LatitudeDegrees>49.426935017108917236328125</LatitudeDegrees>
              <LongitudeDegrees>20.4654125310480594635009765625</LongitudeDegrees>
            </Position>
            <AltitudeMeters>470.20001220703125</AltitudeMeters>
            <DistanceMeters>NAN</DistanceMeters>
          </Trackpoint>
          <Trackpoint>
            <Time>2022-09-21T12:01:51.000Z</Time>
            <Position>
              <LatitudeDegrees>49.42693744786083698272705078125</LatitudeDegrees>
              <LongitudeDegrees>20.465459637343883514404296875</LongitudeDegrees>
            </Position>
            <AltitudeMeters>470.399993896484375</AltitudeMeters>
            <DistanceMeters>NAN</DistanceMeters>
          </Trackpoint>
          <Trackpoint>
            <Time>2022-09-21T12:01:55.000Z</Time>
            <Position>
              <LatitudeDegrees>49.4269368611276149749755859375</LatitudeDegrees>
              <LongitudeDegrees>20.465493500232696533203125</LongitudeDegrees>
            </Position>
            <AltitudeMeters>470.20001220703125</AltitudeMeters>
            <DistanceMeters>NAN</DistanceMeters>
          </Trackpoint>
          <Trackpoint>
            <Time>2022-09-21T12:02:01.000Z</Time>
            <Position>
              <LatitudeDegrees>49.4269553013145923614501953125</LatitudeDegrees>
              <LongitudeDegrees>20.46548235230147838592529296875</LongitudeDegrees>
            </Position>
            <AltitudeMeters>470.399993896484375</AltitudeMeters>
            <DistanceMeters>NAN</DistanceMeters>
          </Trackpoint>
          <Trackpoint>
            <Time>2022-09-21T12:02:10.000Z</Time>
            <Position>
              <LatitudeDegrees>49.42696309648454189300537109375</LatitudeDegrees>
              <LongitudeDegrees>20.46548453159630298614501953125</LongitudeDegrees>
            </Position>
            <AltitudeMeters>470.20001220703125</AltitudeMeters>
            <DistanceMeters>NAN</DistanceMeters>
          </Trackpoint>
          <Trackpoint>
            <Time>2022-09-21T12:02:12.000Z</Time>
            <Position>
              <LatitudeDegrees>49.42696309648454189300537109375</LatitudeDegrees>
              <LongitudeDegrees>20.46548453159630298614501953125</LongitudeDegrees>
            </Position>
            <AltitudeMeters>470.20001220703125</AltitudeMeters>
            <DistanceMeters>NAN</DistanceMeters>
          </Trackpoint>
          <Trackpoint>
            <Time>2022-09-21T12:02:27.000Z</Time>
            <Position>
              <LatitudeDegrees>49.42697499878704547882080078125</LatitudeDegrees>
              <LongitudeDegrees>20.465483777225017547607421875</LongitudeDegrees>
            </Position>
            <AltitudeMeters>470.399993896484375</AltitudeMeters>
            <DistanceMeters>NAN</DistanceMeters>
          </Trackpoint>
          <Trackpoint>
            <Time>2022-09-21T12:02:29.000Z</Time>
            <Position>
              <LatitudeDegrees>49.42697499878704547882080078125</LatitudeDegrees>
              <LongitudeDegrees>20.465483777225017547607421875</LongitudeDegrees>
            </Position>
            <AltitudeMeters>470.399993896484375</AltitudeMeters>
            <DistanceMeters>NAN</DistanceMeters>
          </Trackpoint>
          <Trackpoint>
            <Time>2022-09-21T12:02:33.000Z</Time>
            <Position>
              <LatitudeDegrees>49.42697499878704547882080078125</LatitudeDegrees>
              <LongitudeDegrees>20.465483777225017547607421875</LongitudeDegrees>
            </Position>
            <AltitudeMeters>470.600006103515625</AltitudeMeters>
            <DistanceMeters>NAN</DistanceMeters>
          </Trackpoint>
          <Trackpoint>
            <Time>2022-09-21T12:02:40.000Z</Time>
            <Position>
              <LatitudeDegrees>49.426988326013088226318359375</LatitudeDegrees>
              <LongitudeDegrees>20.465481095016002655029296875</LongitudeDegrees>
            </Position>
            <AltitudeMeters>470.600006103515625</AltitudeMeters>
            <DistanceMeters>NAN</DistanceMeters>
          </Trackpoint>
          <Trackpoint>
            <Time>2022-09-21T12:02:42.000Z</Time>
            <Position>
              <LatitudeDegrees>49.42697818391025066375732421875</LatitudeDegrees>
              <LongitudeDegrees>20.4654849506914615631103515625</LongitudeDegrees>
            </Position>
            <AltitudeMeters>470.600006103515625</AltitudeMeters>
            <DistanceMeters>NAN</DistanceMeters>
          </Trackpoint>
          <Trackpoint>
            <Time>2022-09-21T12:02:44.000Z</Time>
            <Position>
              <LatitudeDegrees>49.42704523913562297821044921875</LatitudeDegrees>
              <LongitudeDegrees>20.46540071256458759307861328125</LongitudeDegrees>
            </Position>
            <AltitudeMeters>470.600006103515625</AltitudeMeters>
            <DistanceMeters>NAN</DistanceMeters>
          </Trackpoint>
          <Trackpoint>
            <Time>2022-09-21T12:02:50.000Z</Time>
            <Position>
              <LatitudeDegrees>49.4270139746367931365966796875</LatitudeDegrees>
              <LongitudeDegrees>20.4654304683208465576171875</LongitudeDegrees>
            </Position>
            <AltitudeMeters>470.600006103515625</AltitudeMeters>
            <DistanceMeters>NAN</DistanceMeters>
          </Trackpoint>
          <Trackpoint>
            <Time>2022-09-21T12:02:55.000Z</Time>
            <Position>
              <LatitudeDegrees>49.42690056748688220977783203125</LatitudeDegrees>
              <LongitudeDegrees>20.4653964377939701080322265625</LongitudeDegrees>
            </Position>
            <AltitudeMeters>470.399993896484375</AltitudeMeters>
            <DistanceMeters>NAN</DistanceMeters>
          </Trackpoint>
          <Trackpoint>
            <Time>2022-09-21T12:02:58.000Z</Time>
            <Position>
              <LatitudeDegrees>49.42702663131058216094970703125</LatitudeDegrees>
              <LongitudeDegrees>20.46528286300599575042724609375</LongitudeDegrees>
            </Position>
            <AltitudeMeters>470.20001220703125</AltitudeMeters>
            <DistanceMeters>NAN</DistanceMeters>
          </Trackpoint>
          <Trackpoint>
            <Time>2022-09-21T12:03:06.000Z</Time>
            <Position>
              <LatitudeDegrees>49.42687257193028926849365234375</LatitudeDegrees>
              <LongitudeDegrees>20.46567630954086780548095703125</LongitudeDegrees>
            </Position>
            <AltitudeMeters>470.600006103515625</AltitudeMeters>
            <DistanceMeters>NAN</DistanceMeters>
          </Trackpoint>
          <Trackpoint>
            <Time>2022-09-21T12:03:12.000Z</Time>
            <Position>
              <LatitudeDegrees>49.42690886557102203369140625</LatitudeDegrees>
              <LongitudeDegrees>20.46563372947275638580322265625</LongitudeDegrees>
            </Position>
            <AltitudeMeters>470.79998779296875</AltitudeMeters>
            <DistanceMeters>NAN</DistanceMeters>
          </Trackpoint>
          <Trackpoint>
            <Time>2022-09-21T12:03:18.000Z</Time>
            <Position>
              <LatitudeDegrees>49.42697214893996715545654296875</LatitudeDegrees>
              <LongitudeDegrees>20.46548872254788875579833984375</LongitudeDegrees>
            </Position>
            <AltitudeMeters>470.79998779296875</AltitudeMeters>
            <DistanceMeters>NAN</DistanceMeters>
          </Trackpoint>
          <Trackpoint>
            <Time>2022-09-21T12:03:20.000Z</Time>
            <Position>
              <LatitudeDegrees>49.4270052574574947357177734375</LatitudeDegrees>
              <LongitudeDegrees>20.46540440060198307037353515625</LongitudeDegrees>
            </Position>
            <AltitudeMeters>470.79998779296875</AltitudeMeters>
            <DistanceMeters>NAN</DistanceMeters>
          </Trackpoint>
          <Trackpoint>
            <Time>2022-09-21T12:03:21.000Z</Time>
            <Position>
              <LatitudeDegrees>49.4270076043903827667236328125</LatitudeDegrees>
              <LongitudeDegrees>20.46538629569113254547119140625</LongitudeDegrees>
            </Position>
            <AltitudeMeters>470.79998779296875</AltitudeMeters>
            <DistanceMeters>NAN</DistanceMeters>
          </Trackpoint>
          <Trackpoint>
            <Time>2022-09-21T12:03:29.000Z</Time>
            <Position>
              <LatitudeDegrees>49.42699813283979892730712890625</LatitudeDegrees>
              <LongitudeDegrees>20.465210191905498504638671875</LongitudeDegrees>
            </Position>
            <AltitudeMeters>470.79998779296875</AltitudeMeters>
            <DistanceMeters>NAN</DistanceMeters>
          </Trackpoint>
          <Trackpoint>
            <Time>2022-09-21T12:03:42.000Z</Time>
            <Position>
              <LatitudeDegrees>49.4271289743483066558837890625</LatitudeDegrees>
              <LongitudeDegrees>20.46510080806910991668701171875</LongitudeDegrees>
            </Position>
            <AltitudeMeters>470.79998779296875</AltitudeMeters>
            <DistanceMeters>NAN</DistanceMeters>
          </Trackpoint>
          <Trackpoint>
            <Time>2022-09-21T12:03:50.000Z</Time>
            <Position>
              <LatitudeDegrees>49.42679964937269687652587890625</LatitudeDegrees>
              <LongitudeDegrees>20.46533164568245410919189453125</LongitudeDegrees>
            </Position>
            <AltitudeMeters>470.79998779296875</AltitudeMeters>
            <DistanceMeters>NAN</DistanceMeters>
          </Trackpoint>
          <Trackpoint>
            <Time>2022-09-21T12:04:00.000Z</Time>
            <Position>
              <LatitudeDegrees>49.42609607242047786712646484375</LatitudeDegrees>
              <LongitudeDegrees>20.4667489416897296905517578125</LongitudeDegrees>
            </Position>
            <AltitudeMeters>470.79998779296875</AltitudeMeters>
            <DistanceMeters>NAN</DistanceMeters>
          </Trackpoint>
          <Trackpoint>
            <Time>2022-09-21T12:04:09.000Z</Time>
            <Position>
              <LatitudeDegrees>49.4270364381372928619384765625</LatitudeDegrees>
              <LongitudeDegrees>20.465407334268093109130859375</LongitudeDegrees>
            </Position>
            <AltitudeMeters>470.79998779296875</AltitudeMeters>
            <DistanceMeters>NAN</DistanceMeters>
          </Trackpoint>
          <Trackpoint>
            <Time>2022-09-21T12:04:38.000Z</Time>
            <Position>
              <LatitudeDegrees>49.4270114600658416748046875</LatitudeDegrees>
              <LongitudeDegrees>20.46533432789146900177001953125</LongitudeDegrees>
            </Position>
            <AltitudeMeters>470.600006103515625</AltitudeMeters>
            <DistanceMeters>NAN</DistanceMeters>
          </Trackpoint>
          <Trackpoint>
            <Time>2022-09-21T12:07:27.000Z</Time>
            <Position>
              <LatitudeDegrees>49.426906518638134002685546875</LatitudeDegrees>
              <LongitudeDegrees>20.46548050828278064727783203125</LongitudeDegrees>
            </Position>
            <AltitudeMeters>470.600006103515625</AltitudeMeters>
            <DistanceMeters>NAN</DistanceMeters>
          </Trackpoint>
          <Trackpoint>
            <Time>2022-09-21T12:07:46.000Z</Time>
            <Position>
              <LatitudeDegrees>49.426901824772357940673828125</LatitudeDegrees>
              <LongitudeDegrees>20.4655077494680881500244140625</LongitudeDegrees>
            </Position>
            <AltitudeMeters>470.600006103515625</AltitudeMeters>
            <DistanceMeters>NAN</DistanceMeters>
          </Trackpoint>
          <Trackpoint>
            <Time>2022-09-21T12:07:47.000Z</Time>
            <Position>
              <LatitudeDegrees>49.4268946163356304168701171875</LatitudeDegrees>
              <LongitudeDegrees>20.46550313942134380340576171875</LongitudeDegrees>
            </Position>
            <AltitudeMeters>470.600006103515625</AltitudeMeters>
            <DistanceMeters>NAN</DistanceMeters>
          </Trackpoint>
          <Trackpoint>
            <Time>2022-09-21T12:08:02.000Z</Time>
            <Position>
              <LatitudeDegrees>49.4268969632685184478759765625</LatitudeDegrees>
              <LongitudeDegrees>20.46547967009246349334716796875</LongitudeDegrees>
            </Position>
            <AltitudeMeters>470.600006103515625</AltitudeMeters>
            <DistanceMeters>NAN</DistanceMeters>
          </Trackpoint>
          <Trackpoint>
            <Time>2022-09-21T12:08:06.000Z</Time>
            <Position>
              <LatitudeDegrees>49.4269041717052459716796875</LatitudeDegrees>
              <LongitudeDegrees>20.465451590716838836669921875</LongitudeDegrees>
            </Position>
            <AltitudeMeters>470.600006103515625</AltitudeMeters>
            <DistanceMeters>NAN</DistanceMeters>
          </Trackpoint>
          <Trackpoint>
            <Time>2022-09-21T12:08:13.000Z</Time>
            <Position>
              <LatitudeDegrees>49.4269068539142608642578125</LatitudeDegrees>
              <LongitudeDegrees>20.46540557406842708587646484375</LongitudeDegrees>
            </Position>
            <AltitudeMeters>470.600006103515625</AltitudeMeters>
            <DistanceMeters>NAN</DistanceMeters>
          </Trackpoint>
          <Trackpoint>
            <Time>2022-09-21T12:08:19.000Z</Time>
            <Position>
              <LatitudeDegrees>49.42690425552427768707275390625</LatitudeDegrees>
              <LongitudeDegrees>20.46541077084839344024658203125</LongitudeDegrees>
            </Position>
            <AltitudeMeters>470.600006103515625</AltitudeMeters>
            <DistanceMeters>NAN</DistanceMeters>
          </Trackpoint>
          <Trackpoint>
            <Time>2022-09-21T12:08:27.000Z</Time>
            <Position>
              <LatitudeDegrees>49.42689755000174045562744140625</LatitudeDegrees>
              <LongitudeDegrees>20.46542300842702388763427734375</LongitudeDegrees>
            </Position>
            <AltitudeMeters>470.600006103515625</AltitudeMeters>
            <DistanceMeters>NAN</DistanceMeters>
          </Trackpoint>
          <Trackpoint>
            <Time>2022-09-21T12:08:31.000Z</Time>
            <Position>
              <LatitudeDegrees>49.42689922638237476348876953125</LatitudeDegrees>
              <LongitudeDegrees>20.4654286243021488189697265625</LongitudeDegrees>
            </Position>
            <AltitudeMeters>470.600006103515625</AltitudeMeters>
            <DistanceMeters>NAN</DistanceMeters>
          </Trackpoint>
          <Trackpoint>
            <Time>2022-09-21T12:08:33.000Z</Time>
            <Position>
              <LatitudeDegrees>49.42690190859138965606689453125</LatitudeDegrees>
              <LongitudeDegrees>20.46542904339730739593505859375</LongitudeDegrees>
            </Position>
            <AltitudeMeters>470.600006103515625</AltitudeMeters>
            <DistanceMeters>NAN</DistanceMeters>
          </Trackpoint>
          <Trackpoint>
            <Time>2022-09-21T12:08:34.000Z</Time>
            <Position>
              <LatitudeDegrees>49.42690207622945308685302734375</LatitudeDegrees>
              <LongitudeDegrees>20.4654175601899623870849609375</LongitudeDegrees>
            </Position>
            <AltitudeMeters>470.600006103515625</AltitudeMeters>
            <DistanceMeters>NAN</DistanceMeters>
          </Trackpoint>
          <Trackpoint>
            <Time>2022-09-21T12:08:38.000Z</Time>
            <Position>
              <LatitudeDegrees>49.42690484225749969482421875</LatitudeDegrees>
              <LongitudeDegrees>20.46542175114154815673828125</LongitudeDegrees>
            </Position>
            <AltitudeMeters>470.600006103515625</AltitudeMeters>
            <DistanceMeters>NAN</DistanceMeters>
          </Trackpoint>
          <Trackpoint>
            <Time>2022-09-21T12:08:39.000Z</Time>
            <Position>
              <LatitudeDegrees>49.42691716365516185760498046875</LatitudeDegrees>
              <LongitudeDegrees>20.4654205776751041412353515625</LongitudeDegrees>
            </Position>
            <AltitudeMeters>470.600006103515625</AltitudeMeters>
            <DistanceMeters>NAN</DistanceMeters>
          </Trackpoint>
          <Trackpoint>
            <Time>2022-09-21T12:08:41.000Z</Time>
            <Position>
              <LatitudeDegrees>49.42695220001041889190673828125</LatitudeDegrees>
              <LongitudeDegrees>20.4654232598841190338134765625</LongitudeDegrees>
            </Position>
            <AltitudeMeters>470.600006103515625</AltitudeMeters>
            <DistanceMeters>NAN</DistanceMeters>
          </Trackpoint>
          <Trackpoint>
            <Time>2022-09-21T12:08:44.000Z</Time>
            <Position>
              <LatitudeDegrees>49.42698472179472446441650390625</LatitudeDegrees>
              <LongitudeDegrees>20.465469695627689361572265625</LongitudeDegrees>
            </Position>
            <AltitudeMeters>470.79998779296875</AltitudeMeters>
            <DistanceMeters>NAN</DistanceMeters>
          </Trackpoint>
          <Trackpoint>
            <Time>2022-09-21T12:08:46.000Z</Time>
            <Position>
              <LatitudeDegrees>49.4270019046962261199951171875</LatitudeDegrees>
              <LongitudeDegrees>20.46551554463803768157958984375</LongitudeDegrees>
            </Position>
            <AltitudeMeters>470.79998779296875</AltitudeMeters>
            <DistanceMeters>NAN</DistanceMeters>
          </Trackpoint>
          <Trackpoint>
            <Time>2022-09-21T12:08:48.000Z</Time>
            <Position>
              <LatitudeDegrees>49.4270112924277782440185546875</LatitudeDegrees>
              <LongitudeDegrees>20.46557052992284297943115234375</LongitudeDegrees>
            </Position>
            <AltitudeMeters>470.79998779296875</AltitudeMeters>
            <DistanceMeters>NAN</DistanceMeters>
          </Trackpoint>
          <Trackpoint>
            <Time>2022-09-21T12:08:52.000Z</Time>
            <Position>
              <LatitudeDegrees>49.42703585140407085418701171875</LatitudeDegrees>
              <LongitudeDegrees>20.46563372947275638580322265625</LongitudeDegrees>
            </Position>
            <AltitudeMeters>471</AltitudeMeters>
            <DistanceMeters>NAN</DistanceMeters>
          </Trackpoint>
          <Trackpoint>
            <Time>2022-09-21T12:08:57.000Z</Time>
            <Position>
              <LatitudeDegrees>49.4270686246454715728759765625</LatitudeDegrees>
              <LongitudeDegrees>20.46571411192417144775390625</LongitudeDegrees>
            </Position>
            <AltitudeMeters>471.20001220703125</AltitudeMeters>
            <DistanceMeters>NAN</DistanceMeters>
          </Trackpoint>
          <Trackpoint>
            <Time>2022-09-21T12:09:00.000Z</Time>
            <Position>
              <LatitudeDegrees>49.42709796130657196044921875</LatitudeDegrees>
              <LongitudeDegrees>20.465745627880096435546875</LongitudeDegrees>
            </Position>
            <AltitudeMeters>471.20001220703125</AltitudeMeters>
            <DistanceMeters>NAN</DistanceMeters>
          </Trackpoint>
          <Trackpoint>
            <Time>2022-09-21T12:09:02.000Z</Time>
            <Position>
              <LatitudeDegrees>49.42712386138737201690673828125</LatitudeDegrees>
              <LongitudeDegrees>20.465764068067073822021484375</LongitudeDegrees>
            </Position>
            <AltitudeMeters>471.20001220703125</AltitudeMeters>
            <DistanceMeters>NAN</DistanceMeters>
          </Trackpoint>
          <Trackpoint>
            <Time>2022-09-21T12:09:03.000Z</Time>
            <Position>
              <LatitudeDegrees>49.4271279685199260711669921875</LatitudeDegrees>
              <LongitudeDegrees>20.46577714383602142333984375</LongitudeDegrees>
            </Position>
            <AltitudeMeters>471.399993896484375</AltitudeMeters>
            <DistanceMeters>NAN</DistanceMeters>
          </Trackpoint>
          <Trackpoint>
            <Time>2022-09-21T12:09:05.000Z</Time>
            <Position>
              <LatitudeDegrees>49.42714221775531768798828125</LatitudeDegrees>
              <LongitudeDegrees>20.46581041999161243438720703125</LongitudeDegrees>
            </Position>
            <AltitudeMeters>471.399993896484375</AltitudeMeters>
            <DistanceMeters>NAN</DistanceMeters>
          </Trackpoint>
          <Trackpoint>
            <Time>2022-09-21T12:09:07.000Z</Time>
            <Position>
              <LatitudeDegrees>49.4271604903042316436767578125</LatitudeDegrees>
              <LongitudeDegrees>20.4658232443034648895263671875</LongitudeDegrees>
            </Position>
            <AltitudeMeters>471.399993896484375</AltitudeMeters>
            <DistanceMeters>NAN</DistanceMeters>
          </Trackpoint>
          <Trackpoint>
            <Time>2022-09-21T12:09:13.000Z</Time>
            <Position>
              <LatitudeDegrees>49.42719049751758575439453125</LatitudeDegrees>
              <LongitudeDegrees>20.46593195758759975433349609375</LongitudeDegrees>
            </Position>
            <AltitudeMeters>471.399993896484375</AltitudeMeters>
            <DistanceMeters>NAN</DistanceMeters>
          </Trackpoint>
          <Trackpoint>
            <Time>2022-09-21T12:09:15.000Z</Time>
            <Position>
              <LatitudeDegrees>49.42720650695264339447021484375</LatitudeDegrees>
              <LongitudeDegrees>20.46595023013651371002197265625</LongitudeDegrees>
            </Position>
            <AltitudeMeters>471.399993896484375</AltitudeMeters>
            <DistanceMeters>NAN</DistanceMeters>
          </Trackpoint>
          <Trackpoint>
            <Time>2022-09-21T12:09:16.000Z</Time>
            <Position>
              <LatitudeDegrees>49.427214302122592926025390625</LatitudeDegrees>
              <LongitudeDegrees>20.46595425345003604888916015625</LongitudeDegrees>
            </Position>
            <AltitudeMeters>471.600006103515625</AltitudeMeters>
            <DistanceMeters>NAN</DistanceMeters>
          </Trackpoint>
          <Trackpoint>
            <Time>2022-09-21T12:09:18.000Z</Time>
            <Position>
              <LatitudeDegrees>49.42722042091190814971923828125</LatitudeDegrees>
              <LongitudeDegrees>20.46598928980529308319091796875</LongitudeDegrees>
            </Position>
            <AltitudeMeters>471.600006103515625</AltitudeMeters>
            <DistanceMeters>NAN</DistanceMeters>
          </Trackpoint>
          <Trackpoint>
            <Time>2022-09-21T12:09:19.000Z</Time>
            <Position>
              <LatitudeDegrees>49.42722209729254245758056640625</LatitudeDegrees>
              <LongitudeDegrees>20.46601586043834686279296875</LongitudeDegrees>
            </Position>
            <AltitudeMeters>471.600006103515625</AltitudeMeters>
            <DistanceMeters>NAN</DistanceMeters>
          </Trackpoint>
          <Trackpoint>
            <Time>2022-09-21T12:09:21.000Z</Time>
            <Position>
              <LatitudeDegrees>49.4272329099476337432861328125</LatitudeDegrees>
              <LongitudeDegrees>20.4660715162754058837890625</LongitudeDegrees>
            </Position>
            <AltitudeMeters>471.600006103515625</AltitudeMeters>
            <DistanceMeters>NAN</DistanceMeters>
          </Trackpoint>
          <Trackpoint>
            <Time>2022-09-21T12:09:24.000Z</Time>
            <Position>
              <LatitudeDegrees>49.4272520206868648529052734375</LatitudeDegrees>
              <LongitudeDegrees>20.4661142639815807342529296875</LongitudeDegrees>
            </Position>
            <AltitudeMeters>471.600006103515625</AltitudeMeters>
            <DistanceMeters>NAN</DistanceMeters>
          </Trackpoint>
          <Trackpoint>
            <Time>2022-09-21T12:09:30.000Z</Time>
            <Position>
              <LatitudeDegrees>49.42727607674896717071533203125</LatitudeDegrees>
              <LongitudeDegrees>20.466232784092426300048828125</LongitudeDegrees>
            </Position>
            <AltitudeMeters>472</AltitudeMeters>
            <DistanceMeters>NAN</DistanceMeters>
          </Trackpoint>
          <Trackpoint>
            <Time>2022-09-21T12:09:31.000Z</Time>
            <Position>
              <LatitudeDegrees>49.4272821955382823944091796875</LatitudeDegrees>
              <LongitudeDegrees>20.46623789705336093902587890625</LongitudeDegrees>
            </Position>
            <AltitudeMeters>472</AltitudeMeters>
            <DistanceMeters>NAN</DistanceMeters>
          </Trackpoint>
          <Trackpoint>
            <Time>2022-09-21T12:09:33.000Z</Time>
            <Position>
              <LatitudeDegrees>49.4272778369486331939697265625</LatitudeDegrees>
              <LongitudeDegrees>20.46625751070678234100341796875</LongitudeDegrees>
            </Position>
            <AltitudeMeters>472.20001220703125</AltitudeMeters>
            <DistanceMeters>NAN</DistanceMeters>
          </Trackpoint>
          <Trackpoint>
            <Time>2022-09-21T12:09:35.000Z</Time>
            <Position>
              <LatitudeDegrees>49.42727607674896717071533203125</LatitudeDegrees>
              <LongitudeDegrees>20.46629992313683032989501953125</LongitudeDegrees>
            </Position>
            <AltitudeMeters>472.20001220703125</AltitudeMeters>
            <DistanceMeters>NAN</DistanceMeters>
          </Trackpoint>
          <Trackpoint>
            <Time>2022-09-21T12:09:36.000Z</Time>
            <Position>
              <LatitudeDegrees>49.4272771663963794708251953125</LatitudeDegrees>
              <LongitudeDegrees>20.46631316654384136199951171875</LongitudeDegrees>
            </Position>
            <AltitudeMeters>472.20001220703125</AltitudeMeters>
            <DistanceMeters>NAN</DistanceMeters>
          </Trackpoint>
          <Trackpoint>
            <Time>2022-09-21T12:09:37.000Z</Time>
            <Position>
              <LatitudeDegrees>49.42728127352893352508544921875</LatitudeDegrees>
              <LongitudeDegrees>20.46632858924567699432373046875</LongitudeDegrees>
            </Position>
            <AltitudeMeters>472.20001220703125</AltitudeMeters>
            <DistanceMeters>NAN</DistanceMeters>
          </Trackpoint>
          <Trackpoint>
            <Time>2022-09-21T12:09:42.000Z</Time>
            <Position>
              <LatitudeDegrees>49.4272969476878643035888671875</LatitudeDegrees>
              <LongitudeDegrees>20.46641819179058074951171875</LongitudeDegrees>
            </Position>
            <AltitudeMeters>472</AltitudeMeters>
            <DistanceMeters>NAN</DistanceMeters>
          </Trackpoint>
          <Trackpoint>
            <Time>2022-09-21T12:09:47.000Z</Time>
            <Position>
              <LatitudeDegrees>49.42731061019003391265869140625</LatitudeDegrees>
              <LongitudeDegrees>20.46649186871945858001708984375</LongitudeDegrees>
            </Position>
            <AltitudeMeters>472.20001220703125</AltitudeMeters>
            <DistanceMeters>NAN</DistanceMeters>
          </Trackpoint>
          <Trackpoint>
            <Time>2022-09-21T12:09:50.000Z</Time>
            <Position>
              <LatitudeDegrees>49.42731480114161968231201171875</LatitudeDegrees>
              <LongitudeDegrees>20.466539226472377777099609375</LongitudeDegrees>
            </Position>
            <AltitudeMeters>472.20001220703125</AltitudeMeters>
            <DistanceMeters>NAN</DistanceMeters>
          </Trackpoint>
          <Trackpoint>
            <Time>2022-09-21T12:09:55.000Z</Time>
            <Position>
              <LatitudeDegrees>49.42732502706348896026611328125</LatitudeDegrees>
              <LongitudeDegrees>20.4666208662092685699462890625</LongitudeDegrees>
            </Position>
            <AltitudeMeters>472.399993896484375</AltitudeMeters>
            <DistanceMeters>NAN</DistanceMeters>
          </Trackpoint>
          <Trackpoint>
            <Time>2022-09-21T12:09:58.000Z</Time>
            <Position>
              <LatitudeDegrees>49.42734011448919773101806640625</LatitudeDegrees>
              <LongitudeDegrees>20.46668129973113536834716796875</LongitudeDegrees>
            </Position>
            <AltitudeMeters>472.399993896484375</AltitudeMeters>
            <DistanceMeters>NAN</DistanceMeters>
          </Trackpoint>
          <Trackpoint>
            <Time>2022-09-21T12:10:03.000Z</Time>
            <Position>
              <LatitudeDegrees>49.4273375160992145538330078125</LatitudeDegrees>
              <LongitudeDegrees>20.46673863194882869720458984375</LongitudeDegrees>
            </Position>
            <AltitudeMeters>472.399993896484375</AltitudeMeters>
            <DistanceMeters>NAN</DistanceMeters>
          </Trackpoint>
          <Trackpoint>
            <Time>2022-09-21T12:10:04.000Z</Time>
            <Position>
              <LatitudeDegrees>49.42733190022408962249755859375</LatitudeDegrees>
              <LongitudeDegrees>20.46674064360558986663818359375</LongitudeDegrees>
            </Position>
            <AltitudeMeters>472.399993896484375</AltitudeMeters>
            <DistanceMeters>NAN</DistanceMeters>
          </Trackpoint>
          <Trackpoint>
            <Time>2022-09-21T12:10:11.000Z</Time>
            <Position>
              <LatitudeDegrees>49.427313543856143951416015625</LatitudeDegrees>
              <LongitudeDegrees>20.46685430221259593963623046875</LongitudeDegrees>
            </Position>
            <AltitudeMeters>472.399993896484375</AltitudeMeters>
            <DistanceMeters>NAN</DistanceMeters>
          </Trackpoint>
          <Trackpoint>
            <Time>2022-09-21T12:10:19.000Z</Time>
            <Position>
              <LatitudeDegrees>49.42732066847383975982666015625</LatitudeDegrees>
              <LongitudeDegrees>20.4670076072216033935546875</LongitudeDegrees>
            </Position>
            <AltitudeMeters>472.20001220703125</AltitudeMeters>
            <DistanceMeters>NAN</DistanceMeters>
          </Trackpoint>
          <Trackpoint>
            <Time>2022-09-21T12:10:24.000Z</Time>
            <Position>
              <LatitudeDegrees>49.4273241050541400909423828125</LatitudeDegrees>
              <LongitudeDegrees>20.46710081398487091064453125</LongitudeDegrees>
            </Position>
            <AltitudeMeters>472.20001220703125</AltitudeMeters>
            <DistanceMeters>NAN</DistanceMeters>
          </Trackpoint>
          <Trackpoint>
            <Time>2022-09-21T12:10:26.000Z</Time>
            <Position>
              <LatitudeDegrees>49.4273338280618190765380859375</LatitudeDegrees>
              <LongitudeDegrees>20.4671304859220981597900390625</LongitudeDegrees>
            </Position>
            <AltitudeMeters>472.20001220703125</AltitudeMeters>
            <DistanceMeters>NAN</DistanceMeters>
          </Trackpoint>
          <Trackpoint>
            <Time>2022-09-21T12:10:31.000Z</Time>
            <Position>
              <LatitudeDegrees>49.4273247756063938140869140625</LatitudeDegrees>
              <LongitudeDegrees>20.4672344215214252471923828125</LongitudeDegrees>
            </Position>
            <AltitudeMeters>472.20001220703125</AltitudeMeters>
            <DistanceMeters>NAN</DistanceMeters>
          </Trackpoint>
          <Trackpoint>
            <Time>2022-09-21T12:10:37.000Z</Time>
            <Position>
              <LatitudeDegrees>49.42730247974395751953125</LatitudeDegrees>
              <LongitudeDegrees>20.46731195412576198577880859375</LongitudeDegrees>
            </Position>
            <AltitudeMeters>472.20001220703125</AltitudeMeters>
            <DistanceMeters>NAN</DistanceMeters>
          </Trackpoint>
          <Trackpoint>
            <Time>2022-09-21T12:10:39.000Z</Time>
            <Position>
              <LatitudeDegrees>49.42730323411524295806884765625</LatitudeDegrees>
              <LongitudeDegrees>20.46733441762626171112060546875</LongitudeDegrees>
            </Position>
            <AltitudeMeters>472.20001220703125</AltitudeMeters>
            <DistanceMeters>NAN</DistanceMeters>
          </Trackpoint>
          <Trackpoint>
            <Time>2022-09-21T12:10:46.000Z</Time>
            <Position>
              <LatitudeDegrees>49.42728965543210506439208984375</LatitudeDegrees>
              <LongitudeDegrees>20.46740029938519001007080078125</LongitudeDegrees>
            </Position>
            <AltitudeMeters>472.20001220703125</AltitudeMeters>
            <DistanceMeters>NAN</DistanceMeters>
          </Trackpoint>
          <Trackpoint>
            <Time>2022-09-21T12:10:51.000Z</Time>
            <Position>
              <LatitudeDegrees>49.42724774591624736785888671875</LatitudeDegrees>
              <LongitudeDegrees>20.46748847700655460357666015625</LongitudeDegrees>
            </Position>
            <AltitudeMeters>472.20001220703125</AltitudeMeters>
            <DistanceMeters>NAN</DistanceMeters>
          </Trackpoint>
          <Trackpoint>
            <Time>2022-09-21T12:10:56.000Z</Time>
            <Position>
              <LatitudeDegrees>49.42723433487117290496826171875</LatitudeDegrees>
              <LongitudeDegrees>20.467550754547119140625</LongitudeDegrees>
            </Position>
            <AltitudeMeters>472</AltitudeMeters>
            <DistanceMeters>NAN</DistanceMeters>
          </Trackpoint>
          <Trackpoint>
            <Time>2022-09-21T12:11:01.000Z</Time>
            <Position>
              <LatitudeDegrees>49.42721731960773468017578125</LatitudeDegrees>
              <LongitudeDegrees>20.46761990524828433990478515625</LongitudeDegrees>
            </Position>
            <AltitudeMeters>471.79998779296875</AltitudeMeters>
            <DistanceMeters>NAN</DistanceMeters>
          </Trackpoint>
          <Trackpoint>
            <Time>2022-09-21T12:11:03.000Z</Time>
            <Position>
              <LatitudeDegrees>49.42721120081841945648193359375</LatitudeDegrees>
              <LongitudeDegrees>20.46764421276748180389404296875</LongitudeDegrees>
            </Position>
            <AltitudeMeters>471.79998779296875</AltitudeMeters>
            <DistanceMeters>NAN</DistanceMeters>
          </Trackpoint>
          <Trackpoint>
            <Time>2022-09-21T12:11:11.000Z</Time>
            <Position>
              <LatitudeDegrees>49.42722578532993793487548828125</LatitudeDegrees>
              <LongitudeDegrees>20.4677581228315830230712890625</LongitudeDegrees>
            </Position>
            <AltitudeMeters>471.79998779296875</AltitudeMeters>
            <DistanceMeters>NAN</DistanceMeters>
          </Trackpoint>
          <Trackpoint>
            <Time>2022-09-21T12:11:12.000Z</Time>
            <Position>
              <LatitudeDegrees>49.42723232321441173553466796875</LatitudeDegrees>
              <LongitudeDegrees>20.46777538955211639404296875</LongitudeDegrees>
            </Position>
            <AltitudeMeters>471.79998779296875</AltitudeMeters>
            <DistanceMeters>NAN</DistanceMeters>
          </Trackpoint>
          <Trackpoint>
            <Time>2022-09-21T12:11:14.000Z</Time>
            <Position>
              <LatitudeDegrees>49.42723098210990428924560546875</LatitudeDegrees>
              <LongitudeDegrees>20.46780665405094623565673828125</LongitudeDegrees>
            </Position>
            <AltitudeMeters>471.79998779296875</AltitudeMeters>
            <DistanceMeters>NAN</DistanceMeters>
          </Trackpoint>
          <Trackpoint>
            <Time>2022-09-21T12:11:19.000Z</Time>
            <Position>
              <LatitudeDegrees>49.427238442003726959228515625</LatitudeDegrees>
              <LongitudeDegrees>20.46788007952272891998291015625</LongitudeDegrees>
            </Position>
            <AltitudeMeters>471.79998779296875</AltitudeMeters>
            <DistanceMeters>NAN</DistanceMeters>
          </Trackpoint>
          <Trackpoint>
            <Time>2022-09-21T12:11:20.000Z</Time>
            <Position>
              <LatitudeDegrees>49.42723936401307582855224609375</LatitudeDegrees>
              <LongitudeDegrees>20.46789634041488170623779296875</LongitudeDegrees>
            </Position>
            <AltitudeMeters>471.79998779296875</AltitudeMeters>
            <DistanceMeters>NAN</DistanceMeters>
          </Trackpoint>
          <Trackpoint>
            <Time>2022-09-21T12:11:23.000Z</Time>
            <Position>
              <LatitudeDegrees>49.42724623717367649078369140625</LatitudeDegrees>
              <LongitudeDegrees>20.46794839203357696533203125</LongitudeDegrees>
            </Position>
            <AltitudeMeters>471.79998779296875</AltitudeMeters>
            <DistanceMeters>NAN</DistanceMeters>
          </Trackpoint>
          <Trackpoint>
            <Time>2022-09-21T12:11:26.000Z</Time>
            <Position>
              <LatitudeDegrees>49.4272593967616558074951171875</LatitudeDegrees>
              <LongitudeDegrees>20.4679924808442592620849609375</LongitudeDegrees>
            </Position>
            <AltitudeMeters>471.79998779296875</AltitudeMeters>
            <DistanceMeters>NAN</DistanceMeters>
          </Trackpoint>
          <Trackpoint>
            <Time>2022-09-21T12:11:27.000Z</Time>
            <Position>
              <LatitudeDegrees>49.42725847475230693817138671875</LatitudeDegrees>
              <LongitudeDegrees>20.4680038802325725555419921875</LongitudeDegrees>
            </Position>
            <AltitudeMeters>471.79998779296875</AltitudeMeters>
            <DistanceMeters>NAN</DistanceMeters>
          </Trackpoint>
          <Trackpoint>
            <Time>2022-09-21T12:11:29.000Z</Time>
            <Position>
              <LatitudeDegrees>49.427250511944293975830078125</LatitudeDegrees>
              <LongitudeDegrees>20.4680300317704677581787109375</LongitudeDegrees>
            </Position>
            <AltitudeMeters>471.79998779296875</AltitudeMeters>
            <DistanceMeters>NAN</DistanceMeters>
          </Trackpoint>
          <Trackpoint>
            <Time>2022-09-21T12:11:31.000Z</Time>
            <Position>
              <LatitudeDegrees>49.427245147526264190673828125</LatitudeDegrees>
              <LongitudeDegrees>20.46805542893707752227783203125</LongitudeDegrees>
            </Position>
            <AltitudeMeters>471.79998779296875</AltitudeMeters>
            <DistanceMeters>NAN</DistanceMeters>
          </Trackpoint>
          <Trackpoint>
            <Time>2022-09-21T12:11:39.000Z</Time>
            <Position>
              <LatitudeDegrees>49.42725612781941890716552734375</LatitudeDegrees>
              <LongitudeDegrees>20.4681577719748020172119140625</LongitudeDegrees>
            </Position>
            <AltitudeMeters>471.600006103515625</AltitudeMeters>
            <DistanceMeters>NAN</DistanceMeters>
          </Trackpoint>
          <Trackpoint>
            <Time>2022-09-21T12:11:47.000Z</Time>
            <Position>
              <LatitudeDegrees>49.4272483326494693756103515625</LatitudeDegrees>
              <LongitudeDegrees>20.4682506434619426727294921875</LongitudeDegrees>
            </Position>
            <AltitudeMeters>471.600006103515625</AltitudeMeters>
            <DistanceMeters>NAN</DistanceMeters>
          </Trackpoint>
          <Trackpoint>
            <Time>2022-09-21T12:11:55.000Z</Time>
            <Position>
              <LatitudeDegrees>49.42725864239037036895751953125</LatitudeDegrees>
              <LongitudeDegrees>20.46829950995743274688720703125</LongitudeDegrees>
            </Position>
            <AltitudeMeters>471.399993896484375</AltitudeMeters>
            <DistanceMeters>NAN</DistanceMeters>
          </Trackpoint>
          <Trackpoint>
            <Time>2022-09-21T12:12:01.000Z</Time>
            <Position>
              <LatitudeDegrees>49.42727238871157169342041015625</LatitudeDegrees>
              <LongitudeDegrees>20.46836321242153644561767578125</LongitudeDegrees>
            </Position>
            <AltitudeMeters>471.600006103515625</AltitudeMeters>
            <DistanceMeters>NAN</DistanceMeters>
          </Trackpoint>
          <Trackpoint>
            <Time>2022-09-21T12:12:07.000Z</Time>
            <Position>
              <LatitudeDegrees>49.4272577203810214996337890625</LatitudeDegrees>
              <LongitudeDegrees>20.4684246517717838287353515625</LongitudeDegrees>
            </Position>
            <AltitudeMeters>471.79998779296875</AltitudeMeters>
            <DistanceMeters>NAN</DistanceMeters>
          </Trackpoint>
          <Trackpoint>
            <Time>2022-09-21T12:12:11.000Z</Time>
            <Position>
              <LatitudeDegrees>49.42725956439971923828125</LatitudeDegrees>
              <LongitudeDegrees>20.46841618604958057403564453125</LongitudeDegrees>
            </Position>
            <AltitudeMeters>471.79998779296875</AltitudeMeters>
            <DistanceMeters>NAN</DistanceMeters>
          </Trackpoint>
          <Trackpoint>
            <Time>2022-09-21T12:12:13.000Z</Time>
            <Position>
              <LatitudeDegrees>49.4272627495229244232177734375</LatitudeDegrees>
              <LongitudeDegrees>20.4684176109731197357177734375</LongitudeDegrees>
            </Position>
            <AltitudeMeters>471.79998779296875</AltitudeMeters>
            <DistanceMeters>NAN</DistanceMeters>
          </Trackpoint>
          <Trackpoint>
            <Time>2022-09-21T12:12:20.000Z</Time>
            <Position>
              <LatitudeDegrees>49.42725964821875095367431640625</LatitudeDegrees>
              <LongitudeDegrees>20.4684464447200298309326171875</LongitudeDegrees>
            </Position>
            <AltitudeMeters>471.600006103515625</AltitudeMeters>
            <DistanceMeters>NAN</DistanceMeters>
          </Trackpoint>
          <Trackpoint>
            <Time>2022-09-21T12:12:26.000Z</Time>
            <Position>
              <LatitudeDegrees>49.42726987414062023162841796875</LatitudeDegrees>
              <LongitudeDegrees>20.468393974006175994873046875</LongitudeDegrees>
            </Position>
            <AltitudeMeters>471.399993896484375</AltitudeMeters>
            <DistanceMeters>NAN</DistanceMeters>
          </Trackpoint>
          <Trackpoint>
            <Time>2022-09-21T12:12:33.000Z</Time>
            <Position>
              <LatitudeDegrees>49.4272550381720066070556640625</LatitudeDegrees>
              <LongitudeDegrees>20.46835206449031829833984375</LongitudeDegrees>
            </Position>
            <AltitudeMeters>471.399993896484375</AltitudeMeters>
            <DistanceMeters>NAN</DistanceMeters>
          </Trackpoint>
          <Trackpoint>
            <Time>2022-09-21T12:12:39.000Z</Time>
            <Position>
              <LatitudeDegrees>49.42724690772593021392822265625</LatitudeDegrees>
              <LongitudeDegrees>20.46835399232804775238037109375</LongitudeDegrees>
            </Position>
            <AltitudeMeters>471.20001220703125</AltitudeMeters>
            <DistanceMeters>NAN</DistanceMeters>
          </Trackpoint>
          <Trackpoint>
            <Time>2022-09-21T12:12:46.000Z</Time>
            <Position>
              <LatitudeDegrees>49.4272510148584842681884765625</LatitudeDegrees>
              <LongitudeDegrees>20.46835365705192089080810546875</LongitudeDegrees>
            </Position>
            <AltitudeMeters>471.20001220703125</AltitudeMeters>
            <DistanceMeters>NAN</DistanceMeters>
          </Trackpoint>
          <Trackpoint>
            <Time>2022-09-21T12:13:04.000Z</Time>
            <Position>
              <LatitudeDegrees>49.42725109867751598358154296875</LatitudeDegrees>
              <LongitudeDegrees>20.46836053021252155303955078125</LongitudeDegrees>
            </Position>
            <AltitudeMeters>471.20001220703125</AltitudeMeters>
            <DistanceMeters>NAN</DistanceMeters>
          </Trackpoint>
          <Trackpoint>
            <Time>2022-09-21T12:13:29.000Z</Time>
            <Position>
              <LatitudeDegrees>49.4272996298968791961669921875</LatitudeDegrees>
              <LongitudeDegrees>20.46842305921018123626708984375</LongitudeDegrees>
            </Position>
            <AltitudeMeters>471.20001220703125</AltitudeMeters>
            <DistanceMeters>NAN</DistanceMeters>
          </Trackpoint>
          <Trackpoint>
            <Time>2022-09-21T12:13:31.000Z</Time>
            <Position>
              <LatitudeDegrees>49.42728999070823192596435546875</LatitudeDegrees>
              <LongitudeDegrees>20.4684052057564258575439453125</LongitudeDegrees>
            </Position>
            <AltitudeMeters>471.20001220703125</AltitudeMeters>
            <DistanceMeters>NAN</DistanceMeters>
          </Trackpoint>
          <Trackpoint>
            <Time>2022-09-21T12:13:34.000Z</Time>
            <Position>
              <LatitudeDegrees>49.42729644477367401123046875</LatitudeDegrees>
              <LongitudeDegrees>20.46839774586260318756103515625</LongitudeDegrees>
            </Position>
            <AltitudeMeters>471.20001220703125</AltitudeMeters>
            <DistanceMeters>NAN</DistanceMeters>
          </Trackpoint>
          <Trackpoint>
            <Time>2022-09-21T12:13:39.000Z</Time>
            <Position>
              <LatitudeDegrees>49.4273304753005504608154296875</LatitudeDegrees>
              <LongitudeDegrees>20.4683860950171947479248046875</LongitudeDegrees>
            </Position>
            <AltitudeMeters>472</AltitudeMeters>
            <DistanceMeters>NAN</DistanceMeters>
          </Trackpoint>
          <Trackpoint>
            <Time>2022-09-21T12:13:45.000Z</Time>
            <Position>
              <LatitudeDegrees>49.42733072675764560699462890625</LatitudeDegrees>
              <LongitudeDegrees>20.46847620047628879547119140625</LongitudeDegrees>
            </Position>
            <AltitudeMeters>472</AltitudeMeters>
            <DistanceMeters>NAN</DistanceMeters>
          </Trackpoint>
          <Trackpoint>
            <Time>2022-09-21T12:13:50.000Z</Time>
            <Position>
              <LatitudeDegrees>49.42731463350355625152587890625</LatitudeDegrees>
              <LongitudeDegrees>20.468490533530712127685546875</LongitudeDegrees>
            </Position>
            <AltitudeMeters>471.79998779296875</AltitudeMeters>
            <DistanceMeters>NAN</DistanceMeters>
          </Trackpoint>
          <Trackpoint>
            <Time>2022-09-21T12:13:55.000Z</Time>
            <Position>
              <LatitudeDegrees>49.42736408673226833343505859375</LatitudeDegrees>
              <LongitudeDegrees>20.46856588684022426605224609375</LongitudeDegrees>
            </Position>
            <AltitudeMeters>471.79998779296875</AltitudeMeters>
            <DistanceMeters>NAN</DistanceMeters>
          </Trackpoint>
          <Trackpoint>
            <Time>2022-09-21T12:13:56.000Z</Time>
            <Position>
              <LatitudeDegrees>49.42736458964645862579345703125</LatitudeDegrees>
              <LongitudeDegrees>20.46857963316142559051513671875</LongitudeDegrees>
            </Position>
            <AltitudeMeters>471.79998779296875</AltitudeMeters>
            <DistanceMeters>NAN</DistanceMeters>
          </Trackpoint>
          <Trackpoint>
            <Time>2022-09-21T12:14:03.000Z</Time>
            <Position>
              <LatitudeDegrees>49.42735251970589160919189453125</LatitudeDegrees>
              <LongitudeDegrees>20.468673594295978546142578125</LongitudeDegrees>
            </Position>
            <AltitudeMeters>472</AltitudeMeters>
            <DistanceMeters>NAN</DistanceMeters>
          </Trackpoint>
          <Trackpoint>
            <Time>2022-09-21T12:14:12.000Z</Time>
            <Position>
              <LatitudeDegrees>49.4273601472377777099609375</LatitudeDegrees>
              <LongitudeDegrees>20.46882639639079570770263671875</LongitudeDegrees>
            </Position>
            <AltitudeMeters>472</AltitudeMeters>
            <DistanceMeters>NAN</DistanceMeters>
          </Trackpoint>
          <Trackpoint>
            <Time>2022-09-21T12:14:14.000Z</Time>
            <Position>
              <LatitudeDegrees>49.42736006341874599456787109375</LatitudeDegrees>
              <LongitudeDegrees>20.4688497819006443023681640625</LongitudeDegrees>
            </Position>
            <AltitudeMeters>472</AltitudeMeters>
            <DistanceMeters>NAN</DistanceMeters>
          </Trackpoint>
          <Trackpoint>
            <Time>2022-09-21T12:14:19.000Z</Time>
            <Position>
              <LatitudeDegrees>49.4273609854280948638916015625</LatitudeDegrees>
              <LongitudeDegrees>20.46891666948795318603515625</LongitudeDegrees>
            </Position>
            <AltitudeMeters>472.20001220703125</AltitudeMeters>
            <DistanceMeters>NAN</DistanceMeters>
          </Trackpoint>
          <Trackpoint>
            <Time>2022-09-21T12:14:26.000Z</Time>
            <Position>
              <LatitudeDegrees>49.42736274562776088714599609375</LatitudeDegrees>
              <LongitudeDegrees>20.46900643967092037200927734375</LongitudeDegrees>
            </Position>
            <AltitudeMeters>472.20001220703125</AltitudeMeters>
            <DistanceMeters>NAN</DistanceMeters>
          </Trackpoint>
          <Trackpoint>
            <Time>2022-09-21T12:14:30.000Z</Time>
            <Position>
              <LatitudeDegrees>49.4273640029132366180419921875</LatitudeDegrees>
              <LongitudeDegrees>20.46903259120881557464599609375</LongitudeDegrees>
            </Position>
            <AltitudeMeters>472</AltitudeMeters>
            <DistanceMeters>NAN</DistanceMeters>
          </Trackpoint>
          <Trackpoint>
            <Time>2022-09-21T12:14:34.000Z</Time>
            <Position>
              <LatitudeDegrees>49.4273589737713336944580078125</LatitudeDegrees>
              <LongitudeDegrees>20.4690797813236713409423828125</LongitudeDegrees>
            </Position>
            <AltitudeMeters>472.20001220703125</AltitudeMeters>
            <DistanceMeters>NAN</DistanceMeters>
          </Trackpoint>
          <Trackpoint>
            <Time>2022-09-21T12:14:39.000Z</Time>
            <Position>
              <LatitudeDegrees>49.42737431265413761138916015625</LatitudeDegrees>
              <LongitudeDegrees>20.4691625945270061492919921875</LongitudeDegrees>
            </Position>
            <AltitudeMeters>472.399993896484375</AltitudeMeters>
            <DistanceMeters>NAN</DistanceMeters>
          </Trackpoint>
          <Trackpoint>
            <Time>2022-09-21T12:14:44.000Z</Time>
            <Position>
              <LatitudeDegrees>49.42737716250121593475341796875</LatitudeDegrees>
              <LongitudeDegrees>20.46926426701247692108154296875</LongitudeDegrees>
            </Position>
            <AltitudeMeters>472.600006103515625</AltitudeMeters>
            <DistanceMeters>NAN</DistanceMeters>
          </Trackpoint>
          <Trackpoint>
            <Time>2022-09-21T12:14:45.000Z</Time>
            <Position>
              <LatitudeDegrees>49.4273821078240871429443359375</LatitudeDegrees>
              <LongitudeDegrees>20.469278432428836822509765625</LongitudeDegrees>
            </Position>
            <AltitudeMeters>472.600006103515625</AltitudeMeters>
            <DistanceMeters>NAN</DistanceMeters>
          </Trackpoint>
          <Trackpoint>
            <Time>2022-09-21T12:14:46.000Z</Time>
            <Position>
              <LatitudeDegrees>49.42738286219537258148193359375</LatitudeDegrees>
              <LongitudeDegrees>20.469286479055881500244140625</LongitudeDegrees>
            </Position>
            <AltitudeMeters>472.600006103515625</AltitudeMeters>
            <DistanceMeters>NAN</DistanceMeters>
          </Trackpoint>
          <Trackpoint>
            <Time>2022-09-21T12:14:47.000Z</Time>
            <Position>
              <LatitudeDegrees>49.42737816832959651947021484375</LatitudeDegrees>
              <LongitudeDegrees>20.469301231205463409423828125</LongitudeDegrees>
            </Position>
            <AltitudeMeters>472.600006103515625</AltitudeMeters>
            <DistanceMeters>NAN</DistanceMeters>
          </Trackpoint>
          <Trackpoint>
            <Time>2022-09-21T12:14:48.000Z</Time>
            <Position>
              <LatitudeDegrees>49.42737632431089878082275390625</LatitudeDegrees>
              <LongitudeDegrees>20.46932042576372623443603515625</LongitudeDegrees>
            </Position>
            <AltitudeMeters>472.600006103515625</AltitudeMeters>
            <DistanceMeters>NAN</DistanceMeters>
          </Trackpoint>
          <Trackpoint>
            <Time>2022-09-21T12:14:49.000Z</Time>
            <Position>
              <LatitudeDegrees>49.42738101817667484283447265625</LatitudeDegrees>
              <LongitudeDegrees>20.4693402908742427825927734375</LongitudeDegrees>
            </Position>
            <AltitudeMeters>472.600006103515625</AltitudeMeters>
            <DistanceMeters>NAN</DistanceMeters>
          </Trackpoint>
          <Trackpoint>
            <Time>2022-09-21T12:14:55.000Z</Time>
            <Position>
              <LatitudeDegrees>49.42740046419203281402587890625</LatitudeDegrees>
              <LongitudeDegrees>20.4694274626672267913818359375</LongitudeDegrees>
            </Position>
            <AltitudeMeters>473</AltitudeMeters>
            <DistanceMeters>NAN</DistanceMeters>
          </Trackpoint>
          <Trackpoint>
            <Time>2022-09-21T12:14:57.000Z</Time>
            <Position>
              <LatitudeDegrees>49.42740901373326778411865234375</LatitudeDegrees>
              <LongitudeDegrees>20.46946652233600616455078125</LongitudeDegrees>
            </Position>
            <AltitudeMeters>473</AltitudeMeters>
            <DistanceMeters>NAN</DistanceMeters>
          </Trackpoint>
          <Trackpoint>
            <Time>2022-09-21T12:15:02.000Z</Time>
            <Position>
              <LatitudeDegrees>49.427407085895538330078125</LatitudeDegrees>
              <LongitudeDegrees>20.4695357568562030792236328125</LongitudeDegrees>
            </Position>
            <AltitudeMeters>473.20001220703125</AltitudeMeters>
            <DistanceMeters>NAN</DistanceMeters>
          </Trackpoint>
          <Trackpoint>
            <Time>2022-09-21T12:15:05.000Z</Time>
            <Position>
              <LatitudeDegrees>49.4274035654962062835693359375</LatitudeDegrees>
              <LongitudeDegrees>20.46957590617239475250244140625</LongitudeDegrees>
            </Position>
            <AltitudeMeters>473.20001220703125</AltitudeMeters>
            <DistanceMeters>NAN</DistanceMeters>
          </Trackpoint>
          <Trackpoint>
            <Time>2022-09-21T12:15:08.000Z</Time>
            <Position>
              <LatitudeDegrees>49.42739543505012989044189453125</LatitudeDegrees>
              <LongitudeDegrees>20.46962318010628223419189453125</LongitudeDegrees>
            </Position>
            <AltitudeMeters>473.600006103515625</AltitudeMeters>
            <DistanceMeters>NAN</DistanceMeters>
          </Trackpoint>
          <Trackpoint>
            <Time>2022-09-21T12:15:09.000Z</Time>
            <Position>
              <LatitudeDegrees>49.4273965246975421905517578125</LatitudeDegrees>
              <LongitudeDegrees>20.469637177884578704833984375</LongitudeDegrees>
            </Position>
            <AltitudeMeters>473.600006103515625</AltitudeMeters>
            <DistanceMeters>NAN</DistanceMeters>
          </Trackpoint>
          <Trackpoint>
            <Time>2022-09-21T12:15:10.000Z</Time>
            <Position>
              <LatitudeDegrees>49.42740700207650661468505859375</LatitudeDegrees>
              <LongitudeDegrees>20.469653271138668060302734375</LongitudeDegrees>
            </Position>
            <AltitudeMeters>473.79998779296875</AltitudeMeters>
            <DistanceMeters>NAN</DistanceMeters>
          </Trackpoint>
          <Trackpoint>
            <Time>2022-09-21T12:15:15.000Z</Time>
            <Position>
              <LatitudeDegrees>49.4274505041539669036865234375</LatitudeDegrees>
              <LongitudeDegrees>20.4697315581142902374267578125</LongitudeDegrees>
            </Position>
            <AltitudeMeters>474</AltitudeMeters>
            <DistanceMeters>NAN</DistanceMeters>
          </Trackpoint>
          <Trackpoint>
            <Time>2022-09-21T12:15:17.000Z</Time>
            <Position>
              <LatitudeDegrees>49.4274612329900264739990234375</LatitudeDegrees>
              <LongitudeDegrees>20.46977338381111621856689453125</LongitudeDegrees>
            </Position>
            <AltitudeMeters>474.20001220703125</AltitudeMeters>
            <DistanceMeters>NAN</DistanceMeters>
          </Trackpoint>
          <Trackpoint>
            <Time>2022-09-21T12:15:18.000Z</Time>
            <Position>
              <LatitudeDegrees>49.42746785469353199005126953125</LatitudeDegrees>
              <LongitudeDegrees>20.469790734350681304931640625</LongitudeDegrees>
            </Position>
            <AltitudeMeters>474.20001220703125</AltitudeMeters>
            <DistanceMeters>NAN</DistanceMeters>
          </Trackpoint>
          <Trackpoint>
            <Time>2022-09-21T12:15:22.000Z</Time>
            <Position>
              <LatitudeDegrees>49.427467100322246551513671875</LatitudeDegrees>
              <LongitudeDegrees>20.46985368244349956512451171875</LongitudeDegrees>
            </Position>
            <AltitudeMeters>474.399993896484375</AltitudeMeters>
            <DistanceMeters>NAN</DistanceMeters>
          </Trackpoint>
          <Trackpoint>
            <Time>2022-09-21T12:15:27.000Z</Time>
            <Position>
              <LatitudeDegrees>49.42745226435363292694091796875</LatitudeDegrees>
              <LongitudeDegrees>20.4699333943426609039306640625</LongitudeDegrees>
            </Position>
            <AltitudeMeters>474.600006103515625</AltitudeMeters>
            <DistanceMeters>NAN</DistanceMeters>
          </Trackpoint>
          <Trackpoint>
            <Time>2022-09-21T12:15:35.000Z</Time>
            <Position>
              <LatitudeDegrees>49.4275011308491230010986328125</LatitudeDegrees>
              <LongitudeDegrees>20.47010312788188457489013671875</LongitudeDegrees>
            </Position>
            <AltitudeMeters>475.20001220703125</AltitudeMeters>
            <DistanceMeters>NAN</DistanceMeters>
          </Trackpoint>
          <Trackpoint>
            <Time>2022-09-21T12:15:36.000Z</Time>
            <Position>
              <LatitudeDegrees>49.427505992352962493896484375</LatitudeDegrees>
              <LongitudeDegrees>20.47012005932629108428955078125</LongitudeDegrees>
            </Position>
            <AltitudeMeters>475.20001220703125</AltitudeMeters>
            <DistanceMeters>NAN</DistanceMeters>
          </Trackpoint>
          <Trackpoint>
            <Time>2022-09-21T12:15:39.000Z</Time>
            <Position>
              <LatitudeDegrees>49.4274897314608097076416015625</LatitudeDegrees>
              <LongitudeDegrees>20.47015911899507045745849609375</LongitudeDegrees>
            </Position>
            <AltitudeMeters>475.399993896484375</AltitudeMeters>
            <DistanceMeters>NAN</DistanceMeters>
          </Trackpoint>
          <Trackpoint>
            <Time>2022-09-21T12:15:42.000Z</Time>
            <Position>
              <LatitudeDegrees>49.427490569651126861572265625</LatitudeDegrees>
              <LongitudeDegrees>20.47019876539707183837890625</LongitudeDegrees>
            </Position>
            <AltitudeMeters>475.600006103515625</AltitudeMeters>
            <DistanceMeters>NAN</DistanceMeters>
          </Trackpoint>
          <Trackpoint>
            <Time>2022-09-21T12:15:44.000Z</Time>
            <Position>
              <LatitudeDegrees>49.42748763598501682281494140625</LatitudeDegrees>
              <LongitudeDegrees>20.470230616629123687744140625</LongitudeDegrees>
            </Position>
            <AltitudeMeters>475.600006103515625</AltitudeMeters>
            <DistanceMeters>NAN</DistanceMeters>
          </Trackpoint>
          <Trackpoint>
            <Time>2022-09-21T12:15:49.000Z</Time>
            <Position>
              <LatitudeDegrees>49.4274793379008769989013671875</LatitudeDegrees>
              <LongitudeDegrees>20.4702827520668506622314453125</LongitudeDegrees>
            </Position>
            <AltitudeMeters>476</AltitudeMeters>
            <DistanceMeters>NAN</DistanceMeters>
          </Trackpoint>
          <Trackpoint>
            <Time>2022-09-21T12:15:55.000Z</Time>
            <Position>
              <LatitudeDegrees>49.42748042754828929901123046875</LatitudeDegrees>
              <LongitudeDegrees>20.470366068184375762939453125</LongitudeDegrees>
            </Position>
            <AltitudeMeters>476.20001220703125</AltitudeMeters>
            <DistanceMeters>NAN</DistanceMeters>
          </Trackpoint>
          <Trackpoint>
            <Time>2022-09-21T12:16:04.000Z</Time>
            <Position>
              <LatitudeDegrees>49.42747212946414947509765625</LatitudeDegrees>
              <LongitudeDegrees>20.4705020226538181304931640625</LongitudeDegrees>
            </Position>
            <AltitudeMeters>476.600006103515625</AltitudeMeters>
            <DistanceMeters>NAN</DistanceMeters>
          </Trackpoint>
          <Trackpoint>
            <Time>2022-09-21T12:16:05.000Z</Time>
            <Position>
              <LatitudeDegrees>49.42747489549219608306884765625</LatitudeDegrees>
              <LongitudeDegrees>20.470519959926605224609375</LongitudeDegrees>
            </Position>
            <AltitudeMeters>476.79998779296875</AltitudeMeters>
            <DistanceMeters>NAN</DistanceMeters>
          </Trackpoint>
          <Trackpoint>
            <Time>2022-09-21T12:16:10.000Z</Time>
            <Position>
              <LatitudeDegrees>49.42745679058134555816650390625</LatitudeDegrees>
              <LongitudeDegrees>20.47058743424713611602783203125</LongitudeDegrees>
            </Position>
            <AltitudeMeters>476.79998779296875</AltitudeMeters>
            <DistanceMeters>NAN</DistanceMeters>
          </Trackpoint>
          <Trackpoint>
            <Time>2022-09-21T12:16:17.000Z</Time>
            <Position>
              <LatitudeDegrees>49.4274481572210788726806640625</LatitudeDegrees>
              <LongitudeDegrees>20.4706824012100696563720703125</LongitudeDegrees>
            </Position>
            <AltitudeMeters>477.20001220703125</AltitudeMeters>
            <DistanceMeters>NAN</DistanceMeters>
          </Trackpoint>
          <Trackpoint>
            <Time>2022-09-21T12:16:18.000Z</Time>
            <Position>
              <LatitudeDegrees>49.42744530737400054931640625</LatitudeDegrees>
              <LongitudeDegrees>20.47068692743778228759765625</LongitudeDegrees>
            </Position>
            <AltitudeMeters>477.20001220703125</AltitudeMeters>
            <DistanceMeters>NAN</DistanceMeters>
          </Trackpoint>
          <Trackpoint>
            <Time>2022-09-21T12:16:26.000Z</Time>
            <Position>
              <LatitudeDegrees>49.42743415944278240203857421875</LatitudeDegrees>
              <LongitudeDegrees>20.4707621969282627105712890625</LongitudeDegrees>
            </Position>
            <AltitudeMeters>477.399993896484375</AltitudeMeters>
            <DistanceMeters>NAN</DistanceMeters>
          </Trackpoint>
          <Trackpoint>
            <Time>2022-09-21T12:16:33.000Z</Time>
            <Position>
              <LatitudeDegrees>49.42742410115897655487060546875</LatitudeDegrees>
              <LongitudeDegrees>20.470853559672832489013671875</LongitudeDegrees>
            </Position>
            <AltitudeMeters>477.600006103515625</AltitudeMeters>
            <DistanceMeters>NAN</DistanceMeters>
          </Trackpoint>
          <Trackpoint>
            <Time>2022-09-21T12:16:35.000Z</Time>
            <Position>
              <LatitudeDegrees>49.427417479455471038818359375</LatitudeDegrees>
              <LongitudeDegrees>20.47087979502975940704345703125</LongitudeDegrees>
            </Position>
            <AltitudeMeters>477.79998779296875</AltitudeMeters>
            <DistanceMeters>NAN</DistanceMeters>
          </Trackpoint>
          <Trackpoint>
            <Time>2022-09-21T12:16:41.000Z</Time>
            <Position>
              <LatitudeDegrees>49.42741974256932735443115234375</LatitudeDegrees>
              <LongitudeDegrees>20.47092153690755367279052734375</LongitudeDegrees>
            </Position>
            <AltitudeMeters>478</AltitudeMeters>
            <DistanceMeters>NAN</DistanceMeters>
          </Trackpoint>
          <Trackpoint>
            <Time>2022-09-21T12:16:45.000Z</Time>
            <Position>
              <LatitudeDegrees>49.42740934900939464569091796875</LatitudeDegrees>
              <LongitudeDegrees>20.47095489688217639923095703125</LongitudeDegrees>
            </Position>
            <AltitudeMeters>478</AltitudeMeters>
            <DistanceMeters>NAN</DistanceMeters>
          </Trackpoint>
          <Trackpoint>
            <Time>2022-09-21T12:16:46.000Z</Time>
            <Position>
              <LatitudeDegrees>49.42741186358034610748291015625</LatitudeDegrees>
              <LongitudeDegrees>20.470980964601039886474609375</LongitudeDegrees>
            </Position>
            <AltitudeMeters>478</AltitudeMeters>
            <DistanceMeters>NAN</DistanceMeters>
          </Trackpoint>
          <Trackpoint>
            <Time>2022-09-21T12:16:52.000Z</Time>
            <Position>
              <LatitudeDegrees>49.42739744670689105987548828125</LatitudeDegrees>
              <LongitudeDegrees>20.47121272422373294830322265625</LongitudeDegrees>
            </Position>
            <AltitudeMeters>478.399993896484375</AltitudeMeters>
            <DistanceMeters>NAN</DistanceMeters>
          </Trackpoint>
          <Trackpoint>
            <Time>2022-09-21T12:16:57.000Z</Time>
            <Position>
              <LatitudeDegrees>49.42736660130321979522705078125</LatitudeDegrees>
              <LongitudeDegrees>20.4714511893689632415771484375</LongitudeDegrees>
            </Position>
            <AltitudeMeters>478.79998779296875</AltitudeMeters>
            <DistanceMeters>NAN</DistanceMeters>
          </Trackpoint>
          <Trackpoint>
            <Time>2022-09-21T12:16:59.000Z</Time>
            <Position>
              <LatitudeDegrees>49.4273636676371097564697265625</LatitudeDegrees>
              <LongitudeDegrees>20.471559651196002960205078125</LongitudeDegrees>
            </Position>
            <AltitudeMeters>479</AltitudeMeters>
            <DistanceMeters>NAN</DistanceMeters>
          </Trackpoint>
          <Trackpoint>
            <Time>2022-09-21T12:17:05.000Z</Time>
            <Position>
              <LatitudeDegrees>49.42733843810856342315673828125</LatitudeDegrees>
              <LongitudeDegrees>20.471843294799327850341796875</LongitudeDegrees>
            </Position>
            <AltitudeMeters>479.600006103515625</AltitudeMeters>
            <DistanceMeters>NAN</DistanceMeters>
          </Trackpoint>
          <Trackpoint>
            <Time>2022-09-21T12:17:07.000Z</Time>
            <Position>
              <LatitudeDegrees>49.42733709700405597686767578125</LatitudeDegrees>
              <LongitudeDegrees>20.471934489905834197998046875</LongitudeDegrees>
            </Position>
            <AltitudeMeters>479.79998779296875</AltitudeMeters>
            <DistanceMeters>NAN</DistanceMeters>
          </Trackpoint>
          <Trackpoint>
            <Time>2022-09-21T12:17:12.000Z</Time>
            <Position>
              <LatitudeDegrees>49.4272935949265956878662109375</LatitudeDegrees>
              <LongitudeDegrees>20.4721659980714321136474609375</LongitudeDegrees>
            </Position>
            <AltitudeMeters>480.20001220703125</AltitudeMeters>
            <DistanceMeters>NAN</DistanceMeters>
          </Trackpoint>
          <Trackpoint>
            <Time>2022-09-21T12:17:19.000Z</Time>
            <Position>
              <LatitudeDegrees>49.42722402513027191162109375</LatitudeDegrees>
              <LongitudeDegrees>20.47252013348042964935302734375</LongitudeDegrees>
            </Position>
            <AltitudeMeters>480.79998779296875</AltitudeMeters>
            <DistanceMeters>NAN</DistanceMeters>
          </Trackpoint>
          <Trackpoint>
            <Time>2022-09-21T12:17:20.000Z</Time>
            <Position>
              <LatitudeDegrees>49.4272154755890369415283203125</LatitudeDegrees>
              <LongitudeDegrees>20.47257143072783946990966796875</LongitudeDegrees>
            </Position>
            <AltitudeMeters>480.79998779296875</AltitudeMeters>
            <DistanceMeters>NAN</DistanceMeters>
          </Trackpoint>
          <Trackpoint>
            <Time>2022-09-21T12:17:24.000Z</Time>
            <Position>
              <LatitudeDegrees>49.4271772541105747222900390625</LatitudeDegrees>
              <LongitudeDegrees>20.4727654717862606048583984375</LongitudeDegrees>
            </Position>
            <AltitudeMeters>481.20001220703125</AltitudeMeters>
            <DistanceMeters>NAN</DistanceMeters>
          </Trackpoint>
          <Trackpoint>
            <Time>2022-09-21T12:17:25.000Z</Time>
            <Position>
              <LatitudeDegrees>49.42716996185481548309326171875</LatitudeDegrees>
              <LongitudeDegrees>20.47280319035053253173828125</LongitudeDegrees>
            </Position>
            <AltitudeMeters>481.399993896484375</AltitudeMeters>
            <DistanceMeters>NAN</DistanceMeters>
          </Trackpoint>
          <Trackpoint>
            <Time>2022-09-21T12:17:27.000Z</Time>
            <Position>
              <LatitudeDegrees>49.42716367542743682861328125</LatitudeDegrees>
              <LongitudeDegrees>20.4728789627552032470703125</LongitudeDegrees>
            </Position>
            <AltitudeMeters>481.399993896484375</AltitudeMeters>
            <DistanceMeters>NAN</DistanceMeters>
          </Trackpoint>
          <Trackpoint>
            <Time>2022-09-21T12:17:30.000Z</Time>
            <Position>
              <LatitudeDegrees>49.42712570540606975555419921875</LatitudeDegrees>
              <LongitudeDegrees>20.472987256944179534912109375</LongitudeDegrees>
            </Position>
            <AltitudeMeters>481.600006103515625</AltitudeMeters>
            <DistanceMeters>NAN</DistanceMeters>
          </Trackpoint>
          <Trackpoint>
            <Time>2022-09-21T12:17:34.000Z</Time>
            <Position>
              <LatitudeDegrees>49.42708195187151432037353515625</LatitudeDegrees>
              <LongitudeDegrees>20.47314257360994815826416015625</LongitudeDegrees>
            </Position>
            <AltitudeMeters>481.79998779296875</AltitudeMeters>
            <DistanceMeters>NAN</DistanceMeters>
          </Trackpoint>
          <Trackpoint>
            <Time>2022-09-21T12:17:35.000Z</Time>
            <Position>
              <LatitudeDegrees>49.427070133388042449951171875</LatitudeDegrees>
              <LongitudeDegrees>20.4731741733849048614501953125</LongitudeDegrees>
            </Position>
            <AltitudeMeters>482</AltitudeMeters>
            <DistanceMeters>NAN</DistanceMeters>
          </Trackpoint>
          <Trackpoint>
            <Time>2022-09-21T12:17:37.000Z</Time>
            <Position>
              <LatitudeDegrees>49.42705328576266765594482421875</LatitudeDegrees>
              <LongitudeDegrees>20.47323896549642086029052734375</LongitudeDegrees>
            </Position>
            <AltitudeMeters>482</AltitudeMeters>
            <DistanceMeters>NAN</DistanceMeters>
          </Trackpoint>
          <Trackpoint>
            <Time>2022-09-21T12:17:39.000Z</Time>
            <Position>
              <LatitudeDegrees>49.42703635431826114654541015625</LatitudeDegrees>
              <LongitudeDegrees>20.4732935316860675811767578125</LongitudeDegrees>
            </Position>
            <AltitudeMeters>482.20001220703125</AltitudeMeters>
            <DistanceMeters>NAN</DistanceMeters>
          </Trackpoint>
          <Trackpoint>
            <Time>2022-09-21T12:17:43.000Z</Time>
            <Position>
              <LatitudeDegrees>49.4269928522408008575439453125</LatitudeDegrees>
              <LongitudeDegrees>20.47340266406536102294921875</LongitudeDegrees>
            </Position>
            <AltitudeMeters>482.399993896484375</AltitudeMeters>
            <DistanceMeters>NAN</DistanceMeters>
          </Trackpoint>
          <Trackpoint>
            <Time>2022-09-21T12:17:50.000Z</Time>
            <Position>
              <LatitudeDegrees>49.42691020667552947998046875</LatitudeDegrees>
              <LongitudeDegrees>20.4736308194696903228759765625</LongitudeDegrees>
            </Position>
            <AltitudeMeters>482.79998779296875</AltitudeMeters>
            <DistanceMeters>NAN</DistanceMeters>
          </Trackpoint>
          <Trackpoint>
            <Time>2022-09-21T12:17:54.000Z</Time>
            <Position>
              <LatitudeDegrees>49.42687206901609897613525390625</LatitudeDegrees>
              <LongitudeDegrees>20.47378932125866413116455078125</LongitudeDegrees>
            </Position>
            <AltitudeMeters>483</AltitudeMeters>
            <DistanceMeters>NAN</DistanceMeters>
          </Trackpoint>
          <Trackpoint>
            <Time>2022-09-21T12:18:00.000Z</Time>
            <Position>
              <LatitudeDegrees>49.426848180592060089111328125</LatitudeDegrees>
              <LongitudeDegrees>20.4740162193775177001953125</LongitudeDegrees>
            </Position>
            <AltitudeMeters>483.20001220703125</AltitudeMeters>
            <DistanceMeters>NAN</DistanceMeters>
          </Trackpoint>
          <Trackpoint>
            <Time>2022-09-21T12:18:08.000Z</Time>
            <Position>
              <LatitudeDegrees>49.42682513035833835601806640625</LatitudeDegrees>
              <LongitudeDegrees>20.47426222823560237884521484375</LongitudeDegrees>
            </Position>
            <AltitudeMeters>483.399993896484375</AltitudeMeters>
            <DistanceMeters>NAN</DistanceMeters>
          </Trackpoint>
          <Trackpoint>
            <Time>2022-09-21T12:18:12.000Z</Time>
            <Position>
              <LatitudeDegrees>49.42682311870157718658447265625</LatitudeDegrees>
              <LongitudeDegrees>20.4742722027003765106201171875</LongitudeDegrees>
            </Position>
            <AltitudeMeters>483.399993896484375</AltitudeMeters>
            <DistanceMeters>NAN</DistanceMeters>
          </Trackpoint>
          <Trackpoint>
            <Time>2022-09-21T12:18:17.000Z</Time>
            <Position>
              <LatitudeDegrees>49.4268262200057506561279296875</LatitudeDegrees>
              <LongitudeDegrees>20.4743783175945281982421875</LongitudeDegrees>
            </Position>
            <AltitudeMeters>483.600006103515625</AltitudeMeters>
            <DistanceMeters>NAN</DistanceMeters>
          </Trackpoint>
          <Trackpoint>
            <Time>2022-09-21T12:18:21.000Z</Time>
            <Position>
              <LatitudeDegrees>49.4268211908638477325439453125</LatitudeDegrees>
              <LongitudeDegrees>20.4744807444512844085693359375</LongitudeDegrees>
            </Position>
            <AltitudeMeters>483.79998779296875</AltitudeMeters>
            <DistanceMeters>NAN</DistanceMeters>
          </Trackpoint>
          <Trackpoint>
            <Time>2022-09-21T12:18:23.000Z</Time>
            <Position>
              <LatitudeDegrees>49.426816999912261962890625</LatitudeDegrees>
              <LongitudeDegrees>20.4745055548846721649169921875</LongitudeDegrees>
            </Position>
            <AltitudeMeters>483.79998779296875</AltitudeMeters>
            <DistanceMeters>NAN</DistanceMeters>
          </Trackpoint>
          <Trackpoint>
            <Time>2022-09-21T12:18:27.000Z</Time>
            <Position>
              <LatitudeDegrees>49.4268252141773700714111328125</LatitudeDegrees>
              <LongitudeDegrees>20.47455911524593830108642578125</LongitudeDegrees>
            </Position>
            <AltitudeMeters>483.600006103515625</AltitudeMeters>
            <DistanceMeters>NAN</DistanceMeters>
          </Trackpoint>
          <Trackpoint>
            <Time>2022-09-21T12:18:29.000Z</Time>
            <Position>
              <LatitudeDegrees>49.42681632936000823974609375</LatitudeDegrees>
              <LongitudeDegrees>20.47459213994443416595458984375</LongitudeDegrees>
            </Position>
            <AltitudeMeters>483.399993896484375</AltitudeMeters>
            <DistanceMeters>NAN</DistanceMeters>
          </Trackpoint>
          <Trackpoint>
            <Time>2022-09-21T12:18:33.000Z</Time>
            <Position>
              <LatitudeDegrees>49.426778443157672882080078125</LatitudeDegrees>
              <LongitudeDegrees>20.47463472001254558563232421875</LongitudeDegrees>
            </Position>
            <AltitudeMeters>483.20001220703125</AltitudeMeters>
            <DistanceMeters>NAN</DistanceMeters>
          </Trackpoint>
          <Trackpoint>
            <Time>2022-09-21T12:18:35.000Z</Time>
            <Position>
              <LatitudeDegrees>49.4267727434635162353515625</LatitudeDegrees>
              <LongitudeDegrees>20.474634803831577301025390625</LongitudeDegrees>
            </Position>
            <AltitudeMeters>483</AltitudeMeters>
            <DistanceMeters>NAN</DistanceMeters>
          </Trackpoint>
          <Trackpoint>
            <Time>2022-09-21T12:18:42.000Z</Time>
            <Position>
              <LatitudeDegrees>49.42679244093596935272216796875</LatitudeDegrees>
              <LongitudeDegrees>20.4746492207050323486328125</LongitudeDegrees>
            </Position>
            <AltitudeMeters>483</AltitudeMeters>
            <DistanceMeters>NAN</DistanceMeters>
          </Trackpoint>
          <Trackpoint>
            <Time>2022-09-21T12:18:47.000Z</Time>
            <Position>
              <LatitudeDegrees>49.42678548395633697509765625</LatitudeDegrees>
              <LongitudeDegrees>20.47467947937548160552978515625</LongitudeDegrees>
            </Position>
            <AltitudeMeters>483.20001220703125</AltitudeMeters>
            <DistanceMeters>NAN</DistanceMeters>
          </Trackpoint>
          <Trackpoint>
            <Time>2022-09-21T12:18:48.000Z</Time>
            <Position>
              <LatitudeDegrees>49.42677249200642108917236328125</LatitudeDegrees>
              <LongitudeDegrees>20.47469423152506351470947265625</LongitudeDegrees>
            </Position>
            <AltitudeMeters>483.20001220703125</AltitudeMeters>
            <DistanceMeters>NAN</DistanceMeters>
          </Trackpoint>
          <Trackpoint>
            <Time>2022-09-21T12:18:51.000Z</Time>
            <Position>
              <LatitudeDegrees>49.42670174874365329742431640625</LatitudeDegrees>
              <LongitudeDegrees>20.47476111911237239837646484375</LongitudeDegrees>
            </Position>
            <AltitudeMeters>482.79998779296875</AltitudeMeters>
            <DistanceMeters>NAN</DistanceMeters>
          </Trackpoint>
          <Trackpoint>
            <Time>2022-09-21T12:18:54.000Z</Time>
            <Position>
              <LatitudeDegrees>49.426616169512271881103515625</LatitudeDegrees>
              <LongitudeDegrees>20.47490201890468597412109375</LongitudeDegrees>
            </Position>
            <AltitudeMeters>481.600006103515625</AltitudeMeters>
            <DistanceMeters>NAN</DistanceMeters>
          </Trackpoint>
          <Trackpoint>
            <Time>2022-09-21T12:18:55.000Z</Time>
            <Position>
              <LatitudeDegrees>49.42659010179340839385986328125</LatitudeDegrees>
              <LongitudeDegrees>20.47494828701019287109375</LongitudeDegrees>
            </Position>
            <AltitudeMeters>481.20001220703125</AltitudeMeters>
            <DistanceMeters>NAN</DistanceMeters>
          </Trackpoint>
          <Trackpoint>
            <Time>2022-09-21T12:18:57.000Z</Time>
            <Position>
              <LatitudeDegrees>49.4265546463429927825927734375</LatitudeDegrees>
              <LongitudeDegrees>20.47504819929599761962890625</LongitudeDegrees>
            </Position>
            <AltitudeMeters>480.600006103515625</AltitudeMeters>
            <DistanceMeters>NAN</DistanceMeters>
          </Trackpoint>
          <Trackpoint>
            <Time>2022-09-21T12:19:01.000Z</Time>
            <Position>
              <LatitudeDegrees>49.42651215009391307830810546875</LatitudeDegrees>
              <LongitudeDegrees>20.47520577907562255859375</LongitudeDegrees>
            </Position>
            <AltitudeMeters>479.79998779296875</AltitudeMeters>
            <DistanceMeters>NAN</DistanceMeters>
          </Trackpoint>
          <Trackpoint>
            <Time>2022-09-21T12:19:03.000Z</Time>
            <Position>
              <LatitudeDegrees>49.426486082375049591064453125</LatitudeDegrees>
              <LongitudeDegrees>20.47524324618279933929443359375</LongitudeDegrees>
            </Position>
            <AltitudeMeters>479.600006103515625</AltitudeMeters>
            <DistanceMeters>NAN</DistanceMeters>
          </Trackpoint>
          <Trackpoint>
            <Time>2022-09-21T12:19:04.000Z</Time>
            <Position>
              <LatitudeDegrees>49.42647879011929035186767578125</LatitudeDegrees>
              <LongitudeDegrees>20.47525716014206409454345703125</LongitudeDegrees>
            </Position>
            <AltitudeMeters>479.600006103515625</AltitudeMeters>
            <DistanceMeters>NAN</DistanceMeters>
          </Trackpoint>
          <Trackpoint>
            <Time>2022-09-21T12:19:06.000Z</Time>
            <Position>
              <LatitudeDegrees>49.426450543105602264404296875</LatitudeDegrees>
              <LongitudeDegrees>20.47528230585157871246337890625</LongitudeDegrees>
            </Position>
            <AltitudeMeters>479.399993896484375</AltitudeMeters>
            <DistanceMeters>NAN</DistanceMeters>
          </Trackpoint>
          <Trackpoint>
            <Time>2022-09-21T12:19:08.000Z</Time>
            <Position>
              <LatitudeDegrees>49.42640536464750766754150390625</LatitudeDegrees>
              <LongitudeDegrees>20.47528021037578582763671875</LongitudeDegrees>
            </Position>
            <AltitudeMeters>479.399993896484375</AltitudeMeters>
            <DistanceMeters>NAN</DistanceMeters>
          </Trackpoint>
          <Trackpoint>
            <Time>2022-09-21T12:19:11.000Z</Time>
            <Position>
              <LatitudeDegrees>49.42638256587088108062744140625</LatitudeDegrees>
              <LongitudeDegrees>20.47525716014206409454345703125</LongitudeDegrees>
            </Position>
            <AltitudeMeters>479.20001220703125</AltitudeMeters>
            <DistanceMeters>NAN</DistanceMeters>
          </Trackpoint>
          <Trackpoint>
            <Time>2022-09-21T12:19:14.000Z</Time>
            <Position>
              <LatitudeDegrees>49.42640922032296657562255859375</LatitudeDegrees>
              <LongitudeDegrees>20.47523838467895984649658203125</LongitudeDegrees>
            </Position>
            <AltitudeMeters>479</AltitudeMeters>
            <DistanceMeters>NAN</DistanceMeters>
          </Trackpoint>
          <Trackpoint>
            <Time>2022-09-21T12:19:16.000Z</Time>
            <Position>
              <LatitudeDegrees>49.42642145790159702301025390625</LatitudeDegrees>
              <LongitudeDegrees>20.47524207271635532379150390625</LongitudeDegrees>
            </Position>
            <AltitudeMeters>478.79998779296875</AltitudeMeters>
            <DistanceMeters>NAN</DistanceMeters>
          </Trackpoint>
          <Trackpoint>
            <Time>2022-09-21T12:19:20.000Z</Time>
            <Position>
              <LatitudeDegrees>49.4264347851276397705078125</LatitudeDegrees>
              <LongitudeDegrees>20.475232601165771484375</LongitudeDegrees>
            </Position>
            <AltitudeMeters>479</AltitudeMeters>
            <DistanceMeters>NAN</DistanceMeters>
          </Trackpoint>
          <Trackpoint>
            <Time>2022-09-21T12:19:25.000Z</Time>
            <Position>
              <LatitudeDegrees>49.42645850591361522674560546875</LatitudeDegrees>
              <LongitudeDegrees>20.47518557868897914886474609375</LongitudeDegrees>
            </Position>
            <AltitudeMeters>479</AltitudeMeters>
            <DistanceMeters>NAN</DistanceMeters>
          </Trackpoint>
          <Trackpoint>
            <Time>2022-09-21T12:19:30.000Z</Time>
            <Position>
              <LatitudeDegrees>49.42650661803781986236572265625</LatitudeDegrees>
              <LongitudeDegrees>20.47534902580082416534423828125</LongitudeDegrees>
            </Position>
            <AltitudeMeters>479</AltitudeMeters>
            <DistanceMeters>NAN</DistanceMeters>
          </Trackpoint>
          <Trackpoint>
            <Time>2022-09-21T12:19:36.000Z</Time>
            <Position>
              <LatitudeDegrees>49.42651701159775257110595703125</LatitudeDegrees>
              <LongitudeDegrees>20.4753641970455646514892578125</LongitudeDegrees>
            </Position>
            <AltitudeMeters>479</AltitudeMeters>
            <DistanceMeters>NAN</DistanceMeters>
          </Trackpoint>
          <Trackpoint>
            <Time>2022-09-21T12:19:40.000Z</Time>
            <Position>
              <LatitudeDegrees>49.42653176374733448028564453125</LatitudeDegrees>
              <LongitudeDegrees>20.47530828975141048431396484375</LongitudeDegrees>
            </Position>
            <AltitudeMeters>479</AltitudeMeters>
            <DistanceMeters>NAN</DistanceMeters>
          </Trackpoint>
          <Trackpoint>
            <Time>2022-09-21T12:19:44.000Z</Time>
            <Position>
              <LatitudeDegrees>49.42657149396836757659912109375</LatitudeDegrees>
              <LongitudeDegrees>20.475343577563762664794921875</LongitudeDegrees>
            </Position>
            <AltitudeMeters>479.20001220703125</AltitudeMeters>
            <DistanceMeters>NAN</DistanceMeters>
          </Trackpoint>
          <Trackpoint>
            <Time>2022-09-21T12:19:49.000Z</Time>
            <Position>
              <LatitudeDegrees>49.42655020393431186676025390625</LatitudeDegrees>
              <LongitudeDegrees>20.4753251373767852783203125</LongitudeDegrees>
            </Position>
            <AltitudeMeters>479.399993896484375</AltitudeMeters>
            <DistanceMeters>NAN</DistanceMeters>
          </Trackpoint>
          <Trackpoint>
            <Time>2022-09-21T12:19:52.000Z</Time>
            <Position>
              <LatitudeDegrees>49.42650879733264446258544921875</LatitudeDegrees>
              <LongitudeDegrees>20.475352965295314788818359375</LongitudeDegrees>
            </Position>
            <AltitudeMeters>479.399993896484375</AltitudeMeters>
            <DistanceMeters>NAN</DistanceMeters>
          </Trackpoint>
          <Trackpoint>
            <Time>2022-09-21T12:19:55.000Z</Time>
            <Position>
              <LatitudeDegrees>49.42647007293999195098876953125</LatitudeDegrees>
              <LongitudeDegrees>20.4753839783370494842529296875</LongitudeDegrees>
            </Position>
            <AltitudeMeters>479.399993896484375</AltitudeMeters>
            <DistanceMeters>NAN</DistanceMeters>
          </Trackpoint>
          <Trackpoint>
            <Time>2022-09-21T12:19:59.000Z</Time>
            <Position>
              <LatitudeDegrees>49.4264681451022624969482421875</LatitudeDegrees>
              <LongitudeDegrees>20.475453548133373260498046875</LongitudeDegrees>
            </Position>
            <AltitudeMeters>479.20001220703125</AltitudeMeters>
            <DistanceMeters>NAN</DistanceMeters>
          </Trackpoint>
          <Trackpoint>
            <Time>2022-09-21T12:20:01.000Z</Time>
            <Position>
              <LatitudeDegrees>49.4264642894268035888671875</LatitudeDegrees>
              <LongitudeDegrees>20.475471317768096923828125</LongitudeDegrees>
            </Position>
            <AltitudeMeters>479.399993896484375</AltitudeMeters>
            <DistanceMeters>NAN</DistanceMeters>
          </Trackpoint>
          <Trackpoint>
            <Time>2022-09-21T12:20:04.000Z</Time>
            <Position>
              <LatitudeDegrees>49.4264554046094417572021484375</LatitudeDegrees>
              <LongitudeDegrees>20.4754798673093318939208984375</LongitudeDegrees>
            </Position>
            <AltitudeMeters>479.399993896484375</AltitudeMeters>
            <DistanceMeters>NAN</DistanceMeters>
          </Trackpoint>
          <Trackpoint>
            <Time>2022-09-21T12:20:06.000Z</Time>
            <Position>
              <LatitudeDegrees>49.4264423288404941558837890625</LatitudeDegrees>
              <LongitudeDegrees>20.4755115509033203125</LongitudeDegrees>
            </Position>
            <AltitudeMeters>479.600006103515625</AltitudeMeters>
            <DistanceMeters>NAN</DistanceMeters>
          </Trackpoint>
          <Trackpoint>
            <Time>2022-09-21T12:20:07.000Z</Time>
            <Position>
              <LatitudeDegrees>49.42642665468156337738037109375</LatitudeDegrees>
              <LongitudeDegrees>20.47552085481584072113037109375</LongitudeDegrees>
            </Position>
            <AltitudeMeters>479.600006103515625</AltitudeMeters>
            <DistanceMeters>NAN</DistanceMeters>
          </Trackpoint>
          <Trackpoint>
            <Time>2022-09-21T12:20:11.000Z</Time>
            <Position>
              <LatitudeDegrees>49.4264213740825653076171875</LatitudeDegrees>
              <LongitudeDegrees>20.47556410543620586395263671875</LongitudeDegrees>
            </Position>
            <AltitudeMeters>479.20001220703125</AltitudeMeters>
            <DistanceMeters>NAN</DistanceMeters>
          </Trackpoint>
          <Trackpoint>
            <Time>2022-09-21T12:20:15.000Z</Time>
            <Position>
              <LatitudeDegrees>49.4263967312872409820556640625</LatitudeDegrees>
              <LongitudeDegrees>20.47554440796375274658203125</LongitudeDegrees>
            </Position>
            <AltitudeMeters>479.20001220703125</AltitudeMeters>
            <DistanceMeters>NAN</DistanceMeters>
          </Trackpoint>
          <Trackpoint>
            <Time>2022-09-21T12:20:16.000Z</Time>
            <Position>
              <LatitudeDegrees>49.4263950549066066741943359375</LatitudeDegrees>
              <LongitudeDegrees>20.4755268059670925140380859375</LongitudeDegrees>
            </Position>
            <AltitudeMeters>479</AltitudeMeters>
            <DistanceMeters>NAN</DistanceMeters>
          </Trackpoint>
          <Trackpoint>
            <Time>2022-09-21T12:20:19.000Z</Time>
            <Position>
              <LatitudeDegrees>49.42641274072229862213134765625</LatitudeDegrees>
              <LongitudeDegrees>20.47546930611133575439453125</LongitudeDegrees>
            </Position>
            <AltitudeMeters>479.20001220703125</AltitudeMeters>
            <DistanceMeters>NAN</DistanceMeters>
          </Trackpoint>
          <Trackpoint>
            <Time>2022-09-21T12:20:20.000Z</Time>
            <Position>
              <LatitudeDegrees>49.42641559056937694549560546875</LatitudeDegrees>
              <LongitudeDegrees>20.47544927336275577545166015625</LongitudeDegrees>
            </Position>
            <AltitudeMeters>479.399993896484375</AltitudeMeters>
            <DistanceMeters>NAN</DistanceMeters>
          </Trackpoint>
          <Trackpoint>
            <Time>2022-09-21T12:20:22.000Z</Time>
            <Position>
              <LatitudeDegrees>49.42642740905284881591796875</LatitudeDegrees>
              <LongitudeDegrees>20.4754302464425563812255859375</LongitudeDegrees>
            </Position>
            <AltitudeMeters>479.600006103515625</AltitudeMeters>
            <DistanceMeters>NAN</DistanceMeters>
          </Trackpoint>
          <Trackpoint>
            <Time>2022-09-21T12:20:24.000Z</Time>
            <Position>
              <LatitudeDegrees>49.42642866633832454681396484375</LatitudeDegrees>
              <LongitudeDegrees>20.475404262542724609375</LongitudeDegrees>
            </Position>
            <AltitudeMeters>479.600006103515625</AltitudeMeters>
            <DistanceMeters>NAN</DistanceMeters>
          </Trackpoint>
          <Trackpoint>
            <Time>2022-09-21T12:20:25.000Z</Time>
            <Position>
              <LatitudeDegrees>49.42642430774867534637451171875</LatitudeDegrees>
              <LongitudeDegrees>20.47538816928863525390625</LongitudeDegrees>
            </Position>
            <AltitudeMeters>479.600006103515625</AltitudeMeters>
            <DistanceMeters>NAN</DistanceMeters>
          </Trackpoint>
          <Trackpoint>
            <Time>2022-09-21T12:20:26.000Z</Time>
            <Position>
              <LatitudeDegrees>49.42642430774867534637451171875</LatitudeDegrees>
              <LongitudeDegrees>20.47536713071167469024658203125</LongitudeDegrees>
            </Position>
            <AltitudeMeters>479.600006103515625</AltitudeMeters>
            <DistanceMeters>NAN</DistanceMeters>
          </Trackpoint>
          <Trackpoint>
            <Time>2022-09-21T12:20:27.000Z</Time>
            <Position>
              <LatitudeDegrees>49.4264213740825653076171875</LatitudeDegrees>
              <LongitudeDegrees>20.47535774298012256622314453125</LongitudeDegrees>
            </Position>
            <AltitudeMeters>479.600006103515625</AltitudeMeters>
            <DistanceMeters>NAN</DistanceMeters>
          </Trackpoint>
          <Trackpoint>
            <Time>2022-09-21T12:20:29.000Z</Time>
            <Position>
              <LatitudeDegrees>49.4264332763850688934326171875</LatitudeDegrees>
              <LongitudeDegrees>20.47532991506159305572509765625</LongitudeDegrees>
            </Position>
            <AltitudeMeters>479.600006103515625</AltitudeMeters>
            <DistanceMeters>NAN</DistanceMeters>
          </Trackpoint>
          <Trackpoint>
            <Time>2022-09-21T12:20:30.000Z</Time>
            <Position>
              <LatitudeDegrees>49.42643118090927600860595703125</LatitudeDegrees>
              <LongitudeDegrees>20.47531616874039173126220703125</LongitudeDegrees>
            </Position>
            <AltitudeMeters>479.600006103515625</AltitudeMeters>
            <DistanceMeters>NAN</DistanceMeters>
          </Trackpoint>
          <Trackpoint>
            <Time>2022-09-21T12:20:33.000Z</Time>
            <Position>
              <LatitudeDegrees>49.42642204463481903076171875</LatitudeDegrees>
              <LongitudeDegrees>20.47527912072837352752685546875</LongitudeDegrees>
            </Position>
            <AltitudeMeters>479.399993896484375</AltitudeMeters>
            <DistanceMeters>NAN</DistanceMeters>
          </Trackpoint>
          <Trackpoint>
            <Time>2022-09-21T12:20:34.000Z</Time>
            <Position>
              <LatitudeDegrees>49.426414333283901214599609375</LatitudeDegrees>
              <LongitudeDegrees>20.47526470385491847991943359375</LongitudeDegrees>
            </Position>
            <AltitudeMeters>479.399993896484375</AltitudeMeters>
            <DistanceMeters>NAN</DistanceMeters>
          </Trackpoint>
          <Trackpoint>
            <Time>2022-09-21T12:20:39.000Z</Time>
            <Position>
              <LatitudeDegrees>49.42642271518707275390625</LatitudeDegrees>
              <LongitudeDegrees>20.47526814043521881103515625</LongitudeDegrees>
            </Position>
            <AltitudeMeters>479.600006103515625</AltitudeMeters>
            <DistanceMeters>NAN</DistanceMeters>
          </Trackpoint>
          <Trackpoint>
            <Time>2022-09-21T12:20:47.000Z</Time>
            <Position>
              <LatitudeDegrees>49.426413662731647491455078125</LatitudeDegrees>
              <LongitudeDegrees>20.47526135109364986419677734375</LongitudeDegrees>
            </Position>
            <AltitudeMeters>479.600006103515625</AltitudeMeters>
            <DistanceMeters>NAN</DistanceMeters>
          </Trackpoint>
          <Trackpoint>
            <Time>2022-09-21T12:20:51.000Z</Time>
            <Position>
              <LatitudeDegrees>49.426413662731647491455078125</LatitudeDegrees>
              <LongitudeDegrees>20.47526135109364986419677734375</LongitudeDegrees>
            </Position>
            <AltitudeMeters>479.600006103515625</AltitudeMeters>
            <DistanceMeters>NAN</DistanceMeters>
          </Trackpoint>
          <Trackpoint>
            <Time>2022-09-21T12:20:56.000Z</Time>
            <Position>
              <LatitudeDegrees>49.4264020957052707672119140625</LatitudeDegrees>
              <LongitudeDegrees>20.4752817191183567047119140625</LongitudeDegrees>
            </Position>
            <AltitudeMeters>479.600006103515625</AltitudeMeters>
            <DistanceMeters>NAN</DistanceMeters>
          </Trackpoint>
          <Trackpoint>
            <Time>2022-09-21T12:20:57.000Z</Time>
            <Position>
              <LatitudeDegrees>49.42639295943081378936767578125</LatitudeDegrees>
              <LongitudeDegrees>20.47528984956443309783935546875</LongitudeDegrees>
            </Position>
            <AltitudeMeters>479.600006103515625</AltitudeMeters>
            <DistanceMeters>NAN</DistanceMeters>
          </Trackpoint>
          <Trackpoint>
            <Time>2022-09-21T12:21:01.000Z</Time>
            <Position>
              <LatitudeDegrees>49.42640637047588825225830078125</LatitudeDegrees>
              <LongitudeDegrees>20.475322119891643524169921875</LongitudeDegrees>
            </Position>
            <AltitudeMeters>479.600006103515625</AltitudeMeters>
            <DistanceMeters>NAN</DistanceMeters>
          </Trackpoint>
          <Trackpoint>
            <Time>2022-09-21T12:21:09.000Z</Time>
            <Position>
              <LatitudeDegrees>49.426451884210109710693359375</LatitudeDegrees>
              <LongitudeDegrees>20.475440807640552520751953125</LongitudeDegrees>
            </Position>
            <AltitudeMeters>479.600006103515625</AltitudeMeters>
            <DistanceMeters>NAN</DistanceMeters>
          </Trackpoint>
          <Trackpoint>
            <Time>2022-09-21T12:21:12.000Z</Time>
            <Position>
              <LatitudeDegrees>49.42643805406987667083740234375</LatitudeDegrees>
              <LongitudeDegrees>20.4754641093313694000244140625</LongitudeDegrees>
            </Position>
            <AltitudeMeters>479.600006103515625</AltitudeMeters>
            <DistanceMeters>NAN</DistanceMeters>
          </Trackpoint>
          <Trackpoint>
            <Time>2022-09-21T12:21:13.000Z</Time>
            <Position>
              <LatitudeDegrees>49.42643336020410060882568359375</LatitudeDegrees>
              <LongitudeDegrees>20.4754721559584140777587890625</LongitudeDegrees>
            </Position>
            <AltitudeMeters>479.600006103515625</AltitudeMeters>
            <DistanceMeters>NAN</DistanceMeters>
          </Trackpoint>
          <Trackpoint>
            <Time>2022-09-21T12:21:15.000Z</Time>
            <Position>
              <LatitudeDegrees>49.42643570713698863983154296875</LatitudeDegrees>
              <LongitudeDegrees>20.4755006544291973114013671875</LongitudeDegrees>
            </Position>
            <AltitudeMeters>479.600006103515625</AltitudeMeters>
            <DistanceMeters>NAN</DistanceMeters>
          </Trackpoint>
          <Trackpoint>
            <Time>2022-09-21T12:21:17.000Z</Time>
            <Position>
              <LatitudeDegrees>49.426423050463199615478515625</LatitudeDegrees>
              <LongitudeDegrees>20.47552420757710933685302734375</LongitudeDegrees>
            </Position>
            <AltitudeMeters>479.399993896484375</AltitudeMeters>
            <DistanceMeters>NAN</DistanceMeters>
          </Trackpoint>
          <Trackpoint>
            <Time>2022-09-21T12:21:20.000Z</Time>
            <Position>
              <LatitudeDegrees>49.42639865912497043609619140625</LatitudeDegrees>
              <LongitudeDegrees>20.4755787737667560577392578125</LongitudeDegrees>
            </Position>
            <AltitudeMeters>479.20001220703125</AltitudeMeters>
            <DistanceMeters>NAN</DistanceMeters>
          </Trackpoint>
          <Trackpoint>
            <Time>2022-09-21T12:21:22.000Z</Time>
            <Position>
              <LatitudeDegrees>49.42639597691595554351806640625</LatitudeDegrees>
              <LongitudeDegrees>20.47561104409396648406982421875</LongitudeDegrees>
            </Position>
            <AltitudeMeters>479.20001220703125</AltitudeMeters>
            <DistanceMeters>NAN</DistanceMeters>
          </Trackpoint>
          <Trackpoint>
            <Time>2022-09-21T12:21:29.000Z</Time>
            <Position>
              <LatitudeDegrees>49.4263601861894130706787109375</LatitudeDegrees>
              <LongitudeDegrees>20.4756528697907924652099609375</LongitudeDegrees>
            </Position>
            <AltitudeMeters>478.600006103515625</AltitudeMeters>
            <DistanceMeters>NAN</DistanceMeters>
          </Trackpoint>
          <Trackpoint>
            <Time>2022-09-21T12:21:30.000Z</Time>
            <Position>
              <LatitudeDegrees>49.4263561628758907318115234375</LatitudeDegrees>
              <LongitudeDegrees>20.475661419332027435302734375</LongitudeDegrees>
            </Position>
            <AltitudeMeters>478.600006103515625</AltitudeMeters>
            <DistanceMeters>NAN</DistanceMeters>
          </Trackpoint>
          <Trackpoint>
            <Time>2022-09-21T12:21:35.000Z</Time>
            <Position>
              <LatitudeDegrees>49.4263551570475101470947265625</LatitudeDegrees>
              <LongitudeDegrees>20.47572436742484569549560546875</LongitudeDegrees>
            </Position>
            <AltitudeMeters>478.399993896484375</AltitudeMeters>
            <DistanceMeters>NAN</DistanceMeters>
          </Trackpoint>
          <Trackpoint>
            <Time>2022-09-21T12:21:41.000Z</Time>
            <Position>
              <LatitudeDegrees>49.426337219774723052978515625</LatitudeDegrees>
              <LongitudeDegrees>20.4757554642856121063232421875</LongitudeDegrees>
            </Position>
            <AltitudeMeters>478.20001220703125</AltitudeMeters>
            <DistanceMeters>NAN</DistanceMeters>
          </Trackpoint>
          <Trackpoint>
            <Time>2022-09-21T12:21:46.000Z</Time>
            <Position>
              <LatitudeDegrees>49.42635540850460529327392578125</LatitudeDegrees>
              <LongitudeDegrees>20.47582293860614299774169921875</LongitudeDegrees>
            </Position>
            <AltitudeMeters>478.600006103515625</AltitudeMeters>
            <DistanceMeters>NAN</DistanceMeters>
          </Trackpoint>
          <Trackpoint>
            <Time>2022-09-21T12:21:49.000Z</Time>
            <Position>
              <LatitudeDegrees>49.42634669132530689239501953125</LatitudeDegrees>
              <LongitudeDegrees>20.4758530296385288238525390625</LongitudeDegrees>
            </Position>
            <AltitudeMeters>478.79998779296875</AltitudeMeters>
            <DistanceMeters>NAN</DistanceMeters>
          </Trackpoint>
          <Trackpoint>
            <Time>2022-09-21T12:21:52.000Z</Time>
            <Position>
              <LatitudeDegrees>49.42635172046720981597900390625</LatitudeDegrees>
              <LongitudeDegrees>20.47590441070497035980224609375</LongitudeDegrees>
            </Position>
            <AltitudeMeters>479.399993896484375</AltitudeMeters>
            <DistanceMeters>NAN</DistanceMeters>
          </Trackpoint>
          <Trackpoint>
            <Time>2022-09-21T12:21:53.000Z</Time>
            <Position>
              <LatitudeDegrees>49.4263543188571929931640625</LatitudeDegrees>
              <LongitudeDegrees>20.47591857612133026123046875</LongitudeDegrees>
            </Position>
            <AltitudeMeters>479.399993896484375</AltitudeMeters>
            <DistanceMeters>NAN</DistanceMeters>
          </Trackpoint>
          <Trackpoint>
            <Time>2022-09-21T12:21:54.000Z</Time>
            <Position>
              <LatitudeDegrees>49.42635104991495609283447265625</LatitudeDegrees>
              <LongitudeDegrees>20.47593559138476848602294921875</LongitudeDegrees>
            </Position>
            <AltitudeMeters>479.600006103515625</AltitudeMeters>
            <DistanceMeters>NAN</DistanceMeters>
          </Trackpoint>
          <Trackpoint>
            <Time>2022-09-21T12:21:57.000Z</Time>
            <Position>
              <LatitudeDegrees>49.426352642476558685302734375</LatitudeDegrees>
              <LongitudeDegrees>20.47599895857274532318115234375</LongitudeDegrees>
            </Position>
            <AltitudeMeters>480.20001220703125</AltitudeMeters>
            <DistanceMeters>NAN</DistanceMeters>
          </Trackpoint>
          <Trackpoint>
            <Time>2022-09-21T12:22:01.000Z</Time>
            <Position>
              <LatitudeDegrees>49.42637653090059757232666015625</LatitudeDegrees>
              <LongitudeDegrees>20.476067773997783660888671875</LongitudeDegrees>
            </Position>
            <AltitudeMeters>480.79998779296875</AltitudeMeters>
            <DistanceMeters>NAN</DistanceMeters>
          </Trackpoint>
          <Trackpoint>
            <Time>2022-09-21T12:22:03.000Z</Time>
            <Position>
              <LatitudeDegrees>49.4263782911002635955810546875</LatitudeDegrees>
              <LongitudeDegrees>20.47610373236238956451416015625</LongitudeDegrees>
            </Position>
            <AltitudeMeters>481.20001220703125</AltitudeMeters>
            <DistanceMeters>NAN</DistanceMeters>
          </Trackpoint>
          <Trackpoint>
            <Time>2022-09-21T12:22:09.000Z</Time>
            <Position>
              <LatitudeDegrees>49.42638105712831020355224609375</LatitudeDegrees>
              <LongitudeDegrees>20.4761645011603832244873046875</LongitudeDegrees>
            </Position>
            <AltitudeMeters>481.399993896484375</AltitudeMeters>
            <DistanceMeters>NAN</DistanceMeters>
          </Trackpoint>
          <Trackpoint>
            <Time>2022-09-21T12:22:14.000Z</Time>
            <Position>
              <LatitudeDegrees>49.42642631940543651580810546875</LatitudeDegrees>
              <LongitudeDegrees>20.47619995661079883575439453125</LongitudeDegrees>
            </Position>
            <AltitudeMeters>481.399993896484375</AltitudeMeters>
            <DistanceMeters>NAN</DistanceMeters>
          </Trackpoint>
          <Trackpoint>
            <Time>2022-09-21T12:22:15.000Z</Time>
            <Position>
              <LatitudeDegrees>49.42644509486854076385498046875</LatitudeDegrees>
              <LongitudeDegrees>20.47620448283851146697998046875</LongitudeDegrees>
            </Position>
            <AltitudeMeters>481.399993896484375</AltitudeMeters>
            <DistanceMeters>NAN</DistanceMeters>
          </Trackpoint>
          <Trackpoint>
            <Time>2022-09-21T12:22:20.000Z</Time>
            <Position>
              <LatitudeDegrees>49.42650443874299526214599609375</LatitudeDegrees>
              <LongitudeDegrees>20.4762489907443523406982421875</LongitudeDegrees>
            </Position>
            <AltitudeMeters>481.399993896484375</AltitudeMeters>
            <DistanceMeters>NAN</DistanceMeters>
          </Trackpoint>
          <Trackpoint>
            <Time>2022-09-21T12:22:23.000Z</Time>
            <Position>
              <LatitudeDegrees>49.4264959730207920074462890625</LatitudeDegrees>
              <LongitudeDegrees>20.47626164741814136505126953125</LongitudeDegrees>
            </Position>
            <AltitudeMeters>481.399993896484375</AltitudeMeters>
            <DistanceMeters>NAN</DistanceMeters>
          </Trackpoint>
          <Trackpoint>
            <Time>2022-09-21T12:22:26.000Z</Time>
            <Position>
              <LatitudeDegrees>49.426509551703929901123046875</LatitudeDegrees>
              <LongitudeDegrees>20.4762732982635498046875</LongitudeDegrees>
            </Position>
            <AltitudeMeters>481.399993896484375</AltitudeMeters>
            <DistanceMeters>NAN</DistanceMeters>
          </Trackpoint>
          <Trackpoint>
            <Time>2022-09-21T12:22:33.000Z</Time>
            <Position>
              <LatitudeDegrees>49.4265670515596866607666015625</LatitudeDegrees>
              <LongitudeDegrees>20.4763282835483551025390625</LongitudeDegrees>
            </Position>
            <AltitudeMeters>481.399993896484375</AltitudeMeters>
            <DistanceMeters>NAN</DistanceMeters>
          </Trackpoint>
          <Trackpoint>
            <Time>2022-09-21T12:22:36.000Z</Time>
            <Position>
              <LatitudeDegrees>49.42659982480108737945556640625</LatitudeDegrees>
              <LongitudeDegrees>20.47634932212531566619873046875</LongitudeDegrees>
            </Position>
            <AltitudeMeters>481.399993896484375</AltitudeMeters>
            <DistanceMeters>NAN</DistanceMeters>
          </Trackpoint>
          <Trackpoint>
            <Time>2022-09-21T12:22:39.000Z</Time>
            <Position>
              <LatitudeDegrees>49.4266341067850589752197265625</LatitudeDegrees>
              <LongitudeDegrees>20.47636960633099079132080078125</LongitudeDegrees>
            </Position>
            <AltitudeMeters>481.20001220703125</AltitudeMeters>
            <DistanceMeters>NAN</DistanceMeters>
          </Trackpoint>
          <Trackpoint>
            <Time>2022-09-21T12:22:44.000Z</Time>
            <Position>
              <LatitudeDegrees>49.4266740046441555023193359375</LatitudeDegrees>
              <LongitudeDegrees>20.47640112228691577911376953125</LongitudeDegrees>
            </Position>
            <AltitudeMeters>481.20001220703125</AltitudeMeters>
            <DistanceMeters>NAN</DistanceMeters>
          </Trackpoint>
          <Trackpoint>
            <Time>2022-09-21T12:22:45.000Z</Time>
            <Position>
              <LatitudeDegrees>49.426672160625457763671875</LatitudeDegrees>
              <LongitudeDegrees>20.47641134820878505706787109375</LongitudeDegrees>
            </Position>
            <AltitudeMeters>481.399993896484375</AltitudeMeters>
            <DistanceMeters>NAN</DistanceMeters>
          </Trackpoint>
          <Trackpoint>
            <Time>2022-09-21T12:22:49.000Z</Time>
            <Position>
              <LatitudeDegrees>49.4266733340919017791748046875</LatitudeDegrees>
              <LongitudeDegrees>20.47648292966187000274658203125</LongitudeDegrees>
            </Position>
            <AltitudeMeters>481.399993896484375</AltitudeMeters>
            <DistanceMeters>NAN</DistanceMeters>
          </Trackpoint>
          <Trackpoint>
            <Time>2022-09-21T12:22:50.000Z</Time>
            <Position>
              <LatitudeDegrees>49.4266830570995807647705078125</LatitudeDegrees>
              <LongitudeDegrees>20.47649030573666095733642578125</LongitudeDegrees>
            </Position>
            <AltitudeMeters>481.399993896484375</AltitudeMeters>
            <DistanceMeters>NAN</DistanceMeters>
          </Trackpoint>
          <Trackpoint>
            <Time>2022-09-21T12:22:55.000Z</Time>
            <Position>
              <LatitudeDegrees>49.4267142377793788909912109375</LatitudeDegrees>
              <LongitudeDegrees>20.47653950750827789306640625</LongitudeDegrees>
            </Position>
            <AltitudeMeters>481.600006103515625</AltitudeMeters>
            <DistanceMeters>NAN</DistanceMeters>
          </Trackpoint>
          <Trackpoint>
            <Time>2022-09-21T12:22:56.000Z</Time>
            <Position>
              <LatitudeDegrees>49.42672220058739185333251953125</LatitudeDegrees>
              <LongitudeDegrees>20.47655417583882808685302734375</LongitudeDegrees>
            </Position>
            <AltitudeMeters>481.600006103515625</AltitudeMeters>
            <DistanceMeters>NAN</DistanceMeters>
          </Trackpoint>
          <Trackpoint>
            <Time>2022-09-21T12:23:01.000Z</Time>
            <Position>
              <LatitudeDegrees>49.4267149083316326141357421875</LatitudeDegrees>
              <LongitudeDegrees>20.47659943811595439910888671875</LongitudeDegrees>
            </Position>
            <AltitudeMeters>481.600006103515625</AltitudeMeters>
            <DistanceMeters>NAN</DistanceMeters>
          </Trackpoint>
          <Trackpoint>
            <Time>2022-09-21T12:23:08.000Z</Time>
            <Position>
              <LatitudeDegrees>49.42666905932128429412841796875</LatitudeDegrees>
              <LongitudeDegrees>20.47664788551628589630126953125</LongitudeDegrees>
            </Position>
            <AltitudeMeters>481.79998779296875</AltitudeMeters>
            <DistanceMeters>NAN</DistanceMeters>
          </Trackpoint>
          <Trackpoint>
            <Time>2022-09-21T12:23:09.000Z</Time>
            <Position>
              <LatitudeDegrees>49.42665874958038330078125</LatitudeDegrees>
              <LongitudeDegrees>20.476661212742328643798828125</LongitudeDegrees>
            </Position>
            <AltitudeMeters>481.79998779296875</AltitudeMeters>
            <DistanceMeters>NAN</DistanceMeters>
          </Trackpoint>
          <Trackpoint>
            <Time>2022-09-21T12:23:11.000Z</Time>
            <Position>
              <LatitudeDegrees>49.426653720438480377197265625</LatitudeDegrees>
              <LongitudeDegrees>20.4766905494034290313720703125</LongitudeDegrees>
            </Position>
            <AltitudeMeters>481.79998779296875</AltitudeMeters>
            <DistanceMeters>NAN</DistanceMeters>
          </Trackpoint>
          <Trackpoint>
            <Time>2022-09-21T12:23:13.000Z</Time>
            <Position>
              <LatitudeDegrees>49.4266307540237903594970703125</LatitudeDegrees>
              <LongitudeDegrees>20.47671142034232616424560546875</LongitudeDegrees>
            </Position>
            <AltitudeMeters>481.79998779296875</AltitudeMeters>
            <DistanceMeters>NAN</DistanceMeters>
          </Trackpoint>
          <Trackpoint>
            <Time>2022-09-21T12:23:18.000Z</Time>
            <Position>
              <LatitudeDegrees>49.42659747786819934844970703125</LatitudeDegrees>
              <LongitudeDegrees>20.47677478753030300140380859375</LongitudeDegrees>
            </Position>
            <AltitudeMeters>481.79998779296875</AltitudeMeters>
            <DistanceMeters>NAN</DistanceMeters>
          </Trackpoint>
          <Trackpoint>
            <Time>2022-09-21T12:23:19.000Z</Time>
            <Position>
              <LatitudeDegrees>49.4265932030975818634033203125</LatitudeDegrees>
              <LongitudeDegrees>20.476783253252506256103515625</LongitudeDegrees>
            </Position>
            <AltitudeMeters>481.79998779296875</AltitudeMeters>
            <DistanceMeters>NAN</DistanceMeters>
          </Trackpoint>
          <Trackpoint>
            <Time>2022-09-21T12:23:25.000Z</Time>
            <Position>
              <LatitudeDegrees>49.426532350480556488037109375</LatitudeDegrees>
              <LongitudeDegrees>20.47688207589089870452880859375</LongitudeDegrees>
            </Position>
            <AltitudeMeters>481.600006103515625</AltitudeMeters>
            <DistanceMeters>NAN</DistanceMeters>
          </Trackpoint>
          <Trackpoint>
            <Time>2022-09-21T12:23:29.000Z</Time>
            <Position>
              <LatitudeDegrees>49.42653712816536426544189453125</LatitudeDegrees>
              <LongitudeDegrees>20.47696069814264774322509765625</LongitudeDegrees>
            </Position>
            <AltitudeMeters>481.600006103515625</AltitudeMeters>
            <DistanceMeters>NAN</DistanceMeters>
          </Trackpoint>
          <Trackpoint>
            <Time>2022-09-21T12:23:32.000Z</Time>
            <Position>
              <LatitudeDegrees>49.42658473737537860870361328125</LatitudeDegrees>
              <LongitudeDegrees>20.4770221374928951263427734375</LongitudeDegrees>
            </Position>
            <AltitudeMeters>481.600006103515625</AltitudeMeters>
            <DistanceMeters>NAN</DistanceMeters>
          </Trackpoint>
          <Trackpoint>
            <Time>2022-09-21T12:23:36.000Z</Time>
            <Position>
              <LatitudeDegrees>49.42666688002645969390869140625</LatitudeDegrees>
              <LongitudeDegrees>20.47707318328320980072021484375</LongitudeDegrees>
            </Position>
            <AltitudeMeters>481.79998779296875</AltitudeMeters>
            <DistanceMeters>NAN</DistanceMeters>
          </Trackpoint>
          <Trackpoint>
            <Time>2022-09-21T12:23:40.000Z</Time>
            <Position>
              <LatitudeDegrees>49.42661918699741363525390625</LatitudeDegrees>
              <LongitudeDegrees>20.47716890461742877960205078125</LongitudeDegrees>
            </Position>
            <AltitudeMeters>481.79998779296875</AltitudeMeters>
            <DistanceMeters>NAN</DistanceMeters>
          </Trackpoint>
          <Trackpoint>
            <Time>2022-09-21T12:23:41.000Z</Time>
            <Position>
              <LatitudeDegrees>49.42660016007721424102783203125</LatitudeDegrees>
              <LongitudeDegrees>20.477194301784038543701171875</LongitudeDegrees>
            </Position>
            <AltitudeMeters>481.600006103515625</AltitudeMeters>
            <DistanceMeters>NAN</DistanceMeters>
          </Trackpoint>
          <Trackpoint>
            <Time>2022-09-22T07:22:06.000Z</Time>
            <Position>
              <LatitudeDegrees>49.426371753215789794921875</LatitudeDegrees>
              <LongitudeDegrees>20.47705608420073986053466796875</LongitudeDegrees>
            </Position>
            <AltitudeMeters>452</AltitudeMeters>
            <DistanceMeters>NAN</DistanceMeters>
          </Trackpoint>
          <Trackpoint>
            <Time>2022-09-22T07:22:07.000Z</Time>
            <Position>
              <LatitudeDegrees>49.4264299236238002777099609375</LatitudeDegrees>
              <LongitudeDegrees>20.47698047943413257598876953125</LongitudeDegrees>
            </Position>
            <AltitudeMeters>452</AltitudeMeters>
            <DistanceMeters>NAN</DistanceMeters>
          </Trackpoint>
          <Trackpoint>
            <Time>2022-09-22T07:22:10.000Z</Time>
            <Position>
              <LatitudeDegrees>49.4265093840658664703369140625</LatitudeDegrees>
              <LongitudeDegrees>20.4767659865319728851318359375</LongitudeDegrees>
            </Position>
            <AltitudeMeters>452</AltitudeMeters>
            <DistanceMeters>NAN</DistanceMeters>
          </Trackpoint>
          <Trackpoint>
            <Time>2022-09-22T07:22:11.000Z</Time>
            <Position>
              <LatitudeDegrees>49.426518268883228302001953125</LatitudeDegrees>
              <LongitudeDegrees>20.47679029405117034912109375</LongitudeDegrees>
            </Position>
            <AltitudeMeters>452</AltitudeMeters>
            <DistanceMeters>NAN</DistanceMeters>
          </Trackpoint>
          <Trackpoint>
            <Time>2022-09-22T07:22:12.000Z</Time>
            <Position>
              <LatitudeDegrees>49.426524974405765533447265625</LatitudeDegrees>
              <LongitudeDegrees>20.47676690854132175445556640625</LongitudeDegrees>
            </Position>
            <AltitudeMeters>452</AltitudeMeters>
            <DistanceMeters>NAN</DistanceMeters>
          </Trackpoint>
          <Trackpoint>
            <Time>2022-09-22T07:22:14.000Z</Time>
            <Position>
              <LatitudeDegrees>49.42653126083314418792724609375</LatitudeDegrees>
              <LongitudeDegrees>20.4767324589192867279052734375</LongitudeDegrees>
            </Position>
            <AltitudeMeters>452</AltitudeMeters>
            <DistanceMeters>NAN</DistanceMeters>
          </Trackpoint>
          <Trackpoint>
            <Time>2022-09-22T07:22:19.000Z</Time>
            <Position>
              <LatitudeDegrees>49.42655707709491252899169921875</LatitudeDegrees>
              <LongitudeDegrees>20.47668837010860443115234375</LongitudeDegrees>
            </Position>
            <AltitudeMeters>452</AltitudeMeters>
            <DistanceMeters>NAN</DistanceMeters>
          </Trackpoint>
          <Trackpoint>
            <Time>2022-09-22T07:22:23.000Z</Time>
            <Position>
              <LatitudeDegrees>49.42659295164048671722412109375</LatitudeDegrees>
              <LongitudeDegrees>20.476658530533313751220703125</LongitudeDegrees>
            </Position>
            <AltitudeMeters>452</AltitudeMeters>
            <DistanceMeters>NAN</DistanceMeters>
          </Trackpoint>
          <Trackpoint>
            <Time>2022-09-22T07:22:33.000Z</Time>
            <Position>
              <LatitudeDegrees>49.42667962051928043365478515625</LatitudeDegrees>
              <LongitudeDegrees>20.47657848335802555084228515625</LongitudeDegrees>
            </Position>
            <AltitudeMeters>451.79998779296875</AltitudeMeters>
            <DistanceMeters>NAN</DistanceMeters>
          </Trackpoint>
          <Trackpoint>
            <Time>2022-09-22T07:22:40.000Z</Time>
            <Position>
              <LatitudeDegrees>49.4266957975924015045166015625</LatitudeDegrees>
              <LongitudeDegrees>20.4765208996832370758056640625</LongitudeDegrees>
            </Position>
            <AltitudeMeters>451.600006103515625</AltitudeMeters>
            <DistanceMeters>NAN</DistanceMeters>
          </Trackpoint>
          <Trackpoint>
            <Time>2022-09-22T07:22:43.000Z</Time>
            <Position>
              <LatitudeDegrees>49.4266733340919017791748046875</LatitudeDegrees>
              <LongitudeDegrees>20.47650136984884738922119140625</LongitudeDegrees>
            </Position>
            <AltitudeMeters>451.600006103515625</AltitudeMeters>
            <DistanceMeters>NAN</DistanceMeters>
          </Trackpoint>
          <Trackpoint>
            <Time>2022-09-22T07:22:45.000Z</Time>
            <Position>
              <LatitudeDegrees>49.42665330134332180023193359375</LatitudeDegrees>
              <LongitudeDegrees>20.476490221917629241943359375</LongitudeDegrees>
            </Position>
            <AltitudeMeters>451.79998779296875</AltitudeMeters>
            <DistanceMeters>NAN</DistanceMeters>
          </Trackpoint>
          <Trackpoint>
            <Time>2022-09-22T07:22:50.000Z</Time>
            <Position>
              <LatitudeDegrees>49.42658741958439350128173828125</LatitudeDegrees>
              <LongitudeDegrees>20.47645543701946735382080078125</LongitudeDegrees>
            </Position>
            <AltitudeMeters>451.600006103515625</AltitudeMeters>
            <DistanceMeters>NAN</DistanceMeters>
          </Trackpoint>
          <Trackpoint>
            <Time>2022-09-22T07:22:55.000Z</Time>
            <Position>
              <LatitudeDegrees>49.42654140293598175048828125</LatitudeDegrees>
              <LongitudeDegrees>20.47638536430895328521728515625</LongitudeDegrees>
            </Position>
            <AltitudeMeters>451.600006103515625</AltitudeMeters>
            <DistanceMeters>NAN</DistanceMeters>
          </Trackpoint>
          <Trackpoint>
            <Time>2022-09-22T07:23:01.000Z</Time>
            <Position>
              <LatitudeDegrees>49.4265053607523441314697265625</LatitudeDegrees>
              <LongitudeDegrees>20.47635368071496486663818359375</LongitudeDegrees>
            </Position>
            <AltitudeMeters>451.600006103515625</AltitudeMeters>
            <DistanceMeters>NAN</DistanceMeters>
          </Trackpoint>
          <Trackpoint>
            <Time>2022-09-22T07:23:04.000Z</Time>
            <Position>
              <LatitudeDegrees>49.426469989120960235595703125</LatitudeDegrees>
              <LongitudeDegrees>20.47631680034101009368896484375</LongitudeDegrees>
            </Position>
            <AltitudeMeters>451.600006103515625</AltitudeMeters>
            <DistanceMeters>NAN</DistanceMeters>
          </Trackpoint>
          <Trackpoint>
            <Time>2022-09-22T07:23:05.000Z</Time>
            <Position>
              <LatitudeDegrees>49.42645967938005924224853515625</LatitudeDegrees>
              <LongitudeDegrees>20.4763073287904262542724609375</LongitudeDegrees>
            </Position>
            <AltitudeMeters>451.600006103515625</AltitudeMeters>
            <DistanceMeters>NAN</DistanceMeters>
          </Trackpoint>
          <Trackpoint>
            <Time>2022-09-22T07:23:06.000Z</Time>
            <Position>
              <LatitudeDegrees>49.42645423114299774169921875</LatitudeDegrees>
              <LongitudeDegrees>20.4763022996485233306884765625</LongitudeDegrees>
            </Position>
            <AltitudeMeters>451.600006103515625</AltitudeMeters>
            <DistanceMeters>NAN</DistanceMeters>
          </Trackpoint>
          <Trackpoint>
            <Time>2022-09-22T07:23:10.000Z</Time>
            <Position>
              <LatitudeDegrees>49.42642548121511936187744140625</LatitudeDegrees>
              <LongitudeDegrees>20.47625578008592128753662109375</LongitudeDegrees>
            </Position>
            <AltitudeMeters>451.600006103515625</AltitudeMeters>
            <DistanceMeters>NAN</DistanceMeters>
          </Trackpoint>
          <Trackpoint>
            <Time>2022-09-22T07:23:11.000Z</Time>
            <Position>
              <LatitudeDegrees>49.42641198635101318359375</LatitudeDegrees>
              <LongitudeDegrees>20.4762493260204792022705078125</LongitudeDegrees>
            </Position>
            <AltitudeMeters>451.399993896484375</AltitudeMeters>
            <DistanceMeters>NAN</DistanceMeters>
          </Trackpoint>
          <Trackpoint>
            <Time>2022-09-22T07:23:14.000Z</Time>
            <Position>
              <LatitudeDegrees>49.42639798857271671295166015625</LatitudeDegrees>
              <LongitudeDegrees>20.47622342593967914581298828125</LongitudeDegrees>
            </Position>
            <AltitudeMeters>451.399993896484375</AltitudeMeters>
            <DistanceMeters>NAN</DistanceMeters>
          </Trackpoint>
          <Trackpoint>
            <Time>2022-09-22T07:23:16.000Z</Time>
            <Position>
              <LatitudeDegrees>49.42638021893799304962158203125</LatitudeDegrees>
              <LongitudeDegrees>20.4762010462582111358642578125</LongitudeDegrees>
            </Position>
            <AltitudeMeters>451.399993896484375</AltitudeMeters>
            <DistanceMeters>NAN</DistanceMeters>
          </Trackpoint>
          <Trackpoint>
            <Time>2022-09-22T07:23:22.000Z</Time>
            <Position>
              <LatitudeDegrees>49.42635624669492244720458984375</LatitudeDegrees>
              <LongitudeDegrees>20.4761324822902679443359375</LongitudeDegrees>
            </Position>
            <AltitudeMeters>451.399993896484375</AltitudeMeters>
            <DistanceMeters>NAN</DistanceMeters>
          </Trackpoint>
          <Trackpoint>
            <Time>2022-09-22T07:23:29.000Z</Time>
            <Position>
              <LatitudeDegrees>49.4263310171663761138916015625</LatitudeDegrees>
              <LongitudeDegrees>20.47603927552700042724609375</LongitudeDegrees>
            </Position>
            <AltitudeMeters>451.399993896484375</AltitudeMeters>
            <DistanceMeters>NAN</DistanceMeters>
          </Trackpoint>
          <Trackpoint>
            <Time>2022-09-22T07:23:34.000Z</Time>
            <Position>
              <LatitudeDegrees>49.4263283349573612213134765625</LatitudeDegrees>
              <LongitudeDegrees>20.4759596474468708038330078125</LongitudeDegrees>
            </Position>
            <AltitudeMeters>450.600006103515625</AltitudeMeters>
            <DistanceMeters>NAN</DistanceMeters>
          </Trackpoint>
          <Trackpoint>
            <Time>2022-09-22T07:23:35.000Z</Time>
            <Position>
              <LatitudeDegrees>49.42632758058607578277587890625</LatitudeDegrees>
              <LongitudeDegrees>20.47593777067959308624267578125</LongitudeDegrees>
            </Position>
            <AltitudeMeters>450.600006103515625</AltitudeMeters>
            <DistanceMeters>NAN</DistanceMeters>
          </Trackpoint>
          <Trackpoint>
            <Time>2022-09-22T07:23:42.000Z</Time>
            <Position>
              <LatitudeDegrees>49.4263226352632045745849609375</LatitudeDegrees>
              <LongitudeDegrees>20.47583484090864658355712890625</LongitudeDegrees>
            </Position>
            <AltitudeMeters>449.600006103515625</AltitudeMeters>
            <DistanceMeters>NAN</DistanceMeters>
          </Trackpoint>
          <Trackpoint>
            <Time>2022-09-22T07:23:44.000Z</Time>
            <Position>
              <LatitudeDegrees>49.42631718702614307403564453125</LatitudeDegrees>
              <LongitudeDegrees>20.4758079349994659423828125</LongitudeDegrees>
            </Position>
            <AltitudeMeters>449.20001220703125</AltitudeMeters>
            <DistanceMeters>NAN</DistanceMeters>
          </Trackpoint>
          <Trackpoint>
            <Time>2022-09-22T07:23:48.000Z</Time>
            <Position>
              <LatitudeDegrees>49.426300339400768280029296875</LatitudeDegrees>
              <LongitudeDegrees>20.4757487587630748748779296875</LongitudeDegrees>
            </Position>
            <AltitudeMeters>448.600006103515625</AltitudeMeters>
            <DistanceMeters>NAN</DistanceMeters>
          </Trackpoint>
          <Trackpoint>
            <Time>2022-09-22T07:23:53.000Z</Time>
            <Position>
              <LatitudeDegrees>49.42628500051796436309814453125</LatitudeDegrees>
              <LongitudeDegrees>20.47562529332935810089111328125</LongitudeDegrees>
            </Position>
            <AltitudeMeters>447.79998779296875</AltitudeMeters>
            <DistanceMeters>NAN</DistanceMeters>
          </Trackpoint>
          <Trackpoint>
            <Time>2022-09-22T07:23:55.000Z</Time>
            <Position>
              <LatitudeDegrees>49.42628902383148670196533203125</LatitudeDegrees>
              <LongitudeDegrees>20.4755874909460544586181640625</LongitudeDegrees>
            </Position>
            <AltitudeMeters>447.600006103515625</AltitudeMeters>
            <DistanceMeters>NAN</DistanceMeters>
          </Trackpoint>
          <Trackpoint>
            <Time>2022-09-22T07:23:57.000Z</Time>
            <Position>
              <LatitudeDegrees>49.426299668848514556884765625</LatitudeDegrees>
              <LongitudeDegrees>20.47555647790431976318359375</LongitudeDegrees>
            </Position>
            <AltitudeMeters>447.600006103515625</AltitudeMeters>
            <DistanceMeters>NAN</DistanceMeters>
          </Trackpoint>
          <Trackpoint>
            <Time>2022-09-22T07:24:01.000Z</Time>
            <Position>
              <LatitudeDegrees>49.42635876126587390899658203125</LatitudeDegrees>
              <LongitudeDegrees>20.475530661642551422119140625</LongitudeDegrees>
            </Position>
            <AltitudeMeters>447.79998779296875</AltitudeMeters>
            <DistanceMeters>NAN</DistanceMeters>
          </Trackpoint>
          <Trackpoint>
            <Time>2022-09-22T07:24:02.000Z</Time>
            <Position>
              <LatitudeDegrees>49.4263759441673755645751953125</LatitudeDegrees>
              <LongitudeDegrees>20.475529991090297698974609375</LongitudeDegrees>
            </Position>
            <AltitudeMeters>447.79998779296875</AltitudeMeters>
            <DistanceMeters>NAN</DistanceMeters>
          </Trackpoint>
          <Trackpoint>
            <Time>2022-09-22T07:24:07.000Z</Time>
            <Position>
              <LatitudeDegrees>49.42641827277839183807373046875</LatitudeDegrees>
              <LongitudeDegrees>20.47553367912769317626953125</LongitudeDegrees>
            </Position>
            <AltitudeMeters>448</AltitudeMeters>
            <DistanceMeters>NAN</DistanceMeters>
          </Trackpoint>
          <Trackpoint>
            <Time>2022-09-22T07:24:09.000Z</Time>
            <Position>
              <LatitudeDegrees>49.426421709358692169189453125</LatitudeDegrees>
              <LongitudeDegrees>20.4754956252872943878173828125</LongitudeDegrees>
            </Position>
            <AltitudeMeters>448.20001220703125</AltitudeMeters>
            <DistanceMeters>NAN</DistanceMeters>
          </Trackpoint>
          <Trackpoint>
            <Time>2022-09-22T07:24:17.000Z</Time>
            <Position>
              <LatitudeDegrees>49.4264808855950832366943359375</LatitudeDegrees>
              <LongitudeDegrees>20.4754190146923065185546875</LongitudeDegrees>
            </Position>
            <AltitudeMeters>448.79998779296875</AltitudeMeters>
            <DistanceMeters>NAN</DistanceMeters>
          </Trackpoint>
          <Trackpoint>
            <Time>2022-09-22T07:24:18.000Z</Time>
            <Position>
              <LatitudeDegrees>49.4264859147369861602783203125</LatitudeDegrees>
              <LongitudeDegrees>20.47541172243654727935791015625</LongitudeDegrees>
            </Position>
            <AltitudeMeters>448.79998779296875</AltitudeMeters>
            <DistanceMeters>NAN</DistanceMeters>
          </Trackpoint>
          <Trackpoint>
            <Time>2022-09-22T07:24:22.000Z</Time>
            <Position>
              <LatitudeDegrees>49.42650594748556613922119140625</LatitudeDegrees>
              <LongitudeDegrees>20.47536545433104038238525390625</LongitudeDegrees>
            </Position>
            <AltitudeMeters>449</AltitudeMeters>
            <DistanceMeters>NAN</DistanceMeters>
          </Trackpoint>
          <Trackpoint>
            <Time>2022-09-22T07:24:23.000Z</Time>
            <Position>
              <LatitudeDegrees>49.42650862969458103179931640625</LatitudeDegrees>
              <LongitudeDegrees>20.4753554798662662506103515625</LongitudeDegrees>
            </Position>
            <AltitudeMeters>449</AltitudeMeters>
            <DistanceMeters>NAN</DistanceMeters>
          </Trackpoint>
          <Trackpoint>
            <Time>2022-09-22T07:24:31.000Z</Time>
            <Position>
              <LatitudeDegrees>49.426525644958019256591796875</LatitudeDegrees>
              <LongitudeDegrees>20.4752488620579242706298828125</LongitudeDegrees>
            </Position>
            <AltitudeMeters>449</AltitudeMeters>
            <DistanceMeters>NAN</DistanceMeters>
          </Trackpoint>
          <Trackpoint>
            <Time>2022-09-22T07:24:38.000Z</Time>
            <Position>
              <LatitudeDegrees>49.42656126804649829864501953125</LatitudeDegrees>
              <LongitudeDegrees>20.47517568804323673248291015625</LongitudeDegrees>
            </Position>
            <AltitudeMeters>449.20001220703125</AltitudeMeters>
            <DistanceMeters>NAN</DistanceMeters>
          </Trackpoint>
          <Trackpoint>
            <Time>2022-09-22T07:24:46.000Z</Time>
            <Position>
              <LatitudeDegrees>49.42658674903213977813720703125</LatitudeDegrees>
              <LongitudeDegrees>20.47503654845058917999267578125</LongitudeDegrees>
            </Position>
            <AltitudeMeters>449.399993896484375</AltitudeMeters>
            <DistanceMeters>NAN</DistanceMeters>
          </Trackpoint>
          <Trackpoint>
            <Time>2022-09-22T07:24:47.000Z</Time>
            <Position>
              <LatitudeDegrees>49.4265983998775482177734375</LatitudeDegrees>
              <LongitudeDegrees>20.47502783127129077911376953125</LongitudeDegrees>
            </Position>
            <AltitudeMeters>449.399993896484375</AltitudeMeters>
            <DistanceMeters>NAN</DistanceMeters>
          </Trackpoint>
          <Trackpoint>
            <Time>2022-09-22T07:24:48.000Z</Time>
            <Position>
              <LatitudeDegrees>49.426604099571704864501953125</LatitudeDegrees>
              <LongitudeDegrees>20.47501190565526485443115234375</LongitudeDegrees>
            </Position>
            <AltitudeMeters>449.399993896484375</AltitudeMeters>
            <DistanceMeters>NAN</DistanceMeters>
          </Trackpoint>
          <Trackpoint>
            <Time>2022-09-22T07:24:56.000Z</Time>
            <Position>
              <LatitudeDegrees>49.4266386330127716064453125</LatitudeDegrees>
              <LongitudeDegrees>20.474882908165454864501953125</LongitudeDegrees>
            </Position>
            <AltitudeMeters>449.600006103515625</AltitudeMeters>
            <DistanceMeters>NAN</DistanceMeters>
          </Trackpoint>
          <Trackpoint>
            <Time>2022-09-22T07:25:03.000Z</Time>
            <Position>
              <LatitudeDegrees>49.4266552291810512542724609375</LatitudeDegrees>
              <LongitudeDegrees>20.4747860133647918701171875</LongitudeDegrees>
            </Position>
            <AltitudeMeters>450.20001220703125</AltitudeMeters>
            <DistanceMeters>NAN</DistanceMeters>
          </Trackpoint>
          <Trackpoint>
            <Time>2022-09-22T07:25:10.000Z</Time>
            <Position>
              <LatitudeDegrees>49.42668431438505649566650390625</LatitudeDegrees>
              <LongitudeDegrees>20.47469976358115673065185546875</LongitudeDegrees>
            </Position>
            <AltitudeMeters>450.79998779296875</AltitudeMeters>
            <DistanceMeters>NAN</DistanceMeters>
          </Trackpoint>
          <Trackpoint>
            <Time>2022-09-22T07:25:11.000Z</Time>
            <Position>
              <LatitudeDegrees>49.42668867297470569610595703125</LatitudeDegrees>
              <LongitudeDegrees>20.47468216158449649810791015625</LongitudeDegrees>
            </Position>
            <AltitudeMeters>451</AltitudeMeters>
            <DistanceMeters>NAN</DistanceMeters>
          </Trackpoint>
          <Trackpoint>
            <Time>2022-09-22T07:25:19.000Z</Time>
            <Position>
              <LatitudeDegrees>49.42673544399440288543701171875</LatitudeDegrees>
              <LongitudeDegrees>20.4745997674763202667236328125</LongitudeDegrees>
            </Position>
            <AltitudeMeters>451.399993896484375</AltitudeMeters>
            <DistanceMeters>NAN</DistanceMeters>
          </Trackpoint>
          <Trackpoint>
            <Time>2022-09-22T07:25:26.000Z</Time>
            <Position>
              <LatitudeDegrees>49.42678506486117839813232421875</LatitudeDegrees>
              <LongitudeDegrees>20.47459465451538562774658203125</LongitudeDegrees>
            </Position>
            <AltitudeMeters>451.79998779296875</AltitudeMeters>
            <DistanceMeters>NAN</DistanceMeters>
          </Trackpoint>
          <Trackpoint>
            <Time>2022-09-22T07:25:28.000Z</Time>
            <Position>
              <LatitudeDegrees>49.4267812930047512054443359375</LatitudeDegrees>
              <LongitudeDegrees>20.4745799861848354339599609375</LongitudeDegrees>
            </Position>
            <AltitudeMeters>452</AltitudeMeters>
            <DistanceMeters>NAN</DistanceMeters>
          </Trackpoint>
          <Trackpoint>
            <Time>2022-09-22T07:25:32.000Z</Time>
            <Position>
              <LatitudeDegrees>49.42679889500141143798828125</LatitudeDegrees>
              <LongitudeDegrees>20.4745524935424327850341796875</LongitudeDegrees>
            </Position>
            <AltitudeMeters>452</AltitudeMeters>
            <DistanceMeters>NAN</DistanceMeters>
          </Trackpoint>
          <Trackpoint>
            <Time>2022-09-22T07:25:40.000Z</Time>
            <Position>
              <LatitudeDegrees>49.4268235377967357635498046875</LatitudeDegrees>
              <LongitudeDegrees>20.4745177924633026123046875</LongitudeDegrees>
            </Position>
            <AltitudeMeters>452.20001220703125</AltitudeMeters>
            <DistanceMeters>NAN</DistanceMeters>
          </Trackpoint>
          <Trackpoint>
            <Time>2022-09-22T07:25:48.000Z</Time>
            <Position>
              <LatitudeDegrees>49.42682010121643543243408203125</LatitudeDegrees>
              <LongitudeDegrees>20.47449641861021518707275390625</LongitudeDegrees>
            </Position>
            <AltitudeMeters>452</AltitudeMeters>
            <DistanceMeters>NAN</DistanceMeters>
          </Trackpoint>
          <Trackpoint>
            <Time>2022-09-22T07:25:57.000Z</Time>
            <Position>
              <LatitudeDegrees>49.42681741900742053985595703125</LatitudeDegrees>
              <LongitudeDegrees>20.4744024574756622314453125</LongitudeDegrees>
            </Position>
            <AltitudeMeters>452</AltitudeMeters>
            <DistanceMeters>NAN</DistanceMeters>
          </Trackpoint>
          <Trackpoint>
            <Time>2022-09-22T07:26:01.000Z</Time>
            <Position>
              <LatitudeDegrees>49.42683803848922252655029296875</LatitudeDegrees>
              <LongitudeDegrees>20.474362559616565704345703125</LongitudeDegrees>
            </Position>
            <AltitudeMeters>451.79998779296875</AltitudeMeters>
            <DistanceMeters>NAN</DistanceMeters>
          </Trackpoint>
          <Trackpoint>
            <Time>2022-09-22T07:26:02.000Z</Time>
            <Position>
              <LatitudeDegrees>49.42683166824281215667724609375</LatitudeDegrees>
              <LongitudeDegrees>20.47435459680855274200439453125</LongitudeDegrees>
            </Position>
            <AltitudeMeters>451.79998779296875</AltitudeMeters>
            <DistanceMeters>NAN</DistanceMeters>
          </Trackpoint>
          <Trackpoint>
            <Time>2022-09-22T07:26:08.000Z</Time>
            <Position>
              <LatitudeDegrees>49.4268232025206089019775390625</LatitudeDegrees>
              <LongitudeDegrees>20.47435887157917022705078125</LongitudeDegrees>
            </Position>
            <AltitudeMeters>451.600006103515625</AltitudeMeters>
            <DistanceMeters>NAN</DistanceMeters>
          </Trackpoint>
          <Trackpoint>
            <Time>2022-09-22T07:26:21.000Z</Time>
            <Position>
              <LatitudeDegrees>49.4268245436251163482666015625</LatitudeDegrees>
              <LongitudeDegrees>20.4743959195911884307861328125</LongitudeDegrees>
            </Position>
            <AltitudeMeters>451.79998779296875</AltitudeMeters>
            <DistanceMeters>NAN</DistanceMeters>
          </Trackpoint>
          <Trackpoint>
            <Time>2022-09-22T07:26:22.000Z</Time>
            <Position>
              <LatitudeDegrees>49.42682563327252864837646484375</LatitudeDegrees>
              <LongitudeDegrees>20.4743905551731586456298828125</LongitudeDegrees>
            </Position>
            <AltitudeMeters>452</AltitudeMeters>
            <DistanceMeters>NAN</DistanceMeters>
          </Trackpoint>
          <Trackpoint>
            <Time>2022-09-22T07:26:23.000Z</Time>
            <Position>
              <LatitudeDegrees>49.42682613618671894073486328125</LatitudeDegrees>
              <LongitudeDegrees>20.4743617214262485504150390625</LongitudeDegrees>
            </Position>
            <AltitudeMeters>451.79998779296875</AltitudeMeters>
            <DistanceMeters>NAN</DistanceMeters>
          </Trackpoint>
          <Trackpoint>
            <Time>2022-09-22T07:26:30.000Z</Time>
            <Position>
              <LatitudeDegrees>49.4268403016030788421630859375</LatitudeDegrees>
              <LongitudeDegrees>20.47417572699487209320068359375</LongitudeDegrees>
            </Position>
            <AltitudeMeters>451.79998779296875</AltitudeMeters>
            <DistanceMeters>NAN</DistanceMeters>
          </Trackpoint>
          <Trackpoint>
            <Time>2022-09-22T07:26:38.000Z</Time>
            <Position>
              <LatitudeDegrees>49.42687475122511386871337890625</LatitudeDegrees>
              <LongitudeDegrees>20.4739644192159175872802734375</LongitudeDegrees>
            </Position>
            <AltitudeMeters>451.600006103515625</AltitudeMeters>
            <DistanceMeters>NAN</DistanceMeters>
          </Trackpoint>
          <Trackpoint>
            <Time>2022-09-22T07:26:47.000Z</Time>
            <Position>
              <LatitudeDegrees>49.4269214384257793426513671875</LatitudeDegrees>
              <LongitudeDegrees>20.47373349778354167938232421875</LongitudeDegrees>
            </Position>
            <AltitudeMeters>451.600006103515625</AltitudeMeters>
            <DistanceMeters>NAN</DistanceMeters>
          </Trackpoint>
          <Trackpoint>
            <Time>2022-09-22T07:26:51.000Z</Time>
            <Position>
              <LatitudeDegrees>49.4269167445600032806396484375</LatitudeDegrees>
              <LongitudeDegrees>20.4737173207104206085205078125</LongitudeDegrees>
            </Position>
            <AltitudeMeters>451.399993896484375</AltitudeMeters>
            <DistanceMeters>NAN</DistanceMeters>
          </Trackpoint>
          <Trackpoint>
            <Time>2022-09-22T07:26:55.000Z</Time>
            <Position>
              <LatitudeDegrees>49.42694515921175479888916015625</LatitudeDegrees>
              <LongitudeDegrees>20.4737072624266147613525390625</LongitudeDegrees>
            </Position>
            <AltitudeMeters>451.20001220703125</AltitudeMeters>
            <DistanceMeters>NAN</DistanceMeters>
          </Trackpoint>
          <Trackpoint>
            <Time>2022-09-22T07:26:57.000Z</Time>
            <Position>
              <LatitudeDegrees>49.42697323858737945556640625</LatitudeDegrees>
              <LongitudeDegrees>20.47368672676384449005126953125</LongitudeDegrees>
            </Position>
            <AltitudeMeters>451.20001220703125</AltitudeMeters>
            <DistanceMeters>NAN</DistanceMeters>
          </Trackpoint>
          <Trackpoint>
            <Time>2022-09-22T07:26:58.000Z</Time>
            <Position>
              <LatitudeDegrees>49.42698019556701183319091796875</LatitudeDegrees>
              <LongitudeDegrees>20.4736648499965667724609375</LongitudeDegrees>
            </Position>
            <AltitudeMeters>451.20001220703125</AltitudeMeters>
            <DistanceMeters>NAN</DistanceMeters>
          </Trackpoint>
          <Trackpoint>
            <Time>2022-09-22T07:27:02.000Z</Time>
            <Position>
              <LatitudeDegrees>49.42702017724514007568359375</LatitudeDegrees>
              <LongitudeDegrees>20.47354037873446941375732421875</LongitudeDegrees>
            </Position>
            <AltitudeMeters>451.399993896484375</AltitudeMeters>
            <DistanceMeters>NAN</DistanceMeters>
          </Trackpoint>
          <Trackpoint>
            <Time>2022-09-22T07:27:05.000Z</Time>
            <Position>
              <LatitudeDegrees>49.427056722342967987060546875</LatitudeDegrees>
              <LongitudeDegrees>20.47343459911644458770751953125</LongitudeDegrees>
            </Position>
            <AltitudeMeters>451.399993896484375</AltitudeMeters>
            <DistanceMeters>NAN</DistanceMeters>
          </Trackpoint>
          <Trackpoint>
            <Time>2022-09-22T07:27:10.000Z</Time>
            <Position>
              <LatitudeDegrees>49.42712746560573577880859375</LatitudeDegrees>
              <LongitudeDegrees>20.47323594801127910614013671875</LongitudeDegrees>
            </Position>
            <AltitudeMeters>451</AltitudeMeters>
            <DistanceMeters>NAN</DistanceMeters>
          </Trackpoint>
          <Trackpoint>
            <Time>2022-09-22T07:27:11.000Z</Time>
            <Position>
              <LatitudeDegrees>49.42714230157434940338134765625</LatitudeDegrees>
              <LongitudeDegrees>20.47319211065769195556640625</LongitudeDegrees>
            </Position>
            <AltitudeMeters>450.79998779296875</AltitudeMeters>
            <DistanceMeters>NAN</DistanceMeters>
          </Trackpoint>
          <Trackpoint>
            <Time>2022-09-22T07:27:17.000Z</Time>
            <Position>
              <LatitudeDegrees>49.42721824161708354949951171875</LatitudeDegrees>
              <LongitudeDegrees>20.4729123227298259735107421875</LongitudeDegrees>
            </Position>
            <AltitudeMeters>450.600006103515625</AltitudeMeters>
            <DistanceMeters>NAN</DistanceMeters>
          </Trackpoint>
          <Trackpoint>
            <Time>2022-09-22T07:27:22.000Z</Time>
            <Position>
              <LatitudeDegrees>49.42726962268352508544921875</LatitudeDegrees>
              <LongitudeDegrees>20.47265608794987201690673828125</LongitudeDegrees>
            </Position>
            <AltitudeMeters>450.20001220703125</AltitudeMeters>
            <DistanceMeters>NAN</DistanceMeters>
          </Trackpoint>
          <Trackpoint>
            <Time>2022-09-22T07:27:24.000Z</Time>
            <Position>
              <LatitudeDegrees>49.42728948779404163360595703125</LatitudeDegrees>
              <LongitudeDegrees>20.4725508950650691986083984375</LongitudeDegrees>
            </Position>
            <AltitudeMeters>450</AltitudeMeters>
            <DistanceMeters>NAN</DistanceMeters>
          </Trackpoint>
          <Trackpoint>
            <Time>2022-09-22T07:27:29.000Z</Time>
            <Position>
              <LatitudeDegrees>49.42731714807450771331787109375</LatitudeDegrees>
              <LongitudeDegrees>20.4722607135772705078125</LongitudeDegrees>
            </Position>
            <AltitudeMeters>449.79998779296875</AltitudeMeters>
            <DistanceMeters>NAN</DistanceMeters>
          </Trackpoint>
          <Trackpoint>
            <Time>2022-09-22T07:27:33.000Z</Time>
            <Position>
              <LatitudeDegrees>49.42734598182141780853271484375</LatitudeDegrees>
              <LongitudeDegrees>20.4720117710530757904052734375</LongitudeDegrees>
            </Position>
            <AltitudeMeters>449.20001220703125</AltitudeMeters>
            <DistanceMeters>NAN</DistanceMeters>
          </Trackpoint>
          <Trackpoint>
            <Time>2022-09-22T07:27:37.000Z</Time>
            <Position>
              <LatitudeDegrees>49.42738135345280170440673828125</LatitudeDegrees>
              <LongitudeDegrees>20.4717502556741237640380859375</LongitudeDegrees>
            </Position>
            <AltitudeMeters>448.79998779296875</AltitudeMeters>
            <DistanceMeters>NAN</DistanceMeters>
          </Trackpoint>
          <Trackpoint>
            <Time>2022-09-22T07:27:43.000Z</Time>
            <Position>
              <LatitudeDegrees>49.42742410115897655487060546875</LatitudeDegrees>
              <LongitudeDegrees>20.47132839448750019073486328125</LongitudeDegrees>
            </Position>
            <AltitudeMeters>448.399993896484375</AltitudeMeters>
            <DistanceMeters>NAN</DistanceMeters>
          </Trackpoint>
          <Trackpoint>
            <Time>2022-09-22T07:27:48.000Z</Time>
            <Position>
              <LatitudeDegrees>49.4274622388184070587158203125</LatitudeDegrees>
              <LongitudeDegrees>20.4709647037088871002197265625</LongitudeDegrees>
            </Position>
            <AltitudeMeters>447.79998779296875</AltitudeMeters>
            <DistanceMeters>NAN</DistanceMeters>
          </Trackpoint>
          <Trackpoint>
            <Time>2022-09-22T07:27:52.000Z</Time>
            <Position>
              <LatitudeDegrees>49.42749601788818836212158203125</LatitudeDegrees>
              <LongitudeDegrees>20.47065884806215763092041015625</LongitudeDegrees>
            </Position>
            <AltitudeMeters>447</AltitudeMeters>
            <DistanceMeters>NAN</DistanceMeters>
          </Trackpoint>
          <Trackpoint>
            <Time>2022-09-22T07:27:55.000Z</Time>
            <Position>
              <LatitudeDegrees>49.42751831375062465667724609375</LatitudeDegrees>
              <LongitudeDegrees>20.470410995185375213623046875</LongitudeDegrees>
            </Position>
            <AltitudeMeters>446.399993896484375</AltitudeMeters>
            <DistanceMeters>NAN</DistanceMeters>
          </Trackpoint>
          <Trackpoint>
            <Time>2022-09-22T07:27:58.000Z</Time>
            <Position>
              <LatitudeDegrees>49.427536837756633758544921875</LatitudeDegrees>
              <LongitudeDegrees>20.470155179500579833984375</LongitudeDegrees>
            </Position>
            <AltitudeMeters>445.600006103515625</AltitudeMeters>
            <DistanceMeters>NAN</DistanceMeters>
          </Trackpoint>
          <Trackpoint>
            <Time>2022-09-22T07:27:59.000Z</Time>
            <Position>
              <LatitudeDegrees>49.42753692157566547393798828125</LatitudeDegrees>
              <LongitudeDegrees>20.47006607986986637115478515625</LongitudeDegrees>
            </Position>
            <AltitudeMeters>445.399993896484375</AltitudeMeters>
            <DistanceMeters>NAN</DistanceMeters>
          </Trackpoint>
          <Trackpoint>
            <Time>2022-09-22T07:28:00.000Z</Time>
            <Position>
              <LatitudeDegrees>49.4275333173573017120361328125</LatitudeDegrees>
              <LongitudeDegrees>20.46997614204883575439453125</LongitudeDegrees>
            </Position>
            <AltitudeMeters>445</AltitudeMeters>
            <DistanceMeters>NAN</DistanceMeters>
          </Trackpoint>
          <Trackpoint>
            <Time>2022-09-22T07:28:05.000Z</Time>
            <Position>
              <LatitudeDegrees>49.4274840317666530609130859375</LatitudeDegrees>
              <LongitudeDegrees>20.469499044120311737060546875</LongitudeDegrees>
            </Position>
            <AltitudeMeters>443.79998779296875</AltitudeMeters>
            <DistanceMeters>NAN</DistanceMeters>
          </Trackpoint>
          <Trackpoint>
            <Time>2022-09-22T07:28:06.000Z</Time>
            <Position>
              <LatitudeDegrees>49.42747078835964202880859375</LatitudeDegrees>
              <LongitudeDegrees>20.469397790729999542236328125</LongitudeDegrees>
            </Position>
            <AltitudeMeters>443.20001220703125</AltitudeMeters>
            <DistanceMeters>NAN</DistanceMeters>
          </Trackpoint>
          <Trackpoint>
            <Time>2022-09-22T07:28:08.000Z</Time>
            <Position>
              <LatitudeDegrees>49.427444636821746826171875</LatitudeDegrees>
              <LongitudeDegrees>20.46919293701648712158203125</LongitudeDegrees>
            </Position>
            <AltitudeMeters>442.600006103515625</AltitudeMeters>
            <DistanceMeters>NAN</DistanceMeters>
          </Trackpoint>
          <Trackpoint>
            <Time>2022-09-22T07:28:13.000Z</Time>
            <Position>
              <LatitudeDegrees>49.42738093435764312744140625</LatitudeDegrees>
              <LongitudeDegrees>20.4686908610165119171142578125</LongitudeDegrees>
            </Position>
            <AltitudeMeters>442.20001220703125</AltitudeMeters>
            <DistanceMeters>NAN</DistanceMeters>
          </Trackpoint>
          <Trackpoint>
            <Time>2022-09-22T07:28:21.000Z</Time>
            <Position>
              <LatitudeDegrees>49.4272957742214202880859375</LatitudeDegrees>
              <LongitudeDegrees>20.4679706878960132598876953125</LongitudeDegrees>
            </Position>
            <AltitudeMeters>441.600006103515625</AltitudeMeters>
            <DistanceMeters>NAN</DistanceMeters>
          </Trackpoint>
          <Trackpoint>
            <Time>2022-09-22T07:28:22.000Z</Time>
            <Position>
              <LatitudeDegrees>49.42728839814662933349609375</LatitudeDegrees>
              <LongitudeDegrees>20.46788477338850498199462890625</LongitudeDegrees>
            </Position>
            <AltitudeMeters>441.600006103515625</AltitudeMeters>
            <DistanceMeters>NAN</DistanceMeters>
          </Trackpoint>
          <Trackpoint>
            <Time>2022-09-22T07:28:26.000Z</Time>
            <Position>
              <LatitudeDegrees>49.42726786248385906219482421875</LatitudeDegrees>
              <LongitudeDegrees>20.46755972318351268768310546875</LongitudeDegrees>
            </Position>
            <AltitudeMeters>441.399993896484375</AltitudeMeters>
            <DistanceMeters>NAN</DistanceMeters>
          </Trackpoint>
          <Trackpoint>
            <Time>2022-09-22T07:28:28.000Z</Time>
            <Position>
              <LatitudeDegrees>49.42727993242442607879638671875</LatitudeDegrees>
              <LongitudeDegrees>20.4674141295254230499267578125</LongitudeDegrees>
            </Position>
            <AltitudeMeters>441.399993896484375</AltitudeMeters>
            <DistanceMeters>NAN</DistanceMeters>
          </Trackpoint>
          <Trackpoint>
            <Time>2022-09-22T07:28:35.000Z</Time>
            <Position>
              <LatitudeDegrees>49.4273428805172443389892578125</LatitudeDegrees>
              <LongitudeDegrees>20.467006266117095947265625</LongitudeDegrees>
            </Position>
            <AltitudeMeters>441.79998779296875</AltitudeMeters>
            <DistanceMeters>NAN</DistanceMeters>
          </Trackpoint>
          <Trackpoint>
            <Time>2022-09-22T07:28:43.000Z</Time>
            <Position>
              <LatitudeDegrees>49.42736710421741008758544921875</LatitudeDegrees>
              <LongitudeDegrees>20.46654601581394672393798828125</LongitudeDegrees>
            </Position>
            <AltitudeMeters>441.79998779296875</AltitudeMeters>
            <DistanceMeters>NAN</DistanceMeters>
          </Trackpoint>
          <Trackpoint>
            <Time>2022-09-22T07:28:45.000Z</Time>
            <Position>
              <LatitudeDegrees>49.4273593090474605560302734375</LatitudeDegrees>
              <LongitudeDegrees>20.46643721871078014373779296875</LongitudeDegrees>
            </Position>
            <AltitudeMeters>441.79998779296875</AltitudeMeters>
            <DistanceMeters>NAN</DistanceMeters>
          </Trackpoint>
          <Trackpoint>
            <Time>2022-09-22T07:28:51.000Z</Time>
            <Position>
              <LatitudeDegrees>49.42731195129454135894775390625</LatitudeDegrees>
              <LongitudeDegrees>20.46613027341663837432861328125</LongitudeDegrees>
            </Position>
            <AltitudeMeters>441.79998779296875</AltitudeMeters>
            <DistanceMeters>NAN</DistanceMeters>
          </Trackpoint>
          <Trackpoint>
            <Time>2022-09-22T07:28:57.000Z</Time>
            <Position>
              <LatitudeDegrees>49.427220337092876434326171875</LatitudeDegrees>
              <LongitudeDegrees>20.465821065008640289306640625</LongitudeDegrees>
            </Position>
            <AltitudeMeters>441.399993896484375</AltitudeMeters>
            <DistanceMeters>NAN</DistanceMeters>
          </Trackpoint>
          <Trackpoint>
            <Time>2022-09-22T07:29:00.000Z</Time>
            <Position>
              <LatitudeDegrees>49.427155293524265289306640625</LatitudeDegrees>
              <LongitudeDegrees>20.46567253768444061279296875</LongitudeDegrees>
            </Position>
            <AltitudeMeters>441</AltitudeMeters>
            <DistanceMeters>NAN</DistanceMeters>
          </Trackpoint>
          <Trackpoint>
            <Time>2022-09-22T07:29:08.000Z</Time>
            <Position>
              <LatitudeDegrees>49.42691716365516185760498046875</LatitudeDegrees>
              <LongitudeDegrees>20.46530700288712978363037109375</LongitudeDegrees>
            </Position>
            <AltitudeMeters>440.600006103515625</AltitudeMeters>
            <DistanceMeters>NAN</DistanceMeters>
          </Trackpoint>
          <Trackpoint>
            <Time>2022-09-22T07:29:09.000Z</Time>
            <Position>
              <LatitudeDegrees>49.42688279785215854644775390625</LatitudeDegrees>
              <LongitudeDegrees>20.465271212160587310791015625</LongitudeDegrees>
            </Position>
            <AltitudeMeters>440.600006103515625</AltitudeMeters>
            <DistanceMeters>NAN</DistanceMeters>
          </Trackpoint>
          <Trackpoint>
            <Time>2022-09-22T07:29:15.000Z</Time>
            <Position>
              <LatitudeDegrees>49.4266555644571781158447265625</LatitudeDegrees>
              <LongitudeDegrees>20.46508203260600566864013671875</LongitudeDegrees>
            </Position>
            <AltitudeMeters>440.20001220703125</AltitudeMeters>
            <DistanceMeters>NAN</DistanceMeters>
          </Trackpoint>
          <Trackpoint>
            <Time>2022-09-22T07:29:20.000Z</Time>
            <Position>
              <LatitudeDegrees>49.42645934410393238067626953125</LatitudeDegrees>
              <LongitudeDegrees>20.46495730988681316375732421875</LongitudeDegrees>
            </Position>
            <AltitudeMeters>439.399993896484375</AltitudeMeters>
            <DistanceMeters>NAN</DistanceMeters>
          </Trackpoint>
          <Trackpoint>
            <Time>2022-09-22T07:29:26.000Z</Time>
            <Position>
              <LatitudeDegrees>49.42619766108691692352294921875</LatitudeDegrees>
              <LongitudeDegrees>20.4647869057953357696533203125</LongitudeDegrees>
            </Position>
            <AltitudeMeters>439</AltitudeMeters>
            <DistanceMeters>NAN</DistanceMeters>
          </Trackpoint>
          <Trackpoint>
            <Time>2022-09-22T07:29:28.000Z</Time>
            <Position>
              <LatitudeDegrees>49.426114261150360107421875</LatitudeDegrees>
              <LongitudeDegrees>20.46472362242639064788818359375</LongitudeDegrees>
            </Position>
            <AltitudeMeters>438.79998779296875</AltitudeMeters>
            <DistanceMeters>NAN</DistanceMeters>
          </Trackpoint>
          <Trackpoint>
            <Time>2022-09-22T07:29:30.000Z</Time>
            <Position>
              <LatitudeDegrees>49.42604108713567256927490234375</LatitudeDegrees>
              <LongitudeDegrees>20.46462689526379108428955078125</LongitudeDegrees>
            </Position>
            <AltitudeMeters>438.600006103515625</AltitudeMeters>
            <DistanceMeters>NAN</DistanceMeters>
          </Trackpoint>
          <Trackpoint>
            <Time>2022-09-22T07:29:31.000Z</Time>
            <Position>
              <LatitudeDegrees>49.42601208575069904327392578125</LatitudeDegrees>
              <LongitudeDegrees>20.4645721614360809326171875</LongitudeDegrees>
            </Position>
            <AltitudeMeters>438.399993896484375</AltitudeMeters>
            <DistanceMeters>NAN</DistanceMeters>
          </Trackpoint>
          <Trackpoint>
            <Time>2022-09-22T07:29:32.000Z</Time>
            <Position>
              <LatitudeDegrees>49.42598610185086727142333984375</LatitudeDegrees>
              <LongitudeDegrees>20.46451306901872158050537109375</LongitudeDegrees>
            </Position>
            <AltitudeMeters>438.399993896484375</AltitudeMeters>
            <DistanceMeters>NAN</DistanceMeters>
          </Trackpoint>
          <Trackpoint>
            <Time>2022-09-22T07:29:37.000Z</Time>
            <Position>
              <LatitudeDegrees>49.4258877821266651153564453125</LatitudeDegrees>
              <LongitudeDegrees>20.46419790945947170257568359375</LongitudeDegrees>
            </Position>
            <AltitudeMeters>438</AltitudeMeters>
            <DistanceMeters>NAN</DistanceMeters>
          </Trackpoint>
          <Trackpoint>
            <Time>2022-09-22T07:29:45.000Z</Time>
            <Position>
              <LatitudeDegrees>49.42575174383819103240966796875</LatitudeDegrees>
              <LongitudeDegrees>20.46371544711291790008544921875</LongitudeDegrees>
            </Position>
            <AltitudeMeters>437.600006103515625</AltitudeMeters>
            <DistanceMeters>NAN</DistanceMeters>
          </Trackpoint>
          <Trackpoint>
            <Time>2022-09-22T07:29:46.000Z</Time>
            <Position>
              <LatitudeDegrees>49.42573850043118000030517578125</LatitudeDegrees>
              <LongitudeDegrees>20.46365308575332164764404296875</LongitudeDegrees>
            </Position>
            <AltitudeMeters>437.399993896484375</AltitudeMeters>
            <DistanceMeters>NAN</DistanceMeters>
          </Trackpoint>
          <Trackpoint>
            <Time>2022-09-22T07:29:53.000Z</Time>
            <Position>
              <LatitudeDegrees>49.425645209848880767822265625</LatitudeDegrees>
              <LongitudeDegrees>20.4632074199616909027099609375</LongitudeDegrees>
            </Position>
            <AltitudeMeters>437</AltitudeMeters>
            <DistanceMeters>NAN</DistanceMeters>
          </Trackpoint>
          <Trackpoint>
            <Time>2022-09-22T07:29:54.000Z</Time>
            <Position>
              <LatitudeDegrees>49.42563674412667751312255859375</LatitudeDegrees>
              <LongitudeDegrees>20.4631386883556842803955078125</LongitudeDegrees>
            </Position>
            <AltitudeMeters>437</AltitudeMeters>
            <DistanceMeters>NAN</DistanceMeters>
          </Trackpoint>
          <Trackpoint>
            <Time>2022-09-22T07:30:01.000Z</Time>
            <Position>
              <LatitudeDegrees>49.42559936083853244781494140625</LatitudeDegrees>
              <LongitudeDegrees>20.4626589082181453704833984375</LongitudeDegrees>
            </Position>
            <AltitudeMeters>436.600006103515625</AltitudeMeters>
            <DistanceMeters>NAN</DistanceMeters>
          </Trackpoint>
          <Trackpoint>
            <Time>2022-09-22T07:30:06.000Z</Time>
            <Position>
              <LatitudeDegrees>49.42557840608060359954833984375</LatitudeDegrees>
              <LongitudeDegrees>20.46231432817876338958740234375</LongitudeDegrees>
            </Position>
            <AltitudeMeters>436.399993896484375</AltitudeMeters>
            <DistanceMeters>NAN</DistanceMeters>
          </Trackpoint>
          <Trackpoint>
            <Time>2022-09-22T07:30:11.000Z</Time>
            <Position>
              <LatitudeDegrees>49.425580166280269622802734375</LatitudeDegrees>
              <LongitudeDegrees>20.46197569929063320159912109375</LongitudeDegrees>
            </Position>
            <AltitudeMeters>436.20001220703125</AltitudeMeters>
            <DistanceMeters>NAN</DistanceMeters>
          </Trackpoint>
          <Trackpoint>
            <Time>2022-09-22T07:30:22.000Z</Time>
            <Position>
              <LatitudeDegrees>49.42558762617409229278564453125</LatitudeDegrees>
              <LongitudeDegrees>20.46126759611070156097412109375</LongitudeDegrees>
            </Position>
            <AltitudeMeters>435.79998779296875</AltitudeMeters>
            <DistanceMeters>NAN</DistanceMeters>
          </Trackpoint>
          <Trackpoint>
            <Time>2022-09-22T07:30:30.000Z</Time>
            <Position>
              <LatitudeDegrees>49.42562484182417392730712890625</LatitudeDegrees>
              <LongitudeDegrees>20.46077859587967395782470703125</LongitudeDegrees>
            </Position>
            <AltitudeMeters>435.600006103515625</AltitudeMeters>
            <DistanceMeters>NAN</DistanceMeters>
          </Trackpoint>
          <Trackpoint>
            <Time>2022-09-22T07:30:33.000Z</Time>
            <Position>
              <LatitudeDegrees>49.42564713768661022186279296875</LatitudeDegrees>
              <LongitudeDegrees>20.46056234277784824371337890625</LongitudeDegrees>
            </Position>
            <AltitudeMeters>435.399993896484375</AltitudeMeters>
            <DistanceMeters>NAN</DistanceMeters>
          </Trackpoint>
          <Trackpoint>
            <Time>2022-09-22T07:30:35.000Z</Time>
            <Position>
              <LatitudeDegrees>49.425678066909313201904296875</LatitudeDegrees>
              <LongitudeDegrees>20.46041130088269710540771484375</LongitudeDegrees>
            </Position>
            <AltitudeMeters>434.600006103515625</AltitudeMeters>
            <DistanceMeters>NAN</DistanceMeters>
          </Trackpoint>
          <Trackpoint>
            <Time>2022-09-22T07:30:36.000Z</Time>
            <Position>
              <LatitudeDegrees>49.42569357343018054962158203125</LatitudeDegrees>
              <LongitudeDegrees>20.46033091843128204345703125</LongitudeDegrees>
            </Position>
            <AltitudeMeters>434.20001220703125</AltitudeMeters>
            <DistanceMeters>NAN</DistanceMeters>
          </Trackpoint>
          <Trackpoint>
            <Time>2022-09-22T07:30:40.000Z</Time>
            <Position>
              <LatitudeDegrees>49.4257509894669055938720703125</LatitudeDegrees>
              <LongitudeDegrees>20.45997778885066509246826171875</LongitudeDegrees>
            </Position>
            <AltitudeMeters>432.79998779296875</AltitudeMeters>
            <DistanceMeters>NAN</DistanceMeters>
          </Trackpoint>
          <Trackpoint>
            <Time>2022-09-22T07:30:42.000Z</Time>
            <Position>
              <LatitudeDegrees>49.425767920911312103271484375</LatitudeDegrees>
              <LongitudeDegrees>20.45979104004800319671630859375</LongitudeDegrees>
            </Position>
            <AltitudeMeters>432</AltitudeMeters>
            <DistanceMeters>NAN</DistanceMeters>
          </Trackpoint>
          <Trackpoint>
            <Time>2022-09-22T07:30:44.000Z</Time>
            <Position>
              <LatitudeDegrees>49.42577118985354900360107421875</LatitudeDegrees>
              <LongitudeDegrees>20.459613762795925140380859375</LongitudeDegrees>
            </Position>
            <AltitudeMeters>431.20001220703125</AltitudeMeters>
            <DistanceMeters>NAN</DistanceMeters>
          </Trackpoint>
          <Trackpoint>
            <Time>2022-09-22T07:30:47.000Z</Time>
            <Position>
              <LatitudeDegrees>49.425761215388774871826171875</LatitudeDegrees>
              <LongitudeDegrees>20.45935886912047863006591796875</LongitudeDegrees>
            </Position>
            <AltitudeMeters>430</AltitudeMeters>
            <DistanceMeters>NAN</DistanceMeters>
          </Trackpoint>
          <Trackpoint>
            <Time>2022-09-22T07:30:48.000Z</Time>
            <Position>
              <LatitudeDegrees>49.42575811408460140228271484375</LatitudeDegrees>
              <LongitudeDegrees>20.4592773132026195526123046875</LongitudeDegrees>
            </Position>
            <AltitudeMeters>429.79998779296875</AltitudeMeters>
            <DistanceMeters>NAN</DistanceMeters>
          </Trackpoint>
          <Trackpoint>
            <Time>2022-09-22T07:30:50.000Z</Time>
            <Position>
              <LatitudeDegrees>49.42575090564787387847900390625</LatitudeDegrees>
              <LongitudeDegrees>20.459127612411975860595703125</LongitudeDegrees>
            </Position>
            <AltitudeMeters>429</AltitudeMeters>
            <DistanceMeters>NAN</DistanceMeters>
          </Trackpoint>
          <Trackpoint>
            <Time>2022-09-22T07:30:51.000Z</Time>
            <Position>
              <LatitudeDegrees>49.42574570886790752410888671875</LatitudeDegrees>
              <LongitudeDegrees>20.45905779115855693817138671875</LongitudeDegrees>
            </Position>
            <AltitudeMeters>428.79998779296875</AltitudeMeters>
            <DistanceMeters>NAN</DistanceMeters>
          </Trackpoint>
          <Trackpoint>
            <Time>2022-09-22T07:30:52.000Z</Time>
            <Position>
              <LatitudeDegrees>49.42573606967926025390625</LatitudeDegrees>
              <LongitudeDegrees>20.45899023301899433135986328125</LongitudeDegrees>
            </Position>
            <AltitudeMeters>428.399993896484375</AltitudeMeters>
            <DistanceMeters>NAN</DistanceMeters>
          </Trackpoint>
          <Trackpoint>
            <Time>2022-09-22T07:30:53.000Z</Time>
            <Position>
              <LatitudeDegrees>49.42572022788226604461669921875</LatitudeDegrees>
              <LongitudeDegrees>20.4589314758777618408203125</LongitudeDegrees>
            </Position>
            <AltitudeMeters>428.20001220703125</AltitudeMeters>
            <DistanceMeters>NAN</DistanceMeters>
          </Trackpoint>
          <Trackpoint>
            <Time>2022-09-22T07:30:54.000Z</Time>
            <Position>
              <LatitudeDegrees>49.4256985187530517578125</LatitudeDegrees>
              <LongitudeDegrees>20.4588810168206691741943359375</LongitudeDegrees>
            </Position>
            <AltitudeMeters>428</AltitudeMeters>
            <DistanceMeters>NAN</DistanceMeters>
          </Trackpoint>
          <Trackpoint>
            <Time>2022-09-22T07:30:57.000Z</Time>
            <Position>
              <LatitudeDegrees>49.42562811076641082763671875</LatitudeDegrees>
              <LongitudeDegrees>20.45878328382968902587890625</LongitudeDegrees>
            </Position>
            <AltitudeMeters>427.399993896484375</AltitudeMeters>
            <DistanceMeters>NAN</DistanceMeters>
          </Trackpoint>
          <Trackpoint>
            <Time>2022-09-22T07:31:02.000Z</Time>
            <Position>
              <LatitudeDegrees>49.42549131810665130615234375</LatitudeDegrees>
              <LongitudeDegrees>20.4587452299892902374267578125</LongitudeDegrees>
            </Position>
            <AltitudeMeters>427.20001220703125</AltitudeMeters>
            <DistanceMeters>NAN</DistanceMeters>
          </Trackpoint>
          <Trackpoint>
            <Time>2022-09-22T07:31:03.000Z</Time>
            <Position>
              <LatitudeDegrees>49.42546047270298004150390625</LatitudeDegrees>
              <LongitudeDegrees>20.4587517678737640380859375</LongitudeDegrees>
            </Position>
            <AltitudeMeters>427.20001220703125</AltitudeMeters>
            <DistanceMeters>NAN</DistanceMeters>
          </Trackpoint>
          <Trackpoint>
            <Time>2022-09-22T07:31:07.000Z</Time>
            <Position>
              <LatitudeDegrees>49.4253412820398807525634765625</LatitudeDegrees>
              <LongitudeDegrees>20.45882779173552989959716796875</LongitudeDegrees>
            </Position>
            <AltitudeMeters>427.20001220703125</AltitudeMeters>
            <DistanceMeters>NAN</DistanceMeters>
          </Trackpoint>
          <Trackpoint>
            <Time>2022-09-22T07:31:12.000Z</Time>
            <Position>
              <LatitudeDegrees>49.4252108596265316009521484375</LatitudeDegrees>
              <LongitudeDegrees>20.4589395225048065185546875</LongitudeDegrees>
            </Position>
            <AltitudeMeters>427.79998779296875</AltitudeMeters>
            <DistanceMeters>NAN</DistanceMeters>
          </Trackpoint>
          <Trackpoint>
            <Time>2022-09-22T07:31:17.000Z</Time>
            <Position>
              <LatitudeDegrees>49.4251139648258686065673828125</LatitudeDegrees>
              <LongitudeDegrees>20.4590104334056377410888671875</LongitudeDegrees>
            </Position>
            <AltitudeMeters>428.20001220703125</AltitudeMeters>
            <DistanceMeters>NAN</DistanceMeters>
          </Trackpoint>
          <Trackpoint>
            <Time>2022-09-22T07:31:22.000Z</Time>
            <Position>
              <LatitudeDegrees>49.42507515661418437957763671875</LatitudeDegrees>
              <LongitudeDegrees>20.45902795158326625823974609375</LongitudeDegrees>
            </Position>
            <AltitudeMeters>428.20001220703125</AltitudeMeters>
            <DistanceMeters>NAN</DistanceMeters>
          </Trackpoint>
          <Trackpoint>
            <Time>2022-09-22T07:31:29.000Z</Time>
            <Position>
              <LatitudeDegrees>49.425068199634552001953125</LatitudeDegrees>
              <LongitudeDegrees>20.4590012133121490478515625</LongitudeDegrees>
            </Position>
            <AltitudeMeters>428.20001220703125</AltitudeMeters>
            <DistanceMeters>NAN</DistanceMeters>
          </Trackpoint>
          <Trackpoint>
            <Time>2022-09-22T07:31:38.000Z</Time>
            <Position>
              <LatitudeDegrees>49.425068199634552001953125</LatitudeDegrees>
              <LongitudeDegrees>20.4590012133121490478515625</LongitudeDegrees>
            </Position>
            <AltitudeMeters>428.20001220703125</AltitudeMeters>
            <DistanceMeters>NAN</DistanceMeters>
          </Trackpoint>
          <Trackpoint>
            <Time>2022-09-22T07:31:54.000Z</Time>
            <Position>
              <LatitudeDegrees>49.42507096566259860992431640625</LatitudeDegrees>
              <LongitudeDegrees>20.45899509452283382415771484375</LongitudeDegrees>
            </Position>
            <AltitudeMeters>428.20001220703125</AltitudeMeters>
            <DistanceMeters>NAN</DistanceMeters>
          </Trackpoint>
          <Trackpoint>
            <Time>2022-09-22T07:31:55.000Z</Time>
            <Position>
              <LatitudeDegrees>49.42507096566259860992431640625</LatitudeDegrees>
              <LongitudeDegrees>20.45899509452283382415771484375</LongitudeDegrees>
            </Position>
            <AltitudeMeters>428.20001220703125</AltitudeMeters>
            <DistanceMeters>NAN</DistanceMeters>
          </Trackpoint>
          <Trackpoint>
            <Time>2022-09-22T07:31:58.000Z</Time>
            <Position>
              <LatitudeDegrees>49.42507096566259860992431640625</LatitudeDegrees>
              <LongitudeDegrees>20.45899509452283382415771484375</LongitudeDegrees>
            </Position>
            <AltitudeMeters>428.20001220703125</AltitudeMeters>
            <DistanceMeters>NAN</DistanceMeters>
          </Trackpoint>
          <Trackpoint>
            <Time>2022-09-22T07:32:04.000Z</Time>
            <Position>
              <LatitudeDegrees>49.42507096566259860992431640625</LatitudeDegrees>
              <LongitudeDegrees>20.45899509452283382415771484375</LongitudeDegrees>
            </Position>
            <AltitudeMeters>428.399993896484375</AltitudeMeters>
            <DistanceMeters>NAN</DistanceMeters>
          </Trackpoint>
          <Trackpoint>
            <Time>2022-09-22T07:32:14.000Z</Time>
            <Position>
              <LatitudeDegrees>49.425085969269275665283203125</LatitudeDegrees>
              <LongitudeDegrees>20.45898570679128170013427734375</LongitudeDegrees>
            </Position>
            <AltitudeMeters>428.399993896484375</AltitudeMeters>
            <DistanceMeters>NAN</DistanceMeters>
          </Trackpoint>
          <Trackpoint>
            <Time>2022-09-22T07:32:16.000Z</Time>
            <Position>
              <LatitudeDegrees>49.42511706613004207611083984375</LatitudeDegrees>
              <LongitudeDegrees>20.45896257273852825164794921875</LongitudeDegrees>
            </Position>
            <AltitudeMeters>428.399993896484375</AltitudeMeters>
            <DistanceMeters>NAN</DistanceMeters>
          </Trackpoint>
          <Trackpoint>
            <Time>2022-09-22T07:32:22.000Z</Time>
            <Position>
              <LatitudeDegrees>49.42522167228162288665771484375</LatitudeDegrees>
              <LongitudeDegrees>20.4588709585368633270263671875</LongitudeDegrees>
            </Position>
            <AltitudeMeters>428.20001220703125</AltitudeMeters>
            <DistanceMeters>NAN</DistanceMeters>
          </Trackpoint>
          <Trackpoint>
            <Time>2022-09-22T07:32:30.000Z</Time>
            <Position>
              <LatitudeDegrees>49.425402469933032989501953125</LatitudeDegrees>
              <LongitudeDegrees>20.45870776288211345672607421875</LongitudeDegrees>
            </Position>
            <AltitudeMeters>427.79998779296875</AltitudeMeters>
            <DistanceMeters>NAN</DistanceMeters>
          </Trackpoint>
          <Trackpoint>
            <Time>2022-09-22T07:32:31.000Z</Time>
            <Position>
              <LatitudeDegrees>49.42542501725256443023681640625</LatitudeDegrees>
              <LongitudeDegrees>20.458685047924518585205078125</LongitudeDegrees>
            </Position>
            <AltitudeMeters>427.79998779296875</AltitudeMeters>
            <DistanceMeters>NAN</DistanceMeters>
          </Trackpoint>
          <Trackpoint>
            <Time>2022-09-22T07:32:36.000Z</Time>
            <Position>
              <LatitudeDegrees>49.425500370562076568603515625</LatitudeDegrees>
              <LongitudeDegrees>20.45861539430916309356689453125</LongitudeDegrees>
            </Position>
            <AltitudeMeters>427.399993896484375</AltitudeMeters>
            <DistanceMeters>NAN</DistanceMeters>
          </Trackpoint>
          <Trackpoint>
            <Time>2022-09-22T07:32:43.000Z</Time>
            <Position>
              <LatitudeDegrees>49.4256312958896160125732421875</LatitudeDegrees>
              <LongitudeDegrees>20.45844960026443004608154296875</LongitudeDegrees>
            </Position>
            <AltitudeMeters>427.20001220703125</AltitudeMeters>
            <DistanceMeters>NAN</DistanceMeters>
          </Trackpoint>
          <Trackpoint>
            <Time>2022-09-22T07:32:47.000Z</Time>
            <Position>
              <LatitudeDegrees>49.425682760775089263916015625</LatitudeDegrees>
              <LongitudeDegrees>20.45833610929548740386962890625</LongitudeDegrees>
            </Position>
            <AltitudeMeters>427</AltitudeMeters>
            <DistanceMeters>NAN</DistanceMeters>
          </Trackpoint>
          <Trackpoint>
            <Time>2022-09-22T07:32:49.000Z</Time>
            <Position>
              <LatitudeDegrees>49.425690807402133941650390625</LatitudeDegrees>
              <LongitudeDegrees>20.45831448398530483245849609375</LongitudeDegrees>
            </Position>
            <AltitudeMeters>426.79998779296875</AltitudeMeters>
            <DistanceMeters>NAN</DistanceMeters>
          </Trackpoint>
          <Trackpoint>
            <Time>2022-09-22T07:32:56.000Z</Time>
            <Position>
              <LatitudeDegrees>49.425690807402133941650390625</LatitudeDegrees>
              <LongitudeDegrees>20.45831448398530483245849609375</LongitudeDegrees>
            </Position>
            <AltitudeMeters>426.600006103515625</AltitudeMeters>
            <DistanceMeters>NAN</DistanceMeters>
          </Trackpoint>
          <Trackpoint>
            <Time>2022-09-22T07:32:57.000Z</Time>
            <Position>
              <LatitudeDegrees>49.425690807402133941650390625</LatitudeDegrees>
              <LongitudeDegrees>20.45831448398530483245849609375</LongitudeDegrees>
            </Position>
            <AltitudeMeters>426.600006103515625</AltitudeMeters>
            <DistanceMeters>NAN</DistanceMeters>
          </Trackpoint>
          <Trackpoint>
            <Time>2022-09-22T07:33:11.000Z</Time>
            <Position>
              <LatitudeDegrees>49.42569508217275142669677734375</LatitudeDegrees>
              <LongitudeDegrees>20.45831314288079738616943359375</LongitudeDegrees>
            </Position>
            <AltitudeMeters>426.79998779296875</AltitudeMeters>
            <DistanceMeters>NAN</DistanceMeters>
          </Trackpoint>
          <Trackpoint>
            <Time>2022-09-22T07:33:20.000Z</Time>
            <Position>
              <LatitudeDegrees>49.42569508217275142669677734375</LatitudeDegrees>
              <LongitudeDegrees>20.45831314288079738616943359375</LongitudeDegrees>
            </Position>
            <AltitudeMeters>426.600006103515625</AltitudeMeters>
            <DistanceMeters>NAN</DistanceMeters>
          </Trackpoint>
          <Trackpoint>
            <Time>2022-09-22T07:33:21.000Z</Time>
            <Position>
              <LatitudeDegrees>49.42569508217275142669677734375</LatitudeDegrees>
              <LongitudeDegrees>20.45831314288079738616943359375</LongitudeDegrees>
            </Position>
            <AltitudeMeters>426.399993896484375</AltitudeMeters>
            <DistanceMeters>NAN</DistanceMeters>
          </Trackpoint>
          <Trackpoint>
            <Time>2022-09-22T07:33:26.000Z</Time>
            <Position>
              <LatitudeDegrees>49.42569508217275142669677734375</LatitudeDegrees>
              <LongitudeDegrees>20.45831314288079738616943359375</LongitudeDegrees>
            </Position>
            <AltitudeMeters>426.600006103515625</AltitudeMeters>
            <DistanceMeters>NAN</DistanceMeters>
          </Trackpoint>
          <Trackpoint>
            <Time>2022-09-22T07:33:37.000Z</Time>
            <Position>
              <LatitudeDegrees>49.42569508217275142669677734375</LatitudeDegrees>
              <LongitudeDegrees>20.45831314288079738616943359375</LongitudeDegrees>
            </Position>
            <AltitudeMeters>426.600006103515625</AltitudeMeters>
            <DistanceMeters>NAN</DistanceMeters>
          </Trackpoint>
          <Trackpoint>
            <Time>2022-09-22T07:33:44.000Z</Time>
            <Position>
              <LatitudeDegrees>49.42573615349829196929931640625</LatitudeDegrees>
              <LongitudeDegrees>20.45821842737495899200439453125</LongitudeDegrees>
            </Position>
            <AltitudeMeters>426.600006103515625</AltitudeMeters>
            <DistanceMeters>NAN</DistanceMeters>
          </Trackpoint>
          <Trackpoint>
            <Time>2022-09-22T07:33:50.000Z</Time>
            <Position>
              <LatitudeDegrees>49.425831623375415802001953125</LatitudeDegrees>
              <LongitudeDegrees>20.4579471051692962646484375</LongitudeDegrees>
            </Position>
            <AltitudeMeters>426.600006103515625</AltitudeMeters>
            <DistanceMeters>NAN</DistanceMeters>
          </Trackpoint>
          <Trackpoint>
            <Time>2022-09-22T07:33:55.000Z</Time>
            <Position>
              <LatitudeDegrees>49.4258971698582172393798828125</LatitudeDegrees>
              <LongitudeDegrees>20.45772121287882328033447265625</LongitudeDegrees>
            </Position>
            <AltitudeMeters>426.399993896484375</AltitudeMeters>
            <DistanceMeters>NAN</DistanceMeters>
          </Trackpoint>
          <Trackpoint>
            <Time>2022-09-22T07:33:58.000Z</Time>
            <Position>
              <LatitudeDegrees>49.425931870937347412109375</LatitudeDegrees>
              <LongitudeDegrees>20.4575814865529537200927734375</LongitudeDegrees>
            </Position>
            <AltitudeMeters>426.399993896484375</AltitudeMeters>
            <DistanceMeters>NAN</DistanceMeters>
          </Trackpoint>
          <Trackpoint>
            <Time>2022-09-22T07:33:59.000Z</Time>
            <Position>
              <LatitudeDegrees>49.425941593945026397705078125</LatitudeDegrees>
              <LongitudeDegrees>20.4575335420668125152587890625</LongitudeDegrees>
            </Position>
            <AltitudeMeters>426.399993896484375</AltitudeMeters>
            <DistanceMeters>NAN</DistanceMeters>
          </Trackpoint>
          <Trackpoint>
            <Time>2022-09-22T07:34:05.000Z</Time>
            <Position>
              <LatitudeDegrees>49.4260031171143054962158203125</LatitudeDegrees>
              <LongitudeDegrees>20.45727143995463848114013671875</LongitudeDegrees>
            </Position>
            <AltitudeMeters>426.20001220703125</AltitudeMeters>
            <DistanceMeters>NAN</DistanceMeters>
          </Trackpoint>
          <Trackpoint>
            <Time>2022-09-22T07:34:08.000Z</Time>
            <Position>
              <LatitudeDegrees>49.426026754081249237060546875</LatitudeDegrees>
              <LongitudeDegrees>20.45714403502643108367919921875</LongitudeDegrees>
            </Position>
            <AltitudeMeters>426</AltitudeMeters>
            <DistanceMeters>NAN</DistanceMeters>
          </Trackpoint>
          <Trackpoint>
            <Time>2022-09-22T07:34:16.000Z</Time>
            <Position>
              <LatitudeDegrees>49.42606757394969463348388671875</LatitudeDegrees>
              <LongitudeDegrees>20.4568043164908885955810546875</LongitudeDegrees>
            </Position>
            <AltitudeMeters>426</AltitudeMeters>
            <DistanceMeters>NAN</DistanceMeters>
          </Trackpoint>
          <Trackpoint>
            <Time>2022-09-22T07:34:18.000Z</Time>
            <Position>
              <LatitudeDegrees>49.42607243545353412628173828125</LatitudeDegrees>
              <LongitudeDegrees>20.45671991072595119476318359375</LongitudeDegrees>
            </Position>
            <AltitudeMeters>425.79998779296875</AltitudeMeters>
            <DistanceMeters>NAN</DistanceMeters>
          </Trackpoint>
          <Trackpoint>
            <Time>2022-09-22T07:34:22.000Z</Time>
            <Position>
              <LatitudeDegrees>49.426075704395771026611328125</LatitudeDegrees>
              <LongitudeDegrees>20.45659535564482212066650390625</LongitudeDegrees>
            </Position>
            <AltitudeMeters>425.79998779296875</AltitudeMeters>
            <DistanceMeters>NAN</DistanceMeters>
          </Trackpoint>
          <Trackpoint>
            <Time>2022-09-22T07:34:23.000Z</Time>
            <Position>
              <LatitudeDegrees>49.4260741956532001495361328125</LatitudeDegrees>
              <LongitudeDegrees>20.45659066177904605865478515625</LongitudeDegrees>
            </Position>
            <AltitudeMeters>425.79998779296875</AltitudeMeters>
            <DistanceMeters>NAN</DistanceMeters>
          </Trackpoint>
          <Trackpoint>
            <Time>2022-09-22T07:34:30.000Z</Time>
            <Position>
              <LatitudeDegrees>49.4260741956532001495361328125</LatitudeDegrees>
              <LongitudeDegrees>20.45659066177904605865478515625</LongitudeDegrees>
            </Position>
            <AltitudeMeters>426.20001220703125</AltitudeMeters>
            <DistanceMeters>NAN</DistanceMeters>
          </Trackpoint>
          <Trackpoint>
            <Time>2022-09-22T07:34:34.000Z</Time>
            <Position>
              <LatitudeDegrees>49.4260741956532001495361328125</LatitudeDegrees>
              <LongitudeDegrees>20.45659066177904605865478515625</LongitudeDegrees>
            </Position>
            <AltitudeMeters>426.20001220703125</AltitudeMeters>
            <DistanceMeters>NAN</DistanceMeters>
          </Trackpoint>
          <Trackpoint>
            <Time>2022-09-22T07:34:50.000Z</Time>
            <Position>
              <LatitudeDegrees>49.4260741956532001495361328125</LatitudeDegrees>
              <LongitudeDegrees>20.45659066177904605865478515625</LongitudeDegrees>
            </Position>
            <AltitudeMeters>426.20001220703125</AltitudeMeters>
            <DistanceMeters>NAN</DistanceMeters>
          </Trackpoint>
          <Trackpoint>
            <Time>2022-09-22T07:34:51.000Z</Time>
            <Position>
              <LatitudeDegrees>49.42607461474835872650146484375</LatitudeDegrees>
              <LongitudeDegrees>20.4565863870084285736083984375</LongitudeDegrees>
            </Position>
            <AltitudeMeters>426.20001220703125</AltitudeMeters>
            <DistanceMeters>NAN</DistanceMeters>
          </Trackpoint>
          <Trackpoint>
            <Time>2022-09-22T07:34:52.000Z</Time>
            <Position>
              <LatitudeDegrees>49.4260755367577075958251953125</LatitudeDegrees>
              <LongitudeDegrees>20.45655126683413982391357421875</LongitudeDegrees>
            </Position>
            <AltitudeMeters>426.20001220703125</AltitudeMeters>
            <DistanceMeters>NAN</DistanceMeters>
          </Trackpoint>
          <Trackpoint>
            <Time>2022-09-22T07:34:57.000Z</Time>
            <Position>
              <LatitudeDegrees>49.42609523423016071319580078125</LatitudeDegrees>
              <LongitudeDegrees>20.45631757937371730804443359375</LongitudeDegrees>
            </Position>
            <AltitudeMeters>426</AltitudeMeters>
            <DistanceMeters>NAN</DistanceMeters>
          </Trackpoint>
          <Trackpoint>
            <Time>2022-09-22T07:35:05.000Z</Time>
            <Position>
              <LatitudeDegrees>49.42611032165586948394775390625</LatitudeDegrees>
              <LongitudeDegrees>20.4559339396655559539794921875</LongitudeDegrees>
            </Position>
            <AltitudeMeters>426.399993896484375</AltitudeMeters>
            <DistanceMeters>NAN</DistanceMeters>
          </Trackpoint>
          <Trackpoint>
            <Time>2022-09-22T07:35:09.000Z</Time>
            <Position>
              <LatitudeDegrees>49.426109232008457183837890625</LatitudeDegrees>
              <LongitudeDegrees>20.4557316005229949951171875</LongitudeDegrees>
            </Position>
            <AltitudeMeters>426.399993896484375</AltitudeMeters>
            <DistanceMeters>NAN</DistanceMeters>
          </Trackpoint>
          <Trackpoint>
            <Time>2022-09-22T07:35:12.000Z</Time>
            <Position>
              <LatitudeDegrees>49.4261087290942668914794921875</LatitudeDegrees>
              <LongitudeDegrees>20.45556136406958103179931640625</LongitudeDegrees>
            </Position>
            <AltitudeMeters>426.600006103515625</AltitudeMeters>
            <DistanceMeters>NAN</DistanceMeters>
          </Trackpoint>
          <Trackpoint>
            <Time>2022-09-22T07:35:20.000Z</Time>
            <Position>
              <LatitudeDegrees>49.42609188146889209747314453125</LatitudeDegrees>
              <LongitudeDegrees>20.455166660249233245849609375</LongitudeDegrees>
            </Position>
            <AltitudeMeters>426.600006103515625</AltitudeMeters>
            <DistanceMeters>NAN</DistanceMeters>
          </Trackpoint>
          <Trackpoint>
            <Time>2022-09-22T07:35:26.000Z</Time>
            <Position>
              <LatitudeDegrees>49.42607159726321697235107421875</LatitudeDegrees>
              <LongitudeDegrees>20.45487756840884685516357421875</LongitudeDegrees>
            </Position>
            <AltitudeMeters>426.79998779296875</AltitudeMeters>
            <DistanceMeters>NAN</DistanceMeters>
          </Trackpoint>
          <Trackpoint>
            <Time>2022-09-22T07:35:31.000Z</Time>
            <Position>
              <LatitudeDegrees>49.426071681082248687744140625</LatitudeDegrees>
              <LongitudeDegrees>20.454663075506687164306640625</LongitudeDegrees>
            </Position>
            <AltitudeMeters>427</AltitudeMeters>
            <DistanceMeters>NAN</DistanceMeters>
          </Trackpoint>
          <Trackpoint>
            <Time>2022-09-22T07:35:32.000Z</Time>
            <Position>
              <LatitudeDegrees>49.42606992088258266448974609375</LatitudeDegrees>
              <LongitudeDegrees>20.4546193219721317291259765625</LongitudeDegrees>
            </Position>
            <AltitudeMeters>427</AltitudeMeters>
            <DistanceMeters>NAN</DistanceMeters>
          </Trackpoint>
          <Trackpoint>
            <Time>2022-09-22T07:35:35.000Z</Time>
            <Position>
              <LatitudeDegrees>49.4260664843022823333740234375</LatitudeDegrees>
              <LongitudeDegrees>20.4544707946479320526123046875</LongitudeDegrees>
            </Position>
            <AltitudeMeters>427</AltitudeMeters>
            <DistanceMeters>NAN</DistanceMeters>
          </Trackpoint>
          <Trackpoint>
            <Time>2022-09-22T07:35:39.000Z</Time>
            <Position>
              <LatitudeDegrees>49.42606472410261631011962890625</LatitudeDegrees>
              <LongitudeDegrees>20.45428899116814136505126953125</LongitudeDegrees>
            </Position>
            <AltitudeMeters>427.20001220703125</AltitudeMeters>
            <DistanceMeters>NAN</DistanceMeters>
          </Trackpoint>
          <Trackpoint>
            <Time>2022-09-22T07:35:41.000Z</Time>
            <Position>
              <LatitudeDegrees>49.42606187425553798675537109375</LatitudeDegrees>
              <LongitudeDegrees>20.45419947244226932525634765625</LongitudeDegrees>
            </Position>
            <AltitudeMeters>427.20001220703125</AltitudeMeters>
            <DistanceMeters>NAN</DistanceMeters>
          </Trackpoint>
          <Trackpoint>
            <Time>2022-09-22T07:35:43.000Z</Time>
            <Position>
              <LatitudeDegrees>49.42605902440845966339111328125</LatitudeDegrees>
              <LongitudeDegrees>20.45413191430270671844482421875</LongitudeDegrees>
            </Position>
            <AltitudeMeters>427.20001220703125</AltitudeMeters>
            <DistanceMeters>NAN</DistanceMeters>
          </Trackpoint>
          <Trackpoint>
            <Time>2022-09-22T07:35:46.000Z</Time>
            <Position>
              <LatitudeDegrees>49.42605282180011272430419921875</LatitudeDegrees>
              <LongitudeDegrees>20.454016663134098052978515625</LongitudeDegrees>
            </Position>
            <AltitudeMeters>427.399993896484375</AltitudeMeters>
            <DistanceMeters>NAN</DistanceMeters>
          </Trackpoint>
          <Trackpoint>
            <Time>2022-09-22T07:35:54.000Z</Time>
            <Position>
              <LatitudeDegrees>49.4260440208017826080322265625</LatitudeDegrees>
              <LongitudeDegrees>20.4536792077124118804931640625</LongitudeDegrees>
            </Position>
            <AltitudeMeters>427.600006103515625</AltitudeMeters>
            <DistanceMeters>NAN</DistanceMeters>
          </Trackpoint>
          <Trackpoint>
            <Time>2022-09-22T07:35:58.000Z</Time>
            <Position>
              <LatitudeDegrees>49.42604695446789264678955078125</LatitudeDegrees>
              <LongitudeDegrees>20.45351986773312091827392578125</LongitudeDegrees>
            </Position>
            <AltitudeMeters>427.600006103515625</AltitudeMeters>
            <DistanceMeters>NAN</DistanceMeters>
          </Trackpoint>
          <Trackpoint>
            <Time>2022-09-22T07:36:03.000Z</Time>
            <Position>
              <LatitudeDegrees>49.42604695446789264678955078125</LatitudeDegrees>
              <LongitudeDegrees>20.45333110727369785308837890625</LongitudeDegrees>
            </Position>
            <AltitudeMeters>427.399993896484375</AltitudeMeters>
            <DistanceMeters>NAN</DistanceMeters>
          </Trackpoint>
          <Trackpoint>
            <Time>2022-09-22T07:36:12.000Z</Time>
            <Position>
              <LatitudeDegrees>49.4260567612946033477783203125</LatitudeDegrees>
              <LongitudeDegrees>20.4530172049999237060546875</LongitudeDegrees>
            </Position>
            <AltitudeMeters>427.399993896484375</AltitudeMeters>
            <DistanceMeters>NAN</DistanceMeters>
          </Trackpoint>
          <Trackpoint>
            <Time>2022-09-22T07:36:16.000Z</Time>
            <Position>
              <LatitudeDegrees>49.4260617904365062713623046875</LatitudeDegrees>
              <LongitudeDegrees>20.45287395827472209930419921875</LongitudeDegrees>
            </Position>
            <AltitudeMeters>427.20001220703125</AltitudeMeters>
            <DistanceMeters>NAN</DistanceMeters>
          </Trackpoint>
          <Trackpoint>
            <Time>2022-09-22T07:36:19.000Z</Time>
            <Position>
              <LatitudeDegrees>49.426058270037174224853515625</LatitudeDegrees>
              <LongitudeDegrees>20.45272953808307647705078125</LongitudeDegrees>
            </Position>
            <AltitudeMeters>427.20001220703125</AltitudeMeters>
            <DistanceMeters>NAN</DistanceMeters>
          </Trackpoint>
          <Trackpoint>
            <Time>2022-09-22T07:36:26.000Z</Time>
            <Position>
              <LatitudeDegrees>49.426049552857875823974609375</LatitudeDegrees>
              <LongitudeDegrees>20.45232318341732025146484375</LongitudeDegrees>
            </Position>
            <AltitudeMeters>426.399993896484375</AltitudeMeters>
            <DistanceMeters>NAN</DistanceMeters>
          </Trackpoint>
          <Trackpoint>
            <Time>2022-09-22T07:36:33.000Z</Time>
            <Position>
              <LatitudeDegrees>49.42604360170662403106689453125</LatitudeDegrees>
              <LongitudeDegrees>20.451894700527191162109375</LongitudeDegrees>
            </Position>
            <AltitudeMeters>426.20001220703125</AltitudeMeters>
            <DistanceMeters>NAN</DistanceMeters>
          </Trackpoint>
          <Trackpoint>
            <Time>2022-09-22T07:36:36.000Z</Time>
            <Position>
              <LatitudeDegrees>49.42604041658341884613037109375</LatitudeDegrees>
              <LongitudeDegrees>20.451708622276782989501953125</LongitudeDegrees>
            </Position>
            <AltitudeMeters>425.79998779296875</AltitudeMeters>
            <DistanceMeters>NAN</DistanceMeters>
          </Trackpoint>
          <Trackpoint>
            <Time>2022-09-22T07:36:42.000Z</Time>
            <Position>
              <LatitudeDegrees>49.42603488452732563018798828125</LatitudeDegrees>
              <LongitudeDegrees>20.45134241692721843719482421875</LongitudeDegrees>
            </Position>
            <AltitudeMeters>425.600006103515625</AltitudeMeters>
            <DistanceMeters>NAN</DistanceMeters>
          </Trackpoint>
          <Trackpoint>
            <Time>2022-09-22T07:36:52.000Z</Time>
            <Position>
              <LatitudeDegrees>49.42600202746689319610595703125</LatitudeDegrees>
              <LongitudeDegrees>20.45068996958434581756591796875</LongitudeDegrees>
            </Position>
            <AltitudeMeters>425.20001220703125</AltitudeMeters>
            <DistanceMeters>NAN</DistanceMeters>
          </Trackpoint>
          <Trackpoint>
            <Time>2022-09-22T07:37:00.000Z</Time>
            <Position>
              <LatitudeDegrees>49.4259652309119701385498046875</LatitudeDegrees>
              <LongitudeDegrees>20.45012108981609344482421875</LongitudeDegrees>
            </Position>
            <AltitudeMeters>425.20001220703125</AltitudeMeters>
            <DistanceMeters>NAN</DistanceMeters>
          </Trackpoint>
          <Trackpoint>
            <Time>2022-09-22T07:37:03.000Z</Time>
            <Position>
              <LatitudeDegrees>49.4259514845907688140869140625</LatitudeDegrees>
              <LongitudeDegrees>20.44993559829890727996826171875</LongitudeDegrees>
            </Position>
            <AltitudeMeters>425.20001220703125</AltitudeMeters>
            <DistanceMeters>NAN</DistanceMeters>
          </Trackpoint>
          <Trackpoint>
            <Time>2022-09-22T07:37:06.000Z</Time>
            <Position>
              <LatitudeDegrees>49.42592918872833251953125</LatitudeDegrees>
              <LongitudeDegrees>20.449764020740985870361328125</LongitudeDegrees>
            </Position>
            <AltitudeMeters>425.20001220703125</AltitudeMeters>
            <DistanceMeters>NAN</DistanceMeters>
          </Trackpoint>
          <Trackpoint>
            <Time>2022-09-22T07:37:16.000Z</Time>
            <Position>
              <LatitudeDegrees>49.425855763256549835205078125</LatitudeDegrees>
              <LongitudeDegrees>20.449190698564052581787109375</LongitudeDegrees>
            </Position>
            <AltitudeMeters>425.79998779296875</AltitudeMeters>
            <DistanceMeters>NAN</DistanceMeters>
          </Trackpoint>
          <Trackpoint>
            <Time>2022-09-22T07:37:23.000Z</Time>
            <Position>
              <LatitudeDegrees>49.425808154046535491943359375</LatitudeDegrees>
              <LongitudeDegrees>20.44878073967993259429931640625</LongitudeDegrees>
            </Position>
            <AltitudeMeters>426</AltitudeMeters>
            <DistanceMeters>NAN</DistanceMeters>
          </Trackpoint>
          <Trackpoint>
            <Time>2022-09-22T07:37:25.000Z</Time>
            <Position>
              <LatitudeDegrees>49.425794743001461029052734375</LatitudeDegrees>
              <LongitudeDegrees>20.44867529533803462982177734375</LongitudeDegrees>
            </Position>
            <AltitudeMeters>426</AltitudeMeters>
            <DistanceMeters>NAN</DistanceMeters>
          </Trackpoint>
          <Trackpoint>
            <Time>2022-09-22T07:37:33.000Z</Time>
            <Position>
              <LatitudeDegrees>49.42576046101748943328857421875</LatitudeDegrees>
              <LongitudeDegrees>20.448192246258258819580078125</LongitudeDegrees>
            </Position>
            <AltitudeMeters>426</AltitudeMeters>
            <DistanceMeters>NAN</DistanceMeters>
          </Trackpoint>
          <Trackpoint>
            <Time>2022-09-22T07:37:40.000Z</Time>
            <Position>
              <LatitudeDegrees>49.42576448433101177215576171875</LatitudeDegrees>
              <LongitudeDegrees>20.44777038507163524627685546875</LongitudeDegrees>
            </Position>
            <AltitudeMeters>426</AltitudeMeters>
            <DistanceMeters>NAN</DistanceMeters>
          </Trackpoint>
          <Trackpoint>
            <Time>2022-09-22T07:37:43.000Z</Time>
            <Position>
              <LatitudeDegrees>49.4257798232138156890869140625</LatitudeDegrees>
              <LongitudeDegrees>20.447586737573146820068359375</LongitudeDegrees>
            </Position>
            <AltitudeMeters>426.20001220703125</AltitudeMeters>
            <DistanceMeters>NAN</DistanceMeters>
          </Trackpoint>
          <Trackpoint>
            <Time>2022-09-22T07:37:48.000Z</Time>
            <Position>
              <LatitudeDegrees>49.425813518464565277099609375</LatitudeDegrees>
              <LongitudeDegrees>20.447321869432926177978515625</LongitudeDegrees>
            </Position>
            <AltitudeMeters>426.600006103515625</AltitudeMeters>
            <DistanceMeters>NAN</DistanceMeters>
          </Trackpoint>
          <Trackpoint>
            <Time>2022-09-22T07:37:54.000Z</Time>
            <Position>
              <LatitudeDegrees>49.42586506716907024383544921875</LatitudeDegrees>
              <LongitudeDegrees>20.4470157623291015625</LongitudeDegrees>
            </Position>
            <AltitudeMeters>427</AltitudeMeters>
            <DistanceMeters>NAN</DistanceMeters>
          </Trackpoint>
          <Trackpoint>
            <Time>2022-09-22T07:37:55.000Z</Time>
            <Position>
              <LatitudeDegrees>49.4258740358054637908935546875</LatitudeDegrees>
              <LongitudeDegrees>20.4469606094062328338623046875</LongitudeDegrees>
            </Position>
            <AltitudeMeters>427</AltitudeMeters>
            <DistanceMeters>NAN</DistanceMeters>
          </Trackpoint>
          <Trackpoint>
            <Time>2022-09-22T07:37:57.000Z</Time>
            <Position>
              <LatitudeDegrees>49.425896666944026947021484375</LatitudeDegrees>
              <LongitudeDegrees>20.44685156084597110748291015625</LongitudeDegrees>
            </Position>
            <AltitudeMeters>427</AltitudeMeters>
            <DistanceMeters>NAN</DistanceMeters>
          </Trackpoint>
          <Trackpoint>
            <Time>2022-09-22T07:37:59.000Z</Time>
            <Position>
              <LatitudeDegrees>49.42592441104352474212646484375</LatitudeDegrees>
              <LongitudeDegrees>20.44675315730273723602294921875</LongitudeDegrees>
            </Position>
            <AltitudeMeters>427</AltitudeMeters>
            <DistanceMeters>NAN</DistanceMeters>
          </Trackpoint>
          <Trackpoint>
            <Time>2022-09-22T07:38:05.000Z</Time>
            <Position>
              <LatitudeDegrees>49.4259907118976116180419921875</LatitudeDegrees>
              <LongitudeDegrees>20.44643732719123363494873046875</LongitudeDegrees>
            </Position>
            <AltitudeMeters>427.20001220703125</AltitudeMeters>
            <DistanceMeters>NAN</DistanceMeters>
          </Trackpoint>
          <Trackpoint>
            <Time>2022-09-22T07:38:14.000Z</Time>
            <Position>
              <LatitudeDegrees>49.42609607242047786712646484375</LatitudeDegrees>
              <LongitudeDegrees>20.446015298366546630859375</LongitudeDegrees>
            </Position>
            <AltitudeMeters>427.20001220703125</AltitudeMeters>
            <DistanceMeters>NAN</DistanceMeters>
          </Trackpoint>
          <Trackpoint>
            <Time>2022-09-22T07:38:23.000Z</Time>
            <Position>
              <LatitudeDegrees>49.42620889283716678619384765625</LatitudeDegrees>
              <LongitudeDegrees>20.44556108303368091583251953125</LongitudeDegrees>
            </Position>
            <AltitudeMeters>427</AltitudeMeters>
            <DistanceMeters>NAN</DistanceMeters>
          </Trackpoint>
          <Trackpoint>
            <Time>2022-09-22T07:38:33.000Z</Time>
            <Position>
              <LatitudeDegrees>49.42636027000844478607177734375</LatitudeDegrees>
              <LongitudeDegrees>20.44504911638796329498291015625</LongitudeDegrees>
            </Position>
            <AltitudeMeters>427</AltitudeMeters>
            <DistanceMeters>NAN</DistanceMeters>
          </Trackpoint>
          <Trackpoint>
            <Time>2022-09-22T07:38:37.000Z</Time>
            <Position>
              <LatitudeDegrees>49.42640192806720733642578125</LatitudeDegrees>
              <LongitudeDegrees>20.4448983259499073028564453125</LongitudeDegrees>
            </Position>
            <AltitudeMeters>426.79998779296875</AltitudeMeters>
            <DistanceMeters>NAN</DistanceMeters>
          </Trackpoint>
          <Trackpoint>
            <Time>2022-09-22T07:38:38.000Z</Time>
            <Position>
              <LatitudeDegrees>49.42641802132129669189453125</LatitudeDegrees>
              <LongitudeDegrees>20.4448584280908107757568359375</LongitudeDegrees>
            </Position>
            <AltitudeMeters>426.79998779296875</AltitudeMeters>
            <DistanceMeters>NAN</DistanceMeters>
          </Trackpoint>
          <Trackpoint>
            <Time>2022-09-22T07:38:45.000Z</Time>
            <Position>
              <LatitudeDegrees>49.4265489466488361358642578125</LatitudeDegrees>
              <LongitudeDegrees>20.4444892890751361846923828125</LongitudeDegrees>
            </Position>
            <AltitudeMeters>426.600006103515625</AltitudeMeters>
            <DistanceMeters>NAN</DistanceMeters>
          </Trackpoint>
          <Trackpoint>
            <Time>2022-09-22T07:38:49.000Z</Time>
            <Position>
              <LatitudeDegrees>49.42663536407053470611572265625</LatitudeDegrees>
              <LongitudeDegrees>20.44423657469451427459716796875</LongitudeDegrees>
            </Position>
            <AltitudeMeters>426.399993896484375</AltitudeMeters>
            <DistanceMeters>NAN</DistanceMeters>
          </Trackpoint>
          <Trackpoint>
            <Time>2022-09-22T07:38:51.000Z</Time>
            <Position>
              <LatitudeDegrees>49.4266696460545063018798828125</LatitudeDegrees>
              <LongitudeDegrees>20.44412811286747455596923828125</LongitudeDegrees>
            </Position>
            <AltitudeMeters>426.399993896484375</AltitudeMeters>
            <DistanceMeters>NAN</DistanceMeters>
          </Trackpoint>
          <Trackpoint>
            <Time>2022-09-22T07:38:59.000Z</Time>
            <Position>
              <LatitudeDegrees>49.42685832269489765167236328125</LatitudeDegrees>
              <LongitudeDegrees>20.44372997246682643890380859375</LongitudeDegrees>
            </Position>
            <AltitudeMeters>426.399993896484375</AltitudeMeters>
            <DistanceMeters>NAN</DistanceMeters>
          </Trackpoint>
          <Trackpoint>
            <Time>2022-09-22T07:39:06.000Z</Time>
            <Position>
              <LatitudeDegrees>49.42704171873629093170166015625</LatitudeDegrees>
              <LongitudeDegrees>20.44350449927151203155517578125</LongitudeDegrees>
            </Position>
            <AltitudeMeters>426.399993896484375</AltitudeMeters>
            <DistanceMeters>NAN</DistanceMeters>
          </Trackpoint>
          <Trackpoint>
            <Time>2022-09-22T07:39:12.000Z</Time>
            <Position>
              <LatitudeDegrees>49.427237771451473236083984375</LatitudeDegrees>
              <LongitudeDegrees>20.44340693391859531402587890625</LongitudeDegrees>
            </Position>
            <AltitudeMeters>426</AltitudeMeters>
            <DistanceMeters>NAN</DistanceMeters>
          </Trackpoint>
          <Trackpoint>
            <Time>2022-09-22T07:39:19.000Z</Time>
            <Position>
              <LatitudeDegrees>49.4274659268558025360107421875</LatitudeDegrees>
              <LongitudeDegrees>20.443307943642139434814453125</LongitudeDegrees>
            </Position>
            <AltitudeMeters>426.20001220703125</AltitudeMeters>
            <DistanceMeters>NAN</DistanceMeters>
          </Trackpoint>
          <Trackpoint>
            <Time>2022-09-22T07:39:22.000Z</Time>
            <Position>
              <LatitudeDegrees>49.42757497541606426239013671875</LatitudeDegrees>
              <LongitudeDegrees>20.44325731694698333740234375</LongitudeDegrees>
            </Position>
            <AltitudeMeters>425.79998779296875</AltitudeMeters>
            <DistanceMeters>NAN</DistanceMeters>
          </Trackpoint>
          <Trackpoint>
            <Time>2022-09-22T07:39:24.000Z</Time>
            <Position>
              <LatitudeDegrees>49.4276520051062107086181640625</LatitudeDegrees>
              <LongitudeDegrees>20.4432259686291217803955078125</LongitudeDegrees>
            </Position>
            <AltitudeMeters>425.600006103515625</AltitudeMeters>
            <DistanceMeters>NAN</DistanceMeters>
          </Trackpoint>
          <Trackpoint>
            <Time>2022-09-22T07:39:26.000Z</Time>
            <Position>
              <LatitudeDegrees>49.42772920243442058563232421875</LatitudeDegrees>
              <LongitudeDegrees>20.4431998170912265777587890625</LongitudeDegrees>
            </Position>
            <AltitudeMeters>425.399993896484375</AltitudeMeters>
            <DistanceMeters>NAN</DistanceMeters>
          </Trackpoint>
          <Trackpoint>
            <Time>2022-09-22T07:39:32.000Z</Time>
            <Position>
              <LatitudeDegrees>49.427964650094509124755859375</LatitudeDegrees>
              <LongitudeDegrees>20.4430921934545040130615234375</LongitudeDegrees>
            </Position>
            <AltitudeMeters>425</AltitudeMeters>
            <DistanceMeters>NAN</DistanceMeters>
          </Trackpoint>
          <Trackpoint>
            <Time>2022-09-22T07:39:34.000Z</Time>
            <Position>
              <LatitudeDegrees>49.42804184742271900177001953125</LatitudeDegrees>
              <LongitudeDegrees>20.44305405579507350921630859375</LongitudeDegrees>
            </Position>
            <AltitudeMeters>424.79998779296875</AltitudeMeters>
            <DistanceMeters>NAN</DistanceMeters>
          </Trackpoint>
          <Trackpoint>
            <Time>2022-09-22T07:39:40.000Z</Time>
            <Position>
              <LatitudeDegrees>49.4282742775976657867431640625</LatitudeDegrees>
              <LongitudeDegrees>20.44295431114733219146728515625</LongitudeDegrees>
            </Position>
            <AltitudeMeters>424.399993896484375</AltitudeMeters>
            <DistanceMeters>NAN</DistanceMeters>
          </Trackpoint>
          <Trackpoint>
            <Time>2022-09-22T07:39:48.000Z</Time>
            <Position>
              <LatitudeDegrees>49.42855984903872013092041015625</LatitudeDegrees>
              <LongitudeDegrees>20.4428062029182910919189453125</LongitudeDegrees>
            </Position>
            <AltitudeMeters>424.399993896484375</AltitudeMeters>
            <DistanceMeters>NAN</DistanceMeters>
          </Trackpoint>
          <Trackpoint>
            <Time>2022-09-22T07:39:55.000Z</Time>
            <Position>
              <LatitudeDegrees>49.42880493588745594024658203125</LatitudeDegrees>
              <LongitudeDegrees>20.4426719248294830322265625</LongitudeDegrees>
            </Position>
            <AltitudeMeters>424</AltitudeMeters>
            <DistanceMeters>NAN</DistanceMeters>
          </Trackpoint>
          <Trackpoint>
            <Time>2022-09-22T07:40:03.000Z</Time>
            <Position>
              <LatitudeDegrees>49.42904616706073284149169921875</LatitudeDegrees>
              <LongitudeDegrees>20.44251828454434871673583984375</LongitudeDegrees>
            </Position>
            <AltitudeMeters>424</AltitudeMeters>
            <DistanceMeters>NAN</DistanceMeters>
          </Trackpoint>
          <Trackpoint>
            <Time>2022-09-22T07:40:09.000Z</Time>
            <Position>
              <LatitudeDegrees>49.42920458503067493438720703125</LatitudeDegrees>
              <LongitudeDegrees>20.44239507056772708892822265625</LongitudeDegrees>
            </Position>
            <AltitudeMeters>423.79998779296875</AltitudeMeters>
            <DistanceMeters>NAN</DistanceMeters>
          </Trackpoint>
          <Trackpoint>
            <Time>2022-09-22T07:40:10.000Z</Time>
            <Position>
              <LatitudeDegrees>49.4292321614921092987060546875</LatitudeDegrees>
              <LongitudeDegrees>20.4423850961029529571533203125</LongitudeDegrees>
            </Position>
            <AltitudeMeters>423.79998779296875</AltitudeMeters>
            <DistanceMeters>NAN</DistanceMeters>
          </Trackpoint>
          <Trackpoint>
            <Time>2022-09-22T07:40:18.000Z</Time>
            <Position>
              <LatitudeDegrees>49.42951337434351444244384765625</LatitudeDegrees>
              <LongitudeDegrees>20.44225995428860187530517578125</LongitudeDegrees>
            </Position>
            <AltitudeMeters>424</AltitudeMeters>
            <DistanceMeters>NAN</DistanceMeters>
          </Trackpoint>
          <Trackpoint>
            <Time>2022-09-22T07:40:25.000Z</Time>
            <Position>
              <LatitudeDegrees>49.429740943014621734619140625</LatitudeDegrees>
              <LongitudeDegrees>20.4421443678438663482666015625</LongitudeDegrees>
            </Position>
            <AltitudeMeters>424</AltitudeMeters>
            <DistanceMeters>NAN</DistanceMeters>
          </Trackpoint>
          <Trackpoint>
            <Time>2022-09-22T07:40:28.000Z</Time>
            <Position>
              <LatitudeDegrees>49.4298492372035980224609375</LatitudeDegrees>
              <LongitudeDegrees>20.4421128518879413604736328125</LongitudeDegrees>
            </Position>
            <AltitudeMeters>424</AltitudeMeters>
            <DistanceMeters>NAN</DistanceMeters>
          </Trackpoint>
          <Trackpoint>
            <Time>2022-09-22T07:40:33.000Z</Time>
            <Position>
              <LatitudeDegrees>49.43001612089574337005615234375</LatitudeDegrees>
              <LongitudeDegrees>20.44205191545188426971435546875</LongitudeDegrees>
            </Position>
            <AltitudeMeters>424</AltitudeMeters>
            <DistanceMeters>NAN</DistanceMeters>
          </Trackpoint>
          <Trackpoint>
            <Time>2022-09-22T07:40:38.000Z</Time>
            <Position>
              <LatitudeDegrees>49.4301845133304595947265625</LatitudeDegrees>
              <LongitudeDegrees>20.44197094626724720001220703125</LongitudeDegrees>
            </Position>
            <AltitudeMeters>423.79998779296875</AltitudeMeters>
            <DistanceMeters>NAN</DistanceMeters>
          </Trackpoint>
          <Trackpoint>
            <Time>2022-09-22T07:40:40.000Z</Time>
            <Position>
              <LatitudeDegrees>49.43024477921426296234130859375</LatitudeDegrees>
              <LongitudeDegrees>20.441936664283275604248046875</LongitudeDegrees>
            </Position>
            <AltitudeMeters>424</AltitudeMeters>
            <DistanceMeters>NAN</DistanceMeters>
          </Trackpoint>
          <Trackpoint>
            <Time>2022-09-22T07:40:41.000Z</Time>
            <Position>
              <LatitudeDegrees>49.4302748702466487884521484375</LatitudeDegrees>
              <LongitudeDegrees>20.44191746972501277923583984375</LongitudeDegrees>
            </Position>
            <AltitudeMeters>423.79998779296875</AltitudeMeters>
            <DistanceMeters>NAN</DistanceMeters>
          </Trackpoint>
          <Trackpoint>
            <Time>2022-09-22T07:40:47.000Z</Time>
            <Position>
              <LatitudeDegrees>49.4304854236543178558349609375</LatitudeDegrees>
              <LongitudeDegrees>20.44182644225656986236572265625</LongitudeDegrees>
            </Position>
            <AltitudeMeters>423.79998779296875</AltitudeMeters>
            <DistanceMeters>NAN</DistanceMeters>
          </Trackpoint>
          <Trackpoint>
            <Time>2022-09-22T07:40:57.000Z</Time>
            <Position>
              <LatitudeDegrees>49.43086168728768825531005859375</LatitudeDegrees>
              <LongitudeDegrees>20.44164136983454227447509765625</LongitudeDegrees>
            </Position>
            <AltitudeMeters>423.600006103515625</AltitudeMeters>
            <DistanceMeters>NAN</DistanceMeters>
          </Trackpoint>
          <Trackpoint>
            <Time>2022-09-22T07:41:06.000Z</Time>
            <Position>
              <LatitudeDegrees>49.43115413188934326171875</LatitudeDegrees>
              <LongitudeDegrees>20.44150457717478275299072265625</LongitudeDegrees>
            </Position>
            <AltitudeMeters>423.79998779296875</AltitudeMeters>
            <DistanceMeters>NAN</DistanceMeters>
          </Trackpoint>
          <Trackpoint>
            <Time>2022-09-22T07:41:08.000Z</Time>
            <Position>
              <LatitudeDegrees>49.43122579716145992279052734375</LatitudeDegrees>
              <LongitudeDegrees>20.441467277705669403076171875</LongitudeDegrees>
            </Position>
            <AltitudeMeters>423.600006103515625</AltitudeMeters>
            <DistanceMeters>NAN</DistanceMeters>
          </Trackpoint>
          <Trackpoint>
            <Time>2022-09-22T07:41:16.000Z</Time>
            <Position>
              <LatitudeDegrees>49.43150357343256473541259765625</LatitudeDegrees>
              <LongitudeDegrees>20.44133107177913188934326171875</LongitudeDegrees>
            </Position>
            <AltitudeMeters>423.399993896484375</AltitudeMeters>
            <DistanceMeters>NAN</DistanceMeters>
          </Trackpoint>
          <Trackpoint>
            <Time>2022-09-22T07:41:25.000Z</Time>
            <Position>
              <LatitudeDegrees>49.4318191520869731903076171875</LatitudeDegrees>
              <LongitudeDegrees>20.44118673540651798248291015625</LongitudeDegrees>
            </Position>
            <AltitudeMeters>423.20001220703125</AltitudeMeters>
            <DistanceMeters>NAN</DistanceMeters>
          </Trackpoint>
          <Trackpoint>
            <Time>2022-09-22T07:41:33.000Z</Time>
            <Position>
              <LatitudeDegrees>49.43210975266993045806884765625</LatitudeDegrees>
              <LongitudeDegrees>20.4410292394459247589111328125</LongitudeDegrees>
            </Position>
            <AltitudeMeters>423</AltitudeMeters>
            <DistanceMeters>NAN</DistanceMeters>
          </Trackpoint>
          <Trackpoint>
            <Time>2022-09-22T07:41:34.000Z</Time>
            <Position>
              <LatitudeDegrees>49.43214445374906063079833984375</LatitudeDegrees>
              <LongitudeDegrees>20.44101323001086711883544921875</LongitudeDegrees>
            </Position>
            <AltitudeMeters>423</AltitudeMeters>
            <DistanceMeters>NAN</DistanceMeters>
          </Trackpoint>
          <Trackpoint>
            <Time>2022-09-22T07:41:43.000Z</Time>
            <Position>
              <LatitudeDegrees>49.4324296899139881134033203125</LatitudeDegrees>
              <LongitudeDegrees>20.4408721625804901123046875</LongitudeDegrees>
            </Position>
            <AltitudeMeters>423.20001220703125</AltitudeMeters>
            <DistanceMeters>NAN</DistanceMeters>
          </Trackpoint>
          <Trackpoint>
            <Time>2022-09-22T07:41:47.000Z</Time>
            <Position>
              <LatitudeDegrees>49.43256438709795475006103515625</LatitudeDegrees>
              <LongitudeDegrees>20.44079697690904140472412109375</LongitudeDegrees>
            </Position>
            <AltitudeMeters>423</AltitudeMeters>
            <DistanceMeters>NAN</DistanceMeters>
          </Trackpoint>
          <Trackpoint>
            <Time>2022-09-22T07:41:50.000Z</Time>
            <Position>
              <LatitudeDegrees>49.4326674006879329681396484375</LatitudeDegrees>
              <LongitudeDegrees>20.440751798450946807861328125</LongitudeDegrees>
            </Position>
            <AltitudeMeters>423</AltitudeMeters>
            <DistanceMeters>NAN</DistanceMeters>
          </Trackpoint>
          <Trackpoint>
            <Time>2022-09-22T07:41:52.000Z</Time>
            <Position>
              <LatitudeDegrees>49.43273738957941532135009765625</LatitudeDegrees>
              <LongitudeDegrees>20.4407192766666412353515625</LongitudeDegrees>
            </Position>
            <AltitudeMeters>422.79998779296875</AltitudeMeters>
            <DistanceMeters>NAN</DistanceMeters>
          </Trackpoint>
          <Trackpoint>
            <Time>2022-09-22T07:41:58.000Z</Time>
            <Position>
              <LatitudeDegrees>49.43295246921479701995849609375</LatitudeDegrees>
              <LongitudeDegrees>20.44061022810637950897216796875</LongitudeDegrees>
            </Position>
            <AltitudeMeters>422.600006103515625</AltitudeMeters>
            <DistanceMeters>NAN</DistanceMeters>
          </Trackpoint>
          <Trackpoint>
            <Time>2022-09-22T07:42:06.000Z</Time>
            <Position>
              <LatitudeDegrees>49.433216750621795654296875</LatitudeDegrees>
              <LongitudeDegrees>20.440476872026920318603515625</LongitudeDegrees>
            </Position>
            <AltitudeMeters>422.79998779296875</AltitudeMeters>
            <DistanceMeters>NAN</DistanceMeters>
          </Trackpoint>
          <Trackpoint>
            <Time>2022-09-22T07:42:08.000Z</Time>
            <Position>
              <LatitudeDegrees>49.43327986635267734527587890625</LatitudeDegrees>
              <LongitudeDegrees>20.440442673861980438232421875</LongitudeDegrees>
            </Position>
            <AltitudeMeters>422.600006103515625</AltitudeMeters>
            <DistanceMeters>NAN</DistanceMeters>
          </Trackpoint>
          <Trackpoint>
            <Time>2022-09-22T07:42:11.000Z</Time>
            <Position>
              <LatitudeDegrees>49.433369301259517669677734375</LatitudeDegrees>
              <LongitudeDegrees>20.44039950706064701080322265625</LongitudeDegrees>
            </Position>
            <AltitudeMeters>422.399993896484375</AltitudeMeters>
            <DistanceMeters>NAN</DistanceMeters>
          </Trackpoint>
          <Trackpoint>
            <Time>2022-09-22T07:42:13.000Z</Time>
            <Position>
              <LatitudeDegrees>49.43342906422913074493408203125</LatitudeDegrees>
              <LongitudeDegrees>20.44037469662725925445556640625</LongitudeDegrees>
            </Position>
            <AltitudeMeters>422.399993896484375</AltitudeMeters>
            <DistanceMeters>NAN</DistanceMeters>
          </Trackpoint>
          <Trackpoint>
            <Time>2022-09-22T07:42:15.000Z</Time>
            <Position>
              <LatitudeDegrees>49.433479942381381988525390625</LatitudeDegrees>
              <LongitudeDegrees>20.44034519232809543609619140625</LongitudeDegrees>
            </Position>
            <AltitudeMeters>422.600006103515625</AltitudeMeters>
            <DistanceMeters>NAN</DistanceMeters>
          </Trackpoint>
          <Trackpoint>
            <Time>2022-09-22T07:42:23.000Z</Time>
            <Position>
              <LatitudeDegrees>49.433676414191722869873046875</LatitudeDegrees>
              <LongitudeDegrees>20.44025165028870105743408203125</LongitudeDegrees>
            </Position>
            <AltitudeMeters>422.79998779296875</AltitudeMeters>
            <DistanceMeters>NAN</DistanceMeters>
          </Trackpoint>
          <Trackpoint>
            <Time>2022-09-22T07:42:29.000Z</Time>
            <Position>
              <LatitudeDegrees>49.4338284619152545928955078125</LatitudeDegrees>
              <LongitudeDegrees>20.4401591978967189788818359375</LongitudeDegrees>
            </Position>
            <AltitudeMeters>422.600006103515625</AltitudeMeters>
            <DistanceMeters>NAN</DistanceMeters>
          </Trackpoint>
          <Trackpoint>
            <Time>2022-09-22T07:42:34.000Z</Time>
            <Position>
              <LatitudeDegrees>49.43398989737033843994140625</LatitudeDegrees>
              <LongitudeDegrees>20.44007881544530391693115234375</LongitudeDegrees>
            </Position>
            <AltitudeMeters>422.399993896484375</AltitudeMeters>
            <DistanceMeters>NAN</DistanceMeters>
          </Trackpoint>
          <Trackpoint>
            <Time>2022-09-22T07:42:41.000Z</Time>
            <Position>
              <LatitudeDegrees>49.43424495868384838104248046875</LatitudeDegrees>
              <LongitudeDegrees>20.43996683321893215179443359375</LongitudeDegrees>
            </Position>
            <AltitudeMeters>422.399993896484375</AltitudeMeters>
            <DistanceMeters>NAN</DistanceMeters>
          </Trackpoint>
          <Trackpoint>
            <Time>2022-09-22T07:42:45.000Z</Time>
            <Position>
              <LatitudeDegrees>49.4343937374651432037353515625</LatitudeDegrees>
              <LongitudeDegrees>20.43989944271743297576904296875</LongitudeDegrees>
            </Position>
            <AltitudeMeters>422.600006103515625</AltitudeMeters>
            <DistanceMeters>NAN</DistanceMeters>
          </Trackpoint>
          <Trackpoint>
            <Time>2022-09-22T07:42:49.000Z</Time>
            <Position>
              <LatitudeDegrees>49.43452927283942699432373046875</LatitudeDegrees>
              <LongitudeDegrees>20.439827442169189453125</LongitudeDegrees>
            </Position>
            <AltitudeMeters>422.399993896484375</AltitudeMeters>
            <DistanceMeters>NAN</DistanceMeters>
          </Trackpoint>
          <Trackpoint>
            <Time>2022-09-22T07:42:58.000Z</Time>
            <Position>
              <LatitudeDegrees>49.434858597815036773681640625</LatitudeDegrees>
              <LongitudeDegrees>20.43966424651443958282470703125</LongitudeDegrees>
            </Position>
            <AltitudeMeters>422</AltitudeMeters>
            <DistanceMeters>NAN</DistanceMeters>
          </Trackpoint>
          <Trackpoint>
            <Time>2022-09-22T07:43:04.000Z</Time>
            <Position>
              <LatitudeDegrees>49.43506286479532718658447265625</LatitudeDegrees>
              <LongitudeDegrees>20.43952770531177520751953125</LongitudeDegrees>
            </Position>
            <AltitudeMeters>422</AltitudeMeters>
            <DistanceMeters>NAN</DistanceMeters>
          </Trackpoint>
          <Trackpoint>
            <Time>2022-09-22T07:43:08.000Z</Time>
            <Position>
              <LatitudeDegrees>49.43518775515258312225341796875</LatitudeDegrees>
              <LongitudeDegrees>20.4394252784550189971923828125</LongitudeDegrees>
            </Position>
            <AltitudeMeters>422.20001220703125</AltitudeMeters>
            <DistanceMeters>NAN</DistanceMeters>
          </Trackpoint>
          <Trackpoint>
            <Time>2022-09-22T07:43:13.000Z</Time>
            <Position>
              <LatitudeDegrees>49.43533846177160739898681640625</LatitudeDegrees>
              <LongitudeDegrees>20.43926057405769824981689453125</LongitudeDegrees>
            </Position>
            <AltitudeMeters>421.79998779296875</AltitudeMeters>
            <DistanceMeters>NAN</DistanceMeters>
          </Trackpoint>
          <Trackpoint>
            <Time>2022-09-22T07:43:16.000Z</Time>
            <Position>
              <LatitudeDegrees>49.4354391284286975860595703125</LatitudeDegrees>
              <LongitudeDegrees>20.43915362097322940826416015625</LongitudeDegrees>
            </Position>
            <AltitudeMeters>421.79998779296875</AltitudeMeters>
            <DistanceMeters>NAN</DistanceMeters>
          </Trackpoint>
          <Trackpoint>
            <Time>2022-09-22T07:43:19.000Z</Time>
            <Position>
              <LatitudeDegrees>49.4355423934757709503173828125</LatitudeDegrees>
              <LongitudeDegrees>20.4390477575361728668212890625</LongitudeDegrees>
            </Position>
            <AltitudeMeters>421.600006103515625</AltitudeMeters>
            <DistanceMeters>NAN</DistanceMeters>
          </Trackpoint>
          <Trackpoint>
            <Time>2022-09-22T07:43:20.000Z</Time>
            <Position>
              <LatitudeDegrees>49.4355826266109943389892578125</LatitudeDegrees>
              <LongitudeDegrees>20.4390132240951061248779296875</LongitudeDegrees>
            </Position>
            <AltitudeMeters>421.600006103515625</AltitudeMeters>
            <DistanceMeters>NAN</DistanceMeters>
          </Trackpoint>
          <Trackpoint>
            <Time>2022-09-22T07:43:22.000Z</Time>
            <Position>
              <LatitudeDegrees>49.43565797992050647735595703125</LatitudeDegrees>
              <LongitudeDegrees>20.43895195238292217254638671875</LongitudeDegrees>
            </Position>
            <AltitudeMeters>421.600006103515625</AltitudeMeters>
            <DistanceMeters>NAN</DistanceMeters>
          </Trackpoint>
          <Trackpoint>
            <Time>2022-09-22T07:43:25.000Z</Time>
            <Position>
              <LatitudeDegrees>49.435745738446712493896484375</LatitudeDegrees>
              <LongitudeDegrees>20.43886058963835239410400390625</LongitudeDegrees>
            </Position>
            <AltitudeMeters>421.399993896484375</AltitudeMeters>
            <DistanceMeters>NAN</DistanceMeters>
          </Trackpoint>
          <Trackpoint>
            <Time>2022-09-22T07:43:27.000Z</Time>
            <Position>
              <LatitudeDegrees>49.4357972033321857452392578125</LatitudeDegrees>
              <LongitudeDegrees>20.4388076998293399810791015625</LongitudeDegrees>
            </Position>
            <AltitudeMeters>421.399993896484375</AltitudeMeters>
            <DistanceMeters>NAN</DistanceMeters>
          </Trackpoint>
          <Trackpoint>
            <Time>2022-09-22T07:43:35.000Z</Time>
            <Position>
              <LatitudeDegrees>49.4360204972326755523681640625</LatitudeDegrees>
              <LongitudeDegrees>20.43859119527041912078857421875</LongitudeDegrees>
            </Position>
            <AltitudeMeters>421.20001220703125</AltitudeMeters>
            <DistanceMeters>NAN</DistanceMeters>
          </Trackpoint>
          <Trackpoint>
            <Time>2022-09-22T07:43:42.000Z</Time>
            <Position>
              <LatitudeDegrees>49.43622627295553684234619140625</LatitudeDegrees>
              <LongitudeDegrees>20.43838298879563808441162109375</LongitudeDegrees>
            </Position>
            <AltitudeMeters>421.399993896484375</AltitudeMeters>
            <DistanceMeters>NAN</DistanceMeters>
          </Trackpoint>
          <Trackpoint>
            <Time>2022-09-22T07:43:45.000Z</Time>
            <Position>
              <LatitudeDegrees>49.4363249279558658599853515625</LatitudeDegrees>
              <LongitudeDegrees>20.438286177814006805419921875</LongitudeDegrees>
            </Position>
            <AltitudeMeters>421.20001220703125</AltitudeMeters>
            <DistanceMeters>NAN</DistanceMeters>
          </Trackpoint>
          <Trackpoint>
            <Time>2022-09-22T07:43:55.000Z</Time>
            <Position>
              <LatitudeDegrees>49.43667269311845302581787109375</LatitudeDegrees>
              <LongitudeDegrees>20.4379269294440746307373046875</LongitudeDegrees>
            </Position>
            <AltitudeMeters>421.399993896484375</AltitudeMeters>
            <DistanceMeters>NAN</DistanceMeters>
          </Trackpoint>
          <Trackpoint>
            <Time>2022-09-22T07:44:02.000Z</Time>
            <Position>
              <LatitudeDegrees>49.43688039667904376983642578125</LatitudeDegrees>
              <LongitudeDegrees>20.4376607201993465423583984375</LongitudeDegrees>
            </Position>
            <AltitudeMeters>421.20001220703125</AltitudeMeters>
            <DistanceMeters>NAN</DistanceMeters>
          </Trackpoint>
          <Trackpoint>
            <Time>2022-09-22T07:44:07.000Z</Time>
            <Position>
              <LatitudeDegrees>49.43703797645866870880126953125</LatitudeDegrees>
              <LongitudeDegrees>20.43751797638833522796630859375</LongitudeDegrees>
            </Position>
            <AltitudeMeters>421</AltitudeMeters>
            <DistanceMeters>NAN</DistanceMeters>
          </Trackpoint>
          <Trackpoint>
            <Time>2022-09-22T07:44:15.000Z</Time>
            <Position>
              <LatitudeDegrees>49.4373284094035625457763671875</LatitudeDegrees>
              <LongitudeDegrees>20.43724556453526020050048828125</LongitudeDegrees>
            </Position>
            <AltitudeMeters>421</AltitudeMeters>
            <DistanceMeters>NAN</DistanceMeters>
          </Trackpoint>
          <Trackpoint>
            <Time>2022-09-22T07:44:23.000Z</Time>
            <Position>
              <LatitudeDegrees>49.43758766166865825653076171875</LatitudeDegrees>
              <LongitudeDegrees>20.4369542934000492095947265625</LongitudeDegrees>
            </Position>
            <AltitudeMeters>420.79998779296875</AltitudeMeters>
            <DistanceMeters>NAN</DistanceMeters>
          </Trackpoint>
          <Trackpoint>
            <Time>2022-09-22T07:44:24.000Z</Time>
            <Position>
              <LatitudeDegrees>49.437616579234600067138671875</LatitudeDegrees>
              <LongitudeDegrees>20.43691582046449184417724609375</LongitudeDegrees>
            </Position>
            <AltitudeMeters>420.79998779296875</AltitudeMeters>
            <DistanceMeters>NAN</DistanceMeters>
          </Trackpoint>
          <Trackpoint>
            <Time>2022-09-22T07:44:25.000Z</Time>
            <Position>
              <LatitudeDegrees>49.43764532916247844696044921875</LatitudeDegrees>
              <LongitudeDegrees>20.436878018081188201904296875</LongitudeDegrees>
            </Position>
            <AltitudeMeters>420.79998779296875</AltitudeMeters>
            <DistanceMeters>NAN</DistanceMeters>
          </Trackpoint>
          <Trackpoint>
            <Time>2022-09-22T07:44:33.000Z</Time>
            <Position>
              <LatitudeDegrees>49.43786074407398700714111328125</LatitudeDegrees>
              <LongitudeDegrees>20.436541736125946044921875</LongitudeDegrees>
            </Position>
            <AltitudeMeters>421.20001220703125</AltitudeMeters>
            <DistanceMeters>NAN</DistanceMeters>
          </Trackpoint>
          <Trackpoint>
            <Time>2022-09-22T07:44:40.000Z</Time>
            <Position>
              <LatitudeDegrees>49.4380251131951808929443359375</LatitudeDegrees>
              <LongitudeDegrees>20.43624526821076869964599609375</LongitudeDegrees>
            </Position>
            <AltitudeMeters>421.20001220703125</AltitudeMeters>
            <DistanceMeters>NAN</DistanceMeters>
          </Trackpoint>
          <Trackpoint>
            <Time>2022-09-22T07:44:48.000Z</Time>
            <Position>
              <LatitudeDegrees>49.4381773285567760467529296875</LatitudeDegrees>
              <LongitudeDegrees>20.43596439063549041748046875</LongitudeDegrees>
            </Position>
            <AltitudeMeters>421.20001220703125</AltitudeMeters>
            <DistanceMeters>NAN</DistanceMeters>
          </Trackpoint>
          <Trackpoint>
            <Time>2022-09-22T07:44:56.000Z</Time>
            <Position>
              <LatitudeDegrees>49.43836902268230915069580078125</LatitudeDegrees>
              <LongitudeDegrees>20.4356457106769084930419921875</LongitudeDegrees>
            </Position>
            <AltitudeMeters>420.79998779296875</AltitudeMeters>
            <DistanceMeters>NAN</DistanceMeters>
          </Trackpoint>
          <Trackpoint>
            <Time>2022-09-22T07:44:58.000Z</Time>
            <Position>
              <LatitudeDegrees>49.43841411732137203216552734375</LatitudeDegrees>
              <LongitudeDegrees>20.4355689324438571929931640625</LongitudeDegrees>
            </Position>
            <AltitudeMeters>420.79998779296875</AltitudeMeters>
            <DistanceMeters>NAN</DistanceMeters>
          </Trackpoint>
          <Trackpoint>
            <Time>2022-09-22T07:45:04.000Z</Time>
            <Position>
              <LatitudeDegrees>49.4385447911918163299560546875</LatitudeDegrees>
              <LongitudeDegrees>20.43537640012800693511962890625</LongitudeDegrees>
            </Position>
            <AltitudeMeters>420.79998779296875</AltitudeMeters>
            <DistanceMeters>NAN</DistanceMeters>
          </Trackpoint>
          <Trackpoint>
            <Time>2022-09-22T07:45:06.000Z</Time>
            <Position>
              <LatitudeDegrees>49.438591897487640380859375</LatitudeDegrees>
              <LongitudeDegrees>20.43529928661882877349853515625</LongitudeDegrees>
            </Position>
            <AltitudeMeters>420.600006103515625</AltitudeMeters>
            <DistanceMeters>NAN</DistanceMeters>
          </Trackpoint>
          <Trackpoint>
            <Time>2022-09-22T07:45:10.000Z</Time>
            <Position>
              <LatitudeDegrees>49.43870932795107364654541015625</LatitudeDegrees>
              <LongitudeDegrees>20.43508705683052539825439453125</LongitudeDegrees>
            </Position>
            <AltitudeMeters>420.20001220703125</AltitudeMeters>
            <DistanceMeters>NAN</DistanceMeters>
          </Trackpoint>
          <Trackpoint>
            <Time>2022-09-22T07:45:14.000Z</Time>
            <Position>
              <LatitudeDegrees>49.43883958272635936737060546875</LatitudeDegrees>
              <LongitudeDegrees>20.43484590947628021240234375</LongitudeDegrees>
            </Position>
            <AltitudeMeters>419.399993896484375</AltitudeMeters>
            <DistanceMeters>NAN</DistanceMeters>
          </Trackpoint>
          <Trackpoint>
            <Time>2022-09-22T07:45:16.000Z</Time>
            <Position>
              <LatitudeDegrees>49.438916780054569244384765625</LatitudeDegrees>
              <LongitudeDegrees>20.43472194112837314605712890625</LongitudeDegrees>
            </Position>
            <AltitudeMeters>419</AltitudeMeters>
            <DistanceMeters>NAN</DistanceMeters>
          </Trackpoint>
          <Trackpoint>
            <Time>2022-09-22T07:45:21.000Z</Time>
            <Position>
              <LatitudeDegrees>49.4391150958836078643798828125</LatitudeDegrees>
              <LongitudeDegrees>20.4343676380813121795654296875</LongitudeDegrees>
            </Position>
            <AltitudeMeters>418.399993896484375</AltitudeMeters>
            <DistanceMeters>NAN</DistanceMeters>
          </Trackpoint>
          <Trackpoint>
            <Time>2022-09-22T07:45:22.000Z</Time>
            <Position>
              <LatitudeDegrees>49.439152814447879791259765625</LatitudeDegrees>
              <LongitudeDegrees>20.43430737219750881195068359375</LongitudeDegrees>
            </Position>
            <AltitudeMeters>418.399993896484375</AltitudeMeters>
            <DistanceMeters>NAN</DistanceMeters>
          </Trackpoint>
          <Trackpoint>
            <Time>2022-09-22T07:45:28.000Z</Time>
            <Position>
              <LatitudeDegrees>49.4393630325794219970703125</LatitudeDegrees>
              <LongitudeDegrees>20.433964468538761138916015625</LongitudeDegrees>
            </Position>
            <AltitudeMeters>418.399993896484375</AltitudeMeters>
            <DistanceMeters>NAN</DistanceMeters>
          </Trackpoint>
          <Trackpoint>
            <Time>2022-09-22T07:45:33.000Z</Time>
            <Position>
              <LatitudeDegrees>49.43953670561313629150390625</LatitudeDegrees>
              <LongitudeDegrees>20.43370018713176250457763671875</LongitudeDegrees>
            </Position>
            <AltitudeMeters>418.20001220703125</AltitudeMeters>
            <DistanceMeters>NAN</DistanceMeters>
          </Trackpoint>
          <Trackpoint>
            <Time>2022-09-22T07:45:34.000Z</Time>
            <Position>
              <LatitudeDegrees>49.43956713192164897918701171875</LatitudeDegrees>
              <LongitudeDegrees>20.433647297322750091552734375</LongitudeDegrees>
            </Position>
            <AltitudeMeters>418.20001220703125</AltitudeMeters>
            <DistanceMeters>NAN</DistanceMeters>
          </Trackpoint>
          <Trackpoint>
            <Time>2022-09-22T07:45:42.000Z</Time>
            <Position>
              <LatitudeDegrees>49.43980132229626178741455078125</LatitudeDegrees>
              <LongitudeDegrees>20.4332618974149227142333984375</LongitudeDegrees>
            </Position>
            <AltitudeMeters>417.79998779296875</AltitudeMeters>
            <DistanceMeters>NAN</DistanceMeters>
          </Trackpoint>
          <Trackpoint>
            <Time>2022-09-22T07:45:43.000Z</Time>
            <Position>
              <LatitudeDegrees>49.4398322515189647674560546875</LatitudeDegrees>
              <LongitudeDegrees>20.43321386910974979400634765625</LongitudeDegrees>
            </Position>
            <AltitudeMeters>417.79998779296875</AltitudeMeters>
            <DistanceMeters>NAN</DistanceMeters>
          </Trackpoint>
          <Trackpoint>
            <Time>2022-09-22T07:45:51.000Z</Time>
            <Position>
              <LatitudeDegrees>49.4400927610695362091064453125</LatitudeDegrees>
              <LongitudeDegrees>20.43290197849273681640625</LongitudeDegrees>
            </Position>
            <AltitudeMeters>418</AltitudeMeters>
            <DistanceMeters>NAN</DistanceMeters>
          </Trackpoint>
          <Trackpoint>
            <Time>2022-09-22T07:45:53.000Z</Time>
            <Position>
              <LatitudeDegrees>49.4401628337800502777099609375</LatitudeDegrees>
              <LongitudeDegrees>20.4328354261815547943115234375</LongitudeDegrees>
            </Position>
            <AltitudeMeters>418</AltitudeMeters>
            <DistanceMeters>NAN</DistanceMeters>
          </Trackpoint>
          <Trackpoint>
            <Time>2022-09-22T07:45:57.000Z</Time>
            <Position>
              <LatitudeDegrees>49.44028529338538646697998046875</LatitudeDegrees>
              <LongitudeDegrees>20.4326972924172878265380859375</LongitudeDegrees>
            </Position>
            <AltitudeMeters>417.79998779296875</AltitudeMeters>
            <DistanceMeters>NAN</DistanceMeters>
          </Trackpoint>
          <Trackpoint>
            <Time>2022-09-22T07:46:03.000Z</Time>
            <Position>
              <LatitudeDegrees>49.440469108521938323974609375</LatitudeDegrees>
              <LongitudeDegrees>20.43252646923065185546875</LongitudeDegrees>
            </Position>
            <AltitudeMeters>417.600006103515625</AltitudeMeters>
            <DistanceMeters>NAN</DistanceMeters>
          </Trackpoint>
          <Trackpoint>
            <Time>2022-09-22T07:46:12.000Z</Time>
            <Position>
              <LatitudeDegrees>49.4407482258975505828857421875</LatitudeDegrees>
              <LongitudeDegrees>20.43223100714385509490966796875</LongitudeDegrees>
            </Position>
            <AltitudeMeters>417.79998779296875</AltitudeMeters>
            <DistanceMeters>NAN</DistanceMeters>
          </Trackpoint>
          <Trackpoint>
            <Time>2022-09-22T07:46:18.000Z</Time>
            <Position>
              <LatitudeDegrees>49.44091779179871082305908203125</LatitudeDegrees>
              <LongitudeDegrees>20.4320584237575531005859375</LongitudeDegrees>
            </Position>
            <AltitudeMeters>417.79998779296875</AltitudeMeters>
            <DistanceMeters>NAN</DistanceMeters>
          </Trackpoint>
          <Trackpoint>
            <Time>2022-09-22T07:46:19.000Z</Time>
            <Position>
              <LatitudeDegrees>49.4409363158047199249267578125</LatitudeDegrees>
              <LongitudeDegrees>20.43203704990446567535400390625</LongitudeDegrees>
            </Position>
            <AltitudeMeters>417.79998779296875</AltitudeMeters>
            <DistanceMeters>NAN</DistanceMeters>
          </Trackpoint>
          <Trackpoint>
            <Time>2022-09-22T07:46:24.000Z</Time>
            <Position>
              <LatitudeDegrees>49.44103916175663471221923828125</LatitudeDegrees>
              <LongitudeDegrees>20.43188416399061679840087890625</LongitudeDegrees>
            </Position>
            <AltitudeMeters>417.600006103515625</AltitudeMeters>
            <DistanceMeters>NAN</DistanceMeters>
          </Trackpoint>
          <Trackpoint>
            <Time>2022-09-22T07:46:31.000Z</Time>
            <Position>
              <LatitudeDegrees>49.44118358194828033447265625</LatitudeDegrees>
              <LongitudeDegrees>20.4317149333655834197998046875</LongitudeDegrees>
            </Position>
            <AltitudeMeters>417.600006103515625</AltitudeMeters>
            <DistanceMeters>NAN</DistanceMeters>
          </Trackpoint>
          <Trackpoint>
            <Time>2022-09-22T07:46:38.000Z</Time>
            <Position>
              <LatitudeDegrees>49.44128324277698993682861328125</LatitudeDegrees>
              <LongitudeDegrees>20.43159306049346923828125</LongitudeDegrees>
            </Position>
            <AltitudeMeters>417.600006103515625</AltitudeMeters>
            <DistanceMeters>NAN</DistanceMeters>
          </Trackpoint>
          <Trackpoint>
            <Time>2022-09-22T07:46:43.000Z</Time>
            <Position>
              <LatitudeDegrees>49.441394470632076263427734375</LatitudeDegrees>
              <LongitudeDegrees>20.43150781653821468353271484375</LongitudeDegrees>
            </Position>
            <AltitudeMeters>417.399993896484375</AltitudeMeters>
            <DistanceMeters>NAN</DistanceMeters>
          </Trackpoint>
          <Trackpoint>
            <Time>2022-09-22T07:46:46.000Z</Time>
            <Position>
              <LatitudeDegrees>49.4414690695703029632568359375</LatitudeDegrees>
              <LongitudeDegrees>20.43142952956259250640869140625</LongitudeDegrees>
            </Position>
            <AltitudeMeters>417.20001220703125</AltitudeMeters>
            <DistanceMeters>NAN</DistanceMeters>
          </Trackpoint>
          <Trackpoint>
            <Time>2022-09-22T07:46:51.000Z</Time>
            <Position>
              <LatitudeDegrees>49.441615752875804901123046875</LatitudeDegrees>
              <LongitudeDegrees>20.431281588971614837646484375</LongitudeDegrees>
            </Position>
            <AltitudeMeters>417</AltitudeMeters>
            <DistanceMeters>NAN</DistanceMeters>
          </Trackpoint>
          <Trackpoint>
            <Time>2022-09-22T07:46:53.000Z</Time>
            <Position>
              <LatitudeDegrees>49.44167149253189563751220703125</LatitudeDegrees>
              <LongitudeDegrees>20.43120606802403926849365234375</LongitudeDegrees>
            </Position>
            <AltitudeMeters>417</AltitudeMeters>
            <DistanceMeters>NAN</DistanceMeters>
          </Trackpoint>
          <Trackpoint>
            <Time>2022-09-22T07:46:56.000Z</Time>
            <Position>
              <LatitudeDegrees>49.44173075258731842041015625</LatitudeDegrees>
              <LongitudeDegrees>20.43106709606945514678955078125</LongitudeDegrees>
            </Position>
            <AltitudeMeters>417.20001220703125</AltitudeMeters>
            <DistanceMeters>NAN</DistanceMeters>
          </Trackpoint>
          <Trackpoint>
            <Time>2022-09-22T07:47:03.000Z</Time>
            <Position>
              <LatitudeDegrees>49.44190199486911296844482421875</LatitudeDegrees>
              <LongitudeDegrees>20.43081060983240604400634765625</LongitudeDegrees>
            </Position>
            <AltitudeMeters>416.600006103515625</AltitudeMeters>
            <DistanceMeters>NAN</DistanceMeters>
          </Trackpoint>
          <Trackpoint>
            <Time>2022-09-22T07:47:08.000Z</Time>
            <Position>
              <LatitudeDegrees>49.44206074811518192291259765625</LatitudeDegrees>
              <LongitudeDegrees>20.430635847151279449462890625</LongitudeDegrees>
            </Position>
            <AltitudeMeters>416.399993896484375</AltitudeMeters>
            <DistanceMeters>NAN</DistanceMeters>
          </Trackpoint>
          <Trackpoint>
            <Time>2022-09-22T07:47:15.000Z</Time>
            <Position>
              <LatitudeDegrees>49.44226878695189952850341796875</LatitudeDegrees>
              <LongitudeDegrees>20.430375002324581146240234375</LongitudeDegrees>
            </Position>
            <AltitudeMeters>416.399993896484375</AltitudeMeters>
            <DistanceMeters>NAN</DistanceMeters>
          </Trackpoint>
          <Trackpoint>
            <Time>2022-09-22T07:47:22.000Z</Time>
            <Position>
              <LatitudeDegrees>49.44243726320564746856689453125</LatitudeDegrees>
              <LongitudeDegrees>20.43013452552258968353271484375</LongitudeDegrees>
            </Position>
            <AltitudeMeters>416.600006103515625</AltitudeMeters>
            <DistanceMeters>NAN</DistanceMeters>
          </Trackpoint>
          <Trackpoint>
            <Time>2022-09-22T07:47:28.000Z</Time>
            <Position>
              <LatitudeDegrees>49.4425516761839389801025390625</LatitudeDegrees>
              <LongitudeDegrees>20.42999622412025928497314453125</LongitudeDegrees>
            </Position>
            <AltitudeMeters>416.79998779296875</AltitudeMeters>
            <DistanceMeters>NAN</DistanceMeters>
          </Trackpoint>
          <Trackpoint>
            <Time>2022-09-22T07:47:34.000Z</Time>
            <Position>
              <LatitudeDegrees>49.44263842888176441192626953125</LatitudeDegrees>
              <LongitudeDegrees>20.42984250001609325408935546875</LongitudeDegrees>
            </Position>
            <AltitudeMeters>417</AltitudeMeters>
            <DistanceMeters>NAN</DistanceMeters>
          </Trackpoint>
          <Trackpoint>
            <Time>2022-09-22T07:47:41.000Z</Time>
            <Position>
              <LatitudeDegrees>49.4427313841879367828369140625</LatitudeDegrees>
              <LongitudeDegrees>20.42971861548721790313720703125</LongitudeDegrees>
            </Position>
            <AltitudeMeters>417</AltitudeMeters>
            <DistanceMeters>NAN</DistanceMeters>
          </Trackpoint>
          <Trackpoint>
            <Time>2022-09-22T07:47:42.000Z</Time>
            <Position>
              <LatitudeDegrees>49.4427357427775859832763671875</LatitudeDegrees>
              <LongitudeDegrees>20.42970679700374603271484375</LongitudeDegrees>
            </Position>
            <AltitudeMeters>417.20001220703125</AltitudeMeters>
            <DistanceMeters>NAN</DistanceMeters>
          </Trackpoint>
          <Trackpoint>
            <Time>2022-09-22T07:47:44.000Z</Time>
            <Position>
              <LatitudeDegrees>49.4427488185465335845947265625</LatitudeDegrees>
              <LongitudeDegrees>20.4296895302832126617431640625</LongitudeDegrees>
            </Position>
            <AltitudeMeters>417.600006103515625</AltitudeMeters>
            <DistanceMeters>NAN</DistanceMeters>
          </Trackpoint>
          <Trackpoint>
            <Time>2022-09-22T07:47:45.000Z</Time>
            <Position>
              <LatitudeDegrees>49.4427518360316753387451171875</LatitudeDegrees>
              <LongitudeDegrees>20.42967586778104305267333984375</LongitudeDegrees>
            </Position>
            <AltitudeMeters>417.600006103515625</AltitudeMeters>
            <DistanceMeters>NAN</DistanceMeters>
          </Trackpoint>
          <Trackpoint>
            <Time>2022-09-22T07:47:47.000Z</Time>
            <Position>
              <LatitudeDegrees>49.44275476969778537750244140625</LatitudeDegrees>
              <LongitudeDegrees>20.42963999323546886444091796875</LongitudeDegrees>
            </Position>
            <AltitudeMeters>417.600006103515625</AltitudeMeters>
            <DistanceMeters>NAN</DistanceMeters>
          </Trackpoint>
          <Trackpoint>
            <Time>2022-09-22T07:47:51.000Z</Time>
            <Position>
              <LatitudeDegrees>49.44275795482099056243896484375</LatitudeDegrees>
              <LongitudeDegrees>20.42963563464581966400146484375</LongitudeDegrees>
            </Position>
            <AltitudeMeters>417.600006103515625</AltitudeMeters>
            <DistanceMeters>NAN</DistanceMeters>
          </Trackpoint>
          <Trackpoint>
            <Time>2022-09-22T07:48:03.000Z</Time>
            <Position>
              <LatitudeDegrees>49.44275795482099056243896484375</LatitudeDegrees>
              <LongitudeDegrees>20.42963563464581966400146484375</LongitudeDegrees>
            </Position>
            <AltitudeMeters>417.600006103515625</AltitudeMeters>
            <DistanceMeters>NAN</DistanceMeters>
          </Trackpoint>
          <Trackpoint>
            <Time>2022-09-22T07:48:28.000Z</Time>
            <Position>
              <LatitudeDegrees>49.44275795482099056243896484375</LatitudeDegrees>
              <LongitudeDegrees>20.42963563464581966400146484375</LongitudeDegrees>
            </Position>
            <AltitudeMeters>417.600006103515625</AltitudeMeters>
            <DistanceMeters>NAN</DistanceMeters>
          </Trackpoint>
          <Trackpoint>
            <Time>2022-09-22T07:48:31.000Z</Time>
            <Position>
              <LatitudeDegrees>49.44275795482099056243896484375</LatitudeDegrees>
              <LongitudeDegrees>20.42963563464581966400146484375</LongitudeDegrees>
            </Position>
            <AltitudeMeters>417.600006103515625</AltitudeMeters>
            <DistanceMeters>NAN</DistanceMeters>
          </Trackpoint>
          <Trackpoint>
            <Time>2022-09-22T07:48:53.000Z</Time>
            <Position>
              <LatitudeDegrees>49.44275795482099056243896484375</LatitudeDegrees>
              <LongitudeDegrees>20.42963563464581966400146484375</LongitudeDegrees>
            </Position>
            <AltitudeMeters>417.399993896484375</AltitudeMeters>
            <DistanceMeters>NAN</DistanceMeters>
          </Trackpoint>
          <Trackpoint>
            <Time>2022-09-22T07:49:09.000Z</Time>
            <Position>
              <LatitudeDegrees>49.44279382936656475067138671875</LatitudeDegrees>
              <LongitudeDegrees>20.42955701239407062530517578125</LongitudeDegrees>
            </Position>
            <AltitudeMeters>417.399993896484375</AltitudeMeters>
            <DistanceMeters>NAN</DistanceMeters>
          </Trackpoint>
          <Trackpoint>
            <Time>2022-09-22T07:49:14.000Z</Time>
            <Position>
              <LatitudeDegrees>49.4428732059895992279052734375</LatitudeDegrees>
              <LongitudeDegrees>20.4293545894324779510498046875</LongitudeDegrees>
            </Position>
            <AltitudeMeters>417.20001220703125</AltitudeMeters>
            <DistanceMeters>NAN</DistanceMeters>
          </Trackpoint>
          <Trackpoint>
            <Time>2022-09-22T07:49:19.000Z</Time>
            <Position>
              <LatitudeDegrees>49.442979991436004638671875</LatitudeDegrees>
              <LongitudeDegrees>20.42922475375235080718994140625</LongitudeDegrees>
            </Position>
            <AltitudeMeters>416.79998779296875</AltitudeMeters>
            <DistanceMeters>NAN</DistanceMeters>
          </Trackpoint>
          <Trackpoint>
            <Time>2022-09-22T07:49:22.000Z</Time>
            <Position>
              <LatitudeDegrees>49.4430445320904254913330078125</LatitudeDegrees>
              <LongitudeDegrees>20.429144203662872314453125</LongitudeDegrees>
            </Position>
            <AltitudeMeters>416.20001220703125</AltitudeMeters>
            <DistanceMeters>NAN</DistanceMeters>
          </Trackpoint>
          <Trackpoint>
            <Time>2022-09-22T07:49:24.000Z</Time>
            <Position>
              <LatitudeDegrees>49.44309976883232593536376953125</LatitudeDegrees>
              <LongitudeDegrees>20.429080836474895477294921875</LongitudeDegrees>
            </Position>
            <AltitudeMeters>416</AltitudeMeters>
            <DistanceMeters>NAN</DistanceMeters>
          </Trackpoint>
          <Trackpoint>
            <Time>2022-09-22T07:49:29.000Z</Time>
            <Position>
              <LatitudeDegrees>49.44324217736721038818359375</LatitudeDegrees>
              <LongitudeDegrees>20.4288986138999462127685546875</LongitudeDegrees>
            </Position>
            <AltitudeMeters>415.79998779296875</AltitudeMeters>
            <DistanceMeters>NAN</DistanceMeters>
          </Trackpoint>
          <Trackpoint>
            <Time>2022-09-22T07:49:30.000Z</Time>
            <Position>
              <LatitudeDegrees>49.443270005285739898681640625</LatitudeDegrees>
              <LongitudeDegrees>20.42886533774435520172119140625</LongitudeDegrees>
            </Position>
            <AltitudeMeters>415.79998779296875</AltitudeMeters>
            <DistanceMeters>NAN</DistanceMeters>
          </Trackpoint>
          <Trackpoint>
            <Time>2022-09-22T07:49:33.000Z</Time>
            <Position>
              <LatitudeDegrees>49.4433596916496753692626953125</LatitudeDegrees>
              <LongitudeDegrees>20.42877967469394207000732421875</LongitudeDegrees>
            </Position>
            <AltitudeMeters>415.79998779296875</AltitudeMeters>
            <DistanceMeters>NAN</DistanceMeters>
          </Trackpoint>
          <Trackpoint>
            <Time>2022-09-22T07:49:36.000Z</Time>
            <Position>
              <LatitudeDegrees>49.44345943629741668701171875</LatitudeDegrees>
              <LongitudeDegrees>20.4286857135593891143798828125</LongitudeDegrees>
            </Position>
            <AltitudeMeters>415.79998779296875</AltitudeMeters>
            <DistanceMeters>NAN</DistanceMeters>
          </Trackpoint>
          <Trackpoint>
            <Time>2022-09-22T07:49:43.000Z</Time>
            <Position>
              <LatitudeDegrees>49.44369689561426639556884765625</LatitudeDegrees>
              <LongitudeDegrees>20.42845278047025203704833984375</LongitudeDegrees>
            </Position>
            <AltitudeMeters>415.600006103515625</AltitudeMeters>
            <DistanceMeters>NAN</DistanceMeters>
          </Trackpoint>
          <Trackpoint>
            <Time>2022-09-22T07:49:49.000Z</Time>
            <Position>
              <LatitudeDegrees>49.44386017508804798126220703125</LatitudeDegrees>
              <LongitudeDegrees>20.4282605834305286407470703125</LongitudeDegrees>
            </Position>
            <AltitudeMeters>415</AltitudeMeters>
            <DistanceMeters>NAN</DistanceMeters>
          </Trackpoint>
          <Trackpoint>
            <Time>2022-09-22T07:49:50.000Z</Time>
            <Position>
              <LatitudeDegrees>49.443880207836627960205078125</LatitudeDegrees>
              <LongitudeDegrees>20.42823920957744121551513671875</LongitudeDegrees>
            </Position>
            <AltitudeMeters>415</AltitudeMeters>
            <DistanceMeters>NAN</DistanceMeters>
          </Trackpoint>
          <Trackpoint>
            <Time>2022-09-22T07:49:55.000Z</Time>
            <Position>
              <LatitudeDegrees>49.4439993984997272491455078125</LatitudeDegrees>
              <LongitudeDegrees>20.42809210717678070068359375</LongitudeDegrees>
            </Position>
            <AltitudeMeters>414.79998779296875</AltitudeMeters>
            <DistanceMeters>NAN</DistanceMeters>
          </Trackpoint>
          <Trackpoint>
            <Time>2022-09-22T07:49:57.000Z</Time>
            <Position>
              <LatitudeDegrees>49.44406184367835521697998046875</LatitudeDegrees>
              <LongitudeDegrees>20.4280201904475688934326171875</LongitudeDegrees>
            </Position>
            <AltitudeMeters>415</AltitudeMeters>
            <DistanceMeters>NAN</DistanceMeters>
          </Trackpoint>
          <Trackpoint>
            <Time>2022-09-22T07:50:02.000Z</Time>
            <Position>
              <LatitudeDegrees>49.44420953281223773956298828125</LatitudeDegrees>
              <LongitudeDegrees>20.4278914444148540496826171875</LongitudeDegrees>
            </Position>
            <AltitudeMeters>415</AltitudeMeters>
            <DistanceMeters>NAN</DistanceMeters>
          </Trackpoint>
          <Trackpoint>
            <Time>2022-09-22T07:50:03.000Z</Time>
            <Position>
              <LatitudeDegrees>49.4442272186279296875</LatitudeDegrees>
              <LongitudeDegrees>20.4278565756976604461669921875</LongitudeDegrees>
            </Position>
            <AltitudeMeters>415</AltitudeMeters>
            <DistanceMeters>NAN</DistanceMeters>
          </Trackpoint>
          <Trackpoint>
            <Time>2022-09-22T07:50:08.000Z</Time>
            <Position>
              <LatitudeDegrees>49.444341547787189483642578125</LatitudeDegrees>
              <LongitudeDegrees>20.42770092375576496124267578125</LongitudeDegrees>
            </Position>
            <AltitudeMeters>415</AltitudeMeters>
            <DistanceMeters>NAN</DistanceMeters>
          </Trackpoint>
          <Trackpoint>
            <Time>2022-09-22T07:50:09.000Z</Time>
            <Position>
              <LatitudeDegrees>49.444369710981845855712890625</LatitudeDegrees>
              <LongitudeDegrees>20.42767309583723545074462890625</LongitudeDegrees>
            </Position>
            <AltitudeMeters>415.20001220703125</AltitudeMeters>
            <DistanceMeters>NAN</DistanceMeters>
          </Trackpoint>
          <Trackpoint>
            <Time>2022-09-22T07:50:15.000Z</Time>
            <Position>
              <LatitudeDegrees>49.44450440816581249237060546875</LatitudeDegrees>
              <LongitudeDegrees>20.42749791406095027923583984375</LongitudeDegrees>
            </Position>
            <AltitudeMeters>415.20001220703125</AltitudeMeters>
            <DistanceMeters>NAN</DistanceMeters>
          </Trackpoint>
          <Trackpoint>
            <Time>2022-09-22T07:50:20.000Z</Time>
            <Position>
              <LatitudeDegrees>49.44462410174310207366943359375</LatitudeDegrees>
              <LongitudeDegrees>20.42737738229334354400634765625</LongitudeDegrees>
            </Position>
            <AltitudeMeters>415</AltitudeMeters>
            <DistanceMeters>NAN</DistanceMeters>
          </Trackpoint>
          <Trackpoint>
            <Time>2022-09-22T07:50:22.000Z</Time>
            <Position>
              <LatitudeDegrees>49.4446716271340847015380859375</LatitudeDegrees>
              <LongitudeDegrees>20.42734150774776935577392578125</LongitudeDegrees>
            </Position>
            <AltitudeMeters>415</AltitudeMeters>
            <DistanceMeters>NAN</DistanceMeters>
          </Trackpoint>
          <Trackpoint>
            <Time>2022-09-22T07:50:27.000Z</Time>
            <Position>
              <LatitudeDegrees>49.44479039870202541351318359375</LatitudeDegrees>
              <LongitudeDegrees>20.42716917581856250762939453125</LongitudeDegrees>
            </Position>
            <AltitudeMeters>415</AltitudeMeters>
            <DistanceMeters>NAN</DistanceMeters>
          </Trackpoint>
          <Trackpoint>
            <Time>2022-09-22T07:50:28.000Z</Time>
            <Position>
              <LatitudeDegrees>49.44481722079217433929443359375</LatitudeDegrees>
              <LongitudeDegrees>20.42712626047432422637939453125</LongitudeDegrees>
            </Position>
            <AltitudeMeters>415.20001220703125</AltitudeMeters>
            <DistanceMeters>NAN</DistanceMeters>
          </Trackpoint>
          <Trackpoint>
            <Time>2022-09-22T07:50:35.000Z</Time>
            <Position>
              <LatitudeDegrees>49.4450354017317295074462890625</LatitudeDegrees>
              <LongitudeDegrees>20.42687312699854373931884765625</LongitudeDegrees>
            </Position>
            <AltitudeMeters>414.79998779296875</AltitudeMeters>
            <DistanceMeters>NAN</DistanceMeters>
          </Trackpoint>
          <Trackpoint>
            <Time>2022-09-22T07:50:42.000Z</Time>
            <Position>
              <LatitudeDegrees>49.4452343881130218505859375</LatitudeDegrees>
              <LongitudeDegrees>20.426659472286701202392578125</LongitudeDegrees>
            </Position>
            <AltitudeMeters>415</AltitudeMeters>
            <DistanceMeters>NAN</DistanceMeters>
          </Trackpoint>
          <Trackpoint>
            <Time>2022-09-22T07:50:50.000Z</Time>
            <Position>
              <LatitudeDegrees>49.44552113302052021026611328125</LatitudeDegrees>
              <LongitudeDegrees>20.42639368213713169097900390625</LongitudeDegrees>
            </Position>
            <AltitudeMeters>415</AltitudeMeters>
            <DistanceMeters>NAN</DistanceMeters>
          </Trackpoint>
          <Trackpoint>
            <Time>2022-09-22T07:50:56.000Z</Time>
            <Position>
              <LatitudeDegrees>49.44574199616909027099609375</LatitudeDegrees>
              <LongitudeDegrees>20.4262170754373073577880859375</LongitudeDegrees>
            </Position>
            <AltitudeMeters>415.20001220703125</AltitudeMeters>
            <DistanceMeters>NAN</DistanceMeters>
          </Trackpoint>
          <Trackpoint>
            <Time>2022-09-22T07:50:57.000Z</Time>
            <Position>
              <LatitudeDegrees>49.44577443413436412811279296875</LatitudeDegrees>
              <LongitudeDegrees>20.42618262581527233123779296875</LongitudeDegrees>
            </Position>
            <AltitudeMeters>415.20001220703125</AltitudeMeters>
            <DistanceMeters>NAN</DistanceMeters>
          </Trackpoint>
          <Trackpoint>
            <Time>2022-09-22T07:51:02.000Z</Time>
            <Position>
              <LatitudeDegrees>49.44592413492500782012939453125</LatitudeDegrees>
              <LongitudeDegrees>20.4260487668216228485107421875</LongitudeDegrees>
            </Position>
            <AltitudeMeters>415</AltitudeMeters>
            <DistanceMeters>NAN</DistanceMeters>
          </Trackpoint>
          <Trackpoint>
            <Time>2022-09-22T07:51:08.000Z</Time>
            <Position>
              <LatitudeDegrees>49.44610736332833766937255859375</LatitudeDegrees>
              <LongitudeDegrees>20.42590870521962642669677734375</LongitudeDegrees>
            </Position>
            <AltitudeMeters>415.20001220703125</AltitudeMeters>
            <DistanceMeters>NAN</DistanceMeters>
          </Trackpoint>
          <Trackpoint>
            <Time>2022-09-22T07:51:10.000Z</Time>
            <Position>
              <LatitudeDegrees>49.4461682997643947601318359375</LatitudeDegrees>
              <LongitudeDegrees>20.425868220627307891845703125</LongitudeDegrees>
            </Position>
            <AltitudeMeters>415</AltitudeMeters>
            <DistanceMeters>NAN</DistanceMeters>
          </Trackpoint>
          <Trackpoint>
            <Time>2022-09-22T07:51:16.000Z</Time>
            <Position>
              <LatitudeDegrees>49.44636016152799129486083984375</LatitudeDegrees>
              <LongitudeDegrees>20.425863526761531829833984375</LongitudeDegrees>
            </Position>
            <AltitudeMeters>414.79998779296875</AltitudeMeters>
            <DistanceMeters>NAN</DistanceMeters>
          </Trackpoint>
          <Trackpoint>
            <Time>2022-09-22T07:51:22.000Z</Time>
            <Position>
              <LatitudeDegrees>49.44656543433666229248046875</LatitudeDegrees>
              <LongitudeDegrees>20.4259947873651981353759765625</LongitudeDegrees>
            </Position>
            <AltitudeMeters>414.79998779296875</AltitudeMeters>
            <DistanceMeters>NAN</DistanceMeters>
          </Trackpoint>
          <Trackpoint>
            <Time>2022-09-22T07:51:31.000Z</Time>
            <Position>
              <LatitudeDegrees>49.4468142092227935791015625</LatitudeDegrees>
              <LongitudeDegrees>20.42613635770976543426513671875</LongitudeDegrees>
            </Position>
            <AltitudeMeters>414.600006103515625</AltitudeMeters>
            <DistanceMeters>NAN</DistanceMeters>
          </Trackpoint>
          <Trackpoint>
            <Time>2022-09-22T07:51:34.000Z</Time>
            <Position>
              <LatitudeDegrees>49.44690297357738018035888671875</LatitudeDegrees>
              <LongitudeDegrees>20.4261755011975765228271484375</LongitudeDegrees>
            </Position>
            <AltitudeMeters>414.600006103515625</AltitudeMeters>
            <DistanceMeters>NAN</DistanceMeters>
          </Trackpoint>
          <Trackpoint>
            <Time>2022-09-22T07:51:38.000Z</Time>
            <Position>
              <LatitudeDegrees>49.44700590334832668304443359375</LatitudeDegrees>
              <LongitudeDegrees>20.4262723959982395172119140625</LongitudeDegrees>
            </Position>
            <AltitudeMeters>414.79998779296875</AltitudeMeters>
            <DistanceMeters>NAN</DistanceMeters>
          </Trackpoint>
          <Trackpoint>
            <Time>2022-09-22T07:51:43.000Z</Time>
            <Position>
              <LatitudeDegrees>49.44709709845483303070068359375</LatitudeDegrees>
              <LongitudeDegrees>20.42648202739655971527099609375</LongitudeDegrees>
            </Position>
            <AltitudeMeters>414.79998779296875</AltitudeMeters>
            <DistanceMeters>NAN</DistanceMeters>
          </Trackpoint>
          <Trackpoint>
            <Time>2022-09-22T07:51:48.000Z</Time>
            <Position>
              <LatitudeDegrees>49.44722659885883331298828125</LatitudeDegrees>
              <LongitudeDegrees>20.426655113697052001953125</LongitudeDegrees>
            </Position>
            <AltitudeMeters>414.600006103515625</AltitudeMeters>
            <DistanceMeters>NAN</DistanceMeters>
          </Trackpoint>
          <Trackpoint>
            <Time>2022-09-22T07:51:54.000Z</Time>
            <Position>
              <LatitudeDegrees>49.447422064840793609619140625</LatitudeDegrees>
              <LongitudeDegrees>20.426689647138118743896484375</LongitudeDegrees>
            </Position>
            <AltitudeMeters>414.79998779296875</AltitudeMeters>
            <DistanceMeters>NAN</DistanceMeters>
          </Trackpoint>
          <Trackpoint>
            <Time>2022-09-22T07:52:02.000Z</Time>
            <Position>
              <LatitudeDegrees>49.447668157517910003662109375</LatitudeDegrees>
              <LongitudeDegrees>20.42672191746532917022705078125</LongitudeDegrees>
            </Position>
            <AltitudeMeters>415</AltitudeMeters>
            <DistanceMeters>NAN</DistanceMeters>
          </Trackpoint>
          <Trackpoint>
            <Time>2022-09-22T07:52:03.000Z</Time>
            <Position>
              <LatitudeDegrees>49.44769875146448612213134765625</LatitudeDegrees>
              <LongitudeDegrees>20.42672694660723209381103515625</LongitudeDegrees>
            </Position>
            <AltitudeMeters>415.20001220703125</AltitudeMeters>
            <DistanceMeters>NAN</DistanceMeters>
          </Trackpoint>
          <Trackpoint>
            <Time>2022-09-22T07:52:08.000Z</Time>
            <Position>
              <LatitudeDegrees>49.44782934151589870452880859375</LatitudeDegrees>
              <LongitudeDegrees>20.4267404414713382720947265625</LongitudeDegrees>
            </Position>
            <AltitudeMeters>415.600006103515625</AltitudeMeters>
            <DistanceMeters>NAN</DistanceMeters>
          </Trackpoint>
          <Trackpoint>
            <Time>2022-09-22T07:52:10.000Z</Time>
            <Position>
              <LatitudeDegrees>49.4478718377649784088134765625</LatitudeDegrees>
              <LongitudeDegrees>20.42672543786466121673583984375</LongitudeDegrees>
            </Position>
            <AltitudeMeters>415.600006103515625</AltitudeMeters>
            <DistanceMeters>NAN</DistanceMeters>
          </Trackpoint>
          <Trackpoint>
            <Time>2022-09-22T07:52:11.000Z</Time>
            <Position>
              <LatitudeDegrees>49.44788583554327487945556640625</LatitudeDegrees>
              <LongitudeDegrees>20.42670406401157379150390625</LongitudeDegrees>
            </Position>
            <AltitudeMeters>415.399993896484375</AltitudeMeters>
            <DistanceMeters>NAN</DistanceMeters>
          </Trackpoint>
          <Trackpoint>
            <Time>2022-09-22T07:52:13.000Z</Time>
            <Position>
              <LatitudeDegrees>49.44789270870387554168701171875</LatitudeDegrees>
              <LongitudeDegrees>20.426633656024932861328125</LongitudeDegrees>
            </Position>
            <AltitudeMeters>415.399993896484375</AltitudeMeters>
            <DistanceMeters>NAN</DistanceMeters>
          </Trackpoint>
          <Trackpoint>
            <Time>2022-09-22T07:52:18.000Z</Time>
            <Position>
              <LatitudeDegrees>49.44780972786247730255126953125</LatitudeDegrees>
              <LongitudeDegrees>20.426355041563510894775390625</LongitudeDegrees>
            </Position>
            <AltitudeMeters>414.79998779296875</AltitudeMeters>
            <DistanceMeters>NAN</DistanceMeters>
          </Trackpoint>
          <Trackpoint>
            <Time>2022-09-22T07:52:19.000Z</Time>
            <Position>
              <LatitudeDegrees>49.44779849611222743988037109375</LatitudeDegrees>
              <LongitudeDegrees>20.426289327442646026611328125</LongitudeDegrees>
            </Position>
            <AltitudeMeters>414.79998779296875</AltitudeMeters>
            <DistanceMeters>NAN</DistanceMeters>
          </Trackpoint>
          <Trackpoint>
            <Time>2022-09-22T07:52:23.000Z</Time>
            <Position>
              <LatitudeDegrees>49.4477903656661510467529296875</LatitudeDegrees>
              <LongitudeDegrees>20.4260118864476680755615234375</LongitudeDegrees>
            </Position>
            <AltitudeMeters>414.399993896484375</AltitudeMeters>
            <DistanceMeters>NAN</DistanceMeters>
          </Trackpoint>
          <Trackpoint>
            <Time>2022-09-22T07:52:25.000Z</Time>
            <Position>
              <LatitudeDegrees>49.44784828461706638336181640625</LatitudeDegrees>
              <LongitudeDegrees>20.42591574601829051971435546875</LongitudeDegrees>
            </Position>
            <AltitudeMeters>414.20001220703125</AltitudeMeters>
            <DistanceMeters>NAN</DistanceMeters>
          </Trackpoint>
          <Trackpoint>
            <Time>2022-09-22T07:52:26.000Z</Time>
            <Position>
              <LatitudeDegrees>49.4478855840861797332763671875</LatitudeDegrees>
              <LongitudeDegrees>20.42588959448039531707763671875</LongitudeDegrees>
            </Position>
            <AltitudeMeters>414.20001220703125</AltitudeMeters>
            <DistanceMeters>NAN</DistanceMeters>
          </Trackpoint>
          <Trackpoint>
            <Time>2022-09-22T07:52:27.000Z</Time>
            <Position>
              <LatitudeDegrees>49.4479204528033733367919921875</LatitudeDegrees>
              <LongitudeDegrees>20.4258677177131175994873046875</LongitudeDegrees>
            </Position>
            <AltitudeMeters>414</AltitudeMeters>
            <DistanceMeters>NAN</DistanceMeters>
          </Trackpoint>
          <Trackpoint>
            <Time>2022-09-22T07:52:29.000Z</Time>
            <Position>
              <LatitudeDegrees>49.4479935429990291595458984375</LatitudeDegrees>
              <LongitudeDegrees>20.425828993320465087890625</LongitudeDegrees>
            </Position>
            <AltitudeMeters>414</AltitudeMeters>
            <DistanceMeters>NAN</DistanceMeters>
          </Trackpoint>
          <Trackpoint>
            <Time>2022-09-22T07:52:32.000Z</Time>
            <Position>
              <LatitudeDegrees>49.44810368120670318603515625</LatitudeDegrees>
              <LongitudeDegrees>20.425813905894756317138671875</LongitudeDegrees>
            </Position>
            <AltitudeMeters>413.79998779296875</AltitudeMeters>
            <DistanceMeters>NAN</DistanceMeters>
          </Trackpoint>
          <Trackpoint>
            <Time>2022-09-22T07:52:37.000Z</Time>
            <Position>
              <LatitudeDegrees>49.4483194313943386077880859375</LatitudeDegrees>
              <LongitudeDegrees>20.42582237161695957183837890625</LongitudeDegrees>
            </Position>
            <AltitudeMeters>413.20001220703125</AltitudeMeters>
            <DistanceMeters>NAN</DistanceMeters>
          </Trackpoint>
          <Trackpoint>
            <Time>2022-09-22T07:52:39.000Z</Time>
            <Position>
              <LatitudeDegrees>49.448401071131229400634765625</LatitudeDegrees>
              <LongitudeDegrees>20.425794459879398345947265625</LongitudeDegrees>
            </Position>
            <AltitudeMeters>413.20001220703125</AltitudeMeters>
            <DistanceMeters>NAN</DistanceMeters>
          </Trackpoint>
          <Trackpoint>
            <Time>2022-09-22T07:52:43.000Z</Time>
            <Position>
              <LatitudeDegrees>49.4485568068921566009521484375</LatitudeDegrees>
              <LongitudeDegrees>20.4257523827254772186279296875</LongitudeDegrees>
            </Position>
            <AltitudeMeters>413.399993896484375</AltitudeMeters>
            <DistanceMeters>NAN</DistanceMeters>
          </Trackpoint>
          <Trackpoint>
            <Time>2022-09-22T07:52:46.000Z</Time>
            <Position>
              <LatitudeDegrees>49.44866484962403774261474609375</LatitudeDegrees>
              <LongitudeDegrees>20.4256977327167987823486328125</LongitudeDegrees>
            </Position>
            <AltitudeMeters>413.399993896484375</AltitudeMeters>
            <DistanceMeters>NAN</DistanceMeters>
          </Trackpoint>
          <Trackpoint>
            <Time>2022-09-22T07:52:52.000Z</Time>
            <Position>
              <LatitudeDegrees>49.4488930888473987579345703125</LatitudeDegrees>
              <LongitudeDegrees>20.4255766980350017547607421875</LongitudeDegrees>
            </Position>
            <AltitudeMeters>413.79998779296875</AltitudeMeters>
            <DistanceMeters>NAN</DistanceMeters>
          </Trackpoint>
          <Trackpoint>
            <Time>2022-09-22T07:52:55.000Z</Time>
            <Position>
              <LatitudeDegrees>49.448999203741550445556640625</LatitudeDegrees>
              <LongitudeDegrees>20.42546563781797885894775390625</LongitudeDegrees>
            </Position>
            <AltitudeMeters>413.79998779296875</AltitudeMeters>
            <DistanceMeters>NAN</DistanceMeters>
          </Trackpoint>
          <Trackpoint>
            <Time>2022-09-22T07:52:56.000Z</Time>
            <Position>
              <LatitudeDegrees>49.449031054973602294921875</LatitudeDegrees>
              <LongitudeDegrees>20.4254214651882648468017578125</LongitudeDegrees>
            </Position>
            <AltitudeMeters>413.79998779296875</AltitudeMeters>
            <DistanceMeters>NAN</DistanceMeters>
          </Trackpoint>
          <Trackpoint>
            <Time>2022-09-22T07:52:58.000Z</Time>
            <Position>
              <LatitudeDegrees>49.44910347461700439453125</LatitudeDegrees>
              <LongitudeDegrees>20.4253540746867656707763671875</LongitudeDegrees>
            </Position>
            <AltitudeMeters>413.79998779296875</AltitudeMeters>
            <DistanceMeters>NAN</DistanceMeters>
          </Trackpoint>
          <Trackpoint>
            <Time>2022-09-22T07:53:01.000Z</Time>
            <Position>
              <LatitudeDegrees>49.449211098253726959228515625</LatitudeDegrees>
              <LongitudeDegrees>20.42529330588877201080322265625</LongitudeDegrees>
            </Position>
            <AltitudeMeters>413.79998779296875</AltitudeMeters>
            <DistanceMeters>NAN</DistanceMeters>
          </Trackpoint>
          <Trackpoint>
            <Time>2022-09-22T07:53:03.000Z</Time>
            <Position>
              <LatitudeDegrees>49.44927178323268890380859375</LatitudeDegrees>
              <LongitudeDegrees>20.42519205249845981597900390625</LongitudeDegrees>
            </Position>
            <AltitudeMeters>413.600006103515625</AltitudeMeters>
            <DistanceMeters>NAN</DistanceMeters>
          </Trackpoint>
          <Trackpoint>
            <Time>2022-09-22T07:53:05.000Z</Time>
            <Position>
              <LatitudeDegrees>49.449339173734188079833984375</LatitudeDegrees>
              <LongitudeDegrees>20.42510211467742919921875</LongitudeDegrees>
            </Position>
            <AltitudeMeters>413.399993896484375</AltitudeMeters>
            <DistanceMeters>NAN</DistanceMeters>
          </Trackpoint>
          <Trackpoint>
            <Time>2022-09-22T07:53:10.000Z</Time>
            <Position>
              <LatitudeDegrees>49.44951326586306095123291015625</LatitudeDegrees>
              <LongitudeDegrees>20.42493808083236217498779296875</LongitudeDegrees>
            </Position>
            <AltitudeMeters>413.399993896484375</AltitudeMeters>
            <DistanceMeters>NAN</DistanceMeters>
          </Trackpoint>
          <Trackpoint>
            <Time>2022-09-22T07:53:16.000Z</Time>
            <Position>
              <LatitudeDegrees>49.4496974162757396697998046875</LatitudeDegrees>
              <LongitudeDegrees>20.4247938282787799835205078125</LongitudeDegrees>
            </Position>
            <AltitudeMeters>413.20001220703125</AltitudeMeters>
            <DistanceMeters>NAN</DistanceMeters>
          </Trackpoint>
          <Trackpoint>
            <Time>2022-09-22T07:53:20.000Z</Time>
            <Position>
              <LatitudeDegrees>49.4498560018837451934814453125</LatitudeDegrees>
              <LongitudeDegrees>20.42474026791751384735107421875</LongitudeDegrees>
            </Position>
            <AltitudeMeters>413.20001220703125</AltitudeMeters>
            <DistanceMeters>NAN</DistanceMeters>
          </Trackpoint>
          <Trackpoint>
            <Time>2022-09-22T07:53:23.000Z</Time>
            <Position>
              <LatitudeDegrees>49.44998030550777912139892578125</LatitudeDegrees>
              <LongitudeDegrees>20.4246997833251953125</LongitudeDegrees>
            </Position>
            <AltitudeMeters>413</AltitudeMeters>
            <DistanceMeters>NAN</DistanceMeters>
          </Trackpoint>
          <Trackpoint>
            <Time>2022-09-22T07:53:24.000Z</Time>
            <Position>
              <LatitudeDegrees>49.45001819171011447906494140625</LatitudeDegrees>
              <LongitudeDegrees>20.42469802312552928924560546875</LongitudeDegrees>
            </Position>
            <AltitudeMeters>412.79998779296875</AltitudeMeters>
            <DistanceMeters>NAN</DistanceMeters>
          </Trackpoint>
          <Trackpoint>
            <Time>2022-09-22T07:53:32.000Z</Time>
            <Position>
              <LatitudeDegrees>49.45030183531343936920166015625</LatitudeDegrees>
              <LongitudeDegrees>20.4246915690600872039794921875</LongitudeDegrees>
            </Position>
            <AltitudeMeters>412.20001220703125</AltitudeMeters>
            <DistanceMeters>NAN</DistanceMeters>
          </Trackpoint>
          <Trackpoint>
            <Time>2022-09-22T07:53:36.000Z</Time>
            <Position>
              <LatitudeDegrees>49.45039353333413600921630859375</LatitudeDegrees>
              <LongitudeDegrees>20.42477555572986602783203125</LongitudeDegrees>
            </Position>
            <AltitudeMeters>412.20001220703125</AltitudeMeters>
            <DistanceMeters>NAN</DistanceMeters>
          </Trackpoint>
          <Trackpoint>
            <Time>2022-09-22T07:53:41.000Z</Time>
            <Position>
              <LatitudeDegrees>49.45044457912445068359375</LatitudeDegrees>
              <LongitudeDegrees>20.42497529648244380950927734375</LongitudeDegrees>
            </Position>
            <AltitudeMeters>412.20001220703125</AltitudeMeters>
            <DistanceMeters>NAN</DistanceMeters>
          </Trackpoint>
          <Trackpoint>
            <Time>2022-09-22T07:53:44.000Z</Time>
            <Position>
              <LatitudeDegrees>49.450489170849323272705078125</LatitudeDegrees>
              <LongitudeDegrees>20.42507722042500972747802734375</LongitudeDegrees>
            </Position>
            <AltitudeMeters>412.399993896484375</AltitudeMeters>
            <DistanceMeters>NAN</DistanceMeters>
          </Trackpoint>
          <Trackpoint>
            <Time>2022-09-22T07:53:45.000Z</Time>
            <Position>
              <LatitudeDegrees>49.4505205191671848297119140625</LatitudeDegrees>
              <LongitudeDegrees>20.42509079910814762115478515625</LongitudeDegrees>
            </Position>
            <AltitudeMeters>412.399993896484375</AltitudeMeters>
            <DistanceMeters>NAN</DistanceMeters>
          </Trackpoint>
          <Trackpoint>
            <Time>2022-09-22T07:53:50.000Z</Time>
            <Position>
              <LatitudeDegrees>49.45072009228169918060302734375</LatitudeDegrees>
              <LongitudeDegrees>20.42511460371315479278564453125</LongitudeDegrees>
            </Position>
            <AltitudeMeters>413.20001220703125</AltitudeMeters>
            <DistanceMeters>NAN</DistanceMeters>
          </Trackpoint>
          <Trackpoint>
            <Time>2022-09-22T07:53:53.000Z</Time>
            <Position>
              <LatitudeDegrees>49.450812377035617828369140625</LatitudeDegrees>
              <LongitudeDegrees>20.425029695034027099609375</LongitudeDegrees>
            </Position>
            <AltitudeMeters>413.79998779296875</AltitudeMeters>
            <DistanceMeters>NAN</DistanceMeters>
          </Trackpoint>
          <Trackpoint>
            <Time>2022-09-22T07:53:54.000Z</Time>
            <Position>
              <LatitudeDegrees>49.45082788355648517608642578125</LatitudeDegrees>
              <LongitudeDegrees>20.4249799065291881561279296875</LongitudeDegrees>
            </Position>
            <AltitudeMeters>414</AltitudeMeters>
            <DistanceMeters>NAN</DistanceMeters>
          </Trackpoint>
          <Trackpoint>
            <Time>2022-09-22T07:53:58.000Z</Time>
            <Position>
              <LatitudeDegrees>49.4508514367043972015380859375</LatitudeDegrees>
              <LongitudeDegrees>20.42482207529246807098388671875</LongitudeDegrees>
            </Position>
            <AltitudeMeters>415.20001220703125</AltitudeMeters>
            <DistanceMeters>NAN</DistanceMeters>
          </Trackpoint>
          <Trackpoint>
            <Time>2022-09-22T07:54:02.000Z</Time>
            <Position>
              <LatitudeDegrees>49.450891502201557159423828125</LatitudeDegrees>
              <LongitudeDegrees>20.4247639887034893035888671875</LongitudeDegrees>
            </Position>
            <AltitudeMeters>415.79998779296875</AltitudeMeters>
            <DistanceMeters>NAN</DistanceMeters>
          </Trackpoint>
          <Trackpoint>
            <Time>2022-09-22T07:54:03.000Z</Time>
            <Position>
              <LatitudeDegrees>49.45089041255414485931396484375</LatitudeDegrees>
              <LongitudeDegrees>20.4247596301138401031494140625</LongitudeDegrees>
            </Position>
            <AltitudeMeters>415.79998779296875</AltitudeMeters>
            <DistanceMeters>NAN</DistanceMeters>
          </Trackpoint>
          <Trackpoint>
            <Time>2022-09-22T07:54:20.000Z</Time>
            <Position>
              <LatitudeDegrees>49.45089041255414485931396484375</LatitudeDegrees>
              <LongitudeDegrees>20.4247596301138401031494140625</LongitudeDegrees>
            </Position>
            <AltitudeMeters>415.79998779296875</AltitudeMeters>
            <DistanceMeters>NAN</DistanceMeters>
          </Trackpoint>
          <Trackpoint>
            <Time>2022-09-22T07:54:23.000Z</Time>
            <Position>
              <LatitudeDegrees>49.45089041255414485931396484375</LatitudeDegrees>
              <LongitudeDegrees>20.4247596301138401031494140625</LongitudeDegrees>
            </Position>
            <AltitudeMeters>415.79998779296875</AltitudeMeters>
            <DistanceMeters>NAN</DistanceMeters>
          </Trackpoint>
          <Trackpoint>
            <Time>2022-09-22T07:54:38.000Z</Time>
            <Position>
              <LatitudeDegrees>49.45089041255414485931396484375</LatitudeDegrees>
              <LongitudeDegrees>20.4247596301138401031494140625</LongitudeDegrees>
            </Position>
            <AltitudeMeters>416</AltitudeMeters>
            <DistanceMeters>NAN</DistanceMeters>
          </Trackpoint>
          <Trackpoint>
            <Time>2022-09-22T07:54:40.000Z</Time>
            <Position>
              <LatitudeDegrees>49.450892172753810882568359375</LatitudeDegrees>
              <LongitudeDegrees>20.42473490349948406219482421875</LongitudeDegrees>
            </Position>
            <AltitudeMeters>416.20001220703125</AltitudeMeters>
            <DistanceMeters>NAN</DistanceMeters>
          </Trackpoint>
          <Trackpoint>
            <Time>2022-09-22T07:54:42.000Z</Time>
            <Position>
              <LatitudeDegrees>49.45090080611407756805419921875</LatitudeDegrees>
              <LongitudeDegrees>20.4246999509632587432861328125</LongitudeDegrees>
            </Position>
            <AltitudeMeters>416.399993896484375</AltitudeMeters>
            <DistanceMeters>NAN</DistanceMeters>
          </Trackpoint>
          <Trackpoint>
            <Time>2022-09-22T07:54:49.000Z</Time>
            <Position>
              <LatitudeDegrees>49.45091857574880123138427734375</LatitudeDegrees>
              <LongitudeDegrees>20.4245081730186939239501953125</LongitudeDegrees>
            </Position>
            <AltitudeMeters>417.20001220703125</AltitudeMeters>
            <DistanceMeters>NAN</DistanceMeters>
          </Trackpoint>
          <Trackpoint>
            <Time>2022-09-22T07:54:50.000Z</Time>
            <Position>
              <LatitudeDegrees>49.45092578418552875518798828125</LatitudeDegrees>
              <LongitudeDegrees>20.42447841726243495941162109375</LongitudeDegrees>
            </Position>
            <AltitudeMeters>417.20001220703125</AltitudeMeters>
            <DistanceMeters>NAN</DistanceMeters>
          </Trackpoint>
          <Trackpoint>
            <Time>2022-09-22T07:54:57.000Z</Time>
            <Position>
              <LatitudeDegrees>49.45095495320856571197509765625</LatitudeDegrees>
              <LongitudeDegrees>20.42420315556228160858154296875</LongitudeDegrees>
            </Position>
            <AltitudeMeters>418.399993896484375</AltitudeMeters>
            <DistanceMeters>NAN</DistanceMeters>
          </Trackpoint>
          <Trackpoint>
            <Time>2022-09-22T07:55:04.000Z</Time>
            <Position>
              <LatitudeDegrees>49.45098303258419036865234375</LatitudeDegrees>
              <LongitudeDegrees>20.42388246394693851470947265625</LongitudeDegrees>
            </Position>
            <AltitudeMeters>418</AltitudeMeters>
            <DistanceMeters>NAN</DistanceMeters>
          </Trackpoint>
          <Trackpoint>
            <Time>2022-09-22T07:55:10.000Z</Time>
            <Position>
              <LatitudeDegrees>49.4510170631110668182373046875</LatitudeDegrees>
              <LongitudeDegrees>20.4235670529305934906005859375</LongitudeDegrees>
            </Position>
            <AltitudeMeters>417.20001220703125</AltitudeMeters>
            <DistanceMeters>NAN</DistanceMeters>
          </Trackpoint>
          <Trackpoint>
            <Time>2022-09-22T07:55:11.000Z</Time>
            <Position>
              <LatitudeDegrees>49.4510184042155742645263671875</LatitudeDegrees>
              <LongitudeDegrees>20.423499830067157745361328125</LongitudeDegrees>
            </Position>
            <AltitudeMeters>416.79998779296875</AltitudeMeters>
            <DistanceMeters>NAN</DistanceMeters>
          </Trackpoint>
          <Trackpoint>
            <Time>2022-09-22T07:55:14.000Z</Time>
            <Position>
              <LatitudeDegrees>49.45103575475513935089111328125</LatitudeDegrees>
              <LongitudeDegrees>20.4232877679169178009033203125</LongitudeDegrees>
            </Position>
            <AltitudeMeters>416</AltitudeMeters>
            <DistanceMeters>NAN</DistanceMeters>
          </Trackpoint>
          <Trackpoint>
            <Time>2022-09-22T07:55:15.000Z</Time>
            <Position>
              <LatitudeDegrees>49.45104715414345264434814453125</LatitudeDegrees>
              <LongitudeDegrees>20.42322565801441669464111328125</LongitudeDegrees>
            </Position>
            <AltitudeMeters>415.79998779296875</AltitudeMeters>
            <DistanceMeters>NAN</DistanceMeters>
          </Trackpoint>
          <Trackpoint>
            <Time>2022-09-22T07:55:16.000Z</Time>
            <Position>
              <LatitudeDegrees>49.451069533824920654296875</LatitudeDegrees>
              <LongitudeDegrees>20.423176288604736328125</LongitudeDegrees>
            </Position>
            <AltitudeMeters>415.399993896484375</AltitudeMeters>
            <DistanceMeters>NAN</DistanceMeters>
          </Trackpoint>
          <Trackpoint>
            <Time>2022-09-22T07:55:17.000Z</Time>
            <Position>
              <LatitudeDegrees>49.45110582746565341949462890625</LatitudeDegrees>
              <LongitudeDegrees>20.42314250953495502471923828125</LongitudeDegrees>
            </Position>
            <AltitudeMeters>415</AltitudeMeters>
            <DistanceMeters>NAN</DistanceMeters>
          </Trackpoint>
          <Trackpoint>
            <Time>2022-09-22T07:55:19.000Z</Time>
            <Position>
              <LatitudeDegrees>49.45118763484060764312744140625</LatitudeDegrees>
              <LongitudeDegrees>20.42314401827752590179443359375</LongitudeDegrees>
            </Position>
            <AltitudeMeters>414.600006103515625</AltitudeMeters>
            <DistanceMeters>NAN</DistanceMeters>
          </Trackpoint>
          <Trackpoint>
            <Time>2022-09-22T07:55:22.000Z</Time>
            <Position>
              <LatitudeDegrees>49.4513221643865108489990234375</LatitudeDegrees>
              <LongitudeDegrees>20.423281230032444000244140625</LongitudeDegrees>
            </Position>
            <AltitudeMeters>414.20001220703125</AltitudeMeters>
            <DistanceMeters>NAN</DistanceMeters>
          </Trackpoint>
          <Trackpoint>
            <Time>2022-09-22T07:55:23.000Z</Time>
            <Position>
              <LatitudeDegrees>49.45136918686330318450927734375</LatitudeDegrees>
              <LongitudeDegrees>20.42331500910222530364990234375</LongitudeDegrees>
            </Position>
            <AltitudeMeters>414.20001220703125</AltitudeMeters>
            <DistanceMeters>NAN</DistanceMeters>
          </Trackpoint>
          <Trackpoint>
            <Time>2022-09-22T07:55:27.000Z</Time>
            <Position>
              <LatitudeDegrees>49.45154168643057346343994140625</LatitudeDegrees>
              <LongitudeDegrees>20.423398576676845550537109375</LongitudeDegrees>
            </Position>
            <AltitudeMeters>413.79998779296875</AltitudeMeters>
            <DistanceMeters>NAN</DistanceMeters>
          </Trackpoint>
          <Trackpoint>
            <Time>2022-09-22T07:55:30.000Z</Time>
            <Position>
              <LatitudeDegrees>49.45168283767998218536376953125</LatitudeDegrees>
              <LongitudeDegrees>20.42344727553427219390869140625</LongitudeDegrees>
            </Position>
            <AltitudeMeters>413.600006103515625</AltitudeMeters>
            <DistanceMeters>NAN</DistanceMeters>
          </Trackpoint>
          <Trackpoint>
            <Time>2022-09-22T07:55:34.000Z</Time>
            <Position>
              <LatitudeDegrees>49.45189003832638263702392578125</LatitudeDegrees>
              <LongitudeDegrees>20.42346403934061527252197265625</LongitudeDegrees>
            </Position>
            <AltitudeMeters>413.20001220703125</AltitudeMeters>
            <DistanceMeters>NAN</DistanceMeters>
          </Trackpoint>
          <Trackpoint>
            <Time>2022-09-22T07:55:36.000Z</Time>
            <Position>
              <LatitudeDegrees>49.4519863463938236236572265625</LatitudeDegrees>
              <LongitudeDegrees>20.42342984117567539215087890625</LongitudeDegrees>
            </Position>
            <AltitudeMeters>413</AltitudeMeters>
            <DistanceMeters>NAN</DistanceMeters>
          </Trackpoint>
          <Trackpoint>
            <Time>2022-09-22T07:55:37.000Z</Time>
            <Position>
              <LatitudeDegrees>49.45203219540417194366455078125</LatitudeDegrees>
              <LongitudeDegrees>20.4234044440090656280517578125</LongitudeDegrees>
            </Position>
            <AltitudeMeters>412.79998779296875</AltitudeMeters>
            <DistanceMeters>NAN</DistanceMeters>
          </Trackpoint>
          <Trackpoint>
            <Time>2022-09-22T07:55:39.000Z</Time>
            <Position>
              <LatitudeDegrees>49.45211668498814105987548828125</LatitudeDegrees>
              <LongitudeDegrees>20.42335591278970241546630859375</LongitudeDegrees>
            </Position>
            <AltitudeMeters>412.600006103515625</AltitudeMeters>
            <DistanceMeters>NAN</DistanceMeters>
          </Trackpoint>
          <Trackpoint>
            <Time>2022-09-22T07:55:41.000Z</Time>
            <Position>
              <LatitudeDegrees>49.45220746099948883056640625</LatitudeDegrees>
              <LongitudeDegrees>20.4233095608651638031005859375</LongitudeDegrees>
            </Position>
            <AltitudeMeters>412.399993896484375</AltitudeMeters>
            <DistanceMeters>NAN</DistanceMeters>
          </Trackpoint>
          <Trackpoint>
            <Time>2022-09-22T07:55:44.000Z</Time>
            <Position>
              <LatitudeDegrees>49.4523320160806179046630859375</LatitudeDegrees>
              <LongitudeDegrees>20.42327343486249446868896484375</LongitudeDegrees>
            </Position>
            <AltitudeMeters>412.600006103515625</AltitudeMeters>
            <DistanceMeters>NAN</DistanceMeters>
          </Trackpoint>
          <Trackpoint>
            <Time>2022-09-22T07:55:48.000Z</Time>
            <Position>
              <LatitudeDegrees>49.4525066949427127838134765625</LatitudeDegrees>
              <LongitudeDegrees>20.42328466661274433135986328125</LongitudeDegrees>
            </Position>
            <AltitudeMeters>412.79998779296875</AltitudeMeters>
            <DistanceMeters>NAN</DistanceMeters>
          </Trackpoint>
          <Trackpoint>
            <Time>2022-09-22T07:55:51.000Z</Time>
            <Position>
              <LatitudeDegrees>49.45265312679111957550048828125</LatitudeDegrees>
              <LongitudeDegrees>20.42329095304012298583984375</LongitudeDegrees>
            </Position>
            <AltitudeMeters>412.79998779296875</AltitudeMeters>
            <DistanceMeters>NAN</DistanceMeters>
          </Trackpoint>
          <Trackpoint>
            <Time>2022-09-22T07:55:52.000Z</Time>
            <Position>
              <LatitudeDegrees>49.4526988081634044647216796875</LatitudeDegrees>
              <LongitudeDegrees>20.42330025695264339447021484375</LongitudeDegrees>
            </Position>
            <AltitudeMeters>412.79998779296875</AltitudeMeters>
            <DistanceMeters>NAN</DistanceMeters>
          </Trackpoint>
          <Trackpoint>
            <Time>2022-09-22T07:55:59.000Z</Time>
            <Position>
              <LatitudeDegrees>49.4529817812144756317138671875</LatitudeDegrees>
              <LongitudeDegrees>20.42333965189754962921142578125</LongitudeDegrees>
            </Position>
            <AltitudeMeters>412.79998779296875</AltitudeMeters>
            <DistanceMeters>NAN</DistanceMeters>
          </Trackpoint>
          <Trackpoint>
            <Time>2022-09-22T07:56:02.000Z</Time>
            <Position>
              <LatitudeDegrees>49.453081190586090087890625</LatitudeDegrees>
              <LongitudeDegrees>20.423339903354644775390625</LongitudeDegrees>
            </Position>
            <AltitudeMeters>413</AltitudeMeters>
            <DistanceMeters>NAN</DistanceMeters>
          </Trackpoint>
          <Trackpoint>
            <Time>2022-09-22T07:56:05.000Z</Time>
            <Position>
              <LatitudeDegrees>49.45317850448191165924072265625</LatitudeDegrees>
              <LongitudeDegrees>20.4233600199222564697265625</LongitudeDegrees>
            </Position>
            <AltitudeMeters>413.600006103515625</AltitudeMeters>
            <DistanceMeters>NAN</DistanceMeters>
          </Trackpoint>
          <Trackpoint>
            <Time>2022-09-22T07:56:06.000Z</Time>
            <Position>
              <LatitudeDegrees>49.45321999490261077880859375</LatitudeDegrees>
              <LongitudeDegrees>20.423361696302890777587890625</LongitudeDegrees>
            </Position>
            <AltitudeMeters>413.79998779296875</AltitudeMeters>
            <DistanceMeters>NAN</DistanceMeters>
          </Trackpoint>
          <Trackpoint>
            <Time>2022-09-22T07:56:15.000Z</Time>
            <Position>
              <LatitudeDegrees>49.4534867070615291595458984375</LatitudeDegrees>
              <LongitudeDegrees>20.42335390113294124603271484375</LongitudeDegrees>
            </Position>
            <AltitudeMeters>414.79998779296875</AltitudeMeters>
            <DistanceMeters>NAN</DistanceMeters>
          </Trackpoint>
          <Trackpoint>
            <Time>2022-09-22T07:56:20.000Z</Time>
            <Position>
              <LatitudeDegrees>49.453604556620121002197265625</LatitudeDegrees>
              <LongitudeDegrees>20.42338617146015167236328125</LongitudeDegrees>
            </Position>
            <AltitudeMeters>415.399993896484375</AltitudeMeters>
            <DistanceMeters>NAN</DistanceMeters>
          </Trackpoint>
          <Trackpoint>
            <Time>2022-09-22T07:56:24.000Z</Time>
            <Position>
              <LatitudeDegrees>49.4536442868411540985107421875</LatitudeDegrees>
              <LongitudeDegrees>20.42339514009654521942138671875</LongitudeDegrees>
            </Position>
            <AltitudeMeters>415.399993896484375</AltitudeMeters>
            <DistanceMeters>NAN</DistanceMeters>
          </Trackpoint>
          <Trackpoint>
            <Time>2022-09-22T07:56:33.000Z</Time>
            <Position>
              <LatitudeDegrees>49.4536442868411540985107421875</LatitudeDegrees>
              <LongitudeDegrees>20.42339514009654521942138671875</LongitudeDegrees>
            </Position>
            <AltitudeMeters>415.399993896484375</AltitudeMeters>
            <DistanceMeters>NAN</DistanceMeters>
          </Trackpoint>
          <Trackpoint>
            <Time>2022-09-22T07:56:39.000Z</Time>
            <Position>
              <LatitudeDegrees>49.4536442868411540985107421875</LatitudeDegrees>
              <LongitudeDegrees>20.42339514009654521942138671875</LongitudeDegrees>
            </Position>
            <AltitudeMeters>415.399993896484375</AltitudeMeters>
            <DistanceMeters>NAN</DistanceMeters>
          </Trackpoint>
          <Trackpoint>
            <Time>2022-09-22T07:56:56.000Z</Time>
            <Position>
              <LatitudeDegrees>49.4536442868411540985107421875</LatitudeDegrees>
              <LongitudeDegrees>20.42339514009654521942138671875</LongitudeDegrees>
            </Position>
            <AltitudeMeters>415.399993896484375</AltitudeMeters>
            <DistanceMeters>NAN</DistanceMeters>
          </Trackpoint>
          <Trackpoint>
            <Time>2022-09-22T07:57:02.000Z</Time>
            <Position>
              <LatitudeDegrees>49.4536503218114376068115234375</LatitudeDegrees>
              <LongitudeDegrees>20.42340318672358989715576171875</LongitudeDegrees>
            </Position>
            <AltitudeMeters>415.600006103515625</AltitudeMeters>
            <DistanceMeters>NAN</DistanceMeters>
          </Trackpoint>
          <Trackpoint>
            <Time>2022-09-22T07:57:04.000Z</Time>
            <Position>
              <LatitudeDegrees>49.45366448722779750823974609375</LatitudeDegrees>
              <LongitudeDegrees>20.4234163463115692138671875</LongitudeDegrees>
            </Position>
            <AltitudeMeters>415.79998779296875</AltitudeMeters>
            <DistanceMeters>NAN</DistanceMeters>
          </Trackpoint>
          <Trackpoint>
            <Time>2022-09-22T07:57:10.000Z</Time>
            <Position>
              <LatitudeDegrees>49.45370153523981571197509765625</LatitudeDegrees>
              <LongitudeDegrees>20.42338348925113677978515625</LongitudeDegrees>
            </Position>
            <AltitudeMeters>415.600006103515625</AltitudeMeters>
            <DistanceMeters>NAN</DistanceMeters>
          </Trackpoint>
          <Trackpoint>
            <Time>2022-09-22T07:57:13.000Z</Time>
            <Position>
              <LatitudeDegrees>49.45370153523981571197509765625</LatitudeDegrees>
              <LongitudeDegrees>20.42338348925113677978515625</LongitudeDegrees>
            </Position>
            <AltitudeMeters>415.600006103515625</AltitudeMeters>
            <DistanceMeters>NAN</DistanceMeters>
          </Trackpoint>
          <Trackpoint>
            <Time>2022-09-22T07:57:15.000Z</Time>
            <Position>
              <LatitudeDegrees>49.45370153523981571197509765625</LatitudeDegrees>
              <LongitudeDegrees>20.42338348925113677978515625</LongitudeDegrees>
            </Position>
            <AltitudeMeters>415.399993896484375</AltitudeMeters>
            <DistanceMeters>NAN</DistanceMeters>
          </Trackpoint>
          <Trackpoint>
            <Time>2022-09-22T07:57:19.000Z</Time>
            <Position>
              <LatitudeDegrees>49.45370153523981571197509765625</LatitudeDegrees>
              <LongitudeDegrees>20.42338348925113677978515625</LongitudeDegrees>
            </Position>
            <AltitudeMeters>415.399993896484375</AltitudeMeters>
            <DistanceMeters>NAN</DistanceMeters>
          </Trackpoint>
          <Trackpoint>
            <Time>2022-09-22T07:57:22.000Z</Time>
            <Position>
              <LatitudeDegrees>49.453703798353672027587890625</LatitudeDegrees>
              <LongitudeDegrees>20.42338575236499309539794921875</LongitudeDegrees>
            </Position>
            <AltitudeMeters>415.399993896484375</AltitudeMeters>
            <DistanceMeters>NAN</DistanceMeters>
          </Trackpoint>
          <Trackpoint>
            <Time>2022-09-22T07:57:24.000Z</Time>
            <Position>
              <LatitudeDegrees>49.453730285167694091796875</LatitudeDegrees>
              <LongitudeDegrees>20.4234175197780132293701171875</LongitudeDegrees>
            </Position>
            <AltitudeMeters>415.399993896484375</AltitudeMeters>
            <DistanceMeters>NAN</DistanceMeters>
          </Trackpoint>
          <Trackpoint>
            <Time>2022-09-22T07:57:25.000Z</Time>
            <Position>
              <LatitudeDegrees>49.453749395906925201416015625</LatitudeDegrees>
              <LongitudeDegrees>20.42342699132859706878662109375</LongitudeDegrees>
            </Position>
            <AltitudeMeters>415.399993896484375</AltitudeMeters>
            <DistanceMeters>NAN</DistanceMeters>
          </Trackpoint>
          <Trackpoint>
            <Time>2022-09-22T07:57:30.000Z</Time>
            <Position>
              <LatitudeDegrees>49.453885853290557861328125</LatitudeDegrees>
              <LongitudeDegrees>20.4235201142728328704833984375</LongitudeDegrees>
            </Position>
            <AltitudeMeters>415.399993896484375</AltitudeMeters>
            <DistanceMeters>NAN</DistanceMeters>
          </Trackpoint>
          <Trackpoint>
            <Time>2022-09-22T07:57:31.000Z</Time>
            <Position>
              <LatitudeDegrees>49.45390739478170871734619140625</LatitudeDegrees>
              <LongitudeDegrees>20.42354148812592029571533203125</LongitudeDegrees>
            </Position>
            <AltitudeMeters>415.399993896484375</AltitudeMeters>
            <DistanceMeters>NAN</DistanceMeters>
          </Trackpoint>
          <Trackpoint>
            <Time>2022-09-22T07:57:33.000Z</Time>
            <Position>
              <LatitudeDegrees>49.4539473764598369598388671875</LatitudeDegrees>
              <LongitudeDegrees>20.42356864549219608306884765625</LongitudeDegrees>
            </Position>
            <AltitudeMeters>415.399993896484375</AltitudeMeters>
            <DistanceMeters>NAN</DistanceMeters>
          </Trackpoint>
          <Trackpoint>
            <Time>2022-09-22T07:57:34.000Z</Time>
            <Position>
              <LatitudeDegrees>49.4539708457887172698974609375</LatitudeDegrees>
              <LongitudeDegrees>20.42356864549219608306884765625</LongitudeDegrees>
            </Position>
            <AltitudeMeters>415.399993896484375</AltitudeMeters>
            <DistanceMeters>NAN</DistanceMeters>
          </Trackpoint>
          <Trackpoint>
            <Time>2022-09-22T07:57:36.000Z</Time>
            <Position>
              <LatitudeDegrees>49.45401200093328952789306640625</LatitudeDegrees>
              <LongitudeDegrees>20.4236067831516265869140625</LongitudeDegrees>
            </Position>
            <AltitudeMeters>415.399993896484375</AltitudeMeters>
            <DistanceMeters>NAN</DistanceMeters>
          </Trackpoint>
          <Trackpoint>
            <Time>2022-09-22T07:57:38.000Z</Time>
            <Position>
              <LatitudeDegrees>49.45406497456133365631103515625</LatitudeDegrees>
              <LongitudeDegrees>20.4236418195068836212158203125</LongitudeDegrees>
            </Position>
            <AltitudeMeters>415.399993896484375</AltitudeMeters>
            <DistanceMeters>NAN</DistanceMeters>
          </Trackpoint>
          <Trackpoint>
            <Time>2022-09-22T07:57:40.000Z</Time>
            <Position>
              <LatitudeDegrees>49.45412917993962764739990234375</LatitudeDegrees>
              <LongitudeDegrees>20.4236894287168979644775390625</LongitudeDegrees>
            </Position>
            <AltitudeMeters>415.20001220703125</AltitudeMeters>
            <DistanceMeters>NAN</DistanceMeters>
          </Trackpoint>
          <Trackpoint>
            <Time>2022-09-22T07:57:41.000Z</Time>
            <Position>
              <LatitudeDegrees>49.45414929650723934173583984375</LatitudeDegrees>
              <LongitudeDegrees>20.42372454889118671417236328125</LongitudeDegrees>
            </Position>
            <AltitudeMeters>415.399993896484375</AltitudeMeters>
            <DistanceMeters>NAN</DistanceMeters>
          </Trackpoint>
          <Trackpoint>
            <Time>2022-09-22T07:57:45.000Z</Time>
            <Position>
              <LatitudeDegrees>49.4542841613292694091796875</LatitudeDegrees>
              <LongitudeDegrees>20.4238211922347545623779296875</LongitudeDegrees>
            </Position>
            <AltitudeMeters>415.399993896484375</AltitudeMeters>
            <DistanceMeters>NAN</DistanceMeters>
          </Trackpoint>
          <Trackpoint>
            <Time>2022-09-22T07:57:47.000Z</Time>
            <Position>
              <LatitudeDegrees>49.45433604530990123748779296875</LatitudeDegrees>
              <LongitudeDegrees>20.423897802829742431640625</LongitudeDegrees>
            </Position>
            <AltitudeMeters>415.399993896484375</AltitudeMeters>
            <DistanceMeters>NAN</DistanceMeters>
          </Trackpoint>
          <Trackpoint>
            <Time>2022-09-22T07:57:52.000Z</Time>
            <Position>
              <LatitudeDegrees>49.4545041024684906005859375</LatitudeDegrees>
              <LongitudeDegrees>20.4240037500858306884765625</LongitudeDegrees>
            </Position>
            <AltitudeMeters>415.20001220703125</AltitudeMeters>
            <DistanceMeters>NAN</DistanceMeters>
          </Trackpoint>
          <Trackpoint>
            <Time>2022-09-22T07:57:55.000Z</Time>
            <Position>
              <LatitudeDegrees>49.45461717434227466583251953125</LatitudeDegrees>
              <LongitudeDegrees>20.42410257272422313690185546875</LongitudeDegrees>
            </Position>
            <AltitudeMeters>415.20001220703125</AltitudeMeters>
            <DistanceMeters>NAN</DistanceMeters>
          </Trackpoint>
          <Trackpoint>
            <Time>2022-09-22T07:57:59.000Z</Time>
            <Position>
              <LatitudeDegrees>49.45475614629685878753662109375</LatitudeDegrees>
              <LongitudeDegrees>20.42419091798365116119384765625</LongitudeDegrees>
            </Position>
            <AltitudeMeters>415.20001220703125</AltitudeMeters>
            <DistanceMeters>NAN</DistanceMeters>
          </Trackpoint>
          <Trackpoint>
            <Time>2022-09-22T07:58:05.000Z</Time>
            <Position>
              <LatitudeDegrees>49.45492093451321125030517578125</LatitudeDegrees>
              <LongitudeDegrees>20.42432938702404499053955078125</LongitudeDegrees>
            </Position>
            <AltitudeMeters>415.20001220703125</AltitudeMeters>
            <DistanceMeters>NAN</DistanceMeters>
          </Trackpoint>
          <Trackpoint>
            <Time>2022-09-22T07:58:08.000Z</Time>
            <Position>
              <LatitudeDegrees>49.4550370238721370697021484375</LatitudeDegrees>
              <LongitudeDegrees>20.42437397874891757965087890625</LongitudeDegrees>
            </Position>
            <AltitudeMeters>415</AltitudeMeters>
            <DistanceMeters>NAN</DistanceMeters>
          </Trackpoint>
          <Trackpoint>
            <Time>2022-09-22T07:58:10.000Z</Time>
            <Position>
              <LatitudeDegrees>49.45506401360034942626953125</LatitudeDegrees>
              <LongitudeDegrees>20.42440784163773059844970703125</LongitudeDegrees>
            </Position>
            <AltitudeMeters>415.20001220703125</AltitudeMeters>
            <DistanceMeters>NAN</DistanceMeters>
          </Trackpoint>
          <Trackpoint>
            <Time>2022-09-22T07:58:12.000Z</Time>
            <Position>
              <LatitudeDegrees>49.45514674298465251922607421875</LatitudeDegrees>
              <LongitudeDegrees>20.42439342476427555084228515625</LongitudeDegrees>
            </Position>
            <AltitudeMeters>415.20001220703125</AltitudeMeters>
            <DistanceMeters>NAN</DistanceMeters>
          </Trackpoint>
          <Trackpoint>
            <Time>2022-09-22T07:58:14.000Z</Time>
            <Position>
              <LatitudeDegrees>49.4552049972116947174072265625</LatitudeDegrees>
              <LongitudeDegrees>20.424445979297161102294921875</LongitudeDegrees>
            </Position>
            <AltitudeMeters>415.399993896484375</AltitudeMeters>
            <DistanceMeters>NAN</DistanceMeters>
          </Trackpoint>
          <Trackpoint>
            <Time>2022-09-22T07:58:20.000Z</Time>
            <Position>
              <LatitudeDegrees>49.45535528473556041717529296875</LatitudeDegrees>
              <LongitudeDegrees>20.42469131760299205780029296875</LongitudeDegrees>
            </Position>
            <AltitudeMeters>415.79998779296875</AltitudeMeters>
            <DistanceMeters>NAN</DistanceMeters>
          </Trackpoint>
          <Trackpoint>
            <Time>2022-09-22T07:58:21.000Z</Time>
            <Position>
              <LatitudeDegrees>49.45537892170250415802001953125</LatitudeDegrees>
              <LongitudeDegrees>20.424718894064426422119140625</LongitudeDegrees>
            </Position>
            <AltitudeMeters>415.79998779296875</AltitudeMeters>
            <DistanceMeters>NAN</DistanceMeters>
          </Trackpoint>
          <Trackpoint>
            <Time>2022-09-22T07:58:22.000Z</Time>
            <Position>
              <LatitudeDegrees>49.455397613346576690673828125</LatitudeDegrees>
              <LongitudeDegrees>20.4247445426881313323974609375</LongitudeDegrees>
            </Position>
            <AltitudeMeters>415.79998779296875</AltitudeMeters>
            <DistanceMeters>NAN</DistanceMeters>
          </Trackpoint>
          <Trackpoint>
            <Time>2022-09-22T07:58:24.000Z</Time>
            <Position>
              <LatitudeDegrees>49.4554388523101806640625</LatitudeDegrees>
              <LongitudeDegrees>20.42478418909013271331787109375</LongitudeDegrees>
            </Position>
            <AltitudeMeters>415.600006103515625</AltitudeMeters>
            <DistanceMeters>NAN</DistanceMeters>
          </Trackpoint>
          <Trackpoint>
            <Time>2022-09-22T07:58:25.000Z</Time>
            <Position>
              <LatitudeDegrees>49.4554567895829677581787109375</LatitudeDegrees>
              <LongitudeDegrees>20.424812100827693939208984375</LongitudeDegrees>
            </Position>
            <AltitudeMeters>415.600006103515625</AltitudeMeters>
            <DistanceMeters>NAN</DistanceMeters>
          </Trackpoint>
          <Trackpoint>
            <Time>2022-09-22T07:58:31.000Z</Time>
            <Position>
              <LatitudeDegrees>49.45560447871685028076171875</LatitudeDegrees>
              <LongitudeDegrees>20.42503363452851772308349609375</LongitudeDegrees>
            </Position>
            <AltitudeMeters>415.600006103515625</AltitudeMeters>
            <DistanceMeters>NAN</DistanceMeters>
          </Trackpoint>
          <Trackpoint>
            <Time>2022-09-22T07:58:36.000Z</Time>
            <Position>
              <LatitudeDegrees>49.4557742960751056671142578125</LatitudeDegrees>
              <LongitudeDegrees>20.42515098117291927337646484375</LongitudeDegrees>
            </Position>
            <AltitudeMeters>415.399993896484375</AltitudeMeters>
            <DistanceMeters>NAN</DistanceMeters>
          </Trackpoint>
          <Trackpoint>
            <Time>2022-09-22T07:58:37.000Z</Time>
            <Position>
              <LatitudeDegrees>49.45579818449914455413818359375</LatitudeDegrees>
              <LongitudeDegrees>20.4251780547201633453369140625</LongitudeDegrees>
            </Position>
            <AltitudeMeters>415.399993896484375</AltitudeMeters>
            <DistanceMeters>NAN</DistanceMeters>
          </Trackpoint>
          <Trackpoint>
            <Time>2022-09-22T07:58:38.000Z</Time>
            <Position>
              <LatitudeDegrees>49.45583824999630451202392578125</LatitudeDegrees>
              <LongitudeDegrees>20.42520948685705661773681640625</LongitudeDegrees>
            </Position>
            <AltitudeMeters>415.20001220703125</AltitudeMeters>
            <DistanceMeters>NAN</DistanceMeters>
          </Trackpoint>
          <Trackpoint>
            <Time>2022-09-22T07:58:41.000Z</Time>
            <Position>
              <LatitudeDegrees>49.45591921918094158172607421875</LatitudeDegrees>
              <LongitudeDegrees>20.425230525434017181396484375</LongitudeDegrees>
            </Position>
            <AltitudeMeters>415.20001220703125</AltitudeMeters>
            <DistanceMeters>NAN</DistanceMeters>
          </Trackpoint>
          <Trackpoint>
            <Time>2022-09-22T07:58:48.000Z</Time>
            <Position>
              <LatitudeDegrees>49.4561187922954559326171875</LatitudeDegrees>
              <LongitudeDegrees>20.4254073835909366607666015625</LongitudeDegrees>
            </Position>
            <AltitudeMeters>415</AltitudeMeters>
            <DistanceMeters>NAN</DistanceMeters>
          </Trackpoint>
          <Trackpoint>
            <Time>2022-09-22T07:58:51.000Z</Time>
            <Position>
              <LatitudeDegrees>49.456214010715484619140625</LatitudeDegrees>
              <LongitudeDegrees>20.425459854304790496826171875</LongitudeDegrees>
            </Position>
            <AltitudeMeters>415</AltitudeMeters>
            <DistanceMeters>NAN</DistanceMeters>
          </Trackpoint>
          <Trackpoint>
            <Time>2022-09-22T07:58:52.000Z</Time>
            <Position>
              <LatitudeDegrees>49.4562560878694057464599609375</LatitudeDegrees>
              <LongitudeDegrees>20.42544920928776264190673828125</LongitudeDegrees>
            </Position>
            <AltitudeMeters>415</AltitudeMeters>
            <DistanceMeters>NAN</DistanceMeters>
          </Trackpoint>
          <Trackpoint>
            <Time>2022-09-22T07:58:55.000Z</Time>
            <Position>
              <LatitudeDegrees>49.456348456442356109619140625</LatitudeDegrees>
              <LongitudeDegrees>20.42548508383333683013916015625</LongitudeDegrees>
            </Position>
            <AltitudeMeters>415</AltitudeMeters>
            <DistanceMeters>NAN</DistanceMeters>
          </Trackpoint>
          <Trackpoint>
            <Time>2022-09-22T07:59:04.000Z</Time>
            <Position>
              <LatitudeDegrees>49.4566644541919231414794921875</LatitudeDegrees>
              <LongitudeDegrees>20.42567602358758449554443359375</LongitudeDegrees>
            </Position>
            <AltitudeMeters>415.20001220703125</AltitudeMeters>
            <DistanceMeters>NAN</DistanceMeters>
          </Trackpoint>
          <Trackpoint>
            <Time>2022-09-22T07:59:13.000Z</Time>
            <Position>
              <LatitudeDegrees>49.45695119909942150115966796875</LatitudeDegrees>
              <LongitudeDegrees>20.42578582651913166046142578125</LongitudeDegrees>
            </Position>
            <AltitudeMeters>416</AltitudeMeters>
            <DistanceMeters>NAN</DistanceMeters>
          </Trackpoint>
          <Trackpoint>
            <Time>2022-09-22T07:59:18.000Z</Time>
            <Position>
              <LatitudeDegrees>49.45712856017053127288818359375</LatitudeDegrees>
              <LongitudeDegrees>20.4258517920970916748046875</LongitudeDegrees>
            </Position>
            <AltitudeMeters>416.399993896484375</AltitudeMeters>
            <DistanceMeters>NAN</DistanceMeters>
          </Trackpoint>
          <Trackpoint>
            <Time>2022-09-22T07:59:23.000Z</Time>
            <Position>
              <LatitudeDegrees>49.45727004669606685638427734375</LatitudeDegrees>
              <LongitudeDegrees>20.4259143210947513580322265625</LongitudeDegrees>
            </Position>
            <AltitudeMeters>416.600006103515625</AltitudeMeters>
            <DistanceMeters>NAN</DistanceMeters>
          </Trackpoint>
          <Trackpoint>
            <Time>2022-09-22T07:59:24.000Z</Time>
            <Position>
              <LatitudeDegrees>49.4572951085865497589111328125</LatitudeDegrees>
              <LongitudeDegrees>20.42592278681695461273193359375</LongitudeDegrees>
            </Position>
            <AltitudeMeters>416.600006103515625</AltitudeMeters>
            <DistanceMeters>NAN</DistanceMeters>
          </Trackpoint>
          <Trackpoint>
            <Time>2022-09-22T07:59:27.000Z</Time>
            <Position>
              <LatitudeDegrees>49.457354955375194549560546875</LatitudeDegrees>
              <LongitudeDegrees>20.425969474017620086669921875</LongitudeDegrees>
            </Position>
            <AltitudeMeters>416.600006103515625</AltitudeMeters>
            <DistanceMeters>NAN</DistanceMeters>
          </Trackpoint>
          <Trackpoint>
            <Time>2022-09-22T07:59:28.000Z</Time>
            <Position>
              <LatitudeDegrees>49.45737834088504314422607421875</LatitudeDegrees>
              <LongitudeDegrees>20.42598447762429714202880859375</LongitudeDegrees>
            </Position>
            <AltitudeMeters>416.600006103515625</AltitudeMeters>
            <DistanceMeters>NAN</DistanceMeters>
          </Trackpoint>
          <Trackpoint>
            <Time>2022-09-22T07:59:31.000Z</Time>
            <Position>
              <LatitudeDegrees>49.45744606666266918182373046875</LatitudeDegrees>
              <LongitudeDegrees>20.42602085508406162261962890625</LongitudeDegrees>
            </Position>
            <AltitudeMeters>416.600006103515625</AltitudeMeters>
            <DistanceMeters>NAN</DistanceMeters>
          </Trackpoint>
          <Trackpoint>
            <Time>2022-09-22T07:59:36.000Z</Time>
            <Position>
              <LatitudeDegrees>49.45757715962827205657958984375</LatitudeDegrees>
              <LongitudeDegrees>20.426088832318782806396484375</LongitudeDegrees>
            </Position>
            <AltitudeMeters>416.79998779296875</AltitudeMeters>
            <DistanceMeters>NAN</DistanceMeters>
          </Trackpoint>
          <Trackpoint>
            <Time>2022-09-22T07:59:42.000Z</Time>
            <Position>
              <LatitudeDegrees>49.45774463005363941192626953125</LatitudeDegrees>
              <LongitudeDegrees>20.42615127749741077423095703125</LongitudeDegrees>
            </Position>
            <AltitudeMeters>416.79998779296875</AltitudeMeters>
            <DistanceMeters>NAN</DistanceMeters>
          </Trackpoint>
          <Trackpoint>
            <Time>2022-09-22T07:59:48.000Z</Time>
            <Position>
              <LatitudeDegrees>49.45793037302792072296142578125</LatitudeDegrees>
              <LongitudeDegrees>20.4262361861765384674072265625</LongitudeDegrees>
            </Position>
            <AltitudeMeters>416.79998779296875</AltitudeMeters>
            <DistanceMeters>NAN</DistanceMeters>
          </Trackpoint>
          <Trackpoint>
            <Time>2022-09-22T07:59:56.000Z</Time>
            <Position>
              <LatitudeDegrees>49.4581591151654720306396484375</LatitudeDegrees>
              <LongitudeDegrees>20.42631422169506549835205078125</LongitudeDegrees>
            </Position>
            <AltitudeMeters>416.399993896484375</AltitudeMeters>
            <DistanceMeters>NAN</DistanceMeters>
          </Trackpoint>
          <Trackpoint>
            <Time>2022-09-22T08:00:01.000Z</Time>
            <Position>
              <LatitudeDegrees>49.45830412209033966064453125</LatitudeDegrees>
              <LongitudeDegrees>20.426327548921108245849609375</LongitudeDegrees>
            </Position>
            <AltitudeMeters>416.399993896484375</AltitudeMeters>
            <DistanceMeters>NAN</DistanceMeters>
          </Trackpoint>
          <Trackpoint>
            <Time>2022-09-22T08:00:04.000Z</Time>
            <Position>
              <LatitudeDegrees>49.45838651619851589202880859375</LatitudeDegrees>
              <LongitudeDegrees>20.42636032216250896453857421875</LongitudeDegrees>
            </Position>
            <AltitudeMeters>416.399993896484375</AltitudeMeters>
            <DistanceMeters>NAN</DistanceMeters>
          </Trackpoint>
          <Trackpoint>
            <Time>2022-09-22T08:00:08.000Z</Time>
            <Position>
              <LatitudeDegrees>49.45849682204425334930419921875</LatitudeDegrees>
              <LongitudeDegrees>20.42645461857318878173828125</LongitudeDegrees>
            </Position>
            <AltitudeMeters>416.20001220703125</AltitudeMeters>
            <DistanceMeters>NAN</DistanceMeters>
          </Trackpoint>
          <Trackpoint>
            <Time>2022-09-22T08:00:12.000Z</Time>
            <Position>
              <LatitudeDegrees>49.45863160304725170135498046875</LatitudeDegrees>
              <LongitudeDegrees>20.42655880562961101531982421875</LongitudeDegrees>
            </Position>
            <AltitudeMeters>416.20001220703125</AltitudeMeters>
            <DistanceMeters>NAN</DistanceMeters>
          </Trackpoint>
          <Trackpoint>
            <Time>2022-09-22T08:00:18.000Z</Time>
            <Position>
              <LatitudeDegrees>49.4588568247854709625244140625</LatitudeDegrees>
              <LongitudeDegrees>20.426659472286701202392578125</LongitudeDegrees>
            </Position>
            <AltitudeMeters>415.79998779296875</AltitudeMeters>
            <DistanceMeters>NAN</DistanceMeters>
          </Trackpoint>
          <Trackpoint>
            <Time>2022-09-22T08:00:26.000Z</Time>
            <Position>
              <LatitudeDegrees>49.459115825593471527099609375</LatitudeDegrees>
              <LongitudeDegrees>20.4267545230686664581298828125</LongitudeDegrees>
            </Position>
            <AltitudeMeters>415.600006103515625</AltitudeMeters>
            <DistanceMeters>NAN</DistanceMeters>
          </Trackpoint>
          <Trackpoint>
            <Time>2022-09-22T08:00:29.000Z</Time>
            <Position>
              <LatitudeDegrees>49.45923484861850738525390625</LatitudeDegrees>
              <LongitudeDegrees>20.426789224147796630859375</LongitudeDegrees>
            </Position>
            <AltitudeMeters>415.600006103515625</AltitudeMeters>
            <DistanceMeters>NAN</DistanceMeters>
          </Trackpoint>
          <Trackpoint>
            <Time>2022-09-22T08:00:35.000Z</Time>
            <Position>
              <LatitudeDegrees>49.4594447314739227294921875</LatitudeDegrees>
              <LongitudeDegrees>20.426855944097042083740234375</LongitudeDegrees>
            </Position>
            <AltitudeMeters>415.600006103515625</AltitudeMeters>
            <DistanceMeters>NAN</DistanceMeters>
          </Trackpoint>
          <Trackpoint>
            <Time>2022-09-22T08:00:45.000Z</Time>
            <Position>
              <LatitudeDegrees>49.45982485078275203704833984375</LatitudeDegrees>
              <LongitudeDegrees>20.42693012394011020660400390625</LongitudeDegrees>
            </Position>
            <AltitudeMeters>415.20001220703125</AltitudeMeters>
            <DistanceMeters>NAN</DistanceMeters>
          </Trackpoint>
          <Trackpoint>
            <Time>2022-09-22T08:00:53.000Z</Time>
            <Position>
              <LatitudeDegrees>49.4601127691566944122314453125</LatitudeDegrees>
              <LongitudeDegrees>20.42698896490037441253662109375</LongitudeDegrees>
            </Position>
            <AltitudeMeters>415</AltitudeMeters>
            <DistanceMeters>NAN</DistanceMeters>
          </Trackpoint>
          <Trackpoint>
            <Time>2022-09-22T08:00:55.000Z</Time>
            <Position>
              <LatitudeDegrees>49.46019130758941173553466796875</LatitudeDegrees>
              <LongitudeDegrees>20.42700036428868770599365234375</LongitudeDegrees>
            </Position>
            <AltitudeMeters>414.79998779296875</AltitudeMeters>
            <DistanceMeters>NAN</DistanceMeters>
          </Trackpoint>
          <Trackpoint>
            <Time>2022-09-22T08:01:02.000Z</Time>
            <Position>
              <LatitudeDegrees>49.4604547508060932159423828125</LatitudeDegrees>
              <LongitudeDegrees>20.42703808285295963287353515625</LongitudeDegrees>
            </Position>
            <AltitudeMeters>414.600006103515625</AltitudeMeters>
            <DistanceMeters>NAN</DistanceMeters>
          </Trackpoint>
          <Trackpoint>
            <Time>2022-09-22T08:01:05.000Z</Time>
            <Position>
              <LatitudeDegrees>49.4605630449950695037841796875</LatitudeDegrees>
              <LongitudeDegrees>20.427061133086681365966796875</LongitudeDegrees>
            </Position>
            <AltitudeMeters>414.600006103515625</AltitudeMeters>
            <DistanceMeters>NAN</DistanceMeters>
          </Trackpoint>
          <Trackpoint>
            <Time>2022-09-22T08:01:09.000Z</Time>
            <Position>
              <LatitudeDegrees>49.46070411242544651031494140625</LatitudeDegrees>
              <LongitudeDegrees>20.427094995975494384765625</LongitudeDegrees>
            </Position>
            <AltitudeMeters>414.399993896484375</AltitudeMeters>
            <DistanceMeters>NAN</DistanceMeters>
          </Trackpoint>
          <Trackpoint>
            <Time>2022-09-22T08:01:17.000Z</Time>
            <Position>
              <LatitudeDegrees>49.461008794605731964111328125</LatitudeDegrees>
              <LongitudeDegrees>20.427164398133754730224609375</LongitudeDegrees>
            </Position>
            <AltitudeMeters>414.600006103515625</AltitudeMeters>
            <DistanceMeters>NAN</DistanceMeters>
          </Trackpoint>
          <Trackpoint>
            <Time>2022-09-22T08:01:25.000Z</Time>
            <Position>
              <LatitudeDegrees>49.461317248642444610595703125</LatitudeDegrees>
              <LongitudeDegrees>20.42722114361822605133056640625</LongitudeDegrees>
            </Position>
            <AltitudeMeters>413.79998779296875</AltitudeMeters>
            <DistanceMeters>NAN</DistanceMeters>
          </Trackpoint>
          <Trackpoint>
            <Time>2022-09-22T08:01:28.000Z</Time>
            <Position>
              <LatitudeDegrees>49.4614429771900177001953125</LatitudeDegrees>
              <LongitudeDegrees>20.42723807506263256072998046875</LongitudeDegrees>
            </Position>
            <AltitudeMeters>413.79998779296875</AltitudeMeters>
            <DistanceMeters>NAN</DistanceMeters>
          </Trackpoint>
          <Trackpoint>
            <Time>2022-09-22T08:01:31.000Z</Time>
            <Position>
              <LatitudeDegrees>49.46156862191855907440185546875</LatitudeDegrees>
              <LongitudeDegrees>20.42724176310002803802490234375</LongitudeDegrees>
            </Position>
            <AltitudeMeters>413.79998779296875</AltitudeMeters>
            <DistanceMeters>NAN</DistanceMeters>
          </Trackpoint>
          <Trackpoint>
            <Time>2022-09-22T08:01:32.000Z</Time>
            <Position>
              <LatitudeDegrees>49.46160868741571903228759765625</LatitudeDegrees>
              <LongitudeDegrees>20.427244864404201507568359375</LongitudeDegrees>
            </Position>
            <AltitudeMeters>413.600006103515625</AltitudeMeters>
            <DistanceMeters>NAN</DistanceMeters>
          </Trackpoint>
          <Trackpoint>
            <Time>2022-09-22T08:01:37.000Z</Time>
            <Position>
              <LatitudeDegrees>49.46180038154125213623046875</LatitudeDegrees>
              <LongitudeDegrees>20.427245534956455230712890625</LongitudeDegrees>
            </Position>
            <AltitudeMeters>413.399993896484375</AltitudeMeters>
            <DistanceMeters>NAN</DistanceMeters>
          </Trackpoint>
          <Trackpoint>
            <Time>2022-09-22T08:01:40.000Z</Time>
            <Position>
              <LatitudeDegrees>49.46190205402672290802001953125</LatitudeDegrees>
              <LongitudeDegrees>20.42724176310002803802490234375</LongitudeDegrees>
            </Position>
            <AltitudeMeters>413.399993896484375</AltitudeMeters>
            <DistanceMeters>NAN</DistanceMeters>
          </Trackpoint>
          <Trackpoint>
            <Time>2022-09-22T08:01:43.000Z</Time>
            <Position>
              <LatitudeDegrees>49.4619933329522609710693359375</LatitudeDegrees>
              <LongitudeDegrees>20.427225418388843536376953125</LongitudeDegrees>
            </Position>
            <AltitudeMeters>413.20001220703125</AltitudeMeters>
            <DistanceMeters>NAN</DistanceMeters>
          </Trackpoint>
          <Trackpoint>
            <Time>2022-09-22T08:01:47.000Z</Time>
            <Position>
              <LatitudeDegrees>49.46213968098163604736328125</LatitudeDegrees>
              <LongitudeDegrees>20.42719666846096515655517578125</LongitudeDegrees>
            </Position>
            <AltitudeMeters>413</AltitudeMeters>
            <DistanceMeters>NAN</DistanceMeters>
          </Trackpoint>
          <Trackpoint>
            <Time>2022-09-22T08:01:54.000Z</Time>
            <Position>
              <LatitudeDegrees>49.46237915195524692535400390625</LatitudeDegrees>
              <LongitudeDegrees>20.42712793685495853424072265625</LongitudeDegrees>
            </Position>
            <AltitudeMeters>413</AltitudeMeters>
            <DistanceMeters>NAN</DistanceMeters>
          </Trackpoint>
          <Trackpoint>
            <Time>2022-09-22T08:01:55.000Z</Time>
            <Position>
              <LatitudeDegrees>49.46240865625441074371337890625</LatitudeDegrees>
              <LongitudeDegrees>20.42711787857115268707275390625</LongitudeDegrees>
            </Position>
            <AltitudeMeters>412.79998779296875</AltitudeMeters>
            <DistanceMeters>NAN</DistanceMeters>
          </Trackpoint>
          <Trackpoint>
            <Time>2022-09-22T08:01:57.000Z</Time>
            <Position>
              <LatitudeDegrees>49.46246556937694549560546875</LatitudeDegrees>
              <LongitudeDegrees>20.42709767818450927734375</LongitudeDegrees>
            </Position>
            <AltitudeMeters>412.79998779296875</AltitudeMeters>
            <DistanceMeters>NAN</DistanceMeters>
          </Trackpoint>
          <Trackpoint>
            <Time>2022-09-22T08:02:04.000Z</Time>
            <Position>
              <LatitudeDegrees>49.4626821577548980712890625</LatitudeDegrees>
              <LongitudeDegrees>20.4270019568502902984619140625</LongitudeDegrees>
            </Position>
            <AltitudeMeters>412</AltitudeMeters>
            <DistanceMeters>NAN</DistanceMeters>
          </Trackpoint>
          <Trackpoint>
            <Time>2022-09-22T08:02:10.000Z</Time>
            <Position>
              <LatitudeDegrees>49.462894387543201446533203125</LatitudeDegrees>
              <LongitudeDegrees>20.42690531350672245025634765625</LongitudeDegrees>
            </Position>
            <AltitudeMeters>411.79998779296875</AltitudeMeters>
            <DistanceMeters>NAN</DistanceMeters>
          </Trackpoint>
          <Trackpoint>
            <Time>2022-09-22T08:02:12.000Z</Time>
            <Position>
              <LatitudeDegrees>49.46297778747975826263427734375</LatitudeDegrees>
              <LongitudeDegrees>20.4268641583621501922607421875</LongitudeDegrees>
            </Position>
            <AltitudeMeters>411.79998779296875</AltitudeMeters>
            <DistanceMeters>NAN</DistanceMeters>
          </Trackpoint>
          <Trackpoint>
            <Time>2022-09-22T08:02:13.000Z</Time>
            <Position>
              <LatitudeDegrees>49.4630189426243305206298828125</LatitudeDegrees>
              <LongitudeDegrees>20.426843203604221343994140625</LongitudeDegrees>
            </Position>
            <AltitudeMeters>411.79998779296875</AltitudeMeters>
            <DistanceMeters>NAN</DistanceMeters>
          </Trackpoint>
          <Trackpoint>
            <Time>2022-09-22T08:02:20.000Z</Time>
            <Position>
              <LatitudeDegrees>49.46330132894217967987060546875</LatitudeDegrees>
              <LongitudeDegrees>20.42668704874813556671142578125</LongitudeDegrees>
            </Position>
            <AltitudeMeters>411.20001220703125</AltitudeMeters>
            <DistanceMeters>NAN</DistanceMeters>
          </Trackpoint>
          <Trackpoint>
            <Time>2022-09-22T08:02:29.000Z</Time>
            <Position>
              <LatitudeDegrees>49.46365990675985813140869140625</LatitudeDegrees>
              <LongitudeDegrees>20.4264913313090801239013671875</LongitudeDegrees>
            </Position>
            <AltitudeMeters>410.600006103515625</AltitudeMeters>
            <DistanceMeters>NAN</DistanceMeters>
          </Trackpoint>
          <Trackpoint>
            <Time>2022-09-22T08:02:31.000Z</Time>
            <Position>
              <LatitudeDegrees>49.46375378407537937164306640625</LatitudeDegrees>
              <LongitudeDegrees>20.42642704211175441741943359375</LongitudeDegrees>
            </Position>
            <AltitudeMeters>410.600006103515625</AltitudeMeters>
            <DistanceMeters>NAN</DistanceMeters>
          </Trackpoint>
          <Trackpoint>
            <Time>2022-09-22T08:02:34.000Z</Time>
            <Position>
              <LatitudeDegrees>49.4638864696025848388671875</LatitudeDegrees>
              <LongitudeDegrees>20.42634037323296070098876953125</LongitudeDegrees>
            </Position>
            <AltitudeMeters>410.600006103515625</AltitudeMeters>
            <DistanceMeters>NAN</DistanceMeters>
          </Trackpoint>
          <Trackpoint>
            <Time>2022-09-22T08:02:37.000Z</Time>
            <Position>
              <LatitudeDegrees>49.46402150206267833709716796875</LatitudeDegrees>
              <LongitudeDegrees>20.426259823143482208251953125</LongitudeDegrees>
            </Position>
            <AltitudeMeters>410.20001220703125</AltitudeMeters>
            <DistanceMeters>NAN</DistanceMeters>
          </Trackpoint>
          <Trackpoint>
            <Time>2022-09-22T08:02:42.000Z</Time>
            <Position>
              <LatitudeDegrees>49.4642651639878749847412109375</LatitudeDegrees>
              <LongitudeDegrees>20.42613602243363857269287109375</LongitudeDegrees>
            </Position>
            <AltitudeMeters>409.600006103515625</AltitudeMeters>
            <DistanceMeters>NAN</DistanceMeters>
          </Trackpoint>
          <Trackpoint>
            <Time>2022-09-22T08:02:46.000Z</Time>
            <Position>
              <LatitudeDegrees>49.4644502364099025726318359375</LatitudeDegrees>
              <LongitudeDegrees>20.42604449205100536346435546875</LongitudeDegrees>
            </Position>
            <AltitudeMeters>409.600006103515625</AltitudeMeters>
            <DistanceMeters>NAN</DistanceMeters>
          </Trackpoint>
          <Trackpoint>
            <Time>2022-09-22T08:02:53.000Z</Time>
            <Position>
              <LatitudeDegrees>49.4647769629955291748046875</LatitudeDegrees>
              <LongitudeDegrees>20.42591105215251445770263671875</LongitudeDegrees>
            </Position>
            <AltitudeMeters>410.20001220703125</AltitudeMeters>
            <DistanceMeters>NAN</DistanceMeters>
          </Trackpoint>
          <Trackpoint>
            <Time>2022-09-22T08:02:57.000Z</Time>
            <Position>
              <LatitudeDegrees>49.46495641954243183135986328125</LatitudeDegrees>
              <LongitudeDegrees>20.42584919370710849761962890625</LongitudeDegrees>
            </Position>
            <AltitudeMeters>410.20001220703125</AltitudeMeters>
            <DistanceMeters>NAN</DistanceMeters>
          </Trackpoint>
          <Trackpoint>
            <Time>2022-09-22T08:03:01.000Z</Time>
            <Position>
              <LatitudeDegrees>49.4651254825294017791748046875</LatitudeDegrees>
              <LongitudeDegrees>20.42582404799759387969970703125</LongitudeDegrees>
            </Position>
            <AltitudeMeters>410.20001220703125</AltitudeMeters>
            <DistanceMeters>NAN</DistanceMeters>
          </Trackpoint>
          <Trackpoint>
            <Time>2022-09-22T08:03:08.000Z</Time>
            <Position>
              <LatitudeDegrees>49.4654061086475849151611328125</LatitudeDegrees>
              <LongitudeDegrees>20.42576151899993419647216796875</LongitudeDegrees>
            </Position>
            <AltitudeMeters>410.600006103515625</AltitudeMeters>
            <DistanceMeters>NAN</DistanceMeters>
          </Trackpoint>
          <Trackpoint>
            <Time>2022-09-22T08:03:13.000Z</Time>
            <Position>
              <LatitudeDegrees>49.46558338589966297149658203125</LatitudeDegrees>
              <LongitudeDegrees>20.425758250057697296142578125</LongitudeDegrees>
            </Position>
            <AltitudeMeters>410.399993896484375</AltitudeMeters>
            <DistanceMeters>NAN</DistanceMeters>
          </Trackpoint>
          <Trackpoint>
            <Time>2022-09-22T08:03:20.000Z</Time>
            <Position>
              <LatitudeDegrees>49.4658811949193477630615234375</LatitudeDegrees>
              <LongitudeDegrees>20.42579479515552520751953125</LongitudeDegrees>
            </Position>
            <AltitudeMeters>410.600006103515625</AltitudeMeters>
            <DistanceMeters>NAN</DistanceMeters>
          </Trackpoint>
          <Trackpoint>
            <Time>2022-09-22T08:03:25.000Z</Time>
            <Position>
              <LatitudeDegrees>49.46608110330998897552490234375</LatitudeDegrees>
              <LongitudeDegrees>20.42584718205034732818603515625</LongitudeDegrees>
            </Position>
            <AltitudeMeters>410.20001220703125</AltitudeMeters>
            <DistanceMeters>NAN</DistanceMeters>
          </Trackpoint>
          <Trackpoint>
            <Time>2022-09-22T08:03:27.000Z</Time>
            <Position>
              <LatitudeDegrees>49.46615737862884998321533203125</LatitudeDegrees>
              <LongitudeDegrees>20.42587383650243282318115234375</LongitudeDegrees>
            </Position>
            <AltitudeMeters>410.20001220703125</AltitudeMeters>
            <DistanceMeters>NAN</DistanceMeters>
          </Trackpoint>
          <Trackpoint>
            <Time>2022-09-22T08:03:32.000Z</Time>
            <Position>
              <LatitudeDegrees>49.46631344966590404510498046875</LatitudeDegrees>
              <LongitudeDegrees>20.42595664970576763153076171875</LongitudeDegrees>
            </Position>
            <AltitudeMeters>409.79998779296875</AltitudeMeters>
            <DistanceMeters>NAN</DistanceMeters>
          </Trackpoint>
          <Trackpoint>
            <Time>2022-09-22T08:03:36.000Z</Time>
            <Position>
              <LatitudeDegrees>49.46642979048192501068115234375</LatitudeDegrees>
              <LongitudeDegrees>20.42599386535584926605224609375</LongitudeDegrees>
            </Position>
            <AltitudeMeters>409.600006103515625</AltitudeMeters>
            <DistanceMeters>NAN</DistanceMeters>
          </Trackpoint>
          <Trackpoint>
            <Time>2022-09-22T08:03:37.000Z</Time>
            <Position>
              <LatitudeDegrees>49.46647672913968563079833984375</LatitudeDegrees>
              <LongitudeDegrees>20.42597944848239421844482421875</LongitudeDegrees>
            </Position>
            <AltitudeMeters>409.399993896484375</AltitudeMeters>
            <DistanceMeters>NAN</DistanceMeters>
          </Trackpoint>
          <Trackpoint>
            <Time>2022-09-22T08:03:42.000Z</Time>
            <Position>
              <LatitudeDegrees>49.4666365720331668853759765625</LatitudeDegrees>
              <LongitudeDegrees>20.42599654756486415863037109375</LongitudeDegrees>
            </Position>
            <AltitudeMeters>409.600006103515625</AltitudeMeters>
            <DistanceMeters>NAN</DistanceMeters>
          </Trackpoint>
          <Trackpoint>
            <Time>2022-09-22T08:03:48.000Z</Time>
            <Position>
              <LatitudeDegrees>49.4668672420084476470947265625</LatitudeDegrees>
              <LongitudeDegrees>20.42602286674082279205322265625</LongitudeDegrees>
            </Position>
            <AltitudeMeters>410</AltitudeMeters>
            <DistanceMeters>NAN</DistanceMeters>
          </Trackpoint>
          <Trackpoint>
            <Time>2022-09-22T08:03:53.000Z</Time>
            <Position>
              <LatitudeDegrees>49.46702943183481693267822265625</LatitudeDegrees>
              <LongitudeDegrees>20.42612361721694469451904296875</LongitudeDegrees>
            </Position>
            <AltitudeMeters>410</AltitudeMeters>
            <DistanceMeters>NAN</DistanceMeters>
          </Trackpoint>
          <Trackpoint>
            <Time>2022-09-22T08:03:59.000Z</Time>
            <Position>
              <LatitudeDegrees>49.46729488670825958251953125</LatitudeDegrees>
              <LongitudeDegrees>20.4262569732964038848876953125</LongitudeDegrees>
            </Position>
            <AltitudeMeters>410</AltitudeMeters>
            <DistanceMeters>NAN</DistanceMeters>
          </Trackpoint>
          <Trackpoint>
            <Time>2022-09-22T08:04:05.000Z</Time>
            <Position>
              <LatitudeDegrees>49.467553384602069854736328125</LatitudeDegrees>
              <LongitudeDegrees>20.42634640820324420928955078125</LongitudeDegrees>
            </Position>
            <AltitudeMeters>410</AltitudeMeters>
            <DistanceMeters>NAN</DistanceMeters>
          </Trackpoint>
          <Trackpoint>
            <Time>2022-09-22T08:04:08.000Z</Time>
            <Position>
              <LatitudeDegrees>49.46767265908420085906982421875</LatitudeDegrees>
              <LongitudeDegrees>20.42642586864531040191650390625</LongitudeDegrees>
            </Position>
            <AltitudeMeters>410</AltitudeMeters>
            <DistanceMeters>NAN</DistanceMeters>
          </Trackpoint>
          <Trackpoint>
            <Time>2022-09-22T08:04:11.000Z</Time>
            <Position>
              <LatitudeDegrees>49.46778967045247554779052734375</LatitudeDegrees>
              <LongitudeDegrees>20.42652058415114879608154296875</LongitudeDegrees>
            </Position>
            <AltitudeMeters>410</AltitudeMeters>
            <DistanceMeters>NAN</DistanceMeters>
          </Trackpoint>
          <Trackpoint>
            <Time>2022-09-22T08:04:16.000Z</Time>
            <Position>
              <LatitudeDegrees>49.46790299378335475921630859375</LatitudeDegrees>
              <LongitudeDegrees>20.42675879783928394317626953125</LongitudeDegrees>
            </Position>
            <AltitudeMeters>410</AltitudeMeters>
            <DistanceMeters>NAN</DistanceMeters>
          </Trackpoint>
          <Trackpoint>
            <Time>2022-09-22T08:04:22.000Z</Time>
            <Position>
              <LatitudeDegrees>49.46803785860538482666015625</LatitudeDegrees>
              <LongitudeDegrees>20.42693314142525196075439453125</LongitudeDegrees>
            </Position>
            <AltitudeMeters>409.79998779296875</AltitudeMeters>
            <DistanceMeters>NAN</DistanceMeters>
          </Trackpoint>
          <Trackpoint>
            <Time>2022-09-22T08:04:29.000Z</Time>
            <Position>
              <LatitudeDegrees>49.46818596683442592620849609375</LatitudeDegrees>
              <LongitudeDegrees>20.42725668288767337799072265625</LongitudeDegrees>
            </Position>
            <AltitudeMeters>410</AltitudeMeters>
            <DistanceMeters>NAN</DistanceMeters>
          </Trackpoint>
          <Trackpoint>
            <Time>2022-09-22T08:04:35.000Z</Time>
            <Position>
              <LatitudeDegrees>49.4683095999062061309814453125</LatitudeDegrees>
              <LongitudeDegrees>20.42756563983857631683349609375</LongitudeDegrees>
            </Position>
            <AltitudeMeters>410</AltitudeMeters>
            <DistanceMeters>NAN</DistanceMeters>
          </Trackpoint>
          <Trackpoint>
            <Time>2022-09-22T08:04:40.000Z</Time>
            <Position>
              <LatitudeDegrees>49.46839752607047557830810546875</LatitudeDegrees>
              <LongitudeDegrees>20.42782430537045001983642578125</LongitudeDegrees>
            </Position>
            <AltitudeMeters>409.79998779296875</AltitudeMeters>
            <DistanceMeters>NAN</DistanceMeters>
          </Trackpoint>
          <Trackpoint>
            <Time>2022-09-22T08:04:49.000Z</Time>
            <Position>
              <LatitudeDegrees>49.46861729957163333892822265625</LatitudeDegrees>
              <LongitudeDegrees>20.42830123566091060638427734375</LongitudeDegrees>
            </Position>
            <AltitudeMeters>410.20001220703125</AltitudeMeters>
            <DistanceMeters>NAN</DistanceMeters>
          </Trackpoint>
          <Trackpoint>
            <Time>2022-09-22T08:04:54.000Z</Time>
            <Position>
              <LatitudeDegrees>49.46871779859066009521484375</LatitudeDegrees>
              <LongitudeDegrees>20.4285190813243389129638671875</LongitudeDegrees>
            </Position>
            <AltitudeMeters>410</AltitudeMeters>
            <DistanceMeters>NAN</DistanceMeters>
          </Trackpoint>
          <Trackpoint>
            <Time>2022-09-22T08:05:00.000Z</Time>
            <Position>
              <LatitudeDegrees>49.46881972253322601318359375</LatitudeDegrees>
              <LongitudeDegrees>20.4287648387253284454345703125</LongitudeDegrees>
            </Position>
            <AltitudeMeters>409.600006103515625</AltitudeMeters>
            <DistanceMeters>NAN</DistanceMeters>
          </Trackpoint>
          <Trackpoint>
            <Time>2022-09-22T08:05:06.000Z</Time>
            <Position>
              <LatitudeDegrees>49.46893396787345409393310546875</LatitudeDegrees>
              <LongitudeDegrees>20.4290364123880863189697265625</LongitudeDegrees>
            </Position>
            <AltitudeMeters>409.20001220703125</AltitudeMeters>
            <DistanceMeters>NAN</DistanceMeters>
          </Trackpoint>
          <Trackpoint>
            <Time>2022-09-22T08:05:12.000Z</Time>
            <Position>
              <LatitudeDegrees>49.4690860994160175323486328125</LatitudeDegrees>
              <LongitudeDegrees>20.42925727553665637969970703125</LongitudeDegrees>
            </Position>
            <AltitudeMeters>408.79998779296875</AltitudeMeters>
            <DistanceMeters>NAN</DistanceMeters>
          </Trackpoint>
          <Trackpoint>
            <Time>2022-09-22T08:05:13.000Z</Time>
            <Position>
              <LatitudeDegrees>49.46911116130650043487548828125</LatitudeDegrees>
              <LongitudeDegrees>20.42929851450026035308837890625</LongitudeDegrees>
            </Position>
            <AltitudeMeters>408.600006103515625</AltitudeMeters>
            <DistanceMeters>NAN</DistanceMeters>
          </Trackpoint>
          <Trackpoint>
            <Time>2022-09-22T08:05:16.000Z</Time>
            <Position>
              <LatitudeDegrees>49.4691736064851284027099609375</LatitudeDegrees>
              <LongitudeDegrees>20.42945693247020244598388671875</LongitudeDegrees>
            </Position>
            <AltitudeMeters>408.399993896484375</AltitudeMeters>
            <DistanceMeters>NAN</DistanceMeters>
          </Trackpoint>
          <Trackpoint>
            <Time>2022-09-22T08:05:19.000Z</Time>
            <Position>
              <LatitudeDegrees>49.46922549046576023101806640625</LatitudeDegrees>
              <LongitudeDegrees>20.429648123681545257568359375</LongitudeDegrees>
            </Position>
            <AltitudeMeters>408.79998779296875</AltitudeMeters>
            <DistanceMeters>NAN</DistanceMeters>
          </Trackpoint>
          <Trackpoint>
            <Time>2022-09-22T08:05:21.000Z</Time>
            <Position>
              <LatitudeDegrees>49.4692641310393810272216796875</LatitudeDegrees>
              <LongitudeDegrees>20.42976471595466136932373046875</LongitudeDegrees>
            </Position>
            <AltitudeMeters>408.79998779296875</AltitudeMeters>
            <DistanceMeters>NAN</DistanceMeters>
          </Trackpoint>
          <Trackpoint>
            <Time>2022-09-22T08:05:22.000Z</Time>
            <Position>
              <LatitudeDegrees>49.469283409416675567626953125</LatitudeDegrees>
              <LongitudeDegrees>20.4298202879726886749267578125</LongitudeDegrees>
            </Position>
            <AltitudeMeters>408.79998779296875</AltitudeMeters>
            <DistanceMeters>NAN</DistanceMeters>
          </Trackpoint>
          <Trackpoint>
            <Time>2022-09-22T08:05:27.000Z</Time>
            <Position>
              <LatitudeDegrees>49.46939279325306415557861328125</LatitudeDegrees>
              <LongitudeDegrees>20.43008306063711643218994140625</LongitudeDegrees>
            </Position>
            <AltitudeMeters>408.20001220703125</AltitudeMeters>
            <DistanceMeters>NAN</DistanceMeters>
          </Trackpoint>
          <Trackpoint>
            <Time>2022-09-22T08:05:30.000Z</Time>
            <Position>
              <LatitudeDegrees>49.46945934556424617767333984375</LatitudeDegrees>
              <LongitudeDegrees>20.4302356950938701629638671875</LongitudeDegrees>
            </Position>
            <AltitudeMeters>408</AltitudeMeters>
            <DistanceMeters>NAN</DistanceMeters>
          </Trackpoint>
          <Trackpoint>
            <Time>2022-09-22T08:05:37.000Z</Time>
            <Position>
              <LatitudeDegrees>49.46959010325372219085693359375</LatitudeDegrees>
              <LongitudeDegrees>20.43059821240603923797607421875</LongitudeDegrees>
            </Position>
            <AltitudeMeters>407.79998779296875</AltitudeMeters>
            <DistanceMeters>NAN</DistanceMeters>
          </Trackpoint>
          <Trackpoint>
            <Time>2022-09-22T08:05:40.000Z</Time>
            <Position>
              <LatitudeDegrees>49.469632767140865325927734375</LatitudeDegrees>
              <LongitudeDegrees>20.4307547025382518768310546875</LongitudeDegrees>
            </Position>
            <AltitudeMeters>407.600006103515625</AltitudeMeters>
            <DistanceMeters>NAN</DistanceMeters>
          </Trackpoint>
          <Trackpoint>
            <Time>2022-09-22T08:05:41.000Z</Time>
            <Position>
              <LatitudeDegrees>49.46964575909078121185302734375</LatitudeDegrees>
              <LongitudeDegrees>20.43080675415694713592529296875</LongitudeDegrees>
            </Position>
            <AltitudeMeters>407.600006103515625</AltitudeMeters>
            <DistanceMeters>NAN</DistanceMeters>
          </Trackpoint>
          <Trackpoint>
            <Time>2022-09-22T08:05:47.000Z</Time>
            <Position>
              <LatitudeDegrees>49.469730667769908905029296875</LatitudeDegrees>
              <LongitudeDegrees>20.43109995312988758087158203125</LongitudeDegrees>
            </Position>
            <AltitudeMeters>407.399993896484375</AltitudeMeters>
            <DistanceMeters>NAN</DistanceMeters>
          </Trackpoint>
          <Trackpoint>
            <Time>2022-09-22T08:05:48.000Z</Time>
            <Position>
              <LatitudeDegrees>49.46974567137658596038818359375</LatitudeDegrees>
              <LongitudeDegrees>20.43113197200000286102294921875</LongitudeDegrees>
            </Position>
            <AltitudeMeters>407.399993896484375</AltitudeMeters>
            <DistanceMeters>NAN</DistanceMeters>
          </Trackpoint>
          <Trackpoint>
            <Time>2022-09-22T08:05:51.000Z</Time>
            <Position>
              <LatitudeDegrees>49.46980199776589870452880859375</LatitudeDegrees>
              <LongitudeDegrees>20.4311178065836429595947265625</LongitudeDegrees>
            </Position>
            <AltitudeMeters>407.399993896484375</AltitudeMeters>
            <DistanceMeters>NAN</DistanceMeters>
          </Trackpoint>
          <Trackpoint>
            <Time>2022-09-22T08:05:55.000Z</Time>
            <Position>
              <LatitudeDegrees>49.4698676280677318572998046875</LatitudeDegrees>
              <LongitudeDegrees>20.43103222735226154327392578125</LongitudeDegrees>
            </Position>
            <AltitudeMeters>408.79998779296875</AltitudeMeters>
            <DistanceMeters>NAN</DistanceMeters>
          </Trackpoint>
          <Trackpoint>
            <Time>2022-09-22T08:05:56.000Z</Time>
            <Position>
              <LatitudeDegrees>49.46988967247307300567626953125</LatitudeDegrees>
              <LongitudeDegrees>20.43100909329950809478759765625</LongitudeDegrees>
            </Position>
            <AltitudeMeters>409</AltitudeMeters>
            <DistanceMeters>NAN</DistanceMeters>
          </Trackpoint>
          <Trackpoint>
            <Time>2022-09-22T08:05:57.000Z</Time>
            <Position>
              <LatitudeDegrees>49.46990895085036754608154296875</LatitudeDegrees>
              <LongitudeDegrees>20.43099333532154560089111328125</LongitudeDegrees>
            </Position>
            <AltitudeMeters>409.20001220703125</AltitudeMeters>
            <DistanceMeters>NAN</DistanceMeters>
          </Trackpoint>
          <Trackpoint>
            <Time>2022-09-22T08:06:00.000Z</Time>
            <Position>
              <LatitudeDegrees>49.4699889980256557464599609375</LatitudeDegrees>
              <LongitudeDegrees>20.43098813854157924652099609375</LongitudeDegrees>
            </Position>
            <AltitudeMeters>409.600006103515625</AltitudeMeters>
            <DistanceMeters>NAN</DistanceMeters>
          </Trackpoint>
          <Trackpoint>
            <Time>2022-09-22T08:06:01.000Z</Time>
            <Position>
              <LatitudeDegrees>49.4700205139815807342529296875</LatitudeDegrees>
              <LongitudeDegrees>20.43098847381770610809326171875</LongitudeDegrees>
            </Position>
            <AltitudeMeters>409.79998779296875</AltitudeMeters>
            <DistanceMeters>NAN</DistanceMeters>
          </Trackpoint>
          <Trackpoint>
            <Time>2022-09-22T08:06:04.000Z</Time>
            <Position>
              <LatitudeDegrees>49.47011866606771945953369140625</LatitudeDegrees>
              <LongitudeDegrees>20.431033484637737274169921875</LongitudeDegrees>
            </Position>
            <AltitudeMeters>410</AltitudeMeters>
            <DistanceMeters>NAN</DistanceMeters>
          </Trackpoint>
          <Trackpoint>
            <Time>2022-09-22T08:06:09.000Z</Time>
            <Position>
              <LatitudeDegrees>49.47029217146337032318115234375</LatitudeDegrees>
              <LongitudeDegrees>20.43115762062370777130126953125</LongitudeDegrees>
            </Position>
            <AltitudeMeters>409.79998779296875</AltitudeMeters>
            <DistanceMeters>NAN</DistanceMeters>
          </Trackpoint>
          <Trackpoint>
            <Time>2022-09-22T08:06:17.000Z</Time>
            <Position>
              <LatitudeDegrees>49.47058453224599361419677734375</LatitudeDegrees>
              <LongitudeDegrees>20.431396253407001495361328125</LongitudeDegrees>
            </Position>
            <AltitudeMeters>409.20001220703125</AltitudeMeters>
            <DistanceMeters>NAN</DistanceMeters>
          </Trackpoint>
          <Trackpoint>
            <Time>2022-09-22T08:06:24.000Z</Time>
            <Position>
              <LatitudeDegrees>49.4708600454032421112060546875</LatitudeDegrees>
              <LongitudeDegrees>20.4316676594316959381103515625</LongitudeDegrees>
            </Position>
            <AltitudeMeters>408.79998779296875</AltitudeMeters>
            <DistanceMeters>NAN</DistanceMeters>
          </Trackpoint>
          <Trackpoint>
            <Time>2022-09-22T08:06:25.000Z</Time>
            <Position>
              <LatitudeDegrees>49.47088879533112049102783203125</LatitudeDegrees>
              <LongitudeDegrees>20.43169674463570117950439453125</LongitudeDegrees>
            </Position>
            <AltitudeMeters>409</AltitudeMeters>
            <DistanceMeters>NAN</DistanceMeters>
          </Trackpoint>
          <Trackpoint>
            <Time>2022-09-22T08:06:28.000Z</Time>
            <Position>
              <LatitudeDegrees>49.4709549285471439361572265625</LatitudeDegrees>
              <LongitudeDegrees>20.43184409849345684051513671875</LongitudeDegrees>
            </Position>
            <AltitudeMeters>409</AltitudeMeters>
            <DistanceMeters>NAN</DistanceMeters>
          </Trackpoint>
          <Trackpoint>
            <Time>2022-09-22T08:06:29.000Z</Time>
            <Position>
              <LatitudeDegrees>49.47097957134246826171875</LatitudeDegrees>
              <LongitudeDegrees>20.431912578642368316650390625</LongitudeDegrees>
            </Position>
            <AltitudeMeters>409</AltitudeMeters>
            <DistanceMeters>NAN</DistanceMeters>
          </Trackpoint>
          <Trackpoint>
            <Time>2022-09-22T08:06:31.000Z</Time>
            <Position>
              <LatitudeDegrees>49.4710213132202625274658203125</LatitudeDegrees>
              <LongitudeDegrees>20.43204727582633495330810546875</LongitudeDegrees>
            </Position>
            <AltitudeMeters>408.79998779296875</AltitudeMeters>
            <DistanceMeters>NAN</DistanceMeters>
          </Trackpoint>
          <Trackpoint>
            <Time>2022-09-22T08:06:33.000Z</Time>
            <Position>
              <LatitudeDegrees>49.47106380946934223175048828125</LatitudeDegrees>
              <LongitudeDegrees>20.43219412676990032196044921875</LongitudeDegrees>
            </Position>
            <AltitudeMeters>408.79998779296875</AltitudeMeters>
            <DistanceMeters>NAN</DistanceMeters>
          </Trackpoint>
          <Trackpoint>
            <Time>2022-09-22T08:06:34.000Z</Time>
            <Position>
              <LatitudeDegrees>49.4710809923708438873291015625</LatitudeDegrees>
              <LongitudeDegrees>20.43224559165537357330322265625</LongitudeDegrees>
            </Position>
            <AltitudeMeters>408.79998779296875</AltitudeMeters>
            <DistanceMeters>NAN</DistanceMeters>
          </Trackpoint>
          <Trackpoint>
            <Time>2022-09-22T08:06:37.000Z</Time>
            <Position>
              <LatitudeDegrees>49.47116221301257610321044921875</LatitudeDegrees>
              <LongitudeDegrees>20.4324071109294891357421875</LongitudeDegrees>
            </Position>
            <AltitudeMeters>409.20001220703125</AltitudeMeters>
            <DistanceMeters>NAN</DistanceMeters>
          </Trackpoint>
          <Trackpoint>
            <Time>2022-09-22T08:06:39.000Z</Time>
            <Position>
              <LatitudeDegrees>49.47122289799153804779052734375</LatitudeDegrees>
              <LongitudeDegrees>20.43247961439192295074462890625</LongitudeDegrees>
            </Position>
            <AltitudeMeters>409.399993896484375</AltitudeMeters>
            <DistanceMeters>NAN</DistanceMeters>
          </Trackpoint>
          <Trackpoint>
            <Time>2022-09-22T08:06:43.000Z</Time>
            <Position>
              <LatitudeDegrees>49.47136354632675647735595703125</LatitudeDegrees>
              <LongitudeDegrees>20.43255991302430629730224609375</LongitudeDegrees>
            </Position>
            <AltitudeMeters>409.79998779296875</AltitudeMeters>
            <DistanceMeters>NAN</DistanceMeters>
          </Trackpoint>
          <Trackpoint>
            <Time>2022-09-22T08:06:49.000Z</Time>
            <Position>
              <LatitudeDegrees>49.471535794436931610107421875</LatitudeDegrees>
              <LongitudeDegrees>20.43264674954116344451904296875</LongitudeDegrees>
            </Position>
            <AltitudeMeters>410.600006103515625</AltitudeMeters>
            <DistanceMeters>NAN</DistanceMeters>
          </Trackpoint>
          <Trackpoint>
            <Time>2022-09-22T08:06:52.000Z</Time>
            <Position>
              <LatitudeDegrees>49.47160528041422367095947265625</LatitudeDegrees>
              <LongitudeDegrees>20.43269871734082698822021484375</LongitudeDegrees>
            </Position>
            <AltitudeMeters>411.20001220703125</AltitudeMeters>
            <DistanceMeters>NAN</DistanceMeters>
          </Trackpoint>
          <Trackpoint>
            <Time>2022-09-22T08:06:54.000Z</Time>
            <Position>
              <LatitudeDegrees>49.47165657766163349151611328125</LatitudeDegrees>
              <LongitudeDegrees>20.4327318258583545684814453125</LongitudeDegrees>
            </Position>
            <AltitudeMeters>411.600006103515625</AltitudeMeters>
            <DistanceMeters>NAN</DistanceMeters>
          </Trackpoint>
          <Trackpoint>
            <Time>2022-09-22T08:07:02.000Z</Time>
            <Position>
              <LatitudeDegrees>49.47186629287898540496826171875</LatitudeDegrees>
              <LongitudeDegrees>20.4328987933695316314697265625</LongitudeDegrees>
            </Position>
            <AltitudeMeters>411.79998779296875</AltitudeMeters>
            <DistanceMeters>NAN</DistanceMeters>
          </Trackpoint>
          <Trackpoint>
            <Time>2022-09-22T08:07:10.000Z</Time>
            <Position>
              <LatitudeDegrees>49.47209126316010951995849609375</LatitudeDegrees>
              <LongitudeDegrees>20.433123596012592315673828125</LongitudeDegrees>
            </Position>
            <AltitudeMeters>411.79998779296875</AltitudeMeters>
            <DistanceMeters>NAN</DistanceMeters>
          </Trackpoint>
          <Trackpoint>
            <Time>2022-09-22T08:07:17.000Z</Time>
            <Position>
              <LatitudeDegrees>49.47229259647428989410400390625</LatitudeDegrees>
              <LongitudeDegrees>20.4332615621387958526611328125</LongitudeDegrees>
            </Position>
            <AltitudeMeters>411.79998779296875</AltitudeMeters>
            <DistanceMeters>NAN</DistanceMeters>
          </Trackpoint>
          <Trackpoint>
            <Time>2022-09-22T08:07:22.000Z</Time>
            <Position>
              <LatitudeDegrees>49.47241656482219696044921875</LatitudeDegrees>
              <LongitudeDegrees>20.4333212412893772125244140625</LongitudeDegrees>
            </Position>
            <AltitudeMeters>412.20001220703125</AltitudeMeters>
            <DistanceMeters>NAN</DistanceMeters>
          </Trackpoint>
          <Trackpoint>
            <Time>2022-09-22T08:07:25.000Z</Time>
            <Position>
              <LatitudeDegrees>49.47249124757945537567138671875</LatitudeDegrees>
              <LongitudeDegrees>20.43333758600056171417236328125</LongitudeDegrees>
            </Position>
            <AltitudeMeters>412.399993896484375</AltitudeMeters>
            <DistanceMeters>NAN</DistanceMeters>
          </Trackpoint>
          <Trackpoint>
            <Time>2022-09-22T08:07:33.000Z</Time>
            <Position>
              <LatitudeDegrees>49.47270490229129791259765625</LatitudeDegrees>
              <LongitudeDegrees>20.43341017328202724456787109375</LongitudeDegrees>
            </Position>
            <AltitudeMeters>412.20001220703125</AltitudeMeters>
            <DistanceMeters>NAN</DistanceMeters>
          </Trackpoint>
          <Trackpoint>
            <Time>2022-09-22T08:07:39.000Z</Time>
            <Position>
              <LatitudeDegrees>49.47285569272935390472412109375</LatitudeDegrees>
              <LongitudeDegrees>20.43344705365598201751708984375</LongitudeDegrees>
            </Position>
            <AltitudeMeters>412.399993896484375</AltitudeMeters>
            <DistanceMeters>NAN</DistanceMeters>
          </Trackpoint>
          <Trackpoint>
            <Time>2022-09-22T08:07:42.000Z</Time>
            <Position>
              <LatitudeDegrees>49.47292886674404144287109375</LatitudeDegrees>
              <LongitudeDegrees>20.43346188962459564208984375</LongitudeDegrees>
            </Position>
            <AltitudeMeters>412.600006103515625</AltitudeMeters>
            <DistanceMeters>NAN</DistanceMeters>
          </Trackpoint>
          <Trackpoint>
            <Time>2022-09-22T08:07:47.000Z</Time>
            <Position>
              <LatitudeDegrees>49.4730443693697452545166015625</LatitudeDegrees>
              <LongitudeDegrees>20.43348644860088825225830078125</LongitudeDegrees>
            </Position>
            <AltitudeMeters>413</AltitudeMeters>
            <DistanceMeters>NAN</DistanceMeters>
          </Trackpoint>
          <Trackpoint>
            <Time>2022-09-22T08:07:50.000Z</Time>
            <Position>
              <LatitudeDegrees>49.47309843264520168304443359375</LatitudeDegrees>
              <LongitudeDegrees>20.4334932379424571990966796875</LongitudeDegrees>
            </Position>
            <AltitudeMeters>413.399993896484375</AltitudeMeters>
            <DistanceMeters>NAN</DistanceMeters>
          </Trackpoint>
          <Trackpoint>
            <Time>2022-09-22T08:07:53.000Z</Time>
            <Position>
              <LatitudeDegrees>49.47314805351197719573974609375</LatitudeDegrees>
              <LongitudeDegrees>20.43348393402993679046630859375</LongitudeDegrees>
            </Position>
            <AltitudeMeters>413.399993896484375</AltitudeMeters>
            <DistanceMeters>NAN</DistanceMeters>
          </Trackpoint>
          <Trackpoint>
            <Time>2022-09-22T08:07:58.000Z</Time>
            <Position>
              <LatitudeDegrees>49.473300687968730926513671875</LatitudeDegrees>
              <LongitudeDegrees>20.43345392681658267974853515625</LongitudeDegrees>
            </Position>
            <AltitudeMeters>413.600006103515625</AltitudeMeters>
            <DistanceMeters>NAN</DistanceMeters>
          </Trackpoint>
          <Trackpoint>
            <Time>2022-09-22T08:07:59.000Z</Time>
            <Position>
              <LatitudeDegrees>49.4733353890478610992431640625</LatitudeDegrees>
              <LongitudeDegrees>20.433448813855648040771484375</LongitudeDegrees>
            </Position>
            <AltitudeMeters>413.600006103515625</AltitudeMeters>
            <DistanceMeters>NAN</DistanceMeters>
          </Trackpoint>
          <Trackpoint>
            <Time>2022-09-22T08:08:04.000Z</Time>
            <Position>
              <LatitudeDegrees>49.4735211320221424102783203125</LatitudeDegrees>
              <LongitudeDegrees>20.433486364781856536865234375</LongitudeDegrees>
            </Position>
            <AltitudeMeters>413.399993896484375</AltitudeMeters>
            <DistanceMeters>NAN</DistanceMeters>
          </Trackpoint>
          <Trackpoint>
            <Time>2022-09-22T08:08:08.000Z</Time>
            <Position>
              <LatitudeDegrees>49.47362934239208698272705078125</LatitudeDegrees>
              <LongitudeDegrees>20.4334060661494731903076171875</LongitudeDegrees>
            </Position>
            <AltitudeMeters>413.399993896484375</AltitudeMeters>
            <DistanceMeters>NAN</DistanceMeters>
          </Trackpoint>
          <Trackpoint>
            <Time>2022-09-22T08:08:15.000Z</Time>
            <Position>
              <LatitudeDegrees>49.4738346152007579803466796875</LatitudeDegrees>
              <LongitudeDegrees>20.4332394339144229888916015625</LongitudeDegrees>
            </Position>
            <AltitudeMeters>413.20001220703125</AltitudeMeters>
            <DistanceMeters>NAN</DistanceMeters>
          </Trackpoint>
          <Trackpoint>
            <Time>2022-09-22T08:08:21.000Z</Time>
            <Position>
              <LatitudeDegrees>49.47401457466185092926025390625</LatitudeDegrees>
              <LongitudeDegrees>20.43306232430040836334228515625</LongitudeDegrees>
            </Position>
            <AltitudeMeters>413.399993896484375</AltitudeMeters>
            <DistanceMeters>NAN</DistanceMeters>
          </Trackpoint>
          <Trackpoint>
            <Time>2022-09-22T08:08:28.000Z</Time>
            <Position>
              <LatitudeDegrees>49.4741806201636791229248046875</LatitudeDegrees>
              <LongitudeDegrees>20.43282377533614635467529296875</LongitudeDegrees>
            </Position>
            <AltitudeMeters>413.399993896484375</AltitudeMeters>
            <DistanceMeters>NAN</DistanceMeters>
          </Trackpoint>
          <Trackpoint>
            <Time>2022-09-22T08:08:34.000Z</Time>
            <Position>
              <LatitudeDegrees>49.47433811612427234649658203125</LatitudeDegrees>
              <LongitudeDegrees>20.43264943175017833709716796875</LongitudeDegrees>
            </Position>
            <AltitudeMeters>413.399993896484375</AltitudeMeters>
            <DistanceMeters>NAN</DistanceMeters>
          </Trackpoint>
          <Trackpoint>
            <Time>2022-09-22T08:08:42.000Z</Time>
            <Position>
              <LatitudeDegrees>49.47454598732292652130126953125</LatitudeDegrees>
              <LongitudeDegrees>20.43237601406872272491455078125</LongitudeDegrees>
            </Position>
            <AltitudeMeters>413.399993896484375</AltitudeMeters>
            <DistanceMeters>NAN</DistanceMeters>
          </Trackpoint>
          <Trackpoint>
            <Time>2022-09-22T08:08:43.000Z</Time>
            <Position>
              <LatitudeDegrees>49.4745655171573162078857421875</LatitudeDegrees>
              <LongitudeDegrees>20.43234751559793949127197265625</LongitudeDegrees>
            </Position>
            <AltitudeMeters>413.399993896484375</AltitudeMeters>
            <DistanceMeters>NAN</DistanceMeters>
          </Trackpoint>
          <Trackpoint>
            <Time>2022-09-22T08:08:44.000Z</Time>
            <Position>
              <LatitudeDegrees>49.47458378970623016357421875</LatitudeDegrees>
              <LongitudeDegrees>20.43231901712715625762939453125</LongitudeDegrees>
            </Position>
            <AltitudeMeters>413.399993896484375</AltitudeMeters>
            <DistanceMeters>NAN</DistanceMeters>
          </Trackpoint>
          <Trackpoint>
            <Time>2022-09-22T08:08:47.000Z</Time>
            <Position>
              <LatitudeDegrees>49.4746379368007183074951171875</LatitudeDegrees>
              <LongitudeDegrees>20.43224416673183441162109375</LongitudeDegrees>
            </Position>
            <AltitudeMeters>413.399993896484375</AltitudeMeters>
            <DistanceMeters>NAN</DistanceMeters>
          </Trackpoint>
          <Trackpoint>
            <Time>2022-09-22T08:08:56.000Z</Time>
            <Position>
              <LatitudeDegrees>49.47482049465179443359375</LatitudeDegrees>
              <LongitudeDegrees>20.43198156170547008514404296875</LongitudeDegrees>
            </Position>
            <AltitudeMeters>413.399993896484375</AltitudeMeters>
            <DistanceMeters>NAN</DistanceMeters>
          </Trackpoint>
          <Trackpoint>
            <Time>2022-09-22T08:09:03.000Z</Time>
            <Position>
              <LatitudeDegrees>49.47498536668717861175537109375</LatitudeDegrees>
              <LongitudeDegrees>20.4318218864500522613525390625</LongitudeDegrees>
            </Position>
            <AltitudeMeters>413.399993896484375</AltitudeMeters>
            <DistanceMeters>NAN</DistanceMeters>
          </Trackpoint>
          <Trackpoint>
            <Time>2022-09-22T08:09:08.000Z</Time>
            <Position>
              <LatitudeDegrees>49.47511193342506885528564453125</LatitudeDegrees>
              <LongitudeDegrees>20.4316292703151702880859375</LongitudeDegrees>
            </Position>
            <AltitudeMeters>413</AltitudeMeters>
            <DistanceMeters>NAN</DistanceMeters>
          </Trackpoint>
          <Trackpoint>
            <Time>2022-09-22T08:09:14.000Z</Time>
            <Position>
              <LatitudeDegrees>49.4752746261656284332275390625</LatitudeDegrees>
              <LongitudeDegrees>20.43134562671184539794921875</LongitudeDegrees>
            </Position>
            <AltitudeMeters>412.399993896484375</AltitudeMeters>
            <DistanceMeters>NAN</DistanceMeters>
          </Trackpoint>
          <Trackpoint>
            <Time>2022-09-22T08:09:15.000Z</Time>
            <Position>
              <LatitudeDegrees>49.4753034599125385284423828125</LatitudeDegrees>
              <LongitudeDegrees>20.4312975145876407623291015625</LongitudeDegrees>
            </Position>
            <AltitudeMeters>412.20001220703125</AltitudeMeters>
            <DistanceMeters>NAN</DistanceMeters>
          </Trackpoint>
          <Trackpoint>
            <Time>2022-09-22T08:09:20.000Z</Time>
            <Position>
              <LatitudeDegrees>49.47546422481536865234375</LatitudeDegrees>
              <LongitudeDegrees>20.431080758571624755859375</LongitudeDegrees>
            </Position>
            <AltitudeMeters>411.79998779296875</AltitudeMeters>
            <DistanceMeters>NAN</DistanceMeters>
          </Trackpoint>
          <Trackpoint>
            <Time>2022-09-22T08:09:21.000Z</Time>
            <Position>
              <LatitudeDegrees>49.47548828087747097015380859375</LatitudeDegrees>
              <LongitudeDegrees>20.4310299642384052276611328125</LongitudeDegrees>
            </Position>
            <AltitudeMeters>411.600006103515625</AltitudeMeters>
            <DistanceMeters>NAN</DistanceMeters>
          </Trackpoint>
          <Trackpoint>
            <Time>2022-09-22T08:09:23.000Z</Time>
            <Position>
              <LatitudeDegrees>49.47553706355392932891845703125</LatitudeDegrees>
              <LongitudeDegrees>20.43093835003674030303955078125</LongitudeDegrees>
            </Position>
            <AltitudeMeters>410.79998779296875</AltitudeMeters>
            <DistanceMeters>NAN</DistanceMeters>
          </Trackpoint>
          <Trackpoint>
            <Time>2022-09-22T08:09:26.000Z</Time>
            <Position>
              <LatitudeDegrees>49.4756031967699527740478515625</LatitudeDegrees>
              <LongitudeDegrees>20.43084673583507537841796875</LongitudeDegrees>
            </Position>
            <AltitudeMeters>410</AltitudeMeters>
            <DistanceMeters>NAN</DistanceMeters>
          </Trackpoint>
          <Trackpoint>
            <Time>2022-09-22T08:09:27.000Z</Time>
            <Position>
              <LatitudeDegrees>49.47562624700367450714111328125</LatitudeDegrees>
              <LongitudeDegrees>20.4308058321475982666015625</LongitudeDegrees>
            </Position>
            <AltitudeMeters>409.79998779296875</AltitudeMeters>
            <DistanceMeters>NAN</DistanceMeters>
          </Trackpoint>
          <Trackpoint>
            <Time>2022-09-22T08:09:30.000Z</Time>
            <Position>
              <LatitudeDegrees>49.475666396319866180419921875</LatitudeDegrees>
              <LongitudeDegrees>20.4306557960808277130126953125</LongitudeDegrees>
            </Position>
            <AltitudeMeters>409.20001220703125</AltitudeMeters>
            <DistanceMeters>NAN</DistanceMeters>
          </Trackpoint>
          <Trackpoint>
            <Time>2022-09-22T08:09:36.000Z</Time>
            <Position>
              <LatitudeDegrees>49.47566078044474124908447265625</LatitudeDegrees>
              <LongitudeDegrees>20.43033820576965808868408203125</LongitudeDegrees>
            </Position>
            <AltitudeMeters>409.600006103515625</AltitudeMeters>
            <DistanceMeters>NAN</DistanceMeters>
          </Trackpoint>
          <Trackpoint>
            <Time>2022-09-22T08:09:44.000Z</Time>
            <Position>
              <LatitudeDegrees>49.475654326379299163818359375</LatitudeDegrees>
              <LongitudeDegrees>20.42993386276066303253173828125</LongitudeDegrees>
            </Position>
            <AltitudeMeters>410.399993896484375</AltitudeMeters>
            <DistanceMeters>NAN</DistanceMeters>
          </Trackpoint>
          <Trackpoint>
            <Time>2022-09-22T08:09:46.000Z</Time>
            <Position>
              <LatitudeDegrees>49.475647620856761932373046875</LatitudeDegrees>
              <LongitudeDegrees>20.4298568330705165863037109375</LongitudeDegrees>
            </Position>
            <AltitudeMeters>410.399993896484375</AltitudeMeters>
            <DistanceMeters>NAN</DistanceMeters>
          </Trackpoint>
          <Trackpoint>
            <Time>2022-09-22T08:09:49.000Z</Time>
            <Position>
              <LatitudeDegrees>49.47564250789582729339599609375</LatitudeDegrees>
              <LongitudeDegrees>20.4297374747693538665771484375</LongitudeDegrees>
            </Position>
            <AltitudeMeters>410.20001220703125</AltitudeMeters>
            <DistanceMeters>NAN</DistanceMeters>
          </Trackpoint>
          <Trackpoint>
            <Time>2022-09-22T08:09:54.000Z</Time>
            <Position>
              <LatitudeDegrees>49.4756286777555942535400390625</LatitudeDegrees>
              <LongitudeDegrees>20.42948291637003421783447265625</LongitudeDegrees>
            </Position>
            <AltitudeMeters>410.600006103515625</AltitudeMeters>
            <DistanceMeters>NAN</DistanceMeters>
          </Trackpoint>
          <Trackpoint>
            <Time>2022-09-22T08:09:57.000Z</Time>
            <Position>
              <LatitudeDegrees>49.4756112433969974517822265625</LatitudeDegrees>
              <LongitudeDegrees>20.42931628413498401641845703125</LongitudeDegrees>
            </Position>
            <AltitudeMeters>410.79998779296875</AltitudeMeters>
            <DistanceMeters>NAN</DistanceMeters>
          </Trackpoint>
          <Trackpoint>
            <Time>2022-09-22T08:09:58.000Z</Time>
            <Position>
              <LatitudeDegrees>49.47560596279799938201904296875</LatitudeDegrees>
              <LongitudeDegrees>20.42926616035401821136474609375</LongitudeDegrees>
            </Position>
            <AltitudeMeters>410.79998779296875</AltitudeMeters>
            <DistanceMeters>NAN</DistanceMeters>
          </Trackpoint>
          <Trackpoint>
            <Time>2022-09-22T08:09:59.000Z</Time>
            <Position>
              <LatitudeDegrees>49.47560193948447704315185546875</LatitudeDegrees>
              <LongitudeDegrees>20.42921871878206729888916015625</LongitudeDegrees>
            </Position>
            <AltitudeMeters>410.79998779296875</AltitudeMeters>
            <DistanceMeters>NAN</DistanceMeters>
          </Trackpoint>
          <Trackpoint>
            <Time>2022-09-22T08:10:01.000Z</Time>
            <Position>
              <LatitudeDegrees>49.475590288639068603515625</LatitudeDegrees>
              <LongitudeDegrees>20.429135151207447052001953125</LongitudeDegrees>
            </Position>
            <AltitudeMeters>411</AltitudeMeters>
            <DistanceMeters>NAN</DistanceMeters>
          </Trackpoint>
          <Trackpoint>
            <Time>2022-09-22T08:10:10.000Z</Time>
            <Position>
              <LatitudeDegrees>49.47552650235593318939208984375</LatitudeDegrees>
              <LongitudeDegrees>20.42867070995271205902099609375</LongitudeDegrees>
            </Position>
            <AltitudeMeters>411.20001220703125</AltitudeMeters>
            <DistanceMeters>NAN</DistanceMeters>
          </Trackpoint>
          <Trackpoint>
            <Time>2022-09-22T08:10:17.000Z</Time>
            <Position>
              <LatitudeDegrees>49.47547822259366512298583984375</LatitudeDegrees>
              <LongitudeDegrees>20.428325124084949493408203125</LongitudeDegrees>
            </Position>
            <AltitudeMeters>411.20001220703125</AltitudeMeters>
            <DistanceMeters>NAN</DistanceMeters>
          </Trackpoint>
          <Trackpoint>
            <Time>2022-09-22T08:10:26.000Z</Time>
            <Position>
              <LatitudeDegrees>49.47541887871921062469482421875</LatitudeDegrees>
              <LongitudeDegrees>20.4278822243213653564453125</LongitudeDegrees>
            </Position>
            <AltitudeMeters>411</AltitudeMeters>
            <DistanceMeters>NAN</DistanceMeters>
          </Trackpoint>
          <Trackpoint>
            <Time>2022-09-22T08:10:36.000Z</Time>
            <Position>
              <LatitudeDegrees>49.47534956037998199462890625</LatitudeDegrees>
              <LongitudeDegrees>20.4273496381938457489013671875</LongitudeDegrees>
            </Position>
            <AltitudeMeters>411</AltitudeMeters>
            <DistanceMeters>NAN</DistanceMeters>
          </Trackpoint>
          <Trackpoint>
            <Time>2022-09-22T08:10:43.000Z</Time>
            <Position>
              <LatitudeDegrees>49.475300610065460205078125</LatitudeDegrees>
              <LongitudeDegrees>20.4269979335367679595947265625</LongitudeDegrees>
            </Position>
            <AltitudeMeters>411</AltitudeMeters>
            <DistanceMeters>NAN</DistanceMeters>
          </Trackpoint>
          <Trackpoint>
            <Time>2022-09-22T08:10:52.000Z</Time>
            <Position>
              <LatitudeDegrees>49.4752196408808231353759765625</LatitudeDegrees>
              <LongitudeDegrees>20.42651270516216754913330078125</LongitudeDegrees>
            </Position>
            <AltitudeMeters>410.79998779296875</AltitudeMeters>
            <DistanceMeters>NAN</DistanceMeters>
          </Trackpoint>
          <Trackpoint>
            <Time>2022-09-22T08:10:57.000Z</Time>
            <Position>
              <LatitudeDegrees>49.47518267668783664703369140625</LatitudeDegrees>
              <LongitudeDegrees>20.4262284748256206512451171875</LongitudeDegrees>
            </Position>
            <AltitudeMeters>410.79998779296875</AltitudeMeters>
            <DistanceMeters>NAN</DistanceMeters>
          </Trackpoint>
          <Trackpoint>
            <Time>2022-09-22T08:10:59.000Z</Time>
            <Position>
              <LatitudeDegrees>49.4751732051372528076171875</LatitudeDegrees>
              <LongitudeDegrees>20.42612562887370586395263671875</LongitudeDegrees>
            </Position>
            <AltitudeMeters>410.79998779296875</AltitudeMeters>
            <DistanceMeters>NAN</DistanceMeters>
          </Trackpoint>
          <Trackpoint>
            <Time>2022-09-22T08:11:01.000Z</Time>
            <Position>
              <LatitudeDegrees>49.47516540996730327606201171875</LatitudeDegrees>
              <LongitudeDegrees>20.42603074572980403900146484375</LongitudeDegrees>
            </Position>
            <AltitudeMeters>410.600006103515625</AltitudeMeters>
            <DistanceMeters>NAN</DistanceMeters>
          </Trackpoint>
          <Trackpoint>
            <Time>2022-09-22T08:11:09.000Z</Time>
            <Position>
              <LatitudeDegrees>49.47511830367147922515869140625</LatitudeDegrees>
              <LongitudeDegrees>20.42560528032481670379638671875</LongitudeDegrees>
            </Position>
            <AltitudeMeters>410.399993896484375</AltitudeMeters>
            <DistanceMeters>NAN</DistanceMeters>
          </Trackpoint>
          <Trackpoint>
            <Time>2022-09-22T08:11:19.000Z</Time>
            <Position>
              <LatitudeDegrees>49.47507656179368495941162109375</LatitudeDegrees>
              <LongitudeDegrees>20.42507118545472621917724609375</LongitudeDegrees>
            </Position>
            <AltitudeMeters>410</AltitudeMeters>
            <DistanceMeters>NAN</DistanceMeters>
          </Trackpoint>
          <Trackpoint>
            <Time>2022-09-22T08:11:21.000Z</Time>
            <Position>
              <LatitudeDegrees>49.4750654138624668121337890625</LatitudeDegrees>
              <LongitudeDegrees>20.4249695129692554473876953125</LongitudeDegrees>
            </Position>
            <AltitudeMeters>409.79998779296875</AltitudeMeters>
            <DistanceMeters>NAN</DistanceMeters>
          </Trackpoint>
          <Trackpoint>
            <Time>2022-09-22T08:11:28.000Z</Time>
            <Position>
              <LatitudeDegrees>49.475022666156291961669921875</LatitudeDegrees>
              <LongitudeDegrees>20.424539186060428619384765625</LongitudeDegrees>
            </Position>
            <AltitudeMeters>410</AltitudeMeters>
            <DistanceMeters>NAN</DistanceMeters>
          </Trackpoint>
          <Trackpoint>
            <Time>2022-09-22T08:11:35.000Z</Time>
            <Position>
              <LatitudeDegrees>49.47498804889619350433349609375</LatitudeDegrees>
              <LongitudeDegrees>20.42413475923240184783935546875</LongitudeDegrees>
            </Position>
            <AltitudeMeters>409.79998779296875</AltitudeMeters>
            <DistanceMeters>NAN</DistanceMeters>
          </Trackpoint>
          <Trackpoint>
            <Time>2022-09-22T08:11:37.000Z</Time>
            <Position>
              <LatitudeDegrees>49.4749705307185649871826171875</LatitudeDegrees>
              <LongitudeDegrees>20.42402445338666439056396484375</LongitudeDegrees>
            </Position>
            <AltitudeMeters>409.79998779296875</AltitudeMeters>
            <DistanceMeters>NAN</DistanceMeters>
          </Trackpoint>
          <Trackpoint>
            <Time>2022-09-22T08:11:43.000Z</Time>
            <Position>
              <LatitudeDegrees>49.47494178079068660736083984375</LatitudeDegrees>
              <LongitudeDegrees>20.42368750087916851043701171875</LongitudeDegrees>
            </Position>
            <AltitudeMeters>409.399993896484375</AltitudeMeters>
            <DistanceMeters>NAN</DistanceMeters>
          </Trackpoint>
          <Trackpoint>
            <Time>2022-09-22T08:11:46.000Z</Time>
            <Position>
              <LatitudeDegrees>49.4749318063259124755859375</LatitudeDegrees>
              <LongitudeDegrees>20.4235284961760044097900390625</LongitudeDegrees>
            </Position>
            <AltitudeMeters>409.399993896484375</AltitudeMeters>
            <DistanceMeters>NAN</DistanceMeters>
          </Trackpoint>
          <Trackpoint>
            <Time>2022-09-22T08:11:55.000Z</Time>
            <Position>
              <LatitudeDegrees>49.47491495870053768157958984375</LatitudeDegrees>
              <LongitudeDegrees>20.42306967079639434814453125</LongitudeDegrees>
            </Position>
            <AltitudeMeters>409.399993896484375</AltitudeMeters>
            <DistanceMeters>NAN</DistanceMeters>
          </Trackpoint>
          <Trackpoint>
            <Time>2022-09-22T08:12:02.000Z</Time>
            <Position>
              <LatitudeDegrees>49.47492954321205615997314453125</LatitudeDegrees>
              <LongitudeDegrees>20.42270463891327381134033203125</LongitudeDegrees>
            </Position>
            <AltitudeMeters>409.600006103515625</AltitudeMeters>
            <DistanceMeters>NAN</DistanceMeters>
          </Trackpoint>
          <Trackpoint>
            <Time>2022-09-22T08:12:04.000Z</Time>
            <Position>
              <LatitudeDegrees>49.474942199885845184326171875</LatitudeDegrees>
              <LongitudeDegrees>20.4226007871329784393310546875</LongitudeDegrees>
            </Position>
            <AltitudeMeters>409.79998779296875</AltitudeMeters>
            <DistanceMeters>NAN</DistanceMeters>
          </Trackpoint>
          <Trackpoint>
            <Time>2022-09-22T08:12:10.000Z</Time>
            <Position>
              <LatitudeDegrees>49.47497983463108539581298828125</LatitudeDegrees>
              <LongitudeDegrees>20.42228110134601593017578125</LongitudeDegrees>
            </Position>
            <AltitudeMeters>410.20001220703125</AltitudeMeters>
            <DistanceMeters>NAN</DistanceMeters>
          </Trackpoint>
          <Trackpoint>
            <Time>2022-09-22T08:12:15.000Z</Time>
            <Position>
              <LatitudeDegrees>49.47501705028116703033447265625</LatitudeDegrees>
              <LongitudeDegrees>20.42206007055938243865966796875</LongitudeDegrees>
            </Position>
            <AltitudeMeters>410.79998779296875</AltitudeMeters>
            <DistanceMeters>NAN</DistanceMeters>
          </Trackpoint>
          <Trackpoint>
            <Time>2022-09-22T08:12:16.000Z</Time>
            <Position>
              <LatitudeDegrees>49.47502375580370426177978515625</LatitudeDegrees>
              <LongitudeDegrees>20.42201019823551177978515625</LongitudeDegrees>
            </Position>
            <AltitudeMeters>410.79998779296875</AltitudeMeters>
            <DistanceMeters>NAN</DistanceMeters>
          </Trackpoint>
          <Trackpoint>
            <Time>2022-09-22T08:12:22.000Z</Time>
            <Position>
              <LatitudeDegrees>49.47504839859902858734130859375</LatitudeDegrees>
              <LongitudeDegrees>20.42173535563051700592041015625</LongitudeDegrees>
            </Position>
            <AltitudeMeters>411.600006103515625</AltitudeMeters>
            <DistanceMeters>NAN</DistanceMeters>
          </Trackpoint>
          <Trackpoint>
            <Time>2022-09-22T08:12:28.000Z</Time>
            <Position>
              <LatitudeDegrees>49.4750972650945186614990234375</LatitudeDegrees>
              <LongitudeDegrees>20.4214940406382083892822265625</LongitudeDegrees>
            </Position>
            <AltitudeMeters>412</AltitudeMeters>
            <DistanceMeters>NAN</DistanceMeters>
          </Trackpoint>
          <Trackpoint>
            <Time>2022-09-22T08:12:33.000Z</Time>
            <Position>
              <LatitudeDegrees>49.47512551210820674896240234375</LatitudeDegrees>
              <LongitudeDegrees>20.421360433101654052734375</LongitudeDegrees>
            </Position>
            <AltitudeMeters>412.600006103515625</AltitudeMeters>
            <DistanceMeters>NAN</DistanceMeters>
          </Trackpoint>
          <Trackpoint>
            <Time>2022-09-22T08:12:34.000Z</Time>
            <Position>
              <LatitudeDegrees>49.47512551210820674896240234375</LatitudeDegrees>
              <LongitudeDegrees>20.421360433101654052734375</LongitudeDegrees>
            </Position>
            <AltitudeMeters>412.600006103515625</AltitudeMeters>
            <DistanceMeters>NAN</DistanceMeters>
          </Trackpoint>
          <Trackpoint>
            <Time>2022-09-22T08:12:35.000Z</Time>
            <Position>
              <LatitudeDegrees>49.47512551210820674896240234375</LatitudeDegrees>
              <LongitudeDegrees>20.421360433101654052734375</LongitudeDegrees>
            </Position>
            <AltitudeMeters>413.79998779296875</AltitudeMeters>
            <DistanceMeters>NAN</DistanceMeters>
          </Trackpoint>
          <Trackpoint>
            <Time>2022-09-22T08:12:41.000Z</Time>
            <Position>
              <LatitudeDegrees>49.47512551210820674896240234375</LatitudeDegrees>
              <LongitudeDegrees>20.421360433101654052734375</LongitudeDegrees>
            </Position>
            <AltitudeMeters>413.79998779296875</AltitudeMeters>
            <DistanceMeters>NAN</DistanceMeters>
          </Trackpoint>
          <Trackpoint>
            <Time>2022-09-22T08:12:42.000Z</Time>
            <Position>
              <LatitudeDegrees>49.47512551210820674896240234375</LatitudeDegrees>
              <LongitudeDegrees>20.421360433101654052734375</LongitudeDegrees>
            </Position>
            <AltitudeMeters>413.79998779296875</AltitudeMeters>
            <DistanceMeters>NAN</DistanceMeters>
          </Trackpoint>
          <Trackpoint>
            <Time>2022-09-22T08:12:47.000Z</Time>
            <Position>
              <LatitudeDegrees>49.47512551210820674896240234375</LatitudeDegrees>
              <LongitudeDegrees>20.421360433101654052734375</LongitudeDegrees>
            </Position>
            <AltitudeMeters>413.79998779296875</AltitudeMeters>
            <DistanceMeters>NAN</DistanceMeters>
          </Trackpoint>
          <Trackpoint>
            <Time>2022-09-22T08:12:54.000Z</Time>
            <Position>
              <LatitudeDegrees>49.47512551210820674896240234375</LatitudeDegrees>
              <LongitudeDegrees>20.421360433101654052734375</LongitudeDegrees>
            </Position>
            <AltitudeMeters>413.79998779296875</AltitudeMeters>
            <DistanceMeters>NAN</DistanceMeters>
          </Trackpoint>
          <Trackpoint>
            <Time>2022-09-22T08:12:57.000Z</Time>
            <Position>
              <LatitudeDegrees>49.47512551210820674896240234375</LatitudeDegrees>
              <LongitudeDegrees>20.421360433101654052734375</LongitudeDegrees>
            </Position>
            <AltitudeMeters>413.79998779296875</AltitudeMeters>
            <DistanceMeters>NAN</DistanceMeters>
          </Trackpoint>
          <Trackpoint>
            <Time>2022-09-22T08:12:59.000Z</Time>
            <Position>
              <LatitudeDegrees>49.47512551210820674896240234375</LatitudeDegrees>
              <LongitudeDegrees>20.421360433101654052734375</LongitudeDegrees>
            </Position>
            <AltitudeMeters>413.79998779296875</AltitudeMeters>
            <DistanceMeters>NAN</DistanceMeters>
          </Trackpoint>
          <Trackpoint>
            <Time>2022-09-22T08:13:12.000Z</Time>
            <Position>
              <LatitudeDegrees>49.47512551210820674896240234375</LatitudeDegrees>
              <LongitudeDegrees>20.421360433101654052734375</LongitudeDegrees>
            </Position>
            <AltitudeMeters>413.79998779296875</AltitudeMeters>
            <DistanceMeters>NAN</DistanceMeters>
          </Trackpoint>
          <Trackpoint>
            <Time>2022-09-22T08:13:19.000Z</Time>
            <Position>
              <LatitudeDegrees>49.47512551210820674896240234375</LatitudeDegrees>
              <LongitudeDegrees>20.421360433101654052734375</LongitudeDegrees>
            </Position>
            <AltitudeMeters>413.79998779296875</AltitudeMeters>
            <DistanceMeters>NAN</DistanceMeters>
          </Trackpoint>
          <Trackpoint>
            <Time>2022-09-22T08:13:36.000Z</Time>
            <Position>
              <LatitudeDegrees>49.47512551210820674896240234375</LatitudeDegrees>
              <LongitudeDegrees>20.421360433101654052734375</LongitudeDegrees>
            </Position>
            <AltitudeMeters>413.79998779296875</AltitudeMeters>
            <DistanceMeters>NAN</DistanceMeters>
          </Trackpoint>
          <Trackpoint>
            <Time>2022-09-22T08:13:39.000Z</Time>
            <Position>
              <LatitudeDegrees>49.47512551210820674896240234375</LatitudeDegrees>
              <LongitudeDegrees>20.421360433101654052734375</LongitudeDegrees>
            </Position>
            <AltitudeMeters>413.79998779296875</AltitudeMeters>
            <DistanceMeters>NAN</DistanceMeters>
          </Trackpoint>
          <Trackpoint>
            <Time>2022-09-22T08:13:47.000Z</Time>
            <Position>
              <LatitudeDegrees>49.47512551210820674896240234375</LatitudeDegrees>
              <LongitudeDegrees>20.421360433101654052734375</LongitudeDegrees>
            </Position>
            <AltitudeMeters>413.79998779296875</AltitudeMeters>
            <DistanceMeters>NAN</DistanceMeters>
          </Trackpoint>
          <Trackpoint>
            <Time>2022-09-22T08:14:22.000Z</Time>
            <Position>
              <LatitudeDegrees>49.47510791011154651641845703125</LatitudeDegrees>
              <LongitudeDegrees>20.42134894989430904388427734375</LongitudeDegrees>
            </Position>
            <AltitudeMeters>413.79998779296875</AltitudeMeters>
            <DistanceMeters>NAN</DistanceMeters>
          </Trackpoint>
          <Trackpoint>
            <Time>2022-09-22T08:14:26.000Z</Time>
            <Position>
              <LatitudeDegrees>49.47513707913458347320556640625</LatitudeDegrees>
              <LongitudeDegrees>20.421289689838886260986328125</LongitudeDegrees>
            </Position>
            <AltitudeMeters>413.79998779296875</AltitudeMeters>
            <DistanceMeters>NAN</DistanceMeters>
          </Trackpoint>
          <Trackpoint>
            <Time>2022-09-22T08:14:31.000Z</Time>
            <Position>
              <LatitudeDegrees>49.47523799724876880645751953125</LatitudeDegrees>
              <LongitudeDegrees>20.42114141397178173065185546875</LongitudeDegrees>
            </Position>
            <AltitudeMeters>414</AltitudeMeters>
            <DistanceMeters>NAN</DistanceMeters>
          </Trackpoint>
          <Trackpoint>
            <Time>2022-09-22T08:14:32.000Z</Time>
            <Position>
              <LatitudeDegrees>49.47524487040936946868896484375</LatitudeDegrees>
              <LongitudeDegrees>20.421091206371784210205078125</LongitudeDegrees>
            </Position>
            <AltitudeMeters>414</AltitudeMeters>
            <DistanceMeters>NAN</DistanceMeters>
          </Trackpoint>
          <Trackpoint>
            <Time>2022-09-22T08:14:35.000Z</Time>
            <Position>
              <LatitudeDegrees>49.47525476105511188507080078125</LatitudeDegrees>
              <LongitudeDegrees>20.420950390398502349853515625</LongitudeDegrees>
            </Position>
            <AltitudeMeters>414.399993896484375</AltitudeMeters>
            <DistanceMeters>NAN</DistanceMeters>
          </Trackpoint>
          <Trackpoint>
            <Time>2022-09-22T08:14:38.000Z</Time>
            <Position>
              <LatitudeDegrees>49.47527705691754817962646484375</LatitudeDegrees>
              <LongitudeDegrees>20.4208114184439182281494140625</LongitudeDegrees>
            </Position>
            <AltitudeMeters>414.79998779296875</AltitudeMeters>
            <DistanceMeters>NAN</DistanceMeters>
          </Trackpoint>
          <Trackpoint>
            <Time>2022-09-22T08:14:42.000Z</Time>
            <Position>
              <LatitudeDegrees>49.47532005608081817626953125</LatitudeDegrees>
              <LongitudeDegrees>20.42062760330736637115478515625</LongitudeDegrees>
            </Position>
            <AltitudeMeters>415.600006103515625</AltitudeMeters>
            <DistanceMeters>NAN</DistanceMeters>
          </Trackpoint>
          <Trackpoint>
            <Time>2022-09-22T08:14:43.000Z</Time>
            <Position>
              <LatitudeDegrees>49.4753423519432544708251953125</LatitudeDegrees>
              <LongitudeDegrees>20.42058720253407955169677734375</LongitudeDegrees>
            </Position>
            <AltitudeMeters>416</AltitudeMeters>
            <DistanceMeters>NAN</DistanceMeters>
          </Trackpoint>
          <Trackpoint>
            <Time>2022-09-22T08:14:45.000Z</Time>
            <Position>
              <LatitudeDegrees>49.475368000566959381103515625</LatitudeDegrees>
              <LongitudeDegrees>20.42049852199852466583251953125</LongitudeDegrees>
            </Position>
            <AltitudeMeters>416.600006103515625</AltitudeMeters>
            <DistanceMeters>NAN</DistanceMeters>
          </Trackpoint>
          <Trackpoint>
            <Time>2022-09-22T08:14:47.000Z</Time>
            <Position>
              <LatitudeDegrees>49.4753876142203807830810546875</LatitudeDegrees>
              <LongitudeDegrees>20.420421324670314788818359375</LongitudeDegrees>
            </Position>
            <AltitudeMeters>417</AltitudeMeters>
            <DistanceMeters>NAN</DistanceMeters>
          </Trackpoint>
          <Trackpoint>
            <Time>2022-09-22T08:14:48.000Z</Time>
            <Position>
              <LatitudeDegrees>49.4753970019519329071044921875</LatitudeDegrees>
              <LongitudeDegrees>20.420386455953121185302734375</LongitudeDegrees>
            </Position>
            <AltitudeMeters>417.20001220703125</AltitudeMeters>
            <DistanceMeters>NAN</DistanceMeters>
          </Trackpoint>
          <Trackpoint>
            <Time>2022-09-22T08:14:51.000Z</Time>
            <Position>
              <LatitudeDegrees>49.475370347499847412109375</LatitudeDegrees>
              <LongitudeDegrees>20.4202572070062160491943359375</LongitudeDegrees>
            </Position>
            <AltitudeMeters>418</AltitudeMeters>
            <DistanceMeters>NAN</DistanceMeters>
          </Trackpoint>
          <Trackpoint>
            <Time>2022-09-22T08:14:53.000Z</Time>
            <Position>
              <LatitudeDegrees>49.47536925785243511199951171875</LatitudeDegrees>
              <LongitudeDegrees>20.4201539419591426849365234375</LongitudeDegrees>
            </Position>
            <AltitudeMeters>418.20001220703125</AltitudeMeters>
            <DistanceMeters>NAN</DistanceMeters>
          </Trackpoint>
          <Trackpoint>
            <Time>2022-09-22T08:14:55.000Z</Time>
            <Position>
              <LatitudeDegrees>49.47538333944976329803466796875</LatitudeDegrees>
              <LongitudeDegrees>20.42006366886198520660400390625</LongitudeDegrees>
            </Position>
            <AltitudeMeters>418.399993896484375</AltitudeMeters>
            <DistanceMeters>NAN</DistanceMeters>
          </Trackpoint>
          <Trackpoint>
            <Time>2022-09-22T08:15:00.000Z</Time>
            <Position>
              <LatitudeDegrees>49.47543731890618801116943359375</LatitudeDegrees>
              <LongitudeDegrees>20.41987876407802104949951171875</LongitudeDegrees>
            </Position>
            <AltitudeMeters>419.20001220703125</AltitudeMeters>
            <DistanceMeters>NAN</DistanceMeters>
          </Trackpoint>
          <Trackpoint>
            <Time>2022-09-22T08:15:03.000Z</Time>
            <Position>
              <LatitudeDegrees>49.4754446111619472503662109375</LatitudeDegrees>
              <LongitudeDegrees>20.41976124979555606842041015625</LongitudeDegrees>
            </Position>
            <AltitudeMeters>419.600006103515625</AltitudeMeters>
            <DistanceMeters>NAN</DistanceMeters>
          </Trackpoint>
          <Trackpoint>
            <Time>2022-09-22T08:15:09.000Z</Time>
            <Position>
              <LatitudeDegrees>49.47552985511720180511474609375</LatitudeDegrees>
              <LongitudeDegrees>20.4196144826710224151611328125</LongitudeDegrees>
            </Position>
            <AltitudeMeters>420.20001220703125</AltitudeMeters>
            <DistanceMeters>NAN</DistanceMeters>
          </Trackpoint>
          <Trackpoint>
            <Time>2022-09-22T08:15:11.000Z</Time>
            <Position>
              <LatitudeDegrees>49.4755406677722930908203125</LatitudeDegrees>
              <LongitudeDegrees>20.4195695556700229644775390625</LongitudeDegrees>
            </Position>
            <AltitudeMeters>420.399993896484375</AltitudeMeters>
            <DistanceMeters>NAN</DistanceMeters>
          </Trackpoint>
          <Trackpoint>
            <Time>2022-09-22T08:15:17.000Z</Time>
            <Position>
              <LatitudeDegrees>49.475551061332225799560546875</LatitudeDegrees>
              <LongitudeDegrees>20.4194240458309650421142578125</LongitudeDegrees>
            </Position>
            <AltitudeMeters>420.600006103515625</AltitudeMeters>
            <DistanceMeters>NAN</DistanceMeters>
          </Trackpoint>
          <Trackpoint>
            <Time>2022-09-22T08:15:25.000Z</Time>
            <Position>
              <LatitudeDegrees>49.4756038673222064971923828125</LatitudeDegrees>
              <LongitudeDegrees>20.41921827010810375213623046875</LongitudeDegrees>
            </Position>
            <AltitudeMeters>420.79998779296875</AltitudeMeters>
            <DistanceMeters>NAN</DistanceMeters>
          </Trackpoint>
          <Trackpoint>
            <Time>2022-09-22T08:15:30.000Z</Time>
            <Position>
              <LatitudeDegrees>49.4756420888006687164306640625</LatitudeDegrees>
              <LongitudeDegrees>20.41910360567271709442138671875</LongitudeDegrees>
            </Position>
            <AltitudeMeters>421</AltitudeMeters>
            <DistanceMeters>NAN</DistanceMeters>
          </Trackpoint>
          <Trackpoint>
            <Time>2022-09-22T08:15:34.000Z</Time>
            <Position>
              <LatitudeDegrees>49.47566312737762928009033203125</LatitudeDegrees>
              <LongitudeDegrees>20.4190066270530223846435546875</LongitudeDegrees>
            </Position>
            <AltitudeMeters>421</AltitudeMeters>
            <DistanceMeters>NAN</DistanceMeters>
          </Trackpoint>
          <Trackpoint>
            <Time>2022-09-22T08:15:36.000Z</Time>
            <Position>
              <LatitudeDegrees>49.4756762869656085968017578125</LatitudeDegrees>
              <LongitudeDegrees>20.4189938865602016448974609375</LongitudeDegrees>
            </Position>
            <AltitudeMeters>421.20001220703125</AltitudeMeters>
            <DistanceMeters>NAN</DistanceMeters>
          </Trackpoint>
          <Trackpoint>
            <Time>2022-09-22T08:15:41.000Z</Time>
            <Position>
              <LatitudeDegrees>49.47567938826978206634521484375</LatitudeDegrees>
              <LongitudeDegrees>20.41899346746504306793212890625</LongitudeDegrees>
            </Position>
            <AltitudeMeters>421.20001220703125</AltitudeMeters>
            <DistanceMeters>NAN</DistanceMeters>
          </Trackpoint>
          <Trackpoint>
            <Time>2022-09-22T08:15:47.000Z</Time>
            <Position>
              <LatitudeDegrees>49.47570838965475559234619140625</LatitudeDegrees>
              <LongitudeDegrees>20.41903185658156871795654296875</LongitudeDegrees>
            </Position>
            <AltitudeMeters>421</AltitudeMeters>
            <DistanceMeters>NAN</DistanceMeters>
          </Trackpoint>
          <Trackpoint>
            <Time>2022-09-22T08:15:48.000Z</Time>
            <Position>
              <LatitudeDegrees>49.47572045959532260894775390625</LatitudeDegrees>
              <LongitudeDegrees>20.4190619476139545440673828125</LongitudeDegrees>
            </Position>
            <AltitudeMeters>421</AltitudeMeters>
            <DistanceMeters>NAN</DistanceMeters>
          </Trackpoint>
          <Trackpoint>
            <Time>2022-09-22T08:15:52.000Z</Time>
            <Position>
              <LatitudeDegrees>49.47573638521134853363037109375</LatitudeDegrees>
              <LongitudeDegrees>20.41909396648406982421875</LongitudeDegrees>
            </Position>
            <AltitudeMeters>420.79998779296875</AltitudeMeters>
            <DistanceMeters>NAN</DistanceMeters>
          </Trackpoint>
          <Trackpoint>
            <Time>2022-09-22T08:15:59.000Z</Time>
            <Position>
              <LatitudeDegrees>49.4757445156574249267578125</LatitudeDegrees>
              <LongitudeDegrees>20.4190750233829021453857421875</LongitudeDegrees>
            </Position>
            <AltitudeMeters>420.79998779296875</AltitudeMeters>
            <DistanceMeters>NAN</DistanceMeters>
          </Trackpoint>
          <Trackpoint>
            <Time>2022-09-22T08:16:02.000Z</Time>
            <Position>
              <LatitudeDegrees>49.47578382678329944610595703125</LatitudeDegrees>
              <LongitudeDegrees>20.41902313940227031707763671875</LongitudeDegrees>
            </Position>
            <AltitudeMeters>421</AltitudeMeters>
            <DistanceMeters>NAN</DistanceMeters>
          </Trackpoint>
          <Trackpoint>
            <Time>2022-09-22T08:16:07.000Z</Time>
            <Position>
              <LatitudeDegrees>49.475852809846401214599609375</LatitudeDegrees>
              <LongitudeDegrees>20.4188721813261508941650390625</LongitudeDegrees>
            </Position>
            <AltitudeMeters>421</AltitudeMeters>
            <DistanceMeters>NAN</DistanceMeters>
          </Trackpoint>
          <Trackpoint>
            <Time>2022-09-22T08:16:16.000Z</Time>
            <Position>
              <LatitudeDegrees>49.47595582343637943267822265625</LatitudeDegrees>
              <LongitudeDegrees>20.4186341352760791778564453125</LongitudeDegrees>
            </Position>
            <AltitudeMeters>420.79998779296875</AltitudeMeters>
            <DistanceMeters>NAN</DistanceMeters>
          </Trackpoint>
          <Trackpoint>
            <Time>2022-09-22T08:16:23.000Z</Time>
            <Position>
              <LatitudeDegrees>49.4760596752166748046875</LatitudeDegrees>
              <LongitudeDegrees>20.41843883693218231201171875</LongitudeDegrees>
            </Position>
            <AltitudeMeters>420.79998779296875</AltitudeMeters>
            <DistanceMeters>NAN</DistanceMeters>
          </Trackpoint>
          <Trackpoint>
            <Time>2022-09-22T08:16:32.000Z</Time>
            <Position>
              <LatitudeDegrees>49.4762408919632434844970703125</LatitudeDegrees>
              <LongitudeDegrees>20.41813013143837451934814453125</LongitudeDegrees>
            </Position>
            <AltitudeMeters>420.20001220703125</AltitudeMeters>
            <DistanceMeters>NAN</DistanceMeters>
          </Trackpoint>
          <Trackpoint>
            <Time>2022-09-22T08:16:36.000Z</Time>
            <Position>
              <LatitudeDegrees>49.47635672986507415771484375</LatitudeDegrees>
              <LongitudeDegrees>20.4179660975933074951171875</LongitudeDegrees>
            </Position>
            <AltitudeMeters>420</AltitudeMeters>
            <DistanceMeters>NAN</DistanceMeters>
          </Trackpoint>
          <Trackpoint>
            <Time>2022-09-22T08:16:38.000Z</Time>
            <Position>
              <LatitudeDegrees>49.47642688639461994171142578125</LatitudeDegrees>
              <LongitudeDegrees>20.41788806207478046417236328125</LongitudeDegrees>
            </Position>
            <AltitudeMeters>419.600006103515625</AltitudeMeters>
            <DistanceMeters>NAN</DistanceMeters>
          </Trackpoint>
          <Trackpoint>
            <Time>2022-09-22T08:16:40.000Z</Time>
            <Position>
              <LatitudeDegrees>49.47650550864636898040771484375</LatitudeDegrees>
              <LongitudeDegrees>20.41780742816627025604248046875</LongitudeDegrees>
            </Position>
            <AltitudeMeters>419.20001220703125</AltitudeMeters>
            <DistanceMeters>NAN</DistanceMeters>
          </Trackpoint>
          <Trackpoint>
            <Time>2022-09-22T08:16:45.000Z</Time>
            <Position>
              <LatitudeDegrees>49.476739279925823211669921875</LatitudeDegrees>
              <LongitudeDegrees>20.41758597828447818756103515625</LongitudeDegrees>
            </Position>
            <AltitudeMeters>418.20001220703125</AltitudeMeters>
            <DistanceMeters>NAN</DistanceMeters>
          </Trackpoint>
          <Trackpoint>
            <Time>2022-09-22T08:16:50.000Z</Time>
            <Position>
              <LatitudeDegrees>49.47704211808741092681884765625</LatitudeDegrees>
              <LongitudeDegrees>20.41732010431587696075439453125</LongitudeDegrees>
            </Position>
            <AltitudeMeters>416.79998779296875</AltitudeMeters>
            <DistanceMeters>NAN</DistanceMeters>
          </Trackpoint>
          <Trackpoint>
            <Time>2022-09-22T08:16:51.000Z</Time>
            <Position>
              <LatitudeDegrees>49.47711520828306674957275390625</LatitudeDegrees>
              <LongitudeDegrees>20.417259670794010162353515625</LongitudeDegrees>
            </Position>
            <AltitudeMeters>416.399993896484375</AltitudeMeters>
            <DistanceMeters>NAN</DistanceMeters>
          </Trackpoint>
          <Trackpoint>
            <Time>2022-09-22T08:16:52.000Z</Time>
            <Position>
              <LatitudeDegrees>49.47719131596386432647705078125</LatitudeDegrees>
              <LongitudeDegrees>20.41719186119735240936279296875</LongitudeDegrees>
            </Position>
            <AltitudeMeters>415.600006103515625</AltitudeMeters>
            <DistanceMeters>NAN</DistanceMeters>
          </Trackpoint>
          <Trackpoint>
            <Time>2022-09-22T08:16:54.000Z</Time>
            <Position>
              <LatitudeDegrees>49.4773412682116031646728515625</LatitudeDegrees>
              <LongitudeDegrees>20.41704836301505565643310546875</LongitudeDegrees>
            </Position>
            <AltitudeMeters>413.79998779296875</AltitudeMeters>
            <DistanceMeters>NAN</DistanceMeters>
          </Trackpoint>
          <Trackpoint>
            <Time>2022-09-22T08:16:56.000Z</Time>
            <Position>
              <LatitudeDegrees>49.4774941541254520416259765625</LatitudeDegrees>
              <LongitudeDegrees>20.41690452955663204193115234375</LongitudeDegrees>
            </Position>
            <AltitudeMeters>412.399993896484375</AltitudeMeters>
            <DistanceMeters>NAN</DistanceMeters>
          </Trackpoint>
          <Trackpoint>
            <Time>2022-09-22T08:16:57.000Z</Time>
            <Position>
              <LatitudeDegrees>49.47754561901092529296875</LatitudeDegrees>
              <LongitudeDegrees>20.416855998337268829345703125</LongitudeDegrees>
            </Position>
            <AltitudeMeters>412</AltitudeMeters>
            <DistanceMeters>NAN</DistanceMeters>
          </Trackpoint>
          <Trackpoint>
            <Time>2022-09-22T08:16:59.000Z</Time>
            <Position>
              <LatitudeDegrees>49.47767495177686214447021484375</LatitudeDegrees>
              <LongitudeDegrees>20.41673362255096435546875</LongitudeDegrees>
            </Position>
            <AltitudeMeters>411.20001220703125</AltitudeMeters>
            <DistanceMeters>NAN</DistanceMeters>
          </Trackpoint>
          <Trackpoint>
            <Time>2022-09-22T08:17:02.000Z</Time>
            <Position>
              <LatitudeDegrees>49.47786815464496612548828125</LatitudeDegrees>
              <LongitudeDegrees>20.41653857566416263580322265625</LongitudeDegrees>
            </Position>
            <AltitudeMeters>409.79998779296875</AltitudeMeters>
            <DistanceMeters>NAN</DistanceMeters>
          </Trackpoint>
          <Trackpoint>
            <Time>2022-09-22T08:17:04.000Z</Time>
            <Position>
              <LatitudeDegrees>49.4779987446963787078857421875</LatitudeDegrees>
              <LongitudeDegrees>20.41641921736299991607666015625</LongitudeDegrees>
            </Position>
            <AltitudeMeters>408.20001220703125</AltitudeMeters>
            <DistanceMeters>NAN</DistanceMeters>
          </Trackpoint>
          <Trackpoint>
            <Time>2022-09-22T08:17:07.000Z</Time>
            <Position>
              <LatitudeDegrees>49.47819714434444904327392578125</LatitudeDegrees>
              <LongitudeDegrees>20.41622894816100597381591796875</LongitudeDegrees>
            </Position>
            <AltitudeMeters>407</AltitudeMeters>
            <DistanceMeters>NAN</DistanceMeters>
          </Trackpoint>
          <Trackpoint>
            <Time>2022-09-22T08:17:09.000Z</Time>
            <Position>
              <LatitudeDegrees>49.4783313386142253875732421875</LatitudeDegrees>
              <LongitudeDegrees>20.41610171087086200714111328125</LongitudeDegrees>
            </Position>
            <AltitudeMeters>406</AltitudeMeters>
            <DistanceMeters>NAN</DistanceMeters>
          </Trackpoint>
          <Trackpoint>
            <Time>2022-09-22T08:17:10.000Z</Time>
            <Position>
              <LatitudeDegrees>49.47839831002056598663330078125</LatitudeDegrees>
              <LongitudeDegrees>20.41604052297770977020263671875</LongitudeDegrees>
            </Position>
            <AltitudeMeters>405.600006103515625</AltitudeMeters>
            <DistanceMeters>NAN</DistanceMeters>
          </Trackpoint>
          <Trackpoint>
            <Time>2022-09-22T08:17:12.000Z</Time>
            <Position>
              <LatitudeDegrees>49.47853225283324718475341796875</LatitudeDegrees>
              <LongitudeDegrees>20.4159039817750453948974609375</LongitudeDegrees>
            </Position>
            <AltitudeMeters>404.79998779296875</AltitudeMeters>
            <DistanceMeters>NAN</DistanceMeters>
          </Trackpoint>
          <Trackpoint>
            <Time>2022-09-22T08:17:13.000Z</Time>
            <Position>
              <LatitudeDegrees>49.47860031388700008392333984375</LatitudeDegrees>
              <LongitudeDegrees>20.4158359207212924957275390625</LongitudeDegrees>
            </Position>
            <AltitudeMeters>404.399993896484375</AltitudeMeters>
            <DistanceMeters>NAN</DistanceMeters>
          </Trackpoint>
          <Trackpoint>
            <Time>2022-09-22T08:17:14.000Z</Time>
            <Position>
              <LatitudeDegrees>49.47866803966462612152099609375</LatitudeDegrees>
              <LongitudeDegrees>20.41577632538974285125732421875</LongitudeDegrees>
            </Position>
            <AltitudeMeters>404.20001220703125</AltitudeMeters>
            <DistanceMeters>NAN</DistanceMeters>
          </Trackpoint>
          <Trackpoint>
            <Time>2022-09-22T08:17:18.000Z</Time>
            <Position>
              <LatitudeDegrees>49.47892301715910434722900390625</LatitudeDegrees>
              <LongitudeDegrees>20.41554129682481288909912109375</LongitudeDegrees>
            </Position>
            <AltitudeMeters>403.399993896484375</AltitudeMeters>
            <DistanceMeters>NAN</DistanceMeters>
          </Trackpoint>
          <Trackpoint>
            <Time>2022-09-22T08:17:19.000Z</Time>
            <Position>
              <LatitudeDegrees>49.47897397913038730621337890625</LatitudeDegrees>
              <LongitudeDegrees>20.41549737565219402313232421875</LongitudeDegrees>
            </Position>
            <AltitudeMeters>403.20001220703125</AltitudeMeters>
            <DistanceMeters>NAN</DistanceMeters>
          </Trackpoint>
          <Trackpoint>
            <Time>2022-09-22T08:17:21.000Z</Time>
            <Position>
              <LatitudeDegrees>49.4790508411824703216552734375</LatitudeDegrees>
              <LongitudeDegrees>20.4154262132942676544189453125</LongitudeDegrees>
            </Position>
            <AltitudeMeters>403.20001220703125</AltitudeMeters>
            <DistanceMeters>NAN</DistanceMeters>
          </Trackpoint>
          <Trackpoint>
            <Time>2022-09-22T08:17:23.000Z</Time>
            <Position>
              <LatitudeDegrees>49.47908914647996425628662109375</LatitudeDegrees>
              <LongitudeDegrees>20.41537315584719181060791015625</LongitudeDegrees>
            </Position>
            <AltitudeMeters>403</AltitudeMeters>
            <DistanceMeters>NAN</DistanceMeters>
          </Trackpoint>
          <Trackpoint>
            <Time>2022-09-22T08:17:24.000Z</Time>
            <Position>
              <LatitudeDegrees>49.47909283451735973358154296875</LatitudeDegrees>
              <LongitudeDegrees>20.41535169817507266998291015625</LongitudeDegrees>
            </Position>
            <AltitudeMeters>403</AltitudeMeters>
            <DistanceMeters>NAN</DistanceMeters>
          </Trackpoint>
          <Trackpoint>
            <Time>2022-09-22T08:17:27.000Z</Time>
            <Position>
              <LatitudeDegrees>49.479098618030548095703125</LatitudeDegrees>
              <LongitudeDegrees>20.41527139954268932342529296875</LongitudeDegrees>
            </Position>
            <AltitudeMeters>402.79998779296875</AltitudeMeters>
            <DistanceMeters>NAN</DistanceMeters>
          </Trackpoint>
          <Trackpoint>
            <Time>2022-09-22T08:17:28.000Z</Time>
            <Position>
              <LatitudeDegrees>49.47911026887595653533935546875</LatitudeDegrees>
              <LongitudeDegrees>20.41524457745254039764404296875</LongitudeDegrees>
            </Position>
            <AltitudeMeters>402.79998779296875</AltitudeMeters>
            <DistanceMeters>NAN</DistanceMeters>
          </Trackpoint>
          <Trackpoint>
            <Time>2022-09-22T08:17:31.000Z</Time>
            <Position>
              <LatitudeDegrees>49.4791789166629314422607421875</LatitudeDegrees>
              <LongitudeDegrees>20.41518372483551502227783203125</LongitudeDegrees>
            </Position>
            <AltitudeMeters>402.79998779296875</AltitudeMeters>
            <DistanceMeters>NAN</DistanceMeters>
          </Trackpoint>
          <Trackpoint>
            <Time>2022-09-22T08:17:36.000Z</Time>
            <Position>
              <LatitudeDegrees>49.4793147034943103790283203125</LatitudeDegrees>
              <LongitudeDegrees>20.41505933739244937896728515625</LongitudeDegrees>
            </Position>
            <AltitudeMeters>402.79998779296875</AltitudeMeters>
            <DistanceMeters>NAN</DistanceMeters>
          </Trackpoint>
          <Trackpoint>
            <Time>2022-09-22T08:17:43.000Z</Time>
            <Position>
              <LatitudeDegrees>49.47948795743286609649658203125</LatitudeDegrees>
              <LongitudeDegrees>20.41488616727292537689208984375</LongitudeDegrees>
            </Position>
            <AltitudeMeters>403</AltitudeMeters>
            <DistanceMeters>NAN</DistanceMeters>
          </Trackpoint>
          <Trackpoint>
            <Time>2022-09-22T08:17:49.000Z</Time>
            <Position>
              <LatitudeDegrees>49.4796013645827770233154296875</LatitudeDegrees>
              <LongitudeDegrees>20.41476379148662090301513671875</LongitudeDegrees>
            </Position>
            <AltitudeMeters>403.20001220703125</AltitudeMeters>
            <DistanceMeters>NAN</DistanceMeters>
          </Trackpoint>
          <Trackpoint>
            <Time>2022-09-22T08:17:53.000Z</Time>
            <Position>
              <LatitudeDegrees>49.47969138622283935546875</LatitudeDegrees>
              <LongitudeDegrees>20.41468081064522266387939453125</LongitudeDegrees>
            </Position>
            <AltitudeMeters>403.20001220703125</AltitudeMeters>
            <DistanceMeters>NAN</DistanceMeters>
          </Trackpoint>
          <Trackpoint>
            <Time>2022-09-22T08:17:58.000Z</Time>
            <Position>
              <LatitudeDegrees>49.47982490994036197662353515625</LatitudeDegrees>
              <LongitudeDegrees>20.41459766216576099395751953125</LongitudeDegrees>
            </Position>
            <AltitudeMeters>403.20001220703125</AltitudeMeters>
            <DistanceMeters>NAN</DistanceMeters>
          </Trackpoint>
          <Trackpoint>
            <Time>2022-09-22T08:18:03.000Z</Time>
            <Position>
              <LatitudeDegrees>49.479962289333343505859375</LatitudeDegrees>
              <LongitudeDegrees>20.41450378485023975372314453125</LongitudeDegrees>
            </Position>
            <AltitudeMeters>403</AltitudeMeters>
            <DistanceMeters>NAN</DistanceMeters>
          </Trackpoint>
          <Trackpoint>
            <Time>2022-09-22T08:18:10.000Z</Time>
            <Position>
              <LatitudeDegrees>49.48011475615203380584716796875</LatitudeDegrees>
              <LongitudeDegrees>20.41440705768764019012451171875</LongitudeDegrees>
            </Position>
            <AltitudeMeters>403.20001220703125</AltitudeMeters>
            <DistanceMeters>NAN</DistanceMeters>
          </Trackpoint>
          <Trackpoint>
            <Time>2022-09-22T08:18:17.000Z</Time>
            <Position>
              <LatitudeDegrees>49.4802930392324924468994140625</LatitudeDegrees>
              <LongitudeDegrees>20.414339415729045867919921875</LongitudeDegrees>
            </Position>
            <AltitudeMeters>403.20001220703125</AltitudeMeters>
            <DistanceMeters>NAN</DistanceMeters>
          </Trackpoint>
          <Trackpoint>
            <Time>2022-09-22T08:18:22.000Z</Time>
            <Position>
              <LatitudeDegrees>49.4804579950869083404541015625</LatitudeDegrees>
              <LongitudeDegrees>20.414254926145076751708984375</LongitudeDegrees>
            </Position>
            <AltitudeMeters>403.399993896484375</AltitudeMeters>
            <DistanceMeters>NAN</DistanceMeters>
          </Trackpoint>
          <Trackpoint>
            <Time>2022-09-22T08:18:30.000Z</Time>
            <Position>
              <LatitudeDegrees>49.48069595731794834136962890625</LatitudeDegrees>
              <LongitudeDegrees>20.41412852704524993896484375</LongitudeDegrees>
            </Position>
            <AltitudeMeters>402.79998779296875</AltitudeMeters>
            <DistanceMeters>NAN</DistanceMeters>
          </Trackpoint>
          <Trackpoint>
            <Time>2022-09-22T08:18:40.000Z</Time>
            <Position>
              <LatitudeDegrees>49.48102151043713092803955078125</LatitudeDegrees>
              <LongitudeDegrees>20.41392677463591098785400390625</LongitudeDegrees>
            </Position>
            <AltitudeMeters>403</AltitudeMeters>
            <DistanceMeters>NAN</DistanceMeters>
          </Trackpoint>
          <Trackpoint>
            <Time>2022-09-22T08:18:47.000Z</Time>
            <Position>
              <LatitudeDegrees>49.48120121844112873077392578125</LatitudeDegrees>
              <LongitudeDegrees>20.4137595556676387786865234375</LongitudeDegrees>
            </Position>
            <AltitudeMeters>403</AltitudeMeters>
            <DistanceMeters>NAN</DistanceMeters>
          </Trackpoint>
          <Trackpoint>
            <Time>2022-09-22T08:18:50.000Z</Time>
            <Position>
              <LatitudeDegrees>49.4812703691422939300537109375</LatitudeDegrees>
              <LongitudeDegrees>20.41368789039552211761474609375</LongitudeDegrees>
            </Position>
            <AltitudeMeters>402.79998779296875</AltitudeMeters>
            <DistanceMeters>NAN</DistanceMeters>
          </Trackpoint>
          <Trackpoint>
            <Time>2022-09-22T08:18:57.000Z</Time>
            <Position>
              <LatitudeDegrees>49.48145099915564060211181640625</LatitudeDegrees>
              <LongitudeDegrees>20.41350550018250942230224609375</LongitudeDegrees>
            </Position>
            <AltitudeMeters>402.600006103515625</AltitudeMeters>
            <DistanceMeters>NAN</DistanceMeters>
          </Trackpoint>
          <Trackpoint>
            <Time>2022-09-22T08:19:05.000Z</Time>
            <Position>
              <LatitudeDegrees>49.4816545955836772918701171875</LatitudeDegrees>
              <LongitudeDegrees>20.41331053711473941802978515625</LongitudeDegrees>
            </Position>
            <AltitudeMeters>403</AltitudeMeters>
            <DistanceMeters>NAN</DistanceMeters>
          </Trackpoint>
          <Trackpoint>
            <Time>2022-09-22T08:19:08.000Z</Time>
            <Position>
              <LatitudeDegrees>49.481725506484508514404296875</LatitudeDegrees>
              <LongitudeDegrees>20.4132445715367794036865234375</LongitudeDegrees>
            </Position>
            <AltitudeMeters>403</AltitudeMeters>
            <DistanceMeters>NAN</DistanceMeters>
          </Trackpoint>
          <Trackpoint>
            <Time>2022-09-22T08:19:10.000Z</Time>
            <Position>
              <LatitudeDegrees>49.481791555881500244140625</LatitudeDegrees>
              <LongitudeDegrees>20.413187406957149505615234375</LongitudeDegrees>
            </Position>
            <AltitudeMeters>403</AltitudeMeters>
            <DistanceMeters>NAN</DistanceMeters>
          </Trackpoint>
          <Trackpoint>
            <Time>2022-09-22T08:19:11.000Z</Time>
            <Position>
              <LatitudeDegrees>49.48182550258934497833251953125</LatitudeDegrees>
              <LongitudeDegrees>20.41315798647701740264892578125</LongitudeDegrees>
            </Position>
            <AltitudeMeters>403</AltitudeMeters>
            <DistanceMeters>NAN</DistanceMeters>
          </Trackpoint>
          <Trackpoint>
            <Time>2022-09-22T08:19:19.000Z</Time>
            <Position>
              <LatitudeDegrees>49.48206958360970020294189453125</LatitudeDegrees>
              <LongitudeDegrees>20.412919186055660247802734375</LongitudeDegrees>
            </Position>
            <AltitudeMeters>402.399993896484375</AltitudeMeters>
            <DistanceMeters>NAN</DistanceMeters>
          </Trackpoint>
          <Trackpoint>
            <Time>2022-09-22T08:19:26.000Z</Time>
            <Position>
              <LatitudeDegrees>49.4822711683809757232666015625</LatitudeDegrees>
              <LongitudeDegrees>20.4127128235995769500732421875</LongitudeDegrees>
            </Position>
            <AltitudeMeters>402.79998779296875</AltitudeMeters>
            <DistanceMeters>NAN</DistanceMeters>
          </Trackpoint>
          <Trackpoint>
            <Time>2022-09-22T08:19:31.000Z</Time>
            <Position>
              <LatitudeDegrees>49.4824005849659442901611328125</LatitudeDegrees>
              <LongitudeDegrees>20.41258499957621097564697265625</LongitudeDegrees>
            </Position>
            <AltitudeMeters>403</AltitudeMeters>
            <DistanceMeters>NAN</DistanceMeters>
          </Trackpoint>
          <Trackpoint>
            <Time>2022-09-22T08:19:35.000Z</Time>
            <Position>
              <LatitudeDegrees>49.48249555192887783050537109375</LatitudeDegrees>
              <LongitudeDegrees>20.41250704787671566009521484375</LongitudeDegrees>
            </Position>
            <AltitudeMeters>403</AltitudeMeters>
            <DistanceMeters>NAN</DistanceMeters>
          </Trackpoint>
          <Trackpoint>
            <Time>2022-09-22T08:19:41.000Z</Time>
            <Position>
              <LatitudeDegrees>49.48264022357761859893798828125</LatitudeDegrees>
              <LongitudeDegrees>20.41236489079892635345458984375</LongitudeDegrees>
            </Position>
            <AltitudeMeters>403.20001220703125</AltitudeMeters>
            <DistanceMeters>NAN</DistanceMeters>
          </Trackpoint>
          <Trackpoint>
            <Time>2022-09-22T08:19:45.000Z</Time>
            <Position>
              <LatitudeDegrees>49.48273996822535991668701171875</LatitudeDegrees>
              <LongitudeDegrees>20.412266068160533905029296875</LongitudeDegrees>
            </Position>
            <AltitudeMeters>403.20001220703125</AltitudeMeters>
            <DistanceMeters>NAN</DistanceMeters>
          </Trackpoint>
          <Trackpoint>
            <Time>2022-09-22T08:19:49.000Z</Time>
            <Position>
              <LatitudeDegrees>49.48283669538795948028564453125</LatitudeDegrees>
              <LongitudeDegrees>20.412184931337833404541015625</LongitudeDegrees>
            </Position>
            <AltitudeMeters>403.600006103515625</AltitudeMeters>
            <DistanceMeters>NAN</DistanceMeters>
          </Trackpoint>
          <Trackpoint>
            <Time>2022-09-22T08:19:50.000Z</Time>
            <Position>
              <LatitudeDegrees>49.4828575663268566131591796875</LatitudeDegrees>
              <LongitudeDegrees>20.4121653176844120025634765625</LongitudeDegrees>
            </Position>
            <AltitudeMeters>403.600006103515625</AltitudeMeters>
            <DistanceMeters>NAN</DistanceMeters>
          </Trackpoint>
          <Trackpoint>
            <Time>2022-09-22T08:19:56.000Z</Time>
            <Position>
              <LatitudeDegrees>49.48299896903336048126220703125</LatitudeDegrees>
              <LongitudeDegrees>20.4120550118386745452880859375</LongitudeDegrees>
            </Position>
            <AltitudeMeters>403.79998779296875</AltitudeMeters>
            <DistanceMeters>NAN</DistanceMeters>
          </Trackpoint>
          <Trackpoint>
            <Time>2022-09-22T08:20:03.000Z</Time>
            <Position>
              <LatitudeDegrees>49.48315269313752651214599609375</LatitudeDegrees>
              <LongitudeDegrees>20.41194252669811248779296875</LongitudeDegrees>
            </Position>
            <AltitudeMeters>403.20001220703125</AltitudeMeters>
            <DistanceMeters>NAN</DistanceMeters>
          </Trackpoint>
          <Trackpoint>
            <Time>2022-09-22T08:20:09.000Z</Time>
            <Position>
              <LatitudeDegrees>49.483324773609638214111328125</LatitudeDegrees>
              <LongitudeDegrees>20.41182450950145721435546875</LongitudeDegrees>
            </Position>
            <AltitudeMeters>403.399993896484375</AltitudeMeters>
            <DistanceMeters>NAN</DistanceMeters>
          </Trackpoint>
          <Trackpoint>
            <Time>2022-09-22T08:20:14.000Z</Time>
            <Position>
              <LatitudeDegrees>49.48347036726772785186767578125</LatitudeDegrees>
              <LongitudeDegrees>20.411730296909809112548828125</LongitudeDegrees>
            </Position>
            <AltitudeMeters>403.20001220703125</AltitudeMeters>
            <DistanceMeters>NAN</DistanceMeters>
          </Trackpoint>
          <Trackpoint>
            <Time>2022-09-22T08:20:16.000Z</Time>
            <Position>
              <LatitudeDegrees>49.4835391826927661895751953125</LatitudeDegrees>
              <LongitudeDegrees>20.41168629191815853118896484375</LongitudeDegrees>
            </Position>
            <AltitudeMeters>403</AltitudeMeters>
            <DistanceMeters>NAN</DistanceMeters>
          </Trackpoint>
          <Trackpoint>
            <Time>2022-09-22T08:20:23.000Z</Time>
            <Position>
              <LatitudeDegrees>49.48374445550143718719482421875</LatitudeDegrees>
              <LongitudeDegrees>20.41158378124237060546875</LongitudeDegrees>
            </Position>
            <AltitudeMeters>402.79998779296875</AltitudeMeters>
            <DistanceMeters>NAN</DistanceMeters>
          </Trackpoint>
          <Trackpoint>
            <Time>2022-09-22T08:20:28.000Z</Time>
            <Position>
              <LatitudeDegrees>49.48392366059124469757080078125</LatitudeDegrees>
              <LongitudeDegrees>20.41148294694721698760986328125</LongitudeDegrees>
            </Position>
            <AltitudeMeters>402.20001220703125</AltitudeMeters>
            <DistanceMeters>NAN</DistanceMeters>
          </Trackpoint>
          <Trackpoint>
            <Time>2022-09-22T08:20:32.000Z</Time>
            <Position>
              <LatitudeDegrees>49.48408073745667934417724609375</LatitudeDegrees>
              <LongitudeDegrees>20.4114163108170032501220703125</LongitudeDegrees>
            </Position>
            <AltitudeMeters>402</AltitudeMeters>
            <DistanceMeters>NAN</DistanceMeters>
          </Trackpoint>
          <Trackpoint>
            <Time>2022-09-22T08:20:37.000Z</Time>
            <Position>
              <LatitudeDegrees>49.48423882015049457550048828125</LatitudeDegrees>
              <LongitudeDegrees>20.41132402606308460235595703125</LongitudeDegrees>
            </Position>
            <AltitudeMeters>401.20001220703125</AltitudeMeters>
            <DistanceMeters>NAN</DistanceMeters>
          </Trackpoint>
          <Trackpoint>
            <Time>2022-09-22T08:20:39.000Z</Time>
            <Position>
              <LatitudeDegrees>49.4842985831201076507568359375</LatitudeDegrees>
              <LongitudeDegrees>20.41128898970782756805419921875</LongitudeDegrees>
            </Position>
            <AltitudeMeters>401</AltitudeMeters>
            <DistanceMeters>NAN</DistanceMeters>
          </Trackpoint>
          <Trackpoint>
            <Time>2022-09-22T08:20:44.000Z</Time>
            <Position>
              <LatitudeDegrees>49.4844293408095836639404296875</LatitudeDegrees>
              <LongitudeDegrees>20.411230735480785369873046875</LongitudeDegrees>
            </Position>
            <AltitudeMeters>400.600006103515625</AltitudeMeters>
            <DistanceMeters>NAN</DistanceMeters>
          </Trackpoint>
          <Trackpoint>
            <Time>2022-09-22T08:20:48.000Z</Time>
            <Position>
              <LatitudeDegrees>49.48447653092443943023681640625</LatitudeDegrees>
              <LongitudeDegrees>20.4111983813345432281494140625</LongitudeDegrees>
            </Position>
            <AltitudeMeters>400.399993896484375</AltitudeMeters>
            <DistanceMeters>NAN</DistanceMeters>
          </Trackpoint>
          <Trackpoint>
            <Time>2022-09-22T08:20:49.000Z</Time>
            <Position>
              <LatitudeDegrees>49.48448650538921356201171875</LatitudeDegrees>
              <LongitudeDegrees>20.4111983813345432281494140625</LongitudeDegrees>
            </Position>
            <AltitudeMeters>400.399993896484375</AltitudeMeters>
            <DistanceMeters>NAN</DistanceMeters>
          </Trackpoint>
          <Trackpoint>
            <Time>2022-09-22T08:20:50.000Z</Time>
            <Position>
              <LatitudeDegrees>49.48449614457786083221435546875</LatitudeDegrees>
              <LongitudeDegrees>20.41119729168713092803955078125</LongitudeDegrees>
            </Position>
            <AltitudeMeters>400.399993896484375</AltitudeMeters>
            <DistanceMeters>NAN</DistanceMeters>
          </Trackpoint>
          <Trackpoint>
            <Time>2022-09-22T08:20:53.000Z</Time>
            <Position>
              <LatitudeDegrees>49.4845354557037353515625</LatitudeDegrees>
              <LongitudeDegrees>20.4111826233565807342529296875</LongitudeDegrees>
            </Position>
            <AltitudeMeters>400.399993896484375</AltitudeMeters>
            <DistanceMeters>NAN</DistanceMeters>
          </Trackpoint>
          <Trackpoint>
            <Time>2022-09-22T08:20:56.000Z</Time>
            <Position>
              <LatitudeDegrees>49.4846100546419620513916015625</LatitudeDegrees>
              <LongitudeDegrees>20.41112654842436313629150390625</LongitudeDegrees>
            </Position>
            <AltitudeMeters>400.20001220703125</AltitudeMeters>
            <DistanceMeters>NAN</DistanceMeters>
          </Trackpoint>
          <Trackpoint>
            <Time>2022-09-22T08:20:58.000Z</Time>
            <Position>
              <LatitudeDegrees>49.4846804626286029815673828125</LatitudeDegrees>
              <LongitudeDegrees>20.41108748875558376312255859375</LongitudeDegrees>
            </Position>
            <AltitudeMeters>400.20001220703125</AltitudeMeters>
            <DistanceMeters>NAN</DistanceMeters>
          </Trackpoint>
          <Trackpoint>
            <Time>2022-09-22T08:21:02.000Z</Time>
            <Position>
              <LatitudeDegrees>49.48482270352542400360107421875</LatitudeDegrees>
              <LongitudeDegrees>20.4109978862106800079345703125</LongitudeDegrees>
            </Position>
            <AltitudeMeters>400.20001220703125</AltitudeMeters>
            <DistanceMeters>NAN</DistanceMeters>
          </Trackpoint>
          <Trackpoint>
            <Time>2022-09-22T08:21:10.000Z</Time>
            <Position>
              <LatitudeDegrees>49.48508354835212230682373046875</LatitudeDegrees>
              <LongitudeDegrees>20.410834439098834991455078125</LongitudeDegrees>
            </Position>
            <AltitudeMeters>399.79998779296875</AltitudeMeters>
            <DistanceMeters>NAN</DistanceMeters>
          </Trackpoint>
          <Trackpoint>
            <Time>2022-09-22T08:21:13.000Z</Time>
            <Position>
              <LatitudeDegrees>49.485186897218227386474609375</LatitudeDegrees>
              <LongitudeDegrees>20.41075841523706912994384765625</LongitudeDegrees>
            </Position>
            <AltitudeMeters>399.79998779296875</AltitudeMeters>
            <DistanceMeters>NAN</DistanceMeters>
          </Trackpoint>
          <Trackpoint>
            <Time>2022-09-22T08:21:20.000Z</Time>
            <Position>
              <LatitudeDegrees>49.4854281283915042877197265625</LatitudeDegrees>
              <LongitudeDegrees>20.41056429035961627960205078125</LongitudeDegrees>
            </Position>
            <AltitudeMeters>399.600006103515625</AltitudeMeters>
            <DistanceMeters>NAN</DistanceMeters>
          </Trackpoint>
          <Trackpoint>
            <Time>2022-09-22T08:21:28.000Z</Time>
            <Position>
              <LatitudeDegrees>49.4856916554272174835205078125</LatitudeDegrees>
              <LongitudeDegrees>20.41039514355361461639404296875</LongitudeDegrees>
            </Position>
            <AltitudeMeters>399.399993896484375</AltitudeMeters>
            <DistanceMeters>NAN</DistanceMeters>
          </Trackpoint>
          <Trackpoint>
            <Time>2022-09-22T08:21:37.000Z</Time>
            <Position>
              <LatitudeDegrees>49.4860091619193553924560546875</LatitudeDegrees>
              <LongitudeDegrees>20.410185344517230987548828125</LongitudeDegrees>
            </Position>
            <AltitudeMeters>399.20001220703125</AltitudeMeters>
            <DistanceMeters>NAN</DistanceMeters>
          </Trackpoint>
          <Trackpoint>
            <Time>2022-09-22T08:21:39.000Z</Time>
            <Position>
              <LatitudeDegrees>49.4860819168388843536376953125</LatitudeDegrees>
              <LongitudeDegrees>20.41012709029018878936767578125</LongitudeDegrees>
            </Position>
            <AltitudeMeters>399.20001220703125</AltitudeMeters>
            <DistanceMeters>NAN</DistanceMeters>
          </Trackpoint>
          <Trackpoint>
            <Time>2022-09-22T08:21:45.000Z</Time>
            <Position>
              <LatitudeDegrees>49.48628400452435016632080078125</LatitudeDegrees>
              <LongitudeDegrees>20.40995811112225055694580078125</LongitudeDegrees>
            </Position>
            <AltitudeMeters>399</AltitudeMeters>
            <DistanceMeters>NAN</DistanceMeters>
          </Trackpoint>
          <Trackpoint>
            <Time>2022-09-22T08:21:52.000Z</Time>
            <Position>
              <LatitudeDegrees>49.48654686100780963897705078125</LatitudeDegrees>
              <LongitudeDegrees>20.40975342504680156707763671875</LongitudeDegrees>
            </Position>
            <AltitudeMeters>398.79998779296875</AltitudeMeters>
            <DistanceMeters>NAN</DistanceMeters>
          </Trackpoint>
          <Trackpoint>
            <Time>2022-09-22T08:22:00.000Z</Time>
            <Position>
              <LatitudeDegrees>49.486785493791103363037109375</LatitudeDegrees>
              <LongitudeDegrees>20.4095447994768619537353515625</LongitudeDegrees>
            </Position>
            <AltitudeMeters>398.79998779296875</AltitudeMeters>
            <DistanceMeters>NAN</DistanceMeters>
          </Trackpoint>
          <Trackpoint>
            <Time>2022-09-22T08:22:07.000Z</Time>
            <Position>
              <LatitudeDegrees>49.4870297424495220184326171875</LatitudeDegrees>
              <LongitudeDegrees>20.40934790857136249542236328125</LongitudeDegrees>
            </Position>
            <AltitudeMeters>398.600006103515625</AltitudeMeters>
            <DistanceMeters>NAN</DistanceMeters>
          </Trackpoint>
          <Trackpoint>
            <Time>2022-09-22T08:22:09.000Z</Time>
            <Position>
              <LatitudeDegrees>49.487089924514293670654296875</LatitudeDegrees>
              <LongitudeDegrees>20.4092909954488277435302734375</LongitudeDegrees>
            </Position>
            <AltitudeMeters>398.600006103515625</AltitudeMeters>
            <DistanceMeters>NAN</DistanceMeters>
          </Trackpoint>
          <Trackpoint>
            <Time>2022-09-22T08:22:14.000Z</Time>
            <Position>
              <LatitudeDegrees>49.48724859394133090972900390625</LatitudeDegrees>
              <LongitudeDegrees>20.4091723076999187469482421875</LongitudeDegrees>
            </Position>
            <AltitudeMeters>398.600006103515625</AltitudeMeters>
            <DistanceMeters>NAN</DistanceMeters>
          </Trackpoint>
          <Trackpoint>
            <Time>2022-09-22T08:22:20.000Z</Time>
            <Position>
              <LatitudeDegrees>49.487431235611438751220703125</LatitudeDegrees>
              <LongitudeDegrees>20.40900953114032745361328125</LongitudeDegrees>
            </Position>
            <AltitudeMeters>398.399993896484375</AltitudeMeters>
            <DistanceMeters>NAN</DistanceMeters>
          </Trackpoint>
          <Trackpoint>
            <Time>2022-09-22T08:22:24.000Z</Time>
            <Position>
              <LatitudeDegrees>49.4875601492822170257568359375</LatitudeDegrees>
              <LongitudeDegrees>20.4088940285146236419677734375</LongitudeDegrees>
            </Position>
            <AltitudeMeters>398.399993896484375</AltitudeMeters>
            <DistanceMeters>NAN</DistanceMeters>
          </Trackpoint>
          <Trackpoint>
            <Time>2022-09-22T08:22:25.000Z</Time>
            <Position>
              <LatitudeDegrees>49.4875889830291271209716796875</LatitudeDegrees>
              <LongitudeDegrees>20.40887215174734592437744140625</LongitudeDegrees>
            </Position>
            <AltitudeMeters>398.600006103515625</AltitudeMeters>
            <DistanceMeters>NAN</DistanceMeters>
          </Trackpoint>
          <Trackpoint>
            <Time>2022-09-22T08:22:32.000Z</Time>
            <Position>
              <LatitudeDegrees>49.48778335936367511749267578125</LatitudeDegrees>
              <LongitudeDegrees>20.40870149619877338409423828125</LongitudeDegrees>
            </Position>
            <AltitudeMeters>398.600006103515625</AltitudeMeters>
            <DistanceMeters>NAN</DistanceMeters>
          </Trackpoint>
          <Trackpoint>
            <Time>2022-09-22T08:22:36.000Z</Time>
            <Position>
              <LatitudeDegrees>49.487912692129611968994140625</LatitudeDegrees>
              <LongitudeDegrees>20.4085842333734035491943359375</LongitudeDegrees>
            </Position>
            <AltitudeMeters>398.399993896484375</AltitudeMeters>
            <DistanceMeters>NAN</DistanceMeters>
          </Trackpoint>
          <Trackpoint>
            <Time>2022-09-22T08:22:42.000Z</Time>
            <Position>
              <LatitudeDegrees>49.4881143607199192047119140625</LatitudeDegrees>
              <LongitudeDegrees>20.4084125719964504241943359375</LongitudeDegrees>
            </Position>
            <AltitudeMeters>398.20001220703125</AltitudeMeters>
            <DistanceMeters>NAN</DistanceMeters>
          </Trackpoint>
          <Trackpoint>
            <Time>2022-09-22T08:22:51.000Z</Time>
            <Position>
              <LatitudeDegrees>49.48839406482875347137451171875</LatitudeDegrees>
              <LongitudeDegrees>20.40819020010530948638916015625</LongitudeDegrees>
            </Position>
            <AltitudeMeters>398.20001220703125</AltitudeMeters>
            <DistanceMeters>NAN</DistanceMeters>
          </Trackpoint>
          <Trackpoint>
            <Time>2022-09-22T08:22:54.000Z</Time>
            <Position>
              <LatitudeDegrees>49.4884875230491161346435546875</LatitudeDegrees>
              <LongitudeDegrees>20.40811325423419475555419921875</LongitudeDegrees>
            </Position>
            <AltitudeMeters>398</AltitudeMeters>
            <DistanceMeters>NAN</DistanceMeters>
          </Trackpoint>
          <Trackpoint>
            <Time>2022-09-22T08:22:59.000Z</Time>
            <Position>
              <LatitudeDegrees>49.48862020857632160186767578125</LatitudeDegrees>
              <LongitudeDegrees>20.40800563059747219085693359375</LongitudeDegrees>
            </Position>
            <AltitudeMeters>397.79998779296875</AltitudeMeters>
            <DistanceMeters>NAN</DistanceMeters>
          </Trackpoint>
          <Trackpoint>
            <Time>2022-09-22T08:23:01.000Z</Time>
            <Position>
              <LatitudeDegrees>49.48867217637598514556884765625</LatitudeDegrees>
              <LongitudeDegrees>20.40796657092869281768798828125</LongitudeDegrees>
            </Position>
            <AltitudeMeters>397.600006103515625</AltitudeMeters>
            <DistanceMeters>NAN</DistanceMeters>
          </Trackpoint>
          <Trackpoint>
            <Time>2022-09-22T08:23:04.000Z</Time>
            <Position>
              <LatitudeDegrees>49.4887416623532772064208984375</LatitudeDegrees>
              <LongitudeDegrees>20.40790689177811145782470703125</LongitudeDegrees>
            </Position>
            <AltitudeMeters>397.600006103515625</AltitudeMeters>
            <DistanceMeters>NAN</DistanceMeters>
          </Trackpoint>
          <Trackpoint>
            <Time>2022-09-22T08:23:09.000Z</Time>
            <Position>
              <LatitudeDegrees>49.48884568177163600921630859375</LatitudeDegrees>
              <LongitudeDegrees>20.40782944299280643463134765625</LongitudeDegrees>
            </Position>
            <AltitudeMeters>397.399993896484375</AltitudeMeters>
            <DistanceMeters>NAN</DistanceMeters>
          </Trackpoint>
          <Trackpoint>
            <Time>2022-09-22T08:23:11.000Z</Time>
            <Position>
              <LatitudeDegrees>49.4888875074684619903564453125</LatitudeDegrees>
              <LongitudeDegrees>20.407788790762424468994140625</LongitudeDegrees>
            </Position>
            <AltitudeMeters>397.399993896484375</AltitudeMeters>
            <DistanceMeters>NAN</DistanceMeters>
          </Trackpoint>
          <Trackpoint>
            <Time>2022-09-22T08:23:12.000Z</Time>
            <Position>
              <LatitudeDegrees>49.4889069534838199615478515625</LatitudeDegrees>
              <LongitudeDegrees>20.40777361951768398284912109375</LongitudeDegrees>
            </Position>
            <AltitudeMeters>397.399993896484375</AltitudeMeters>
            <DistanceMeters>NAN</DistanceMeters>
          </Trackpoint>
          <Trackpoint>
            <Time>2022-09-22T08:23:15.000Z</Time>
            <Position>
              <LatitudeDegrees>49.488974511623382568359375</LatitudeDegrees>
              <LongitudeDegrees>20.407726764678955078125</LongitudeDegrees>
            </Position>
            <AltitudeMeters>397.600006103515625</AltitudeMeters>
            <DistanceMeters>NAN</DistanceMeters>
          </Trackpoint>
          <Trackpoint>
            <Time>2022-09-22T08:23:22.000Z</Time>
            <Position>
              <LatitudeDegrees>49.48918028734624385833740234375</LatitudeDegrees>
              <LongitudeDegrees>20.40756641887128353118896484375</LongitudeDegrees>
            </Position>
            <AltitudeMeters>397.399993896484375</AltitudeMeters>
            <DistanceMeters>NAN</DistanceMeters>
          </Trackpoint>
          <Trackpoint>
            <Time>2022-09-22T08:23:26.000Z</Time>
            <Position>
              <LatitudeDegrees>49.48928170837461948394775390625</LatitudeDegrees>
              <LongitudeDegrees>20.40749299339950084686279296875</LongitudeDegrees>
            </Position>
            <AltitudeMeters>397.399993896484375</AltitudeMeters>
            <DistanceMeters>NAN</DistanceMeters>
          </Trackpoint>
          <Trackpoint>
            <Time>2022-09-22T08:23:30.000Z</Time>
            <Position>
              <LatitudeDegrees>49.48937541805207729339599609375</LatitudeDegrees>
              <LongitudeDegrees>20.4074241779744625091552734375</LongitudeDegrees>
            </Position>
            <AltitudeMeters>397.600006103515625</AltitudeMeters>
            <DistanceMeters>NAN</DistanceMeters>
          </Trackpoint>
          <Trackpoint>
            <Time>2022-09-22T08:23:33.000Z</Time>
            <Position>
              <LatitudeDegrees>49.48942185379564762115478515625</LatitudeDegrees>
              <LongitudeDegrees>20.40738520212471485137939453125</LongitudeDegrees>
            </Position>
            <AltitudeMeters>397.600006103515625</AltitudeMeters>
            <DistanceMeters>NAN</DistanceMeters>
          </Trackpoint>
          <Trackpoint>
            <Time>2022-09-22T08:23:37.000Z</Time>
            <Position>
              <LatitudeDegrees>49.4894819520413875579833984375</LatitudeDegrees>
              <LongitudeDegrees>20.40732376277446746826171875</LongitudeDegrees>
            </Position>
            <AltitudeMeters>397.79998779296875</AltitudeMeters>
            <DistanceMeters>NAN</DistanceMeters>
          </Trackpoint>
          <Trackpoint>
            <Time>2022-09-22T08:23:44.000Z</Time>
            <Position>
              <LatitudeDegrees>49.4896651804447174072265625</LatitudeDegrees>
              <LongitudeDegrees>20.40719007141888141632080078125</LongitudeDegrees>
            </Position>
            <AltitudeMeters>397.79998779296875</AltitudeMeters>
            <DistanceMeters>NAN</DistanceMeters>
          </Trackpoint>
          <Trackpoint>
            <Time>2022-09-22T08:23:50.000Z</Time>
            <Position>
              <LatitudeDegrees>49.48982167057693004608154296875</LatitudeDegrees>
              <LongitudeDegrees>20.407101474702358245849609375</LongitudeDegrees>
            </Position>
            <AltitudeMeters>398</AltitudeMeters>
            <DistanceMeters>NAN</DistanceMeters>
          </Trackpoint>
          <Trackpoint>
            <Time>2022-09-22T08:23:55.000Z</Time>
            <Position>
              <LatitudeDegrees>49.48992862366139888763427734375</LatitudeDegrees>
              <LongitudeDegrees>20.407005585730075836181640625</LongitudeDegrees>
            </Position>
            <AltitudeMeters>398.20001220703125</AltitudeMeters>
            <DistanceMeters>NAN</DistanceMeters>
          </Trackpoint>
          <Trackpoint>
            <Time>2022-09-22T08:24:00.000Z</Time>
            <Position>
              <LatitudeDegrees>49.490051753818988800048828125</LatitudeDegrees>
              <LongitudeDegrees>20.4069172404706478118896484375</LongitudeDegrees>
            </Position>
            <AltitudeMeters>398.399993896484375</AltitudeMeters>
            <DistanceMeters>NAN</DistanceMeters>
          </Trackpoint>
          <Trackpoint>
            <Time>2022-09-22T08:24:03.000Z</Time>
            <Position>
              <LatitudeDegrees>49.49014554731547832489013671875</LatitudeDegrees>
              <LongitudeDegrees>20.40684071369469165802001953125</LongitudeDegrees>
            </Position>
            <AltitudeMeters>398.600006103515625</AltitudeMeters>
            <DistanceMeters>NAN</DistanceMeters>
          </Trackpoint>
          <Trackpoint>
            <Time>2022-09-22T08:24:08.000Z</Time>
            <Position>
              <LatitudeDegrees>49.49032357893884181976318359375</LatitudeDegrees>
              <LongitudeDegrees>20.40673309005796909332275390625</LongitudeDegrees>
            </Position>
            <AltitudeMeters>398.600006103515625</AltitudeMeters>
            <DistanceMeters>NAN</DistanceMeters>
          </Trackpoint>
          <Trackpoint>
            <Time>2022-09-22T08:24:15.000Z</Time>
            <Position>
              <LatitudeDegrees>49.4905172847211360931396484375</LatitudeDegrees>
              <LongitudeDegrees>20.40658255107700824737548828125</LongitudeDegrees>
            </Position>
            <AltitudeMeters>398.79998779296875</AltitudeMeters>
            <DistanceMeters>NAN</DistanceMeters>
          </Trackpoint>
          <Trackpoint>
            <Time>2022-09-22T08:24:22.000Z</Time>
            <Position>
              <LatitudeDegrees>49.49074166826903820037841796875</LatitudeDegrees>
              <LongitudeDegrees>20.40641876868903636932373046875</LongitudeDegrees>
            </Position>
            <AltitudeMeters>399</AltitudeMeters>
            <DistanceMeters>NAN</DistanceMeters>
          </Trackpoint>
          <Trackpoint>
            <Time>2022-09-22T08:24:23.000Z</Time>
            <Position>
              <LatitudeDegrees>49.49077268131077289581298828125</LatitudeDegrees>
              <LongitudeDegrees>20.40639881975948810577392578125</LongitudeDegrees>
            </Position>
            <AltitudeMeters>399</AltitudeMeters>
            <DistanceMeters>NAN</DistanceMeters>
          </Trackpoint>
          <Trackpoint>
            <Time>2022-09-22T08:24:29.000Z</Time>
            <Position>
              <LatitudeDegrees>49.4909303449094295501708984375</LatitudeDegrees>
              <LongitudeDegrees>20.406285412609577178955078125</LongitudeDegrees>
            </Position>
            <AltitudeMeters>399.20001220703125</AltitudeMeters>
            <DistanceMeters>NAN</DistanceMeters>
          </Trackpoint>
          <Trackpoint>
            <Time>2022-09-22T08:24:36.000Z</Time>
            <Position>
              <LatitudeDegrees>49.4911288283765316009521484375</LatitudeDegrees>
              <LongitudeDegrees>20.40614149533212184906005859375</LongitudeDegrees>
            </Position>
            <AltitudeMeters>399.600006103515625</AltitudeMeters>
            <DistanceMeters>NAN</DistanceMeters>
          </Trackpoint>
          <Trackpoint>
            <Time>2022-09-22T08:24:45.000Z</Time>
            <Position>
              <LatitudeDegrees>49.49136100709438323974609375</LatitudeDegrees>
              <LongitudeDegrees>20.4059932194650173187255859375</LongitudeDegrees>
            </Position>
            <AltitudeMeters>399.399993896484375</AltitudeMeters>
            <DistanceMeters>NAN</DistanceMeters>
          </Trackpoint>
          <Trackpoint>
            <Time>2022-09-22T08:24:50.000Z</Time>
            <Position>
              <LatitudeDegrees>49.4915036670863628387451171875</LatitudeDegrees>
              <LongitudeDegrees>20.40590914897620677947998046875</LongitudeDegrees>
            </Position>
            <AltitudeMeters>399.20001220703125</AltitudeMeters>
            <DistanceMeters>NAN</DistanceMeters>
          </Trackpoint>
          <Trackpoint>
            <Time>2022-09-22T08:24:51.000Z</Time>
            <Position>
              <LatitudeDegrees>49.491530992090702056884765625</LatitudeDegrees>
              <LongitudeDegrees>20.405893810093402862548828125</LongitudeDegrees>
            </Position>
            <AltitudeMeters>399.20001220703125</AltitudeMeters>
            <DistanceMeters>NAN</DistanceMeters>
          </Trackpoint>
          <Trackpoint>
            <Time>2022-09-22T08:24:58.000Z</Time>
            <Position>
              <LatitudeDegrees>49.491723440587520599365234375</LatitudeDegrees>
              <LongitudeDegrees>20.40579264052212238311767578125</LongitudeDegrees>
            </Position>
            <AltitudeMeters>399.20001220703125</AltitudeMeters>
            <DistanceMeters>NAN</DistanceMeters>
          </Trackpoint>
          <Trackpoint>
            <Time>2022-09-22T08:24:59.000Z</Time>
            <Position>
              <LatitudeDegrees>49.4917554594576358795166015625</LatitudeDegrees>
              <LongitudeDegrees>20.405775122344493865966796875</LongitudeDegrees>
            </Position>
            <AltitudeMeters>399.20001220703125</AltitudeMeters>
            <DistanceMeters>NAN</DistanceMeters>
          </Trackpoint>
          <Trackpoint>
            <Time>2022-09-22T08:25:09.000Z</Time>
            <Position>
              <LatitudeDegrees>49.49206600897014141082763671875</LatitudeDegrees>
              <LongitudeDegrees>20.405610166490077972412109375</LongitudeDegrees>
            </Position>
            <AltitudeMeters>398.79998779296875</AltitudeMeters>
            <DistanceMeters>NAN</DistanceMeters>
          </Trackpoint>
          <Trackpoint>
            <Time>2022-09-22T08:25:14.000Z</Time>
            <Position>
              <LatitudeDegrees>49.4922493211925029754638671875</LatitudeDegrees>
              <LongitudeDegrees>20.40552944876253604888916015625</LongitudeDegrees>
            </Position>
            <AltitudeMeters>398.79998779296875</AltitudeMeters>
            <DistanceMeters>NAN</DistanceMeters>
          </Trackpoint>
          <Trackpoint>
            <Time>2022-09-22T08:25:22.000Z</Time>
            <Position>
              <LatitudeDegrees>49.49251628480851650238037109375</LatitudeDegrees>
              <LongitudeDegrees>20.405413694679737091064453125</LongitudeDegrees>
            </Position>
            <AltitudeMeters>398.79998779296875</AltitudeMeters>
            <DistanceMeters>NAN</DistanceMeters>
          </Trackpoint>
          <Trackpoint>
            <Time>2022-09-22T08:25:25.000Z</Time>
            <Position>
              <LatitudeDegrees>49.4926006905734539031982421875</LatitudeDegrees>
              <LongitudeDegrees>20.4053840227425098419189453125</LongitudeDegrees>
            </Position>
            <AltitudeMeters>398.600006103515625</AltitudeMeters>
            <DistanceMeters>NAN</DistanceMeters>
          </Trackpoint>
          <Trackpoint>
            <Time>2022-09-22T08:25:27.000Z</Time>
            <Position>
              <LatitudeDegrees>49.4926620461046695709228515625</LatitudeDegrees>
              <LongitudeDegrees>20.405364744365215301513671875</LongitudeDegrees>
            </Position>
            <AltitudeMeters>398.399993896484375</AltitudeMeters>
            <DistanceMeters>NAN</DistanceMeters>
          </Trackpoint>
          <Trackpoint>
            <Time>2022-09-22T08:25:36.000Z</Time>
            <Position>
              <LatitudeDegrees>49.49291593395173549652099609375</LatitudeDegrees>
              <LongitudeDegrees>20.4052586294710636138916015625</LongitudeDegrees>
            </Position>
            <AltitudeMeters>398.20001220703125</AltitudeMeters>
            <DistanceMeters>NAN</DistanceMeters>
          </Trackpoint>
          <Trackpoint>
            <Time>2022-09-22T08:25:44.000Z</Time>
            <Position>
              <LatitudeDegrees>49.49313419871032238006591796875</LatitudeDegrees>
              <LongitudeDegrees>20.4051741398870944976806640625</LongitudeDegrees>
            </Position>
            <AltitudeMeters>398</AltitudeMeters>
            <DistanceMeters>NAN</DistanceMeters>
          </Trackpoint>
          <Trackpoint>
            <Time>2022-09-22T08:25:51.000Z</Time>
            <Position>
              <LatitudeDegrees>49.49332580901682376861572265625</LatitudeDegrees>
              <LongitudeDegrees>20.4050976969301700592041015625</LongitudeDegrees>
            </Position>
            <AltitudeMeters>398.20001220703125</AltitudeMeters>
            <DistanceMeters>NAN</DistanceMeters>
          </Trackpoint>
          <Trackpoint>
            <Time>2022-09-22T08:25:56.000Z</Time>
            <Position>
              <LatitudeDegrees>49.493502080440521240234375</LatitudeDegrees>
              <LongitudeDegrees>20.4050256125628948211669921875</LongitudeDegrees>
            </Position>
            <AltitudeMeters>398</AltitudeMeters>
            <DistanceMeters>NAN</DistanceMeters>
          </Trackpoint>
          <Trackpoint>
            <Time>2022-09-22T08:26:03.000Z</Time>
            <Position>
              <LatitudeDegrees>49.4937248714268207550048828125</LatitudeDegrees>
              <LongitudeDegrees>20.4049337469041347503662109375</LongitudeDegrees>
            </Position>
            <AltitudeMeters>398</AltitudeMeters>
            <DistanceMeters>NAN</DistanceMeters>
          </Trackpoint>
          <Trackpoint>
            <Time>2022-09-22T08:26:04.000Z</Time>
            <Position>
              <LatitudeDegrees>49.49375890195369720458984375</LatitudeDegrees>
              <LongitudeDegrees>20.40491807274520397186279296875</LongitudeDegrees>
            </Position>
            <AltitudeMeters>398</AltitudeMeters>
            <DistanceMeters>NAN</DistanceMeters>
          </Trackpoint>
          <Trackpoint>
            <Time>2022-09-22T08:26:10.000Z</Time>
            <Position>
              <LatitudeDegrees>49.4939593970775604248046875</LatitudeDegrees>
              <LongitudeDegrees>20.40484900586307048797607421875</LongitudeDegrees>
            </Position>
            <AltitudeMeters>398</AltitudeMeters>
            <DistanceMeters>NAN</DistanceMeters>
          </Trackpoint>
          <Trackpoint>
            <Time>2022-09-22T08:26:16.000Z</Time>
            <Position>
              <LatitudeDegrees>49.49412502348423004150390625</LatitudeDegrees>
              <LongitudeDegrees>20.40478211827576160430908203125</LongitudeDegrees>
            </Position>
            <AltitudeMeters>397.79998779296875</AltitudeMeters>
            <DistanceMeters>NAN</DistanceMeters>
          </Trackpoint>
          <Trackpoint>
            <Time>2022-09-22T08:26:22.000Z</Time>
            <Position>
              <LatitudeDegrees>49.494284950196743011474609375</LatitudeDegrees>
              <LongitudeDegrees>20.404731072485446929931640625</LongitudeDegrees>
            </Position>
            <AltitudeMeters>397.79998779296875</AltitudeMeters>
            <DistanceMeters>NAN</DistanceMeters>
          </Trackpoint>
          <Trackpoint>
            <Time>2022-09-22T08:26:25.000Z</Time>
            <Position>
              <LatitudeDegrees>49.49436600320041179656982421875</LatitudeDegrees>
              <LongitudeDegrees>20.4047079384326934814453125</LongitudeDegrees>
            </Position>
            <AltitudeMeters>397.79998779296875</AltitudeMeters>
            <DistanceMeters>NAN</DistanceMeters>
          </Trackpoint>
          <Trackpoint>
            <Time>2022-09-22T08:26:32.000Z</Time>
            <Position>
              <LatitudeDegrees>49.49454923160374164581298828125</LatitudeDegrees>
              <LongitudeDegrees>20.40465689264237880706787109375</LongitudeDegrees>
            </Position>
            <AltitudeMeters>397.79998779296875</AltitudeMeters>
            <DistanceMeters>NAN</DistanceMeters>
          </Trackpoint>
          <Trackpoint>
            <Time>2022-09-22T08:26:39.000Z</Time>
            <Position>
              <LatitudeDegrees>49.49471376836299896240234375</LatitudeDegrees>
              <LongitudeDegrees>20.4046192578971385955810546875</LongitudeDegrees>
            </Position>
            <AltitudeMeters>397.399993896484375</AltitudeMeters>
            <DistanceMeters>NAN</DistanceMeters>
          </Trackpoint>
          <Trackpoint>
            <Time>2022-09-22T08:26:46.000Z</Time>
            <Position>
              <LatitudeDegrees>49.49487411417067050933837890625</LatitudeDegrees>
              <LongitudeDegrees>20.404574163258075714111328125</LongitudeDegrees>
            </Position>
            <AltitudeMeters>397.20001220703125</AltitudeMeters>
            <DistanceMeters>NAN</DistanceMeters>
          </Trackpoint>
          <Trackpoint>
            <Time>2022-09-22T08:26:48.000Z</Time>
            <Position>
              <LatitudeDegrees>49.494919963181018829345703125</LatitudeDegrees>
              <LongitudeDegrees>20.40455580689013004302978515625</LongitudeDegrees>
            </Position>
            <AltitudeMeters>397</AltitudeMeters>
            <DistanceMeters>NAN</DistanceMeters>
          </Trackpoint>
          <Trackpoint>
            <Time>2022-09-22T08:26:51.000Z</Time>
            <Position>
              <LatitudeDegrees>49.495009146630764007568359375</LatitudeDegrees>
              <LongitudeDegrees>20.40452747605741024017333984375</LongitudeDegrees>
            </Position>
            <AltitudeMeters>396.79998779296875</AltitudeMeters>
            <DistanceMeters>NAN</DistanceMeters>
          </Trackpoint>
          <Trackpoint>
            <Time>2022-09-22T08:26:55.000Z</Time>
            <Position>
              <LatitudeDegrees>49.4951139204204082489013671875</LatitudeDegrees>
              <LongitudeDegrees>20.40449394844472408294677734375</LongitudeDegrees>
            </Position>
            <AltitudeMeters>396.79998779296875</AltitudeMeters>
            <DistanceMeters>NAN</DistanceMeters>
          </Trackpoint>
          <Trackpoint>
            <Time>2022-09-22T08:27:04.000Z</Time>
            <Position>
              <LatitudeDegrees>49.49536018073558807373046875</LatitudeDegrees>
              <LongitudeDegrees>20.40442119352519512176513671875</LongitudeDegrees>
            </Position>
            <AltitudeMeters>396.600006103515625</AltitudeMeters>
            <DistanceMeters>NAN</DistanceMeters>
          </Trackpoint>
          <Trackpoint>
            <Time>2022-09-22T08:27:09.000Z</Time>
            <Position>
              <LatitudeDegrees>49.49546906165778636932373046875</LatitudeDegrees>
              <LongitudeDegrees>20.40440057404339313507080078125</LongitudeDegrees>
            </Position>
            <AltitudeMeters>396.399993896484375</AltitudeMeters>
            <DistanceMeters>NAN</DistanceMeters>
          </Trackpoint>
          <Trackpoint>
            <Time>2022-09-22T08:27:10.000Z</Time>
            <Position>
              <LatitudeDegrees>49.49548046104609966278076171875</LatitudeDegrees>
              <LongitudeDegrees>20.404421277344226837158203125</LongitudeDegrees>
            </Position>
            <AltitudeMeters>396.20001220703125</AltitudeMeters>
            <DistanceMeters>NAN</DistanceMeters>
          </Trackpoint>
          <Trackpoint>
            <Time>2022-09-22T08:27:13.000Z</Time>
            <Position>
              <LatitudeDegrees>49.49549588374793529510498046875</LatitudeDegrees>
              <LongitudeDegrees>20.404498390853404998779296875</LongitudeDegrees>
            </Position>
            <AltitudeMeters>396.20001220703125</AltitudeMeters>
            <DistanceMeters>NAN</DistanceMeters>
          </Trackpoint>
          <Trackpoint>
            <Time>2022-09-22T08:27:15.000Z</Time>
            <Position>
              <LatitudeDegrees>49.49548758566379547119140625</LatitudeDegrees>
              <LongitudeDegrees>20.404527895152568817138671875</LongitudeDegrees>
            </Position>
            <AltitudeMeters>396.20001220703125</AltitudeMeters>
            <DistanceMeters>NAN</DistanceMeters>
          </Trackpoint>
          <Trackpoint>
            <Time>2022-09-22T08:27:22.000Z</Time>
            <Position>
              <LatitudeDegrees>49.4954844005405902862548828125</LatitudeDegrees>
              <LongitudeDegrees>20.4045297391712665557861328125</LongitudeDegrees>
            </Position>
            <AltitudeMeters>396.399993896484375</AltitudeMeters>
            <DistanceMeters>NAN</DistanceMeters>
          </Trackpoint>
          <Trackpoint>
            <Time>2022-09-22T08:27:32.000Z</Time>
            <Position>
              <LatitudeDegrees>49.4954844005405902862548828125</LatitudeDegrees>
              <LongitudeDegrees>20.4045297391712665557861328125</LongitudeDegrees>
            </Position>
            <AltitudeMeters>396.20001220703125</AltitudeMeters>
            <DistanceMeters>NAN</DistanceMeters>
          </Trackpoint>
          <Trackpoint>
            <Time>2022-09-22T08:27:48.000Z</Time>
            <Position>
              <LatitudeDegrees>49.49548565782606601715087890625</LatitudeDegrees>
              <LongitudeDegrees>20.40453233756124973297119140625</LongitudeDegrees>
            </Position>
            <AltitudeMeters>396.20001220703125</AltitudeMeters>
            <DistanceMeters>NAN</DistanceMeters>
          </Trackpoint>
          <Trackpoint>
            <Time>2022-09-22T08:27:51.000Z</Time>
            <Position>
              <LatitudeDegrees>49.4955045171082019805908203125</LatitudeDegrees>
              <LongitudeDegrees>20.40461397729814052581787109375</LongitudeDegrees>
            </Position>
            <AltitudeMeters>396.399993896484375</AltitudeMeters>
            <DistanceMeters>NAN</DistanceMeters>
          </Trackpoint>
          <Trackpoint>
            <Time>2022-09-22T08:27:56.000Z</Time>
            <Position>
              <LatitudeDegrees>49.4955306686460971832275390625</LatitudeDegrees>
              <LongitudeDegrees>20.4048140533268451690673828125</LongitudeDegrees>
            </Position>
            <AltitudeMeters>396.600006103515625</AltitudeMeters>
            <DistanceMeters>NAN</DistanceMeters>
          </Trackpoint>
          <Trackpoint>
            <Time>2022-09-22T08:28:02.000Z</Time>
            <Position>
              <LatitudeDegrees>49.4955534674227237701416015625</LatitudeDegrees>
              <LongitudeDegrees>20.40500943548977375030517578125</LongitudeDegrees>
            </Position>
            <AltitudeMeters>396.79998779296875</AltitudeMeters>
            <DistanceMeters>NAN</DistanceMeters>
          </Trackpoint>
          <Trackpoint>
            <Time>2022-09-22T08:28:09.000Z</Time>
            <Position>
              <LatitudeDegrees>49.4955876655876636505126953125</LatitudeDegrees>
              <LongitudeDegrees>20.4052375070750713348388671875</LongitudeDegrees>
            </Position>
            <AltitudeMeters>397</AltitudeMeters>
            <DistanceMeters>NAN</DistanceMeters>
          </Trackpoint>
          <Trackpoint>
            <Time>2022-09-22T08:28:17.000Z</Time>
            <Position>
              <LatitudeDegrees>49.495604932308197021484375</LatitudeDegrees>
              <LongitudeDegrees>20.4055072367191314697265625</LongitudeDegrees>
            </Position>
            <AltitudeMeters>396.79998779296875</AltitudeMeters>
            <DistanceMeters>NAN</DistanceMeters>
          </Trackpoint>
          <Trackpoint>
            <Time>2022-09-22T08:28:20.000Z</Time>
            <Position>
              <LatitudeDegrees>49.4956104643642902374267578125</LatitudeDegrees>
              <LongitudeDegrees>20.40561544708907604217529296875</LongitudeDegrees>
            </Position>
            <AltitudeMeters>396.600006103515625</AltitudeMeters>
            <DistanceMeters>NAN</DistanceMeters>
          </Trackpoint>
          <Trackpoint>
            <Time>2022-09-22T08:28:25.000Z</Time>
            <Position>
              <LatitudeDegrees>49.49561792425811290740966796875</LatitudeDegrees>
              <LongitudeDegrees>20.40579532273113727569580078125</LongitudeDegrees>
            </Position>
            <AltitudeMeters>396.399993896484375</AltitudeMeters>
            <DistanceMeters>NAN</DistanceMeters>
          </Trackpoint>
          <Trackpoint>
            <Time>2022-09-22T08:28:32.000Z</Time>
            <Position>
              <LatitudeDegrees>49.4956362806260585784912109375</LatitudeDegrees>
              <LongitudeDegrees>20.40595307014882564544677734375</LongitudeDegrees>
            </Position>
            <AltitudeMeters>396.20001220703125</AltitudeMeters>
            <DistanceMeters>NAN</DistanceMeters>
          </Trackpoint>
          <Trackpoint>
            <Time>2022-09-22T08:28:36.000Z</Time>
            <Position>
              <LatitudeDegrees>49.49563938193023204803466796875</LatitudeDegrees>
              <LongitudeDegrees>20.40596111677587032318115234375</LongitudeDegrees>
            </Position>
            <AltitudeMeters>395.399993896484375</AltitudeMeters>
            <DistanceMeters>NAN</DistanceMeters>
          </Trackpoint>
          <Trackpoint>
            <Time>2022-09-22T08:28:38.000Z</Time>
            <Position>
              <LatitudeDegrees>49.49563871137797832489013671875</LatitudeDegrees>
              <LongitudeDegrees>20.405978970229625701904296875</LongitudeDegrees>
            </Position>
            <AltitudeMeters>395.399993896484375</AltitudeMeters>
            <DistanceMeters>NAN</DistanceMeters>
          </Trackpoint>
          <Trackpoint>
            <Time>2022-09-22T08:28:44.000Z</Time>
            <Position>
              <LatitudeDegrees>49.4956074468791484832763671875</LatitudeDegrees>
              <LongitudeDegrees>20.4059727676212787628173828125</LongitudeDegrees>
            </Position>
            <AltitudeMeters>395.399993896484375</AltitudeMeters>
            <DistanceMeters>NAN</DistanceMeters>
          </Trackpoint>
          <Trackpoint>
            <Time>2022-09-22T08:28:45.000Z</Time>
            <Position>
              <LatitudeDegrees>49.49559143744409084320068359375</LatitudeDegrees>
              <LongitudeDegrees>20.4059660620987415313720703125</LongitudeDegrees>
            </Position>
            <AltitudeMeters>395.399993896484375</AltitudeMeters>
            <DistanceMeters>NAN</DistanceMeters>
          </Trackpoint>
          <Trackpoint>
            <Time>2022-09-22T08:28:49.000Z</Time>
            <Position>
              <LatitudeDegrees>49.49554248712956905364990234375</LatitudeDegrees>
              <LongitudeDegrees>20.40592809207737445831298828125</LongitudeDegrees>
            </Position>
            <AltitudeMeters>394.79998779296875</AltitudeMeters>
            <DistanceMeters>NAN</DistanceMeters>
          </Trackpoint>
          <Trackpoint>
            <Time>2022-09-22T08:28:53.000Z</Time>
            <Position>
              <LatitudeDegrees>49.49554248712956905364990234375</LatitudeDegrees>
              <LongitudeDegrees>20.40592809207737445831298828125</LongitudeDegrees>
            </Position>
            <AltitudeMeters>394.399993896484375</AltitudeMeters>
            <DistanceMeters>NAN</DistanceMeters>
          </Trackpoint>
          <Trackpoint>
            <Time>2022-09-22T08:28:55.000Z</Time>
            <Position>
              <LatitudeDegrees>49.49554248712956905364990234375</LatitudeDegrees>
              <LongitudeDegrees>20.40592809207737445831298828125</LongitudeDegrees>
            </Position>
            <AltitudeMeters>394.399993896484375</AltitudeMeters>
            <DistanceMeters>NAN</DistanceMeters>
          </Trackpoint>
          <Trackpoint>
            <Time>2022-09-22T08:29:03.000Z</Time>
            <Position>
              <LatitudeDegrees>49.49554248712956905364990234375</LatitudeDegrees>
              <LongitudeDegrees>20.40592809207737445831298828125</LongitudeDegrees>
            </Position>
            <AltitudeMeters>394.399993896484375</AltitudeMeters>
            <DistanceMeters>NAN</DistanceMeters>
          </Trackpoint>
          <Trackpoint>
            <Time>2022-09-22T08:29:07.000Z</Time>
            <Position>
              <LatitudeDegrees>49.49554248712956905364990234375</LatitudeDegrees>
              <LongitudeDegrees>20.40592809207737445831298828125</LongitudeDegrees>
            </Position>
            <AltitudeMeters>394.399993896484375</AltitudeMeters>
            <DistanceMeters>NAN</DistanceMeters>
          </Trackpoint>
          <Trackpoint>
            <Time>2022-09-22T08:29:17.000Z</Time>
            <Position>
              <LatitudeDegrees>49.4955444149672985076904296875</LatitudeDegrees>
              <LongitudeDegrees>20.4059244878590106964111328125</LongitudeDegrees>
            </Position>
            <AltitudeMeters>394.20001220703125</AltitudeMeters>
            <DistanceMeters>NAN</DistanceMeters>
          </Trackpoint>
          <Trackpoint>
            <Time>2022-09-22T08:29:20.000Z</Time>
            <Position>
              <LatitudeDegrees>49.49558841995894908905029296875</LatitudeDegrees>
              <LongitudeDegrees>20.40588886477053165435791015625</LongitudeDegrees>
            </Position>
            <AltitudeMeters>394.20001220703125</AltitudeMeters>
            <DistanceMeters>NAN</DistanceMeters>
          </Trackpoint>
          <Trackpoint>
            <Time>2022-09-22T08:29:26.000Z</Time>
            <Position>
              <LatitudeDegrees>49.495727978646755218505859375</LatitudeDegrees>
              <LongitudeDegrees>20.4058118350803852081298828125</LongitudeDegrees>
            </Position>
            <AltitudeMeters>394.399993896484375</AltitudeMeters>
            <DistanceMeters>NAN</DistanceMeters>
          </Trackpoint>
          <Trackpoint>
            <Time>2022-09-22T08:29:32.000Z</Time>
            <Position>
              <LatitudeDegrees>49.49584155343472957611083984375</LatitudeDegrees>
              <LongitudeDegrees>20.40578140877187252044677734375</LongitudeDegrees>
            </Position>
            <AltitudeMeters>394.600006103515625</AltitudeMeters>
            <DistanceMeters>NAN</DistanceMeters>
          </Trackpoint>
          <Trackpoint>
            <Time>2022-09-22T08:29:40.000Z</Time>
            <Position>
              <LatitudeDegrees>49.49601598083972930908203125</LatitudeDegrees>
              <LongitudeDegrees>20.40576313622295856475830078125</LongitudeDegrees>
            </Position>
            <AltitudeMeters>394.600006103515625</AltitudeMeters>
            <DistanceMeters>NAN</DistanceMeters>
          </Trackpoint>
          <Trackpoint>
            <Time>2022-09-22T08:29:48.000Z</Time>
            <Position>
              <LatitudeDegrees>49.496186636388301849365234375</LatitudeDegrees>
              <LongitudeDegrees>20.40571753866970539093017578125</LongitudeDegrees>
            </Position>
            <AltitudeMeters>394.600006103515625</AltitudeMeters>
            <DistanceMeters>NAN</DistanceMeters>
          </Trackpoint>
          <Trackpoint>
            <Time>2022-09-22T08:29:56.000Z</Time>
            <Position>
              <LatitudeDegrees>49.49635938741266727447509765625</LatitudeDegrees>
              <LongitudeDegrees>20.40566657669842243194580078125</LongitudeDegrees>
            </Position>
            <AltitudeMeters>394.399993896484375</AltitudeMeters>
            <DistanceMeters>NAN</DistanceMeters>
          </Trackpoint>
          <Trackpoint>
            <Time>2022-09-22T08:30:01.000Z</Time>
            <Position>
              <LatitudeDegrees>49.49648645706474781036376953125</LatitudeDegrees>
              <LongitudeDegrees>20.40561242960393428802490234375</LongitudeDegrees>
            </Position>
            <AltitudeMeters>394.20001220703125</AltitudeMeters>
            <DistanceMeters>NAN</DistanceMeters>
          </Trackpoint>
          <Trackpoint>
            <Time>2022-09-22T08:30:07.000Z</Time>
            <Position>
              <LatitudeDegrees>49.4966799952089786529541015625</LatitudeDegrees>
              <LongitudeDegrees>20.40554923005402088165283203125</LongitudeDegrees>
            </Position>
            <AltitudeMeters>394</AltitudeMeters>
            <DistanceMeters>NAN</DistanceMeters>
          </Trackpoint>
          <Trackpoint>
            <Time>2022-09-22T08:30:15.000Z</Time>
            <Position>
              <LatitudeDegrees>49.4969274289906024932861328125</LatitudeDegrees>
              <LongitudeDegrees>20.40544948540627956390380859375</LongitudeDegrees>
            </Position>
            <AltitudeMeters>393.79998779296875</AltitudeMeters>
            <DistanceMeters>NAN</DistanceMeters>
          </Trackpoint>
          <Trackpoint>
            <Time>2022-09-22T08:30:21.000Z</Time>
            <Position>
              <LatitudeDegrees>49.49710537679493427276611328125</LatitudeDegrees>
              <LongitudeDegrees>20.40540330111980438232421875</LongitudeDegrees>
            </Position>
            <AltitudeMeters>393.600006103515625</AltitudeMeters>
            <DistanceMeters>NAN</DistanceMeters>
          </Trackpoint>
          <Trackpoint>
            <Time>2022-09-22T08:30:24.000Z</Time>
            <Position>
              <LatitudeDegrees>49.49720763601362705230712890625</LatitudeDegrees>
              <LongitudeDegrees>20.40535879321396350860595703125</LongitudeDegrees>
            </Position>
            <AltitudeMeters>393.600006103515625</AltitudeMeters>
            <DistanceMeters>NAN</DistanceMeters>
          </Trackpoint>
          <Trackpoint>
            <Time>2022-09-22T08:30:26.000Z</Time>
            <Position>
              <LatitudeDegrees>49.49727720580995082855224609375</LatitudeDegrees>
              <LongitudeDegrees>20.405338592827320098876953125</LongitudeDegrees>
            </Position>
            <AltitudeMeters>393.600006103515625</AltitudeMeters>
            <DistanceMeters>NAN</DistanceMeters>
          </Trackpoint>
          <Trackpoint>
            <Time>2022-09-22T08:30:30.000Z</Time>
            <Position>
              <LatitudeDegrees>49.4973971508443355560302734375</LatitudeDegrees>
              <LongitudeDegrees>20.4052961803972721099853515625</LongitudeDegrees>
            </Position>
            <AltitudeMeters>393.600006103515625</AltitudeMeters>
            <DistanceMeters>NAN</DistanceMeters>
          </Trackpoint>
          <Trackpoint>
            <Time>2022-09-22T08:30:33.000Z</Time>
            <Position>
              <LatitudeDegrees>49.4974866695702075958251953125</LatitudeDegrees>
              <LongitudeDegrees>20.405265502631664276123046875</LongitudeDegrees>
            </Position>
            <AltitudeMeters>393.600006103515625</AltitudeMeters>
            <DistanceMeters>NAN</DistanceMeters>
          </Trackpoint>
          <Trackpoint>
            <Time>2022-09-22T08:30:36.000Z</Time>
            <Position>
              <LatitudeDegrees>49.49757702648639678955078125</LatitudeDegrees>
              <LongitudeDegrees>20.405240021646022796630859375</LongitudeDegrees>
            </Position>
            <AltitudeMeters>393.399993896484375</AltitudeMeters>
            <DistanceMeters>NAN</DistanceMeters>
          </Trackpoint>
          <Trackpoint>
            <Time>2022-09-22T08:30:41.000Z</Time>
            <Position>
              <LatitudeDegrees>49.49771926738321781158447265625</LatitudeDegrees>
              <LongitudeDegrees>20.4051798395812511444091796875</LongitudeDegrees>
            </Position>
            <AltitudeMeters>393.399993896484375</AltitudeMeters>
            <DistanceMeters>NAN</DistanceMeters>
          </Trackpoint>
          <Trackpoint>
            <Time>2022-09-22T08:30:48.000Z</Time>
            <Position>
              <LatitudeDegrees>49.497927725315093994140625</LatitudeDegrees>
              <LongitudeDegrees>20.40512007661163806915283203125</LongitudeDegrees>
            </Position>
            <AltitudeMeters>393.20001220703125</AltitudeMeters>
            <DistanceMeters>NAN</DistanceMeters>
          </Trackpoint>
          <Trackpoint>
            <Time>2022-09-22T08:30:50.000Z</Time>
            <Position>
              <LatitudeDegrees>49.49799855239689350128173828125</LatitudeDegrees>
              <LongitudeDegrees>20.40508487261831760406494140625</LongitudeDegrees>
            </Position>
            <AltitudeMeters>393.20001220703125</AltitudeMeters>
            <DistanceMeters>NAN</DistanceMeters>
          </Trackpoint>
          <Trackpoint>
            <Time>2022-09-22T08:30:51.000Z</Time>
            <Position>
              <LatitudeDegrees>49.4980405457317829132080078125</LatitudeDegrees>
              <LongitudeDegrees>20.40507079102098941802978515625</LongitudeDegrees>
            </Position>
            <AltitudeMeters>393.20001220703125</AltitudeMeters>
            <DistanceMeters>NAN</DistanceMeters>
          </Trackpoint>
          <Trackpoint>
            <Time>2022-09-22T08:30:56.000Z</Time>
            <Position>
              <LatitudeDegrees>49.49824581854045391082763671875</LatitudeDegrees>
              <LongitudeDegrees>20.404979176819324493408203125</LongitudeDegrees>
            </Position>
            <AltitudeMeters>393.20001220703125</AltitudeMeters>
            <DistanceMeters>NAN</DistanceMeters>
          </Trackpoint>
          <Trackpoint>
            <Time>2022-09-22T08:30:58.000Z</Time>
            <Position>
              <LatitudeDegrees>49.49832242913544178009033203125</LatitudeDegrees>
              <LongitudeDegrees>20.40494103915989398956298828125</LongitudeDegrees>
            </Position>
            <AltitudeMeters>393</AltitudeMeters>
            <DistanceMeters>NAN</DistanceMeters>
          </Trackpoint>
          <Trackpoint>
            <Time>2022-09-22T08:31:03.000Z</Time>
            <Position>
              <LatitudeDegrees>49.4984884746372699737548828125</LatitudeDegrees>
              <LongitudeDegrees>20.40486141107976436614990234375</LongitudeDegrees>
            </Position>
            <AltitudeMeters>393.20001220703125</AltitudeMeters>
            <DistanceMeters>NAN</DistanceMeters>
          </Trackpoint>
          <Trackpoint>
            <Time>2022-09-22T08:31:09.000Z</Time>
            <Position>
              <LatitudeDegrees>49.49865921400487422943115234375</LatitudeDegrees>
              <LongitudeDegrees>20.4047402925789356231689453125</LongitudeDegrees>
            </Position>
            <AltitudeMeters>394</AltitudeMeters>
            <DistanceMeters>NAN</DistanceMeters>
          </Trackpoint>
          <Trackpoint>
            <Time>2022-09-22T08:31:13.000Z</Time>
            <Position>
              <LatitudeDegrees>49.49877002276480197906494140625</LatitudeDegrees>
              <LongitudeDegrees>20.4046809487044811248779296875</LongitudeDegrees>
            </Position>
            <AltitudeMeters>394.600006103515625</AltitudeMeters>
            <DistanceMeters>NAN</DistanceMeters>
          </Trackpoint>
          <Trackpoint>
            <Time>2022-09-22T08:31:16.000Z</Time>
            <Position>
              <LatitudeDegrees>49.4988525845110416412353515625</LatitudeDegrees>
              <LongitudeDegrees>20.4046135582029819488525390625</LongitudeDegrees>
            </Position>
            <AltitudeMeters>394.600006103515625</AltitudeMeters>
            <DistanceMeters>NAN</DistanceMeters>
          </Trackpoint>
          <Trackpoint>
            <Time>2022-09-22T08:31:24.000Z</Time>
            <Position>
              <LatitudeDegrees>49.49909306131303310394287109375</LatitudeDegrees>
              <LongitudeDegrees>20.40443846024572849273681640625</LongitudeDegrees>
            </Position>
            <AltitudeMeters>394.399993896484375</AltitudeMeters>
            <DistanceMeters>NAN</DistanceMeters>
          </Trackpoint>
          <Trackpoint>
            <Time>2022-09-22T08:31:25.000Z</Time>
            <Position>
              <LatitudeDegrees>49.49911393225193023681640625</LatitudeDegrees>
              <LongitudeDegrees>20.4044197686016559600830078125</LongitudeDegrees>
            </Position>
            <AltitudeMeters>394.399993896484375</AltitudeMeters>
            <DistanceMeters>NAN</DistanceMeters>
          </Trackpoint>
          <Trackpoint>
            <Time>2022-09-22T08:31:31.000Z</Time>
            <Position>
              <LatitudeDegrees>49.49928567744791507720947265625</LatitudeDegrees>
              <LongitudeDegrees>20.40431834757328033447265625</LongitudeDegrees>
            </Position>
            <AltitudeMeters>394.600006103515625</AltitudeMeters>
            <DistanceMeters>NAN</DistanceMeters>
          </Trackpoint>
          <Trackpoint>
            <Time>2022-09-22T08:31:32.000Z</Time>
            <Position>
              <LatitudeDegrees>49.4993253238499164581298828125</LatitudeDegrees>
              <LongitudeDegrees>20.40429630316793918609619140625</LongitudeDegrees>
            </Position>
            <AltitudeMeters>394.600006103515625</AltitudeMeters>
            <DistanceMeters>NAN</DistanceMeters>
          </Trackpoint>
          <Trackpoint>
            <Time>2022-09-22T08:31:41.000Z</Time>
            <Position>
              <LatitudeDegrees>49.4995974004268646240234375</LatitudeDegrees>
              <LongitudeDegrees>20.40413889102637767791748046875</LongitudeDegrees>
            </Position>
            <AltitudeMeters>394.20001220703125</AltitudeMeters>
            <DistanceMeters>NAN</DistanceMeters>
          </Trackpoint>
          <Trackpoint>
            <Time>2022-09-22T08:31:48.000Z</Time>
            <Position>
              <LatitudeDegrees>49.49980787001550197601318359375</LatitudeDegrees>
              <LongitudeDegrees>20.4040321893990039825439453125</LongitudeDegrees>
            </Position>
            <AltitudeMeters>394.399993896484375</AltitudeMeters>
            <DistanceMeters>NAN</DistanceMeters>
          </Trackpoint>
          <Trackpoint>
            <Time>2022-09-22T08:31:50.000Z</Time>
            <Position>
              <LatitudeDegrees>49.49987006373703479766845703125</LatitudeDegrees>
              <LongitudeDegrees>20.40399002842605113983154296875</LongitudeDegrees>
            </Position>
            <AltitudeMeters>394.399993896484375</AltitudeMeters>
            <DistanceMeters>NAN</DistanceMeters>
          </Trackpoint>
          <Trackpoint>
            <Time>2022-09-22T08:31:57.000Z</Time>
            <Position>
              <LatitudeDegrees>49.50008044950664043426513671875</LatitudeDegrees>
              <LongitudeDegrees>20.403866060078144073486328125</LongitudeDegrees>
            </Position>
            <AltitudeMeters>394.20001220703125</AltitudeMeters>
            <DistanceMeters>NAN</DistanceMeters>
          </Trackpoint>
          <Trackpoint>
            <Time>2022-09-22T08:32:06.000Z</Time>
            <Position>
              <LatitudeDegrees>49.50032084248960018157958984375</LatitudeDegrees>
              <LongitudeDegrees>20.40372482500970363616943359375</LongitudeDegrees>
            </Position>
            <AltitudeMeters>394.20001220703125</AltitudeMeters>
            <DistanceMeters>NAN</DistanceMeters>
          </Trackpoint>
          <Trackpoint>
            <Time>2022-09-22T08:32:14.000Z</Time>
            <Position>
              <LatitudeDegrees>49.50057565234601497650146484375</LatitudeDegrees>
              <LongitudeDegrees>20.4035909660160541534423828125</LongitudeDegrees>
            </Position>
            <AltitudeMeters>394.20001220703125</AltitudeMeters>
            <DistanceMeters>NAN</DistanceMeters>
          </Trackpoint>
          <Trackpoint>
            <Time>2022-09-22T08:32:22.000Z</Time>
            <Position>
              <LatitudeDegrees>49.50080045498907566070556640625</LatitudeDegrees>
              <LongitudeDegrees>20.40344201959669589996337890625</LongitudeDegrees>
            </Position>
            <AltitudeMeters>394.20001220703125</AltitudeMeters>
            <DistanceMeters>NAN</DistanceMeters>
          </Trackpoint>
          <Trackpoint>
            <Time>2022-09-22T08:32:28.000Z</Time>
            <Position>
              <LatitudeDegrees>49.500982426106929779052734375</LatitudeDegrees>
              <LongitudeDegrees>20.4033319652080535888671875</LongitudeDegrees>
            </Position>
            <AltitudeMeters>394.20001220703125</AltitudeMeters>
            <DistanceMeters>NAN</DistanceMeters>
          </Trackpoint>
          <Trackpoint>
            <Time>2022-09-22T08:32:35.000Z</Time>
            <Position>
              <LatitudeDegrees>49.50119272805750370025634765625</LatitudeDegrees>
              <LongitudeDegrees>20.4031775705516338348388671875</LongitudeDegrees>
            </Position>
            <AltitudeMeters>394.399993896484375</AltitudeMeters>
            <DistanceMeters>NAN</DistanceMeters>
          </Trackpoint>
          <Trackpoint>
            <Time>2022-09-22T08:32:43.000Z</Time>
            <Position>
              <LatitudeDegrees>49.5013778842985630035400390625</LatitudeDegrees>
              <LongitudeDegrees>20.4030189849436283111572265625</LongitudeDegrees>
            </Position>
            <AltitudeMeters>394.20001220703125</AltitudeMeters>
            <DistanceMeters>NAN</DistanceMeters>
          </Trackpoint>
          <Trackpoint>
            <Time>2022-09-22T08:32:48.000Z</Time>
            <Position>
              <LatitudeDegrees>49.5014803111553192138671875</LatitudeDegrees>
              <LongitudeDegrees>20.4029671847820281982421875</LongitudeDegrees>
            </Position>
            <AltitudeMeters>394.20001220703125</AltitudeMeters>
            <DistanceMeters>NAN</DistanceMeters>
          </Trackpoint>
          <Trackpoint>
            <Time>2022-09-22T08:32:55.000Z</Time>
            <Position>
              <LatitudeDegrees>49.5016380585730075836181640625</LatitudeDegrees>
              <LongitudeDegrees>20.40289945900440216064453125</LongitudeDegrees>
            </Position>
            <AltitudeMeters>394.399993896484375</AltitudeMeters>
            <DistanceMeters>NAN</DistanceMeters>
          </Trackpoint>
          <Trackpoint>
            <Time>2022-09-22T08:33:01.000Z</Time>
            <Position>
              <LatitudeDegrees>49.50180527754127979278564453125</LatitudeDegrees>
              <LongitudeDegrees>20.402825362980365753173828125</LongitudeDegrees>
            </Position>
            <AltitudeMeters>394.79998779296875</AltitudeMeters>
            <DistanceMeters>NAN</DistanceMeters>
          </Trackpoint>
          <Trackpoint>
            <Time>2022-09-22T08:33:03.000Z</Time>
            <Position>
              <LatitudeDegrees>49.50183964334428310394287109375</LatitudeDegrees>
              <LongitudeDegrees>20.40278814733028411865234375</LongitudeDegrees>
            </Position>
            <AltitudeMeters>394.79998779296875</AltitudeMeters>
            <DistanceMeters>NAN</DistanceMeters>
          </Trackpoint>
          <Trackpoint>
            <Time>2022-09-22T08:33:05.000Z</Time>
            <Position>
              <LatitudeDegrees>49.50187786482274532318115234375</LatitudeDegrees>
              <LongitudeDegrees>20.4027641750872135162353515625</LongitudeDegrees>
            </Position>
            <AltitudeMeters>395.20001220703125</AltitudeMeters>
            <DistanceMeters>NAN</DistanceMeters>
          </Trackpoint>
          <Trackpoint>
            <Time>2022-09-22T08:33:09.000Z</Time>
            <Position>
              <LatitudeDegrees>49.50194902718067169189453125</LatitudeDegrees>
              <LongitudeDegrees>20.4027091898024082183837890625</LongitudeDegrees>
            </Position>
            <AltitudeMeters>395.399993896484375</AltitudeMeters>
            <DistanceMeters>NAN</DistanceMeters>
          </Trackpoint>
          <Trackpoint>
            <Time>2022-09-22T08:33:11.000Z</Time>
            <Position>
              <LatitudeDegrees>49.50198733247816562652587890625</LatitudeDegrees>
              <LongitudeDegrees>20.4026855528354644775390625</LongitudeDegrees>
            </Position>
            <AltitudeMeters>395.399993896484375</AltitudeMeters>
            <DistanceMeters>NAN</DistanceMeters>
          </Trackpoint>
          <Trackpoint>
            <Time>2022-09-22T08:33:19.000Z</Time>
            <Position>
              <LatitudeDegrees>49.50217223726212978363037109375</LatitudeDegrees>
              <LongitudeDegrees>20.402492098510265350341796875</LongitudeDegrees>
            </Position>
            <AltitudeMeters>395</AltitudeMeters>
            <DistanceMeters>NAN</DistanceMeters>
          </Trackpoint>
          <Trackpoint>
            <Time>2022-09-22T08:33:23.000Z</Time>
            <Position>
              <LatitudeDegrees>49.5022667013108730316162109375</LatitudeDegrees>
              <LongitudeDegrees>20.40234826505184173583984375</LongitudeDegrees>
            </Position>
            <AltitudeMeters>394.79998779296875</AltitudeMeters>
            <DistanceMeters>NAN</DistanceMeters>
          </Trackpoint>
          <Trackpoint>
            <Time>2022-09-22T08:33:26.000Z</Time>
            <Position>
              <LatitudeDegrees>49.50235932134091854095458984375</LatitudeDegrees>
              <LongitudeDegrees>20.40223904885351657867431640625</LongitudeDegrees>
            </Position>
            <AltitudeMeters>394.600006103515625</AltitudeMeters>
            <DistanceMeters>NAN</DistanceMeters>
          </Trackpoint>
          <Trackpoint>
            <Time>2022-09-22T08:33:30.000Z</Time>
            <Position>
              <LatitudeDegrees>49.50249795801937580108642578125</LatitudeDegrees>
              <LongitudeDegrees>20.40210678242146968841552734375</LongitudeDegrees>
            </Position>
            <AltitudeMeters>394.20001220703125</AltitudeMeters>
            <DistanceMeters>NAN</DistanceMeters>
          </Trackpoint>
          <Trackpoint>
            <Time>2022-09-22T08:33:33.000Z</Time>
            <Position>
              <LatitudeDegrees>49.50259275734424591064453125</LatitudeDegrees>
              <LongitudeDegrees>20.402008630335330963134765625</LongitudeDegrees>
            </Position>
            <AltitudeMeters>394</AltitudeMeters>
            <DistanceMeters>NAN</DistanceMeters>
          </Trackpoint>
          <Trackpoint>
            <Time>2022-09-22T08:33:37.000Z</Time>
            <Position>
              <LatitudeDegrees>49.502707421779632568359375</LatitudeDegrees>
              <LongitudeDegrees>20.40189497172832489013671875</LongitudeDegrees>
            </Position>
            <AltitudeMeters>394</AltitudeMeters>
            <DistanceMeters>NAN</DistanceMeters>
          </Trackpoint>
          <Trackpoint>
            <Time>2022-09-22T08:33:38.000Z</Time>
            <Position>
              <LatitudeDegrees>49.50273491442203521728515625</LatitudeDegrees>
              <LongitudeDegrees>20.401871837675571441650390625</LongitudeDegrees>
            </Position>
            <AltitudeMeters>394</AltitudeMeters>
            <DistanceMeters>NAN</DistanceMeters>
          </Trackpoint>
          <Trackpoint>
            <Time>2022-09-22T08:33:44.000Z</Time>
            <Position>
              <LatitudeDegrees>49.50288956053555011749267578125</LatitudeDegrees>
              <LongitudeDegrees>20.40171601809561252593994140625</LongitudeDegrees>
            </Position>
            <AltitudeMeters>393.79998779296875</AltitudeMeters>
            <DistanceMeters>NAN</DistanceMeters>
          </Trackpoint>
          <Trackpoint>
            <Time>2022-09-22T08:33:45.000Z</Time>
            <Position>
              <LatitudeDegrees>49.5029134489595890045166015625</LatitudeDegrees>
              <LongitudeDegrees>20.4016919620335102081298828125</LongitudeDegrees>
            </Position>
            <AltitudeMeters>393.79998779296875</AltitudeMeters>
            <DistanceMeters>NAN</DistanceMeters>
          </Trackpoint>
          <Trackpoint>
            <Time>2022-09-22T08:33:51.000Z</Time>
            <Position>
              <LatitudeDegrees>49.50310547836124897003173828125</LatitudeDegrees>
              <LongitudeDegrees>20.401511751115322113037109375</LongitudeDegrees>
            </Position>
            <AltitudeMeters>393.600006103515625</AltitudeMeters>
            <DistanceMeters>NAN</DistanceMeters>
          </Trackpoint>
          <Trackpoint>
            <Time>2022-09-22T08:33:58.000Z</Time>
            <Position>
              <LatitudeDegrees>49.503315947949886322021484375</LatitudeDegrees>
              <LongitudeDegrees>20.401294492185115814208984375</LongitudeDegrees>
            </Position>
            <AltitudeMeters>393.79998779296875</AltitudeMeters>
            <DistanceMeters>NAN</DistanceMeters>
          </Trackpoint>
          <Trackpoint>
            <Time>2022-09-22T08:34:03.000Z</Time>
            <Position>
              <LatitudeDegrees>49.503460787236690521240234375</LatitudeDegrees>
              <LongitudeDegrees>20.40116230957210063934326171875</LongitudeDegrees>
            </Position>
            <AltitudeMeters>393.600006103515625</AltitudeMeters>
            <DistanceMeters>NAN</DistanceMeters>
          </Trackpoint>
          <Trackpoint>
            <Time>2022-09-22T08:34:09.000Z</Time>
            <Position>
              <LatitudeDegrees>49.50358056463301181793212890625</LatitudeDegrees>
              <LongitudeDegrees>20.4010445438325405120849609375</LongitudeDegrees>
            </Position>
            <AltitudeMeters>393.600006103515625</AltitudeMeters>
            <DistanceMeters>NAN</DistanceMeters>
          </Trackpoint>
          <Trackpoint>
            <Time>2022-09-22T08:34:12.000Z</Time>
            <Position>
              <LatitudeDegrees>49.5035833306610584259033203125</LatitudeDegrees>
              <LongitudeDegrees>20.4010284505784511566162109375</LongitudeDegrees>
            </Position>
            <AltitudeMeters>393.79998779296875</AltitudeMeters>
            <DistanceMeters>NAN</DistanceMeters>
          </Trackpoint>
          <Trackpoint>
            <Time>2022-09-22T08:34:13.000Z</Time>
            <Position>
              <LatitudeDegrees>49.5035923831164836883544921875</LatitudeDegrees>
              <LongitudeDegrees>20.4010120220482349395751953125</LongitudeDegrees>
            </Position>
            <AltitudeMeters>393.79998779296875</AltitudeMeters>
            <DistanceMeters>NAN</DistanceMeters>
          </Trackpoint>
          <Trackpoint>
            <Time>2022-09-22T08:34:19.000Z</Time>
            <Position>
              <LatitudeDegrees>49.50368097983300685882568359375</LatitudeDegrees>
              <LongitudeDegrees>20.40088537149131298065185546875</LongitudeDegrees>
            </Position>
            <AltitudeMeters>393.600006103515625</AltitudeMeters>
            <DistanceMeters>NAN</DistanceMeters>
          </Trackpoint>
          <Trackpoint>
            <Time>2022-09-22T08:34:24.000Z</Time>
            <Position>
              <LatitudeDegrees>49.50382447801530361175537109375</LatitudeDegrees>
              <LongitudeDegrees>20.40072963573038578033447265625</LongitudeDegrees>
            </Position>
            <AltitudeMeters>393.600006103515625</AltitudeMeters>
            <DistanceMeters>NAN</DistanceMeters>
          </Trackpoint>
          <Trackpoint>
            <Time>2022-09-22T08:34:25.000Z</Time>
            <Position>
              <LatitudeDegrees>49.50385029427707195281982421875</LatitudeDegrees>
              <LongitudeDegrees>20.40070314891636371612548828125</LongitudeDegrees>
            </Position>
            <AltitudeMeters>393.600006103515625</AltitudeMeters>
            <DistanceMeters>NAN</DistanceMeters>
          </Trackpoint>
          <Trackpoint>
            <Time>2022-09-22T08:34:32.000Z</Time>
            <Position>
              <LatitudeDegrees>49.5040195249021053314208984375</LatitudeDegrees>
              <LongitudeDegrees>20.40054372511804103851318359375</LongitudeDegrees>
            </Position>
            <AltitudeMeters>393.600006103515625</AltitudeMeters>
            <DistanceMeters>NAN</DistanceMeters>
          </Trackpoint>
          <Trackpoint>
            <Time>2022-09-22T08:34:38.000Z</Time>
            <Position>
              <LatitudeDegrees>49.50416796840727329254150390625</LatitudeDegrees>
              <LongitudeDegrees>20.4004105366766452789306640625</LongitudeDegrees>
            </Position>
            <AltitudeMeters>394.20001220703125</AltitudeMeters>
            <DistanceMeters>NAN</DistanceMeters>
          </Trackpoint>
          <Trackpoint>
            <Time>2022-09-22T08:34:46.000Z</Time>
            <Position>
              <LatitudeDegrees>49.5043387077748775482177734375</LatitudeDegrees>
              <LongitudeDegrees>20.40024382062256336212158203125</LongitudeDegrees>
            </Position>
            <AltitudeMeters>394.399993896484375</AltitudeMeters>
            <DistanceMeters>NAN</DistanceMeters>
          </Trackpoint>
          <Trackpoint>
            <Time>2022-09-22T08:34:50.000Z</Time>
            <Position>
              <LatitudeDegrees>49.50442604720592498779296875</LatitudeDegrees>
              <LongitudeDegrees>20.40012747980654239654541015625</LongitudeDegrees>
            </Position>
            <AltitudeMeters>394.20001220703125</AltitudeMeters>
            <DistanceMeters>NAN</DistanceMeters>
          </Trackpoint>
          <Trackpoint>
            <Time>2022-09-22T08:34:55.000Z</Time>
            <Position>
              <LatitudeDegrees>49.504542052745819091796875</LatitudeDegrees>
              <LongitudeDegrees>20.39999102242290973663330078125</LongitudeDegrees>
            </Position>
            <AltitudeMeters>393.79998779296875</AltitudeMeters>
            <DistanceMeters>NAN</DistanceMeters>
          </Trackpoint>
          <Trackpoint>
            <Time>2022-09-22T08:34:56.000Z</Time>
            <Position>
              <LatitudeDegrees>49.50456258840858936309814453125</LatitudeDegrees>
              <LongitudeDegrees>20.3999592550098896026611328125</LongitudeDegrees>
            </Position>
            <AltitudeMeters>393.79998779296875</AltitudeMeters>
            <DistanceMeters>NAN</DistanceMeters>
          </Trackpoint>
          <Trackpoint>
            <Time>2022-09-22T08:35:01.000Z</Time>
            <Position>
              <LatitudeDegrees>49.50468747876584529876708984375</LatitudeDegrees>
              <LongitudeDegrees>20.3998150862753391265869140625</LongitudeDegrees>
            </Position>
            <AltitudeMeters>393.399993896484375</AltitudeMeters>
            <DistanceMeters>NAN</DistanceMeters>
          </Trackpoint>
          <Trackpoint>
            <Time>2022-09-22T08:35:02.000Z</Time>
            <Position>
              <LatitudeDegrees>49.50471765361726284027099609375</LatitudeDegrees>
              <LongitudeDegrees>20.39978365413844585418701171875</LongitudeDegrees>
            </Position>
            <AltitudeMeters>393.20001220703125</AltitudeMeters>
            <DistanceMeters>NAN</DistanceMeters>
          </Trackpoint>
          <Trackpoint>
            <Time>2022-09-22T08:35:04.000Z</Time>
            <Position>
              <LatitudeDegrees>49.50477414764463901519775390625</LatitudeDegrees>
              <LongitudeDegrees>20.399715341627597808837890625</LongitudeDegrees>
            </Position>
            <AltitudeMeters>393.20001220703125</AltitudeMeters>
            <DistanceMeters>NAN</DistanceMeters>
          </Trackpoint>
          <Trackpoint>
            <Time>2022-09-22T08:35:10.000Z</Time>
            <Position>
              <LatitudeDegrees>49.5049465633928775787353515625</LatitudeDegrees>
              <LongitudeDegrees>20.39950151927769184112548828125</LongitudeDegrees>
            </Position>
            <AltitudeMeters>392.399993896484375</AltitudeMeters>
            <DistanceMeters>NAN</DistanceMeters>
          </Trackpoint>
          <Trackpoint>
            <Time>2022-09-22T08:35:12.000Z</Time>
            <Position>
              <LatitudeDegrees>49.50500716455280780792236328125</LatitudeDegrees>
              <LongitudeDegrees>20.399445779621601104736328125</LongitudeDegrees>
            </Position>
            <AltitudeMeters>392.399993896484375</AltitudeMeters>
            <DistanceMeters>NAN</DistanceMeters>
          </Trackpoint>
          <Trackpoint>
            <Time>2022-09-22T08:35:18.000Z</Time>
            <Position>
              <LatitudeDegrees>49.50516809709370136260986328125</LatitudeDegrees>
              <LongitudeDegrees>20.399312339723110198974609375</LongitudeDegrees>
            </Position>
            <AltitudeMeters>392.399993896484375</AltitudeMeters>
            <DistanceMeters>NAN</DistanceMeters>
          </Trackpoint>
          <Trackpoint>
            <Time>2022-09-22T08:35:26.000Z</Time>
            <Position>
              <LatitudeDegrees>49.5054048858582973480224609375</LatitudeDegrees>
              <LongitudeDegrees>20.399087034165859222412109375</LongitudeDegrees>
            </Position>
            <AltitudeMeters>392.399993896484375</AltitudeMeters>
            <DistanceMeters>NAN</DistanceMeters>
          </Trackpoint>
          <Trackpoint>
            <Time>2022-09-22T08:35:32.000Z</Time>
            <Position>
              <LatitudeDegrees>49.50556925497949123382568359375</LatitudeDegrees>
              <LongitudeDegrees>20.39895258843898773193359375</LongitudeDegrees>
            </Position>
            <AltitudeMeters>392.20001220703125</AltitudeMeters>
            <DistanceMeters>NAN</DistanceMeters>
          </Trackpoint>
          <Trackpoint>
            <Time>2022-09-22T08:35:38.000Z</Time>
            <Position>
              <LatitudeDegrees>49.50573253445327281951904296875</LatitudeDegrees>
              <LongitudeDegrees>20.39883230812847614288330078125</LongitudeDegrees>
            </Position>
            <AltitudeMeters>392.20001220703125</AltitudeMeters>
            <DistanceMeters>NAN</DistanceMeters>
          </Trackpoint>
          <Trackpoint>
            <Time>2022-09-22T08:35:41.000Z</Time>
            <Position>
              <LatitudeDegrees>49.505839906632900238037109375</LatitudeDegrees>
              <LongitudeDegrees>20.39877916686236858367919921875</LongitudeDegrees>
            </Position>
            <AltitudeMeters>392.399993896484375</AltitudeMeters>
            <DistanceMeters>NAN</DistanceMeters>
          </Trackpoint>
          <Trackpoint>
            <Time>2022-09-22T08:35:43.000Z</Time>
            <Position>
              <LatitudeDegrees>49.50590218417346477508544921875</LatitudeDegrees>
              <LongitudeDegrees>20.398745723068714141845703125</LongitudeDegrees>
            </Position>
            <AltitudeMeters>392.20001220703125</AltitudeMeters>
            <DistanceMeters>NAN</DistanceMeters>
          </Trackpoint>
          <Trackpoint>
            <Time>2022-09-22T08:35:49.000Z</Time>
            <Position>
              <LatitudeDegrees>49.50605926103889942169189453125</LatitudeDegrees>
              <LongitudeDegrees>20.398672632873058319091796875</LongitudeDegrees>
            </Position>
            <AltitudeMeters>392.600006103515625</AltitudeMeters>
            <DistanceMeters>NAN</DistanceMeters>
          </Trackpoint>
          <Trackpoint>
            <Time>2022-09-22T08:35:55.000Z</Time>
            <Position>
              <LatitudeDegrees>49.50622069649398326873779296875</LatitudeDegrees>
              <LongitudeDegrees>20.39856459014117717742919921875</LongitudeDegrees>
            </Position>
            <AltitudeMeters>392.600006103515625</AltitudeMeters>
            <DistanceMeters>NAN</DistanceMeters>
          </Trackpoint>
          <Trackpoint>
            <Time>2022-09-22T08:36:00.000Z</Time>
            <Position>
              <LatitudeDegrees>49.50635346584022045135498046875</LatitudeDegrees>
              <LongitudeDegrees>20.39847792126238346099853515625</LongitudeDegrees>
            </Position>
            <AltitudeMeters>392.20001220703125</AltitudeMeters>
            <DistanceMeters>NAN</DistanceMeters>
          </Trackpoint>
          <Trackpoint>
            <Time>2022-09-22T08:36:03.000Z</Time>
            <Position>
              <LatitudeDegrees>49.50643091462552547454833984375</LatitudeDegrees>
              <LongitudeDegrees>20.39842595346271991729736328125</LongitudeDegrees>
            </Position>
            <AltitudeMeters>391.79998779296875</AltitudeMeters>
            <DistanceMeters>NAN</DistanceMeters>
          </Trackpoint>
          <Trackpoint>
            <Time>2022-09-22T08:36:04.000Z</Time>
            <Position>
              <LatitudeDegrees>49.50645782053470611572265625</LatitudeDegrees>
              <LongitudeDegrees>20.398409776389598846435546875</LongitudeDegrees>
            </Position>
            <AltitudeMeters>391.600006103515625</AltitudeMeters>
            <DistanceMeters>NAN</DistanceMeters>
          </Trackpoint>
          <Trackpoint>
            <Time>2022-09-22T08:36:07.000Z</Time>
            <Position>
              <LatitudeDegrees>49.50653317384421825408935546875</LatitudeDegrees>
              <LongitudeDegrees>20.3983604907989501953125</LongitudeDegrees>
            </Position>
            <AltitudeMeters>391.399993896484375</AltitudeMeters>
            <DistanceMeters>NAN</DistanceMeters>
          </Trackpoint>
          <Trackpoint>
            <Time>2022-09-22T08:36:13.000Z</Time>
            <Position>
              <LatitudeDegrees>49.5066963694989681243896484375</LatitudeDegrees>
              <LongitudeDegrees>20.3982436470687389373779296875</LongitudeDegrees>
            </Position>
            <AltitudeMeters>391.399993896484375</AltitudeMeters>
            <DistanceMeters>NAN</DistanceMeters>
          </Trackpoint>
          <Trackpoint>
            <Time>2022-09-22T08:36:21.000Z</Time>
            <Position>
              <LatitudeDegrees>49.50694841332733631134033203125</LatitudeDegrees>
              <LongitudeDegrees>20.39810576476156711578369140625</LongitudeDegrees>
            </Position>
            <AltitudeMeters>391.600006103515625</AltitudeMeters>
            <DistanceMeters>NAN</DistanceMeters>
          </Trackpoint>
          <Trackpoint>
            <Time>2022-09-22T08:36:25.000Z</Time>
            <Position>
              <LatitudeDegrees>49.50706341303884983062744140625</LatitudeDegrees>
              <LongitudeDegrees>20.39807324297726154327392578125</LongitudeDegrees>
            </Position>
            <AltitudeMeters>391.600006103515625</AltitudeMeters>
            <DistanceMeters>NAN</DistanceMeters>
          </Trackpoint>
          <Trackpoint>
            <Time>2022-09-22T08:36:28.000Z</Time>
            <Position>
              <LatitudeDegrees>49.5071650855243206024169921875</LatitudeDegrees>
              <LongitudeDegrees>20.39805513806641101837158203125</LongitudeDegrees>
            </Position>
            <AltitudeMeters>391.600006103515625</AltitudeMeters>
            <DistanceMeters>NAN</DistanceMeters>
          </Trackpoint>
          <Trackpoint>
            <Time>2022-09-22T08:36:36.000Z</Time>
            <Position>
              <LatitudeDegrees>49.507455267012119293212890625</LatitudeDegrees>
              <LongitudeDegrees>20.39802496321499347686767578125</LongitudeDegrees>
            </Position>
            <AltitudeMeters>391.79998779296875</AltitudeMeters>
            <DistanceMeters>NAN</DistanceMeters>
          </Trackpoint>
          <Trackpoint>
            <Time>2022-09-22T08:36:43.000Z</Time>
            <Position>
              <LatitudeDegrees>49.5076720230281352996826171875</LatitudeDegrees>
              <LongitudeDegrees>20.3979992307722568511962890625</LongitudeDegrees>
            </Position>
            <AltitudeMeters>390.600006103515625</AltitudeMeters>
            <DistanceMeters>NAN</DistanceMeters>
          </Trackpoint>
          <Trackpoint>
            <Time>2022-09-22T08:36:46.000Z</Time>
            <Position>
              <LatitudeDegrees>49.5077608712017536163330078125</LatitudeDegrees>
              <LongitudeDegrees>20.39798296988010406494140625</LongitudeDegrees>
            </Position>
            <AltitudeMeters>390.399993896484375</AltitudeMeters>
            <DistanceMeters>NAN</DistanceMeters>
          </Trackpoint>
          <Trackpoint>
            <Time>2022-09-22T08:36:53.000Z</Time>
            <Position>
              <LatitudeDegrees>49.50801023282110691070556640625</LatitudeDegrees>
              <LongitudeDegrees>20.397973917424678802490234375</LongitudeDegrees>
            </Position>
            <AltitudeMeters>390.20001220703125</AltitudeMeters>
            <DistanceMeters>NAN</DistanceMeters>
          </Trackpoint>
          <Trackpoint>
            <Time>2022-09-22T08:36:58.000Z</Time>
            <Position>
              <LatitudeDegrees>49.50818113982677459716796875</LatitudeDegrees>
              <LongitudeDegrees>20.39794676005840301513671875</LongitudeDegrees>
            </Position>
            <AltitudeMeters>390.20001220703125</AltitudeMeters>
            <DistanceMeters>NAN</DistanceMeters>
          </Trackpoint>
          <Trackpoint>
            <Time>2022-09-22T08:37:01.000Z</Time>
            <Position>
              <LatitudeDegrees>49.50827174820005893707275390625</LatitudeDegrees>
              <LongitudeDegrees>20.39795958437025547027587890625</LongitudeDegrees>
            </Position>
            <AltitudeMeters>390</AltitudeMeters>
            <DistanceMeters>NAN</DistanceMeters>
          </Trackpoint>
          <Trackpoint>
            <Time>2022-09-22T08:37:09.000Z</Time>
            <Position>
              <LatitudeDegrees>49.50850996188819408416748046875</LatitudeDegrees>
              <LongitudeDegrees>20.397967211902141571044921875</LongitudeDegrees>
            </Position>
            <AltitudeMeters>390</AltitudeMeters>
            <DistanceMeters>NAN</DistanceMeters>
          </Trackpoint>
          <Trackpoint>
            <Time>2022-09-22T08:37:19.000Z</Time>
            <Position>
              <LatitudeDegrees>49.5087864808738231658935546875</LatitudeDegrees>
              <LongitudeDegrees>20.398028902709484100341796875</LongitudeDegrees>
            </Position>
            <AltitudeMeters>390.399993896484375</AltitudeMeters>
            <DistanceMeters>NAN</DistanceMeters>
          </Trackpoint>
          <Trackpoint>
            <Time>2022-09-22T08:37:25.000Z</Time>
            <Position>
              <LatitudeDegrees>49.50897029601037502288818359375</LatitudeDegrees>
              <LongitudeDegrees>20.39810945279896259307861328125</LongitudeDegrees>
            </Position>
            <AltitudeMeters>390.600006103515625</AltitudeMeters>
            <DistanceMeters>NAN</DistanceMeters>
          </Trackpoint>
          <Trackpoint>
            <Time>2022-09-22T08:37:26.000Z</Time>
            <Position>
              <LatitudeDegrees>49.50899594463407993316650390625</LatitudeDegrees>
              <LongitudeDegrees>20.39812370203435420989990234375</LongitudeDegrees>
            </Position>
            <AltitudeMeters>390.399993896484375</AltitudeMeters>
            <DistanceMeters>NAN</DistanceMeters>
          </Trackpoint>
          <Trackpoint>
            <Time>2022-09-22T08:37:32.000Z</Time>
            <Position>
              <LatitudeDegrees>49.50911161489784717559814453125</LatitudeDegrees>
              <LongitudeDegrees>20.39816343225538730621337890625</LongitudeDegrees>
            </Position>
            <AltitudeMeters>390.79998779296875</AltitudeMeters>
            <DistanceMeters>NAN</DistanceMeters>
          </Trackpoint>
          <Trackpoint>
            <Time>2022-09-22T08:37:42.000Z</Time>
            <Position>
              <LatitudeDegrees>49.5093279518187046051025390625</LatitudeDegrees>
              <LongitudeDegrees>20.3982325829565525054931640625</LongitudeDegrees>
            </Position>
            <AltitudeMeters>391</AltitudeMeters>
            <DistanceMeters>NAN</DistanceMeters>
          </Trackpoint>
          <Trackpoint>
            <Time>2022-09-22T08:37:50.000Z</Time>
            <Position>
              <LatitudeDegrees>49.50952501036226749420166015625</LatitudeDegrees>
              <LongitudeDegrees>20.398265607655048370361328125</LongitudeDegrees>
            </Position>
            <AltitudeMeters>391</AltitudeMeters>
            <DistanceMeters>NAN</DistanceMeters>
          </Trackpoint>
          <Trackpoint>
            <Time>2022-09-22T08:37:58.000Z</Time>
            <Position>
              <LatitudeDegrees>49.50976959429681301116943359375</LatitudeDegrees>
              <LongitudeDegrees>20.3982909210026264190673828125</LongitudeDegrees>
            </Position>
            <AltitudeMeters>391</AltitudeMeters>
            <DistanceMeters>NAN</DistanceMeters>
          </Trackpoint>
          <Trackpoint>
            <Time>2022-09-22T08:38:06.000Z</Time>
            <Position>
              <LatitudeDegrees>49.509969167411327362060546875</LatitudeDegrees>
              <LongitudeDegrees>20.39829871617257595062255859375</LongitudeDegrees>
            </Position>
            <AltitudeMeters>390.79998779296875</AltitudeMeters>
            <DistanceMeters>NAN</DistanceMeters>
          </Trackpoint>
          <Trackpoint>
            <Time>2022-09-22T08:38:13.000Z</Time>
            <Position>
              <LatitudeDegrees>49.51010621152818202972412109375</LatitudeDegrees>
              <LongitudeDegrees>20.39830391295254230499267578125</LongitudeDegrees>
            </Position>
            <AltitudeMeters>390</AltitudeMeters>
            <DistanceMeters>NAN</DistanceMeters>
          </Trackpoint>
          <Trackpoint>
            <Time>2022-09-22T08:38:16.000Z</Time>
            <Position>
              <LatitudeDegrees>49.510192461311817169189453125</LatitudeDegrees>
              <LongitudeDegrees>20.3983083553612232208251953125</LongitudeDegrees>
            </Position>
            <AltitudeMeters>390</AltitudeMeters>
            <DistanceMeters>NAN</DistanceMeters>
          </Trackpoint>
          <Trackpoint>
            <Time>2022-09-22T08:38:19.000Z</Time>
            <Position>
              <LatitudeDegrees>49.5102846622467041015625</LatitudeDegrees>
              <LongitudeDegrees>20.3983217664062976837158203125</LongitudeDegrees>
            </Position>
            <AltitudeMeters>390.20001220703125</AltitudeMeters>
            <DistanceMeters>NAN</DistanceMeters>
          </Trackpoint>
          <Trackpoint>
            <Time>2022-09-22T08:38:24.000Z</Time>
            <Position>
              <LatitudeDegrees>49.51043880544602870941162109375</LatitudeDegrees>
              <LongitudeDegrees>20.39832285605370998382568359375</LongitudeDegrees>
            </Position>
            <AltitudeMeters>390.79998779296875</AltitudeMeters>
            <DistanceMeters>NAN</DistanceMeters>
          </Trackpoint>
          <Trackpoint>
            <Time>2022-09-22T08:38:27.000Z</Time>
            <Position>
              <LatitudeDegrees>49.51052379794418811798095703125</LatitudeDegrees>
              <LongitudeDegrees>20.39832285605370998382568359375</LongitudeDegrees>
            </Position>
            <AltitudeMeters>390.399993896484375</AltitudeMeters>
            <DistanceMeters>NAN</DistanceMeters>
          </Trackpoint>
          <Trackpoint>
            <Time>2022-09-22T08:38:30.000Z</Time>
            <Position>
              <LatitudeDegrees>49.5106006599962711334228515625</LatitudeDegrees>
              <LongitudeDegrees>20.39832771755754947662353515625</LongitudeDegrees>
            </Position>
            <AltitudeMeters>390</AltitudeMeters>
            <DistanceMeters>NAN</DistanceMeters>
          </Trackpoint>
          <Trackpoint>
            <Time>2022-09-22T08:38:33.000Z</Time>
            <Position>
              <LatitudeDegrees>49.5106683857738971710205078125</LatitudeDegrees>
              <LongitudeDegrees>20.398330651223659515380859375</LongitudeDegrees>
            </Position>
            <AltitudeMeters>390</AltitudeMeters>
            <DistanceMeters>NAN</DistanceMeters>
          </Trackpoint>
          <Trackpoint>
            <Time>2022-09-22T08:38:34.000Z</Time>
            <Position>
              <LatitudeDegrees>49.51070367358624935150146484375</LatitudeDegrees>
              <LongitudeDegrees>20.39833509363234043121337890625</LongitudeDegrees>
            </Position>
            <AltitudeMeters>390</AltitudeMeters>
            <DistanceMeters>NAN</DistanceMeters>
          </Trackpoint>
          <Trackpoint>
            <Time>2022-09-22T08:38:39.000Z</Time>
            <Position>
              <LatitudeDegrees>49.5108680427074432373046875</LatitudeDegrees>
              <LongitudeDegrees>20.3983070142567157745361328125</LongitudeDegrees>
            </Position>
            <AltitudeMeters>390</AltitudeMeters>
            <DistanceMeters>NAN</DistanceMeters>
          </Trackpoint>
          <Trackpoint>
            <Time>2022-09-22T08:38:40.000Z</Time>
            <Position>
              <LatitudeDegrees>49.51089343987405300140380859375</LatitudeDegrees>
              <LongitudeDegrees>20.39830341003835201263427734375</LongitudeDegrees>
            </Position>
            <AltitudeMeters>390</AltitudeMeters>
            <DistanceMeters>NAN</DistanceMeters>
          </Trackpoint>
          <Trackpoint>
            <Time>2022-09-22T08:38:46.000Z</Time>
            <Position>
              <LatitudeDegrees>49.51105705462396144866943359375</LatitudeDegrees>
              <LongitudeDegrees>20.3982909210026264190673828125</LongitudeDegrees>
            </Position>
            <AltitudeMeters>390.20001220703125</AltitudeMeters>
            <DistanceMeters>NAN</DistanceMeters>
          </Trackpoint>
          <Trackpoint>
            <Time>2022-09-22T08:38:48.000Z</Time>
            <Position>
              <LatitudeDegrees>49.51111203990876674652099609375</LatitudeDegrees>
              <LongitudeDegrees>20.39829008281230926513671875</LongitudeDegrees>
            </Position>
            <AltitudeMeters>390.20001220703125</AltitudeMeters>
            <DistanceMeters>NAN</DistanceMeters>
          </Trackpoint>
          <Trackpoint>
            <Time>2022-09-22T08:38:54.000Z</Time>
            <Position>
              <LatitudeDegrees>49.51128822751343250274658203125</LatitudeDegrees>
              <LongitudeDegrees>20.3982892446219921112060546875</LongitudeDegrees>
            </Position>
            <AltitudeMeters>390.20001220703125</AltitudeMeters>
            <DistanceMeters>NAN</DistanceMeters>
          </Trackpoint>
          <Trackpoint>
            <Time>2022-09-22T08:39:02.000Z</Time>
            <Position>
              <LatitudeDegrees>49.5115504972636699676513671875</LatitudeDegrees>
              <LongitudeDegrees>20.3983060084283351898193359375</LongitudeDegrees>
            </Position>
            <AltitudeMeters>389.600006103515625</AltitudeMeters>
            <DistanceMeters>NAN</DistanceMeters>
          </Trackpoint>
          <Trackpoint>
            <Time>2022-09-22T08:39:05.000Z</Time>
            <Position>
              <LatitudeDegrees>49.51167178340256214141845703125</LatitudeDegrees>
              <LongitudeDegrees>20.39830106310546398162841796875</LongitudeDegrees>
            </Position>
            <AltitudeMeters>389.399993896484375</AltitudeMeters>
            <DistanceMeters>NAN</DistanceMeters>
          </Trackpoint>
          <Trackpoint>
            <Time>2022-09-22T08:39:08.000Z</Time>
            <Position>
              <LatitudeDegrees>49.51181645505130290985107421875</LatitudeDegrees>
              <LongitudeDegrees>20.39829536341130733489990234375</LongitudeDegrees>
            </Position>
            <AltitudeMeters>389.20001220703125</AltitudeMeters>
            <DistanceMeters>NAN</DistanceMeters>
          </Trackpoint>
          <Trackpoint>
            <Time>2022-09-22T08:39:16.000Z</Time>
            <Position>
              <LatitudeDegrees>49.5121858455240726470947265625</LatitudeDegrees>
              <LongitudeDegrees>20.39831715635955333709716796875</LongitudeDegrees>
            </Position>
            <AltitudeMeters>388.600006103515625</AltitudeMeters>
            <DistanceMeters>NAN</DistanceMeters>
          </Trackpoint>
          <Trackpoint>
            <Time>2022-09-22T08:39:22.000Z</Time>
            <Position>
              <LatitudeDegrees>49.5124222151935100555419921875</LatitudeDegrees>
              <LongitudeDegrees>20.39832268841564655303955078125</LongitudeDegrees>
            </Position>
            <AltitudeMeters>388.20001220703125</AltitudeMeters>
            <DistanceMeters>NAN</DistanceMeters>
          </Trackpoint>
          <Trackpoint>
            <Time>2022-09-22T08:39:23.000Z</Time>
            <Position>
              <LatitudeDegrees>49.51245926320552825927734375</LatitudeDegrees>
              <LongitudeDegrees>20.3983221016824245452880859375</LongitudeDegrees>
            </Position>
            <AltitudeMeters>388.20001220703125</AltitudeMeters>
            <DistanceMeters>NAN</DistanceMeters>
          </Trackpoint>
          <Trackpoint>
            <Time>2022-09-22T08:39:31.000Z</Time>
            <Position>
              <LatitudeDegrees>49.5127216167747974395751953125</LatitudeDegrees>
              <LongitudeDegrees>20.39834230206906795501708984375</LongitudeDegrees>
            </Position>
            <AltitudeMeters>388.20001220703125</AltitudeMeters>
            <DistanceMeters>NAN</DistanceMeters>
          </Trackpoint>
          <Trackpoint>
            <Time>2022-09-22T08:39:32.000Z</Time>
            <Position>
              <LatitudeDegrees>49.51274835504591464996337890625</LatitudeDegrees>
              <LongitudeDegrees>20.3983465768396854400634765625</LongitudeDegrees>
            </Position>
            <AltitudeMeters>388.20001220703125</AltitudeMeters>
            <DistanceMeters>NAN</DistanceMeters>
          </Trackpoint>
          <Trackpoint>
            <Time>2022-09-22T08:39:36.000Z</Time>
            <Position>
              <LatitudeDegrees>49.5128610916435718536376953125</LatitudeDegrees>
              <LongitudeDegrees>20.39835437200963497161865234375</LongitudeDegrees>
            </Position>
            <AltitudeMeters>388</AltitudeMeters>
            <DistanceMeters>NAN</DistanceMeters>
          </Trackpoint>
          <Trackpoint>
            <Time>2022-09-22T08:39:40.000Z</Time>
            <Position>
              <LatitudeDegrees>49.5129724033176898956298828125</LatitudeDegrees>
              <LongitudeDegrees>20.3983713872730731964111328125</LongitudeDegrees>
            </Position>
            <AltitudeMeters>387.79998779296875</AltitudeMeters>
            <DistanceMeters>NAN</DistanceMeters>
          </Trackpoint>
          <Trackpoint>
            <Time>2022-09-22T08:39:42.000Z</Time>
            <Position>
              <LatitudeDegrees>49.5130464993417263031005859375</LatitudeDegrees>
              <LongitudeDegrees>20.39837499149143695831298828125</LongitudeDegrees>
            </Position>
            <AltitudeMeters>387.79998779296875</AltitudeMeters>
            <DistanceMeters>NAN</DistanceMeters>
          </Trackpoint>
          <Trackpoint>
            <Time>2022-09-22T08:39:50.000Z</Time>
            <Position>
              <LatitudeDegrees>49.5132694579660892486572265625</LatitudeDegrees>
              <LongitudeDegrees>20.39837951771914958953857421875</LongitudeDegrees>
            </Position>
            <AltitudeMeters>387.79998779296875</AltitudeMeters>
            <DistanceMeters>NAN</DistanceMeters>
          </Trackpoint>
          <Trackpoint>
            <Time>2022-09-22T08:39:58.000Z</Time>
            <Position>
              <LatitudeDegrees>49.513523094356060028076171875</LatitudeDegrees>
              <LongitudeDegrees>20.3983972035348415374755859375</LongitudeDegrees>
            </Position>
            <AltitudeMeters>387.600006103515625</AltitudeMeters>
            <DistanceMeters>NAN</DistanceMeters>
          </Trackpoint>
          <Trackpoint>
            <Time>2022-09-22T08:39:59.000Z</Time>
            <Position>
              <LatitudeDegrees>49.51355637051165103912353515625</LatitudeDegrees>
              <LongitudeDegrees>20.39840164594352245330810546875</LongitudeDegrees>
            </Position>
            <AltitudeMeters>387.600006103515625</AltitudeMeters>
            <DistanceMeters>NAN</DistanceMeters>
          </Trackpoint>
          <Trackpoint>
            <Time>2022-09-22T08:40:06.000Z</Time>
            <Position>
              <LatitudeDegrees>49.51377782039344310760498046875</LatitudeDegrees>
              <LongitudeDegrees>20.3984387777745723724365234375</LongitudeDegrees>
            </Position>
            <AltitudeMeters>387.79998779296875</AltitudeMeters>
            <DistanceMeters>NAN</DistanceMeters>
          </Trackpoint>
          <Trackpoint>
            <Time>2022-09-22T08:40:09.000Z</Time>
            <Position>
              <LatitudeDegrees>49.5138548500835895538330078125</LatitudeDegrees>
              <LongitudeDegrees>20.3984565474092960357666015625</LongitudeDegrees>
            </Position>
            <AltitudeMeters>387.600006103515625</AltitudeMeters>
            <DistanceMeters>NAN</DistanceMeters>
          </Trackpoint>
          <Trackpoint>
            <Time>2022-09-22T08:40:12.000Z</Time>
            <Position>
              <LatitudeDegrees>49.51393020339310169219970703125</LatitudeDegrees>
              <LongitudeDegrees>20.398484207689762115478515625</LongitudeDegrees>
            </Position>
            <AltitudeMeters>387.600006103515625</AltitudeMeters>
            <DistanceMeters>NAN</DistanceMeters>
          </Trackpoint>
          <Trackpoint>
            <Time>2022-09-22T08:40:15.000Z</Time>
            <Position>
              <LatitudeDegrees>49.513989128172397613525390625</LatitudeDegrees>
              <LongitudeDegrees>20.398507677018642425537109375</LongitudeDegrees>
            </Position>
            <AltitudeMeters>387.600006103515625</AltitudeMeters>
            <DistanceMeters>NAN</DistanceMeters>
          </Trackpoint>
          <Trackpoint>
            <Time>2022-09-22T08:40:21.000Z</Time>
            <Position>
              <LatitudeDegrees>49.51414327137172222137451171875</LatitudeDegrees>
              <LongitudeDegrees>20.39856232702732086181640625</LongitudeDegrees>
            </Position>
            <AltitudeMeters>387.600006103515625</AltitudeMeters>
            <DistanceMeters>NAN</DistanceMeters>
          </Trackpoint>
          <Trackpoint>
            <Time>2022-09-22T08:40:29.000Z</Time>
            <Position>
              <LatitudeDegrees>49.5143359713256359100341796875</LatitudeDegrees>
              <LongitudeDegrees>20.39867623709142208099365234375</LongitudeDegrees>
            </Position>
            <AltitudeMeters>387.600006103515625</AltitudeMeters>
            <DistanceMeters>NAN</DistanceMeters>
          </Trackpoint>
          <Trackpoint>
            <Time>2022-09-22T08:40:35.000Z</Time>
            <Position>
              <LatitudeDegrees>49.51449547894299030303955078125</LatitudeDegrees>
              <LongitudeDegrees>20.39877531118690967559814453125</LongitudeDegrees>
            </Position>
            <AltitudeMeters>387.600006103515625</AltitudeMeters>
            <DistanceMeters>NAN</DistanceMeters>
          </Trackpoint>
          <Trackpoint>
            <Time>2022-09-22T08:40:42.000Z</Time>
            <Position>
              <LatitudeDegrees>49.5147064514458179473876953125</LatitudeDegrees>
              <LongitudeDegrees>20.39897672832012176513671875</LongitudeDegrees>
            </Position>
            <AltitudeMeters>388.20001220703125</AltitudeMeters>
            <DistanceMeters>NAN</DistanceMeters>
          </Trackpoint>
          <Trackpoint>
            <Time>2022-09-22T08:40:44.000Z</Time>
            <Position>
              <LatitudeDegrees>49.51475883834064006805419921875</LatitudeDegrees>
              <LongitudeDegrees>20.39903565309941768646240234375</LongitudeDegrees>
            </Position>
            <AltitudeMeters>388.600006103515625</AltitudeMeters>
            <DistanceMeters>NAN</DistanceMeters>
          </Trackpoint>
          <Trackpoint>
            <Time>2022-09-22T08:40:49.000Z</Time>
            <Position>
              <LatitudeDegrees>49.51490300707519054412841796875</LatitudeDegrees>
              <LongitudeDegrees>20.39916004054248332977294921875</LongitudeDegrees>
            </Position>
            <AltitudeMeters>389.399993896484375</AltitudeMeters>
            <DistanceMeters>NAN</DistanceMeters>
          </Trackpoint>
          <Trackpoint>
            <Time>2022-09-22T08:40:54.000Z</Time>
            <Position>
              <LatitudeDegrees>49.51505689881742000579833984375</LatitudeDegrees>
              <LongitudeDegrees>20.399261377751827239990234375</LongitudeDegrees>
            </Position>
            <AltitudeMeters>389.600006103515625</AltitudeMeters>
            <DistanceMeters>NAN</DistanceMeters>
          </Trackpoint>
          <Trackpoint>
            <Time>2022-09-22T08:40:56.000Z</Time>
            <Position>
              <LatitudeDegrees>49.515110291540622711181640625</LatitudeDegrees>
              <LongitudeDegrees>20.39930655620992183685302734375</LongitudeDegrees>
            </Position>
            <AltitudeMeters>389.600006103515625</AltitudeMeters>
            <DistanceMeters>NAN</DistanceMeters>
          </Trackpoint>
          <Trackpoint>
            <Time>2022-09-22T08:41:05.000Z</Time>
            <Position>
              <LatitudeDegrees>49.51533366926014423370361328125</LatitudeDegrees>
              <LongitudeDegrees>20.39955063723027706146240234375</LongitudeDegrees>
            </Position>
            <AltitudeMeters>389</AltitudeMeters>
            <DistanceMeters>NAN</DistanceMeters>
          </Trackpoint>
          <Trackpoint>
            <Time>2022-09-22T08:41:10.000Z</Time>
            <Position>
              <LatitudeDegrees>49.5154197514057159423828125</LatitudeDegrees>
              <LongitudeDegrees>20.39971559308469295501708984375</LongitudeDegrees>
            </Position>
            <AltitudeMeters>389</AltitudeMeters>
            <DistanceMeters>NAN</DistanceMeters>
          </Trackpoint>
          <Trackpoint>
            <Time>2022-09-22T08:41:14.000Z</Time>
            <Position>
              <LatitudeDegrees>49.51549309305846691131591796875</LatitudeDegrees>
              <LongitudeDegrees>20.399862192571163177490234375</LongitudeDegrees>
            </Position>
            <AltitudeMeters>388.79998779296875</AltitudeMeters>
            <DistanceMeters>NAN</DistanceMeters>
          </Trackpoint>
          <Trackpoint>
            <Time>2022-09-22T08:41:16.000Z</Time>
            <Position>
              <LatitudeDegrees>49.515541456639766693115234375</LatitudeDegrees>
              <LongitudeDegrees>20.39993369020521640777587890625</LongitudeDegrees>
            </Position>
            <AltitudeMeters>388.79998779296875</AltitudeMeters>
            <DistanceMeters>NAN</DistanceMeters>
          </Trackpoint>
          <Trackpoint>
            <Time>2022-09-22T08:41:19.000Z</Time>
            <Position>
              <LatitudeDegrees>49.5156334899365901947021484375</LatitudeDegrees>
              <LongitudeDegrees>20.400029830634593963623046875</LongitudeDegrees>
            </Position>
            <AltitudeMeters>388.20001220703125</AltitudeMeters>
            <DistanceMeters>NAN</DistanceMeters>
          </Trackpoint>
          <Trackpoint>
            <Time>2022-09-22T08:41:23.000Z</Time>
            <Position>
              <LatitudeDegrees>49.51575729064643383026123046875</LatitudeDegrees>
              <LongitudeDegrees>20.40017567574977874755859375</LongitudeDegrees>
            </Position>
            <AltitudeMeters>388</AltitudeMeters>
            <DistanceMeters>NAN</DistanceMeters>
          </Trackpoint>
          <Trackpoint>
            <Time>2022-09-22T08:41:31.000Z</Time>
            <Position>
              <LatitudeDegrees>49.51595895923674106597900390625</LatitudeDegrees>
              <LongitudeDegrees>20.40060122497379779815673828125</LongitudeDegrees>
            </Position>
            <AltitudeMeters>387.399993896484375</AltitudeMeters>
            <DistanceMeters>NAN</DistanceMeters>
          </Trackpoint>
          <Trackpoint>
            <Time>2022-09-22T08:41:33.000Z</Time>
            <Position>
              <LatitudeDegrees>49.51599634252488613128662109375</LatitudeDegrees>
              <LongitudeDegrees>20.40071706287562847137451171875</LongitudeDegrees>
            </Position>
            <AltitudeMeters>387.399993896484375</AltitudeMeters>
            <DistanceMeters>NAN</DistanceMeters>
          </Trackpoint>
          <Trackpoint>
            <Time>2022-09-22T08:41:35.000Z</Time>
            <Position>
              <LatitudeDegrees>49.5160297863185405731201171875</LatitudeDegrees>
              <LongitudeDegrees>20.4008417017757892608642578125</LongitudeDegrees>
            </Position>
            <AltitudeMeters>387.20001220703125</AltitudeMeters>
            <DistanceMeters>NAN</DistanceMeters>
          </Trackpoint>
          <Trackpoint>
            <Time>2022-09-22T08:41:37.000Z</Time>
            <Position>
              <LatitudeDegrees>49.51606725342571735382080078125</LatitudeDegrees>
              <LongitudeDegrees>20.40096198208630084991455078125</LongitudeDegrees>
            </Position>
            <AltitudeMeters>386.79998779296875</AltitudeMeters>
            <DistanceMeters>NAN</DistanceMeters>
          </Trackpoint>
          <Trackpoint>
            <Time>2022-09-22T08:41:39.000Z</Time>
            <Position>
              <LatitudeDegrees>49.51609256677329540252685546875</LatitudeDegrees>
              <LongitudeDegrees>20.40107463486492633819580078125</LongitudeDegrees>
            </Position>
            <AltitudeMeters>386.600006103515625</AltitudeMeters>
            <DistanceMeters>NAN</DistanceMeters>
          </Trackpoint>
          <Trackpoint>
            <Time>2022-09-22T08:41:44.000Z</Time>
            <Position>
              <LatitudeDegrees>49.51615107245743274688720703125</LatitudeDegrees>
              <LongitudeDegrees>20.4013479687273502349853515625</LongitudeDegrees>
            </Position>
            <AltitudeMeters>386.600006103515625</AltitudeMeters>
            <DistanceMeters>NAN</DistanceMeters>
          </Trackpoint>
          <Trackpoint>
            <Time>2022-09-22T08:41:48.000Z</Time>
            <Position>
              <LatitudeDegrees>49.51619365252554416656494140625</LatitudeDegrees>
              <LongitudeDegrees>20.4015923850238323211669921875</LongitudeDegrees>
            </Position>
            <AltitudeMeters>386.20001220703125</AltitudeMeters>
            <DistanceMeters>NAN</DistanceMeters>
          </Trackpoint>
          <Trackpoint>
            <Time>2022-09-22T08:41:49.000Z</Time>
            <Position>
              <LatitudeDegrees>49.51620102860033512115478515625</LatitudeDegrees>
              <LongitudeDegrees>20.4016557522118091583251953125</LongitudeDegrees>
            </Position>
            <AltitudeMeters>386</AltitudeMeters>
            <DistanceMeters>NAN</DistanceMeters>
          </Trackpoint>
          <Trackpoint>
            <Time>2022-09-22T08:41:51.000Z</Time>
            <Position>
              <LatitudeDegrees>49.51621728949248790740966796875</LatitudeDegrees>
              <LongitudeDegrees>20.40178902447223663330078125</LongitudeDegrees>
            </Position>
            <AltitudeMeters>385.79998779296875</AltitudeMeters>
            <DistanceMeters>NAN</DistanceMeters>
          </Trackpoint>
          <Trackpoint>
            <Time>2022-09-22T08:41:53.000Z</Time>
            <Position>
              <LatitudeDegrees>49.51624226756393909454345703125</LatitudeDegrees>
              <LongitudeDegrees>20.40191709995269775390625</LongitudeDegrees>
            </Position>
            <AltitudeMeters>385.600006103515625</AltitudeMeters>
            <DistanceMeters>NAN</DistanceMeters>
          </Trackpoint>
          <Trackpoint>
            <Time>2022-09-22T08:41:54.000Z</Time>
            <Position>
              <LatitudeDegrees>49.51625048182904720306396484375</LatitudeDegrees>
              <LongitudeDegrees>20.40197786875069141387939453125</LongitudeDegrees>
            </Position>
            <AltitudeMeters>385.600006103515625</AltitudeMeters>
            <DistanceMeters>NAN</DistanceMeters>
          </Trackpoint>
          <Trackpoint>
            <Time>2022-09-22T08:41:58.000Z</Time>
            <Position>
              <LatitudeDegrees>49.5162775553762912750244140625</LatitudeDegrees>
              <LongitudeDegrees>20.4022166691720485687255859375</LongitudeDegrees>
            </Position>
            <AltitudeMeters>385.399993896484375</AltitudeMeters>
            <DistanceMeters>NAN</DistanceMeters>
          </Trackpoint>
          <Trackpoint>
            <Time>2022-09-22T08:42:01.000Z</Time>
            <Position>
              <LatitudeDegrees>49.51629004441201686859130859375</LatitudeDegrees>
              <LongitudeDegrees>20.40241573937237262725830078125</LongitudeDegrees>
            </Position>
            <AltitudeMeters>385.20001220703125</AltitudeMeters>
            <DistanceMeters>NAN</DistanceMeters>
          </Trackpoint>
          <Trackpoint>
            <Time>2022-09-22T08:42:02.000Z</Time>
            <Position>
              <LatitudeDegrees>49.51629021205008029937744140625</LatitudeDegrees>
              <LongitudeDegrees>20.4024637676775455474853515625</LongitudeDegrees>
            </Position>
            <AltitudeMeters>385</AltitudeMeters>
            <DistanceMeters>NAN</DistanceMeters>
          </Trackpoint>
          <Trackpoint>
            <Time>2022-09-22T08:42:04.000Z</Time>
            <Position>
              <LatitudeDegrees>49.5162859372794628143310546875</LatitudeDegrees>
              <LongitudeDegrees>20.40258136577904224395751953125</LongitudeDegrees>
            </Position>
            <AltitudeMeters>385</AltitudeMeters>
            <DistanceMeters>NAN</DistanceMeters>
          </Trackpoint>
          <Trackpoint>
            <Time>2022-09-22T08:42:10.000Z</Time>
            <Position>
              <LatitudeDegrees>49.516290128231048583984375</LatitudeDegrees>
              <LongitudeDegrees>20.402920246124267578125</LongitudeDegrees>
            </Position>
            <AltitudeMeters>384.79998779296875</AltitudeMeters>
            <DistanceMeters>NAN</DistanceMeters>
          </Trackpoint>
          <Trackpoint>
            <Time>2022-09-22T08:42:15.000Z</Time>
            <Position>
              <LatitudeDegrees>49.51630647294223308563232421875</LatitudeDegrees>
              <LongitudeDegrees>20.4030932486057281494140625</LongitudeDegrees>
            </Position>
            <AltitudeMeters>384.79998779296875</AltitudeMeters>
            <DistanceMeters>NAN</DistanceMeters>
          </Trackpoint>
          <Trackpoint>
            <Time>2022-09-22T08:42:22.000Z</Time>
            <Position>
              <LatitudeDegrees>49.51630647294223308563232421875</LatitudeDegrees>
              <LongitudeDegrees>20.4030932486057281494140625</LongitudeDegrees>
            </Position>
            <AltitudeMeters>384.600006103515625</AltitudeMeters>
            <DistanceMeters>NAN</DistanceMeters>
          </Trackpoint>
          <Trackpoint>
            <Time>2022-09-22T08:42:30.000Z</Time>
            <Position>
              <LatitudeDegrees>49.51630647294223308563232421875</LatitudeDegrees>
              <LongitudeDegrees>20.4030932486057281494140625</LongitudeDegrees>
            </Position>
            <AltitudeMeters>384.79998779296875</AltitudeMeters>
            <DistanceMeters>NAN</DistanceMeters>
          </Trackpoint>
          <Trackpoint>
            <Time>2022-09-22T08:42:40.000Z</Time>
            <Position>
              <LatitudeDegrees>49.51630647294223308563232421875</LatitudeDegrees>
              <LongitudeDegrees>20.4030932486057281494140625</LongitudeDegrees>
            </Position>
            <AltitudeMeters>385</AltitudeMeters>
            <DistanceMeters>NAN</DistanceMeters>
          </Trackpoint>
          <Trackpoint>
            <Time>2022-09-22T08:42:45.000Z</Time>
            <Position>
              <LatitudeDegrees>49.51630647294223308563232421875</LatitudeDegrees>
              <LongitudeDegrees>20.4030932486057281494140625</LongitudeDegrees>
            </Position>
            <AltitudeMeters>385</AltitudeMeters>
            <DistanceMeters>NAN</DistanceMeters>
          </Trackpoint>
          <Trackpoint>
            <Time>2022-09-22T08:42:50.000Z</Time>
            <Position>
              <LatitudeDegrees>49.51630881987512111663818359375</LatitudeDegrees>
              <LongitudeDegrees>20.40308662690222263336181640625</LongitudeDegrees>
            </Position>
            <AltitudeMeters>385</AltitudeMeters>
            <DistanceMeters>NAN</DistanceMeters>
          </Trackpoint>
          <Trackpoint>
            <Time>2022-09-22T08:42:53.000Z</Time>
            <Position>
              <LatitudeDegrees>49.51630881987512111663818359375</LatitudeDegrees>
              <LongitudeDegrees>20.40308025665581226348876953125</LongitudeDegrees>
            </Position>
            <AltitudeMeters>385</AltitudeMeters>
            <DistanceMeters>NAN</DistanceMeters>
          </Trackpoint>
          <Trackpoint>
            <Time>2022-09-22T08:43:08.000Z</Time>
            <Position>
              <LatitudeDegrees>49.51630881987512111663818359375</LatitudeDegrees>
              <LongitudeDegrees>20.403080172836780548095703125</LongitudeDegrees>
            </Position>
            <AltitudeMeters>384.600006103515625</AltitudeMeters>
            <DistanceMeters>NAN</DistanceMeters>
          </Trackpoint>
          <Trackpoint>
            <Time>2022-09-22T08:43:10.000Z</Time>
            <Position>
              <LatitudeDegrees>49.51630881987512111663818359375</LatitudeDegrees>
              <LongitudeDegrees>20.403080172836780548095703125</LongitudeDegrees>
            </Position>
            <AltitudeMeters>384.600006103515625</AltitudeMeters>
            <DistanceMeters>NAN</DistanceMeters>
          </Trackpoint>
          <Trackpoint>
            <Time>2022-09-22T08:43:29.000Z</Time>
            <Position>
              <LatitudeDegrees>49.51630881987512111663818359375</LatitudeDegrees>
              <LongitudeDegrees>20.403080172836780548095703125</LongitudeDegrees>
            </Position>
            <AltitudeMeters>384.399993896484375</AltitudeMeters>
            <DistanceMeters>NAN</DistanceMeters>
          </Trackpoint>
          <Trackpoint>
            <Time>2022-09-22T08:43:40.000Z</Time>
            <Position>
              <LatitudeDegrees>49.51630881987512111663818359375</LatitudeDegrees>
              <LongitudeDegrees>20.403080172836780548095703125</LongitudeDegrees>
            </Position>
            <AltitudeMeters>384.399993896484375</AltitudeMeters>
            <DistanceMeters>NAN</DistanceMeters>
          </Trackpoint>
          <Trackpoint>
            <Time>2022-09-22T08:43:43.000Z</Time>
            <Position>
              <LatitudeDegrees>49.51630881987512111663818359375</LatitudeDegrees>
              <LongitudeDegrees>20.403080172836780548095703125</LongitudeDegrees>
            </Position>
            <AltitudeMeters>384.399993896484375</AltitudeMeters>
            <DistanceMeters>NAN</DistanceMeters>
          </Trackpoint>
          <Trackpoint>
            <Time>2022-09-22T08:44:03.000Z</Time>
            <Position>
              <LatitudeDegrees>49.516314603388309478759765625</LatitudeDegrees>
              <LongitudeDegrees>20.40307640098035335540771484375</LongitudeDegrees>
            </Position>
            <AltitudeMeters>384.399993896484375</AltitudeMeters>
            <DistanceMeters>NAN</DistanceMeters>
          </Trackpoint>
          <Trackpoint>
            <Time>2022-09-22T08:44:10.000Z</Time>
            <Position>
              <LatitudeDegrees>49.516314603388309478759765625</LatitudeDegrees>
              <LongitudeDegrees>20.40307640098035335540771484375</LongitudeDegrees>
            </Position>
            <AltitudeMeters>384.399993896484375</AltitudeMeters>
            <DistanceMeters>NAN</DistanceMeters>
          </Trackpoint>
          <Trackpoint>
            <Time>2022-09-22T08:44:11.000Z</Time>
            <Position>
              <LatitudeDegrees>49.516314603388309478759765625</LatitudeDegrees>
              <LongitudeDegrees>20.40307640098035335540771484375</LongitudeDegrees>
            </Position>
            <AltitudeMeters>384.399993896484375</AltitudeMeters>
            <DistanceMeters>NAN</DistanceMeters>
          </Trackpoint>
          <Trackpoint>
            <Time>2022-09-22T08:44:14.000Z</Time>
            <Position>
              <LatitudeDegrees>49.516314603388309478759765625</LatitudeDegrees>
              <LongitudeDegrees>20.40307640098035335540771484375</LongitudeDegrees>
            </Position>
            <AltitudeMeters>384.399993896484375</AltitudeMeters>
            <DistanceMeters>NAN</DistanceMeters>
          </Trackpoint>
          <Trackpoint>
            <Time>2022-09-22T08:44:16.000Z</Time>
            <Position>
              <LatitudeDegrees>49.516314603388309478759765625</LatitudeDegrees>
              <LongitudeDegrees>20.40307790972292423248291015625</LongitudeDegrees>
            </Position>
            <AltitudeMeters>384.399993896484375</AltitudeMeters>
            <DistanceMeters>NAN</DistanceMeters>
          </Trackpoint>
          <Trackpoint>
            <Time>2022-09-22T08:44:21.000Z</Time>
            <Position>
              <LatitudeDegrees>49.51631150208413600921630859375</LatitudeDegrees>
              <LongitudeDegrees>20.40307992137968540191650390625</LongitudeDegrees>
            </Position>
            <AltitudeMeters>384.399993896484375</AltitudeMeters>
            <DistanceMeters>NAN</DistanceMeters>
          </Trackpoint>
          <Trackpoint>
            <Time>2022-09-22T08:44:28.000Z</Time>
            <Position>
              <LatitudeDegrees>49.51631150208413600921630859375</LatitudeDegrees>
              <LongitudeDegrees>20.40307992137968540191650390625</LongitudeDegrees>
            </Position>
            <AltitudeMeters>384.399993896484375</AltitudeMeters>
            <DistanceMeters>NAN</DistanceMeters>
          </Trackpoint>
          <Trackpoint>
            <Time>2022-09-22T08:44:33.000Z</Time>
            <Position>
              <LatitudeDegrees>49.516315944492816925048828125</LatitudeDegrees>
              <LongitudeDegrees>20.4030867107212543487548828125</LongitudeDegrees>
            </Position>
            <AltitudeMeters>384.399993896484375</AltitudeMeters>
            <DistanceMeters>NAN</DistanceMeters>
          </Trackpoint>
          <Trackpoint>
            <Time>2022-09-22T08:44:57.000Z</Time>
            <Position>
              <LatitudeDegrees>49.51631627976894378662109375</LatitudeDegrees>
              <LongitudeDegrees>20.40308746509253978729248046875</LongitudeDegrees>
            </Position>
            <AltitudeMeters>384.399993896484375</AltitudeMeters>
            <DistanceMeters>NAN</DistanceMeters>
          </Trackpoint>
          <Trackpoint>
            <Time>2022-09-22T08:45:35.000Z</Time>
            <Position>
              <LatitudeDegrees>49.51631627976894378662109375</LatitudeDegrees>
              <LongitudeDegrees>20.40308746509253978729248046875</LongitudeDegrees>
            </Position>
            <AltitudeMeters>384.399993896484375</AltitudeMeters>
            <DistanceMeters>NAN</DistanceMeters>
          </Trackpoint>
          <Trackpoint>
            <Time>2022-09-22T08:45:41.000Z</Time>
            <Position>
              <LatitudeDegrees>49.51631627976894378662109375</LatitudeDegrees>
              <LongitudeDegrees>20.40308746509253978729248046875</LongitudeDegrees>
            </Position>
            <AltitudeMeters>384.399993896484375</AltitudeMeters>
            <DistanceMeters>NAN</DistanceMeters>
          </Trackpoint>
          <Trackpoint>
            <Time>2022-09-22T08:45:50.000Z</Time>
            <Position>
              <LatitudeDegrees>49.51631627976894378662109375</LatitudeDegrees>
              <LongitudeDegrees>20.40308746509253978729248046875</LongitudeDegrees>
            </Position>
            <AltitudeMeters>384.399993896484375</AltitudeMeters>
            <DistanceMeters>NAN</DistanceMeters>
          </Trackpoint>
          <Trackpoint>
            <Time>2022-09-22T08:46:19.000Z</Time>
            <Position>
              <LatitudeDegrees>49.51631627976894378662109375</LatitudeDegrees>
              <LongitudeDegrees>20.4030860401690006256103515625</LongitudeDegrees>
            </Position>
            <AltitudeMeters>384.399993896484375</AltitudeMeters>
            <DistanceMeters>NAN</DistanceMeters>
          </Trackpoint>
          <Trackpoint>
            <Time>2022-09-22T08:46:24.000Z</Time>
            <Position>
              <LatitudeDegrees>49.51631619594991207122802734375</LatitudeDegrees>
              <LongitudeDegrees>20.403080843389034271240234375</LongitudeDegrees>
            </Position>
            <AltitudeMeters>384.399993896484375</AltitudeMeters>
            <DistanceMeters>NAN</DistanceMeters>
          </Trackpoint>
          <Trackpoint>
            <Time>2022-09-22T08:46:26.000Z</Time>
            <Position>
              <LatitudeDegrees>49.51631619594991207122802734375</LatitudeDegrees>
              <LongitudeDegrees>20.40307338349521160125732421875</LongitudeDegrees>
            </Position>
            <AltitudeMeters>384.399993896484375</AltitudeMeters>
            <DistanceMeters>NAN</DistanceMeters>
          </Trackpoint>
          <Trackpoint>
            <Time>2022-09-22T08:46:48.000Z</Time>
            <Position>
              <LatitudeDegrees>49.5163161121308803558349609375</LatitudeDegrees>
              <LongitudeDegrees>20.40307304821908473968505859375</LongitudeDegrees>
            </Position>
            <AltitudeMeters>384.399993896484375</AltitudeMeters>
            <DistanceMeters>NAN</DistanceMeters>
          </Trackpoint>
          <Trackpoint>
            <Time>2022-09-22T08:46:55.000Z</Time>
            <Position>
              <LatitudeDegrees>49.51631753705441951751708984375</LatitudeDegrees>
              <LongitudeDegrees>20.4030744731426239013671875</LongitudeDegrees>
            </Position>
            <AltitudeMeters>384.399993896484375</AltitudeMeters>
            <DistanceMeters>NAN</DistanceMeters>
          </Trackpoint>
          <Trackpoint>
            <Time>2022-09-22T08:47:34.000Z</Time>
            <Position>
              <LatitudeDegrees>49.51632189564406871795654296875</LatitudeDegrees>
              <LongitudeDegrees>20.403091572225093841552734375</LongitudeDegrees>
            </Position>
            <AltitudeMeters>384.399993896484375</AltitudeMeters>
            <DistanceMeters>NAN</DistanceMeters>
          </Trackpoint>
          <Trackpoint>
            <Time>2022-09-22T08:47:45.000Z</Time>
            <Position>
              <LatitudeDegrees>49.51632189564406871795654296875</LatitudeDegrees>
              <LongitudeDegrees>20.403091572225093841552734375</LongitudeDegrees>
            </Position>
            <AltitudeMeters>384.399993896484375</AltitudeMeters>
            <DistanceMeters>NAN</DistanceMeters>
          </Trackpoint>
          <Trackpoint>
            <Time>2022-09-22T08:48:01.000Z</Time>
            <Position>
              <LatitudeDegrees>49.5163261704146862030029296875</LatitudeDegrees>
              <LongitudeDegrees>20.4030914045870304107666015625</LongitudeDegrees>
            </Position>
            <AltitudeMeters>384.399993896484375</AltitudeMeters>
            <DistanceMeters>NAN</DistanceMeters>
          </Trackpoint>
          <Trackpoint>
            <Time>2022-09-22T08:48:08.000Z</Time>
            <Position>
              <LatitudeDegrees>49.51633228920400142669677734375</LatitudeDegrees>
              <LongitudeDegrees>20.40309081785380840301513671875</LongitudeDegrees>
            </Position>
            <AltitudeMeters>384.399993896484375</AltitudeMeters>
            <DistanceMeters>NAN</DistanceMeters>
          </Trackpoint>
          <Trackpoint>
            <Time>2022-09-22T08:48:14.000Z</Time>
            <Position>
              <LatitudeDegrees>49.5163328759372234344482421875</LatitudeDegrees>
              <LongitudeDegrees>20.4030907340347766876220703125</LongitudeDegrees>
            </Position>
            <AltitudeMeters>384.399993896484375</AltitudeMeters>
            <DistanceMeters>NAN</DistanceMeters>
          </Trackpoint>
          <Trackpoint>
            <Time>2022-09-22T08:48:33.000Z</Time>
            <Position>
              <LatitudeDegrees>49.5163332112133502960205078125</LatitudeDegrees>
              <LongitudeDegrees>20.40308562107384204864501953125</LongitudeDegrees>
            </Position>
            <AltitudeMeters>384.399993896484375</AltitudeMeters>
            <DistanceMeters>NAN</DistanceMeters>
          </Trackpoint>
          <Trackpoint>
            <Time>2022-09-22T08:49:02.000Z</Time>
            <Position>
              <LatitudeDegrees>49.516326673328876495361328125</LatitudeDegrees>
              <LongitudeDegrees>20.40308662690222263336181640625</LongitudeDegrees>
            </Position>
            <AltitudeMeters>384.399993896484375</AltitudeMeters>
            <DistanceMeters>NAN</DistanceMeters>
          </Trackpoint>
          <Trackpoint>
            <Time>2022-09-22T08:49:34.000Z</Time>
            <Position>
              <LatitudeDegrees>49.51632156036794185638427734375</LatitudeDegrees>
              <LongitudeDegrees>20.4030853696167469024658203125</LongitudeDegrees>
            </Position>
            <AltitudeMeters>384.399993896484375</AltitudeMeters>
            <DistanceMeters>NAN</DistanceMeters>
          </Trackpoint>
          <Trackpoint>
            <Time>2022-09-22T08:49:45.000Z</Time>
            <Position>
              <LatitudeDegrees>49.51632156036794185638427734375</LatitudeDegrees>
              <LongitudeDegrees>20.4030853696167469024658203125</LongitudeDegrees>
            </Position>
            <AltitudeMeters>384.399993896484375</AltitudeMeters>
            <DistanceMeters>NAN</DistanceMeters>
          </Trackpoint>
          <Trackpoint>
            <Time>2022-09-22T08:49:50.000Z</Time>
            <Position>
              <LatitudeDegrees>49.5163209736347198486328125</LatitudeDegrees>
              <LongitudeDegrees>20.4030873812735080718994140625</LongitudeDegrees>
            </Position>
            <AltitudeMeters>384.399993896484375</AltitudeMeters>
            <DistanceMeters>NAN</DistanceMeters>
          </Trackpoint>
          <Trackpoint>
            <Time>2022-09-22T08:50:14.000Z</Time>
            <Position>
              <LatitudeDegrees>49.51631602831184864044189453125</LatitudeDegrees>
              <LongitudeDegrees>20.40310607291758060455322265625</LongitudeDegrees>
            </Position>
            <AltitudeMeters>384.399993896484375</AltitudeMeters>
            <DistanceMeters>NAN</DistanceMeters>
          </Trackpoint>
          <Trackpoint>
            <Time>2022-09-22T08:50:21.000Z</Time>
            <Position>
              <LatitudeDegrees>49.51631602831184864044189453125</LatitudeDegrees>
              <LongitudeDegrees>20.40310607291758060455322265625</LongitudeDegrees>
            </Position>
            <AltitudeMeters>384.399993896484375</AltitudeMeters>
            <DistanceMeters>NAN</DistanceMeters>
          </Trackpoint>
          <Trackpoint>
            <Time>2022-09-22T08:50:36.000Z</Time>
            <Position>
              <LatitudeDegrees>49.51631963253021240234375</LatitudeDegrees>
              <LongitudeDegrees>20.40309785865247249603271484375</LongitudeDegrees>
            </Position>
            <AltitudeMeters>384.399993896484375</AltitudeMeters>
            <DistanceMeters>NAN</DistanceMeters>
          </Trackpoint>
          <Trackpoint>
            <Time>2022-09-22T08:50:47.000Z</Time>
            <Position>
              <LatitudeDegrees>49.516316950321197509765625</LatitudeDegrees>
              <LongitudeDegrees>20.403096936643123626708984375</LongitudeDegrees>
            </Position>
            <AltitudeMeters>384.399993896484375</AltitudeMeters>
            <DistanceMeters>NAN</DistanceMeters>
          </Trackpoint>
          <Trackpoint>
            <Time>2022-09-22T08:50:54.000Z</Time>
            <Position>
              <LatitudeDegrees>49.5162943191826343536376953125</LatitudeDegrees>
              <LongitudeDegrees>20.40309928357601165771484375</LongitudeDegrees>
            </Position>
            <AltitudeMeters>384.399993896484375</AltitudeMeters>
            <DistanceMeters>NAN</DistanceMeters>
          </Trackpoint>
          <Trackpoint>
            <Time>2022-09-22T08:50:58.000Z</Time>
            <Position>
              <LatitudeDegrees>49.5162939839065074920654296875</LatitudeDegrees>
              <LongitudeDegrees>20.4030987806618213653564453125</LongitudeDegrees>
            </Position>
            <AltitudeMeters>384.399993896484375</AltitudeMeters>
            <DistanceMeters>NAN</DistanceMeters>
          </Trackpoint>
          <Trackpoint>
            <Time>2022-09-22T08:51:05.000Z</Time>
            <Position>
              <LatitudeDegrees>49.5162939839065074920654296875</LatitudeDegrees>
              <LongitudeDegrees>20.4030987806618213653564453125</LongitudeDegrees>
            </Position>
            <AltitudeMeters>384.399993896484375</AltitudeMeters>
            <DistanceMeters>NAN</DistanceMeters>
          </Trackpoint>
          <Trackpoint>
            <Time>2022-09-22T08:51:06.000Z</Time>
            <Position>
              <LatitudeDegrees>49.51629255898296833038330078125</LatitudeDegrees>
              <LongitudeDegrees>20.40309417061507701873779296875</LongitudeDegrees>
            </Position>
            <AltitudeMeters>384.399993896484375</AltitudeMeters>
            <DistanceMeters>NAN</DistanceMeters>
          </Trackpoint>
          <Trackpoint>
            <Time>2022-09-22T08:51:09.000Z</Time>
            <Position>
              <LatitudeDegrees>49.51628970913589000701904296875</LatitudeDegrees>
              <LongitudeDegrees>20.40298470295965671539306640625</LongitudeDegrees>
            </Position>
            <AltitudeMeters>384.399993896484375</AltitudeMeters>
            <DistanceMeters>NAN</DistanceMeters>
          </Trackpoint>
          <Trackpoint>
            <Time>2022-09-22T08:51:15.000Z</Time>
            <Position>
              <LatitudeDegrees>49.5162631385028362274169921875</LatitudeDegrees>
              <LongitudeDegrees>20.402791500091552734375</LongitudeDegrees>
            </Position>
            <AltitudeMeters>384.399993896484375</AltitudeMeters>
            <DistanceMeters>NAN</DistanceMeters>
          </Trackpoint>
          <Trackpoint>
            <Time>2022-09-22T08:51:17.000Z</Time>
            <Position>
              <LatitudeDegrees>49.5162587799131870269775390625</LatitudeDegrees>
              <LongitudeDegrees>20.4027128778398036956787109375</LongitudeDegrees>
            </Position>
            <AltitudeMeters>384.399993896484375</AltitudeMeters>
            <DistanceMeters>NAN</DistanceMeters>
          </Trackpoint>
          <Trackpoint>
            <Time>2022-09-22T08:51:22.000Z</Time>
            <Position>
              <LatitudeDegrees>49.51627663336694240570068359375</LatitudeDegrees>
              <LongitudeDegrees>20.40250509046018123626708984375</LongitudeDegrees>
            </Position>
            <AltitudeMeters>384.600006103515625</AltitudeMeters>
            <DistanceMeters>NAN</DistanceMeters>
          </Trackpoint>
          <Trackpoint>
            <Time>2022-09-22T08:51:27.000Z</Time>
            <Position>
              <LatitudeDegrees>49.5162799023091793060302734375</LatitudeDegrees>
              <LongitudeDegrees>20.40229738689959049224853515625</LongitudeDegrees>
            </Position>
            <AltitudeMeters>384.79998779296875</AltitudeMeters>
            <DistanceMeters>NAN</DistanceMeters>
          </Trackpoint>
          <Trackpoint>
            <Time>2022-09-22T08:51:34.000Z</Time>
            <Position>
              <LatitudeDegrees>49.51626489870250225067138671875</LatitudeDegrees>
              <LongitudeDegrees>20.40208180435001850128173828125</LongitudeDegrees>
            </Position>
            <AltitudeMeters>385</AltitudeMeters>
            <DistanceMeters>NAN</DistanceMeters>
          </Trackpoint>
          <Trackpoint>
            <Time>2022-09-22T08:51:41.000Z</Time>
            <Position>
              <LatitudeDegrees>49.51622265391051769256591796875</LatitudeDegrees>
              <LongitudeDegrees>20.40181291289627552032470703125</LongitudeDegrees>
            </Position>
            <AltitudeMeters>385.20001220703125</AltitudeMeters>
            <DistanceMeters>NAN</DistanceMeters>
          </Trackpoint>
          <Trackpoint>
            <Time>2022-09-22T08:51:48.000Z</Time>
            <Position>
              <LatitudeDegrees>49.51616867445409297943115234375</LatitudeDegrees>
              <LongitudeDegrees>20.40152004919946193695068359375</LongitudeDegrees>
            </Position>
            <AltitudeMeters>385.399993896484375</AltitudeMeters>
            <DistanceMeters>NAN</DistanceMeters>
          </Trackpoint>
          <Trackpoint>
            <Time>2022-09-22T08:51:55.000Z</Time>
            <Position>
              <LatitudeDegrees>49.51611720956861972808837890625</LatitudeDegrees>
              <LongitudeDegrees>20.4012778960168361663818359375</LongitudeDegrees>
            </Position>
            <AltitudeMeters>385.79998779296875</AltitudeMeters>
            <DistanceMeters>NAN</DistanceMeters>
          </Trackpoint>
          <Trackpoint>
            <Time>2022-09-22T08:52:00.000Z</Time>
            <Position>
              <LatitudeDegrees>49.5160693489015102386474609375</LatitudeDegrees>
              <LongitudeDegrees>20.4010753892362117767333984375</LongitudeDegrees>
            </Position>
            <AltitudeMeters>386</AltitudeMeters>
            <DistanceMeters>NAN</DistanceMeters>
          </Trackpoint>
          <Trackpoint>
            <Time>2022-09-22T08:52:07.000Z</Time>
            <Position>
              <LatitudeDegrees>49.515988714993000030517578125</LatitudeDegrees>
              <LongitudeDegrees>20.40075863711535930633544921875</LongitudeDegrees>
            </Position>
            <AltitudeMeters>386</AltitudeMeters>
            <DistanceMeters>NAN</DistanceMeters>
          </Trackpoint>
          <Trackpoint>
            <Time>2022-09-22T08:52:12.000Z</Time>
            <Position>
              <LatitudeDegrees>49.51590062119066715240478515625</LatitudeDegrees>
              <LongitudeDegrees>20.4004836268723011016845703125</LongitudeDegrees>
            </Position>
            <AltitudeMeters>386.399993896484375</AltitudeMeters>
            <DistanceMeters>NAN</DistanceMeters>
          </Trackpoint>
          <Trackpoint>
            <Time>2022-09-22T08:52:19.000Z</Time>
            <Position>
              <LatitudeDegrees>49.5157818496227264404296875</LatitudeDegrees>
              <LongitudeDegrees>20.4002073593437671661376953125</LongitudeDegrees>
            </Position>
            <AltitudeMeters>386.79998779296875</AltitudeMeters>
            <DistanceMeters>NAN</DistanceMeters>
          </Trackpoint>
          <Trackpoint>
            <Time>2022-09-22T08:52:22.000Z</Time>
            <Position>
              <LatitudeDegrees>49.51570599339902400970458984375</LatitudeDegrees>
              <LongitudeDegrees>20.40009747259318828582763671875</LongitudeDegrees>
            </Position>
            <AltitudeMeters>387</AltitudeMeters>
            <DistanceMeters>NAN</DistanceMeters>
          </Trackpoint>
          <Trackpoint>
            <Time>2022-09-22T08:52:23.000Z</Time>
            <Position>
              <LatitudeDegrees>49.515678584575653076171875</LatitudeDegrees>
              <LongitudeDegrees>20.4000641964375972747802734375</LongitudeDegrees>
            </Position>
            <AltitudeMeters>387</AltitudeMeters>
            <DistanceMeters>NAN</DistanceMeters>
          </Trackpoint>
          <Trackpoint>
            <Time>2022-09-22T08:52:24.000Z</Time>
            <Position>
              <LatitudeDegrees>49.5156505890190601348876953125</LatitudeDegrees>
              <LongitudeDegrees>20.40003326721489429473876953125</LongitudeDegrees>
            </Position>
            <AltitudeMeters>387.20001220703125</AltitudeMeters>
            <DistanceMeters>NAN</DistanceMeters>
          </Trackpoint>
          <Trackpoint>
            <Time>2022-09-22T08:52:25.000Z</Time>
            <Position>
              <LatitudeDegrees>49.51562334783375263214111328125</LatitudeDegrees>
              <LongitudeDegrees>20.40000736713409423828125</LongitudeDegrees>
            </Position>
            <AltitudeMeters>387.20001220703125</AltitudeMeters>
            <DistanceMeters>NAN</DistanceMeters>
          </Trackpoint>
          <Trackpoint>
            <Time>2022-09-22T08:52:26.000Z</Time>
            <Position>
              <LatitudeDegrees>49.5155996270477771759033203125</LatitudeDegrees>
              <LongitudeDegrees>20.39998314343392848968505859375</LongitudeDegrees>
            </Position>
            <AltitudeMeters>388.79998779296875</AltitudeMeters>
            <DistanceMeters>NAN</DistanceMeters>
          </Trackpoint>
          <Trackpoint>
            <Time>2022-09-22T08:52:27.000Z</Time>
            <Position>
              <LatitudeDegrees>49.51557858847081661224365234375</LatitudeDegrees>
              <LongitudeDegrees>20.39995841681957244873046875</LongitudeDegrees>
            </Position>
            <AltitudeMeters>388.79998779296875</AltitudeMeters>
            <DistanceMeters>NAN</DistanceMeters>
          </Trackpoint>
          <Trackpoint>
            <Time>2022-09-22T08:52:33.000Z</Time>
            <Position>
              <LatitudeDegrees>49.5154624991118907928466796875</LatitudeDegrees>
              <LongitudeDegrees>20.3998113982379436492919921875</LongitudeDegrees>
            </Position>
            <AltitudeMeters>389.20001220703125</AltitudeMeters>
            <DistanceMeters>NAN</DistanceMeters>
          </Trackpoint>
          <Trackpoint>
            <Time>2022-09-22T08:52:34.000Z</Time>
            <Position>
              <LatitudeDegrees>49.515449590981006622314453125</LatitudeDegrees>
              <LongitudeDegrees>20.3997835703194141387939453125</LongitudeDegrees>
            </Position>
            <AltitudeMeters>389.20001220703125</AltitudeMeters>
            <DistanceMeters>NAN</DistanceMeters>
          </Trackpoint>
          <Trackpoint>
            <Time>2022-09-22T08:52:38.000Z</Time>
            <Position>
              <LatitudeDegrees>49.51541908085346221923828125</LatitudeDegrees>
              <LongitudeDegrees>20.399687848985195159912109375</LongitudeDegrees>
            </Position>
            <AltitudeMeters>389.600006103515625</AltitudeMeters>
            <DistanceMeters>NAN</DistanceMeters>
          </Trackpoint>
          <Trackpoint>
            <Time>2022-09-22T08:52:39.000Z</Time>
            <Position>
              <LatitudeDegrees>49.5154179073870182037353515625</LatitudeDegrees>
              <LongitudeDegrees>20.39966613985598087310791015625</LongitudeDegrees>
            </Position>
            <AltitudeMeters>389.600006103515625</AltitudeMeters>
            <DistanceMeters>NAN</DistanceMeters>
          </Trackpoint>
          <Trackpoint>
            <Time>2022-09-22T08:52:40.000Z</Time>
            <Position>
              <LatitudeDegrees>49.51541866175830364227294921875</LatitudeDegrees>
              <LongitudeDegrees>20.399640239775180816650390625</LongitudeDegrees>
            </Position>
            <AltitudeMeters>389.600006103515625</AltitudeMeters>
            <DistanceMeters>NAN</DistanceMeters>
          </Trackpoint>
          <Trackpoint>
            <Time>2022-09-22T08:52:44.000Z</Time>
            <Position>
              <LatitudeDegrees>49.51546308584511280059814453125</LatitudeDegrees>
              <LongitudeDegrees>20.39953102357685565948486328125</LongitudeDegrees>
            </Position>
            <AltitudeMeters>389.600006103515625</AltitudeMeters>
            <DistanceMeters>NAN</DistanceMeters>
          </Trackpoint>
          <Trackpoint>
            <Time>2022-09-22T08:52:51.000Z</Time>
            <Position>
              <LatitudeDegrees>49.5155986212193965911865234375</LatitudeDegrees>
              <LongitudeDegrees>20.39934779517352581024169921875</LongitudeDegrees>
            </Position>
            <AltitudeMeters>389.79998779296875</AltitudeMeters>
            <DistanceMeters>NAN</DistanceMeters>
          </Trackpoint>
          <Trackpoint>
            <Time>2022-09-22T08:52:52.000Z</Time>
            <Position>
              <LatitudeDegrees>49.5156177319586277008056640625</LatitudeDegrees>
              <LongitudeDegrees>20.39932072162628173828125</LongitudeDegrees>
            </Position>
            <AltitudeMeters>389.79998779296875</AltitudeMeters>
            <DistanceMeters>NAN</DistanceMeters>
          </Trackpoint>
          <Trackpoint>
            <Time>2022-09-22T08:52:55.000Z</Time>
            <Position>
              <LatitudeDegrees>49.515680260956287384033203125</LatitudeDegrees>
              <LongitudeDegrees>20.39923715405166149139404296875</LongitudeDegrees>
            </Position>
            <AltitudeMeters>390</AltitudeMeters>
            <DistanceMeters>NAN</DistanceMeters>
          </Trackpoint>
          <Trackpoint>
            <Time>2022-09-22T08:53:02.000Z</Time>
            <Position>
              <LatitudeDegrees>49.5158111862838268280029296875</LatitudeDegrees>
              <LongitudeDegrees>20.3990851901471614837646484375</LongitudeDegrees>
            </Position>
            <AltitudeMeters>390.20001220703125</AltitudeMeters>
            <DistanceMeters>NAN</DistanceMeters>
          </Trackpoint>
          <Trackpoint>
            <Time>2022-09-22T08:53:08.000Z</Time>
            <Position>
              <LatitudeDegrees>49.5158986933529376983642578125</LatitudeDegrees>
              <LongitudeDegrees>20.39896876551210880279541015625</LongitudeDegrees>
            </Position>
            <AltitudeMeters>390.20001220703125</AltitudeMeters>
            <DistanceMeters>NAN</DistanceMeters>
          </Trackpoint>
          <Trackpoint>
            <Time>2022-09-22T08:53:10.000Z</Time>
            <Position>
              <LatitudeDegrees>49.5159245096147060394287109375</LatitudeDegrees>
              <LongitudeDegrees>20.39893020875751972198486328125</LongitudeDegrees>
            </Position>
            <AltitudeMeters>390.20001220703125</AltitudeMeters>
            <DistanceMeters>NAN</DistanceMeters>
          </Trackpoint>
          <Trackpoint>
            <Time>2022-09-22T08:53:15.000Z</Time>
            <Position>
              <LatitudeDegrees>49.51594973914325237274169921875</LatitudeDegrees>
              <LongitudeDegrees>20.3988920710980892181396484375</LongitudeDegrees>
            </Position>
            <AltitudeMeters>390</AltitudeMeters>
            <DistanceMeters>NAN</DistanceMeters>
          </Trackpoint>
          <Trackpoint>
            <Time>2022-09-22T08:53:20.000Z</Time>
            <Position>
              <LatitudeDegrees>49.515947140753269195556640625</LatitudeDegrees>
              <LongitudeDegrees>20.3988754749298095703125</LongitudeDegrees>
            </Position>
            <AltitudeMeters>390</AltitudeMeters>
            <DistanceMeters>NAN</DistanceMeters>
          </Trackpoint>
          <Trackpoint>
            <Time>2022-09-22T08:53:22.000Z</Time>
            <Position>
              <LatitudeDegrees>49.5159342326223850250244140625</LatitudeDegrees>
              <LongitudeDegrees>20.3988464735448360443115234375</LongitudeDegrees>
            </Position>
            <AltitudeMeters>390</AltitudeMeters>
            <DistanceMeters>NAN</DistanceMeters>
          </Trackpoint>
          <Trackpoint>
            <Time>2022-09-22T08:53:24.000Z</Time>
            <Position>
              <LatitudeDegrees>49.51592090539634227752685546875</LatitudeDegrees>
              <LongitudeDegrees>20.39881939999759197235107421875</LongitudeDegrees>
            </Position>
            <AltitudeMeters>390</AltitudeMeters>
            <DistanceMeters>NAN</DistanceMeters>
          </Trackpoint>
          <Trackpoint>
            <Time>2022-09-22T08:53:26.000Z</Time>
            <Position>
              <LatitudeDegrees>49.5159302093088626861572265625</LatitudeDegrees>
              <LongitudeDegrees>20.39877631701529026031494140625</LongitudeDegrees>
            </Position>
            <AltitudeMeters>390</AltitudeMeters>
            <DistanceMeters>NAN</DistanceMeters>
          </Trackpoint>
          <Trackpoint>
            <Time>2022-09-22T08:53:27.000Z</Time>
            <Position>
              <LatitudeDegrees>49.51593968085944652557373046875</LatitudeDegrees>
              <LongitudeDegrees>20.3987561166286468505859375</LongitudeDegrees>
            </Position>
            <AltitudeMeters>390</AltitudeMeters>
            <DistanceMeters>NAN</DistanceMeters>
          </Trackpoint>
          <Trackpoint>
            <Time>2022-09-22T08:53:31.000Z</Time>
            <Position>
              <LatitudeDegrees>49.515962563455104827880859375</LatitudeDegrees>
              <LongitudeDegrees>20.39869199506938457489013671875</LongitudeDegrees>
            </Position>
            <AltitudeMeters>390.20001220703125</AltitudeMeters>
            <DistanceMeters>NAN</DistanceMeters>
          </Trackpoint>
          <Trackpoint>
            <Time>2022-09-22T08:53:33.000Z</Time>
            <Position>
              <LatitudeDegrees>49.5159530080854892730712890625</LatitudeDegrees>
              <LongitudeDegrees>20.39865746162831783294677734375</LongitudeDegrees>
            </Position>
            <AltitudeMeters>390.20001220703125</AltitudeMeters>
            <DistanceMeters>NAN</DistanceMeters>
          </Trackpoint>
          <Trackpoint>
            <Time>2022-09-22T08:53:34.000Z</Time>
            <Position>
              <LatitudeDegrees>49.51594169251620769500732421875</LatitudeDegrees>
              <LongitudeDegrees>20.398636423051357269287109375</LongitudeDegrees>
            </Position>
            <AltitudeMeters>390.20001220703125</AltitudeMeters>
            <DistanceMeters>NAN</DistanceMeters>
          </Trackpoint>
          <Trackpoint>
            <Time>2022-09-22T08:53:39.000Z</Time>
            <Position>
              <LatitudeDegrees>49.5158782415091991424560546875</LatitudeDegrees>
              <LongitudeDegrees>20.3985008038580417633056640625</LongitudeDegrees>
            </Position>
            <AltitudeMeters>390</AltitudeMeters>
            <DistanceMeters>NAN</DistanceMeters>
          </Trackpoint>
          <Trackpoint>
            <Time>2022-09-22T08:53:47.000Z</Time>
            <Position>
              <LatitudeDegrees>49.51574337668716907501220703125</LatitudeDegrees>
              <LongitudeDegrees>20.398293100297451019287109375</LongitudeDegrees>
            </Position>
            <AltitudeMeters>389.79998779296875</AltitudeMeters>
            <DistanceMeters>NAN</DistanceMeters>
          </Trackpoint>
          <Trackpoint>
            <Time>2022-09-22T08:53:54.000Z</Time>
            <Position>
              <LatitudeDegrees>49.5156284607946872711181640625</LatitudeDegrees>
              <LongitudeDegrees>20.39809302426874637603759765625</LongitudeDegrees>
            </Position>
            <AltitudeMeters>390</AltitudeMeters>
            <DistanceMeters>NAN</DistanceMeters>
          </Trackpoint>
          <Trackpoint>
            <Time>2022-09-22T08:53:55.000Z</Time>
            <Position>
              <LatitudeDegrees>49.51561027206480503082275390625</LatitudeDegrees>
              <LongitudeDegrees>20.39806033484637737274169921875</LongitudeDegrees>
            </Position>
            <AltitudeMeters>390</AltitudeMeters>
            <DistanceMeters>NAN</DistanceMeters>
          </Trackpoint>
          <Trackpoint>
            <Time>2022-09-22T08:53:58.000Z</Time>
            <Position>
              <LatitudeDegrees>49.5155547000467777252197265625</LatitudeDegrees>
              <LongitudeDegrees>20.39797299541532993316650390625</LongitudeDegrees>
            </Position>
            <AltitudeMeters>390.20001220703125</AltitudeMeters>
            <DistanceMeters>NAN</DistanceMeters>
          </Trackpoint>
          <Trackpoint>
            <Time>2022-09-22T08:54:03.000Z</Time>
            <Position>
              <LatitudeDegrees>49.515483118593692779541015625</LatitudeDegrees>
              <LongitudeDegrees>20.3978238813579082489013671875</LongitudeDegrees>
            </Position>
            <AltitudeMeters>390.399993896484375</AltitudeMeters>
            <DistanceMeters>NAN</DistanceMeters>
          </Trackpoint>
          <Trackpoint>
            <Time>2022-09-22T08:54:04.000Z</Time>
            <Position>
              <LatitudeDegrees>49.5154658518731594085693359375</LatitudeDegrees>
              <LongitudeDegrees>20.397785492241382598876953125</LongitudeDegrees>
            </Position>
            <AltitudeMeters>390.399993896484375</AltitudeMeters>
            <DistanceMeters>NAN</DistanceMeters>
          </Trackpoint>
          <Trackpoint>
            <Time>2022-09-22T08:54:05.000Z</Time>
            <Position>
              <LatitudeDegrees>49.515447579324245452880859375</LatitudeDegrees>
              <LongitudeDegrees>20.39775221608579158782958984375</LongitudeDegrees>
            </Position>
            <AltitudeMeters>390.399993896484375</AltitudeMeters>
            <DistanceMeters>NAN</DistanceMeters>
          </Trackpoint>
          <Trackpoint>
            <Time>2022-09-22T08:54:08.000Z</Time>
            <Position>
              <LatitudeDegrees>49.515387229621410369873046875</LatitudeDegrees>
              <LongitudeDegrees>20.39768792688846588134765625</LongitudeDegrees>
            </Position>
            <AltitudeMeters>390.399993896484375</AltitudeMeters>
            <DistanceMeters>NAN</DistanceMeters>
          </Trackpoint>
          <Trackpoint>
            <Time>2022-09-22T08:54:15.000Z</Time>
            <Position>
              <LatitudeDegrees>49.51525622047483921051025390625</LatitudeDegrees>
              <LongitudeDegrees>20.3975103981792926788330078125</LongitudeDegrees>
            </Position>
            <AltitudeMeters>390.399993896484375</AltitudeMeters>
            <DistanceMeters>NAN</DistanceMeters>
          </Trackpoint>
          <Trackpoint>
            <Time>2022-09-22T08:54:23.000Z</Time>
            <Position>
              <LatitudeDegrees>49.51505488716065883636474609375</LatitudeDegrees>
              <LongitudeDegrees>20.397357679903507232666015625</LongitudeDegrees>
            </Position>
            <AltitudeMeters>390.399993896484375</AltitudeMeters>
            <DistanceMeters>NAN</DistanceMeters>
          </Trackpoint>
          <Trackpoint>
            <Time>2022-09-22T08:54:29.000Z</Time>
            <Position>
              <LatitudeDegrees>49.5149062760174274444580078125</LatitudeDegrees>
              <LongitudeDegrees>20.39724159054458141326904296875</LongitudeDegrees>
            </Position>
            <AltitudeMeters>390.79998779296875</AltitudeMeters>
            <DistanceMeters>NAN</DistanceMeters>
          </Trackpoint>
          <Trackpoint>
            <Time>2022-09-22T08:54:30.000Z</Time>
            <Position>
              <LatitudeDegrees>49.514884985983371734619140625</LatitudeDegrees>
              <LongitudeDegrees>20.39722633548080921173095703125</LongitudeDegrees>
            </Position>
            <AltitudeMeters>390.79998779296875</AltitudeMeters>
            <DistanceMeters>NAN</DistanceMeters>
          </Trackpoint>
          <Trackpoint>
            <Time>2022-09-22T08:54:34.000Z</Time>
            <Position>
              <LatitudeDegrees>49.5148110575973987579345703125</LatitudeDegrees>
              <LongitudeDegrees>20.39715550839900970458984375</LongitudeDegrees>
            </Position>
            <AltitudeMeters>390.600006103515625</AltitudeMeters>
            <DistanceMeters>NAN</DistanceMeters>
          </Trackpoint>
          <Trackpoint>
            <Time>2022-09-22T08:54:35.000Z</Time>
            <Position>
              <LatitudeDegrees>49.51479085721075534820556640625</LatitudeDegrees>
              <LongitudeDegrees>20.39714586921036243438720703125</LongitudeDegrees>
            </Position>
            <AltitudeMeters>390.600006103515625</AltitudeMeters>
            <DistanceMeters>NAN</DistanceMeters>
          </Trackpoint>
          <Trackpoint>
            <Time>2022-09-22T08:54:40.000Z</Time>
            <Position>
              <LatitudeDegrees>49.51473151333630084991455078125</LatitudeDegrees>
              <LongitudeDegrees>20.39710454642772674560546875</LongitudeDegrees>
            </Position>
            <AltitudeMeters>390.600006103515625</AltitudeMeters>
            <DistanceMeters>NAN</DistanceMeters>
          </Trackpoint>
          <Trackpoint>
            <Time>2022-09-22T08:54:41.000Z</Time>
            <Position>
              <LatitudeDegrees>49.5147208683192729949951171875</LatitudeDegrees>
              <LongitudeDegrees>20.397100858390331268310546875</LongitudeDegrees>
            </Position>
            <AltitudeMeters>390.600006103515625</AltitudeMeters>
            <DistanceMeters>NAN</DistanceMeters>
          </Trackpoint>
          <Trackpoint>
            <Time>2022-09-22T08:54:43.000Z</Time>
            <Position>
              <LatitudeDegrees>49.5147067867219448089599609375</LatitudeDegrees>
              <LongitudeDegrees>20.3970916382968425750732421875</LongitudeDegrees>
            </Position>
            <AltitudeMeters>390.600006103515625</AltitudeMeters>
            <DistanceMeters>NAN</DistanceMeters>
          </Trackpoint>
          <Trackpoint>
            <Time>2022-09-22T08:54:47.000Z</Time>
            <Position>
              <LatitudeDegrees>49.5147067867219448089599609375</LatitudeDegrees>
              <LongitudeDegrees>20.3970916382968425750732421875</LongitudeDegrees>
            </Position>
            <AltitudeMeters>390.600006103515625</AltitudeMeters>
            <DistanceMeters>NAN</DistanceMeters>
          </Trackpoint>
          <Trackpoint>
            <Time>2022-09-22T08:54:54.000Z</Time>
            <Position>
              <LatitudeDegrees>49.5147067867219448089599609375</LatitudeDegrees>
              <LongitudeDegrees>20.3970916382968425750732421875</LongitudeDegrees>
            </Position>
            <AltitudeMeters>390.399993896484375</AltitudeMeters>
            <DistanceMeters>NAN</DistanceMeters>
          </Trackpoint>
          <Trackpoint>
            <Time>2022-09-22T08:54:55.000Z</Time>
            <Position>
              <LatitudeDegrees>49.5147067867219448089599609375</LatitudeDegrees>
              <LongitudeDegrees>20.3970916382968425750732421875</LongitudeDegrees>
            </Position>
            <AltitudeMeters>390.399993896484375</AltitudeMeters>
            <DistanceMeters>NAN</DistanceMeters>
          </Trackpoint>
          <Trackpoint>
            <Time>2022-09-22T08:55:05.000Z</Time>
            <Position>
              <LatitudeDegrees>49.5147067867219448089599609375</LatitudeDegrees>
              <LongitudeDegrees>20.3970916382968425750732421875</LongitudeDegrees>
            </Position>
            <AltitudeMeters>390.20001220703125</AltitudeMeters>
            <DistanceMeters>NAN</DistanceMeters>
          </Trackpoint>
          <Trackpoint>
            <Time>2022-09-22T08:55:17.000Z</Time>
            <Position>
              <LatitudeDegrees>49.5147067867219448089599609375</LatitudeDegrees>
              <LongitudeDegrees>20.3970916382968425750732421875</LongitudeDegrees>
            </Position>
            <AltitudeMeters>390</AltitudeMeters>
            <DistanceMeters>NAN</DistanceMeters>
          </Trackpoint>
          <Trackpoint>
            <Time>2022-09-22T08:55:23.000Z</Time>
            <Position>
              <LatitudeDegrees>49.5147067867219448089599609375</LatitudeDegrees>
              <LongitudeDegrees>20.3970916382968425750732421875</LongitudeDegrees>
            </Position>
            <AltitudeMeters>390</AltitudeMeters>
            <DistanceMeters>NAN</DistanceMeters>
          </Trackpoint>
          <Trackpoint>
            <Time>2022-09-22T08:55:28.000Z</Time>
            <Position>
              <LatitudeDegrees>49.5147067867219448089599609375</LatitudeDegrees>
              <LongitudeDegrees>20.3970916382968425750732421875</LongitudeDegrees>
            </Position>
            <AltitudeMeters>390</AltitudeMeters>
            <DistanceMeters>NAN</DistanceMeters>
          </Trackpoint>
          <Trackpoint>
            <Time>2022-09-22T08:55:42.000Z</Time>
            <Position>
              <LatitudeDegrees>49.5147067867219448089599609375</LatitudeDegrees>
              <LongitudeDegrees>20.3970916382968425750732421875</LongitudeDegrees>
            </Position>
            <AltitudeMeters>390</AltitudeMeters>
            <DistanceMeters>NAN</DistanceMeters>
          </Trackpoint>
          <Trackpoint>
            <Time>2022-09-22T08:55:47.000Z</Time>
            <Position>
              <LatitudeDegrees>49.51465507037937641143798828125</LatitudeDegrees>
              <LongitudeDegrees>20.39709708653390407562255859375</LongitudeDegrees>
            </Position>
            <AltitudeMeters>390</AltitudeMeters>
            <DistanceMeters>NAN</DistanceMeters>
          </Trackpoint>
          <Trackpoint>
            <Time>2022-09-22T08:55:53.000Z</Time>
            <Position>
              <LatitudeDegrees>49.5145354606211185455322265625</LatitudeDegrees>
              <LongitudeDegrees>20.3970829211175441741943359375</LongitudeDegrees>
            </Position>
            <AltitudeMeters>390.20001220703125</AltitudeMeters>
            <DistanceMeters>NAN</DistanceMeters>
          </Trackpoint>
          <Trackpoint>
            <Time>2022-09-22T08:56:00.000Z</Time>
            <Position>
              <LatitudeDegrees>49.5143483765423297882080078125</LatitudeDegrees>
              <LongitudeDegrees>20.397037826478481292724609375</LongitudeDegrees>
            </Position>
            <AltitudeMeters>390.20001220703125</AltitudeMeters>
            <DistanceMeters>NAN</DistanceMeters>
          </Trackpoint>
          <Trackpoint>
            <Time>2022-09-22T08:56:06.000Z</Time>
            <Position>
              <LatitudeDegrees>49.514105133712291717529296875</LatitudeDegrees>
              <LongitudeDegrees>20.3970188833773136138916015625</LongitudeDegrees>
            </Position>
            <AltitudeMeters>389.600006103515625</AltitudeMeters>
            <DistanceMeters>NAN</DistanceMeters>
          </Trackpoint>
          <Trackpoint>
            <Time>2022-09-22T08:56:07.000Z</Time>
            <Position>
              <LatitudeDegrees>49.5140684209764003753662109375</LatitudeDegrees>
              <LongitudeDegrees>20.3970125131309032440185546875</LongitudeDegrees>
            </Position>
            <AltitudeMeters>389.79998779296875</AltitudeMeters>
            <DistanceMeters>NAN</DistanceMeters>
          </Trackpoint>
          <Trackpoint>
            <Time>2022-09-22T08:56:13.000Z</Time>
            <Position>
              <LatitudeDegrees>49.51386851258575916290283203125</LatitudeDegrees>
              <LongitudeDegrees>20.39697756059467792510986328125</LongitudeDegrees>
            </Position>
            <AltitudeMeters>389.399993896484375</AltitudeMeters>
            <DistanceMeters>NAN</DistanceMeters>
          </Trackpoint>
          <Trackpoint>
            <Time>2022-09-22T08:56:21.000Z</Time>
            <Position>
              <LatitudeDegrees>49.5135534368455410003662109375</LatitudeDegrees>
              <LongitudeDegrees>20.396935902535915374755859375</LongitudeDegrees>
            </Position>
            <AltitudeMeters>389.399993896484375</AltitudeMeters>
            <DistanceMeters>NAN</DistanceMeters>
          </Trackpoint>
          <Trackpoint>
            <Time>2022-09-22T08:56:22.000Z</Time>
            <Position>
              <LatitudeDegrees>49.5135199092328548431396484375</LatitudeDegrees>
              <LongitudeDegrees>20.396927855908870697021484375</LongitudeDegrees>
            </Position>
            <AltitudeMeters>389.399993896484375</AltitudeMeters>
            <DistanceMeters>NAN</DistanceMeters>
          </Trackpoint>
          <Trackpoint>
            <Time>2022-09-22T08:56:27.000Z</Time>
            <Position>
              <LatitudeDegrees>49.5133680291473865509033203125</LatitudeDegrees>
              <LongitudeDegrees>20.3969062305986881256103515625</LongitudeDegrees>
            </Position>
            <AltitudeMeters>389.79998779296875</AltitudeMeters>
            <DistanceMeters>NAN</DistanceMeters>
          </Trackpoint>
          <Trackpoint>
            <Time>2022-09-22T08:56:28.000Z</Time>
            <Position>
              <LatitudeDegrees>49.51333575882017612457275390625</LatitudeDegrees>
              <LongitudeDegrees>20.3969053924083709716796875</LongitudeDegrees>
            </Position>
            <AltitudeMeters>389.79998779296875</AltitudeMeters>
            <DistanceMeters>NAN</DistanceMeters>
          </Trackpoint>
          <Trackpoint>
            <Time>2022-09-22T08:56:35.000Z</Time>
            <Position>
              <LatitudeDegrees>49.51309452764689922332763671875</LatitudeDegrees>
              <LongitudeDegrees>20.39687714539468288421630859375</LongitudeDegrees>
            </Position>
            <AltitudeMeters>389.79998779296875</AltitudeMeters>
            <DistanceMeters>NAN</DistanceMeters>
          </Trackpoint>
          <Trackpoint>
            <Time>2022-09-22T08:56:36.000Z</Time>
            <Position>
              <LatitudeDegrees>49.51306200586259365081787109375</LatitudeDegrees>
              <LongitudeDegrees>20.396870188415050506591796875</LongitudeDegrees>
            </Position>
            <AltitudeMeters>389.79998779296875</AltitudeMeters>
            <DistanceMeters>NAN</DistanceMeters>
          </Trackpoint>
          <Trackpoint>
            <Time>2022-09-22T08:56:39.000Z</Time>
            <Position>
              <LatitudeDegrees>49.512947760522365570068359375</LatitudeDegrees>
              <LongitudeDegrees>20.39684831164777278900146484375</LongitudeDegrees>
            </Position>
            <AltitudeMeters>390</AltitudeMeters>
            <DistanceMeters>NAN</DistanceMeters>
          </Trackpoint>
          <Trackpoint>
            <Time>2022-09-22T08:56:42.000Z</Time>
            <Position>
              <LatitudeDegrees>49.512823037803173065185546875</LatitudeDegrees>
              <LongitudeDegrees>20.396833308041095733642578125</LongitudeDegrees>
            </Position>
            <AltitudeMeters>390</AltitudeMeters>
            <DistanceMeters>NAN</DistanceMeters>
          </Trackpoint>
          <Trackpoint>
            <Time>2022-09-22T08:56:48.000Z</Time>
            <Position>
              <LatitudeDegrees>49.51259949244558811187744140625</LatitudeDegrees>
              <LongitudeDegrees>20.39679852314293384552001953125</LongitudeDegrees>
            </Position>
            <AltitudeMeters>390</AltitudeMeters>
            <DistanceMeters>NAN</DistanceMeters>
          </Trackpoint>
          <Trackpoint>
            <Time>2022-09-22T08:56:55.000Z</Time>
            <Position>
              <LatitudeDegrees>49.51231853105127811431884765625</LatitudeDegrees>
              <LongitudeDegrees>20.39677522145211696624755859375</LongitudeDegrees>
            </Position>
            <AltitudeMeters>390.399993896484375</AltitudeMeters>
            <DistanceMeters>NAN</DistanceMeters>
          </Trackpoint>
          <Trackpoint>
            <Time>2022-09-22T08:56:56.000Z</Time>
            <Position>
              <LatitudeDegrees>49.5122815668582916259765625</LatitudeDegrees>
              <LongitudeDegrees>20.39677119813859462738037109375</LongitudeDegrees>
            </Position>
            <AltitudeMeters>390.399993896484375</AltitudeMeters>
            <DistanceMeters>NAN</DistanceMeters>
          </Trackpoint>
          <Trackpoint>
            <Time>2022-09-22T08:56:57.000Z</Time>
            <Position>
              <LatitudeDegrees>49.512242339551448822021484375</LatitudeDegrees>
              <LongitudeDegrees>20.3967697732150554656982421875</LongitudeDegrees>
            </Position>
            <AltitudeMeters>390.399993896484375</AltitudeMeters>
            <DistanceMeters>NAN</DistanceMeters>
          </Trackpoint>
          <Trackpoint>
            <Time>2022-09-22T08:57:03.000Z</Time>
            <Position>
              <LatitudeDegrees>49.5120026171207427978515625</LatitudeDegrees>
              <LongitudeDegrees>20.396801121532917022705078125</LongitudeDegrees>
            </Position>
            <AltitudeMeters>390.399993896484375</AltitudeMeters>
            <DistanceMeters>NAN</DistanceMeters>
          </Trackpoint>
          <Trackpoint>
            <Time>2022-09-22T08:57:09.000Z</Time>
            <Position>
              <LatitudeDegrees>49.5117821730673313140869140625</LatitudeDegrees>
              <LongitudeDegrees>20.39683540351688861846923828125</LongitudeDegrees>
            </Position>
            <AltitudeMeters>390.399993896484375</AltitudeMeters>
            <DistanceMeters>NAN</DistanceMeters>
          </Trackpoint>
          <Trackpoint>
            <Time>2022-09-22T08:57:17.000Z</Time>
            <Position>
              <LatitudeDegrees>49.51152476482093334197998046875</LatitudeDegrees>
              <LongitudeDegrees>20.39689893834292888641357421875</LongitudeDegrees>
            </Position>
            <AltitudeMeters>390.20001220703125</AltitudeMeters>
            <DistanceMeters>NAN</DistanceMeters>
          </Trackpoint>
          <Trackpoint>
            <Time>2022-09-22T08:57:26.000Z</Time>
            <Position>
              <LatitudeDegrees>49.51119971461594104766845703125</LatitudeDegrees>
              <LongitudeDegrees>20.3969947434961795806884765625</LongitudeDegrees>
            </Position>
            <AltitudeMeters>390.399993896484375</AltitudeMeters>
            <DistanceMeters>NAN</DistanceMeters>
          </Trackpoint>
          <Trackpoint>
            <Time>2022-09-22T08:57:35.000Z</Time>
            <Position>
              <LatitudeDegrees>49.51088757254183292388916015625</LatitudeDegrees>
              <LongitudeDegrees>20.39706758223474025726318359375</LongitudeDegrees>
            </Position>
            <AltitudeMeters>390.399993896484375</AltitudeMeters>
            <DistanceMeters>NAN</DistanceMeters>
          </Trackpoint>
          <Trackpoint>
            <Time>2022-09-22T08:57:41.000Z</Time>
            <Position>
              <LatitudeDegrees>49.51068229973316192626953125</LatitudeDegrees>
              <LongitudeDegrees>20.39711552672088146209716796875</LongitudeDegrees>
            </Position>
            <AltitudeMeters>390.399993896484375</AltitudeMeters>
            <DistanceMeters>NAN</DistanceMeters>
          </Trackpoint>
          <Trackpoint>
            <Time>2022-09-22T08:57:44.000Z</Time>
            <Position>
              <LatitudeDegrees>49.510597474873065948486328125</LatitudeDegrees>
              <LongitudeDegrees>20.39714385755360126495361328125</LongitudeDegrees>
            </Position>
            <AltitudeMeters>390.399993896484375</AltitudeMeters>
            <DistanceMeters>NAN</DistanceMeters>
          </Trackpoint>
          <Trackpoint>
            <Time>2022-09-22T08:57:49.000Z</Time>
            <Position>
              <LatitudeDegrees>49.51047099195420742034912109375</LatitudeDegrees>
              <LongitudeDegrees>20.397160537540912628173828125</LongitudeDegrees>
            </Position>
            <AltitudeMeters>390.79998779296875</AltitudeMeters>
            <DistanceMeters>NAN</DistanceMeters>
          </Trackpoint>
          <Trackpoint>
            <Time>2022-09-22T08:57:50.000Z</Time>
            <Position>
              <LatitudeDegrees>49.51044182293117046356201171875</LatitudeDegrees>
              <LongitudeDegrees>20.39717017672955989837646484375</LongitudeDegrees>
            </Position>
            <AltitudeMeters>390.79998779296875</AltitudeMeters>
            <DistanceMeters>NAN</DistanceMeters>
          </Trackpoint>
          <Trackpoint>
            <Time>2022-09-22T08:57:58.000Z</Time>
            <Position>
              <LatitudeDegrees>49.5102087222039699554443359375</LatitudeDegrees>
              <LongitudeDegrees>20.3972287662327289581298828125</LongitudeDegrees>
            </Position>
            <AltitudeMeters>390.79998779296875</AltitudeMeters>
            <DistanceMeters>NAN</DistanceMeters>
          </Trackpoint>
          <Trackpoint>
            <Time>2022-09-22T08:58:04.000Z</Time>
            <Position>
              <LatitudeDegrees>49.509998671710491180419921875</LatitudeDegrees>
              <LongitudeDegrees>20.3972773812711238861083984375</LongitudeDegrees>
            </Position>
            <AltitudeMeters>390.79998779296875</AltitudeMeters>
            <DistanceMeters>NAN</DistanceMeters>
          </Trackpoint>
          <Trackpoint>
            <Time>2022-09-22T08:58:08.000Z</Time>
            <Position>
              <LatitudeDegrees>49.50984084047377109527587890625</LatitudeDegrees>
              <LongitudeDegrees>20.39729791693389415740966796875</LongitudeDegrees>
            </Position>
            <AltitudeMeters>391</AltitudeMeters>
            <DistanceMeters>NAN</DistanceMeters>
          </Trackpoint>
          <Trackpoint>
            <Time>2022-09-22T08:58:15.000Z</Time>
            <Position>
              <LatitudeDegrees>49.50955384410917758941650390625</LatitudeDegrees>
              <LongitudeDegrees>20.39727327413856983184814453125</LongitudeDegrees>
            </Position>
            <AltitudeMeters>391</AltitudeMeters>
            <DistanceMeters>NAN</DistanceMeters>
          </Trackpoint>
          <Trackpoint>
            <Time>2022-09-22T08:58:22.000Z</Time>
            <Position>
              <LatitudeDegrees>49.50928696431219577789306640625</LatitudeDegrees>
              <LongitudeDegrees>20.39723069407045841217041015625</LongitudeDegrees>
            </Position>
            <AltitudeMeters>391.20001220703125</AltitudeMeters>
            <DistanceMeters>NAN</DistanceMeters>
          </Trackpoint>
          <Trackpoint>
            <Time>2022-09-22T08:58:31.000Z</Time>
            <Position>
              <LatitudeDegrees>49.5089293085038661956787109375</LatitudeDegrees>
              <LongitudeDegrees>20.397080071270465850830078125</LongitudeDegrees>
            </Position>
            <AltitudeMeters>391.600006103515625</AltitudeMeters>
            <DistanceMeters>NAN</DistanceMeters>
          </Trackpoint>
          <Trackpoint>
            <Time>2022-09-22T08:58:41.000Z</Time>
            <Position>
              <LatitudeDegrees>49.50856477953493595123291015625</LatitudeDegrees>
              <LongitudeDegrees>20.39689399302005767822265625</LongitudeDegrees>
            </Position>
            <AltitudeMeters>391.600006103515625</AltitudeMeters>
            <DistanceMeters>NAN</DistanceMeters>
          </Trackpoint>
          <Trackpoint>
            <Time>2022-09-22T08:58:42.000Z</Time>
            <Position>
              <LatitudeDegrees>49.50852848589420318603515625</LatitudeDegrees>
              <LongitudeDegrees>20.39687664248049259185791015625</LongitudeDegrees>
            </Position>
            <AltitudeMeters>391.600006103515625</AltitudeMeters>
            <DistanceMeters>NAN</DistanceMeters>
          </Trackpoint>
          <Trackpoint>
            <Time>2022-09-22T08:58:43.000Z</Time>
            <Position>
              <LatitudeDegrees>49.5084907673299312591552734375</LatitudeDegrees>
              <LongitudeDegrees>20.3968606330454349517822265625</LongitudeDegrees>
            </Position>
            <AltitudeMeters>391.79998779296875</AltitudeMeters>
            <DistanceMeters>NAN</DistanceMeters>
          </Trackpoint>
          <Trackpoint>
            <Time>2022-09-22T08:58:53.000Z</Time>
            <Position>
              <LatitudeDegrees>49.5081080496311187744140625</LatitudeDegrees>
              <LongitudeDegrees>20.396714620292186737060546875</LongitudeDegrees>
            </Position>
            <AltitudeMeters>392.399993896484375</AltitudeMeters>
            <DistanceMeters>NAN</DistanceMeters>
          </Trackpoint>
          <Trackpoint>
            <Time>2022-09-22T08:59:00.000Z</Time>
            <Position>
              <LatitudeDegrees>49.50782180763781070709228515625</LatitudeDegrees>
              <LongitudeDegrees>20.3966708667576313018798828125</LongitudeDegrees>
            </Position>
            <AltitudeMeters>392.399993896484375</AltitudeMeters>
            <DistanceMeters>NAN</DistanceMeters>
          </Trackpoint>
          <Trackpoint>
            <Time>2022-09-22T08:59:02.000Z</Time>
            <Position>
              <LatitudeDegrees>49.50774553231894969940185546875</LatitudeDegrees>
              <LongitudeDegrees>20.39667597971856594085693359375</LongitudeDegrees>
            </Position>
            <AltitudeMeters>392.399993896484375</AltitudeMeters>
            <DistanceMeters>NAN</DistanceMeters>
          </Trackpoint>
          <Trackpoint>
            <Time>2022-09-22T08:59:09.000Z</Time>
            <Position>
              <LatitudeDegrees>49.50746540911495685577392578125</LatitudeDegrees>
              <LongitudeDegrees>20.3967013768851757049560546875</LongitudeDegrees>
            </Position>
            <AltitudeMeters>392.20001220703125</AltitudeMeters>
            <DistanceMeters>NAN</DistanceMeters>
          </Trackpoint>
          <Trackpoint>
            <Time>2022-09-22T08:59:11.000Z</Time>
            <Position>
              <LatitudeDegrees>49.50738829560577869415283203125</LatitudeDegrees>
              <LongitudeDegrees>20.39671621285378932952880859375</LongitudeDegrees>
            </Position>
            <AltitudeMeters>392.20001220703125</AltitudeMeters>
            <DistanceMeters>NAN</DistanceMeters>
          </Trackpoint>
          <Trackpoint>
            <Time>2022-09-22T08:59:21.000Z</Time>
            <Position>
              <LatitudeDegrees>49.50705318711698055267333984375</LatitudeDegrees>
              <LongitudeDegrees>20.396801792085170745849609375</LongitudeDegrees>
            </Position>
            <AltitudeMeters>392.20001220703125</AltitudeMeters>
            <DistanceMeters>NAN</DistanceMeters>
          </Trackpoint>
          <Trackpoint>
            <Time>2022-09-22T08:59:32.000Z</Time>
            <Position>
              <LatitudeDegrees>49.5066328346729278564453125</LatitudeDegrees>
              <LongitudeDegrees>20.3969176299870014190673828125</LongitudeDegrees>
            </Position>
            <AltitudeMeters>392.399993896484375</AltitudeMeters>
            <DistanceMeters>NAN</DistanceMeters>
          </Trackpoint>
          <Trackpoint>
            <Time>2022-09-22T08:59:40.000Z</Time>
            <Position>
              <LatitudeDegrees>49.50634608976542949676513671875</LatitudeDegrees>
              <LongitudeDegrees>20.39699013344943523406982421875</LongitudeDegrees>
            </Position>
            <AltitudeMeters>392.600006103515625</AltitudeMeters>
            <DistanceMeters>NAN</DistanceMeters>
          </Trackpoint>
          <Trackpoint>
            <Time>2022-09-22T08:59:50.000Z</Time>
            <Position>
              <LatitudeDegrees>49.50600628741085529327392578125</LatitudeDegrees>
              <LongitudeDegrees>20.397137068212032318115234375</LongitudeDegrees>
            </Position>
            <AltitudeMeters>392.79998779296875</AltitudeMeters>
            <DistanceMeters>NAN</DistanceMeters>
          </Trackpoint>
          <Trackpoint>
            <Time>2022-09-22T08:59:57.000Z</Time>
            <Position>
              <LatitudeDegrees>49.5058062113821506500244140625</LatitudeDegrees>
              <LongitudeDegrees>20.39726682007312774658203125</LongitudeDegrees>
            </Position>
            <AltitudeMeters>392.79998779296875</AltitudeMeters>
            <DistanceMeters>NAN</DistanceMeters>
          </Trackpoint>
          <Trackpoint>
            <Time>2022-09-22T09:00:02.000Z</Time>
            <Position>
              <LatitudeDegrees>49.505626000463962554931640625</LatitudeDegrees>
              <LongitudeDegrees>20.3973736055195331573486328125</LongitudeDegrees>
            </Position>
            <AltitudeMeters>392.79998779296875</AltitudeMeters>
            <DistanceMeters>NAN</DistanceMeters>
          </Trackpoint>
          <Trackpoint>
            <Time>2022-09-22T09:00:06.000Z</Time>
            <Position>
              <LatitudeDegrees>49.50548124499619007110595703125</LatitudeDegrees>
              <LongitudeDegrees>20.3974637947976589202880859375</LongitudeDegrees>
            </Position>
            <AltitudeMeters>392.79998779296875</AltitudeMeters>
            <DistanceMeters>NAN</DistanceMeters>
          </Trackpoint>
          <Trackpoint>
            <Time>2022-09-22T09:00:14.000Z</Time>
            <Position>
              <LatitudeDegrees>49.50519609265029430389404296875</LatitudeDegrees>
              <LongitudeDegrees>20.39768046699464321136474609375</LongitudeDegrees>
            </Position>
            <AltitudeMeters>393</AltitudeMeters>
            <DistanceMeters>NAN</DistanceMeters>
          </Trackpoint>
          <Trackpoint>
            <Time>2022-09-22T09:00:22.000Z</Time>
            <Position>
              <LatitudeDegrees>49.50489903800189495086669921875</LatitudeDegrees>
              <LongitudeDegrees>20.39796017110347747802734375</LongitudeDegrees>
            </Position>
            <AltitudeMeters>393.20001220703125</AltitudeMeters>
            <DistanceMeters>NAN</DistanceMeters>
          </Trackpoint>
          <Trackpoint>
            <Time>2022-09-22T09:00:23.000Z</Time>
            <Position>
              <LatitudeDegrees>49.504863917827606201171875</LatitudeDegrees>
              <LongitudeDegrees>20.39799897931516170501708984375</LongitudeDegrees>
            </Position>
            <AltitudeMeters>393</AltitudeMeters>
            <DistanceMeters>NAN</DistanceMeters>
          </Trackpoint>
          <Trackpoint>
            <Time>2022-09-22T09:00:26.000Z</Time>
            <Position>
              <LatitudeDegrees>49.50476492755115032196044921875</LatitudeDegrees>
              <LongitudeDegrees>20.3980855643749237060546875</LongitudeDegrees>
            </Position>
            <AltitudeMeters>393.20001220703125</AltitudeMeters>
            <DistanceMeters>NAN</DistanceMeters>
          </Trackpoint>
          <Trackpoint>
            <Time>2022-09-22T09:00:28.000Z</Time>
            <Position>
              <LatitudeDegrees>49.50469502247869968414306640625</LatitudeDegrees>
              <LongitudeDegrees>20.3981561399996280670166015625</LongitudeDegrees>
            </Position>
            <AltitudeMeters>393.20001220703125</AltitudeMeters>
            <DistanceMeters>NAN</DistanceMeters>
          </Trackpoint>
          <Trackpoint>
            <Time>2022-09-22T09:00:31.000Z</Time>
            <Position>
              <LatitudeDegrees>49.50460298918187618255615234375</LatitudeDegrees>
              <LongitudeDegrees>20.3982733190059661865234375</LongitudeDegrees>
            </Position>
            <AltitudeMeters>393.399993896484375</AltitudeMeters>
            <DistanceMeters>NAN</DistanceMeters>
          </Trackpoint>
          <Trackpoint>
            <Time>2022-09-22T09:00:37.000Z</Time>
            <Position>
              <LatitudeDegrees>49.504425711929798126220703125</LatitudeDegrees>
              <LongitudeDegrees>20.39849460124969482421875</LongitudeDegrees>
            </Position>
            <AltitudeMeters>393.399993896484375</AltitudeMeters>
            <DistanceMeters>NAN</DistanceMeters>
          </Trackpoint>
          <Trackpoint>
            <Time>2022-09-22T09:00:41.000Z</Time>
            <Position>
              <LatitudeDegrees>49.5042890869081020355224609375</LatitudeDegrees>
              <LongitudeDegrees>20.3986208327114582061767578125</LongitudeDegrees>
            </Position>
            <AltitudeMeters>393.399993896484375</AltitudeMeters>
            <DistanceMeters>NAN</DistanceMeters>
          </Trackpoint>
          <Trackpoint>
            <Time>2022-09-22T09:00:44.000Z</Time>
            <Position>
              <LatitudeDegrees>49.50419604778289794921875</LatitudeDegrees>
              <LongitudeDegrees>20.398717224597930908203125</LongitudeDegrees>
            </Position>
            <AltitudeMeters>393.600006103515625</AltitudeMeters>
            <DistanceMeters>NAN</DistanceMeters>
          </Trackpoint>
          <Trackpoint>
            <Time>2022-09-22T09:00:47.000Z</Time>
            <Position>
              <LatitudeDegrees>49.50410326011478900909423828125</LatitudeDegrees>
              <LongitudeDegrees>20.39880615659058094024658203125</LongitudeDegrees>
            </Position>
            <AltitudeMeters>393.79998779296875</AltitudeMeters>
            <DistanceMeters>NAN</DistanceMeters>
          </Trackpoint>
          <Trackpoint>
            <Time>2022-09-22T09:00:48.000Z</Time>
            <Position>
              <LatitudeDegrees>49.5040718279778957366943359375</LatitudeDegrees>
              <LongitudeDegrees>20.39884253405034542083740234375</LongitudeDegrees>
            </Position>
            <AltitudeMeters>393.79998779296875</AltitudeMeters>
            <DistanceMeters>NAN</DistanceMeters>
          </Trackpoint>
          <Trackpoint>
            <Time>2022-09-22T09:00:57.000Z</Time>
            <Position>
              <LatitudeDegrees>49.5037821494042873382568359375</LatitudeDegrees>
              <LongitudeDegrees>20.3991726972162723541259765625</LongitudeDegrees>
            </Position>
            <AltitudeMeters>394</AltitudeMeters>
            <DistanceMeters>NAN</DistanceMeters>
          </Trackpoint>
          <Trackpoint>
            <Time>2022-09-22T09:01:05.000Z</Time>
            <Position>
              <LatitudeDegrees>49.5035719312727451324462890625</LatitudeDegrees>
              <LongitudeDegrees>20.39943714626133441925048828125</LongitudeDegrees>
            </Position>
            <AltitudeMeters>394</AltitudeMeters>
            <DistanceMeters>NAN</DistanceMeters>
          </Trackpoint>
          <Trackpoint>
            <Time>2022-09-22T09:01:11.000Z</Time>
            <Position>
              <LatitudeDegrees>49.50341141782701015472412109375</LatitudeDegrees>
              <LongitudeDegrees>20.39963730610907077789306640625</LongitudeDegrees>
            </Position>
            <AltitudeMeters>394</AltitudeMeters>
            <DistanceMeters>NAN</DistanceMeters>
          </Trackpoint>
          <Trackpoint>
            <Time>2022-09-22T09:01:12.000Z</Time>
            <Position>
              <LatitudeDegrees>49.5033848471939563751220703125</LatitudeDegrees>
              <LongitudeDegrees>20.39966848678886890411376953125</LongitudeDegrees>
            </Position>
            <AltitudeMeters>394</AltitudeMeters>
            <DistanceMeters>NAN</DistanceMeters>
          </Trackpoint>
          <Trackpoint>
            <Time>2022-09-22T09:01:20.000Z</Time>
            <Position>
              <LatitudeDegrees>49.50318225659430027008056640625</LatitudeDegrees>
              <LongitudeDegrees>20.3999160043895244598388671875</LongitudeDegrees>
            </Position>
            <AltitudeMeters>394.20001220703125</AltitudeMeters>
            <DistanceMeters>NAN</DistanceMeters>
          </Trackpoint>
          <Trackpoint>
            <Time>2022-09-22T09:01:26.000Z</Time>
            <Position>
              <LatitudeDegrees>49.50302283279597759246826171875</LatitudeDegrees>
              <LongitudeDegrees>20.4001020826399326324462890625</LongitudeDegrees>
            </Position>
            <AltitudeMeters>394.20001220703125</AltitudeMeters>
            <DistanceMeters>NAN</DistanceMeters>
          </Trackpoint>
          <Trackpoint>
            <Time>2022-09-22T09:01:27.000Z</Time>
            <Position>
              <LatitudeDegrees>49.50299567542970180511474609375</LatitudeDegrees>
              <LongitudeDegrees>20.40013234131038188934326171875</LongitudeDegrees>
            </Position>
            <AltitudeMeters>394.20001220703125</AltitudeMeters>
            <DistanceMeters>NAN</DistanceMeters>
          </Trackpoint>
          <Trackpoint>
            <Time>2022-09-22T09:01:36.000Z</Time>
            <Position>
              <LatitudeDegrees>49.50276249088346958160400390625</LatitudeDegrees>
              <LongitudeDegrees>20.40040844120085239410400390625</LongitudeDegrees>
            </Position>
            <AltitudeMeters>394.600006103515625</AltitudeMeters>
            <DistanceMeters>NAN</DistanceMeters>
          </Trackpoint>
          <Trackpoint>
            <Time>2022-09-22T09:01:38.000Z</Time>
            <Position>
              <LatitudeDegrees>49.50270784087479114532470703125</LatitudeDegrees>
              <LongitudeDegrees>20.40046870708465576171875</LongitudeDegrees>
            </Position>
            <AltitudeMeters>395</AltitudeMeters>
            <DistanceMeters>NAN</DistanceMeters>
          </Trackpoint>
          <Trackpoint>
            <Time>2022-09-22T09:01:43.000Z</Time>
            <Position>
              <LatitudeDegrees>49.5025684498250484466552734375</LatitudeDegrees>
              <LongitudeDegrees>20.4006140492856502532958984375</LongitudeDegrees>
            </Position>
            <AltitudeMeters>395</AltitudeMeters>
            <DistanceMeters>NAN</DistanceMeters>
          </Trackpoint>
          <Trackpoint>
            <Time>2022-09-22T09:01:50.000Z</Time>
            <Position>
              <LatitudeDegrees>49.50234926305711269378662109375</LatitudeDegrees>
              <LongitudeDegrees>20.4008202441036701202392578125</LongitudeDegrees>
            </Position>
            <AltitudeMeters>395</AltitudeMeters>
            <DistanceMeters>NAN</DistanceMeters>
          </Trackpoint>
          <Trackpoint>
            <Time>2022-09-22T09:01:57.000Z</Time>
            <Position>
              <LatitudeDegrees>49.50212965719401836395263671875</LatitudeDegrees>
              <LongitudeDegrees>20.401021577417850494384765625</LongitudeDegrees>
            </Position>
            <AltitudeMeters>395.20001220703125</AltitudeMeters>
            <DistanceMeters>NAN</DistanceMeters>
          </Trackpoint>
          <Trackpoint>
            <Time>2022-09-22T09:02:03.000Z</Time>
            <Position>
              <LatitudeDegrees>49.50194508768618106842041015625</LatitudeDegrees>
              <LongitudeDegrees>20.401202626526355743408203125</LongitudeDegrees>
            </Position>
            <AltitudeMeters>395</AltitudeMeters>
            <DistanceMeters>NAN</DistanceMeters>
          </Trackpoint>
          <Trackpoint>
            <Time>2022-09-22T09:02:06.000Z</Time>
            <Position>
              <LatitudeDegrees>49.5018409006297588348388671875</LatitudeDegrees>
              <LongitudeDegrees>20.4012872837483882904052734375</LongitudeDegrees>
            </Position>
            <AltitudeMeters>395</AltitudeMeters>
            <DistanceMeters>NAN</DistanceMeters>
          </Trackpoint>
          <Trackpoint>
            <Time>2022-09-22T09:02:15.000Z</Time>
            <Position>
              <LatitudeDegrees>49.50156505219638347625732421875</LatitudeDegrees>
              <LongitudeDegrees>20.401534549891948699951171875</LongitudeDegrees>
            </Position>
            <AltitudeMeters>394.79998779296875</AltitudeMeters>
            <DistanceMeters>NAN</DistanceMeters>
          </Trackpoint>
          <Trackpoint>
            <Time>2022-09-22T09:02:23.000Z</Time>
            <Position>
              <LatitudeDegrees>49.5013279281556606292724609375</LatitudeDegrees>
              <LongitudeDegrees>20.40173781104385852813720703125</LongitudeDegrees>
            </Position>
            <AltitudeMeters>395</AltitudeMeters>
            <DistanceMeters>NAN</DistanceMeters>
          </Trackpoint>
          <Trackpoint>
            <Time>2022-09-22T09:02:31.000Z</Time>
            <Position>
              <LatitudeDegrees>49.50109616853296756744384765625</LatitudeDegrees>
              <LongitudeDegrees>20.4019092209637165069580078125</LongitudeDegrees>
            </Position>
            <AltitudeMeters>395.20001220703125</AltitudeMeters>
            <DistanceMeters>NAN</DistanceMeters>
          </Trackpoint>
          <Trackpoint>
            <Time>2022-09-22T09:02:37.000Z</Time>
            <Position>
              <LatitudeDegrees>49.50092249549925327301025390625</LatitudeDegrees>
              <LongitudeDegrees>20.402059592306613922119140625</LongitudeDegrees>
            </Position>
            <AltitudeMeters>395</AltitudeMeters>
            <DistanceMeters>NAN</DistanceMeters>
          </Trackpoint>
          <Trackpoint>
            <Time>2022-09-22T09:02:43.000Z</Time>
            <Position>
              <LatitudeDegrees>49.50077665038406848907470703125</LatitudeDegrees>
              <LongitudeDegrees>20.4022180102765560150146484375</LongitudeDegrees>
            </Position>
            <AltitudeMeters>395</AltitudeMeters>
            <DistanceMeters>NAN</DistanceMeters>
          </Trackpoint>
          <Trackpoint>
            <Time>2022-09-22T09:02:49.000Z</Time>
            <Position>
              <LatitudeDegrees>49.50062938034534454345703125</LatitudeDegrees>
              <LongitudeDegrees>20.40235253982245922088623046875</LongitudeDegrees>
            </Position>
            <AltitudeMeters>395.20001220703125</AltitudeMeters>
            <DistanceMeters>NAN</DistanceMeters>
          </Trackpoint>
          <Trackpoint>
            <Time>2022-09-22T09:02:52.000Z</Time>
            <Position>
              <LatitudeDegrees>49.5005574636161327362060546875</LatitudeDegrees>
              <LongitudeDegrees>20.40237952955067157745361328125</LongitudeDegrees>
            </Position>
            <AltitudeMeters>395.20001220703125</AltitudeMeters>
            <DistanceMeters>NAN</DistanceMeters>
          </Trackpoint>
          <Trackpoint>
            <Time>2022-09-22T09:02:54.000Z</Time>
            <Position>
              <LatitudeDegrees>49.5005195774137973785400390625</LatitudeDegrees>
              <LongitudeDegrees>20.40235924534499645233154296875</LongitudeDegrees>
            </Position>
            <AltitudeMeters>395</AltitudeMeters>
            <DistanceMeters>NAN</DistanceMeters>
          </Trackpoint>
          <Trackpoint>
            <Time>2022-09-22T09:02:55.000Z</Time>
            <Position>
              <LatitudeDegrees>49.50050138868391513824462890625</LatitudeDegrees>
              <LongitudeDegrees>20.40234684012830257415771484375</LongitudeDegrees>
            </Position>
            <AltitudeMeters>395</AltitudeMeters>
            <DistanceMeters>NAN</DistanceMeters>
          </Trackpoint>
          <Trackpoint>
            <Time>2022-09-22T09:02:58.000Z</Time>
            <Position>
              <LatitudeDegrees>49.50045092962682247161865234375</LatitudeDegrees>
              <LongitudeDegrees>20.4023863188922405242919921875</LongitudeDegrees>
            </Position>
            <AltitudeMeters>395</AltitudeMeters>
            <DistanceMeters>NAN</DistanceMeters>
          </Trackpoint>
          <Trackpoint>
            <Time>2022-09-22T09:03:00.000Z</Time>
            <Position>
              <LatitudeDegrees>49.5004257000982761383056640625</LatitudeDegrees>
              <LongitudeDegrees>20.4024074412882328033447265625</LongitudeDegrees>
            </Position>
            <AltitudeMeters>395</AltitudeMeters>
            <DistanceMeters>NAN</DistanceMeters>
          </Trackpoint>
          <Trackpoint>
            <Time>2022-09-22T09:03:02.000Z</Time>
            <Position>
              <LatitudeDegrees>49.50042125768959522247314453125</LatitudeDegrees>
              <LongitudeDegrees>20.40240735746920108795166015625</LongitudeDegrees>
            </Position>
            <AltitudeMeters>395</AltitudeMeters>
            <DistanceMeters>NAN</DistanceMeters>
          </Trackpoint>
          <Trackpoint>
            <Time>2022-09-22T09:03:08.000Z</Time>
            <Position>
              <LatitudeDegrees>49.50041606090962886810302734375</LatitudeDegrees>
              <LongitudeDegrees>20.4024231992661952972412109375</LongitudeDegrees>
            </Position>
            <AltitudeMeters>394.79998779296875</AltitudeMeters>
            <DistanceMeters>NAN</DistanceMeters>
          </Trackpoint>
          <Trackpoint>
            <Time>2022-09-22T09:03:10.000Z</Time>
            <Position>
              <LatitudeDegrees>49.50041388161480426788330078125</LatitudeDegrees>
              <LongitudeDegrees>20.40244457311928272247314453125</LongitudeDegrees>
            </Position>
            <AltitudeMeters>394.79998779296875</AltitudeMeters>
            <DistanceMeters>NAN</DistanceMeters>
          </Trackpoint>
          <Trackpoint>
            <Time>2022-09-22T09:03:17.000Z</Time>
            <Position>
              <LatitudeDegrees>49.50038974173367023468017578125</LatitudeDegrees>
              <LongitudeDegrees>20.4025378637015819549560546875</LongitudeDegrees>
            </Position>
            <AltitudeMeters>394.79998779296875</AltitudeMeters>
            <DistanceMeters>NAN</DistanceMeters>
          </Trackpoint>
          <Trackpoint>
            <Time>2022-09-22T09:03:21.000Z</Time>
            <Position>
              <LatitudeDegrees>49.5003562979400157928466796875</LatitudeDegrees>
              <LongitudeDegrees>20.4025931842625141143798828125</LongitudeDegrees>
            </Position>
            <AltitudeMeters>394.79998779296875</AltitudeMeters>
            <DistanceMeters>NAN</DistanceMeters>
          </Trackpoint>
          <Trackpoint>
            <Time>2022-09-22T09:03:25.000Z</Time>
            <Position>
              <LatitudeDegrees>49.50031631626188755035400390625</LatitudeDegrees>
              <LongitudeDegrees>20.40263836272060871124267578125</LongitudeDegrees>
            </Position>
            <AltitudeMeters>394.600006103515625</AltitudeMeters>
            <DistanceMeters>NAN</DistanceMeters>
          </Trackpoint>
          <Trackpoint>
            <Time>2022-09-22T09:03:33.000Z</Time>
            <Position>
              <LatitudeDegrees>49.50025328435003757476806640625</LatitudeDegrees>
              <LongitudeDegrees>20.40270374156534671783447265625</LongitudeDegrees>
            </Position>
            <AltitudeMeters>394.600006103515625</AltitudeMeters>
            <DistanceMeters>NAN</DistanceMeters>
          </Trackpoint>
          <Trackpoint>
            <Time>2022-09-22T09:03:39.000Z</Time>
            <Position>
              <LatitudeDegrees>49.50023836456239223480224609375</LatitudeDegrees>
              <LongitudeDegrees>20.402716733515262603759765625</LongitudeDegrees>
            </Position>
            <AltitudeMeters>394.600006103515625</AltitudeMeters>
            <DistanceMeters>NAN</DistanceMeters>
          </Trackpoint>
          <Trackpoint>
            <Time>2022-09-22T09:03:47.000Z</Time>
            <Position>
              <LatitudeDegrees>49.50024071149528026580810546875</LatitudeDegrees>
              <LongitudeDegrees>20.40271840989589691162109375</LongitudeDegrees>
            </Position>
            <AltitudeMeters>394.600006103515625</AltitudeMeters>
            <DistanceMeters>NAN</DistanceMeters>
          </Trackpoint>
          <Trackpoint>
            <Time>2022-09-22T09:03:57.000Z</Time>
            <Position>
              <LatitudeDegrees>49.50024071149528026580810546875</LatitudeDegrees>
              <LongitudeDegrees>20.40271840989589691162109375</LongitudeDegrees>
            </Position>
            <AltitudeMeters>394.79998779296875</AltitudeMeters>
            <DistanceMeters>NAN</DistanceMeters>
          </Trackpoint>
          <Trackpoint>
            <Time>2022-09-22T09:04:08.000Z</Time>
            <Position>
              <LatitudeDegrees>49.50024540536105632781982421875</LatitudeDegrees>
              <LongitudeDegrees>20.4027096927165985107421875</LongitudeDegrees>
            </Position>
            <AltitudeMeters>394.79998779296875</AltitudeMeters>
            <DistanceMeters>NAN</DistanceMeters>
          </Trackpoint>
          <Trackpoint>
            <Time>2022-09-22T09:04:09.000Z</Time>
            <Position>
              <LatitudeDegrees>49.50025496073067188262939453125</LatitudeDegrees>
              <LongitudeDegrees>20.40268345735967159271240234375</LongitudeDegrees>
            </Position>
            <AltitudeMeters>394.79998779296875</AltitudeMeters>
            <DistanceMeters>NAN</DistanceMeters>
          </Trackpoint>
          <Trackpoint>
            <Time>2022-09-22T09:04:13.000Z</Time>
            <Position>
              <LatitudeDegrees>49.5003113709390163421630859375</LatitudeDegrees>
              <LongitudeDegrees>20.40261992253363132476806640625</LongitudeDegrees>
            </Position>
            <AltitudeMeters>395</AltitudeMeters>
            <DistanceMeters>NAN</DistanceMeters>
          </Trackpoint>
          <Trackpoint>
            <Time>2022-09-22T09:04:14.000Z</Time>
            <Position>
              <LatitudeDegrees>49.50031866319477558135986328125</LatitudeDegrees>
              <LongitudeDegrees>20.4026045836508274078369140625</LongitudeDegrees>
            </Position>
            <AltitudeMeters>395</AltitudeMeters>
            <DistanceMeters>NAN</DistanceMeters>
          </Trackpoint>
          <Trackpoint>
            <Time>2022-09-22T09:04:18.000Z</Time>
            <Position>
              <LatitudeDegrees>49.50036476366221904754638671875</LatitudeDegrees>
              <LongitudeDegrees>20.4025311581790447235107421875</LongitudeDegrees>
            </Position>
            <AltitudeMeters>395</AltitudeMeters>
            <DistanceMeters>NAN</DistanceMeters>
          </Trackpoint>
          <Trackpoint>
            <Time>2022-09-22T09:04:19.000Z</Time>
            <Position>
              <LatitudeDegrees>49.50037783943116664886474609375</LatitudeDegrees>
              <LongitudeDegrees>20.4025204293429851531982421875</LongitudeDegrees>
            </Position>
            <AltitudeMeters>395</AltitudeMeters>
            <DistanceMeters>NAN</DistanceMeters>
          </Trackpoint>
          <Trackpoint>
            <Time>2022-09-22T09:04:21.000Z</Time>
            <Position>
              <LatitudeDegrees>49.500392340123653411865234375</LatitudeDegrees>
              <LongitudeDegrees>20.4024912603199481964111328125</LongitudeDegrees>
            </Position>
            <AltitudeMeters>395</AltitudeMeters>
            <DistanceMeters>NAN</DistanceMeters>
          </Trackpoint>
          <Trackpoint>
            <Time>2022-09-22T09:04:22.000Z</Time>
            <Position>
              <LatitudeDegrees>49.5004035718739032745361328125</LatitudeDegrees>
              <LongitudeDegrees>20.402484051883220672607421875</LongitudeDegrees>
            </Position>
            <AltitudeMeters>395</AltitudeMeters>
            <DistanceMeters>NAN</DistanceMeters>
          </Trackpoint>
          <Trackpoint>
            <Time>2022-09-22T09:04:27.000Z</Time>
            <Position>
              <LatitudeDegrees>49.5004240237176418304443359375</LatitudeDegrees>
              <LongitudeDegrees>20.40242663584649562835693359375</LongitudeDegrees>
            </Position>
            <AltitudeMeters>394.79998779296875</AltitudeMeters>
            <DistanceMeters>NAN</DistanceMeters>
          </Trackpoint>
          <Trackpoint>
            <Time>2022-09-22T09:04:28.000Z</Time>
            <Position>
              <LatitudeDegrees>49.500431902706623077392578125</LatitudeDegrees>
              <LongitudeDegrees>20.40241129696369171142578125</LongitudeDegrees>
            </Position>
            <AltitudeMeters>394.79998779296875</AltitudeMeters>
            <DistanceMeters>NAN</DistanceMeters>
          </Trackpoint>
          <Trackpoint>
            <Time>2022-09-22T09:04:34.000Z</Time>
            <Position>
              <LatitudeDegrees>49.50047808699309825897216796875</LatitudeDegrees>
              <LongitudeDegrees>20.40236343629658222198486328125</LongitudeDegrees>
            </Position>
            <AltitudeMeters>394.79998779296875</AltitudeMeters>
            <DistanceMeters>NAN</DistanceMeters>
          </Trackpoint>
          <Trackpoint>
            <Time>2022-09-22T09:04:41.000Z</Time>
            <Position>
              <LatitudeDegrees>49.500438608229160308837890625</LatitudeDegrees>
              <LongitudeDegrees>20.40227676741778850555419921875</LongitudeDegrees>
            </Position>
            <AltitudeMeters>394.79998779296875</AltitudeMeters>
            <DistanceMeters>NAN</DistanceMeters>
          </Trackpoint>
          <Trackpoint>
            <Time>2022-09-22T09:04:48.000Z</Time>
            <Position>
              <LatitudeDegrees>49.50039745308458805084228515625</LatitudeDegrees>
              <LongitudeDegrees>20.4021799564361572265625</LongitudeDegrees>
            </Position>
            <AltitudeMeters>395.600006103515625</AltitudeMeters>
            <DistanceMeters>NAN</DistanceMeters>
          </Trackpoint>
          <Trackpoint>
            <Time>2022-09-22T09:04:50.000Z</Time>
            <Position>
              <LatitudeDegrees>49.50037591159343719482421875</LatitudeDegrees>
              <LongitudeDegrees>20.402166210114955902099609375</LongitudeDegrees>
            </Position>
            <AltitudeMeters>395.79998779296875</AltitudeMeters>
            <DistanceMeters>NAN</DistanceMeters>
          </Trackpoint>
          <Trackpoint>
            <Time>2022-09-22T09:04:52.000Z</Time>
            <Position>
              <LatitudeDegrees>49.50035604648292064666748046875</LatitudeDegrees>
              <LongitudeDegrees>20.40215489454567432403564453125</LongitudeDegrees>
            </Position>
            <AltitudeMeters>396</AltitudeMeters>
            <DistanceMeters>NAN</DistanceMeters>
          </Trackpoint>
          <Trackpoint>
            <Time>2022-09-22T09:04:53.000Z</Time>
            <Position>
              <LatitudeDegrees>49.50034649111330509185791015625</LatitudeDegrees>
              <LongitudeDegrees>20.402147434651851654052734375</LongitudeDegrees>
            </Position>
            <AltitudeMeters>396</AltitudeMeters>
            <DistanceMeters>NAN</DistanceMeters>
          </Trackpoint>
          <Trackpoint>
            <Time>2022-09-22T09:04:58.000Z</Time>
            <Position>
              <LatitudeDegrees>49.50031564570963382720947265625</LatitudeDegrees>
              <LongitudeDegrees>20.402116589248180389404296875</LongitudeDegrees>
            </Position>
            <AltitudeMeters>396.20001220703125</AltitudeMeters>
            <DistanceMeters>NAN</DistanceMeters>
          </Trackpoint>
          <Trackpoint>
            <Time>2022-09-22T09:05:00.000Z</Time>
            <Position>
              <LatitudeDegrees>49.5003043301403522491455078125</LatitudeDegrees>
              <LongitudeDegrees>20.40208809077739715576171875</LongitudeDegrees>
            </Position>
            <AltitudeMeters>396.399993896484375</AltitudeMeters>
            <DistanceMeters>NAN</DistanceMeters>
          </Trackpoint>
          <Trackpoint>
            <Time>2022-09-22T09:05:04.000Z</Time>
            <Position>
              <LatitudeDegrees>49.50028597377240657806396484375</LatitudeDegrees>
              <LongitudeDegrees>20.40206202305853366851806640625</LongitudeDegrees>
            </Position>
            <AltitudeMeters>396.600006103515625</AltitudeMeters>
            <DistanceMeters>NAN</DistanceMeters>
          </Trackpoint>
          <Trackpoint>
            <Time>2022-09-22T09:05:09.000Z</Time>
            <Position>
              <LatitudeDegrees>49.5002563856542110443115234375</LatitudeDegrees>
              <LongitudeDegrees>20.402029417455196380615234375</LongitudeDegrees>
            </Position>
            <AltitudeMeters>396.600006103515625</AltitudeMeters>
            <DistanceMeters>NAN</DistanceMeters>
          </Trackpoint>
          <Trackpoint>
            <Time>2022-09-22T09:05:11.000Z</Time>
            <Position>
              <LatitudeDegrees>49.500255882740020751953125</LatitudeDegrees>
              <LongitudeDegrees>20.40200033225119113922119140625</LongitudeDegrees>
            </Position>
            <AltitudeMeters>396.600006103515625</AltitudeMeters>
            <DistanceMeters>NAN</DistanceMeters>
          </Trackpoint>
          <Trackpoint>
            <Time>2022-09-22T09:05:16.000Z</Time>
            <Position>
              <LatitudeDegrees>49.5002345927059650421142578125</LatitudeDegrees>
              <LongitudeDegrees>20.4019762761890888214111328125</LongitudeDegrees>
            </Position>
            <AltitudeMeters>396.600006103515625</AltitudeMeters>
            <DistanceMeters>NAN</DistanceMeters>
          </Trackpoint>
          <Trackpoint>
            <Time>2022-09-22T09:05:20.000Z</Time>
            <Position>
              <LatitudeDegrees>49.5001993887126445770263671875</LatitudeDegrees>
              <LongitudeDegrees>20.40197971276938915252685546875</LongitudeDegrees>
            </Position>
            <AltitudeMeters>396.79998779296875</AltitudeMeters>
            <DistanceMeters>NAN</DistanceMeters>
          </Trackpoint>
          <Trackpoint>
            <Time>2022-09-22T09:05:22.000Z</Time>
            <Position>
              <LatitudeDegrees>49.500177763402462005615234375</LatitudeDegrees>
              <LongitudeDegrees>20.4019776172935962677001953125</LongitudeDegrees>
            </Position>
            <AltitudeMeters>396.79998779296875</AltitudeMeters>
            <DistanceMeters>NAN</DistanceMeters>
          </Trackpoint>
          <Trackpoint>
            <Time>2022-09-22T09:05:24.000Z</Time>
            <Position>
              <LatitudeDegrees>49.500167705118656158447265625</LatitudeDegrees>
              <LongitudeDegrees>20.40199019014835357666015625</LongitudeDegrees>
            </Position>
            <AltitudeMeters>396.79998779296875</AltitudeMeters>
            <DistanceMeters>NAN</DistanceMeters>
          </Trackpoint>
          <Trackpoint>
            <Time>2022-09-22T09:05:31.000Z</Time>
            <Position>
              <LatitudeDegrees>49.50017013587057590484619140625</LatitudeDegrees>
              <LongitudeDegrees>20.40199555456638336181640625</LongitudeDegrees>
            </Position>
            <AltitudeMeters>396.79998779296875</AltitudeMeters>
            <DistanceMeters>NAN</DistanceMeters>
          </Trackpoint>
          <Trackpoint>
            <Time>2022-09-22T09:05:35.000Z</Time>
            <Position>
              <LatitudeDegrees>49.50017013587057590484619140625</LatitudeDegrees>
              <LongitudeDegrees>20.40199555456638336181640625</LongitudeDegrees>
            </Position>
            <AltitudeMeters>397</AltitudeMeters>
            <DistanceMeters>NAN</DistanceMeters>
          </Trackpoint>
          <Trackpoint>
            <Time>2022-09-22T09:05:45.000Z</Time>
            <Position>
              <LatitudeDegrees>49.50017013587057590484619140625</LatitudeDegrees>
              <LongitudeDegrees>20.40199555456638336181640625</LongitudeDegrees>
            </Position>
            <AltitudeMeters>397.20001220703125</AltitudeMeters>
            <DistanceMeters>NAN</DistanceMeters>
          </Trackpoint>
          <Trackpoint>
            <Time>2022-09-22T09:05:52.000Z</Time>
            <Position>
              <LatitudeDegrees>49.50017013587057590484619140625</LatitudeDegrees>
              <LongitudeDegrees>20.40199555456638336181640625</LongitudeDegrees>
            </Position>
            <AltitudeMeters>397</AltitudeMeters>
            <DistanceMeters>NAN</DistanceMeters>
          </Trackpoint>
          <Trackpoint>
            <Time>2022-09-22T09:05:56.000Z</Time>
            <Position>
              <LatitudeDegrees>49.50017013587057590484619140625</LatitudeDegrees>
              <LongitudeDegrees>20.40199555456638336181640625</LongitudeDegrees>
            </Position>
            <AltitudeMeters>397.20001220703125</AltitudeMeters>
            <DistanceMeters>NAN</DistanceMeters>
          </Trackpoint>
          <Trackpoint>
            <Time>2022-09-22T09:06:09.000Z</Time>
            <Position>
              <LatitudeDegrees>49.5001682080328464508056640625</LatitudeDegrees>
              <LongitudeDegrees>20.4020124860107898712158203125</LongitudeDegrees>
            </Position>
            <AltitudeMeters>397.600006103515625</AltitudeMeters>
            <DistanceMeters>NAN</DistanceMeters>
          </Trackpoint>
          <Trackpoint>
            <Time>2022-09-22T09:06:16.000Z</Time>
            <Position>
              <LatitudeDegrees>49.50016778893768787384033203125</LatitudeDegrees>
              <LongitudeDegrees>20.40201407857239246368408203125</LongitudeDegrees>
            </Position>
            <AltitudeMeters>398</AltitudeMeters>
            <DistanceMeters>NAN</DistanceMeters>
          </Trackpoint>
          <Trackpoint>
            <Time>2022-09-22T09:06:19.000Z</Time>
            <Position>
              <LatitudeDegrees>49.50018321163952350616455078125</LatitudeDegrees>
              <LongitudeDegrees>20.40200234390795230865478515625</LongitudeDegrees>
            </Position>
            <AltitudeMeters>398</AltitudeMeters>
            <DistanceMeters>NAN</DistanceMeters>
          </Trackpoint>
          <Trackpoint>
            <Time>2022-09-22T09:06:21.000Z</Time>
            <Position>
              <LatitudeDegrees>49.50018891133368015289306640625</LatitudeDegrees>
              <LongitudeDegrees>20.40200670249760150909423828125</LongitudeDegrees>
            </Position>
            <AltitudeMeters>398</AltitudeMeters>
            <DistanceMeters>NAN</DistanceMeters>
          </Trackpoint>
          <Trackpoint>
            <Time>2022-09-22T09:06:27.000Z</Time>
            <Position>
              <LatitudeDegrees>49.50019226409494876861572265625</LatitudeDegrees>
              <LongitudeDegrees>20.40200871415436267852783203125</LongitudeDegrees>
            </Position>
            <AltitudeMeters>397.79998779296875</AltitudeMeters>
            <DistanceMeters>NAN</DistanceMeters>
          </Trackpoint>
          <Trackpoint>
            <Time>2022-09-22T09:06:43.000Z</Time>
            <Position>
              <LatitudeDegrees>49.5001982152462005615234375</LatitudeDegrees>
              <LongitudeDegrees>20.40203553624451160430908203125</LongitudeDegrees>
            </Position>
            <AltitudeMeters>398</AltitudeMeters>
            <DistanceMeters>NAN</DistanceMeters>
          </Trackpoint>
          <Trackpoint>
            <Time>2022-09-22T09:06:51.000Z</Time>
            <Position>
              <LatitudeDegrees>49.500198550522327423095703125</LatitudeDegrees>
              <LongitudeDegrees>20.40203553624451160430908203125</LongitudeDegrees>
            </Position>
            <AltitudeMeters>398</AltitudeMeters>
            <DistanceMeters>NAN</DistanceMeters>
          </Trackpoint>
          <Trackpoint>
            <Time>2022-09-22T09:07:22.000Z</Time>
            <Position>
              <LatitudeDegrees>49.50021875090897083282470703125</LatitudeDegrees>
              <LongitudeDegrees>20.4020778648555278778076171875</LongitudeDegrees>
            </Position>
            <AltitudeMeters>398</AltitudeMeters>
            <DistanceMeters>NAN</DistanceMeters>
          </Trackpoint>
          <Trackpoint>
            <Time>2022-09-22T09:07:26.000Z</Time>
            <Position>
              <LatitudeDegrees>49.50021875090897083282470703125</LatitudeDegrees>
              <LongitudeDegrees>20.4020778648555278778076171875</LongitudeDegrees>
            </Position>
            <AltitudeMeters>398</AltitudeMeters>
            <DistanceMeters>NAN</DistanceMeters>
          </Trackpoint>
          <Trackpoint>
            <Time>2022-09-22T09:07:29.000Z</Time>
            <Position>
              <LatitudeDegrees>49.50021908618509769439697265625</LatitudeDegrees>
              <LongitudeDegrees>20.40208264254033565521240234375</LongitudeDegrees>
            </Position>
            <AltitudeMeters>397.600006103515625</AltitudeMeters>
            <DistanceMeters>NAN</DistanceMeters>
          </Trackpoint>
          <Trackpoint>
            <Time>2022-09-22T09:07:33.000Z</Time>
            <Position>
              <LatitudeDegrees>49.50021908618509769439697265625</LatitudeDegrees>
              <LongitudeDegrees>20.40208264254033565521240234375</LongitudeDegrees>
            </Position>
            <AltitudeMeters>397.600006103515625</AltitudeMeters>
            <DistanceMeters>NAN</DistanceMeters>
          </Trackpoint>
          <Trackpoint>
            <Time>2022-09-22T09:07:41.000Z</Time>
            <Position>
              <LatitudeDegrees>49.5001930184662342071533203125</LatitudeDegrees>
              <LongitudeDegrees>20.40209320373833179473876953125</LongitudeDegrees>
            </Position>
            <AltitudeMeters>397.600006103515625</AltitudeMeters>
            <DistanceMeters>NAN</DistanceMeters>
          </Trackpoint>
          <Trackpoint>
            <Time>2022-09-22T09:07:46.000Z</Time>
            <Position>
              <LatitudeDegrees>49.500191174447536468505859375</LatitudeDegrees>
              <LongitudeDegrees>20.40209370665252208709716796875</LongitudeDegrees>
            </Position>
            <AltitudeMeters>397.600006103515625</AltitudeMeters>
            <DistanceMeters>NAN</DistanceMeters>
          </Trackpoint>
          <Trackpoint>
            <Time>2022-09-22T09:07:49.000Z</Time>
            <Position>
              <LatitudeDegrees>49.5001876540482044219970703125</LatitudeDegrees>
              <LongitudeDegrees>20.402094461023807525634765625</LongitudeDegrees>
            </Position>
            <AltitudeMeters>397.600006103515625</AltitudeMeters>
            <DistanceMeters>NAN</DistanceMeters>
          </Trackpoint>
          <Trackpoint>
            <Time>2022-09-22T09:07:54.000Z</Time>
            <Position>
              <LatitudeDegrees>49.50017399154603481292724609375</LatitudeDegrees>
              <LongitudeDegrees>20.40207744576036930084228515625</LongitudeDegrees>
            </Position>
            <AltitudeMeters>397.600006103515625</AltitudeMeters>
            <DistanceMeters>NAN</DistanceMeters>
          </Trackpoint>
          <Trackpoint>
            <Time>2022-09-22T09:08:03.000Z</Time>
            <Position>
              <LatitudeDegrees>49.50013048946857452392578125</LatitudeDegrees>
              <LongitudeDegrees>20.40204743854701519012451171875</LongitudeDegrees>
            </Position>
            <AltitudeMeters>397.600006103515625</AltitudeMeters>
            <DistanceMeters>NAN</DistanceMeters>
          </Trackpoint>
          <Trackpoint>
            <Time>2022-09-22T09:08:39.000Z</Time>
            <Position>
              <LatitudeDegrees>49.50013258494436740875244140625</LatitudeDegrees>
              <LongitudeDegrees>20.402038805186748504638671875</LongitudeDegrees>
            </Position>
            <AltitudeMeters>397.600006103515625</AltitudeMeters>
            <DistanceMeters>NAN</DistanceMeters>
          </Trackpoint>
          <Trackpoint>
            <Time>2022-09-22T09:09:08.000Z</Time>
            <Position>
              <LatitudeDegrees>49.50013895519077777862548828125</LatitudeDegrees>
              <LongitudeDegrees>20.40202908217906951904296875</LongitudeDegrees>
            </Position>
            <AltitudeMeters>397.600006103515625</AltitudeMeters>
            <DistanceMeters>NAN</DistanceMeters>
          </Trackpoint>
          <Trackpoint>
            <Time>2022-09-22T09:09:28.000Z</Time>
            <Position>
              <LatitudeDegrees>49.50013895519077777862548828125</LatitudeDegrees>
              <LongitudeDegrees>20.40202908217906951904296875</LongitudeDegrees>
            </Position>
            <AltitudeMeters>397.600006103515625</AltitudeMeters>
            <DistanceMeters>NAN</DistanceMeters>
          </Trackpoint>
          <Trackpoint>
            <Time>2022-09-22T09:09:31.000Z</Time>
            <Position>
              <LatitudeDegrees>49.50013895519077777862548828125</LatitudeDegrees>
              <LongitudeDegrees>20.40202908217906951904296875</LongitudeDegrees>
            </Position>
            <AltitudeMeters>397.600006103515625</AltitudeMeters>
            <DistanceMeters>NAN</DistanceMeters>
          </Trackpoint>
          <Trackpoint>
            <Time>2022-09-22T09:09:35.000Z</Time>
            <Position>
              <LatitudeDegrees>49.50013694353401660919189453125</LatitudeDegrees>
              <LongitudeDegrees>20.4020215384662151336669921875</LongitudeDegrees>
            </Position>
            <AltitudeMeters>397.600006103515625</AltitudeMeters>
            <DistanceMeters>NAN</DistanceMeters>
          </Trackpoint>
          <Trackpoint>
            <Time>2022-09-22T09:09:47.000Z</Time>
            <Position>
              <LatitudeDegrees>49.5001365244388580322265625</LatitudeDegrees>
              <LongitudeDegrees>20.4020203649997711181640625</LongitudeDegrees>
            </Position>
            <AltitudeMeters>397.600006103515625</AltitudeMeters>
            <DistanceMeters>NAN</DistanceMeters>
          </Trackpoint>
          <Trackpoint>
            <Time>2022-09-22T09:10:10.000Z</Time>
            <Position>
              <LatitudeDegrees>49.50017047114670276641845703125</LatitudeDegrees>
              <LongitudeDegrees>20.401984490454196929931640625</LongitudeDegrees>
            </Position>
            <AltitudeMeters>397.600006103515625</AltitudeMeters>
            <DistanceMeters>NAN</DistanceMeters>
          </Trackpoint>
          <Trackpoint>
            <Time>2022-09-22T09:10:14.000Z</Time>
            <Position>
              <LatitudeDegrees>49.5001930184662342071533203125</LatitudeDegrees>
              <LongitudeDegrees>20.40196630172431468963623046875</LongitudeDegrees>
            </Position>
            <AltitudeMeters>397.600006103515625</AltitudeMeters>
            <DistanceMeters>NAN</DistanceMeters>
          </Trackpoint>
          <Trackpoint>
            <Time>2022-09-22T09:10:15.000Z</Time>
            <Position>
              <LatitudeDegrees>49.50020483694970607757568359375</LatitudeDegrees>
              <LongitudeDegrees>20.40195993147790431976318359375</LongitudeDegrees>
            </Position>
            <AltitudeMeters>397.600006103515625</AltitudeMeters>
            <DistanceMeters>NAN</DistanceMeters>
          </Trackpoint>
          <Trackpoint>
            <Time>2022-09-22T09:10:21.000Z</Time>
            <Position>
              <LatitudeDegrees>49.5002868957817554473876953125</LatitudeDegrees>
              <LongitudeDegrees>20.4019487835466861724853515625</LongitudeDegrees>
            </Position>
            <AltitudeMeters>397.20001220703125</AltitudeMeters>
            <DistanceMeters>NAN</DistanceMeters>
          </Trackpoint>
          <Trackpoint>
            <Time>2022-09-22T09:10:22.000Z</Time>
            <Position>
              <LatitudeDegrees>49.50029536150395870208740234375</LatitudeDegrees>
              <LongitudeDegrees>20.40194987319409847259521484375</LongitudeDegrees>
            </Position>
            <AltitudeMeters>397.20001220703125</AltitudeMeters>
            <DistanceMeters>NAN</DistanceMeters>
          </Trackpoint>
          <Trackpoint>
            <Time>2022-09-22T09:10:23.000Z</Time>
            <Position>
              <LatitudeDegrees>49.50030374340713024139404296875</LatitudeDegrees>
              <LongitudeDegrees>20.40195054374635219573974609375</LongitudeDegrees>
            </Position>
            <AltitudeMeters>397.20001220703125</AltitudeMeters>
            <DistanceMeters>NAN</DistanceMeters>
          </Trackpoint>
          <Trackpoint>
            <Time>2022-09-22T09:10:26.000Z</Time>
            <Position>
              <LatitudeDegrees>49.5003227703273296356201171875</LatitudeDegrees>
              <LongitudeDegrees>20.4019652120769023895263671875</LongitudeDegrees>
            </Position>
            <AltitudeMeters>397.20001220703125</AltitudeMeters>
            <DistanceMeters>NAN</DistanceMeters>
          </Trackpoint>
          <Trackpoint>
            <Time>2022-09-22T09:10:30.000Z</Time>
            <Position>
              <LatitudeDegrees>49.5003432221710681915283203125</LatitudeDegrees>
              <LongitudeDegrees>20.40199798531830310821533203125</LongitudeDegrees>
            </Position>
            <AltitudeMeters>397.399993896484375</AltitudeMeters>
            <DistanceMeters>NAN</DistanceMeters>
          </Trackpoint>
          <Trackpoint>
            <Time>2022-09-22T09:10:36.000Z</Time>
            <Position>
              <LatitudeDegrees>49.50037163682281970977783203125</LatitudeDegrees>
              <LongitudeDegrees>20.40205699391663074493408203125</LongitudeDegrees>
            </Position>
            <AltitudeMeters>397.20001220703125</AltitudeMeters>
            <DistanceMeters>NAN</DistanceMeters>
          </Trackpoint>
          <Trackpoint>
            <Time>2022-09-22T09:10:39.000Z</Time>
            <Position>
              <LatitudeDegrees>49.500386305153369903564453125</LatitudeDegrees>
              <LongitudeDegrees>20.4020865820348262786865234375</LongitudeDegrees>
            </Position>
            <AltitudeMeters>397</AltitudeMeters>
            <DistanceMeters>NAN</DistanceMeters>
          </Trackpoint>
          <Trackpoint>
            <Time>2022-09-22T09:10:41.000Z</Time>
            <Position>
              <LatitudeDegrees>49.5004032365977764129638671875</LatitudeDegrees>
              <LongitudeDegrees>20.4020979814231395721435546875</LongitudeDegrees>
            </Position>
            <AltitudeMeters>397</AltitudeMeters>
            <DistanceMeters>NAN</DistanceMeters>
          </Trackpoint>
          <Trackpoint>
            <Time>2022-09-22T09:10:44.000Z</Time>
            <Position>
              <LatitudeDegrees>49.5004315674304962158203125</LatitudeDegrees>
              <LongitudeDegrees>20.4021249711513519287109375</LongitudeDegrees>
            </Position>
            <AltitudeMeters>397</AltitudeMeters>
            <DistanceMeters>NAN</DistanceMeters>
          </Trackpoint>
          <Trackpoint>
            <Time>2022-09-22T09:10:45.000Z</Time>
            <Position>
              <LatitudeDegrees>49.50043223798274993896484375</LatitudeDegrees>
              <LongitudeDegrees>20.40213427506387233734130859375</LongitudeDegrees>
            </Position>
            <AltitudeMeters>397</AltitudeMeters>
            <DistanceMeters>NAN</DistanceMeters>
          </Trackpoint>
          <Trackpoint>
            <Time>2022-09-22T09:10:47.000Z</Time>
            <Position>
              <LatitudeDegrees>49.50044238008558750152587890625</LatitudeDegrees>
              <LongitudeDegrees>20.40215372107923030853271484375</LongitudeDegrees>
            </Position>
            <AltitudeMeters>396.79998779296875</AltitudeMeters>
            <DistanceMeters>NAN</DistanceMeters>
          </Trackpoint>
          <Trackpoint>
            <Time>2022-09-22T09:10:50.000Z</Time>
            <Position>
              <LatitudeDegrees>49.5004645921289920806884765625</LatitudeDegrees>
              <LongitudeDegrees>20.40217123925685882568359375</LongitudeDegrees>
            </Position>
            <AltitudeMeters>396.600006103515625</AltitudeMeters>
            <DistanceMeters>NAN</DistanceMeters>
          </Trackpoint>
          <Trackpoint>
            <Time>2022-09-22T09:10:52.000Z</Time>
            <Position>
              <LatitudeDegrees>49.50047775171697139739990234375</LatitudeDegrees>
              <LongitudeDegrees>20.40219479240477085113525390625</LongitudeDegrees>
            </Position>
            <AltitudeMeters>396.600006103515625</AltitudeMeters>
            <DistanceMeters>NAN</DistanceMeters>
          </Trackpoint>
          <Trackpoint>
            <Time>2022-09-22T09:10:54.000Z</Time>
            <Position>
              <LatitudeDegrees>49.50048588216304779052734375</LatitudeDegrees>
              <LongitudeDegrees>20.40221658535301685333251953125</LongitudeDegrees>
            </Position>
            <AltitudeMeters>396.399993896484375</AltitudeMeters>
            <DistanceMeters>NAN</DistanceMeters>
          </Trackpoint>
          <Trackpoint>
            <Time>2022-09-22T09:10:56.000Z</Time>
            <Position>
              <LatitudeDegrees>49.50048713944852352142333984375</LatitudeDegrees>
              <LongitudeDegrees>20.4022250510752201080322265625</LongitudeDegrees>
            </Position>
            <AltitudeMeters>396.20001220703125</AltitudeMeters>
            <DistanceMeters>NAN</DistanceMeters>
          </Trackpoint>
          <Trackpoint>
            <Time>2022-09-22T09:11:02.000Z</Time>
            <Position>
              <LatitudeDegrees>49.50050407089293003082275390625</LatitudeDegrees>
              <LongitudeDegrees>20.40227240882813930511474609375</LongitudeDegrees>
            </Position>
            <AltitudeMeters>396</AltitudeMeters>
            <DistanceMeters>NAN</DistanceMeters>
          </Trackpoint>
          <Trackpoint>
            <Time>2022-09-22T09:11:04.000Z</Time>
            <Position>
              <LatitudeDegrees>49.50051764957606792449951171875</LatitudeDegrees>
              <LongitudeDegrees>20.40229403413832187652587890625</LongitudeDegrees>
            </Position>
            <AltitudeMeters>395.79998779296875</AltitudeMeters>
            <DistanceMeters>NAN</DistanceMeters>
          </Trackpoint>
          <Trackpoint>
            <Time>2022-09-22T09:11:08.000Z</Time>
            <Position>
              <LatitudeDegrees>49.5005463995039463043212890625</LatitudeDegrees>
              <LongitudeDegrees>20.40232202969491481781005859375</LongitudeDegrees>
            </Position>
            <AltitudeMeters>395.600006103515625</AltitudeMeters>
            <DistanceMeters>NAN</DistanceMeters>
          </Trackpoint>
          <Trackpoint>
            <Time>2022-09-22T09:11:09.000Z</Time>
            <Position>
              <LatitudeDegrees>49.50055587105453014373779296875</LatitudeDegrees>
              <LongitudeDegrees>20.40232672356069087982177734375</LongitudeDegrees>
            </Position>
            <AltitudeMeters>395.600006103515625</AltitudeMeters>
            <DistanceMeters>NAN</DistanceMeters>
          </Trackpoint>
          <Trackpoint>
            <Time>2022-09-22T09:11:10.000Z</Time>
            <Position>
              <LatitudeDegrees>49.50056760571897029876708984375</LatitudeDegrees>
              <LongitudeDegrees>20.40233460254967212677001953125</LongitudeDegrees>
            </Position>
            <AltitudeMeters>395.600006103515625</AltitudeMeters>
            <DistanceMeters>NAN</DistanceMeters>
          </Trackpoint>
          <Trackpoint>
            <Time>2022-09-22T09:11:14.000Z</Time>
            <Position>
              <LatitudeDegrees>49.50061236508190631866455078125</LatitudeDegrees>
              <LongitudeDegrees>20.4023568145930767059326171875</LongitudeDegrees>
            </Position>
            <AltitudeMeters>395.79998779296875</AltitudeMeters>
            <DistanceMeters>NAN</DistanceMeters>
          </Trackpoint>
          <Trackpoint>
            <Time>2022-09-22T09:11:20.000Z</Time>
            <Position>
              <LatitudeDegrees>49.50064891017973423004150390625</LatitudeDegrees>
              <LongitudeDegrees>20.4023480974137783050537109375</LongitudeDegrees>
            </Position>
            <AltitudeMeters>396</AltitudeMeters>
            <DistanceMeters>NAN</DistanceMeters>
          </Trackpoint>
          <Trackpoint>
            <Time>2022-09-22T09:11:23.000Z</Time>
            <Position>
              <LatitudeDegrees>49.500652514398097991943359375</LatitudeDegrees>
              <LongitudeDegrees>20.4023474268615245819091796875</LongitudeDegrees>
            </Position>
            <AltitudeMeters>396</AltitudeMeters>
            <DistanceMeters>NAN</DistanceMeters>
          </Trackpoint>
          <Trackpoint>
            <Time>2022-09-22T09:11:30.000Z</Time>
            <Position>
              <LatitudeDegrees>49.50071563012897968292236328125</LatitudeDegrees>
              <LongitudeDegrees>20.4023154079914093017578125</LongitudeDegrees>
            </Position>
            <AltitudeMeters>396</AltitudeMeters>
            <DistanceMeters>NAN</DistanceMeters>
          </Trackpoint>
          <Trackpoint>
            <Time>2022-09-22T09:11:39.000Z</Time>
            <Position>
              <LatitudeDegrees>49.50087337754666805267333984375</LatitudeDegrees>
              <LongitudeDegrees>20.40215271525084972381591796875</LongitudeDegrees>
            </Position>
            <AltitudeMeters>395.79998779296875</AltitudeMeters>
            <DistanceMeters>NAN</DistanceMeters>
          </Trackpoint>
          <Trackpoint>
            <Time>2022-09-22T09:11:40.000Z</Time>
            <Position>
              <LatitudeDegrees>49.50088947080075740814208984375</LatitudeDegrees>
              <LongitudeDegrees>20.40212488733232021331787109375</LongitudeDegrees>
            </Position>
            <AltitudeMeters>395.79998779296875</AltitudeMeters>
            <DistanceMeters>NAN</DistanceMeters>
          </Trackpoint>
          <Trackpoint>
            <Time>2022-09-22T09:11:44.000Z</Time>
            <Position>
              <LatitudeDegrees>49.5009634830057621002197265625</LatitudeDegrees>
              <LongitudeDegrees>20.4020654596388339996337890625</LongitudeDegrees>
            </Position>
            <AltitudeMeters>395.79998779296875</AltitudeMeters>
            <DistanceMeters>NAN</DistanceMeters>
          </Trackpoint>
          <Trackpoint>
            <Time>2022-09-22T09:11:46.000Z</Time>
            <Position>
              <LatitudeDegrees>49.50099416077136993408203125</LatitudeDegrees>
              <LongitudeDegrees>20.40203536860644817352294921875</LongitudeDegrees>
            </Position>
            <AltitudeMeters>395.79998779296875</AltitudeMeters>
            <DistanceMeters>NAN</DistanceMeters>
          </Trackpoint>
          <Trackpoint>
            <Time>2022-09-22T09:11:48.000Z</Time>
            <Position>
              <LatitudeDegrees>49.501025341451168060302734375</LatitudeDegrees>
              <LongitudeDegrees>20.40200502611696720123291015625</LongitudeDegrees>
            </Position>
            <AltitudeMeters>395.79998779296875</AltitudeMeters>
            <DistanceMeters>NAN</DistanceMeters>
          </Trackpoint>
          <Trackpoint>
            <Time>2022-09-22T09:11:50.000Z</Time>
            <Position>
              <LatitudeDegrees>49.5010620541870594024658203125</LatitudeDegrees>
              <LongitudeDegrees>20.40198088623583316802978515625</LongitudeDegrees>
            </Position>
            <AltitudeMeters>395.79998779296875</AltitudeMeters>
            <DistanceMeters>NAN</DistanceMeters>
          </Trackpoint>
          <Trackpoint>
            <Time>2022-09-22T09:11:59.000Z</Time>
            <Position>
              <LatitudeDegrees>49.50123279355466365814208984375</LatitudeDegrees>
              <LongitudeDegrees>20.40189363062381744384765625</LongitudeDegrees>
            </Position>
            <AltitudeMeters>395.79998779296875</AltitudeMeters>
            <DistanceMeters>NAN</DistanceMeters>
          </Trackpoint>
          <Trackpoint>
            <Time>2022-09-22T09:12:01.000Z</Time>
            <Position>
              <LatitudeDegrees>49.50126833282411098480224609375</LatitudeDegrees>
              <LongitudeDegrees>20.40185012854635715484619140625</LongitudeDegrees>
            </Position>
            <AltitudeMeters>395.79998779296875</AltitudeMeters>
            <DistanceMeters>NAN</DistanceMeters>
          </Trackpoint>
          <Trackpoint>
            <Time>2022-09-22T09:12:02.000Z</Time>
            <Position>
              <LatitudeDegrees>49.5012840069830417633056640625</LatitudeDegrees>
              <LongitudeDegrees>20.40183034725487232208251953125</LongitudeDegrees>
            </Position>
            <AltitudeMeters>395.79998779296875</AltitudeMeters>
            <DistanceMeters>NAN</DistanceMeters>
          </Trackpoint>
          <Trackpoint>
            <Time>2022-09-22T09:12:08.000Z</Time>
            <Position>
              <LatitudeDegrees>49.501381404697895050048828125</LatitudeDegrees>
              <LongitudeDegrees>20.4017392359673976898193359375</LongitudeDegrees>
            </Position>
            <AltitudeMeters>396</AltitudeMeters>
            <DistanceMeters>NAN</DistanceMeters>
          </Trackpoint>
          <Trackpoint>
            <Time>2022-09-22T09:12:13.000Z</Time>
            <Position>
              <LatitudeDegrees>49.50142473913729190826416015625</LatitudeDegrees>
              <LongitudeDegrees>20.401717610657215118408203125</LongitudeDegrees>
            </Position>
            <AltitudeMeters>396</AltitudeMeters>
            <DistanceMeters>NAN</DistanceMeters>
          </Trackpoint>
          <Trackpoint>
            <Time>2022-09-22T09:12:16.000Z</Time>
            <Position>
              <LatitudeDegrees>49.5014627091586589813232421875</LatitudeDegrees>
              <LongitudeDegrees>20.40176295675337314605712890625</LongitudeDegrees>
            </Position>
            <AltitudeMeters>395.79998779296875</AltitudeMeters>
            <DistanceMeters>NAN</DistanceMeters>
          </Trackpoint>
          <Trackpoint>
            <Time>2022-09-22T09:12:18.000Z</Time>
            <Position>
              <LatitudeDegrees>49.50149229727685451507568359375</LatitudeDegrees>
              <LongitudeDegrees>20.40177502669394016265869140625</LongitudeDegrees>
            </Position>
            <AltitudeMeters>395.79998779296875</AltitudeMeters>
            <DistanceMeters>NAN</DistanceMeters>
          </Trackpoint>
          <Trackpoint>
            <Time>2022-09-22T09:12:23.000Z</Time>
            <Position>
              <LatitudeDegrees>49.501587934792041778564453125</LatitudeDegrees>
              <LongitudeDegrees>20.40180645883083343505859375</LongitudeDegrees>
            </Position>
            <AltitudeMeters>395.79998779296875</AltitudeMeters>
            <DistanceMeters>NAN</DistanceMeters>
          </Trackpoint>
          <Trackpoint>
            <Time>2022-09-22T09:12:29.000Z</Time>
            <Position>
              <LatitudeDegrees>49.5016843266785144805908203125</LatitudeDegrees>
              <LongitudeDegrees>20.4020419903099536895751953125</LongitudeDegrees>
            </Position>
            <AltitudeMeters>396</AltitudeMeters>
            <DistanceMeters>NAN</DistanceMeters>
          </Trackpoint>
          <Trackpoint>
            <Time>2022-09-22T09:12:36.000Z</Time>
            <Position>
              <LatitudeDegrees>49.50177258811891078948974609375</LatitudeDegrees>
              <LongitudeDegrees>20.40229453705251216888427734375</LongitudeDegrees>
            </Position>
            <AltitudeMeters>396.399993896484375</AltitudeMeters>
            <DistanceMeters>NAN</DistanceMeters>
          </Trackpoint>
          <Trackpoint>
            <Time>2022-09-22T09:12:45.000Z</Time>
            <Position>
              <LatitudeDegrees>49.50190016068518161773681640625</LatitudeDegrees>
              <LongitudeDegrees>20.4026166535913944244384765625</LongitudeDegrees>
            </Position>
            <AltitudeMeters>396</AltitudeMeters>
            <DistanceMeters>NAN</DistanceMeters>
          </Trackpoint>
          <Trackpoint>
            <Time>2022-09-22T09:12:48.000Z</Time>
            <Position>
              <LatitudeDegrees>49.501969814300537109375</LatitudeDegrees>
              <LongitudeDegrees>20.4026748239994049072265625</LongitudeDegrees>
            </Position>
            <AltitudeMeters>395.79998779296875</AltitudeMeters>
            <DistanceMeters>NAN</DistanceMeters>
          </Trackpoint>
          <Trackpoint>
            <Time>2022-09-22T09:12:50.000Z</Time>
            <Position>
              <LatitudeDegrees>49.50200736522674560546875</LatitudeDegrees>
              <LongitudeDegrees>20.402669794857501983642578125</LongitudeDegrees>
            </Position>
            <AltitudeMeters>395.600006103515625</AltitudeMeters>
            <DistanceMeters>NAN</DistanceMeters>
          </Trackpoint>
          <Trackpoint>
            <Time>2022-09-22T09:12:54.000Z</Time>
            <Position>
              <LatitudeDegrees>49.5020755939185619354248046875</LatitudeDegrees>
              <LongitudeDegrees>20.4026438109576702117919921875</LongitudeDegrees>
            </Position>
            <AltitudeMeters>395.399993896484375</AltitudeMeters>
            <DistanceMeters>NAN</DistanceMeters>
          </Trackpoint>
          <Trackpoint>
            <Time>2022-09-22T09:12:56.000Z</Time>
            <Position>
              <LatitudeDegrees>49.5021027512848377227783203125</LatitudeDegrees>
              <LongitudeDegrees>20.40260852314531803131103515625</LongitudeDegrees>
            </Position>
            <AltitudeMeters>395.399993896484375</AltitudeMeters>
            <DistanceMeters>NAN</DistanceMeters>
          </Trackpoint>
          <Trackpoint>
            <Time>2022-09-22T09:12:57.000Z</Time>
            <Position>
              <LatitudeDegrees>49.5021118037402629852294921875</LatitudeDegrees>
              <LongitudeDegrees>20.4025841318070888519287109375</LongitudeDegrees>
            </Position>
            <AltitudeMeters>395.399993896484375</AltitudeMeters>
            <DistanceMeters>NAN</DistanceMeters>
          </Trackpoint>
          <Trackpoint>
            <Time>2022-09-22T09:13:05.000Z</Time>
            <Position>
              <LatitudeDegrees>49.5022502727806568145751953125</LatitudeDegrees>
              <LongitudeDegrees>20.40238824672996997833251953125</LongitudeDegrees>
            </Position>
            <AltitudeMeters>395</AltitudeMeters>
            <DistanceMeters>NAN</DistanceMeters>
          </Trackpoint>
          <Trackpoint>
            <Time>2022-09-22T09:13:07.000Z</Time>
            <Position>
              <LatitudeDegrees>49.50229427777230739593505859375</LatitudeDegrees>
              <LongitudeDegrees>20.40232538245618343353271484375</LongitudeDegrees>
            </Position>
            <AltitudeMeters>394.79998779296875</AltitudeMeters>
            <DistanceMeters>NAN</DistanceMeters>
          </Trackpoint>
          <Trackpoint>
            <Time>2022-09-22T09:13:14.000Z</Time>
            <Position>
              <LatitudeDegrees>49.50248588807880878448486328125</LatitudeDegrees>
              <LongitudeDegrees>20.402107872068881988525390625</LongitudeDegrees>
            </Position>
            <AltitudeMeters>394.399993896484375</AltitudeMeters>
            <DistanceMeters>NAN</DistanceMeters>
          </Trackpoint>
          <Trackpoint>
            <Time>2022-09-22T09:13:20.000Z</Time>
            <Position>
              <LatitudeDegrees>49.5026365108788013458251953125</LatitudeDegrees>
              <LongitudeDegrees>20.40195138193666934967041015625</LongitudeDegrees>
            </Position>
            <AltitudeMeters>394.399993896484375</AltitudeMeters>
            <DistanceMeters>NAN</DistanceMeters>
          </Trackpoint>
          <Trackpoint>
            <Time>2022-09-22T09:13:22.000Z</Time>
            <Position>
              <LatitudeDegrees>49.50266475789248943328857421875</LatitudeDegrees>
              <LongitudeDegrees>20.401955656707286834716796875</LongitudeDegrees>
            </Position>
            <AltitudeMeters>394.20001220703125</AltitudeMeters>
            <DistanceMeters>NAN</DistanceMeters>
          </Trackpoint>
          <Trackpoint>
            <Time>2022-09-22T09:13:24.000Z</Time>
            <Position>
              <LatitudeDegrees>49.50266308151185512542724609375</LatitudeDegrees>
              <LongitudeDegrees>20.4019484482705593109130859375</LongitudeDegrees>
            </Position>
            <AltitudeMeters>394.20001220703125</AltitudeMeters>
            <DistanceMeters>NAN</DistanceMeters>
          </Trackpoint>
          <Trackpoint>
            <Time>2022-09-22T09:13:25.000Z</Time>
            <Position>
              <LatitudeDegrees>49.5026616565883159637451171875</LatitudeDegrees>
              <LongitudeDegrees>20.4019487835466861724853515625</LongitudeDegrees>
            </Position>
            <AltitudeMeters>394.20001220703125</AltitudeMeters>
            <DistanceMeters>NAN</DistanceMeters>
          </Trackpoint>
          <Trackpoint>
            <Time>2022-09-22T09:13:28.000Z</Time>
            <Position>
              <LatitudeDegrees>49.50264581479132175445556640625</LatitudeDegrees>
              <LongitudeDegrees>20.401991866528987884521484375</LongitudeDegrees>
            </Position>
            <AltitudeMeters>394.20001220703125</AltitudeMeters>
            <DistanceMeters>NAN</DistanceMeters>
          </Trackpoint>
          <Trackpoint>
            <Time>2022-09-22T09:13:29.000Z</Time>
            <Position>
              <LatitudeDegrees>49.50263123027980327606201171875</LatitudeDegrees>
              <LongitudeDegrees>20.40199957787990570068359375</LongitudeDegrees>
            </Position>
            <AltitudeMeters>394.399993896484375</AltitudeMeters>
            <DistanceMeters>NAN</DistanceMeters>
          </Trackpoint>
          <Trackpoint>
            <Time>2022-09-22T09:13:35.000Z</Time>
            <Position>
              <LatitudeDegrees>49.5024899952113628387451171875</LatitudeDegrees>
              <LongitudeDegrees>20.40212455205619335174560546875</LongitudeDegrees>
            </Position>
            <AltitudeMeters>394.399993896484375</AltitudeMeters>
            <DistanceMeters>NAN</DistanceMeters>
          </Trackpoint>
          <Trackpoint>
            <Time>2022-09-22T09:13:41.000Z</Time>
            <Position>
              <LatitudeDegrees>49.50232394970953464508056640625</LatitudeDegrees>
              <LongitudeDegrees>20.40230023674666881561279296875</LongitudeDegrees>
            </Position>
            <AltitudeMeters>394.399993896484375</AltitudeMeters>
            <DistanceMeters>NAN</DistanceMeters>
          </Trackpoint>
          <Trackpoint>
            <Time>2022-09-22T09:13:46.000Z</Time>
            <Position>
              <LatitudeDegrees>49.50220392085611820220947265625</LatitudeDegrees>
              <LongitudeDegrees>20.40239864028990268707275390625</LongitudeDegrees>
            </Position>
            <AltitudeMeters>395</AltitudeMeters>
            <DistanceMeters>NAN</DistanceMeters>
          </Trackpoint>
          <Trackpoint>
            <Time>2022-09-22T09:13:51.000Z</Time>
            <Position>
              <LatitudeDegrees>49.502092190086841583251953125</LatitudeDegrees>
              <LongitudeDegrees>20.4025365225970745086669921875</LongitudeDegrees>
            </Position>
            <AltitudeMeters>395.20001220703125</AltitudeMeters>
            <DistanceMeters>NAN</DistanceMeters>
          </Trackpoint>
          <Trackpoint>
            <Time>2022-09-22T09:13:54.000Z</Time>
            <Position>
              <LatitudeDegrees>49.50204114429652690887451171875</LatitudeDegrees>
              <LongitudeDegrees>20.4025878198444843292236328125</LongitudeDegrees>
            </Position>
            <AltitudeMeters>395.20001220703125</AltitudeMeters>
            <DistanceMeters>NAN</DistanceMeters>
          </Trackpoint>
          <Trackpoint>
            <Time>2022-09-22T09:13:58.000Z</Time>
            <Position>
              <LatitudeDegrees>49.5020367018878459930419921875</LatitudeDegrees>
              <LongitudeDegrees>20.40258941240608692169189453125</LongitudeDegrees>
            </Position>
            <AltitudeMeters>395</AltitudeMeters>
            <DistanceMeters>NAN</DistanceMeters>
          </Trackpoint>
          <Trackpoint>
            <Time>2022-09-22T09:14:08.000Z</Time>
            <Position>
              <LatitudeDegrees>49.5020367018878459930419921875</LatitudeDegrees>
              <LongitudeDegrees>20.40258941240608692169189453125</LongitudeDegrees>
            </Position>
            <AltitudeMeters>395</AltitudeMeters>
            <DistanceMeters>NAN</DistanceMeters>
          </Trackpoint>
          <Trackpoint>
            <Time>2022-09-22T09:14:12.000Z</Time>
            <Position>
              <LatitudeDegrees>49.5020367018878459930419921875</LatitudeDegrees>
              <LongitudeDegrees>20.40258941240608692169189453125</LongitudeDegrees>
            </Position>
            <AltitudeMeters>395</AltitudeMeters>
            <DistanceMeters>NAN</DistanceMeters>
          </Trackpoint>
          <Trackpoint>
            <Time>2022-09-22T09:14:27.000Z</Time>
            <Position>
              <LatitudeDegrees>49.502035863697528839111328125</LatitudeDegrees>
              <LongitudeDegrees>20.40259008295834064483642578125</LongitudeDegrees>
            </Position>
            <AltitudeMeters>395</AltitudeMeters>
            <DistanceMeters>NAN</DistanceMeters>
          </Trackpoint>
          <Trackpoint>
            <Time>2022-09-22T09:14:31.000Z</Time>
            <Position>
              <LatitudeDegrees>49.502035863697528839111328125</LatitudeDegrees>
              <LongitudeDegrees>20.40259008295834064483642578125</LongitudeDegrees>
            </Position>
            <AltitudeMeters>395</AltitudeMeters>
            <DistanceMeters>NAN</DistanceMeters>
          </Trackpoint>
          <Trackpoint>
            <Time>2022-09-22T09:14:33.000Z</Time>
            <Position>
              <LatitudeDegrees>49.502035863697528839111328125</LatitudeDegrees>
              <LongitudeDegrees>20.40259008295834064483642578125</LongitudeDegrees>
            </Position>
            <AltitudeMeters>395</AltitudeMeters>
            <DistanceMeters>NAN</DistanceMeters>
          </Trackpoint>
          <Trackpoint>
            <Time>2022-09-22T09:14:37.000Z</Time>
            <Position>
              <LatitudeDegrees>49.50202873907983303070068359375</LatitudeDegrees>
              <LongitudeDegrees>20.40259595029056072235107421875</LongitudeDegrees>
            </Position>
            <AltitudeMeters>395</AltitudeMeters>
            <DistanceMeters>NAN</DistanceMeters>
          </Trackpoint>
          <Trackpoint>
            <Time>2022-09-22T09:14:42.000Z</Time>
            <Position>
              <LatitudeDegrees>49.50202873907983303070068359375</LatitudeDegrees>
              <LongitudeDegrees>20.40259595029056072235107421875</LongitudeDegrees>
            </Position>
            <AltitudeMeters>395</AltitudeMeters>
            <DistanceMeters>NAN</DistanceMeters>
          </Trackpoint>
          <Trackpoint>
            <Time>2022-09-22T09:15:05.000Z</Time>
            <Position>
              <LatitudeDegrees>49.50200778432190418243408203125</LatitudeDegrees>
              <LongitudeDegrees>20.4026112891733646392822265625</LongitudeDegrees>
            </Position>
            <AltitudeMeters>395</AltitudeMeters>
            <DistanceMeters>NAN</DistanceMeters>
          </Trackpoint>
          <Trackpoint>
            <Time>2022-09-22T09:15:07.000Z</Time>
            <Position>
              <LatitudeDegrees>49.50200124643743038177490234375</LatitudeDegrees>
              <LongitudeDegrees>20.402612797915935516357421875</LongitudeDegrees>
            </Position>
            <AltitudeMeters>395</AltitudeMeters>
            <DistanceMeters>NAN</DistanceMeters>
          </Trackpoint>
          <Trackpoint>
            <Time>2022-09-22T09:15:14.000Z</Time>
            <Position>
              <LatitudeDegrees>49.50200124643743038177490234375</LatitudeDegrees>
              <LongitudeDegrees>20.402612797915935516357421875</LongitudeDegrees>
            </Position>
            <AltitudeMeters>395</AltitudeMeters>
            <DistanceMeters>NAN</DistanceMeters>
          </Trackpoint>
          <Trackpoint>
            <Time>2022-09-22T09:15:36.000Z</Time>
            <Position>
              <LatitudeDegrees>49.50199454091489315032958984375</LatitudeDegrees>
              <LongitudeDegrees>20.40262226946651935577392578125</LongitudeDegrees>
            </Position>
            <AltitudeMeters>394.600006103515625</AltitudeMeters>
            <DistanceMeters>NAN</DistanceMeters>
          </Trackpoint>
          <Trackpoint>
            <Time>2022-09-22T09:15:39.000Z</Time>
            <Position>
              <LatitudeDegrees>49.50199537910521030426025390625</LatitudeDegrees>
              <LongitudeDegrees>20.4026238620281219482421875</LongitudeDegrees>
            </Position>
            <AltitudeMeters>394.600006103515625</AltitudeMeters>
            <DistanceMeters>NAN</DistanceMeters>
          </Trackpoint>
          <Trackpoint>
            <Time>2022-09-22T09:15:42.000Z</Time>
            <Position>
              <LatitudeDegrees>49.5020400546491146087646484375</LatitudeDegrees>
              <LongitudeDegrees>20.4025898315012454986572265625</LongitudeDegrees>
            </Position>
            <AltitudeMeters>394.600006103515625</AltitudeMeters>
            <DistanceMeters>NAN</DistanceMeters>
          </Trackpoint>
          <Trackpoint>
            <Time>2022-09-22T09:15:47.000Z</Time>
            <Position>
              <LatitudeDegrees>49.502125717699527740478515625</LatitudeDegrees>
              <LongitudeDegrees>20.402488075196743011474609375</LongitudeDegrees>
            </Position>
            <AltitudeMeters>394.600006103515625</AltitudeMeters>
            <DistanceMeters>NAN</DistanceMeters>
          </Trackpoint>
          <Trackpoint>
            <Time>2022-09-22T09:15:54.000Z</Time>
            <Position>
              <LatitudeDegrees>49.50227466411888599395751953125</LatitudeDegrees>
              <LongitudeDegrees>20.402290932834148406982421875</LongitudeDegrees>
            </Position>
            <AltitudeMeters>394</AltitudeMeters>
            <DistanceMeters>NAN</DistanceMeters>
          </Trackpoint>
          <Trackpoint>
            <Time>2022-09-22T09:15:55.000Z</Time>
            <Position>
              <LatitudeDegrees>49.5023022405803203582763671875</LatitudeDegrees>
              <LongitudeDegrees>20.4022585786879062652587890625</LongitudeDegrees>
            </Position>
            <AltitudeMeters>394</AltitudeMeters>
            <DistanceMeters>NAN</DistanceMeters>
          </Trackpoint>
          <Trackpoint>
            <Time>2022-09-22T09:16:03.000Z</Time>
            <Position>
              <LatitudeDegrees>49.50254422612488269805908203125</LatitudeDegrees>
              <LongitudeDegrees>20.40202011354267597198486328125</LongitudeDegrees>
            </Position>
            <AltitudeMeters>393.399993896484375</AltitudeMeters>
            <DistanceMeters>NAN</DistanceMeters>
          </Trackpoint>
          <Trackpoint>
            <Time>2022-09-22T09:16:10.000Z</Time>
            <Position>
              <LatitudeDegrees>49.5027293823659420013427734375</LatitudeDegrees>
              <LongitudeDegrees>20.401834957301616668701171875</LongitudeDegrees>
            </Position>
            <AltitudeMeters>393.399993896484375</AltitudeMeters>
            <DistanceMeters>NAN</DistanceMeters>
          </Trackpoint>
          <Trackpoint>
            <Time>2022-09-22T09:16:15.000Z</Time>
            <Position>
              <LatitudeDegrees>49.5028681866824626922607421875</LatitudeDegrees>
              <LongitudeDegrees>20.40171434171497821807861328125</LongitudeDegrees>
            </Position>
            <AltitudeMeters>393.20001220703125</AltitudeMeters>
            <DistanceMeters>NAN</DistanceMeters>
          </Trackpoint>
          <Trackpoint>
            <Time>2022-09-22T09:16:20.000Z</Time>
            <Position>
              <LatitudeDegrees>49.50300489552319049835205078125</LatitudeDegrees>
              <LongitudeDegrees>20.4015692509710788726806640625</LongitudeDegrees>
            </Position>
            <AltitudeMeters>393.20001220703125</AltitudeMeters>
            <DistanceMeters>NAN</DistanceMeters>
          </Trackpoint>
          <Trackpoint>
            <Time>2022-09-22T09:16:24.000Z</Time>
            <Position>
              <LatitudeDegrees>49.5031146146357059478759765625</LatitudeDegrees>
              <LongitudeDegrees>20.401458106935024261474609375</LongitudeDegrees>
            </Position>
            <AltitudeMeters>393</AltitudeMeters>
            <DistanceMeters>NAN</DistanceMeters>
          </Trackpoint>
          <Trackpoint>
            <Time>2022-09-22T09:16:31.000Z</Time>
            <Position>
              <LatitudeDegrees>49.503311924636363983154296875</LatitudeDegrees>
              <LongitudeDegrees>20.4012661613523960113525390625</LongitudeDegrees>
            </Position>
            <AltitudeMeters>393.20001220703125</AltitudeMeters>
            <DistanceMeters>NAN</DistanceMeters>
          </Trackpoint>
          <Trackpoint>
            <Time>2022-09-22T09:16:35.000Z</Time>
            <Position>
              <LatitudeDegrees>49.5034381560981273651123046875</LatitudeDegrees>
              <LongitudeDegrees>20.4011367447674274444580078125</LongitudeDegrees>
            </Position>
            <AltitudeMeters>393.20001220703125</AltitudeMeters>
            <DistanceMeters>NAN</DistanceMeters>
          </Trackpoint>
          <Trackpoint>
            <Time>2022-09-22T09:16:38.000Z</Time>
            <Position>
              <LatitudeDegrees>49.503512084484100341796875</LatitudeDegrees>
              <LongitudeDegrees>20.401051081717014312744140625</LongitudeDegrees>
            </Position>
            <AltitudeMeters>393.20001220703125</AltitudeMeters>
            <DistanceMeters>NAN</DistanceMeters>
          </Trackpoint>
          <Trackpoint>
            <Time>2022-09-22T09:16:47.000Z</Time>
            <Position>
              <LatitudeDegrees>49.50376915745437145233154296875</LatitudeDegrees>
              <LongitudeDegrees>20.40076249279081821441650390625</LongitudeDegrees>
            </Position>
            <AltitudeMeters>393.20001220703125</AltitudeMeters>
            <DistanceMeters>NAN</DistanceMeters>
          </Trackpoint>
          <Trackpoint>
            <Time>2022-09-22T09:16:56.000Z</Time>
            <Position>
              <LatitudeDegrees>49.5040262304246425628662109375</LatitudeDegrees>
              <LongitudeDegrees>20.40052159689366817474365234375</LongitudeDegrees>
            </Position>
            <AltitudeMeters>393.20001220703125</AltitudeMeters>
            <DistanceMeters>NAN</DistanceMeters>
          </Trackpoint>
          <Trackpoint>
            <Time>2022-09-22T09:17:05.000Z</Time>
            <Position>
              <LatitudeDegrees>49.50425564311444759368896484375</LatitudeDegrees>
              <LongitudeDegrees>20.40032076649367809295654296875</LongitudeDegrees>
            </Position>
            <AltitudeMeters>394</AltitudeMeters>
            <DistanceMeters>NAN</DistanceMeters>
          </Trackpoint>
          <Trackpoint>
            <Time>2022-09-22T09:17:13.000Z</Time>
            <Position>
              <LatitudeDegrees>49.5044748298823833465576171875</LatitudeDegrees>
              <LongitudeDegrees>20.40005891583859920501708984375</LongitudeDegrees>
            </Position>
            <AltitudeMeters>394.20001220703125</AltitudeMeters>
            <DistanceMeters>NAN</DistanceMeters>
          </Trackpoint>
          <Trackpoint>
            <Time>2022-09-22T09:17:21.000Z</Time>
            <Position>
              <LatitudeDegrees>49.5046706311404705047607421875</LatitudeDegrees>
              <LongitudeDegrees>20.399788431823253631591796875</LongitudeDegrees>
            </Position>
            <AltitudeMeters>393.79998779296875</AltitudeMeters>
            <DistanceMeters>NAN</DistanceMeters>
          </Trackpoint>
          <Trackpoint>
            <Time>2022-09-22T09:17:28.000Z</Time>
            <Position>
              <LatitudeDegrees>49.5048962719738483428955078125</LatitudeDegrees>
              <LongitudeDegrees>20.3995502181351184844970703125</LongitudeDegrees>
            </Position>
            <AltitudeMeters>393</AltitudeMeters>
            <DistanceMeters>NAN</DistanceMeters>
          </Trackpoint>
          <Trackpoint>
            <Time>2022-09-22T09:17:29.000Z</Time>
            <Position>
              <LatitudeDegrees>49.50492787174880504608154296875</LatitudeDegrees>
              <LongitudeDegrees>20.39951107464730739593505859375</LongitudeDegrees>
            </Position>
            <AltitudeMeters>393</AltitudeMeters>
            <DistanceMeters>NAN</DistanceMeters>
          </Trackpoint>
          <Trackpoint>
            <Time>2022-09-22T09:17:31.000Z</Time>
            <Position>
              <LatitudeDegrees>49.50499576516449451446533203125</LatitudeDegrees>
              <LongitudeDegrees>20.39943412877619266510009765625</LongitudeDegrees>
            </Position>
            <AltitudeMeters>392.79998779296875</AltitudeMeters>
            <DistanceMeters>NAN</DistanceMeters>
          </Trackpoint>
          <Trackpoint>
            <Time>2022-09-22T09:17:35.000Z</Time>
            <Position>
              <LatitudeDegrees>49.5051282830536365509033203125</LatitudeDegrees>
              <LongitudeDegrees>20.39931259118020534515380859375</LongitudeDegrees>
            </Position>
            <AltitudeMeters>392.79998779296875</AltitudeMeters>
            <DistanceMeters>NAN</DistanceMeters>
          </Trackpoint>
          <Trackpoint>
            <Time>2022-09-22T09:17:37.000Z</Time>
            <Position>
              <LatitudeDegrees>49.50519072823226451873779296875</LatitudeDegrees>
              <LongitudeDegrees>20.39925676770508289337158203125</LongitudeDegrees>
            </Position>
            <AltitudeMeters>392.79998779296875</AltitudeMeters>
            <DistanceMeters>NAN</DistanceMeters>
          </Trackpoint>
          <Trackpoint>
            <Time>2022-09-22T09:17:41.000Z</Time>
            <Position>
              <LatitudeDegrees>49.5053140260279178619384765625</LatitudeDegrees>
              <LongitudeDegrees>20.399136655032634735107421875</LongitudeDegrees>
            </Position>
            <AltitudeMeters>392.79998779296875</AltitudeMeters>
            <DistanceMeters>NAN</DistanceMeters>
          </Trackpoint>
          <Trackpoint>
            <Time>2022-09-22T09:17:42.000Z</Time>
            <Position>
              <LatitudeDegrees>49.505347050726413726806640625</LatitudeDegrees>
              <LongitudeDegrees>20.3991086594760417938232421875</LongitudeDegrees>
            </Position>
            <AltitudeMeters>392.79998779296875</AltitudeMeters>
            <DistanceMeters>NAN</DistanceMeters>
          </Trackpoint>
          <Trackpoint>
            <Time>2022-09-22T09:17:51.000Z</Time>
            <Position>
              <LatitudeDegrees>49.505626671016216278076171875</LatitudeDegrees>
              <LongitudeDegrees>20.39888343773782253265380859375</LongitudeDegrees>
            </Position>
            <AltitudeMeters>392.79998779296875</AltitudeMeters>
            <DistanceMeters>NAN</DistanceMeters>
          </Trackpoint>
          <Trackpoint>
            <Time>2022-09-22T09:17:57.000Z</Time>
            <Position>
              <LatitudeDegrees>49.50581870041787624359130859375</LatitudeDegrees>
              <LongitudeDegrees>20.3987646661698818206787109375</LongitudeDegrees>
            </Position>
            <AltitudeMeters>392.600006103515625</AltitudeMeters>
            <DistanceMeters>NAN</DistanceMeters>
          </Trackpoint>
          <Trackpoint>
            <Time>2022-09-22T09:18:02.000Z</Time>
            <Position>
              <LatitudeDegrees>49.5059922896325588226318359375</LatitudeDegrees>
              <LongitudeDegrees>20.39870984852313995361328125</LongitudeDegrees>
            </Position>
            <AltitudeMeters>392.79998779296875</AltitudeMeters>
            <DistanceMeters>NAN</DistanceMeters>
          </Trackpoint>
          <Trackpoint>
            <Time>2022-09-22T09:18:06.000Z</Time>
            <Position>
              <LatitudeDegrees>49.50613855384290218353271484375</LatitudeDegrees>
              <LongitudeDegrees>20.398627035319805145263671875</LongitudeDegrees>
            </Position>
            <AltitudeMeters>392.79998779296875</AltitudeMeters>
            <DistanceMeters>NAN</DistanceMeters>
          </Trackpoint>
          <Trackpoint>
            <Time>2022-09-22T09:18:08.000Z</Time>
            <Position>
              <LatitudeDegrees>49.50620711781084537506103515625</LatitudeDegrees>
              <LongitudeDegrees>20.39857950992882251739501953125</LongitudeDegrees>
            </Position>
            <AltitudeMeters>392.79998779296875</AltitudeMeters>
            <DistanceMeters>NAN</DistanceMeters>
          </Trackpoint>
          <Trackpoint>
            <Time>2022-09-22T09:18:16.000Z</Time>
            <Position>
              <LatitudeDegrees>49.50648187659680843353271484375</LatitudeDegrees>
              <LongitudeDegrees>20.39839737117290496826171875</LongitudeDegrees>
            </Position>
            <AltitudeMeters>392.20001220703125</AltitudeMeters>
            <DistanceMeters>NAN</DistanceMeters>
          </Trackpoint>
          <Trackpoint>
            <Time>2022-09-22T09:18:21.000Z</Time>
            <Position>
              <LatitudeDegrees>49.50666476972401142120361328125</LatitudeDegrees>
              <LongitudeDegrees>20.39824289269745349884033203125</LongitudeDegrees>
            </Position>
            <AltitudeMeters>392</AltitudeMeters>
            <DistanceMeters>NAN</DistanceMeters>
          </Trackpoint>
          <Trackpoint>
            <Time>2022-09-22T09:18:24.000Z</Time>
            <Position>
              <LatitudeDegrees>49.50677054934203624725341796875</LatitudeDegrees>
              <LongitudeDegrees>20.39817181415855884552001953125</LongitudeDegrees>
            </Position>
            <AltitudeMeters>391.79998779296875</AltitudeMeters>
            <DistanceMeters>NAN</DistanceMeters>
          </Trackpoint>
          <Trackpoint>
            <Time>2022-09-22T09:18:31.000Z</Time>
            <Position>
              <LatitudeDegrees>49.50700096786022186279296875</LatitudeDegrees>
              <LongitudeDegrees>20.3980625979602336883544921875</LongitudeDegrees>
            </Position>
            <AltitudeMeters>391.600006103515625</AltitudeMeters>
            <DistanceMeters>NAN</DistanceMeters>
          </Trackpoint>
          <Trackpoint>
            <Time>2022-09-22T09:18:32.000Z</Time>
            <Position>
              <LatitudeDegrees>49.50703424401581287384033203125</LatitudeDegrees>
              <LongitudeDegrees>20.3980533778667449951171875</LongitudeDegrees>
            </Position>
            <AltitudeMeters>391.600006103515625</AltitudeMeters>
            <DistanceMeters>NAN</DistanceMeters>
          </Trackpoint>
          <Trackpoint>
            <Time>2022-09-22T09:18:38.000Z</Time>
            <Position>
              <LatitudeDegrees>49.5072626508772373199462890625</LatitudeDegrees>
              <LongitudeDegrees>20.39802378974854946136474609375</LongitudeDegrees>
            </Position>
            <AltitudeMeters>391.600006103515625</AltitudeMeters>
            <DistanceMeters>NAN</DistanceMeters>
          </Trackpoint>
          <Trackpoint>
            <Time>2022-09-22T09:18:44.000Z</Time>
            <Position>
              <LatitudeDegrees>49.50751234777271747589111328125</LatitudeDegrees>
              <LongitudeDegrees>20.3980076126754283905029296875</LongitudeDegrees>
            </Position>
            <AltitudeMeters>391</AltitudeMeters>
            <DistanceMeters>NAN</DistanceMeters>
          </Trackpoint>
          <Trackpoint>
            <Time>2022-09-22T09:18:45.000Z</Time>
            <Position>
              <LatitudeDegrees>49.5075501501560211181640625</LatitudeDegrees>
              <LongitudeDegrees>20.3980029188096523284912109375</LongitudeDegrees>
            </Position>
            <AltitudeMeters>391</AltitudeMeters>
            <DistanceMeters>NAN</DistanceMeters>
          </Trackpoint>
          <Trackpoint>
            <Time>2022-09-22T09:18:52.000Z</Time>
            <Position>
              <LatitudeDegrees>49.50781007297337055206298828125</LatitudeDegrees>
              <LongitudeDegrees>20.397979281842708587646484375</LongitudeDegrees>
            </Position>
            <AltitudeMeters>390.600006103515625</AltitudeMeters>
            <DistanceMeters>NAN</DistanceMeters>
          </Trackpoint>
          <Trackpoint>
            <Time>2022-09-22T09:18:59.000Z</Time>
            <Position>
              <LatitudeDegrees>49.50809807516634464263916015625</LatitudeDegrees>
              <LongitudeDegrees>20.3979541361331939697265625</LongitudeDegrees>
            </Position>
            <AltitudeMeters>390.600006103515625</AltitudeMeters>
            <DistanceMeters>NAN</DistanceMeters>
          </Trackpoint>
          <Trackpoint>
            <Time>2022-09-22T09:19:00.000Z</Time>
            <Position>
              <LatitudeDegrees>49.5081370510160923004150390625</LatitudeDegrees>
              <LongitudeDegrees>20.39794768206775188446044921875</LongitudeDegrees>
            </Position>
            <AltitudeMeters>390.600006103515625</AltitudeMeters>
            <DistanceMeters>NAN</DistanceMeters>
          </Trackpoint>
          <Trackpoint>
            <Time>2022-09-22T09:19:09.000Z</Time>
            <Position>
              <LatitudeDegrees>49.50845648534595966339111328125</LatitudeDegrees>
              <LongitudeDegrees>20.397928990423679351806640625</LongitudeDegrees>
            </Position>
            <AltitudeMeters>390.20001220703125</AltitudeMeters>
            <DistanceMeters>NAN</DistanceMeters>
          </Trackpoint>
          <Trackpoint>
            <Time>2022-09-22T09:19:16.000Z</Time>
            <Position>
              <LatitudeDegrees>49.5086798630654811859130859375</LatitudeDegrees>
              <LongitudeDegrees>20.3979844786226749420166015625</LongitudeDegrees>
            </Position>
            <AltitudeMeters>390.600006103515625</AltitudeMeters>
            <DistanceMeters>NAN</DistanceMeters>
          </Trackpoint>
          <Trackpoint>
            <Time>2022-09-22T09:19:17.000Z</Time>
            <Position>
              <LatitudeDegrees>49.5087097026407718658447265625</LatitudeDegrees>
              <LongitudeDegrees>20.39799378253519535064697265625</LongitudeDegrees>
            </Position>
            <AltitudeMeters>390.600006103515625</AltitudeMeters>
            <DistanceMeters>NAN</DistanceMeters>
          </Trackpoint>
          <Trackpoint>
            <Time>2022-09-22T09:19:22.000Z</Time>
            <Position>
              <LatitudeDegrees>49.50884163379669189453125</LatitudeDegrees>
              <LongitudeDegrees>20.39805698208510875701904296875</LongitudeDegrees>
            </Position>
            <AltitudeMeters>391.20001220703125</AltitudeMeters>
            <DistanceMeters>NAN</DistanceMeters>
          </Trackpoint>
          <Trackpoint>
            <Time>2022-09-22T09:19:27.000Z</Time>
            <Position>
              <LatitudeDegrees>49.50899510644376277923583984375</LatitudeDegrees>
              <LongitudeDegrees>20.398122780025005340576171875</LongitudeDegrees>
            </Position>
            <AltitudeMeters>391.399993896484375</AltitudeMeters>
            <DistanceMeters>NAN</DistanceMeters>
          </Trackpoint>
          <Trackpoint>
            <Time>2022-09-22T09:19:34.000Z</Time>
            <Position>
              <LatitudeDegrees>49.50924254022538661956787109375</LatitudeDegrees>
              <LongitudeDegrees>20.39819729514420032501220703125</LongitudeDegrees>
            </Position>
            <AltitudeMeters>391.20001220703125</AltitudeMeters>
            <DistanceMeters>NAN</DistanceMeters>
          </Trackpoint>
          <Trackpoint>
            <Time>2022-09-22T09:19:42.000Z</Time>
            <Position>
              <LatitudeDegrees>49.5095338113605976104736328125</LatitudeDegrees>
              <LongitudeDegrees>20.3982268832623958587646484375</LongitudeDegrees>
            </Position>
            <AltitudeMeters>391.399993896484375</AltitudeMeters>
            <DistanceMeters>NAN</DistanceMeters>
          </Trackpoint>
          <Trackpoint>
            <Time>2022-09-22T09:19:44.000Z</Time>
            <Position>
              <LatitudeDegrees>49.50961075723171234130859375</LatitudeDegrees>
              <LongitudeDegrees>20.39823777973651885986328125</LongitudeDegrees>
            </Position>
            <AltitudeMeters>391.20001220703125</AltitudeMeters>
            <DistanceMeters>NAN</DistanceMeters>
          </Trackpoint>
          <Trackpoint>
            <Time>2022-09-22T09:19:50.000Z</Time>
            <Position>
              <LatitudeDegrees>49.50984050519764423370361328125</LatitudeDegrees>
              <LongitudeDegrees>20.39825999177992343902587890625</LongitudeDegrees>
            </Position>
            <AltitudeMeters>391.20001220703125</AltitudeMeters>
            <DistanceMeters>NAN</DistanceMeters>
          </Trackpoint>
          <Trackpoint>
            <Time>2022-09-22T09:19:52.000Z</Time>
            <Position>
              <LatitudeDegrees>49.50991543941199779510498046875</LatitudeDegrees>
              <LongitudeDegrees>20.39825630374252796173095703125</LongitudeDegrees>
            </Position>
            <AltitudeMeters>391.600006103515625</AltitudeMeters>
            <DistanceMeters>NAN</DistanceMeters>
          </Trackpoint>
          <Trackpoint>
            <Time>2022-09-22T09:19:54.000Z</Time>
            <Position>
              <LatitudeDegrees>49.50998215936124324798583984375</LatitudeDegrees>
              <LongitudeDegrees>20.39826468564569950103759765625</LongitudeDegrees>
            </Position>
            <AltitudeMeters>391.600006103515625</AltitudeMeters>
            <DistanceMeters>NAN</DistanceMeters>
          </Trackpoint>
          <Trackpoint>
            <Time>2022-09-22T09:20:04.000Z</Time>
            <Position>
              <LatitudeDegrees>49.51034878380596637725830078125</LatitudeDegrees>
              <LongitudeDegrees>20.39828614331781864166259765625</LongitudeDegrees>
            </Position>
            <AltitudeMeters>391.20001220703125</AltitudeMeters>
            <DistanceMeters>NAN</DistanceMeters>
          </Trackpoint>
          <Trackpoint>
            <Time>2022-09-22T09:20:08.000Z</Time>
            <Position>
              <LatitudeDegrees>49.5105084590613842010498046875</LatitudeDegrees>
              <LongitudeDegrees>20.39828999899327754974365234375</LongitudeDegrees>
            </Position>
            <AltitudeMeters>391</AltitudeMeters>
            <DistanceMeters>NAN</DistanceMeters>
          </Trackpoint>
          <Trackpoint>
            <Time>2022-09-22T09:20:13.000Z</Time>
            <Position>
              <LatitudeDegrees>49.5107136480510234832763671875</LatitudeDegrees>
              <LongitudeDegrees>20.3982999734580516815185546875</LongitudeDegrees>
            </Position>
            <AltitudeMeters>391</AltitudeMeters>
            <DistanceMeters>NAN</DistanceMeters>
          </Trackpoint>
          <Trackpoint>
            <Time>2022-09-22T09:20:20.000Z</Time>
            <Position>
              <LatitudeDegrees>49.5109480060636997222900390625</LatitudeDegrees>
              <LongitudeDegrees>20.39825521409511566162109375</LongitudeDegrees>
            </Position>
            <AltitudeMeters>391</AltitudeMeters>
            <DistanceMeters>NAN</DistanceMeters>
          </Trackpoint>
          <Trackpoint>
            <Time>2022-09-22T09:20:26.000Z</Time>
            <Position>
              <LatitudeDegrees>49.51112394221127033233642578125</LatitudeDegrees>
              <LongitudeDegrees>20.3982630930840969085693359375</LongitudeDegrees>
            </Position>
            <AltitudeMeters>391</AltitudeMeters>
            <DistanceMeters>NAN</DistanceMeters>
          </Trackpoint>
          <Trackpoint>
            <Time>2022-09-22T09:20:34.000Z</Time>
            <Position>
              <LatitudeDegrees>49.511399455368518829345703125</LatitudeDegrees>
              <LongitudeDegrees>20.39827055297791957855224609375</LongitudeDegrees>
            </Position>
            <AltitudeMeters>390.79998779296875</AltitudeMeters>
            <DistanceMeters>NAN</DistanceMeters>
          </Trackpoint>
          <Trackpoint>
            <Time>2022-09-22T09:20:40.000Z</Time>
            <Position>
              <LatitudeDegrees>49.51162719167768955230712890625</LatitudeDegrees>
              <LongitudeDegrees>20.39826082997024059295654296875</LongitudeDegrees>
            </Position>
            <AltitudeMeters>390.399993896484375</AltitudeMeters>
            <DistanceMeters>NAN</DistanceMeters>
          </Trackpoint>
          <Trackpoint>
            <Time>2022-09-22T09:20:43.000Z</Time>
            <Position>
              <LatitudeDegrees>49.51175526715815067291259765625</LatitudeDegrees>
              <LongitudeDegrees>20.39826099760830402374267578125</LongitudeDegrees>
            </Position>
            <AltitudeMeters>389.79998779296875</AltitudeMeters>
            <DistanceMeters>NAN</DistanceMeters>
          </Trackpoint>
          <Trackpoint>
            <Time>2022-09-22T09:20:45.000Z</Time>
            <Position>
              <LatitudeDegrees>49.51186372898519039154052734375</LatitudeDegrees>
              <LongitudeDegrees>20.398273654282093048095703125</LongitudeDegrees>
            </Position>
            <AltitudeMeters>389.600006103515625</AltitudeMeters>
            <DistanceMeters>NAN</DistanceMeters>
          </Trackpoint>
          <Trackpoint>
            <Time>2022-09-22T09:20:47.000Z</Time>
            <Position>
              <LatitudeDegrees>49.51195324771106243133544921875</LatitudeDegrees>
              <LongitudeDegrees>20.3982775099575519561767578125</LongitudeDegrees>
            </Position>
            <AltitudeMeters>389.399993896484375</AltitudeMeters>
            <DistanceMeters>NAN</DistanceMeters>
          </Trackpoint>
          <Trackpoint>
            <Time>2022-09-22T09:20:48.000Z</Time>
            <Position>
              <LatitudeDegrees>49.5119984261691570281982421875</LatitudeDegrees>
              <LongitudeDegrees>20.39828781969845294952392578125</LongitudeDegrees>
            </Position>
            <AltitudeMeters>389.399993896484375</AltitudeMeters>
            <DistanceMeters>NAN</DistanceMeters>
          </Trackpoint>
          <Trackpoint>
            <Time>2022-09-22T09:20:53.000Z</Time>
            <Position>
              <LatitudeDegrees>49.5122118294239044189453125</LatitudeDegrees>
              <LongitudeDegrees>20.39828262291848659515380859375</LongitudeDegrees>
            </Position>
            <AltitudeMeters>389</AltitudeMeters>
            <DistanceMeters>NAN</DistanceMeters>
          </Trackpoint>
          <Trackpoint>
            <Time>2022-09-22T09:20:56.000Z</Time>
            <Position>
              <LatitudeDegrees>49.5123231410980224609375</LatitudeDegrees>
              <LongitudeDegrees>20.3982862271368503570556640625</LongitudeDegrees>
            </Position>
            <AltitudeMeters>388.79998779296875</AltitudeMeters>
            <DistanceMeters>NAN</DistanceMeters>
          </Trackpoint>
          <Trackpoint>
            <Time>2022-09-22T09:21:03.000Z</Time>
            <Position>
              <LatitudeDegrees>49.5125962235033512115478515625</LatitudeDegrees>
              <LongitudeDegrees>20.3982962854206562042236328125</LongitudeDegrees>
            </Position>
            <AltitudeMeters>389</AltitudeMeters>
            <DistanceMeters>NAN</DistanceMeters>
          </Trackpoint>
          <Trackpoint>
            <Time>2022-09-22T09:21:12.000Z</Time>
            <Position>
              <LatitudeDegrees>49.51296661980450153350830078125</LatitudeDegrees>
              <LongitudeDegrees>20.398321263492107391357421875</LongitudeDegrees>
            </Position>
            <AltitudeMeters>388.79998779296875</AltitudeMeters>
            <DistanceMeters>NAN</DistanceMeters>
          </Trackpoint>
          <Trackpoint>
            <Time>2022-09-22T09:21:16.000Z</Time>
            <Position>
              <LatitudeDegrees>49.51311548240482807159423828125</LatitudeDegrees>
              <LongitudeDegrees>20.39835177361965179443359375</LongitudeDegrees>
            </Position>
            <AltitudeMeters>388.79998779296875</AltitudeMeters>
            <DistanceMeters>NAN</DistanceMeters>
          </Trackpoint>
          <Trackpoint>
            <Time>2022-09-22T09:21:20.000Z</Time>
            <Position>
              <LatitudeDegrees>49.5132607407867908477783203125</LatitudeDegrees>
              <LongitudeDegrees>20.39835319854319095611572265625</LongitudeDegrees>
            </Position>
            <AltitudeMeters>388.79998779296875</AltitudeMeters>
            <DistanceMeters>NAN</DistanceMeters>
          </Trackpoint>
          <Trackpoint>
            <Time>2022-09-22T09:21:29.000Z</Time>
            <Position>
              <LatitudeDegrees>49.51359559781849384307861328125</LatitudeDegrees>
              <LongitudeDegrees>20.3984025679528713226318359375</LongitudeDegrees>
            </Position>
            <AltitudeMeters>388.600006103515625</AltitudeMeters>
            <DistanceMeters>NAN</DistanceMeters>
          </Trackpoint>
          <Trackpoint>
            <Time>2022-09-22T09:21:37.000Z</Time>
            <Position>
              <LatitudeDegrees>49.5138283632695674896240234375</LatitudeDegrees>
              <LongitudeDegrees>20.398436598479747772216796875</LongitudeDegrees>
            </Position>
            <AltitudeMeters>388.399993896484375</AltitudeMeters>
            <DistanceMeters>NAN</DistanceMeters>
          </Trackpoint>
          <Trackpoint>
            <Time>2022-09-22T09:21:44.000Z</Time>
            <Position>
              <LatitudeDegrees>49.51401737518608570098876953125</LatitudeDegrees>
              <LongitudeDegrees>20.39850641973316669464111328125</LongitudeDegrees>
            </Position>
            <AltitudeMeters>388.399993896484375</AltitudeMeters>
            <DistanceMeters>NAN</DistanceMeters>
          </Trackpoint>
          <Trackpoint>
            <Time>2022-09-22T09:21:50.000Z</Time>
            <Position>
              <LatitudeDegrees>49.51422474347054958343505859375</LatitudeDegrees>
              <LongitudeDegrees>20.39859292097389698028564453125</LongitudeDegrees>
            </Position>
            <AltitudeMeters>388.20001220703125</AltitudeMeters>
            <DistanceMeters>NAN</DistanceMeters>
          </Trackpoint>
          <Trackpoint>
            <Time>2022-09-22T09:21:56.000Z</Time>
            <Position>
              <LatitudeDegrees>49.51442792080342769622802734375</LatitudeDegrees>
              <LongitudeDegrees>20.39871898479759693145751953125</LongitudeDegrees>
            </Position>
            <AltitudeMeters>388.600006103515625</AltitudeMeters>
            <DistanceMeters>NAN</DistanceMeters>
          </Trackpoint>
          <Trackpoint>
            <Time>2022-09-22T09:22:01.000Z</Time>
            <Position>
              <LatitudeDegrees>49.51457041315734386444091796875</LatitudeDegrees>
              <LongitudeDegrees>20.39885661564767360687255859375</LongitudeDegrees>
            </Position>
            <AltitudeMeters>389.20001220703125</AltitudeMeters>
            <DistanceMeters>NAN</DistanceMeters>
          </Trackpoint>
          <Trackpoint>
            <Time>2022-09-22T09:22:02.000Z</Time>
            <Position>
              <LatitudeDegrees>49.514600336551666259765625</LatitudeDegrees>
              <LongitudeDegrees>20.3988848626613616943359375</LongitudeDegrees>
            </Position>
            <AltitudeMeters>389.399993896484375</AltitudeMeters>
            <DistanceMeters>NAN</DistanceMeters>
          </Trackpoint>
          <Trackpoint>
            <Time>2022-09-22T09:22:04.000Z</Time>
            <Position>
              <LatitudeDegrees>49.51464928686618804931640625</LatitudeDegrees>
              <LongitudeDegrees>20.39893607608973979949951171875</LongitudeDegrees>
            </Position>
            <AltitudeMeters>389.79998779296875</AltitudeMeters>
            <DistanceMeters>NAN</DistanceMeters>
          </Trackpoint>
          <Trackpoint>
            <Time>2022-09-22T09:22:09.000Z</Time>
            <Position>
              <LatitudeDegrees>49.5147875882685184478759765625</LatitudeDegrees>
              <LongitudeDegrees>20.3990764729678630828857421875</LongitudeDegrees>
            </Position>
            <AltitudeMeters>390.600006103515625</AltitudeMeters>
            <DistanceMeters>NAN</DistanceMeters>
          </Trackpoint>
          <Trackpoint>
            <Time>2022-09-22T09:22:17.000Z</Time>
            <Position>
              <LatitudeDegrees>49.51508724130690097808837890625</LatitudeDegrees>
              <LongitudeDegrees>20.399296917021274566650390625</LongitudeDegrees>
            </Position>
            <AltitudeMeters>390.399993896484375</AltitudeMeters>
            <DistanceMeters>NAN</DistanceMeters>
          </Trackpoint>
          <Trackpoint>
            <Time>2022-09-22T09:22:22.000Z</Time>
            <Position>
              <LatitudeDegrees>49.51523694209754467010498046875</LatitudeDegrees>
              <LongitudeDegrees>20.39944301359355449676513671875</LongitudeDegrees>
            </Position>
            <AltitudeMeters>390.20001220703125</AltitudeMeters>
            <DistanceMeters>NAN</DistanceMeters>
          </Trackpoint>
          <Trackpoint>
            <Time>2022-09-22T09:22:27.000Z</Time>
            <Position>
              <LatitudeDegrees>49.51536401174962520599365234375</LatitudeDegrees>
              <LongitudeDegrees>20.399597324430942535400390625</LongitudeDegrees>
            </Position>
            <AltitudeMeters>390.20001220703125</AltitudeMeters>
            <DistanceMeters>NAN</DistanceMeters>
          </Trackpoint>
          <Trackpoint>
            <Time>2022-09-22T09:22:35.000Z</Time>
            <Position>
              <LatitudeDegrees>49.5155433006584644317626953125</LatitudeDegrees>
              <LongitudeDegrees>20.39990234188735485076904296875</LongitudeDegrees>
            </Position>
            <AltitudeMeters>390</AltitudeMeters>
            <DistanceMeters>NAN</DistanceMeters>
          </Trackpoint>
          <Trackpoint>
            <Time>2022-09-22T09:22:39.000Z</Time>
            <Position>
              <LatitudeDegrees>49.5156733877956867218017578125</LatitudeDegrees>
              <LongitudeDegrees>20.40005036629736423492431640625</LongitudeDegrees>
            </Position>
            <AltitudeMeters>389.399993896484375</AltitudeMeters>
            <DistanceMeters>NAN</DistanceMeters>
          </Trackpoint>
          <Trackpoint>
            <Time>2022-09-22T09:22:41.000Z</Time>
            <Position>
              <LatitudeDegrees>49.51572560705244541168212890625</LatitudeDegrees>
              <LongitudeDegrees>20.40013276040554046630859375</LongitudeDegrees>
            </Position>
            <AltitudeMeters>389.20001220703125</AltitudeMeters>
            <DistanceMeters>NAN</DistanceMeters>
          </Trackpoint>
          <Trackpoint>
            <Time>2022-09-22T09:22:45.000Z</Time>
            <Position>
              <LatitudeDegrees>49.51580305583775043487548828125</LatitudeDegrees>
              <LongitudeDegrees>20.400246419012546539306640625</LongitudeDegrees>
            </Position>
            <AltitudeMeters>389</AltitudeMeters>
            <DistanceMeters>NAN</DistanceMeters>
          </Trackpoint>
          <Trackpoint>
            <Time>2022-09-22T09:22:48.000Z</Time>
            <Position>
              <LatitudeDegrees>49.51586474664509296417236328125</LatitudeDegrees>
              <LongitudeDegrees>20.4003776796162128448486328125</LongitudeDegrees>
            </Position>
            <AltitudeMeters>388.600006103515625</AltitudeMeters>
            <DistanceMeters>NAN</DistanceMeters>
          </Trackpoint>
          <Trackpoint>
            <Time>2022-09-22T09:22:52.000Z</Time>
            <Position>
              <LatitudeDegrees>49.51593339443206787109375</LatitudeDegrees>
              <LongitudeDegrees>20.40058161132037639617919921875</LongitudeDegrees>
            </Position>
            <AltitudeMeters>388.399993896484375</AltitudeMeters>
            <DistanceMeters>NAN</DistanceMeters>
          </Trackpoint>
          <Trackpoint>
            <Time>2022-09-22T09:22:58.000Z</Time>
            <Position>
              <LatitudeDegrees>49.51603422872722148895263671875</LatitudeDegrees>
              <LongitudeDegrees>20.40092057548463344573974609375</LongitudeDegrees>
            </Position>
            <AltitudeMeters>388</AltitudeMeters>
            <DistanceMeters>NAN</DistanceMeters>
          </Trackpoint>
          <Trackpoint>
            <Time>2022-09-22T09:23:03.000Z</Time>
            <Position>
              <LatitudeDegrees>49.5161198079586029052734375</LatitudeDegrees>
              <LongitudeDegrees>20.40122534148395061492919921875</LongitudeDegrees>
            </Position>
            <AltitudeMeters>388</AltitudeMeters>
            <DistanceMeters>NAN</DistanceMeters>
          </Trackpoint>
          <Trackpoint>
            <Time>2022-09-22T09:23:05.000Z</Time>
            <Position>
              <LatitudeDegrees>49.51614855788648128509521484375</LatitudeDegrees>
              <LongitudeDegrees>20.40135274641215801239013671875</LongitudeDegrees>
            </Position>
            <AltitudeMeters>387.79998779296875</AltitudeMeters>
            <DistanceMeters>NAN</DistanceMeters>
          </Trackpoint>
          <Trackpoint>
            <Time>2022-09-22T09:23:09.000Z</Time>
            <Position>
              <LatitudeDegrees>49.516199938952922821044921875</LatitudeDegrees>
              <LongitudeDegrees>20.40163479745388031005859375</LongitudeDegrees>
            </Position>
            <AltitudeMeters>387.600006103515625</AltitudeMeters>
            <DistanceMeters>NAN</DistanceMeters>
          </Trackpoint>
          <Trackpoint>
            <Time>2022-09-22T09:23:13.000Z</Time>
            <Position>
              <LatitudeDegrees>49.51624494977295398712158203125</LatitudeDegrees>
              <LongitudeDegrees>20.401934199035167694091796875</LongitudeDegrees>
            </Position>
            <AltitudeMeters>387.399993896484375</AltitudeMeters>
            <DistanceMeters>NAN</DistanceMeters>
          </Trackpoint>
          <Trackpoint>
            <Time>2022-09-22T09:23:14.000Z</Time>
            <Position>
              <LatitudeDegrees>49.51625416986644268035888671875</LatitudeDegrees>
              <LongitudeDegrees>20.4020082950592041015625</LongitudeDegrees>
            </Position>
            <AltitudeMeters>387.20001220703125</AltitudeMeters>
            <DistanceMeters>NAN</DistanceMeters>
          </Trackpoint>
          <Trackpoint>
            <Time>2022-09-22T09:23:18.000Z</Time>
            <Position>
              <LatitudeDegrees>49.5162943191826343536376953125</LatitudeDegrees>
              <LongitudeDegrees>20.40232588537037372589111328125</LongitudeDegrees>
            </Position>
            <AltitudeMeters>386.600006103515625</AltitudeMeters>
            <DistanceMeters>NAN</DistanceMeters>
          </Trackpoint>
          <Trackpoint>
            <Time>2022-09-22T09:23:19.000Z</Time>
            <Position>
              <LatitudeDegrees>49.516295492649078369140625</LatitudeDegrees>
              <LongitudeDegrees>20.40240752510726451873779296875</LongitudeDegrees>
            </Position>
            <AltitudeMeters>386.600006103515625</AltitudeMeters>
            <DistanceMeters>NAN</DistanceMeters>
          </Trackpoint>
          <Trackpoint>
            <Time>2022-09-22T09:23:20.000Z</Time>
            <Position>
              <LatitudeDegrees>49.51629524119198322296142578125</LatitudeDegrees>
              <LongitudeDegrees>20.40248648263514041900634765625</LongitudeDegrees>
            </Position>
            <AltitudeMeters>386.600006103515625</AltitudeMeters>
            <DistanceMeters>NAN</DistanceMeters>
          </Trackpoint>
          <Trackpoint>
            <Time>2022-09-22T09:23:27.000Z</Time>
            <Position>
              <LatitudeDegrees>49.51629356481134891510009765625</LatitudeDegrees>
              <LongitudeDegrees>20.403036586940288543701171875</LongitudeDegrees>
            </Position>
            <AltitudeMeters>384.399993896484375</AltitudeMeters>
            <DistanceMeters>NAN</DistanceMeters>
          </Trackpoint>
          <Trackpoint>
            <Time>2022-09-22T09:23:28.000Z</Time>
            <Position>
              <LatitudeDegrees>49.51629490591585636138916015625</LatitudeDegrees>
              <LongitudeDegrees>20.4031172208487987518310546875</LongitudeDegrees>
            </Position>
            <AltitudeMeters>384.399993896484375</AltitudeMeters>
            <DistanceMeters>NAN</DistanceMeters>
          </Trackpoint>
          <Trackpoint>
            <Time>2022-09-22T09:23:34.000Z</Time>
            <Position>
              <LatitudeDegrees>49.51626531779766082763671875</LatitudeDegrees>
              <LongitudeDegrees>20.40358166210353374481201171875</LongitudeDegrees>
            </Position>
            <AltitudeMeters>384.600006103515625</AltitudeMeters>
            <DistanceMeters>NAN</DistanceMeters>
          </Trackpoint>
          <Trackpoint>
            <Time>2022-09-22T09:23:40.000Z</Time>
            <Position>
              <LatitudeDegrees>49.51624109409749507904052734375</LatitudeDegrees>
              <LongitudeDegrees>20.4040241427719593048095703125</LongitudeDegrees>
            </Position>
            <AltitudeMeters>384.600006103515625</AltitudeMeters>
            <DistanceMeters>NAN</DistanceMeters>
          </Trackpoint>
          <Trackpoint>
            <Time>2022-09-22T09:23:41.000Z</Time>
            <Position>
              <LatitudeDegrees>49.516238160431385040283203125</LatitudeDegrees>
              <LongitudeDegrees>20.404098071157932281494140625</LongitudeDegrees>
            </Position>
            <AltitudeMeters>384.600006103515625</AltitudeMeters>
            <DistanceMeters>NAN</DistanceMeters>
          </Trackpoint>
          <Trackpoint>
            <Time>2022-09-22T09:23:46.000Z</Time>
            <Position>
              <LatitudeDegrees>49.51621410436928272247314453125</LatitudeDegrees>
              <LongitudeDegrees>20.40446511469781398773193359375</LongitudeDegrees>
            </Position>
            <AltitudeMeters>384.399993896484375</AltitudeMeters>
            <DistanceMeters>NAN</DistanceMeters>
          </Trackpoint>
          <Trackpoint>
            <Time>2022-09-22T09:23:56.000Z</Time>
            <Position>
              <LatitudeDegrees>49.51613799668848514556884765625</LatitudeDegrees>
              <LongitudeDegrees>20.40515997447073459625244140625</LongitudeDegrees>
            </Position>
            <AltitudeMeters>383.600006103515625</AltitudeMeters>
            <DistanceMeters>NAN</DistanceMeters>
          </Trackpoint>
          <Trackpoint>
            <Time>2022-09-22T09:23:58.000Z</Time>
            <Position>
              <LatitudeDegrees>49.516120813786983489990234375</LatitudeDegrees>
              <LongitudeDegrees>20.4052941687405109405517578125</LongitudeDegrees>
            </Position>
            <AltitudeMeters>383.399993896484375</AltitudeMeters>
            <DistanceMeters>NAN</DistanceMeters>
          </Trackpoint>
          <Trackpoint>
            <Time>2022-09-22T09:24:03.000Z</Time>
            <Position>
              <LatitudeDegrees>49.51606524176895618438720703125</LatitudeDegrees>
              <LongitudeDegrees>20.40565568022429943084716796875</LongitudeDegrees>
            </Position>
            <AltitudeMeters>383.20001220703125</AltitudeMeters>
            <DistanceMeters>NAN</DistanceMeters>
          </Trackpoint>
          <Trackpoint>
            <Time>2022-09-22T09:24:11.000Z</Time>
            <Position>
              <LatitudeDegrees>49.51597773469984531402587890625</LatitudeDegrees>
              <LongitudeDegrees>20.4061772860586643218994140625</LongitudeDegrees>
            </Position>
            <AltitudeMeters>383.20001220703125</AltitudeMeters>
            <DistanceMeters>NAN</DistanceMeters>
          </Trackpoint>
          <Trackpoint>
            <Time>2022-09-22T09:24:15.000Z</Time>
            <Position>
              <LatitudeDegrees>49.51591755263507366180419921875</LatitudeDegrees>
              <LongitudeDegrees>20.406425558030605316162109375</LongitudeDegrees>
            </Position>
            <AltitudeMeters>383.20001220703125</AltitudeMeters>
            <DistanceMeters>NAN</DistanceMeters>
          </Trackpoint>
          <Trackpoint>
            <Time>2022-09-22T09:24:18.000Z</Time>
            <Position>
              <LatitudeDegrees>49.51587430201470851898193359375</LatitudeDegrees>
              <LongitudeDegrees>20.40662362240254878997802734375</LongitudeDegrees>
            </Position>
            <AltitudeMeters>383.20001220703125</AltitudeMeters>
            <DistanceMeters>NAN</DistanceMeters>
          </Trackpoint>
          <Trackpoint>
            <Time>2022-09-22T09:24:26.000Z</Time>
            <Position>
              <LatitudeDegrees>49.51577723957598209381103515625</LatitudeDegrees>
              <LongitudeDegrees>20.40715050883591175079345703125</LongitudeDegrees>
            </Position>
            <AltitudeMeters>382.79998779296875</AltitudeMeters>
            <DistanceMeters>NAN</DistanceMeters>
          </Trackpoint>
          <Trackpoint>
            <Time>2022-09-22T09:24:32.000Z</Time>
            <Position>
              <LatitudeDegrees>49.51570498757064342498779296875</LatitudeDegrees>
              <LongitudeDegrees>20.4075267724692821502685546875</LongitudeDegrees>
            </Position>
            <AltitudeMeters>382.79998779296875</AltitudeMeters>
            <DistanceMeters>NAN</DistanceMeters>
          </Trackpoint>
          <Trackpoint>
            <Time>2022-09-22T09:24:34.000Z</Time>
            <Position>
              <LatitudeDegrees>49.51568327844142913818359375</LatitudeDegrees>
              <LongitudeDegrees>20.40764068253338336944580078125</LongitudeDegrees>
            </Position>
            <AltitudeMeters>382.79998779296875</AltitudeMeters>
            <DistanceMeters>NAN</DistanceMeters>
          </Trackpoint>
          <Trackpoint>
            <Time>2022-09-22T09:24:41.000Z</Time>
            <Position>
              <LatitudeDegrees>49.51557590626180171966552734375</LatitudeDegrees>
              <LongitudeDegrees>20.4080400802195072174072265625</LongitudeDegrees>
            </Position>
            <AltitudeMeters>382.600006103515625</AltitudeMeters>
            <DistanceMeters>NAN</DistanceMeters>
          </Trackpoint>
          <Trackpoint>
            <Time>2022-09-22T09:24:47.000Z</Time>
            <Position>
              <LatitudeDegrees>49.51547180302441120147705078125</LatitudeDegrees>
              <LongitudeDegrees>20.40838449262082576751708984375</LongitudeDegrees>
            </Position>
            <AltitudeMeters>382.79998779296875</AltitudeMeters>
            <DistanceMeters>NAN</DistanceMeters>
          </Trackpoint>
          <Trackpoint>
            <Time>2022-09-22T09:24:50.000Z</Time>
            <Position>
              <LatitudeDegrees>49.51542469672858715057373046875</LatitudeDegrees>
              <LongitudeDegrees>20.4085636138916015625</LongitudeDegrees>
            </Position>
            <AltitudeMeters>382.79998779296875</AltitudeMeters>
            <DistanceMeters>NAN</DistanceMeters>
          </Trackpoint>
          <Trackpoint>
            <Time>2022-09-22T09:24:52.000Z</Time>
            <Position>
              <LatitudeDegrees>49.515390582382678985595703125</LatitudeDegrees>
              <LongitudeDegrees>20.40868230164051055908203125</LongitudeDegrees>
            </Position>
            <AltitudeMeters>382.600006103515625</AltitudeMeters>
            <DistanceMeters>NAN</DistanceMeters>
          </Trackpoint>
          <Trackpoint>
            <Time>2022-09-22T09:24:54.000Z</Time>
            <Position>
              <LatitudeDegrees>49.5153521932661533355712890625</LatitudeDegrees>
              <LongitudeDegrees>20.40879269130527973175048828125</LongitudeDegrees>
            </Position>
            <AltitudeMeters>382.600006103515625</AltitudeMeters>
            <DistanceMeters>NAN</DistanceMeters>
          </Trackpoint>
          <Trackpoint>
            <Time>2022-09-22T09:24:56.000Z</Time>
            <Position>
              <LatitudeDegrees>49.5153206773102283477783203125</LatitudeDegrees>
              <LongitudeDegrees>20.40889444760978221893310546875</LongitudeDegrees>
            </Position>
            <AltitudeMeters>382.600006103515625</AltitudeMeters>
            <DistanceMeters>NAN</DistanceMeters>
          </Trackpoint>
          <Trackpoint>
            <Time>2022-09-22T09:25:02.000Z</Time>
            <Position>
              <LatitudeDegrees>49.51522353105247020721435546875</LatitudeDegrees>
              <LongitudeDegrees>20.40922050364315509796142578125</LongitudeDegrees>
            </Position>
            <AltitudeMeters>382.399993896484375</AltitudeMeters>
            <DistanceMeters>NAN</DistanceMeters>
          </Trackpoint>
          <Trackpoint>
            <Time>2022-09-22T09:25:08.000Z</Time>
            <Position>
              <LatitudeDegrees>49.51514926739037036895751953125</LatitudeDegrees>
              <LongitudeDegrees>20.40949023328721523284912109375</LongitudeDegrees>
            </Position>
            <AltitudeMeters>382.399993896484375</AltitudeMeters>
            <DistanceMeters>NAN</DistanceMeters>
          </Trackpoint>
          <Trackpoint>
            <Time>2022-09-22T09:25:10.000Z</Time>
            <Position>
              <LatitudeDegrees>49.515171311795711517333984375</LatitudeDegrees>
              <LongitudeDegrees>20.40951236151158809661865234375</LongitudeDegrees>
            </Position>
            <AltitudeMeters>382.399993896484375</AltitudeMeters>
            <DistanceMeters>NAN</DistanceMeters>
          </Trackpoint>
          <Trackpoint>
            <Time>2022-09-22T09:25:12.000Z</Time>
            <Position>
              <LatitudeDegrees>49.51519771479070186614990234375</LatitudeDegrees>
              <LongitudeDegrees>20.40949693880975246429443359375</LongitudeDegrees>
            </Position>
            <AltitudeMeters>382.600006103515625</AltitudeMeters>
            <DistanceMeters>NAN</DistanceMeters>
          </Trackpoint>
          <Trackpoint>
            <Time>2022-09-22T09:25:13.000Z</Time>
            <Position>
              <LatitudeDegrees>49.5152036659419536590576171875</LatitudeDegrees>
              <LongitudeDegrees>20.4094790853559970855712890625</LongitudeDegrees>
            </Position>
            <AltitudeMeters>382.600006103515625</AltitudeMeters>
            <DistanceMeters>NAN</DistanceMeters>
          </Trackpoint>
          <Trackpoint>
            <Time>2022-09-22T09:25:16.000Z</Time>
            <Position>
              <LatitudeDegrees>49.51522051356732845306396484375</LatitudeDegrees>
              <LongitudeDegrees>20.409417562186717987060546875</LongitudeDegrees>
            </Position>
            <AltitudeMeters>382.79998779296875</AltitudeMeters>
            <DistanceMeters>NAN</DistanceMeters>
          </Trackpoint>
          <Trackpoint>
            <Time>2022-09-22T09:25:17.000Z</Time>
            <Position>
              <LatitudeDegrees>49.51523208059370517730712890625</LatitudeDegrees>
              <LongitudeDegrees>20.40939082391560077667236328125</LongitudeDegrees>
            </Position>
            <AltitudeMeters>382.79998779296875</AltitudeMeters>
            <DistanceMeters>NAN</DistanceMeters>
          </Trackpoint>
          <Trackpoint>
            <Time>2022-09-22T09:25:20.000Z</Time>
            <Position>
              <LatitudeDegrees>49.5152663625776767730712890625</LatitudeDegrees>
              <LongitudeDegrees>20.4092869721353054046630859375</LongitudeDegrees>
            </Position>
            <AltitudeMeters>383.399993896484375</AltitudeMeters>
            <DistanceMeters>NAN</DistanceMeters>
          </Trackpoint>
          <Trackpoint>
            <Time>2022-09-22T09:25:21.000Z</Time>
            <Position>
              <LatitudeDegrees>49.51527717523276805877685546875</LatitudeDegrees>
              <LongitudeDegrees>20.4092484153807163238525390625</LongitudeDegrees>
            </Position>
            <AltitudeMeters>383.399993896484375</AltitudeMeters>
            <DistanceMeters>NAN</DistanceMeters>
          </Trackpoint>
          <Trackpoint>
            <Time>2022-09-22T09:25:24.000Z</Time>
            <Position>
              <LatitudeDegrees>49.515309445559978485107421875</LatitudeDegrees>
              <LongitudeDegrees>20.4091310687363147735595703125</LongitudeDegrees>
            </Position>
            <AltitudeMeters>383.79998779296875</AltitudeMeters>
            <DistanceMeters>NAN</DistanceMeters>
          </Trackpoint>
          <Trackpoint>
            <Time>2022-09-22T09:25:29.000Z</Time>
            <Position>
              <LatitudeDegrees>49.5153741538524627685546875</LatitudeDegrees>
              <LongitudeDegrees>20.40894054807722568511962890625</LongitudeDegrees>
            </Position>
            <AltitudeMeters>384.600006103515625</AltitudeMeters>
            <DistanceMeters>NAN</DistanceMeters>
          </Trackpoint>
          <Trackpoint>
            <Time>2022-09-22T09:25:32.000Z</Time>
            <Position>
              <LatitudeDegrees>49.51542402617633342742919921875</LatitudeDegrees>
              <LongitudeDegrees>20.40882772766053676605224609375</LongitudeDegrees>
            </Position>
            <AltitudeMeters>385.20001220703125</AltitudeMeters>
            <DistanceMeters>NAN</DistanceMeters>
          </Trackpoint>
          <Trackpoint>
            <Time>2022-09-22T09:25:33.000Z</Time>
            <Position>
              <LatitudeDegrees>49.5154383592307567596435546875</LatitudeDegrees>
              <LongitudeDegrees>20.4087957926094532012939453125</LongitudeDegrees>
            </Position>
            <AltitudeMeters>385.20001220703125</AltitudeMeters>
            <DistanceMeters>NAN</DistanceMeters>
          </Trackpoint>
          <Trackpoint>
            <Time>2022-09-22T09:25:35.000Z</Time>
            <Position>
              <LatitudeDegrees>49.51547683216631412506103515625</LatitudeDegrees>
              <LongitudeDegrees>20.40878799743950366973876953125</LongitudeDegrees>
            </Position>
            <AltitudeMeters>385.399993896484375</AltitudeMeters>
            <DistanceMeters>NAN</DistanceMeters>
          </Trackpoint>
          <Trackpoint>
            <Time>2022-09-22T09:25:37.000Z</Time>
            <Position>
              <LatitudeDegrees>49.51552460901439189910888671875</LatitudeDegrees>
              <LongitudeDegrees>20.4088008217513561248779296875</LongitudeDegrees>
            </Position>
            <AltitudeMeters>385.79998779296875</AltitudeMeters>
            <DistanceMeters>NAN</DistanceMeters>
          </Trackpoint>
          <Trackpoint>
            <Time>2022-09-22T09:25:42.000Z</Time>
            <Position>
              <LatitudeDegrees>49.51562804169952869415283203125</LatitudeDegrees>
              <LongitudeDegrees>20.40885069407522678375244140625</LongitudeDegrees>
            </Position>
            <AltitudeMeters>386.20001220703125</AltitudeMeters>
            <DistanceMeters>NAN</DistanceMeters>
          </Trackpoint>
          <Trackpoint>
            <Time>2022-09-22T09:25:48.000Z</Time>
            <Position>
              <LatitudeDegrees>49.51572409830987453460693359375</LatitudeDegrees>
              <LongitudeDegrees>20.40891724638640880584716796875</LongitudeDegrees>
            </Position>
            <AltitudeMeters>386.20001220703125</AltitudeMeters>
            <DistanceMeters>NAN</DistanceMeters>
          </Trackpoint>
          <Trackpoint>
            <Time>2022-09-22T09:25:51.000Z</Time>
            <Position>
              <LatitudeDegrees>49.5157783292233943939208984375</LatitudeDegrees>
              <LongitudeDegrees>20.40894624777138233184814453125</LongitudeDegrees>
            </Position>
            <AltitudeMeters>386.600006103515625</AltitudeMeters>
            <DistanceMeters>NAN</DistanceMeters>
          </Trackpoint>
          <Trackpoint>
            <Time>2022-09-22T09:25:57.000Z</Time>
            <Position>
              <LatitudeDegrees>49.51591252349317073822021484375</LatitudeDegrees>
              <LongitudeDegrees>20.408989749848842620849609375</LongitudeDegrees>
            </Position>
            <AltitudeMeters>386.79998779296875</AltitudeMeters>
            <DistanceMeters>NAN</DistanceMeters>
          </Trackpoint>
          <Trackpoint>
            <Time>2022-09-22T09:26:00.000Z</Time>
            <Position>
              <LatitudeDegrees>49.5159905590116977691650390625</LatitudeDegrees>
              <LongitudeDegrees>20.40903509594500064849853515625</LongitudeDegrees>
            </Position>
            <AltitudeMeters>386.79998779296875</AltitudeMeters>
            <DistanceMeters>NAN</DistanceMeters>
          </Trackpoint>
          <Trackpoint>
            <Time>2022-09-22T09:26:06.000Z</Time>
            <Position>
              <LatitudeDegrees>49.51612877659499645233154296875</LatitudeDegrees>
              <LongitudeDegrees>20.40909402072429656982421875</LongitudeDegrees>
            </Position>
            <AltitudeMeters>387.20001220703125</AltitudeMeters>
            <DistanceMeters>NAN</DistanceMeters>
          </Trackpoint>
          <Trackpoint>
            <Time>2022-09-22T09:26:13.000Z</Time>
            <Position>
              <LatitudeDegrees>49.51631552539765834808349609375</LatitudeDegrees>
              <LongitudeDegrees>20.4091847129166126251220703125</LongitudeDegrees>
            </Position>
            <AltitudeMeters>387.79998779296875</AltitudeMeters>
            <DistanceMeters>NAN</DistanceMeters>
          </Trackpoint>
          <Trackpoint>
            <Time>2022-09-22T09:26:14.000Z</Time>
            <Position>
              <LatitudeDegrees>49.5163325406610965728759765625</LatitudeDegrees>
              <LongitudeDegrees>20.40919519029557704925537109375</LongitudeDegrees>
            </Position>
            <AltitudeMeters>387.79998779296875</AltitudeMeters>
            <DistanceMeters>NAN</DistanceMeters>
          </Trackpoint>
          <Trackpoint>
            <Time>2022-09-22T09:26:20.000Z</Time>
            <Position>
              <LatitudeDegrees>49.51649129390716552734375</LatitudeDegrees>
              <LongitudeDegrees>20.40929191745817661285400390625</LongitudeDegrees>
            </Position>
            <AltitudeMeters>388.20001220703125</AltitudeMeters>
            <DistanceMeters>NAN</DistanceMeters>
          </Trackpoint>
          <Trackpoint>
            <Time>2022-09-22T09:26:24.000Z</Time>
            <Position>
              <LatitudeDegrees>49.516563378274440765380859375</LatitudeDegrees>
              <LongitudeDegrees>20.409347154200077056884765625</LongitudeDegrees>
            </Position>
            <AltitudeMeters>388.399993896484375</AltitudeMeters>
            <DistanceMeters>NAN</DistanceMeters>
          </Trackpoint>
          <Trackpoint>
            <Time>2022-09-22T09:26:26.000Z</Time>
            <Position>
              <LatitudeDegrees>49.5165893621742725372314453125</LatitudeDegrees>
              <LongitudeDegrees>20.40936936624348163604736328125</LongitudeDegrees>
            </Position>
            <AltitudeMeters>388.399993896484375</AltitudeMeters>
            <DistanceMeters>NAN</DistanceMeters>
          </Trackpoint>
          <Trackpoint>
            <Time>2022-09-22T09:26:27.000Z</Time>
            <Position>
              <LatitudeDegrees>49.5166031084954738616943359375</LatitudeDegrees>
              <LongitudeDegrees>20.40937741287052631378173828125</LongitudeDegrees>
            </Position>
            <AltitudeMeters>388.600006103515625</AltitudeMeters>
            <DistanceMeters>NAN</DistanceMeters>
          </Trackpoint>
          <Trackpoint>
            <Time>2022-09-22T09:26:31.000Z</Time>
            <Position>
              <LatitudeDegrees>49.5166725106537342071533203125</LatitudeDegrees>
              <LongitudeDegrees>20.409428291022777557373046875</LongitudeDegrees>
            </Position>
            <AltitudeMeters>388.79998779296875</AltitudeMeters>
            <DistanceMeters>NAN</DistanceMeters>
          </Trackpoint>
          <Trackpoint>
            <Time>2022-09-22T09:26:32.000Z</Time>
            <Position>
              <LatitudeDegrees>49.51668751426041126251220703125</LatitudeDegrees>
              <LongitudeDegrees>20.4094586335122585296630859375</LongitudeDegrees>
            </Position>
            <AltitudeMeters>388.79998779296875</AltitudeMeters>
            <DistanceMeters>NAN</DistanceMeters>
          </Trackpoint>
          <Trackpoint>
            <Time>2022-09-22T09:26:33.000Z</Time>
            <Position>
              <LatitudeDegrees>49.51669455505907535552978515625</LatitudeDegrees>
              <LongitudeDegrees>20.4094958491623401641845703125</LongitudeDegrees>
            </Position>
            <AltitudeMeters>389</AltitudeMeters>
            <DistanceMeters>NAN</DistanceMeters>
          </Trackpoint>
          <Trackpoint>
            <Time>2022-09-22T09:26:36.000Z</Time>
            <Position>
              <LatitudeDegrees>49.5166886039078235626220703125</LatitudeDegrees>
              <LongitudeDegrees>20.4096115194261074066162109375</LongitudeDegrees>
            </Position>
            <AltitudeMeters>389</AltitudeMeters>
            <DistanceMeters>NAN</DistanceMeters>
          </Trackpoint>
          <Trackpoint>
            <Time>2022-09-22T09:26:43.000Z</Time>
            <Position>
              <LatitudeDegrees>49.5166497118771076202392578125</LatitudeDegrees>
              <LongitudeDegrees>20.40991653688251972198486328125</LongitudeDegrees>
            </Position>
            <AltitudeMeters>388.79998779296875</AltitudeMeters>
            <DistanceMeters>NAN</DistanceMeters>
          </Trackpoint>
          <Trackpoint>
            <Time>2022-09-22T09:26:51.000Z</Time>
            <Position>
              <LatitudeDegrees>49.5165866799652576446533203125</LatitudeDegrees>
              <LongitudeDegrees>20.41027486324310302734375</LongitudeDegrees>
            </Position>
            <AltitudeMeters>388.79998779296875</AltitudeMeters>
            <DistanceMeters>NAN</DistanceMeters>
          </Trackpoint>
          <Trackpoint>
            <Time>2022-09-22T09:26:59.000Z</Time>
            <Position>
              <LatitudeDegrees>49.5165202952921390533447265625</LatitudeDegrees>
              <LongitudeDegrees>20.410682223737239837646484375</LongitudeDegrees>
            </Position>
            <AltitudeMeters>388.79998779296875</AltitudeMeters>
            <DistanceMeters>NAN</DistanceMeters>
          </Trackpoint>
          <Trackpoint>
            <Time>2022-09-22T09:27:08.000Z</Time>
            <Position>
              <LatitudeDegrees>49.5164529047906398773193359375</LatitudeDegrees>
              <LongitudeDegrees>20.41110492311418056488037109375</LongitudeDegrees>
            </Position>
            <AltitudeMeters>388.600006103515625</AltitudeMeters>
            <DistanceMeters>NAN</DistanceMeters>
          </Trackpoint>
          <Trackpoint>
            <Time>2022-09-22T09:27:11.000Z</Time>
            <Position>
              <LatitudeDegrees>49.51643471606075763702392578125</LatitudeDegrees>
              <LongitudeDegrees>20.41122813709080219268798828125</LongitudeDegrees>
            </Position>
            <AltitudeMeters>388.600006103515625</AltitudeMeters>
            <DistanceMeters>NAN</DistanceMeters>
          </Trackpoint>
          <Trackpoint>
            <Time>2022-09-22T09:27:15.000Z</Time>
            <Position>
              <LatitudeDegrees>49.516413845121860504150390625</LatitudeDegrees>
              <LongitudeDegrees>20.41142293252050876617431640625</LongitudeDegrees>
            </Position>
            <AltitudeMeters>388.600006103515625</AltitudeMeters>
            <DistanceMeters>NAN</DistanceMeters>
          </Trackpoint>
          <Trackpoint>
            <Time>2022-09-22T09:27:19.000Z</Time>
            <Position>
              <LatitudeDegrees>49.51639465056359767913818359375</LatitudeDegrees>
              <LongitudeDegrees>20.4116325639188289642333984375</LongitudeDegrees>
            </Position>
            <AltitudeMeters>388.399993896484375</AltitudeMeters>
            <DistanceMeters>NAN</DistanceMeters>
          </Trackpoint>
          <Trackpoint>
            <Time>2022-09-22T09:27:26.000Z</Time>
            <Position>
              <LatitudeDegrees>49.5163585245609283447265625</LatitudeDegrees>
              <LongitudeDegrees>20.4120003618299961090087890625</LongitudeDegrees>
            </Position>
            <AltitudeMeters>388.399993896484375</AltitudeMeters>
            <DistanceMeters>NAN</DistanceMeters>
          </Trackpoint>
          <Trackpoint>
            <Time>2022-09-22T09:27:31.000Z</Time>
            <Position>
              <LatitudeDegrees>49.51632566750049591064453125</LatitudeDegrees>
              <LongitudeDegrees>20.41228459216654300689697265625</LongitudeDegrees>
            </Position>
            <AltitudeMeters>388.399993896484375</AltitudeMeters>
            <DistanceMeters>NAN</DistanceMeters>
          </Trackpoint>
          <Trackpoint>
            <Time>2022-09-22T09:27:33.000Z</Time>
            <Position>
              <LatitudeDegrees>49.51631703414022922515869140625</LatitudeDegrees>
              <LongitudeDegrees>20.41240177117288112640380859375</LongitudeDegrees>
            </Position>
            <AltitudeMeters>388.20001220703125</AltitudeMeters>
            <DistanceMeters>NAN</DistanceMeters>
          </Trackpoint>
          <Trackpoint>
            <Time>2022-09-22T09:27:34.000Z</Time>
            <Position>
              <LatitudeDegrees>49.51631200499832630157470703125</LatitudeDegrees>
              <LongitudeDegrees>20.41245742700994014739990234375</LongitudeDegrees>
            </Position>
            <AltitudeMeters>388.20001220703125</AltitudeMeters>
            <DistanceMeters>NAN</DistanceMeters>
          </Trackpoint>
          <Trackpoint>
            <Time>2022-09-22T09:27:39.000Z</Time>
            <Position>
              <LatitudeDegrees>49.51628141105175018310546875</LatitudeDegrees>
              <LongitudeDegrees>20.41277811862528324127197265625</LongitudeDegrees>
            </Position>
            <AltitudeMeters>387.79998779296875</AltitudeMeters>
            <DistanceMeters>NAN</DistanceMeters>
          </Trackpoint>
          <Trackpoint>
            <Time>2022-09-22T09:27:40.000Z</Time>
            <Position>
              <LatitudeDegrees>49.51627311296761035919189453125</LatitudeDegrees>
              <LongitudeDegrees>20.41284467093646526336669921875</LongitudeDegrees>
            </Position>
            <AltitudeMeters>387.79998779296875</AltitudeMeters>
            <DistanceMeters>NAN</DistanceMeters>
          </Trackpoint>
          <Trackpoint>
            <Time>2022-09-22T09:27:47.000Z</Time>
            <Position>
              <LatitudeDegrees>49.51621980406343936920166015625</LatitudeDegrees>
              <LongitudeDegrees>20.4133213497698307037353515625</LongitudeDegrees>
            </Position>
            <AltitudeMeters>388.20001220703125</AltitudeMeters>
            <DistanceMeters>NAN</DistanceMeters>
          </Trackpoint>
          <Trackpoint>
            <Time>2022-09-22T09:27:56.000Z</Time>
            <Position>
              <LatitudeDegrees>49.51615869998931884765625</LatitudeDegrees>
              <LongitudeDegrees>20.41390447877347469329833984375</LongitudeDegrees>
            </Position>
            <AltitudeMeters>388</AltitudeMeters>
            <DistanceMeters>NAN</DistanceMeters>
          </Trackpoint>
          <Trackpoint>
            <Time>2022-09-22T09:27:59.000Z</Time>
            <Position>
              <LatitudeDegrees>49.516145624220371246337890625</LatitudeDegrees>
              <LongitudeDegrees>20.41409105993807315826416015625</LongitudeDegrees>
            </Position>
            <AltitudeMeters>388.20001220703125</AltitudeMeters>
            <DistanceMeters>NAN</DistanceMeters>
          </Trackpoint>
          <Trackpoint>
            <Time>2022-09-22T09:28:03.000Z</Time>
            <Position>
              <LatitudeDegrees>49.516139924526214599609375</LatitudeDegrees>
              <LongitudeDegrees>20.41433681733906269073486328125</LongitudeDegrees>
            </Position>
            <AltitudeMeters>388.600006103515625</AltitudeMeters>
            <DistanceMeters>NAN</DistanceMeters>
          </Trackpoint>
          <Trackpoint>
            <Time>2022-09-22T09:28:12.000Z</Time>
            <Position>
              <LatitudeDegrees>49.5161841809749603271484375</LatitudeDegrees>
              <LongitudeDegrees>20.41492790915071964263916015625</LongitudeDegrees>
            </Position>
            <AltitudeMeters>388.399993896484375</AltitudeMeters>
            <DistanceMeters>NAN</DistanceMeters>
          </Trackpoint>
          <Trackpoint>
            <Time>2022-09-22T09:28:19.000Z</Time>
            <Position>
              <LatitudeDegrees>49.516255594789981842041015625</LatitudeDegrees>
              <LongitudeDegrees>20.41539494879543781280517578125</LongitudeDegrees>
            </Position>
            <AltitudeMeters>387.79998779296875</AltitudeMeters>
            <DistanceMeters>NAN</DistanceMeters>
          </Trackpoint>
          <Trackpoint>
            <Time>2022-09-22T09:28:25.000Z</Time>
            <Position>
              <LatitudeDegrees>49.51633530668914318084716796875</LatitudeDegrees>
              <LongitudeDegrees>20.41571463458240032196044921875</LongitudeDegrees>
            </Position>
            <AltitudeMeters>387.600006103515625</AltitudeMeters>
            <DistanceMeters>NAN</DistanceMeters>
          </Trackpoint>
          <Trackpoint>
            <Time>2022-09-22T09:28:29.000Z</Time>
            <Position>
              <LatitudeDegrees>49.51637537218630313873291015625</LatitudeDegrees>
              <LongitudeDegrees>20.41591010056436061859130859375</LongitudeDegrees>
            </Position>
            <AltitudeMeters>387.600006103515625</AltitudeMeters>
            <DistanceMeters>NAN</DistanceMeters>
          </Trackpoint>
          <Trackpoint>
            <Time>2022-09-22T09:28:35.000Z</Time>
            <Position>
              <LatitudeDegrees>49.51649674214422702789306640625</LatitudeDegrees>
              <LongitudeDegrees>20.41622039861977100372314453125</LongitudeDegrees>
            </Position>
            <AltitudeMeters>387.399993896484375</AltitudeMeters>
            <DistanceMeters>NAN</DistanceMeters>
          </Trackpoint>
          <Trackpoint>
            <Time>2022-09-22T09:28:43.000Z</Time>
            <Position>
              <LatitudeDegrees>49.51671433635056018829345703125</LatitudeDegrees>
              <LongitudeDegrees>20.41661753319203853607177734375</LongitudeDegrees>
            </Position>
            <AltitudeMeters>387.600006103515625</AltitudeMeters>
            <DistanceMeters>NAN</DistanceMeters>
          </Trackpoint>
          <Trackpoint>
            <Time>2022-09-22T09:28:48.000Z</Time>
            <Position>
              <LatitudeDegrees>49.51684995554387569427490234375</LatitudeDegrees>
              <LongitudeDegrees>20.4167951457202434539794921875</LongitudeDegrees>
            </Position>
            <AltitudeMeters>387.20001220703125</AltitudeMeters>
            <DistanceMeters>NAN</DistanceMeters>
          </Trackpoint>
          <Trackpoint>
            <Time>2022-09-22T09:28:50.000Z</Time>
            <Position>
              <LatitudeDegrees>49.51689505018293857574462890625</LatitudeDegrees>
              <LongitudeDegrees>20.4168583452701568603515625</LongitudeDegrees>
            </Position>
            <AltitudeMeters>387</AltitudeMeters>
            <DistanceMeters>NAN</DistanceMeters>
          </Trackpoint>
          <Trackpoint>
            <Time>2022-09-22T09:28:54.000Z</Time>
            <Position>
              <LatitudeDegrees>49.5170144923031330108642578125</LatitudeDegrees>
              <LongitudeDegrees>20.4169919528067111968994140625</LongitudeDegrees>
            </Position>
            <AltitudeMeters>386.79998779296875</AltitudeMeters>
            <DistanceMeters>NAN</DistanceMeters>
          </Trackpoint>
          <Trackpoint>
            <Time>2022-09-22T09:28:59.000Z</Time>
            <Position>
              <LatitudeDegrees>49.51718238182365894317626953125</LatitudeDegrees>
              <LongitudeDegrees>20.41717375628650188446044921875</LongitudeDegrees>
            </Position>
            <AltitudeMeters>386.600006103515625</AltitudeMeters>
            <DistanceMeters>NAN</DistanceMeters>
          </Trackpoint>
          <Trackpoint>
            <Time>2022-09-22T09:29:07.000Z</Time>
            <Position>
              <LatitudeDegrees>49.5174555480480194091796875</LatitudeDegrees>
              <LongitudeDegrees>20.41743393056094646453857421875</LongitudeDegrees>
            </Position>
            <AltitudeMeters>387</AltitudeMeters>
            <DistanceMeters>NAN</DistanceMeters>
          </Trackpoint>
          <Trackpoint>
            <Time>2022-09-22T09:29:13.000Z</Time>
            <Position>
              <LatitudeDegrees>49.51761019416153430938720703125</LatitudeDegrees>
              <LongitudeDegrees>20.4175421409308910369873046875</LongitudeDegrees>
            </Position>
            <AltitudeMeters>386.79998779296875</AltitudeMeters>
            <DistanceMeters>NAN</DistanceMeters>
          </Trackpoint>
          <Trackpoint>
            <Time>2022-09-22T09:29:17.000Z</Time>
            <Position>
              <LatitudeDegrees>49.51771848835051059722900390625</LatitudeDegrees>
              <LongitudeDegrees>20.41760492138564586639404296875</LongitudeDegrees>
            </Position>
            <AltitudeMeters>386.79998779296875</AltitudeMeters>
            <DistanceMeters>NAN</DistanceMeters>
          </Trackpoint>
          <Trackpoint>
            <Time>2022-09-22T09:29:21.000Z</Time>
            <Position>
              <LatitudeDegrees>49.517842121422290802001953125</LatitudeDegrees>
              <LongitudeDegrees>20.41764968074858188629150390625</LongitudeDegrees>
            </Position>
            <AltitudeMeters>386.600006103515625</AltitudeMeters>
            <DistanceMeters>NAN</DistanceMeters>
          </Trackpoint>
          <Trackpoint>
            <Time>2022-09-22T09:29:27.000Z</Time>
            <Position>
              <LatitudeDegrees>49.51807689853012561798095703125</LatitudeDegrees>
              <LongitudeDegrees>20.4177298955619335174560546875</LongitudeDegrees>
            </Position>
            <AltitudeMeters>386.399993896484375</AltitudeMeters>
            <DistanceMeters>NAN</DistanceMeters>
          </Trackpoint>
          <Trackpoint>
            <Time>2022-09-22T09:29:32.000Z</Time>
            <Position>
              <LatitudeDegrees>49.51831963844597339630126953125</LatitudeDegrees>
              <LongitudeDegrees>20.41777255944907665252685546875</LongitudeDegrees>
            </Position>
            <AltitudeMeters>386.600006103515625</AltitudeMeters>
            <DistanceMeters>NAN</DistanceMeters>
          </Trackpoint>
          <Trackpoint>
            <Time>2022-09-22T09:29:34.000Z</Time>
            <Position>
              <LatitudeDegrees>49.5184149406850337982177734375</LatitudeDegrees>
              <LongitudeDegrees>20.417779348790645599365234375</LongitudeDegrees>
            </Position>
            <AltitudeMeters>386.600006103515625</AltitudeMeters>
            <DistanceMeters>NAN</DistanceMeters>
          </Trackpoint>
          <Trackpoint>
            <Time>2022-09-22T09:29:42.000Z</Time>
            <Position>
              <LatitudeDegrees>49.51874024234712123870849609375</LatitudeDegrees>
              <LongitudeDegrees>20.41773878037929534912109375</LongitudeDegrees>
            </Position>
            <AltitudeMeters>386.79998779296875</AltitudeMeters>
            <DistanceMeters>NAN</DistanceMeters>
          </Trackpoint>
          <Trackpoint>
            <Time>2022-09-22T09:29:50.000Z</Time>
            <Position>
              <LatitudeDegrees>49.51908021233975887298583984375</LatitudeDegrees>
              <LongitudeDegrees>20.4176524467766284942626953125</LongitudeDegrees>
            </Position>
            <AltitudeMeters>386.20001220703125</AltitudeMeters>
            <DistanceMeters>NAN</DistanceMeters>
          </Trackpoint>
          <Trackpoint>
            <Time>2022-09-22T09:29:51.000Z</Time>
            <Position>
              <LatitudeDegrees>49.51912664808332920074462890625</LatitudeDegrees>
              <LongitudeDegrees>20.4176390357315540313720703125</LongitudeDegrees>
            </Position>
            <AltitudeMeters>386.399993896484375</AltitudeMeters>
            <DistanceMeters>NAN</DistanceMeters>
          </Trackpoint>
          <Trackpoint>
            <Time>2022-09-22T09:29:56.000Z</Time>
            <Position>
              <LatitudeDegrees>49.51932094059884548187255859375</LatitudeDegrees>
              <LongitudeDegrees>20.4175776802003383636474609375</LongitudeDegrees>
            </Position>
            <AltitudeMeters>386.20001220703125</AltitudeMeters>
            <DistanceMeters>NAN</DistanceMeters>
          </Trackpoint>
          <Trackpoint>
            <Time>2022-09-22T09:30:02.000Z</Time>
            <Position>
              <LatitudeDegrees>49.5195344276726245880126953125</LatitudeDegrees>
              <LongitudeDegrees>20.41753669269382953643798828125</LongitudeDegrees>
            </Position>
            <AltitudeMeters>386.20001220703125</AltitudeMeters>
            <DistanceMeters>NAN</DistanceMeters>
          </Trackpoint>
          <Trackpoint>
            <Time>2022-09-22T09:30:11.000Z</Time>
            <Position>
              <LatitudeDegrees>49.51987833715975284576416015625</LatitudeDegrees>
              <LongitudeDegrees>20.417465530335903167724609375</LongitudeDegrees>
            </Position>
            <AltitudeMeters>386.600006103515625</AltitudeMeters>
            <DistanceMeters>NAN</DistanceMeters>
          </Trackpoint>
          <Trackpoint>
            <Time>2022-09-22T09:30:19.000Z</Time>
            <Position>
              <LatitudeDegrees>49.520166926085948944091796875</LatitudeDegrees>
              <LongitudeDegrees>20.417389757931232452392578125</LongitudeDegrees>
            </Position>
            <AltitudeMeters>387</AltitudeMeters>
            <DistanceMeters>NAN</DistanceMeters>
          </Trackpoint>
          <Trackpoint>
            <Time>2022-09-22T09:30:27.000Z</Time>
            <Position>
              <LatitudeDegrees>49.5204410143196582794189453125</LatitudeDegrees>
              <LongitudeDegrees>20.41733116842806339263916015625</LongitudeDegrees>
            </Position>
            <AltitudeMeters>387.20001220703125</AltitudeMeters>
            <DistanceMeters>NAN</DistanceMeters>
          </Trackpoint>
          <Trackpoint>
            <Time>2022-09-22T09:30:32.000Z</Time>
            <Position>
              <LatitudeDegrees>49.520614854991436004638671875</LatitudeDegrees>
              <LongitudeDegrees>20.4172725789248943328857421875</LongitudeDegrees>
            </Position>
            <AltitudeMeters>387.600006103515625</AltitudeMeters>
            <DistanceMeters>NAN</DistanceMeters>
          </Trackpoint>
          <Trackpoint>
            <Time>2022-09-22T09:30:35.000Z</Time>
            <Position>
              <LatitudeDegrees>49.52070227824151515960693359375</LatitudeDegrees>
              <LongitudeDegrees>20.41723343543708324432373046875</LongitudeDegrees>
            </Position>
            <AltitudeMeters>387.79998779296875</AltitudeMeters>
            <DistanceMeters>NAN</DistanceMeters>
          </Trackpoint>
          <Trackpoint>
            <Time>2022-09-22T09:30:36.000Z</Time>
            <Position>
              <LatitudeDegrees>49.520729519426822662353515625</LatitudeDegrees>
              <LongitudeDegrees>20.4172232933342456817626953125</LongitudeDegrees>
            </Position>
            <AltitudeMeters>387.79998779296875</AltitudeMeters>
            <DistanceMeters>NAN</DistanceMeters>
          </Trackpoint>
          <Trackpoint>
            <Time>2022-09-22T09:30:40.000Z</Time>
            <Position>
              <LatitudeDegrees>49.52082582749426364898681640625</LatitudeDegrees>
              <LongitudeDegrees>20.41720275767147541046142578125</LongitudeDegrees>
            </Position>
            <AltitudeMeters>388.20001220703125</AltitudeMeters>
            <DistanceMeters>NAN</DistanceMeters>
          </Trackpoint>
          <Trackpoint>
            <Time>2022-09-22T09:30:41.000Z</Time>
            <Position>
              <LatitudeDegrees>49.520850218832492828369140625</LatitudeDegrees>
              <LongitudeDegrees>20.4171931184828281402587890625</LongitudeDegrees>
            </Position>
            <AltitudeMeters>388.20001220703125</AltitudeMeters>
            <DistanceMeters>NAN</DistanceMeters>
          </Trackpoint>
          <Trackpoint>
            <Time>2022-09-22T09:30:46.000Z</Time>
            <Position>
              <LatitudeDegrees>49.52099941670894622802734375</LatitudeDegrees>
              <LongitudeDegrees>20.41715263389050960540771484375</LongitudeDegrees>
            </Position>
            <AltitudeMeters>388.20001220703125</AltitudeMeters>
            <DistanceMeters>NAN</DistanceMeters>
          </Trackpoint>
          <Trackpoint>
            <Time>2022-09-22T09:30:50.000Z</Time>
            <Position>
              <LatitudeDegrees>49.52109639532864093780517578125</LatitudeDegrees>
              <LongitudeDegrees>20.4171076230704784393310546875</LongitudeDegrees>
            </Position>
            <AltitudeMeters>388.20001220703125</AltitudeMeters>
            <DistanceMeters>NAN</DistanceMeters>
          </Trackpoint>
          <Trackpoint>
            <Time>2022-09-22T09:30:52.000Z</Time>
            <Position>
              <LatitudeDegrees>49.521141909062862396240234375</LatitudeDegrees>
              <LongitudeDegrees>20.41708222590386867523193359375</LongitudeDegrees>
            </Position>
            <AltitudeMeters>388.20001220703125</AltitudeMeters>
            <DistanceMeters>NAN</DistanceMeters>
          </Trackpoint>
          <Trackpoint>
            <Time>2022-09-22T09:30:55.000Z</Time>
            <Position>
              <LatitudeDegrees>49.5212047733366489410400390625</LatitudeDegrees>
              <LongitudeDegrees>20.4170301742851734161376953125</LongitudeDegrees>
            </Position>
            <AltitudeMeters>388.20001220703125</AltitudeMeters>
            <DistanceMeters>NAN</DistanceMeters>
          </Trackpoint>
          <Trackpoint>
            <Time>2022-09-22T09:30:57.000Z</Time>
            <Position>
              <LatitudeDegrees>49.521245844662189483642578125</LatitudeDegrees>
              <LongitudeDegrees>20.4170013405382633209228515625</LongitudeDegrees>
            </Position>
            <AltitudeMeters>388.20001220703125</AltitudeMeters>
            <DistanceMeters>NAN</DistanceMeters>
          </Trackpoint>
          <Trackpoint>
            <Time>2022-09-22T09:31:00.000Z</Time>
            <Position>
              <LatitudeDegrees>49.5212937891483306884765625</LatitudeDegrees>
              <LongitudeDegrees>20.4169302619993686676025390625</LongitudeDegrees>
            </Position>
            <AltitudeMeters>388.20001220703125</AltitudeMeters>
            <DistanceMeters>NAN</DistanceMeters>
          </Trackpoint>
          <Trackpoint>
            <Time>2022-09-22T09:31:03.000Z</Time>
            <Position>
              <LatitudeDegrees>49.52135170809924602508544921875</LatitudeDegrees>
              <LongitudeDegrees>20.4168541543185710906982421875</LongitudeDegrees>
            </Position>
            <AltitudeMeters>388</AltitudeMeters>
            <DistanceMeters>NAN</DistanceMeters>
          </Trackpoint>
          <Trackpoint>
            <Time>2022-09-22T09:31:07.000Z</Time>
            <Position>
              <LatitudeDegrees>49.521439969539642333984375</LatitudeDegrees>
              <LongitudeDegrees>20.41677326895296573638916015625</LongitudeDegrees>
            </Position>
            <AltitudeMeters>387.399993896484375</AltitudeMeters>
            <DistanceMeters>NAN</DistanceMeters>
          </Trackpoint>
          <Trackpoint>
            <Time>2022-09-22T09:31:16.000Z</Time>
            <Position>
              <LatitudeDegrees>49.52169989235699176788330078125</LatitudeDegrees>
              <LongitudeDegrees>20.416538827121257781982421875</LongitudeDegrees>
            </Position>
            <AltitudeMeters>387</AltitudeMeters>
            <DistanceMeters>NAN</DistanceMeters>
          </Trackpoint>
          <Trackpoint>
            <Time>2022-09-22T09:31:18.000Z</Time>
            <Position>
              <LatitudeDegrees>49.52177315019071102142333984375</LatitudeDegrees>
              <LongitudeDegrees>20.41646967642009258270263671875</LongitudeDegrees>
            </Position>
            <AltitudeMeters>386.79998779296875</AltitudeMeters>
            <DistanceMeters>NAN</DistanceMeters>
          </Trackpoint>
          <Trackpoint>
            <Time>2022-09-22T09:31:19.000Z</Time>
            <Position>
              <LatitudeDegrees>49.5218119584023952484130859375</LatitudeDegrees>
              <LongitudeDegrees>20.41643120348453521728515625</LongitudeDegrees>
            </Position>
            <AltitudeMeters>386.79998779296875</AltitudeMeters>
            <DistanceMeters>NAN</DistanceMeters>
          </Trackpoint>
          <Trackpoint>
            <Time>2022-09-22T09:31:20.000Z</Time>
            <Position>
              <LatitudeDegrees>49.52185160480439662933349609375</LatitudeDegrees>
              <LongitudeDegrees>20.4163864441215991973876953125</LongitudeDegrees>
            </Position>
            <AltitudeMeters>386.600006103515625</AltitudeMeters>
            <DistanceMeters>NAN</DistanceMeters>
          </Trackpoint>
          <Trackpoint>
            <Time>2022-09-22T09:31:21.000Z</Time>
            <Position>
              <LatitudeDegrees>49.52189259231090545654296875</LatitudeDegrees>
              <LongitudeDegrees>20.41633606888353824615478515625</LongitudeDegrees>
            </Position>
            <AltitudeMeters>386.600006103515625</AltitudeMeters>
            <DistanceMeters>NAN</DistanceMeters>
          </Trackpoint>
          <Trackpoint>
            <Time>2022-09-22T09:31:24.000Z</Time>
            <Position>
              <LatitudeDegrees>49.522029049694538116455078125</LatitudeDegrees>
              <LongitudeDegrees>20.416167676448822021484375</LongitudeDegrees>
            </Position>
            <AltitudeMeters>385.79998779296875</AltitudeMeters>
            <DistanceMeters>NAN</DistanceMeters>
          </Trackpoint>
          <Trackpoint>
            <Time>2022-09-22T09:31:26.000Z</Time>
            <Position>
              <LatitudeDegrees>49.52212728559970855712890625</LatitudeDegrees>
              <LongitudeDegrees>20.41604102589190006256103515625</LongitudeDegrees>
            </Position>
            <AltitudeMeters>385.20001220703125</AltitudeMeters>
            <DistanceMeters>NAN</DistanceMeters>
          </Trackpoint>
          <Trackpoint>
            <Time>2022-09-22T09:31:28.000Z</Time>
            <Position>
              <LatitudeDegrees>49.52222711406648159027099609375</LatitudeDegrees>
              <LongitudeDegrees>20.41589283384382724761962890625</LongitudeDegrees>
            </Position>
            <AltitudeMeters>384.399993896484375</AltitudeMeters>
            <DistanceMeters>NAN</DistanceMeters>
          </Trackpoint>
          <Trackpoint>
            <Time>2022-09-22T09:31:31.000Z</Time>
            <Position>
              <LatitudeDegrees>49.5223795808851718902587890625</LatitudeDegrees>
              <LongitudeDegrees>20.4156300611793994903564453125</LongitudeDegrees>
            </Position>
            <AltitudeMeters>383.20001220703125</AltitudeMeters>
            <DistanceMeters>NAN</DistanceMeters>
          </Trackpoint>
          <Trackpoint>
            <Time>2022-09-22T09:31:34.000Z</Time>
            <Position>
              <LatitudeDegrees>49.5225354842841625213623046875</LatitudeDegrees>
              <LongitudeDegrees>20.41533074341714382171630859375</LongitudeDegrees>
            </Position>
            <AltitudeMeters>381.79998779296875</AltitudeMeters>
            <DistanceMeters>NAN</DistanceMeters>
          </Trackpoint>
          <Trackpoint>
            <Time>2022-09-22T09:31:37.000Z</Time>
            <Position>
              <LatitudeDegrees>49.52268443070352077484130859375</LatitudeDegrees>
              <LongitudeDegrees>20.41500384919345378875732421875</LongitudeDegrees>
            </Position>
            <AltitudeMeters>381.20001220703125</AltitudeMeters>
            <DistanceMeters>NAN</DistanceMeters>
          </Trackpoint>
          <Trackpoint>
            <Time>2022-09-22T09:31:38.000Z</Time>
            <Position>
              <LatitudeDegrees>49.52273220755159854888916015625</LatitudeDegrees>
              <LongitudeDegrees>20.41489438153803348541259765625</LongitudeDegrees>
            </Position>
            <AltitudeMeters>380.79998779296875</AltitudeMeters>
            <DistanceMeters>NAN</DistanceMeters>
          </Trackpoint>
          <Trackpoint>
            <Time>2022-09-22T09:31:43.000Z</Time>
            <Position>
              <LatitudeDegrees>49.52295114286243915557861328125</LatitudeDegrees>
              <LongitudeDegrees>20.414380319416522979736328125</LongitudeDegrees>
            </Position>
            <AltitudeMeters>379.600006103515625</AltitudeMeters>
            <DistanceMeters>NAN</DistanceMeters>
          </Trackpoint>
          <Trackpoint>
            <Time>2022-09-22T09:31:44.000Z</Time>
            <Position>
              <LatitudeDegrees>49.5229867659509181976318359375</LatitudeDegrees>
              <LongitudeDegrees>20.41430949233472347259521484375</LongitudeDegrees>
            </Position>
            <AltitudeMeters>379.399993896484375</AltitudeMeters>
            <DistanceMeters>NAN</DistanceMeters>
          </Trackpoint>
          <Trackpoint>
            <Time>2022-09-22T09:31:48.000Z</Time>
            <Position>
              <LatitudeDegrees>49.52309288084506988525390625</LatitudeDegrees>
              <LongitudeDegrees>20.4141005314886569976806640625</LongitudeDegrees>
            </Position>
            <AltitudeMeters>379.20001220703125</AltitudeMeters>
            <DistanceMeters>NAN</DistanceMeters>
          </Trackpoint>
          <Trackpoint>
            <Time>2022-09-22T09:31:51.000Z</Time>
            <Position>
              <LatitudeDegrees>49.52313520945608615875244140625</LatitudeDegrees>
              <LongitudeDegrees>20.41397706605494022369384765625</LongitudeDegrees>
            </Position>
            <AltitudeMeters>379</AltitudeMeters>
            <DistanceMeters>NAN</DistanceMeters>
          </Trackpoint>
          <Trackpoint>
            <Time>2022-09-22T09:31:52.000Z</Time>
            <Position>
              <LatitudeDegrees>49.5231275819242000579833984375</LatitudeDegrees>
              <LongitudeDegrees>20.41392803192138671875</LongitudeDegrees>
            </Position>
            <AltitudeMeters>379</AltitudeMeters>
            <DistanceMeters>NAN</DistanceMeters>
          </Trackpoint>
          <Trackpoint>
            <Time>2022-09-22T09:31:55.000Z</Time>
            <Position>
              <LatitudeDegrees>49.52311576344072818756103515625</LatitudeDegrees>
              <LongitudeDegrees>20.41378243826329708099365234375</LongitudeDegrees>
            </Position>
            <AltitudeMeters>379</AltitudeMeters>
            <DistanceMeters>NAN</DistanceMeters>
          </Trackpoint>
          <Trackpoint>
            <Time>2022-09-22T09:31:56.000Z</Time>
            <Position>
              <LatitudeDegrees>49.52313235960900783538818359375</LatitudeDegrees>
              <LongitudeDegrees>20.41373424232006072998046875</LongitudeDegrees>
            </Position>
            <AltitudeMeters>379</AltitudeMeters>
            <DistanceMeters>NAN</DistanceMeters>
          </Trackpoint>
          <Trackpoint>
            <Time>2022-09-22T09:32:02.000Z</Time>
            <Position>
              <LatitudeDegrees>49.52329329214990139007568359375</LatitudeDegrees>
              <LongitudeDegrees>20.41342034004628658294677734375</LongitudeDegrees>
            </Position>
            <AltitudeMeters>379</AltitudeMeters>
            <DistanceMeters>NAN</DistanceMeters>
          </Trackpoint>
          <Trackpoint>
            <Time>2022-09-22T09:32:09.000Z</Time>
            <Position>
              <LatitudeDegrees>49.52350937761366367340087890625</LatitudeDegrees>
              <LongitudeDegrees>20.413029827177524566650390625</LongitudeDegrees>
            </Position>
            <AltitudeMeters>378.600006103515625</AltitudeMeters>
            <DistanceMeters>NAN</DistanceMeters>
          </Trackpoint>
          <Trackpoint>
            <Time>2022-09-22T09:32:10.000Z</Time>
            <Position>
              <LatitudeDegrees>49.5235362835228443145751953125</LatitudeDegrees>
              <LongitudeDegrees>20.41297257877886295318603515625</LongitudeDegrees>
            </Position>
            <AltitudeMeters>378.600006103515625</AltitudeMeters>
            <DistanceMeters>NAN</DistanceMeters>
          </Trackpoint>
          <Trackpoint>
            <Time>2022-09-22T09:32:15.000Z</Time>
            <Position>
              <LatitudeDegrees>49.52366796322166919708251953125</LatitudeDegrees>
              <LongitudeDegrees>20.41269731707870960235595703125</LongitudeDegrees>
            </Position>
            <AltitudeMeters>378.399993896484375</AltitudeMeters>
            <DistanceMeters>NAN</DistanceMeters>
          </Trackpoint>
          <Trackpoint>
            <Time>2022-09-22T09:32:17.000Z</Time>
            <Position>
              <LatitudeDegrees>49.52372009865939617156982421875</LatitudeDegrees>
              <LongitudeDegrees>20.4125894419848918914794921875</LongitudeDegrees>
            </Position>
            <AltitudeMeters>378.399993896484375</AltitudeMeters>
            <DistanceMeters>NAN</DistanceMeters>
          </Trackpoint>
          <Trackpoint>
            <Time>2022-09-22T09:32:20.000Z</Time>
            <Position>
              <LatitudeDegrees>49.5238034985959529876708984375</LatitudeDegrees>
              <LongitudeDegrees>20.41242557577788829803466796875</LongitudeDegrees>
            </Position>
            <AltitudeMeters>378.20001220703125</AltitudeMeters>
            <DistanceMeters>NAN</DistanceMeters>
          </Trackpoint>
          <Trackpoint>
            <Time>2022-09-22T09:32:22.000Z</Time>
            <Position>
              <LatitudeDegrees>49.52386024408042430877685546875</LatitudeDegrees>
              <LongitudeDegrees>20.4123131744563579559326171875</LongitudeDegrees>
            </Position>
            <AltitudeMeters>378</AltitudeMeters>
            <DistanceMeters>NAN</DistanceMeters>
          </Trackpoint>
          <Trackpoint>
            <Time>2022-09-22T09:32:24.000Z</Time>
            <Position>
              <LatitudeDegrees>49.5239148102700710296630859375</LatitudeDegrees>
              <LongitudeDegrees>20.41221384890377521514892578125</LongitudeDegrees>
            </Position>
            <AltitudeMeters>377.79998779296875</AltitudeMeters>
            <DistanceMeters>NAN</DistanceMeters>
          </Trackpoint>
          <Trackpoint>
            <Time>2022-09-22T09:32:31.000Z</Time>
            <Position>
              <LatitudeDegrees>49.52407666482031345367431640625</LatitudeDegrees>
              <LongitudeDegrees>20.4118746332824230194091796875</LongitudeDegrees>
            </Position>
            <AltitudeMeters>377.600006103515625</AltitudeMeters>
            <DistanceMeters>NAN</DistanceMeters>
          </Trackpoint>
          <Trackpoint>
            <Time>2022-09-22T09:32:34.000Z</Time>
            <Position>
              <LatitudeDegrees>49.524132907390594482421875</LatitudeDegrees>
              <LongitudeDegrees>20.411751754581928253173828125</LongitudeDegrees>
            </Position>
            <AltitudeMeters>377.600006103515625</AltitudeMeters>
            <DistanceMeters>NAN</DistanceMeters>
          </Trackpoint>
          <Trackpoint>
            <Time>2022-09-22T09:32:38.000Z</Time>
            <Position>
              <LatitudeDegrees>49.52420256100594997406005859375</LatitudeDegrees>
              <LongitudeDegrees>20.41161085478961467742919921875</LongitudeDegrees>
            </Position>
            <AltitudeMeters>377</AltitudeMeters>
            <DistanceMeters>NAN</DistanceMeters>
          </Trackpoint>
          <Trackpoint>
            <Time>2022-09-22T09:32:41.000Z</Time>
            <Position>
              <LatitudeDegrees>49.5242370106279850006103515625</LatitudeDegrees>
              <LongitudeDegrees>20.41157196275889873504638671875</LongitudeDegrees>
            </Position>
            <AltitudeMeters>377</AltitudeMeters>
            <DistanceMeters>NAN</DistanceMeters>
          </Trackpoint>
          <Trackpoint>
            <Time>2022-09-22T09:32:42.000Z</Time>
            <Position>
              <LatitudeDegrees>49.52424162067472934722900390625</LatitudeDegrees>
              <LongitudeDegrees>20.41157238185405731201171875</LongitudeDegrees>
            </Position>
            <AltitudeMeters>377</AltitudeMeters>
            <DistanceMeters>NAN</DistanceMeters>
          </Trackpoint>
          <Trackpoint>
            <Time>2022-09-22T09:32:49.000Z</Time>
            <Position>
              <LatitudeDegrees>49.52424162067472934722900390625</LatitudeDegrees>
              <LongitudeDegrees>20.41157238185405731201171875</LongitudeDegrees>
            </Position>
            <AltitudeMeters>377.20001220703125</AltitudeMeters>
            <DistanceMeters>NAN</DistanceMeters>
          </Trackpoint>
          <Trackpoint>
            <Time>2022-09-22T09:32:53.000Z</Time>
            <Position>
              <LatitudeDegrees>49.52424162067472934722900390625</LatitudeDegrees>
              <LongitudeDegrees>20.41157238185405731201171875</LongitudeDegrees>
            </Position>
            <AltitudeMeters>377.399993896484375</AltitudeMeters>
            <DistanceMeters>NAN</DistanceMeters>
          </Trackpoint>
          <Trackpoint>
            <Time>2022-09-22T09:32:56.000Z</Time>
            <Position>
              <LatitudeDegrees>49.52424162067472934722900390625</LatitudeDegrees>
              <LongitudeDegrees>20.41157238185405731201171875</LongitudeDegrees>
            </Position>
            <AltitudeMeters>377.399993896484375</AltitudeMeters>
            <DistanceMeters>NAN</DistanceMeters>
          </Trackpoint>
          <Trackpoint>
            <Time>2022-09-22T09:33:11.000Z</Time>
            <Position>
              <LatitudeDegrees>49.52424162067472934722900390625</LatitudeDegrees>
              <LongitudeDegrees>20.41157238185405731201171875</LongitudeDegrees>
            </Position>
            <AltitudeMeters>377.600006103515625</AltitudeMeters>
            <DistanceMeters>NAN</DistanceMeters>
          </Trackpoint>
          <Trackpoint>
            <Time>2022-09-22T09:33:20.000Z</Time>
            <Position>
              <LatitudeDegrees>49.52424162067472934722900390625</LatitudeDegrees>
              <LongitudeDegrees>20.41157238185405731201171875</LongitudeDegrees>
            </Position>
            <AltitudeMeters>377.79998779296875</AltitudeMeters>
            <DistanceMeters>NAN</DistanceMeters>
          </Trackpoint>
          <Trackpoint>
            <Time>2022-09-22T09:34:21.000Z</Time>
            <Position>
              <LatitudeDegrees>49.5242417044937610626220703125</LatitudeDegrees>
              <LongitudeDegrees>20.4115732200443744659423828125</LongitudeDegrees>
            </Position>
            <AltitudeMeters>377.399993896484375</AltitudeMeters>
            <DistanceMeters>NAN</DistanceMeters>
          </Trackpoint>
          <Trackpoint>
            <Time>2022-09-22T09:34:23.000Z</Time>
            <Position>
              <LatitudeDegrees>49.5242417044937610626220703125</LatitudeDegrees>
              <LongitudeDegrees>20.4115732200443744659423828125</LongitudeDegrees>
            </Position>
            <AltitudeMeters>377.399993896484375</AltitudeMeters>
            <DistanceMeters>NAN</DistanceMeters>
          </Trackpoint>
          <Trackpoint>
            <Time>2022-09-22T09:34:31.000Z</Time>
            <Position>
              <LatitudeDegrees>49.52424245886504650115966796875</LatitudeDegrees>
              <LongitudeDegrees>20.41158067993819713592529296875</LongitudeDegrees>
            </Position>
            <AltitudeMeters>377.399993896484375</AltitudeMeters>
            <DistanceMeters>NAN</DistanceMeters>
          </Trackpoint>
          <Trackpoint>
            <Time>2022-09-22T09:34:40.000Z</Time>
            <Position>
              <LatitudeDegrees>49.52424245886504650115966796875</LatitudeDegrees>
              <LongitudeDegrees>20.41158067993819713592529296875</LongitudeDegrees>
            </Position>
            <AltitudeMeters>377.399993896484375</AltitudeMeters>
            <DistanceMeters>NAN</DistanceMeters>
          </Trackpoint>
          <Trackpoint>
            <Time>2022-09-22T09:34:47.000Z</Time>
            <Position>
              <LatitudeDegrees>49.52424245886504650115966796875</LatitudeDegrees>
              <LongitudeDegrees>20.41158067993819713592529296875</LongitudeDegrees>
            </Position>
            <AltitudeMeters>377.399993896484375</AltitudeMeters>
            <DistanceMeters>NAN</DistanceMeters>
          </Trackpoint>
          <Trackpoint>
            <Time>2022-09-22T09:35:11.000Z</Time>
            <Position>
              <LatitudeDegrees>49.5242383517324924468994140625</LatitudeDegrees>
              <LongitudeDegrees>20.4115735553205013275146484375</LongitudeDegrees>
            </Position>
            <AltitudeMeters>377.399993896484375</AltitudeMeters>
            <DistanceMeters>NAN</DistanceMeters>
          </Trackpoint>
          <Trackpoint>
            <Time>2022-09-22T09:35:27.000Z</Time>
            <Position>
              <LatitudeDegrees>49.52425570227205753326416015625</LatitudeDegrees>
              <LongitudeDegrees>20.41155586950480937957763671875</LongitudeDegrees>
            </Position>
            <AltitudeMeters>377.399993896484375</AltitudeMeters>
            <DistanceMeters>NAN</DistanceMeters>
          </Trackpoint>
          <Trackpoint>
            <Time>2022-09-22T09:35:57.000Z</Time>
            <Position>
              <LatitudeDegrees>49.52425570227205753326416015625</LatitudeDegrees>
              <LongitudeDegrees>20.4115557856857776641845703125</LongitudeDegrees>
            </Position>
            <AltitudeMeters>377.399993896484375</AltitudeMeters>
            <DistanceMeters>NAN</DistanceMeters>
          </Trackpoint>
          <Trackpoint>
            <Time>2022-09-22T09:36:08.000Z</Time>
            <Position>
              <LatitudeDegrees>49.524296186864376068115234375</LatitudeDegrees>
              <LongitudeDegrees>20.41152100078761577606201171875</LongitudeDegrees>
            </Position>
            <AltitudeMeters>377.399993896484375</AltitudeMeters>
            <DistanceMeters>NAN</DistanceMeters>
          </Trackpoint>
          <Trackpoint>
            <Time>2022-09-22T09:36:14.000Z</Time>
            <Position>
              <LatitudeDegrees>49.52433206140995025634765625</LatitudeDegrees>
              <LongitudeDegrees>20.4114376008510589599609375</LongitudeDegrees>
            </Position>
            <AltitudeMeters>377.399993896484375</AltitudeMeters>
            <DistanceMeters>NAN</DistanceMeters>
          </Trackpoint>
          <Trackpoint>
            <Time>2022-09-22T09:36:15.000Z</Time>
            <Position>
              <LatitudeDegrees>49.5243385992944240570068359375</LatitudeDegrees>
              <LongitudeDegrees>20.41142360307276248931884765625</LongitudeDegrees>
            </Position>
            <AltitudeMeters>377.399993896484375</AltitudeMeters>
            <DistanceMeters>NAN</DistanceMeters>
          </Trackpoint>
          <Trackpoint>
            <Time>2022-09-22T09:36:19.000Z</Time>
            <Position>
              <LatitudeDegrees>49.52436625957489013671875</LatitudeDegrees>
              <LongitudeDegrees>20.41135311126708984375</LongitudeDegrees>
            </Position>
            <AltitudeMeters>377.600006103515625</AltitudeMeters>
            <DistanceMeters>NAN</DistanceMeters>
          </Trackpoint>
          <Trackpoint>
            <Time>2022-09-22T09:36:21.000Z</Time>
            <Position>
              <LatitudeDegrees>49.52437908388674259185791015625</LatitudeDegrees>
              <LongitudeDegrees>20.41132964193820953369140625</LongitudeDegrees>
            </Position>
            <AltitudeMeters>377.600006103515625</AltitudeMeters>
            <DistanceMeters>NAN</DistanceMeters>
          </Trackpoint>
          <Trackpoint>
            <Time>2022-09-22T09:36:25.000Z</Time>
            <Position>
              <LatitudeDegrees>49.52440339140594005584716796875</LatitudeDegrees>
              <LongitudeDegrees>20.41127356700599193572998046875</LongitudeDegrees>
            </Position>
            <AltitudeMeters>377.20001220703125</AltitudeMeters>
            <DistanceMeters>NAN</DistanceMeters>
          </Trackpoint>
          <Trackpoint>
            <Time>2022-09-22T09:36:28.000Z</Time>
            <Position>
              <LatitudeDegrees>49.524424932897090911865234375</LatitudeDegrees>
              <LongitudeDegrees>20.411232411861419677734375</LongitudeDegrees>
            </Position>
            <AltitudeMeters>377</AltitudeMeters>
            <DistanceMeters>NAN</DistanceMeters>
          </Trackpoint>
          <Trackpoint>
            <Time>2022-09-22T09:36:35.000Z</Time>
            <Position>
              <LatitudeDegrees>49.5244587957859039306640625</LatitudeDegrees>
              <LongitudeDegrees>20.41113727726042270660400390625</LongitudeDegrees>
            </Position>
            <AltitudeMeters>377.20001220703125</AltitudeMeters>
            <DistanceMeters>NAN</DistanceMeters>
          </Trackpoint>
          <Trackpoint>
            <Time>2022-09-22T09:36:37.000Z</Time>
            <Position>
              <LatitudeDegrees>49.52447631396353244781494140625</LatitudeDegrees>
              <LongitudeDegrees>20.41114582680165767669677734375</LongitudeDegrees>
            </Position>
            <AltitudeMeters>377.20001220703125</AltitudeMeters>
            <DistanceMeters>NAN</DistanceMeters>
          </Trackpoint>
          <Trackpoint>
            <Time>2022-09-22T09:36:42.000Z</Time>
            <Position>
              <LatitudeDegrees>49.52452375553548336029052734375</LatitudeDegrees>
              <LongitudeDegrees>20.41116711683571338653564453125</LongitudeDegrees>
            </Position>
            <AltitudeMeters>377</AltitudeMeters>
            <DistanceMeters>NAN</DistanceMeters>
          </Trackpoint>
          <Trackpoint>
            <Time>2022-09-22T09:36:44.000Z</Time>
            <Position>
              <LatitudeDegrees>49.52453481964766979217529296875</LatitudeDegrees>
              <LongitudeDegrees>20.41115571744740009307861328125</LongitudeDegrees>
            </Position>
            <AltitudeMeters>377</AltitudeMeters>
            <DistanceMeters>NAN</DistanceMeters>
          </Trackpoint>
          <Trackpoint>
            <Time>2022-09-22T09:36:49.000Z</Time>
            <Position>
              <LatitudeDegrees>49.524534232914447784423828125</LatitudeDegrees>
              <LongitudeDegrees>20.41114725172519683837890625</LongitudeDegrees>
            </Position>
            <AltitudeMeters>377.399993896484375</AltitudeMeters>
            <DistanceMeters>NAN</DistanceMeters>
          </Trackpoint>
          <Trackpoint>
            <Time>2022-09-22T09:36:54.000Z</Time>
            <Position>
              <LatitudeDegrees>49.52455812133848667144775390625</LatitudeDegrees>
              <LongitudeDegrees>20.41106007993221282958984375</LongitudeDegrees>
            </Position>
            <AltitudeMeters>377.600006103515625</AltitudeMeters>
            <DistanceMeters>NAN</DistanceMeters>
          </Trackpoint>
          <Trackpoint>
            <Time>2022-09-22T09:36:59.000Z</Time>
            <Position>
              <LatitudeDegrees>49.52464344911277294158935546875</LatitudeDegrees>
              <LongitudeDegrees>20.41088095866143703460693359375</LongitudeDegrees>
            </Position>
            <AltitudeMeters>377.79998779296875</AltitudeMeters>
            <DistanceMeters>NAN</DistanceMeters>
          </Trackpoint>
          <Trackpoint>
            <Time>2022-09-22T09:37:02.000Z</Time>
            <Position>
              <LatitudeDegrees>49.524699188768863677978515625</LatitudeDegrees>
              <LongitudeDegrees>20.41073980741202831268310546875</LongitudeDegrees>
            </Position>
            <AltitudeMeters>377.79998779296875</AltitudeMeters>
            <DistanceMeters>NAN</DistanceMeters>
          </Trackpoint>
          <Trackpoint>
            <Time>2022-09-22T09:37:06.000Z</Time>
            <Position>
              <LatitudeDegrees>49.5247818343341350555419921875</LatitudeDegrees>
              <LongitudeDegrees>20.4105268232524394989013671875</LongitudeDegrees>
            </Position>
            <AltitudeMeters>377.79998779296875</AltitudeMeters>
            <DistanceMeters>NAN</DistanceMeters>
          </Trackpoint>
          <Trackpoint>
            <Time>2022-09-22T09:37:13.000Z</Time>
            <Position>
              <LatitudeDegrees>49.5249135978519916534423828125</LatitudeDegrees>
              <LongitudeDegrees>20.4101674072444438934326171875</LongitudeDegrees>
            </Position>
            <AltitudeMeters>377.79998779296875</AltitudeMeters>
            <DistanceMeters>NAN</DistanceMeters>
          </Trackpoint>
          <Trackpoint>
            <Time>2022-09-22T09:37:16.000Z</Time>
            <Position>
              <LatitudeDegrees>49.5249786414206027984619140625</LatitudeDegrees>
              <LongitudeDegrees>20.410000942647457122802734375</LongitudeDegrees>
            </Position>
            <AltitudeMeters>377.600006103515625</AltitudeMeters>
            <DistanceMeters>NAN</DistanceMeters>
          </Trackpoint>
          <Trackpoint>
            <Time>2022-09-22T09:37:25.000Z</Time>
            <Position>
              <LatitudeDegrees>49.52518274076282978057861328125</LatitudeDegrees>
              <LongitudeDegrees>20.409479252994060516357421875</LongitudeDegrees>
            </Position>
            <AltitudeMeters>377.399993896484375</AltitudeMeters>
            <DistanceMeters>NAN</DistanceMeters>
          </Trackpoint>
          <Trackpoint>
            <Time>2022-09-22T09:37:34.000Z</Time>
            <Position>
              <LatitudeDegrees>49.52540636993944644927978515625</LatitudeDegrees>
              <LongitudeDegrees>20.4089024104177951812744140625</LongitudeDegrees>
            </Position>
            <AltitudeMeters>377.20001220703125</AltitudeMeters>
            <DistanceMeters>NAN</DistanceMeters>
          </Trackpoint>
          <Trackpoint>
            <Time>2022-09-22T09:37:42.000Z</Time>
            <Position>
              <LatitudeDegrees>49.52559580095112323760986328125</LatitudeDegrees>
              <LongitudeDegrees>20.40841114707291126251220703125</LongitudeDegrees>
            </Position>
            <AltitudeMeters>376.399993896484375</AltitudeMeters>
            <DistanceMeters>NAN</DistanceMeters>
          </Trackpoint>
          <Trackpoint>
            <Time>2022-09-22T09:37:43.000Z</Time>
            <Position>
              <LatitudeDegrees>49.5256170071661472320556640625</LatitudeDegrees>
              <LongitudeDegrees>20.40835465304553508758544921875</LongitudeDegrees>
            </Position>
            <AltitudeMeters>376.20001220703125</AltitudeMeters>
            <DistanceMeters>NAN</DistanceMeters>
          </Trackpoint>
          <Trackpoint>
            <Time>2022-09-22T09:37:50.000Z</Time>
            <Position>
              <LatitudeDegrees>49.52576612122356891632080078125</LatitudeDegrees>
              <LongitudeDegrees>20.40799104608595371246337890625</LongitudeDegrees>
            </Position>
            <AltitudeMeters>376</AltitudeMeters>
            <DistanceMeters>NAN</DistanceMeters>
          </Trackpoint>
          <Trackpoint>
            <Time>2022-09-22T09:37:57.000Z</Time>
            <Position>
              <LatitudeDegrees>49.52592604793608188629150390625</LatitudeDegrees>
              <LongitudeDegrees>20.40764017961919307708740234375</LongitudeDegrees>
            </Position>
            <AltitudeMeters>376.399993896484375</AltitudeMeters>
            <DistanceMeters>NAN</DistanceMeters>
          </Trackpoint>
          <Trackpoint>
            <Time>2022-09-22T09:38:03.000Z</Time>
            <Position>
              <LatitudeDegrees>49.5260803587734699249267578125</LatitudeDegrees>
              <LongitudeDegrees>20.40732904337346553802490234375</LongitudeDegrees>
            </Position>
            <AltitudeMeters>376.399993896484375</AltitudeMeters>
            <DistanceMeters>NAN</DistanceMeters>
          </Trackpoint>
          <Trackpoint>
            <Time>2022-09-22T09:38:05.000Z</Time>
            <Position>
              <LatitudeDegrees>49.52613308094441890716552734375</LatitudeDegrees>
              <LongitudeDegrees>20.407241620123386383056640625</LongitudeDegrees>
            </Position>
            <AltitudeMeters>376.20001220703125</AltitudeMeters>
            <DistanceMeters>NAN</DistanceMeters>
          </Trackpoint>
          <Trackpoint>
            <Time>2022-09-22T09:38:15.000Z</Time>
            <Position>
              <LatitudeDegrees>49.52641001902520656585693359375</LatitudeDegrees>
              <LongitudeDegrees>20.4067811183631420135498046875</LongitudeDegrees>
            </Position>
            <AltitudeMeters>376.20001220703125</AltitudeMeters>
            <DistanceMeters>NAN</DistanceMeters>
          </Trackpoint>
          <Trackpoint>
            <Time>2022-09-22T09:38:18.000Z</Time>
            <Position>
              <LatitudeDegrees>49.52652015723288059234619140625</LatitudeDegrees>
              <LongitudeDegrees>20.40668405592441558837890625</LongitudeDegrees>
            </Position>
            <AltitudeMeters>376.399993896484375</AltitudeMeters>
            <DistanceMeters>NAN</DistanceMeters>
          </Trackpoint>
          <Trackpoint>
            <Time>2022-09-22T09:38:24.000Z</Time>
            <Position>
              <LatitudeDegrees>49.52672031708061695098876953125</LatitudeDegrees>
              <LongitudeDegrees>20.4065075330436229705810546875</LongitudeDegrees>
            </Position>
            <AltitudeMeters>376.20001220703125</AltitudeMeters>
            <DistanceMeters>NAN</DistanceMeters>
          </Trackpoint>
          <Trackpoint>
            <Time>2022-09-22T09:38:32.000Z</Time>
            <Position>
              <LatitudeDegrees>49.52700446359813213348388671875</LatitudeDegrees>
              <LongitudeDegrees>20.40631030686199665069580078125</LongitudeDegrees>
            </Position>
            <AltitudeMeters>376.20001220703125</AltitudeMeters>
            <DistanceMeters>NAN</DistanceMeters>
          </Trackpoint>
          <Trackpoint>
            <Time>2022-09-22T09:38:33.000Z</Time>
            <Position>
              <LatitudeDegrees>49.527034051716327667236328125</LatitudeDegrees>
              <LongitudeDegrees>20.40629236958920955657958984375</LongitudeDegrees>
            </Position>
            <AltitudeMeters>376.20001220703125</AltitudeMeters>
            <DistanceMeters>NAN</DistanceMeters>
          </Trackpoint>
          <Trackpoint>
            <Time>2022-09-22T09:38:37.000Z</Time>
            <Position>
              <LatitudeDegrees>49.52718769200146198272705078125</LatitudeDegrees>
              <LongitudeDegrees>20.40621089749038219451904296875</LongitudeDegrees>
            </Position>
            <AltitudeMeters>376.20001220703125</AltitudeMeters>
            <DistanceMeters>NAN</DistanceMeters>
          </Trackpoint>
          <Trackpoint>
            <Time>2022-09-22T09:38:42.000Z</Time>
            <Position>
              <LatitudeDegrees>49.52742733061313629150390625</LatitudeDegrees>
              <LongitudeDegrees>20.40614468045532703399658203125</LongitudeDegrees>
            </Position>
            <AltitudeMeters>376.20001220703125</AltitudeMeters>
            <DistanceMeters>NAN</DistanceMeters>
          </Trackpoint>
          <Trackpoint>
            <Time>2022-09-22T09:38:48.000Z</Time>
            <Position>
              <LatitudeDegrees>49.5277138240635395050048828125</LatitudeDegrees>
              <LongitudeDegrees>20.406090952455997467041015625</LongitudeDegrees>
            </Position>
            <AltitudeMeters>376</AltitudeMeters>
            <DistanceMeters>NAN</DistanceMeters>
          </Trackpoint>
          <Trackpoint>
            <Time>2022-09-22T09:38:52.000Z</Time>
            <Position>
              <LatitudeDegrees>49.52789261005818843841552734375</LatitudeDegrees>
              <LongitudeDegrees>20.40609371848404407501220703125</LongitudeDegrees>
            </Position>
            <AltitudeMeters>376</AltitudeMeters>
            <DistanceMeters>NAN</DistanceMeters>
          </Trackpoint>
          <Trackpoint>
            <Time>2022-09-22T09:38:56.000Z</Time>
            <Position>
              <LatitudeDegrees>49.52807667665183544158935546875</LatitudeDegrees>
              <LongitudeDegrees>20.40609757415950298309326171875</LongitudeDegrees>
            </Position>
            <AltitudeMeters>376</AltitudeMeters>
            <DistanceMeters>NAN</DistanceMeters>
          </Trackpoint>
          <Trackpoint>
            <Time>2022-09-22T09:38:59.000Z</Time>
            <Position>
              <LatitudeDegrees>49.52821564860641956329345703125</LatitudeDegrees>
              <LongitudeDegrees>20.406103022396564483642578125</LongitudeDegrees>
            </Position>
            <AltitudeMeters>376.20001220703125</AltitudeMeters>
            <DistanceMeters>NAN</DistanceMeters>
          </Trackpoint>
          <Trackpoint>
            <Time>2022-09-22T09:39:08.000Z</Time>
            <Position>
              <LatitudeDegrees>49.5285867154598236083984375</LatitudeDegrees>
              <LongitudeDegrees>20.40613462217152118682861328125</LongitudeDegrees>
            </Position>
            <AltitudeMeters>375.79998779296875</AltitudeMeters>
            <DistanceMeters>NAN</DistanceMeters>
          </Trackpoint>
          <Trackpoint>
            <Time>2022-09-22T09:39:17.000Z</Time>
            <Position>
              <LatitudeDegrees>49.52894588001072406768798828125</LatitudeDegrees>
              <LongitudeDegrees>20.4061373881995677947998046875</LongitudeDegrees>
            </Position>
            <AltitudeMeters>375.79998779296875</AltitudeMeters>
            <DistanceMeters>NAN</DistanceMeters>
          </Trackpoint>
          <Trackpoint>
            <Time>2022-09-22T09:39:25.000Z</Time>
            <Position>
              <LatitudeDegrees>49.52931837178766727447509765625</LatitudeDegrees>
              <LongitudeDegrees>20.40613152086734771728515625</LongitudeDegrees>
            </Position>
            <AltitudeMeters>375.79998779296875</AltitudeMeters>
            <DistanceMeters>NAN</DistanceMeters>
          </Trackpoint>
          <Trackpoint>
            <Time>2022-09-22T09:39:29.000Z</Time>
            <Position>
              <LatitudeDegrees>49.529508389532566070556640625</LatitudeDegrees>
              <LongitudeDegrees>20.4061511345207691192626953125</LongitudeDegrees>
            </Position>
            <AltitudeMeters>375.79998779296875</AltitudeMeters>
            <DistanceMeters>NAN</DistanceMeters>
          </Trackpoint>
          <Trackpoint>
            <Time>2022-09-22T09:39:34.000Z</Time>
            <Position>
              <LatitudeDegrees>49.52973444946110248565673828125</LatitudeDegrees>
              <LongitudeDegrees>20.40618005208671092987060546875</LongitudeDegrees>
            </Position>
            <AltitudeMeters>375.79998779296875</AltitudeMeters>
            <DistanceMeters>NAN</DistanceMeters>
          </Trackpoint>
          <Trackpoint>
            <Time>2022-09-22T09:39:38.000Z</Time>
            <Position>
              <LatitudeDegrees>49.52981709502637386322021484375</LatitudeDegrees>
              <LongitudeDegrees>20.40620201267302036285400390625</LongitudeDegrees>
            </Position>
            <AltitudeMeters>375.600006103515625</AltitudeMeters>
            <DistanceMeters>NAN</DistanceMeters>
          </Trackpoint>
          <Trackpoint>
            <Time>2022-09-22T09:39:41.000Z</Time>
            <Position>
              <LatitudeDegrees>49.52982296235859394073486328125</LatitudeDegrees>
              <LongitudeDegrees>20.40620117448270320892333984375</LongitudeDegrees>
            </Position>
            <AltitudeMeters>375.399993896484375</AltitudeMeters>
            <DistanceMeters>NAN</DistanceMeters>
          </Trackpoint>
          <Trackpoint>
            <Time>2022-09-22T09:39:42.000Z</Time>
            <Position>
              <LatitudeDegrees>49.52982849441468715667724609375</LatitudeDegrees>
              <LongitudeDegrees>20.4061930440366268157958984375</LongitudeDegrees>
            </Position>
            <AltitudeMeters>375.399993896484375</AltitudeMeters>
            <DistanceMeters>NAN</DistanceMeters>
          </Trackpoint>
          <Trackpoint>
            <Time>2022-09-22T09:39:45.000Z</Time>
            <Position>
              <LatitudeDegrees>49.529867470264434814453125</LatitudeDegrees>
              <LongitudeDegrees>20.4061350412666797637939453125</LongitudeDegrees>
            </Position>
            <AltitudeMeters>375.399993896484375</AltitudeMeters>
            <DistanceMeters>NAN</DistanceMeters>
          </Trackpoint>
          <Trackpoint>
            <Time>2022-09-22T09:39:47.000Z</Time>
            <Position>
              <LatitudeDegrees>49.52990510500967502593994140625</LatitudeDegrees>
              <LongitudeDegrees>20.40609539486467838287353515625</LongitudeDegrees>
            </Position>
            <AltitudeMeters>375.399993896484375</AltitudeMeters>
            <DistanceMeters>NAN</DistanceMeters>
          </Trackpoint>
          <Trackpoint>
            <Time>2022-09-22T09:39:50.000Z</Time>
            <Position>
              <LatitudeDegrees>49.5299608446657657623291015625</LatitudeDegrees>
              <LongitudeDegrees>20.4060302674770355224609375</LongitudeDegrees>
            </Position>
            <AltitudeMeters>375.600006103515625</AltitudeMeters>
            <DistanceMeters>NAN</DistanceMeters>
          </Trackpoint>
          <Trackpoint>
            <Time>2022-09-22T09:39:52.000Z</Time>
            <Position>
              <LatitudeDegrees>49.53001088462769985198974609375</LatitudeDegrees>
              <LongitudeDegrees>20.40604108013212680816650390625</LongitudeDegrees>
            </Position>
            <AltitudeMeters>375.79998779296875</AltitudeMeters>
            <DistanceMeters>NAN</DistanceMeters>
          </Trackpoint>
          <Trackpoint>
            <Time>2022-09-22T09:39:54.000Z</Time>
            <Position>
              <LatitudeDegrees>49.53006670810282230377197265625</LatitudeDegrees>
              <LongitudeDegrees>20.406044684350490570068359375</LongitudeDegrees>
            </Position>
            <AltitudeMeters>375.79998779296875</AltitudeMeters>
            <DistanceMeters>NAN</DistanceMeters>
          </Trackpoint>
          <Trackpoint>
            <Time>2022-09-22T09:39:58.000Z</Time>
            <Position>
              <LatitudeDegrees>49.530202411115169525146484375</LatitudeDegrees>
              <LongitudeDegrees>20.40606178343296051025390625</LongitudeDegrees>
            </Position>
            <AltitudeMeters>375.79998779296875</AltitudeMeters>
            <DistanceMeters>NAN</DistanceMeters>
          </Trackpoint>
          <Trackpoint>
            <Time>2022-09-22T09:39:59.000Z</Time>
            <Position>
              <LatitudeDegrees>49.53024155460298061370849609375</LatitudeDegrees>
              <LongitudeDegrees>20.40606580674648284912109375</LongitudeDegrees>
            </Position>
            <AltitudeMeters>375.79998779296875</AltitudeMeters>
            <DistanceMeters>NAN</DistanceMeters>
          </Trackpoint>
          <Trackpoint>
            <Time>2022-09-22T09:40:03.000Z</Time>
            <Position>
              <LatitudeDegrees>49.53038656152784824371337890625</LatitudeDegrees>
              <LongitudeDegrees>20.40608097799122333526611328125</LongitudeDegrees>
            </Position>
            <AltitudeMeters>375.399993896484375</AltitudeMeters>
            <DistanceMeters>NAN</DistanceMeters>
          </Trackpoint>
          <Trackpoint>
            <Time>2022-09-22T09:40:06.000Z</Time>
            <Position>
              <LatitudeDegrees>49.53049820847809314727783203125</LatitudeDegrees>
              <LongitudeDegrees>20.40609556250274181365966796875</LongitudeDegrees>
            </Position>
            <AltitudeMeters>375.20001220703125</AltitudeMeters>
            <DistanceMeters>NAN</DistanceMeters>
          </Trackpoint>
          <Trackpoint>
            <Time>2022-09-22T09:40:14.000Z</Time>
            <Position>
              <LatitudeDegrees>49.530758298933506011962890625</LatitudeDegrees>
              <LongitudeDegrees>20.40609262883663177490234375</LongitudeDegrees>
            </Position>
            <AltitudeMeters>375.20001220703125</AltitudeMeters>
            <DistanceMeters>NAN</DistanceMeters>
          </Trackpoint>
          <Trackpoint>
            <Time>2022-09-22T09:40:17.000Z</Time>
            <Position>
              <LatitudeDegrees>49.53084019012749195098876953125</LatitudeDegrees>
              <LongitudeDegrees>20.40609740652143955230712890625</LongitudeDegrees>
            </Position>
            <AltitudeMeters>375</AltitudeMeters>
            <DistanceMeters>NAN</DistanceMeters>
          </Trackpoint>
          <Trackpoint>
            <Time>2022-09-22T09:40:20.000Z</Time>
            <Position>
              <LatitudeDegrees>49.53091043047606945037841796875</LatitudeDegrees>
              <LongitudeDegrees>20.40609799325466156005859375</LongitudeDegrees>
            </Position>
            <AltitudeMeters>375.20001220703125</AltitudeMeters>
            <DistanceMeters>NAN</DistanceMeters>
          </Trackpoint>
          <Trackpoint>
            <Time>2022-09-22T09:40:28.000Z</Time>
            <Position>
              <LatitudeDegrees>49.531132467091083526611328125</LatitudeDegrees>
              <LongitudeDegrees>20.40609531104564666748046875</LongitudeDegrees>
            </Position>
            <AltitudeMeters>375.20001220703125</AltitudeMeters>
            <DistanceMeters>NAN</DistanceMeters>
          </Trackpoint>
          <Trackpoint>
            <Time>2022-09-22T09:40:36.000Z</Time>
            <Position>
              <LatitudeDegrees>49.531415440142154693603515625</LatitudeDegrees>
              <LongitudeDegrees>20.40611064992845058441162109375</LongitudeDegrees>
            </Position>
            <AltitudeMeters>375</AltitudeMeters>
            <DistanceMeters>NAN</DistanceMeters>
          </Trackpoint>
          <Trackpoint>
            <Time>2022-09-22T09:40:43.000Z</Time>
            <Position>
              <LatitudeDegrees>49.53167888335883617401123046875</LatitudeDegrees>
              <LongitudeDegrees>20.4061377234756946563720703125</LongitudeDegrees>
            </Position>
            <AltitudeMeters>375.20001220703125</AltitudeMeters>
            <DistanceMeters>NAN</DistanceMeters>
          </Trackpoint>
          <Trackpoint>
            <Time>2022-09-22T09:40:45.000Z</Time>
            <Position>
              <LatitudeDegrees>49.53174912370741367340087890625</LatitudeDegrees>
              <LongitudeDegrees>20.40614669211208820343017578125</LongitudeDegrees>
            </Position>
            <AltitudeMeters>375</AltitudeMeters>
            <DistanceMeters>NAN</DistanceMeters>
          </Trackpoint>
          <Trackpoint>
            <Time>2022-09-22T09:40:50.000Z</Time>
            <Position>
              <LatitudeDegrees>49.53195179812610149383544921875</LatitudeDegrees>
              <LongitudeDegrees>20.4061685688793659210205078125</LongitudeDegrees>
            </Position>
            <AltitudeMeters>374.600006103515625</AltitudeMeters>
            <DistanceMeters>NAN</DistanceMeters>
          </Trackpoint>
          <Trackpoint>
            <Time>2022-09-22T09:40:51.000Z</Time>
            <Position>
              <LatitudeDegrees>49.53199169598519802093505859375</LatitudeDegrees>
              <LongitudeDegrees>20.40616848506033420562744140625</LongitudeDegrees>
            </Position>
            <AltitudeMeters>374.399993896484375</AltitudeMeters>
            <DistanceMeters>NAN</DistanceMeters>
          </Trackpoint>
          <Trackpoint>
            <Time>2022-09-22T09:41:00.000Z</Time>
            <Position>
              <LatitudeDegrees>49.53233174979686737060546875</LatitudeDegrees>
              <LongitudeDegrees>20.4061940498650074005126953125</LongitudeDegrees>
            </Position>
            <AltitudeMeters>374.399993896484375</AltitudeMeters>
            <DistanceMeters>NAN</DistanceMeters>
          </Trackpoint>
          <Trackpoint>
            <Time>2022-09-22T09:41:02.000Z</Time>
            <Position>
              <LatitudeDegrees>49.53240324743092060089111328125</LatitudeDegrees>
              <LongitudeDegrees>20.40619312785565853118896484375</LongitudeDegrees>
            </Position>
            <AltitudeMeters>374.20001220703125</AltitudeMeters>
            <DistanceMeters>NAN</DistanceMeters>
          </Trackpoint>
          <Trackpoint>
            <Time>2022-09-22T09:41:04.000Z</Time>
            <Position>
              <LatitudeDegrees>49.532469213008880615234375</LatitudeDegrees>
              <LongitudeDegrees>20.4061893559992313385009765625</LongitudeDegrees>
            </Position>
            <AltitudeMeters>374.20001220703125</AltitudeMeters>
            <DistanceMeters>NAN</DistanceMeters>
          </Trackpoint>
          <Trackpoint>
            <Time>2022-09-22T09:41:08.000Z</Time>
            <Position>
              <LatitudeDegrees>49.5325941033661365509033203125</LatitudeDegrees>
              <LongitudeDegrees>20.40618089027702808380126953125</LongitudeDegrees>
            </Position>
            <AltitudeMeters>374.20001220703125</AltitudeMeters>
            <DistanceMeters>NAN</DistanceMeters>
          </Trackpoint>
          <Trackpoint>
            <Time>2022-09-22T09:41:11.000Z</Time>
            <Position>
              <LatitudeDegrees>49.53267096541821956634521484375</LatitudeDegrees>
              <LongitudeDegrees>20.406174100935459136962890625</LongitudeDegrees>
            </Position>
            <AltitudeMeters>374.20001220703125</AltitudeMeters>
            <DistanceMeters>NAN</DistanceMeters>
          </Trackpoint>
          <Trackpoint>
            <Time>2022-09-22T09:41:17.000Z</Time>
            <Position>
              <LatitudeDegrees>49.5328388549387454986572265625</LatitudeDegrees>
              <LongitudeDegrees>20.4061799682676792144775390625</LongitudeDegrees>
            </Position>
            <AltitudeMeters>374.399993896484375</AltitudeMeters>
            <DistanceMeters>NAN</DistanceMeters>
          </Trackpoint>
          <Trackpoint>
            <Time>2022-09-22T09:41:25.000Z</Time>
            <Position>
              <LatitudeDegrees>49.53309877775609493255615234375</LatitudeDegrees>
              <LongitudeDegrees>20.406168065965175628662109375</LongitudeDegrees>
            </Position>
            <AltitudeMeters>374.20001220703125</AltitudeMeters>
            <DistanceMeters>NAN</DistanceMeters>
          </Trackpoint>
          <Trackpoint>
            <Time>2022-09-22T09:41:35.000Z</Time>
            <Position>
              <LatitudeDegrees>49.53338828869163990020751953125</LatitudeDegrees>
              <LongitudeDegrees>20.40616773068904876708984375</LongitudeDegrees>
            </Position>
            <AltitudeMeters>374.20001220703125</AltitudeMeters>
            <DistanceMeters>NAN</DistanceMeters>
          </Trackpoint>
          <Trackpoint>
            <Time>2022-09-22T09:41:43.000Z</Time>
            <Position>
              <LatitudeDegrees>49.53357771970331668853759765625</LatitudeDegrees>
              <LongitudeDegrees>20.4061595164239406585693359375</LongitudeDegrees>
            </Position>
            <AltitudeMeters>373.79998779296875</AltitudeMeters>
            <DistanceMeters>NAN</DistanceMeters>
          </Trackpoint>
          <Trackpoint>
            <Time>2022-09-22T09:41:46.000Z</Time>
            <Position>
              <LatitudeDegrees>49.5336183719336986541748046875</LatitudeDegrees>
              <LongitudeDegrees>20.4061819799244403839111328125</LongitudeDegrees>
            </Position>
            <AltitudeMeters>373.79998779296875</AltitudeMeters>
            <DistanceMeters>NAN</DistanceMeters>
          </Trackpoint>
          <Trackpoint>
            <Time>2022-09-22T09:41:48.000Z</Time>
            <Position>
              <LatitudeDegrees>49.53363656066358089447021484375</LatitudeDegrees>
              <LongitudeDegrees>20.4062175191938877105712890625</LongitudeDegrees>
            </Position>
            <AltitudeMeters>373.79998779296875</AltitudeMeters>
            <DistanceMeters>NAN</DistanceMeters>
          </Trackpoint>
          <Trackpoint>
            <Time>2022-09-22T09:41:53.000Z</Time>
            <Position>
              <LatitudeDegrees>49.53367746435105800628662109375</LatitudeDegrees>
              <LongitudeDegrees>20.406386665999889373779296875</LongitudeDegrees>
            </Position>
            <AltitudeMeters>373.79998779296875</AltitudeMeters>
            <DistanceMeters>NAN</DistanceMeters>
          </Trackpoint>
          <Trackpoint>
            <Time>2022-09-22T09:41:55.000Z</Time>
            <Position>
              <LatitudeDegrees>49.53371040523052215576171875</LatitudeDegrees>
              <LongitudeDegrees>20.406496636569499969482421875</LongitudeDegrees>
            </Position>
            <AltitudeMeters>373.399993896484375</AltitudeMeters>
            <DistanceMeters>NAN</DistanceMeters>
          </Trackpoint>
          <Trackpoint>
            <Time>2022-09-22T09:41:56.000Z</Time>
            <Position>
              <LatitudeDegrees>49.533738903701305389404296875</LatitudeDegrees>
              <LongitudeDegrees>20.40656159631907939910888671875</LongitudeDegrees>
            </Position>
            <AltitudeMeters>373.20001220703125</AltitudeMeters>
            <DistanceMeters>NAN</DistanceMeters>
          </Trackpoint>
          <Trackpoint>
            <Time>2022-09-22T09:41:57.000Z</Time>
            <Position>
              <LatitudeDegrees>49.53376983292400836944580078125</LatitudeDegrees>
              <LongitudeDegrees>20.40662529878318309783935546875</LongitudeDegrees>
            </Position>
            <AltitudeMeters>373</AltitudeMeters>
            <DistanceMeters>NAN</DistanceMeters>
          </Trackpoint>
          <Trackpoint>
            <Time>2022-09-22T09:42:01.000Z</Time>
            <Position>
              <LatitudeDegrees>49.53392070718109607696533203125</LatitudeDegrees>
              <LongitudeDegrees>20.406864099204540252685546875</LongitudeDegrees>
            </Position>
            <AltitudeMeters>372.20001220703125</AltitudeMeters>
            <DistanceMeters>NAN</DistanceMeters>
          </Trackpoint>
          <Trackpoint>
            <Time>2022-09-22T09:42:03.000Z</Time>
            <Position>
              <LatitudeDegrees>49.53399798832833766937255859375</LatitudeDegrees>
              <LongitudeDegrees>20.40697683580219745635986328125</LongitudeDegrees>
            </Position>
            <AltitudeMeters>371.600006103515625</AltitudeMeters>
            <DistanceMeters>NAN</DistanceMeters>
          </Trackpoint>
          <Trackpoint>
            <Time>2022-09-22T09:42:06.000Z</Time>
            <Position>
              <LatitudeDegrees>49.53411332331597805023193359375</LatitudeDegrees>
              <LongitudeDegrees>20.40712905116379261016845703125</LongitudeDegrees>
            </Position>
            <AltitudeMeters>371.20001220703125</AltitudeMeters>
            <DistanceMeters>NAN</DistanceMeters>
          </Trackpoint>
          <Trackpoint>
            <Time>2022-09-22T09:42:09.000Z</Time>
            <Position>
              <LatitudeDegrees>49.53423586674034595489501953125</LatitudeDegrees>
              <LongitudeDegrees>20.40726601146161556243896484375</LongitudeDegrees>
            </Position>
            <AltitudeMeters>371</AltitudeMeters>
            <DistanceMeters>NAN</DistanceMeters>
          </Trackpoint>
          <Trackpoint>
            <Time>2022-09-22T09:42:11.000Z</Time>
            <Position>
              <LatitudeDegrees>49.53430719673633575439453125</LatitudeDegrees>
              <LongitudeDegrees>20.40737329982221126556396484375</LongitudeDegrees>
            </Position>
            <AltitudeMeters>371</AltitudeMeters>
            <DistanceMeters>NAN</DistanceMeters>
          </Trackpoint>
          <Trackpoint>
            <Time>2022-09-22T09:42:17.000Z</Time>
            <Position>
              <LatitudeDegrees>49.53450433909893035888671875</LatitudeDegrees>
              <LongitudeDegrees>20.40772332809865474700927734375</LongitudeDegrees>
            </Position>
            <AltitudeMeters>370.600006103515625</AltitudeMeters>
            <DistanceMeters>NAN</DistanceMeters>
          </Trackpoint>
          <Trackpoint>
            <Time>2022-09-22T09:42:18.000Z</Time>
            <Position>
              <LatitudeDegrees>49.534534513950347900390625</LatitudeDegrees>
              <LongitudeDegrees>20.407779403030872344970703125</LongitudeDegrees>
            </Position>
            <AltitudeMeters>370.399993896484375</AltitudeMeters>
            <DistanceMeters>NAN</DistanceMeters>
          </Trackpoint>
          <Trackpoint>
            <Time>2022-09-22T09:42:20.000Z</Time>
            <Position>
              <LatitudeDegrees>49.53459913842380046844482421875</LatitudeDegrees>
              <LongitudeDegrees>20.40788308717310428619384765625</LongitudeDegrees>
            </Position>
            <AltitudeMeters>370.399993896484375</AltitudeMeters>
            <DistanceMeters>NAN</DistanceMeters>
          </Trackpoint>
          <Trackpoint>
            <Time>2022-09-22T09:42:24.000Z</Time>
            <Position>
              <LatitudeDegrees>49.5347348414361476898193359375</LatitudeDegrees>
              <LongitudeDegrees>20.4080628789961338043212890625</LongitudeDegrees>
            </Position>
            <AltitudeMeters>370.399993896484375</AltitudeMeters>
            <DistanceMeters>NAN</DistanceMeters>
          </Trackpoint>
          <Trackpoint>
            <Time>2022-09-22T09:42:30.000Z</Time>
            <Position>
              <LatitudeDegrees>49.5349708758294582366943359375</LatitudeDegrees>
              <LongitudeDegrees>20.40821635164320468902587890625</LongitudeDegrees>
            </Position>
            <AltitudeMeters>370</AltitudeMeters>
            <DistanceMeters>NAN</DistanceMeters>
          </Trackpoint>
          <Trackpoint>
            <Time>2022-09-22T09:42:31.000Z</Time>
            <Position>
              <LatitudeDegrees>49.5350147970020771026611328125</LatitudeDegrees>
              <LongitudeDegrees>20.4082395695149898529052734375</LongitudeDegrees>
            </Position>
            <AltitudeMeters>370</AltitudeMeters>
            <DistanceMeters>NAN</DistanceMeters>
          </Trackpoint>
          <Trackpoint>
            <Time>2022-09-22T09:42:32.000Z</Time>
            <Position>
              <LatitudeDegrees>49.53505712561309337615966796875</LatitudeDegrees>
              <LongitudeDegrees>20.408249460160732269287109375</LongitudeDegrees>
            </Position>
            <AltitudeMeters>370</AltitudeMeters>
            <DistanceMeters>NAN</DistanceMeters>
          </Trackpoint>
          <Trackpoint>
            <Time>2022-09-22T09:42:37.000Z</Time>
            <Position>
              <LatitudeDegrees>49.5353004522621631622314453125</LatitudeDegrees>
              <LongitudeDegrees>20.4082456044852733612060546875</LongitudeDegrees>
            </Position>
            <AltitudeMeters>370</AltitudeMeters>
            <DistanceMeters>NAN</DistanceMeters>
          </Trackpoint>
          <Trackpoint>
            <Time>2022-09-22T09:42:41.000Z</Time>
            <Position>
              <LatitudeDegrees>49.5354895479977130889892578125</LatitudeDegrees>
              <LongitudeDegrees>20.40825314819812774658203125</LongitudeDegrees>
            </Position>
            <AltitudeMeters>370</AltitudeMeters>
            <DistanceMeters>NAN</DistanceMeters>
          </Trackpoint>
          <Trackpoint>
            <Time>2022-09-22T09:42:43.000Z</Time>
            <Position>
              <LatitudeDegrees>49.53556917607784271240234375</LatitudeDegrees>
              <LongitudeDegrees>20.40827033109962940216064453125</LongitudeDegrees>
            </Position>
            <AltitudeMeters>369.79998779296875</AltitudeMeters>
            <DistanceMeters>NAN</DistanceMeters>
          </Trackpoint>
          <Trackpoint>
            <Time>2022-09-22T09:42:49.000Z</Time>
            <Position>
              <LatitudeDegrees>49.53581870533525943756103515625</LatitudeDegrees>
              <LongitudeDegrees>20.40839706547558307647705078125</LongitudeDegrees>
            </Position>
            <AltitudeMeters>369.79998779296875</AltitudeMeters>
            <DistanceMeters>NAN</DistanceMeters>
          </Trackpoint>
          <Trackpoint>
            <Time>2022-09-22T09:42:53.000Z</Time>
            <Position>
              <LatitudeDegrees>49.53597578220069408416748046875</LatitudeDegrees>
              <LongitudeDegrees>20.40844920091331005096435546875</LongitudeDegrees>
            </Position>
            <AltitudeMeters>369.79998779296875</AltitudeMeters>
            <DistanceMeters>NAN</DistanceMeters>
          </Trackpoint>
          <Trackpoint>
            <Time>2022-09-22T09:42:55.000Z</Time>
            <Position>
              <LatitudeDegrees>49.53606463037431240081787109375</LatitudeDegrees>
              <LongitudeDegrees>20.40844702161848545074462890625</LongitudeDegrees>
            </Position>
            <AltitudeMeters>370</AltitudeMeters>
            <DistanceMeters>NAN</DistanceMeters>
          </Trackpoint>
          <Trackpoint>
            <Time>2022-09-22T09:42:56.000Z</Time>
            <Position>
              <LatitudeDegrees>49.5361118204891681671142578125</LatitudeDegrees>
              <LongitudeDegrees>20.40844283066689968109130859375</LongitudeDegrees>
            </Position>
            <AltitudeMeters>369.79998779296875</AltitudeMeters>
            <DistanceMeters>NAN</DistanceMeters>
          </Trackpoint>
          <Trackpoint>
            <Time>2022-09-22T09:42:59.000Z</Time>
            <Position>
              <LatitudeDegrees>49.5362543128430843353271484375</LatitudeDegrees>
              <LongitudeDegrees>20.4084343649446964263916015625</LongitudeDegrees>
            </Position>
            <AltitudeMeters>369.600006103515625</AltitudeMeters>
            <DistanceMeters>NAN</DistanceMeters>
          </Trackpoint>
          <Trackpoint>
            <Time>2022-09-22T09:43:02.000Z</Time>
            <Position>
              <LatitudeDegrees>49.5363880880177021026611328125</LatitudeDegrees>
              <LongitudeDegrees>20.40841081179678440093994140625</LongitudeDegrees>
            </Position>
            <AltitudeMeters>369.600006103515625</AltitudeMeters>
            <DistanceMeters>NAN</DistanceMeters>
          </Trackpoint>
          <Trackpoint>
            <Time>2022-09-22T09:43:03.000Z</Time>
            <Position>
              <LatitudeDegrees>49.53643393702805042266845703125</LatitudeDegrees>
              <LongitudeDegrees>20.40841550566256046295166015625</LongitudeDegrees>
            </Position>
            <AltitudeMeters>369.600006103515625</AltitudeMeters>
            <DistanceMeters>NAN</DistanceMeters>
          </Trackpoint>
          <Trackpoint>
            <Time>2022-09-22T09:43:07.000Z</Time>
            <Position>
              <LatitudeDegrees>49.53660962171852588653564453125</LatitudeDegrees>
              <LongitudeDegrees>20.40842925198376178741455078125</LongitudeDegrees>
            </Position>
            <AltitudeMeters>369.399993896484375</AltitudeMeters>
            <DistanceMeters>NAN</DistanceMeters>
          </Trackpoint>
          <Trackpoint>
            <Time>2022-09-22T09:43:09.000Z</Time>
            <Position>
              <LatitudeDegrees>49.5366928540170192718505859375</LatitudeDegrees>
              <LongitudeDegrees>20.408417098224163055419921875</LongitudeDegrees>
            </Position>
            <AltitudeMeters>369.399993896484375</AltitudeMeters>
            <DistanceMeters>NAN</DistanceMeters>
          </Trackpoint>
          <Trackpoint>
            <Time>2022-09-22T09:43:10.000Z</Time>
            <Position>
              <LatitudeDegrees>49.53673400916159152984619140625</LatitudeDegrees>
              <LongitudeDegrees>20.4084062017500400543212890625</LongitudeDegrees>
            </Position>
            <AltitudeMeters>369.20001220703125</AltitudeMeters>
            <DistanceMeters>NAN</DistanceMeters>
          </Trackpoint>
          <Trackpoint>
            <Time>2022-09-22T09:43:16.000Z</Time>
            <Position>
              <LatitudeDegrees>49.53695361502468585968017578125</LatitudeDegrees>
              <LongitudeDegrees>20.4083867557346820831298828125</LongitudeDegrees>
            </Position>
            <AltitudeMeters>369</AltitudeMeters>
            <DistanceMeters>NAN</DistanceMeters>
          </Trackpoint>
          <Trackpoint>
            <Time>2022-09-22T09:43:19.000Z</Time>
            <Position>
              <LatitudeDegrees>49.53707565553486347198486328125</LatitudeDegrees>
              <LongitudeDegrees>20.40844048373401165008544921875</LongitudeDegrees>
            </Position>
            <AltitudeMeters>369</AltitudeMeters>
            <DistanceMeters>NAN</DistanceMeters>
          </Trackpoint>
          <Trackpoint>
            <Time>2022-09-22T09:43:22.000Z</Time>
            <Position>
              <LatitudeDegrees>49.537205658853054046630859375</LatitudeDegrees>
              <LongitudeDegrees>20.40844249539077281951904296875</LongitudeDegrees>
            </Position>
            <AltitudeMeters>369</AltitudeMeters>
            <DistanceMeters>NAN</DistanceMeters>
          </Trackpoint>
          <Trackpoint>
            <Time>2022-09-22T09:43:29.000Z</Time>
            <Position>
              <LatitudeDegrees>49.53751671127974987030029296875</LatitudeDegrees>
              <LongitudeDegrees>20.40827862918376922607421875</LongitudeDegrees>
            </Position>
            <AltitudeMeters>368.600006103515625</AltitudeMeters>
            <DistanceMeters>NAN</DistanceMeters>
          </Trackpoint>
          <Trackpoint>
            <Time>2022-09-22T09:43:36.000Z</Time>
            <Position>
              <LatitudeDegrees>49.53780940733850002288818359375</LatitudeDegrees>
              <LongitudeDegrees>20.40816119872033596038818359375</LongitudeDegrees>
            </Position>
            <AltitudeMeters>368.20001220703125</AltitudeMeters>
            <DistanceMeters>NAN</DistanceMeters>
          </Trackpoint>
          <Trackpoint>
            <Time>2022-09-22T09:43:37.000Z</Time>
            <Position>
              <LatitudeDegrees>49.537850059568881988525390625</LatitudeDegrees>
              <LongitudeDegrees>20.408158600330352783203125</LongitudeDegrees>
            </Position>
            <AltitudeMeters>368.20001220703125</AltitudeMeters>
            <DistanceMeters>NAN</DistanceMeters>
          </Trackpoint>
          <Trackpoint>
            <Time>2022-09-22T09:43:41.000Z</Time>
            <Position>
              <LatitudeDegrees>49.538021720945835113525390625</LatitudeDegrees>
              <LongitudeDegrees>20.40818466804921627044677734375</LongitudeDegrees>
            </Position>
            <AltitudeMeters>368</AltitudeMeters>
            <DistanceMeters>NAN</DistanceMeters>
          </Trackpoint>
          <Trackpoint>
            <Time>2022-09-22T09:43:42.000Z</Time>
            <Position>
              <LatitudeDegrees>49.538064636290073394775390625</LatitudeDegrees>
              <LongitudeDegrees>20.40818768553435802459716796875</LongitudeDegrees>
            </Position>
            <AltitudeMeters>368</AltitudeMeters>
            <DistanceMeters>NAN</DistanceMeters>
          </Trackpoint>
          <Trackpoint>
            <Time>2022-09-22T09:43:45.000Z</Time>
            <Position>
              <LatitudeDegrees>49.53818541951477527618408203125</LatitudeDegrees>
              <LongitudeDegrees>20.40816371329128742218017578125</LongitudeDegrees>
            </Position>
            <AltitudeMeters>367.79998779296875</AltitudeMeters>
            <DistanceMeters>NAN</DistanceMeters>
          </Trackpoint>
          <Trackpoint>
            <Time>2022-09-22T09:43:52.000Z</Time>
            <Position>
              <LatitudeDegrees>49.53843805007636547088623046875</LatitudeDegrees>
              <LongitudeDegrees>20.408092550933361053466796875</LongitudeDegrees>
            </Position>
            <AltitudeMeters>367.79998779296875</AltitudeMeters>
            <DistanceMeters>NAN</DistanceMeters>
          </Trackpoint>
          <Trackpoint>
            <Time>2022-09-22T09:44:00.000Z</Time>
            <Position>
              <LatitudeDegrees>49.5387464202940464019775390625</LatitudeDegrees>
              <LongitudeDegrees>20.40807167999446392059326171875</LongitudeDegrees>
            </Position>
            <AltitudeMeters>368</AltitudeMeters>
            <DistanceMeters>NAN</DistanceMeters>
          </Trackpoint>
          <Trackpoint>
            <Time>2022-09-22T09:44:06.000Z</Time>
            <Position>
              <LatitudeDegrees>49.5389623381197452545166015625</LatitudeDegrees>
              <LongitudeDegrees>20.4079596139490604400634765625</LongitudeDegrees>
            </Position>
            <AltitudeMeters>367.79998779296875</AltitudeMeters>
            <DistanceMeters>NAN</DistanceMeters>
          </Trackpoint>
          <Trackpoint>
            <Time>2022-09-22T09:44:12.000Z</Time>
            <Position>
              <LatitudeDegrees>49.53918068669736385345458984375</LatitudeDegrees>
              <LongitudeDegrees>20.40787973441183567047119140625</LongitudeDegrees>
            </Position>
            <AltitudeMeters>367.79998779296875</AltitudeMeters>
            <DistanceMeters>NAN</DistanceMeters>
          </Trackpoint>
          <Trackpoint>
            <Time>2022-09-22T09:44:14.000Z</Time>
            <Position>
              <LatitudeDegrees>49.53924388624727725982666015625</LatitudeDegrees>
              <LongitudeDegrees>20.4078246653079986572265625</LongitudeDegrees>
            </Position>
            <AltitudeMeters>367.79998779296875</AltitudeMeters>
            <DistanceMeters>NAN</DistanceMeters>
          </Trackpoint>
          <Trackpoint>
            <Time>2022-09-22T09:44:21.000Z</Time>
            <Position>
              <LatitudeDegrees>49.539504982531070709228515625</LatitudeDegrees>
              <LongitudeDegrees>20.4077093303203582763671875</LongitudeDegrees>
            </Position>
            <AltitudeMeters>368</AltitudeMeters>
            <DistanceMeters>NAN</DistanceMeters>
          </Trackpoint>
          <Trackpoint>
            <Time>2022-09-22T09:44:24.000Z</Time>
            <Position>
              <LatitudeDegrees>49.539599530398845672607421875</LatitudeDegrees>
              <LongitudeDegrees>20.407690219581127166748046875</LongitudeDegrees>
            </Position>
            <AltitudeMeters>368</AltitudeMeters>
            <DistanceMeters>NAN</DistanceMeters>
          </Trackpoint>
          <Trackpoint>
            <Time>2022-09-22T09:44:31.000Z</Time>
            <Position>
              <LatitudeDegrees>49.53983481042087078094482421875</LatitudeDegrees>
              <LongitudeDegrees>20.40766934864223003387451171875</LongitudeDegrees>
            </Position>
            <AltitudeMeters>367.79998779296875</AltitudeMeters>
            <DistanceMeters>NAN</DistanceMeters>
          </Trackpoint>
          <Trackpoint>
            <Time>2022-09-22T09:44:36.000Z</Time>
            <Position>
              <LatitudeDegrees>49.54000026918947696685791015625</LatitudeDegrees>
              <LongitudeDegrees>20.407644622027873992919921875</LongitudeDegrees>
            </Position>
            <AltitudeMeters>368.20001220703125</AltitudeMeters>
            <DistanceMeters>NAN</DistanceMeters>
          </Trackpoint>
          <Trackpoint>
            <Time>2022-09-22T09:44:41.000Z</Time>
            <Position>
              <LatitudeDegrees>49.5401606149971485137939453125</LatitudeDegrees>
              <LongitudeDegrees>20.40760447271168231964111328125</LongitudeDegrees>
            </Position>
            <AltitudeMeters>368.399993896484375</AltitudeMeters>
            <DistanceMeters>NAN</DistanceMeters>
          </Trackpoint>
          <Trackpoint>
            <Time>2022-09-22T09:44:44.000Z</Time>
            <Position>
              <LatitudeDegrees>49.54024024307727813720703125</LatitudeDegrees>
              <LongitudeDegrees>20.4075993597507476806640625</LongitudeDegrees>
            </Position>
            <AltitudeMeters>368.399993896484375</AltitudeMeters>
            <DistanceMeters>NAN</DistanceMeters>
          </Trackpoint>
          <Trackpoint>
            <Time>2022-09-22T09:44:50.000Z</Time>
            <Position>
              <LatitudeDegrees>49.54041617922484874725341796875</LatitudeDegrees>
              <LongitudeDegrees>20.40755921043455600738525390625</LongitudeDegrees>
            </Position>
            <AltitudeMeters>368.399993896484375</AltitudeMeters>
            <DistanceMeters>NAN</DistanceMeters>
          </Trackpoint>
          <Trackpoint>
            <Time>2022-09-22T09:44:56.000Z</Time>
            <Position>
              <LatitudeDegrees>49.54057292081415653228759765625</LatitudeDegrees>
              <LongitudeDegrees>20.40751243941485881805419921875</LongitudeDegrees>
            </Position>
            <AltitudeMeters>368.399993896484375</AltitudeMeters>
            <DistanceMeters>NAN</DistanceMeters>
          </Trackpoint>
          <Trackpoint>
            <Time>2022-09-22T09:45:02.000Z</Time>
            <Position>
              <LatitudeDegrees>49.54073636792600154876708984375</LatitudeDegrees>
              <LongitudeDegrees>20.40743197314441204071044921875</LongitudeDegrees>
            </Position>
            <AltitudeMeters>368.600006103515625</AltitudeMeters>
            <DistanceMeters>NAN</DistanceMeters>
          </Trackpoint>
          <Trackpoint>
            <Time>2022-09-22T09:45:06.000Z</Time>
            <Position>
              <LatitudeDegrees>49.5407530479133129119873046875</LatitudeDegrees>
              <LongitudeDegrees>20.4072773270308971405029296875</LongitudeDegrees>
            </Position>
            <AltitudeMeters>369.20001220703125</AltitudeMeters>
            <DistanceMeters>NAN</DistanceMeters>
          </Trackpoint>
          <Trackpoint>
            <Time>2022-09-22T09:45:08.000Z</Time>
            <Position>
              <LatitudeDegrees>49.54075078479945659637451171875</LatitudeDegrees>
              <LongitudeDegrees>20.40719845332205295562744140625</LongitudeDegrees>
            </Position>
            <AltitudeMeters>369.399993896484375</AltitudeMeters>
            <DistanceMeters>NAN</DistanceMeters>
          </Trackpoint>
          <Trackpoint>
            <Time>2022-09-22T09:45:15.000Z</Time>
            <Position>
              <LatitudeDegrees>49.54072614200413227081298828125</LatitudeDegrees>
              <LongitudeDegrees>20.40698538534343242645263671875</LongitudeDegrees>
            </Position>
            <AltitudeMeters>369.79998779296875</AltitudeMeters>
            <DistanceMeters>NAN</DistanceMeters>
          </Trackpoint>
          <Trackpoint>
            <Time>2022-09-22T09:45:19.000Z</Time>
            <Position>
              <LatitudeDegrees>49.5407161675393581390380859375</LatitudeDegrees>
              <LongitudeDegrees>20.40694884024560451507568359375</LongitudeDegrees>
            </Position>
            <AltitudeMeters>369.79998779296875</AltitudeMeters>
            <DistanceMeters>NAN</DistanceMeters>
          </Trackpoint>
          <Trackpoint>
            <Time>2022-09-22T09:45:21.000Z</Time>
            <Position>
              <LatitudeDegrees>49.54071365296840667724609375</LatitudeDegrees>
              <LongitudeDegrees>20.40694154798984527587890625</LongitudeDegrees>
            </Position>
            <AltitudeMeters>369.600006103515625</AltitudeMeters>
            <DistanceMeters>NAN</DistanceMeters>
          </Trackpoint>
          <Trackpoint>
            <Time>2022-09-22T09:45:27.000Z</Time>
            <Position>
              <LatitudeDegrees>49.54071122221648693084716796875</LatitudeDegrees>
              <LongitudeDegrees>20.40694917552173137664794921875</LongitudeDegrees>
            </Position>
            <AltitudeMeters>369.79998779296875</AltitudeMeters>
            <DistanceMeters>NAN</DistanceMeters>
          </Trackpoint>
          <Trackpoint>
            <Time>2022-09-22T09:45:33.000Z</Time>
            <Position>
              <LatitudeDegrees>49.54071122221648693084716796875</LatitudeDegrees>
              <LongitudeDegrees>20.40694917552173137664794921875</LongitudeDegrees>
            </Position>
            <AltitudeMeters>369.79998779296875</AltitudeMeters>
            <DistanceMeters>NAN</DistanceMeters>
          </Trackpoint>
          <Trackpoint>
            <Time>2022-09-22T09:45:40.000Z</Time>
            <Position>
              <LatitudeDegrees>49.54071122221648693084716796875</LatitudeDegrees>
              <LongitudeDegrees>20.40694917552173137664794921875</LongitudeDegrees>
            </Position>
            <AltitudeMeters>369.79998779296875</AltitudeMeters>
            <DistanceMeters>NAN</DistanceMeters>
          </Trackpoint>
          <Trackpoint>
            <Time>2022-09-22T09:45:43.000Z</Time>
            <Position>
              <LatitudeDegrees>49.54071122221648693084716796875</LatitudeDegrees>
              <LongitudeDegrees>20.40694917552173137664794921875</LongitudeDegrees>
            </Position>
            <AltitudeMeters>369.79998779296875</AltitudeMeters>
            <DistanceMeters>NAN</DistanceMeters>
          </Trackpoint>
          <Trackpoint>
            <Time>2022-09-22T09:45:47.000Z</Time>
            <Position>
              <LatitudeDegrees>49.54071122221648693084716796875</LatitudeDegrees>
              <LongitudeDegrees>20.40694917552173137664794921875</LongitudeDegrees>
            </Position>
            <AltitudeMeters>369.79998779296875</AltitudeMeters>
            <DistanceMeters>NAN</DistanceMeters>
          </Trackpoint>
          <Trackpoint>
            <Time>2022-09-22T09:45:57.000Z</Time>
            <Position>
              <LatitudeDegrees>49.54071122221648693084716796875</LatitudeDegrees>
              <LongitudeDegrees>20.40694917552173137664794921875</LongitudeDegrees>
            </Position>
            <AltitudeMeters>369.600006103515625</AltitudeMeters>
            <DistanceMeters>NAN</DistanceMeters>
          </Trackpoint>
          <Trackpoint>
            <Time>2022-09-22T09:46:01.000Z</Time>
            <Position>
              <LatitudeDegrees>49.5407076179981231689453125</LatitudeDegrees>
              <LongitudeDegrees>20.40692545473575592041015625</LongitudeDegrees>
            </Position>
            <AltitudeMeters>369.600006103515625</AltitudeMeters>
            <DistanceMeters>NAN</DistanceMeters>
          </Trackpoint>
          <Trackpoint>
            <Time>2022-09-22T09:46:03.000Z</Time>
            <Position>
              <LatitudeDegrees>49.540703259408473968505859375</LatitudeDegrees>
              <LongitudeDegrees>20.40688161738216876983642578125</LongitudeDegrees>
            </Position>
            <AltitudeMeters>369.79998779296875</AltitudeMeters>
            <DistanceMeters>NAN</DistanceMeters>
          </Trackpoint>
          <Trackpoint>
            <Time>2022-09-22T09:46:09.000Z</Time>
            <Position>
              <LatitudeDegrees>49.5406668819487094879150390625</LatitudeDegrees>
              <LongitudeDegrees>20.40670006535947322845458984375</LongitudeDegrees>
            </Position>
            <AltitudeMeters>369.79998779296875</AltitudeMeters>
            <DistanceMeters>NAN</DistanceMeters>
          </Trackpoint>
          <Trackpoint>
            <Time>2022-09-22T09:46:14.000Z</Time>
            <Position>
              <LatitudeDegrees>49.540619440376758575439453125</LatitudeDegrees>
              <LongitudeDegrees>20.406506694853305816650390625</LongitudeDegrees>
            </Position>
            <AltitudeMeters>369.600006103515625</AltitudeMeters>
            <DistanceMeters>NAN</DistanceMeters>
          </Trackpoint>
          <Trackpoint>
            <Time>2022-09-22T09:46:23.000Z</Time>
            <Position>
              <LatitudeDegrees>49.54056336544454097747802734375</LatitudeDegrees>
              <LongitudeDegrees>20.4061769507825374603271484375</LongitudeDegrees>
            </Position>
            <AltitudeMeters>370</AltitudeMeters>
            <DistanceMeters>NAN</DistanceMeters>
          </Trackpoint>
          <Trackpoint>
            <Time>2022-09-22T09:46:24.000Z</Time>
            <Position>
              <LatitudeDegrees>49.540557079017162322998046875</LatitudeDegrees>
              <LongitudeDegrees>20.40613562799990177154541015625</LongitudeDegrees>
            </Position>
            <AltitudeMeters>370</AltitudeMeters>
            <DistanceMeters>NAN</DistanceMeters>
          </Trackpoint>
          <Trackpoint>
            <Time>2022-09-22T09:46:27.000Z</Time>
            <Position>
              <LatitudeDegrees>49.54051961190998554229736328125</LatitudeDegrees>
              <LongitudeDegrees>20.4060213826596736907958984375</LongitudeDegrees>
            </Position>
            <AltitudeMeters>370.399993896484375</AltitudeMeters>
            <DistanceMeters>NAN</DistanceMeters>
          </Trackpoint>
          <Trackpoint>
            <Time>2022-09-22T09:46:29.000Z</Time>
            <Position>
              <LatitudeDegrees>49.540486671030521392822265625</LatitudeDegrees>
              <LongitudeDegrees>20.405971594154834747314453125</LongitudeDegrees>
            </Position>
            <AltitudeMeters>370.79998779296875</AltitudeMeters>
            <DistanceMeters>NAN</DistanceMeters>
          </Trackpoint>
          <Trackpoint>
            <Time>2022-09-22T09:46:32.000Z</Time>
            <Position>
              <LatitudeDegrees>49.54044098965823650360107421875</LatitudeDegrees>
              <LongitudeDegrees>20.40596648119390010833740234375</LongitudeDegrees>
            </Position>
            <AltitudeMeters>371.20001220703125</AltitudeMeters>
            <DistanceMeters>NAN</DistanceMeters>
          </Trackpoint>
          <Trackpoint>
            <Time>2022-09-22T09:46:33.000Z</Time>
            <Position>
              <LatitudeDegrees>49.54044115729629993438720703125</LatitudeDegrees>
              <LongitudeDegrees>20.4059875197708606719970703125</LongitudeDegrees>
            </Position>
            <AltitudeMeters>371.399993896484375</AltitudeMeters>
            <DistanceMeters>NAN</DistanceMeters>
          </Trackpoint>
          <Trackpoint>
            <Time>2022-09-22T09:46:37.000Z</Time>
            <Position>
              <LatitudeDegrees>49.540467895567417144775390625</LatitudeDegrees>
              <LongitudeDegrees>20.40615490637719631195068359375</LongitudeDegrees>
            </Position>
            <AltitudeMeters>371.20001220703125</AltitudeMeters>
            <DistanceMeters>NAN</DistanceMeters>
          </Trackpoint>
          <Trackpoint>
            <Time>2022-09-22T09:46:38.000Z</Time>
            <Position>
              <LatitudeDegrees>49.54047887586057186126708984375</LatitudeDegrees>
              <LongitudeDegrees>20.4062061198055744171142578125</LongitudeDegrees>
            </Position>
            <AltitudeMeters>371.20001220703125</AltitudeMeters>
            <DistanceMeters>NAN</DistanceMeters>
          </Trackpoint>
          <Trackpoint>
            <Time>2022-09-22T09:46:49.000Z</Time>
            <Position>
              <LatitudeDegrees>49.540581889450550079345703125</LatitudeDegrees>
              <LongitudeDegrees>20.40671532042324542999267578125</LongitudeDegrees>
            </Position>
            <AltitudeMeters>371</AltitudeMeters>
            <DistanceMeters>NAN</DistanceMeters>
          </Trackpoint>
          <Trackpoint>
            <Time>2022-09-22T09:46:52.000Z</Time>
            <Position>
              <LatitudeDegrees>49.54060778953135013580322265625</LatitudeDegrees>
              <LongitudeDegrees>20.406872816383838653564453125</LongitudeDegrees>
            </Position>
            <AltitudeMeters>371.600006103515625</AltitudeMeters>
            <DistanceMeters>NAN</DistanceMeters>
          </Trackpoint>
          <Trackpoint>
            <Time>2022-09-22T09:46:56.000Z</Time>
            <Position>
              <LatitudeDegrees>49.5406350307166576385498046875</LatitudeDegrees>
              <LongitudeDegrees>20.407068617641925811767578125</LongitudeDegrees>
            </Position>
            <AltitudeMeters>372.79998779296875</AltitudeMeters>
            <DistanceMeters>NAN</DistanceMeters>
          </Trackpoint>
          <Trackpoint>
            <Time>2022-09-22T09:46:58.000Z</Time>
            <Position>
              <LatitudeDegrees>49.54064182005822658538818359375</LatitudeDegrees>
              <LongitudeDegrees>20.4071539454162120819091796875</LongitudeDegrees>
            </Position>
            <AltitudeMeters>373.20001220703125</AltitudeMeters>
            <DistanceMeters>NAN</DistanceMeters>
          </Trackpoint>
          <Trackpoint>
            <Time>2022-09-22T09:47:02.000Z</Time>
            <Position>
              <LatitudeDegrees>49.54064098186790943145751953125</LatitudeDegrees>
              <LongitudeDegrees>20.40731110610067844390869140625</LongitudeDegrees>
            </Position>
            <AltitudeMeters>373.79998779296875</AltitudeMeters>
            <DistanceMeters>NAN</DistanceMeters>
          </Trackpoint>
          <Trackpoint>
            <Time>2022-09-22T09:47:04.000Z</Time>
            <Position>
              <LatitudeDegrees>49.5406373776495456695556640625</LatitudeDegrees>
              <LongitudeDegrees>20.407381094992160797119140625</LongitudeDegrees>
            </Position>
            <AltitudeMeters>374</AltitudeMeters>
            <DistanceMeters>NAN</DistanceMeters>
          </Trackpoint>
          <Trackpoint>
            <Time>2022-09-22T09:47:09.000Z</Time>
            <Position>
              <LatitudeDegrees>49.54063427634537220001220703125</LatitudeDegrees>
              <LongitudeDegrees>20.407589972019195556640625</LongitudeDegrees>
            </Position>
            <AltitudeMeters>374.399993896484375</AltitudeMeters>
            <DistanceMeters>NAN</DistanceMeters>
          </Trackpoint>
          <Trackpoint>
            <Time>2022-09-22T09:47:12.000Z</Time>
            <Position>
              <LatitudeDegrees>49.54063452780246734619140625</LatitudeDegrees>
              <LongitudeDegrees>20.40769918821752071380615234375</LongitudeDegrees>
            </Position>
            <AltitudeMeters>374.399993896484375</AltitudeMeters>
            <DistanceMeters>NAN</DistanceMeters>
          </Trackpoint>
          <Trackpoint>
            <Time>2022-09-22T09:47:15.000Z</Time>
            <Position>
              <LatitudeDegrees>49.54063318669795989990234375</LatitudeDegrees>
              <LongitudeDegrees>20.407711677253246307373046875</LongitudeDegrees>
            </Position>
            <AltitudeMeters>374.600006103515625</AltitudeMeters>
            <DistanceMeters>NAN</DistanceMeters>
          </Trackpoint>
          <Trackpoint>
            <Time>2022-09-22T09:47:20.000Z</Time>
            <Position>
              <LatitudeDegrees>49.54063318669795989990234375</LatitudeDegrees>
              <LongitudeDegrees>20.407711677253246307373046875</LongitudeDegrees>
            </Position>
            <AltitudeMeters>374.600006103515625</AltitudeMeters>
            <DistanceMeters>NAN</DistanceMeters>
          </Trackpoint>
          <Trackpoint>
            <Time>2022-09-22T09:47:26.000Z</Time>
            <Position>
              <LatitudeDegrees>49.54063318669795989990234375</LatitudeDegrees>
              <LongitudeDegrees>20.407711677253246307373046875</LongitudeDegrees>
            </Position>
            <AltitudeMeters>374.399993896484375</AltitudeMeters>
            <DistanceMeters>NAN</DistanceMeters>
          </Trackpoint>
          <Trackpoint>
            <Time>2022-09-22T09:47:31.000Z</Time>
            <Position>
              <LatitudeDegrees>49.54063318669795989990234375</LatitudeDegrees>
              <LongitudeDegrees>20.407711677253246307373046875</LongitudeDegrees>
            </Position>
            <AltitudeMeters>374.399993896484375</AltitudeMeters>
            <DistanceMeters>NAN</DistanceMeters>
          </Trackpoint>
          <Trackpoint>
            <Time>2022-09-22T09:47:32.000Z</Time>
            <Position>
              <LatitudeDegrees>49.54063394106924533843994140625</LatitudeDegrees>
              <LongitudeDegrees>20.4077148623764514923095703125</LongitudeDegrees>
            </Position>
            <AltitudeMeters>374.399993896484375</AltitudeMeters>
            <DistanceMeters>NAN</DistanceMeters>
          </Trackpoint>
          <Trackpoint>
            <Time>2022-09-22T09:47:34.000Z</Time>
            <Position>
              <LatitudeDegrees>49.54063897021114826202392578125</LatitudeDegrees>
              <LongitudeDegrees>20.40777496062219142913818359375</LongitudeDegrees>
            </Position>
            <AltitudeMeters>374.600006103515625</AltitudeMeters>
            <DistanceMeters>NAN</DistanceMeters>
          </Trackpoint>
          <Trackpoint>
            <Time>2022-09-22T09:47:39.000Z</Time>
            <Position>
              <LatitudeDegrees>49.54065120778977870941162109375</LatitudeDegrees>
              <LongitudeDegrees>20.4080176167190074920654296875</LongitudeDegrees>
            </Position>
            <AltitudeMeters>374.79998779296875</AltitudeMeters>
            <DistanceMeters>NAN</DistanceMeters>
          </Trackpoint>
          <Trackpoint>
            <Time>2022-09-22T09:47:46.000Z</Time>
            <Position>
              <LatitudeDegrees>49.54064768739044666290283203125</LatitudeDegrees>
              <LongitudeDegrees>20.4083153419196605682373046875</LongitudeDegrees>
            </Position>
            <AltitudeMeters>374.79998779296875</AltitudeMeters>
            <DistanceMeters>NAN</DistanceMeters>
          </Trackpoint>
          <Trackpoint>
            <Time>2022-09-22T09:47:50.000Z</Time>
            <Position>
              <LatitudeDegrees>49.540638215839862823486328125</LatitudeDegrees>
              <LongitudeDegrees>20.40837124921381473541259765625</LongitudeDegrees>
            </Position>
            <AltitudeMeters>374.79998779296875</AltitudeMeters>
            <DistanceMeters>NAN</DistanceMeters>
          </Trackpoint>
          <Trackpoint>
            <Time>2022-09-22T09:47:59.000Z</Time>
            <Position>
              <LatitudeDegrees>49.54064282588660717010498046875</LatitudeDegrees>
              <LongitudeDegrees>20.40836622007191181182861328125</LongitudeDegrees>
            </Position>
            <AltitudeMeters>374.600006103515625</AltitudeMeters>
            <DistanceMeters>NAN</DistanceMeters>
          </Trackpoint>
          <Trackpoint>
            <Time>2022-09-22T09:48:09.000Z</Time>
            <Position>
              <LatitudeDegrees>49.54064249061048030853271484375</LatitudeDegrees>
              <LongitudeDegrees>20.40836513042449951171875</LongitudeDegrees>
            </Position>
            <AltitudeMeters>374.79998779296875</AltitudeMeters>
            <DistanceMeters>NAN</DistanceMeters>
          </Trackpoint>
          <Trackpoint>
            <Time>2022-09-22T09:48:10.000Z</Time>
            <Position>
              <LatitudeDegrees>49.54064249061048030853271484375</LatitudeDegrees>
              <LongitudeDegrees>20.40836513042449951171875</LongitudeDegrees>
            </Position>
            <AltitudeMeters>374.79998779296875</AltitudeMeters>
            <DistanceMeters>NAN</DistanceMeters>
          </Trackpoint>
          <Trackpoint>
            <Time>2022-09-22T09:48:21.000Z</Time>
            <Position>
              <LatitudeDegrees>49.5406393893063068389892578125</LatitudeDegrees>
              <LongitudeDegrees>20.40835507214069366455078125</LongitudeDegrees>
            </Position>
            <AltitudeMeters>374.79998779296875</AltitudeMeters>
            <DistanceMeters>NAN</DistanceMeters>
          </Trackpoint>
          <Trackpoint>
            <Time>2022-09-22T09:48:25.000Z</Time>
            <Position>
              <LatitudeDegrees>49.5406393893063068389892578125</LatitudeDegrees>
              <LongitudeDegrees>20.40835507214069366455078125</LongitudeDegrees>
            </Position>
            <AltitudeMeters>374.79998779296875</AltitudeMeters>
            <DistanceMeters>NAN</DistanceMeters>
          </Trackpoint>
          <Trackpoint>
            <Time>2022-09-22T09:48:30.000Z</Time>
            <Position>
              <LatitudeDegrees>49.5406393893063068389892578125</LatitudeDegrees>
              <LongitudeDegrees>20.40835507214069366455078125</LongitudeDegrees>
            </Position>
            <AltitudeMeters>374.79998779296875</AltitudeMeters>
            <DistanceMeters>NAN</DistanceMeters>
          </Trackpoint>
          <Trackpoint>
            <Time>2022-09-22T09:48:34.000Z</Time>
            <Position>
              <LatitudeDegrees>49.5406393893063068389892578125</LatitudeDegrees>
              <LongitudeDegrees>20.40835507214069366455078125</LongitudeDegrees>
            </Position>
            <AltitudeMeters>374.79998779296875</AltitudeMeters>
            <DistanceMeters>NAN</DistanceMeters>
          </Trackpoint>
          <Trackpoint>
            <Time>2022-09-22T09:48:42.000Z</Time>
            <Position>
              <LatitudeDegrees>49.5406393893063068389892578125</LatitudeDegrees>
              <LongitudeDegrees>20.40835507214069366455078125</LongitudeDegrees>
            </Position>
            <AltitudeMeters>374.79998779296875</AltitudeMeters>
            <DistanceMeters>NAN</DistanceMeters>
          </Trackpoint>
          <Trackpoint>
            <Time>2022-09-22T09:48:47.000Z</Time>
            <Position>
              <LatitudeDegrees>49.5406393893063068389892578125</LatitudeDegrees>
              <LongitudeDegrees>20.40835507214069366455078125</LongitudeDegrees>
            </Position>
            <AltitudeMeters>374.79998779296875</AltitudeMeters>
            <DistanceMeters>NAN</DistanceMeters>
          </Trackpoint>
          <Trackpoint>
            <Time>2022-09-22T09:48:54.000Z</Time>
            <Position>
              <LatitudeDegrees>49.5406393893063068389892578125</LatitudeDegrees>
              <LongitudeDegrees>20.40835507214069366455078125</LongitudeDegrees>
            </Position>
            <AltitudeMeters>374.79998779296875</AltitudeMeters>
            <DistanceMeters>NAN</DistanceMeters>
          </Trackpoint>
          <Trackpoint>
            <Time>2022-09-22T09:49:17.000Z</Time>
            <Position>
              <LatitudeDegrees>49.5406393893063068389892578125</LatitudeDegrees>
              <LongitudeDegrees>20.40835507214069366455078125</LongitudeDegrees>
            </Position>
            <AltitudeMeters>374.79998779296875</AltitudeMeters>
            <DistanceMeters>NAN</DistanceMeters>
          </Trackpoint>
          <Trackpoint>
            <Time>2022-09-22T09:49:48.000Z</Time>
            <Position>
              <LatitudeDegrees>49.5406393893063068389892578125</LatitudeDegrees>
              <LongitudeDegrees>20.40835507214069366455078125</LongitudeDegrees>
            </Position>
            <AltitudeMeters>374.79998779296875</AltitudeMeters>
            <DistanceMeters>NAN</DistanceMeters>
          </Trackpoint>
          <Trackpoint>
            <Time>2022-09-22T09:49:58.000Z</Time>
            <Position>
              <LatitudeDegrees>49.5406393893063068389892578125</LatitudeDegrees>
              <LongitudeDegrees>20.40835507214069366455078125</LongitudeDegrees>
            </Position>
            <AltitudeMeters>374.79998779296875</AltitudeMeters>
            <DistanceMeters>NAN</DistanceMeters>
          </Trackpoint>
          <Trackpoint>
            <Time>2022-09-22T09:50:08.000Z</Time>
            <Position>
              <LatitudeDegrees>49.5406340248882770538330078125</LatitudeDegrees>
              <LongitudeDegrees>20.4083639569580554962158203125</LongitudeDegrees>
            </Position>
            <AltitudeMeters>374.79998779296875</AltitudeMeters>
            <DistanceMeters>NAN</DistanceMeters>
          </Trackpoint>
          <Trackpoint>
            <Time>2022-09-22T09:50:16.000Z</Time>
            <Position>
              <LatitudeDegrees>49.540634192526340484619140625</LatitudeDegrees>
              <LongitudeDegrees>20.40839404799044132232666015625</LongitudeDegrees>
            </Position>
            <AltitudeMeters>374.79998779296875</AltitudeMeters>
            <DistanceMeters>NAN</DistanceMeters>
          </Trackpoint>
          <Trackpoint>
            <Time>2022-09-22T09:50:18.000Z</Time>
            <Position>
              <LatitudeDegrees>49.54063343815505504608154296875</LatitudeDegrees>
              <LongitudeDegrees>20.40846093557775020599365234375</LongitudeDegrees>
            </Position>
            <AltitudeMeters>374.79998779296875</AltitudeMeters>
            <DistanceMeters>NAN</DistanceMeters>
          </Trackpoint>
          <Trackpoint>
            <Time>2022-09-22T09:50:23.000Z</Time>
            <Position>
              <LatitudeDegrees>49.54062505625188350677490234375</LatitudeDegrees>
              <LongitudeDegrees>20.4086901806294918060302734375</LongitudeDegrees>
            </Position>
            <AltitudeMeters>374.600006103515625</AltitudeMeters>
            <DistanceMeters>NAN</DistanceMeters>
          </Trackpoint>
          <Trackpoint>
            <Time>2022-09-22T09:50:30.000Z</Time>
            <Position>
              <LatitudeDegrees>49.540624134242534637451171875</LatitudeDegrees>
              <LongitudeDegrees>20.40901514701545238494873046875</LongitudeDegrees>
            </Position>
            <AltitudeMeters>374.399993896484375</AltitudeMeters>
            <DistanceMeters>NAN</DistanceMeters>
          </Trackpoint>
          <Trackpoint>
            <Time>2022-09-22T09:50:38.000Z</Time>
            <Position>
              <LatitudeDegrees>49.54065003432333469390869140625</LatitudeDegrees>
              <LongitudeDegrees>20.409361235797405242919921875</LongitudeDegrees>
            </Position>
            <AltitudeMeters>374</AltitudeMeters>
            <DistanceMeters>NAN</DistanceMeters>
          </Trackpoint>
          <Trackpoint>
            <Time>2022-09-22T09:50:39.000Z</Time>
            <Position>
              <LatitudeDegrees>49.54067568294703960418701171875</LatitudeDegrees>
              <LongitudeDegrees>20.40939384140074253082275390625</LongitudeDegrees>
            </Position>
            <AltitudeMeters>373.79998779296875</AltitudeMeters>
            <DistanceMeters>NAN</DistanceMeters>
          </Trackpoint>
          <Trackpoint>
            <Time>2022-09-22T09:50:42.000Z</Time>
            <Position>
              <LatitudeDegrees>49.5407691411674022674560546875</LatitudeDegrees>
              <LongitudeDegrees>20.40945435874164104461669921875</LongitudeDegrees>
            </Position>
            <AltitudeMeters>373.600006103515625</AltitudeMeters>
            <DistanceMeters>NAN</DistanceMeters>
          </Trackpoint>
          <Trackpoint>
            <Time>2022-09-22T09:50:50.000Z</Time>
            <Position>
              <LatitudeDegrees>49.54098447225987911224365234375</LatitudeDegrees>
              <LongitudeDegrees>20.4095273651182651519775390625</LongitudeDegrees>
            </Position>
            <AltitudeMeters>373.600006103515625</AltitudeMeters>
            <DistanceMeters>NAN</DistanceMeters>
          </Trackpoint>
          <Trackpoint>
            <Time>2022-09-22T09:50:55.000Z</Time>
            <Position>
              <LatitudeDegrees>49.5411077700555324554443359375</LatitudeDegrees>
              <LongitudeDegrees>20.40957790799438953399658203125</LongitudeDegrees>
            </Position>
            <AltitudeMeters>373.79998779296875</AltitudeMeters>
            <DistanceMeters>NAN</DistanceMeters>
          </Trackpoint>
          <Trackpoint>
            <Time>2022-09-22T09:51:04.000Z</Time>
            <Position>
              <LatitudeDegrees>49.54133148305118083953857421875</LatitudeDegrees>
              <LongitudeDegrees>20.40972693823277950286865234375</LongitudeDegrees>
            </Position>
            <AltitudeMeters>374.399993896484375</AltitudeMeters>
            <DistanceMeters>NAN</DistanceMeters>
          </Trackpoint>
          <Trackpoint>
            <Time>2022-09-22T09:51:09.000Z</Time>
            <Position>
              <LatitudeDegrees>49.54146492294967174530029296875</LatitudeDegrees>
              <LongitudeDegrees>20.409837998449802398681640625</LongitudeDegrees>
            </Position>
            <AltitudeMeters>374.79998779296875</AltitudeMeters>
            <DistanceMeters>NAN</DistanceMeters>
          </Trackpoint>
          <Trackpoint>
            <Time>2022-09-22T09:51:13.000Z</Time>
            <Position>
              <LatitudeDegrees>49.541578330099582672119140625</LatitudeDegrees>
              <LongitudeDegrees>20.40993916802108287811279296875</LongitudeDegrees>
            </Position>
            <AltitudeMeters>375.399993896484375</AltitudeMeters>
            <DistanceMeters>NAN</DistanceMeters>
          </Trackpoint>
          <Trackpoint>
            <Time>2022-09-22T09:51:15.000Z</Time>
            <Position>
              <LatitudeDegrees>49.541617222130298614501953125</LatitudeDegrees>
              <LongitudeDegrees>20.40998476557433605194091796875</LongitudeDegrees>
            </Position>
            <AltitudeMeters>375.600006103515625</AltitudeMeters>
            <DistanceMeters>NAN</DistanceMeters>
          </Trackpoint>
          <Trackpoint>
            <Time>2022-09-22T09:51:16.000Z</Time>
            <Position>
              <LatitudeDegrees>49.5416354946792125701904296875</LatitudeDegrees>
              <LongitudeDegrees>20.41000270284712314605712890625</LongitudeDegrees>
            </Position>
            <AltitudeMeters>375.600006103515625</AltitudeMeters>
            <DistanceMeters>NAN</DistanceMeters>
          </Trackpoint>
          <Trackpoint>
            <Time>2022-09-22T09:51:18.000Z</Time>
            <Position>
              <LatitudeDegrees>49.54166692681610584259033203125</LatitudeDegrees>
              <LongitudeDegrees>20.4100389964878559112548828125</LongitudeDegrees>
            </Position>
            <AltitudeMeters>375.600006103515625</AltitudeMeters>
            <DistanceMeters>NAN</DistanceMeters>
          </Trackpoint>
          <Trackpoint>
            <Time>2022-09-22T09:51:20.000Z</Time>
            <Position>
              <LatitudeDegrees>49.54170967452228069305419921875</LatitudeDegrees>
              <LongitudeDegrees>20.41007813997566699981689453125</LongitudeDegrees>
            </Position>
            <AltitudeMeters>375.79998779296875</AltitudeMeters>
            <DistanceMeters>NAN</DistanceMeters>
          </Trackpoint>
          <Trackpoint>
            <Time>2022-09-22T09:51:25.000Z</Time>
            <Position>
              <LatitudeDegrees>49.5418038032948970794677734375</LatitudeDegrees>
              <LongitudeDegrees>20.410179309546947479248046875</LongitudeDegrees>
            </Position>
            <AltitudeMeters>376.20001220703125</AltitudeMeters>
            <DistanceMeters>NAN</DistanceMeters>
          </Trackpoint>
          <Trackpoint>
            <Time>2022-09-22T09:51:26.000Z</Time>
            <Position>
              <LatitudeDegrees>49.54181897453963756561279296875</LatitudeDegrees>
              <LongitudeDegrees>20.41019498370587825775146484375</LongitudeDegrees>
            </Position>
            <AltitudeMeters>376.20001220703125</AltitudeMeters>
            <DistanceMeters>NAN</DistanceMeters>
          </Trackpoint>
          <Trackpoint>
            <Time>2022-09-22T09:51:33.000Z</Time>
            <Position>
              <LatitudeDegrees>49.5419365726411342620849609375</LatitudeDegrees>
              <LongitudeDegrees>20.41028634645044803619384765625</LongitudeDegrees>
            </Position>
            <AltitudeMeters>376.399993896484375</AltitudeMeters>
            <DistanceMeters>NAN</DistanceMeters>
          </Trackpoint>
          <Trackpoint>
            <Time>2022-09-22T09:51:40.000Z</Time>
            <Position>
              <LatitudeDegrees>49.5420964993536472320556640625</LatitudeDegrees>
              <LongitudeDegrees>20.410436801612377166748046875</LongitudeDegrees>
            </Position>
            <AltitudeMeters>376</AltitudeMeters>
            <DistanceMeters>NAN</DistanceMeters>
          </Trackpoint>
          <Trackpoint>
            <Time>2022-09-22T09:51:47.000Z</Time>
            <Position>
              <LatitudeDegrees>49.542281068861484527587890625</LatitudeDegrees>
              <LongitudeDegrees>20.4106036014854907989501953125</LongitudeDegrees>
            </Position>
            <AltitudeMeters>375.600006103515625</AltitudeMeters>
            <DistanceMeters>NAN</DistanceMeters>
          </Trackpoint>
          <Trackpoint>
            <Time>2022-09-22T09:51:55.000Z</Time>
            <Position>
              <LatitudeDegrees>49.5425115711987018585205078125</LatitudeDegrees>
              <LongitudeDegrees>20.410745255649089813232421875</LongitudeDegrees>
            </Position>
            <AltitudeMeters>374.79998779296875</AltitudeMeters>
            <DistanceMeters>NAN</DistanceMeters>
          </Trackpoint>
          <Trackpoint>
            <Time>2022-09-22T09:52:02.000Z</Time>
            <Position>
              <LatitudeDegrees>49.54272908158600330352783203125</LatitudeDegrees>
              <LongitudeDegrees>20.41090476326644420623779296875</LongitudeDegrees>
            </Position>
            <AltitudeMeters>374.399993896484375</AltitudeMeters>
            <DistanceMeters>NAN</DistanceMeters>
          </Trackpoint>
          <Trackpoint>
            <Time>2022-09-22T09:52:08.000Z</Time>
            <Position>
              <LatitudeDegrees>49.542938210070133209228515625</LatitudeDegrees>
              <LongitudeDegrees>20.41117499582469463348388671875</LongitudeDegrees>
            </Position>
            <AltitudeMeters>373.79998779296875</AltitudeMeters>
            <DistanceMeters>NAN</DistanceMeters>
          </Trackpoint>
          <Trackpoint>
            <Time>2022-09-22T09:52:10.000Z</Time>
            <Position>
              <LatitudeDegrees>49.54299621284008026123046875</LatitudeDegrees>
              <LongitudeDegrees>20.41130156256258487701416015625</LongitudeDegrees>
            </Position>
            <AltitudeMeters>373.600006103515625</AltitudeMeters>
            <DistanceMeters>NAN</DistanceMeters>
          </Trackpoint>
          <Trackpoint>
            <Time>2022-09-22T09:52:12.000Z</Time>
            <Position>
              <LatitudeDegrees>49.54303619451820850372314453125</LatitudeDegrees>
              <LongitudeDegrees>20.4114669375121593475341796875</LongitudeDegrees>
            </Position>
            <AltitudeMeters>373</AltitudeMeters>
            <DistanceMeters>NAN</DistanceMeters>
          </Trackpoint>
          <Trackpoint>
            <Time>2022-09-22T09:52:15.000Z</Time>
            <Position>
              <LatitudeDegrees>49.543090425431728363037109375</LatitudeDegrees>
              <LongitudeDegrees>20.411728955805301666259765625</LongitudeDegrees>
            </Position>
            <AltitudeMeters>372.600006103515625</AltitudeMeters>
            <DistanceMeters>NAN</DistanceMeters>
          </Trackpoint>
          <Trackpoint>
            <Time>2022-09-22T09:52:18.000Z</Time>
            <Position>
              <LatitudeDegrees>49.5431254617869853973388671875</LatitudeDegrees>
              <LongitudeDegrees>20.4120010323822498321533203125</LongitudeDegrees>
            </Position>
            <AltitudeMeters>372.20001220703125</AltitudeMeters>
            <DistanceMeters>NAN</DistanceMeters>
          </Trackpoint>
          <Trackpoint>
            <Time>2022-09-22T09:52:20.000Z</Time>
            <Position>
              <LatitudeDegrees>49.54312764108180999755859375</LatitudeDegrees>
              <LongitudeDegrees>20.4121800698339939117431640625</LongitudeDegrees>
            </Position>
            <AltitudeMeters>371.79998779296875</AltitudeMeters>
            <DistanceMeters>NAN</DistanceMeters>
          </Trackpoint>
          <Trackpoint>
            <Time>2022-09-22T09:52:22.000Z</Time>
            <Position>
              <LatitudeDegrees>49.54311733134090900421142578125</LatitudeDegrees>
              <LongitudeDegrees>20.412364304065704345703125</LongitudeDegrees>
            </Position>
            <AltitudeMeters>371.600006103515625</AltitudeMeters>
            <DistanceMeters>NAN</DistanceMeters>
          </Trackpoint>
          <Trackpoint>
            <Time>2022-09-22T09:52:23.000Z</Time>
            <Position>
              <LatitudeDegrees>49.5431076921522617340087890625</LatitudeDegrees>
              <LongitudeDegrees>20.412455834448337554931640625</LongitudeDegrees>
            </Position>
            <AltitudeMeters>371.399993896484375</AltitudeMeters>
            <DistanceMeters>NAN</DistanceMeters>
          </Trackpoint>
          <Trackpoint>
            <Time>2022-09-22T09:52:32.000Z</Time>
            <Position>
              <LatitudeDegrees>49.543080031871795654296875</LatitudeDegrees>
              <LongitudeDegrees>20.4131939448416233062744140625</LongitudeDegrees>
            </Position>
            <AltitudeMeters>371</AltitudeMeters>
            <DistanceMeters>NAN</DistanceMeters>
          </Trackpoint>
          <Trackpoint>
            <Time>2022-09-22T09:52:38.000Z</Time>
            <Position>
              <LatitudeDegrees>49.5431331731379032135009765625</LatitudeDegrees>
              <LongitudeDegrees>20.413593091070652008056640625</LongitudeDegrees>
            </Position>
            <AltitudeMeters>370.600006103515625</AltitudeMeters>
            <DistanceMeters>NAN</DistanceMeters>
          </Trackpoint>
          <Trackpoint>
            <Time>2022-09-22T09:52:39.000Z</Time>
            <Position>
              <LatitudeDegrees>49.5431457459926605224609375</LatitudeDegrees>
              <LongitudeDegrees>20.41364883072674274444580078125</LongitudeDegrees>
            </Position>
            <AltitudeMeters>370.600006103515625</AltitudeMeters>
            <DistanceMeters>NAN</DistanceMeters>
          </Trackpoint>
          <Trackpoint>
            <Time>2022-09-22T09:52:41.000Z</Time>
            <Position>
              <LatitudeDegrees>49.54319293610751628875732421875</LatitudeDegrees>
              <LongitudeDegrees>20.4137246869504451751708984375</LongitudeDegrees>
            </Position>
            <AltitudeMeters>370.600006103515625</AltitudeMeters>
            <DistanceMeters>NAN</DistanceMeters>
          </Trackpoint>
          <Trackpoint>
            <Time>2022-09-22T09:52:43.000Z</Time>
            <Position>
              <LatitudeDegrees>49.54325747676193714141845703125</LatitudeDegrees>
              <LongitudeDegrees>20.413764417171478271484375</LongitudeDegrees>
            </Position>
            <AltitudeMeters>370.600006103515625</AltitudeMeters>
            <DistanceMeters>NAN</DistanceMeters>
          </Trackpoint>
          <Trackpoint>
            <Time>2022-09-22T09:52:47.000Z</Time>
            <Position>
              <LatitudeDegrees>49.54340533353388309478759765625</LatitudeDegrees>
              <LongitudeDegrees>20.41372887790203094482421875</LongitudeDegrees>
            </Position>
            <AltitudeMeters>370.399993896484375</AltitudeMeters>
            <DistanceMeters>NAN</DistanceMeters>
          </Trackpoint>
          <Trackpoint>
            <Time>2022-09-22T09:52:55.000Z</Time>
            <Position>
              <LatitudeDegrees>49.54370431602001190185546875</LatitudeDegrees>
              <LongitudeDegrees>20.41359501890838146209716796875</LongitudeDegrees>
            </Position>
            <AltitudeMeters>370.20001220703125</AltitudeMeters>
            <DistanceMeters>NAN</DistanceMeters>
          </Trackpoint>
          <Trackpoint>
            <Time>2022-09-22T09:53:03.000Z</Time>
            <Position>
              <LatitudeDegrees>49.5439790748059749603271484375</LatitudeDegrees>
              <LongitudeDegrees>20.4134427197277545928955078125</LongitudeDegrees>
            </Position>
            <AltitudeMeters>370</AltitudeMeters>
            <DistanceMeters>NAN</DistanceMeters>
          </Trackpoint>
          <Trackpoint>
            <Time>2022-09-22T09:53:11.000Z</Time>
            <Position>
              <LatitudeDegrees>49.5442137680947780609130859375</LatitudeDegrees>
              <LongitudeDegrees>20.4133220203220844268798828125</LongitudeDegrees>
            </Position>
            <AltitudeMeters>369.79998779296875</AltitudeMeters>
            <DistanceMeters>NAN</DistanceMeters>
          </Trackpoint>
          <Trackpoint>
            <Time>2022-09-22T09:53:14.000Z</Time>
            <Position>
              <LatitudeDegrees>49.54430907033383846282958984375</LatitudeDegrees>
              <LongitudeDegrees>20.41332948021590709686279296875</LongitudeDegrees>
            </Position>
            <AltitudeMeters>369.600006103515625</AltitudeMeters>
            <DistanceMeters>NAN</DistanceMeters>
          </Trackpoint>
          <Trackpoint>
            <Time>2022-09-22T09:53:15.000Z</Time>
            <Position>
              <LatitudeDegrees>49.544336982071399688720703125</LatitudeDegrees>
              <LongitudeDegrees>20.41336066089570522308349609375</LongitudeDegrees>
            </Position>
            <AltitudeMeters>369.600006103515625</AltitudeMeters>
            <DistanceMeters>NAN</DistanceMeters>
          </Trackpoint>
          <Trackpoint>
            <Time>2022-09-22T09:53:16.000Z</Time>
            <Position>
              <LatitudeDegrees>49.5443586073815822601318359375</LatitudeDegrees>
              <LongitudeDegrees>20.41340240277349948883056640625</LongitudeDegrees>
            </Position>
            <AltitudeMeters>369.600006103515625</AltitudeMeters>
            <DistanceMeters>NAN</DistanceMeters>
          </Trackpoint>
          <Trackpoint>
            <Time>2022-09-22T09:53:18.000Z</Time>
            <Position>
              <LatitudeDegrees>49.5443743653595447540283203125</LatitudeDegrees>
              <LongitudeDegrees>20.413503237068653106689453125</LongitudeDegrees>
            </Position>
            <AltitudeMeters>369.399993896484375</AltitudeMeters>
            <DistanceMeters>NAN</DistanceMeters>
          </Trackpoint>
          <Trackpoint>
            <Time>2022-09-22T09:53:26.000Z</Time>
            <Position>
              <LatitudeDegrees>49.5444025285542011260986328125</LatitudeDegrees>
              <LongitudeDegrees>20.41391906328499317169189453125</LongitudeDegrees>
            </Position>
            <AltitudeMeters>369.20001220703125</AltitudeMeters>
            <DistanceMeters>NAN</DistanceMeters>
          </Trackpoint>
          <Trackpoint>
            <Time>2022-09-22T09:53:31.000Z</Time>
            <Position>
              <LatitudeDegrees>49.54443479888141155242919921875</LatitudeDegrees>
              <LongitudeDegrees>20.41413716040551662445068359375</LongitudeDegrees>
            </Position>
            <AltitudeMeters>369.20001220703125</AltitudeMeters>
            <DistanceMeters>NAN</DistanceMeters>
          </Trackpoint>
          <Trackpoint>
            <Time>2022-09-22T09:53:32.000Z</Time>
            <Position>
              <LatitudeDegrees>49.5444447733461856842041015625</LatitudeDegrees>
              <LongitudeDegrees>20.41417906992137432098388671875</LongitudeDegrees>
            </Position>
            <AltitudeMeters>369.20001220703125</AltitudeMeters>
            <DistanceMeters>NAN</DistanceMeters>
          </Trackpoint>
          <Trackpoint>
            <Time>2022-09-22T09:53:37.000Z</Time>
            <Position>
              <LatitudeDegrees>49.54448140226304531097412109375</LatitudeDegrees>
              <LongitudeDegrees>20.4143999330699443817138671875</LongitudeDegrees>
            </Position>
            <AltitudeMeters>369.20001220703125</AltitudeMeters>
            <DistanceMeters>NAN</DistanceMeters>
          </Trackpoint>
          <Trackpoint>
            <Time>2022-09-22T09:53:42.000Z</Time>
            <Position>
              <LatitudeDegrees>49.54453806392848491668701171875</LatitudeDegrees>
              <LongitudeDegrees>20.41464258916676044464111328125</LongitudeDegrees>
            </Position>
            <AltitudeMeters>368.79998779296875</AltitudeMeters>
            <DistanceMeters>NAN</DistanceMeters>
          </Trackpoint>
          <Trackpoint>
            <Time>2022-09-22T09:53:46.000Z</Time>
            <Position>
              <LatitudeDegrees>49.5446741022169589996337890625</LatitudeDegrees>
              <LongitudeDegrees>20.41467444039881229400634765625</LongitudeDegrees>
            </Position>
            <AltitudeMeters>368.600006103515625</AltitudeMeters>
            <DistanceMeters>NAN</DistanceMeters>
          </Trackpoint>
          <Trackpoint>
            <Time>2022-09-22T09:53:47.000Z</Time>
            <Position>
              <LatitudeDegrees>49.5447103120386600494384765625</LatitudeDegrees>
              <LongitudeDegrees>20.41467033326625823974609375</LongitudeDegrees>
            </Position>
            <AltitudeMeters>368.600006103515625</AltitudeMeters>
            <DistanceMeters>NAN</DistanceMeters>
          </Trackpoint>
          <Trackpoint>
            <Time>2022-09-22T09:53:58.000Z</Time>
            <Position>
              <LatitudeDegrees>49.54508037306368350982666015625</LatitudeDegrees>
              <LongitudeDegrees>20.414654575288295745849609375</LongitudeDegrees>
            </Position>
            <AltitudeMeters>368.20001220703125</AltitudeMeters>
            <DistanceMeters>NAN</DistanceMeters>
          </Trackpoint>
          <Trackpoint>
            <Time>2022-09-22T09:54:07.000Z</Time>
            <Position>
              <LatitudeDegrees>49.54537256620824337005615234375</LatitudeDegrees>
              <LongitudeDegrees>20.414625070989131927490234375</LongitudeDegrees>
            </Position>
            <AltitudeMeters>367.79998779296875</AltitudeMeters>
            <DistanceMeters>NAN</DistanceMeters>
          </Trackpoint>
          <Trackpoint>
            <Time>2022-09-22T09:54:15.000Z</Time>
            <Position>
              <LatitudeDegrees>49.54565118066966533660888671875</LatitudeDegrees>
              <LongitudeDegrees>20.4146084748208522796630859375</LongitudeDegrees>
            </Position>
            <AltitudeMeters>367.600006103515625</AltitudeMeters>
            <DistanceMeters>NAN</DistanceMeters>
          </Trackpoint>
          <Trackpoint>
            <Time>2022-09-22T09:54:16.000Z</Time>
            <Position>
              <LatitudeDegrees>49.54569191671907901763916015625</LatitudeDegrees>
              <LongitudeDegrees>20.4146037809550762176513671875</LongitudeDegrees>
            </Position>
            <AltitudeMeters>367.399993896484375</AltitudeMeters>
            <DistanceMeters>NAN</DistanceMeters>
          </Trackpoint>
          <Trackpoint>
            <Time>2022-09-22T09:54:24.000Z</Time>
            <Position>
              <LatitudeDegrees>49.5460101775825023651123046875</LatitudeDegrees>
              <LongitudeDegrees>20.41460000909864902496337890625</LongitudeDegrees>
            </Position>
            <AltitudeMeters>366.79998779296875</AltitudeMeters>
            <DistanceMeters>NAN</DistanceMeters>
          </Trackpoint>
          <Trackpoint>
            <Time>2022-09-22T09:54:28.000Z</Time>
            <Position>
              <LatitudeDegrees>49.54612500965595245361328125</LatitudeDegrees>
              <LongitudeDegrees>20.414749793708324432373046875</LongitudeDegrees>
            </Position>
            <AltitudeMeters>366.79998779296875</AltitudeMeters>
            <DistanceMeters>NAN</DistanceMeters>
          </Trackpoint>
          <Trackpoint>
            <Time>2022-09-22T09:54:34.000Z</Time>
            <Position>
              <LatitudeDegrees>49.54618326388299465179443359375</LatitudeDegrees>
              <LongitudeDegrees>20.4150651209056377410888671875</LongitudeDegrees>
            </Position>
            <AltitudeMeters>366.79998779296875</AltitudeMeters>
            <DistanceMeters>NAN</DistanceMeters>
          </Trackpoint>
          <Trackpoint>
            <Time>2022-09-22T09:54:38.000Z</Time>
            <Position>
              <LatitudeDegrees>49.54621511511504650115966796875</LatitudeDegrees>
              <LongitudeDegrees>20.41526134125888347625732421875</LongitudeDegrees>
            </Position>
            <AltitudeMeters>366.600006103515625</AltitudeMeters>
            <DistanceMeters>NAN</DistanceMeters>
          </Trackpoint>
          <Trackpoint>
            <Time>2022-09-22T09:54:40.000Z</Time>
            <Position>
              <LatitudeDegrees>49.5462354831397533416748046875</LatitudeDegrees>
              <LongitudeDegrees>20.41537575423717498779296875</LongitudeDegrees>
            </Position>
            <AltitudeMeters>366.600006103515625</AltitudeMeters>
            <DistanceMeters>NAN</DistanceMeters>
          </Trackpoint>
          <Trackpoint>
            <Time>2022-09-22T09:54:46.000Z</Time>
            <Position>
              <LatitudeDegrees>49.54628183506429195404052734375</LatitudeDegrees>
              <LongitudeDegrees>20.4157175682485103607177734375</LongitudeDegrees>
            </Position>
            <AltitudeMeters>366.600006103515625</AltitudeMeters>
            <DistanceMeters>NAN</DistanceMeters>
          </Trackpoint>
          <Trackpoint>
            <Time>2022-09-22T09:54:50.000Z</Time>
            <Position>
              <LatitudeDegrees>49.5463142730295658111572265625</LatitudeDegrees>
              <LongitudeDegrees>20.41591915301978588104248046875</LongitudeDegrees>
            </Position>
            <AltitudeMeters>366.79998779296875</AltitudeMeters>
            <DistanceMeters>NAN</DistanceMeters>
          </Trackpoint>
          <Trackpoint>
            <Time>2022-09-22T09:54:54.000Z</Time>
            <Position>
              <LatitudeDegrees>49.54633916728198528289794921875</LatitudeDegrees>
              <LongitudeDegrees>20.41609634645283222198486328125</LongitudeDegrees>
            </Position>
            <AltitudeMeters>366.399993896484375</AltitudeMeters>
            <DistanceMeters>NAN</DistanceMeters>
          </Trackpoint>
          <Trackpoint>
            <Time>2022-09-22T09:54:57.000Z</Time>
            <Position>
              <LatitudeDegrees>49.54636632464826107025146484375</LatitudeDegrees>
              <LongitudeDegrees>20.4162218235433101654052734375</LongitudeDegrees>
            </Position>
            <AltitudeMeters>366.20001220703125</AltitudeMeters>
            <DistanceMeters>NAN</DistanceMeters>
          </Trackpoint>
          <Trackpoint>
            <Time>2022-09-22T09:55:04.000Z</Time>
            <Position>
              <LatitudeDegrees>49.5464477129280567169189453125</LatitudeDegrees>
              <LongitudeDegrees>20.416569672524929046630859375</LongitudeDegrees>
            </Position>
            <AltitudeMeters>366</AltitudeMeters>
            <DistanceMeters>NAN</DistanceMeters>
          </Trackpoint>
          <Trackpoint>
            <Time>2022-09-22T09:55:05.000Z</Time>
            <Position>
              <LatitudeDegrees>49.54647696577012538909912109375</LatitudeDegrees>
              <LongitudeDegrees>20.4166209697723388671875</LongitudeDegrees>
            </Position>
            <AltitudeMeters>365.79998779296875</AltitudeMeters>
            <DistanceMeters>NAN</DistanceMeters>
          </Trackpoint>
          <Trackpoint>
            <Time>2022-09-22T09:55:08.000Z</Time>
            <Position>
              <LatitudeDegrees>49.546582661569118499755859375</LatitudeDegrees>
              <LongitudeDegrees>20.416699759662151336669921875</LongitudeDegrees>
            </Position>
            <AltitudeMeters>365.600006103515625</AltitudeMeters>
            <DistanceMeters>NAN</DistanceMeters>
          </Trackpoint>
          <Trackpoint>
            <Time>2022-09-22T09:55:12.000Z</Time>
            <Position>
              <LatitudeDegrees>49.54672339372336864471435546875</LatitudeDegrees>
              <LongitudeDegrees>20.41662943549454212188720703125</LongitudeDegrees>
            </Position>
            <AltitudeMeters>365.600006103515625</AltitudeMeters>
            <DistanceMeters>NAN</DistanceMeters>
          </Trackpoint>
          <Trackpoint>
            <Time>2022-09-22T09:55:14.000Z</Time>
            <Position>
              <LatitudeDegrees>49.54678256995975971221923828125</LatitudeDegrees>
              <LongitudeDegrees>20.41653052903711795806884765625</LongitudeDegrees>
            </Position>
            <AltitudeMeters>365.399993896484375</AltitudeMeters>
            <DistanceMeters>NAN</DistanceMeters>
          </Trackpoint>
          <Trackpoint>
            <Time>2022-09-22T09:55:17.000Z</Time>
            <Position>
              <LatitudeDegrees>49.54686890356242656707763671875</LatitudeDegrees>
              <LongitudeDegrees>20.41638166643679141998291015625</LongitudeDegrees>
            </Position>
            <AltitudeMeters>365.399993896484375</AltitudeMeters>
            <DistanceMeters>NAN</DistanceMeters>
          </Trackpoint>
          <Trackpoint>
            <Time>2022-09-22T09:55:18.000Z</Time>
            <Position>
              <LatitudeDegrees>49.5468954741954803466796875</LatitudeDegrees>
              <LongitudeDegrees>20.4163304530084133148193359375</LongitudeDegrees>
            </Position>
            <AltitudeMeters>365.20001220703125</AltitudeMeters>
            <DistanceMeters>NAN</DistanceMeters>
          </Trackpoint>
          <Trackpoint>
            <Time>2022-09-22T09:55:19.000Z</Time>
            <Position>
              <LatitudeDegrees>49.54691936261951923370361328125</LatitudeDegrees>
              <LongitudeDegrees>20.41628242470324039459228515625</LongitudeDegrees>
            </Position>
            <AltitudeMeters>365.20001220703125</AltitudeMeters>
            <DistanceMeters>NAN</DistanceMeters>
          </Trackpoint>
          <Trackpoint>
            <Time>2022-09-22T09:55:23.000Z</Time>
            <Position>
              <LatitudeDegrees>49.5470176823437213897705078125</LatitudeDegrees>
              <LongitudeDegrees>20.4160669259727001190185546875</LongitudeDegrees>
            </Position>
            <AltitudeMeters>365</AltitudeMeters>
            <DistanceMeters>NAN</DistanceMeters>
          </Trackpoint>
          <Trackpoint>
            <Time>2022-09-22T09:55:24.000Z</Time>
            <Position>
              <LatitudeDegrees>49.54704324714839458465576171875</LatitudeDegrees>
              <LongitudeDegrees>20.41602057404816150665283203125</LongitudeDegrees>
            </Position>
            <AltitudeMeters>365</AltitudeMeters>
            <DistanceMeters>NAN</DistanceMeters>
          </Trackpoint>
          <Trackpoint>
            <Time>2022-09-22T09:55:32.000Z</Time>
            <Position>
              <LatitudeDegrees>49.54722647555172443389892578125</LatitudeDegrees>
              <LongitudeDegrees>20.41565738618373870849609375</LongitudeDegrees>
            </Position>
            <AltitudeMeters>365</AltitudeMeters>
            <DistanceMeters>NAN</DistanceMeters>
          </Trackpoint>
          <Trackpoint>
            <Time>2022-09-22T09:55:44.000Z</Time>
            <Position>
              <LatitudeDegrees>49.54743049107491970062255859375</LatitudeDegrees>
              <LongitudeDegrees>20.4150282405316829681396484375</LongitudeDegrees>
            </Position>
            <AltitudeMeters>365</AltitudeMeters>
            <DistanceMeters>NAN</DistanceMeters>
          </Trackpoint>
          <Trackpoint>
            <Time>2022-09-22T09:55:47.000Z</Time>
            <Position>
              <LatitudeDegrees>49.5474729873239994049072265625</LatitudeDegrees>
              <LongitudeDegrees>20.4148981533944606781005859375</LongitudeDegrees>
            </Position>
            <AltitudeMeters>365</AltitudeMeters>
            <DistanceMeters>NAN</DistanceMeters>
          </Trackpoint>
          <Trackpoint>
            <Time>2022-09-22T09:55:50.000Z</Time>
            <Position>
              <LatitudeDegrees>49.5475150644779205322265625</LatitudeDegrees>
              <LongitudeDegrees>20.414769910275936126708984375</LongitudeDegrees>
            </Position>
            <AltitudeMeters>364.79998779296875</AltitudeMeters>
            <DistanceMeters>NAN</DistanceMeters>
          </Trackpoint>
          <Trackpoint>
            <Time>2022-09-22T09:55:56.000Z</Time>
            <Position>
              <LatitudeDegrees>49.547640793025493621826171875</LatitudeDegrees>
              <LongitudeDegrees>20.4145712591707706451416015625</LongitudeDegrees>
            </Position>
            <AltitudeMeters>365.20001220703125</AltitudeMeters>
            <DistanceMeters>NAN</DistanceMeters>
          </Trackpoint>
          <Trackpoint>
            <Time>2022-09-22T09:56:01.000Z</Time>
            <Position>
              <LatitudeDegrees>49.547792337834835052490234375</LatitudeDegrees>
              <LongitudeDegrees>20.41454385034739971160888671875</LongitudeDegrees>
            </Position>
            <AltitudeMeters>365.20001220703125</AltitudeMeters>
            <DistanceMeters>NAN</DistanceMeters>
          </Trackpoint>
          <Trackpoint>
            <Time>2022-09-22T09:56:07.000Z</Time>
            <Position>
              <LatitudeDegrees>49.547986797988414764404296875</LatitudeDegrees>
              <LongitudeDegrees>20.4146557487547397613525390625</LongitudeDegrees>
            </Position>
            <AltitudeMeters>364.79998779296875</AltitudeMeters>
            <DistanceMeters>NAN</DistanceMeters>
          </Trackpoint>
          <Trackpoint>
            <Time>2022-09-22T09:56:14.000Z</Time>
            <Position>
              <LatitudeDegrees>49.54824470914900302886962890625</LatitudeDegrees>
              <LongitudeDegrees>20.41485079564154148101806640625</LongitudeDegrees>
            </Position>
            <AltitudeMeters>364.20001220703125</AltitudeMeters>
            <DistanceMeters>NAN</DistanceMeters>
          </Trackpoint>
          <Trackpoint>
            <Time>2022-09-22T09:56:15.000Z</Time>
            <Position>
              <LatitudeDegrees>49.54828016459941864013671875</LatitudeDegrees>
              <LongitudeDegrees>20.41488801129162311553955078125</LongitudeDegrees>
            </Position>
            <AltitudeMeters>364</AltitudeMeters>
            <DistanceMeters>NAN</DistanceMeters>
          </Trackpoint>
          <Trackpoint>
            <Time>2022-09-22T09:56:18.000Z</Time>
            <Position>
              <LatitudeDegrees>49.54838535748422145843505859375</LatitudeDegrees>
              <LongitudeDegrees>20.41498205624520778656005859375</LongitudeDegrees>
            </Position>
            <AltitudeMeters>364</AltitudeMeters>
            <DistanceMeters>NAN</DistanceMeters>
          </Trackpoint>
          <Trackpoint>
            <Time>2022-09-22T09:56:20.000Z</Time>
            <Position>
              <LatitudeDegrees>49.54846498556435108184814453125</LatitudeDegrees>
              <LongitudeDegrees>20.41502974927425384521484375</LongitudeDegrees>
            </Position>
            <AltitudeMeters>364</AltitudeMeters>
            <DistanceMeters>NAN</DistanceMeters>
          </Trackpoint>
          <Trackpoint>
            <Time>2022-09-22T09:56:27.000Z</Time>
            <Position>
              <LatitudeDegrees>49.5487101562321186065673828125</LatitudeDegrees>
              <LongitudeDegrees>20.415243990719318389892578125</LongitudeDegrees>
            </Position>
            <AltitudeMeters>363.79998779296875</AltitudeMeters>
            <DistanceMeters>NAN</DistanceMeters>
          </Trackpoint>
          <Trackpoint>
            <Time>2022-09-22T09:56:32.000Z</Time>
            <Position>
              <LatitudeDegrees>49.548893384635448455810546875</LatitudeDegrees>
              <LongitudeDegrees>20.41540567763149738311767578125</LongitudeDegrees>
            </Position>
            <AltitudeMeters>363.399993896484375</AltitudeMeters>
            <DistanceMeters>NAN</DistanceMeters>
          </Trackpoint>
          <Trackpoint>
            <Time>2022-09-22T09:56:35.000Z</Time>
            <Position>
              <LatitudeDegrees>49.54898156225681304931640625</LatitudeDegrees>
              <LongitudeDegrees>20.4155241139233112335205078125</LongitudeDegrees>
            </Position>
            <AltitudeMeters>363.399993896484375</AltitudeMeters>
            <DistanceMeters>NAN</DistanceMeters>
          </Trackpoint>
          <Trackpoint>
            <Time>2022-09-22T09:56:38.000Z</Time>
            <Position>
              <LatitudeDegrees>49.5490695722401142120361328125</LatitudeDegrees>
              <LongitudeDegrees>20.41564791463315486907958984375</LongitudeDegrees>
            </Position>
            <AltitudeMeters>364</AltitudeMeters>
            <DistanceMeters>NAN</DistanceMeters>
          </Trackpoint>
          <Trackpoint>
            <Time>2022-09-22T09:56:42.000Z</Time>
            <Position>
              <LatitudeDegrees>49.549177028238773345947265625</LatitudeDegrees>
              <LongitudeDegrees>20.41581488214433193206787109375</LongitudeDegrees>
            </Position>
            <AltitudeMeters>364.399993896484375</AltitudeMeters>
            <DistanceMeters>NAN</DistanceMeters>
          </Trackpoint>
          <Trackpoint>
            <Time>2022-09-22T09:56:43.000Z</Time>
            <Position>
              <LatitudeDegrees>49.54920577816665172576904296875</LatitudeDegrees>
              <LongitudeDegrees>20.4158476553857326507568359375</LongitudeDegrees>
            </Position>
            <AltitudeMeters>364.399993896484375</AltitudeMeters>
            <DistanceMeters>NAN</DistanceMeters>
          </Trackpoint>
          <Trackpoint>
            <Time>2022-09-22T09:56:52.000Z</Time>
            <Position>
              <LatitudeDegrees>49.54942571930587291717529296875</LatitudeDegrees>
              <LongitudeDegrees>20.41608159430325031280517578125</LongitudeDegrees>
            </Position>
            <AltitudeMeters>364.79998779296875</AltitudeMeters>
            <DistanceMeters>NAN</DistanceMeters>
          </Trackpoint>
          <Trackpoint>
            <Time>2022-09-22T09:56:59.000Z</Time>
            <Position>
              <LatitudeDegrees>49.54958514310419559478759765625</LatitudeDegrees>
              <LongitudeDegrees>20.4162322171032428741455078125</LongitudeDegrees>
            </Position>
            <AltitudeMeters>364.79998779296875</AltitudeMeters>
            <DistanceMeters>NAN</DistanceMeters>
          </Trackpoint>
          <Trackpoint>
            <Time>2022-09-22T09:57:07.000Z</Time>
            <Position>
              <LatitudeDegrees>49.54981899820268154144287109375</LatitudeDegrees>
              <LongitudeDegrees>20.41640438139438629150390625</LongitudeDegrees>
            </Position>
            <AltitudeMeters>364.79998779296875</AltitudeMeters>
            <DistanceMeters>NAN</DistanceMeters>
          </Trackpoint>
          <Trackpoint>
            <Time>2022-09-22T09:57:15.000Z</Time>
            <Position>
              <LatitudeDegrees>49.55003189854323863983154296875</LatitudeDegrees>
              <LongitudeDegrees>20.41651778854429721832275390625</LongitudeDegrees>
            </Position>
            <AltitudeMeters>364.399993896484375</AltitudeMeters>
            <DistanceMeters>NAN</DistanceMeters>
          </Trackpoint>
          <Trackpoint>
            <Time>2022-09-22T09:57:21.000Z</Time>
            <Position>
              <LatitudeDegrees>49.55022451467812061309814453125</LatitudeDegrees>
              <LongitudeDegrees>20.416644774377346038818359375</LongitudeDegrees>
            </Position>
            <AltitudeMeters>364.399993896484375</AltitudeMeters>
            <DistanceMeters>NAN</DistanceMeters>
          </Trackpoint>
          <Trackpoint>
            <Time>2022-09-22T09:57:25.000Z</Time>
            <Position>
              <LatitudeDegrees>49.55028234981000423431396484375</LatitudeDegrees>
              <LongitudeDegrees>20.4168464429676532745361328125</LongitudeDegrees>
            </Position>
            <AltitudeMeters>364.399993896484375</AltitudeMeters>
            <DistanceMeters>NAN</DistanceMeters>
          </Trackpoint>
          <Trackpoint>
            <Time>2022-09-22T09:57:33.000Z</Time>
            <Position>
              <LatitudeDegrees>49.55028369091451168060302734375</LatitudeDegrees>
              <LongitudeDegrees>20.417263694107532501220703125</LongitudeDegrees>
            </Position>
            <AltitudeMeters>364.20001220703125</AltitudeMeters>
            <DistanceMeters>NAN</DistanceMeters>
          </Trackpoint>
          <Trackpoint>
            <Time>2022-09-22T09:57:40.000Z</Time>
            <Position>
              <LatitudeDegrees>49.550269357860088348388671875</LatitudeDegrees>
              <LongitudeDegrees>20.41770181618630886077880859375</LongitudeDegrees>
            </Position>
            <AltitudeMeters>364.20001220703125</AltitudeMeters>
            <DistanceMeters>NAN</DistanceMeters>
          </Trackpoint>
          <Trackpoint>
            <Time>2022-09-22T09:57:45.000Z</Time>
            <Position>
              <LatitudeDegrees>49.55026491545140743255615234375</LatitudeDegrees>
              <LongitudeDegrees>20.4180011339485645294189453125</LongitudeDegrees>
            </Position>
            <AltitudeMeters>364</AltitudeMeters>
            <DistanceMeters>NAN</DistanceMeters>
          </Trackpoint>
          <Trackpoint>
            <Time>2022-09-22T09:57:46.000Z</Time>
            <Position>
              <LatitudeDegrees>49.5502643287181854248046875</LatitudeDegrees>
              <LongitudeDegrees>20.41805502958595752716064453125</LongitudeDegrees>
            </Position>
            <AltitudeMeters>364</AltitudeMeters>
            <DistanceMeters>NAN</DistanceMeters>
          </Trackpoint>
          <Trackpoint>
            <Time>2022-09-22T09:57:54.000Z</Time>
            <Position>
              <LatitudeDegrees>49.55024488270282745361328125</LatitudeDegrees>
              <LongitudeDegrees>20.418498851358890533447265625</LongitudeDegrees>
            </Position>
            <AltitudeMeters>364.399993896484375</AltitudeMeters>
            <DistanceMeters>NAN</DistanceMeters>
          </Trackpoint>
          <Trackpoint>
            <Time>2022-09-22T09:58:01.000Z</Time>
            <Position>
              <LatitudeDegrees>49.5502370037138462066650390625</LatitudeDegrees>
              <LongitudeDegrees>20.41892708279192447662353515625</LongitudeDegrees>
            </Position>
            <AltitudeMeters>364.20001220703125</AltitudeMeters>
            <DistanceMeters>NAN</DistanceMeters>
          </Trackpoint>
          <Trackpoint>
            <Time>2022-09-22T09:58:12.000Z</Time>
            <Position>
              <LatitudeDegrees>49.55020255409181118011474609375</LatitudeDegrees>
              <LongitudeDegrees>20.41957668028771877288818359375</LongitudeDegrees>
            </Position>
            <AltitudeMeters>364</AltitudeMeters>
            <DistanceMeters>NAN</DistanceMeters>
          </Trackpoint>
          <Trackpoint>
            <Time>2022-09-22T09:58:17.000Z</Time>
            <Position>
              <LatitudeDegrees>49.55016466788947582244873046875</LatitudeDegrees>
              <LongitudeDegrees>20.41983786039054393768310546875</LongitudeDegrees>
            </Position>
            <AltitudeMeters>364.20001220703125</AltitudeMeters>
            <DistanceMeters>NAN</DistanceMeters>
          </Trackpoint>
          <Trackpoint>
            <Time>2022-09-22T09:58:19.000Z</Time>
            <Position>
              <LatitudeDegrees>49.55016081221401691436767578125</LatitudeDegrees>
              <LongitudeDegrees>20.41993827559053897857666015625</LongitudeDegrees>
            </Position>
            <AltitudeMeters>364.20001220703125</AltitudeMeters>
            <DistanceMeters>NAN</DistanceMeters>
          </Trackpoint>
          <Trackpoint>
            <Time>2022-09-22T09:58:25.000Z</Time>
            <Position>
              <LatitudeDegrees>49.55014186911284923553466796875</LatitudeDegrees>
              <LongitudeDegrees>20.420285202562808990478515625</LongitudeDegrees>
            </Position>
            <AltitudeMeters>363.79998779296875</AltitudeMeters>
            <DistanceMeters>NAN</DistanceMeters>
          </Trackpoint>
          <Trackpoint>
            <Time>2022-09-22T09:58:28.000Z</Time>
            <Position>
              <LatitudeDegrees>49.550115801393985748291015625</LatitudeDegrees>
              <LongitudeDegrees>20.42050170712172985076904296875</LongitudeDegrees>
            </Position>
            <AltitudeMeters>363.20001220703125</AltitudeMeters>
            <DistanceMeters>NAN</DistanceMeters>
          </Trackpoint>
          <Trackpoint>
            <Time>2022-09-22T09:58:29.000Z</Time>
            <Position>
              <LatitudeDegrees>49.55010817386209964752197265625</LatitudeDegrees>
              <LongitudeDegrees>20.4205757193267345428466796875</LongitudeDegrees>
            </Position>
            <AltitudeMeters>363</AltitudeMeters>
            <DistanceMeters>NAN</DistanceMeters>
          </Trackpoint>
          <Trackpoint>
            <Time>2022-09-22T09:58:32.000Z</Time>
            <Position>
              <LatitudeDegrees>49.55009425990283489227294921875</LatitudeDegrees>
              <LongitudeDegrees>20.42079557664692401885986328125</LongitudeDegrees>
            </Position>
            <AltitudeMeters>362.600006103515625</AltitudeMeters>
            <DistanceMeters>NAN</DistanceMeters>
          </Trackpoint>
          <Trackpoint>
            <Time>2022-09-22T09:58:37.000Z</Time>
            <Position>
              <LatitudeDegrees>49.55004447139799594879150390625</LatitudeDegrees>
              <LongitudeDegrees>20.4211329482495784759521484375</LongitudeDegrees>
            </Position>
            <AltitudeMeters>362.399993896484375</AltitudeMeters>
            <DistanceMeters>NAN</DistanceMeters>
          </Trackpoint>
          <Trackpoint>
            <Time>2022-09-22T09:58:40.000Z</Time>
            <Position>
              <LatitudeDegrees>49.5500282943248748779296875</LatitudeDegrees>
              <LongitudeDegrees>20.4213324375450611114501953125</LongitudeDegrees>
            </Position>
            <AltitudeMeters>362.20001220703125</AltitudeMeters>
            <DistanceMeters>NAN</DistanceMeters>
          </Trackpoint>
          <Trackpoint>
            <Time>2022-09-22T09:58:41.000Z</Time>
            <Position>
              <LatitudeDegrees>49.55002385191619396209716796875</LatitudeDegrees>
              <LongitudeDegrees>20.42139722965657711029052734375</LongitudeDegrees>
            </Position>
            <AltitudeMeters>362.20001220703125</AltitudeMeters>
            <DistanceMeters>NAN</DistanceMeters>
          </Trackpoint>
          <Trackpoint>
            <Time>2022-09-22T09:58:47.000Z</Time>
            <Position>
              <LatitudeDegrees>49.549981020390987396240234375</LatitudeDegrees>
              <LongitudeDegrees>20.42174155823886394500732421875</LongitudeDegrees>
            </Position>
            <AltitudeMeters>361.600006103515625</AltitudeMeters>
            <DistanceMeters>NAN</DistanceMeters>
          </Trackpoint>
          <Trackpoint>
            <Time>2022-09-22T09:58:50.000Z</Time>
            <Position>
              <LatitudeDegrees>49.5499536953866481781005859375</LatitudeDegrees>
              <LongitudeDegrees>20.421895198523998260498046875</LongitudeDegrees>
            </Position>
            <AltitudeMeters>361.20001220703125</AltitudeMeters>
            <DistanceMeters>NAN</DistanceMeters>
          </Trackpoint>
          <Trackpoint>
            <Time>2022-09-22T09:58:52.000Z</Time>
            <Position>
              <LatitudeDegrees>49.5499174855649471282958984375</LatitudeDegrees>
              <LongitudeDegrees>20.42200215160846710205078125</LongitudeDegrees>
            </Position>
            <AltitudeMeters>361</AltitudeMeters>
            <DistanceMeters>NAN</DistanceMeters>
          </Trackpoint>
          <Trackpoint>
            <Time>2022-09-22T09:58:57.000Z</Time>
            <Position>
              <LatitudeDegrees>49.54987381584942340850830078125</LatitudeDegrees>
              <LongitudeDegrees>20.42228705249726772308349609375</LongitudeDegrees>
            </Position>
            <AltitudeMeters>360.79998779296875</AltitudeMeters>
            <DistanceMeters>NAN</DistanceMeters>
          </Trackpoint>
          <Trackpoint>
            <Time>2022-09-22T09:59:03.000Z</Time>
            <Position>
              <LatitudeDegrees>49.54982520081102848052978515625</LatitudeDegrees>
              <LongitudeDegrees>20.42262442409992218017578125</LongitudeDegrees>
            </Position>
            <AltitudeMeters>361</AltitudeMeters>
            <DistanceMeters>NAN</DistanceMeters>
          </Trackpoint>
          <Trackpoint>
            <Time>2022-09-22T09:59:09.000Z</Time>
            <Position>
              <LatitudeDegrees>49.5497652702033519744873046875</LatitudeDegrees>
              <LongitudeDegrees>20.42298375628888607025146484375</LongitudeDegrees>
            </Position>
            <AltitudeMeters>360.79998779296875</AltitudeMeters>
            <DistanceMeters>NAN</DistanceMeters>
          </Trackpoint>
          <Trackpoint>
            <Time>2022-09-22T09:59:11.000Z</Time>
            <Position>
              <LatitudeDegrees>49.54974121414124965667724609375</LatitudeDegrees>
              <LongitudeDegrees>20.42310009710490703582763671875</LongitudeDegrees>
            </Position>
            <AltitudeMeters>360.79998779296875</AltitudeMeters>
            <DistanceMeters>NAN</DistanceMeters>
          </Trackpoint>
          <Trackpoint>
            <Time>2022-09-22T09:59:13.000Z</Time>
            <Position>
              <LatitudeDegrees>49.5496849715709686279296875</LatitudeDegrees>
              <LongitudeDegrees>20.42324610985815525054931640625</LongitudeDegrees>
            </Position>
            <AltitudeMeters>360.600006103515625</AltitudeMeters>
            <DistanceMeters>NAN</DistanceMeters>
          </Trackpoint>
          <Trackpoint>
            <Time>2022-09-22T09:59:14.000Z</Time>
            <Position>
              <LatitudeDegrees>49.54966393299400806427001953125</LatitudeDegrees>
              <LongitudeDegrees>20.42330461554229259490966796875</LongitudeDegrees>
            </Position>
            <AltitudeMeters>360.600006103515625</AltitudeMeters>
            <DistanceMeters>NAN</DistanceMeters>
          </Trackpoint>
          <Trackpoint>
            <Time>2022-09-22T09:59:16.000Z</Time>
            <Position>
              <LatitudeDegrees>49.54963459633290767669677734375</LatitudeDegrees>
              <LongitudeDegrees>20.4234104789793491363525390625</LongitudeDegrees>
            </Position>
            <AltitudeMeters>360.600006103515625</AltitudeMeters>
            <DistanceMeters>NAN</DistanceMeters>
          </Trackpoint>
          <Trackpoint>
            <Time>2022-09-22T09:59:20.000Z</Time>
            <Position>
              <LatitudeDegrees>49.54960324801504611968994140625</LatitudeDegrees>
              <LongitudeDegrees>20.42356546036899089813232421875</LongitudeDegrees>
            </Position>
            <AltitudeMeters>361.20001220703125</AltitudeMeters>
            <DistanceMeters>NAN</DistanceMeters>
          </Trackpoint>
          <Trackpoint>
            <Time>2022-09-22T09:59:26.000Z</Time>
            <Position>
              <LatitudeDegrees>49.549537785351276397705078125</LatitudeDegrees>
              <LongitudeDegrees>20.42389268986880779266357421875</LongitudeDegrees>
            </Position>
            <AltitudeMeters>361.20001220703125</AltitudeMeters>
            <DistanceMeters>NAN</DistanceMeters>
          </Trackpoint>
          <Trackpoint>
            <Time>2022-09-22T09:59:31.000Z</Time>
            <Position>
              <LatitudeDegrees>49.5493845641613006591796875</LatitudeDegrees>
              <LongitudeDegrees>20.42406342923641204833984375</LongitudeDegrees>
            </Position>
            <AltitudeMeters>361.20001220703125</AltitudeMeters>
            <DistanceMeters>NAN</DistanceMeters>
          </Trackpoint>
          <Trackpoint>
            <Time>2022-09-22T09:59:38.000Z</Time>
            <Position>
              <LatitudeDegrees>49.549219943583011627197265625</LatitudeDegrees>
              <LongitudeDegrees>20.424338690936565399169921875</LongitudeDegrees>
            </Position>
            <AltitudeMeters>361.600006103515625</AltitudeMeters>
            <DistanceMeters>NAN</DistanceMeters>
          </Trackpoint>
          <Trackpoint>
            <Time>2022-09-22T09:59:44.000Z</Time>
            <Position>
              <LatitudeDegrees>49.54908357001841068267822265625</LatitudeDegrees>
              <LongitudeDegrees>20.424682013690471649169921875</LongitudeDegrees>
            </Position>
            <AltitudeMeters>361.600006103515625</AltitudeMeters>
            <DistanceMeters>NAN</DistanceMeters>
          </Trackpoint>
          <Trackpoint>
            <Time>2022-09-22T09:59:53.000Z</Time>
            <Position>
              <LatitudeDegrees>49.548824317753314971923828125</LatitudeDegrees>
              <LongitudeDegrees>20.425097085535526275634765625</LongitudeDegrees>
            </Position>
            <AltitudeMeters>361</AltitudeMeters>
            <DistanceMeters>NAN</DistanceMeters>
          </Trackpoint>
          <Trackpoint>
            <Time>2022-09-22T09:59:58.000Z</Time>
            <Position>
              <LatitudeDegrees>49.54871560446918010711669921875</LatitudeDegrees>
              <LongitudeDegrees>20.4254016838967800140380859375</LongitudeDegrees>
            </Position>
            <AltitudeMeters>360.600006103515625</AltitudeMeters>
            <DistanceMeters>NAN</DistanceMeters>
          </Trackpoint>
          <Trackpoint>
            <Time>2022-09-22T10:00:07.000Z</Time>
            <Position>
              <LatitudeDegrees>49.54846548847854137420654296875</LatitudeDegrees>
              <LongitudeDegrees>20.42592194862663745880126953125</LongitudeDegrees>
            </Position>
            <AltitudeMeters>360.79998779296875</AltitudeMeters>
            <DistanceMeters>NAN</DistanceMeters>
          </Trackpoint>
          <Trackpoint>
            <Time>2022-09-22T10:00:15.000Z</Time>
            <Position>
              <LatitudeDegrees>49.54827521927654743194580078125</LatitudeDegrees>
              <LongitudeDegrees>20.4262621700763702392578125</LongitudeDegrees>
            </Position>
            <AltitudeMeters>360.600006103515625</AltitudeMeters>
            <DistanceMeters>NAN</DistanceMeters>
          </Trackpoint>
          <Trackpoint>
            <Time>2022-09-22T10:00:18.000Z</Time>
            <Position>
              <LatitudeDegrees>49.54820497892796993255615234375</LatitudeDegrees>
              <LongitudeDegrees>20.42642888613045215606689453125</LongitudeDegrees>
            </Position>
            <AltitudeMeters>360.399993896484375</AltitudeMeters>
            <DistanceMeters>NAN</DistanceMeters>
          </Trackpoint>
          <Trackpoint>
            <Time>2022-09-22T10:00:21.000Z</Time>
            <Position>
              <LatitudeDegrees>49.54813054762780666351318359375</LatitudeDegrees>
              <LongitudeDegrees>20.4265679419040679931640625</LongitudeDegrees>
            </Position>
            <AltitudeMeters>360.20001220703125</AltitudeMeters>
            <DistanceMeters>NAN</DistanceMeters>
          </Trackpoint>
          <Trackpoint>
            <Time>2022-09-22T10:00:24.000Z</Time>
            <Position>
              <LatitudeDegrees>49.5480583794414997100830078125</LatitudeDegrees>
              <LongitudeDegrees>20.426684953272342681884765625</LongitudeDegrees>
            </Position>
            <AltitudeMeters>360.20001220703125</AltitudeMeters>
            <DistanceMeters>NAN</DistanceMeters>
          </Trackpoint>
          <Trackpoint>
            <Time>2022-09-22T10:00:26.000Z</Time>
            <Position>
              <LatitudeDegrees>49.54800984822213649749755859375</LatitudeDegrees>
              <LongitudeDegrees>20.42678260244429111480712890625</LongitudeDegrees>
            </Position>
            <AltitudeMeters>360.20001220703125</AltitudeMeters>
            <DistanceMeters>NAN</DistanceMeters>
          </Trackpoint>
          <Trackpoint>
            <Time>2022-09-22T10:00:32.000Z</Time>
            <Position>
              <LatitudeDegrees>49.5478999614715576171875</LatitudeDegrees>
              <LongitudeDegrees>20.42714838869869709014892578125</LongitudeDegrees>
            </Position>
            <AltitudeMeters>359.79998779296875</AltitudeMeters>
            <DistanceMeters>NAN</DistanceMeters>
          </Trackpoint>
          <Trackpoint>
            <Time>2022-09-22T10:00:36.000Z</Time>
            <Position>
              <LatitudeDegrees>49.5478545315563678741455078125</LatitudeDegrees>
              <LongitudeDegrees>20.4273892007768154144287109375</LongitudeDegrees>
            </Position>
            <AltitudeMeters>359.600006103515625</AltitudeMeters>
            <DistanceMeters>NAN</DistanceMeters>
          </Trackpoint>
          <Trackpoint>
            <Time>2022-09-22T10:00:38.000Z</Time>
            <Position>
              <LatitudeDegrees>49.54783047549426555633544921875</LatitudeDegrees>
              <LongitudeDegrees>20.42750512249767780303955078125</LongitudeDegrees>
            </Position>
            <AltitudeMeters>359.600006103515625</AltitudeMeters>
            <DistanceMeters>NAN</DistanceMeters>
          </Trackpoint>
          <Trackpoint>
            <Time>2022-09-22T10:00:45.000Z</Time>
            <Position>
              <LatitudeDegrees>49.54776040278375148773193359375</LatitudeDegrees>
              <LongitudeDegrees>20.42791550047695636749267578125</LongitudeDegrees>
            </Position>
            <AltitudeMeters>359.600006103515625</AltitudeMeters>
            <DistanceMeters>NAN</DistanceMeters>
          </Trackpoint>
          <Trackpoint>
            <Time>2022-09-22T10:00:47.000Z</Time>
            <Position>
              <LatitudeDegrees>49.54773207195103168487548828125</LatitudeDegrees>
              <LongitudeDegrees>20.4280346073210239410400390625</LongitudeDegrees>
            </Position>
            <AltitudeMeters>359.600006103515625</AltitudeMeters>
            <DistanceMeters>NAN</DistanceMeters>
          </Trackpoint>
          <Trackpoint>
            <Time>2022-09-22T10:00:53.000Z</Time>
            <Position>
              <LatitudeDegrees>49.5476583950221538543701171875</LatitudeDegrees>
              <LongitudeDegrees>20.42840098030865192413330078125</LongitudeDegrees>
            </Position>
            <AltitudeMeters>359.600006103515625</AltitudeMeters>
            <DistanceMeters>NAN</DistanceMeters>
          </Trackpoint>
          <Trackpoint>
            <Time>2022-09-22T10:00:59.000Z</Time>
            <Position>
              <LatitudeDegrees>49.54758622683584690093994140625</LatitudeDegrees>
              <LongitudeDegrees>20.428724102675914764404296875</LongitudeDegrees>
            </Position>
            <AltitudeMeters>359.600006103515625</AltitudeMeters>
            <DistanceMeters>NAN</DistanceMeters>
          </Trackpoint>
          <Trackpoint>
            <Time>2022-09-22T10:01:05.000Z</Time>
            <Position>
              <LatitudeDegrees>49.547499306499958038330078125</LatitudeDegrees>
              <LongitudeDegrees>20.42904856614768505096435546875</LongitudeDegrees>
            </Position>
            <AltitudeMeters>359.20001220703125</AltitudeMeters>
            <DistanceMeters>NAN</DistanceMeters>
          </Trackpoint>
          <Trackpoint>
            <Time>2022-09-22T10:01:08.000Z</Time>
            <Position>
              <LatitudeDegrees>49.54746955074369907379150390625</LatitudeDegrees>
              <LongitudeDegrees>20.4292047210037708282470703125</LongitudeDegrees>
            </Position>
            <AltitudeMeters>359</AltitudeMeters>
            <DistanceMeters>NAN</DistanceMeters>
          </Trackpoint>
          <Trackpoint>
            <Time>2022-09-22T10:01:11.000Z</Time>
            <Position>
              <LatitudeDegrees>49.54744641669094562530517578125</LatitudeDegrees>
              <LongitudeDegrees>20.42937546037137508392333984375</LongitudeDegrees>
            </Position>
            <AltitudeMeters>358.79998779296875</AltitudeMeters>
            <DistanceMeters>NAN</DistanceMeters>
          </Trackpoint>
          <Trackpoint>
            <Time>2022-09-22T10:01:17.000Z</Time>
            <Position>
              <LatitudeDegrees>49.5473965443670749664306640625</LatitudeDegrees>
              <LongitudeDegrees>20.42968324385583400726318359375</LongitudeDegrees>
            </Position>
            <AltitudeMeters>358.79998779296875</AltitudeMeters>
            <DistanceMeters>NAN</DistanceMeters>
          </Trackpoint>
          <Trackpoint>
            <Time>2022-09-22T10:01:25.000Z</Time>
            <Position>
              <LatitudeDegrees>49.54737869091331958770751953125</LatitudeDegrees>
              <LongitudeDegrees>20.43006076477468013763427734375</LongitudeDegrees>
            </Position>
            <AltitudeMeters>359</AltitudeMeters>
            <DistanceMeters>NAN</DistanceMeters>
          </Trackpoint>
          <Trackpoint>
            <Time>2022-09-22T10:01:28.000Z</Time>
            <Position>
              <LatitudeDegrees>49.54737902618944644927978515625</LatitudeDegrees>
              <LongitudeDegrees>20.430070571601390838623046875</LongitudeDegrees>
            </Position>
            <AltitudeMeters>358.79998779296875</AltitudeMeters>
            <DistanceMeters>NAN</DistanceMeters>
          </Trackpoint>
          <Trackpoint>
            <Time>2022-09-22T10:01:32.000Z</Time>
            <Position>
              <LatitudeDegrees>49.54737902618944644927978515625</LatitudeDegrees>
              <LongitudeDegrees>20.430070571601390838623046875</LongitudeDegrees>
            </Position>
            <AltitudeMeters>358.79998779296875</AltitudeMeters>
            <DistanceMeters>NAN</DistanceMeters>
          </Trackpoint>
          <Trackpoint>
            <Time>2022-09-22T10:01:37.000Z</Time>
            <Position>
              <LatitudeDegrees>49.54737902618944644927978515625</LatitudeDegrees>
              <LongitudeDegrees>20.430070571601390838623046875</LongitudeDegrees>
            </Position>
            <AltitudeMeters>359</AltitudeMeters>
            <DistanceMeters>NAN</DistanceMeters>
          </Trackpoint>
          <Trackpoint>
            <Time>2022-09-22T10:01:40.000Z</Time>
            <Position>
              <LatitudeDegrees>49.54737902618944644927978515625</LatitudeDegrees>
              <LongitudeDegrees>20.430070571601390838623046875</LongitudeDegrees>
            </Position>
            <AltitudeMeters>359</AltitudeMeters>
            <DistanceMeters>NAN</DistanceMeters>
          </Trackpoint>
          <Trackpoint>
            <Time>2022-09-22T10:01:50.000Z</Time>
            <Position>
              <LatitudeDegrees>49.54737902618944644927978515625</LatitudeDegrees>
              <LongitudeDegrees>20.430070571601390838623046875</LongitudeDegrees>
            </Position>
            <AltitudeMeters>358.79998779296875</AltitudeMeters>
            <DistanceMeters>NAN</DistanceMeters>
          </Trackpoint>
          <Trackpoint>
            <Time>2022-09-22T10:01:58.000Z</Time>
            <Position>
              <LatitudeDegrees>49.54737902618944644927978515625</LatitudeDegrees>
              <LongitudeDegrees>20.430070571601390838623046875</LongitudeDegrees>
            </Position>
            <AltitudeMeters>358.600006103515625</AltitudeMeters>
            <DistanceMeters>NAN</DistanceMeters>
          </Trackpoint>
          <Trackpoint>
            <Time>2022-09-22T10:02:02.000Z</Time>
            <Position>
              <LatitudeDegrees>49.54737902618944644927978515625</LatitudeDegrees>
              <LongitudeDegrees>20.430070571601390838623046875</LongitudeDegrees>
            </Position>
            <AltitudeMeters>358.79998779296875</AltitudeMeters>
            <DistanceMeters>NAN</DistanceMeters>
          </Trackpoint>
          <Trackpoint>
            <Time>2022-09-22T10:02:13.000Z</Time>
            <Position>
              <LatitudeDegrees>49.54737902618944644927978515625</LatitudeDegrees>
              <LongitudeDegrees>20.430070571601390838623046875</LongitudeDegrees>
            </Position>
            <AltitudeMeters>358.79998779296875</AltitudeMeters>
            <DistanceMeters>NAN</DistanceMeters>
          </Trackpoint>
          <Trackpoint>
            <Time>2022-09-22T10:02:25.000Z</Time>
            <Position>
              <LatitudeDegrees>49.54737533815205097198486328125</LatitudeDegrees>
              <LongitudeDegrees>20.43015514500439167022705078125</LongitudeDegrees>
            </Position>
            <AltitudeMeters>358.600006103515625</AltitudeMeters>
            <DistanceMeters>NAN</DistanceMeters>
          </Trackpoint>
          <Trackpoint>
            <Time>2022-09-22T10:02:30.000Z</Time>
            <Position>
              <LatitudeDegrees>49.547411464154720306396484375</LatitudeDegrees>
              <LongitudeDegrees>20.43030685745179653167724609375</LongitudeDegrees>
            </Position>
            <AltitudeMeters>359</AltitudeMeters>
            <DistanceMeters>NAN</DistanceMeters>
          </Trackpoint>
          <Trackpoint>
            <Time>2022-09-22T10:02:31.000Z</Time>
            <Position>
              <LatitudeDegrees>49.54743258655071258544921875</LatitudeDegrees>
              <LongitudeDegrees>20.43032705783843994140625</LongitudeDegrees>
            </Position>
            <AltitudeMeters>359</AltitudeMeters>
            <DistanceMeters>NAN</DistanceMeters>
          </Trackpoint>
          <Trackpoint>
            <Time>2022-09-22T10:02:34.000Z</Time>
            <Position>
              <LatitudeDegrees>49.54750224016606807708740234375</LatitudeDegrees>
              <LongitudeDegrees>20.4303845576941967010498046875</LongitudeDegrees>
            </Position>
            <AltitudeMeters>359.20001220703125</AltitudeMeters>
            <DistanceMeters>NAN</DistanceMeters>
          </Trackpoint>
          <Trackpoint>
            <Time>2022-09-22T10:02:37.000Z</Time>
            <Position>
              <LatitudeDegrees>49.54759678803384304046630859375</LatitudeDegrees>
              <LongitudeDegrees>20.43047131039202213287353515625</LongitudeDegrees>
            </Position>
            <AltitudeMeters>359.399993896484375</AltitudeMeters>
            <DistanceMeters>NAN</DistanceMeters>
          </Trackpoint>
          <Trackpoint>
            <Time>2022-09-22T10:02:39.000Z</Time>
            <Position>
              <LatitudeDegrees>49.54766065813601016998291015625</LatitudeDegrees>
              <LongitudeDegrees>20.43054155074059963226318359375</LongitudeDegrees>
            </Position>
            <AltitudeMeters>359.399993896484375</AltitudeMeters>
            <DistanceMeters>NAN</DistanceMeters>
          </Trackpoint>
          <Trackpoint>
            <Time>2022-09-22T10:02:44.000Z</Time>
            <Position>
              <LatitudeDegrees>49.5478129573166370391845703125</LatitudeDegrees>
              <LongitudeDegrees>20.43071639724075794219970703125</LongitudeDegrees>
            </Position>
            <AltitudeMeters>360.20001220703125</AltitudeMeters>
            <DistanceMeters>NAN</DistanceMeters>
          </Trackpoint>
          <Trackpoint>
            <Time>2022-09-22T10:02:45.000Z</Time>
            <Position>
              <LatitudeDegrees>49.5478414557874202728271484375</LatitudeDegrees>
              <LongitudeDegrees>20.43074523098766803741455078125</LongitudeDegrees>
            </Position>
            <AltitudeMeters>360.20001220703125</AltitudeMeters>
            <DistanceMeters>NAN</DistanceMeters>
          </Trackpoint>
          <Trackpoint>
            <Time>2022-09-22T10:02:50.000Z</Time>
            <Position>
              <LatitudeDegrees>49.54794145189225673675537109375</LatitudeDegrees>
              <LongitudeDegrees>20.4308599792420864105224609375</LongitudeDegrees>
            </Position>
            <AltitudeMeters>361</AltitudeMeters>
            <DistanceMeters>NAN</DistanceMeters>
          </Trackpoint>
          <Trackpoint>
            <Time>2022-09-22T10:02:52.000Z</Time>
            <Position>
              <LatitudeDegrees>49.5479846186935901641845703125</LatitudeDegrees>
              <LongitudeDegrees>20.43089694343507289886474609375</LongitudeDegrees>
            </Position>
            <AltitudeMeters>361.20001220703125</AltitudeMeters>
            <DistanceMeters>NAN</DistanceMeters>
          </Trackpoint>
          <Trackpoint>
            <Time>2022-09-22T10:02:55.000Z</Time>
            <Position>
              <LatitudeDegrees>49.5480355806648731231689453125</LatitudeDegrees>
              <LongitudeDegrees>20.4309545271098613739013671875</LongitudeDegrees>
            </Position>
            <AltitudeMeters>361.600006103515625</AltitudeMeters>
            <DistanceMeters>NAN</DistanceMeters>
          </Trackpoint>
          <Trackpoint>
            <Time>2022-09-22T10:02:59.000Z</Time>
            <Position>
              <LatitudeDegrees>49.54810037277638912200927734375</LatitudeDegrees>
              <LongitudeDegrees>20.43102418072521686553955078125</LongitudeDegrees>
            </Position>
            <AltitudeMeters>362.20001220703125</AltitudeMeters>
            <DistanceMeters>NAN</DistanceMeters>
          </Trackpoint>
          <Trackpoint>
            <Time>2022-09-22T10:03:01.000Z</Time>
            <Position>
              <LatitudeDegrees>49.5481373369693756103515625</LatitudeDegrees>
              <LongitudeDegrees>20.43105418793857097625732421875</LongitudeDegrees>
            </Position>
            <AltitudeMeters>362.399993896484375</AltitudeMeters>
            <DistanceMeters>NAN</DistanceMeters>
          </Trackpoint>
          <Trackpoint>
            <Time>2022-09-22T10:03:02.000Z</Time>
            <Position>
              <LatitudeDegrees>49.548154436051845550537109375</LatitudeDegrees>
              <LongitudeDegrees>20.43107338249683380126953125</LongitudeDegrees>
            </Position>
            <AltitudeMeters>362.399993896484375</AltitudeMeters>
            <DistanceMeters>NAN</DistanceMeters>
          </Trackpoint>
          <Trackpoint>
            <Time>2022-09-22T10:03:04.000Z</Time>
            <Position>
              <LatitudeDegrees>49.5481861196458339691162109375</LatitudeDegrees>
              <LongitudeDegrees>20.43110900558531284332275390625</LongitudeDegrees>
            </Position>
            <AltitudeMeters>362.600006103515625</AltitudeMeters>
            <DistanceMeters>NAN</DistanceMeters>
          </Trackpoint>
          <Trackpoint>
            <Time>2022-09-22T10:03:08.000Z</Time>
            <Position>
              <LatitudeDegrees>49.54825627617537975311279296875</LatitudeDegrees>
              <LongitudeDegrees>20.431189052760601043701171875</LongitudeDegrees>
            </Position>
            <AltitudeMeters>362.79998779296875</AltitudeMeters>
            <DistanceMeters>NAN</DistanceMeters>
          </Trackpoint>
          <Trackpoint>
            <Time>2022-09-22T10:03:09.000Z</Time>
            <Position>
              <LatitudeDegrees>49.54827186651527881622314453125</LatitudeDegrees>
              <LongitudeDegrees>20.43121126480400562286376953125</LongitudeDegrees>
            </Position>
            <AltitudeMeters>363</AltitudeMeters>
            <DistanceMeters>NAN</DistanceMeters>
          </Trackpoint>
          <Trackpoint>
            <Time>2022-09-22T10:03:10.000Z</Time>
            <Position>
              <LatitudeDegrees>49.5482929050922393798828125</LatitudeDegrees>
              <LongitudeDegrees>20.43123238719999790191650390625</LongitudeDegrees>
            </Position>
            <AltitudeMeters>363</AltitudeMeters>
            <DistanceMeters>NAN</DistanceMeters>
          </Trackpoint>
          <Trackpoint>
            <Time>2022-09-22T10:03:14.000Z</Time>
            <Position>
              <LatitudeDegrees>49.54837496392428874969482421875</LatitudeDegrees>
              <LongitudeDegrees>20.4313012026250362396240234375</LongitudeDegrees>
            </Position>
            <AltitudeMeters>363.20001220703125</AltitudeMeters>
            <DistanceMeters>NAN</DistanceMeters>
          </Trackpoint>
          <Trackpoint>
            <Time>2022-09-22T10:03:15.000Z</Time>
            <Position>
              <LatitudeDegrees>49.5483916439116001129150390625</LatitudeDegrees>
              <LongitudeDegrees>20.4313229955732822418212890625</LongitudeDegrees>
            </Position>
            <AltitudeMeters>363.399993896484375</AltitudeMeters>
            <DistanceMeters>NAN</DistanceMeters>
          </Trackpoint>
          <Trackpoint>
            <Time>2022-09-22T10:03:22.000Z</Time>
            <Position>
              <LatitudeDegrees>49.548511505126953125</LatitudeDegrees>
              <LongitudeDegrees>20.43145802803337574005126953125</LongitudeDegrees>
            </Position>
            <AltitudeMeters>363.79998779296875</AltitudeMeters>
            <DistanceMeters>NAN</DistanceMeters>
          </Trackpoint>
          <Trackpoint>
            <Time>2022-09-22T10:03:31.000Z</Time>
            <Position>
              <LatitudeDegrees>49.5486938953399658203125</LatitudeDegrees>
              <LongitudeDegrees>20.4316535778343677520751953125</LongitudeDegrees>
            </Position>
            <AltitudeMeters>363.399993896484375</AltitudeMeters>
            <DistanceMeters>NAN</DistanceMeters>
          </Trackpoint>
          <Trackpoint>
            <Time>2022-09-22T10:03:35.000Z</Time>
            <Position>
              <LatitudeDegrees>49.548788778483867645263671875</LatitudeDegrees>
              <LongitudeDegrees>20.43175240047276020050048828125</LongitudeDegrees>
            </Position>
            <AltitudeMeters>362.79998779296875</AltitudeMeters>
            <DistanceMeters>NAN</DistanceMeters>
          </Trackpoint>
          <Trackpoint>
            <Time>2022-09-22T10:03:39.000Z</Time>
            <Position>
              <LatitudeDegrees>49.54888927750289440155029296875</LatitudeDegrees>
              <LongitudeDegrees>20.43185390532016754150390625</LongitudeDegrees>
            </Position>
            <AltitudeMeters>362.399993896484375</AltitudeMeters>
            <DistanceMeters>NAN</DistanceMeters>
          </Trackpoint>
          <Trackpoint>
            <Time>2022-09-22T10:03:41.000Z</Time>
            <Position>
              <LatitudeDegrees>49.54894091002643108367919921875</LatitudeDegrees>
              <LongitudeDegrees>20.431912243366241455078125</LongitudeDegrees>
            </Position>
            <AltitudeMeters>362.20001220703125</AltitudeMeters>
            <DistanceMeters>NAN</DistanceMeters>
          </Trackpoint>
          <Trackpoint>
            <Time>2022-09-22T10:03:45.000Z</Time>
            <Position>
              <LatitudeDegrees>49.54902724362909793853759765625</LatitudeDegrees>
              <LongitudeDegrees>20.43207443319261074066162109375</LongitudeDegrees>
            </Position>
            <AltitudeMeters>361.600006103515625</AltitudeMeters>
            <DistanceMeters>NAN</DistanceMeters>
          </Trackpoint>
          <Trackpoint>
            <Time>2022-09-22T10:03:46.000Z</Time>
            <Position>
              <LatitudeDegrees>49.5490251481533050537109375</LatitudeDegrees>
              <LongitudeDegrees>20.43213947676122188568115234375</LongitudeDegrees>
            </Position>
            <AltitudeMeters>361.20001220703125</AltitudeMeters>
            <DistanceMeters>NAN</DistanceMeters>
          </Trackpoint>
          <Trackpoint>
            <Time>2022-09-22T10:03:47.000Z</Time>
            <Position>
              <LatitudeDegrees>49.54901182092726230621337890625</LatitudeDegrees>
              <LongitudeDegrees>20.4322054423391819000244140625</LongitudeDegrees>
            </Position>
            <AltitudeMeters>361</AltitudeMeters>
            <DistanceMeters>NAN</DistanceMeters>
          </Trackpoint>
          <Trackpoint>
            <Time>2022-09-22T10:03:51.000Z</Time>
            <Position>
              <LatitudeDegrees>49.54893973655998706817626953125</LatitudeDegrees>
              <LongitudeDegrees>20.43252605013549327850341796875</LongitudeDegrees>
            </Position>
            <AltitudeMeters>360</AltitudeMeters>
            <DistanceMeters>NAN</DistanceMeters>
          </Trackpoint>
          <Trackpoint>
            <Time>2022-09-22T10:03:52.000Z</Time>
            <Position>
              <LatitudeDegrees>49.548919536173343658447265625</LatitudeDegrees>
              <LongitudeDegrees>20.43261674232780933380126953125</LongitudeDegrees>
            </Position>
            <AltitudeMeters>359.79998779296875</AltitudeMeters>
            <DistanceMeters>NAN</DistanceMeters>
          </Trackpoint>
          <Trackpoint>
            <Time>2022-09-22T10:03:56.000Z</Time>
            <Position>
              <LatitudeDegrees>49.54883177764713764190673828125</LatitudeDegrees>
              <LongitudeDegrees>20.4329829476773738861083984375</LongitudeDegrees>
            </Position>
            <AltitudeMeters>358.79998779296875</AltitudeMeters>
            <DistanceMeters>NAN</DistanceMeters>
          </Trackpoint>
          <Trackpoint>
            <Time>2022-09-22T10:03:58.000Z</Time>
            <Position>
              <LatitudeDegrees>49.54879322089254856109619140625</LatitudeDegrees>
              <LongitudeDegrees>20.43319425545632839202880859375</LongitudeDegrees>
            </Position>
            <AltitudeMeters>358.399993896484375</AltitudeMeters>
            <DistanceMeters>NAN</DistanceMeters>
          </Trackpoint>
          <Trackpoint>
            <Time>2022-09-22T10:04:07.000Z</Time>
            <Position>
              <LatitudeDegrees>49.54864251427352428436279296875</LatitudeDegrees>
              <LongitudeDegrees>20.43399875052273273468017578125</LongitudeDegrees>
            </Position>
            <AltitudeMeters>358</AltitudeMeters>
            <DistanceMeters>NAN</DistanceMeters>
          </Trackpoint>
          <Trackpoint>
            <Time>2022-09-22T10:04:08.000Z</Time>
            <Position>
              <LatitudeDegrees>49.54862608574330806732177734375</LatitudeDegrees>
              <LongitudeDegrees>20.4340875148773193359375</LongitudeDegrees>
            </Position>
            <AltitudeMeters>358</AltitudeMeters>
            <DistanceMeters>NAN</DistanceMeters>
          </Trackpoint>
          <Trackpoint>
            <Time>2022-09-22T10:04:11.000Z</Time>
            <Position>
              <LatitudeDegrees>49.54859272576868534088134765625</LatitudeDegrees>
              <LongitudeDegrees>20.43434944935142993927001953125</LongitudeDegrees>
            </Position>
            <AltitudeMeters>358</AltitudeMeters>
            <DistanceMeters>NAN</DistanceMeters>
          </Trackpoint>
          <Trackpoint>
            <Time>2022-09-22T10:04:14.000Z</Time>
            <Position>
              <LatitudeDegrees>49.54855400137603282928466796875</LatitudeDegrees>
              <LongitudeDegrees>20.4346123896539211273193359375</LongitudeDegrees>
            </Position>
            <AltitudeMeters>357.79998779296875</AltitudeMeters>
            <DistanceMeters>NAN</DistanceMeters>
          </Trackpoint>
          <Trackpoint>
            <Time>2022-09-22T10:04:16.000Z</Time>
            <Position>
              <LatitudeDegrees>49.5485351420938968658447265625</LatitudeDegrees>
              <LongitudeDegrees>20.43479067273437976837158203125</LongitudeDegrees>
            </Position>
            <AltitudeMeters>357.600006103515625</AltitudeMeters>
            <DistanceMeters>NAN</DistanceMeters>
          </Trackpoint>
          <Trackpoint>
            <Time>2022-09-22T10:04:21.000Z</Time>
            <Position>
              <LatitudeDegrees>49.54852198250591754913330078125</LatitudeDegrees>
              <LongitudeDegrees>20.4352427087724208831787109375</LongitudeDegrees>
            </Position>
            <AltitudeMeters>357.20001220703125</AltitudeMeters>
            <DistanceMeters>NAN</DistanceMeters>
          </Trackpoint>
          <Trackpoint>
            <Time>2022-09-22T10:04:29.000Z</Time>
            <Position>
              <LatitudeDegrees>49.5485844276845455169677734375</LatitudeDegrees>
              <LongitudeDegrees>20.4359702579677104949951171875</LongitudeDegrees>
            </Position>
            <AltitudeMeters>357.20001220703125</AltitudeMeters>
            <DistanceMeters>NAN</DistanceMeters>
          </Trackpoint>
          <Trackpoint>
            <Time>2022-09-22T10:04:35.000Z</Time>
            <Position>
              <LatitudeDegrees>49.5486766286194324493408203125</LatitudeDegrees>
              <LongitudeDegrees>20.436466969549655914306640625</LongitudeDegrees>
            </Position>
            <AltitudeMeters>357.20001220703125</AltitudeMeters>
            <DistanceMeters>NAN</DistanceMeters>
          </Trackpoint>
          <Trackpoint>
            <Time>2022-09-22T10:04:41.000Z</Time>
            <Position>
              <LatitudeDegrees>49.54879540018737316131591796875</LatitudeDegrees>
              <LongitudeDegrees>20.43689872138202190399169921875</LongitudeDegrees>
            </Position>
            <AltitudeMeters>357.399993896484375</AltitudeMeters>
            <DistanceMeters>NAN</DistanceMeters>
          </Trackpoint>
          <Trackpoint>
            <Time>2022-09-22T10:04:45.000Z</Time>
            <Position>
              <LatitudeDegrees>49.54886622726917266845703125</LatitudeDegrees>
              <LongitudeDegrees>20.43716258369386196136474609375</LongitudeDegrees>
            </Position>
            <AltitudeMeters>357.399993896484375</AltitudeMeters>
            <DistanceMeters>NAN</DistanceMeters>
          </Trackpoint>
          <Trackpoint>
            <Time>2022-09-22T10:04:47.000Z</Time>
            <Position>
              <LatitudeDegrees>49.54887184314429759979248046875</LatitudeDegrees>
              <LongitudeDegrees>20.43729015626013278961181640625</LongitudeDegrees>
            </Position>
            <AltitudeMeters>357.399993896484375</AltitudeMeters>
            <DistanceMeters>NAN</DistanceMeters>
          </Trackpoint>
          <Trackpoint>
            <Time>2022-09-22T10:04:54.000Z</Time>
            <Position>
              <LatitudeDegrees>49.54878886230289936065673828125</LatitudeDegrees>
              <LongitudeDegrees>20.437786616384983062744140625</LongitudeDegrees>
            </Position>
            <AltitudeMeters>357.20001220703125</AltitudeMeters>
            <DistanceMeters>NAN</DistanceMeters>
          </Trackpoint>
          <Trackpoint>
            <Time>2022-09-22T10:04:55.000Z</Time>
            <Position>
              <LatitudeDegrees>49.548782408237457275390625</LatitudeDegrees>
              <LongitudeDegrees>20.4378654062747955322265625</LongitudeDegrees>
            </Position>
            <AltitudeMeters>357.20001220703125</AltitudeMeters>
            <DistanceMeters>NAN</DistanceMeters>
          </Trackpoint>
          <Trackpoint>
            <Time>2022-09-22T10:04:59.000Z</Time>
            <Position>
              <LatitudeDegrees>49.5488052070140838623046875</LatitudeDegrees>
              <LongitudeDegrees>20.43819389306008815765380859375</LongitudeDegrees>
            </Position>
            <AltitudeMeters>356.79998779296875</AltitudeMeters>
            <DistanceMeters>NAN</DistanceMeters>
          </Trackpoint>
          <Trackpoint>
            <Time>2022-09-22T10:05:06.000Z</Time>
            <Position>
              <LatitudeDegrees>49.54886832274496555328369140625</LatitudeDegrees>
              <LongitudeDegrees>20.43877626769244670867919921875</LongitudeDegrees>
            </Position>
            <AltitudeMeters>357</AltitudeMeters>
            <DistanceMeters>NAN</DistanceMeters>
          </Trackpoint>
          <Trackpoint>
            <Time>2022-09-22T10:05:12.000Z</Time>
            <Position>
              <LatitudeDegrees>49.54892925918102264404296875</LatitudeDegrees>
              <LongitudeDegrees>20.4391976259648799896240234375</LongitudeDegrees>
            </Position>
            <AltitudeMeters>356.79998779296875</AltitudeMeters>
            <DistanceMeters>NAN</DistanceMeters>
          </Trackpoint>
          <Trackpoint>
            <Time>2022-09-22T10:05:13.000Z</Time>
            <Position>
              <LatitudeDegrees>49.5489324443042278289794921875</LatitudeDegrees>
              <LongitudeDegrees>20.43924867175519466400146484375</LongitudeDegrees>
            </Position>
            <AltitudeMeters>357</AltitudeMeters>
            <DistanceMeters>NAN</DistanceMeters>
          </Trackpoint>
          <Trackpoint>
            <Time>2022-09-22T10:05:15.000Z</Time>
            <Position>
              <LatitudeDegrees>49.54893462359905242919921875</LatitudeDegrees>
              <LongitudeDegrees>20.4393875598907470703125</LongitudeDegrees>
            </Position>
            <AltitudeMeters>357</AltitudeMeters>
            <DistanceMeters>NAN</DistanceMeters>
          </Trackpoint>
          <Trackpoint>
            <Time>2022-09-22T10:05:21.000Z</Time>
            <Position>
              <LatitudeDegrees>49.54893319867551326751708984375</LatitudeDegrees>
              <LongitudeDegrees>20.439726524055004119873046875</LongitudeDegrees>
            </Position>
            <AltitudeMeters>356.600006103515625</AltitudeMeters>
            <DistanceMeters>NAN</DistanceMeters>
          </Trackpoint>
          <Trackpoint>
            <Time>2022-09-22T10:05:29.000Z</Time>
            <Position>
              <LatitudeDegrees>49.548921547830104827880859375</LatitudeDegrees>
              <LongitudeDegrees>20.4402175359427928924560546875</LongitudeDegrees>
            </Position>
            <AltitudeMeters>356.399993896484375</AltitudeMeters>
            <DistanceMeters>NAN</DistanceMeters>
          </Trackpoint>
          <Trackpoint>
            <Time>2022-09-22T10:05:37.000Z</Time>
            <Position>
              <LatitudeDegrees>49.548942334949970245361328125</LatitudeDegrees>
              <LongitudeDegrees>20.4406718350946903228759765625</LongitudeDegrees>
            </Position>
            <AltitudeMeters>356.399993896484375</AltitudeMeters>
            <DistanceMeters>NAN</DistanceMeters>
          </Trackpoint>
          <Trackpoint>
            <Time>2022-09-22T10:05:38.000Z</Time>
            <Position>
              <LatitudeDegrees>49.5489475317299365997314453125</LatitudeDegrees>
              <LongitudeDegrees>20.44072858057916164398193359375</LongitudeDegrees>
            </Position>
            <AltitudeMeters>356.399993896484375</AltitudeMeters>
            <DistanceMeters>NAN</DistanceMeters>
          </Trackpoint>
          <Trackpoint>
            <Time>2022-09-22T10:05:43.000Z</Time>
            <Position>
              <LatitudeDegrees>49.549030177295207977294921875</LatitudeDegrees>
              <LongitudeDegrees>20.44097836129367351531982421875</LongitudeDegrees>
            </Position>
            <AltitudeMeters>356.600006103515625</AltitudeMeters>
            <DistanceMeters>NAN</DistanceMeters>
          </Trackpoint>
          <Trackpoint>
            <Time>2022-09-22T10:05:46.000Z</Time>
            <Position>
              <LatitudeDegrees>49.54910452477633953094482421875</LatitudeDegrees>
              <LongitudeDegrees>20.44110593385994434356689453125</LongitudeDegrees>
            </Position>
            <AltitudeMeters>356.79998779296875</AltitudeMeters>
            <DistanceMeters>NAN</DistanceMeters>
          </Trackpoint>
          <Trackpoint>
            <Time>2022-09-22T10:05:51.000Z</Time>
            <Position>
              <LatitudeDegrees>49.54920577816665172576904296875</LatitudeDegrees>
              <LongitudeDegrees>20.4413142241537570953369140625</LongitudeDegrees>
            </Position>
            <AltitudeMeters>357</AltitudeMeters>
            <DistanceMeters>NAN</DistanceMeters>
          </Trackpoint>
          <Trackpoint>
            <Time>2022-09-22T10:05:55.000Z</Time>
            <Position>
              <LatitudeDegrees>49.54922405071556568145751953125</LatitudeDegrees>
              <LongitudeDegrees>20.44154472649097442626953125</LongitudeDegrees>
            </Position>
            <AltitudeMeters>357</AltitudeMeters>
            <DistanceMeters>NAN</DistanceMeters>
          </Trackpoint>
          <Trackpoint>
            <Time>2022-09-22T10:05:58.000Z</Time>
            <Position>
              <LatitudeDegrees>49.54916051588952541351318359375</LatitudeDegrees>
              <LongitudeDegrees>20.44169987551867961883544921875</LongitudeDegrees>
            </Position>
            <AltitudeMeters>356.79998779296875</AltitudeMeters>
            <DistanceMeters>NAN</DistanceMeters>
          </Trackpoint>
          <Trackpoint>
            <Time>2022-09-22T10:05:59.000Z</Time>
            <Position>
              <LatitudeDegrees>49.5491269044578075408935546875</LatitudeDegrees>
              <LongitudeDegrees>20.44176709838211536407470703125</LongitudeDegrees>
            </Position>
            <AltitudeMeters>356.600006103515625</AltitudeMeters>
            <DistanceMeters>NAN</DistanceMeters>
          </Trackpoint>
          <Trackpoint>
            <Time>2022-09-22T10:06:00.000Z</Time>
            <Position>
              <LatitudeDegrees>49.549103938043117523193359375</LatitudeDegrees>
              <LongitudeDegrees>20.44183163903653621673583984375</LongitudeDegrees>
            </Position>
            <AltitudeMeters>356.399993896484375</AltitudeMeters>
            <DistanceMeters>NAN</DistanceMeters>
          </Trackpoint>
          <Trackpoint>
            <Time>2022-09-22T10:06:02.000Z</Time>
            <Position>
              <LatitudeDegrees>49.54907518811523914337158203125</LatitudeDegrees>
              <LongitudeDegrees>20.441955439746379852294921875</LongitudeDegrees>
            </Position>
            <AltitudeMeters>356.20001220703125</AltitudeMeters>
            <DistanceMeters>NAN</DistanceMeters>
          </Trackpoint>
          <Trackpoint>
            <Time>2022-09-22T10:06:03.000Z</Time>
            <Position>
              <LatitudeDegrees>49.54906697385013103485107421875</LatitudeDegrees>
              <LongitudeDegrees>20.4420397616922855377197265625</LongitudeDegrees>
            </Position>
            <AltitudeMeters>356.20001220703125</AltitudeMeters>
            <DistanceMeters>NAN</DistanceMeters>
          </Trackpoint>
          <Trackpoint>
            <Time>2022-09-22T10:06:04.000Z</Time>
            <Position>
              <LatitudeDegrees>49.549065046012401580810546875</LatitudeDegrees>
              <LongitudeDegrees>20.4421105049550533294677734375</LongitudeDegrees>
            </Position>
            <AltitudeMeters>356</AltitudeMeters>
            <DistanceMeters>NAN</DistanceMeters>
          </Trackpoint>
          <Trackpoint>
            <Time>2022-09-22T10:06:09.000Z</Time>
            <Position>
              <LatitudeDegrees>49.54910284839570522308349609375</LatitudeDegrees>
              <LongitudeDegrees>20.44246137142181396484375</LongitudeDegrees>
            </Position>
            <AltitudeMeters>356.20001220703125</AltitudeMeters>
            <DistanceMeters>NAN</DistanceMeters>
          </Trackpoint>
          <Trackpoint>
            <Time>2022-09-22T10:06:16.000Z</Time>
            <Position>
              <LatitudeDegrees>49.54918951727449893951416015625</LatitudeDegrees>
              <LongitudeDegrees>20.4428930394351482391357421875</LongitudeDegrees>
            </Position>
            <AltitudeMeters>356.20001220703125</AltitudeMeters>
            <DistanceMeters>NAN</DistanceMeters>
          </Trackpoint>
          <Trackpoint>
            <Time>2022-09-22T10:06:17.000Z</Time>
            <Position>
              <LatitudeDegrees>49.5492010004818439483642578125</LatitudeDegrees>
              <LongitudeDegrees>20.44294693507254123687744140625</LongitudeDegrees>
            </Position>
            <AltitudeMeters>356.20001220703125</AltitudeMeters>
            <DistanceMeters>NAN</DistanceMeters>
          </Trackpoint>
          <Trackpoint>
            <Time>2022-09-22T10:06:22.000Z</Time>
            <Position>
              <LatitudeDegrees>49.5492519624531269073486328125</LatitudeDegrees>
              <LongitudeDegrees>20.44322739355266094207763671875</LongitudeDegrees>
            </Position>
            <AltitudeMeters>356.20001220703125</AltitudeMeters>
            <DistanceMeters>NAN</DistanceMeters>
          </Trackpoint>
          <Trackpoint>
            <Time>2022-09-22T10:06:26.000Z</Time>
            <Position>
              <LatitudeDegrees>49.5493015833199024200439453125</LatitudeDegrees>
              <LongitudeDegrees>20.44344029389321804046630859375</LongitudeDegrees>
            </Position>
            <AltitudeMeters>356</AltitudeMeters>
            <DistanceMeters>NAN</DistanceMeters>
          </Trackpoint>
          <Trackpoint>
            <Time>2022-09-22T10:06:29.000Z</Time>
            <Position>
              <LatitudeDegrees>49.54932547174394130706787109375</LatitudeDegrees>
              <LongitudeDegrees>20.44359619729220867156982421875</LongitudeDegrees>
            </Position>
            <AltitudeMeters>355.79998779296875</AltitudeMeters>
            <DistanceMeters>NAN</DistanceMeters>
          </Trackpoint>
          <Trackpoint>
            <Time>2022-09-22T10:06:35.000Z</Time>
            <Position>
              <LatitudeDegrees>49.5493448339402675628662109375</LatitudeDegrees>
              <LongitudeDegrees>20.44388906098902225494384765625</LongitudeDegrees>
            </Position>
            <AltitudeMeters>355.600006103515625</AltitudeMeters>
            <DistanceMeters>NAN</DistanceMeters>
          </Trackpoint>
          <Trackpoint>
            <Time>2022-09-22T10:06:36.000Z</Time>
            <Position>
              <LatitudeDegrees>49.54934156499803066253662109375</LatitudeDegrees>
              <LongitudeDegrees>20.443930886685848236083984375</LongitudeDegrees>
            </Position>
            <AltitudeMeters>355.399993896484375</AltitudeMeters>
            <DistanceMeters>NAN</DistanceMeters>
          </Trackpoint>
          <Trackpoint>
            <Time>2022-09-22T10:06:42.000Z</Time>
            <Position>
              <LatitudeDegrees>49.54931407235562801361083984375</LatitudeDegrees>
              <LongitudeDegrees>20.44425535015761852264404296875</LongitudeDegrees>
            </Position>
            <AltitudeMeters>355.600006103515625</AltitudeMeters>
            <DistanceMeters>NAN</DistanceMeters>
          </Trackpoint>
          <Trackpoint>
            <Time>2022-09-22T10:06:47.000Z</Time>
            <Position>
              <LatitudeDegrees>49.54930501990020275115966796875</LatitudeDegrees>
              <LongitudeDegrees>20.44448534958064556121826171875</LongitudeDegrees>
            </Position>
            <AltitudeMeters>356</AltitudeMeters>
            <DistanceMeters>NAN</DistanceMeters>
          </Trackpoint>
          <Trackpoint>
            <Time>2022-09-22T10:06:48.000Z</Time>
            <Position>
              <LatitudeDegrees>49.549315162003040313720703125</LatitudeDegrees>
              <LongitudeDegrees>20.4445254988968372344970703125</LongitudeDegrees>
            </Position>
            <AltitudeMeters>356</AltitudeMeters>
            <DistanceMeters>NAN</DistanceMeters>
          </Trackpoint>
          <Trackpoint>
            <Time>2022-09-22T10:06:53.000Z</Time>
            <Position>
              <LatitudeDegrees>49.5493703149259090423583984375</LatitudeDegrees>
              <LongitudeDegrees>20.444719456136226654052734375</LongitudeDegrees>
            </Position>
            <AltitudeMeters>356</AltitudeMeters>
            <DistanceMeters>NAN</DistanceMeters>
          </Trackpoint>
          <Trackpoint>
            <Time>2022-09-22T10:06:57.000Z</Time>
            <Position>
              <LatitudeDegrees>49.5494353584945201873779296875</LatitudeDegrees>
              <LongitudeDegrees>20.44489237479865550994873046875</LongitudeDegrees>
            </Position>
            <AltitudeMeters>356</AltitudeMeters>
            <DistanceMeters>NAN</DistanceMeters>
          </Trackpoint>
          <Trackpoint>
            <Time>2022-09-22T10:06:59.000Z</Time>
            <Position>
              <LatitudeDegrees>49.5494216121733188629150390625</LatitudeDegrees>
              <LongitudeDegrees>20.44498558156192302703857421875</LongitudeDegrees>
            </Position>
            <AltitudeMeters>355.79998779296875</AltitudeMeters>
            <DistanceMeters>NAN</DistanceMeters>
          </Trackpoint>
          <Trackpoint>
            <Time>2022-09-22T10:07:04.000Z</Time>
            <Position>
              <LatitudeDegrees>49.5492787845432758331298828125</LatitudeDegrees>
              <LongitudeDegrees>20.44523536227643489837646484375</LongitudeDegrees>
            </Position>
            <AltitudeMeters>355.399993896484375</AltitudeMeters>
            <DistanceMeters>NAN</DistanceMeters>
          </Trackpoint>
          <Trackpoint>
            <Time>2022-09-22T10:07:06.000Z</Time>
            <Position>
              <LatitudeDegrees>49.54923377372324466705322265625</LatitudeDegrees>
              <LongitudeDegrees>20.44536176137626171112060546875</LongitudeDegrees>
            </Position>
            <AltitudeMeters>355</AltitudeMeters>
            <DistanceMeters>NAN</DistanceMeters>
          </Trackpoint>
          <Trackpoint>
            <Time>2022-09-22T10:07:08.000Z</Time>
            <Position>
              <LatitudeDegrees>49.54920812509953975677490234375</LatitudeDegrees>
              <LongitudeDegrees>20.4455043375492095947265625</LongitudeDegrees>
            </Position>
            <AltitudeMeters>354.79998779296875</AltitudeMeters>
            <DistanceMeters>NAN</DistanceMeters>
          </Trackpoint>
          <Trackpoint>
            <Time>2022-09-22T10:07:09.000Z</Time>
            <Position>
              <LatitudeDegrees>49.54920292831957340240478515625</LatitudeDegrees>
              <LongitudeDegrees>20.44557902030646800994873046875</LongitudeDegrees>
            </Position>
            <AltitudeMeters>354.600006103515625</AltitudeMeters>
            <DistanceMeters>NAN</DistanceMeters>
          </Trackpoint>
          <Trackpoint>
            <Time>2022-09-22T10:07:12.000Z</Time>
            <Position>
              <LatitudeDegrees>49.549201838672161102294921875</LatitudeDegrees>
              <LongitudeDegrees>20.44580315239727497100830078125</LongitudeDegrees>
            </Position>
            <AltitudeMeters>354.600006103515625</AltitudeMeters>
            <DistanceMeters>NAN</DistanceMeters>
          </Trackpoint>
          <Trackpoint>
            <Time>2022-09-22T10:07:13.000Z</Time>
            <Position>
              <LatitudeDegrees>49.54919136129319667816162109375</LatitudeDegrees>
              <LongitudeDegrees>20.44588051736354827880859375</LongitudeDegrees>
            </Position>
            <AltitudeMeters>354.600006103515625</AltitudeMeters>
            <DistanceMeters>NAN</DistanceMeters>
          </Trackpoint>
          <Trackpoint>
            <Time>2022-09-22T10:07:16.000Z</Time>
            <Position>
              <LatitudeDegrees>49.54917090944945812225341796875</LatitudeDegrees>
              <LongitudeDegrees>20.446111857891082763671875</LongitudeDegrees>
            </Position>
            <AltitudeMeters>354.600006103515625</AltitudeMeters>
            <DistanceMeters>NAN</DistanceMeters>
          </Trackpoint>
          <Trackpoint>
            <Time>2022-09-22T10:07:21.000Z</Time>
            <Position>
              <LatitudeDegrees>49.54912883229553699493408203125</LatitudeDegrees>
              <LongitudeDegrees>20.446470268070697784423828125</LongitudeDegrees>
            </Position>
            <AltitudeMeters>354.399993896484375</AltitudeMeters>
            <DistanceMeters>NAN</DistanceMeters>
          </Trackpoint>
          <Trackpoint>
            <Time>2022-09-22T10:07:30.000Z</Time>
            <Position>
              <LatitudeDegrees>49.549065716564655303955078125</LatitudeDegrees>
              <LongitudeDegrees>20.44705758802592754364013671875</LongitudeDegrees>
            </Position>
            <AltitudeMeters>354.399993896484375</AltitudeMeters>
            <DistanceMeters>NAN</DistanceMeters>
          </Trackpoint>
          <Trackpoint>
            <Time>2022-09-22T10:07:31.000Z</Time>
            <Position>
              <LatitudeDegrees>49.54905456863343715667724609375</LatitudeDegrees>
              <LongitudeDegrees>20.4471217095851898193359375</LongitudeDegrees>
            </Position>
            <AltitudeMeters>354.399993896484375</AltitudeMeters>
            <DistanceMeters>NAN</DistanceMeters>
          </Trackpoint>
          <Trackpoint>
            <Time>2022-09-22T10:07:34.000Z</Time>
            <Position>
              <LatitudeDegrees>49.5490192808210849761962890625</LatitudeDegrees>
              <LongitudeDegrees>20.44730317778885364532470703125</LongitudeDegrees>
            </Position>
            <AltitudeMeters>354.600006103515625</AltitudeMeters>
            <DistanceMeters>NAN</DistanceMeters>
          </Trackpoint>
          <Trackpoint>
            <Time>2022-09-22T10:07:37.000Z</Time>
            <Position>
              <LatitudeDegrees>49.54898986034095287322998046875</LatitudeDegrees>
              <LongitudeDegrees>20.44748020358383655548095703125</LongitudeDegrees>
            </Position>
            <AltitudeMeters>354.600006103515625</AltitudeMeters>
            <DistanceMeters>NAN</DistanceMeters>
          </Trackpoint>
          <Trackpoint>
            <Time>2022-09-22T10:07:44.000Z</Time>
            <Position>
              <LatitudeDegrees>49.54891358502209186553955078125</LatitudeDegrees>
              <LongitudeDegrees>20.447856299579143524169921875</LongitudeDegrees>
            </Position>
            <AltitudeMeters>354.20001220703125</AltitudeMeters>
            <DistanceMeters>NAN</DistanceMeters>
          </Trackpoint>
          <Trackpoint>
            <Time>2022-09-22T10:07:53.000Z</Time>
            <Position>
              <LatitudeDegrees>49.54883244819939136505126953125</LatitudeDegrees>
              <LongitudeDegrees>20.44832325540482997894287109375</LongitudeDegrees>
            </Position>
            <AltitudeMeters>353.79998779296875</AltitudeMeters>
            <DistanceMeters>NAN</DistanceMeters>
          </Trackpoint>
          <Trackpoint>
            <Time>2022-09-22T10:08:00.000Z</Time>
            <Position>
              <LatitudeDegrees>49.54875131137669086456298828125</LatitudeDegrees>
              <LongitudeDegrees>20.4487218149006366729736328125</LongitudeDegrees>
            </Position>
            <AltitudeMeters>353.79998779296875</AltitudeMeters>
            <DistanceMeters>NAN</DistanceMeters>
          </Trackpoint>
          <Trackpoint>
            <Time>2022-09-22T10:08:01.000Z</Time>
            <Position>
              <LatitudeDegrees>49.54873387701809406280517578125</LatitudeDegrees>
              <LongitudeDegrees>20.44877822510898113250732421875</LongitudeDegrees>
            </Position>
            <AltitudeMeters>353.79998779296875</AltitudeMeters>
            <DistanceMeters>NAN</DistanceMeters>
          </Trackpoint>
          <Trackpoint>
            <Time>2022-09-22T10:08:03.000Z</Time>
            <Position>
              <LatitudeDegrees>49.54869984649121761322021484375</LatitudeDegrees>
              <LongitudeDegrees>20.448894314467906951904296875</LongitudeDegrees>
            </Position>
            <AltitudeMeters>353.79998779296875</AltitudeMeters>
            <DistanceMeters>NAN</DistanceMeters>
          </Trackpoint>
          <Trackpoint>
            <Time>2022-09-22T10:08:05.000Z</Time>
            <Position>
              <LatitudeDegrees>49.5486561767756938934326171875</LatitudeDegrees>
              <LongitudeDegrees>20.44902347959578037261962890625</LongitudeDegrees>
            </Position>
            <AltitudeMeters>353.79998779296875</AltitudeMeters>
            <DistanceMeters>NAN</DistanceMeters>
          </Trackpoint>
          <Trackpoint>
            <Time>2022-09-22T10:08:07.000Z</Time>
            <Position>
              <LatitudeDegrees>49.54860932193696498870849609375</LatitudeDegrees>
              <LongitudeDegrees>20.44915826059877872467041015625</LongitudeDegrees>
            </Position>
            <AltitudeMeters>353.79998779296875</AltitudeMeters>
            <DistanceMeters>NAN</DistanceMeters>
          </Trackpoint>
          <Trackpoint>
            <Time>2022-09-22T10:08:08.000Z</Time>
            <Position>
              <LatitudeDegrees>49.5485780574381351470947265625</LatitudeDegrees>
              <LongitudeDegrees>20.44922146014869213104248046875</LongitudeDegrees>
            </Position>
            <AltitudeMeters>353.79998779296875</AltitudeMeters>
            <DistanceMeters>NAN</DistanceMeters>
          </Trackpoint>
          <Trackpoint>
            <Time>2022-09-22T10:08:15.000Z</Time>
            <Position>
              <LatitudeDegrees>49.54837831668555736541748046875</LatitudeDegrees>
              <LongitudeDegrees>20.44964709319174289703369140625</LongitudeDegrees>
            </Position>
            <AltitudeMeters>353.399993896484375</AltitudeMeters>
            <DistanceMeters>NAN</DistanceMeters>
          </Trackpoint>
          <Trackpoint>
            <Time>2022-09-22T10:08:17.000Z</Time>
            <Position>
              <LatitudeDegrees>49.5483225770294666290283203125</LatitudeDegrees>
              <LongitudeDegrees>20.4497638531029224395751953125</LongitudeDegrees>
            </Position>
            <AltitudeMeters>353.399993896484375</AltitudeMeters>
            <DistanceMeters>NAN</DistanceMeters>
          </Trackpoint>
          <Trackpoint>
            <Time>2022-09-22T10:08:22.000Z</Time>
            <Position>
              <LatitudeDegrees>49.54817111603915691375732421875</LatitudeDegrees>
              <LongitudeDegrees>20.45006182976067066192626953125</LongitudeDegrees>
            </Position>
            <AltitudeMeters>353.20001220703125</AltitudeMeters>
            <DistanceMeters>NAN</DistanceMeters>
          </Trackpoint>
          <Trackpoint>
            <Time>2022-09-22T10:08:23.000Z</Time>
            <Position>
              <LatitudeDegrees>49.5481435395777225494384765625</LatitudeDegrees>
              <LongitudeDegrees>20.4501236043870449066162109375</LongitudeDegrees>
            </Position>
            <AltitudeMeters>353.20001220703125</AltitudeMeters>
            <DistanceMeters>NAN</DistanceMeters>
          </Trackpoint>
          <Trackpoint>
            <Time>2022-09-22T10:08:26.000Z</Time>
            <Position>
              <LatitudeDegrees>49.54806617461144924163818359375</LatitudeDegrees>
              <LongitudeDegrees>20.450322926044464111328125</LongitudeDegrees>
            </Position>
            <AltitudeMeters>353.20001220703125</AltitudeMeters>
            <DistanceMeters>NAN</DistanceMeters>
          </Trackpoint>
          <Trackpoint>
            <Time>2022-09-22T10:08:29.000Z</Time>
            <Position>
              <LatitudeDegrees>49.54800448380410671234130859375</LatitudeDegrees>
              <LongitudeDegrees>20.450519062578678131103515625</LongitudeDegrees>
            </Position>
            <AltitudeMeters>353</AltitudeMeters>
            <DistanceMeters>NAN</DistanceMeters>
          </Trackpoint>
          <Trackpoint>
            <Time>2022-09-22T10:08:37.000Z</Time>
            <Position>
              <LatitudeDegrees>49.547909013926982879638671875</LatitudeDegrees>
              <LongitudeDegrees>20.451029352843761444091796875</LongitudeDegrees>
            </Position>
            <AltitudeMeters>352.79998779296875</AltitudeMeters>
            <DistanceMeters>NAN</DistanceMeters>
          </Trackpoint>
          <Trackpoint>
            <Time>2022-09-22T10:08:40.000Z</Time>
            <Position>
              <LatitudeDegrees>49.5478744804859161376953125</LatitudeDegrees>
              <LongitudeDegrees>20.45122020877897739410400390625</LongitudeDegrees>
            </Position>
            <AltitudeMeters>353</AltitudeMeters>
            <DistanceMeters>NAN</DistanceMeters>
          </Trackpoint>
          <Trackpoint>
            <Time>2022-09-22T10:08:42.000Z</Time>
            <Position>
              <LatitudeDegrees>49.5478528551757335662841796875</LatitudeDegrees>
              <LongitudeDegrees>20.45136504806578159332275390625</LongitudeDegrees>
            </Position>
            <AltitudeMeters>352.79998779296875</AltitudeMeters>
            <DistanceMeters>NAN</DistanceMeters>
          </Trackpoint>
          <Trackpoint>
            <Time>2022-09-22T10:08:45.000Z</Time>
            <Position>
              <LatitudeDegrees>49.54780918546020984649658203125</LatitudeDegrees>
              <LongitudeDegrees>20.4515740089118480682373046875</LongitudeDegrees>
            </Position>
            <AltitudeMeters>352.79998779296875</AltitudeMeters>
            <DistanceMeters>NAN</DistanceMeters>
          </Trackpoint>
          <Trackpoint>
            <Time>2022-09-22T10:08:51.000Z</Time>
            <Position>
              <LatitudeDegrees>49.547712542116641998291015625</LatitudeDegrees>
              <LongitudeDegrees>20.45198011212050914764404296875</LongitudeDegrees>
            </Position>
            <AltitudeMeters>352.399993896484375</AltitudeMeters>
            <DistanceMeters>NAN</DistanceMeters>
          </Trackpoint>
          <Trackpoint>
            <Time>2022-09-22T10:08:52.000Z</Time>
            <Position>
              <LatitudeDegrees>49.5476962812244892120361328125</LatitudeDegrees>
              <LongitudeDegrees>20.452046580612659454345703125</LongitudeDegrees>
            </Position>
            <AltitudeMeters>352.399993896484375</AltitudeMeters>
            <DistanceMeters>NAN</DistanceMeters>
          </Trackpoint>
          <Trackpoint>
            <Time>2022-09-22T10:08:53.000Z</Time>
            <Position>
              <LatitudeDegrees>49.54768094234168529510498046875</LatitudeDegrees>
              <LongitudeDegrees>20.4521114565432071685791015625</LongitudeDegrees>
            </Position>
            <AltitudeMeters>352.399993896484375</AltitudeMeters>
            <DistanceMeters>NAN</DistanceMeters>
          </Trackpoint>
          <Trackpoint>
            <Time>2022-09-22T10:08:58.000Z</Time>
            <Position>
              <LatitudeDegrees>49.5476178266108036041259765625</LatitudeDegrees>
              <LongitudeDegrees>20.45241965912282466888427734375</LongitudeDegrees>
            </Position>
            <AltitudeMeters>352.399993896484375</AltitudeMeters>
            <DistanceMeters>NAN</DistanceMeters>
          </Trackpoint>
          <Trackpoint>
            <Time>2022-09-22T10:09:03.000Z</Time>
            <Position>
              <LatitudeDegrees>49.5475695468485355377197265625</LatitudeDegrees>
              <LongitudeDegrees>20.452705733478069305419921875</LongitudeDegrees>
            </Position>
            <AltitudeMeters>352.20001220703125</AltitudeMeters>
            <DistanceMeters>NAN</DistanceMeters>
          </Trackpoint>
          <Trackpoint>
            <Time>2022-09-22T10:09:05.000Z</Time>
            <Position>
              <LatitudeDegrees>49.547559656202793121337890625</LatitudeDegrees>
              <LongitudeDegrees>20.45281293801963329315185546875</LongitudeDegrees>
            </Position>
            <AltitudeMeters>352.20001220703125</AltitudeMeters>
            <DistanceMeters>NAN</DistanceMeters>
          </Trackpoint>
          <Trackpoint>
            <Time>2022-09-22T10:09:12.000Z</Time>
            <Position>
              <LatitudeDegrees>49.547517411410808563232421875</LatitudeDegrees>
              <LongitudeDegrees>20.45317403040826320648193359375</LongitudeDegrees>
            </Position>
            <AltitudeMeters>352.20001220703125</AltitudeMeters>
            <DistanceMeters>NAN</DistanceMeters>
          </Trackpoint>
          <Trackpoint>
            <Time>2022-09-22T10:09:19.000Z</Time>
            <Position>
              <LatitudeDegrees>49.5474595762789249420166015625</LatitudeDegrees>
              <LongitudeDegrees>20.4535724222660064697265625</LongitudeDegrees>
            </Position>
            <AltitudeMeters>352.20001220703125</AltitudeMeters>
            <DistanceMeters>NAN</DistanceMeters>
          </Trackpoint>
          <Trackpoint>
            <Time>2022-09-22T10:09:22.000Z</Time>
            <Position>
              <LatitudeDegrees>49.5474210195243358612060546875</LatitudeDegrees>
              <LongitudeDegrees>20.45377534814178943634033203125</LongitudeDegrees>
            </Position>
            <AltitudeMeters>352.20001220703125</AltitudeMeters>
            <DistanceMeters>NAN</DistanceMeters>
          </Trackpoint>
          <Trackpoint>
            <Time>2022-09-22T10:09:25.000Z</Time>
            <Position>
              <LatitudeDegrees>49.54738489352166652679443359375</LatitudeDegrees>
              <LongitudeDegrees>20.4539947025477886199951171875</LongitudeDegrees>
            </Position>
            <AltitudeMeters>352.20001220703125</AltitudeMeters>
            <DistanceMeters>NAN</DistanceMeters>
          </Trackpoint>
          <Trackpoint>
            <Time>2022-09-22T10:09:33.000Z</Time>
            <Position>
              <LatitudeDegrees>49.54727567732334136962890625</LatitudeDegrees>
              <LongitudeDegrees>20.454555451869964599609375</LongitudeDegrees>
            </Position>
            <AltitudeMeters>352</AltitudeMeters>
            <DistanceMeters>NAN</DistanceMeters>
          </Trackpoint>
          <Trackpoint>
            <Time>2022-09-22T10:09:38.000Z</Time>
            <Position>
              <LatitudeDegrees>49.54720753245055675506591796875</LatitudeDegrees>
              <LongitudeDegrees>20.4548862017691135406494140625</LongitudeDegrees>
            </Position>
            <AltitudeMeters>351.79998779296875</AltitudeMeters>
            <DistanceMeters>NAN</DistanceMeters>
          </Trackpoint>
          <Trackpoint>
            <Time>2022-09-22T10:09:41.000Z</Time>
            <Position>
              <LatitudeDegrees>49.54717350192368030548095703125</LatitudeDegrees>
              <LongitudeDegrees>20.4550887085497379302978515625</LongitudeDegrees>
            </Position>
            <AltitudeMeters>352</AltitudeMeters>
            <DistanceMeters>NAN</DistanceMeters>
          </Trackpoint>
          <Trackpoint>
            <Time>2022-09-22T10:09:49.000Z</Time>
            <Position>
              <LatitudeDegrees>49.54706805758178234100341796875</LatitudeDegrees>
              <LongitudeDegrees>20.4556798003613948822021484375</LongitudeDegrees>
            </Position>
            <AltitudeMeters>352</AltitudeMeters>
            <DistanceMeters>NAN</DistanceMeters>
          </Trackpoint>
          <Trackpoint>
            <Time>2022-09-22T10:09:59.000Z</Time>
            <Position>
              <LatitudeDegrees>49.54694182612001895904541015625</LatitudeDegrees>
              <LongitudeDegrees>20.45640139840543270111083984375</LongitudeDegrees>
            </Position>
            <AltitudeMeters>351.600006103515625</AltitudeMeters>
            <DistanceMeters>NAN</DistanceMeters>
          </Trackpoint>
          <Trackpoint>
            <Time>2022-09-22T10:10:05.000Z</Time>
            <Position>
              <LatitudeDegrees>49.54690896905958652496337890625</LatitudeDegrees>
              <LongitudeDegrees>20.45686282217502593994140625</LongitudeDegrees>
            </Position>
            <AltitudeMeters>351.79998779296875</AltitudeMeters>
            <DistanceMeters>NAN</DistanceMeters>
          </Trackpoint>
          <Trackpoint>
            <Time>2022-09-22T10:10:11.000Z</Time>
            <Position>
              <LatitudeDegrees>49.54693679697811603546142578125</LatitudeDegrees>
              <LongitudeDegrees>20.45723321847617626190185546875</LongitudeDegrees>
            </Position>
            <AltitudeMeters>352.600006103515625</AltitudeMeters>
            <DistanceMeters>NAN</DistanceMeters>
          </Trackpoint>
          <Trackpoint>
            <Time>2022-09-22T10:10:17.000Z</Time>
            <Position>
              <LatitudeDegrees>49.54694350250065326690673828125</LatitudeDegrees>
              <LongitudeDegrees>20.45749993063509464263916015625</LongitudeDegrees>
            </Position>
            <AltitudeMeters>353</AltitudeMeters>
            <DistanceMeters>NAN</DistanceMeters>
          </Trackpoint>
          <Trackpoint>
            <Time>2022-09-22T10:10:23.000Z</Time>
            <Position>
              <LatitudeDegrees>49.5468584261834621429443359375</LatitudeDegrees>
              <LongitudeDegrees>20.45784719288349151611328125</LongitudeDegrees>
            </Position>
            <AltitudeMeters>352.399993896484375</AltitudeMeters>
            <DistanceMeters>NAN</DistanceMeters>
          </Trackpoint>
          <Trackpoint>
            <Time>2022-09-22T10:10:29.000Z</Time>
            <Position>
              <LatitudeDegrees>49.54673931933939456939697265625</LatitudeDegrees>
              <LongitudeDegrees>20.458336360752582550048828125</LongitudeDegrees>
            </Position>
            <AltitudeMeters>351.79998779296875</AltitudeMeters>
            <DistanceMeters>NAN</DistanceMeters>
          </Trackpoint>
          <Trackpoint>
            <Time>2022-09-22T10:10:31.000Z</Time>
            <Position>
              <LatitudeDegrees>49.546694643795490264892578125</LatitudeDegrees>
              <LongitudeDegrees>20.458501987159252166748046875</LongitudeDegrees>
            </Position>
            <AltitudeMeters>351.399993896484375</AltitudeMeters>
            <DistanceMeters>NAN</DistanceMeters>
          </Trackpoint>
          <Trackpoint>
            <Time>2022-09-22T10:10:35.000Z</Time>
            <Position>
              <LatitudeDegrees>49.5466079749166965484619140625</LatitudeDegrees>
              <LongitudeDegrees>20.45882192440330982208251953125</LongitudeDegrees>
            </Position>
            <AltitudeMeters>351.20001220703125</AltitudeMeters>
            <DistanceMeters>NAN</DistanceMeters>
          </Trackpoint>
          <Trackpoint>
            <Time>2022-09-22T10:10:38.000Z</Time>
            <Position>
              <LatitudeDegrees>49.54654745757579803466796875</LatitudeDegrees>
              <LongitudeDegrees>20.45904957689344882965087890625</LongitudeDegrees>
            </Position>
            <AltitudeMeters>351</AltitudeMeters>
            <DistanceMeters>NAN</DistanceMeters>
          </Trackpoint>
          <Trackpoint>
            <Time>2022-09-22T10:10:39.000Z</Time>
            <Position>
              <LatitudeDegrees>49.54652373678982257843017578125</LatitudeDegrees>
              <LongitudeDegrees>20.4591187275946140289306640625</LongitudeDegrees>
            </Position>
            <AltitudeMeters>351.20001220703125</AltitudeMeters>
            <DistanceMeters>NAN</DistanceMeters>
          </Trackpoint>
          <Trackpoint>
            <Time>2022-09-22T10:10:42.000Z</Time>
            <Position>
              <LatitudeDegrees>49.54643153585493564605712890625</LatitudeDegrees>
              <LongitudeDegrees>20.45928359962999820709228515625</LongitudeDegrees>
            </Position>
            <AltitudeMeters>351</AltitudeMeters>
            <DistanceMeters>NAN</DistanceMeters>
          </Trackpoint>
          <Trackpoint>
            <Time>2022-09-22T10:10:48.000Z</Time>
            <Position>
              <LatitudeDegrees>49.54620555974543094635009765625</LatitudeDegrees>
              <LongitudeDegrees>20.45952080748975276947021484375</LongitudeDegrees>
            </Position>
            <AltitudeMeters>350.600006103515625</AltitudeMeters>
            <DistanceMeters>NAN</DistanceMeters>
          </Trackpoint>
          <Trackpoint>
            <Time>2022-09-22T10:10:51.000Z</Time>
            <Position>
              <LatitudeDegrees>49.54609441570937633514404296875</LatitudeDegrees>
              <LongitudeDegrees>20.459619127213954925537109375</LongitudeDegrees>
            </Position>
            <AltitudeMeters>350.399993896484375</AltitudeMeters>
            <DistanceMeters>NAN</DistanceMeters>
          </Trackpoint>
          <Trackpoint>
            <Time>2022-09-22T10:10:57.000Z</Time>
            <Position>
              <LatitudeDegrees>49.545880593359470367431640625</LatitudeDegrees>
              <LongitudeDegrees>20.4598281718790531158447265625</LongitudeDegrees>
            </Position>
            <AltitudeMeters>350.20001220703125</AltitudeMeters>
            <DistanceMeters>NAN</DistanceMeters>
          </Trackpoint>
          <Trackpoint>
            <Time>2022-09-22T10:11:04.000Z</Time>
            <Position>
              <LatitudeDegrees>49.5456460677087306976318359375</LatitudeDegrees>
              <LongitudeDegrees>20.46004660427570343017578125</LongitudeDegrees>
            </Position>
            <AltitudeMeters>350</AltitudeMeters>
            <DistanceMeters>NAN</DistanceMeters>
          </Trackpoint>
          <Trackpoint>
            <Time>2022-09-22T10:11:09.000Z</Time>
            <Position>
              <LatitudeDegrees>49.54549846239387989044189453125</LatitudeDegrees>
              <LongitudeDegrees>20.460227318108081817626953125</LongitudeDegrees>
            </Position>
            <AltitudeMeters>349.79998779296875</AltitudeMeters>
            <DistanceMeters>NAN</DistanceMeters>
          </Trackpoint>
          <Trackpoint>
            <Time>2022-09-22T10:11:10.000Z</Time>
            <Position>
              <LatitudeDegrees>49.5454819500446319580078125</LatitudeDegrees>
              <LongitudeDegrees>20.46026981435716152191162109375</LongitudeDegrees>
            </Position>
            <AltitudeMeters>349.600006103515625</AltitudeMeters>
            <DistanceMeters>NAN</DistanceMeters>
          </Trackpoint>
          <Trackpoint>
            <Time>2022-09-22T10:11:18.000Z</Time>
            <Position>
              <LatitudeDegrees>49.5453359372913837432861328125</LatitudeDegrees>
              <LongitudeDegrees>20.4607486724853515625</LongitudeDegrees>
            </Position>
            <AltitudeMeters>349.399993896484375</AltitudeMeters>
            <DistanceMeters>NAN</DistanceMeters>
          </Trackpoint>
          <Trackpoint>
            <Time>2022-09-22T10:11:19.000Z</Time>
            <Position>
              <LatitudeDegrees>49.54531875438988208770751953125</LatitudeDegrees>
              <LongitudeDegrees>20.46080759726464748382568359375</LongitudeDegrees>
            </Position>
            <AltitudeMeters>349.399993896484375</AltitudeMeters>
            <DistanceMeters>NAN</DistanceMeters>
          </Trackpoint>
          <Trackpoint>
            <Time>2022-09-22T10:11:26.000Z</Time>
            <Position>
              <LatitudeDegrees>49.54519889317452907562255859375</LatitudeDegrees>
              <LongitudeDegrees>20.4611711204051971435546875</LongitudeDegrees>
            </Position>
            <AltitudeMeters>349.399993896484375</AltitudeMeters>
            <DistanceMeters>NAN</DistanceMeters>
          </Trackpoint>
          <Trackpoint>
            <Time>2022-09-22T10:11:30.000Z</Time>
            <Position>
              <LatitudeDegrees>49.54518581740558147430419921875</LatitudeDegrees>
              <LongitudeDegrees>20.4613526724278926849365234375</LongitudeDegrees>
            </Position>
            <AltitudeMeters>350</AltitudeMeters>
            <DistanceMeters>NAN</DistanceMeters>
          </Trackpoint>
          <Trackpoint>
            <Time>2022-09-22T10:11:32.000Z</Time>
            <Position>
              <LatitudeDegrees>49.54521951265633106231689453125</LatitudeDegrees>
              <LongitudeDegrees>20.4613989405333995819091796875</LongitudeDegrees>
            </Position>
            <AltitudeMeters>350.399993896484375</AltitudeMeters>
            <DistanceMeters>NAN</DistanceMeters>
          </Trackpoint>
          <Trackpoint>
            <Time>2022-09-22T10:11:35.000Z</Time>
            <Position>
              <LatitudeDegrees>49.5452725701034069061279296875</LatitudeDegrees>
              <LongitudeDegrees>20.46143439598381519317626953125</LongitudeDegrees>
            </Position>
            <AltitudeMeters>351</AltitudeMeters>
            <DistanceMeters>NAN</DistanceMeters>
          </Trackpoint>
          <Trackpoint>
            <Time>2022-09-22T10:11:39.000Z</Time>
            <Position>
              <LatitudeDegrees>49.545348174870014190673828125</LatitudeDegrees>
              <LongitudeDegrees>20.46147211454808712005615234375</LongitudeDegrees>
            </Position>
            <AltitudeMeters>351.399993896484375</AltitudeMeters>
            <DistanceMeters>NAN</DistanceMeters>
          </Trackpoint>
          <Trackpoint>
            <Time>2022-09-22T10:11:41.000Z</Time>
            <Position>
              <LatitudeDegrees>49.54538547433912754058837890625</LatitudeDegrees>
              <LongitudeDegrees>20.46148250810801982879638671875</LongitudeDegrees>
            </Position>
            <AltitudeMeters>351.600006103515625</AltitudeMeters>
            <DistanceMeters>NAN</DistanceMeters>
          </Trackpoint>
          <Trackpoint>
            <Time>2022-09-22T10:11:46.000Z</Time>
            <Position>
              <LatitudeDegrees>49.54548002220690250396728515625</LatitudeDegrees>
              <LongitudeDegrees>20.46151553280651569366455078125</LongitudeDegrees>
            </Position>
            <AltitudeMeters>352.20001220703125</AltitudeMeters>
            <DistanceMeters>NAN</DistanceMeters>
          </Trackpoint>
          <Trackpoint>
            <Time>2022-09-22T10:11:47.000Z</Time>
            <Position>
              <LatitudeDegrees>49.54549293033778667449951171875</LatitudeDegrees>
              <LongitudeDegrees>20.46153648756444454193115234375</LongitudeDegrees>
            </Position>
            <AltitudeMeters>352.20001220703125</AltitudeMeters>
            <DistanceMeters>NAN</DistanceMeters>
          </Trackpoint>
          <Trackpoint>
            <Time>2022-09-22T10:11:48.000Z</Time>
            <Position>
              <LatitudeDegrees>49.54549946822226047515869140625</LatitudeDegrees>
              <LongitudeDegrees>20.46156045980751514434814453125</LongitudeDegrees>
            </Position>
            <AltitudeMeters>352.20001220703125</AltitudeMeters>
            <DistanceMeters>NAN</DistanceMeters>
          </Trackpoint>
          <Trackpoint>
            <Time>2022-09-22T10:11:52.000Z</Time>
            <Position>
              <LatitudeDegrees>49.54549242742359638214111328125</LatitudeDegrees>
              <LongitudeDegrees>20.4616530798375606536865234375</LongitudeDegrees>
            </Position>
            <AltitudeMeters>352.399993896484375</AltitudeMeters>
            <DistanceMeters>NAN</DistanceMeters>
          </Trackpoint>
          <Trackpoint>
            <Time>2022-09-22T10:11:54.000Z</Time>
            <Position>
              <LatitudeDegrees>49.5454854704439640045166015625</LatitudeDegrees>
              <LongitudeDegrees>20.46169641427695751190185546875</LongitudeDegrees>
            </Position>
            <AltitudeMeters>352.399993896484375</AltitudeMeters>
            <DistanceMeters>NAN</DistanceMeters>
          </Trackpoint>
          <Trackpoint>
            <Time>2022-09-22T10:11:58.000Z</Time>
            <Position>
              <LatitudeDegrees>49.5454472489655017852783203125</LatitudeDegrees>
              <LongitudeDegrees>20.46180169098079204559326171875</LongitudeDegrees>
            </Position>
            <AltitudeMeters>352.20001220703125</AltitudeMeters>
            <DistanceMeters>NAN</DistanceMeters>
          </Trackpoint>
          <Trackpoint>
            <Time>2022-09-22T10:11:59.000Z</Time>
            <Position>
              <LatitudeDegrees>49.54543408937752246856689453125</LatitudeDegrees>
              <LongitudeDegrees>20.46181711368262767791748046875</LongitudeDegrees>
            </Position>
            <AltitudeMeters>352.20001220703125</AltitudeMeters>
            <DistanceMeters>NAN</DistanceMeters>
          </Trackpoint>
          <Trackpoint>
            <Time>2022-09-22T10:12:04.000Z</Time>
            <Position>
              <LatitudeDegrees>49.54542906023561954498291015625</LatitudeDegrees>
              <LongitudeDegrees>20.46182063408195972442626953125</LongitudeDegrees>
            </Position>
            <AltitudeMeters>352</AltitudeMeters>
            <DistanceMeters>NAN</DistanceMeters>
          </Trackpoint>
          <Trackpoint>
            <Time>2022-09-22T10:12:11.000Z</Time>
            <Position>
              <LatitudeDegrees>49.54542906023561954498291015625</LatitudeDegrees>
              <LongitudeDegrees>20.46182063408195972442626953125</LongitudeDegrees>
            </Position>
            <AltitudeMeters>352.399993896484375</AltitudeMeters>
            <DistanceMeters>NAN</DistanceMeters>
          </Trackpoint>
          <Trackpoint>
            <Time>2022-09-22T10:12:15.000Z</Time>
            <Position>
              <LatitudeDegrees>49.54542906023561954498291015625</LatitudeDegrees>
              <LongitudeDegrees>20.46182063408195972442626953125</LongitudeDegrees>
            </Position>
            <AltitudeMeters>352.20001220703125</AltitudeMeters>
            <DistanceMeters>NAN</DistanceMeters>
          </Trackpoint>
          <Trackpoint>
            <Time>2022-09-22T10:12:23.000Z</Time>
            <Position>
              <LatitudeDegrees>49.54542906023561954498291015625</LatitudeDegrees>
              <LongitudeDegrees>20.46182063408195972442626953125</LongitudeDegrees>
            </Position>
            <AltitudeMeters>352</AltitudeMeters>
            <DistanceMeters>NAN</DistanceMeters>
          </Trackpoint>
          <Trackpoint>
            <Time>2022-09-22T10:12:27.000Z</Time>
            <Position>
              <LatitudeDegrees>49.54542906023561954498291015625</LatitudeDegrees>
              <LongitudeDegrees>20.46182063408195972442626953125</LongitudeDegrees>
            </Position>
            <AltitudeMeters>352.20001220703125</AltitudeMeters>
            <DistanceMeters>NAN</DistanceMeters>
          </Trackpoint>
          <Trackpoint>
            <Time>2022-09-22T10:12:38.000Z</Time>
            <Position>
              <LatitudeDegrees>49.54542906023561954498291015625</LatitudeDegrees>
              <LongitudeDegrees>20.46182063408195972442626953125</LongitudeDegrees>
            </Position>
            <AltitudeMeters>352</AltitudeMeters>
            <DistanceMeters>NAN</DistanceMeters>
          </Trackpoint>
          <Trackpoint>
            <Time>2022-09-22T10:12:55.000Z</Time>
            <Position>
              <LatitudeDegrees>49.54542906023561954498291015625</LatitudeDegrees>
              <LongitudeDegrees>20.46182063408195972442626953125</LongitudeDegrees>
            </Position>
            <AltitudeMeters>352</AltitudeMeters>
            <DistanceMeters>NAN</DistanceMeters>
          </Trackpoint>
          <Trackpoint>
            <Time>2022-09-22T10:13:14.000Z</Time>
            <Position>
              <LatitudeDegrees>49.545422606170177459716796875</LatitudeDegrees>
              <LongitudeDegrees>20.46183203347027301788330078125</LongitudeDegrees>
            </Position>
            <AltitudeMeters>352</AltitudeMeters>
            <DistanceMeters>NAN</DistanceMeters>
          </Trackpoint>
          <Trackpoint>
            <Time>2022-09-22T10:13:16.000Z</Time>
            <Position>
              <LatitudeDegrees>49.54539502970874309539794921875</LatitudeDegrees>
              <LongitudeDegrees>20.461892969906330108642578125</LongitudeDegrees>
            </Position>
            <AltitudeMeters>352</AltitudeMeters>
            <DistanceMeters>NAN</DistanceMeters>
          </Trackpoint>
          <Trackpoint>
            <Time>2022-09-22T10:13:17.000Z</Time>
            <Position>
              <LatitudeDegrees>49.5453748293220996856689453125</LatitudeDegrees>
              <LongitudeDegrees>20.46194217167794704437255859375</LongitudeDegrees>
            </Position>
            <AltitudeMeters>352</AltitudeMeters>
            <DistanceMeters>NAN</DistanceMeters>
          </Trackpoint>
          <Trackpoint>
            <Time>2022-09-22T10:13:22.000Z</Time>
            <Position>
              <LatitudeDegrees>49.54522605054080486297607421875</LatitudeDegrees>
              <LongitudeDegrees>20.462212823331356048583984375</LongitudeDegrees>
            </Position>
            <AltitudeMeters>351.79998779296875</AltitudeMeters>
            <DistanceMeters>NAN</DistanceMeters>
          </Trackpoint>
          <Trackpoint>
            <Time>2022-09-22T10:13:27.000Z</Time>
            <Position>
              <LatitudeDegrees>49.54501030035316944122314453125</LatitudeDegrees>
              <LongitudeDegrees>20.46241541393101215362548828125</LongitudeDegrees>
            </Position>
            <AltitudeMeters>351.399993896484375</AltitudeMeters>
            <DistanceMeters>NAN</DistanceMeters>
          </Trackpoint>
          <Trackpoint>
            <Time>2022-09-22T10:13:28.000Z</Time>
            <Position>
              <LatitudeDegrees>49.544964618980884552001953125</LatitudeDegrees>
              <LongitudeDegrees>20.4624379612505435943603515625</LongitudeDegrees>
            </Position>
            <AltitudeMeters>351.20001220703125</AltitudeMeters>
            <DistanceMeters>NAN</DistanceMeters>
          </Trackpoint>
          <Trackpoint>
            <Time>2022-09-22T10:13:32.000Z</Time>
            <Position>
              <LatitudeDegrees>49.54477476887404918670654296875</LatitudeDegrees>
              <LongitudeDegrees>20.46251649968326091766357421875</LongitudeDegrees>
            </Position>
            <AltitudeMeters>350.79998779296875</AltitudeMeters>
            <DistanceMeters>NAN</DistanceMeters>
          </Trackpoint>
          <Trackpoint>
            <Time>2022-09-22T10:13:35.000Z</Time>
            <Position>
              <LatitudeDegrees>49.54463847912847995758056640625</LatitudeDegrees>
              <LongitudeDegrees>20.46252488158643245697021484375</LongitudeDegrees>
            </Position>
            <AltitudeMeters>350.79998779296875</AltitudeMeters>
            <DistanceMeters>NAN</DistanceMeters>
          </Trackpoint>
          <Trackpoint>
            <Time>2022-09-22T10:13:38.000Z</Time>
            <Position>
              <LatitudeDegrees>49.544505290687084197998046875</LatitudeDegrees>
              <LongitudeDegrees>20.46250007115304470062255859375</LongitudeDegrees>
            </Position>
            <AltitudeMeters>350.79998779296875</AltitudeMeters>
            <DistanceMeters>NAN</DistanceMeters>
          </Trackpoint>
          <Trackpoint>
            <Time>2022-09-22T10:13:40.000Z</Time>
            <Position>
              <LatitudeDegrees>49.54441837035119533538818359375</LatitudeDegrees>
              <LongitudeDegrees>20.462511889636516571044921875</LongitudeDegrees>
            </Position>
            <AltitudeMeters>350.79998779296875</AltitudeMeters>
            <DistanceMeters>NAN</DistanceMeters>
          </Trackpoint>
          <Trackpoint>
            <Time>2022-09-22T10:13:41.000Z</Time>
            <Position>
              <LatitudeDegrees>49.544378221035003662109375</LatitudeDegrees>
              <LongitudeDegrees>20.46252924017608165740966796875</LongitudeDegrees>
            </Position>
            <AltitudeMeters>350.600006103515625</AltitudeMeters>
            <DistanceMeters>NAN</DistanceMeters>
          </Trackpoint>
          <Trackpoint>
            <Time>2022-09-22T10:13:42.000Z</Time>
            <Position>
              <LatitudeDegrees>49.5443393290042877197265625</LatitudeDegrees>
              <LongitudeDegrees>20.46256260015070438385009765625</LongitudeDegrees>
            </Position>
            <AltitudeMeters>350.600006103515625</AltitudeMeters>
            <DistanceMeters>NAN</DistanceMeters>
          </Trackpoint>
          <Trackpoint>
            <Time>2022-09-22T10:13:45.000Z</Time>
            <Position>
              <LatitudeDegrees>49.54423732124269008636474609375</LatitudeDegrees>
              <LongitudeDegrees>20.4627133905887603759765625</LongitudeDegrees>
            </Position>
            <AltitudeMeters>350.600006103515625</AltitudeMeters>
            <DistanceMeters>NAN</DistanceMeters>
          </Trackpoint>
          <Trackpoint>
            <Time>2022-09-22T10:13:52.000Z</Time>
            <Position>
              <LatitudeDegrees>49.54399625770747661590576171875</LatitudeDegrees>
              <LongitudeDegrees>20.46310759149491786956787109375</LongitudeDegrees>
            </Position>
            <AltitudeMeters>350.79998779296875</AltitudeMeters>
            <DistanceMeters>NAN</DistanceMeters>
          </Trackpoint>
          <Trackpoint>
            <Time>2022-09-22T10:13:54.000Z</Time>
            <Position>
              <LatitudeDegrees>49.5439418591558933258056640625</LatitudeDegrees>
              <LongitudeDegrees>20.46319576911628246307373046875</LongitudeDegrees>
            </Position>
            <AltitudeMeters>350.79998779296875</AltitudeMeters>
            <DistanceMeters>NAN</DistanceMeters>
          </Trackpoint>
          <Trackpoint>
            <Time>2022-09-22T10:13:56.000Z</Time>
            <Position>
              <LatitudeDegrees>49.54388201236724853515625</LatitudeDegrees>
              <LongitudeDegrees>20.46328939497470855712890625</LongitudeDegrees>
            </Position>
            <AltitudeMeters>350.79998779296875</AltitudeMeters>
            <DistanceMeters>NAN</DistanceMeters>
          </Trackpoint>
          <Trackpoint>
            <Time>2022-09-22T10:13:57.000Z</Time>
            <Position>
              <LatitudeDegrees>49.54384622164070606231689453125</LatitudeDegrees>
              <LongitudeDegrees>20.46333172358572483062744140625</LongitudeDegrees>
            </Position>
            <AltitudeMeters>350.600006103515625</AltitudeMeters>
            <DistanceMeters>NAN</DistanceMeters>
          </Trackpoint>
          <Trackpoint>
            <Time>2022-09-22T10:14:00.000Z</Time>
            <Position>
              <LatitudeDegrees>49.54373457469046115875244140625</LatitudeDegrees>
              <LongitudeDegrees>20.46345393173396587371826171875</LongitudeDegrees>
            </Position>
            <AltitudeMeters>350.600006103515625</AltitudeMeters>
            <DistanceMeters>NAN</DistanceMeters>
          </Trackpoint>
          <Trackpoint>
            <Time>2022-09-22T10:14:03.000Z</Time>
            <Position>
              <LatitudeDegrees>49.54364396631717681884765625</LatitudeDegrees>
              <LongitudeDegrees>20.4636151157319545745849609375</LongitudeDegrees>
            </Position>
            <AltitudeMeters>350.79998779296875</AltitudeMeters>
            <DistanceMeters>NAN</DistanceMeters>
          </Trackpoint>
          <Trackpoint>
            <Time>2022-09-22T10:14:07.000Z</Time>
            <Position>
              <LatitudeDegrees>49.5435373485088348388671875</LatitudeDegrees>
              <LongitudeDegrees>20.46384033747017383575439453125</LongitudeDegrees>
            </Position>
            <AltitudeMeters>350.79998779296875</AltitudeMeters>
            <DistanceMeters>NAN</DistanceMeters>
          </Trackpoint>
          <Trackpoint>
            <Time>2022-09-22T10:14:11.000Z</Time>
            <Position>
              <LatitudeDegrees>49.543443135917186737060546875</LatitudeDegrees>
              <LongitudeDegrees>20.46408156864345073699951171875</LongitudeDegrees>
            </Position>
            <AltitudeMeters>351</AltitudeMeters>
            <DistanceMeters>NAN</DistanceMeters>
          </Trackpoint>
          <Trackpoint>
            <Time>2022-09-22T10:14:19.000Z</Time>
            <Position>
              <LatitudeDegrees>49.5432568900287151336669921875</LatitudeDegrees>
              <LongitudeDegrees>20.4645914398133754730224609375</LongitudeDegrees>
            </Position>
            <AltitudeMeters>351</AltitudeMeters>
            <DistanceMeters>NAN</DistanceMeters>
          </Trackpoint>
          <Trackpoint>
            <Time>2022-09-22T10:14:27.000Z</Time>
            <Position>
              <LatitudeDegrees>49.543095789849758148193359375</LatitudeDegrees>
              <LongitudeDegrees>20.46508203260600566864013671875</LongitudeDegrees>
            </Position>
            <AltitudeMeters>351.20001220703125</AltitudeMeters>
            <DistanceMeters>NAN</DistanceMeters>
          </Trackpoint>
          <Trackpoint>
            <Time>2022-09-22T10:14:28.000Z</Time>
            <Position>
              <LatitudeDegrees>49.5430741645395755767822265625</LatitudeDegrees>
              <LongitudeDegrees>20.465139113366603851318359375</LongitudeDegrees>
            </Position>
            <AltitudeMeters>351.20001220703125</AltitudeMeters>
            <DistanceMeters>NAN</DistanceMeters>
          </Trackpoint>
          <Trackpoint>
            <Time>2022-09-22T10:14:30.000Z</Time>
            <Position>
              <LatitudeDegrees>49.54303502105176448822021484375</LatitudeDegrees>
              <LongitudeDegrees>20.46524916775524616241455078125</LongitudeDegrees>
            </Position>
            <AltitudeMeters>351.399993896484375</AltitudeMeters>
            <DistanceMeters>NAN</DistanceMeters>
          </Trackpoint>
          <Trackpoint>
            <Time>2022-09-22T10:14:34.000Z</Time>
            <Position>
              <LatitudeDegrees>49.54296360723674297332763671875</LatitudeDegrees>
              <LongitudeDegrees>20.46547547914087772369384765625</LongitudeDegrees>
            </Position>
            <AltitudeMeters>351.20001220703125</AltitudeMeters>
            <DistanceMeters>NAN</DistanceMeters>
          </Trackpoint>
          <Trackpoint>
            <Time>2022-09-22T10:14:36.000Z</Time>
            <Position>
              <LatitudeDegrees>49.54292840324342250823974609375</LatitudeDegrees>
              <LongitudeDegrees>20.4656120203435420989990234375</LongitudeDegrees>
            </Position>
            <AltitudeMeters>350.79998779296875</AltitudeMeters>
            <DistanceMeters>NAN</DistanceMeters>
          </Trackpoint>
          <Trackpoint>
            <Time>2022-09-22T10:14:37.000Z</Time>
            <Position>
              <LatitudeDegrees>49.54291842877864837646484375</LatitudeDegrees>
              <LongitudeDegrees>20.4656639881432056427001953125</LongitudeDegrees>
            </Position>
            <AltitudeMeters>350.79998779296875</AltitudeMeters>
            <DistanceMeters>NAN</DistanceMeters>
          </Trackpoint>
          <Trackpoint>
            <Time>2022-09-22T10:14:42.000Z</Time>
            <Position>
              <LatitudeDegrees>49.54286076128482818603515625</LatitudeDegrees>
              <LongitudeDegrees>20.46599850989878177642822265625</LongitudeDegrees>
            </Position>
            <AltitudeMeters>350.399993896484375</AltitudeMeters>
            <DistanceMeters>NAN</DistanceMeters>
          </Trackpoint>
          <Trackpoint>
            <Time>2022-09-22T10:14:47.000Z</Time>
            <Position>
              <LatitudeDegrees>49.5427761040627956390380859375</LatitudeDegrees>
              <LongitudeDegrees>20.46633244492113590240478515625</LongitudeDegrees>
            </Position>
            <AltitudeMeters>350.399993896484375</AltitudeMeters>
            <DistanceMeters>NAN</DistanceMeters>
          </Trackpoint>
          <Trackpoint>
            <Time>2022-09-22T10:14:48.000Z</Time>
            <Position>
              <LatitudeDegrees>49.5427568256855010986328125</LatitudeDegrees>
              <LongitudeDegrees>20.4663999192416667938232421875</LongitudeDegrees>
            </Position>
            <AltitudeMeters>350.399993896484375</AltitudeMeters>
            <DistanceMeters>NAN</DistanceMeters>
          </Trackpoint>
          <Trackpoint>
            <Time>2022-09-22T10:14:49.000Z</Time>
            <Position>
              <LatitudeDegrees>49.5427353680133819580078125</LatitudeDegrees>
              <LongitudeDegrees>20.4664646275341510772705078125</LongitudeDegrees>
            </Position>
            <AltitudeMeters>350.399993896484375</AltitudeMeters>
            <DistanceMeters>NAN</DistanceMeters>
          </Trackpoint>
          <Trackpoint>
            <Time>2022-09-22T10:14:52.000Z</Time>
            <Position>
              <LatitudeDegrees>49.54266227781772613525390625</LatitudeDegrees>
              <LongitudeDegrees>20.466655232012271881103515625</LongitudeDegrees>
            </Position>
            <AltitudeMeters>350.399993896484375</AltitudeMeters>
            <DistanceMeters>NAN</DistanceMeters>
          </Trackpoint>
          <Trackpoint>
            <Time>2022-09-22T10:14:55.000Z</Time>
            <Position>
              <LatitudeDegrees>49.5425833202898502349853515625</LatitudeDegrees>
              <LongitudeDegrees>20.46683250926434993743896484375</LongitudeDegrees>
            </Position>
            <AltitudeMeters>350.20001220703125</AltitudeMeters>
            <DistanceMeters>NAN</DistanceMeters>
          </Trackpoint>
          <Trackpoint>
            <Time>2022-09-22T10:14:59.000Z</Time>
            <Position>
              <LatitudeDegrees>49.54247443936765193939208984375</LatitudeDegrees>
              <LongitudeDegrees>20.4670464992523193359375</LongitudeDegrees>
            </Position>
            <AltitudeMeters>350</AltitudeMeters>
            <DistanceMeters>NAN</DistanceMeters>
          </Trackpoint>
          <Trackpoint>
            <Time>2022-09-22T10:15:01.000Z</Time>
            <Position>
              <LatitudeDegrees>49.54241962172091007232666015625</LatitudeDegrees>
              <LongitudeDegrees>20.46714280731976032257080078125</LongitudeDegrees>
            </Position>
            <AltitudeMeters>350</AltitudeMeters>
            <DistanceMeters>NAN</DistanceMeters>
          </Trackpoint>
          <Trackpoint>
            <Time>2022-09-22T10:15:05.000Z</Time>
            <Position>
              <LatitudeDegrees>49.54230126924812793731689453125</LatitudeDegrees>
              <LongitudeDegrees>20.4673376865684986114501953125</LongitudeDegrees>
            </Position>
            <AltitudeMeters>349.79998779296875</AltitudeMeters>
            <DistanceMeters>NAN</DistanceMeters>
          </Trackpoint>
          <Trackpoint>
            <Time>2022-09-22T10:15:09.000Z</Time>
            <Position>
              <LatitudeDegrees>49.54218191094696521759033203125</LatitudeDegrees>
              <LongitudeDegrees>20.46751345507800579071044921875</LongitudeDegrees>
            </Position>
            <AltitudeMeters>349.79998779296875</AltitudeMeters>
            <DistanceMeters>NAN</DistanceMeters>
          </Trackpoint>
          <Trackpoint>
            <Time>2022-09-22T10:15:12.000Z</Time>
            <Position>
              <LatitudeDegrees>49.54206607304513454437255859375</LatitudeDegrees>
              <LongitudeDegrees>20.46765075065195560455322265625</LongitudeDegrees>
            </Position>
            <AltitudeMeters>349.79998779296875</AltitudeMeters>
            <DistanceMeters>NAN</DistanceMeters>
          </Trackpoint>
          <Trackpoint>
            <Time>2022-09-22T10:15:20.000Z</Time>
            <Position>
              <LatitudeDegrees>49.5417390950024127960205078125</LatitudeDegrees>
              <LongitudeDegrees>20.4679190553724765777587890625</LongitudeDegrees>
            </Position>
            <AltitudeMeters>349.600006103515625</AltitudeMeters>
            <DistanceMeters>NAN</DistanceMeters>
          </Trackpoint>
          <Trackpoint>
            <Time>2022-09-22T10:15:21.000Z</Time>
            <Position>
              <LatitudeDegrees>49.54169928096234798431396484375</LatitudeDegrees>
              <LongitudeDegrees>20.46795585192739963531494140625</LongitudeDegrees>
            </Position>
            <AltitudeMeters>349.600006103515625</AltitudeMeters>
            <DistanceMeters>NAN</DistanceMeters>
          </Trackpoint>
          <Trackpoint>
            <Time>2022-09-22T10:15:24.000Z</Time>
            <Position>
              <LatitudeDegrees>49.54159014858305454254150390625</LatitudeDegrees>
              <LongitudeDegrees>20.4680729471147060394287109375</LongitudeDegrees>
            </Position>
            <AltitudeMeters>349.399993896484375</AltitudeMeters>
            <DistanceMeters>NAN</DistanceMeters>
          </Trackpoint>
          <Trackpoint>
            <Time>2022-09-22T10:15:26.000Z</Time>
            <Position>
              <LatitudeDegrees>49.5415225066244602203369140625</LatitudeDegrees>
              <LongitudeDegrees>20.46816523186862468719482421875</LongitudeDegrees>
            </Position>
            <AltitudeMeters>349.399993896484375</AltitudeMeters>
            <DistanceMeters>NAN</DistanceMeters>
          </Trackpoint>
          <Trackpoint>
            <Time>2022-09-22T10:15:31.000Z</Time>
            <Position>
              <LatitudeDegrees>49.5413753204047679901123046875</LatitudeDegrees>
              <LongitudeDegrees>20.46840478666126728057861328125</LongitudeDegrees>
            </Position>
            <AltitudeMeters>349.20001220703125</AltitudeMeters>
            <DistanceMeters>NAN</DistanceMeters>
          </Trackpoint>
          <Trackpoint>
            <Time>2022-09-22T10:15:33.000Z</Time>
            <Position>
              <LatitudeDegrees>49.541335590183734893798828125</LatitudeDegrees>
              <LongitudeDegrees>20.46851710416376590728759765625</LongitudeDegrees>
            </Position>
            <AltitudeMeters>349</AltitudeMeters>
            <DistanceMeters>NAN</DistanceMeters>
          </Trackpoint>
          <Trackpoint>
            <Time>2022-09-22T10:15:35.000Z</Time>
            <Position>
              <LatitudeDegrees>49.54130901955068111419677734375</LatitudeDegrees>
              <LongitudeDegrees>20.4686378873884677886962890625</LongitudeDegrees>
            </Position>
            <AltitudeMeters>349</AltitudeMeters>
            <DistanceMeters>NAN</DistanceMeters>
          </Trackpoint>
          <Trackpoint>
            <Time>2022-09-22T10:15:38.000Z</Time>
            <Position>
              <LatitudeDegrees>49.5413015596568584442138671875</LatitudeDegrees>
              <LongitudeDegrees>20.46882270835340023040771484375</LongitudeDegrees>
            </Position>
            <AltitudeMeters>349</AltitudeMeters>
            <DistanceMeters>NAN</DistanceMeters>
          </Trackpoint>
          <Trackpoint>
            <Time>2022-09-22T10:15:47.000Z</Time>
            <Position>
              <LatitudeDegrees>49.54126023687422275543212890625</LatitudeDegrees>
              <LongitudeDegrees>20.469380356371402740478515625</LongitudeDegrees>
            </Position>
            <AltitudeMeters>348.600006103515625</AltitudeMeters>
            <DistanceMeters>NAN</DistanceMeters>
          </Trackpoint>
          <Trackpoint>
            <Time>2022-09-22T10:15:50.000Z</Time>
            <Position>
              <LatitudeDegrees>49.5412204228341579437255859375</LatitudeDegrees>
              <LongitudeDegrees>20.46957406215369701385498046875</LongitudeDegrees>
            </Position>
            <AltitudeMeters>348.399993896484375</AltitudeMeters>
            <DistanceMeters>NAN</DistanceMeters>
          </Trackpoint>
          <Trackpoint>
            <Time>2022-09-22T10:15:53.000Z</Time>
            <Position>
              <LatitudeDegrees>49.54118262045085430145263671875</LatitudeDegrees>
              <LongitudeDegrees>20.469785034656524658203125</LongitudeDegrees>
            </Position>
            <AltitudeMeters>348</AltitudeMeters>
            <DistanceMeters>NAN</DistanceMeters>
          </Trackpoint>
          <Trackpoint>
            <Time>2022-09-22T10:15:54.000Z</Time>
            <Position>
              <LatitudeDegrees>49.54116292297840118408203125</LatitudeDegrees>
              <LongitudeDegrees>20.4698515869677066802978515625</LongitudeDegrees>
            </Position>
            <AltitudeMeters>348</AltitudeMeters>
            <DistanceMeters>NAN</DistanceMeters>
          </Trackpoint>
          <Trackpoint>
            <Time>2022-09-22T10:15:55.000Z</Time>
            <Position>
              <LatitudeDegrees>49.54113878309726715087890625</LatitudeDegrees>
              <LongitudeDegrees>20.4699152894318103790283203125</LongitudeDegrees>
            </Position>
            <AltitudeMeters>348</AltitudeMeters>
            <DistanceMeters>NAN</DistanceMeters>
          </Trackpoint>
          <Trackpoint>
            <Time>2022-09-22T10:15:57.000Z</Time>
            <Position>
              <LatitudeDegrees>49.541077427566051483154296875</LatitudeDegrees>
              <LongitudeDegrees>20.47002919949591159820556640625</LongitudeDegrees>
            </Position>
            <AltitudeMeters>347.79998779296875</AltitudeMeters>
            <DistanceMeters>NAN</DistanceMeters>
          </Trackpoint>
          <Trackpoint>
            <Time>2022-09-22T10:15:59.000Z</Time>
            <Position>
              <LatitudeDegrees>49.5410055108368396759033203125</LatitudeDegrees>
              <LongitudeDegrees>20.47012592665851116180419921875</LongitudeDegrees>
            </Position>
            <AltitudeMeters>347.600006103515625</AltitudeMeters>
            <DistanceMeters>NAN</DistanceMeters>
          </Trackpoint>
          <Trackpoint>
            <Time>2022-09-22T10:16:01.000Z</Time>
            <Position>
              <LatitudeDegrees>49.54093015752732753753662109375</LatitudeDegrees>
              <LongitudeDegrees>20.4702073149383068084716796875</LongitudeDegrees>
            </Position>
            <AltitudeMeters>347.399993896484375</AltitudeMeters>
            <DistanceMeters>NAN</DistanceMeters>
          </Trackpoint>
          <Trackpoint>
            <Time>2022-09-22T10:16:02.000Z</Time>
            <Position>
              <LatitudeDegrees>49.5408978872001171112060546875</LatitudeDegrees>
              <LongitudeDegrees>20.47023606486618518829345703125</LongitudeDegrees>
            </Position>
            <AltitudeMeters>347.20001220703125</AltitudeMeters>
            <DistanceMeters>NAN</DistanceMeters>
          </Trackpoint>
          <Trackpoint>
            <Time>2022-09-22T10:16:06.000Z</Time>
            <Position>
              <LatitudeDegrees>49.5407557301223278045654296875</LatitudeDegrees>
              <LongitudeDegrees>20.4703863523900508880615234375</LongitudeDegrees>
            </Position>
            <AltitudeMeters>347</AltitudeMeters>
            <DistanceMeters>NAN</DistanceMeters>
          </Trackpoint>
          <Trackpoint>
            <Time>2022-09-22T10:16:13.000Z</Time>
            <Position>
              <LatitudeDegrees>49.54050309956073760986328125</LatitudeDegrees>
              <LongitudeDegrees>20.47062548808753490447998046875</LongitudeDegrees>
            </Position>
            <AltitudeMeters>346.79998779296875</AltitudeMeters>
            <DistanceMeters>NAN</DistanceMeters>
          </Trackpoint>
          <Trackpoint>
            <Time>2022-09-22T10:16:14.000Z</Time>
            <Position>
              <LatitudeDegrees>49.54046764411032199859619140625</LatitudeDegrees>
              <LongitudeDegrees>20.47065298072993755340576171875</LongitudeDegrees>
            </Position>
            <AltitudeMeters>347</AltitudeMeters>
            <DistanceMeters>NAN</DistanceMeters>
          </Trackpoint>
          <Trackpoint>
            <Time>2022-09-22T10:16:19.000Z</Time>
            <Position>
              <LatitudeDegrees>49.54030252061784267425537109375</LatitudeDegrees>
              <LongitudeDegrees>20.4707839898765087127685546875</LongitudeDegrees>
            </Position>
            <AltitudeMeters>347</AltitudeMeters>
            <DistanceMeters>NAN</DistanceMeters>
          </Trackpoint>
          <Trackpoint>
            <Time>2022-09-22T10:16:26.000Z</Time>
            <Position>
              <LatitudeDegrees>49.54004150815308094024658203125</LatitudeDegrees>
              <LongitudeDegrees>20.47100585885345935821533203125</LongitudeDegrees>
            </Position>
            <AltitudeMeters>346.79998779296875</AltitudeMeters>
            <DistanceMeters>NAN</DistanceMeters>
          </Trackpoint>
          <Trackpoint>
            <Time>2022-09-22T10:16:27.000Z</Time>
            <Position>
              <LatitudeDegrees>49.54001150093972682952880859375</LatitudeDegrees>
              <LongitudeDegrees>20.471048019826412200927734375</LongitudeDegrees>
            </Position>
            <AltitudeMeters>346.79998779296875</AltitudeMeters>
            <DistanceMeters>NAN</DistanceMeters>
          </Trackpoint>
          <Trackpoint>
            <Time>2022-09-22T10:16:31.000Z</Time>
            <Position>
              <LatitudeDegrees>49.539900608360767364501953125</LatitudeDegrees>
              <LongitudeDegrees>20.471228063106536865234375</LongitudeDegrees>
            </Position>
            <AltitudeMeters>346.600006103515625</AltitudeMeters>
            <DistanceMeters>NAN</DistanceMeters>
          </Trackpoint>
          <Trackpoint>
            <Time>2022-09-22T10:16:33.000Z</Time>
            <Position>
              <LatitudeDegrees>49.539832212030887603759765625</LatitudeDegrees>
              <LongitudeDegrees>20.47129872255027294158935546875</LongitudeDegrees>
            </Position>
            <AltitudeMeters>346.600006103515625</AltitudeMeters>
            <DistanceMeters>NAN</DistanceMeters>
          </Trackpoint>
          <Trackpoint>
            <Time>2022-09-22T10:16:36.000Z</Time>
            <Position>
              <LatitudeDegrees>49.5397153683006763458251953125</LatitudeDegrees>
              <LongitudeDegrees>20.471383631229400634765625</LongitudeDegrees>
            </Position>
            <AltitudeMeters>346.399993896484375</AltitudeMeters>
            <DistanceMeters>NAN</DistanceMeters>
          </Trackpoint>
          <Trackpoint>
            <Time>2022-09-22T10:16:38.000Z</Time>
            <Position>
              <LatitudeDegrees>49.53965191729366779327392578125</LatitudeDegrees>
              <LongitudeDegrees>20.4714713059365749359130859375</LongitudeDegrees>
            </Position>
            <AltitudeMeters>346.399993896484375</AltitudeMeters>
            <DistanceMeters>NAN</DistanceMeters>
          </Trackpoint>
          <Trackpoint>
            <Time>2022-09-22T10:16:39.000Z</Time>
            <Position>
              <LatitudeDegrees>49.5396302081644535064697265625</LatitudeDegrees>
              <LongitudeDegrees>20.47153048217296600341796875</LongitudeDegrees>
            </Position>
            <AltitudeMeters>346.399993896484375</AltitudeMeters>
            <DistanceMeters>NAN</DistanceMeters>
          </Trackpoint>
          <Trackpoint>
            <Time>2022-09-22T10:16:40.000Z</Time>
            <Position>
              <LatitudeDegrees>49.53961805440485477447509765625</LatitudeDegrees>
              <LongitudeDegrees>20.47159376554191112518310546875</LongitudeDegrees>
            </Position>
            <AltitudeMeters>346.399993896484375</AltitudeMeters>
            <DistanceMeters>NAN</DistanceMeters>
          </Trackpoint>
          <Trackpoint>
            <Time>2022-09-22T10:16:42.000Z</Time>
            <Position>
              <LatitudeDegrees>49.53960145823657512664794921875</LatitudeDegrees>
              <LongitudeDegrees>20.471732653677463531494140625</LongitudeDegrees>
            </Position>
            <AltitudeMeters>346.20001220703125</AltitudeMeters>
            <DistanceMeters>NAN</DistanceMeters>
          </Trackpoint>
          <Trackpoint>
            <Time>2022-09-22T10:16:44.000Z</Time>
            <Position>
              <LatitudeDegrees>49.53958905301988124847412109375</LatitudeDegrees>
              <LongitudeDegrees>20.47187103889882564544677734375</LongitudeDegrees>
            </Position>
            <AltitudeMeters>346</AltitudeMeters>
            <DistanceMeters>NAN</DistanceMeters>
          </Trackpoint>
          <Trackpoint>
            <Time>2022-09-22T10:16:47.000Z</Time>
            <Position>
              <LatitudeDegrees>49.539574719965457916259765625</LatitudeDegrees>
              <LongitudeDegrees>20.47207840718328952789306640625</LongitudeDegrees>
            </Position>
            <AltitudeMeters>345.600006103515625</AltitudeMeters>
            <DistanceMeters>NAN</DistanceMeters>
          </Trackpoint>
          <Trackpoint>
            <Time>2022-09-22T10:16:51.000Z</Time>
            <Position>
              <LatitudeDegrees>49.53954982571303844451904296875</LatitudeDegrees>
              <LongitudeDegrees>20.4723322950303554534912109375</LongitudeDegrees>
            </Position>
            <AltitudeMeters>345.79998779296875</AltitudeMeters>
            <DistanceMeters>NAN</DistanceMeters>
          </Trackpoint>
          <Trackpoint>
            <Time>2022-09-22T10:16:53.000Z</Time>
            <Position>
              <LatitudeDegrees>49.53953339718282222747802734375</LatitudeDegrees>
              <LongitudeDegrees>20.4724623821675777435302734375</LongitudeDegrees>
            </Position>
            <AltitudeMeters>346</AltitudeMeters>
            <DistanceMeters>NAN</DistanceMeters>
          </Trackpoint>
          <Trackpoint>
            <Time>2022-09-22T10:16:58.000Z</Time>
            <Position>
              <LatitudeDegrees>49.53953213989734649658203125</LatitudeDegrees>
              <LongitudeDegrees>20.47275482676923274993896484375</LongitudeDegrees>
            </Position>
            <AltitudeMeters>346.600006103515625</AltitudeMeters>
            <DistanceMeters>NAN</DistanceMeters>
          </Trackpoint>
          <Trackpoint>
            <Time>2022-09-22T10:17:02.000Z</Time>
            <Position>
              <LatitudeDegrees>49.5395862869918346405029296875</LatitudeDegrees>
              <LongitudeDegrees>20.47296655364334583282470703125</LongitudeDegrees>
            </Position>
            <AltitudeMeters>347.399993896484375</AltitudeMeters>
            <DistanceMeters>NAN</DistanceMeters>
          </Trackpoint>
          <Trackpoint>
            <Time>2022-09-22T10:17:03.000Z</Time>
            <Position>
              <LatitudeDegrees>49.53960397280752658843994140625</LatitudeDegrees>
              <LongitudeDegrees>20.473012737929821014404296875</LongitudeDegrees>
            </Position>
            <AltitudeMeters>347.600006103515625</AltitudeMeters>
            <DistanceMeters>NAN</DistanceMeters>
          </Trackpoint>
          <Trackpoint>
            <Time>2022-09-22T10:17:07.000Z</Time>
            <Position>
              <LatitudeDegrees>49.539649821817874908447265625</LatitudeDegrees>
              <LongitudeDegrees>20.4731755144894123077392578125</LongitudeDegrees>
            </Position>
            <AltitudeMeters>348.600006103515625</AltitudeMeters>
            <DistanceMeters>NAN</DistanceMeters>
          </Trackpoint>
          <Trackpoint>
            <Time>2022-09-22T10:17:08.000Z</Time>
            <Position>
              <LatitudeDegrees>49.53965225256979465484619140625</LatitudeDegrees>
              <LongitudeDegrees>20.473210550844669342041015625</LongitudeDegrees>
            </Position>
            <AltitudeMeters>348.79998779296875</AltitudeMeters>
            <DistanceMeters>NAN</DistanceMeters>
          </Trackpoint>
          <Trackpoint>
            <Time>2022-09-22T10:17:10.000Z</Time>
            <Position>
              <LatitudeDegrees>49.53965359367430210113525390625</LatitudeDegrees>
              <LongitudeDegrees>20.473263524472713470458984375</LongitudeDegrees>
            </Position>
            <AltitudeMeters>349</AltitudeMeters>
            <DistanceMeters>NAN</DistanceMeters>
          </Trackpoint>
          <Trackpoint>
            <Time>2022-09-22T10:17:13.000Z</Time>
            <Position>
              <LatitudeDegrees>49.539648480713367462158203125</LatitudeDegrees>
              <LongitudeDegrees>20.473291017115116119384765625</LongitudeDegrees>
            </Position>
            <AltitudeMeters>349.399993896484375</AltitudeMeters>
            <DistanceMeters>NAN</DistanceMeters>
          </Trackpoint>
          <Trackpoint>
            <Time>2022-09-22T10:17:16.000Z</Time>
            <Position>
              <LatitudeDegrees>49.539648480713367462158203125</LatitudeDegrees>
              <LongitudeDegrees>20.473291017115116119384765625</LongitudeDegrees>
            </Position>
            <AltitudeMeters>349.600006103515625</AltitudeMeters>
            <DistanceMeters>NAN</DistanceMeters>
          </Trackpoint>
          <Trackpoint>
            <Time>2022-09-22T10:17:22.000Z</Time>
            <Position>
              <LatitudeDegrees>49.53963339328765869140625</LatitudeDegrees>
              <LongitudeDegrees>20.47335128299891948699951171875</LongitudeDegrees>
            </Position>
            <AltitudeMeters>349.79998779296875</AltitudeMeters>
            <DistanceMeters>NAN</DistanceMeters>
          </Trackpoint>
          <Trackpoint>
            <Time>2022-09-22T10:17:29.000Z</Time>
            <Position>
              <LatitudeDegrees>49.53960279934108257293701171875</LatitudeDegrees>
              <LongitudeDegrees>20.4734055139124393463134765625</LongitudeDegrees>
            </Position>
            <AltitudeMeters>350.600006103515625</AltitudeMeters>
            <DistanceMeters>NAN</DistanceMeters>
          </Trackpoint>
          <Trackpoint>
            <Time>2022-09-22T10:17:30.000Z</Time>
            <Position>
              <LatitudeDegrees>49.5396000333130359649658203125</LatitudeDegrees>
              <LongitudeDegrees>20.47339922748506069183349609375</LongitudeDegrees>
            </Position>
            <AltitudeMeters>350.600006103515625</AltitudeMeters>
            <DistanceMeters>NAN</DistanceMeters>
          </Trackpoint>
          <Trackpoint>
            <Time>2022-09-22T10:17:32.000Z</Time>
            <Position>
              <LatitudeDegrees>49.5395903103053569793701171875</LatitudeDegrees>
              <LongitudeDegrees>20.47339252196252346038818359375</LongitudeDegrees>
            </Position>
            <AltitudeMeters>350.600006103515625</AltitudeMeters>
            <DistanceMeters>NAN</DistanceMeters>
          </Trackpoint>
          <Trackpoint>
            <Time>2022-09-22T10:17:35.000Z</Time>
            <Position>
              <LatitudeDegrees>49.5395919866859912872314453125</LatitudeDegrees>
              <LongitudeDegrees>20.47339537180960178375244140625</LongitudeDegrees>
            </Position>
            <AltitudeMeters>350.600006103515625</AltitudeMeters>
            <DistanceMeters>NAN</DistanceMeters>
          </Trackpoint>
          <Trackpoint>
            <Time>2022-09-22T10:17:43.000Z</Time>
            <Position>
              <LatitudeDegrees>49.5395945012569427490234375</LatitudeDegrees>
              <LongitudeDegrees>20.4733964614570140838623046875</LongitudeDegrees>
            </Position>
            <AltitudeMeters>350.600006103515625</AltitudeMeters>
            <DistanceMeters>NAN</DistanceMeters>
          </Trackpoint>
          <Trackpoint>
            <Time>2022-09-22T10:17:48.000Z</Time>
            <Position>
              <LatitudeDegrees>49.5395945012569427490234375</LatitudeDegrees>
              <LongitudeDegrees>20.4733964614570140838623046875</LongitudeDegrees>
            </Position>
            <AltitudeMeters>350.79998779296875</AltitudeMeters>
            <DistanceMeters>NAN</DistanceMeters>
          </Trackpoint>
          <Trackpoint>
            <Time>2022-09-22T10:17:52.000Z</Time>
            <Position>
              <LatitudeDegrees>49.5395945012569427490234375</LatitudeDegrees>
              <LongitudeDegrees>20.4733964614570140838623046875</LongitudeDegrees>
            </Position>
            <AltitudeMeters>351</AltitudeMeters>
            <DistanceMeters>NAN</DistanceMeters>
          </Trackpoint>
          <Trackpoint>
            <Time>2022-09-22T10:17:58.000Z</Time>
            <Position>
              <LatitudeDegrees>49.5395945012569427490234375</LatitudeDegrees>
              <LongitudeDegrees>20.4733964614570140838623046875</LongitudeDegrees>
            </Position>
            <AltitudeMeters>350.600006103515625</AltitudeMeters>
            <DistanceMeters>NAN</DistanceMeters>
          </Trackpoint>
          <Trackpoint>
            <Time>2022-09-22T10:18:01.000Z</Time>
            <Position>
              <LatitudeDegrees>49.5395945012569427490234375</LatitudeDegrees>
              <LongitudeDegrees>20.4733964614570140838623046875</LongitudeDegrees>
            </Position>
            <AltitudeMeters>350.600006103515625</AltitudeMeters>
            <DistanceMeters>NAN</DistanceMeters>
          </Trackpoint>
          <Trackpoint>
            <Time>2022-09-22T10:18:56.000Z</Time>
            <Position>
              <LatitudeDegrees>49.539598524570465087890625</LatitudeDegrees>
              <LongitudeDegrees>20.473399646580219268798828125</LongitudeDegrees>
            </Position>
            <AltitudeMeters>350.600006103515625</AltitudeMeters>
            <DistanceMeters>NAN</DistanceMeters>
          </Trackpoint>
          <Trackpoint>
            <Time>2022-09-22T10:19:12.000Z</Time>
            <Position>
              <LatitudeDegrees>49.539598524570465087890625</LatitudeDegrees>
              <LongitudeDegrees>20.473399646580219268798828125</LongitudeDegrees>
            </Position>
            <AltitudeMeters>350.600006103515625</AltitudeMeters>
            <DistanceMeters>NAN</DistanceMeters>
          </Trackpoint>
          <Trackpoint>
            <Time>2022-09-22T10:19:15.000Z</Time>
            <Position>
              <LatitudeDegrees>49.539598524570465087890625</LatitudeDegrees>
              <LongitudeDegrees>20.473399646580219268798828125</LongitudeDegrees>
            </Position>
            <AltitudeMeters>350.600006103515625</AltitudeMeters>
            <DistanceMeters>NAN</DistanceMeters>
          </Trackpoint>
          <Trackpoint>
            <Time>2022-09-22T10:19:17.000Z</Time>
            <Position>
              <LatitudeDegrees>49.539598524570465087890625</LatitudeDegrees>
              <LongitudeDegrees>20.473399646580219268798828125</LongitudeDegrees>
            </Position>
            <AltitudeMeters>350.600006103515625</AltitudeMeters>
            <DistanceMeters>NAN</DistanceMeters>
          </Trackpoint>
          <Trackpoint>
            <Time>2022-09-22T10:19:23.000Z</Time>
            <Position>
              <LatitudeDegrees>49.539598524570465087890625</LatitudeDegrees>
              <LongitudeDegrees>20.473399646580219268798828125</LongitudeDegrees>
            </Position>
            <AltitudeMeters>350.600006103515625</AltitudeMeters>
            <DistanceMeters>NAN</DistanceMeters>
          </Trackpoint>
          <Trackpoint>
            <Time>2022-09-22T10:19:42.000Z</Time>
            <Position>
              <LatitudeDegrees>49.539598524570465087890625</LatitudeDegrees>
              <LongitudeDegrees>20.473399646580219268798828125</LongitudeDegrees>
            </Position>
            <AltitudeMeters>350.600006103515625</AltitudeMeters>
            <DistanceMeters>NAN</DistanceMeters>
          </Trackpoint>
          <Trackpoint>
            <Time>2022-09-22T10:20:22.000Z</Time>
            <Position>
              <LatitudeDegrees>49.539598524570465087890625</LatitudeDegrees>
              <LongitudeDegrees>20.473399646580219268798828125</LongitudeDegrees>
            </Position>
            <AltitudeMeters>350.600006103515625</AltitudeMeters>
            <DistanceMeters>NAN</DistanceMeters>
          </Trackpoint>
          <Trackpoint>
            <Time>2022-09-22T10:20:24.000Z</Time>
            <Position>
              <LatitudeDegrees>49.539598524570465087890625</LatitudeDegrees>
              <LongitudeDegrees>20.473399646580219268798828125</LongitudeDegrees>
            </Position>
            <AltitudeMeters>350.600006103515625</AltitudeMeters>
            <DistanceMeters>NAN</DistanceMeters>
          </Trackpoint>
          <Trackpoint>
            <Time>2022-09-22T10:20:34.000Z</Time>
            <Position>
              <LatitudeDegrees>49.539598524570465087890625</LatitudeDegrees>
              <LongitudeDegrees>20.473399646580219268798828125</LongitudeDegrees>
            </Position>
            <AltitudeMeters>350.600006103515625</AltitudeMeters>
            <DistanceMeters>NAN</DistanceMeters>
          </Trackpoint>
          <Trackpoint>
            <Time>2022-09-22T10:20:38.000Z</Time>
            <Position>
              <LatitudeDegrees>49.539598524570465087890625</LatitudeDegrees>
              <LongitudeDegrees>20.473399646580219268798828125</LongitudeDegrees>
            </Position>
            <AltitudeMeters>350.600006103515625</AltitudeMeters>
            <DistanceMeters>NAN</DistanceMeters>
          </Trackpoint>
          <Trackpoint>
            <Time>2022-09-22T10:20:40.000Z</Time>
            <Position>
              <LatitudeDegrees>49.539598524570465087890625</LatitudeDegrees>
              <LongitudeDegrees>20.473399646580219268798828125</LongitudeDegrees>
            </Position>
            <AltitudeMeters>350.600006103515625</AltitudeMeters>
            <DistanceMeters>NAN</DistanceMeters>
          </Trackpoint>
          <Trackpoint>
            <Time>2022-09-22T10:20:46.000Z</Time>
            <Position>
              <LatitudeDegrees>49.539598524570465087890625</LatitudeDegrees>
              <LongitudeDegrees>20.473399646580219268798828125</LongitudeDegrees>
            </Position>
            <AltitudeMeters>350.600006103515625</AltitudeMeters>
            <DistanceMeters>NAN</DistanceMeters>
          </Trackpoint>
          <Trackpoint>
            <Time>2022-09-22T10:21:12.000Z</Time>
            <Position>
              <LatitudeDegrees>49.53959860838949680328369140625</LatitudeDegrees>
              <LongitudeDegrees>20.47339973039925098419189453125</LongitudeDegrees>
            </Position>
            <AltitudeMeters>350.600006103515625</AltitudeMeters>
            <DistanceMeters>NAN</DistanceMeters>
          </Trackpoint>
          <Trackpoint>
            <Time>2022-09-22T10:21:23.000Z</Time>
            <Position>
              <LatitudeDegrees>49.53959860838949680328369140625</LatitudeDegrees>
              <LongitudeDegrees>20.4733998142182826995849609375</LongitudeDegrees>
            </Position>
            <AltitudeMeters>350.600006103515625</AltitudeMeters>
            <DistanceMeters>NAN</DistanceMeters>
          </Trackpoint>
          <Trackpoint>
            <Time>2022-09-22T10:21:26.000Z</Time>
            <Position>
              <LatitudeDegrees>49.53959860838949680328369140625</LatitudeDegrees>
              <LongitudeDegrees>20.47339989803731441497802734375</LongitudeDegrees>
            </Position>
            <AltitudeMeters>350.600006103515625</AltitudeMeters>
            <DistanceMeters>NAN</DistanceMeters>
          </Trackpoint>
          <Trackpoint>
            <Time>2022-09-22T10:21:27.000Z</Time>
            <Position>
              <LatitudeDegrees>49.53959860838949680328369140625</LatitudeDegrees>
              <LongitudeDegrees>20.47339989803731441497802734375</LongitudeDegrees>
            </Position>
            <AltitudeMeters>350.600006103515625</AltitudeMeters>
            <DistanceMeters>NAN</DistanceMeters>
          </Trackpoint>
          <Trackpoint>
            <Time>2022-09-22T10:21:30.000Z</Time>
            <Position>
              <LatitudeDegrees>49.53959860838949680328369140625</LatitudeDegrees>
              <LongitudeDegrees>20.47339989803731441497802734375</LongitudeDegrees>
            </Position>
            <AltitudeMeters>350.600006103515625</AltitudeMeters>
            <DistanceMeters>NAN</DistanceMeters>
          </Trackpoint>
          <Trackpoint>
            <Time>2022-09-22T10:22:01.000Z</Time>
            <Position>
              <LatitudeDegrees>49.53959860838949680328369140625</LatitudeDegrees>
              <LongitudeDegrees>20.47340023331344127655029296875</LongitudeDegrees>
            </Position>
            <AltitudeMeters>350.600006103515625</AltitudeMeters>
            <DistanceMeters>NAN</DistanceMeters>
          </Trackpoint>
          <Trackpoint>
            <Time>2022-09-22T10:22:02.000Z</Time>
            <Position>
              <LatitudeDegrees>49.53959860838949680328369140625</LatitudeDegrees>
              <LongitudeDegrees>20.47340023331344127655029296875</LongitudeDegrees>
            </Position>
            <AltitudeMeters>350.600006103515625</AltitudeMeters>
            <DistanceMeters>NAN</DistanceMeters>
          </Trackpoint>
          <Trackpoint>
            <Time>2022-09-22T10:22:22.000Z</Time>
            <Position>
              <LatitudeDegrees>49.53959860838949680328369140625</LatitudeDegrees>
              <LongitudeDegrees>20.4734004847705364227294921875</LongitudeDegrees>
            </Position>
            <AltitudeMeters>350.600006103515625</AltitudeMeters>
            <DistanceMeters>NAN</DistanceMeters>
          </Trackpoint>
          <Trackpoint>
            <Time>2022-09-22T10:22:29.000Z</Time>
            <Position>
              <LatitudeDegrees>49.5395986922085285186767578125</LatitudeDegrees>
              <LongitudeDegrees>20.47340056858956813812255859375</LongitudeDegrees>
            </Position>
            <AltitudeMeters>350.600006103515625</AltitudeMeters>
            <DistanceMeters>NAN</DistanceMeters>
          </Trackpoint>
          <Trackpoint>
            <Time>2022-09-22T10:22:32.000Z</Time>
            <Position>
              <LatitudeDegrees>49.5395986922085285186767578125</LatitudeDegrees>
              <LongitudeDegrees>20.47340056858956813812255859375</LongitudeDegrees>
            </Position>
            <AltitudeMeters>350.600006103515625</AltitudeMeters>
            <DistanceMeters>NAN</DistanceMeters>
          </Trackpoint>
          <Trackpoint>
            <Time>2022-09-22T10:22:45.000Z</Time>
            <Position>
              <LatitudeDegrees>49.53959919512271881103515625</LatitudeDegrees>
              <LongitudeDegrees>20.4733993113040924072265625</LongitudeDegrees>
            </Position>
            <AltitudeMeters>350.600006103515625</AltitudeMeters>
            <DistanceMeters>NAN</DistanceMeters>
          </Trackpoint>
          <Trackpoint>
            <Time>2022-09-22T10:22:52.000Z</Time>
            <Position>
              <LatitudeDegrees>49.53959961421787738800048828125</LatitudeDegrees>
              <LongitudeDegrees>20.4733939468860626220703125</LongitudeDegrees>
            </Position>
            <AltitudeMeters>350.600006103515625</AltitudeMeters>
            <DistanceMeters>NAN</DistanceMeters>
          </Trackpoint>
          <Trackpoint>
            <Time>2022-09-22T10:23:05.000Z</Time>
            <Position>
              <LatitudeDegrees>49.53957195393741130828857421875</LatitudeDegrees>
              <LongitudeDegrees>20.47338346950709819793701171875</LongitudeDegrees>
            </Position>
            <AltitudeMeters>350.600006103515625</AltitudeMeters>
            <DistanceMeters>NAN</DistanceMeters>
          </Trackpoint>
          <Trackpoint>
            <Time>2022-09-22T10:23:07.000Z</Time>
            <Position>
              <LatitudeDegrees>49.53954814933240413665771484375</LatitudeDegrees>
              <LongitudeDegrees>20.47337458468973636627197265625</LongitudeDegrees>
            </Position>
            <AltitudeMeters>350.600006103515625</AltitudeMeters>
            <DistanceMeters>NAN</DistanceMeters>
          </Trackpoint>
          <Trackpoint>
            <Time>2022-09-22T10:23:15.000Z</Time>
            <Position>
              <LatitudeDegrees>49.5395054854452610015869140625</LatitudeDegrees>
              <LongitudeDegrees>20.47335178591310977935791015625</LongitudeDegrees>
            </Position>
            <AltitudeMeters>350.79998779296875</AltitudeMeters>
            <DistanceMeters>NAN</DistanceMeters>
          </Trackpoint>
          <Trackpoint>
            <Time>2022-09-22T10:23:22.000Z</Time>
            <Position>
              <LatitudeDegrees>49.5394498296082019805908203125</LatitudeDegrees>
              <LongitudeDegrees>20.47333669848740100860595703125</LongitudeDegrees>
            </Position>
            <AltitudeMeters>351</AltitudeMeters>
            <DistanceMeters>NAN</DistanceMeters>
          </Trackpoint>
          <Trackpoint>
            <Time>2022-09-22T10:23:27.000Z</Time>
            <Position>
              <LatitudeDegrees>49.53933902084827423095703125</LatitudeDegrees>
              <LongitudeDegrees>20.4732915200293064117431640625</LongitudeDegrees>
            </Position>
            <AltitudeMeters>351.20001220703125</AltitudeMeters>
            <DistanceMeters>NAN</DistanceMeters>
          </Trackpoint>
          <Trackpoint>
            <Time>2022-09-22T10:23:31.000Z</Time>
            <Position>
              <LatitudeDegrees>49.5392399467527866363525390625</LatitudeDegrees>
              <LongitudeDegrees>20.4732464253902435302734375</LongitudeDegrees>
            </Position>
            <AltitudeMeters>351.600006103515625</AltitudeMeters>
            <DistanceMeters>NAN</DistanceMeters>
          </Trackpoint>
          <Trackpoint>
            <Time>2022-09-22T10:23:33.000Z</Time>
            <Position>
              <LatitudeDegrees>49.5391883142292499542236328125</LatitudeDegrees>
              <LongitudeDegrees>20.47321734018623828887939453125</LongitudeDegrees>
            </Position>
            <AltitudeMeters>351.600006103515625</AltitudeMeters>
            <DistanceMeters>NAN</DistanceMeters>
          </Trackpoint>
          <Trackpoint>
            <Time>2022-09-22T10:23:34.000Z</Time>
            <Position>
              <LatitudeDegrees>49.53916375525295734405517578125</LatitudeDegrees>
              <LongitudeDegrees>20.47320426441729068756103515625</LongitudeDegrees>
            </Position>
            <AltitudeMeters>351.600006103515625</AltitudeMeters>
            <DistanceMeters>NAN</DistanceMeters>
          </Trackpoint>
          <Trackpoint>
            <Time>2022-09-22T10:23:45.000Z</Time>
            <Position>
              <LatitudeDegrees>49.5388644374907016754150390625</LatitudeDegrees>
              <LongitudeDegrees>20.473043583333492279052734375</LongitudeDegrees>
            </Position>
            <AltitudeMeters>351.600006103515625</AltitudeMeters>
            <DistanceMeters>NAN</DistanceMeters>
          </Trackpoint>
          <Trackpoint>
            <Time>2022-09-22T10:23:52.000Z</Time>
            <Position>
              <LatitudeDegrees>49.5386763475835323333740234375</LatitudeDegrees>
              <LongitudeDegrees>20.47294207848608493804931640625</LongitudeDegrees>
            </Position>
            <AltitudeMeters>351.399993896484375</AltitudeMeters>
            <DistanceMeters>NAN</DistanceMeters>
          </Trackpoint>
          <Trackpoint>
            <Time>2022-09-22T10:23:54.000Z</Time>
            <Position>
              <LatitudeDegrees>49.53861792571842670440673828125</LatitudeDegrees>
              <LongitudeDegrees>20.47291458584368228912353515625</LongitudeDegrees>
            </Position>
            <AltitudeMeters>351.20001220703125</AltitudeMeters>
            <DistanceMeters>NAN</DistanceMeters>
          </Trackpoint>
          <Trackpoint>
            <Time>2022-09-22T10:23:59.000Z</Time>
            <Position>
              <LatitudeDegrees>49.538468979299068450927734375</LatitudeDegrees>
              <LongitudeDegrees>20.47289866022765636444091796875</LongitudeDegrees>
            </Position>
            <AltitudeMeters>351</AltitudeMeters>
            <DistanceMeters>NAN</DistanceMeters>
          </Trackpoint>
          <Trackpoint>
            <Time>2022-09-22T10:24:01.000Z</Time>
            <Position>
              <LatitudeDegrees>49.53842028044164180755615234375</LatitudeDegrees>
              <LongitudeDegrees>20.47298683784902095794677734375</LongitudeDegrees>
            </Position>
            <AltitudeMeters>350.399993896484375</AltitudeMeters>
            <DistanceMeters>NAN</DistanceMeters>
          </Trackpoint>
          <Trackpoint>
            <Time>2022-09-22T10:24:02.000Z</Time>
            <Position>
              <LatitudeDegrees>49.53840016387403011322021484375</LatitudeDegrees>
              <LongitudeDegrees>20.47305473126471042633056640625</LongitudeDegrees>
            </Position>
            <AltitudeMeters>350.20001220703125</AltitudeMeters>
            <DistanceMeters>NAN</DistanceMeters>
          </Trackpoint>
          <Trackpoint>
            <Time>2022-09-22T10:24:03.000Z</Time>
            <Position>
              <LatitudeDegrees>49.5383806340396404266357421875</LatitudeDegrees>
              <LongitudeDegrees>20.4731342755258083343505859375</LongitudeDegrees>
            </Position>
            <AltitudeMeters>349.79998779296875</AltitudeMeters>
            <DistanceMeters>NAN</DistanceMeters>
          </Trackpoint>
          <Trackpoint>
            <Time>2022-09-22T10:24:05.000Z</Time>
            <Position>
              <LatitudeDegrees>49.53833847306668758392333984375</LatitudeDegrees>
              <LongitudeDegrees>20.47332429327070713043212890625</LongitudeDegrees>
            </Position>
            <AltitudeMeters>349.399993896484375</AltitudeMeters>
            <DistanceMeters>NAN</DistanceMeters>
          </Trackpoint>
          <Trackpoint>
            <Time>2022-09-22T10:24:07.000Z</Time>
            <Position>
              <LatitudeDegrees>49.53828432597219944000244140625</LatitudeDegrees>
              <LongitudeDegrees>20.4735423065721988677978515625</LongitudeDegrees>
            </Position>
            <AltitudeMeters>348.20001220703125</AltitudeMeters>
            <DistanceMeters>NAN</DistanceMeters>
          </Trackpoint>
          <Trackpoint>
            <Time>2022-09-22T10:24:10.000Z</Time>
            <Position>
              <LatitudeDegrees>49.53819279558956623077392578125</LatitudeDegrees>
              <LongitudeDegrees>20.473863668739795684814453125</LongitudeDegrees>
            </Position>
            <AltitudeMeters>347.20001220703125</AltitudeMeters>
            <DistanceMeters>NAN</DistanceMeters>
          </Trackpoint>
          <Trackpoint>
            <Time>2022-09-22T10:24:13.000Z</Time>
            <Position>
              <LatitudeDegrees>49.53810025937855243682861328125</LatitudeDegrees>
              <LongitudeDegrees>20.47417488880455493927001953125</LongitudeDegrees>
            </Position>
            <AltitudeMeters>346.600006103515625</AltitudeMeters>
            <DistanceMeters>NAN</DistanceMeters>
          </Trackpoint>
          <Trackpoint>
            <Time>2022-09-22T10:24:14.000Z</Time>
            <Position>
              <LatitudeDegrees>49.53806689940392971038818359375</LatitudeDegrees>
              <LongitudeDegrees>20.47427312470972537994384765625</LongitudeDegrees>
            </Position>
            <AltitudeMeters>346.600006103515625</AltitudeMeters>
            <DistanceMeters>NAN</DistanceMeters>
          </Trackpoint>
          <Trackpoint>
            <Time>2022-09-22T10:24:17.000Z</Time>
            <Position>
              <LatitudeDegrees>49.53797771595418453216552734375</LatitudeDegrees>
              <LongitudeDegrees>20.474562384188175201416015625</LongitudeDegrees>
            </Position>
            <AltitudeMeters>346.399993896484375</AltitudeMeters>
            <DistanceMeters>NAN</DistanceMeters>
          </Trackpoint>
          <Trackpoint>
            <Time>2022-09-22T10:24:19.000Z</Time>
            <Position>
              <LatitudeDegrees>49.53792725689709186553955078125</LatitudeDegrees>
              <LongitudeDegrees>20.474757850170135498046875</LongitudeDegrees>
            </Position>
            <AltitudeMeters>346.399993896484375</AltitudeMeters>
            <DistanceMeters>NAN</DistanceMeters>
          </Trackpoint>
          <Trackpoint>
            <Time>2022-09-22T10:24:24.000Z</Time>
            <Position>
              <LatitudeDegrees>49.53778627328574657440185546875</LatitudeDegrees>
              <LongitudeDegrees>20.475179962813854217529296875</LongitudeDegrees>
            </Position>
            <AltitudeMeters>346.20001220703125</AltitudeMeters>
            <DistanceMeters>NAN</DistanceMeters>
          </Trackpoint>
          <Trackpoint>
            <Time>2022-09-22T10:24:29.000Z</Time>
            <Position>
              <LatitudeDegrees>49.53762936405837535858154296875</LatitudeDegrees>
              <LongitudeDegrees>20.47547978349030017852783203125</LongitudeDegrees>
            </Position>
            <AltitudeMeters>346.600006103515625</AltitudeMeters>
            <DistanceMeters>NAN</DistanceMeters>
          </Trackpoint>
          <Trackpoint>
            <Time>2022-09-22T10:24:34.000Z</Time>
            <Position>
              <LatitudeDegrees>49.53750330023467540740966796875</LatitudeDegrees>
              <LongitudeDegrees>20.47571338713169097900390625</LongitudeDegrees>
            </Position>
            <AltitudeMeters>347</AltitudeMeters>
            <DistanceMeters>NAN</DistanceMeters>
          </Trackpoint>
          <Trackpoint>
            <Time>2022-09-22T10:24:40.000Z</Time>
            <Position>
              <LatitudeDegrees>49.53736399300396442413330078125</LatitudeDegrees>
              <LongitudeDegrees>20.47603382728993892669677734375</LongitudeDegrees>
            </Position>
            <AltitudeMeters>347.20001220703125</AltitudeMeters>
            <DistanceMeters>NAN</DistanceMeters>
          </Trackpoint>
          <Trackpoint>
            <Time>2022-09-22T10:24:47.000Z</Time>
            <Position>
              <LatitudeDegrees>49.53723222948610782623291015625</LatitudeDegrees>
              <LongitudeDegrees>20.47635401599109172821044921875</LongitudeDegrees>
            </Position>
            <AltitudeMeters>346.79998779296875</AltitudeMeters>
            <DistanceMeters>NAN</DistanceMeters>
          </Trackpoint>
          <Trackpoint>
            <Time>2022-09-22T10:24:53.000Z</Time>
            <Position>
              <LatitudeDegrees>49.53714991919696331024169921875</LatitudeDegrees>
              <LongitudeDegrees>20.47666213475167751312255859375</LongitudeDegrees>
            </Position>
            <AltitudeMeters>346.79998779296875</AltitudeMeters>
            <DistanceMeters>NAN</DistanceMeters>
          </Trackpoint>
          <Trackpoint>
            <Time>2022-09-22T10:24:54.000Z</Time>
            <Position>
              <LatitudeDegrees>49.53713751398026943206787109375</LatitudeDegrees>
              <LongitudeDegrees>20.4767207242548465728759765625</LongitudeDegrees>
            </Position>
            <AltitudeMeters>346.79998779296875</AltitudeMeters>
            <DistanceMeters>NAN</DistanceMeters>
          </Trackpoint>
          <Trackpoint>
            <Time>2022-09-22T10:25:02.000Z</Time>
            <Position>
              <LatitudeDegrees>49.53701891005039215087890625</LatitudeDegrees>
              <LongitudeDegrees>20.47722858376801013946533203125</LongitudeDegrees>
            </Position>
            <AltitudeMeters>346.600006103515625</AltitudeMeters>
            <DistanceMeters>NAN</DistanceMeters>
          </Trackpoint>
          <Trackpoint>
            <Time>2022-09-22T10:25:09.000Z</Time>
            <Position>
              <LatitudeDegrees>49.53689293004572391510009765625</LatitudeDegrees>
              <LongitudeDegrees>20.47770618461072444915771484375</LongitudeDegrees>
            </Position>
            <AltitudeMeters>346.79998779296875</AltitudeMeters>
            <DistanceMeters>NAN</DistanceMeters>
          </Trackpoint>
          <Trackpoint>
            <Time>2022-09-22T10:25:14.000Z</Time>
            <Position>
              <LatitudeDegrees>49.53682553954422473907470703125</LatitudeDegrees>
              <LongitudeDegrees>20.4780118726193904876708984375</LongitudeDegrees>
            </Position>
            <AltitudeMeters>346.79998779296875</AltitudeMeters>
            <DistanceMeters>NAN</DistanceMeters>
          </Trackpoint>
          <Trackpoint>
            <Time>2022-09-22T10:25:16.000Z</Time>
            <Position>
              <LatitudeDegrees>49.53679285012185573577880859375</LatitudeDegrees>
              <LongitudeDegrees>20.47813475131988525390625</LongitudeDegrees>
            </Position>
            <AltitudeMeters>346.79998779296875</AltitudeMeters>
            <DistanceMeters>NAN</DistanceMeters>
          </Trackpoint>
          <Trackpoint>
            <Time>2022-09-22T10:25:19.000Z</Time>
            <Position>
              <LatitudeDegrees>49.536747001111507415771484375</LatitudeDegrees>
              <LongitudeDegrees>20.47831588424742221832275390625</LongitudeDegrees>
            </Position>
            <AltitudeMeters>346.399993896484375</AltitudeMeters>
            <DistanceMeters>NAN</DistanceMeters>
          </Trackpoint>
          <Trackpoint>
            <Time>2022-09-22T10:25:24.000Z</Time>
            <Position>
              <LatitudeDegrees>49.5366673730313777923583984375</LatitudeDegrees>
              <LongitudeDegrees>20.47864244319498538970947265625</LongitudeDegrees>
            </Position>
            <AltitudeMeters>346.20001220703125</AltitudeMeters>
            <DistanceMeters>NAN</DistanceMeters>
          </Trackpoint>
          <Trackpoint>
            <Time>2022-09-22T10:25:27.000Z</Time>
            <Position>
              <LatitudeDegrees>49.5366199314594268798828125</LatitudeDegrees>
              <LongitudeDegrees>20.47885282896459102630615234375</LongitudeDegrees>
            </Position>
            <AltitudeMeters>346.20001220703125</AltitudeMeters>
            <DistanceMeters>NAN</DistanceMeters>
          </Trackpoint>
          <Trackpoint>
            <Time>2022-09-22T10:25:33.000Z</Time>
            <Position>
              <LatitudeDegrees>49.5365319214761257171630859375</LatitudeDegrees>
              <LongitudeDegrees>20.47919447533786296844482421875</LongitudeDegrees>
            </Position>
            <AltitudeMeters>346.20001220703125</AltitudeMeters>
            <DistanceMeters>NAN</DistanceMeters>
          </Trackpoint>
          <Trackpoint>
            <Time>2022-09-22T10:25:39.000Z</Time>
            <Position>
              <LatitudeDegrees>49.5363750122487545013427734375</LatitudeDegrees>
              <LongitudeDegrees>20.4794398136436939239501953125</LongitudeDegrees>
            </Position>
            <AltitudeMeters>347</AltitudeMeters>
            <DistanceMeters>NAN</DistanceMeters>
          </Trackpoint>
          <Trackpoint>
            <Time>2022-09-22T10:25:44.000Z</Time>
            <Position>
              <LatitudeDegrees>49.536236710846424102783203125</LatitudeDegrees>
              <LongitudeDegrees>20.4796434938907623291015625</LongitudeDegrees>
            </Position>
            <AltitudeMeters>347.20001220703125</AltitudeMeters>
            <DistanceMeters>NAN</DistanceMeters>
          </Trackpoint>
          <Trackpoint>
            <Time>2022-09-22T10:25:51.000Z</Time>
            <Position>
              <LatitudeDegrees>49.53606295399367809295654296875</LatitudeDegrees>
              <LongitudeDegrees>20.4799450747668743133544921875</LongitudeDegrees>
            </Position>
            <AltitudeMeters>347.20001220703125</AltitudeMeters>
            <DistanceMeters>NAN</DistanceMeters>
          </Trackpoint>
          <Trackpoint>
            <Time>2022-09-22T10:25:52.000Z</Time>
            <Position>
              <LatitudeDegrees>49.5360383950173854827880859375</LatitudeDegrees>
              <LongitudeDegrees>20.47999226488173007965087890625</LongitudeDegrees>
            </Position>
            <AltitudeMeters>347.20001220703125</AltitudeMeters>
            <DistanceMeters>NAN</DistanceMeters>
          </Trackpoint>
          <Trackpoint>
            <Time>2022-09-22T10:26:00.000Z</Time>
            <Position>
              <LatitudeDegrees>49.5358486287295818328857421875</LatitudeDegrees>
              <LongitudeDegrees>20.48031563870608806610107421875</LongitudeDegrees>
            </Position>
            <AltitudeMeters>347.20001220703125</AltitudeMeters>
            <DistanceMeters>NAN</DistanceMeters>
          </Trackpoint>
          <Trackpoint>
            <Time>2022-09-22T10:26:08.000Z</Time>
            <Position>
              <LatitudeDegrees>49.53568358905613422393798828125</LatitudeDegrees>
              <LongitudeDegrees>20.480573214590549468994140625</LongitudeDegrees>
            </Position>
            <AltitudeMeters>346.79998779296875</AltitudeMeters>
            <DistanceMeters>NAN</DistanceMeters>
          </Trackpoint>
          <Trackpoint>
            <Time>2022-09-22T10:26:13.000Z</Time>
            <Position>
              <LatitudeDegrees>49.535584263503551483154296875</LatitudeDegrees>
              <LongitudeDegrees>20.48073808662593364715576171875</LongitudeDegrees>
            </Position>
            <AltitudeMeters>346.79998779296875</AltitudeMeters>
            <DistanceMeters>NAN</DistanceMeters>
          </Trackpoint>
          <Trackpoint>
            <Time>2022-09-22T10:26:14.000Z</Time>
            <Position>
              <LatitudeDegrees>49.535559453070163726806640625</LatitudeDegrees>
              <LongitudeDegrees>20.48077748157083988189697265625</LongitudeDegrees>
            </Position>
            <AltitudeMeters>346.600006103515625</AltitudeMeters>
            <DistanceMeters>NAN</DistanceMeters>
          </Trackpoint>
          <Trackpoint>
            <Time>2022-09-22T10:26:18.000Z</Time>
            <Position>
              <LatitudeDegrees>49.535458870232105255126953125</LatitudeDegrees>
              <LongitudeDegrees>20.48093606717884540557861328125</LongitudeDegrees>
            </Position>
            <AltitudeMeters>346.600006103515625</AltitudeMeters>
            <DistanceMeters>NAN</DistanceMeters>
          </Trackpoint>
          <Trackpoint>
            <Time>2022-09-22T10:26:22.000Z</Time>
            <Position>
              <LatitudeDegrees>49.53537060879170894622802734375</LatitudeDegrees>
              <LongitudeDegrees>20.4810987599194049835205078125</LongitudeDegrees>
            </Position>
            <AltitudeMeters>346.20001220703125</AltitudeMeters>
            <DistanceMeters>NAN</DistanceMeters>
          </Trackpoint>
          <Trackpoint>
            <Time>2022-09-22T10:26:23.000Z</Time>
            <Position>
              <LatitudeDegrees>49.53534764237701892852783203125</LatitudeDegrees>
              <LongitudeDegrees>20.48113455064594745635986328125</LongitudeDegrees>
            </Position>
            <AltitudeMeters>346.20001220703125</AltitudeMeters>
            <DistanceMeters>NAN</DistanceMeters>
          </Trackpoint>
          <Trackpoint>
            <Time>2022-09-22T10:26:24.000Z</Time>
            <Position>
              <LatitudeDegrees>49.5353232510387897491455078125</LatitudeDegrees>
              <LongitudeDegrees>20.481175370514392852783203125</LongitudeDegrees>
            </Position>
            <AltitudeMeters>346.20001220703125</AltitudeMeters>
            <DistanceMeters>NAN</DistanceMeters>
          </Trackpoint>
          <Trackpoint>
            <Time>2022-09-22T10:26:31.000Z</Time>
            <Position>
              <LatitudeDegrees>49.53514480032026767730712890625</LatitudeDegrees>
              <LongitudeDegrees>20.481491200625896453857421875</LongitudeDegrees>
            </Position>
            <AltitudeMeters>346.20001220703125</AltitudeMeters>
            <DistanceMeters>NAN</DistanceMeters>
          </Trackpoint>
          <Trackpoint>
            <Time>2022-09-22T10:26:35.000Z</Time>
            <Position>
              <LatitudeDegrees>49.5350550301373004913330078125</LatitudeDegrees>
              <LongitudeDegrees>20.48168825916945934295654296875</LongitudeDegrees>
            </Position>
            <AltitudeMeters>346.20001220703125</AltitudeMeters>
            <DistanceMeters>NAN</DistanceMeters>
          </Trackpoint>
          <Trackpoint>
            <Time>2022-09-22T10:26:37.000Z</Time>
            <Position>
              <LatitudeDegrees>49.534996859729290008544921875</LatitudeDegrees>
              <LongitudeDegrees>20.48175774514675140380859375</LongitudeDegrees>
            </Position>
            <AltitudeMeters>346</AltitudeMeters>
            <DistanceMeters>NAN</DistanceMeters>
          </Trackpoint>
          <Trackpoint>
            <Time>2022-09-22T10:26:40.000Z</Time>
            <Position>
              <LatitudeDegrees>49.5348763279616832733154296875</LatitudeDegrees>
              <LongitudeDegrees>20.4817481897771358489990234375</LongitudeDegrees>
            </Position>
            <AltitudeMeters>345.600006103515625</AltitudeMeters>
            <DistanceMeters>NAN</DistanceMeters>
          </Trackpoint>
          <Trackpoint>
            <Time>2022-09-22T10:26:44.000Z</Time>
            <Position>
              <LatitudeDegrees>49.5347006432712078094482421875</LatitudeDegrees>
              <LongitudeDegrees>20.48167367465794086456298828125</LongitudeDegrees>
            </Position>
            <AltitudeMeters>345.20001220703125</AltitudeMeters>
            <DistanceMeters>NAN</DistanceMeters>
          </Trackpoint>
          <Trackpoint>
            <Time>2022-09-22T10:26:46.000Z</Time>
            <Position>
              <LatitudeDegrees>49.5346158184111118316650390625</LatitudeDegrees>
              <LongitudeDegrees>20.4816766083240509033203125</LongitudeDegrees>
            </Position>
            <AltitudeMeters>345.20001220703125</AltitudeMeters>
            <DistanceMeters>NAN</DistanceMeters>
          </Trackpoint>
          <Trackpoint>
            <Time>2022-09-22T10:26:48.000Z</Time>
            <Position>
              <LatitudeDegrees>49.53454230912029743194580078125</LatitudeDegrees>
              <LongitudeDegrees>20.48173201270401477813720703125</LongitudeDegrees>
            </Position>
            <AltitudeMeters>345.20001220703125</AltitudeMeters>
            <DistanceMeters>NAN</DistanceMeters>
          </Trackpoint>
          <Trackpoint>
            <Time>2022-09-22T10:26:50.000Z</Time>
            <Position>
              <LatitudeDegrees>49.53449352644383907318115234375</LatitudeDegrees>
              <LongitudeDegrees>20.48181616701185703277587890625</LongitudeDegrees>
            </Position>
            <AltitudeMeters>345.399993896484375</AltitudeMeters>
            <DistanceMeters>NAN</DistanceMeters>
          </Trackpoint>
          <Trackpoint>
            <Time>2022-09-22T10:26:56.000Z</Time>
            <Position>
              <LatitudeDegrees>49.5343586616218090057373046875</LatitudeDegrees>
              <LongitudeDegrees>20.48213870264589786529541015625</LongitudeDegrees>
            </Position>
            <AltitudeMeters>345.20001220703125</AltitudeMeters>
            <DistanceMeters>NAN</DistanceMeters>
          </Trackpoint>
          <Trackpoint>
            <Time>2022-09-22T10:27:00.000Z</Time>
            <Position>
              <LatitudeDegrees>49.53424810431897640228271484375</LatitudeDegrees>
              <LongitudeDegrees>20.482391417026519775390625</LongitudeDegrees>
            </Position>
            <AltitudeMeters>345.20001220703125</AltitudeMeters>
            <DistanceMeters>NAN</DistanceMeters>
          </Trackpoint>
          <Trackpoint>
            <Time>2022-09-22T10:27:04.000Z</Time>
            <Position>
              <LatitudeDegrees>49.5341531373560428619384765625</LatitudeDegrees>
              <LongitudeDegrees>20.4826447181403636932373046875</LongitudeDegrees>
            </Position>
            <AltitudeMeters>345</AltitudeMeters>
            <DistanceMeters>NAN</DistanceMeters>
          </Trackpoint>
          <Trackpoint>
            <Time>2022-09-22T10:27:11.000Z</Time>
            <Position>
              <LatitudeDegrees>49.53400787897408008575439453125</LatitudeDegrees>
              <LongitudeDegrees>20.48310580663383007049560546875</LongitudeDegrees>
            </Position>
            <AltitudeMeters>344.600006103515625</AltitudeMeters>
            <DistanceMeters>NAN</DistanceMeters>
          </Trackpoint>
          <Trackpoint>
            <Time>2022-09-22T10:27:19.000Z</Time>
            <Position>
              <LatitudeDegrees>49.53377905301749706268310546875</LatitudeDegrees>
              <LongitudeDegrees>20.4836941324174404144287109375</LongitudeDegrees>
            </Position>
            <AltitudeMeters>344.20001220703125</AltitudeMeters>
            <DistanceMeters>NAN</DistanceMeters>
          </Trackpoint>
          <Trackpoint>
            <Time>2022-09-22T10:27:20.000Z</Time>
            <Position>
              <LatitudeDegrees>49.5337534882128238677978515625</LatitudeDegrees>
              <LongitudeDegrees>20.4837794601917266845703125</LongitudeDegrees>
            </Position>
            <AltitudeMeters>344.20001220703125</AltitudeMeters>
            <DistanceMeters>NAN</DistanceMeters>
          </Trackpoint>
          <Trackpoint>
            <Time>2022-09-22T10:27:29.000Z</Time>
            <Position>
              <LatitudeDegrees>49.5335771329700946807861328125</LatitudeDegrees>
              <LongitudeDegrees>20.48448932357132434844970703125</LongitudeDegrees>
            </Position>
            <AltitudeMeters>344.399993896484375</AltitudeMeters>
            <DistanceMeters>NAN</DistanceMeters>
          </Trackpoint>
          <Trackpoint>
            <Time>2022-09-22T10:27:36.000Z</Time>
            <Position>
              <LatitudeDegrees>49.533483423292636871337890625</LatitudeDegrees>
              <LongitudeDegrees>20.48500631935894489288330078125</LongitudeDegrees>
            </Position>
            <AltitudeMeters>344.20001220703125</AltitudeMeters>
            <DistanceMeters>NAN</DistanceMeters>
          </Trackpoint>
          <Trackpoint>
            <Time>2022-09-22T10:27:44.000Z</Time>
            <Position>
              <LatitudeDegrees>49.5333682559430599212646484375</LatitudeDegrees>
              <LongitudeDegrees>20.485560111701488494873046875</LongitudeDegrees>
            </Position>
            <AltitudeMeters>344.600006103515625</AltitudeMeters>
            <DistanceMeters>NAN</DistanceMeters>
          </Trackpoint>
          <Trackpoint>
            <Time>2022-09-22T10:27:47.000Z</Time>
            <Position>
              <LatitudeDegrees>49.53330782242119312286376953125</LatitudeDegrees>
              <LongitudeDegrees>20.48574493266642093658447265625</LongitudeDegrees>
            </Position>
            <AltitudeMeters>344.399993896484375</AltitudeMeters>
            <DistanceMeters>NAN</DistanceMeters>
          </Trackpoint>
          <Trackpoint>
            <Time>2022-09-22T10:27:49.000Z</Time>
            <Position>
              <LatitudeDegrees>49.533247388899326324462890625</LatitudeDegrees>
              <LongitudeDegrees>20.48586420714855194091796875</LongitudeDegrees>
            </Position>
            <AltitudeMeters>344.399993896484375</AltitudeMeters>
            <DistanceMeters>NAN</DistanceMeters>
          </Trackpoint>
          <Trackpoint>
            <Time>2022-09-22T10:27:50.000Z</Time>
            <Position>
              <LatitudeDegrees>49.53321780078113079071044921875</LatitudeDegrees>
              <LongitudeDegrees>20.485924221575260162353515625</LongitudeDegrees>
            </Position>
            <AltitudeMeters>344.399993896484375</AltitudeMeters>
            <DistanceMeters>NAN</DistanceMeters>
          </Trackpoint>
          <Trackpoint>
            <Time>2022-09-22T10:27:56.000Z</Time>
            <Position>
              <LatitudeDegrees>49.53301730565726757049560546875</LatitudeDegrees>
              <LongitudeDegrees>20.48629813827574253082275390625</LongitudeDegrees>
            </Position>
            <AltitudeMeters>344</AltitudeMeters>
            <DistanceMeters>NAN</DistanceMeters>
          </Trackpoint>
          <Trackpoint>
            <Time>2022-09-22T10:28:05.000Z</Time>
            <Position>
              <LatitudeDegrees>49.53274019993841648101806640625</LatitudeDegrees>
              <LongitudeDegrees>20.4868948459625244140625</LongitudeDegrees>
            </Position>
            <AltitudeMeters>344.20001220703125</AltitudeMeters>
            <DistanceMeters>NAN</DistanceMeters>
          </Trackpoint>
          <Trackpoint>
            <Time>2022-09-22T10:28:09.000Z</Time>
            <Position>
              <LatitudeDegrees>49.5326319895684719085693359375</LatitudeDegrees>
              <LongitudeDegrees>20.48715443350374698638916015625</LongitudeDegrees>
            </Position>
            <AltitudeMeters>344</AltitudeMeters>
            <DistanceMeters>NAN</DistanceMeters>
          </Trackpoint>
          <Trackpoint>
            <Time>2022-09-22T10:28:15.000Z</Time>
            <Position>
              <LatitudeDegrees>49.532467536628246307373046875</LatitudeDegrees>
              <LongitudeDegrees>20.4874995164573192596435546875</LongitudeDegrees>
            </Position>
            <AltitudeMeters>343.600006103515625</AltitudeMeters>
            <DistanceMeters>NAN</DistanceMeters>
          </Trackpoint>
          <Trackpoint>
            <Time>2022-09-22T10:28:17.000Z</Time>
            <Position>
              <LatitudeDegrees>49.53241087496280670166015625</LatitudeDegrees>
              <LongitudeDegrees>20.48759850673377513885498046875</LongitudeDegrees>
            </Position>
            <AltitudeMeters>343.600006103515625</AltitudeMeters>
            <DistanceMeters>NAN</DistanceMeters>
          </Trackpoint>
          <Trackpoint>
            <Time>2022-09-22T10:28:22.000Z</Time>
            <Position>
              <LatitudeDegrees>49.532288499176502227783203125</LatitudeDegrees>
              <LongitudeDegrees>20.487878210842609405517578125</LongitudeDegrees>
            </Position>
            <AltitudeMeters>343.399993896484375</AltitudeMeters>
            <DistanceMeters>NAN</DistanceMeters>
          </Trackpoint>
          <Trackpoint>
            <Time>2022-09-22T10:28:26.000Z</Time>
            <Position>
              <LatitudeDegrees>49.532195627689361572265625</LatitudeDegrees>
              <LongitudeDegrees>20.4880949668586254119873046875</LongitudeDegrees>
            </Position>
            <AltitudeMeters>343.600006103515625</AltitudeMeters>
            <DistanceMeters>NAN</DistanceMeters>
          </Trackpoint>
          <Trackpoint>
            <Time>2022-09-22T10:28:29.000Z</Time>
            <Position>
              <LatitudeDegrees>49.5321287401020526885986328125</LatitudeDegrees>
              <LongitudeDegrees>20.4882371239364147186279296875</LongitudeDegrees>
            </Position>
            <AltitudeMeters>343.600006103515625</AltitudeMeters>
            <DistanceMeters>NAN</DistanceMeters>
          </Trackpoint>
          <Trackpoint>
            <Time>2022-09-22T10:28:30.000Z</Time>
            <Position>
              <LatitudeDegrees>49.5321082882583141326904296875</LatitudeDegrees>
              <LongitudeDegrees>20.48828481696546077728271484375</LongitudeDegrees>
            </Position>
            <AltitudeMeters>343.600006103515625</AltitudeMeters>
            <DistanceMeters>NAN</DistanceMeters>
          </Trackpoint>
          <Trackpoint>
            <Time>2022-09-22T10:28:33.000Z</Time>
            <Position>
              <LatitudeDegrees>49.532045423984527587890625</LatitudeDegrees>
              <LongitudeDegrees>20.48842839896678924560546875</LongitudeDegrees>
            </Position>
            <AltitudeMeters>343.79998779296875</AltitudeMeters>
            <DistanceMeters>NAN</DistanceMeters>
          </Trackpoint>
          <Trackpoint>
            <Time>2022-09-22T10:28:36.000Z</Time>
            <Position>
              <LatitudeDegrees>49.5319902710616588592529296875</LatitudeDegrees>
              <LongitudeDegrees>20.48859243281185626983642578125</LongitudeDegrees>
            </Position>
            <AltitudeMeters>343.79998779296875</AltitudeMeters>
            <DistanceMeters>NAN</DistanceMeters>
          </Trackpoint>
          <Trackpoint>
            <Time>2022-09-22T10:28:37.000Z</Time>
            <Position>
              <LatitudeDegrees>49.53197224996984004974365234375</LatitudeDegrees>
              <LongitudeDegrees>20.488644652068614959716796875</LongitudeDegrees>
            </Position>
            <AltitudeMeters>343.79998779296875</AltitudeMeters>
            <DistanceMeters>NAN</DistanceMeters>
          </Trackpoint>
          <Trackpoint>
            <Time>2022-09-22T10:28:41.000Z</Time>
            <Position>
              <LatitudeDegrees>49.5318816415965557098388671875</LatitudeDegrees>
              <LongitudeDegrees>20.488827712833881378173828125</LongitudeDegrees>
            </Position>
            <AltitudeMeters>344.20001220703125</AltitudeMeters>
            <DistanceMeters>NAN</DistanceMeters>
          </Trackpoint>
          <Trackpoint>
            <Time>2022-09-22T10:28:42.000Z</Time>
            <Position>
              <LatitudeDegrees>49.53185498714447021484375</LatitudeDegrees>
              <LongitudeDegrees>20.48886082135140895843505859375</LongitudeDegrees>
            </Position>
            <AltitudeMeters>344.20001220703125</AltitudeMeters>
            <DistanceMeters>NAN</DistanceMeters>
          </Trackpoint>
          <Trackpoint>
            <Time>2022-09-22T10:28:50.000Z</Time>
            <Position>
              <LatitudeDegrees>49.53162054531276226043701171875</LatitudeDegrees>
              <LongitudeDegrees>20.48913742415606975555419921875</LongitudeDegrees>
            </Position>
            <AltitudeMeters>344</AltitudeMeters>
            <DistanceMeters>NAN</DistanceMeters>
          </Trackpoint>
          <Trackpoint>
            <Time>2022-09-22T10:28:59.000Z</Time>
            <Position>
              <LatitudeDegrees>49.53139104880392551422119140625</LatitudeDegrees>
              <LongitudeDegrees>20.489456690847873687744140625</LongitudeDegrees>
            </Position>
            <AltitudeMeters>344.20001220703125</AltitudeMeters>
            <DistanceMeters>NAN</DistanceMeters>
          </Trackpoint>
          <Trackpoint>
            <Time>2022-09-22T10:29:04.000Z</Time>
            <Position>
              <LatitudeDegrees>49.53128895722329616546630859375</LatitudeDegrees>
              <LongitudeDegrees>20.48962256871163845062255859375</LongitudeDegrees>
            </Position>
            <AltitudeMeters>345</AltitudeMeters>
            <DistanceMeters>NAN</DistanceMeters>
          </Trackpoint>
          <Trackpoint>
            <Time>2022-09-22T10:29:06.000Z</Time>
            <Position>
              <LatitudeDegrees>49.53125593252480030059814453125</LatitudeDegrees>
              <LongitudeDegrees>20.4896798171103000640869140625</LongitudeDegrees>
            </Position>
            <AltitudeMeters>345.20001220703125</AltitudeMeters>
            <DistanceMeters>NAN</DistanceMeters>
          </Trackpoint>
          <Trackpoint>
            <Time>2022-09-22T10:29:11.000Z</Time>
            <Position>
              <LatitudeDegrees>49.5311755500733852386474609375</LatitudeDegrees>
              <LongitudeDegrees>20.489794649183750152587890625</LongitudeDegrees>
            </Position>
            <AltitudeMeters>345.79998779296875</AltitudeMeters>
            <DistanceMeters>NAN</DistanceMeters>
          </Trackpoint>
          <Trackpoint>
            <Time>2022-09-22T10:29:13.000Z</Time>
            <Position>
              <LatitudeDegrees>49.53115903772413730621337890625</LatitudeDegrees>
              <LongitudeDegrees>20.48980395309627056121826171875</LongitudeDegrees>
            </Position>
            <AltitudeMeters>346.20001220703125</AltitudeMeters>
            <DistanceMeters>NAN</DistanceMeters>
          </Trackpoint>
          <Trackpoint>
            <Time>2022-09-22T10:29:14.000Z</Time>
            <Position>
              <LatitudeDegrees>49.53115769661962985992431640625</LatitudeDegrees>
              <LongitudeDegrees>20.48979699611663818359375</LongitudeDegrees>
            </Position>
            <AltitudeMeters>346.20001220703125</AltitudeMeters>
            <DistanceMeters>NAN</DistanceMeters>
          </Trackpoint>
          <Trackpoint>
            <Time>2022-09-22T10:29:17.000Z</Time>
            <Position>
              <LatitudeDegrees>49.53115769661962985992431640625</LatitudeDegrees>
              <LongitudeDegrees>20.48979699611663818359375</LongitudeDegrees>
            </Position>
            <AltitudeMeters>346.600006103515625</AltitudeMeters>
            <DistanceMeters>NAN</DistanceMeters>
          </Trackpoint>
          <Trackpoint>
            <Time>2022-09-22T10:29:20.000Z</Time>
            <Position>
              <LatitudeDegrees>49.53114629723131656646728515625</LatitudeDegrees>
              <LongitudeDegrees>20.48980965279042720794677734375</LongitudeDegrees>
            </Position>
            <AltitudeMeters>346.600006103515625</AltitudeMeters>
            <DistanceMeters>NAN</DistanceMeters>
          </Trackpoint>
          <Trackpoint>
            <Time>2022-09-22T10:29:23.000Z</Time>
            <Position>
              <LatitudeDegrees>49.531131796538829803466796875</LatitudeDegrees>
              <LongitudeDegrees>20.4898179508745670318603515625</LongitudeDegrees>
            </Position>
            <AltitudeMeters>346.600006103515625</AltitudeMeters>
            <DistanceMeters>NAN</DistanceMeters>
          </Trackpoint>
          <Trackpoint>
            <Time>2022-09-22T10:29:24.000Z</Time>
            <Position>
              <LatitudeDegrees>49.53112349845468997955322265625</LatitudeDegrees>
              <LongitudeDegrees>20.48983178101480007171630859375</LongitudeDegrees>
            </Position>
            <AltitudeMeters>346.600006103515625</AltitudeMeters>
            <DistanceMeters>NAN</DistanceMeters>
          </Trackpoint>
          <Trackpoint>
            <Time>2022-09-22T10:29:25.000Z</Time>
            <Position>
              <LatitudeDegrees>49.5311158709228038787841796875</LatitudeDegrees>
              <LongitudeDegrees>20.489844940602779388427734375</LongitudeDegrees>
            </Position>
            <AltitudeMeters>346.600006103515625</AltitudeMeters>
            <DistanceMeters>NAN</DistanceMeters>
          </Trackpoint>
          <Trackpoint>
            <Time>2022-09-22T10:29:28.000Z</Time>
            <Position>
              <LatitudeDegrees>49.53111159615218639373779296875</LatitudeDegrees>
              <LongitudeDegrees>20.489851646125316619873046875</LongitudeDegrees>
            </Position>
            <AltitudeMeters>346.79998779296875</AltitudeMeters>
            <DistanceMeters>NAN</DistanceMeters>
          </Trackpoint>
          <Trackpoint>
            <Time>2022-09-22T10:29:33.000Z</Time>
            <Position>
              <LatitudeDegrees>49.5310783199965953826904296875</LatitudeDegrees>
              <LongitudeDegrees>20.48987855203449726104736328125</LongitudeDegrees>
            </Position>
            <AltitudeMeters>347</AltitudeMeters>
            <DistanceMeters>NAN</DistanceMeters>
          </Trackpoint>
          <Trackpoint>
            <Time>2022-09-22T10:29:40.000Z</Time>
            <Position>
              <LatitudeDegrees>49.5310783199965953826904296875</LatitudeDegrees>
              <LongitudeDegrees>20.48987855203449726104736328125</LongitudeDegrees>
            </Position>
            <AltitudeMeters>347.20001220703125</AltitudeMeters>
            <DistanceMeters>NAN</DistanceMeters>
          </Trackpoint>
          <Trackpoint>
            <Time>2022-09-22T10:29:43.000Z</Time>
            <Position>
              <LatitudeDegrees>49.5310783199965953826904296875</LatitudeDegrees>
              <LongitudeDegrees>20.48987855203449726104736328125</LongitudeDegrees>
            </Position>
            <AltitudeMeters>347.20001220703125</AltitudeMeters>
            <DistanceMeters>NAN</DistanceMeters>
          </Trackpoint>
          <Trackpoint>
            <Time>2022-09-22T10:29:48.000Z</Time>
            <Position>
              <LatitudeDegrees>49.5310682617127895355224609375</LatitudeDegrees>
              <LongitudeDegrees>20.48989514820277690887451171875</LongitudeDegrees>
            </Position>
            <AltitudeMeters>347.399993896484375</AltitudeMeters>
            <DistanceMeters>NAN</DistanceMeters>
          </Trackpoint>
          <Trackpoint>
            <Time>2022-09-22T10:29:53.000Z</Time>
            <Position>
              <LatitudeDegrees>49.5310136117041110992431640625</LatitudeDegrees>
              <LongitudeDegrees>20.4899282567203044891357421875</LongitudeDegrees>
            </Position>
            <AltitudeMeters>347.79998779296875</AltitudeMeters>
            <DistanceMeters>NAN</DistanceMeters>
          </Trackpoint>
          <Trackpoint>
            <Time>2022-09-22T10:30:00.000Z</Time>
            <Position>
              <LatitudeDegrees>49.53098402358591556549072265625</LatitudeDegrees>
              <LongitudeDegrees>20.4899503849446773529052734375</LongitudeDegrees>
            </Position>
            <AltitudeMeters>348.20001220703125</AltitudeMeters>
            <DistanceMeters>NAN</DistanceMeters>
          </Trackpoint>
          <Trackpoint>
            <Time>2022-09-22T10:30:02.000Z</Time>
            <Position>
              <LatitudeDegrees>49.5309673435986042022705078125</LatitudeDegrees>
              <LongitudeDegrees>20.48995750956237316131591796875</LongitudeDegrees>
            </Position>
            <AltitudeMeters>348.399993896484375</AltitudeMeters>
            <DistanceMeters>NAN</DistanceMeters>
          </Trackpoint>
          <Trackpoint>
            <Time>2022-09-22T10:30:04.000Z</Time>
            <Position>
              <LatitudeDegrees>49.5309673435986042022705078125</LatitudeDegrees>
              <LongitudeDegrees>20.48995750956237316131591796875</LongitudeDegrees>
            </Position>
            <AltitudeMeters>348.600006103515625</AltitudeMeters>
            <DistanceMeters>NAN</DistanceMeters>
          </Trackpoint>
          <Trackpoint>
            <Time>2022-09-22T10:30:05.000Z</Time>
            <Position>
              <LatitudeDegrees>49.5309673435986042022705078125</LatitudeDegrees>
              <LongitudeDegrees>20.48995750956237316131591796875</LongitudeDegrees>
            </Position>
            <AltitudeMeters>348.600006103515625</AltitudeMeters>
            <DistanceMeters>NAN</DistanceMeters>
          </Trackpoint>
          <Trackpoint>
            <Time>2022-09-22T10:30:08.000Z</Time>
            <Position>
              <LatitudeDegrees>49.5309673435986042022705078125</LatitudeDegrees>
              <LongitudeDegrees>20.48995750956237316131591796875</LongitudeDegrees>
            </Position>
            <AltitudeMeters>348.600006103515625</AltitudeMeters>
            <DistanceMeters>NAN</DistanceMeters>
          </Trackpoint>
          <Trackpoint>
            <Time>2022-09-22T10:30:13.000Z</Time>
            <Position>
              <LatitudeDegrees>49.5309673435986042022705078125</LatitudeDegrees>
              <LongitudeDegrees>20.48995750956237316131591796875</LongitudeDegrees>
            </Position>
            <AltitudeMeters>348.600006103515625</AltitudeMeters>
            <DistanceMeters>NAN</DistanceMeters>
          </Trackpoint>
          <Trackpoint>
            <Time>2022-09-22T10:30:21.000Z</Time>
            <Position>
              <LatitudeDegrees>49.5309673435986042022705078125</LatitudeDegrees>
              <LongitudeDegrees>20.48995750956237316131591796875</LongitudeDegrees>
            </Position>
            <AltitudeMeters>348.600006103515625</AltitudeMeters>
            <DistanceMeters>NAN</DistanceMeters>
          </Trackpoint>
          <Trackpoint>
            <Time>2022-09-22T10:30:23.000Z</Time>
            <Position>
              <LatitudeDegrees>49.5309673435986042022705078125</LatitudeDegrees>
              <LongitudeDegrees>20.48995750956237316131591796875</LongitudeDegrees>
            </Position>
            <AltitudeMeters>348.600006103515625</AltitudeMeters>
            <DistanceMeters>NAN</DistanceMeters>
          </Trackpoint>
          <Trackpoint>
            <Time>2022-09-22T10:30:33.000Z</Time>
            <Position>
              <LatitudeDegrees>49.530964158475399017333984375</LatitudeDegrees>
              <LongitudeDegrees>20.48995885066688060760498046875</LongitudeDegrees>
            </Position>
            <AltitudeMeters>349.399993896484375</AltitudeMeters>
            <DistanceMeters>NAN</DistanceMeters>
          </Trackpoint>
          <Trackpoint>
            <Time>2022-09-22T10:30:35.000Z</Time>
            <Position>
              <LatitudeDegrees>49.53095971606671810150146484375</LatitudeDegrees>
              <LongitudeDegrees>20.4899617843329906463623046875</LongitudeDegrees>
            </Position>
            <AltitudeMeters>349.600006103515625</AltitudeMeters>
            <DistanceMeters>NAN</DistanceMeters>
          </Trackpoint>
          <Trackpoint>
            <Time>2022-09-22T10:30:40.000Z</Time>
            <Position>
              <LatitudeDegrees>49.53093876130878925323486328125</LatitudeDegrees>
              <LongitudeDegrees>20.48996723257005214691162109375</LongitudeDegrees>
            </Position>
            <AltitudeMeters>350.20001220703125</AltitudeMeters>
            <DistanceMeters>NAN</DistanceMeters>
          </Trackpoint>
          <Trackpoint>
            <Time>2022-09-22T10:30:42.000Z</Time>
            <Position>
              <LatitudeDegrees>49.53091898001730442047119140625</LatitudeDegrees>
              <LongitudeDegrees>20.48996723257005214691162109375</LongitudeDegrees>
            </Position>
            <AltitudeMeters>350.600006103515625</AltitudeMeters>
            <DistanceMeters>NAN</DistanceMeters>
          </Trackpoint>
          <Trackpoint>
            <Time>2022-09-22T10:30:43.000Z</Time>
            <Position>
              <LatitudeDegrees>49.5309066586196422576904296875</LatitudeDegrees>
              <LongitudeDegrees>20.4899728484451770782470703125</LongitudeDegrees>
            </Position>
            <AltitudeMeters>350.79998779296875</AltitudeMeters>
            <DistanceMeters>NAN</DistanceMeters>
          </Trackpoint>
          <Trackpoint>
            <Time>2022-09-22T10:30:48.000Z</Time>
            <Position>
              <LatitudeDegrees>49.53082837164402008056640625</LatitudeDegrees>
              <LongitudeDegrees>20.49002422951161861419677734375</LongitudeDegrees>
            </Position>
            <AltitudeMeters>351.20001220703125</AltitudeMeters>
            <DistanceMeters>NAN</DistanceMeters>
          </Trackpoint>
          <Trackpoint>
            <Time>2022-09-22T10:30:51.000Z</Time>
            <Position>
              <LatitudeDegrees>49.53081672079861164093017578125</LatitudeDegrees>
              <LongitudeDegrees>20.4900482855737209320068359375</LongitudeDegrees>
            </Position>
            <AltitudeMeters>351.600006103515625</AltitudeMeters>
            <DistanceMeters>NAN</DistanceMeters>
          </Trackpoint>
          <Trackpoint>
            <Time>2022-09-22T10:30:56.000Z</Time>
            <Position>
              <LatitudeDegrees>49.530789144337177276611328125</LatitudeDegrees>
              <LongitudeDegrees>20.49007234163582324981689453125</LongitudeDegrees>
            </Position>
            <AltitudeMeters>352.399993896484375</AltitudeMeters>
            <DistanceMeters>NAN</DistanceMeters>
          </Trackpoint>
          <Trackpoint>
            <Time>2022-09-22T10:30:58.000Z</Time>
            <Position>
              <LatitudeDegrees>49.530789144337177276611328125</LatitudeDegrees>
              <LongitudeDegrees>20.49007234163582324981689453125</LongitudeDegrees>
            </Position>
            <AltitudeMeters>352.79998779296875</AltitudeMeters>
            <DistanceMeters>NAN</DistanceMeters>
          </Trackpoint>
          <Trackpoint>
            <Time>2022-09-22T10:31:02.000Z</Time>
            <Position>
              <LatitudeDegrees>49.53076777048408985137939453125</LatitudeDegrees>
              <LongitudeDegrees>20.49009027890861034393310546875</LongitudeDegrees>
            </Position>
            <AltitudeMeters>353</AltitudeMeters>
            <DistanceMeters>NAN</DistanceMeters>
          </Trackpoint>
          <Trackpoint>
            <Time>2022-09-22T10:31:09.000Z</Time>
            <Position>
              <LatitudeDegrees>49.53071362338960170745849609375</LatitudeDegrees>
              <LongitudeDegrees>20.4901362955570220947265625</LongitudeDegrees>
            </Position>
            <AltitudeMeters>353.20001220703125</AltitudeMeters>
            <DistanceMeters>NAN</DistanceMeters>
          </Trackpoint>
          <Trackpoint>
            <Time>2022-09-22T10:31:16.000Z</Time>
            <Position>
              <LatitudeDegrees>49.530648328363895416259765625</LatitudeDegrees>
              <LongitudeDegrees>20.4902082122862339019775390625</LongitudeDegrees>
            </Position>
            <AltitudeMeters>353.79998779296875</AltitudeMeters>
            <DistanceMeters>NAN</DistanceMeters>
          </Trackpoint>
          <Trackpoint>
            <Time>2022-09-22T10:31:17.000Z</Time>
            <Position>
              <LatitudeDegrees>49.5306414552032947540283203125</LatitudeDegrees>
              <LongitudeDegrees>20.49022070132195949554443359375</LongitudeDegrees>
            </Position>
            <AltitudeMeters>353.79998779296875</AltitudeMeters>
            <DistanceMeters>NAN</DistanceMeters>
          </Trackpoint>
          <Trackpoint>
            <Time>2022-09-22T10:31:23.000Z</Time>
            <Position>
              <LatitudeDegrees>49.53060901723802089691162109375</LatitudeDegrees>
              <LongitudeDegrees>20.4902678914368152618408203125</LongitudeDegrees>
            </Position>
            <AltitudeMeters>354.600006103515625</AltitudeMeters>
            <DistanceMeters>NAN</DistanceMeters>
          </Trackpoint>
          <Trackpoint>
            <Time>2022-09-22T10:31:25.000Z</Time>
            <Position>
              <LatitudeDegrees>49.53059233725070953369140625</LatitudeDegrees>
              <LongitudeDegrees>20.49026311375200748443603515625</LongitudeDegrees>
            </Position>
            <AltitudeMeters>354.79998779296875</AltitudeMeters>
            <DistanceMeters>NAN</DistanceMeters>
          </Trackpoint>
          <Trackpoint>
            <Time>2022-09-22T10:31:26.000Z</Time>
            <Position>
              <LatitudeDegrees>49.5305817760527133941650390625</LatitudeDegrees>
              <LongitudeDegrees>20.49026646651327610015869140625</LongitudeDegrees>
            </Position>
            <AltitudeMeters>354.79998779296875</AltitudeMeters>
            <DistanceMeters>NAN</DistanceMeters>
          </Trackpoint>
          <Trackpoint>
            <Time>2022-09-22T10:31:29.000Z</Time>
            <Position>
              <LatitudeDegrees>49.530562497675418853759765625</LatitudeDegrees>
              <LongitudeDegrees>20.4902776144444942474365234375</LongitudeDegrees>
            </Position>
            <AltitudeMeters>355.399993896484375</AltitudeMeters>
            <DistanceMeters>NAN</DistanceMeters>
          </Trackpoint>
          <Trackpoint>
            <Time>2022-09-22T10:31:32.000Z</Time>
            <Position>
              <LatitudeDegrees>49.53055570833384990692138671875</LatitudeDegrees>
              <LongitudeDegrees>20.49028323031961917877197265625</LongitudeDegrees>
            </Position>
            <AltitudeMeters>355.600006103515625</AltitudeMeters>
            <DistanceMeters>NAN</DistanceMeters>
          </Trackpoint>
          <Trackpoint>
            <Time>2022-09-22T10:31:35.000Z</Time>
            <Position>
              <LatitudeDegrees>49.53055570833384990692138671875</LatitudeDegrees>
              <LongitudeDegrees>20.49028323031961917877197265625</LongitudeDegrees>
            </Position>
            <AltitudeMeters>355.600006103515625</AltitudeMeters>
            <DistanceMeters>NAN</DistanceMeters>
          </Trackpoint>
          <Trackpoint>
            <Time>2022-09-22T10:31:40.000Z</Time>
            <Position>
              <LatitudeDegrees>49.5305609889328479766845703125</LatitudeDegrees>
              <LongitudeDegrees>20.4902695678174495697021484375</LongitudeDegrees>
            </Position>
            <AltitudeMeters>355.600006103515625</AltitudeMeters>
            <DistanceMeters>NAN</DistanceMeters>
          </Trackpoint>
          <Trackpoint>
            <Time>2022-09-22T10:31:45.000Z</Time>
            <Position>
              <LatitudeDegrees>49.53056308440864086151123046875</LatitudeDegrees>
              <LongitudeDegrees>20.49026302993297576904296875</LongitudeDegrees>
            </Position>
            <AltitudeMeters>355.600006103515625</AltitudeMeters>
            <DistanceMeters>NAN</DistanceMeters>
          </Trackpoint>
          <Trackpoint>
            <Time>2022-09-22T10:31:50.000Z</Time>
            <Position>
              <LatitudeDegrees>49.53056308440864086151123046875</LatitudeDegrees>
              <LongitudeDegrees>20.49026302993297576904296875</LongitudeDegrees>
            </Position>
            <AltitudeMeters>355.79998779296875</AltitudeMeters>
            <DistanceMeters>NAN</DistanceMeters>
          </Trackpoint>
          <Trackpoint>
            <Time>2022-09-22T10:31:58.000Z</Time>
            <Position>
              <LatitudeDegrees>49.53052100725471973419189453125</LatitudeDegrees>
              <LongitudeDegrees>20.4902859963476657867431640625</LongitudeDegrees>
            </Position>
            <AltitudeMeters>356.600006103515625</AltitudeMeters>
            <DistanceMeters>NAN</DistanceMeters>
          </Trackpoint>
          <Trackpoint>
            <Time>2022-09-22T10:32:01.000Z</Time>
            <Position>
              <LatitudeDegrees>49.53052100725471973419189453125</LatitudeDegrees>
              <LongitudeDegrees>20.4902859963476657867431640625</LongitudeDegrees>
            </Position>
            <AltitudeMeters>356.79998779296875</AltitudeMeters>
            <DistanceMeters>NAN</DistanceMeters>
          </Trackpoint>
          <Trackpoint>
            <Time>2022-09-22T10:32:06.000Z</Time>
            <Position>
              <LatitudeDegrees>49.53047457151114940643310546875</LatitudeDegrees>
              <LongitudeDegrees>20.490351207554340362548828125</LongitudeDegrees>
            </Position>
            <AltitudeMeters>357.399993896484375</AltitudeMeters>
            <DistanceMeters>NAN</DistanceMeters>
          </Trackpoint>
          <Trackpoint>
            <Time>2022-09-22T10:32:09.000Z</Time>
            <Position>
              <LatitudeDegrees>49.5304426364600658416748046875</LatitudeDegrees>
              <LongitudeDegrees>20.490380041301250457763671875</LongitudeDegrees>
            </Position>
            <AltitudeMeters>357.600006103515625</AltitudeMeters>
            <DistanceMeters>NAN</DistanceMeters>
          </Trackpoint>
          <Trackpoint>
            <Time>2022-09-22T10:32:13.000Z</Time>
            <Position>
              <LatitudeDegrees>49.530416317284107208251953125</LatitudeDegrees>
              <LongitudeDegrees>20.4904026724398136138916015625</LongitudeDegrees>
            </Position>
            <AltitudeMeters>357.79998779296875</AltitudeMeters>
            <DistanceMeters>NAN</DistanceMeters>
          </Trackpoint>
          <Trackpoint>
            <Time>2022-09-22T10:32:14.000Z</Time>
            <Position>
              <LatitudeDegrees>49.530402235686779022216796875</LatitudeDegrees>
              <LongitudeDegrees>20.49041633494198322296142578125</LongitudeDegrees>
            </Position>
            <AltitudeMeters>358</AltitudeMeters>
            <DistanceMeters>NAN</DistanceMeters>
          </Trackpoint>
          <Trackpoint>
            <Time>2022-09-22T10:32:22.000Z</Time>
            <Position>
              <LatitudeDegrees>49.53035169281065464019775390625</LatitudeDegrees>
              <LongitudeDegrees>20.49047953449189662933349609375</LongitudeDegrees>
            </Position>
            <AltitudeMeters>358.600006103515625</AltitudeMeters>
            <DistanceMeters>NAN</DistanceMeters>
          </Trackpoint>
          <Trackpoint>
            <Time>2022-09-22T10:32:25.000Z</Time>
            <Position>
              <LatitudeDegrees>49.5303444005548954010009765625</LatitudeDegrees>
              <LongitudeDegrees>20.4904958792030811309814453125</LongitudeDegrees>
            </Position>
            <AltitudeMeters>359</AltitudeMeters>
            <DistanceMeters>NAN</DistanceMeters>
          </Trackpoint>
          <Trackpoint>
            <Time>2022-09-22T10:32:28.000Z</Time>
            <Position>
              <LatitudeDegrees>49.53030978329479694366455078125</LatitudeDegrees>
              <LongitudeDegrees>20.49052161164581775665283203125</LongitudeDegrees>
            </Position>
            <AltitudeMeters>359.20001220703125</AltitudeMeters>
            <DistanceMeters>NAN</DistanceMeters>
          </Trackpoint>
          <Trackpoint>
            <Time>2022-09-22T10:32:32.000Z</Time>
            <Position>
              <LatitudeDegrees>49.53030978329479694366455078125</LatitudeDegrees>
              <LongitudeDegrees>20.49052161164581775665283203125</LongitudeDegrees>
            </Position>
            <AltitudeMeters>359.20001220703125</AltitudeMeters>
            <DistanceMeters>NAN</DistanceMeters>
          </Trackpoint>
          <Trackpoint>
            <Time>2022-09-22T10:32:33.000Z</Time>
            <Position>
              <LatitudeDegrees>49.53030978329479694366455078125</LatitudeDegrees>
              <LongitudeDegrees>20.49052161164581775665283203125</LongitudeDegrees>
            </Position>
            <AltitudeMeters>359.20001220703125</AltitudeMeters>
            <DistanceMeters>NAN</DistanceMeters>
          </Trackpoint>
          <Trackpoint>
            <Time>2022-09-22T10:32:34.000Z</Time>
            <Position>
              <LatitudeDegrees>49.5303125493228435516357421875</LatitudeDegrees>
              <LongitudeDegrees>20.49052186310291290283203125</LongitudeDegrees>
            </Position>
            <AltitudeMeters>359.20001220703125</AltitudeMeters>
            <DistanceMeters>NAN</DistanceMeters>
          </Trackpoint>
          <Trackpoint>
            <Time>2022-09-22T10:32:40.000Z</Time>
            <Position>
              <LatitudeDegrees>49.5303132198750972747802734375</LatitudeDegrees>
              <LongitudeDegrees>20.4905183427035808563232421875</LongitudeDegrees>
            </Position>
            <AltitudeMeters>359.20001220703125</AltitudeMeters>
            <DistanceMeters>NAN</DistanceMeters>
          </Trackpoint>
          <Trackpoint>
            <Time>2022-09-22T10:32:50.000Z</Time>
            <Position>
              <LatitudeDegrees>49.5303132198750972747802734375</LatitudeDegrees>
              <LongitudeDegrees>20.4905183427035808563232421875</LongitudeDegrees>
            </Position>
            <AltitudeMeters>359.20001220703125</AltitudeMeters>
            <DistanceMeters>NAN</DistanceMeters>
          </Trackpoint>
          <Trackpoint>
            <Time>2022-09-22T10:33:05.000Z</Time>
            <Position>
              <LatitudeDegrees>49.5303132198750972747802734375</LatitudeDegrees>
              <LongitudeDegrees>20.49051842652261257171630859375</LongitudeDegrees>
            </Position>
            <AltitudeMeters>359.399993896484375</AltitudeMeters>
            <DistanceMeters>NAN</DistanceMeters>
          </Trackpoint>
          <Trackpoint>
            <Time>2022-09-22T10:33:14.000Z</Time>
            <Position>
              <LatitudeDegrees>49.53023023903369903564453125</LatitudeDegrees>
              <LongitudeDegrees>20.4906350187957286834716796875</LongitudeDegrees>
            </Position>
            <AltitudeMeters>360</AltitudeMeters>
            <DistanceMeters>NAN</DistanceMeters>
          </Trackpoint>
          <Trackpoint>
            <Time>2022-09-22T10:33:15.000Z</Time>
            <Position>
              <LatitudeDegrees>49.53021875582635402679443359375</LatitudeDegrees>
              <LongitudeDegrees>20.49065136350691318511962890625</LongitudeDegrees>
            </Position>
            <AltitudeMeters>360</AltitudeMeters>
            <DistanceMeters>NAN</DistanceMeters>
          </Trackpoint>
          <Trackpoint>
            <Time>2022-09-22T10:33:22.000Z</Time>
            <Position>
              <LatitudeDegrees>49.53014885075390338897705078125</LatitudeDegrees>
              <LongitudeDegrees>20.49075630493462085723876953125</LongitudeDegrees>
            </Position>
            <AltitudeMeters>360.399993896484375</AltitudeMeters>
            <DistanceMeters>NAN</DistanceMeters>
          </Trackpoint>
          <Trackpoint>
            <Time>2022-09-22T10:33:30.000Z</Time>
            <Position>
              <LatitudeDegrees>49.5300812087953090667724609375</LatitudeDegrees>
              <LongitudeDegrees>20.49082763493061065673828125</LongitudeDegrees>
            </Position>
            <AltitudeMeters>361</AltitudeMeters>
            <DistanceMeters>NAN</DistanceMeters>
          </Trackpoint>
          <Trackpoint>
            <Time>2022-09-22T10:33:35.000Z</Time>
            <Position>
              <LatitudeDegrees>49.5300466753542423248291015625</LatitudeDegrees>
              <LongitudeDegrees>20.49089041538536548614501953125</LongitudeDegrees>
            </Position>
            <AltitudeMeters>361.399993896484375</AltitudeMeters>
            <DistanceMeters>NAN</DistanceMeters>
          </Trackpoint>
          <Trackpoint>
            <Time>2022-09-22T10:33:39.000Z</Time>
            <Position>
              <LatitudeDegrees>49.530013315379619598388671875</LatitudeDegrees>
              <LongitudeDegrees>20.490952692925930023193359375</LongitudeDegrees>
            </Position>
            <AltitudeMeters>361.600006103515625</AltitudeMeters>
            <DistanceMeters>NAN</DistanceMeters>
          </Trackpoint>
          <Trackpoint>
            <Time>2022-09-22T10:33:42.000Z</Time>
            <Position>
              <LatitudeDegrees>49.5299869962036609649658203125</LatitudeDegrees>
              <LongitudeDegrees>20.49098848365247249603271484375</LongitudeDegrees>
            </Position>
            <AltitudeMeters>362</AltitudeMeters>
            <DistanceMeters>NAN</DistanceMeters>
          </Trackpoint>
          <Trackpoint>
            <Time>2022-09-22T10:33:43.000Z</Time>
            <Position>
              <LatitudeDegrees>49.5299880020320415496826171875</LatitudeDegrees>
              <LongitudeDegrees>20.49101161770522594451904296875</LongitudeDegrees>
            </Position>
            <AltitudeMeters>362</AltitudeMeters>
            <DistanceMeters>NAN</DistanceMeters>
          </Trackpoint>
          <Trackpoint>
            <Time>2022-09-22T10:33:49.000Z</Time>
            <Position>
              <LatitudeDegrees>49.52993410639464855194091796875</LatitudeDegrees>
              <LongitudeDegrees>20.49109459854662418365478515625</LongitudeDegrees>
            </Position>
            <AltitudeMeters>362.600006103515625</AltitudeMeters>
            <DistanceMeters>NAN</DistanceMeters>
          </Trackpoint>
          <Trackpoint>
            <Time>2022-09-22T10:33:56.000Z</Time>
            <Position>
              <LatitudeDegrees>49.5299189351499080657958984375</LatitudeDegrees>
              <LongitudeDegrees>20.49115930683910846710205078125</LongitudeDegrees>
            </Position>
            <AltitudeMeters>363</AltitudeMeters>
            <DistanceMeters>NAN</DistanceMeters>
          </Trackpoint>
          <Trackpoint>
            <Time>2022-09-22T10:33:58.000Z</Time>
            <Position>
              <LatitudeDegrees>49.529911391437053680419921875</LatitudeDegrees>
              <LongitudeDegrees>20.49117137677967548370361328125</LongitudeDegrees>
            </Position>
            <AltitudeMeters>363.20001220703125</AltitudeMeters>
            <DistanceMeters>NAN</DistanceMeters>
          </Trackpoint>
          <Trackpoint>
            <Time>2022-09-22T10:34:03.000Z</Time>
            <Position>
              <LatitudeDegrees>49.52989068813621997833251953125</LatitudeDegrees>
              <LongitudeDegrees>20.49118663184344768524169921875</LongitudeDegrees>
            </Position>
            <AltitudeMeters>363.399993896484375</AltitudeMeters>
            <DistanceMeters>NAN</DistanceMeters>
          </Trackpoint>
          <Trackpoint>
            <Time>2022-09-22T10:34:12.000Z</Time>
            <Position>
              <LatitudeDegrees>49.5298388041555881500244140625</LatitudeDegrees>
              <LongitudeDegrees>20.4912479035556316375732421875</LongitudeDegrees>
            </Position>
            <AltitudeMeters>364</AltitudeMeters>
            <DistanceMeters>NAN</DistanceMeters>
          </Trackpoint>
          <Trackpoint>
            <Time>2022-09-22T10:34:13.000Z</Time>
            <Position>
              <LatitudeDegrees>49.529832266271114349365234375</LatitudeDegrees>
              <LongitudeDegrees>20.49125301651656627655029296875</LongitudeDegrees>
            </Position>
            <AltitudeMeters>364.20001220703125</AltitudeMeters>
            <DistanceMeters>NAN</DistanceMeters>
          </Trackpoint>
          <Trackpoint>
            <Time>2022-09-22T10:34:22.000Z</Time>
            <Position>
              <LatitudeDegrees>49.52978692017495632171630859375</LatitudeDegrees>
              <LongitudeDegrees>20.49131504260003566741943359375</LongitudeDegrees>
            </Position>
            <AltitudeMeters>365</AltitudeMeters>
            <DistanceMeters>NAN</DistanceMeters>
          </Trackpoint>
          <Trackpoint>
            <Time>2022-09-22T10:34:25.000Z</Time>
            <Position>
              <LatitudeDegrees>49.52978071756660938262939453125</LatitudeDegrees>
              <LongitudeDegrees>20.4913323931396007537841796875</LongitudeDegrees>
            </Position>
            <AltitudeMeters>365.20001220703125</AltitudeMeters>
            <DistanceMeters>NAN</DistanceMeters>
          </Trackpoint>
          <Trackpoint>
            <Time>2022-09-22T10:34:29.000Z</Time>
            <Position>
              <LatitudeDegrees>49.529773257672786712646484375</LatitudeDegrees>
              <LongitudeDegrees>20.49134194850921630859375</LongitudeDegrees>
            </Position>
            <AltitudeMeters>365.399993896484375</AltitudeMeters>
            <DistanceMeters>NAN</DistanceMeters>
          </Trackpoint>
          <Trackpoint>
            <Time>2022-09-22T10:34:34.000Z</Time>
            <Position>
              <LatitudeDegrees>49.529735036194324493408203125</LatitudeDegrees>
              <LongitudeDegrees>20.4913558624684810638427734375</LongitudeDegrees>
            </Position>
            <AltitudeMeters>365.79998779296875</AltitudeMeters>
            <DistanceMeters>NAN</DistanceMeters>
          </Trackpoint>
          <Trackpoint>
            <Time>2022-09-22T10:34:36.000Z</Time>
            <Position>
              <LatitudeDegrees>49.5297201164066791534423828125</LatitudeDegrees>
              <LongitudeDegrees>20.49137212336063385009765625</LongitudeDegrees>
            </Position>
            <AltitudeMeters>365.79998779296875</AltitudeMeters>
            <DistanceMeters>NAN</DistanceMeters>
          </Trackpoint>
          <Trackpoint>
            <Time>2022-09-22T10:34:38.000Z</Time>
            <Position>
              <LatitudeDegrees>49.5296993292868137359619140625</LatitudeDegrees>
              <LongitudeDegrees>20.49139265902340412139892578125</LongitudeDegrees>
            </Position>
            <AltitudeMeters>366</AltitudeMeters>
            <DistanceMeters>NAN</DistanceMeters>
          </Trackpoint>
          <Trackpoint>
            <Time>2022-09-22T10:34:43.000Z</Time>
            <Position>
              <LatitudeDegrees>49.529658257961273193359375</LatitudeDegrees>
              <LongitudeDegrees>20.4914393462240695953369140625</LongitudeDegrees>
            </Position>
            <AltitudeMeters>366.20001220703125</AltitudeMeters>
            <DistanceMeters>NAN</DistanceMeters>
          </Trackpoint>
          <Trackpoint>
            <Time>2022-09-22T10:34:44.000Z</Time>
            <Position>
              <LatitudeDegrees>49.52964962460100650787353515625</LatitudeDegrees>
              <LongitudeDegrees>20.49144814722239971160888671875</LongitudeDegrees>
            </Position>
            <AltitudeMeters>366.399993896484375</AltitudeMeters>
            <DistanceMeters>NAN</DistanceMeters>
          </Trackpoint>
          <Trackpoint>
            <Time>2022-09-22T10:34:49.000Z</Time>
            <Position>
              <LatitudeDegrees>49.5296473614871501922607421875</LatitudeDegrees>
              <LongitudeDegrees>20.4914537630975246429443359375</LongitudeDegrees>
            </Position>
            <AltitudeMeters>366.600006103515625</AltitudeMeters>
            <DistanceMeters>NAN</DistanceMeters>
          </Trackpoint>
          <Trackpoint>
            <Time>2022-09-22T10:34:58.000Z</Time>
            <Position>
              <LatitudeDegrees>49.5296081341803073883056640625</LatitudeDegrees>
              <LongitudeDegrees>20.4914960078895092010498046875</LongitudeDegrees>
            </Position>
            <AltitudeMeters>367</AltitudeMeters>
            <DistanceMeters>NAN</DistanceMeters>
          </Trackpoint>
          <Trackpoint>
            <Time>2022-09-22T10:35:04.000Z</Time>
            <Position>
              <LatitudeDegrees>49.52960285358130931854248046875</LatitudeDegrees>
              <LongitudeDegrees>20.49150145612657070159912109375</LongitudeDegrees>
            </Position>
            <AltitudeMeters>367.399993896484375</AltitudeMeters>
            <DistanceMeters>NAN</DistanceMeters>
          </Trackpoint>
          <Trackpoint>
            <Time>2022-09-22T10:35:05.000Z</Time>
            <Position>
              <LatitudeDegrees>49.52960285358130931854248046875</LatitudeDegrees>
              <LongitudeDegrees>20.49150145612657070159912109375</LongitudeDegrees>
            </Position>
            <AltitudeMeters>367.600006103515625</AltitudeMeters>
            <DistanceMeters>NAN</DistanceMeters>
          </Trackpoint>
          <Trackpoint>
            <Time>2022-09-22T10:35:14.000Z</Time>
            <Position>
              <LatitudeDegrees>49.52952171675860881805419921875</LatitudeDegrees>
              <LongitudeDegrees>20.4915382526814937591552734375</LongitudeDegrees>
            </Position>
            <AltitudeMeters>368.399993896484375</AltitudeMeters>
            <DistanceMeters>NAN</DistanceMeters>
          </Trackpoint>
          <Trackpoint>
            <Time>2022-09-22T10:35:15.000Z</Time>
            <Position>
              <LatitudeDegrees>49.52950931154191493988037109375</LatitudeDegrees>
              <LongitudeDegrees>20.49154889769852161407470703125</LongitudeDegrees>
            </Position>
            <AltitudeMeters>368.600006103515625</AltitudeMeters>
            <DistanceMeters>NAN</DistanceMeters>
          </Trackpoint>
          <Trackpoint>
            <Time>2022-09-22T10:35:20.000Z</Time>
            <Position>
              <LatitudeDegrees>49.5294342935085296630859375</LatitudeDegrees>
              <LongitudeDegrees>20.49157773144543170928955078125</LongitudeDegrees>
            </Position>
            <AltitudeMeters>369</AltitudeMeters>
            <DistanceMeters>NAN</DistanceMeters>
          </Trackpoint>
          <Trackpoint>
            <Time>2022-09-22T10:35:25.000Z</Time>
            <Position>
              <LatitudeDegrees>49.52938894741237163543701171875</LatitudeDegrees>
              <LongitudeDegrees>20.4915820062160491943359375</LongitudeDegrees>
            </Position>
            <AltitudeMeters>369.600006103515625</AltitudeMeters>
            <DistanceMeters>NAN</DistanceMeters>
          </Trackpoint>
          <Trackpoint>
            <Time>2022-09-22T10:35:27.000Z</Time>
            <Position>
              <LatitudeDegrees>49.5293700881302356719970703125</LatitudeDegrees>
              <LongitudeDegrees>20.49157974310219287872314453125</LongitudeDegrees>
            </Position>
            <AltitudeMeters>369.79998779296875</AltitudeMeters>
            <DistanceMeters>NAN</DistanceMeters>
          </Trackpoint>
          <Trackpoint>
            <Time>2022-09-22T10:35:36.000Z</Time>
            <Position>
              <LatitudeDegrees>49.5293135941028594970703125</LatitudeDegrees>
              <LongitudeDegrees>20.4915633983910083770751953125</LongitudeDegrees>
            </Position>
            <AltitudeMeters>370.600006103515625</AltitudeMeters>
            <DistanceMeters>NAN</DistanceMeters>
          </Trackpoint>
          <Trackpoint>
            <Time>2022-09-22T10:35:44.000Z</Time>
            <Position>
              <LatitudeDegrees>49.5292748697102069854736328125</LatitudeDegrees>
              <LongitudeDegrees>20.49155811779201030731201171875</LongitudeDegrees>
            </Position>
            <AltitudeMeters>371.20001220703125</AltitudeMeters>
            <DistanceMeters>NAN</DistanceMeters>
          </Trackpoint>
          <Trackpoint>
            <Time>2022-09-22T10:35:48.000Z</Time>
            <Position>
              <LatitudeDegrees>49.5292748697102069854736328125</LatitudeDegrees>
              <LongitudeDegrees>20.49155811779201030731201171875</LongitudeDegrees>
            </Position>
            <AltitudeMeters>371.399993896484375</AltitudeMeters>
            <DistanceMeters>NAN</DistanceMeters>
          </Trackpoint>
          <Trackpoint>
            <Time>2022-09-22T10:35:55.000Z</Time>
            <Position>
              <LatitudeDegrees>49.52922197990119457244873046875</LatitudeDegrees>
              <LongitudeDegrees>20.49156817607581615447998046875</LongitudeDegrees>
            </Position>
            <AltitudeMeters>371.600006103515625</AltitudeMeters>
            <DistanceMeters>NAN</DistanceMeters>
          </Trackpoint>
          <Trackpoint>
            <Time>2022-09-22T10:36:01.000Z</Time>
            <Position>
              <LatitudeDegrees>49.5291722752153873443603515625</LatitudeDegrees>
              <LongitudeDegrees>20.4915659129619598388671875</LongitudeDegrees>
            </Position>
            <AltitudeMeters>372</AltitudeMeters>
            <DistanceMeters>NAN</DistanceMeters>
          </Trackpoint>
          <Trackpoint>
            <Time>2022-09-22T10:36:04.000Z</Time>
            <Position>
              <LatitudeDegrees>49.5291484706103801727294921875</LatitudeDegrees>
              <LongitudeDegrees>20.49158670008182525634765625</LongitudeDegrees>
            </Position>
            <AltitudeMeters>372.399993896484375</AltitudeMeters>
            <DistanceMeters>NAN</DistanceMeters>
          </Trackpoint>
          <Trackpoint>
            <Time>2022-09-22T10:36:07.000Z</Time>
            <Position>
              <LatitudeDegrees>49.5291253365576267242431640625</LatitudeDegrees>
              <LongitudeDegrees>20.4916009493172168731689453125</LongitudeDegrees>
            </Position>
            <AltitudeMeters>372.600006103515625</AltitudeMeters>
            <DistanceMeters>NAN</DistanceMeters>
          </Trackpoint>
          <Trackpoint>
            <Time>2022-09-22T10:36:10.000Z</Time>
            <Position>
              <LatitudeDegrees>49.52910044230520725250244140625</LatitudeDegrees>
              <LongitudeDegrees>20.49162399955093860626220703125</LongitudeDegrees>
            </Position>
            <AltitudeMeters>372.79998779296875</AltitudeMeters>
            <DistanceMeters>NAN</DistanceMeters>
          </Trackpoint>
          <Trackpoint>
            <Time>2022-09-22T10:36:14.000Z</Time>
            <Position>
              <LatitudeDegrees>49.5290601253509521484375</LatitudeDegrees>
              <LongitudeDegrees>20.49165685661137104034423828125</LongitudeDegrees>
            </Position>
            <AltitudeMeters>373.20001220703125</AltitudeMeters>
            <DistanceMeters>NAN</DistanceMeters>
          </Trackpoint>
          <Trackpoint>
            <Time>2022-09-22T10:36:22.000Z</Time>
            <Position>
              <LatitudeDegrees>49.52898611314594745635986328125</LatitudeDegrees>
              <LongitudeDegrees>20.49172592349350452423095703125</LongitudeDegrees>
            </Position>
            <AltitudeMeters>373.600006103515625</AltitudeMeters>
            <DistanceMeters>NAN</DistanceMeters>
          </Trackpoint>
          <Trackpoint>
            <Time>2022-09-22T10:36:24.000Z</Time>
            <Position>
              <LatitudeDegrees>49.52896649949252605438232421875</LatitudeDegrees>
              <LongitudeDegrees>20.4917514882981777191162109375</LongitudeDegrees>
            </Position>
            <AltitudeMeters>373.600006103515625</AltitudeMeters>
            <DistanceMeters>NAN</DistanceMeters>
          </Trackpoint>
          <Trackpoint>
            <Time>2022-09-22T10:36:27.000Z</Time>
            <Position>
              <LatitudeDegrees>49.5289436168968677520751953125</LatitudeDegrees>
              <LongitudeDegrees>20.49176967702805995941162109375</LongitudeDegrees>
            </Position>
            <AltitudeMeters>373.79998779296875</AltitudeMeters>
            <DistanceMeters>NAN</DistanceMeters>
          </Trackpoint>
          <Trackpoint>
            <Time>2022-09-22T10:36:31.000Z</Time>
            <Position>
              <LatitudeDegrees>49.52890296466648578643798828125</LatitudeDegrees>
              <LongitudeDegrees>20.49179666675627231597900390625</LongitudeDegrees>
            </Position>
            <AltitudeMeters>374</AltitudeMeters>
            <DistanceMeters>NAN</DistanceMeters>
          </Trackpoint>
          <Trackpoint>
            <Time>2022-09-22T10:36:32.000Z</Time>
            <Position>
              <LatitudeDegrees>49.5288913138210773468017578125</LatitudeDegrees>
              <LongitudeDegrees>20.4918084852397441864013671875</LongitudeDegrees>
            </Position>
            <AltitudeMeters>374</AltitudeMeters>
            <DistanceMeters>NAN</DistanceMeters>
          </Trackpoint>
          <Trackpoint>
            <Time>2022-09-22T10:36:33.000Z</Time>
            <Position>
              <LatitudeDegrees>49.52888268046081066131591796875</LatitudeDegrees>
              <LongitudeDegrees>20.49181468784809112548828125</LongitudeDegrees>
            </Position>
            <AltitudeMeters>374</AltitudeMeters>
            <DistanceMeters>NAN</DistanceMeters>
          </Trackpoint>
          <Trackpoint>
            <Time>2022-09-22T10:36:36.000Z</Time>
            <Position>
              <LatitudeDegrees>49.52885233797132968902587890625</LatitudeDegrees>
              <LongitudeDegrees>20.4918394982814788818359375</LongitudeDegrees>
            </Position>
            <AltitudeMeters>374.20001220703125</AltitudeMeters>
            <DistanceMeters>NAN</DistanceMeters>
          </Trackpoint>
          <Trackpoint>
            <Time>2022-09-22T10:36:37.000Z</Time>
            <Position>
              <LatitudeDegrees>49.5288410224020481109619140625</LatitudeDegrees>
              <LongitudeDegrees>20.49185232259333133697509765625</LongitudeDegrees>
            </Position>
            <AltitudeMeters>374.20001220703125</AltitudeMeters>
            <DistanceMeters>NAN</DistanceMeters>
          </Trackpoint>
          <Trackpoint>
            <Time>2022-09-22T10:36:40.000Z</Time>
            <Position>
              <LatitudeDegrees>49.52880573458969593048095703125</LatitudeDegrees>
              <LongitudeDegrees>20.49188937060534954071044921875</LongitudeDegrees>
            </Position>
            <AltitudeMeters>374.399993896484375</AltitudeMeters>
            <DistanceMeters>NAN</DistanceMeters>
          </Trackpoint>
          <Trackpoint>
            <Time>2022-09-22T10:36:41.000Z</Time>
            <Position>
              <LatitudeDegrees>49.5287914015352725982666015625</LatitudeDegrees>
              <LongitudeDegrees>20.4919090680778026580810546875</LongitudeDegrees>
            </Position>
            <AltitudeMeters>374.399993896484375</AltitudeMeters>
            <DistanceMeters>NAN</DistanceMeters>
          </Trackpoint>
          <Trackpoint>
            <Time>2022-09-22T10:36:45.000Z</Time>
            <Position>
              <LatitudeDegrees>49.5287565328180789947509765625</LatitudeDegrees>
              <LongitudeDegrees>20.49195458181202411651611328125</LongitudeDegrees>
            </Position>
            <AltitudeMeters>374.399993896484375</AltitudeMeters>
            <DistanceMeters>NAN</DistanceMeters>
          </Trackpoint>
          <Trackpoint>
            <Time>2022-09-22T10:36:47.000Z</Time>
            <Position>
              <LatitudeDegrees>49.528746642172336578369140625</LatitudeDegrees>
              <LongitudeDegrees>20.4919489659368991851806640625</LongitudeDegrees>
            </Position>
            <AltitudeMeters>374.600006103515625</AltitudeMeters>
            <DistanceMeters>NAN</DistanceMeters>
          </Trackpoint>
          <Trackpoint>
            <Time>2022-09-22T10:36:48.000Z</Time>
            <Position>
              <LatitudeDegrees>49.528743959963321685791015625</LatitudeDegrees>
              <LongitudeDegrees>20.49193412996828556060791015625</LongitudeDegrees>
            </Position>
            <AltitudeMeters>374.79998779296875</AltitudeMeters>
            <DistanceMeters>NAN</DistanceMeters>
          </Trackpoint>
          <Trackpoint>
            <Time>2022-09-22T10:36:54.000Z</Time>
            <Position>
              <LatitudeDegrees>49.5287018828094005584716796875</LatitudeDegrees>
              <LongitudeDegrees>20.49191661179065704345703125</LongitudeDegrees>
            </Position>
            <AltitudeMeters>375.20001220703125</AltitudeMeters>
            <DistanceMeters>NAN</DistanceMeters>
          </Trackpoint>
          <Trackpoint>
            <Time>2022-09-22T10:36:59.000Z</Time>
            <Position>
              <LatitudeDegrees>49.52865519560873508453369140625</LatitudeDegrees>
              <LongitudeDegrees>20.4919306933879852294921875</LongitudeDegrees>
            </Position>
            <AltitudeMeters>375.399993896484375</AltitudeMeters>
            <DistanceMeters>NAN</DistanceMeters>
          </Trackpoint>
          <Trackpoint>
            <Time>2022-09-22T10:37:03.000Z</Time>
            <Position>
              <LatitudeDegrees>49.52861554920673370361328125</LatitudeDegrees>
              <LongitudeDegrees>20.49192641861736774444580078125</LongitudeDegrees>
            </Position>
            <AltitudeMeters>375.600006103515625</AltitudeMeters>
            <DistanceMeters>NAN</DistanceMeters>
          </Trackpoint>
          <Trackpoint>
            <Time>2022-09-22T10:37:05.000Z</Time>
            <Position>
              <LatitudeDegrees>49.52859870158135890960693359375</LatitudeDegrees>
              <LongitudeDegrees>20.4919325374066829681396484375</LongitudeDegrees>
            </Position>
            <AltitudeMeters>375.600006103515625</AltitudeMeters>
            <DistanceMeters>NAN</DistanceMeters>
          </Trackpoint>
          <Trackpoint>
            <Time>2022-09-22T10:37:07.000Z</Time>
            <Position>
              <LatitudeDegrees>49.528569616377353668212890625</LatitudeDegrees>
              <LongitudeDegrees>20.491928346455097198486328125</LongitudeDegrees>
            </Position>
            <AltitudeMeters>375.79998779296875</AltitudeMeters>
            <DistanceMeters>NAN</DistanceMeters>
          </Trackpoint>
          <Trackpoint>
            <Time>2022-09-22T10:37:10.000Z</Time>
            <Position>
              <LatitudeDegrees>49.52853818424046039581298828125</LatitudeDegrees>
              <LongitudeDegrees>20.491914935410022735595703125</LongitudeDegrees>
            </Position>
            <AltitudeMeters>376</AltitudeMeters>
            <DistanceMeters>NAN</DistanceMeters>
          </Trackpoint>
          <Trackpoint>
            <Time>2022-09-22T10:37:16.000Z</Time>
            <Position>
              <LatitudeDegrees>49.52848680317401885986328125</LatitudeDegrees>
              <LongitudeDegrees>20.49190856516361236572265625</LongitudeDegrees>
            </Position>
            <AltitudeMeters>376.20001220703125</AltitudeMeters>
            <DistanceMeters>NAN</DistanceMeters>
          </Trackpoint>
          <Trackpoint>
            <Time>2022-09-22T10:37:20.000Z</Time>
            <Position>
              <LatitudeDegrees>49.52846291474997997283935546875</LatitudeDegrees>
              <LongitudeDegrees>20.4918953217566013336181640625</LongitudeDegrees>
            </Position>
            <AltitudeMeters>376.20001220703125</AltitudeMeters>
            <DistanceMeters>NAN</DistanceMeters>
          </Trackpoint>
          <Trackpoint>
            <Time>2022-09-22T10:37:21.000Z</Time>
            <Position>
              <LatitudeDegrees>49.528453610837459564208984375</LatitudeDegrees>
              <LongitudeDegrees>20.49190345220267772674560546875</LongitudeDegrees>
            </Position>
            <AltitudeMeters>376.399993896484375</AltitudeMeters>
            <DistanceMeters>NAN</DistanceMeters>
          </Trackpoint>
          <Trackpoint>
            <Time>2022-09-22T10:37:26.000Z</Time>
            <Position>
              <LatitudeDegrees>49.52841932885348796844482421875</LatitudeDegrees>
              <LongitudeDegrees>20.49188300035893917083740234375</LongitudeDegrees>
            </Position>
            <AltitudeMeters>376.600006103515625</AltitudeMeters>
            <DistanceMeters>NAN</DistanceMeters>
          </Trackpoint>
          <Trackpoint>
            <Time>2022-09-22T10:37:28.000Z</Time>
            <Position>
              <LatitudeDegrees>49.52839560806751251220703125</LatitudeDegrees>
              <LongitudeDegrees>20.4918591119349002838134765625</LongitudeDegrees>
            </Position>
            <AltitudeMeters>376.79998779296875</AltitudeMeters>
            <DistanceMeters>NAN</DistanceMeters>
          </Trackpoint>
          <Trackpoint>
            <Time>2022-09-22T10:37:31.000Z</Time>
            <Position>
              <LatitudeDegrees>49.52836610376834869384765625</LatitudeDegrees>
              <LongitudeDegrees>20.4918296076357364654541015625</LongitudeDegrees>
            </Position>
            <AltitudeMeters>377</AltitudeMeters>
            <DistanceMeters>NAN</DistanceMeters>
          </Trackpoint>
          <Trackpoint>
            <Time>2022-09-22T10:37:32.000Z</Time>
            <Position>
              <LatitudeDegrees>49.52835596166551113128662109375</LatitudeDegrees>
              <LongitudeDegrees>20.49182030372321605682373046875</LongitudeDegrees>
            </Position>
            <AltitudeMeters>377</AltitudeMeters>
            <DistanceMeters>NAN</DistanceMeters>
          </Trackpoint>
          <Trackpoint>
            <Time>2022-09-22T10:37:36.000Z</Time>
            <Position>
              <LatitudeDegrees>49.52832243405282497406005859375</LatitudeDegrees>
              <LongitudeDegrees>20.4918017797172069549560546875</LongitudeDegrees>
            </Position>
            <AltitudeMeters>377.20001220703125</AltitudeMeters>
            <DistanceMeters>NAN</DistanceMeters>
          </Trackpoint>
          <Trackpoint>
            <Time>2022-09-22T10:37:37.000Z</Time>
            <Position>
              <LatitudeDegrees>49.528308100998401641845703125</LatitudeDegrees>
              <LongitudeDegrees>20.49181493930518627166748046875</LongitudeDegrees>
            </Position>
            <AltitudeMeters>377.399993896484375</AltitudeMeters>
            <DistanceMeters>NAN</DistanceMeters>
          </Trackpoint>
          <Trackpoint>
            <Time>2022-09-22T10:37:41.000Z</Time>
            <Position>
              <LatitudeDegrees>49.5282918401062488555908203125</LatitudeDegrees>
              <LongitudeDegrees>20.49183254130184650421142578125</LongitudeDegrees>
            </Position>
            <AltitudeMeters>377.79998779296875</AltitudeMeters>
            <DistanceMeters>NAN</DistanceMeters>
          </Trackpoint>
          <Trackpoint>
            <Time>2022-09-22T10:37:43.000Z</Time>
            <Position>
              <LatitudeDegrees>49.5282764174044132232666015625</LatitudeDegrees>
              <LongitudeDegrees>20.4918636381626129150390625</LongitudeDegrees>
            </Position>
            <AltitudeMeters>378</AltitudeMeters>
            <DistanceMeters>NAN</DistanceMeters>
          </Trackpoint>
          <Trackpoint>
            <Time>2022-09-22T10:37:50.000Z</Time>
            <Position>
              <LatitudeDegrees>49.52825009822845458984375</LatitudeDegrees>
              <LongitudeDegrees>20.49191300757229328155517578125</LongitudeDegrees>
            </Position>
            <AltitudeMeters>378.20001220703125</AltitudeMeters>
            <DistanceMeters>NAN</DistanceMeters>
          </Trackpoint>
          <Trackpoint>
            <Time>2022-09-22T10:37:56.000Z</Time>
            <Position>
              <LatitudeDegrees>49.528257809579372406005859375</LatitudeDegrees>
              <LongitudeDegrees>20.491914935410022735595703125</LongitudeDegrees>
            </Position>
            <AltitudeMeters>378.20001220703125</AltitudeMeters>
            <DistanceMeters>NAN</DistanceMeters>
          </Trackpoint>
          <Trackpoint>
            <Time>2022-09-22T10:37:58.000Z</Time>
            <Position>
              <LatitudeDegrees>49.52824548818171024322509765625</LatitudeDegrees>
              <LongitudeDegrees>20.49200118519365787506103515625</LongitudeDegrees>
            </Position>
            <AltitudeMeters>378.20001220703125</AltitudeMeters>
            <DistanceMeters>NAN</DistanceMeters>
          </Trackpoint>
          <Trackpoint>
            <Time>2022-09-22T10:38:01.000Z</Time>
            <Position>
              <LatitudeDegrees>49.52824464999139308929443359375</LatitudeDegrees>
              <LongitudeDegrees>20.49211668781936168670654296875</LongitudeDegrees>
            </Position>
            <AltitudeMeters>378</AltitudeMeters>
            <DistanceMeters>NAN</DistanceMeters>
          </Trackpoint>
          <Trackpoint>
            <Time>2022-09-22T10:38:05.000Z</Time>
            <Position>
              <LatitudeDegrees>49.5282911695539951324462890625</LatitudeDegrees>
              <LongitudeDegrees>20.4923117347061634063720703125</LongitudeDegrees>
            </Position>
            <AltitudeMeters>377.399993896484375</AltitudeMeters>
            <DistanceMeters>NAN</DistanceMeters>
          </Trackpoint>
          <Trackpoint>
            <Time>2022-09-22T10:38:07.000Z</Time>
            <Position>
              <LatitudeDegrees>49.5283293910324573516845703125</LatitudeDegrees>
              <LongitudeDegrees>20.4924565739929676055908203125</LongitudeDegrees>
            </Position>
            <AltitudeMeters>376.399993896484375</AltitudeMeters>
            <DistanceMeters>NAN</DistanceMeters>
          </Trackpoint>
          <Trackpoint>
            <Time>2022-09-22T10:38:08.000Z</Time>
            <Position>
              <LatitudeDegrees>49.528345651924610137939453125</LatitudeDegrees>
              <LongitudeDegrees>20.49254215322434902191162109375</LongitudeDegrees>
            </Position>
            <AltitudeMeters>376</AltitudeMeters>
            <DistanceMeters>NAN</DistanceMeters>
          </Trackpoint>
          <Trackpoint>
            <Time>2022-09-22T10:38:09.000Z</Time>
            <Position>
              <LatitudeDegrees>49.52835177071392536163330078125</LatitudeDegrees>
              <LongitudeDegrees>20.4926285706460475921630859375</LongitudeDegrees>
            </Position>
            <AltitudeMeters>375.399993896484375</AltitudeMeters>
            <DistanceMeters>NAN</DistanceMeters>
          </Trackpoint>
          <Trackpoint>
            <Time>2022-09-22T10:38:10.000Z</Time>
            <Position>
              <LatitudeDegrees>49.528346993029117584228515625</LatitudeDegrees>
              <LongitudeDegrees>20.49271431751549243927001953125</LongitudeDegrees>
            </Position>
            <AltitudeMeters>374.79998779296875</AltitudeMeters>
            <DistanceMeters>NAN</DistanceMeters>
          </Trackpoint>
          <Trackpoint>
            <Time>2022-09-22T10:38:12.000Z</Time>
            <Position>
              <LatitudeDegrees>49.52830147929489612579345703125</LatitudeDegrees>
              <LongitudeDegrees>20.49288354814052581787109375</LongitudeDegrees>
            </Position>
            <AltitudeMeters>374.20001220703125</AltitudeMeters>
            <DistanceMeters>NAN</DistanceMeters>
          </Trackpoint>
          <Trackpoint>
            <Time>2022-09-22T10:38:13.000Z</Time>
            <Position>
              <LatitudeDegrees>49.528265856206417083740234375</LatitudeDegrees>
              <LongitudeDegrees>20.4929625056684017181396484375</LongitudeDegrees>
            </Position>
            <AltitudeMeters>374</AltitudeMeters>
            <DistanceMeters>NAN</DistanceMeters>
          </Trackpoint>
          <Trackpoint>
            <Time>2022-09-22T10:38:16.000Z</Time>
            <Position>
              <LatitudeDegrees>49.5281282253563404083251953125</LatitudeDegrees>
              <LongitudeDegrees>20.4932327382266521453857421875</LongitudeDegrees>
            </Position>
            <AltitudeMeters>372.79998779296875</AltitudeMeters>
            <DistanceMeters>NAN</DistanceMeters>
          </Trackpoint>
          <Trackpoint>
            <Time>2022-09-22T10:38:18.000Z</Time>
            <Position>
              <LatitudeDegrees>49.5280273072421550750732421875</LatitudeDegrees>
              <LongitudeDegrees>20.49344806931912899017333984375</LongitudeDegrees>
            </Position>
            <AltitudeMeters>371.600006103515625</AltitudeMeters>
            <DistanceMeters>NAN</DistanceMeters>
          </Trackpoint>
          <Trackpoint>
            <Time>2022-09-22T10:38:19.000Z</Time>
            <Position>
              <LatitudeDegrees>49.52797609381377696990966796875</LatitudeDegrees>
              <LongitudeDegrees>20.49355904571712017059326171875</LongitudeDegrees>
            </Position>
            <AltitudeMeters>370.600006103515625</AltitudeMeters>
            <DistanceMeters>NAN</DistanceMeters>
          </Trackpoint>
          <Trackpoint>
            <Time>2022-09-22T10:38:20.000Z</Time>
            <Position>
              <LatitudeDegrees>49.5279200188815593719482421875</LatitudeDegrees>
              <LongitudeDegrees>20.4936719499528408050537109375</LongitudeDegrees>
            </Position>
            <AltitudeMeters>369.79998779296875</AltitudeMeters>
            <DistanceMeters>NAN</DistanceMeters>
          </Trackpoint>
          <Trackpoint>
            <Time>2022-09-22T10:38:22.000Z</Time>
            <Position>
              <LatitudeDegrees>49.52781432308256626129150390625</LatitudeDegrees>
              <LongitudeDegrees>20.49390354193747043609619140625</LongitudeDegrees>
            </Position>
            <AltitudeMeters>368.79998779296875</AltitudeMeters>
            <DistanceMeters>NAN</DistanceMeters>
          </Trackpoint>
          <Trackpoint>
            <Time>2022-09-22T10:38:25.000Z</Time>
            <Position>
              <LatitudeDegrees>49.52766596339643001556396484375</LatitudeDegrees>
              <LongitudeDegrees>20.4942506365478038787841796875</LongitudeDegrees>
            </Position>
            <AltitudeMeters>367.79998779296875</AltitudeMeters>
            <DistanceMeters>NAN</DistanceMeters>
          </Trackpoint>
          <Trackpoint>
            <Time>2022-09-22T10:38:30.000Z</Time>
            <Position>
              <LatitudeDegrees>49.52735315077006816864013671875</LatitudeDegrees>
              <LongitudeDegrees>20.49472094513475894927978515625</LongitudeDegrees>
            </Position>
            <AltitudeMeters>367.600006103515625</AltitudeMeters>
            <DistanceMeters>NAN</DistanceMeters>
          </Trackpoint>
          <Trackpoint>
            <Time>2022-09-22T10:38:31.000Z</Time>
            <Position>
              <LatitudeDegrees>49.527292884886264801025390625</LatitudeDegrees>
              <LongitudeDegrees>20.49478523433208465576171875</LongitudeDegrees>
            </Position>
            <AltitudeMeters>367.600006103515625</AltitudeMeters>
            <DistanceMeters>NAN</DistanceMeters>
          </Trackpoint>
          <Trackpoint>
            <Time>2022-09-22T10:38:34.000Z</Time>
            <Position>
              <LatitudeDegrees>49.52712985686957836151123046875</LatitudeDegrees>
              <LongitudeDegrees>20.49497005529701709747314453125</LongitudeDegrees>
            </Position>
            <AltitudeMeters>368</AltitudeMeters>
            <DistanceMeters>NAN</DistanceMeters>
          </Trackpoint>
          <Trackpoint>
            <Time>2022-09-22T10:38:35.000Z</Time>
            <Position>
              <LatitudeDegrees>49.52707998454570770263671875</LatitudeDegrees>
              <LongitudeDegrees>20.49503912217915058135986328125</LongitudeDegrees>
            </Position>
            <AltitudeMeters>368.20001220703125</AltitudeMeters>
            <DistanceMeters>NAN</DistanceMeters>
          </Trackpoint>
          <Trackpoint>
            <Time>2022-09-22T10:38:37.000Z</Time>
            <Position>
              <LatitudeDegrees>49.52701318077743053436279296875</LatitudeDegrees>
              <LongitudeDegrees>20.49520441330969333648681640625</LongitudeDegrees>
            </Position>
            <AltitudeMeters>368.399993896484375</AltitudeMeters>
            <DistanceMeters>NAN</DistanceMeters>
          </Trackpoint>
          <Trackpoint>
            <Time>2022-09-22T10:38:38.000Z</Time>
            <Position>
              <LatitudeDegrees>49.52699281275272369384765625</LatitudeDegrees>
              <LongitudeDegrees>20.4952923394739627838134765625</LongitudeDegrees>
            </Position>
            <AltitudeMeters>368.399993896484375</AltitudeMeters>
            <DistanceMeters>NAN</DistanceMeters>
          </Trackpoint>
          <Trackpoint>
            <Time>2022-09-22T10:38:40.000Z</Time>
            <Position>
              <LatitudeDegrees>49.5269617997109889984130859375</LatitudeDegrees>
              <LongitudeDegrees>20.49545654095709323883056640625</LongitudeDegrees>
            </Position>
            <AltitudeMeters>368.600006103515625</AltitudeMeters>
            <DistanceMeters>NAN</DistanceMeters>
          </Trackpoint>
          <Trackpoint>
            <Time>2022-09-22T10:38:43.000Z</Time>
            <Position>
              <LatitudeDegrees>49.52688879333436489105224609375</LatitudeDegrees>
              <LongitudeDegrees>20.49567732028663158416748046875</LongitudeDegrees>
            </Position>
            <AltitudeMeters>368.600006103515625</AltitudeMeters>
            <DistanceMeters>NAN</DistanceMeters>
          </Trackpoint>
          <Trackpoint>
            <Time>2022-09-22T10:38:50.000Z</Time>
            <Position>
              <LatitudeDegrees>49.5266903936862945556640625</LatitudeDegrees>
              <LongitudeDegrees>20.49621392972767353057861328125</LongitudeDegrees>
            </Position>
            <AltitudeMeters>367.20001220703125</AltitudeMeters>
            <DistanceMeters>NAN</DistanceMeters>
          </Trackpoint>
          <Trackpoint>
            <Time>2022-09-22T10:38:52.000Z</Time>
            <Position>
              <LatitudeDegrees>49.52660682611167430877685546875</LatitudeDegrees>
              <LongitudeDegrees>20.49641191028058528900146484375</LongitudeDegrees>
            </Position>
            <AltitudeMeters>366.399993896484375</AltitudeMeters>
            <DistanceMeters>NAN</DistanceMeters>
          </Trackpoint>
          <Trackpoint>
            <Time>2022-09-22T10:38:55.000Z</Time>
            <Position>
              <LatitudeDegrees>49.526490233838558197021484375</LatitudeDegrees>
              <LongitudeDegrees>20.49669153057038784027099609375</LongitudeDegrees>
            </Position>
            <AltitudeMeters>365.20001220703125</AltitudeMeters>
            <DistanceMeters>NAN</DistanceMeters>
          </Trackpoint>
          <Trackpoint>
            <Time>2022-09-22T10:38:56.000Z</Time>
            <Position>
              <LatitudeDegrees>49.526430554687976837158203125</LatitudeDegrees>
              <LongitudeDegrees>20.4967997409403324127197265625</LongitudeDegrees>
            </Position>
            <AltitudeMeters>364.79998779296875</AltitudeMeters>
            <DistanceMeters>NAN</DistanceMeters>
          </Trackpoint>
          <Trackpoint>
            <Time>2022-09-22T10:38:57.000Z</Time>
            <Position>
              <LatitudeDegrees>49.5263757370412349700927734375</LatitudeDegrees>
              <LongitudeDegrees>20.49691314809024333953857421875</LongitudeDegrees>
            </Position>
            <AltitudeMeters>364.600006103515625</AltitudeMeters>
            <DistanceMeters>NAN</DistanceMeters>
          </Trackpoint>
          <Trackpoint>
            <Time>2022-09-22T10:38:59.000Z</Time>
            <Position>
              <LatitudeDegrees>49.526278339326381683349609375</LatitudeDegrees>
              <LongitudeDegrees>20.4971427284181118011474609375</LongitudeDegrees>
            </Position>
            <AltitudeMeters>364.20001220703125</AltitudeMeters>
            <DistanceMeters>NAN</DistanceMeters>
          </Trackpoint>
          <Trackpoint>
            <Time>2022-09-22T10:39:02.000Z</Time>
            <Position>
              <LatitudeDegrees>49.5261671952903270721435546875</LatitudeDegrees>
              <LongitudeDegrees>20.49745948053896427154541015625</LongitudeDegrees>
            </Position>
            <AltitudeMeters>363.20001220703125</AltitudeMeters>
            <DistanceMeters>NAN</DistanceMeters>
          </Trackpoint>
          <Trackpoint>
            <Time>2022-09-22T10:39:03.000Z</Time>
            <Position>
              <LatitudeDegrees>49.52611397020518779754638671875</LatitudeDegrees>
              <LongitudeDegrees>20.49756308086216449737548828125</LongitudeDegrees>
            </Position>
            <AltitudeMeters>363</AltitudeMeters>
            <DistanceMeters>NAN</DistanceMeters>
          </Trackpoint>
          <Trackpoint>
            <Time>2022-09-22T10:39:04.000Z</Time>
            <Position>
              <LatitudeDegrees>49.526058733463287353515625</LatitudeDegrees>
              <LongitudeDegrees>20.4976493306457996368408203125</LongitudeDegrees>
            </Position>
            <AltitudeMeters>363</AltitudeMeters>
            <DistanceMeters>NAN</DistanceMeters>
          </Trackpoint>
          <Trackpoint>
            <Time>2022-09-22T10:39:06.000Z</Time>
            <Position>
              <LatitudeDegrees>49.52595789916813373565673828125</LatitudeDegrees>
              <LongitudeDegrees>20.4977966845035552978515625</LongitudeDegrees>
            </Position>
            <AltitudeMeters>362.79998779296875</AltitudeMeters>
            <DistanceMeters>NAN</DistanceMeters>
          </Trackpoint>
          <Trackpoint>
            <Time>2022-09-22T10:39:07.000Z</Time>
            <Position>
              <LatitudeDegrees>49.52590676955878734588623046875</LatitudeDegrees>
              <LongitudeDegrees>20.4978924058377742767333984375</LongitudeDegrees>
            </Position>
            <AltitudeMeters>362.600006103515625</AltitudeMeters>
            <DistanceMeters>NAN</DistanceMeters>
          </Trackpoint>
          <Trackpoint>
            <Time>2022-09-22T10:39:08.000Z</Time>
            <Position>
              <LatitudeDegrees>49.5258822105824947357177734375</LatitudeDegrees>
              <LongitudeDegrees>20.49799608998000621795654296875</LongitudeDegrees>
            </Position>
            <AltitudeMeters>362.399993896484375</AltitudeMeters>
            <DistanceMeters>NAN</DistanceMeters>
          </Trackpoint>
          <Trackpoint>
            <Time>2022-09-22T10:39:10.000Z</Time>
            <Position>
              <LatitudeDegrees>49.5258428156375885009765625</LatitudeDegrees>
              <LongitudeDegrees>20.498230196535587310791015625</LongitudeDegrees>
            </Position>
            <AltitudeMeters>362</AltitudeMeters>
            <DistanceMeters>NAN</DistanceMeters>
          </Trackpoint>
          <Trackpoint>
            <Time>2022-09-22T10:39:13.000Z</Time>
            <Position>
              <LatitudeDegrees>49.52574650757014751434326171875</LatitudeDegrees>
              <LongitudeDegrees>20.49858483485877513885498046875</LongitudeDegrees>
            </Position>
            <AltitudeMeters>360.79998779296875</AltitudeMeters>
            <DistanceMeters>NAN</DistanceMeters>
          </Trackpoint>
          <Trackpoint>
            <Time>2022-09-22T10:39:16.000Z</Time>
            <Position>
              <LatitudeDegrees>49.52565883286297321319580078125</LatitudeDegrees>
              <LongitudeDegrees>20.4988720826804637908935546875</LongitudeDegrees>
            </Position>
            <AltitudeMeters>359.79998779296875</AltitudeMeters>
            <DistanceMeters>NAN</DistanceMeters>
          </Trackpoint>
          <Trackpoint>
            <Time>2022-09-22T10:39:17.000Z</Time>
            <Position>
              <LatitudeDegrees>49.52563167549669742584228515625</LatitudeDegrees>
              <LongitudeDegrees>20.49897610209882259368896484375</LongitudeDegrees>
            </Position>
            <AltitudeMeters>359.600006103515625</AltitudeMeters>
            <DistanceMeters>NAN</DistanceMeters>
          </Trackpoint>
          <Trackpoint>
            <Time>2022-09-22T10:39:22.000Z</Time>
            <Position>
              <LatitudeDegrees>49.52547510154545307159423828125</LatitudeDegrees>
              <LongitudeDegrees>20.4994360171258449554443359375</LongitudeDegrees>
            </Position>
            <AltitudeMeters>359.399993896484375</AltitudeMeters>
            <DistanceMeters>NAN</DistanceMeters>
          </Trackpoint>
          <Trackpoint>
            <Time>2022-09-22T10:39:25.000Z</Time>
            <Position>
              <LatitudeDegrees>49.52540352009236812591552734375</LatitudeDegrees>
              <LongitudeDegrees>20.4996874742209911346435546875</LongitudeDegrees>
            </Position>
            <AltitudeMeters>360.20001220703125</AltitudeMeters>
            <DistanceMeters>NAN</DistanceMeters>
          </Trackpoint>
          <Trackpoint>
            <Time>2022-09-22T10:39:27.000Z</Time>
            <Position>
              <LatitudeDegrees>49.52536211349070072174072265625</LatitudeDegrees>
              <LongitudeDegrees>20.4998289607465267181396484375</LongitudeDegrees>
            </Position>
            <AltitudeMeters>360.600006103515625</AltitudeMeters>
            <DistanceMeters>NAN</DistanceMeters>
          </Trackpoint>
          <Trackpoint>
            <Time>2022-09-22T10:39:28.000Z</Time>
            <Position>
              <LatitudeDegrees>49.52534233219921588897705078125</LatitudeDegrees>
              <LongitudeDegrees>20.49989459104835987091064453125</LongitudeDegrees>
            </Position>
            <AltitudeMeters>360.79998779296875</AltitudeMeters>
            <DistanceMeters>NAN</DistanceMeters>
          </Trackpoint>
          <Trackpoint>
            <Time>2022-09-22T10:39:30.000Z</Time>
            <Position>
              <LatitudeDegrees>49.5253035239875316619873046875</LatitudeDegrees>
              <LongitudeDegrees>20.50001143477857112884521484375</LongitudeDegrees>
            </Position>
            <AltitudeMeters>361.20001220703125</AltitudeMeters>
            <DistanceMeters>NAN</DistanceMeters>
          </Trackpoint>
          <Trackpoint>
            <Time>2022-09-22T10:39:32.000Z</Time>
            <Position>
              <LatitudeDegrees>49.52525164000689983367919921875</LatitudeDegrees>
              <LongitudeDegrees>20.50011134706437587738037109375</LongitudeDegrees>
            </Position>
            <AltitudeMeters>361.399993896484375</AltitudeMeters>
            <DistanceMeters>NAN</DistanceMeters>
          </Trackpoint>
          <Trackpoint>
            <Time>2022-09-22T10:39:33.000Z</Time>
            <Position>
              <LatitudeDegrees>49.52522926032543182373046875</LatitudeDegrees>
              <LongitudeDegrees>20.50015392713248729705810546875</LongitudeDegrees>
            </Position>
            <AltitudeMeters>361.79998779296875</AltitudeMeters>
            <DistanceMeters>NAN</DistanceMeters>
          </Trackpoint>
          <Trackpoint>
            <Time>2022-09-22T10:39:37.000Z</Time>
            <Position>
              <LatitudeDegrees>49.52515105716884136199951171875</LatitudeDegrees>
              <LongitudeDegrees>20.50034956075251102447509765625</LongitudeDegrees>
            </Position>
            <AltitudeMeters>362.20001220703125</AltitudeMeters>
            <DistanceMeters>NAN</DistanceMeters>
          </Trackpoint>
          <Trackpoint>
            <Time>2022-09-22T10:39:40.000Z</Time>
            <Position>
              <LatitudeDegrees>49.52510478906333446502685546875</LatitudeDegrees>
              <LongitudeDegrees>20.50054527819156646728515625</LongitudeDegrees>
            </Position>
            <AltitudeMeters>362</AltitudeMeters>
            <DistanceMeters>NAN</DistanceMeters>
          </Trackpoint>
          <Trackpoint>
            <Time>2022-09-22T10:39:41.000Z</Time>
            <Position>
              <LatitudeDegrees>49.52509070746600627899169921875</LatitudeDegrees>
              <LongitudeDegrees>20.5006091482937335968017578125</LongitudeDegrees>
            </Position>
            <AltitudeMeters>362</AltitudeMeters>
            <DistanceMeters>NAN</DistanceMeters>
          </Trackpoint>
          <Trackpoint>
            <Time>2022-09-22T10:39:42.000Z</Time>
            <Position>
              <LatitudeDegrees>49.5250758714973926544189453125</LatitudeDegrees>
              <LongitudeDegrees>20.50067025236785411834716796875</LongitudeDegrees>
            </Position>
            <AltitudeMeters>362</AltitudeMeters>
            <DistanceMeters>NAN</DistanceMeters>
          </Trackpoint>
          <Trackpoint>
            <Time>2022-09-22T10:39:46.000Z</Time>
            <Position>
              <LatitudeDegrees>49.5250155217945575714111328125</LatitudeDegrees>
              <LongitudeDegrees>20.500882901251316070556640625</LongitudeDegrees>
            </Position>
            <AltitudeMeters>362</AltitudeMeters>
            <DistanceMeters>NAN</DistanceMeters>
          </Trackpoint>
          <Trackpoint>
            <Time>2022-09-22T10:39:49.000Z</Time>
            <Position>
              <LatitudeDegrees>49.52498786151409149169921875</LatitudeDegrees>
              <LongitudeDegrees>20.50101927481591701507568359375</LongitudeDegrees>
            </Position>
            <AltitudeMeters>362.20001220703125</AltitudeMeters>
            <DistanceMeters>NAN</DistanceMeters>
          </Trackpoint>
          <Trackpoint>
            <Time>2022-09-22T10:39:50.000Z</Time>
            <Position>
              <LatitudeDegrees>49.52497847378253936767578125</LatitudeDegrees>
              <LongitudeDegrees>20.50105531699955463409423828125</LongitudeDegrees>
            </Position>
            <AltitudeMeters>362.20001220703125</AltitudeMeters>
            <DistanceMeters>NAN</DistanceMeters>
          </Trackpoint>
          <Trackpoint>
            <Time>2022-09-22T10:39:53.000Z</Time>
            <Position>
              <LatitudeDegrees>49.5249363966286182403564453125</LatitudeDegrees>
              <LongitudeDegrees>20.50118892453610897064208984375</LongitudeDegrees>
            </Position>
            <AltitudeMeters>362.399993896484375</AltitudeMeters>
            <DistanceMeters>NAN</DistanceMeters>
          </Trackpoint>
          <Trackpoint>
            <Time>2022-09-22T10:39:56.000Z</Time>
            <Position>
              <LatitudeDegrees>49.52490898780524730682373046875</LatitudeDegrees>
              <LongitudeDegrees>20.5013400502502918243408203125</LongitudeDegrees>
            </Position>
            <AltitudeMeters>362.79998779296875</AltitudeMeters>
            <DistanceMeters>NAN</DistanceMeters>
          </Trackpoint>
          <Trackpoint>
            <Time>2022-09-22T10:39:59.000Z</Time>
            <Position>
              <LatitudeDegrees>49.524857103824615478515625</LatitudeDegrees>
              <LongitudeDegrees>20.50145496614277362823486328125</LongitudeDegrees>
            </Position>
            <AltitudeMeters>363</AltitudeMeters>
            <DistanceMeters>NAN</DistanceMeters>
          </Trackpoint>
          <Trackpoint>
            <Time>2022-09-22T10:40:04.000Z</Time>
            <Position>
              <LatitudeDegrees>49.52477462589740753173828125</LatitudeDegrees>
              <LongitudeDegrees>20.501754619181156158447265625</LongitudeDegrees>
            </Position>
            <AltitudeMeters>362</AltitudeMeters>
            <DistanceMeters>NAN</DistanceMeters>
          </Trackpoint>
          <Trackpoint>
            <Time>2022-09-22T10:40:05.000Z</Time>
            <Position>
              <LatitudeDegrees>49.5247714407742023468017578125</LatitudeDegrees>
              <LongitudeDegrees>20.5018486641347408294677734375</LongitudeDegrees>
            </Position>
            <AltitudeMeters>361.399993896484375</AltitudeMeters>
            <DistanceMeters>NAN</DistanceMeters>
          </Trackpoint>
          <Trackpoint>
            <Time>2022-09-22T10:40:06.000Z</Time>
            <Position>
              <LatitudeDegrees>49.52476657927036285400390625</LatitudeDegrees>
              <LongitudeDegrees>20.50193709321320056915283203125</LongitudeDegrees>
            </Position>
            <AltitudeMeters>360.79998779296875</AltitudeMeters>
            <DistanceMeters>NAN</DistanceMeters>
          </Trackpoint>
          <Trackpoint>
            <Time>2022-09-22T10:40:07.000Z</Time>
            <Position>
              <LatitudeDegrees>49.5247610472142696380615234375</LatitudeDegrees>
              <LongitudeDegrees>20.502032898366451263427734375</LongitudeDegrees>
            </Position>
            <AltitudeMeters>360.20001220703125</AltitudeMeters>
            <DistanceMeters>NAN</DistanceMeters>
          </Trackpoint>
          <Trackpoint>
            <Time>2022-09-22T10:40:08.000Z</Time>
            <Position>
              <LatitudeDegrees>49.52475610189139842987060546875</LatitudeDegrees>
              <LongitudeDegrees>20.5021232552826404571533203125</LongitudeDegrees>
            </Position>
            <AltitudeMeters>359.20001220703125</AltitudeMeters>
            <DistanceMeters>NAN</DistanceMeters>
          </Trackpoint>
          <Trackpoint>
            <Time>2022-09-22T10:40:09.000Z</Time>
            <Position>
              <LatitudeDegrees>49.52475140802562236785888671875</LatitudeDegrees>
              <LongitudeDegrees>20.502243451774120330810546875</LongitudeDegrees>
            </Position>
            <AltitudeMeters>358.399993896484375</AltitudeMeters>
            <DistanceMeters>NAN</DistanceMeters>
          </Trackpoint>
          <Trackpoint>
            <Time>2022-09-22T10:40:10.000Z</Time>
            <Position>
              <LatitudeDegrees>49.52474202029407024383544921875</LatitudeDegrees>
              <LongitudeDegrees>20.50232802517712116241455078125</LongitudeDegrees>
            </Position>
            <AltitudeMeters>357.399993896484375</AltitudeMeters>
            <DistanceMeters>NAN</DistanceMeters>
          </Trackpoint>
          <Trackpoint>
            <Time>2022-09-22T10:40:11.000Z</Time>
            <Position>
              <LatitudeDegrees>49.52472693286836147308349609375</LatitudeDegrees>
              <LongitudeDegrees>20.50243380479514598846435546875</LongitudeDegrees>
            </Position>
            <AltitudeMeters>356.600006103515625</AltitudeMeters>
            <DistanceMeters>NAN</DistanceMeters>
          </Trackpoint>
          <Trackpoint>
            <Time>2022-09-22T10:40:12.000Z</Time>
            <Position>
              <LatitudeDegrees>49.52470027841627597808837890625</LatitudeDegrees>
              <LongitudeDegrees>20.50253279507160186767578125</LongitudeDegrees>
            </Position>
            <AltitudeMeters>355.399993896484375</AltitudeMeters>
            <DistanceMeters>NAN</DistanceMeters>
          </Trackpoint>
          <Trackpoint>
            <Time>2022-09-22T10:40:13.000Z</Time>
            <Position>
              <LatitudeDegrees>49.52466725371778011322021484375</LatitudeDegrees>
              <LongitudeDegrees>20.50264838151633739471435546875</LongitudeDegrees>
            </Position>
            <AltitudeMeters>354.399993896484375</AltitudeMeters>
            <DistanceMeters>NAN</DistanceMeters>
          </Trackpoint>
          <Trackpoint>
            <Time>2022-09-22T10:40:14.000Z</Time>
            <Position>
              <LatitudeDegrees>49.52463976107537746429443359375</LatitudeDegrees>
              <LongitudeDegrees>20.50277595408260822296142578125</LongitudeDegrees>
            </Position>
            <AltitudeMeters>353.20001220703125</AltitudeMeters>
            <DistanceMeters>NAN</DistanceMeters>
          </Trackpoint>
          <Trackpoint>
            <Time>2022-09-22T10:40:15.000Z</Time>
            <Position>
              <LatitudeDegrees>49.52461075969040393829345703125</LatitudeDegrees>
              <LongitudeDegrees>20.50289916805922985076904296875</LongitudeDegrees>
            </Position>
            <AltitudeMeters>351.600006103515625</AltitudeMeters>
            <DistanceMeters>NAN</DistanceMeters>
          </Trackpoint>
          <Trackpoint>
            <Time>2022-09-22T10:40:16.000Z</Time>
            <Position>
              <LatitudeDegrees>49.5245702750980854034423828125</LatitudeDegrees>
              <LongitudeDegrees>20.5030637048184871673583984375</LongitudeDegrees>
            </Position>
            <AltitudeMeters>349.79998779296875</AltitudeMeters>
            <DistanceMeters>NAN</DistanceMeters>
          </Trackpoint>
          <Trackpoint>
            <Time>2022-09-22T10:40:17.000Z</Time>
            <Position>
              <LatitudeDegrees>49.52453565783798694610595703125</LatitudeDegrees>
              <LongitudeDegrees>20.50321902148425579071044921875</LongitudeDegrees>
            </Position>
            <AltitudeMeters>348.20001220703125</AltitudeMeters>
            <DistanceMeters>NAN</DistanceMeters>
          </Trackpoint>
          <Trackpoint>
            <Time>2022-09-22T10:40:18.000Z</Time>
            <Position>
              <LatitudeDegrees>49.52449559234082698822021484375</LatitudeDegrees>
              <LongitudeDegrees>20.5033756792545318603515625</LongitudeDegrees>
            </Position>
            <AltitudeMeters>345.79998779296875</AltitudeMeters>
            <DistanceMeters>NAN</DistanceMeters>
          </Trackpoint>
          <Trackpoint>
            <Time>2022-09-22T10:40:19.000Z</Time>
            <Position>
              <LatitudeDegrees>49.52443406917154788970947265625</LatitudeDegrees>
              <LongitudeDegrees>20.5035956203937530517578125</LongitudeDegrees>
            </Position>
            <AltitudeMeters>343</AltitudeMeters>
            <DistanceMeters>NAN</DistanceMeters>
          </Trackpoint>
          <Trackpoint>
            <Time>2022-09-22T10:40:20.000Z</Time>
            <Position>
              <LatitudeDegrees>49.52438545413315296173095703125</LatitudeDegrees>
              <LongitudeDegrees>20.50378806889057159423828125</LongitudeDegrees>
            </Position>
            <AltitudeMeters>339.399993896484375</AltitudeMeters>
            <DistanceMeters>NAN</DistanceMeters>
          </Trackpoint>
          <Trackpoint>
            <Time>2022-09-22T10:40:21.000Z</Time>
            <Position>
              <LatitudeDegrees>49.52433750964701175689697265625</LatitudeDegrees>
              <LongitudeDegrees>20.50397741608321666717529296875</LongitudeDegrees>
            </Position>
            <AltitudeMeters>336.399993896484375</AltitudeMeters>
            <DistanceMeters>NAN</DistanceMeters>
          </Trackpoint>
          <Trackpoint>
            <Time>2022-09-22T10:40:22.000Z</Time>
            <Position>
              <LatitudeDegrees>49.5242926664650440216064453125</LatitudeDegrees>
              <LongitudeDegrees>20.5041654221713542938232421875</LongitudeDegrees>
            </Position>
            <AltitudeMeters>335</AltitudeMeters>
            <DistanceMeters>NAN</DistanceMeters>
          </Trackpoint>
          <Trackpoint>
            <Time>2022-09-22T10:40:24.000Z</Time>
            <Position>
              <LatitudeDegrees>49.52419987879693508148193359375</LatitudeDegrees>
              <LongitudeDegrees>20.50453246571123600006103515625</LongitudeDegrees>
            </Position>
            <AltitudeMeters>333.79998779296875</AltitudeMeters>
            <DistanceMeters>NAN</DistanceMeters>
          </Trackpoint>
          <Trackpoint>
            <Time>2022-09-22T10:40:25.000Z</Time>
            <Position>
              <LatitudeDegrees>49.52415495179593563079833984375</LatitudeDegrees>
              <LongitudeDegrees>20.5047129280865192413330078125</LongitudeDegrees>
            </Position>
            <AltitudeMeters>333.79998779296875</AltitudeMeters>
            <DistanceMeters>NAN</DistanceMeters>
          </Trackpoint>
          <Trackpoint>
            <Time>2022-09-22T10:40:28.000Z</Time>
            <Position>
              <LatitudeDegrees>49.5240267924964427947998046875</LatitudeDegrees>
              <LongitudeDegrees>20.505184829235076904296875</LongitudeDegrees>
            </Position>
            <AltitudeMeters>335</AltitudeMeters>
            <DistanceMeters>NAN</DistanceMeters>
          </Trackpoint>
          <Trackpoint>
            <Time>2022-09-22T10:40:29.000Z</Time>
            <Position>
              <LatitudeDegrees>49.52397608198225498199462890625</LatitudeDegrees>
              <LongitudeDegrees>20.50530812703073024749755859375</LongitudeDegrees>
            </Position>
            <AltitudeMeters>336</AltitudeMeters>
            <DistanceMeters>NAN</DistanceMeters>
          </Trackpoint>
          <Trackpoint>
            <Time>2022-09-22T10:40:30.000Z</Time>
            <Position>
              <LatitudeDegrees>49.5239107869565486907958984375</LatitudeDegrees>
              <LongitudeDegrees>20.50544559024274349212646484375</LongitudeDegrees>
            </Position>
            <AltitudeMeters>337.20001220703125</AltitudeMeters>
            <DistanceMeters>NAN</DistanceMeters>
          </Trackpoint>
          <Trackpoint>
            <Time>2022-09-22T10:40:32.000Z</Time>
            <Position>
              <LatitudeDegrees>49.523845575749874114990234375</LatitudeDegrees>
              <LongitudeDegrees>20.5056272260844707489013671875</LongitudeDegrees>
            </Position>
            <AltitudeMeters>338.600006103515625</AltitudeMeters>
            <DistanceMeters>NAN</DistanceMeters>
          </Trackpoint>
          <Trackpoint>
            <Time>2022-09-22T10:40:34.000Z</Time>
            <Position>
              <LatitudeDegrees>49.523812718689441680908203125</LatitudeDegrees>
              <LongitudeDegrees>20.50576527602970600128173828125</LongitudeDegrees>
            </Position>
            <AltitudeMeters>340</AltitudeMeters>
            <DistanceMeters>NAN</DistanceMeters>
          </Trackpoint>
          <Trackpoint>
            <Time>2022-09-22T10:40:35.000Z</Time>
            <Position>
              <LatitudeDegrees>49.5238115452229976654052734375</LatitudeDegrees>
              <LongitudeDegrees>20.50579243339598178863525390625</LongitudeDegrees>
            </Position>
            <AltitudeMeters>340.79998779296875</AltitudeMeters>
            <DistanceMeters>NAN</DistanceMeters>
          </Trackpoint>
          <Trackpoint>
            <Time>2022-09-22T10:40:36.000Z</Time>
            <Position>
              <LatitudeDegrees>49.52381062321364879608154296875</LatitudeDegrees>
              <LongitudeDegrees>20.5057988874614238739013671875</LongitudeDegrees>
            </Position>
            <AltitudeMeters>341.399993896484375</AltitudeMeters>
            <DistanceMeters>NAN</DistanceMeters>
          </Trackpoint>
          <Trackpoint>
            <Time>2022-09-22T10:40:37.000Z</Time>
            <Position>
              <LatitudeDegrees>49.5238071866333484649658203125</LatitudeDegrees>
              <LongitudeDegrees>20.50579913891851902008056640625</LongitudeDegrees>
            </Position>
            <AltitudeMeters>341.600006103515625</AltitudeMeters>
            <DistanceMeters>NAN</DistanceMeters>
          </Trackpoint>
          <Trackpoint>
            <Time>2022-09-22T10:40:38.000Z</Time>
            <Position>
              <LatitudeDegrees>49.5238071866333484649658203125</LatitudeDegrees>
              <LongitudeDegrees>20.50579913891851902008056640625</LongitudeDegrees>
            </Position>
            <AltitudeMeters>341.79998779296875</AltitudeMeters>
            <DistanceMeters>NAN</DistanceMeters>
          </Trackpoint>
          <Trackpoint>
            <Time>2022-09-22T10:40:41.000Z</Time>
            <Position>
              <LatitudeDegrees>49.523804672062397003173828125</LatitudeDegrees>
              <LongitudeDegrees>20.505819506943225860595703125</LongitudeDegrees>
            </Position>
            <AltitudeMeters>341.79998779296875</AltitudeMeters>
            <DistanceMeters>NAN</DistanceMeters>
          </Trackpoint>
          <Trackpoint>
            <Time>2022-09-22T10:40:42.000Z</Time>
            <Position>
              <LatitudeDegrees>49.5238029956817626953125</LatitudeDegrees>
              <LongitudeDegrees>20.50584004260599613189697265625</LongitudeDegrees>
            </Position>
            <AltitudeMeters>341.79998779296875</AltitudeMeters>
            <DistanceMeters>NAN</DistanceMeters>
          </Trackpoint>
          <Trackpoint>
            <Time>2022-09-22T10:40:43.000Z</Time>
            <Position>
              <LatitudeDegrees>49.52380307950079441070556640625</LatitudeDegrees>
              <LongitudeDegrees>20.50585873425006866455078125</LongitudeDegrees>
            </Position>
            <AltitudeMeters>341.79998779296875</AltitudeMeters>
            <DistanceMeters>NAN</DistanceMeters>
          </Trackpoint>
          <Trackpoint>
            <Time>2022-09-22T10:40:45.000Z</Time>
            <Position>
              <LatitudeDegrees>49.52382487244904041290283203125</LatitudeDegrees>
              <LongitudeDegrees>20.50591849721968173980712890625</LongitudeDegrees>
            </Position>
            <AltitudeMeters>341.79998779296875</AltitudeMeters>
            <DistanceMeters>NAN</DistanceMeters>
          </Trackpoint>
          <Trackpoint>
            <Time>2022-09-22T10:40:46.000Z</Time>
            <Position>
              <LatitudeDegrees>49.5238501019775867462158203125</LatitudeDegrees>
              <LongitudeDegrees>20.50594699569046497344970703125</LongitudeDegrees>
            </Position>
            <AltitudeMeters>341.600006103515625</AltitudeMeters>
            <DistanceMeters>NAN</DistanceMeters>
          </Trackpoint>
          <Trackpoint>
            <Time>2022-09-22T10:40:52.000Z</Time>
            <Position>
              <LatitudeDegrees>49.52398614026606082916259765625</LatitudeDegrees>
              <LongitudeDegrees>20.5061951838433742523193359375</LongitudeDegrees>
            </Position>
            <AltitudeMeters>340.79998779296875</AltitudeMeters>
            <DistanceMeters>NAN</DistanceMeters>
          </Trackpoint>
          <Trackpoint>
            <Time>2022-09-22T10:40:57.000Z</Time>
            <Position>
              <LatitudeDegrees>49.52402922324836254119873046875</LatitudeDegrees>
              <LongitudeDegrees>20.50646047107875347137451171875</LongitudeDegrees>
            </Position>
            <AltitudeMeters>340.79998779296875</AltitudeMeters>
            <DistanceMeters>NAN</DistanceMeters>
          </Trackpoint>
          <Trackpoint>
            <Time>2022-09-22T10:41:04.000Z</Time>
            <Position>
              <LatitudeDegrees>49.52402235008776187896728515625</LatitudeDegrees>
              <LongitudeDegrees>20.5068808235228061676025390625</LongitudeDegrees>
            </Position>
            <AltitudeMeters>340.600006103515625</AltitudeMeters>
            <DistanceMeters>NAN</DistanceMeters>
          </Trackpoint>
          <Trackpoint>
            <Time>2022-09-22T10:41:06.000Z</Time>
            <Position>
              <LatitudeDegrees>49.52402050606906414031982421875</LatitudeDegrees>
              <LongitudeDegrees>20.50699691288173198699951171875</LongitudeDegrees>
            </Position>
            <AltitudeMeters>340.20001220703125</AltitudeMeters>
            <DistanceMeters>NAN</DistanceMeters>
          </Trackpoint>
          <Trackpoint>
            <Time>2022-09-22T10:41:11.000Z</Time>
            <Position>
              <LatitudeDegrees>49.5240194164216518402099609375</LatitudeDegrees>
              <LongitudeDegrees>20.507298745214939117431640625</LongitudeDegrees>
            </Position>
            <AltitudeMeters>339.79998779296875</AltitudeMeters>
            <DistanceMeters>NAN</DistanceMeters>
          </Trackpoint>
          <Trackpoint>
            <Time>2022-09-22T10:41:17.000Z</Time>
            <Position>
              <LatitudeDegrees>49.52400458045303821563720703125</LatitudeDegrees>
              <LongitudeDegrees>20.5076747573912143707275390625</LongitudeDegrees>
            </Position>
            <AltitudeMeters>339.79998779296875</AltitudeMeters>
            <DistanceMeters>NAN</DistanceMeters>
          </Trackpoint>
          <Trackpoint>
            <Time>2022-09-22T10:41:24.000Z</Time>
            <Position>
              <LatitudeDegrees>49.523991085588932037353515625</LatitudeDegrees>
              <LongitudeDegrees>20.50813433714210987091064453125</LongitudeDegrees>
            </Position>
            <AltitudeMeters>339.600006103515625</AltitudeMeters>
            <DistanceMeters>NAN</DistanceMeters>
          </Trackpoint>
          <Trackpoint>
            <Time>2022-09-22T10:41:25.000Z</Time>
            <Position>
              <LatitudeDegrees>49.523989744484424591064453125</LatitudeDegrees>
              <LongitudeDegrees>20.50819988362491130828857421875</LongitudeDegrees>
            </Position>
            <AltitudeMeters>339.79998779296875</AltitudeMeters>
            <DistanceMeters>NAN</DistanceMeters>
          </Trackpoint>
          <Trackpoint>
            <Time>2022-09-22T10:41:28.000Z</Time>
            <Position>
              <LatitudeDegrees>49.52398379333317279815673828125</LatitudeDegrees>
              <LongitudeDegrees>20.50838059745728969573974609375</LongitudeDegrees>
            </Position>
            <AltitudeMeters>340</AltitudeMeters>
            <DistanceMeters>NAN</DistanceMeters>
          </Trackpoint>
          <Trackpoint>
            <Time>2022-09-22T10:41:32.000Z</Time>
            <Position>
              <LatitudeDegrees>49.523995108902454376220703125</LatitudeDegrees>
              <LongitudeDegrees>20.50863037817180156707763671875</LongitudeDegrees>
            </Position>
            <AltitudeMeters>339.79998779296875</AltitudeMeters>
            <DistanceMeters>NAN</DistanceMeters>
          </Trackpoint>
          <Trackpoint>
            <Time>2022-09-22T10:41:39.000Z</Time>
            <Position>
              <LatitudeDegrees>49.524010531604290008544921875</LatitudeDegrees>
              <LongitudeDegrees>20.50907981581985950469970703125</LongitudeDegrees>
            </Position>
            <AltitudeMeters>339.399993896484375</AltitudeMeters>
            <DistanceMeters>NAN</DistanceMeters>
          </Trackpoint>
          <Trackpoint>
            <Time>2022-09-22T10:41:40.000Z</Time>
            <Position>
              <LatitudeDegrees>49.524017237126827239990234375</LatitudeDegrees>
              <LongitudeDegrees>20.50914502702653408050537109375</LongitudeDegrees>
            </Position>
            <AltitudeMeters>339.600006103515625</AltitudeMeters>
            <DistanceMeters>NAN</DistanceMeters>
          </Trackpoint>
          <Trackpoint>
            <Time>2022-09-22T10:41:48.000Z</Time>
            <Position>
              <LatitudeDegrees>49.52405520714819431304931640625</LatitudeDegrees>
              <LongitudeDegrees>20.50960469059646129608154296875</LongitudeDegrees>
            </Position>
            <AltitudeMeters>339.79998779296875</AltitudeMeters>
            <DistanceMeters>NAN</DistanceMeters>
          </Trackpoint>
          <Trackpoint>
            <Time>2022-09-22T10:41:49.000Z</Time>
            <Position>
              <LatitudeDegrees>49.52405721880495548248291015625</LatitudeDegrees>
              <LongitudeDegrees>20.50966504029929637908935546875</LongitudeDegrees>
            </Position>
            <AltitudeMeters>339.600006103515625</AltitudeMeters>
            <DistanceMeters>NAN</DistanceMeters>
          </Trackpoint>
          <Trackpoint>
            <Time>2022-09-22T10:41:56.000Z</Time>
            <Position>
              <LatitudeDegrees>49.52399703674018383026123046875</LatitudeDegrees>
              <LongitudeDegrees>20.5100972950458526611328125</LongitudeDegrees>
            </Position>
            <AltitudeMeters>339.399993896484375</AltitudeMeters>
            <DistanceMeters>NAN</DistanceMeters>
          </Trackpoint>
          <Trackpoint>
            <Time>2022-09-22T10:41:58.000Z</Time>
            <Position>
              <LatitudeDegrees>49.5239785127341747283935546875</LatitudeDegrees>
              <LongitudeDegrees>20.5102188326418399810791015625</LongitudeDegrees>
            </Position>
            <AltitudeMeters>339.399993896484375</AltitudeMeters>
            <DistanceMeters>NAN</DistanceMeters>
          </Trackpoint>
          <Trackpoint>
            <Time>2022-09-22T10:42:00.000Z</Time>
            <Position>
              <LatitudeDegrees>49.52395847998559474945068359375</LatitudeDegrees>
              <LongitudeDegrees>20.51033676601946353912353515625</LongitudeDegrees>
            </Position>
            <AltitudeMeters>339.399993896484375</AltitudeMeters>
            <DistanceMeters>NAN</DistanceMeters>
          </Trackpoint>
          <Trackpoint>
            <Time>2022-09-22T10:42:03.000Z</Time>
            <Position>
              <LatitudeDegrees>49.52394054271280765533447265625</LatitudeDegrees>
              <LongitudeDegrees>20.5105262808501720428466796875</LongitudeDegrees>
            </Position>
            <AltitudeMeters>339.399993896484375</AltitudeMeters>
            <DistanceMeters>NAN</DistanceMeters>
          </Trackpoint>
          <Trackpoint>
            <Time>2022-09-22T10:42:11.000Z</Time>
            <Position>
              <LatitudeDegrees>49.523952193558216094970703125</LatitudeDegrees>
              <LongitudeDegrees>20.5110000260174274444580078125</LongitudeDegrees>
            </Position>
            <AltitudeMeters>340.399993896484375</AltitudeMeters>
            <DistanceMeters>NAN</DistanceMeters>
          </Trackpoint>
          <Trackpoint>
            <Time>2022-09-22T10:42:15.000Z</Time>
            <Position>
              <LatitudeDegrees>49.52395345084369182586669921875</LatitudeDegrees>
              <LongitudeDegrees>20.51121284253895282745361328125</LongitudeDegrees>
            </Position>
            <AltitudeMeters>340.79998779296875</AltitudeMeters>
            <DistanceMeters>NAN</DistanceMeters>
          </Trackpoint>
          <Trackpoint>
            <Time>2022-09-22T10:42:22.000Z</Time>
            <Position>
              <LatitudeDegrees>49.5239867269992828369140625</LatitudeDegrees>
              <LongitudeDegrees>20.51152397878468036651611328125</LongitudeDegrees>
            </Position>
            <AltitudeMeters>341.20001220703125</AltitudeMeters>
            <DistanceMeters>NAN</DistanceMeters>
          </Trackpoint>
          <Trackpoint>
            <Time>2022-09-22T10:42:29.000Z</Time>
            <Position>
              <LatitudeDegrees>49.524011202156543731689453125</LatitudeDegrees>
              <LongitudeDegrees>20.51179605536162853240966796875</LongitudeDegrees>
            </Position>
            <AltitudeMeters>341.399993896484375</AltitudeMeters>
            <DistanceMeters>NAN</DistanceMeters>
          </Trackpoint>
          <Trackpoint>
            <Time>2022-09-22T10:42:37.000Z</Time>
            <Position>
              <LatitudeDegrees>49.5240452326834201812744140625</LatitudeDegrees>
              <LongitudeDegrees>20.51202991046011447906494140625</LongitudeDegrees>
            </Position>
            <AltitudeMeters>341.79998779296875</AltitudeMeters>
            <DistanceMeters>NAN</DistanceMeters>
          </Trackpoint>
          <Trackpoint>
            <Time>2022-09-22T10:42:43.000Z</Time>
            <Position>
              <LatitudeDegrees>49.5240537822246551513671875</LatitudeDegrees>
              <LongitudeDegrees>20.51214189268648624420166015625</LongitudeDegrees>
            </Position>
            <AltitudeMeters>342</AltitudeMeters>
            <DistanceMeters>NAN</DistanceMeters>
          </Trackpoint>
          <Trackpoint>
            <Time>2022-09-22T10:42:50.000Z</Time>
            <Position>
              <LatitudeDegrees>49.5240537822246551513671875</LatitudeDegrees>
              <LongitudeDegrees>20.51214189268648624420166015625</LongitudeDegrees>
            </Position>
            <AltitudeMeters>341.600006103515625</AltitudeMeters>
            <DistanceMeters>NAN</DistanceMeters>
          </Trackpoint>
          <Trackpoint>
            <Time>2022-09-22T10:42:59.000Z</Time>
            <Position>
              <LatitudeDegrees>49.5240537822246551513671875</LatitudeDegrees>
              <LongitudeDegrees>20.51214189268648624420166015625</LongitudeDegrees>
            </Position>
            <AltitudeMeters>341.600006103515625</AltitudeMeters>
            <DistanceMeters>NAN</DistanceMeters>
          </Trackpoint>
          <Trackpoint>
            <Time>2022-09-22T10:43:01.000Z</Time>
            <Position>
              <LatitudeDegrees>49.5240537822246551513671875</LatitudeDegrees>
              <LongitudeDegrees>20.51214189268648624420166015625</LongitudeDegrees>
            </Position>
            <AltitudeMeters>341.600006103515625</AltitudeMeters>
            <DistanceMeters>NAN</DistanceMeters>
          </Trackpoint>
          <Trackpoint>
            <Time>2022-09-22T10:43:02.000Z</Time>
            <Position>
              <LatitudeDegrees>49.5240537822246551513671875</LatitudeDegrees>
              <LongitudeDegrees>20.51214189268648624420166015625</LongitudeDegrees>
            </Position>
            <AltitudeMeters>341.600006103515625</AltitudeMeters>
            <DistanceMeters>NAN</DistanceMeters>
          </Trackpoint>
          <Trackpoint>
            <Time>2022-09-22T10:43:06.000Z</Time>
            <Position>
              <LatitudeDegrees>49.5240537822246551513671875</LatitudeDegrees>
              <LongitudeDegrees>20.51214189268648624420166015625</LongitudeDegrees>
            </Position>
            <AltitudeMeters>341.600006103515625</AltitudeMeters>
            <DistanceMeters>NAN</DistanceMeters>
          </Trackpoint>
          <Trackpoint>
            <Time>2022-09-22T10:43:09.000Z</Time>
            <Position>
              <LatitudeDegrees>49.5240537822246551513671875</LatitudeDegrees>
              <LongitudeDegrees>20.51214189268648624420166015625</LongitudeDegrees>
            </Position>
            <AltitudeMeters>341.600006103515625</AltitudeMeters>
            <DistanceMeters>NAN</DistanceMeters>
          </Trackpoint>
          <Trackpoint>
            <Time>2022-09-22T10:43:12.000Z</Time>
            <Position>
              <LatitudeDegrees>49.5240537822246551513671875</LatitudeDegrees>
              <LongitudeDegrees>20.51214189268648624420166015625</LongitudeDegrees>
            </Position>
            <AltitudeMeters>341.600006103515625</AltitudeMeters>
            <DistanceMeters>NAN</DistanceMeters>
          </Trackpoint>
          <Trackpoint>
            <Time>2022-09-22T10:43:38.000Z</Time>
            <Position>
              <LatitudeDegrees>49.5240537822246551513671875</LatitudeDegrees>
              <LongitudeDegrees>20.51214189268648624420166015625</LongitudeDegrees>
            </Position>
            <AltitudeMeters>341.600006103515625</AltitudeMeters>
            <DistanceMeters>NAN</DistanceMeters>
          </Trackpoint>
          <Trackpoint>
            <Time>2022-09-22T10:43:49.000Z</Time>
            <Position>
              <LatitudeDegrees>49.5240537822246551513671875</LatitudeDegrees>
              <LongitudeDegrees>20.51214189268648624420166015625</LongitudeDegrees>
            </Position>
            <AltitudeMeters>341.600006103515625</AltitudeMeters>
            <DistanceMeters>NAN</DistanceMeters>
          </Trackpoint>
          <Trackpoint>
            <Time>2022-09-22T10:43:56.000Z</Time>
            <Position>
              <LatitudeDegrees>49.5240537822246551513671875</LatitudeDegrees>
              <LongitudeDegrees>20.51214189268648624420166015625</LongitudeDegrees>
            </Position>
            <AltitudeMeters>341.600006103515625</AltitudeMeters>
            <DistanceMeters>NAN</DistanceMeters>
          </Trackpoint>
          <Trackpoint>
            <Time>2022-09-22T10:44:00.000Z</Time>
            <Position>
              <LatitudeDegrees>49.5240537822246551513671875</LatitudeDegrees>
              <LongitudeDegrees>20.51214189268648624420166015625</LongitudeDegrees>
            </Position>
            <AltitudeMeters>341.600006103515625</AltitudeMeters>
            <DistanceMeters>NAN</DistanceMeters>
          </Trackpoint>
          <Trackpoint>
            <Time>2022-09-22T10:44:07.000Z</Time>
            <Position>
              <LatitudeDegrees>49.5240537822246551513671875</LatitudeDegrees>
              <LongitudeDegrees>20.51214189268648624420166015625</LongitudeDegrees>
            </Position>
            <AltitudeMeters>341.600006103515625</AltitudeMeters>
            <DistanceMeters>NAN</DistanceMeters>
          </Trackpoint>
          <Trackpoint>
            <Time>2022-09-22T10:44:22.000Z</Time>
            <Position>
              <LatitudeDegrees>49.5240537822246551513671875</LatitudeDegrees>
              <LongitudeDegrees>20.51214189268648624420166015625</LongitudeDegrees>
            </Position>
            <AltitudeMeters>341.600006103515625</AltitudeMeters>
            <DistanceMeters>NAN</DistanceMeters>
          </Trackpoint>
          <Trackpoint>
            <Time>2022-09-22T10:44:58.000Z</Time>
            <Position>
              <LatitudeDegrees>49.524055458605289459228515625</LatitudeDegrees>
              <LongitudeDegrees>20.51213468424975872039794921875</LongitudeDegrees>
            </Position>
            <AltitudeMeters>341.600006103515625</AltitudeMeters>
            <DistanceMeters>NAN</DistanceMeters>
          </Trackpoint>
          <Trackpoint>
            <Time>2022-09-22T10:44:59.000Z</Time>
            <Position>
              <LatitudeDegrees>49.524055458605289459228515625</LatitudeDegrees>
              <LongitudeDegrees>20.51213468424975872039794921875</LongitudeDegrees>
            </Position>
            <AltitudeMeters>341.600006103515625</AltitudeMeters>
            <DistanceMeters>NAN</DistanceMeters>
          </Trackpoint>
          <Trackpoint>
            <Time>2022-09-22T10:45:13.000Z</Time>
            <Position>
              <LatitudeDegrees>49.524055458605289459228515625</LatitudeDegrees>
              <LongitudeDegrees>20.51213468424975872039794921875</LongitudeDegrees>
            </Position>
            <AltitudeMeters>341.600006103515625</AltitudeMeters>
            <DistanceMeters>NAN</DistanceMeters>
          </Trackpoint>
          <Trackpoint>
            <Time>2022-09-22T10:45:23.000Z</Time>
            <Position>
              <LatitudeDegrees>49.524055458605289459228515625</LatitudeDegrees>
              <LongitudeDegrees>20.51213468424975872039794921875</LongitudeDegrees>
            </Position>
            <AltitudeMeters>341.600006103515625</AltitudeMeters>
            <DistanceMeters>NAN</DistanceMeters>
          </Trackpoint>
          <Trackpoint>
            <Time>2022-09-22T10:45:29.000Z</Time>
            <Position>
              <LatitudeDegrees>49.524055458605289459228515625</LatitudeDegrees>
              <LongitudeDegrees>20.51213468424975872039794921875</LongitudeDegrees>
            </Position>
            <AltitudeMeters>341.600006103515625</AltitudeMeters>
            <DistanceMeters>NAN</DistanceMeters>
          </Trackpoint>
          <Trackpoint>
            <Time>2022-09-22T10:45:33.000Z</Time>
            <Position>
              <LatitudeDegrees>49.524055458605289459228515625</LatitudeDegrees>
              <LongitudeDegrees>20.51213468424975872039794921875</LongitudeDegrees>
            </Position>
            <AltitudeMeters>341.600006103515625</AltitudeMeters>
            <DistanceMeters>NAN</DistanceMeters>
          </Trackpoint>
          <Trackpoint>
            <Time>2022-09-22T10:45:44.000Z</Time>
            <Position>
              <LatitudeDegrees>49.524055458605289459228515625</LatitudeDegrees>
              <LongitudeDegrees>20.51213468424975872039794921875</LongitudeDegrees>
            </Position>
            <AltitudeMeters>341.600006103515625</AltitudeMeters>
            <DistanceMeters>NAN</DistanceMeters>
          </Trackpoint>
          <Trackpoint>
            <Time>2022-09-22T10:45:59.000Z</Time>
            <Position>
              <LatitudeDegrees>49.524055458605289459228515625</LatitudeDegrees>
              <LongitudeDegrees>20.51213468424975872039794921875</LongitudeDegrees>
            </Position>
            <AltitudeMeters>341.600006103515625</AltitudeMeters>
            <DistanceMeters>NAN</DistanceMeters>
          </Trackpoint>
          <Trackpoint>
            <Time>2022-09-22T10:46:03.000Z</Time>
            <Position>
              <LatitudeDegrees>49.524055458605289459228515625</LatitudeDegrees>
              <LongitudeDegrees>20.51213468424975872039794921875</LongitudeDegrees>
            </Position>
            <AltitudeMeters>341.600006103515625</AltitudeMeters>
            <DistanceMeters>NAN</DistanceMeters>
          </Trackpoint>
          <Trackpoint>
            <Time>2022-09-22T10:46:18.000Z</Time>
            <Position>
              <LatitudeDegrees>49.524055458605289459228515625</LatitudeDegrees>
              <LongitudeDegrees>20.51213468424975872039794921875</LongitudeDegrees>
            </Position>
            <AltitudeMeters>341.600006103515625</AltitudeMeters>
            <DistanceMeters>NAN</DistanceMeters>
          </Trackpoint>
          <Trackpoint>
            <Time>2022-09-22T10:46:39.000Z</Time>
            <Position>
              <LatitudeDegrees>49.524055458605289459228515625</LatitudeDegrees>
              <LongitudeDegrees>20.51213468424975872039794921875</LongitudeDegrees>
            </Position>
            <AltitudeMeters>341.600006103515625</AltitudeMeters>
            <DistanceMeters>NAN</DistanceMeters>
          </Trackpoint>
          <Trackpoint>
            <Time>2022-09-22T10:46:51.000Z</Time>
            <Position>
              <LatitudeDegrees>49.524055458605289459228515625</LatitudeDegrees>
              <LongitudeDegrees>20.51213468424975872039794921875</LongitudeDegrees>
            </Position>
            <AltitudeMeters>341.600006103515625</AltitudeMeters>
            <DistanceMeters>NAN</DistanceMeters>
          </Trackpoint>
          <Trackpoint>
            <Time>2022-09-22T10:47:03.000Z</Time>
            <Position>
              <LatitudeDegrees>49.524056129157543182373046875</LatitudeDegrees>
              <LongitudeDegrees>20.51213636063039302825927734375</LongitudeDegrees>
            </Position>
            <AltitudeMeters>341.600006103515625</AltitudeMeters>
            <DistanceMeters>NAN</DistanceMeters>
          </Trackpoint>
          <Trackpoint>
            <Time>2022-09-22T10:47:06.000Z</Time>
            <Position>
              <LatitudeDegrees>49.5240804366767406463623046875</LatitudeDegrees>
              <LongitudeDegrees>20.51221548579633235931396484375</LongitudeDegrees>
            </Position>
            <AltitudeMeters>341.600006103515625</AltitudeMeters>
            <DistanceMeters>NAN</DistanceMeters>
          </Trackpoint>
          <Trackpoint>
            <Time>2022-09-22T10:47:11.000Z</Time>
            <Position>
              <LatitudeDegrees>49.5241840369999408721923828125</LatitudeDegrees>
              <LongitudeDegrees>20.51237004809081554412841796875</LongitudeDegrees>
            </Position>
            <AltitudeMeters>341.20001220703125</AltitudeMeters>
            <DistanceMeters>NAN</DistanceMeters>
          </Trackpoint>
          <Trackpoint>
            <Time>2022-09-22T10:47:16.000Z</Time>
            <Position>
              <LatitudeDegrees>49.52436902560293674468994140625</LatitudeDegrees>
              <LongitudeDegrees>20.51246702671051025390625</LongitudeDegrees>
            </Position>
            <AltitudeMeters>340.20001220703125</AltitudeMeters>
            <DistanceMeters>NAN</DistanceMeters>
          </Trackpoint>
          <Trackpoint>
            <Time>2022-09-22T10:47:17.000Z</Time>
            <Position>
              <LatitudeDegrees>49.52441294677555561065673828125</LatitudeDegrees>
              <LongitudeDegrees>20.512489490211009979248046875</LongitudeDegrees>
            </Position>
            <AltitudeMeters>340</AltitudeMeters>
            <DistanceMeters>NAN</DistanceMeters>
          </Trackpoint>
          <Trackpoint>
            <Time>2022-09-22T10:47:20.000Z</Time>
            <Position>
              <LatitudeDegrees>49.52453498728573322296142578125</LatitudeDegrees>
              <LongitudeDegrees>20.5125915817916393280029296875</LongitudeDegrees>
            </Position>
            <AltitudeMeters>339.600006103515625</AltitudeMeters>
            <DistanceMeters>NAN</DistanceMeters>
          </Trackpoint>
          <Trackpoint>
            <Time>2022-09-22T10:47:22.000Z</Time>
            <Position>
              <LatitudeDegrees>49.52459366060793399810791015625</LatitudeDegrees>
              <LongitudeDegrees>20.512667186558246612548828125</LongitudeDegrees>
            </Position>
            <AltitudeMeters>339.399993896484375</AltitudeMeters>
            <DistanceMeters>NAN</DistanceMeters>
          </Trackpoint>
          <Trackpoint>
            <Time>2022-09-22T10:47:25.000Z</Time>
            <Position>
              <LatitudeDegrees>49.52463657595217227935791015625</LatitudeDegrees>
              <LongitudeDegrees>20.51274136640131473541259765625</LongitudeDegrees>
            </Position>
            <AltitudeMeters>339.399993896484375</AltitudeMeters>
            <DistanceMeters>NAN</DistanceMeters>
          </Trackpoint>
          <Trackpoint>
            <Time>2022-09-22T10:47:26.000Z</Time>
            <Position>
              <LatitudeDegrees>49.52463624067604541778564453125</LatitudeDegrees>
              <LongitudeDegrees>20.51276215352118015289306640625</LongitudeDegrees>
            </Position>
            <AltitudeMeters>339.399993896484375</AltitudeMeters>
            <DistanceMeters>NAN</DistanceMeters>
          </Trackpoint>
          <Trackpoint>
            <Time>2022-09-22T10:47:27.000Z</Time>
            <Position>
              <LatitudeDegrees>49.52462534420192241668701171875</LatitudeDegrees>
              <LongitudeDegrees>20.51277891732752323150634765625</LongitudeDegrees>
            </Position>
            <AltitudeMeters>339.399993896484375</AltitudeMeters>
            <DistanceMeters>NAN</DistanceMeters>
          </Trackpoint>
          <Trackpoint>
            <Time>2022-09-22T10:47:30.000Z</Time>
            <Position>
              <LatitudeDegrees>49.524587877094745635986328125</LatitudeDegrees>
              <LongitudeDegrees>20.5128599703311920166015625</LongitudeDegrees>
            </Position>
            <AltitudeMeters>339.20001220703125</AltitudeMeters>
            <DistanceMeters>NAN</DistanceMeters>
          </Trackpoint>
          <Trackpoint>
            <Time>2022-09-22T10:47:31.000Z</Time>
            <Position>
              <LatitudeDegrees>49.5245739631354808807373046875</LatitudeDegrees>
              <LongitudeDegrees>20.51288754679262638092041015625</LongitudeDegrees>
            </Position>
            <AltitudeMeters>339</AltitudeMeters>
            <DistanceMeters>NAN</DistanceMeters>
          </Trackpoint>
          <Trackpoint>
            <Time>2022-09-22T10:47:37.000Z</Time>
            <Position>
              <LatitudeDegrees>49.5245015434920787811279296875</LatitudeDegrees>
              <LongitudeDegrees>20.51307127811014652252197265625</LongitudeDegrees>
            </Position>
            <AltitudeMeters>338.20001220703125</AltitudeMeters>
            <DistanceMeters>NAN</DistanceMeters>
          </Trackpoint>
          <Trackpoint>
            <Time>2022-09-22T10:47:39.000Z</Time>
            <Position>
              <LatitudeDegrees>49.52450179494917392730712890625</LatitudeDegrees>
              <LongitudeDegrees>20.51314101554453372955322265625</LongitudeDegrees>
            </Position>
            <AltitudeMeters>338</AltitudeMeters>
            <DistanceMeters>NAN</DistanceMeters>
          </Trackpoint>
          <Trackpoint>
            <Time>2022-09-22T10:47:42.000Z</Time>
            <Position>
              <LatitudeDegrees>49.5244928263127803802490234375</LatitudeDegrees>
              <LongitudeDegrees>20.5132198892533779144287109375</LongitudeDegrees>
            </Position>
            <AltitudeMeters>338</AltitudeMeters>
            <DistanceMeters>NAN</DistanceMeters>
          </Trackpoint>
          <Trackpoint>
            <Time>2022-09-22T10:47:45.000Z</Time>
            <Position>
              <LatitudeDegrees>49.52449006028473377227783203125</LatitudeDegrees>
              <LongitudeDegrees>20.513278059661388397216796875</LongitudeDegrees>
            </Position>
            <AltitudeMeters>338.20001220703125</AltitudeMeters>
            <DistanceMeters>NAN</DistanceMeters>
          </Trackpoint>
          <Trackpoint>
            <Time>2022-09-22T10:47:47.000Z</Time>
            <Position>
              <LatitudeDegrees>49.524486623704433441162109375</LatitudeDegrees>
              <LongitudeDegrees>20.51331988535821437835693359375</LongitudeDegrees>
            </Position>
            <AltitudeMeters>338.20001220703125</AltitudeMeters>
            <DistanceMeters>NAN</DistanceMeters>
          </Trackpoint>
          <Trackpoint>
            <Time>2022-09-22T10:47:54.000Z</Time>
            <Position>
              <LatitudeDegrees>49.5244861207902431488037109375</LatitudeDegrees>
              <LongitudeDegrees>20.5135058797895908355712890625</LongitudeDegrees>
            </Position>
            <AltitudeMeters>338.600006103515625</AltitudeMeters>
            <DistanceMeters>NAN</DistanceMeters>
          </Trackpoint>
          <Trackpoint>
            <Time>2022-09-22T10:47:56.000Z</Time>
            <Position>
              <LatitudeDegrees>49.52449810691177845001220703125</LatitudeDegrees>
              <LongitudeDegrees>20.51354552619159221649169921875</LongitudeDegrees>
            </Position>
            <AltitudeMeters>339.20001220703125</AltitudeMeters>
            <DistanceMeters>NAN</DistanceMeters>
          </Trackpoint>
          <Trackpoint>
            <Time>2022-09-22T10:48:01.000Z</Time>
            <Position>
              <LatitudeDegrees>49.52453431673347949981689453125</LatitudeDegrees>
              <LongitudeDegrees>20.5136678181588649749755859375</LongitudeDegrees>
            </Position>
            <AltitudeMeters>340.399993896484375</AltitudeMeters>
            <DistanceMeters>NAN</DistanceMeters>
          </Trackpoint>
          <Trackpoint>
            <Time>2022-09-22T10:48:02.000Z</Time>
            <Position>
              <LatitudeDegrees>49.52453750185668468475341796875</LatitudeDegrees>
              <LongitudeDegrees>20.513684414327144622802734375</LongitudeDegrees>
            </Position>
            <AltitudeMeters>340.79998779296875</AltitudeMeters>
            <DistanceMeters>NAN</DistanceMeters>
          </Trackpoint>
          <Trackpoint>
            <Time>2022-09-22T10:48:06.000Z</Time>
            <Position>
              <LatitudeDegrees>49.5245390944182872772216796875</LatitudeDegrees>
              <LongitudeDegrees>20.51368868909776210784912109375</LongitudeDegrees>
            </Position>
            <AltitudeMeters>341.20001220703125</AltitudeMeters>
            <DistanceMeters>NAN</DistanceMeters>
          </Trackpoint>
          <Trackpoint>
            <Time>2022-09-22T10:48:12.000Z</Time>
            <Position>
              <LatitudeDegrees>49.5245360769331455230712890625</LatitudeDegrees>
              <LongitudeDegrees>20.5136899463832378387451171875</LongitudeDegrees>
            </Position>
            <AltitudeMeters>341.20001220703125</AltitudeMeters>
            <DistanceMeters>NAN</DistanceMeters>
          </Trackpoint>
          <Trackpoint>
            <Time>2022-09-22T10:48:13.000Z</Time>
            <Position>
              <LatitudeDegrees>49.5245360769331455230712890625</LatitudeDegrees>
              <LongitudeDegrees>20.5136899463832378387451171875</LongitudeDegrees>
            </Position>
            <AltitudeMeters>341.20001220703125</AltitudeMeters>
            <DistanceMeters>NAN</DistanceMeters>
          </Trackpoint>
          <Trackpoint>
            <Time>2022-09-22T10:48:21.000Z</Time>
            <Position>
              <LatitudeDegrees>49.52451847493648529052734375</LatitudeDegrees>
              <LongitudeDegrees>20.51370210014283657073974609375</LongitudeDegrees>
            </Position>
            <AltitudeMeters>341.20001220703125</AltitudeMeters>
            <DistanceMeters>NAN</DistanceMeters>
          </Trackpoint>
          <Trackpoint>
            <Time>2022-09-22T10:48:22.000Z</Time>
            <Position>
              <LatitudeDegrees>49.52451721765100955963134765625</LatitudeDegrees>
              <LongitudeDegrees>20.513698160648345947265625</LongitudeDegrees>
            </Position>
            <AltitudeMeters>341.20001220703125</AltitudeMeters>
            <DistanceMeters>NAN</DistanceMeters>
          </Trackpoint>
          <Trackpoint>
            <Time>2022-09-22T10:48:24.000Z</Time>
            <Position>
              <LatitudeDegrees>49.5244881324470043182373046875</LatitudeDegrees>
              <LongitudeDegrees>20.51357184536755084991455078125</LongitudeDegrees>
            </Position>
            <AltitudeMeters>340.79998779296875</AltitudeMeters>
            <DistanceMeters>NAN</DistanceMeters>
          </Trackpoint>
          <Trackpoint>
            <Time>2022-09-22T10:48:25.000Z</Time>
            <Position>
              <LatitudeDegrees>49.5244750566780567169189453125</LatitudeDegrees>
              <LongitudeDegrees>20.5134924687445163726806640625</LongitudeDegrees>
            </Position>
            <AltitudeMeters>340.20001220703125</AltitudeMeters>
            <DistanceMeters>NAN</DistanceMeters>
          </Trackpoint>
          <Trackpoint>
            <Time>2022-09-22T10:48:27.000Z</Time>
            <Position>
              <LatitudeDegrees>49.5244706980884075164794921875</LatitudeDegrees>
              <LongitudeDegrees>20.5133265070617198944091796875</LongitudeDegrees>
            </Position>
            <AltitudeMeters>339.399993896484375</AltitudeMeters>
            <DistanceMeters>NAN</DistanceMeters>
          </Trackpoint>
          <Trackpoint>
            <Time>2022-09-22T10:48:28.000Z</Time>
            <Position>
              <LatitudeDegrees>49.5244794152677059173583984375</LatitudeDegrees>
              <LongitudeDegrees>20.51322734914720058441162109375</LongitudeDegrees>
            </Position>
            <AltitudeMeters>339</AltitudeMeters>
            <DistanceMeters>NAN</DistanceMeters>
          </Trackpoint>
          <Trackpoint>
            <Time>2022-09-22T10:48:31.000Z</Time>
            <Position>
              <LatitudeDegrees>49.52450506389141082763671875</LatitudeDegrees>
              <LongitudeDegrees>20.51301377825438976287841796875</LongitudeDegrees>
            </Position>
            <AltitudeMeters>338.600006103515625</AltitudeMeters>
            <DistanceMeters>NAN</DistanceMeters>
          </Trackpoint>
          <Trackpoint>
            <Time>2022-09-22T10:48:33.000Z</Time>
            <Position>
              <LatitudeDegrees>49.52455678023397922515869140625</LatitudeDegrees>
              <LongitudeDegrees>20.5128963477909564971923828125</LongitudeDegrees>
            </Position>
            <AltitudeMeters>338.399993896484375</AltitudeMeters>
            <DistanceMeters>NAN</DistanceMeters>
          </Trackpoint>
          <Trackpoint>
            <Time>2022-09-22T10:48:37.000Z</Time>
            <Position>
              <LatitudeDegrees>49.5246520824730396270751953125</LatitudeDegrees>
              <LongitudeDegrees>20.5128011293709278106689453125</LongitudeDegrees>
            </Position>
            <AltitudeMeters>338.79998779296875</AltitudeMeters>
            <DistanceMeters>NAN</DistanceMeters>
          </Trackpoint>
          <Trackpoint>
            <Time>2022-09-22T10:48:38.000Z</Time>
            <Position>
              <LatitudeDegrees>49.52467798255383968353271484375</LatitudeDegrees>
              <LongitudeDegrees>20.5127991177141666412353515625</LongitudeDegrees>
            </Position>
            <AltitudeMeters>339</AltitudeMeters>
            <DistanceMeters>NAN</DistanceMeters>
          </Trackpoint>
          <Trackpoint>
            <Time>2022-09-22T10:48:41.000Z</Time>
            <Position>
              <LatitudeDegrees>49.52475811354815959930419921875</LatitudeDegrees>
              <LongitudeDegrees>20.51284714601933956146240234375</LongitudeDegrees>
            </Position>
            <AltitudeMeters>339.399993896484375</AltitudeMeters>
            <DistanceMeters>NAN</DistanceMeters>
          </Trackpoint>
          <Trackpoint>
            <Time>2022-09-22T10:48:46.000Z</Time>
            <Position>
              <LatitudeDegrees>49.52486489899456501007080078125</LatitudeDegrees>
              <LongitudeDegrees>20.512882433831691741943359375</LongitudeDegrees>
            </Position>
            <AltitudeMeters>339.600006103515625</AltitudeMeters>
            <DistanceMeters>NAN</DistanceMeters>
          </Trackpoint>
          <Trackpoint>
            <Time>2022-09-22T10:48:52.000Z</Time>
            <Position>
              <LatitudeDegrees>49.52499012462794780731201171875</LatitudeDegrees>
              <LongitudeDegrees>20.51285116933286190032958984375</LongitudeDegrees>
            </Position>
            <AltitudeMeters>340</AltitudeMeters>
            <DistanceMeters>NAN</DistanceMeters>
          </Trackpoint>
          <Trackpoint>
            <Time>2022-09-22T10:48:59.000Z</Time>
            <Position>
              <LatitudeDegrees>49.5251529850065708160400390625</LatitudeDegrees>
              <LongitudeDegrees>20.51279651932418346405029296875</LongitudeDegrees>
            </Position>
            <AltitudeMeters>340</AltitudeMeters>
            <DistanceMeters>NAN</DistanceMeters>
          </Trackpoint>
          <Trackpoint>
            <Time>2022-09-22T10:49:01.000Z</Time>
            <Position>
              <LatitudeDegrees>49.5252019353210926055908203125</LatitudeDegrees>
              <LongitudeDegrees>20.51277942024171352386474609375</LongitudeDegrees>
            </Position>
            <AltitudeMeters>340</AltitudeMeters>
            <DistanceMeters>NAN</DistanceMeters>
          </Trackpoint>
          <Trackpoint>
            <Time>2022-09-22T10:49:05.000Z</Time>
            <Position>
              <LatitudeDegrees>49.5252810604870319366455078125</LatitudeDegrees>
              <LongitudeDegrees>20.512758381664752960205078125</LongitudeDegrees>
            </Position>
            <AltitudeMeters>340</AltitudeMeters>
            <DistanceMeters>NAN</DistanceMeters>
          </Trackpoint>
          <Trackpoint>
            <Time>2022-09-22T10:49:09.000Z</Time>
            <Position>
              <LatitudeDegrees>49.5253685675561428070068359375</LatitudeDegrees>
              <LongitudeDegrees>20.51273868419229984283447265625</LongitudeDegrees>
            </Position>
            <AltitudeMeters>340</AltitudeMeters>
            <DistanceMeters>NAN</DistanceMeters>
          </Trackpoint>
          <Trackpoint>
            <Time>2022-09-22T10:49:18.000Z</Time>
            <Position>
              <LatitudeDegrees>49.5255871675908565521240234375</LatitudeDegrees>
              <LongitudeDegrees>20.51268084906041622161865234375</LongitudeDegrees>
            </Position>
            <AltitudeMeters>340</AltitudeMeters>
            <DistanceMeters>NAN</DistanceMeters>
          </Trackpoint>
          <Trackpoint>
            <Time>2022-09-22T10:49:22.000Z</Time>
            <Position>
              <LatitudeDegrees>49.52568012289702892303466796875</LatitudeDegrees>
              <LongitudeDegrees>20.51264950074255466461181640625</LongitudeDegrees>
            </Position>
            <AltitudeMeters>340</AltitudeMeters>
            <DistanceMeters>NAN</DistanceMeters>
          </Trackpoint>
          <Trackpoint>
            <Time>2022-09-22T10:49:27.000Z</Time>
            <Position>
              <LatitudeDegrees>49.52579461969435214996337890625</LatitudeDegrees>
              <LongitudeDegrees>20.5126070044934749603271484375</LongitudeDegrees>
            </Position>
            <AltitudeMeters>339.79998779296875</AltitudeMeters>
            <DistanceMeters>NAN</DistanceMeters>
          </Trackpoint>
          <Trackpoint>
            <Time>2022-09-22T10:49:36.000Z</Time>
            <Position>
              <LatitudeDegrees>49.525978602468967437744140625</LatitudeDegrees>
              <LongitudeDegrees>20.51255461759865283966064453125</LongitudeDegrees>
            </Position>
            <AltitudeMeters>339.399993896484375</AltitudeMeters>
            <DistanceMeters>NAN</DistanceMeters>
          </Trackpoint>
          <Trackpoint>
            <Time>2022-09-22T10:49:41.000Z</Time>
            <Position>
              <LatitudeDegrees>49.52608346007764339447021484375</LatitudeDegrees>
              <LongitudeDegrees>20.51252578385174274444580078125</LongitudeDegrees>
            </Position>
            <AltitudeMeters>339.20001220703125</AltitudeMeters>
            <DistanceMeters>NAN</DistanceMeters>
          </Trackpoint>
          <Trackpoint>
            <Time>2022-09-22T10:49:44.000Z</Time>
            <Position>
              <LatitudeDegrees>49.5261378586292266845703125</LatitudeDegrees>
              <LongitudeDegrees>20.51249862648546695709228515625</LongitudeDegrees>
            </Position>
            <AltitudeMeters>339.20001220703125</AltitudeMeters>
            <DistanceMeters>NAN</DistanceMeters>
          </Trackpoint>
          <Trackpoint>
            <Time>2022-09-22T10:49:45.000Z</Time>
            <Position>
              <LatitudeDegrees>49.5261594839394092559814453125</LatitudeDegrees>
              <LongitudeDegrees>20.51249024458229541778564453125</LongitudeDegrees>
            </Position>
            <AltitudeMeters>339</AltitudeMeters>
            <DistanceMeters>NAN</DistanceMeters>
          </Trackpoint>
          <Trackpoint>
            <Time>2022-09-22T10:49:47.000Z</Time>
            <Position>
              <LatitudeDegrees>49.52620969153940677642822265625</LatitudeDegrees>
              <LongitudeDegrees>20.51247817464172840118408203125</LongitudeDegrees>
            </Position>
            <AltitudeMeters>339</AltitudeMeters>
            <DistanceMeters>NAN</DistanceMeters>
          </Trackpoint>
          <Trackpoint>
            <Time>2022-09-22T10:49:48.000Z</Time>
            <Position>
              <LatitudeDegrees>49.526236765086650848388671875</LatitudeDegrees>
              <LongitudeDegrees>20.5124829523265361785888671875</LongitudeDegrees>
            </Position>
            <AltitudeMeters>339</AltitudeMeters>
            <DistanceMeters>NAN</DistanceMeters>
          </Trackpoint>
          <Trackpoint>
            <Time>2022-09-22T10:49:54.000Z</Time>
            <Position>
              <LatitudeDegrees>49.5264049060642719268798828125</LatitudeDegrees>
              <LongitudeDegrees>20.51253148354589939117431640625</LongitudeDegrees>
            </Position>
            <AltitudeMeters>338.600006103515625</AltitudeMeters>
            <DistanceMeters>NAN</DistanceMeters>
          </Trackpoint>
          <Trackpoint>
            <Time>2022-09-22T10:49:55.000Z</Time>
            <Position>
              <LatitudeDegrees>49.526434242725372314453125</LatitudeDegrees>
              <LongitudeDegrees>20.5125724710524082183837890625</LongitudeDegrees>
            </Position>
            <AltitudeMeters>338.399993896484375</AltitudeMeters>
            <DistanceMeters>NAN</DistanceMeters>
          </Trackpoint>
          <Trackpoint>
            <Time>2022-09-22T10:49:56.000Z</Time>
            <Position>
              <LatitudeDegrees>49.5264538563787937164306640625</LatitudeDegrees>
              <LongitudeDegrees>20.5126281268894672393798828125</LongitudeDegrees>
            </Position>
            <AltitudeMeters>338.20001220703125</AltitudeMeters>
            <DistanceMeters>NAN</DistanceMeters>
          </Trackpoint>
          <Trackpoint>
            <Time>2022-09-22T10:49:58.000Z</Time>
            <Position>
              <LatitudeDegrees>49.52644706703722476959228515625</LatitudeDegrees>
              <LongitudeDegrees>20.5127473175525665283203125</LongitudeDegrees>
            </Position>
            <AltitudeMeters>337.399993896484375</AltitudeMeters>
            <DistanceMeters>NAN</DistanceMeters>
          </Trackpoint>
          <Trackpoint>
            <Time>2022-09-22T10:49:59.000Z</Time>
            <Position>
              <LatitudeDegrees>49.52641974203288555145263671875</LatitudeDegrees>
              <LongitudeDegrees>20.51280456595122814178466796875</LongitudeDegrees>
            </Position>
            <AltitudeMeters>337.20001220703125</AltitudeMeters>
            <DistanceMeters>NAN</DistanceMeters>
          </Trackpoint>
          <Trackpoint>
            <Time>2022-09-22T10:50:01.000Z</Time>
            <Position>
              <LatitudeDegrees>49.5263512618839740753173828125</LatitudeDegrees>
              <LongitudeDegrees>20.5129278637468814849853515625</LongitudeDegrees>
            </Position>
            <AltitudeMeters>336.399993896484375</AltitudeMeters>
            <DistanceMeters>NAN</DistanceMeters>
          </Trackpoint>
          <Trackpoint>
            <Time>2022-09-22T10:50:02.000Z</Time>
            <Position>
              <LatitudeDegrees>49.5263318158686161041259765625</LatitudeDegrees>
              <LongitudeDegrees>20.51301176659762859344482421875</LongitudeDegrees>
            </Position>
            <AltitudeMeters>335.79998779296875</AltitudeMeters>
            <DistanceMeters>NAN</DistanceMeters>
          </Trackpoint>
          <Trackpoint>
            <Time>2022-09-22T10:50:03.000Z</Time>
            <Position>
              <LatitudeDegrees>49.5263271220028400421142578125</LatitudeDegrees>
              <LongitudeDegrees>20.51310346461832523345947265625</LongitudeDegrees>
            </Position>
            <AltitudeMeters>335.399993896484375</AltitudeMeters>
            <DistanceMeters>NAN</DistanceMeters>
          </Trackpoint>
          <Trackpoint>
            <Time>2022-09-22T10:50:05.000Z</Time>
            <Position>
              <LatitudeDegrees>49.52633558772504329681396484375</LatitudeDegrees>
              <LongitudeDegrees>20.51329826004803180694580078125</LongitudeDegrees>
            </Position>
            <AltitudeMeters>334.79998779296875</AltitudeMeters>
            <DistanceMeters>NAN</DistanceMeters>
          </Trackpoint>
          <Trackpoint>
            <Time>2022-09-22T10:50:06.000Z</Time>
            <Position>
              <LatitudeDegrees>49.526345394551753997802734375</LatitudeDegrees>
              <LongitudeDegrees>20.513398759067058563232421875</LongitudeDegrees>
            </Position>
            <AltitudeMeters>334.600006103515625</AltitudeMeters>
            <DistanceMeters>NAN</DistanceMeters>
          </Trackpoint>
          <Trackpoint>
            <Time>2022-09-22T10:50:07.000Z</Time>
            <Position>
              <LatitudeDegrees>49.52635981142520904541015625</LatitudeDegrees>
              <LongitudeDegrees>20.5134983360767364501953125</LongitudeDegrees>
            </Position>
            <AltitudeMeters>334.399993896484375</AltitudeMeters>
            <DistanceMeters>NAN</DistanceMeters>
          </Trackpoint>
          <Trackpoint>
            <Time>2022-09-22T10:50:12.000Z</Time>
            <Position>
              <LatitudeDegrees>49.52647112309932708740234375</LatitudeDegrees>
              <LongitudeDegrees>20.51396076567471027374267578125</LongitudeDegrees>
            </Position>
            <AltitudeMeters>333.600006103515625</AltitudeMeters>
            <DistanceMeters>NAN</DistanceMeters>
          </Trackpoint>
          <Trackpoint>
            <Time>2022-09-22T10:50:13.000Z</Time>
            <Position>
              <LatitudeDegrees>49.526488222181797027587890625</LatitudeDegrees>
              <LongitudeDegrees>20.51404827274382114410400390625</LongitudeDegrees>
            </Position>
            <AltitudeMeters>333.399993896484375</AltitudeMeters>
            <DistanceMeters>NAN</DistanceMeters>
          </Trackpoint>
          <Trackpoint>
            <Time>2022-09-22T10:50:14.000Z</Time>
            <Position>
              <LatitudeDegrees>49.5265098474919795989990234375</LatitudeDegrees>
              <LongitudeDegrees>20.5141348578035831451416015625</LongitudeDegrees>
            </Position>
            <AltitudeMeters>333.20001220703125</AltitudeMeters>
            <DistanceMeters>NAN</DistanceMeters>
          </Trackpoint>
          <Trackpoint>
            <Time>2022-09-22T10:50:19.000Z</Time>
            <Position>
              <LatitudeDegrees>49.52662107534706592559814453125</LatitudeDegrees>
              <LongitudeDegrees>20.51452486775815486907958984375</LongitudeDegrees>
            </Position>
            <AltitudeMeters>333.20001220703125</AltitudeMeters>
            <DistanceMeters>NAN</DistanceMeters>
          </Trackpoint>
          <Trackpoint>
            <Time>2022-09-22T10:50:22.000Z</Time>
            <Position>
              <LatitudeDegrees>49.52668796293437480926513671875</LatitudeDegrees>
              <LongitudeDegrees>20.51472418941557407379150390625</LongitudeDegrees>
            </Position>
            <AltitudeMeters>333.600006103515625</AltitudeMeters>
            <DistanceMeters>NAN</DistanceMeters>
          </Trackpoint>
          <Trackpoint>
            <Time>2022-09-22T10:50:24.000Z</Time>
            <Position>
              <LatitudeDegrees>49.52673624269664287567138671875</LatitudeDegrees>
              <LongitudeDegrees>20.5148379318416118621826171875</LongitudeDegrees>
            </Position>
            <AltitudeMeters>333.79998779296875</AltitudeMeters>
            <DistanceMeters>NAN</DistanceMeters>
          </Trackpoint>
          <Trackpoint>
            <Time>2022-09-22T10:50:28.000Z</Time>
            <Position>
              <LatitudeDegrees>49.52683028765022754669189453125</LatitudeDegrees>
              <LongitudeDegrees>20.51503834314644336700439453125</LongitudeDegrees>
            </Position>
            <AltitudeMeters>334.600006103515625</AltitudeMeters>
            <DistanceMeters>NAN</DistanceMeters>
          </Trackpoint>
          <Trackpoint>
            <Time>2022-09-22T10:50:31.000Z</Time>
            <Position>
              <LatitudeDegrees>49.52689281664788722991943359375</LatitudeDegrees>
              <LongitudeDegrees>20.5151846073567867279052734375</LongitudeDegrees>
            </Position>
            <AltitudeMeters>334.79998779296875</AltitudeMeters>
            <DistanceMeters>NAN</DistanceMeters>
          </Trackpoint>
          <Trackpoint>
            <Time>2022-09-22T10:50:37.000Z</Time>
            <Position>
              <LatitudeDegrees>49.5269762165844440460205078125</LatitudeDegrees>
              <LongitudeDegrees>20.5154464580118656158447265625</LongitudeDegrees>
            </Position>
            <AltitudeMeters>334.79998779296875</AltitudeMeters>
            <DistanceMeters>NAN</DistanceMeters>
          </Trackpoint>
          <Trackpoint>
            <Time>2022-09-22T10:50:43.000Z</Time>
            <Position>
              <LatitudeDegrees>49.52703983522951602935791015625</LatitudeDegrees>
              <LongitudeDegrees>20.51564435474574565887451171875</LongitudeDegrees>
            </Position>
            <AltitudeMeters>335</AltitudeMeters>
            <DistanceMeters>NAN</DistanceMeters>
          </Trackpoint>
          <Trackpoint>
            <Time>2022-09-22T10:50:44.000Z</Time>
            <Position>
              <LatitudeDegrees>49.5270472951233386993408203125</LatitudeDegrees>
              <LongitudeDegrees>20.5156762897968292236328125</LongitudeDegrees>
            </Position>
            <AltitudeMeters>335</AltitudeMeters>
            <DistanceMeters>NAN</DistanceMeters>
          </Trackpoint>
          <Trackpoint>
            <Time>2022-09-22T10:50:46.000Z</Time>
            <Position>
              <LatitudeDegrees>49.52705718576908111572265625</LatitudeDegrees>
              <LongitudeDegrees>20.5157203786075115203857421875</LongitudeDegrees>
            </Position>
            <AltitudeMeters>335</AltitudeMeters>
            <DistanceMeters>NAN</DistanceMeters>
          </Trackpoint>
          <Trackpoint>
            <Time>2022-09-22T10:50:48.000Z</Time>
            <Position>
              <LatitudeDegrees>49.5270600356161594390869140625</LatitudeDegrees>
              <LongitudeDegrees>20.51573907025158405303955078125</LongitudeDegrees>
            </Position>
            <AltitudeMeters>335</AltitudeMeters>
            <DistanceMeters>NAN</DistanceMeters>
          </Trackpoint>
          <Trackpoint>
            <Time>2022-09-22T10:50:53.000Z</Time>
            <Position>
              <LatitudeDegrees>49.5270600356161594390869140625</LatitudeDegrees>
              <LongitudeDegrees>20.51573907025158405303955078125</LongitudeDegrees>
            </Position>
            <AltitudeMeters>335.20001220703125</AltitudeMeters>
            <DistanceMeters>NAN</DistanceMeters>
          </Trackpoint>
          <Trackpoint>
            <Time>2022-09-22T10:50:59.000Z</Time>
            <Position>
              <LatitudeDegrees>49.52706866897642612457275390625</LatitudeDegrees>
              <LongitudeDegrees>20.5157525651156902313232421875</LongitudeDegrees>
            </Position>
            <AltitudeMeters>335</AltitudeMeters>
            <DistanceMeters>NAN</DistanceMeters>
          </Trackpoint>
          <Trackpoint>
            <Time>2022-09-22T10:51:00.000Z</Time>
            <Position>
              <LatitudeDegrees>49.52707621268928050994873046875</LatitudeDegrees>
              <LongitudeDegrees>20.5157683230936527252197265625</LongitudeDegrees>
            </Position>
            <AltitudeMeters>335</AltitudeMeters>
            <DistanceMeters>NAN</DistanceMeters>
          </Trackpoint>
          <Trackpoint>
            <Time>2022-09-22T10:51:01.000Z</Time>
            <Position>
              <LatitudeDegrees>49.52708811499178409576416015625</LatitudeDegrees>
              <LongitudeDegrees>20.51578248851001262664794921875</LongitudeDegrees>
            </Position>
            <AltitudeMeters>335</AltitudeMeters>
            <DistanceMeters>NAN</DistanceMeters>
          </Trackpoint>
          <Trackpoint>
            <Time>2022-09-22T10:51:03.000Z</Time>
            <Position>
              <LatitudeDegrees>49.5271130092442035675048828125</LatitudeDegrees>
              <LongitudeDegrees>20.515810735523700714111328125</LongitudeDegrees>
            </Position>
            <AltitudeMeters>335.20001220703125</AltitudeMeters>
            <DistanceMeters>NAN</DistanceMeters>
          </Trackpoint>
          <Trackpoint>
            <Time>2022-09-22T10:51:05.000Z</Time>
            <Position>
              <LatitudeDegrees>49.5271529071033000946044921875</LatitudeDegrees>
              <LongitudeDegrees>20.51584015600383281707763671875</LongitudeDegrees>
            </Position>
            <AltitudeMeters>335</AltitudeMeters>
            <DistanceMeters>NAN</DistanceMeters>
          </Trackpoint>
          <Trackpoint>
            <Time>2022-09-22T10:51:09.000Z</Time>
            <Position>
              <LatitudeDegrees>49.52723178081214427947998046875</LatitudeDegrees>
              <LongitudeDegrees>20.515977703034877777099609375</LongitudeDegrees>
            </Position>
            <AltitudeMeters>335.20001220703125</AltitudeMeters>
            <DistanceMeters>NAN</DistanceMeters>
          </Trackpoint>
          <Trackpoint>
            <Time>2022-09-22T10:51:14.000Z</Time>
            <Position>
              <LatitudeDegrees>49.52734024263918399810791015625</LatitudeDegrees>
              <LongitudeDegrees>20.51616252399981021881103515625</LongitudeDegrees>
            </Position>
            <AltitudeMeters>335.399993896484375</AltitudeMeters>
            <DistanceMeters>NAN</DistanceMeters>
          </Trackpoint>
          <Trackpoint>
            <Time>2022-09-22T10:51:20.000Z</Time>
            <Position>
              <LatitudeDegrees>49.52745088376104831695556640625</LatitudeDegrees>
              <LongitudeDegrees>20.51638078875839710235595703125</LongitudeDegrees>
            </Position>
            <AltitudeMeters>335.20001220703125</AltitudeMeters>
            <DistanceMeters>NAN</DistanceMeters>
          </Trackpoint>
          <Trackpoint>
            <Time>2022-09-22T10:51:26.000Z</Time>
            <Position>
              <LatitudeDegrees>49.5275894366204738616943359375</LatitudeDegrees>
              <LongitudeDegrees>20.51665236242115497589111328125</LongitudeDegrees>
            </Position>
            <AltitudeMeters>335.20001220703125</AltitudeMeters>
            <DistanceMeters>NAN</DistanceMeters>
          </Trackpoint>
          <Trackpoint>
            <Time>2022-09-22T10:51:28.000Z</Time>
            <Position>
              <LatitudeDegrees>49.52762824483215808868408203125</LatitudeDegrees>
              <LongitudeDegrees>20.51674875430762767791748046875</LongitudeDegrees>
            </Position>
            <AltitudeMeters>335</AltitudeMeters>
            <DistanceMeters>NAN</DistanceMeters>
          </Trackpoint>
          <Trackpoint>
            <Time>2022-09-22T10:51:32.000Z</Time>
            <Position>
              <LatitudeDegrees>49.52771390788257122039794921875</LatitudeDegrees>
              <LongitudeDegrees>20.51694271154701709747314453125</LongitudeDegrees>
            </Position>
            <AltitudeMeters>335</AltitudeMeters>
            <DistanceMeters>NAN</DistanceMeters>
          </Trackpoint>
          <Trackpoint>
            <Time>2022-09-22T10:51:39.000Z</Time>
            <Position>
              <LatitudeDegrees>49.5278700627386569976806640625</LatitudeDegrees>
              <LongitudeDegrees>20.51719752140343189239501953125</LongitudeDegrees>
            </Position>
            <AltitudeMeters>335</AltitudeMeters>
            <DistanceMeters>NAN</DistanceMeters>
          </Trackpoint>
          <Trackpoint>
            <Time>2022-09-22T10:51:45.000Z</Time>
            <Position>
              <LatitudeDegrees>49.5280021615326404571533203125</LatitudeDegrees>
              <LongitudeDegrees>20.5174572765827178955078125</LongitudeDegrees>
            </Position>
            <AltitudeMeters>334.79998779296875</AltitudeMeters>
            <DistanceMeters>NAN</DistanceMeters>
          </Trackpoint>
          <Trackpoint>
            <Time>2022-09-22T10:51:51.000Z</Time>
            <Position>
              <LatitudeDegrees>49.52815420925617218017578125</LatitudeDegrees>
              <LongitudeDegrees>20.51772139035165309906005859375</LongitudeDegrees>
            </Position>
            <AltitudeMeters>334.600006103515625</AltitudeMeters>
            <DistanceMeters>NAN</DistanceMeters>
          </Trackpoint>
          <Trackpoint>
            <Time>2022-09-22T10:51:55.000Z</Time>
            <Position>
              <LatitudeDegrees>49.5282755792140960693359375</LatitudeDegrees>
              <LongitudeDegrees>20.51789238117635250091552734375</LongitudeDegrees>
            </Position>
            <AltitudeMeters>334.399993896484375</AltitudeMeters>
            <DistanceMeters>NAN</DistanceMeters>
          </Trackpoint>
          <Trackpoint>
            <Time>2022-09-22T10:51:57.000Z</Time>
            <Position>
              <LatitudeDegrees>49.52832989394664764404296875</LatitudeDegrees>
              <LongitudeDegrees>20.5179895274341106414794921875</LongitudeDegrees>
            </Position>
            <AltitudeMeters>334.20001220703125</AltitudeMeters>
            <DistanceMeters>NAN</DistanceMeters>
          </Trackpoint>
          <Trackpoint>
            <Time>2022-09-22T10:52:04.000Z</Time>
            <Position>
              <LatitudeDegrees>49.52845838852226734161376953125</LatitudeDegrees>
              <LongitudeDegrees>20.51834014244377613067626953125</LongitudeDegrees>
            </Position>
            <AltitudeMeters>334.399993896484375</AltitudeMeters>
            <DistanceMeters>NAN</DistanceMeters>
          </Trackpoint>
          <Trackpoint>
            <Time>2022-09-22T10:52:07.000Z</Time>
            <Position>
              <LatitudeDegrees>49.5284779183566570281982421875</LatitudeDegrees>
              <LongitudeDegrees>20.51850174553692340850830078125</LongitudeDegrees>
            </Position>
            <AltitudeMeters>334.399993896484375</AltitudeMeters>
            <DistanceMeters>NAN</DistanceMeters>
          </Trackpoint>
          <Trackpoint>
            <Time>2022-09-22T10:52:08.000Z</Time>
            <Position>
              <LatitudeDegrees>49.5284812711179256439208984375</LatitudeDegrees>
              <LongitudeDegrees>20.51854826509952545166015625</LongitudeDegrees>
            </Position>
            <AltitudeMeters>334.399993896484375</AltitudeMeters>
            <DistanceMeters>NAN</DistanceMeters>
          </Trackpoint>
          <Trackpoint>
            <Time>2022-09-22T10:52:09.000Z</Time>
            <Position>
              <LatitudeDegrees>49.528493173420429229736328125</LatitudeDegrees>
              <LongitudeDegrees>20.518599562346935272216796875</LongitudeDegrees>
            </Position>
            <AltitudeMeters>334.399993896484375</AltitudeMeters>
            <DistanceMeters>NAN</DistanceMeters>
          </Trackpoint>
          <Trackpoint>
            <Time>2022-09-22T10:52:10.000Z</Time>
            <Position>
              <LatitudeDegrees>49.52850901521742343902587890625</LatitudeDegrees>
              <LongitudeDegrees>20.51865781657397747039794921875</LongitudeDegrees>
            </Position>
            <AltitudeMeters>334.399993896484375</AltitudeMeters>
            <DistanceMeters>NAN</DistanceMeters>
          </Trackpoint>
          <Trackpoint>
            <Time>2022-09-22T10:52:13.000Z</Time>
            <Position>
              <LatitudeDegrees>49.52856735326349735260009765625</LatitudeDegrees>
              <LongitudeDegrees>20.5188136361539363861083984375</LongitudeDegrees>
            </Position>
            <AltitudeMeters>334.399993896484375</AltitudeMeters>
            <DistanceMeters>NAN</DistanceMeters>
          </Trackpoint>
          <Trackpoint>
            <Time>2022-09-22T10:52:15.000Z</Time>
            <Position>
              <LatitudeDegrees>49.5286103524267673492431640625</LatitudeDegrees>
              <LongitudeDegrees>20.518896616995334625244140625</LongitudeDegrees>
            </Position>
            <AltitudeMeters>334.600006103515625</AltitudeMeters>
            <DistanceMeters>NAN</DistanceMeters>
          </Trackpoint>
          <Trackpoint>
            <Time>2022-09-22T10:52:19.000Z</Time>
            <Position>
              <LatitudeDegrees>49.52872149646282196044921875</LatitudeDegrees>
              <LongitudeDegrees>20.5190332420170307159423828125</LongitudeDegrees>
            </Position>
            <AltitudeMeters>334.79998779296875</AltitudeMeters>
            <DistanceMeters>NAN</DistanceMeters>
          </Trackpoint>
          <Trackpoint>
            <Time>2022-09-22T10:52:22.000Z</Time>
            <Position>
              <LatitudeDegrees>49.52880187891423702239990234375</LatitudeDegrees>
              <LongitudeDegrees>20.51910121925175189971923828125</LongitudeDegrees>
            </Position>
            <AltitudeMeters>335</AltitudeMeters>
            <DistanceMeters>NAN</DistanceMeters>
          </Trackpoint>
          <Trackpoint>
            <Time>2022-09-22T10:52:26.000Z</Time>
            <Position>
              <LatitudeDegrees>49.52892241068184375762939453125</LatitudeDegrees>
              <LongitudeDegrees>20.5192448012530803680419921875</LongitudeDegrees>
            </Position>
            <AltitudeMeters>335</AltitudeMeters>
            <DistanceMeters>NAN</DistanceMeters>
          </Trackpoint>
          <Trackpoint>
            <Time>2022-09-22T10:52:30.000Z</Time>
            <Position>
              <LatitudeDegrees>49.5290271006524562835693359375</LatitudeDegrees>
              <LongitudeDegrees>20.51945082843303680419921875</LongitudeDegrees>
            </Position>
            <AltitudeMeters>334.600006103515625</AltitudeMeters>
            <DistanceMeters>NAN</DistanceMeters>
          </Trackpoint>
          <Trackpoint>
            <Time>2022-09-22T10:52:32.000Z</Time>
            <Position>
              <LatitudeDegrees>49.52907152473926544189453125</LatitudeDegrees>
              <LongitudeDegrees>20.5195763893425464630126953125</LongitudeDegrees>
            </Position>
            <AltitudeMeters>334.600006103515625</AltitudeMeters>
            <DistanceMeters>NAN</DistanceMeters>
          </Trackpoint>
          <Trackpoint>
            <Time>2022-09-22T10:52:37.000Z</Time>
            <Position>
              <LatitudeDegrees>49.52918359078466892242431640625</LatitudeDegrees>
              <LongitudeDegrees>20.51987486891448497772216796875</LongitudeDegrees>
            </Position>
            <AltitudeMeters>334.399993896484375</AltitudeMeters>
            <DistanceMeters>NAN</DistanceMeters>
          </Trackpoint>
          <Trackpoint>
            <Time>2022-09-22T10:52:42.000Z</Time>
            <Position>
              <LatitudeDegrees>49.5292867720127105712890625</LatitudeDegrees>
              <LongitudeDegrees>20.52017477340996265411376953125</LongitudeDegrees>
            </Position>
            <AltitudeMeters>334.20001220703125</AltitudeMeters>
            <DistanceMeters>NAN</DistanceMeters>
          </Trackpoint>
          <Trackpoint>
            <Time>2022-09-22T10:52:43.000Z</Time>
            <Position>
              <LatitudeDegrees>49.52933949418365955352783203125</LatitudeDegrees>
              <LongitudeDegrees>20.52023495547473430633544921875</LongitudeDegrees>
            </Position>
            <AltitudeMeters>334.20001220703125</AltitudeMeters>
            <DistanceMeters>NAN</DistanceMeters>
          </Trackpoint>
          <Trackpoint>
            <Time>2022-09-22T10:52:49.000Z</Time>
            <Position>
              <LatitudeDegrees>49.5294964872300624847412109375</LatitudeDegrees>
              <LongitudeDegrees>20.520551539957523345947265625</LongitudeDegrees>
            </Position>
            <AltitudeMeters>333.79998779296875</AltitudeMeters>
            <DistanceMeters>NAN</DistanceMeters>
          </Trackpoint>
          <Trackpoint>
            <Time>2022-09-22T10:52:53.000Z</Time>
            <Position>
              <LatitudeDegrees>49.52963889576494693756103515625</LatitudeDegrees>
              <LongitudeDegrees>20.52076913416385650634765625</LongitudeDegrees>
            </Position>
            <AltitudeMeters>334</AltitudeMeters>
            <DistanceMeters>NAN</DistanceMeters>
          </Trackpoint>
          <Trackpoint>
            <Time>2022-09-22T10:52:59.000Z</Time>
            <Position>
              <LatitudeDegrees>49.5297561585903167724609375</LatitudeDegrees>
              <LongitudeDegrees>20.52100759930908679962158203125</LongitudeDegrees>
            </Position>
            <AltitudeMeters>334.399993896484375</AltitudeMeters>
            <DistanceMeters>NAN</DistanceMeters>
          </Trackpoint>
          <Trackpoint>
            <Time>2022-09-22T10:53:00.000Z</Time>
            <Position>
              <LatitudeDegrees>49.529785998165607452392578125</LatitudeDegrees>
              <LongitudeDegrees>20.52104967646300792694091796875</LongitudeDegrees>
            </Position>
            <AltitudeMeters>334.399993896484375</AltitudeMeters>
            <DistanceMeters>NAN</DistanceMeters>
          </Trackpoint>
          <Trackpoint>
            <Time>2022-09-22T10:53:04.000Z</Time>
            <Position>
              <LatitudeDegrees>49.52988364733755588531494140625</LatitudeDegrees>
              <LongitudeDegrees>20.521175153553485870361328125</LongitudeDegrees>
            </Position>
            <AltitudeMeters>334.79998779296875</AltitudeMeters>
            <DistanceMeters>NAN</DistanceMeters>
          </Trackpoint>
          <Trackpoint>
            <Time>2022-09-22T10:53:07.000Z</Time>
            <Position>
              <LatitudeDegrees>49.529957659542560577392578125</LatitudeDegrees>
              <LongitudeDegrees>20.52124681882560253143310546875</LongitudeDegrees>
            </Position>
            <AltitudeMeters>335.20001220703125</AltitudeMeters>
            <DistanceMeters>NAN</DistanceMeters>
          </Trackpoint>
          <Trackpoint>
            <Time>2022-09-22T10:53:10.000Z</Time>
            <Position>
              <LatitudeDegrees>49.53002563677728176116943359375</LatitudeDegrees>
              <LongitudeDegrees>20.5212940089404582977294921875</LongitudeDegrees>
            </Position>
            <AltitudeMeters>335.399993896484375</AltitudeMeters>
            <DistanceMeters>NAN</DistanceMeters>
          </Trackpoint>
          <Trackpoint>
            <Time>2022-09-22T10:53:12.000Z</Time>
            <Position>
              <LatitudeDegrees>49.5300768502056598663330078125</LatitudeDegrees>
              <LongitudeDegrees>20.5213429592549800872802734375</LongitudeDegrees>
            </Position>
            <AltitudeMeters>335.399993896484375</AltitudeMeters>
            <DistanceMeters>NAN</DistanceMeters>
          </Trackpoint>
          <Trackpoint>
            <Time>2022-09-22T10:53:13.000Z</Time>
            <Position>
              <LatitudeDegrees>49.5301056839525699615478515625</LatitudeDegrees>
              <LongitudeDegrees>20.52139366976916790008544921875</LongitudeDegrees>
            </Position>
            <AltitudeMeters>335.399993896484375</AltitudeMeters>
            <DistanceMeters>NAN</DistanceMeters>
          </Trackpoint>
          <Trackpoint>
            <Time>2022-09-22T10:53:18.000Z</Time>
            <Position>
              <LatitudeDegrees>49.530201070010662078857421875</LatitudeDegrees>
              <LongitudeDegrees>20.52169986069202423095703125</LongitudeDegrees>
            </Position>
            <AltitudeMeters>334.399993896484375</AltitudeMeters>
            <DistanceMeters>NAN</DistanceMeters>
          </Trackpoint>
          <Trackpoint>
            <Time>2022-09-22T10:53:20.000Z</Time>
            <Position>
              <LatitudeDegrees>49.53028027899563312530517578125</LatitudeDegrees>
              <LongitudeDegrees>20.52177169360220432281494140625</LongitudeDegrees>
            </Position>
            <AltitudeMeters>334.20001220703125</AltitudeMeters>
            <DistanceMeters>NAN</DistanceMeters>
          </Trackpoint>
          <Trackpoint>
            <Time>2022-09-22T10:53:22.000Z</Time>
            <Position>
              <LatitudeDegrees>49.53036577440798282623291015625</LatitudeDegrees>
              <LongitudeDegrees>20.5218136869370937347412109375</LongitudeDegrees>
            </Position>
            <AltitudeMeters>334</AltitudeMeters>
            <DistanceMeters>NAN</DistanceMeters>
          </Trackpoint>
          <Trackpoint>
            <Time>2022-09-22T10:53:24.000Z</Time>
            <Position>
              <LatitudeDegrees>49.53044389374554157257080078125</LatitudeDegrees>
              <LongitudeDegrees>20.5218706838786602020263671875</LongitudeDegrees>
            </Position>
            <AltitudeMeters>334</AltitudeMeters>
            <DistanceMeters>NAN</DistanceMeters>
          </Trackpoint>
          <Trackpoint>
            <Time>2022-09-22T10:53:27.000Z</Time>
            <Position>
              <LatitudeDegrees>49.5305728912353515625</LatitudeDegrees>
              <LongitudeDegrees>20.5220279283821582794189453125</LongitudeDegrees>
            </Position>
            <AltitudeMeters>334.600006103515625</AltitudeMeters>
            <DistanceMeters>NAN</DistanceMeters>
          </Trackpoint>
          <Trackpoint>
            <Time>2022-09-22T10:53:30.000Z</Time>
            <Position>
              <LatitudeDegrees>49.53066551126539707183837890625</LatitudeDegrees>
              <LongitudeDegrees>20.52222481928765773773193359375</LongitudeDegrees>
            </Position>
            <AltitudeMeters>334.79998779296875</AltitudeMeters>
            <DistanceMeters>NAN</DistanceMeters>
          </Trackpoint>
          <Trackpoint>
            <Time>2022-09-22T10:53:36.000Z</Time>
            <Position>
              <LatitudeDegrees>49.5307876355946063995361328125</LatitudeDegrees>
              <LongitudeDegrees>20.52256847731769084930419921875</LongitudeDegrees>
            </Position>
            <AltitudeMeters>334.399993896484375</AltitudeMeters>
            <DistanceMeters>NAN</DistanceMeters>
          </Trackpoint>
          <Trackpoint>
            <Time>2022-09-22T10:53:40.000Z</Time>
            <Position>
              <LatitudeDegrees>49.53082879073917865753173828125</LatitudeDegrees>
              <LongitudeDegrees>20.5226994864642620086669921875</LongitudeDegrees>
            </Position>
            <AltitudeMeters>334.399993896484375</AltitudeMeters>
            <DistanceMeters>NAN</DistanceMeters>
          </Trackpoint>
          <Trackpoint>
            <Time>2022-09-22T10:53:43.000Z</Time>
            <Position>
              <LatitudeDegrees>49.53088478185236454010009765625</LatitudeDegrees>
              <LongitudeDegrees>20.5228017456829547882080078125</LongitudeDegrees>
            </Position>
            <AltitudeMeters>334.399993896484375</AltitudeMeters>
            <DistanceMeters>NAN</DistanceMeters>
          </Trackpoint>
          <Trackpoint>
            <Time>2022-09-22T10:53:46.000Z</Time>
            <Position>
              <LatitudeDegrees>49.53093037940561771392822265625</LatitudeDegrees>
              <LongitudeDegrees>20.52293141372501850128173828125</LongitudeDegrees>
            </Position>
            <AltitudeMeters>333.79998779296875</AltitudeMeters>
            <DistanceMeters>NAN</DistanceMeters>
          </Trackpoint>
          <Trackpoint>
            <Time>2022-09-22T10:53:47.000Z</Time>
            <Position>
              <LatitudeDegrees>49.53095116652548313140869140625</LatitudeDegrees>
              <LongitudeDegrees>20.52298539318144321441650390625</LongitudeDegrees>
            </Position>
            <AltitudeMeters>333.399993896484375</AltitudeMeters>
            <DistanceMeters>NAN</DistanceMeters>
          </Trackpoint>
          <Trackpoint>
            <Time>2022-09-22T10:53:51.000Z</Time>
            <Position>
              <LatitudeDegrees>49.53103213571012020111083984375</LatitudeDegrees>
              <LongitudeDegrees>20.5232329107820987701416015625</LongitudeDegrees>
            </Position>
            <AltitudeMeters>333</AltitudeMeters>
            <DistanceMeters>NAN</DistanceMeters>
          </Trackpoint>
          <Trackpoint>
            <Time>2022-09-22T10:53:52.000Z</Time>
            <Position>
              <LatitudeDegrees>49.5310514979064464569091796875</LatitudeDegrees>
              <LongitudeDegrees>20.52330038510262966156005859375</LongitudeDegrees>
            </Position>
            <AltitudeMeters>332.79998779296875</AltitudeMeters>
            <DistanceMeters>NAN</DistanceMeters>
          </Trackpoint>
          <Trackpoint>
            <Time>2022-09-22T10:53:55.000Z</Time>
            <Position>
              <LatitudeDegrees>49.5311038009822368621826171875</LatitudeDegrees>
              <LongitudeDegrees>20.52350356243550777435302734375</LongitudeDegrees>
            </Position>
            <AltitudeMeters>332.600006103515625</AltitudeMeters>
            <DistanceMeters>NAN</DistanceMeters>
          </Trackpoint>
          <Trackpoint>
            <Time>2022-09-22T10:53:56.000Z</Time>
            <Position>
              <LatitudeDegrees>49.53111176379024982452392578125</LatitudeDegrees>
              <LongitudeDegrees>20.52357598207890987396240234375</LongitudeDegrees>
            </Position>
            <AltitudeMeters>332.600006103515625</AltitudeMeters>
            <DistanceMeters>NAN</DistanceMeters>
          </Trackpoint>
          <Trackpoint>
            <Time>2022-09-22T10:53:57.000Z</Time>
            <Position>
              <LatitudeDegrees>49.531117044389247894287109375</LatitudeDegrees>
              <LongitudeDegrees>20.523650832474231719970703125</LongitudeDegrees>
            </Position>
            <AltitudeMeters>332.600006103515625</AltitudeMeters>
            <DistanceMeters>NAN</DistanceMeters>
          </Trackpoint>
          <Trackpoint>
            <Time>2022-09-22T10:53:59.000Z</Time>
            <Position>
              <LatitudeDegrees>49.531130455434322357177734375</LatitudeDegrees>
              <LongitudeDegrees>20.523799695074558258056640625</LongitudeDegrees>
            </Position>
            <AltitudeMeters>332.399993896484375</AltitudeMeters>
            <DistanceMeters>NAN</DistanceMeters>
          </Trackpoint>
          <Trackpoint>
            <Time>2022-09-22T10:54:01.000Z</Time>
            <Position>
              <LatitudeDegrees>49.53114964999258518218994140625</LatitudeDegrees>
              <LongitudeDegrees>20.52396154962480068206787109375</LongitudeDegrees>
            </Position>
            <AltitudeMeters>332.399993896484375</AltitudeMeters>
            <DistanceMeters>NAN</DistanceMeters>
          </Trackpoint>
          <Trackpoint>
            <Time>2022-09-22T10:54:03.000Z</Time>
            <Position>
              <LatitudeDegrees>49.5311825908720493316650390625</LatitudeDegrees>
              <LongitudeDegrees>20.5241059698164463043212890625</LongitudeDegrees>
            </Position>
            <AltitudeMeters>332.399993896484375</AltitudeMeters>
            <DistanceMeters>NAN</DistanceMeters>
          </Trackpoint>
          <Trackpoint>
            <Time>2022-09-22T10:54:04.000Z</Time>
            <Position>
              <LatitudeDegrees>49.53120513819158077239990234375</LatitudeDegrees>
              <LongitudeDegrees>20.52417394705116748809814453125</LongitudeDegrees>
            </Position>
            <AltitudeMeters>332.399993896484375</AltitudeMeters>
            <DistanceMeters>NAN</DistanceMeters>
          </Trackpoint>
          <Trackpoint>
            <Time>2022-09-22T10:54:07.000Z</Time>
            <Position>
              <LatitudeDegrees>49.53129985369741916656494140625</LatitudeDegrees>
              <LongitudeDegrees>20.52437041886150836944580078125</LongitudeDegrees>
            </Position>
            <AltitudeMeters>332.20001220703125</AltitudeMeters>
            <DistanceMeters>NAN</DistanceMeters>
          </Trackpoint>
          <Trackpoint>
            <Time>2022-09-22T10:54:11.000Z</Time>
            <Position>
              <LatitudeDegrees>49.53141711652278900146484375</LatitudeDegrees>
              <LongitudeDegrees>20.52464182488620281219482421875</LongitudeDegrees>
            </Position>
            <AltitudeMeters>332.20001220703125</AltitudeMeters>
            <DistanceMeters>NAN</DistanceMeters>
          </Trackpoint>
          <Trackpoint>
            <Time>2022-09-22T10:54:12.000Z</Time>
            <Position>
              <LatitudeDegrees>49.53143455088138580322265625</LatitudeDegrees>
              <LongitudeDegrees>20.5247101373970508575439453125</LongitudeDegrees>
            </Position>
            <AltitudeMeters>332.20001220703125</AltitudeMeters>
            <DistanceMeters>NAN</DistanceMeters>
          </Trackpoint>
          <Trackpoint>
            <Time>2022-09-22T10:54:17.000Z</Time>
            <Position>
              <LatitudeDegrees>49.531500600278377532958984375</LatitudeDegrees>
              <LongitudeDegrees>20.52503342740237712860107421875</LongitudeDegrees>
            </Position>
            <AltitudeMeters>332.399993896484375</AltitudeMeters>
            <DistanceMeters>NAN</DistanceMeters>
          </Trackpoint>
          <Trackpoint>
            <Time>2022-09-22T10:54:18.000Z</Time>
            <Position>
              <LatitudeDegrees>49.53151711262762546539306640625</LatitudeDegrees>
              <LongitudeDegrees>20.525097213685512542724609375</LongitudeDegrees>
            </Position>
            <AltitudeMeters>332.600006103515625</AltitudeMeters>
            <DistanceMeters>NAN</DistanceMeters>
          </Trackpoint>
          <Trackpoint>
            <Time>2022-09-22T10:54:22.000Z</Time>
            <Position>
              <LatitudeDegrees>49.53160579316318035125732421875</LatitudeDegrees>
              <LongitudeDegrees>20.525356717407703399658203125</LongitudeDegrees>
            </Position>
            <AltitudeMeters>332.399993896484375</AltitudeMeters>
            <DistanceMeters>NAN</DistanceMeters>
          </Trackpoint>
          <Trackpoint>
            <Time>2022-09-22T10:54:25.000Z</Time>
            <Position>
              <LatitudeDegrees>49.53167519532144069671630859375</LatitudeDegrees>
              <LongitudeDegrees>20.5255560390651226043701171875</LongitudeDegrees>
            </Position>
            <AltitudeMeters>332.20001220703125</AltitudeMeters>
            <DistanceMeters>NAN</DistanceMeters>
          </Trackpoint>
          <Trackpoint>
            <Time>2022-09-22T10:54:26.000Z</Time>
            <Position>
              <LatitudeDegrees>49.53169648535549640655517578125</LatitudeDegrees>
              <LongitudeDegrees>20.5256247706711292266845703125</LongitudeDegrees>
            </Position>
            <AltitudeMeters>332.20001220703125</AltitudeMeters>
            <DistanceMeters>NAN</DistanceMeters>
          </Trackpoint>
          <Trackpoint>
            <Time>2022-09-22T10:54:28.000Z</Time>
            <Position>
              <LatitudeDegrees>49.531738646328449249267578125</LatitudeDegrees>
              <LongitudeDegrees>20.52575536072254180908203125</LongitudeDegrees>
            </Position>
            <AltitudeMeters>331.79998779296875</AltitudeMeters>
            <DistanceMeters>NAN</DistanceMeters>
          </Trackpoint>
          <Trackpoint>
            <Time>2022-09-22T10:54:32.000Z</Time>
            <Position>
              <LatitudeDegrees>49.53181986697018146514892578125</LatitudeDegrees>
              <LongitudeDegrees>20.52600438706576824188232421875</LongitudeDegrees>
            </Position>
            <AltitudeMeters>332</AltitudeMeters>
            <DistanceMeters>NAN</DistanceMeters>
          </Trackpoint>
          <Trackpoint>
            <Time>2022-09-22T10:54:34.000Z</Time>
            <Position>
              <LatitudeDegrees>49.5318507961928844451904296875</LatitudeDegrees>
              <LongitudeDegrees>20.52612240426242351531982421875</LongitudeDegrees>
            </Position>
            <AltitudeMeters>332.20001220703125</AltitudeMeters>
            <DistanceMeters>NAN</DistanceMeters>
          </Trackpoint>
          <Trackpoint>
            <Time>2022-09-22T10:54:37.000Z</Time>
            <Position>
              <LatitudeDegrees>49.531889855861663818359375</LatitudeDegrees>
              <LongitudeDegrees>20.52629272453486919403076171875</LongitudeDegrees>
            </Position>
            <AltitudeMeters>332.600006103515625</AltitudeMeters>
            <DistanceMeters>NAN</DistanceMeters>
          </Trackpoint>
          <Trackpoint>
            <Time>2022-09-22T10:54:39.000Z</Time>
            <Position>
              <LatitudeDegrees>49.531908296048641204833984375</LatitudeDegrees>
              <LongitudeDegrees>20.52638861350715160369873046875</LongitudeDegrees>
            </Position>
            <AltitudeMeters>333</AltitudeMeters>
            <DistanceMeters>NAN</DistanceMeters>
          </Trackpoint>
          <Trackpoint>
            <Time>2022-09-22T10:54:43.000Z</Time>
            <Position>
              <LatitudeDegrees>49.53193251974880695343017578125</LatitudeDegrees>
              <LongitudeDegrees>20.52653278224170207977294921875</LongitudeDegrees>
            </Position>
            <AltitudeMeters>333.600006103515625</AltitudeMeters>
            <DistanceMeters>NAN</DistanceMeters>
          </Trackpoint>
          <Trackpoint>
            <Time>2022-09-22T10:54:45.000Z</Time>
            <Position>
              <LatitudeDegrees>49.5319490320980548858642578125</LatitudeDegrees>
              <LongitudeDegrees>20.52660159766674041748046875</LongitudeDegrees>
            </Position>
            <AltitudeMeters>333.600006103515625</AltitudeMeters>
            <DistanceMeters>NAN</DistanceMeters>
          </Trackpoint>
          <Trackpoint>
            <Time>2022-09-22T10:54:51.000Z</Time>
            <Position>
              <LatitudeDegrees>49.53204718418419361114501953125</LatitudeDegrees>
              <LongitudeDegrees>20.52686520852148532867431640625</LongitudeDegrees>
            </Position>
            <AltitudeMeters>333.20001220703125</AltitudeMeters>
            <DistanceMeters>NAN</DistanceMeters>
          </Trackpoint>
          <Trackpoint>
            <Time>2022-09-22T10:54:52.000Z</Time>
            <Position>
              <LatitudeDegrees>49.5320854894816875457763671875</LatitudeDegrees>
              <LongitudeDegrees>20.52689018659293651580810546875</LongitudeDegrees>
            </Position>
            <AltitudeMeters>333</AltitudeMeters>
            <DistanceMeters>NAN</DistanceMeters>
          </Trackpoint>
          <Trackpoint>
            <Time>2022-09-22T10:54:54.000Z</Time>
            <Position>
              <LatitudeDegrees>49.53217928297817707061767578125</LatitudeDegrees>
              <LongitudeDegrees>20.52691533230245113372802734375</LongitudeDegrees>
            </Position>
            <AltitudeMeters>332.79998779296875</AltitudeMeters>
            <DistanceMeters>NAN</DistanceMeters>
          </Trackpoint>
          <Trackpoint>
            <Time>2022-09-22T10:54:55.000Z</Time>
            <Position>
              <LatitudeDegrees>49.53222689218819141387939453125</LatitudeDegrees>
              <LongitudeDegrees>20.52692388184368610382080078125</LongitudeDegrees>
            </Position>
            <AltitudeMeters>332.600006103515625</AltitudeMeters>
            <DistanceMeters>NAN</DistanceMeters>
          </Trackpoint>
          <Trackpoint>
            <Time>2022-09-22T10:54:56.000Z</Time>
            <Position>
              <LatitudeDegrees>49.53227542340755462646484375</LatitudeDegrees>
              <LongitudeDegrees>20.52693645469844341278076171875</LongitudeDegrees>
            </Position>
            <AltitudeMeters>332.399993896484375</AltitudeMeters>
            <DistanceMeters>NAN</DistanceMeters>
          </Trackpoint>
          <Trackpoint>
            <Time>2022-09-22T10:54:57.000Z</Time>
            <Position>
              <LatitudeDegrees>49.532328061759471893310546875</LatitudeDegrees>
              <LongitudeDegrees>20.52694492042064666748046875</LongitudeDegrees>
            </Position>
            <AltitudeMeters>332.20001220703125</AltitudeMeters>
            <DistanceMeters>NAN</DistanceMeters>
          </Trackpoint>
          <Trackpoint>
            <Time>2022-09-22T10:55:00.000Z</Time>
            <Position>
              <LatitudeDegrees>49.53248673118650913238525390625</LatitudeDegrees>
              <LongitudeDegrees>20.52694181911647319793701171875</LongitudeDegrees>
            </Position>
            <AltitudeMeters>331.600006103515625</AltitudeMeters>
            <DistanceMeters>NAN</DistanceMeters>
          </Trackpoint>
          <Trackpoint>
            <Time>2022-09-22T10:55:02.000Z</Time>
            <Position>
              <LatitudeDegrees>49.5325800217688083648681640625</LatitudeDegrees>
              <LongitudeDegrees>20.5269631929695606231689453125</LongitudeDegrees>
            </Position>
            <AltitudeMeters>331.600006103515625</AltitudeMeters>
            <DistanceMeters>NAN</DistanceMeters>
          </Trackpoint>
          <Trackpoint>
            <Time>2022-09-22T10:55:05.000Z</Time>
            <Position>
              <LatitudeDegrees>49.53269896097481250762939453125</LatitudeDegrees>
              <LongitudeDegrees>20.52703804336488246917724609375</LongitudeDegrees>
            </Position>
            <AltitudeMeters>331.79998779296875</AltitudeMeters>
            <DistanceMeters>NAN</DistanceMeters>
          </Trackpoint>
          <Trackpoint>
            <Time>2022-09-22T10:55:09.000Z</Time>
            <Position>
              <LatitudeDegrees>49.53279501758515834808349609375</LatitudeDegrees>
              <LongitudeDegrees>20.52722982130944728851318359375</LongitudeDegrees>
            </Position>
            <AltitudeMeters>332</AltitudeMeters>
            <DistanceMeters>NAN</DistanceMeters>
          </Trackpoint>
          <Trackpoint>
            <Time>2022-09-22T10:55:16.000Z</Time>
            <Position>
              <LatitudeDegrees>49.53294999897480010986328125</LatitudeDegrees>
              <LongitudeDegrees>20.52766241133213043212890625</LongitudeDegrees>
            </Position>
            <AltitudeMeters>331.600006103515625</AltitudeMeters>
            <DistanceMeters>NAN</DistanceMeters>
          </Trackpoint>
          <Trackpoint>
            <Time>2022-09-22T10:55:17.000Z</Time>
            <Position>
              <LatitudeDegrees>49.53297506086528301239013671875</LatitudeDegrees>
              <LongitudeDegrees>20.52773055620491504669189453125</LongitudeDegrees>
            </Position>
            <AltitudeMeters>331.399993896484375</AltitudeMeters>
            <DistanceMeters>NAN</DistanceMeters>
          </Trackpoint>
          <Trackpoint>
            <Time>2022-09-22T10:55:22.000Z</Time>
            <Position>
              <LatitudeDegrees>49.5330872945487499237060546875</LatitudeDegrees>
              <LongitudeDegrees>20.5280685983598232269287109375</LongitudeDegrees>
            </Position>
            <AltitudeMeters>331.20001220703125</AltitudeMeters>
            <DistanceMeters>NAN</DistanceMeters>
          </Trackpoint>
          <Trackpoint>
            <Time>2022-09-22T10:55:23.000Z</Time>
            <Position>
              <LatitudeDegrees>49.53310481272637844085693359375</LatitudeDegrees>
              <LongitudeDegrees>20.5281353183090686798095703125</LongitudeDegrees>
            </Position>
            <AltitudeMeters>331.79998779296875</AltitudeMeters>
            <DistanceMeters>NAN</DistanceMeters>
          </Trackpoint>
          <Trackpoint>
            <Time>2022-09-22T10:55:27.000Z</Time>
            <Position>
              <LatitudeDegrees>49.53317589126527309417724609375</LatitudeDegrees>
              <LongitudeDegrees>20.5283844284713268280029296875</LongitudeDegrees>
            </Position>
            <AltitudeMeters>332</AltitudeMeters>
            <DistanceMeters>NAN</DistanceMeters>
          </Trackpoint>
          <Trackpoint>
            <Time>2022-09-22T10:55:29.000Z</Time>
            <Position>
              <LatitudeDegrees>49.533194415271282196044921875</LatitudeDegrees>
              <LongitudeDegrees>20.5285031162202358245849609375</LongitudeDegrees>
            </Position>
            <AltitudeMeters>331.79998779296875</AltitudeMeters>
            <DistanceMeters>NAN</DistanceMeters>
          </Trackpoint>
          <Trackpoint>
            <Time>2022-09-22T10:55:31.000Z</Time>
            <Position>
              <LatitudeDegrees>49.53320070169866085052490234375</LatitudeDegrees>
              <LongitudeDegrees>20.52862222306430339813232421875</LongitudeDegrees>
            </Position>
            <AltitudeMeters>331.79998779296875</AltitudeMeters>
            <DistanceMeters>NAN</DistanceMeters>
          </Trackpoint>
          <Trackpoint>
            <Time>2022-09-22T10:55:34.000Z</Time>
            <Position>
              <LatitudeDegrees>49.5332103408873081207275390625</LatitudeDegrees>
              <LongitudeDegrees>20.52869648672640323638916015625</LongitudeDegrees>
            </Position>
            <AltitudeMeters>331.79998779296875</AltitudeMeters>
            <DistanceMeters>NAN</DistanceMeters>
          </Trackpoint>
          <Trackpoint>
            <Time>2022-09-22T10:55:39.000Z</Time>
            <Position>
              <LatitudeDegrees>49.53320288099348545074462890625</LatitudeDegrees>
              <LongitudeDegrees>20.52866044454276561737060546875</LongitudeDegrees>
            </Position>
            <AltitudeMeters>331.600006103515625</AltitudeMeters>
            <DistanceMeters>NAN</DistanceMeters>
          </Trackpoint>
          <Trackpoint>
            <Time>2022-09-22T10:55:43.000Z</Time>
            <Position>
              <LatitudeDegrees>49.533193409442901611328125</LatitudeDegrees>
              <LongitudeDegrees>20.528612919151782989501953125</LongitudeDegrees>
            </Position>
            <AltitudeMeters>331.600006103515625</AltitudeMeters>
            <DistanceMeters>NAN</DistanceMeters>
          </Trackpoint>
          <Trackpoint>
            <Time>2022-09-22T10:55:44.000Z</Time>
            <Position>
              <LatitudeDegrees>49.53319181688129901885986328125</LatitudeDegrees>
              <LongitudeDegrees>20.5285926349461078643798828125</LongitudeDegrees>
            </Position>
            <AltitudeMeters>331.600006103515625</AltitudeMeters>
            <DistanceMeters>NAN</DistanceMeters>
          </Trackpoint>
          <Trackpoint>
            <Time>2022-09-22T10:55:45.000Z</Time>
            <Position>
              <LatitudeDegrees>49.53319081105291843414306640625</LatitudeDegrees>
              <LongitudeDegrees>20.528567321598529815673828125</LongitudeDegrees>
            </Position>
            <AltitudeMeters>331.600006103515625</AltitudeMeters>
            <DistanceMeters>NAN</DistanceMeters>
          </Trackpoint>
          <Trackpoint>
            <Time>2022-09-22T10:55:46.000Z</Time>
            <Position>
              <LatitudeDegrees>49.533192403614521026611328125</LatitudeDegrees>
              <LongitudeDegrees>20.52854762412607669830322265625</LongitudeDegrees>
            </Position>
            <AltitudeMeters>331.600006103515625</AltitudeMeters>
            <DistanceMeters>NAN</DistanceMeters>
          </Trackpoint>
          <Trackpoint>
            <Time>2022-09-22T10:55:48.000Z</Time>
            <Position>
              <LatitudeDegrees>49.53322316519916057586669921875</LatitudeDegrees>
              <LongitudeDegrees>20.5285379849374294281005859375</LongitudeDegrees>
            </Position>
            <AltitudeMeters>331.399993896484375</AltitudeMeters>
            <DistanceMeters>NAN</DistanceMeters>
          </Trackpoint>
          <Trackpoint>
            <Time>2022-09-22T10:55:49.000Z</Time>
            <Position>
              <LatitudeDegrees>49.53323565423488616943359375</LatitudeDegrees>
              <LongitudeDegrees>20.52853136323392391204833984375</LongitudeDegrees>
            </Position>
            <AltitudeMeters>331.399993896484375</AltitudeMeters>
            <DistanceMeters>NAN</DistanceMeters>
          </Trackpoint>
          <Trackpoint>
            <Time>2022-09-22T10:55:51.000Z</Time>
            <Position>
              <LatitudeDegrees>49.5332542620599269866943359375</LatitudeDegrees>
              <LongitudeDegrees>20.52849967963993549346923828125</LongitudeDegrees>
            </Position>
            <AltitudeMeters>331.399993896484375</AltitudeMeters>
            <DistanceMeters>NAN</DistanceMeters>
          </Trackpoint>
          <Trackpoint>
            <Time>2022-09-22T10:55:52.000Z</Time>
            <Position>
              <LatitudeDegrees>49.5332609675824642181396484375</LatitudeDegrees>
              <LongitudeDegrees>20.52848182618618011474609375</LongitudeDegrees>
            </Position>
            <AltitudeMeters>331.399993896484375</AltitudeMeters>
            <DistanceMeters>NAN</DistanceMeters>
          </Trackpoint>
          <Trackpoint>
            <Time>2022-09-22T10:55:54.000Z</Time>
            <Position>
              <LatitudeDegrees>49.53327278606593608856201171875</LatitudeDegrees>
              <LongitudeDegrees>20.528451986610889434814453125</LongitudeDegrees>
            </Position>
            <AltitudeMeters>331.399993896484375</AltitudeMeters>
            <DistanceMeters>NAN</DistanceMeters>
          </Trackpoint>
          <Trackpoint>
            <Time>2022-09-22T10:56:01.000Z</Time>
            <Position>
              <LatitudeDegrees>49.53328485600650310516357421875</LatitudeDegrees>
              <LongitudeDegrees>20.52843547426164150238037109375</LongitudeDegrees>
            </Position>
            <AltitudeMeters>331.399993896484375</AltitudeMeters>
            <DistanceMeters>NAN</DistanceMeters>
          </Trackpoint>
          <Trackpoint>
            <Time>2022-09-22T10:56:10.000Z</Time>
            <Position>
              <LatitudeDegrees>49.53328032977879047393798828125</LatitudeDegrees>
              <LongitudeDegrees>20.5284400843083858489990234375</LongitudeDegrees>
            </Position>
            <AltitudeMeters>331.399993896484375</AltitudeMeters>
            <DistanceMeters>NAN</DistanceMeters>
          </Trackpoint>
          <Trackpoint>
            <Time>2022-09-22T10:56:14.000Z</Time>
            <Position>
              <LatitudeDegrees>49.53328032977879047393798828125</LatitudeDegrees>
              <LongitudeDegrees>20.5284400843083858489990234375</LongitudeDegrees>
            </Position>
            <AltitudeMeters>331.399993896484375</AltitudeMeters>
            <DistanceMeters>NAN</DistanceMeters>
          </Trackpoint>
          <Trackpoint>
            <Time>2022-09-22T10:56:24.000Z</Time>
            <Position>
              <LatitudeDegrees>49.53328032977879047393798828125</LatitudeDegrees>
              <LongitudeDegrees>20.52844167686998844146728515625</LongitudeDegrees>
            </Position>
            <AltitudeMeters>331</AltitudeMeters>
            <DistanceMeters>NAN</DistanceMeters>
          </Trackpoint>
          <Trackpoint>
            <Time>2022-09-22T10:56:27.000Z</Time>
            <Position>
              <LatitudeDegrees>49.53328032977879047393798828125</LatitudeDegrees>
              <LongitudeDegrees>20.52844167686998844146728515625</LongitudeDegrees>
            </Position>
            <AltitudeMeters>331</AltitudeMeters>
            <DistanceMeters>NAN</DistanceMeters>
          </Trackpoint>
          <Trackpoint>
            <Time>2022-09-22T10:56:46.000Z</Time>
            <Position>
              <LatitudeDegrees>49.53327110968530178070068359375</LatitudeDegrees>
              <LongitudeDegrees>20.5284722708165645599365234375</LongitudeDegrees>
            </Position>
            <AltitudeMeters>330.600006103515625</AltitudeMeters>
            <DistanceMeters>NAN</DistanceMeters>
          </Trackpoint>
          <Trackpoint>
            <Time>2022-09-22T10:56:52.000Z</Time>
            <Position>
              <LatitudeDegrees>49.5332700200378894805908203125</LatitudeDegrees>
              <LongitudeDegrees>20.528472773730754852294921875</LongitudeDegrees>
            </Position>
            <AltitudeMeters>330.600006103515625</AltitudeMeters>
            <DistanceMeters>NAN</DistanceMeters>
          </Trackpoint>
          <Trackpoint>
            <Time>2022-09-22T10:56:59.000Z</Time>
            <Position>
              <LatitudeDegrees>49.53324546106159687042236328125</LatitudeDegrees>
              <LongitudeDegrees>20.52847788669168949127197265625</LongitudeDegrees>
            </Position>
            <AltitudeMeters>330.399993896484375</AltitudeMeters>
            <DistanceMeters>NAN</DistanceMeters>
          </Trackpoint>
          <Trackpoint>
            <Time>2022-09-22T10:57:05.000Z</Time>
            <Position>
              <LatitudeDegrees>49.53324076719582080841064453125</LatitudeDegrees>
              <LongitudeDegrees>20.528476797044277191162109375</LongitudeDegrees>
            </Position>
            <AltitudeMeters>330.399993896484375</AltitudeMeters>
            <DistanceMeters>NAN</DistanceMeters>
          </Trackpoint>
          <Trackpoint>
            <Time>2022-09-22T10:57:11.000Z</Time>
            <Position>
              <LatitudeDegrees>49.53324076719582080841064453125</LatitudeDegrees>
              <LongitudeDegrees>20.528476797044277191162109375</LongitudeDegrees>
            </Position>
            <AltitudeMeters>330.20001220703125</AltitudeMeters>
            <DistanceMeters>NAN</DistanceMeters>
          </Trackpoint>
          <Trackpoint>
            <Time>2022-09-22T10:57:33.000Z</Time>
            <Position>
              <LatitudeDegrees>49.53321796841919422149658203125</LatitudeDegrees>
              <LongitudeDegrees>20.52848492749035358428955078125</LongitudeDegrees>
            </Position>
            <AltitudeMeters>329.79998779296875</AltitudeMeters>
            <DistanceMeters>NAN</DistanceMeters>
          </Trackpoint>
          <Trackpoint>
            <Time>2022-09-22T10:57:36.000Z</Time>
            <Position>
              <LatitudeDegrees>49.53319466672837734222412109375</LatitudeDegrees>
              <LongitudeDegrees>20.52851661108434200286865234375</LongitudeDegrees>
            </Position>
            <AltitudeMeters>329.79998779296875</AltitudeMeters>
            <DistanceMeters>NAN</DistanceMeters>
          </Trackpoint>
          <Trackpoint>
            <Time>2022-09-22T10:57:43.000Z</Time>
            <Position>
              <LatitudeDegrees>49.5331798307597637176513671875</LatitudeDegrees>
              <LongitudeDegrees>20.528537817299365997314453125</LongitudeDegrees>
            </Position>
            <AltitudeMeters>330</AltitudeMeters>
            <DistanceMeters>NAN</DistanceMeters>
          </Trackpoint>
          <Trackpoint>
            <Time>2022-09-22T10:57:46.000Z</Time>
            <Position>
              <LatitudeDegrees>49.53319164924323558807373046875</LatitudeDegrees>
              <LongitudeDegrees>20.528583414852619171142578125</LongitudeDegrees>
            </Position>
            <AltitudeMeters>330</AltitudeMeters>
            <DistanceMeters>NAN</DistanceMeters>
          </Trackpoint>
          <Trackpoint>
            <Time>2022-09-22T10:57:47.000Z</Time>
            <Position>
              <LatitudeDegrees>49.5331935770809650421142578125</LatitudeDegrees>
              <LongitudeDegrees>20.52860847674310207366943359375</LongitudeDegrees>
            </Position>
            <AltitudeMeters>330</AltitudeMeters>
            <DistanceMeters>NAN</DistanceMeters>
          </Trackpoint>
          <Trackpoint>
            <Time>2022-09-22T10:57:52.000Z</Time>
            <Position>
              <LatitudeDegrees>49.53322534449398517608642578125</LatitudeDegrees>
              <LongitudeDegrees>20.5287870950996875762939453125</LongitudeDegrees>
            </Position>
            <AltitudeMeters>329.79998779296875</AltitudeMeters>
            <DistanceMeters>NAN</DistanceMeters>
          </Trackpoint>
          <Trackpoint>
            <Time>2022-09-22T10:57:57.000Z</Time>
            <Position>
              <LatitudeDegrees>49.53327580355107784271240234375</LatitudeDegrees>
              <LongitudeDegrees>20.529050789773464202880859375</LongitudeDegrees>
            </Position>
            <AltitudeMeters>329.79998779296875</AltitudeMeters>
            <DistanceMeters>NAN</DistanceMeters>
          </Trackpoint>
          <Trackpoint>
            <Time>2022-09-22T10:57:59.000Z</Time>
            <Position>
              <LatitudeDegrees>49.533300362527370452880859375</LatitudeDegrees>
              <LongitudeDegrees>20.529164783656597137451171875</LongitudeDegrees>
            </Position>
            <AltitudeMeters>329.79998779296875</AltitudeMeters>
            <DistanceMeters>NAN</DistanceMeters>
          </Trackpoint>
          <Trackpoint>
            <Time>2022-09-22T10:58:06.000Z</Time>
            <Position>
              <LatitudeDegrees>49.53337605111300945281982421875</LatitudeDegrees>
              <LongitudeDegrees>20.529544986784458160400390625</LongitudeDegrees>
            </Position>
            <AltitudeMeters>329.600006103515625</AltitudeMeters>
            <DistanceMeters>NAN</DistanceMeters>
          </Trackpoint>
          <Trackpoint>
            <Time>2022-09-22T10:58:13.000Z</Time>
            <Position>
              <LatitudeDegrees>49.53342801891267299652099609375</LatitudeDegrees>
              <LongitudeDegrees>20.530011020600795745849609375</LongitudeDegrees>
            </Position>
            <AltitudeMeters>329.600006103515625</AltitudeMeters>
            <DistanceMeters>NAN</DistanceMeters>
          </Trackpoint>
          <Trackpoint>
            <Time>2022-09-22T10:58:20.000Z</Time>
            <Position>
              <LatitudeDegrees>49.53345651738345623016357421875</LatitudeDegrees>
              <LongitudeDegrees>20.53051033057272434234619140625</LongitudeDegrees>
            </Position>
            <AltitudeMeters>329.79998779296875</AltitudeMeters>
            <DistanceMeters>NAN</DistanceMeters>
          </Trackpoint>
          <Trackpoint>
            <Time>2022-09-22T10:58:22.000Z</Time>
            <Position>
              <LatitudeDegrees>49.5334522426128387451171875</LatitudeDegrees>
              <LongitudeDegrees>20.53064309991896152496337890625</LongitudeDegrees>
            </Position>
            <AltitudeMeters>329.79998779296875</AltitudeMeters>
            <DistanceMeters>NAN</DistanceMeters>
          </Trackpoint>
          <Trackpoint>
            <Time>2022-09-22T10:58:26.000Z</Time>
            <Position>
              <LatitudeDegrees>49.53344545327126979827880859375</LatitudeDegrees>
              <LongitudeDegrees>20.5309067107737064361572265625</LongitudeDegrees>
            </Position>
            <AltitudeMeters>329.79998779296875</AltitudeMeters>
            <DistanceMeters>NAN</DistanceMeters>
          </Trackpoint>
          <Trackpoint>
            <Time>2022-09-22T10:58:30.000Z</Time>
            <Position>
              <LatitudeDegrees>49.5334495604038238525390625</LatitudeDegrees>
              <LongitudeDegrees>20.53116948343813419342041015625</LongitudeDegrees>
            </Position>
            <AltitudeMeters>329.79998779296875</AltitudeMeters>
            <DistanceMeters>NAN</DistanceMeters>
          </Trackpoint>
          <Trackpoint>
            <Time>2022-09-22T10:58:38.000Z</Time>
            <Position>
              <LatitudeDegrees>49.533413350582122802734375</LatitudeDegrees>
              <LongitudeDegrees>20.53173610009253025054931640625</LongitudeDegrees>
            </Position>
            <AltitudeMeters>330.399993896484375</AltitudeMeters>
            <DistanceMeters>NAN</DistanceMeters>
          </Trackpoint>
          <Trackpoint>
            <Time>2022-09-22T10:58:44.000Z</Time>
            <Position>
              <LatitudeDegrees>49.53341125510632991790771484375</LatitudeDegrees>
              <LongitudeDegrees>20.53210926242172718048095703125</LongitudeDegrees>
            </Position>
            <AltitudeMeters>329.600006103515625</AltitudeMeters>
            <DistanceMeters>NAN</DistanceMeters>
          </Trackpoint>
          <Trackpoint>
            <Time>2022-09-22T10:58:45.000Z</Time>
            <Position>
              <LatitudeDegrees>49.533411674201488494873046875</LatitudeDegrees>
              <LongitudeDegrees>20.53217380307614803314208984375</LongitudeDegrees>
            </Position>
            <AltitudeMeters>329.600006103515625</AltitudeMeters>
            <DistanceMeters>NAN</DistanceMeters>
          </Trackpoint>
          <Trackpoint>
            <Time>2022-09-22T10:58:50.000Z</Time>
            <Position>
              <LatitudeDegrees>49.53342164866626262664794921875</LatitudeDegrees>
              <LongitudeDegrees>20.5324959196150302886962890625</LongitudeDegrees>
            </Position>
            <AltitudeMeters>329.399993896484375</AltitudeMeters>
            <DistanceMeters>NAN</DistanceMeters>
          </Trackpoint>
          <Trackpoint>
            <Time>2022-09-22T10:58:51.000Z</Time>
            <Position>
              <LatitudeDegrees>49.533425085246562957763671875</LatitudeDegrees>
              <LongitudeDegrees>20.53255987353622913360595703125</LongitudeDegrees>
            </Position>
            <AltitudeMeters>329.399993896484375</AltitudeMeters>
            <DistanceMeters>NAN</DistanceMeters>
          </Trackpoint>
          <Trackpoint>
            <Time>2022-09-22T10:58:55.000Z</Time>
            <Position>
              <LatitudeDegrees>49.53343522734940052032470703125</LatitudeDegrees>
              <LongitudeDegrees>20.5328201316297054290771484375</LongitudeDegrees>
            </Position>
            <AltitudeMeters>329.20001220703125</AltitudeMeters>
            <DistanceMeters>NAN</DistanceMeters>
          </Trackpoint>
          <Trackpoint>
            <Time>2022-09-22T10:58:59.000Z</Time>
            <Position>
              <LatitudeDegrees>49.5334594510495662689208984375</LatitudeDegrees>
              <LongitudeDegrees>20.53309849463403224945068359375</LongitudeDegrees>
            </Position>
            <AltitudeMeters>329.20001220703125</AltitudeMeters>
            <DistanceMeters>NAN</DistanceMeters>
          </Trackpoint>
          <Trackpoint>
            <Time>2022-09-22T10:59:05.000Z</Time>
            <Position>
              <LatitudeDegrees>49.53346959315240383148193359375</LatitudeDegrees>
              <LongitudeDegrees>20.533496551215648651123046875</LongitudeDegrees>
            </Position>
            <AltitudeMeters>329</AltitudeMeters>
            <DistanceMeters>NAN</DistanceMeters>
          </Trackpoint>
          <Trackpoint>
            <Time>2022-09-22T10:59:08.000Z</Time>
            <Position>
              <LatitudeDegrees>49.533469341695308685302734375</LatitudeDegrees>
              <LongitudeDegrees>20.53367734886705875396728515625</LongitudeDegrees>
            </Position>
            <AltitudeMeters>329.20001220703125</AltitudeMeters>
            <DistanceMeters>NAN</DistanceMeters>
          </Trackpoint>
          <Trackpoint>
            <Time>2022-09-22T10:59:12.000Z</Time>
            <Position>
              <LatitudeDegrees>49.533469341695308685302734375</LatitudeDegrees>
              <LongitudeDegrees>20.533918328583240509033203125</LongitudeDegrees>
            </Position>
            <AltitudeMeters>329</AltitudeMeters>
            <DistanceMeters>NAN</DistanceMeters>
          </Trackpoint>
          <Trackpoint>
            <Time>2022-09-22T10:59:15.000Z</Time>
            <Position>
              <LatitudeDegrees>49.53347730450332164764404296875</LatitudeDegrees>
              <LongitudeDegrees>20.53411337547004222869873046875</LongitudeDegrees>
            </Position>
            <AltitudeMeters>328.79998779296875</AltitudeMeters>
            <DistanceMeters>NAN</DistanceMeters>
          </Trackpoint>
          <Trackpoint>
            <Time>2022-09-22T10:59:18.000Z</Time>
            <Position>
              <LatitudeDegrees>49.53346791677176952362060546875</LatitudeDegrees>
              <LongitudeDegrees>20.5343241803348064422607421875</LongitudeDegrees>
            </Position>
            <AltitudeMeters>328.79998779296875</AltitudeMeters>
            <DistanceMeters>NAN</DistanceMeters>
          </Trackpoint>
          <Trackpoint>
            <Time>2022-09-22T10:59:22.000Z</Time>
            <Position>
              <LatitudeDegrees>49.5334577746689319610595703125</LatitudeDegrees>
              <LongitudeDegrees>20.53463171236217021942138671875</LongitudeDegrees>
            </Position>
            <AltitudeMeters>329</AltitudeMeters>
            <DistanceMeters>NAN</DistanceMeters>
          </Trackpoint>
          <Trackpoint>
            <Time>2022-09-22T10:59:28.000Z</Time>
            <Position>
              <LatitudeDegrees>49.5334674976766109466552734375</LatitudeDegrees>
              <LongitudeDegrees>20.53506472148001194000244140625</LongitudeDegrees>
            </Position>
            <AltitudeMeters>329.20001220703125</AltitudeMeters>
            <DistanceMeters>NAN</DistanceMeters>
          </Trackpoint>
          <Trackpoint>
            <Time>2022-09-22T10:59:30.000Z</Time>
            <Position>
              <LatitudeDegrees>49.53347194008529186248779296875</LatitudeDegrees>
              <LongitudeDegrees>20.53520168177783489227294921875</LongitudeDegrees>
            </Position>
            <AltitudeMeters>329.20001220703125</AltitudeMeters>
            <DistanceMeters>NAN</DistanceMeters>
          </Trackpoint>
          <Trackpoint>
            <Time>2022-09-22T10:59:34.000Z</Time>
            <Position>
              <LatitudeDegrees>49.53349088318645954132080078125</LatitudeDegrees>
              <LongitudeDegrees>20.53546688519418239593505859375</LongitudeDegrees>
            </Position>
            <AltitudeMeters>329.600006103515625</AltitudeMeters>
            <DistanceMeters>NAN</DistanceMeters>
          </Trackpoint>
          <Trackpoint>
            <Time>2022-09-22T10:59:37.000Z</Time>
            <Position>
              <LatitudeDegrees>49.53350664116442203521728515625</LatitudeDegrees>
              <LongitudeDegrees>20.53566101007163524627685546875</LongitudeDegrees>
            </Position>
            <AltitudeMeters>330</AltitudeMeters>
            <DistanceMeters>NAN</DistanceMeters>
          </Trackpoint>
          <Trackpoint>
            <Time>2022-09-22T10:59:38.000Z</Time>
            <Position>
              <LatitudeDegrees>49.53350546769797801971435546875</LatitudeDegrees>
              <LongitudeDegrees>20.5357239581644535064697265625</LongitudeDegrees>
            </Position>
            <AltitudeMeters>330</AltitudeMeters>
            <DistanceMeters>NAN</DistanceMeters>
          </Trackpoint>
          <Trackpoint>
            <Time>2022-09-22T10:59:39.000Z</Time>
            <Position>
              <LatitudeDegrees>49.53350412659347057342529296875</LatitudeDegrees>
              <LongitudeDegrees>20.535784475505352020263671875</LongitudeDegrees>
            </Position>
            <AltitudeMeters>330</AltitudeMeters>
            <DistanceMeters>NAN</DistanceMeters>
          </Trackpoint>
          <Trackpoint>
            <Time>2022-09-22T10:59:40.000Z</Time>
            <Position>
              <LatitudeDegrees>49.53350412659347057342529296875</LatitudeDegrees>
              <LongitudeDegrees>20.53584658540785312652587890625</LongitudeDegrees>
            </Position>
            <AltitudeMeters>330.20001220703125</AltitudeMeters>
            <DistanceMeters>NAN</DistanceMeters>
          </Trackpoint>
          <Trackpoint>
            <Time>2022-09-22T10:59:43.000Z</Time>
            <Position>
              <LatitudeDegrees>49.533511586487293243408203125</LatitudeDegrees>
              <LongitudeDegrees>20.5360369384288787841796875</LongitudeDegrees>
            </Position>
            <AltitudeMeters>330.399993896484375</AltitudeMeters>
            <DistanceMeters>NAN</DistanceMeters>
          </Trackpoint>
          <Trackpoint>
            <Time>2022-09-22T10:59:47.000Z</Time>
            <Position>
              <LatitudeDegrees>49.53353513963520526885986328125</LatitudeDegrees>
              <LongitudeDegrees>20.536284707486629486083984375</LongitudeDegrees>
            </Position>
            <AltitudeMeters>331</AltitudeMeters>
            <DistanceMeters>NAN</DistanceMeters>
          </Trackpoint>
          <Trackpoint>
            <Time>2022-09-22T10:59:54.000Z</Time>
            <Position>
              <LatitudeDegrees>49.5335550047457218170166015625</LatitudeDegrees>
              <LongitudeDegrees>20.536693744361400604248046875</LongitudeDegrees>
            </Position>
            <AltitudeMeters>330.20001220703125</AltitudeMeters>
            <DistanceMeters>NAN</DistanceMeters>
          </Trackpoint>
          <Trackpoint>
            <Time>2022-09-22T11:00:02.000Z</Time>
            <Position>
              <LatitudeDegrees>49.53355659730732440948486328125</LatitudeDegrees>
              <LongitudeDegrees>20.537126250565052032470703125</LongitudeDegrees>
            </Position>
            <AltitudeMeters>330.20001220703125</AltitudeMeters>
            <DistanceMeters>NAN</DistanceMeters>
          </Trackpoint>
          <Trackpoint>
            <Time>2022-09-22T11:00:09.000Z</Time>
            <Position>
              <LatitudeDegrees>49.53355106525123119354248046875</LatitudeDegrees>
              <LongitudeDegrees>20.53754224441945552825927734375</LongitudeDegrees>
            </Position>
            <AltitudeMeters>329.79998779296875</AltitudeMeters>
            <DistanceMeters>NAN</DistanceMeters>
          </Trackpoint>
          <Trackpoint>
            <Time>2022-09-22T11:00:12.000Z</Time>
            <Position>
              <LatitudeDegrees>49.53354586847126483917236328125</LatitudeDegrees>
              <LongitudeDegrees>20.5377240478992462158203125</LongitudeDegrees>
            </Position>
            <AltitudeMeters>329.79998779296875</AltitudeMeters>
            <DistanceMeters>NAN</DistanceMeters>
          </Trackpoint>
          <Trackpoint>
            <Time>2022-09-22T11:00:18.000Z</Time>
            <Position>
              <LatitudeDegrees>49.53353228978812694549560546875</LatitudeDegrees>
              <LongitudeDegrees>20.53807231597602367401123046875</LongitudeDegrees>
            </Position>
            <AltitudeMeters>329.79998779296875</AltitudeMeters>
            <DistanceMeters>NAN</DistanceMeters>
          </Trackpoint>
          <Trackpoint>
            <Time>2022-09-22T11:00:22.000Z</Time>
            <Position>
              <LatitudeDegrees>49.533514268696308135986328125</LatitudeDegrees>
              <LongitudeDegrees>20.53827599622309207916259765625</LongitudeDegrees>
            </Position>
            <AltitudeMeters>329.79998779296875</AltitudeMeters>
            <DistanceMeters>NAN</DistanceMeters>
          </Trackpoint>
          <Trackpoint>
            <Time>2022-09-22T11:00:29.000Z</Time>
            <Position>
              <LatitudeDegrees>49.53350379131734371185302734375</LatitudeDegrees>
              <LongitudeDegrees>20.538626275956630706787109375</LongitudeDegrees>
            </Position>
            <AltitudeMeters>329.600006103515625</AltitudeMeters>
            <DistanceMeters>NAN</DistanceMeters>
          </Trackpoint>
          <Trackpoint>
            <Time>2022-09-22T11:00:33.000Z</Time>
            <Position>
              <LatitudeDegrees>49.53349851071834564208984375</LatitudeDegrees>
              <LongitudeDegrees>20.53883993066847324371337890625</LongitudeDegrees>
            </Position>
            <AltitudeMeters>329.600006103515625</AltitudeMeters>
            <DistanceMeters>NAN</DistanceMeters>
          </Trackpoint>
          <Trackpoint>
            <Time>2022-09-22T11:00:38.000Z</Time>
            <Position>
              <LatitudeDegrees>49.53349423594772815704345703125</LatitudeDegrees>
              <LongitudeDegrees>20.53908870555460453033447265625</LongitudeDegrees>
            </Position>
            <AltitudeMeters>329.399993896484375</AltitudeMeters>
            <DistanceMeters>NAN</DistanceMeters>
          </Trackpoint>
          <Trackpoint>
            <Time>2022-09-22T11:00:39.000Z</Time>
            <Position>
              <LatitudeDegrees>49.5334916375577449798583984375</LatitudeDegrees>
              <LongitudeDegrees>20.53914000280201435089111328125</LongitudeDegrees>
            </Position>
            <AltitudeMeters>329.399993896484375</AltitudeMeters>
            <DistanceMeters>NAN</DistanceMeters>
          </Trackpoint>
          <Trackpoint>
            <Time>2022-09-22T11:00:46.000Z</Time>
            <Position>
              <LatitudeDegrees>49.5334668271243572235107421875</LatitudeDegrees>
              <LongitudeDegrees>20.53952372632920742034912109375</LongitudeDegrees>
            </Position>
            <AltitudeMeters>329.20001220703125</AltitudeMeters>
            <DistanceMeters>NAN</DistanceMeters>
          </Trackpoint>
          <Trackpoint>
            <Time>2022-09-22T11:00:47.000Z</Time>
            <Position>
              <LatitudeDegrees>49.533464647829532623291015625</LatitudeDegrees>
              <LongitudeDegrees>20.5395772866904735565185546875</LongitudeDegrees>
            </Position>
            <AltitudeMeters>329.20001220703125</AltitudeMeters>
            <DistanceMeters>NAN</DistanceMeters>
          </Trackpoint>
          <Trackpoint>
            <Time>2022-09-22T11:00:49.000Z</Time>
            <Position>
              <LatitudeDegrees>49.533456265926361083984375</LatitudeDegrees>
              <LongitudeDegrees>20.5396909452974796295166015625</LongitudeDegrees>
            </Position>
            <AltitudeMeters>329.20001220703125</AltitudeMeters>
            <DistanceMeters>NAN</DistanceMeters>
          </Trackpoint>
          <Trackpoint>
            <Time>2022-09-22T11:00:52.000Z</Time>
            <Position>
              <LatitudeDegrees>49.53345559537410736083984375</LatitudeDegrees>
              <LongitudeDegrees>20.539854727685451507568359375</LongitudeDegrees>
            </Position>
            <AltitudeMeters>329.20001220703125</AltitudeMeters>
            <DistanceMeters>NAN</DistanceMeters>
          </Trackpoint>
          <Trackpoint>
            <Time>2022-09-22T11:00:53.000Z</Time>
            <Position>
              <LatitudeDegrees>49.53345450572669506072998046875</LatitudeDegrees>
              <LongitudeDegrees>20.5399071983993053436279296875</LongitudeDegrees>
            </Position>
            <AltitudeMeters>329.399993896484375</AltitudeMeters>
            <DistanceMeters>NAN</DistanceMeters>
          </Trackpoint>
          <Trackpoint>
            <Time>2022-09-22T11:01:01.000Z</Time>
            <Position>
              <LatitudeDegrees>49.5334913022816181182861328125</LatitudeDegrees>
              <LongitudeDegrees>20.5403661914169788360595703125</LongitudeDegrees>
            </Position>
            <AltitudeMeters>329.20001220703125</AltitudeMeters>
            <DistanceMeters>NAN</DistanceMeters>
          </Trackpoint>
          <Trackpoint>
            <Time>2022-09-22T11:01:02.000Z</Time>
            <Position>
              <LatitudeDegrees>49.533499181270599365234375</LatitudeDegrees>
              <LongitudeDegrees>20.54042209871113300323486328125</LongitudeDegrees>
            </Position>
            <AltitudeMeters>329.20001220703125</AltitudeMeters>
            <DistanceMeters>NAN</DistanceMeters>
          </Trackpoint>
          <Trackpoint>
            <Time>2022-09-22T11:01:11.000Z</Time>
            <Position>
              <LatitudeDegrees>49.5335767976939678192138671875</LatitudeDegrees>
              <LongitudeDegrees>20.540918894112110137939453125</LongitudeDegrees>
            </Position>
            <AltitudeMeters>329</AltitudeMeters>
            <DistanceMeters>NAN</DistanceMeters>
          </Trackpoint>
          <Trackpoint>
            <Time>2022-09-22T11:01:12.000Z</Time>
            <Position>
              <LatitudeDegrees>49.53358878381550312042236328125</LatitudeDegrees>
              <LongitudeDegrees>20.54098251275718212127685546875</LongitudeDegrees>
            </Position>
            <AltitudeMeters>328.79998779296875</AltitudeMeters>
            <DistanceMeters>NAN</DistanceMeters>
          </Trackpoint>
          <Trackpoint>
            <Time>2022-09-22T11:01:17.000Z</Time>
            <Position>
              <LatitudeDegrees>49.53365047462284564971923828125</LatitudeDegrees>
              <LongitudeDegrees>20.54128845222294330596923828125</LongitudeDegrees>
            </Position>
            <AltitudeMeters>328.79998779296875</AltitudeMeters>
            <DistanceMeters>NAN</DistanceMeters>
          </Trackpoint>
          <Trackpoint>
            <Time>2022-09-22T11:01:23.000Z</Time>
            <Position>
              <LatitudeDegrees>49.53371635638177394866943359375</LatitudeDegrees>
              <LongitudeDegrees>20.54158508777618408203125</LongitudeDegrees>
            </Position>
            <AltitudeMeters>329</AltitudeMeters>
            <DistanceMeters>NAN</DistanceMeters>
          </Trackpoint>
          <Trackpoint>
            <Time>2022-09-22T11:01:30.000Z</Time>
            <Position>
              <LatitudeDegrees>49.53377603553235530853271484375</LatitudeDegrees>
              <LongitudeDegrees>20.54189496673643589019775390625</LongitudeDegrees>
            </Position>
            <AltitudeMeters>329.20001220703125</AltitudeMeters>
            <DistanceMeters>NAN</DistanceMeters>
          </Trackpoint>
          <Trackpoint>
            <Time>2022-09-22T11:01:33.000Z</Time>
            <Position>
              <LatitudeDegrees>49.53380822204053401947021484375</LatitudeDegrees>
              <LongitudeDegrees>20.542008876800537109375</LongitudeDegrees>
            </Position>
            <AltitudeMeters>329.399993896484375</AltitudeMeters>
            <DistanceMeters>NAN</DistanceMeters>
          </Trackpoint>
          <Trackpoint>
            <Time>2022-09-22T11:01:36.000Z</Time>
            <Position>
              <LatitudeDegrees>49.53380637802183628082275390625</LatitudeDegrees>
              <LongitudeDegrees>20.54212094284594058990478515625</LongitudeDegrees>
            </Position>
            <AltitudeMeters>329.399993896484375</AltitudeMeters>
            <DistanceMeters>NAN</DistanceMeters>
          </Trackpoint>
          <Trackpoint>
            <Time>2022-09-22T11:01:38.000Z</Time>
            <Position>
              <LatitudeDegrees>49.53377150930464267730712890625</LatitudeDegrees>
              <LongitudeDegrees>20.54218112491071224212646484375</LongitudeDegrees>
            </Position>
            <AltitudeMeters>329.399993896484375</AltitudeMeters>
            <DistanceMeters>NAN</DistanceMeters>
          </Trackpoint>
          <Trackpoint>
            <Time>2022-09-22T11:01:40.000Z</Time>
            <Position>
              <LatitudeDegrees>49.53371535055339336395263671875</LatitudeDegrees>
              <LongitudeDegrees>20.54221532307565212249755859375</LongitudeDegrees>
            </Position>
            <AltitudeMeters>329.600006103515625</AltitudeMeters>
            <DistanceMeters>NAN</DistanceMeters>
          </Trackpoint>
          <Trackpoint>
            <Time>2022-09-22T11:01:46.000Z</Time>
            <Position>
              <LatitudeDegrees>49.533549807965755462646484375</LatitudeDegrees>
              <LongitudeDegrees>20.54226703941822052001953125</LongitudeDegrees>
            </Position>
            <AltitudeMeters>330.399993896484375</AltitudeMeters>
            <DistanceMeters>NAN</DistanceMeters>
          </Trackpoint>
          <Trackpoint>
            <Time>2022-09-22T11:01:48.000Z</Time>
            <Position>
              <LatitudeDegrees>49.53349892981350421905517578125</LatitudeDegrees>
              <LongitudeDegrees>20.54228958673775196075439453125</LongitudeDegrees>
            </Position>
            <AltitudeMeters>330.600006103515625</AltitudeMeters>
            <DistanceMeters>NAN</DistanceMeters>
          </Trackpoint>
          <Trackpoint>
            <Time>2022-09-22T11:01:51.000Z</Time>
            <Position>
              <LatitudeDegrees>49.53341259621083736419677734375</LatitudeDegrees>
              <LongitudeDegrees>20.54231255315244197845458984375</LongitudeDegrees>
            </Position>
            <AltitudeMeters>330.600006103515625</AltitudeMeters>
            <DistanceMeters>NAN</DistanceMeters>
          </Trackpoint>
          <Trackpoint>
            <Time>2022-09-22T11:01:54.000Z</Time>
            <Position>
              <LatitudeDegrees>49.53333221375942230224609375</LatitudeDegrees>
              <LongitudeDegrees>20.54233300499618053436279296875</LongitudeDegrees>
            </Position>
            <AltitudeMeters>330.600006103515625</AltitudeMeters>
            <DistanceMeters>NAN</DistanceMeters>
          </Trackpoint>
          <Trackpoint>
            <Time>2022-09-22T11:01:55.000Z</Time>
            <Position>
              <LatitudeDegrees>49.53330136835575103759765625</LatitudeDegrees>
              <LongitudeDegrees>20.542343817651271820068359375</LongitudeDegrees>
            </Position>
            <AltitudeMeters>330.79998779296875</AltitudeMeters>
            <DistanceMeters>NAN</DistanceMeters>
          </Trackpoint>
          <Trackpoint>
            <Time>2022-09-22T11:01:57.000Z</Time>
            <Position>
              <LatitudeDegrees>49.53323825262486934661865234375</LatitudeDegrees>
              <LongitudeDegrees>20.542366616427898406982421875</LongitudeDegrees>
            </Position>
            <AltitudeMeters>330.79998779296875</AltitudeMeters>
            <DistanceMeters>NAN</DistanceMeters>
          </Trackpoint>
          <Trackpoint>
            <Time>2022-09-22T11:02:05.000Z</Time>
            <Position>
              <LatitudeDegrees>49.532949663698673248291015625</LatitudeDegrees>
              <LongitudeDegrees>20.5424288101494312286376953125</LongitudeDegrees>
            </Position>
            <AltitudeMeters>330.79998779296875</AltitudeMeters>
            <DistanceMeters>NAN</DistanceMeters>
          </Trackpoint>
          <Trackpoint>
            <Time>2022-09-22T11:02:11.000Z</Time>
            <Position>
              <LatitudeDegrees>49.532741121947765350341796875</LatitudeDegrees>
              <LongitudeDegrees>20.54245169274508953094482421875</LongitudeDegrees>
            </Position>
            <AltitudeMeters>330.399993896484375</AltitudeMeters>
            <DistanceMeters>NAN</DistanceMeters>
          </Trackpoint>
          <Trackpoint>
            <Time>2022-09-22T11:02:20.000Z</Time>
            <Position>
              <LatitudeDegrees>49.53242135234177112579345703125</LatitudeDegrees>
              <LongitudeDegrees>20.54245906881988048553466796875</LongitudeDegrees>
            </Position>
            <AltitudeMeters>330</AltitudeMeters>
            <DistanceMeters>NAN</DistanceMeters>
          </Trackpoint>
          <Trackpoint>
            <Time>2022-09-22T11:02:24.000Z</Time>
            <Position>
              <LatitudeDegrees>49.5322806201875209808349609375</LatitudeDegrees>
              <LongitudeDegrees>20.54245169274508953094482421875</LongitudeDegrees>
            </Position>
            <AltitudeMeters>329.79998779296875</AltitudeMeters>
            <DistanceMeters>NAN</DistanceMeters>
          </Trackpoint>
          <Trackpoint>
            <Time>2022-09-22T11:02:27.000Z</Time>
            <Position>
              <LatitudeDegrees>49.5321957953274250030517578125</LatitudeDegrees>
              <LongitudeDegrees>20.542451106011867523193359375</LongitudeDegrees>
            </Position>
            <AltitudeMeters>330</AltitudeMeters>
            <DistanceMeters>NAN</DistanceMeters>
          </Trackpoint>
          <Trackpoint>
            <Time>2022-09-22T11:02:28.000Z</Time>
            <Position>
              <LatitudeDegrees>49.5321786962449550628662109375</LatitudeDegrees>
              <LongitudeDegrees>20.54244942963123321533203125</LongitudeDegrees>
            </Position>
            <AltitudeMeters>330</AltitudeMeters>
            <DistanceMeters>NAN</DistanceMeters>
          </Trackpoint>
          <Trackpoint>
            <Time>2022-09-22T11:02:31.000Z</Time>
            <Position>
              <LatitudeDegrees>49.5321431569755077362060546875</LatitudeDegrees>
              <LongitudeDegrees>20.54250550456345081329345703125</LongitudeDegrees>
            </Position>
            <AltitudeMeters>329.79998779296875</AltitudeMeters>
            <DistanceMeters>NAN</DistanceMeters>
          </Trackpoint>
          <Trackpoint>
            <Time>2022-09-22T11:02:32.000Z</Time>
            <Position>
              <LatitudeDegrees>49.53214508481323719024658203125</LatitudeDegrees>
              <LongitudeDegrees>20.5425263755023479461669921875</LongitudeDegrees>
            </Position>
            <AltitudeMeters>329.79998779296875</AltitudeMeters>
            <DistanceMeters>NAN</DistanceMeters>
          </Trackpoint>
          <Trackpoint>
            <Time>2022-09-22T11:02:34.000Z</Time>
            <Position>
              <LatitudeDegrees>49.53216000460088253021240234375</LatitudeDegrees>
              <LongitudeDegrees>20.542571134865283966064453125</LongitudeDegrees>
            </Position>
            <AltitudeMeters>329.600006103515625</AltitudeMeters>
            <DistanceMeters>NAN</DistanceMeters>
          </Trackpoint>
          <Trackpoint>
            <Time>2022-09-22T11:02:38.000Z</Time>
            <Position>
              <LatitudeDegrees>49.53215229324996471405029296875</LatitudeDegrees>
              <LongitudeDegrees>20.5426738969981670379638671875</LongitudeDegrees>
            </Position>
            <AltitudeMeters>329.600006103515625</AltitudeMeters>
            <DistanceMeters>NAN</DistanceMeters>
          </Trackpoint>
          <Trackpoint>
            <Time>2022-09-22T11:02:42.000Z</Time>
            <Position>
              <LatitudeDegrees>49.53217475675046443939208984375</LatitudeDegrees>
              <LongitudeDegrees>20.54281613789498805999755859375</LongitudeDegrees>
            </Position>
            <AltitudeMeters>329.399993896484375</AltitudeMeters>
            <DistanceMeters>NAN</DistanceMeters>
          </Trackpoint>
          <Trackpoint>
            <Time>2022-09-22T11:02:45.000Z</Time>
            <Position>
              <LatitudeDegrees>49.532186575233936309814453125</LatitudeDegrees>
              <LongitudeDegrees>20.54293692111968994140625</LongitudeDegrees>
            </Position>
            <AltitudeMeters>328.79998779296875</AltitudeMeters>
            <DistanceMeters>NAN</DistanceMeters>
          </Trackpoint>
          <Trackpoint>
            <Time>2022-09-22T11:02:49.000Z</Time>
            <Position>
              <LatitudeDegrees>49.5322377048432826995849609375</LatitudeDegrees>
              <LongitudeDegrees>20.5431409366428852081298828125</LongitudeDegrees>
            </Position>
            <AltitudeMeters>328.399993896484375</AltitudeMeters>
            <DistanceMeters>NAN</DistanceMeters>
          </Trackpoint>
          <Trackpoint>
            <Time>2022-09-22T11:02:50.000Z</Time>
            <Position>
              <LatitudeDegrees>49.53225337900221347808837890625</LatitudeDegrees>
              <LongitudeDegrees>20.54320623166859149932861328125</LongitudeDegrees>
            </Position>
            <AltitudeMeters>328.20001220703125</AltitudeMeters>
            <DistanceMeters>NAN</DistanceMeters>
          </Trackpoint>
          <Trackpoint>
            <Time>2022-09-22T11:02:53.000Z</Time>
            <Position>
              <LatitudeDegrees>49.5323211885988712310791015625</LatitudeDegrees>
              <LongitudeDegrees>20.5434222333133220672607421875</LongitudeDegrees>
            </Position>
            <AltitudeMeters>328</AltitudeMeters>
            <DistanceMeters>NAN</DistanceMeters>
          </Trackpoint>
          <Trackpoint>
            <Time>2022-09-22T11:02:55.000Z</Time>
            <Position>
              <LatitudeDegrees>49.532342143356800079345703125</LatitudeDegrees>
              <LongitudeDegrees>20.54357721470296382904052734375</LongitudeDegrees>
            </Position>
            <AltitudeMeters>328</AltitudeMeters>
            <DistanceMeters>NAN</DistanceMeters>
          </Trackpoint>
          <Trackpoint>
            <Time>2022-09-22T11:02:56.000Z</Time>
            <Position>
              <LatitudeDegrees>49.53233367763459682464599609375</LatitudeDegrees>
              <LongitudeDegrees>20.54365399293601512908935546875</LongitudeDegrees>
            </Position>
            <AltitudeMeters>328.399993896484375</AltitudeMeters>
            <DistanceMeters>NAN</DistanceMeters>
          </Trackpoint>
          <Trackpoint>
            <Time>2022-09-22T11:03:01.000Z</Time>
            <Position>
              <LatitudeDegrees>49.5323423109948635101318359375</LatitudeDegrees>
              <LongitudeDegrees>20.5439923703670501708984375</LongitudeDegrees>
            </Position>
            <AltitudeMeters>329</AltitudeMeters>
            <DistanceMeters>NAN</DistanceMeters>
          </Trackpoint>
          <Trackpoint>
            <Time>2022-09-22T11:03:07.000Z</Time>
            <Position>
              <LatitudeDegrees>49.5323758386075496673583984375</LatitudeDegrees>
              <LongitudeDegrees>20.54436746053397655487060546875</LongitudeDegrees>
            </Position>
            <AltitudeMeters>327.79998779296875</AltitudeMeters>
            <DistanceMeters>NAN</DistanceMeters>
          </Trackpoint>
          <Trackpoint>
            <Time>2022-09-22T11:03:08.000Z</Time>
            <Position>
              <LatitudeDegrees>49.53237961046397686004638671875</LatitudeDegrees>
              <LongitudeDegrees>20.54443317465484142303466796875</LongitudeDegrees>
            </Position>
            <AltitudeMeters>327.600006103515625</AltitudeMeters>
            <DistanceMeters>NAN</DistanceMeters>
          </Trackpoint>
          <Trackpoint>
            <Time>2022-09-22T11:03:15.000Z</Time>
            <Position>
              <LatitudeDegrees>49.5324157364666461944580078125</LatitudeDegrees>
              <LongitudeDegrees>20.5449108593165874481201171875</LongitudeDegrees>
            </Position>
            <AltitudeMeters>327.600006103515625</AltitudeMeters>
            <DistanceMeters>NAN</DistanceMeters>
          </Trackpoint>
          <Trackpoint>
            <Time>2022-09-22T11:03:24.000Z</Time>
            <Position>
              <LatitudeDegrees>49.5324559696018695831298828125</LatitudeDegrees>
              <LongitudeDegrees>20.54549667052924633026123046875</LongitudeDegrees>
            </Position>
            <AltitudeMeters>327.79998779296875</AltitudeMeters>
            <DistanceMeters>NAN</DistanceMeters>
          </Trackpoint>
          <Trackpoint>
            <Time>2022-09-22T11:03:25.000Z</Time>
            <Position>
              <LatitudeDegrees>49.53246024437248706817626953125</LatitudeDegrees>
              <LongitudeDegrees>20.54555115289986133575439453125</LongitudeDegrees>
            </Position>
            <AltitudeMeters>327.79998779296875</AltitudeMeters>
            <DistanceMeters>NAN</DistanceMeters>
          </Trackpoint>
          <Trackpoint>
            <Time>2022-09-22T11:03:29.000Z</Time>
            <Position>
              <LatitudeDegrees>49.53247281722724437713623046875</LatitudeDegrees>
              <LongitudeDegrees>20.545791126787662506103515625</LongitudeDegrees>
            </Position>
            <AltitudeMeters>327.399993896484375</AltitudeMeters>
            <DistanceMeters>NAN</DistanceMeters>
          </Trackpoint>
          <Trackpoint>
            <Time>2022-09-22T11:03:34.000Z</Time>
            <Position>
              <LatitudeDegrees>49.5324958674609661102294921875</LatitudeDegrees>
              <LongitudeDegrees>20.54613268934190273284912109375</LongitudeDegrees>
            </Position>
            <AltitudeMeters>327.20001220703125</AltitudeMeters>
            <DistanceMeters>NAN</DistanceMeters>
          </Trackpoint>
          <Trackpoint>
            <Time>2022-09-22T11:03:39.000Z</Time>
            <Position>
              <LatitudeDegrees>49.532511122524738311767578125</LatitudeDegrees>
              <LongitudeDegrees>20.5464890040457248687744140625</LongitudeDegrees>
            </Position>
            <AltitudeMeters>327.399993896484375</AltitudeMeters>
            <DistanceMeters>NAN</DistanceMeters>
          </Trackpoint>
          <Trackpoint>
            <Time>2022-09-22T11:03:45.000Z</Time>
            <Position>
              <LatitudeDegrees>49.532557390630245208740234375</LatitudeDegrees>
              <LongitudeDegrees>20.54690726101398468017578125</LongitudeDegrees>
            </Position>
            <AltitudeMeters>327.600006103515625</AltitudeMeters>
            <DistanceMeters>NAN</DistanceMeters>
          </Trackpoint>
          <Trackpoint>
            <Time>2022-09-22T11:03:47.000Z</Time>
            <Position>
              <LatitudeDegrees>49.5325702987611293792724609375</LatitudeDegrees>
              <LongitudeDegrees>20.547044388949871063232421875</LongitudeDegrees>
            </Position>
            <AltitudeMeters>327.600006103515625</AltitudeMeters>
            <DistanceMeters>NAN</DistanceMeters>
          </Trackpoint>
          <Trackpoint>
            <Time>2022-09-22T11:03:55.000Z</Time>
            <Position>
              <LatitudeDegrees>49.53264162875711917877197265625</LatitudeDegrees>
              <LongitudeDegrees>20.54763288237154483795166015625</LongitudeDegrees>
            </Position>
            <AltitudeMeters>327.399993896484375</AltitudeMeters>
            <DistanceMeters>NAN</DistanceMeters>
          </Trackpoint>
          <Trackpoint>
            <Time>2022-09-22T11:03:56.000Z</Time>
            <Position>
              <LatitudeDegrees>49.5326440595090389251708984375</LatitudeDegrees>
              <LongitudeDegrees>20.54770496673882007598876953125</LongitudeDegrees>
            </Position>
            <AltitudeMeters>327.600006103515625</AltitudeMeters>
            <DistanceMeters>NAN</DistanceMeters>
          </Trackpoint>
          <Trackpoint>
            <Time>2022-09-22T11:03:59.000Z</Time>
            <Position>
              <LatitudeDegrees>49.53266358934342861175537109375</LatitudeDegrees>
              <LongitudeDegrees>20.5479156039655208587646484375</LongitudeDegrees>
            </Position>
            <AltitudeMeters>327.399993896484375</AltitudeMeters>
            <DistanceMeters>NAN</DistanceMeters>
          </Trackpoint>
          <Trackpoint>
            <Time>2022-09-22T11:04:03.000Z</Time>
            <Position>
              <LatitudeDegrees>49.53270885162055492401123046875</LatitudeDegrees>
              <LongitudeDegrees>20.54817938245832920074462890625</LongitudeDegrees>
            </Position>
            <AltitudeMeters>327.399993896484375</AltitudeMeters>
            <DistanceMeters>NAN</DistanceMeters>
          </Trackpoint>
          <Trackpoint>
            <Time>2022-09-22T11:04:08.000Z</Time>
            <Position>
              <LatitudeDegrees>49.53275478444993495941162109375</LatitudeDegrees>
              <LongitudeDegrees>20.5484899319708347320556640625</LongitudeDegrees>
            </Position>
            <AltitudeMeters>327.20001220703125</AltitudeMeters>
            <DistanceMeters>NAN</DistanceMeters>
          </Trackpoint>
          <Trackpoint>
            <Time>2022-09-22T11:04:11.000Z</Time>
            <Position>
              <LatitudeDegrees>49.53279015608131885528564453125</LatitudeDegrees>
              <LongitudeDegrees>20.54867374710738658905029296875</LongitudeDegrees>
            </Position>
            <AltitudeMeters>327</AltitudeMeters>
            <DistanceMeters>NAN</DistanceMeters>
          </Trackpoint>
          <Trackpoint>
            <Time>2022-09-22T11:04:18.000Z</Time>
            <Position>
              <LatitudeDegrees>49.532861821353435516357421875</LatitudeDegrees>
              <LongitudeDegrees>20.54911564104259014129638671875</LongitudeDegrees>
            </Position>
            <AltitudeMeters>327.20001220703125</AltitudeMeters>
            <DistanceMeters>NAN</DistanceMeters>
          </Trackpoint>
          <Trackpoint>
            <Time>2022-09-22T11:04:22.000Z</Time>
            <Position>
              <LatitudeDegrees>49.53288872726261615753173828125</LatitudeDegrees>
              <LongitudeDegrees>20.5493509210646152496337890625</LongitudeDegrees>
            </Position>
            <AltitudeMeters>327</AltitudeMeters>
            <DistanceMeters>NAN</DistanceMeters>
          </Trackpoint>
          <Trackpoint>
            <Time>2022-09-22T11:04:24.000Z</Time>
            <Position>
              <LatitudeDegrees>49.53291085548698902130126953125</LatitudeDegrees>
              <LongitudeDegrees>20.54947388358414173126220703125</LongitudeDegrees>
            </Position>
            <AltitudeMeters>326.79998779296875</AltitudeMeters>
            <DistanceMeters>NAN</DistanceMeters>
          </Trackpoint>
          <Trackpoint>
            <Time>2022-09-22T11:04:26.000Z</Time>
            <Position>
              <LatitudeDegrees>49.5329397730529308319091796875</LatitudeDegrees>
              <LongitudeDegrees>20.54960212670266628265380859375</LongitudeDegrees>
            </Position>
            <AltitudeMeters>326.79998779296875</AltitudeMeters>
            <DistanceMeters>NAN</DistanceMeters>
          </Trackpoint>
          <Trackpoint>
            <Time>2022-09-22T11:04:28.000Z</Time>
            <Position>
              <LatitudeDegrees>49.53296081162989139556884765625</LatitudeDegrees>
              <LongitudeDegrees>20.5497341416776180267333984375</LongitudeDegrees>
            </Position>
            <AltitudeMeters>326.79998779296875</AltitudeMeters>
            <DistanceMeters>NAN</DistanceMeters>
          </Trackpoint>
          <Trackpoint>
            <Time>2022-09-22T11:04:31.000Z</Time>
            <Position>
              <LatitudeDegrees>49.53299182467162609100341796875</LatitudeDegrees>
              <LongitudeDegrees>20.549929775297641754150390625</LongitudeDegrees>
            </Position>
            <AltitudeMeters>326.600006103515625</AltitudeMeters>
            <DistanceMeters>NAN</DistanceMeters>
          </Trackpoint>
          <Trackpoint>
            <Time>2022-09-22T11:04:40.000Z</Time>
            <Position>
              <LatitudeDegrees>49.53307866118848323822021484375</LatitudeDegrees>
              <LongitudeDegrees>20.55054827593266963958740234375</LongitudeDegrees>
            </Position>
            <AltitudeMeters>327.600006103515625</AltitudeMeters>
            <DistanceMeters>NAN</DistanceMeters>
          </Trackpoint>
          <Trackpoint>
            <Time>2022-09-22T11:04:47.000Z</Time>
            <Position>
              <LatitudeDegrees>49.53311973251402378082275390625</LatitudeDegrees>
              <LongitudeDegrees>20.550940297544002532958984375</LongitudeDegrees>
            </Position>
            <AltitudeMeters>327.79998779296875</AltitudeMeters>
            <DistanceMeters>NAN</DistanceMeters>
          </Trackpoint>
          <Trackpoint>
            <Time>2022-09-22T11:04:48.000Z</Time>
            <Position>
              <LatitudeDegrees>49.533128030598163604736328125</LatitudeDegrees>
              <LongitudeDegrees>20.55099100805819034576416015625</LongitudeDegrees>
            </Position>
            <AltitudeMeters>327.79998779296875</AltitudeMeters>
            <DistanceMeters>NAN</DistanceMeters>
          </Trackpoint>
          <Trackpoint>
            <Time>2022-09-22T11:04:52.000Z</Time>
            <Position>
              <LatitudeDegrees>49.53315175138413906097412109375</LatitudeDegrees>
              <LongitudeDegrees>20.55118379183113574981689453125</LongitudeDegrees>
            </Position>
            <AltitudeMeters>327.600006103515625</AltitudeMeters>
            <DistanceMeters>NAN</DistanceMeters>
          </Trackpoint>
          <Trackpoint>
            <Time>2022-09-22T11:04:53.000Z</Time>
            <Position>
              <LatitudeDegrees>49.53315996564924716949462890625</LatitudeDegrees>
              <LongitudeDegrees>20.55123441852629184722900390625</LongitudeDegrees>
            </Position>
            <AltitudeMeters>327.600006103515625</AltitudeMeters>
            <DistanceMeters>NAN</DistanceMeters>
          </Trackpoint>
          <Trackpoint>
            <Time>2022-09-22T11:04:54.000Z</Time>
            <Position>
              <LatitudeDegrees>49.5331721194088459014892578125</LatitudeDegrees>
              <LongitudeDegrees>20.55128462612628936767578125</LongitudeDegrees>
            </Position>
            <AltitudeMeters>327.600006103515625</AltitudeMeters>
            <DistanceMeters>NAN</DistanceMeters>
          </Trackpoint>
          <Trackpoint>
            <Time>2022-09-22T11:04:56.000Z</Time>
            <Position>
              <LatitudeDegrees>49.53318896703422069549560546875</LatitudeDegrees>
              <LongitudeDegrees>20.55140800774097442626953125</LongitudeDegrees>
            </Position>
            <AltitudeMeters>327.79998779296875</AltitudeMeters>
            <DistanceMeters>NAN</DistanceMeters>
          </Trackpoint>
          <Trackpoint>
            <Time>2022-09-22T11:04:58.000Z</Time>
            <Position>
              <LatitudeDegrees>49.53320103697478771209716796875</LatitudeDegrees>
              <LongitudeDegrees>20.55152929387986660003662109375</LongitudeDegrees>
            </Position>
            <AltitudeMeters>327.79998779296875</AltitudeMeters>
            <DistanceMeters>NAN</DistanceMeters>
          </Trackpoint>
          <Trackpoint>
            <Time>2022-09-22T11:05:00.000Z</Time>
            <Position>
              <LatitudeDegrees>49.53321729786694049835205078125</LatitudeDegrees>
              <LongitudeDegrees>20.5516582913696765899658203125</LongitudeDegrees>
            </Position>
            <AltitudeMeters>328</AltitudeMeters>
            <DistanceMeters>NAN</DistanceMeters>
          </Trackpoint>
          <Trackpoint>
            <Time>2022-09-22T11:05:03.000Z</Time>
            <Position>
              <LatitudeDegrees>49.53322215937077999114990234375</LatitudeDegrees>
              <LongitudeDegrees>20.55184462107717990875244140625</LongitudeDegrees>
            </Position>
            <AltitudeMeters>327.600006103515625</AltitudeMeters>
            <DistanceMeters>NAN</DistanceMeters>
          </Trackpoint>
          <Trackpoint>
            <Time>2022-09-22T11:05:05.000Z</Time>
            <Position>
              <LatitudeDegrees>49.53320749104022979736328125</LatitudeDegrees>
              <LongitudeDegrees>20.5519620515406131744384765625</LongitudeDegrees>
            </Position>
            <AltitudeMeters>327.600006103515625</AltitudeMeters>
            <DistanceMeters>NAN</DistanceMeters>
          </Trackpoint>
          <Trackpoint>
            <Time>2022-09-22T11:05:07.000Z</Time>
            <Position>
              <LatitudeDegrees>49.533196426928043365478515625</LatitudeDegrees>
              <LongitudeDegrees>20.55207453668117523193359375</LongitudeDegrees>
            </Position>
            <AltitudeMeters>327.79998779296875</AltitudeMeters>
            <DistanceMeters>NAN</DistanceMeters>
          </Trackpoint>
          <Trackpoint>
            <Time>2022-09-22T11:05:10.000Z</Time>
            <Position>
              <LatitudeDegrees>49.5331892184913158416748046875</LatitudeDegrees>
              <LongitudeDegrees>20.55220554582774639129638671875</LongitudeDegrees>
            </Position>
            <AltitudeMeters>328.20001220703125</AltitudeMeters>
            <DistanceMeters>NAN</DistanceMeters>
          </Trackpoint>
          <Trackpoint>
            <Time>2022-09-22T11:05:12.000Z</Time>
            <Position>
              <LatitudeDegrees>49.53318125568330287933349609375</LatitudeDegrees>
              <LongitudeDegrees>20.55227025412023067474365234375</LongitudeDegrees>
            </Position>
            <AltitudeMeters>328.600006103515625</AltitudeMeters>
            <DistanceMeters>NAN</DistanceMeters>
          </Trackpoint>
          <Trackpoint>
            <Time>2022-09-22T11:05:19.000Z</Time>
            <Position>
              <LatitudeDegrees>49.53316935338079929351806640625</LatitudeDegrees>
              <LongitudeDegrees>20.5524539016187191009521484375</LongitudeDegrees>
            </Position>
            <AltitudeMeters>329</AltitudeMeters>
            <DistanceMeters>NAN</DistanceMeters>
          </Trackpoint>
          <Trackpoint>
            <Time>2022-09-22T11:05:24.000Z</Time>
            <Position>
              <LatitudeDegrees>49.53314638696610927581787109375</LatitudeDegrees>
              <LongitudeDegrees>20.55259832181036472320556640625</LongitudeDegrees>
            </Position>
            <AltitudeMeters>329.399993896484375</AltitudeMeters>
            <DistanceMeters>NAN</DistanceMeters>
          </Trackpoint>
          <Trackpoint>
            <Time>2022-09-22T11:05:26.000Z</Time>
            <Position>
              <LatitudeDegrees>49.5331375859677791595458984375</LatitudeDegrees>
              <LongitudeDegrees>20.55265716277062892913818359375</LongitudeDegrees>
            </Position>
            <AltitudeMeters>329.600006103515625</AltitudeMeters>
            <DistanceMeters>NAN</DistanceMeters>
          </Trackpoint>
          <Trackpoint>
            <Time>2022-09-22T11:05:28.000Z</Time>
            <Position>
              <LatitudeDegrees>49.53313414938747882843017578125</LatitudeDegrees>
              <LongitudeDegrees>20.55270896293222904205322265625</LongitudeDegrees>
            </Position>
            <AltitudeMeters>329.79998779296875</AltitudeMeters>
            <DistanceMeters>NAN</DistanceMeters>
          </Trackpoint>
          <Trackpoint>
            <Time>2022-09-22T11:05:31.000Z</Time>
            <Position>
              <LatitudeDegrees>49.533124007284641265869140625</LatitudeDegrees>
              <LongitudeDegrees>20.5527873337268829345703125</LongitudeDegrees>
            </Position>
            <AltitudeMeters>330.20001220703125</AltitudeMeters>
            <DistanceMeters>NAN</DistanceMeters>
          </Trackpoint>
          <Trackpoint>
            <Time>2022-09-22T11:05:33.000Z</Time>
            <Position>
              <LatitudeDegrees>49.53311487101018428802490234375</LatitudeDegrees>
              <LongitudeDegrees>20.55284340865910053253173828125</LongitudeDegrees>
            </Position>
            <AltitudeMeters>330.399993896484375</AltitudeMeters>
            <DistanceMeters>NAN</DistanceMeters>
          </Trackpoint>
          <Trackpoint>
            <Time>2022-09-22T11:05:36.000Z</Time>
            <Position>
              <LatitudeDegrees>49.53309676609933376312255859375</LatitudeDegrees>
              <LongitudeDegrees>20.552939884364604949951171875</LongitudeDegrees>
            </Position>
            <AltitudeMeters>330.399993896484375</AltitudeMeters>
            <DistanceMeters>NAN</DistanceMeters>
          </Trackpoint>
          <Trackpoint>
            <Time>2022-09-22T11:05:40.000Z</Time>
            <Position>
              <LatitudeDegrees>49.53307664953172206878662109375</LatitudeDegrees>
              <LongitudeDegrees>20.55307500064373016357421875</LongitudeDegrees>
            </Position>
            <AltitudeMeters>330.79998779296875</AltitudeMeters>
            <DistanceMeters>NAN</DistanceMeters>
          </Trackpoint>
          <Trackpoint>
            <Time>2022-09-22T11:05:45.000Z</Time>
            <Position>
              <LatitudeDegrees>49.53303314745426177978515625</LatitudeDegrees>
              <LongitudeDegrees>20.55323668755590915679931640625</LongitudeDegrees>
            </Position>
            <AltitudeMeters>331.20001220703125</AltitudeMeters>
            <DistanceMeters>NAN</DistanceMeters>
          </Trackpoint>
          <Trackpoint>
            <Time>2022-09-22T11:05:47.000Z</Time>
            <Position>
              <LatitudeDegrees>49.53300808556377887725830078125</LatitudeDegrees>
              <LongitudeDegrees>20.55328496731817722320556640625</LongitudeDegrees>
            </Position>
            <AltitudeMeters>331.399993896484375</AltitudeMeters>
            <DistanceMeters>NAN</DistanceMeters>
          </Trackpoint>
          <Trackpoint>
            <Time>2022-09-22T11:05:49.000Z</Time>
            <Position>
              <LatitudeDegrees>49.53298763372004032135009765625</LatitudeDegrees>
              <LongitudeDegrees>20.55333961732685565948486328125</LongitudeDegrees>
            </Position>
            <AltitudeMeters>331.600006103515625</AltitudeMeters>
            <DistanceMeters>NAN</DistanceMeters>
          </Trackpoint>
          <Trackpoint>
            <Time>2022-09-22T11:05:51.000Z</Time>
            <Position>
              <LatitudeDegrees>49.5329565368592739105224609375</LatitudeDegrees>
              <LongitudeDegrees>20.5533923394978046417236328125</LongitudeDegrees>
            </Position>
            <AltitudeMeters>331.600006103515625</AltitudeMeters>
            <DistanceMeters>NAN</DistanceMeters>
          </Trackpoint>
          <Trackpoint>
            <Time>2022-09-22T11:05:53.000Z</Time>
            <Position>
              <LatitudeDegrees>49.53291806392371654510498046875</LatitudeDegrees>
              <LongitudeDegrees>20.55344271473586559295654296875</LongitudeDegrees>
            </Position>
            <AltitudeMeters>331.79998779296875</AltitudeMeters>
            <DistanceMeters>NAN</DistanceMeters>
          </Trackpoint>
          <Trackpoint>
            <Time>2022-09-22T11:06:00.000Z</Time>
            <Position>
              <LatitudeDegrees>49.53276501037180423736572265625</LatitudeDegrees>
              <LongitudeDegrees>20.5535861290991306304931640625</LongitudeDegrees>
            </Position>
            <AltitudeMeters>332.20001220703125</AltitudeMeters>
            <DistanceMeters>NAN</DistanceMeters>
          </Trackpoint>
          <Trackpoint>
            <Time>2022-09-22T11:06:03.000Z</Time>
            <Position>
              <LatitudeDegrees>49.53268806450068950653076171875</LatitudeDegrees>
              <LongitudeDegrees>20.55363985709846019744873046875</LongitudeDegrees>
            </Position>
            <AltitudeMeters>332.600006103515625</AltitudeMeters>
            <DistanceMeters>NAN</DistanceMeters>
          </Trackpoint>
          <Trackpoint>
            <Time>2022-09-22T11:06:08.000Z</Time>
            <Position>
              <LatitudeDegrees>49.53257038258016109466552734375</LatitudeDegrees>
              <LongitudeDegrees>20.553698949515819549560546875</LongitudeDegrees>
            </Position>
            <AltitudeMeters>333.399993896484375</AltitudeMeters>
            <DistanceMeters>NAN</DistanceMeters>
          </Trackpoint>
          <Trackpoint>
            <Time>2022-09-22T11:06:10.000Z</Time>
            <Position>
              <LatitudeDegrees>49.5325354300439357757568359375</LatitudeDegrees>
              <LongitudeDegrees>20.5537195689976215362548828125</LongitudeDegrees>
            </Position>
            <AltitudeMeters>333.600006103515625</AltitudeMeters>
            <DistanceMeters>NAN</DistanceMeters>
          </Trackpoint>
          <Trackpoint>
            <Time>2022-09-22T11:06:13.000Z</Time>
            <Position>
              <LatitudeDegrees>49.53247784636914730072021484375</LatitudeDegrees>
              <LongitudeDegrees>20.5537504144012928009033203125</LongitudeDegrees>
            </Position>
            <AltitudeMeters>334</AltitudeMeters>
            <DistanceMeters>NAN</DistanceMeters>
          </Trackpoint>
          <Trackpoint>
            <Time>2022-09-22T11:06:16.000Z</Time>
            <Position>
              <LatitudeDegrees>49.5324107073247432708740234375</LatitudeDegrees>
              <LongitudeDegrees>20.55378788150846958160400390625</LongitudeDegrees>
            </Position>
            <AltitudeMeters>334</AltitudeMeters>
            <DistanceMeters>NAN</DistanceMeters>
          </Trackpoint>
          <Trackpoint>
            <Time>2022-09-22T11:06:20.000Z</Time>
            <Position>
              <LatitudeDegrees>49.5323382876813411712646484375</LatitudeDegrees>
              <LongitudeDegrees>20.55382610298693180084228515625</LongitudeDegrees>
            </Position>
            <AltitudeMeters>334.399993896484375</AltitudeMeters>
            <DistanceMeters>NAN</DistanceMeters>
          </Trackpoint>
          <Trackpoint>
            <Time>2022-09-22T11:06:22.000Z</Time>
            <Position>
              <LatitudeDegrees>49.5322997309267520904541015625</LatitudeDegrees>
              <LongitudeDegrees>20.553837083280086517333984375</LongitudeDegrees>
            </Position>
            <AltitudeMeters>334.600006103515625</AltitudeMeters>
            <DistanceMeters>NAN</DistanceMeters>
          </Trackpoint>
          <Trackpoint>
            <Time>2022-09-22T11:06:26.000Z</Time>
            <Position>
              <LatitudeDegrees>49.53223058022558689117431640625</LatitudeDegrees>
              <LongitudeDegrees>20.55386717431247234344482421875</LongitudeDegrees>
            </Position>
            <AltitudeMeters>335.20001220703125</AltitudeMeters>
            <DistanceMeters>NAN</DistanceMeters>
          </Trackpoint>
          <Trackpoint>
            <Time>2022-09-22T11:06:28.000Z</Time>
            <Position>
              <LatitudeDegrees>49.532196633517742156982421875</LatitudeDegrees>
              <LongitudeDegrees>20.5538949184119701385498046875</LongitudeDegrees>
            </Position>
            <AltitudeMeters>335.20001220703125</AltitudeMeters>
            <DistanceMeters>NAN</DistanceMeters>
          </Trackpoint>
          <Trackpoint>
            <Time>2022-09-22T11:06:29.000Z</Time>
            <Position>
              <LatitudeDegrees>49.53218313865363597869873046875</LatitudeDegrees>
              <LongitudeDegrees>20.55391143076121807098388671875</LongitudeDegrees>
            </Position>
            <AltitudeMeters>335.20001220703125</AltitudeMeters>
            <DistanceMeters>NAN</DistanceMeters>
          </Trackpoint>
          <Trackpoint>
            <Time>2022-09-22T11:06:31.000Z</Time>
            <Position>
              <LatitudeDegrees>49.532152712345123291015625</LatitudeDegrees>
              <LongitudeDegrees>20.55394093506038188934326171875</LongitudeDegrees>
            </Position>
            <AltitudeMeters>335.399993896484375</AltitudeMeters>
            <DistanceMeters>NAN</DistanceMeters>
          </Trackpoint>
          <Trackpoint>
            <Time>2022-09-22T11:06:34.000Z</Time>
            <Position>
              <LatitudeDegrees>49.53210032545030117034912109375</LatitudeDegrees>
              <LongitudeDegrees>20.5540008656680583953857421875</LongitudeDegrees>
            </Position>
            <AltitudeMeters>335.600006103515625</AltitudeMeters>
            <DistanceMeters>NAN</DistanceMeters>
          </Trackpoint>
          <Trackpoint>
            <Time>2022-09-22T11:06:38.000Z</Time>
            <Position>
              <LatitudeDegrees>49.5320486091077327728271484375</LatitudeDegrees>
              <LongitudeDegrees>20.5540528334677219390869140625</LongitudeDegrees>
            </Position>
            <AltitudeMeters>335.79998779296875</AltitudeMeters>
            <DistanceMeters>NAN</DistanceMeters>
          </Trackpoint>
          <Trackpoint>
            <Time>2022-09-22T11:06:40.000Z</Time>
            <Position>
              <LatitudeDegrees>49.53202203847467899322509765625</LatitudeDegrees>
              <LongitudeDegrees>20.5540853552520275115966796875</LongitudeDegrees>
            </Position>
            <AltitudeMeters>336</AltitudeMeters>
            <DistanceMeters>NAN</DistanceMeters>
          </Trackpoint>
          <Trackpoint>
            <Time>2022-09-22T11:06:44.000Z</Time>
            <Position>
              <LatitudeDegrees>49.53196470625698566436767578125</LatitudeDegrees>
              <LongitudeDegrees>20.5541785620152950286865234375</LongitudeDegrees>
            </Position>
            <AltitudeMeters>336.20001220703125</AltitudeMeters>
            <DistanceMeters>NAN</DistanceMeters>
          </Trackpoint>
          <Trackpoint>
            <Time>2022-09-22T11:06:49.000Z</Time>
            <Position>
              <LatitudeDegrees>49.531907625496387481689453125</LatitudeDegrees>
              <LongitudeDegrees>20.55431418120861053466796875</LongitudeDegrees>
            </Position>
            <AltitudeMeters>336.600006103515625</AltitudeMeters>
            <DistanceMeters>NAN</DistanceMeters>
          </Trackpoint>
          <Trackpoint>
            <Time>2022-09-22T11:06:50.000Z</Time>
            <Position>
              <LatitudeDegrees>49.53189211897552013397216796875</LatitudeDegrees>
              <LongitudeDegrees>20.554348044097423553466796875</LongitudeDegrees>
            </Position>
            <AltitudeMeters>336.600006103515625</AltitudeMeters>
            <DistanceMeters>NAN</DistanceMeters>
          </Trackpoint>
          <Trackpoint>
            <Time>2022-09-22T11:06:52.000Z</Time>
            <Position>
              <LatitudeDegrees>49.53187485225498676300048828125</LatitudeDegrees>
              <LongitudeDegrees>20.55441074073314666748046875</LongitudeDegrees>
            </Position>
            <AltitudeMeters>336.79998779296875</AltitudeMeters>
            <DistanceMeters>NAN</DistanceMeters>
          </Trackpoint>
          <Trackpoint>
            <Time>2022-09-22T11:06:56.000Z</Time>
            <Position>
              <LatitudeDegrees>49.5318429172039031982421875</LatitudeDegrees>
              <LongitudeDegrees>20.55451660417020320892333984375</LongitudeDegrees>
            </Position>
            <AltitudeMeters>336.79998779296875</AltitudeMeters>
            <DistanceMeters>NAN</DistanceMeters>
          </Trackpoint>
          <Trackpoint>
            <Time>2022-09-22T11:07:01.000Z</Time>
            <Position>
              <LatitudeDegrees>49.53183277510106563568115234375</LatitudeDegrees>
              <LongitudeDegrees>20.55467317812144756317138671875</LongitudeDegrees>
            </Position>
            <AltitudeMeters>337.20001220703125</AltitudeMeters>
            <DistanceMeters>NAN</DistanceMeters>
          </Trackpoint>
          <Trackpoint>
            <Time>2022-09-22T11:07:04.000Z</Time>
            <Position>
              <LatitudeDegrees>49.5318241417407989501953125</LatitudeDegrees>
              <LongitudeDegrees>20.554770492017269134521484375</LongitudeDegrees>
            </Position>
            <AltitudeMeters>337.600006103515625</AltitudeMeters>
            <DistanceMeters>NAN</DistanceMeters>
          </Trackpoint>
          <Trackpoint>
            <Time>2022-09-22T11:07:06.000Z</Time>
            <Position>
              <LatitudeDegrees>49.5318239741027355194091796875</LatitudeDegrees>
              <LongitudeDegrees>20.55482991971075534820556640625</LongitudeDegrees>
            </Position>
            <AltitudeMeters>337.600006103515625</AltitudeMeters>
            <DistanceMeters>NAN</DistanceMeters>
          </Trackpoint>
          <Trackpoint>
            <Time>2022-09-22T11:07:08.000Z</Time>
            <Position>
              <LatitudeDegrees>49.5318160951137542724609375</LatitudeDegrees>
              <LongitudeDegrees>20.55488817393779754638671875</LongitudeDegrees>
            </Position>
            <AltitudeMeters>337.79998779296875</AltitudeMeters>
            <DistanceMeters>NAN</DistanceMeters>
          </Trackpoint>
          <Trackpoint>
            <Time>2022-09-22T11:07:10.000Z</Time>
            <Position>
              <LatitudeDegrees>49.53181584365665912628173828125</LatitudeDegrees>
              <LongitudeDegrees>20.55495011620223522186279296875</LongitudeDegrees>
            </Position>
            <AltitudeMeters>338</AltitudeMeters>
            <DistanceMeters>NAN</DistanceMeters>
          </Trackpoint>
          <Trackpoint>
            <Time>2022-09-22T11:07:19.000Z</Time>
            <Position>
              <LatitudeDegrees>49.53186370432376861572265625</LatitudeDegrees>
              <LongitudeDegrees>20.55524750612676143646240234375</LongitudeDegrees>
            </Position>
            <AltitudeMeters>338</AltitudeMeters>
            <DistanceMeters>NAN</DistanceMeters>
          </Trackpoint>
          <Trackpoint>
            <Time>2022-09-22T11:07:26.000Z</Time>
            <Position>
              <LatitudeDegrees>49.5319269038736820220947265625</LatitudeDegrees>
              <LongitudeDegrees>20.5555206723511219024658203125</LongitudeDegrees>
            </Position>
            <AltitudeMeters>338.79998779296875</AltitudeMeters>
            <DistanceMeters>NAN</DistanceMeters>
          </Trackpoint>
          <Trackpoint>
            <Time>2022-09-22T11:07:27.000Z</Time>
            <Position>
              <LatitudeDegrees>49.53193285502493381500244140625</LatitudeDegrees>
              <LongitudeDegrees>20.55555327795445919036865234375</LongitudeDegrees>
            </Position>
            <AltitudeMeters>338.79998779296875</AltitudeMeters>
            <DistanceMeters>NAN</DistanceMeters>
          </Trackpoint>
          <Trackpoint>
            <Time>2022-09-22T11:07:32.000Z</Time>
            <Position>
              <LatitudeDegrees>49.53197023831307888031005859375</LatitudeDegrees>
              <LongitudeDegrees>20.55570046417415142059326171875</LongitudeDegrees>
            </Position>
            <AltitudeMeters>339</AltitudeMeters>
            <DistanceMeters>NAN</DistanceMeters>
          </Trackpoint>
          <Trackpoint>
            <Time>2022-09-22T11:07:40.000Z</Time>
            <Position>
              <LatitudeDegrees>49.53210887499153614044189453125</LatitudeDegrees>
              <LongitudeDegrees>20.5559907294809818267822265625</LongitudeDegrees>
            </Position>
            <AltitudeMeters>338.79998779296875</AltitudeMeters>
            <DistanceMeters>NAN</DistanceMeters>
          </Trackpoint>
          <Trackpoint>
            <Time>2022-09-22T11:07:46.000Z</Time>
            <Position>
              <LatitudeDegrees>49.53222353942692279815673828125</LatitudeDegrees>
              <LongitudeDegrees>20.55625350214540958404541015625</LongitudeDegrees>
            </Position>
            <AltitudeMeters>339</AltitudeMeters>
            <DistanceMeters>NAN</DistanceMeters>
          </Trackpoint>
          <Trackpoint>
            <Time>2022-09-22T11:07:48.000Z</Time>
            <Position>
              <LatitudeDegrees>49.53226335346698760986328125</LatitudeDegrees>
              <LongitudeDegrees>20.55634595453739166259765625</LongitudeDegrees>
            </Position>
            <AltitudeMeters>338.600006103515625</AltitudeMeters>
            <DistanceMeters>NAN</DistanceMeters>
          </Trackpoint>
          <Trackpoint>
            <Time>2022-09-22T11:07:57.000Z</Time>
            <Position>
              <LatitudeDegrees>49.53246678225696086883544921875</LatitudeDegrees>
              <LongitudeDegrees>20.5567927099764347076416015625</LongitudeDegrees>
            </Position>
            <AltitudeMeters>338.600006103515625</AltitudeMeters>
            <DistanceMeters>NAN</DistanceMeters>
          </Trackpoint>
          <Trackpoint>
            <Time>2022-09-22T11:08:02.000Z</Time>
            <Position>
              <LatitudeDegrees>49.5325672812759876251220703125</LatitudeDegrees>
              <LongitudeDegrees>20.55702966637909412384033203125</LongitudeDegrees>
            </Position>
            <AltitudeMeters>337.79998779296875</AltitudeMeters>
            <DistanceMeters>NAN</DistanceMeters>
          </Trackpoint>
          <Trackpoint>
            <Time>2022-09-22T11:08:03.000Z</Time>
            <Position>
              <LatitudeDegrees>49.53258697874844074249267578125</LatitudeDegrees>
              <LongitudeDegrees>20.55707509629428386688232421875</LongitudeDegrees>
            </Position>
            <AltitudeMeters>337.600006103515625</AltitudeMeters>
            <DistanceMeters>NAN</DistanceMeters>
          </Trackpoint>
          <Trackpoint>
            <Time>2022-09-22T11:08:06.000Z</Time>
            <Position>
              <LatitudeDegrees>49.53264313749969005584716796875</LatitudeDegrees>
              <LongitudeDegrees>20.5572191812098026275634765625</LongitudeDegrees>
            </Position>
            <AltitudeMeters>337.399993896484375</AltitudeMeters>
            <DistanceMeters>NAN</DistanceMeters>
          </Trackpoint>
          <Trackpoint>
            <Time>2022-09-22T11:08:12.000Z</Time>
            <Position>
              <LatitudeDegrees>49.53272812999784946441650390625</LatitudeDegrees>
              <LongitudeDegrees>20.55748145096004009246826171875</LongitudeDegrees>
            </Position>
            <AltitudeMeters>336.79998779296875</AltitudeMeters>
            <DistanceMeters>NAN</DistanceMeters>
          </Trackpoint>
          <Trackpoint>
            <Time>2022-09-22T11:08:20.000Z</Time>
            <Position>
              <LatitudeDegrees>49.5328438840806484222412109375</LatitudeDegrees>
              <LongitudeDegrees>20.5578754842281341552734375</LongitudeDegrees>
            </Position>
            <AltitudeMeters>337.20001220703125</AltitudeMeters>
            <DistanceMeters>NAN</DistanceMeters>
          </Trackpoint>
          <Trackpoint>
            <Time>2022-09-22T11:08:27.000Z</Time>
            <Position>
              <LatitudeDegrees>49.53300205059349536895751953125</LatitudeDegrees>
              <LongitudeDegrees>20.55822081863880157470703125</LongitudeDegrees>
            </Position>
            <AltitudeMeters>337.600006103515625</AltitudeMeters>
            <DistanceMeters>NAN</DistanceMeters>
          </Trackpoint>
          <Trackpoint>
            <Time>2022-09-22T11:08:35.000Z</Time>
            <Position>
              <LatitudeDegrees>49.533180333673954010009765625</LatitudeDegrees>
              <LongitudeDegrees>20.5584888719022274017333984375</LongitudeDegrees>
            </Position>
            <AltitudeMeters>338.600006103515625</AltitudeMeters>
            <DistanceMeters>NAN</DistanceMeters>
          </Trackpoint>
          <Trackpoint>
            <Time>2022-09-22T11:08:37.000Z</Time>
            <Position>
              <LatitudeDegrees>49.5332287810742855072021484375</LatitudeDegrees>
              <LongitudeDegrees>20.5585485510528087615966796875</LongitudeDegrees>
            </Position>
            <AltitudeMeters>338.79998779296875</AltitudeMeters>
            <DistanceMeters>NAN</DistanceMeters>
          </Trackpoint>
          <Trackpoint>
            <Time>2022-09-22T11:08:41.000Z</Time>
            <Position>
              <LatitudeDegrees>49.5333132706582546234130859375</LatitudeDegrees>
              <LongitudeDegrees>20.55867553688585758209228515625</LongitudeDegrees>
            </Position>
            <AltitudeMeters>339</AltitudeMeters>
            <DistanceMeters>NAN</DistanceMeters>
          </Trackpoint>
          <Trackpoint>
            <Time>2022-09-22T11:08:43.000Z</Time>
            <Position>
              <LatitudeDegrees>49.53334964811801910400390625</LatitudeDegrees>
              <LongitudeDegrees>20.5587352998554706573486328125</LongitudeDegrees>
            </Position>
            <AltitudeMeters>339.20001220703125</AltitudeMeters>
            <DistanceMeters>NAN</DistanceMeters>
          </Trackpoint>
          <Trackpoint>
            <Time>2022-09-22T11:08:47.000Z</Time>
            <Position>
              <LatitudeDegrees>49.53341938555240631103515625</LatitudeDegrees>
              <LongitudeDegrees>20.5588425882160663604736328125</LongitudeDegrees>
            </Position>
            <AltitudeMeters>339.600006103515625</AltitudeMeters>
            <DistanceMeters>NAN</DistanceMeters>
          </Trackpoint>
          <Trackpoint>
            <Time>2022-09-22T11:08:49.000Z</Time>
            <Position>
              <LatitudeDegrees>49.5334654860198497772216796875</LatitudeDegrees>
              <LongitudeDegrees>20.55891056545078754425048828125</LongitudeDegrees>
            </Position>
            <AltitudeMeters>339.79998779296875</AltitudeMeters>
            <DistanceMeters>NAN</DistanceMeters>
          </Trackpoint>
          <Trackpoint>
            <Time>2022-09-22T11:08:50.000Z</Time>
            <Position>
              <LatitudeDegrees>49.533488117158412933349609375</LatitudeDegrees>
              <LongitudeDegrees>20.558946691453456878662109375</LongitudeDegrees>
            </Position>
            <AltitudeMeters>339.79998779296875</AltitudeMeters>
            <DistanceMeters>NAN</DistanceMeters>
          </Trackpoint>
          <Trackpoint>
            <Time>2022-09-22T11:08:53.000Z</Time>
            <Position>
              <LatitudeDegrees>49.5335469581186771392822265625</LatitudeDegrees>
              <LongitudeDegrees>20.55908675305545330047607421875</LongitudeDegrees>
            </Position>
            <AltitudeMeters>340.399993896484375</AltitudeMeters>
            <DistanceMeters>NAN</DistanceMeters>
          </Trackpoint>
          <Trackpoint>
            <Time>2022-09-22T11:08:54.000Z</Time>
            <Position>
              <LatitudeDegrees>49.53356514684855937957763671875</LatitudeDegrees>
              <LongitudeDegrees>20.55913134478032588958740234375</LongitudeDegrees>
            </Position>
            <AltitudeMeters>340.399993896484375</AltitudeMeters>
            <DistanceMeters>NAN</DistanceMeters>
          </Trackpoint>
          <Trackpoint>
            <Time>2022-09-22T11:08:55.000Z</Time>
            <Position>
              <LatitudeDegrees>49.5335828326642513275146484375</LatitudeDegrees>
              <LongitudeDegrees>20.55917325429618358612060546875</LongitudeDegrees>
            </Position>
            <AltitudeMeters>340.399993896484375</AltitudeMeters>
            <DistanceMeters>NAN</DistanceMeters>
          </Trackpoint>
          <Trackpoint>
            <Time>2022-09-22T11:09:00.000Z</Time>
            <Position>
              <LatitudeDegrees>49.5336679928004741668701171875</LatitudeDegrees>
              <LongitudeDegrees>20.5594095401465892791748046875</LongitudeDegrees>
            </Position>
            <AltitudeMeters>340.600006103515625</AltitudeMeters>
            <DistanceMeters>NAN</DistanceMeters>
          </Trackpoint>
          <Trackpoint>
            <Time>2022-09-22T11:09:02.000Z</Time>
            <Position>
              <LatitudeDegrees>49.53369556926190853118896484375</LatitudeDegrees>
              <LongitudeDegrees>20.5595035851001739501953125</LongitudeDegrees>
            </Position>
            <AltitudeMeters>340.79998779296875</AltitudeMeters>
            <DistanceMeters>NAN</DistanceMeters>
          </Trackpoint>
          <Trackpoint>
            <Time>2022-09-22T11:09:08.000Z</Time>
            <Position>
              <LatitudeDegrees>49.53372138552367687225341796875</LatitudeDegrees>
              <LongitudeDegrees>20.55979284457862377166748046875</LongitudeDegrees>
            </Position>
            <AltitudeMeters>340.600006103515625</AltitudeMeters>
            <DistanceMeters>NAN</DistanceMeters>
          </Trackpoint>
          <Trackpoint>
            <Time>2022-09-22T11:09:16.000Z</Time>
            <Position>
              <LatitudeDegrees>49.5337739400565624237060546875</LatitudeDegrees>
              <LongitudeDegrees>20.56025351397693157196044921875</LongitudeDegrees>
            </Position>
            <AltitudeMeters>339.79998779296875</AltitudeMeters>
            <DistanceMeters>NAN</DistanceMeters>
          </Trackpoint>
          <Trackpoint>
            <Time>2022-09-22T11:09:22.000Z</Time>
            <Position>
              <LatitudeDegrees>49.53382481820881366729736328125</LatitudeDegrees>
              <LongitudeDegrees>20.56065584532916545867919921875</LongitudeDegrees>
            </Position>
            <AltitudeMeters>338.600006103515625</AltitudeMeters>
            <DistanceMeters>NAN</DistanceMeters>
          </Trackpoint>
          <Trackpoint>
            <Time>2022-09-22T11:09:27.000Z</Time>
            <Position>
              <LatitudeDegrees>49.53389690257608890533447265625</LatitudeDegrees>
              <LongitudeDegrees>20.56109488941729068756103515625</LongitudeDegrees>
            </Position>
            <AltitudeMeters>337.399993896484375</AltitudeMeters>
            <DistanceMeters>NAN</DistanceMeters>
          </Trackpoint>
          <Trackpoint>
            <Time>2022-09-22T11:09:30.000Z</Time>
            <Position>
              <LatitudeDegrees>49.53396529890596866607666015625</LatitudeDegrees>
              <LongitudeDegrees>20.56142077781260013580322265625</LongitudeDegrees>
            </Position>
            <AltitudeMeters>335.600006103515625</AltitudeMeters>
            <DistanceMeters>NAN</DistanceMeters>
          </Trackpoint>
          <Trackpoint>
            <Time>2022-09-22T11:09:32.000Z</Time>
            <Position>
              <LatitudeDegrees>49.534009136259555816650390625</LatitudeDegrees>
              <LongitudeDegrees>20.56164440698921680450439453125</LongitudeDegrees>
            </Position>
            <AltitudeMeters>334.79998779296875</AltitudeMeters>
            <DistanceMeters>NAN</DistanceMeters>
          </Trackpoint>
          <Trackpoint>
            <Time>2022-09-22T11:09:33.000Z</Time>
            <Position>
              <LatitudeDegrees>49.53403051011264324188232421875</LatitudeDegrees>
              <LongitudeDegrees>20.5617566406726837158203125</LongitudeDegrees>
            </Position>
            <AltitudeMeters>334.399993896484375</AltitudeMeters>
            <DistanceMeters>NAN</DistanceMeters>
          </Trackpoint>
          <Trackpoint>
            <Time>2022-09-22T11:09:38.000Z</Time>
            <Position>
              <LatitudeDegrees>49.53410024754703044891357421875</LatitudeDegrees>
              <LongitudeDegrees>20.562324263155460357666015625</LongitudeDegrees>
            </Position>
            <AltitudeMeters>333.399993896484375</AltitudeMeters>
            <DistanceMeters>NAN</DistanceMeters>
          </Trackpoint>
          <Trackpoint>
            <Time>2022-09-22T11:09:41.000Z</Time>
            <Position>
              <LatitudeDegrees>49.53414685092866420745849609375</LatitudeDegrees>
              <LongitudeDegrees>20.562652833759784698486328125</LongitudeDegrees>
            </Position>
            <AltitudeMeters>333.399993896484375</AltitudeMeters>
            <DistanceMeters>NAN</DistanceMeters>
          </Trackpoint>
          <Trackpoint>
            <Time>2022-09-22T11:09:45.000Z</Time>
            <Position>
              <LatitudeDegrees>49.53420418314635753631591796875</LatitudeDegrees>
              <LongitudeDegrees>20.563063882291316986083984375</LongitudeDegrees>
            </Position>
            <AltitudeMeters>333.20001220703125</AltitudeMeters>
            <DistanceMeters>NAN</DistanceMeters>
          </Trackpoint>
          <Trackpoint>
            <Time>2022-09-22T11:09:46.000Z</Time>
            <Position>
              <LatitudeDegrees>49.53422698192298412322998046875</LatitudeDegrees>
              <LongitudeDegrees>20.56315415538847446441650390625</LongitudeDegrees>
            </Position>
            <AltitudeMeters>333.20001220703125</AltitudeMeters>
            <DistanceMeters>NAN</DistanceMeters>
          </Trackpoint>
          <Trackpoint>
            <Time>2022-09-22T11:09:48.000Z</Time>
            <Position>
              <LatitudeDegrees>49.53427693806588649749755859375</LatitudeDegrees>
              <LongitudeDegrees>20.56331844069063663482666015625</LongitudeDegrees>
            </Position>
            <AltitudeMeters>333.399993896484375</AltitudeMeters>
            <DistanceMeters>NAN</DistanceMeters>
          </Trackpoint>
          <Trackpoint>
            <Time>2022-09-22T11:09:51.000Z</Time>
            <Position>
              <LatitudeDegrees>49.53436276875436305999755859375</LatitudeDegrees>
              <LongitudeDegrees>20.5635552294552326202392578125</LongitudeDegrees>
            </Position>
            <AltitudeMeters>333.399993896484375</AltitudeMeters>
            <DistanceMeters>NAN</DistanceMeters>
          </Trackpoint>
          <Trackpoint>
            <Time>2022-09-22T11:09:58.000Z</Time>
            <Position>
              <LatitudeDegrees>49.53453761525452136993408203125</LatitudeDegrees>
              <LongitudeDegrees>20.564067028462886810302734375</LongitudeDegrees>
            </Position>
            <AltitudeMeters>333.600006103515625</AltitudeMeters>
            <DistanceMeters>NAN</DistanceMeters>
          </Trackpoint>
          <Trackpoint>
            <Time>2022-09-22T11:10:00.000Z</Time>
            <Position>
              <LatitudeDegrees>49.53457583673298358917236328125</LatitudeDegrees>
              <LongitudeDegrees>20.56420993991196155548095703125</LongitudeDegrees>
            </Position>
            <AltitudeMeters>333.600006103515625</AltitudeMeters>
            <DistanceMeters>NAN</DistanceMeters>
          </Trackpoint>
          <Trackpoint>
            <Time>2022-09-22T11:10:06.000Z</Time>
            <Position>
              <LatitudeDegrees>49.5346862263977527618408203125</LatitudeDegrees>
              <LongitudeDegrees>20.56460858322679996490478515625</LongitudeDegrees>
            </Position>
            <AltitudeMeters>332.600006103515625</AltitudeMeters>
            <DistanceMeters>NAN</DistanceMeters>
          </Trackpoint>
          <Trackpoint>
            <Time>2022-09-22T11:10:10.000Z</Time>
            <Position>
              <LatitudeDegrees>49.53475319780409336090087890625</LatitudeDegrees>
              <LongitudeDegrees>20.56487160734832286834716796875</LongitudeDegrees>
            </Position>
            <AltitudeMeters>332.20001220703125</AltitudeMeters>
            <DistanceMeters>NAN</DistanceMeters>
          </Trackpoint>
          <Trackpoint>
            <Time>2022-09-22T11:10:13.000Z</Time>
            <Position>
              <LatitudeDegrees>49.5348102785646915435791015625</LatitudeDegrees>
              <LongitudeDegrees>20.565058775246143341064453125</LongitudeDegrees>
            </Position>
            <AltitudeMeters>332</AltitudeMeters>
            <DistanceMeters>NAN</DistanceMeters>
          </Trackpoint>
          <Trackpoint>
            <Time>2022-09-22T11:10:14.000Z</Time>
            <Position>
              <LatitudeDegrees>49.534825868904590606689453125</LatitudeDegrees>
              <LongitudeDegrees>20.56512289680540561676025390625</LongitudeDegrees>
            </Position>
            <AltitudeMeters>332</AltitudeMeters>
            <DistanceMeters>NAN</DistanceMeters>
          </Trackpoint>
          <Trackpoint>
            <Time>2022-09-22T11:10:17.000Z</Time>
            <Position>
              <LatitudeDegrees>49.534880183637142181396484375</LatitudeDegrees>
              <LongitudeDegrees>20.56531383655965328216552734375</LongitudeDegrees>
            </Position>
            <AltitudeMeters>332.79998779296875</AltitudeMeters>
            <DistanceMeters>NAN</DistanceMeters>
          </Trackpoint>
          <Trackpoint>
            <Time>2022-09-22T11:10:25.000Z</Time>
            <Position>
              <LatitudeDegrees>49.5350161381065845489501953125</LatitudeDegrees>
              <LongitudeDegrees>20.5658470094203948974609375</LongitudeDegrees>
            </Position>
            <AltitudeMeters>332.399993896484375</AltitudeMeters>
            <DistanceMeters>NAN</DistanceMeters>
          </Trackpoint>
          <Trackpoint>
            <Time>2022-09-22T11:10:32.000Z</Time>
            <Position>
              <LatitudeDegrees>49.5351512543857097625732421875</LatitudeDegrees>
              <LongitudeDegrees>20.5663096904754638671875</LongitudeDegrees>
            </Position>
            <AltitudeMeters>331</AltitudeMeters>
            <DistanceMeters>NAN</DistanceMeters>
          </Trackpoint>
          <Trackpoint>
            <Time>2022-09-22T11:10:33.000Z</Time>
            <Position>
              <LatitudeDegrees>49.535167850553989410400390625</LatitudeDegrees>
              <LongitudeDegrees>20.56637565605342388153076171875</LongitudeDegrees>
            </Position>
            <AltitudeMeters>330.600006103515625</AltitudeMeters>
            <DistanceMeters>NAN</DistanceMeters>
          </Trackpoint>
          <Trackpoint>
            <Time>2022-09-22T11:10:36.000Z</Time>
            <Position>
              <LatitudeDegrees>49.5351975224912166595458984375</LatitudeDegrees>
              <LongitudeDegrees>20.56657715700566768646240234375</LongitudeDegrees>
            </Position>
            <AltitudeMeters>330.399993896484375</AltitudeMeters>
            <DistanceMeters>NAN</DistanceMeters>
          </Trackpoint>
          <Trackpoint>
            <Time>2022-09-22T11:10:39.000Z</Time>
            <Position>
              <LatitudeDegrees>49.535248987376689910888671875</LatitudeDegrees>
              <LongitudeDegrees>20.566762648522853851318359375</LongitudeDegrees>
            </Position>
            <AltitudeMeters>330.20001220703125</AltitudeMeters>
            <DistanceMeters>NAN</DistanceMeters>
          </Trackpoint>
          <Trackpoint>
            <Time>2022-09-22T11:10:41.000Z</Time>
            <Position>
              <LatitudeDegrees>49.53528142534196376800537109375</LatitudeDegrees>
              <LongitudeDegrees>20.56688259355723857879638671875</LongitudeDegrees>
            </Position>
            <AltitudeMeters>330.20001220703125</AltitudeMeters>
            <DistanceMeters>NAN</DistanceMeters>
          </Trackpoint>
          <Trackpoint>
            <Time>2022-09-22T11:10:46.000Z</Time>
            <Position>
              <LatitudeDegrees>49.5353705249726772308349609375</LatitudeDegrees>
              <LongitudeDegrees>20.5671899579465389251708984375</LongitudeDegrees>
            </Position>
            <AltitudeMeters>329.600006103515625</AltitudeMeters>
            <DistanceMeters>NAN</DistanceMeters>
          </Trackpoint>
          <Trackpoint>
            <Time>2022-09-22T11:10:48.000Z</Time>
            <Position>
              <LatitudeDegrees>49.5354027114808559417724609375</LatitudeDegrees>
              <LongitudeDegrees>20.567315183579921722412109375</LongitudeDegrees>
            </Position>
            <AltitudeMeters>329.20001220703125</AltitudeMeters>
            <DistanceMeters>NAN</DistanceMeters>
          </Trackpoint>
          <Trackpoint>
            <Time>2022-09-22T11:10:51.000Z</Time>
            <Position>
              <LatitudeDegrees>49.5354107581079006195068359375</LatitudeDegrees>
              <LongitudeDegrees>20.567444600164890289306640625</LongitudeDegrees>
            </Position>
            <AltitudeMeters>328.600006103515625</AltitudeMeters>
            <DistanceMeters>NAN</DistanceMeters>
          </Trackpoint>
          <Trackpoint>
            <Time>2022-09-22T11:10:56.000Z</Time>
            <Position>
              <LatitudeDegrees>49.53536323271691799163818359375</LatitudeDegrees>
              <LongitudeDegrees>20.56757829152047634124755859375</LongitudeDegrees>
            </Position>
            <AltitudeMeters>328.600006103515625</AltitudeMeters>
            <DistanceMeters>NAN</DistanceMeters>
          </Trackpoint>
          <Trackpoint>
            <Time>2022-09-22T11:10:57.000Z</Time>
            <Position>
              <LatitudeDegrees>49.53535920940339565277099609375</LatitudeDegrees>
              <LongitudeDegrees>20.567594803869724273681640625</LongitudeDegrees>
            </Position>
            <AltitudeMeters>328.600006103515625</AltitudeMeters>
            <DistanceMeters>NAN</DistanceMeters>
          </Trackpoint>
          <Trackpoint>
            <Time>2022-09-22T11:11:00.000Z</Time>
            <Position>
              <LatitudeDegrees>49.53535987995564937591552734375</LatitudeDegrees>
              <LongitudeDegrees>20.5676110647618770599365234375</LongitudeDegrees>
            </Position>
            <AltitudeMeters>328.79998779296875</AltitudeMeters>
            <DistanceMeters>NAN</DistanceMeters>
          </Trackpoint>
          <Trackpoint>
            <Time>2022-09-22T11:11:11.000Z</Time>
            <Position>
              <LatitudeDegrees>49.53535987995564937591552734375</LatitudeDegrees>
              <LongitudeDegrees>20.5676110647618770599365234375</LongitudeDegrees>
            </Position>
            <AltitudeMeters>328.79998779296875</AltitudeMeters>
            <DistanceMeters>NAN</DistanceMeters>
          </Trackpoint>
          <Trackpoint>
            <Time>2022-09-22T11:11:17.000Z</Time>
            <Position>
              <LatitudeDegrees>49.53535987995564937591552734375</LatitudeDegrees>
              <LongitudeDegrees>20.5676110647618770599365234375</LongitudeDegrees>
            </Position>
            <AltitudeMeters>328.79998779296875</AltitudeMeters>
            <DistanceMeters>NAN</DistanceMeters>
          </Trackpoint>
          <Trackpoint>
            <Time>2022-09-22T11:11:19.000Z</Time>
            <Position>
              <LatitudeDegrees>49.53535987995564937591552734375</LatitudeDegrees>
              <LongitudeDegrees>20.5676110647618770599365234375</LongitudeDegrees>
            </Position>
            <AltitudeMeters>328.79998779296875</AltitudeMeters>
            <DistanceMeters>NAN</DistanceMeters>
          </Trackpoint>
          <Trackpoint>
            <Time>2022-09-22T11:11:23.000Z</Time>
            <Position>
              <LatitudeDegrees>49.53535987995564937591552734375</LatitudeDegrees>
              <LongitudeDegrees>20.5676110647618770599365234375</LongitudeDegrees>
            </Position>
            <AltitudeMeters>328.79998779296875</AltitudeMeters>
            <DistanceMeters>NAN</DistanceMeters>
          </Trackpoint>
          <Trackpoint>
            <Time>2022-09-22T11:11:30.000Z</Time>
            <Position>
              <LatitudeDegrees>49.53535987995564937591552734375</LatitudeDegrees>
              <LongitudeDegrees>20.5676110647618770599365234375</LongitudeDegrees>
            </Position>
            <AltitudeMeters>328.79998779296875</AltitudeMeters>
            <DistanceMeters>NAN</DistanceMeters>
          </Trackpoint>
          <Trackpoint>
            <Time>2022-09-22T11:11:40.000Z</Time>
            <Position>
              <LatitudeDegrees>49.53537379391491413116455078125</LatitudeDegrees>
              <LongitudeDegrees>20.5676092207431793212890625</LongitudeDegrees>
            </Position>
            <AltitudeMeters>328.79998779296875</AltitudeMeters>
            <DistanceMeters>NAN</DistanceMeters>
          </Trackpoint>
          <Trackpoint>
            <Time>2022-09-22T11:11:48.000Z</Time>
            <Position>
              <LatitudeDegrees>49.53537027351558208465576171875</LatitudeDegrees>
              <LongitudeDegrees>20.567610897123813629150390625</LongitudeDegrees>
            </Position>
            <AltitudeMeters>328.79998779296875</AltitudeMeters>
            <DistanceMeters>NAN</DistanceMeters>
          </Trackpoint>
          <Trackpoint>
            <Time>2022-09-22T11:11:50.000Z</Time>
            <Position>
              <LatitudeDegrees>49.5353440381586551666259765625</LatitudeDegrees>
              <LongitudeDegrees>20.5676398985087871551513671875</LongitudeDegrees>
            </Position>
            <AltitudeMeters>328.79998779296875</AltitudeMeters>
            <DistanceMeters>NAN</DistanceMeters>
          </Trackpoint>
          <Trackpoint>
            <Time>2022-09-22T11:11:53.000Z</Time>
            <Position>
              <LatitudeDegrees>49.5353292860090732574462890625</LatitudeDegrees>
              <LongitudeDegrees>20.56765188463032245635986328125</LongitudeDegrees>
            </Position>
            <AltitudeMeters>328.79998779296875</AltitudeMeters>
            <DistanceMeters>NAN</DistanceMeters>
          </Trackpoint>
          <Trackpoint>
            <Time>2022-09-22T11:11:54.000Z</Time>
            <Position>
              <LatitudeDegrees>49.5353056490421295166015625</LatitudeDegrees>
              <LongitudeDegrees>20.5676854960620403289794921875</LongitudeDegrees>
            </Position>
            <AltitudeMeters>328.79998779296875</AltitudeMeters>
            <DistanceMeters>NAN</DistanceMeters>
          </Trackpoint>
          <Trackpoint>
            <Time>2022-09-22T11:11:57.000Z</Time>
            <Position>
              <LatitudeDegrees>49.53522426076233386993408203125</LatitudeDegrees>
              <LongitudeDegrees>20.56778834201395511627197265625</LongitudeDegrees>
            </Position>
            <AltitudeMeters>329</AltitudeMeters>
            <DistanceMeters>NAN</DistanceMeters>
          </Trackpoint>
          <Trackpoint>
            <Time>2022-09-22T11:11:59.000Z</Time>
            <Position>
              <LatitudeDegrees>49.5351606421172618865966796875</LatitudeDegrees>
              <LongitudeDegrees>20.567862354218959808349609375</LongitudeDegrees>
            </Position>
            <AltitudeMeters>329.20001220703125</AltitudeMeters>
            <DistanceMeters>NAN</DistanceMeters>
          </Trackpoint>
          <Trackpoint>
            <Time>2022-09-22T11:12:07.000Z</Time>
            <Position>
              <LatitudeDegrees>49.5349209196865558624267578125</LatitudeDegrees>
              <LongitudeDegrees>20.5681230314075946807861328125</LongitudeDegrees>
            </Position>
            <AltitudeMeters>329.399993896484375</AltitudeMeters>
            <DistanceMeters>NAN</DistanceMeters>
          </Trackpoint>
          <Trackpoint>
            <Time>2022-09-22T11:12:13.000Z</Time>
            <Position>
              <LatitudeDegrees>49.534758143126964569091796875</LatitudeDegrees>
              <LongitudeDegrees>20.5682636797428131103515625</LongitudeDegrees>
            </Position>
            <AltitudeMeters>329.600006103515625</AltitudeMeters>
            <DistanceMeters>NAN</DistanceMeters>
          </Trackpoint>
          <Trackpoint>
            <Time>2022-09-22T11:12:14.000Z</Time>
            <Position>
              <LatitudeDegrees>49.53473425470292568206787109375</LatitudeDegrees>
              <LongitudeDegrees>20.5682866461575031280517578125</LongitudeDegrees>
            </Position>
            <AltitudeMeters>329.600006103515625</AltitudeMeters>
            <DistanceMeters>NAN</DistanceMeters>
          </Trackpoint>
          <Trackpoint>
            <Time>2022-09-22T11:12:23.000Z</Time>
            <Position>
              <LatitudeDegrees>49.5344890840351581573486328125</LatitudeDegrees>
              <LongitudeDegrees>20.56849124841392040252685546875</LongitudeDegrees>
            </Position>
            <AltitudeMeters>330.20001220703125</AltitudeMeters>
            <DistanceMeters>NAN</DistanceMeters>
          </Trackpoint>
          <Trackpoint>
            <Time>2022-09-22T11:12:28.000Z</Time>
            <Position>
              <LatitudeDegrees>49.5343341864645481109619140625</LatitudeDegrees>
              <LongitudeDegrees>20.5685927532613277435302734375</LongitudeDegrees>
            </Position>
            <AltitudeMeters>330.20001220703125</AltitudeMeters>
            <DistanceMeters>NAN</DistanceMeters>
          </Trackpoint>
          <Trackpoint>
            <Time>2022-09-22T11:12:31.000Z</Time>
            <Position>
              <LatitudeDegrees>49.53424424864351749420166015625</LatitudeDegrees>
              <LongitudeDegrees>20.56866534054279327392578125</LongitudeDegrees>
            </Position>
            <AltitudeMeters>330.20001220703125</AltitudeMeters>
            <DistanceMeters>NAN</DistanceMeters>
          </Trackpoint>
          <Trackpoint>
            <Time>2022-09-22T11:12:33.000Z</Time>
            <Position>
              <LatitudeDegrees>49.53419747762382030487060546875</LatitudeDegrees>
              <LongitudeDegrees>20.56873030029237270355224609375</LongitudeDegrees>
            </Position>
            <AltitudeMeters>330.20001220703125</AltitudeMeters>
            <DistanceMeters>NAN</DistanceMeters>
          </Trackpoint>
          <Trackpoint>
            <Time>2022-09-22T11:12:37.000Z</Time>
            <Position>
              <LatitudeDegrees>49.53413645736873149871826171875</LatitudeDegrees>
              <LongitudeDegrees>20.5688894726336002349853515625</LongitudeDegrees>
            </Position>
            <AltitudeMeters>330.399993896484375</AltitudeMeters>
            <DistanceMeters>NAN</DistanceMeters>
          </Trackpoint>
          <Trackpoint>
            <Time>2022-09-22T11:12:40.000Z</Time>
            <Position>
              <LatitudeDegrees>49.53411248512566089630126953125</LatitudeDegrees>
              <LongitudeDegrees>20.5690339766442775726318359375</LongitudeDegrees>
            </Position>
            <AltitudeMeters>330.600006103515625</AltitudeMeters>
            <DistanceMeters>NAN</DistanceMeters>
          </Trackpoint>
          <Trackpoint>
            <Time>2022-09-22T11:12:45.000Z</Time>
            <Position>
              <LatitudeDegrees>49.5340750180184841156005859375</LatitudeDegrees>
              <LongitudeDegrees>20.56932910345494747161865234375</LongitudeDegrees>
            </Position>
            <AltitudeMeters>330.79998779296875</AltitudeMeters>
            <DistanceMeters>NAN</DistanceMeters>
          </Trackpoint>
          <Trackpoint>
            <Time>2022-09-22T11:12:55.000Z</Time>
            <Position>
              <LatitudeDegrees>49.53403755091130733489990234375</LatitudeDegrees>
              <LongitudeDegrees>20.56993930600583553314208984375</LongitudeDegrees>
            </Position>
            <AltitudeMeters>331.399993896484375</AltitudeMeters>
            <DistanceMeters>NAN</DistanceMeters>
          </Trackpoint>
          <Trackpoint>
            <Time>2022-09-22T11:12:58.000Z</Time>
            <Position>
              <LatitudeDegrees>49.53406579792499542236328125</LatitudeDegrees>
              <LongitudeDegrees>20.570065118372440338134765625</LongitudeDegrees>
            </Position>
            <AltitudeMeters>331.600006103515625</AltitudeMeters>
            <DistanceMeters>NAN</DistanceMeters>
          </Trackpoint>
          <Trackpoint>
            <Time>2022-09-22T11:12:59.000Z</Time>
            <Position>
              <LatitudeDegrees>49.53407359309494495391845703125</LatitudeDegrees>
              <LongitudeDegrees>20.57010040618479251861572265625</LongitudeDegrees>
            </Position>
            <AltitudeMeters>331.79998779296875</AltitudeMeters>
            <DistanceMeters>NAN</DistanceMeters>
          </Trackpoint>
          <Trackpoint>
            <Time>2022-09-22T11:13:02.000Z</Time>
            <Position>
              <LatitudeDegrees>49.5340964756906032562255859375</LatitudeDegrees>
              <LongitudeDegrees>20.570175759494304656982421875</LongitudeDegrees>
            </Position>
            <AltitudeMeters>332.20001220703125</AltitudeMeters>
            <DistanceMeters>NAN</DistanceMeters>
          </Trackpoint>
          <Trackpoint>
            <Time>2022-09-22T11:13:03.000Z</Time>
            <Position>
              <LatitudeDegrees>49.53409957699477672576904296875</LatitudeDegrees>
              <LongitudeDegrees>20.5701990611851215362548828125</LongitudeDegrees>
            </Position>
            <AltitudeMeters>332.399993896484375</AltitudeMeters>
            <DistanceMeters>NAN</DistanceMeters>
          </Trackpoint>
          <Trackpoint>
            <Time>2022-09-22T11:13:06.000Z</Time>
            <Position>
              <LatitudeDegrees>49.53411164693534374237060546875</LatitudeDegrees>
              <LongitudeDegrees>20.57029050774872303009033203125</LongitudeDegrees>
            </Position>
            <AltitudeMeters>332.399993896484375</AltitudeMeters>
            <DistanceMeters>NAN</DistanceMeters>
          </Trackpoint>
          <Trackpoint>
            <Time>2022-09-22T11:13:08.000Z</Time>
            <Position>
              <LatitudeDegrees>49.53412212431430816650390625</LatitudeDegrees>
              <LongitudeDegrees>20.5703546293079853057861328125</LongitudeDegrees>
            </Position>
            <AltitudeMeters>332.399993896484375</AltitudeMeters>
            <DistanceMeters>NAN</DistanceMeters>
          </Trackpoint>
          <Trackpoint>
            <Time>2022-09-22T11:13:14.000Z</Time>
            <Position>
              <LatitudeDegrees>49.5341517962515354156494140625</LatitudeDegrees>
              <LongitudeDegrees>20.57053442113101482391357421875</LongitudeDegrees>
            </Position>
            <AltitudeMeters>332.399993896484375</AltitudeMeters>
            <DistanceMeters>NAN</DistanceMeters>
          </Trackpoint>
          <Trackpoint>
            <Time>2022-09-22T11:13:16.000Z</Time>
            <Position>
              <LatitudeDegrees>49.53415707685053348541259765625</LatitudeDegrees>
              <LongitudeDegrees>20.5705940164625644683837890625</LongitudeDegrees>
            </Position>
            <AltitudeMeters>332.79998779296875</AltitudeMeters>
            <DistanceMeters>NAN</DistanceMeters>
          </Trackpoint>
          <Trackpoint>
            <Time>2022-09-22T11:13:17.000Z</Time>
            <Position>
              <LatitudeDegrees>49.5341605134308338165283203125</LatitudeDegrees>
              <LongitudeDegrees>20.5706240236759185791015625</LongitudeDegrees>
            </Position>
            <AltitudeMeters>332.79998779296875</AltitudeMeters>
            <DistanceMeters>NAN</DistanceMeters>
          </Trackpoint>
          <Trackpoint>
            <Time>2022-09-22T11:13:20.000Z</Time>
            <Position>
              <LatitudeDegrees>49.5341692306101322174072265625</LatitudeDegrees>
              <LongitudeDegrees>20.57071178220212459564208984375</LongitudeDegrees>
            </Position>
            <AltitudeMeters>333</AltitudeMeters>
            <DistanceMeters>NAN</DistanceMeters>
          </Trackpoint>
          <Trackpoint>
            <Time>2022-09-22T11:13:24.000Z</Time>
            <Position>
              <LatitudeDegrees>49.534174092113971710205078125</LatitudeDegrees>
              <LongitudeDegrees>20.57082627899944782257080078125</LongitudeDegrees>
            </Position>
            <AltitudeMeters>333.399993896484375</AltitudeMeters>
            <DistanceMeters>NAN</DistanceMeters>
          </Trackpoint>
          <Trackpoint>
            <Time>2022-09-22T11:13:25.000Z</Time>
            <Position>
              <LatitudeDegrees>49.5341791212558746337890625</LatitudeDegrees>
              <LongitudeDegrees>20.570847988128662109375</LongitudeDegrees>
            </Position>
            <AltitudeMeters>333.399993896484375</AltitudeMeters>
            <DistanceMeters>NAN</DistanceMeters>
          </Trackpoint>
          <Trackpoint>
            <Time>2022-09-22T11:13:29.000Z</Time>
            <Position>
              <LatitudeDegrees>49.53418104909360408782958984375</LatitudeDegrees>
              <LongitudeDegrees>20.57092049159109592437744140625</LongitudeDegrees>
            </Position>
            <AltitudeMeters>333.79998779296875</AltitudeMeters>
            <DistanceMeters>NAN</DistanceMeters>
          </Trackpoint>
          <Trackpoint>
            <Time>2022-09-22T11:13:30.000Z</Time>
            <Position>
              <LatitudeDegrees>49.53417484648525714874267578125</LatitudeDegrees>
              <LongitudeDegrees>20.57093591429293155670166015625</LongitudeDegrees>
            </Position>
            <AltitudeMeters>333.79998779296875</AltitudeMeters>
            <DistanceMeters>NAN</DistanceMeters>
          </Trackpoint>
          <Trackpoint>
            <Time>2022-09-22T11:13:33.000Z</Time>
            <Position>
              <LatitudeDegrees>49.53416914679110050201416015625</LatitudeDegrees>
              <LongitudeDegrees>20.57099282741546630859375</LongitudeDegrees>
            </Position>
            <AltitudeMeters>334</AltitudeMeters>
            <DistanceMeters>NAN</DistanceMeters>
          </Trackpoint>
          <Trackpoint>
            <Time>2022-09-22T11:13:36.000Z</Time>
            <Position>
              <LatitudeDegrees>49.53417015261948108673095703125</LatitudeDegrees>
              <LongitudeDegrees>20.57106415741145610809326171875</LongitudeDegrees>
            </Position>
            <AltitudeMeters>334.20001220703125</AltitudeMeters>
            <DistanceMeters>NAN</DistanceMeters>
          </Trackpoint>
          <Trackpoint>
            <Time>2022-09-22T11:13:42.000Z</Time>
            <Position>
              <LatitudeDegrees>49.53414048068225383758544921875</LatitudeDegrees>
              <LongitudeDegrees>20.57119474746286869049072265625</LongitudeDegrees>
            </Position>
            <AltitudeMeters>334.399993896484375</AltitudeMeters>
            <DistanceMeters>NAN</DistanceMeters>
          </Trackpoint>
          <Trackpoint>
            <Time>2022-09-22T11:13:43.000Z</Time>
            <Position>
              <LatitudeDegrees>49.53413897193968296051025390625</LatitudeDegrees>
              <LongitudeDegrees>20.5712028779089450836181640625</LongitudeDegrees>
            </Position>
            <AltitudeMeters>334.600006103515625</AltitudeMeters>
            <DistanceMeters>NAN</DistanceMeters>
          </Trackpoint>
          <Trackpoint>
            <Time>2022-09-22T11:13:45.000Z</Time>
            <Position>
              <LatitudeDegrees>49.53413897193968296051025390625</LatitudeDegrees>
              <LongitudeDegrees>20.5712028779089450836181640625</LongitudeDegrees>
            </Position>
            <AltitudeMeters>334.79998779296875</AltitudeMeters>
            <DistanceMeters>NAN</DistanceMeters>
          </Trackpoint>
          <Trackpoint>
            <Time>2022-09-22T11:13:50.000Z</Time>
            <Position>
              <LatitudeDegrees>49.53413897193968296051025390625</LatitudeDegrees>
              <LongitudeDegrees>20.5712028779089450836181640625</LongitudeDegrees>
            </Position>
            <AltitudeMeters>335</AltitudeMeters>
            <DistanceMeters>NAN</DistanceMeters>
          </Trackpoint>
          <Trackpoint>
            <Time>2022-09-22T11:13:51.000Z</Time>
            <Position>
              <LatitudeDegrees>49.5341407321393489837646484375</LatitudeDegrees>
              <LongitudeDegrees>20.5712048895657062530517578125</LongitudeDegrees>
            </Position>
            <AltitudeMeters>335</AltitudeMeters>
            <DistanceMeters>NAN</DistanceMeters>
          </Trackpoint>
          <Trackpoint>
            <Time>2022-09-22T11:13:56.000Z</Time>
            <Position>
              <LatitudeDegrees>49.534146599471569061279296875</LatitudeDegrees>
              <LongitudeDegrees>20.57119994424283504486083984375</LongitudeDegrees>
            </Position>
            <AltitudeMeters>334.79998779296875</AltitudeMeters>
            <DistanceMeters>NAN</DistanceMeters>
          </Trackpoint>
          <Trackpoint>
            <Time>2022-09-22T11:13:57.000Z</Time>
            <Position>
              <LatitudeDegrees>49.534146599471569061279296875</LatitudeDegrees>
              <LongitudeDegrees>20.57119994424283504486083984375</LongitudeDegrees>
            </Position>
            <AltitudeMeters>334.79998779296875</AltitudeMeters>
            <DistanceMeters>NAN</DistanceMeters>
          </Trackpoint>
          <Trackpoint>
            <Time>2022-09-22T11:14:01.000Z</Time>
            <Position>
              <LatitudeDegrees>49.53414400108158588409423828125</LatitudeDegrees>
              <LongitudeDegrees>20.57127990759909152984619140625</LongitudeDegrees>
            </Position>
            <AltitudeMeters>334.79998779296875</AltitudeMeters>
            <DistanceMeters>NAN</DistanceMeters>
          </Trackpoint>
          <Trackpoint>
            <Time>2022-09-22T11:14:02.000Z</Time>
            <Position>
              <LatitudeDegrees>49.53413595445454120635986328125</LatitudeDegrees>
              <LongitudeDegrees>20.5713078193366527557373046875</LongitudeDegrees>
            </Position>
            <AltitudeMeters>334.79998779296875</AltitudeMeters>
            <DistanceMeters>NAN</DistanceMeters>
          </Trackpoint>
          <Trackpoint>
            <Time>2022-09-22T11:14:06.000Z</Time>
            <Position>
              <LatitudeDegrees>49.53411382623016834259033203125</LatitudeDegrees>
              <LongitudeDegrees>20.57143581099808216094970703125</LongitudeDegrees>
            </Position>
            <AltitudeMeters>335.20001220703125</AltitudeMeters>
            <DistanceMeters>NAN</DistanceMeters>
          </Trackpoint>
          <Trackpoint>
            <Time>2022-09-22T11:14:11.000Z</Time>
            <Position>
              <LatitudeDegrees>49.53409220091998577117919921875</LatitudeDegrees>
              <LongitudeDegrees>20.571595318615436553955078125</LongitudeDegrees>
            </Position>
            <AltitudeMeters>335.600006103515625</AltitudeMeters>
            <DistanceMeters>NAN</DistanceMeters>
          </Trackpoint>
          <Trackpoint>
            <Time>2022-09-22T11:14:13.000Z</Time>
            <Position>
              <LatitudeDegrees>49.534078873693943023681640625</LatitudeDegrees>
              <LongitudeDegrees>20.57165206409990787506103515625</LongitudeDegrees>
            </Position>
            <AltitudeMeters>336</AltitudeMeters>
            <DistanceMeters>NAN</DistanceMeters>
          </Trackpoint>
          <Trackpoint>
            <Time>2022-09-22T11:14:19.000Z</Time>
            <Position>
              <LatitudeDegrees>49.53404643572866916656494140625</LatitudeDegrees>
              <LongitudeDegrees>20.571846105158329010009765625</LongitudeDegrees>
            </Position>
            <AltitudeMeters>337</AltitudeMeters>
            <DistanceMeters>NAN</DistanceMeters>
          </Trackpoint>
          <Trackpoint>
            <Time>2022-09-22T11:14:21.000Z</Time>
            <Position>
              <LatitudeDegrees>49.5340351201593875885009765625</LatitudeDegrees>
              <LongitudeDegrees>20.57191550731658935546875</LongitudeDegrees>
            </Position>
            <AltitudeMeters>337.399993896484375</AltitudeMeters>
            <DistanceMeters>NAN</DistanceMeters>
          </Trackpoint>
          <Trackpoint>
            <Time>2022-09-22T11:14:23.000Z</Time>
            <Position>
              <LatitudeDegrees>49.5340186916291713714599609375</LatitudeDegrees>
              <LongitudeDegrees>20.5719696544110774993896484375</LongitudeDegrees>
            </Position>
            <AltitudeMeters>337.600006103515625</AltitudeMeters>
            <DistanceMeters>NAN</DistanceMeters>
          </Trackpoint>
          <Trackpoint>
            <Time>2022-09-22T11:14:24.000Z</Time>
            <Position>
              <LatitudeDegrees>49.53401424922049045562744140625</LatitudeDegrees>
              <LongitudeDegrees>20.57198968715965747833251953125</LongitudeDegrees>
            </Position>
            <AltitudeMeters>337.79998779296875</AltitudeMeters>
            <DistanceMeters>NAN</DistanceMeters>
          </Trackpoint>
          <Trackpoint>
            <Time>2022-09-22T11:14:25.000Z</Time>
            <Position>
              <LatitudeDegrees>49.53401215374469757080078125</LatitudeDegrees>
              <LongitudeDegrees>20.5720095522701740264892578125</LongitudeDegrees>
            </Position>
            <AltitudeMeters>337.79998779296875</AltitudeMeters>
            <DistanceMeters>NAN</DistanceMeters>
          </Trackpoint>
          <Trackpoint>
            <Time>2022-09-22T11:14:26.000Z</Time>
            <Position>
              <LatitudeDegrees>49.534009136259555816650390625</LatitudeDegrees>
              <LongitudeDegrees>20.5720276571810245513916015625</LongitudeDegrees>
            </Position>
            <AltitudeMeters>338</AltitudeMeters>
            <DistanceMeters>NAN</DistanceMeters>
          </Trackpoint>
          <Trackpoint>
            <Time>2022-09-22T11:14:28.000Z</Time>
            <Position>
              <LatitudeDegrees>49.53399815596640110015869140625</LatitudeDegrees>
              <LongitudeDegrees>20.57206478901207447052001953125</LongitudeDegrees>
            </Position>
            <AltitudeMeters>338.20001220703125</AltitudeMeters>
            <DistanceMeters>NAN</DistanceMeters>
          </Trackpoint>
          <Trackpoint>
            <Time>2022-09-22T11:14:29.000Z</Time>
            <Position>
              <LatitudeDegrees>49.5339925400912761688232421875</LatitudeDegrees>
              <LongitudeDegrees>20.572083480656147003173828125</LongitudeDegrees>
            </Position>
            <AltitudeMeters>338.20001220703125</AltitudeMeters>
            <DistanceMeters>NAN</DistanceMeters>
          </Trackpoint>
          <Trackpoint>
            <Time>2022-09-22T11:14:30.000Z</Time>
            <Position>
              <LatitudeDegrees>49.53398558311164379119873046875</LatitudeDegrees>
              <LongitudeDegrees>20.572102256119251251220703125</LongitudeDegrees>
            </Position>
            <AltitudeMeters>338.20001220703125</AltitudeMeters>
            <DistanceMeters>NAN</DistanceMeters>
          </Trackpoint>
          <Trackpoint>
            <Time>2022-09-22T11:14:32.000Z</Time>
            <Position>
              <LatitudeDegrees>49.5339801348745822906494140625</LatitudeDegrees>
              <LongitudeDegrees>20.57214609347283840179443359375</LongitudeDegrees>
            </Position>
            <AltitudeMeters>338.399993896484375</AltitudeMeters>
            <DistanceMeters>NAN</DistanceMeters>
          </Trackpoint>
          <Trackpoint>
            <Time>2022-09-22T11:14:34.000Z</Time>
            <Position>
              <LatitudeDegrees>49.5339650474488735198974609375</LatitudeDegrees>
              <LongitudeDegrees>20.57218699716031551361083984375</LongitudeDegrees>
            </Position>
            <AltitudeMeters>338.600006103515625</AltitudeMeters>
            <DistanceMeters>NAN</DistanceMeters>
          </Trackpoint>
          <Trackpoint>
            <Time>2022-09-22T11:14:37.000Z</Time>
            <Position>
              <LatitudeDegrees>49.5339445956051349639892578125</LatitudeDegrees>
              <LongitudeDegrees>20.57226444594562053680419921875</LongitudeDegrees>
            </Position>
            <AltitudeMeters>339</AltitudeMeters>
            <DistanceMeters>NAN</DistanceMeters>
          </Trackpoint>
          <Trackpoint>
            <Time>2022-09-22T11:14:38.000Z</Time>
            <Position>
              <LatitudeDegrees>49.53393830917775630950927734375</LatitudeDegrees>
              <LongitudeDegrees>20.57229193858802318572998046875</LongitudeDegrees>
            </Position>
            <AltitudeMeters>339</AltitudeMeters>
            <DistanceMeters>NAN</DistanceMeters>
          </Trackpoint>
          <Trackpoint>
            <Time>2022-09-22T11:14:40.000Z</Time>
            <Position>
              <LatitudeDegrees>49.5339228026568889617919921875</LatitudeDegrees>
              <LongitudeDegrees>20.57234306819736957550048828125</LongitudeDegrees>
            </Position>
            <AltitudeMeters>339.20001220703125</AltitudeMeters>
            <DistanceMeters>NAN</DistanceMeters>
          </Trackpoint>
          <Trackpoint>
            <Time>2022-09-22T11:14:43.000Z</Time>
            <Position>
              <LatitudeDegrees>49.53390276990830898284912109375</LatitudeDegrees>
              <LongitudeDegrees>20.572426803410053253173828125</LongitudeDegrees>
            </Position>
            <AltitudeMeters>339.399993896484375</AltitudeMeters>
            <DistanceMeters>NAN</DistanceMeters>
          </Trackpoint>
          <Trackpoint>
            <Time>2022-09-22T11:14:48.000Z</Time>
            <Position>
              <LatitudeDegrees>49.53388416208326816558837890625</LatitudeDegrees>
              <LongitudeDegrees>20.5725573934614658355712890625</LongitudeDegrees>
            </Position>
            <AltitudeMeters>339.600006103515625</AltitudeMeters>
            <DistanceMeters>NAN</DistanceMeters>
          </Trackpoint>
          <Trackpoint>
            <Time>2022-09-22T11:14:54.000Z</Time>
            <Position>
              <LatitudeDegrees>49.5338497124612331390380859375</LatitudeDegrees>
              <LongitudeDegrees>20.5727179907262325286865234375</LongitudeDegrees>
            </Position>
            <AltitudeMeters>340</AltitudeMeters>
            <DistanceMeters>NAN</DistanceMeters>
          </Trackpoint>
          <Trackpoint>
            <Time>2022-09-22T11:14:56.000Z</Time>
            <Position>
              <LatitudeDegrees>49.53384057618677616119384765625</LatitudeDegrees>
              <LongitudeDegrees>20.5727662704885005950927734375</LongitudeDegrees>
            </Position>
            <AltitudeMeters>340.20001220703125</AltitudeMeters>
            <DistanceMeters>NAN</DistanceMeters>
          </Trackpoint>
          <Trackpoint>
            <Time>2022-09-22T11:14:58.000Z</Time>
            <Position>
              <LatitudeDegrees>49.5338279195129871368408203125</LatitudeDegrees>
              <LongitudeDegrees>20.57282754220068454742431640625</LongitudeDegrees>
            </Position>
            <AltitudeMeters>340.20001220703125</AltitudeMeters>
            <DistanceMeters>NAN</DistanceMeters>
          </Trackpoint>
          <Trackpoint>
            <Time>2022-09-22T11:15:02.000Z</Time>
            <Position>
              <LatitudeDegrees>49.533795230090618133544921875</LatitudeDegrees>
              <LongitudeDegrees>20.57295930571854114532470703125</LongitudeDegrees>
            </Position>
            <AltitudeMeters>340.399993896484375</AltitudeMeters>
            <DistanceMeters>NAN</DistanceMeters>
          </Trackpoint>
          <Trackpoint>
            <Time>2022-09-22T11:15:10.000Z</Time>
            <Position>
              <LatitudeDegrees>49.5337836630642414093017578125</LatitudeDegrees>
              <LongitudeDegrees>20.573224090039730072021484375</LongitudeDegrees>
            </Position>
            <AltitudeMeters>341.20001220703125</AltitudeMeters>
            <DistanceMeters>NAN</DistanceMeters>
          </Trackpoint>
          <Trackpoint>
            <Time>2022-09-22T11:15:11.000Z</Time>
            <Position>
              <LatitudeDegrees>49.53378123231232166290283203125</LatitudeDegrees>
              <LongitudeDegrees>20.5732601322233676910400390625</LongitudeDegrees>
            </Position>
            <AltitudeMeters>341.20001220703125</AltitudeMeters>
            <DistanceMeters>NAN</DistanceMeters>
          </Trackpoint>
          <Trackpoint>
            <Time>2022-09-22T11:15:19.000Z</Time>
            <Position>
              <LatitudeDegrees>49.53377117402851581573486328125</LatitudeDegrees>
              <LongitudeDegrees>20.573515109717845916748046875</LongitudeDegrees>
            </Position>
            <AltitudeMeters>341.600006103515625</AltitudeMeters>
            <DistanceMeters>NAN</DistanceMeters>
          </Trackpoint>
          <Trackpoint>
            <Time>2022-09-22T11:15:20.000Z</Time>
            <Position>
              <LatitudeDegrees>49.5337655581533908843994140625</LatitudeDegrees>
              <LongitudeDegrees>20.573545284569263458251953125</LongitudeDegrees>
            </Position>
            <AltitudeMeters>341.600006103515625</AltitudeMeters>
            <DistanceMeters>NAN</DistanceMeters>
          </Trackpoint>
          <Trackpoint>
            <Time>2022-09-22T11:15:21.000Z</Time>
            <Position>
              <LatitudeDegrees>49.5337632112205028533935546875</LatitudeDegrees>
              <LongitudeDegrees>20.57357973419129848480224609375</LongitudeDegrees>
            </Position>
            <AltitudeMeters>341.600006103515625</AltitudeMeters>
            <DistanceMeters>NAN</DistanceMeters>
          </Trackpoint>
          <Trackpoint>
            <Time>2022-09-22T11:15:25.000Z</Time>
            <Position>
              <LatitudeDegrees>49.5337746106088161468505859375</LatitudeDegrees>
              <LongitudeDegrees>20.573694817721843719482421875</LongitudeDegrees>
            </Position>
            <AltitudeMeters>341.600006103515625</AltitudeMeters>
            <DistanceMeters>NAN</DistanceMeters>
          </Trackpoint>
          <Trackpoint>
            <Time>2022-09-22T11:15:31.000Z</Time>
            <Position>
              <LatitudeDegrees>49.53382062725722789764404296875</LatitudeDegrees>
              <LongitudeDegrees>20.57386555708944797515869140625</LongitudeDegrees>
            </Position>
            <AltitudeMeters>341.600006103515625</AltitudeMeters>
            <DistanceMeters>NAN</DistanceMeters>
          </Trackpoint>
          <Trackpoint>
            <Time>2022-09-22T11:15:39.000Z</Time>
            <Position>
              <LatitudeDegrees>49.533906541764736175537109375</LatitudeDegrees>
              <LongitudeDegrees>20.5740787088871002197265625</LongitudeDegrees>
            </Position>
            <AltitudeMeters>341.399993896484375</AltitudeMeters>
            <DistanceMeters>NAN</DistanceMeters>
          </Trackpoint>
          <Trackpoint>
            <Time>2022-09-22T11:15:46.000Z</Time>
            <Position>
              <LatitudeDegrees>49.5339811407029628753662109375</LatitudeDegrees>
              <LongitudeDegrees>20.5743196047842502593994140625</LongitudeDegrees>
            </Position>
            <AltitudeMeters>341.600006103515625</AltitudeMeters>
            <DistanceMeters>NAN</DistanceMeters>
          </Trackpoint>
          <Trackpoint>
            <Time>2022-09-22T11:15:52.000Z</Time>
            <Position>
              <LatitudeDegrees>49.5340123213827610015869140625</LatitudeDegrees>
              <LongitudeDegrees>20.57458556257188320159912109375</LongitudeDegrees>
            </Position>
            <AltitudeMeters>342</AltitudeMeters>
            <DistanceMeters>NAN</DistanceMeters>
          </Trackpoint>
          <Trackpoint>
            <Time>2022-09-22T11:15:55.000Z</Time>
            <Position>
              <LatitudeDegrees>49.5340170152485370635986328125</LatitudeDegrees>
              <LongitudeDegrees>20.5746961198747158050537109375</LongitudeDegrees>
            </Position>
            <AltitudeMeters>342.20001220703125</AltitudeMeters>
            <DistanceMeters>NAN</DistanceMeters>
          </Trackpoint>
          <Trackpoint>
            <Time>2022-09-22T11:15:59.000Z</Time>
            <Position>
              <LatitudeDegrees>49.5340099744498729705810546875</LatitudeDegrees>
              <LongitudeDegrees>20.5748278833925724029541015625</LongitudeDegrees>
            </Position>
            <AltitudeMeters>342.600006103515625</AltitudeMeters>
            <DistanceMeters>NAN</DistanceMeters>
          </Trackpoint>
          <Trackpoint>
            <Time>2022-09-22T11:16:04.000Z</Time>
            <Position>
              <LatitudeDegrees>49.5339871756732463836669921875</LatitudeDegrees>
              <LongitudeDegrees>20.57499208487570285797119140625</LongitudeDegrees>
            </Position>
            <AltitudeMeters>342.600006103515625</AltitudeMeters>
            <DistanceMeters>NAN</DistanceMeters>
          </Trackpoint>
          <Trackpoint>
            <Time>2022-09-22T11:16:05.000Z</Time>
            <Position>
              <LatitudeDegrees>49.5339791290462017059326171875</LatitudeDegrees>
              <LongitudeDegrees>20.5750374309718608856201171875</LongitudeDegrees>
            </Position>
            <AltitudeMeters>342.600006103515625</AltitudeMeters>
            <DistanceMeters>NAN</DistanceMeters>
          </Trackpoint>
          <Trackpoint>
            <Time>2022-09-22T11:16:10.000Z</Time>
            <Position>
              <LatitudeDegrees>49.5339516364037990570068359375</LatitudeDegrees>
              <LongitudeDegrees>20.5753232538700103759765625</LongitudeDegrees>
            </Position>
            <AltitudeMeters>341.600006103515625</AltitudeMeters>
            <DistanceMeters>NAN</DistanceMeters>
          </Trackpoint>
          <Trackpoint>
            <Time>2022-09-22T11:16:12.000Z</Time>
            <Position>
              <LatitudeDegrees>49.53397083096206188201904296875</LatitudeDegrees>
              <LongitudeDegrees>20.57547303847968578338623046875</LongitudeDegrees>
            </Position>
            <AltitudeMeters>341.20001220703125</AltitudeMeters>
            <DistanceMeters>NAN</DistanceMeters>
          </Trackpoint>
          <Trackpoint>
            <Time>2022-09-22T11:16:15.000Z</Time>
            <Position>
              <LatitudeDegrees>49.53403486870229244232177734375</LatitudeDegrees>
              <LongitudeDegrees>20.575711168348789215087890625</LongitudeDegrees>
            </Position>
            <AltitudeMeters>340.399993896484375</AltitudeMeters>
            <DistanceMeters>NAN</DistanceMeters>
          </Trackpoint>
          <Trackpoint>
            <Time>2022-09-22T11:16:16.000Z</Time>
            <Position>
              <LatitudeDegrees>49.53405582346022129058837890625</LatitudeDegrees>
              <LongitudeDegrees>20.575791634619235992431640625</LongitudeDegrees>
            </Position>
            <AltitudeMeters>340.20001220703125</AltitudeMeters>
            <DistanceMeters>NAN</DistanceMeters>
          </Trackpoint>
          <Trackpoint>
            <Time>2022-09-22T11:16:18.000Z</Time>
            <Position>
              <LatitudeDegrees>49.53409002162516117095947265625</LatitudeDegrees>
              <LongitudeDegrees>20.5759480409324169158935546875</LongitudeDegrees>
            </Position>
            <AltitudeMeters>340</AltitudeMeters>
            <DistanceMeters>NAN</DistanceMeters>
          </Trackpoint>
          <Trackpoint>
            <Time>2022-09-22T11:16:20.000Z</Time>
            <Position>
              <LatitudeDegrees>49.5341165922582149505615234375</LatitudeDegrees>
              <LongitudeDegrees>20.57607335038483142852783203125</LongitudeDegrees>
            </Position>
            <AltitudeMeters>339.79998779296875</AltitudeMeters>
            <DistanceMeters>NAN</DistanceMeters>
          </Trackpoint>
          <Trackpoint>
            <Time>2022-09-22T11:16:24.000Z</Time>
            <Position>
              <LatitudeDegrees>49.53414416871964931488037109375</LatitudeDegrees>
              <LongitudeDegrees>20.57623143307864665985107421875</LongitudeDegrees>
            </Position>
            <AltitudeMeters>340</AltitudeMeters>
            <DistanceMeters>NAN</DistanceMeters>
          </Trackpoint>
          <Trackpoint>
            <Time>2022-09-22T11:16:29.000Z</Time>
            <Position>
              <LatitudeDegrees>49.53418591059744358062744140625</LatitudeDegrees>
              <LongitudeDegrees>20.57643528096377849578857421875</LongitudeDegrees>
            </Position>
            <AltitudeMeters>339.79998779296875</AltitudeMeters>
            <DistanceMeters>NAN</DistanceMeters>
          </Trackpoint>
          <Trackpoint>
            <Time>2022-09-22T11:16:31.000Z</Time>
            <Position>
              <LatitudeDegrees>49.53419798053801059722900390625</LatitudeDegrees>
              <LongitudeDegrees>20.57650133036077022552490234375</LongitudeDegrees>
            </Position>
            <AltitudeMeters>339.79998779296875</AltitudeMeters>
            <DistanceMeters>NAN</DistanceMeters>
          </Trackpoint>
          <Trackpoint>
            <Time>2022-09-22T11:16:37.000Z</Time>
            <Position>
              <LatitudeDegrees>49.53423636965453624725341796875</LatitudeDegrees>
              <LongitudeDegrees>20.57668070308864116668701171875</LongitudeDegrees>
            </Position>
            <AltitudeMeters>339.79998779296875</AltitudeMeters>
            <DistanceMeters>NAN</DistanceMeters>
          </Trackpoint>
          <Trackpoint>
            <Time>2022-09-22T11:16:44.000Z</Time>
            <Position>
              <LatitudeDegrees>49.53426294028759002685546875</LatitudeDegrees>
              <LongitudeDegrees>20.57687600143253803253173828125</LongitudeDegrees>
            </Position>
            <AltitudeMeters>340.20001220703125</AltitudeMeters>
            <DistanceMeters>NAN</DistanceMeters>
          </Trackpoint>
          <Trackpoint>
            <Time>2022-09-22T11:16:47.000Z</Time>
            <Position>
              <LatitudeDegrees>49.53426738269627094268798828125</LatitudeDegrees>
              <LongitudeDegrees>20.5769474990665912628173828125</LongitudeDegrees>
            </Position>
            <AltitudeMeters>340.20001220703125</AltitudeMeters>
            <DistanceMeters>NAN</DistanceMeters>
          </Trackpoint>
          <Trackpoint>
            <Time>2022-09-22T11:16:49.000Z</Time>
            <Position>
              <LatitudeDegrees>49.53427157364785671234130859375</LatitudeDegrees>
              <LongitudeDegrees>20.5769505165517330169677734375</LongitudeDegrees>
            </Position>
            <AltitudeMeters>340.20001220703125</AltitudeMeters>
            <DistanceMeters>NAN</DistanceMeters>
          </Trackpoint>
          <Trackpoint>
            <Time>2022-09-22T11:16:51.000Z</Time>
            <Position>
              <LatitudeDegrees>49.53428029082715511322021484375</LatitudeDegrees>
              <LongitudeDegrees>20.57697406969964504241943359375</LongitudeDegrees>
            </Position>
            <AltitudeMeters>340.20001220703125</AltitudeMeters>
            <DistanceMeters>NAN</DistanceMeters>
          </Trackpoint>
          <Trackpoint>
            <Time>2022-09-22T11:16:55.000Z</Time>
            <Position>
              <LatitudeDegrees>49.53427928499877452850341796875</LatitudeDegrees>
              <LongitudeDegrees>20.57705570943653583526611328125</LongitudeDegrees>
            </Position>
            <AltitudeMeters>340.20001220703125</AltitudeMeters>
            <DistanceMeters>NAN</DistanceMeters>
          </Trackpoint>
          <Trackpoint>
            <Time>2022-09-22T11:16:56.000Z</Time>
            <Position>
              <LatitudeDegrees>49.5342711545526981353759765625</LatitudeDegrees>
              <LongitudeDegrees>20.577077753841876983642578125</LongitudeDegrees>
            </Position>
            <AltitudeMeters>340.20001220703125</AltitudeMeters>
            <DistanceMeters>NAN</DistanceMeters>
          </Trackpoint>
          <Trackpoint>
            <Time>2022-09-22T11:16:58.000Z</Time>
            <Position>
              <LatitudeDegrees>49.534221701323986053466796875</LatitudeDegrees>
              <LongitudeDegrees>20.57709393091499805450439453125</LongitudeDegrees>
            </Position>
            <AltitudeMeters>340.399993896484375</AltitudeMeters>
            <DistanceMeters>NAN</DistanceMeters>
          </Trackpoint>
          <Trackpoint>
            <Time>2022-09-22T11:17:03.000Z</Time>
            <Position>
              <LatitudeDegrees>49.53406982123851776123046875</LatitudeDegrees>
              <LongitudeDegrees>20.5771439708769321441650390625</LongitudeDegrees>
            </Position>
            <AltitudeMeters>340.600006103515625</AltitudeMeters>
            <DistanceMeters>NAN</DistanceMeters>
          </Trackpoint>
          <Trackpoint>
            <Time>2022-09-22T11:17:10.000Z</Time>
            <Position>
              <LatitudeDegrees>49.53386806882917881011962890625</LatitudeDegrees>
              <LongitudeDegrees>20.577222593128681182861328125</LongitudeDegrees>
            </Position>
            <AltitudeMeters>341</AltitudeMeters>
            <DistanceMeters>NAN</DistanceMeters>
          </Trackpoint>
          <Trackpoint>
            <Time>2022-09-22T11:17:11.000Z</Time>
            <Position>
              <LatitudeDegrees>49.5338331162929534912109375</LatitudeDegrees>
              <LongitudeDegrees>20.57723826728761196136474609375</LongitudeDegrees>
            </Position>
            <AltitudeMeters>341</AltitudeMeters>
            <DistanceMeters>NAN</DistanceMeters>
          </Trackpoint>
          <Trackpoint>
            <Time>2022-09-22T11:17:17.000Z</Time>
            <Position>
              <LatitudeDegrees>49.5336797274649143218994140625</LatitudeDegrees>
              <LongitudeDegrees>20.5773226730525493621826171875</LongitudeDegrees>
            </Position>
            <AltitudeMeters>341.399993896484375</AltitudeMeters>
            <DistanceMeters>NAN</DistanceMeters>
          </Trackpoint>
          <Trackpoint>
            <Time>2022-09-22T11:17:23.000Z</Time>
            <Position>
              <LatitudeDegrees>49.53356020152568817138671875</LatitudeDegrees>
              <LongitudeDegrees>20.5773739702999591827392578125</LongitudeDegrees>
            </Position>
            <AltitudeMeters>341.79998779296875</AltitudeMeters>
            <DistanceMeters>NAN</DistanceMeters>
          </Trackpoint>
          <Trackpoint>
            <Time>2022-09-22T11:17:27.000Z</Time>
            <Position>
              <LatitudeDegrees>49.53344620764255523681640625</LatitudeDegrees>
              <LongitudeDegrees>20.57741495780646800994873046875</LongitudeDegrees>
            </Position>
            <AltitudeMeters>342</AltitudeMeters>
            <DistanceMeters>NAN</DistanceMeters>
          </Trackpoint>
          <Trackpoint>
            <Time>2022-09-22T11:17:32.000Z</Time>
            <Position>
              <LatitudeDegrees>49.53332810662686824798583984375</LatitudeDegrees>
              <LongitudeDegrees>20.57744815014302730560302734375</LongitudeDegrees>
            </Position>
            <AltitudeMeters>342.399993896484375</AltitudeMeters>
            <DistanceMeters>NAN</DistanceMeters>
          </Trackpoint>
          <Trackpoint>
            <Time>2022-09-22T11:17:38.000Z</Time>
            <Position>
              <LatitudeDegrees>49.53320438973605632781982421875</LatitudeDegrees>
              <LongitudeDegrees>20.57749927975237369537353515625</LongitudeDegrees>
            </Position>
            <AltitudeMeters>342.79998779296875</AltitudeMeters>
            <DistanceMeters>NAN</DistanceMeters>
          </Trackpoint>
          <Trackpoint>
            <Time>2022-09-22T11:17:42.000Z</Time>
            <Position>
              <LatitudeDegrees>49.533119313418865203857421875</LatitudeDegrees>
              <LongitudeDegrees>20.57753297500312328338623046875</LongitudeDegrees>
            </Position>
            <AltitudeMeters>343</AltitudeMeters>
            <DistanceMeters>NAN</DistanceMeters>
          </Trackpoint>
          <Trackpoint>
            <Time>2022-09-22T11:17:43.000Z</Time>
            <Position>
              <LatitudeDegrees>49.53309408389031887054443359375</LatitudeDegrees>
              <LongitudeDegrees>20.5775422789156436920166015625</LongitudeDegrees>
            </Position>
            <AltitudeMeters>343.20001220703125</AltitudeMeters>
            <DistanceMeters>NAN</DistanceMeters>
          </Trackpoint>
          <Trackpoint>
            <Time>2022-09-22T11:17:44.000Z</Time>
            <Position>
              <LatitudeDegrees>49.5330695249140262603759765625</LatitudeDegrees>
              <LongitudeDegrees>20.57755208574235439300537109375</LongitudeDegrees>
            </Position>
            <AltitudeMeters>343.20001220703125</AltitudeMeters>
            <DistanceMeters>NAN</DistanceMeters>
          </Trackpoint>
          <Trackpoint>
            <Time>2022-09-22T11:17:47.000Z</Time>
            <Position>
              <LatitudeDegrees>49.53299886547029018402099609375</LatitudeDegrees>
              <LongitudeDegrees>20.57758276350796222686767578125</LongitudeDegrees>
            </Position>
            <AltitudeMeters>343.399993896484375</AltitudeMeters>
            <DistanceMeters>NAN</DistanceMeters>
          </Trackpoint>
          <Trackpoint>
            <Time>2022-09-22T11:17:52.000Z</Time>
            <Position>
              <LatitudeDegrees>49.5328795909881591796875</LatitudeDegrees>
              <LongitudeDegrees>20.577609837055206298828125</LongitudeDegrees>
            </Position>
            <AltitudeMeters>344</AltitudeMeters>
            <DistanceMeters>NAN</DistanceMeters>
          </Trackpoint>
          <Trackpoint>
            <Time>2022-09-22T11:17:56.000Z</Time>
            <Position>
              <LatitudeDegrees>49.53280658461153507232666015625</LatitudeDegrees>
              <LongitudeDegrees>20.577628612518310546875</LongitudeDegrees>
            </Position>
            <AltitudeMeters>344.20001220703125</AltitudeMeters>
            <DistanceMeters>NAN</DistanceMeters>
          </Trackpoint>
          <Trackpoint>
            <Time>2022-09-22T11:17:58.000Z</Time>
            <Position>
              <LatitudeDegrees>49.53276718966662883758544921875</LatitudeDegrees>
              <LongitudeDegrees>20.577642023563385009765625</LongitudeDegrees>
            </Position>
            <AltitudeMeters>344.399993896484375</AltitudeMeters>
            <DistanceMeters>NAN</DistanceMeters>
          </Trackpoint>
          <Trackpoint>
            <Time>2022-09-22T11:18:06.000Z</Time>
            <Position>
              <LatitudeDegrees>49.5326019823551177978515625</LatitudeDegrees>
              <LongitudeDegrees>20.577698685228824615478515625</LongitudeDegrees>
            </Position>
            <AltitudeMeters>345.20001220703125</AltitudeMeters>
            <DistanceMeters>NAN</DistanceMeters>
          </Trackpoint>
          <Trackpoint>
            <Time>2022-09-22T11:18:08.000Z</Time>
            <Position>
              <LatitudeDegrees>49.53255998902022838592529296875</LatitudeDegrees>
              <LongitudeDegrees>20.57771301828324794769287109375</LongitudeDegrees>
            </Position>
            <AltitudeMeters>345.399993896484375</AltitudeMeters>
            <DistanceMeters>NAN</DistanceMeters>
          </Trackpoint>
          <Trackpoint>
            <Time>2022-09-22T11:18:14.000Z</Time>
            <Position>
              <LatitudeDegrees>49.5324449054896831512451171875</LatitudeDegrees>
              <LongitudeDegrees>20.57775140739977359771728515625</LongitudeDegrees>
            </Position>
            <AltitudeMeters>345.79998779296875</AltitudeMeters>
            <DistanceMeters>NAN</DistanceMeters>
          </Trackpoint>
          <Trackpoint>
            <Time>2022-09-22T11:18:19.000Z</Time>
            <Position>
              <LatitudeDegrees>49.532436691224575042724609375</LatitudeDegrees>
              <LongitudeDegrees>20.57775626890361309051513671875</LongitudeDegrees>
            </Position>
            <AltitudeMeters>346</AltitudeMeters>
            <DistanceMeters>NAN</DistanceMeters>
          </Trackpoint>
          <Trackpoint>
            <Time>2022-09-22T11:18:24.000Z</Time>
            <Position>
              <LatitudeDegrees>49.532436691224575042724609375</LatitudeDegrees>
              <LongitudeDegrees>20.57775626890361309051513671875</LongitudeDegrees>
            </Position>
            <AltitudeMeters>345.79998779296875</AltitudeMeters>
            <DistanceMeters>NAN</DistanceMeters>
          </Trackpoint>
          <Trackpoint>
            <Time>2022-09-22T11:18:28.000Z</Time>
            <Position>
              <LatitudeDegrees>49.532436691224575042724609375</LatitudeDegrees>
              <LongitudeDegrees>20.57775626890361309051513671875</LongitudeDegrees>
            </Position>
            <AltitudeMeters>345.79998779296875</AltitudeMeters>
            <DistanceMeters>NAN</DistanceMeters>
          </Trackpoint>
          <Trackpoint>
            <Time>2022-09-22T11:18:34.000Z</Time>
            <Position>
              <LatitudeDegrees>49.532436691224575042724609375</LatitudeDegrees>
              <LongitudeDegrees>20.57775626890361309051513671875</LongitudeDegrees>
            </Position>
            <AltitudeMeters>345.79998779296875</AltitudeMeters>
            <DistanceMeters>NAN</DistanceMeters>
          </Trackpoint>
          <Trackpoint>
            <Time>2022-09-22T11:18:37.000Z</Time>
            <Position>
              <LatitudeDegrees>49.532436691224575042724609375</LatitudeDegrees>
              <LongitudeDegrees>20.57775626890361309051513671875</LongitudeDegrees>
            </Position>
            <AltitudeMeters>345.79998779296875</AltitudeMeters>
            <DistanceMeters>NAN</DistanceMeters>
          </Trackpoint>
          <Trackpoint>
            <Time>2022-09-22T11:18:50.000Z</Time>
            <Position>
              <LatitudeDegrees>49.532436691224575042724609375</LatitudeDegrees>
              <LongitudeDegrees>20.57775626890361309051513671875</LongitudeDegrees>
            </Position>
            <AltitudeMeters>345.600006103515625</AltitudeMeters>
            <DistanceMeters>NAN</DistanceMeters>
          </Trackpoint>
          <Trackpoint>
            <Time>2022-09-22T11:18:56.000Z</Time>
            <Position>
              <LatitudeDegrees>49.532436691224575042724609375</LatitudeDegrees>
              <LongitudeDegrees>20.57775626890361309051513671875</LongitudeDegrees>
            </Position>
            <AltitudeMeters>345.600006103515625</AltitudeMeters>
            <DistanceMeters>NAN</DistanceMeters>
          </Trackpoint>
          <Trackpoint>
            <Time>2022-09-22T11:18:57.000Z</Time>
            <Position>
              <LatitudeDegrees>49.532436691224575042724609375</LatitudeDegrees>
              <LongitudeDegrees>20.57775626890361309051513671875</LongitudeDegrees>
            </Position>
            <AltitudeMeters>345.600006103515625</AltitudeMeters>
            <DistanceMeters>NAN</DistanceMeters>
          </Trackpoint>
          <Trackpoint>
            <Time>2022-09-22T11:19:06.000Z</Time>
            <Position>
              <LatitudeDegrees>49.53243660740554332733154296875</LatitudeDegrees>
              <LongitudeDegrees>20.5777571909129619598388671875</LongitudeDegrees>
            </Position>
            <AltitudeMeters>345.79998779296875</AltitudeMeters>
            <DistanceMeters>NAN</DistanceMeters>
          </Trackpoint>
          <Trackpoint>
            <Time>2022-09-22T11:19:16.000Z</Time>
            <Position>
              <LatitudeDegrees>49.5324356853961944580078125</LatitudeDegrees>
              <LongitudeDegrees>20.57776582427322864532470703125</LongitudeDegrees>
            </Position>
            <AltitudeMeters>345.79998779296875</AltitudeMeters>
            <DistanceMeters>NAN</DistanceMeters>
          </Trackpoint>
          <Trackpoint>
            <Time>2022-09-22T11:19:19.000Z</Time>
            <Position>
              <LatitudeDegrees>49.5324356853961944580078125</LatitudeDegrees>
              <LongitudeDegrees>20.57776582427322864532470703125</LongitudeDegrees>
            </Position>
            <AltitudeMeters>345.79998779296875</AltitudeMeters>
            <DistanceMeters>NAN</DistanceMeters>
          </Trackpoint>
          <Trackpoint>
            <Time>2022-09-22T11:19:36.000Z</Time>
            <Position>
              <LatitudeDegrees>49.5324356853961944580078125</LatitudeDegrees>
              <LongitudeDegrees>20.57776582427322864532470703125</LongitudeDegrees>
            </Position>
            <AltitudeMeters>345.79998779296875</AltitudeMeters>
            <DistanceMeters>NAN</DistanceMeters>
          </Trackpoint>
          <Trackpoint>
            <Time>2022-09-22T11:19:38.000Z</Time>
            <Position>
              <LatitudeDegrees>49.5324356853961944580078125</LatitudeDegrees>
              <LongitudeDegrees>20.57776582427322864532470703125</LongitudeDegrees>
            </Position>
            <AltitudeMeters>345.79998779296875</AltitudeMeters>
            <DistanceMeters>NAN</DistanceMeters>
          </Trackpoint>
          <Trackpoint>
            <Time>2022-09-22T11:20:13.000Z</Time>
            <Position>
              <LatitudeDegrees>49.53243392519652843475341796875</LatitudeDegrees>
              <LongitudeDegrees>20.5777675844728946685791015625</LongitudeDegrees>
            </Position>
            <AltitudeMeters>345.79998779296875</AltitudeMeters>
            <DistanceMeters>NAN</DistanceMeters>
          </Trackpoint>
          <Trackpoint>
            <Time>2022-09-22T11:20:15.000Z</Time>
            <Position>
              <LatitudeDegrees>49.53240257687866687774658203125</LatitudeDegrees>
              <LongitudeDegrees>20.57779013179242610931396484375</LongitudeDegrees>
            </Position>
            <AltitudeMeters>345.79998779296875</AltitudeMeters>
            <DistanceMeters>NAN</DistanceMeters>
          </Trackpoint>
          <Trackpoint>
            <Time>2022-09-22T11:20:16.000Z</Time>
            <Position>
              <LatitudeDegrees>49.532389752566814422607421875</LatitudeDegrees>
              <LongitudeDegrees>20.57780086062848567962646484375</LongitudeDegrees>
            </Position>
            <AltitudeMeters>345.79998779296875</AltitudeMeters>
            <DistanceMeters>NAN</DistanceMeters>
          </Trackpoint>
          <Trackpoint>
            <Time>2022-09-22T11:20:18.000Z</Time>
            <Position>
              <LatitudeDegrees>49.53235127963125705718994140625</LatitudeDegrees>
              <LongitudeDegrees>20.577832125127315521240234375</LongitudeDegrees>
            </Position>
            <AltitudeMeters>345.79998779296875</AltitudeMeters>
            <DistanceMeters>NAN</DistanceMeters>
          </Trackpoint>
          <Trackpoint>
            <Time>2022-09-22T11:20:20.000Z</Time>
            <Position>
              <LatitudeDegrees>49.5323027484118938446044921875</LatitudeDegrees>
              <LongitudeDegrees>20.57784260250627994537353515625</LongitudeDegrees>
            </Position>
            <AltitudeMeters>345.79998779296875</AltitudeMeters>
            <DistanceMeters>NAN</DistanceMeters>
          </Trackpoint>
          <Trackpoint>
            <Time>2022-09-22T11:20:24.000Z</Time>
            <Position>
              <LatitudeDegrees>49.5321636088192462921142578125</LatitudeDegrees>
              <LongitudeDegrees>20.57789322920143604278564453125</LongitudeDegrees>
            </Position>
            <AltitudeMeters>346</AltitudeMeters>
            <DistanceMeters>NAN</DistanceMeters>
          </Trackpoint>
          <Trackpoint>
            <Time>2022-09-22T11:20:25.000Z</Time>
            <Position>
              <LatitudeDegrees>49.53212530352175235748291015625</LatitudeDegrees>
              <LongitudeDegrees>20.57790244929492473602294921875</LongitudeDegrees>
            </Position>
            <AltitudeMeters>346.399993896484375</AltitudeMeters>
            <DistanceMeters>NAN</DistanceMeters>
          </Trackpoint>
          <Trackpoint>
            <Time>2022-09-22T11:20:26.000Z</Time>
            <Position>
              <LatitudeDegrees>49.5320878364145755767822265625</LatitudeDegrees>
              <LongitudeDegrees>20.57790714316070079803466796875</LongitudeDegrees>
            </Position>
            <AltitudeMeters>346.600006103515625</AltitudeMeters>
            <DistanceMeters>NAN</DistanceMeters>
          </Trackpoint>
          <Trackpoint>
            <Time>2022-09-22T11:20:30.000Z</Time>
            <Position>
              <LatitudeDegrees>49.53195498324930667877197265625</LatitudeDegrees>
              <LongitudeDegrees>20.577956177294254302978515625</LongitudeDegrees>
            </Position>
            <AltitudeMeters>347.20001220703125</AltitudeMeters>
            <DistanceMeters>NAN</DistanceMeters>
          </Trackpoint>
          <Trackpoint>
            <Time>2022-09-22T11:20:33.000Z</Time>
            <Position>
              <LatitudeDegrees>49.531887508928775787353515625</LatitudeDegrees>
              <LongitudeDegrees>20.5779731087386608123779296875</LongitudeDegrees>
            </Position>
            <AltitudeMeters>347.600006103515625</AltitudeMeters>
            <DistanceMeters>NAN</DistanceMeters>
          </Trackpoint>
          <Trackpoint>
            <Time>2022-09-22T11:20:34.000Z</Time>
            <Position>
              <LatitudeDegrees>49.531865380704402923583984375</LatitudeDegrees>
              <LongitudeDegrees>20.57797805406153202056884765625</LongitudeDegrees>
            </Position>
            <AltitudeMeters>347.600006103515625</AltitudeMeters>
            <DistanceMeters>NAN</DistanceMeters>
          </Trackpoint>
          <Trackpoint>
            <Time>2022-09-22T11:20:35.000Z</Time>
            <Position>
              <LatitudeDegrees>49.5318414084613323211669921875</LatitudeDegrees>
              <LongitudeDegrees>20.5779786407947540283203125</LongitudeDegrees>
            </Position>
            <AltitudeMeters>347.79998779296875</AltitudeMeters>
            <DistanceMeters>NAN</DistanceMeters>
          </Trackpoint>
          <Trackpoint>
            <Time>2022-09-22T11:20:37.000Z</Time>
            <Position>
              <LatitudeDegrees>49.53179396688938140869140625</LatitudeDegrees>
              <LongitudeDegrees>20.57798056863248348236083984375</LongitudeDegrees>
            </Position>
            <AltitudeMeters>347.79998779296875</AltitudeMeters>
            <DistanceMeters>NAN</DistanceMeters>
          </Trackpoint>
          <Trackpoint>
            <Time>2022-09-22T11:20:41.000Z</Time>
            <Position>
              <LatitudeDegrees>49.53168223612010478973388671875</LatitudeDegrees>
              <LongitudeDegrees>20.5780083127319812774658203125</LongitudeDegrees>
            </Position>
            <AltitudeMeters>348.20001220703125</AltitudeMeters>
            <DistanceMeters>NAN</DistanceMeters>
          </Trackpoint>
          <Trackpoint>
            <Time>2022-09-22T11:20:44.000Z</Time>
            <Position>
              <LatitudeDegrees>49.53159808181226253509521484375</LatitudeDegrees>
              <LongitudeDegrees>20.57804158888757228851318359375</LongitudeDegrees>
            </Position>
            <AltitudeMeters>348.79998779296875</AltitudeMeters>
            <DistanceMeters>NAN</DistanceMeters>
          </Trackpoint>
          <Trackpoint>
            <Time>2022-09-22T11:20:50.000Z</Time>
            <Position>
              <LatitudeDegrees>49.53145869076251983642578125</LatitudeDegrees>
              <LongitudeDegrees>20.5781100690364837646484375</LongitudeDegrees>
            </Position>
            <AltitudeMeters>349.399993896484375</AltitudeMeters>
            <DistanceMeters>NAN</DistanceMeters>
          </Trackpoint>
          <Trackpoint>
            <Time>2022-09-22T11:20:53.000Z</Time>
            <Position>
              <LatitudeDegrees>49.53140546567738056182861328125</LatitudeDegrees>
              <LongitudeDegrees>20.5781394056975841522216796875</LongitudeDegrees>
            </Position>
            <AltitudeMeters>349.399993896484375</AltitudeMeters>
            <DistanceMeters>NAN</DistanceMeters>
          </Trackpoint>
          <Trackpoint>
            <Time>2022-09-22T11:20:56.000Z</Time>
            <Position>
              <LatitudeDegrees>49.53134872019290924072265625</LatitudeDegrees>
              <LongitudeDegrees>20.5781769566237926483154296875</LongitudeDegrees>
            </Position>
            <AltitudeMeters>349.79998779296875</AltitudeMeters>
            <DistanceMeters>NAN</DistanceMeters>
          </Trackpoint>
          <Trackpoint>
            <Time>2022-09-22T11:20:59.000Z</Time>
            <Position>
              <LatitudeDegrees>49.5312876999378204345703125</LatitudeDegrees>
              <LongitudeDegrees>20.57821677066385746002197265625</LongitudeDegrees>
            </Position>
            <AltitudeMeters>350</AltitudeMeters>
            <DistanceMeters>NAN</DistanceMeters>
          </Trackpoint>
          <Trackpoint>
            <Time>2022-09-22T11:21:08.000Z</Time>
            <Position>
              <LatitudeDegrees>49.53110841102898120880126953125</LatitudeDegrees>
              <LongitudeDegrees>20.57833814062178134918212890625</LongitudeDegrees>
            </Position>
            <AltitudeMeters>350.79998779296875</AltitudeMeters>
            <DistanceMeters>NAN</DistanceMeters>
          </Trackpoint>
          <Trackpoint>
            <Time>2022-09-22T11:21:09.000Z</Time>
            <Position>
              <LatitudeDegrees>49.5310863666236400604248046875</LatitudeDegrees>
              <LongitudeDegrees>20.578355155885219573974609375</LongitudeDegrees>
            </Position>
            <AltitudeMeters>350.79998779296875</AltitudeMeters>
            <DistanceMeters>NAN</DistanceMeters>
          </Trackpoint>
          <Trackpoint>
            <Time>2022-09-22T11:21:16.000Z</Time>
            <Position>
              <LatitudeDegrees>49.53092669136822223663330078125</LatitudeDegrees>
              <LongitudeDegrees>20.57847275398671627044677734375</LongitudeDegrees>
            </Position>
            <AltitudeMeters>351.20001220703125</AltitudeMeters>
            <DistanceMeters>NAN</DistanceMeters>
          </Trackpoint>
          <Trackpoint>
            <Time>2022-09-22T11:21:20.000Z</Time>
            <Position>
              <LatitudeDegrees>49.53085963614284992218017578125</LatitudeDegrees>
              <LongitudeDegrees>20.57851416058838367462158203125</LongitudeDegrees>
            </Position>
            <AltitudeMeters>351.600006103515625</AltitudeMeters>
            <DistanceMeters>NAN</DistanceMeters>
          </Trackpoint>
          <Trackpoint>
            <Time>2022-09-22T11:21:22.000Z</Time>
            <Position>
              <LatitudeDegrees>49.53083046711981296539306640625</LatitudeDegrees>
              <LongitudeDegrees>20.57852539233863353729248046875</LongitudeDegrees>
            </Position>
            <AltitudeMeters>351.600006103515625</AltitudeMeters>
            <DistanceMeters>NAN</DistanceMeters>
          </Trackpoint>
          <Trackpoint>
            <Time>2022-09-22T11:21:25.000Z</Time>
            <Position>
              <LatitudeDegrees>49.53077598474919795989990234375</LatitudeDegrees>
              <LongitudeDegrees>20.578566379845142364501953125</LongitudeDegrees>
            </Position>
            <AltitudeMeters>351.79998779296875</AltitudeMeters>
            <DistanceMeters>NAN</DistanceMeters>
          </Trackpoint>
          <Trackpoint>
            <Time>2022-09-22T11:21:30.000Z</Time>
            <Position>
              <LatitudeDegrees>49.53068361617624759674072265625</LatitudeDegrees>
              <LongitudeDegrees>20.57864424772560596466064453125</LongitudeDegrees>
            </Position>
            <AltitudeMeters>352</AltitudeMeters>
            <DistanceMeters>NAN</DistanceMeters>
          </Trackpoint>
          <Trackpoint>
            <Time>2022-09-22T11:21:31.000Z</Time>
            <Position>
              <LatitudeDegrees>49.530664421617984771728515625</LatitudeDegrees>
              <LongitudeDegrees>20.57865732349455356597900390625</LongitudeDegrees>
            </Position>
            <AltitudeMeters>352.20001220703125</AltitudeMeters>
            <DistanceMeters>NAN</DistanceMeters>
          </Trackpoint>
          <Trackpoint>
            <Time>2022-09-22T11:21:39.000Z</Time>
            <Position>
              <LatitudeDegrees>49.5305076800286769866943359375</LatitudeDegrees>
              <LongitudeDegrees>20.5787616781890392303466796875</LongitudeDegrees>
            </Position>
            <AltitudeMeters>352.79998779296875</AltitudeMeters>
            <DistanceMeters>NAN</DistanceMeters>
          </Trackpoint>
          <Trackpoint>
            <Time>2022-09-22T11:21:40.000Z</Time>
            <Position>
              <LatitudeDegrees>49.5304852165281772613525390625</LatitudeDegrees>
              <LongitudeDegrees>20.578779280185699462890625</LongitudeDegrees>
            </Position>
            <AltitudeMeters>353</AltitudeMeters>
            <DistanceMeters>NAN</DistanceMeters>
          </Trackpoint>
          <Trackpoint>
            <Time>2022-09-22T11:21:48.000Z</Time>
            <Position>
              <LatitudeDegrees>49.5303209312260150909423828125</LatitudeDegrees>
              <LongitudeDegrees>20.57889520190656185150146484375</LongitudeDegrees>
            </Position>
            <AltitudeMeters>353.600006103515625</AltitudeMeters>
            <DistanceMeters>NAN</DistanceMeters>
          </Trackpoint>
          <Trackpoint>
            <Time>2022-09-22T11:21:53.000Z</Time>
            <Position>
              <LatitudeDegrees>49.53021205030381679534912109375</LatitudeDegrees>
              <LongitudeDegrees>20.57896007783710956573486328125</LongitudeDegrees>
            </Position>
            <AltitudeMeters>353.79998779296875</AltitudeMeters>
            <DistanceMeters>NAN</DistanceMeters>
          </Trackpoint>
          <Trackpoint>
            <Time>2022-09-22T11:21:56.000Z</Time>
            <Position>
              <LatitudeDegrees>49.530140049755573272705078125</LatitudeDegrees>
              <LongitudeDegrees>20.5790084414184093475341796875</LongitudeDegrees>
            </Position>
            <AltitudeMeters>354.20001220703125</AltitudeMeters>
            <DistanceMeters>NAN</DistanceMeters>
          </Trackpoint>
          <Trackpoint>
            <Time>2022-09-22T11:22:05.000Z</Time>
            <Position>
              <LatitudeDegrees>49.52996763400733470916748046875</LatitudeDegrees>
              <LongitudeDegrees>20.57913408614695072174072265625</LongitudeDegrees>
            </Position>
            <AltitudeMeters>354.79998779296875</AltitudeMeters>
            <DistanceMeters>NAN</DistanceMeters>
          </Trackpoint>
          <Trackpoint>
            <Time>2022-09-22T11:22:06.000Z</Time>
            <Position>
              <LatitudeDegrees>49.52994802035391330718994140625</LatitudeDegrees>
              <LongitudeDegrees>20.57914967648684978485107421875</LongitudeDegrees>
            </Position>
            <AltitudeMeters>355</AltitudeMeters>
            <DistanceMeters>NAN</DistanceMeters>
          </Trackpoint>
          <Trackpoint>
            <Time>2022-09-22T11:22:13.000Z</Time>
            <Position>
              <LatitudeDegrees>49.52979169785976409912109375</LatitudeDegrees>
              <LongitudeDegrees>20.579256713390350341796875</LongitudeDegrees>
            </Position>
            <AltitudeMeters>355.399993896484375</AltitudeMeters>
            <DistanceMeters>NAN</DistanceMeters>
          </Trackpoint>
          <Trackpoint>
            <Time>2022-09-22T11:22:19.000Z</Time>
            <Position>
              <LatitudeDegrees>49.52965146861970424652099609375</LatitudeDegrees>
              <LongitudeDegrees>20.57935100980103015899658203125</LongitudeDegrees>
            </Position>
            <AltitudeMeters>356</AltitudeMeters>
            <DistanceMeters>NAN</DistanceMeters>
          </Trackpoint>
          <Trackpoint>
            <Time>2022-09-22T11:22:22.000Z</Time>
            <Position>
              <LatitudeDegrees>49.52959547750651836395263671875</LatitudeDegrees>
              <LongitudeDegrees>20.57939744554460048675537109375</LongitudeDegrees>
            </Position>
            <AltitudeMeters>356.399993896484375</AltitudeMeters>
            <DistanceMeters>NAN</DistanceMeters>
          </Trackpoint>
          <Trackpoint>
            <Time>2022-09-22T11:22:30.000Z</Time>
            <Position>
              <LatitudeDegrees>49.5294485427439212799072265625</LatitudeDegrees>
              <LongitudeDegrees>20.5794838629662990570068359375</LongitudeDegrees>
            </Position>
            <AltitudeMeters>356.79998779296875</AltitudeMeters>
            <DistanceMeters>NAN</DistanceMeters>
          </Trackpoint>
          <Trackpoint>
            <Time>2022-09-22T11:22:33.000Z</Time>
            <Position>
              <LatitudeDegrees>49.5293898694217205047607421875</LatitudeDegrees>
              <LongitudeDegrees>20.579524934291839599609375</LongitudeDegrees>
            </Position>
            <AltitudeMeters>357.20001220703125</AltitudeMeters>
            <DistanceMeters>NAN</DistanceMeters>
          </Trackpoint>
          <Trackpoint>
            <Time>2022-09-22T11:22:37.000Z</Time>
            <Position>
              <LatitudeDegrees>49.52930311672389507293701171875</LatitudeDegrees>
              <LongitudeDegrees>20.5795804224908351898193359375</LongitudeDegrees>
            </Position>
            <AltitudeMeters>357.399993896484375</AltitudeMeters>
            <DistanceMeters>NAN</DistanceMeters>
          </Trackpoint>
          <Trackpoint>
            <Time>2022-09-22T11:22:45.000Z</Time>
            <Position>
              <LatitudeDegrees>49.52913044951856136322021484375</LatitudeDegrees>
              <LongitudeDegrees>20.57970439083874225616455078125</LongitudeDegrees>
            </Position>
            <AltitudeMeters>358</AltitudeMeters>
            <DistanceMeters>NAN</DistanceMeters>
          </Trackpoint>
          <Trackpoint>
            <Time>2022-09-22T11:22:47.000Z</Time>
            <Position>
              <LatitudeDegrees>49.5290897972881793975830078125</LatitudeDegrees>
              <LongitudeDegrees>20.5797380022704601287841796875</LongitudeDegrees>
            </Position>
            <AltitudeMeters>358.20001220703125</AltitudeMeters>
            <DistanceMeters>NAN</DistanceMeters>
          </Trackpoint>
          <Trackpoint>
            <Time>2022-09-22T11:22:53.000Z</Time>
            <Position>
              <LatitudeDegrees>49.52896934933960437774658203125</LatitudeDegrees>
              <LongitudeDegrees>20.57983447797596454620361328125</LongitudeDegrees>
            </Position>
            <AltitudeMeters>359</AltitudeMeters>
            <DistanceMeters>NAN</DistanceMeters>
          </Trackpoint>
          <Trackpoint>
            <Time>2022-09-22T11:22:56.000Z</Time>
            <Position>
              <LatitudeDegrees>49.52891436405479907989501953125</LatitudeDegrees>
              <LongitudeDegrees>20.579879991710186004638671875</LongitudeDegrees>
            </Position>
            <AltitudeMeters>359.20001220703125</AltitudeMeters>
            <DistanceMeters>NAN</DistanceMeters>
          </Trackpoint>
          <Trackpoint>
            <Time>2022-09-22T11:22:59.000Z</Time>
            <Position>
              <LatitudeDegrees>49.5288530923426151275634765625</LatitudeDegrees>
              <LongitudeDegrees>20.579918883740901947021484375</LongitudeDegrees>
            </Position>
            <AltitudeMeters>359.399993896484375</AltitudeMeters>
            <DistanceMeters>NAN</DistanceMeters>
          </Trackpoint>
          <Trackpoint>
            <Time>2022-09-22T11:23:05.000Z</Time>
            <Position>
              <LatitudeDegrees>49.52872216701507568359375</LatitudeDegrees>
              <LongitudeDegrees>20.580007731914520263671875</LongitudeDegrees>
            </Position>
            <AltitudeMeters>359.79998779296875</AltitudeMeters>
            <DistanceMeters>NAN</DistanceMeters>
          </Trackpoint>
          <Trackpoint>
            <Time>2022-09-22T11:23:10.000Z</Time>
            <Position>
              <LatitudeDegrees>49.52861814759671688079833984375</LatitudeDegrees>
              <LongitudeDegrees>20.58006447739899158477783203125</LongitudeDegrees>
            </Position>
            <AltitudeMeters>360.20001220703125</AltitudeMeters>
            <DistanceMeters>NAN</DistanceMeters>
          </Trackpoint>
          <Trackpoint>
            <Time>2022-09-22T11:23:14.000Z</Time>
            <Position>
              <LatitudeDegrees>49.528546817600727081298828125</LatitudeDegrees>
              <LongitudeDegrees>20.58011275716125965118408203125</LongitudeDegrees>
            </Position>
            <AltitudeMeters>360.600006103515625</AltitudeMeters>
            <DistanceMeters>NAN</DistanceMeters>
          </Trackpoint>
          <Trackpoint>
            <Time>2022-09-22T11:23:21.000Z</Time>
            <Position>
              <LatitudeDegrees>49.52840625308454036712646484375</LatitudeDegrees>
              <LongitudeDegrees>20.5802087299525737762451171875</LongitudeDegrees>
            </Position>
            <AltitudeMeters>361</AltitudeMeters>
            <DistanceMeters>NAN</DistanceMeters>
          </Trackpoint>
          <Trackpoint>
            <Time>2022-09-22T11:23:28.000Z</Time>
            <Position>
              <LatitudeDegrees>49.52825990505516529083251953125</LatitudeDegrees>
              <LongitudeDegrees>20.5803136713802814483642578125</LongitudeDegrees>
            </Position>
            <AltitudeMeters>361.20001220703125</AltitudeMeters>
            <DistanceMeters>NAN</DistanceMeters>
          </Trackpoint>
          <Trackpoint>
            <Time>2022-09-22T11:23:31.000Z</Time>
            <Position>
              <LatitudeDegrees>49.5281942747533321380615234375</LatitudeDegrees>
              <LongitudeDegrees>20.58034040965139865875244140625</LongitudeDegrees>
            </Position>
            <AltitudeMeters>361.399993896484375</AltitudeMeters>
            <DistanceMeters>NAN</DistanceMeters>
          </Trackpoint>
          <Trackpoint>
            <Time>2022-09-22T11:23:41.000Z</Time>
            <Position>
              <LatitudeDegrees>49.52796335332095623016357421875</LatitudeDegrees>
              <LongitudeDegrees>20.5804695747792720794677734375</LongitudeDegrees>
            </Position>
            <AltitudeMeters>361.600006103515625</AltitudeMeters>
            <DistanceMeters>NAN</DistanceMeters>
          </Trackpoint>
          <Trackpoint>
            <Time>2022-09-22T11:23:49.000Z</Time>
            <Position>
              <LatitudeDegrees>49.5277678035199642181396484375</LatitudeDegrees>
              <LongitudeDegrees>20.58055548928678035736083984375</LongitudeDegrees>
            </Position>
            <AltitudeMeters>362</AltitudeMeters>
            <DistanceMeters>NAN</DistanceMeters>
          </Trackpoint>
          <Trackpoint>
            <Time>2022-09-22T11:23:55.000Z</Time>
            <Position>
              <LatitudeDegrees>49.5276011712849140167236328125</LatitudeDegrees>
              <LongitudeDegrees>20.58061122894287109375</LongitudeDegrees>
            </Position>
            <AltitudeMeters>362.20001220703125</AltitudeMeters>
            <DistanceMeters>NAN</DistanceMeters>
          </Trackpoint>
          <Trackpoint>
            <Time>2022-09-22T11:24:00.000Z</Time>
            <Position>
              <LatitudeDegrees>49.52748172916471958160400390625</LatitudeDegrees>
              <LongitudeDegrees>20.58068021200597286224365234375</LongitudeDegrees>
            </Position>
            <AltitudeMeters>362.20001220703125</AltitudeMeters>
            <DistanceMeters>NAN</DistanceMeters>
          </Trackpoint>
          <Trackpoint>
            <Time>2022-09-22T11:24:02.000Z</Time>
            <Position>
              <LatitudeDegrees>49.527434371411800384521484375</LatitudeDegrees>
              <LongitudeDegrees>20.5806985683739185333251953125</LongitudeDegrees>
            </Position>
            <AltitudeMeters>362.399993896484375</AltitudeMeters>
            <DistanceMeters>NAN</DistanceMeters>
          </Trackpoint>
          <Trackpoint>
            <Time>2022-09-22T11:24:08.000Z</Time>
            <Position>
              <LatitudeDegrees>49.5272823236882686614990234375</LatitudeDegrees>
              <LongitudeDegrees>20.5807612650096416473388671875</LongitudeDegrees>
            </Position>
            <AltitudeMeters>362.79998779296875</AltitudeMeters>
            <DistanceMeters>NAN</DistanceMeters>
          </Trackpoint>
          <Trackpoint>
            <Time>2022-09-22T11:24:10.000Z</Time>
            <Position>
              <LatitudeDegrees>49.52724116854369640350341796875</LatitudeDegrees>
              <LongitudeDegrees>20.58077325113117694854736328125</LongitudeDegrees>
            </Position>
            <AltitudeMeters>362.79998779296875</AltitudeMeters>
            <DistanceMeters>NAN</DistanceMeters>
          </Trackpoint>
          <Trackpoint>
            <Time>2022-09-22T11:24:18.000Z</Time>
            <Position>
              <LatitudeDegrees>49.5270466245710849761962890625</LatitudeDegrees>
              <LongitudeDegrees>20.58084525167942047119140625</LongitudeDegrees>
            </Position>
            <AltitudeMeters>363.20001220703125</AltitudeMeters>
            <DistanceMeters>NAN</DistanceMeters>
          </Trackpoint>
          <Trackpoint>
            <Time>2022-09-22T11:24:19.000Z</Time>
            <Position>
              <LatitudeDegrees>49.52701703645288944244384765625</LatitudeDegrees>
              <LongitudeDegrees>20.58085472323000431060791015625</LongitudeDegrees>
            </Position>
            <AltitudeMeters>363.399993896484375</AltitudeMeters>
            <DistanceMeters>NAN</DistanceMeters>
          </Trackpoint>
          <Trackpoint>
            <Time>2022-09-22T11:24:28.000Z</Time>
            <Position>
              <LatitudeDegrees>49.52683799900114536285400390625</LatitudeDegrees>
              <LongitudeDegrees>20.58089344762265682220458984375</LongitudeDegrees>
            </Position>
            <AltitudeMeters>364</AltitudeMeters>
            <DistanceMeters>NAN</DistanceMeters>
          </Trackpoint>
          <Trackpoint>
            <Time>2022-09-22T11:24:32.000Z</Time>
            <Position>
              <LatitudeDegrees>49.526761807501316070556640625</LatitudeDegrees>
              <LongitudeDegrees>20.580890513956546783447265625</LongitudeDegrees>
            </Position>
            <AltitudeMeters>364.399993896484375</AltitudeMeters>
            <DistanceMeters>NAN</DistanceMeters>
          </Trackpoint>
          <Trackpoint>
            <Time>2022-09-22T11:24:35.000Z</Time>
            <Position>
              <LatitudeDegrees>49.52668863348662853240966796875</LatitudeDegrees>
              <LongitudeDegrees>20.58087618090212345123291015625</LongitudeDegrees>
            </Position>
            <AltitudeMeters>364.600006103515625</AltitudeMeters>
            <DistanceMeters>NAN</DistanceMeters>
          </Trackpoint>
          <Trackpoint>
            <Time>2022-09-22T11:24:43.000Z</Time>
            <Position>
              <LatitudeDegrees>49.52647774480283260345458984375</LatitudeDegrees>
              <LongitudeDegrees>20.58081214316189289093017578125</LongitudeDegrees>
            </Position>
            <AltitudeMeters>365</AltitudeMeters>
            <DistanceMeters>NAN</DistanceMeters>
          </Trackpoint>
          <Trackpoint>
            <Time>2022-09-22T11:24:46.000Z</Time>
            <Position>
              <LatitudeDegrees>49.5264008827507495880126953125</LatitudeDegrees>
              <LongitudeDegrees>20.580777861177921295166015625</LongitudeDegrees>
            </Position>
            <AltitudeMeters>365.20001220703125</AltitudeMeters>
            <DistanceMeters>NAN</DistanceMeters>
          </Trackpoint>
          <Trackpoint>
            <Time>2022-09-22T11:24:49.000Z</Time>
            <Position>
              <LatitudeDegrees>49.52633961103856563568115234375</LatitudeDegrees>
              <LongitudeDegrees>20.580731928348541259765625</LongitudeDegrees>
            </Position>
            <AltitudeMeters>365.600006103515625</AltitudeMeters>
            <DistanceMeters>NAN</DistanceMeters>
          </Trackpoint>
          <Trackpoint>
            <Time>2022-09-22T11:24:50.000Z</Time>
            <Position>
              <LatitudeDegrees>49.52632167376577854156494140625</LatitudeDegrees>
              <LongitudeDegrees>20.5807210318744182586669921875</LongitudeDegrees>
            </Position>
            <AltitudeMeters>365.600006103515625</AltitudeMeters>
            <DistanceMeters>NAN</DistanceMeters>
          </Trackpoint>
          <Trackpoint>
            <Time>2022-09-22T11:24:53.000Z</Time>
            <Position>
              <LatitudeDegrees>49.5263180695474147796630859375</LatitudeDegrees>
              <LongitudeDegrees>20.58071558363735675811767578125</LongitudeDegrees>
            </Position>
            <AltitudeMeters>366</AltitudeMeters>
            <DistanceMeters>NAN</DistanceMeters>
          </Trackpoint>
          <Trackpoint>
            <Time>2022-09-22T11:24:58.000Z</Time>
            <Position>
              <LatitudeDegrees>49.5263227634131908416748046875</LatitudeDegrees>
              <LongitudeDegrees>20.58072798885405063629150390625</LongitudeDegrees>
            </Position>
            <AltitudeMeters>366.20001220703125</AltitudeMeters>
            <DistanceMeters>NAN</DistanceMeters>
          </Trackpoint>
          <Trackpoint>
            <Time>2022-09-22T11:25:04.000Z</Time>
            <Position>
              <LatitudeDegrees>49.52631999738514423370361328125</LatitudeDegrees>
              <LongitudeDegrees>20.58072966523468494415283203125</LongitudeDegrees>
            </Position>
            <AltitudeMeters>366</AltitudeMeters>
            <DistanceMeters>NAN</DistanceMeters>
          </Trackpoint>
          <Trackpoint>
            <Time>2022-09-22T11:25:05.000Z</Time>
            <Position>
              <LatitudeDegrees>49.526299126446247100830078125</LatitudeDegrees>
              <LongitudeDegrees>20.58073234744369983673095703125</LongitudeDegrees>
            </Position>
            <AltitudeMeters>366</AltitudeMeters>
            <DistanceMeters>NAN</DistanceMeters>
          </Trackpoint>
          <Trackpoint>
            <Time>2022-09-22T11:25:11.000Z</Time>
            <Position>
              <LatitudeDegrees>49.52612738125026226043701171875</LatitudeDegrees>
              <LongitudeDegrees>20.5806875042617321014404296875</LongitudeDegrees>
            </Position>
            <AltitudeMeters>366.20001220703125</AltitudeMeters>
            <DistanceMeters>NAN</DistanceMeters>
          </Trackpoint>
          <Trackpoint>
            <Time>2022-09-22T11:25:13.000Z</Time>
            <Position>
              <LatitudeDegrees>49.526064097881317138671875</LatitudeDegrees>
              <LongitudeDegrees>20.5806579999625682830810546875</LongitudeDegrees>
            </Position>
            <AltitudeMeters>366.600006103515625</AltitudeMeters>
            <DistanceMeters>NAN</DistanceMeters>
          </Trackpoint>
          <Trackpoint>
            <Time>2022-09-22T11:25:17.000Z</Time>
            <Position>
              <LatitudeDegrees>49.5259452424943447113037109375</LatitudeDegrees>
              <LongitudeDegrees>20.58059714734554290771484375</LongitudeDegrees>
            </Position>
            <AltitudeMeters>366.79998779296875</AltitudeMeters>
            <DistanceMeters>NAN</DistanceMeters>
          </Trackpoint>
          <Trackpoint>
            <Time>2022-09-22T11:25:22.000Z</Time>
            <Position>
              <LatitudeDegrees>49.52581490390002727508544921875</LatitudeDegrees>
              <LongitudeDegrees>20.58053168468177318572998046875</LongitudeDegrees>
            </Position>
            <AltitudeMeters>367.399993896484375</AltitudeMeters>
            <DistanceMeters>NAN</DistanceMeters>
          </Trackpoint>
          <Trackpoint>
            <Time>2022-09-22T11:25:23.000Z</Time>
            <Position>
              <LatitudeDegrees>49.5257906801998615264892578125</LatitudeDegrees>
              <LongitudeDegrees>20.58052581734955310821533203125</LongitudeDegrees>
            </Position>
            <AltitudeMeters>367.600006103515625</AltitudeMeters>
            <DistanceMeters>NAN</DistanceMeters>
          </Trackpoint>
          <Trackpoint>
            <Time>2022-09-22T11:25:24.000Z</Time>
            <Position>
              <LatitudeDegrees>49.52576813288033008575439453125</LatitudeDegrees>
              <LongitudeDegrees>20.5805245600640773773193359375</LongitudeDegrees>
            </Position>
            <AltitudeMeters>367.600006103515625</AltitudeMeters>
            <DistanceMeters>NAN</DistanceMeters>
          </Trackpoint>
          <Trackpoint>
            <Time>2022-09-22T11:25:29.000Z</Time>
            <Position>
              <LatitudeDegrees>49.52563720755279064178466796875</LatitudeDegrees>
              <LongitudeDegrees>20.580504946410655975341796875</LongitudeDegrees>
            </Position>
            <AltitudeMeters>368</AltitudeMeters>
            <DistanceMeters>NAN</DistanceMeters>
          </Trackpoint>
          <Trackpoint>
            <Time>2022-09-22T11:25:38.000Z</Time>
            <Position>
              <LatitudeDegrees>49.5254533924162387847900390625</LatitudeDegrees>
              <LongitudeDegrees>20.5804504640400409698486328125</LongitudeDegrees>
            </Position>
            <AltitudeMeters>368.399993896484375</AltitudeMeters>
            <DistanceMeters>NAN</DistanceMeters>
          </Trackpoint>
          <Trackpoint>
            <Time>2022-09-22T11:25:42.000Z</Time>
            <Position>
              <LatitudeDegrees>49.52539178542792797088623046875</LatitudeDegrees>
              <LongitudeDegrees>20.58042422868311405181884765625</LongitudeDegrees>
            </Position>
            <AltitudeMeters>368.600006103515625</AltitudeMeters>
            <DistanceMeters>NAN</DistanceMeters>
          </Trackpoint>
          <Trackpoint>
            <Time>2022-09-22T11:25:45.000Z</Time>
            <Position>
              <LatitudeDegrees>49.52533361501991748809814453125</LatitudeDegrees>
              <LongitudeDegrees>20.5803948082029819488525390625</LongitudeDegrees>
            </Position>
            <AltitudeMeters>368.79998779296875</AltitudeMeters>
            <DistanceMeters>NAN</DistanceMeters>
          </Trackpoint>
          <Trackpoint>
            <Time>2022-09-22T11:25:52.000Z</Time>
            <Position>
              <LatitudeDegrees>49.52516681514680385589599609375</LatitudeDegrees>
              <LongitudeDegrees>20.5803300999104976654052734375</LongitudeDegrees>
            </Position>
            <AltitudeMeters>369.20001220703125</AltitudeMeters>
            <DistanceMeters>NAN</DistanceMeters>
          </Trackpoint>
          <Trackpoint>
            <Time>2022-09-22T11:25:59.000Z</Time>
            <Position>
              <LatitudeDegrees>49.5250212214887142181396484375</LatitudeDegrees>
              <LongitudeDegrees>20.58029766194522380828857421875</LongitudeDegrees>
            </Position>
            <AltitudeMeters>369.600006103515625</AltitudeMeters>
            <DistanceMeters>NAN</DistanceMeters>
          </Trackpoint>
          <Trackpoint>
            <Time>2022-09-22T11:26:01.000Z</Time>
            <Position>
              <LatitudeDegrees>49.52497310936450958251953125</LatitudeDegrees>
              <LongitudeDegrees>20.58028408326208591461181640625</LongitudeDegrees>
            </Position>
            <AltitudeMeters>369.600006103515625</AltitudeMeters>
            <DistanceMeters>NAN</DistanceMeters>
          </Trackpoint>
          <Trackpoint>
            <Time>2022-09-22T11:26:08.000Z</Time>
            <Position>
              <LatitudeDegrees>49.524776972830295562744140625</LatitudeDegrees>
              <LongitudeDegrees>20.58030671440064907073974609375</LongitudeDegrees>
            </Position>
            <AltitudeMeters>369.79998779296875</AltitudeMeters>
            <DistanceMeters>NAN</DistanceMeters>
          </Trackpoint>
          <Trackpoint>
            <Time>2022-09-22T11:26:14.000Z</Time>
            <Position>
              <LatitudeDegrees>49.52465124428272247314453125</LatitudeDegrees>
              <LongitudeDegrees>20.58032884262502193450927734375</LongitudeDegrees>
            </Position>
            <AltitudeMeters>370.399993896484375</AltitudeMeters>
            <DistanceMeters>NAN</DistanceMeters>
          </Trackpoint>
          <Trackpoint>
            <Time>2022-09-22T11:26:17.000Z</Time>
            <Position>
              <LatitudeDegrees>49.52459382824599742889404296875</LatitudeDegrees>
              <LongitudeDegrees>20.580353401601314544677734375</LongitudeDegrees>
            </Position>
            <AltitudeMeters>370.600006103515625</AltitudeMeters>
            <DistanceMeters>NAN</DistanceMeters>
          </Trackpoint>
          <Trackpoint>
            <Time>2022-09-22T11:26:21.000Z</Time>
            <Position>
              <LatitudeDegrees>49.52450917102396488189697265625</LatitudeDegrees>
              <LongitudeDegrees>20.58037678711116313934326171875</LongitudeDegrees>
            </Position>
            <AltitudeMeters>370.79998779296875</AltitudeMeters>
            <DistanceMeters>NAN</DistanceMeters>
          </Trackpoint>
          <Trackpoint>
            <Time>2022-09-22T11:26:28.000Z</Time>
            <Position>
              <LatitudeDegrees>49.52432543970644474029541015625</LatitudeDegrees>
              <LongitudeDegrees>20.58042808435857295989990234375</LongitudeDegrees>
            </Position>
            <AltitudeMeters>371</AltitudeMeters>
            <DistanceMeters>NAN</DistanceMeters>
          </Trackpoint>
          <Trackpoint>
            <Time>2022-09-22T11:26:34.000Z</Time>
            <Position>
              <LatitudeDegrees>49.52420071698725223541259765625</LatitudeDegrees>
              <LongitudeDegrees>20.58046043850481510162353515625</LongitudeDegrees>
            </Position>
            <AltitudeMeters>371.79998779296875</AltitudeMeters>
            <DistanceMeters>NAN</DistanceMeters>
          </Trackpoint>
          <Trackpoint>
            <Time>2022-09-22T11:26:43.000Z</Time>
            <Position>
              <LatitudeDegrees>49.52398798428475856781005859375</LatitudeDegrees>
              <LongitudeDegrees>20.58053922839462757110595703125</LongitudeDegrees>
            </Position>
            <AltitudeMeters>372.600006103515625</AltitudeMeters>
            <DistanceMeters>NAN</DistanceMeters>
          </Trackpoint>
          <Trackpoint>
            <Time>2022-09-22T11:26:47.000Z</Time>
            <Position>
              <LatitudeDegrees>49.5239164866507053375244140625</LatitudeDegrees>
              <LongitudeDegrees>20.580551214516162872314453125</LongitudeDegrees>
            </Position>
            <AltitudeMeters>372.79998779296875</AltitudeMeters>
            <DistanceMeters>NAN</DistanceMeters>
          </Trackpoint>
          <Trackpoint>
            <Time>2022-09-22T11:26:50.000Z</Time>
            <Position>
              <LatitudeDegrees>49.52384465374052524566650390625</LatitudeDegrees>
              <LongitudeDegrees>20.58055867440998554229736328125</LongitudeDegrees>
            </Position>
            <AltitudeMeters>372.79998779296875</AltitudeMeters>
            <DistanceMeters>NAN</DistanceMeters>
          </Trackpoint>
          <Trackpoint>
            <Time>2022-09-22T11:26:59.000Z</Time>
            <Position>
              <LatitudeDegrees>49.523623622953891754150390625</LatitudeDegrees>
              <LongitudeDegrees>20.580618940293788909912109375</LongitudeDegrees>
            </Position>
            <AltitudeMeters>373.600006103515625</AltitudeMeters>
            <DistanceMeters>NAN</DistanceMeters>
          </Trackpoint>
          <Trackpoint>
            <Time>2022-09-22T11:27:02.000Z</Time>
            <Position>
              <LatitudeDegrees>49.52354391105473041534423828125</LatitudeDegrees>
              <LongitudeDegrees>20.58064542710781097412109375</LongitudeDegrees>
            </Position>
            <AltitudeMeters>373.79998779296875</AltitudeMeters>
            <DistanceMeters>NAN</DistanceMeters>
          </Trackpoint>
          <Trackpoint>
            <Time>2022-09-22T11:27:03.000Z</Time>
            <Position>
              <LatitudeDegrees>49.52352245338261127471923828125</LatitudeDegrees>
              <LongitudeDegrees>20.5806549824774265289306640625</LongitudeDegrees>
            </Position>
            <AltitudeMeters>374</AltitudeMeters>
            <DistanceMeters>NAN</DistanceMeters>
          </Trackpoint>
          <Trackpoint>
            <Time>2022-09-22T11:27:07.000Z</Time>
            <Position>
              <LatitudeDegrees>49.5234306715428829193115234375</LatitudeDegrees>
              <LongitudeDegrees>20.5806740932166576385498046875</LongitudeDegrees>
            </Position>
            <AltitudeMeters>374.399993896484375</AltitudeMeters>
            <DistanceMeters>NAN</DistanceMeters>
          </Trackpoint>
          <Trackpoint>
            <Time>2022-09-22T11:27:12.000Z</Time>
            <Position>
              <LatitudeDegrees>49.52330167405307292938232421875</LatitudeDegrees>
              <LongitudeDegrees>20.580695383250713348388671875</LongitudeDegrees>
            </Position>
            <AltitudeMeters>374.79998779296875</AltitudeMeters>
            <DistanceMeters>NAN</DistanceMeters>
          </Trackpoint>
          <Trackpoint>
            <Time>2022-09-22T11:27:15.000Z</Time>
            <Position>
              <LatitudeDegrees>49.5232241414487361907958984375</LatitudeDegrees>
              <LongitudeDegrees>20.58069370687007904052734375</LongitudeDegrees>
            </Position>
            <AltitudeMeters>375</AltitudeMeters>
            <DistanceMeters>NAN</DistanceMeters>
          </Trackpoint>
          <Trackpoint>
            <Time>2022-09-22T11:27:21.000Z</Time>
            <Position>
              <LatitudeDegrees>49.52307553030550479888916015625</LatitudeDegrees>
              <LongitudeDegrees>20.5807037651538848876953125</LongitudeDegrees>
            </Position>
            <AltitudeMeters>375.399993896484375</AltitudeMeters>
            <DistanceMeters>NAN</DistanceMeters>
          </Trackpoint>
          <Trackpoint>
            <Time>2022-09-22T11:27:26.000Z</Time>
            <Position>
              <LatitudeDegrees>49.52298467047512531280517578125</LatitudeDegrees>
              <LongitudeDegrees>20.58067635633051395416259765625</LongitudeDegrees>
            </Position>
            <AltitudeMeters>375.600006103515625</AltitudeMeters>
            <DistanceMeters>NAN</DistanceMeters>
          </Trackpoint>
          <Trackpoint>
            <Time>2022-09-22T11:27:29.000Z</Time>
            <Position>
              <LatitudeDegrees>49.5229166932404041290283203125</LatitudeDegrees>
              <LongitudeDegrees>20.58067803271114826202392578125</LongitudeDegrees>
            </Position>
            <AltitudeMeters>376</AltitudeMeters>
            <DistanceMeters>NAN</DistanceMeters>
          </Trackpoint>
          <Trackpoint>
            <Time>2022-09-22T11:27:34.000Z</Time>
            <Position>
              <LatitudeDegrees>49.52281904406845569610595703125</LatitudeDegrees>
              <LongitudeDegrees>20.5806543119251728057861328125</LongitudeDegrees>
            </Position>
            <AltitudeMeters>376</AltitudeMeters>
            <DistanceMeters>NAN</DistanceMeters>
          </Trackpoint>
          <Trackpoint>
            <Time>2022-09-22T11:27:37.000Z</Time>
            <Position>
              <LatitudeDegrees>49.522774033248424530029296875</LatitudeDegrees>
              <LongitudeDegrees>20.58064752258360385894775390625</LongitudeDegrees>
            </Position>
            <AltitudeMeters>376.20001220703125</AltitudeMeters>
            <DistanceMeters>NAN</DistanceMeters>
          </Trackpoint>
          <Trackpoint>
            <Time>2022-09-22T11:27:39.000Z</Time>
            <Position>
              <LatitudeDegrees>49.52273891307413578033447265625</LatitudeDegrees>
              <LongitudeDegrees>20.580632686614990234375</LongitudeDegrees>
            </Position>
            <AltitudeMeters>376.20001220703125</AltitudeMeters>
            <DistanceMeters>NAN</DistanceMeters>
          </Trackpoint>
          <Trackpoint>
            <Time>2022-09-22T11:27:44.000Z</Time>
            <Position>
              <LatitudeDegrees>49.522655345499515533447265625</LatitudeDegrees>
              <LongitudeDegrees>20.58061189949512481689453125</LongitudeDegrees>
            </Position>
            <AltitudeMeters>376.399993896484375</AltitudeMeters>
            <DistanceMeters>NAN</DistanceMeters>
          </Trackpoint>
          <Trackpoint>
            <Time>2022-09-22T11:27:47.000Z</Time>
            <Position>
              <LatitudeDegrees>49.5226028747856616973876953125</LatitudeDegrees>
              <LongitudeDegrees>20.58058951981365680694580078125</LongitudeDegrees>
            </Position>
            <AltitudeMeters>376.399993896484375</AltitudeMeters>
            <DistanceMeters>NAN</DistanceMeters>
          </Trackpoint>
          <Trackpoint>
            <Time>2022-09-22T11:27:52.000Z</Time>
            <Position>
              <LatitudeDegrees>49.52251126058399677276611328125</LatitudeDegrees>
              <LongitudeDegrees>20.58060796000063419342041015625</LongitudeDegrees>
            </Position>
            <AltitudeMeters>376.79998779296875</AltitudeMeters>
            <DistanceMeters>NAN</DistanceMeters>
          </Trackpoint>
          <Trackpoint>
            <Time>2022-09-22T11:27:57.000Z</Time>
            <Position>
              <LatitudeDegrees>49.5224516652524471282958984375</LatitudeDegrees>
              <LongitudeDegrees>20.58071591891348361968994140625</LongitudeDegrees>
            </Position>
            <AltitudeMeters>376.79998779296875</AltitudeMeters>
            <DistanceMeters>NAN</DistanceMeters>
          </Trackpoint>
          <Trackpoint>
            <Time>2022-09-22T11:27:59.000Z</Time>
            <Position>
              <LatitudeDegrees>49.52244051732122898101806640625</LatitudeDegrees>
              <LongitudeDegrees>20.58076587505638599395751953125</LongitudeDegrees>
            </Position>
            <AltitudeMeters>377</AltitudeMeters>
            <DistanceMeters>NAN</DistanceMeters>
          </Trackpoint>
          <Trackpoint>
            <Time>2022-09-22T11:28:05.000Z</Time>
            <Position>
              <LatitudeDegrees>49.52241964638233184814453125</LatitudeDegrees>
              <LongitudeDegrees>20.580898560583591461181640625</LongitudeDegrees>
            </Position>
            <AltitudeMeters>377.20001220703125</AltitudeMeters>
            <DistanceMeters>NAN</DistanceMeters>
          </Trackpoint>
          <Trackpoint>
            <Time>2022-09-22T11:28:11.000Z</Time>
            <Position>
              <LatitudeDegrees>49.522419311106204986572265625</LatitudeDegrees>
              <LongitudeDegrees>20.58105723001062870025634765625</LongitudeDegrees>
            </Position>
            <AltitudeMeters>377.20001220703125</AltitudeMeters>
            <DistanceMeters>NAN</DistanceMeters>
          </Trackpoint>
          <Trackpoint>
            <Time>2022-09-22T11:28:19.000Z</Time>
            <Position>
              <LatitudeDegrees>49.52241939492523670196533203125</LatitudeDegrees>
              <LongitudeDegrees>20.58132268488407135009765625</LongitudeDegrees>
            </Position>
            <AltitudeMeters>377.600006103515625</AltitudeMeters>
            <DistanceMeters>NAN</DistanceMeters>
          </Trackpoint>
          <Trackpoint>
            <Time>2022-09-22T11:28:24.000Z</Time>
            <Position>
              <LatitudeDegrees>49.522436074912548065185546875</LatitudeDegrees>
              <LongitudeDegrees>20.58148856274783611297607421875</LongitudeDegrees>
            </Position>
            <AltitudeMeters>378</AltitudeMeters>
            <DistanceMeters>NAN</DistanceMeters>
          </Trackpoint>
          <Trackpoint>
            <Time>2022-09-22T11:28:26.000Z</Time>
            <Position>
              <LatitudeDegrees>49.5224392600357532501220703125</LatitudeDegrees>
              <LongitudeDegrees>20.58156383223831653594970703125</LongitudeDegrees>
            </Position>
            <AltitudeMeters>378.20001220703125</AltitudeMeters>
            <DistanceMeters>NAN</DistanceMeters>
          </Trackpoint>
          <Trackpoint>
            <Time>2022-09-22T11:28:33.000Z</Time>
            <Position>
              <LatitudeDegrees>49.5224375836551189422607421875</LatitudeDegrees>
              <LongitudeDegrees>20.5818318016827106475830078125</LongitudeDegrees>
            </Position>
            <AltitudeMeters>379</AltitudeMeters>
            <DistanceMeters>NAN</DistanceMeters>
          </Trackpoint>
          <Trackpoint>
            <Time>2022-09-22T11:28:34.000Z</Time>
            <Position>
              <LatitudeDegrees>49.52243506908416748046875</LatitudeDegrees>
              <LongitudeDegrees>20.5818700231611728668212890625</LongitudeDegrees>
            </Position>
            <AltitudeMeters>379.20001220703125</AltitudeMeters>
            <DistanceMeters>NAN</DistanceMeters>
          </Trackpoint>
          <Trackpoint>
            <Time>2022-09-22T11:28:41.000Z</Time>
            <Position>
              <LatitudeDegrees>49.52241503633558750152587890625</LatitudeDegrees>
              <LongitudeDegrees>20.58212927542626857757568359375</LongitudeDegrees>
            </Position>
            <AltitudeMeters>380.20001220703125</AltitudeMeters>
            <DistanceMeters>NAN</DistanceMeters>
          </Trackpoint>
          <Trackpoint>
            <Time>2022-09-22T11:28:42.000Z</Time>
            <Position>
              <LatitudeDegrees>49.52240967191755771636962890625</LatitudeDegrees>
              <LongitudeDegrees>20.5821513198316097259521484375</LongitudeDegrees>
            </Position>
            <AltitudeMeters>380.600006103515625</AltitudeMeters>
            <DistanceMeters>NAN</DistanceMeters>
          </Trackpoint>
          <Trackpoint>
            <Time>2022-09-22T11:28:45.000Z</Time>
            <Position>
              <LatitudeDegrees>49.52240766026079654693603515625</LatitudeDegrees>
              <LongitudeDegrees>20.58221477083861827850341796875</LongitudeDegrees>
            </Position>
            <AltitudeMeters>381</AltitudeMeters>
            <DistanceMeters>NAN</DistanceMeters>
          </Trackpoint>
          <Trackpoint>
            <Time>2022-09-22T11:28:47.000Z</Time>
            <Position>
              <LatitudeDegrees>49.52240229584276676177978515625</LatitudeDegrees>
              <LongitudeDegrees>20.58226791210472583770751953125</LongitudeDegrees>
            </Position>
            <AltitudeMeters>381.20001220703125</AltitudeMeters>
            <DistanceMeters>NAN</DistanceMeters>
          </Trackpoint>
          <Trackpoint>
            <Time>2022-09-22T11:28:48.000Z</Time>
            <Position>
              <LatitudeDegrees>49.52239609323441982269287109375</LatitudeDegrees>
              <LongitudeDegrees>20.58229490183293819427490234375</LongitudeDegrees>
            </Position>
            <AltitudeMeters>381.399993896484375</AltitudeMeters>
            <DistanceMeters>NAN</DistanceMeters>
          </Trackpoint>
          <Trackpoint>
            <Time>2022-09-22T11:28:54.000Z</Time>
            <Position>
              <LatitudeDegrees>49.522358961403369903564453125</LatitudeDegrees>
              <LongitudeDegrees>20.5824788846075534820556640625</LongitudeDegrees>
            </Position>
            <AltitudeMeters>382</AltitudeMeters>
            <DistanceMeters>NAN</DistanceMeters>
          </Trackpoint>
          <Trackpoint>
            <Time>2022-09-22T11:28:57.000Z</Time>
            <Position>
              <LatitudeDegrees>49.52233809046447277069091796875</LatitudeDegrees>
              <LongitudeDegrees>20.58256815187633037567138671875</LongitudeDegrees>
            </Position>
            <AltitudeMeters>382.399993896484375</AltitudeMeters>
            <DistanceMeters>NAN</DistanceMeters>
          </Trackpoint>
          <Trackpoint>
            <Time>2022-09-22T11:29:01.000Z</Time>
            <Position>
              <LatitudeDegrees>49.522326774895191192626953125</LatitudeDegrees>
              <LongitudeDegrees>20.58261441998183727264404296875</LongitudeDegrees>
            </Position>
            <AltitudeMeters>382.600006103515625</AltitudeMeters>
            <DistanceMeters>NAN</DistanceMeters>
          </Trackpoint>
          <Trackpoint>
            <Time>2022-09-22T11:29:10.000Z</Time>
            <Position>
              <LatitudeDegrees>49.52232174575328826904296875</LatitudeDegrees>
              <LongitudeDegrees>20.58263218961656093597412109375</LongitudeDegrees>
            </Position>
            <AltitudeMeters>382.600006103515625</AltitudeMeters>
            <DistanceMeters>NAN</DistanceMeters>
          </Trackpoint>
          <Trackpoint>
            <Time>2022-09-22T11:29:23.000Z</Time>
            <Position>
              <LatitudeDegrees>49.52232174575328826904296875</LatitudeDegrees>
              <LongitudeDegrees>20.58263218961656093597412109375</LongitudeDegrees>
            </Position>
            <AltitudeMeters>382.79998779296875</AltitudeMeters>
            <DistanceMeters>NAN</DistanceMeters>
          </Trackpoint>
          <Trackpoint>
            <Time>2022-09-22T11:29:32.000Z</Time>
            <Position>
              <LatitudeDegrees>49.52232174575328826904296875</LatitudeDegrees>
              <LongitudeDegrees>20.58263218961656093597412109375</LongitudeDegrees>
            </Position>
            <AltitudeMeters>382.79998779296875</AltitudeMeters>
            <DistanceMeters>NAN</DistanceMeters>
          </Trackpoint>
          <Trackpoint>
            <Time>2022-09-22T11:29:34.000Z</Time>
            <Position>
              <LatitudeDegrees>49.5223212428390979766845703125</LatitudeDegrees>
              <LongitudeDegrees>20.5826349556446075439453125</LongitudeDegrees>
            </Position>
            <AltitudeMeters>382.79998779296875</AltitudeMeters>
            <DistanceMeters>NAN</DistanceMeters>
          </Trackpoint>
          <Trackpoint>
            <Time>2022-09-22T11:29:37.000Z</Time>
            <Position>
              <LatitudeDegrees>49.52231545932590961456298828125</LatitudeDegrees>
              <LongitudeDegrees>20.582713745534420013427734375</LongitudeDegrees>
            </Position>
            <AltitudeMeters>382.600006103515625</AltitudeMeters>
            <DistanceMeters>NAN</DistanceMeters>
          </Trackpoint>
          <Trackpoint>
            <Time>2022-09-22T11:29:44.000Z</Time>
            <Position>
              <LatitudeDegrees>49.52226407825946807861328125</LatitudeDegrees>
              <LongitudeDegrees>20.58299839496612548828125</LongitudeDegrees>
            </Position>
            <AltitudeMeters>383</AltitudeMeters>
            <DistanceMeters>NAN</DistanceMeters>
          </Trackpoint>
          <Trackpoint>
            <Time>2022-09-22T11:29:50.000Z</Time>
            <Position>
              <LatitudeDegrees>49.52223599888384342193603515625</LatitudeDegrees>
              <LongitudeDegrees>20.583228059113025665283203125</LongitudeDegrees>
            </Position>
            <AltitudeMeters>383.399993896484375</AltitudeMeters>
            <DistanceMeters>NAN</DistanceMeters>
          </Trackpoint>
          <Trackpoint>
            <Time>2022-09-22T11:29:52.000Z</Time>
            <Position>
              <LatitudeDegrees>49.522226862609386444091796875</LatitudeDegrees>
              <LongitudeDegrees>20.5833096988499164581298828125</LongitudeDegrees>
            </Position>
            <AltitudeMeters>383.600006103515625</AltitudeMeters>
            <DistanceMeters>NAN</DistanceMeters>
          </Trackpoint>
          <Trackpoint>
            <Time>2022-09-22T11:30:00.000Z</Time>
            <Position>
              <LatitudeDegrees>49.52219693921506404876708984375</LatitudeDegrees>
              <LongitudeDegrees>20.58356635272502899169921875</LongitudeDegrees>
            </Position>
            <AltitudeMeters>384.20001220703125</AltitudeMeters>
            <DistanceMeters>NAN</DistanceMeters>
          </Trackpoint>
          <Trackpoint>
            <Time>2022-09-22T11:30:03.000Z</Time>
            <Position>
              <LatitudeDegrees>49.52218319289386272430419921875</LatitudeDegrees>
              <LongitudeDegrees>20.58366852812469005584716796875</LongitudeDegrees>
            </Position>
            <AltitudeMeters>384.20001220703125</AltitudeMeters>
            <DistanceMeters>NAN</DistanceMeters>
          </Trackpoint>
          <Trackpoint>
            <Time>2022-09-22T11:30:07.000Z</Time>
            <Position>
              <LatitudeDegrees>49.5221559517085552215576171875</LatitudeDegrees>
              <LongitudeDegrees>20.58377212844789028167724609375</LongitudeDegrees>
            </Position>
            <AltitudeMeters>384.399993896484375</AltitudeMeters>
            <DistanceMeters>NAN</DistanceMeters>
          </Trackpoint>
          <Trackpoint>
            <Time>2022-09-22T11:30:09.000Z</Time>
            <Position>
              <LatitudeDegrees>49.52213977463543415069580078125</LatitudeDegrees>
              <LongitudeDegrees>20.58379568159580230712890625</LongitudeDegrees>
            </Position>
            <AltitudeMeters>384.399993896484375</AltitudeMeters>
            <DistanceMeters>NAN</DistanceMeters>
          </Trackpoint>
          <Trackpoint>
            <Time>2022-09-22T11:30:10.000Z</Time>
            <Position>
              <LatitudeDegrees>49.5221271179616451263427734375</LatitudeDegrees>
              <LongitudeDegrees>20.5838097631931304931640625</LongitudeDegrees>
            </Position>
            <AltitudeMeters>384.600006103515625</AltitudeMeters>
            <DistanceMeters>NAN</DistanceMeters>
          </Trackpoint>
          <Trackpoint>
            <Time>2022-09-22T11:30:13.000Z</Time>
            <Position>
              <LatitudeDegrees>49.5220691151916980743408203125</LatitudeDegrees>
              <LongitudeDegrees>20.58383499272167682647705078125</LongitudeDegrees>
            </Position>
            <AltitudeMeters>384.600006103515625</AltitudeMeters>
            <DistanceMeters>NAN</DistanceMeters>
          </Trackpoint>
          <Trackpoint>
            <Time>2022-09-22T11:30:19.000Z</Time>
            <Position>
              <LatitudeDegrees>49.52197029255330562591552734375</LatitudeDegrees>
              <LongitudeDegrees>20.58385611511766910552978515625</LongitudeDegrees>
            </Position>
            <AltitudeMeters>385.20001220703125</AltitudeMeters>
            <DistanceMeters>NAN</DistanceMeters>
          </Trackpoint>
          <Trackpoint>
            <Time>2022-09-22T11:30:21.000Z</Time>
            <Position>
              <LatitudeDegrees>49.52194087207317352294921875</LatitudeDegrees>
              <LongitudeDegrees>20.58386198244988918304443359375</LongitudeDegrees>
            </Position>
            <AltitudeMeters>385.20001220703125</AltitudeMeters>
            <DistanceMeters>NAN</DistanceMeters>
          </Trackpoint>
          <Trackpoint>
            <Time>2022-09-22T11:30:23.000Z</Time>
            <Position>
              <LatitudeDegrees>49.52192746102809906005859375</LatitudeDegrees>
              <LongitudeDegrees>20.583868436515331268310546875</LongitudeDegrees>
            </Position>
            <AltitudeMeters>385.399993896484375</AltitudeMeters>
            <DistanceMeters>NAN</DistanceMeters>
          </Trackpoint>
          <Trackpoint>
            <Time>2022-09-22T11:30:25.000Z</Time>
            <Position>
              <LatitudeDegrees>49.5219133794307708740234375</LatitudeDegrees>
              <LongitudeDegrees>20.5838853679597377777099609375</LongitudeDegrees>
            </Position>
            <AltitudeMeters>385.399993896484375</AltitudeMeters>
            <DistanceMeters>NAN</DistanceMeters>
          </Trackpoint>
          <Trackpoint>
            <Time>2022-09-22T11:30:28.000Z</Time>
            <Position>
              <LatitudeDegrees>49.52189602889120578765869140625</LatitudeDegrees>
              <LongitudeDegrees>20.58387438766658306121826171875</LongitudeDegrees>
            </Position>
            <AltitudeMeters>385.399993896484375</AltitudeMeters>
            <DistanceMeters>NAN</DistanceMeters>
          </Trackpoint>
          <Trackpoint>
            <Time>2022-09-22T11:30:33.000Z</Time>
            <Position>
              <LatitudeDegrees>49.52189602889120578765869140625</LatitudeDegrees>
              <LongitudeDegrees>20.58387438766658306121826171875</LongitudeDegrees>
            </Position>
            <AltitudeMeters>385.600006103515625</AltitudeMeters>
            <DistanceMeters>NAN</DistanceMeters>
          </Trackpoint>
          <Trackpoint>
            <Time>2022-09-22T11:30:37.000Z</Time>
            <Position>
              <LatitudeDegrees>49.52189602889120578765869140625</LatitudeDegrees>
              <LongitudeDegrees>20.58387438766658306121826171875</LongitudeDegrees>
            </Position>
            <AltitudeMeters>385.600006103515625</AltitudeMeters>
            <DistanceMeters>NAN</DistanceMeters>
          </Trackpoint>
          <Trackpoint>
            <Time>2022-09-22T11:31:03.000Z</Time>
            <Position>
              <LatitudeDegrees>49.52189602889120578765869140625</LatitudeDegrees>
              <LongitudeDegrees>20.58387438766658306121826171875</LongitudeDegrees>
            </Position>
            <AltitudeMeters>385.20001220703125</AltitudeMeters>
            <DistanceMeters>NAN</DistanceMeters>
          </Trackpoint>
          <Trackpoint>
            <Time>2022-09-22T11:31:32.000Z</Time>
            <Position>
              <LatitudeDegrees>49.52189602889120578765869140625</LatitudeDegrees>
              <LongitudeDegrees>20.58387438766658306121826171875</LongitudeDegrees>
            </Position>
            <AltitudeMeters>385</AltitudeMeters>
            <DistanceMeters>NAN</DistanceMeters>
          </Trackpoint>
          <Trackpoint>
            <Time>2022-09-22T11:31:37.000Z</Time>
            <Position>
              <LatitudeDegrees>49.52189150266349315643310546875</LatitudeDegrees>
              <LongitudeDegrees>20.5838763155043125152587890625</LongitudeDegrees>
            </Position>
            <AltitudeMeters>385.20001220703125</AltitudeMeters>
            <DistanceMeters>NAN</DistanceMeters>
          </Trackpoint>
          <Trackpoint>
            <Time>2022-09-22T11:31:39.000Z</Time>
            <Position>
              <LatitudeDegrees>49.52189150266349315643310546875</LatitudeDegrees>
              <LongitudeDegrees>20.58387639932334423065185546875</LongitudeDegrees>
            </Position>
            <AltitudeMeters>385.20001220703125</AltitudeMeters>
            <DistanceMeters>NAN</DistanceMeters>
          </Trackpoint>
          <Trackpoint>
            <Time>2022-09-22T11:31:44.000Z</Time>
            <Position>
              <LatitudeDegrees>49.5218677818775177001953125</LatitudeDegrees>
              <LongitudeDegrees>20.5838793329894542694091796875</LongitudeDegrees>
            </Position>
            <AltitudeMeters>385.20001220703125</AltitudeMeters>
            <DistanceMeters>NAN</DistanceMeters>
          </Trackpoint>
          <Trackpoint>
            <Time>2022-09-22T11:32:05.000Z</Time>
            <Position>
              <LatitudeDegrees>49.52186568640172481536865234375</LatitudeDegrees>
              <LongitudeDegrees>20.5838793329894542694091796875</LongitudeDegrees>
            </Position>
            <AltitudeMeters>385.20001220703125</AltitudeMeters>
            <DistanceMeters>NAN</DistanceMeters>
          </Trackpoint>
          <Trackpoint>
            <Time>2022-09-22T11:32:13.000Z</Time>
            <Position>
              <LatitudeDegrees>49.52183366753160953521728515625</LatitudeDegrees>
              <LongitudeDegrees>20.58389182202517986297607421875</LongitudeDegrees>
            </Position>
            <AltitudeMeters>385.20001220703125</AltitudeMeters>
            <DistanceMeters>NAN</DistanceMeters>
          </Trackpoint>
          <Trackpoint>
            <Time>2022-09-22T11:32:15.000Z</Time>
            <Position>
              <LatitudeDegrees>49.52179326675832271575927734375</LatitudeDegrees>
              <LongitudeDegrees>20.5839017964899539947509765625</LongitudeDegrees>
            </Position>
            <AltitudeMeters>385.399993896484375</AltitudeMeters>
            <DistanceMeters>NAN</DistanceMeters>
          </Trackpoint>
          <Trackpoint>
            <Time>2022-09-22T11:32:20.000Z</Time>
            <Position>
              <LatitudeDegrees>49.5216620899736881256103515625</LatitudeDegrees>
              <LongitudeDegrees>20.58392249979078769683837890625</LongitudeDegrees>
            </Position>
            <AltitudeMeters>385.399993896484375</AltitudeMeters>
            <DistanceMeters>NAN</DistanceMeters>
          </Trackpoint>
          <Trackpoint>
            <Time>2022-09-22T11:32:24.000Z</Time>
            <Position>
              <LatitudeDegrees>49.521587826311588287353515625</LatitudeDegrees>
              <LongitudeDegrees>20.583918727934360504150390625</LongitudeDegrees>
            </Position>
            <AltitudeMeters>385.79998779296875</AltitudeMeters>
            <DistanceMeters>NAN</DistanceMeters>
          </Trackpoint>
          <Trackpoint>
            <Time>2022-09-22T11:32:28.000Z</Time>
            <Position>
              <LatitudeDegrees>49.52150828205049037933349609375</LatitudeDegrees>
              <LongitudeDegrees>20.58392434380948543548583984375</LongitudeDegrees>
            </Position>
            <AltitudeMeters>386</AltitudeMeters>
            <DistanceMeters>NAN</DistanceMeters>
          </Trackpoint>
          <Trackpoint>
            <Time>2022-09-22T11:32:31.000Z</Time>
            <Position>
              <LatitudeDegrees>49.5214434899389743804931640625</LatitudeDegrees>
              <LongitudeDegrees>20.58393222279846668243408203125</LongitudeDegrees>
            </Position>
            <AltitudeMeters>386.20001220703125</AltitudeMeters>
            <DistanceMeters>NAN</DistanceMeters>
          </Trackpoint>
          <Trackpoint>
            <Time>2022-09-22T11:32:35.000Z</Time>
            <Position>
              <LatitudeDegrees>49.52137467451393604278564453125</LatitudeDegrees>
              <LongitudeDegrees>20.58394630439579486846923828125</LongitudeDegrees>
            </Position>
            <AltitudeMeters>386.600006103515625</AltitudeMeters>
            <DistanceMeters>NAN</DistanceMeters>
          </Trackpoint>
          <Trackpoint>
            <Time>2022-09-22T11:32:41.000Z</Time>
            <Position>
              <LatitudeDegrees>49.52126017771661281585693359375</LatitudeDegrees>
              <LongitudeDegrees>20.5839733779430389404296875</LongitudeDegrees>
            </Position>
            <AltitudeMeters>386.79998779296875</AltitudeMeters>
            <DistanceMeters>NAN</DistanceMeters>
          </Trackpoint>
          <Trackpoint>
            <Time>2022-09-22T11:32:48.000Z</Time>
            <Position>
              <LatitudeDegrees>49.52113679610192775726318359375</LatitudeDegrees>
              <LongitudeDegrees>20.58401084505021572113037109375</LongitudeDegrees>
            </Position>
            <AltitudeMeters>387.600006103515625</AltitudeMeters>
            <DistanceMeters>NAN</DistanceMeters>
          </Trackpoint>
          <Trackpoint>
            <Time>2022-09-22T11:32:50.000Z</Time>
            <Position>
              <LatitudeDegrees>49.5210988260805606842041015625</LatitudeDegrees>
              <LongitudeDegrees>20.5840281955897808074951171875</LongitudeDegrees>
            </Position>
            <AltitudeMeters>387.79998779296875</AltitudeMeters>
            <DistanceMeters>NAN</DistanceMeters>
          </Trackpoint>
          <Trackpoint>
            <Time>2022-09-22T11:32:53.000Z</Time>
            <Position>
              <LatitudeDegrees>49.5210458524525165557861328125</LatitudeDegrees>
              <LongitudeDegrees>20.58405275456607341766357421875</LongitudeDegrees>
            </Position>
            <AltitudeMeters>388.20001220703125</AltitudeMeters>
            <DistanceMeters>NAN</DistanceMeters>
          </Trackpoint>
          <Trackpoint>
            <Time>2022-09-22T11:32:57.000Z</Time>
            <Position>
              <LatitudeDegrees>49.52098055742681026458740234375</LatitudeDegrees>
              <LongitudeDegrees>20.5840885452926158905029296875</LongitudeDegrees>
            </Position>
            <AltitudeMeters>388.600006103515625</AltitudeMeters>
            <DistanceMeters>NAN</DistanceMeters>
          </Trackpoint>
          <Trackpoint>
            <Time>2022-09-22T11:32:59.000Z</Time>
            <Position>
              <LatitudeDegrees>49.520950801670551300048828125</LatitudeDegrees>
              <LongitudeDegrees>20.58409617282450199127197265625</LongitudeDegrees>
            </Position>
            <AltitudeMeters>388.79998779296875</AltitudeMeters>
            <DistanceMeters>NAN</DistanceMeters>
          </Trackpoint>
          <Trackpoint>
            <Time>2022-09-22T11:33:00.000Z</Time>
            <Position>
              <LatitudeDegrees>49.520934708416461944580078125</LatitudeDegrees>
              <LongitudeDegrees>20.58410405181348323822021484375</LongitudeDegrees>
            </Position>
            <AltitudeMeters>388.79998779296875</AltitudeMeters>
            <DistanceMeters>NAN</DistanceMeters>
          </Trackpoint>
          <Trackpoint>
            <Time>2022-09-22T11:33:03.000Z</Time>
            <Position>
              <LatitudeDegrees>49.5208979956805706024169921875</LatitudeDegrees>
              <LongitudeDegrees>20.5841348133981227874755859375</LongitudeDegrees>
            </Position>
            <AltitudeMeters>389.20001220703125</AltitudeMeters>
            <DistanceMeters>NAN</DistanceMeters>
          </Trackpoint>
          <Trackpoint>
            <Time>2022-09-22T11:33:07.000Z</Time>
            <Position>
              <LatitudeDegrees>49.5208604447543621063232421875</LatitudeDegrees>
              <LongitudeDegrees>20.584162808954715728759765625</LongitudeDegrees>
            </Position>
            <AltitudeMeters>389.600006103515625</AltitudeMeters>
            <DistanceMeters>NAN</DistanceMeters>
          </Trackpoint>
          <Trackpoint>
            <Time>2022-09-22T11:33:09.000Z</Time>
            <Position>
              <LatitudeDegrees>49.52083043754100799560546875</LatitudeDegrees>
              <LongitudeDegrees>20.5841646529734134674072265625</LongitudeDegrees>
            </Position>
            <AltitudeMeters>389.79998779296875</AltitudeMeters>
            <DistanceMeters>NAN</DistanceMeters>
          </Trackpoint>
          <Trackpoint>
            <Time>2022-09-22T11:33:15.000Z</Time>
            <Position>
              <LatitudeDegrees>49.52074368484318256378173828125</LatitudeDegrees>
              <LongitudeDegrees>20.58422156609594821929931640625</LongitudeDegrees>
            </Position>
            <AltitudeMeters>390.20001220703125</AltitudeMeters>
            <DistanceMeters>NAN</DistanceMeters>
          </Trackpoint>
          <Trackpoint>
            <Time>2022-09-22T11:33:18.000Z</Time>
            <Position>
              <LatitudeDegrees>49.5207119174301624298095703125</LatitudeDegrees>
              <LongitudeDegrees>20.5842390842735767364501953125</LongitudeDegrees>
            </Position>
            <AltitudeMeters>390.600006103515625</AltitudeMeters>
            <DistanceMeters>NAN</DistanceMeters>
          </Trackpoint>
          <Trackpoint>
            <Time>2022-09-22T11:33:21.000Z</Time>
            <Position>
              <LatitudeDegrees>49.5206817425787448883056640625</LatitudeDegrees>
              <LongitudeDegrees>20.58424838818609714508056640625</LongitudeDegrees>
            </Position>
            <AltitudeMeters>390.79998779296875</AltitudeMeters>
            <DistanceMeters>NAN</DistanceMeters>
          </Trackpoint>
          <Trackpoint>
            <Time>2022-09-22T11:33:22.000Z</Time>
            <Position>
              <LatitudeDegrees>49.5206688344478607177734375</LatitudeDegrees>
              <LongitudeDegrees>20.5842474661767482757568359375</LongitudeDegrees>
            </Position>
            <AltitudeMeters>391</AltitudeMeters>
            <DistanceMeters>NAN</DistanceMeters>
          </Trackpoint>
          <Trackpoint>
            <Time>2022-09-22T11:33:29.000Z</Time>
            <Position>
              <LatitudeDegrees>49.5205811597406864166259765625</LatitudeDegrees>
              <LongitudeDegrees>20.584288537502288818359375</LongitudeDegrees>
            </Position>
            <AltitudeMeters>391.600006103515625</AltitudeMeters>
            <DistanceMeters>NAN</DistanceMeters>
          </Trackpoint>
          <Trackpoint>
            <Time>2022-09-22T11:33:30.000Z</Time>
            <Position>
              <LatitudeDegrees>49.520569927990436553955078125</LatitudeDegrees>
              <LongitudeDegrees>20.584291554987430572509765625</LongitudeDegrees>
            </Position>
            <AltitudeMeters>391.79998779296875</AltitudeMeters>
            <DistanceMeters>NAN</DistanceMeters>
          </Trackpoint>
          <Trackpoint>
            <Time>2022-09-22T11:33:37.000Z</Time>
            <Position>
              <LatitudeDegrees>49.52048652805387973785400390625</LatitudeDegrees>
              <LongitudeDegrees>20.58433639816939830780029296875</LongitudeDegrees>
            </Position>
            <AltitudeMeters>392.600006103515625</AltitudeMeters>
            <DistanceMeters>NAN</DistanceMeters>
          </Trackpoint>
          <Trackpoint>
            <Time>2022-09-22T11:33:39.000Z</Time>
            <Position>
              <LatitudeDegrees>49.5204688422381877899169921875</LatitudeDegrees>
              <LongitudeDegrees>20.584352575242519378662109375</LongitudeDegrees>
            </Position>
            <AltitudeMeters>392.79998779296875</AltitudeMeters>
            <DistanceMeters>NAN</DistanceMeters>
          </Trackpoint>
          <Trackpoint>
            <Time>2022-09-22T11:33:43.000Z</Time>
            <Position>
              <LatitudeDegrees>49.52041997574269771575927734375</LatitudeDegrees>
              <LongitudeDegrees>20.58439423330128192901611328125</LongitudeDegrees>
            </Position>
            <AltitudeMeters>393.20001220703125</AltitudeMeters>
            <DistanceMeters>NAN</DistanceMeters>
          </Trackpoint>
          <Trackpoint>
            <Time>2022-09-22T11:33:44.000Z</Time>
            <Position>
              <LatitudeDegrees>49.52040807344019412994384765625</LatitudeDegrees>
              <LongitudeDegrees>20.58439926244318485260009765625</LongitudeDegrees>
            </Position>
            <AltitudeMeters>393.399993896484375</AltitudeMeters>
            <DistanceMeters>NAN</DistanceMeters>
          </Trackpoint>
          <Trackpoint>
            <Time>2022-09-22T11:33:45.000Z</Time>
            <Position>
              <LatitudeDegrees>49.52039415948092937469482421875</LatitudeDegrees>
              <LongitudeDegrees>20.584395825862884521484375</LongitudeDegrees>
            </Position>
            <AltitudeMeters>393.399993896484375</AltitudeMeters>
            <DistanceMeters>NAN</DistanceMeters>
          </Trackpoint>
          <Trackpoint>
            <Time>2022-09-22T11:33:49.000Z</Time>
            <Position>
              <LatitudeDegrees>49.52034587971866130828857421875</LatitudeDegrees>
              <LongitudeDegrees>20.58442105539143085479736328125</LongitudeDegrees>
            </Position>
            <AltitudeMeters>393.79998779296875</AltitudeMeters>
            <DistanceMeters>NAN</DistanceMeters>
          </Trackpoint>
          <Trackpoint>
            <Time>2022-09-22T11:33:50.000Z</Time>
            <Position>
              <LatitudeDegrees>49.52033179812133312225341796875</LatitudeDegrees>
              <LongitudeDegrees>20.58442792855203151702880859375</LongitudeDegrees>
            </Position>
            <AltitudeMeters>394</AltitudeMeters>
            <DistanceMeters>NAN</DistanceMeters>
          </Trackpoint>
          <Trackpoint>
            <Time>2022-09-22T11:33:56.000Z</Time>
            <Position>
              <LatitudeDegrees>49.5202435366809368133544921875</LatitudeDegrees>
              <LongitudeDegrees>20.584465563297271728515625</LongitudeDegrees>
            </Position>
            <AltitudeMeters>394.79998779296875</AltitudeMeters>
            <DistanceMeters>NAN</DistanceMeters>
          </Trackpoint>
          <Trackpoint>
            <Time>2022-09-22T11:33:59.000Z</Time>
            <Position>
              <LatitudeDegrees>49.520196430385112762451171875</LatitudeDegrees>
              <LongitudeDegrees>20.58447838760912418365478515625</LongitudeDegrees>
            </Position>
            <AltitudeMeters>395.20001220703125</AltitudeMeters>
            <DistanceMeters>NAN</DistanceMeters>
          </Trackpoint>
          <Trackpoint>
            <Time>2022-09-22T11:34:03.000Z</Time>
            <Position>
              <LatitudeDegrees>49.5201516710221767425537109375</LatitudeDegrees>
              <LongitudeDegrees>20.58449263684451580047607421875</LongitudeDegrees>
            </Position>
            <AltitudeMeters>395.600006103515625</AltitudeMeters>
            <DistanceMeters>NAN</DistanceMeters>
          </Trackpoint>
          <Trackpoint>
            <Time>2022-09-22T11:34:05.000Z</Time>
            <Position>
              <LatitudeDegrees>49.52013281174004077911376953125</LatitudeDegrees>
              <LongitudeDegrees>20.584496073424816131591796875</LongitudeDegrees>
            </Position>
            <AltitudeMeters>395.79998779296875</AltitudeMeters>
            <DistanceMeters>NAN</DistanceMeters>
          </Trackpoint>
          <Trackpoint>
            <Time>2022-09-22T11:34:06.000Z</Time>
            <Position>
              <LatitudeDegrees>49.52012828551232814788818359375</LatitudeDegrees>
              <LongitudeDegrees>20.58449305593967437744140625</LongitudeDegrees>
            </Position>
            <AltitudeMeters>396</AltitudeMeters>
            <DistanceMeters>NAN</DistanceMeters>
          </Trackpoint>
          <Trackpoint>
            <Time>2022-09-22T11:34:11.000Z</Time>
            <Position>
              <LatitudeDegrees>49.52012828551232814788818359375</LatitudeDegrees>
              <LongitudeDegrees>20.58449305593967437744140625</LongitudeDegrees>
            </Position>
            <AltitudeMeters>396.20001220703125</AltitudeMeters>
            <DistanceMeters>NAN</DistanceMeters>
          </Trackpoint>
          <Trackpoint>
            <Time>2022-09-22T11:34:21.000Z</Time>
            <Position>
              <LatitudeDegrees>49.52012828551232814788818359375</LatitudeDegrees>
              <LongitudeDegrees>20.58449305593967437744140625</LongitudeDegrees>
            </Position>
            <AltitudeMeters>396.399993896484375</AltitudeMeters>
            <DistanceMeters>NAN</DistanceMeters>
          </Trackpoint>
          <Trackpoint>
            <Time>2022-09-22T11:34:26.000Z</Time>
            <Position>
              <LatitudeDegrees>49.5201228372752666473388671875</LatitudeDegrees>
              <LongitudeDegrees>20.58449431322515010833740234375</LongitudeDegrees>
            </Position>
            <AltitudeMeters>396.600006103515625</AltitudeMeters>
            <DistanceMeters>NAN</DistanceMeters>
          </Trackpoint>
          <Trackpoint>
            <Time>2022-09-22T11:34:30.000Z</Time>
            <Position>
              <LatitudeDegrees>49.5200572907924652099609375</LatitudeDegrees>
              <LongitudeDegrees>20.5845062993466854095458984375</LongitudeDegrees>
            </Position>
            <AltitudeMeters>397</AltitudeMeters>
            <DistanceMeters>NAN</DistanceMeters>
          </Trackpoint>
          <Trackpoint>
            <Time>2022-09-22T11:34:34.000Z</Time>
            <Position>
              <LatitudeDegrees>49.520002305507659912109375</LatitudeDegrees>
              <LongitudeDegrees>20.58452331461012363433837890625</LongitudeDegrees>
            </Position>
            <AltitudeMeters>397.20001220703125</AltitudeMeters>
            <DistanceMeters>NAN</DistanceMeters>
          </Trackpoint>
          <Trackpoint>
            <Time>2022-09-22T11:34:42.000Z</Time>
            <Position>
              <LatitudeDegrees>49.51996902935206890106201171875</LatitudeDegrees>
              <LongitudeDegrees>20.58451979421079158782958984375</LongitudeDegrees>
            </Position>
            <AltitudeMeters>398</AltitudeMeters>
            <DistanceMeters>NAN</DistanceMeters>
          </Trackpoint>
          <Trackpoint>
            <Time>2022-09-22T11:34:43.000Z</Time>
            <Position>
              <LatitudeDegrees>49.51996148563921451568603515625</LatitudeDegrees>
              <LongitudeDegrees>20.58451543562114238739013671875</LongitudeDegrees>
            </Position>
            <AltitudeMeters>398</AltitudeMeters>
            <DistanceMeters>NAN</DistanceMeters>
          </Trackpoint>
          <Trackpoint>
            <Time>2022-09-22T11:34:48.000Z</Time>
            <Position>
              <LatitudeDegrees>49.51995762996375560760498046875</LatitudeDegrees>
              <LongitudeDegrees>20.5845150165259838104248046875</LongitudeDegrees>
            </Position>
            <AltitudeMeters>398</AltitudeMeters>
            <DistanceMeters>NAN</DistanceMeters>
          </Trackpoint>
          <Trackpoint>
            <Time>2022-09-22T11:34:50.000Z</Time>
            <Position>
              <LatitudeDegrees>49.51995762996375560760498046875</LatitudeDegrees>
              <LongitudeDegrees>20.5845150165259838104248046875</LongitudeDegrees>
            </Position>
            <AltitudeMeters>398</AltitudeMeters>
            <DistanceMeters>NAN</DistanceMeters>
          </Trackpoint>
          <Trackpoint>
            <Time>2022-09-22T11:34:56.000Z</Time>
            <Position>
              <LatitudeDegrees>49.51995762996375560760498046875</LatitudeDegrees>
              <LongitudeDegrees>20.5845150165259838104248046875</LongitudeDegrees>
            </Position>
            <AltitudeMeters>398</AltitudeMeters>
            <DistanceMeters>NAN</DistanceMeters>
          </Trackpoint>
          <Trackpoint>
            <Time>2022-09-22T11:35:00.000Z</Time>
            <Position>
              <LatitudeDegrees>49.51995762996375560760498046875</LatitudeDegrees>
              <LongitudeDegrees>20.5845150165259838104248046875</LongitudeDegrees>
            </Position>
            <AltitudeMeters>398</AltitudeMeters>
            <DistanceMeters>NAN</DistanceMeters>
          </Trackpoint>
          <Trackpoint>
            <Time>2022-09-22T11:35:24.000Z</Time>
            <Position>
              <LatitudeDegrees>49.5199526846408843994140625</LatitudeDegrees>
              <LongitudeDegrees>20.584516189992427825927734375</LongitudeDegrees>
            </Position>
            <AltitudeMeters>398.600006103515625</AltitudeMeters>
            <DistanceMeters>NAN</DistanceMeters>
          </Trackpoint>
          <Trackpoint>
            <Time>2022-09-22T11:35:29.000Z</Time>
            <Position>
              <LatitudeDegrees>49.51985235325992107391357421875</LatitudeDegrees>
              <LongitudeDegrees>20.5845317803323268890380859375</LongitudeDegrees>
            </Position>
            <AltitudeMeters>399</AltitudeMeters>
            <DistanceMeters>NAN</DistanceMeters>
          </Trackpoint>
          <Trackpoint>
            <Time>2022-09-22T11:35:30.000Z</Time>
            <Position>
              <LatitudeDegrees>49.51983106322586536407470703125</LatitudeDegrees>
              <LongitudeDegrees>20.58453370817005634307861328125</LongitudeDegrees>
            </Position>
            <AltitudeMeters>399</AltitudeMeters>
            <DistanceMeters>NAN</DistanceMeters>
          </Trackpoint>
          <Trackpoint>
            <Time>2022-09-22T11:35:35.000Z</Time>
            <Position>
              <LatitudeDegrees>49.51979669742286205291748046875</LatitudeDegrees>
              <LongitudeDegrees>20.5845404975116252899169921875</LongitudeDegrees>
            </Position>
            <AltitudeMeters>399.399993896484375</AltitudeMeters>
            <DistanceMeters>NAN</DistanceMeters>
          </Trackpoint>
          <Trackpoint>
            <Time>2022-09-22T11:35:37.000Z</Time>
            <Position>
              <LatitudeDegrees>49.51979669742286205291748046875</LatitudeDegrees>
              <LongitudeDegrees>20.5845404975116252899169921875</LongitudeDegrees>
            </Position>
            <AltitudeMeters>399.399993896484375</AltitudeMeters>
            <DistanceMeters>NAN</DistanceMeters>
          </Trackpoint>
          <Trackpoint>
            <Time>2022-09-22T11:35:45.000Z</Time>
            <Position>
              <LatitudeDegrees>49.519780687987804412841796875</LatitudeDegrees>
              <LongitudeDegrees>20.58453421108424663543701171875</LongitudeDegrees>
            </Position>
            <AltitudeMeters>399.600006103515625</AltitudeMeters>
            <DistanceMeters>NAN</DistanceMeters>
          </Trackpoint>
          <Trackpoint>
            <Time>2022-09-22T11:35:49.000Z</Time>
            <Position>
              <LatitudeDegrees>49.519780687987804412841796875</LatitudeDegrees>
              <LongitudeDegrees>20.58453421108424663543701171875</LongitudeDegrees>
            </Position>
            <AltitudeMeters>399.600006103515625</AltitudeMeters>
            <DistanceMeters>NAN</DistanceMeters>
          </Trackpoint>
          <Trackpoint>
            <Time>2022-09-22T11:35:50.000Z</Time>
            <Position>
              <LatitudeDegrees>49.519780687987804412841796875</LatitudeDegrees>
              <LongitudeDegrees>20.58453421108424663543701171875</LongitudeDegrees>
            </Position>
            <AltitudeMeters>399.600006103515625</AltitudeMeters>
            <DistanceMeters>NAN</DistanceMeters>
          </Trackpoint>
          <Trackpoint>
            <Time>2022-09-22T11:35:54.000Z</Time>
            <Position>
              <LatitudeDegrees>49.519780687987804412841796875</LatitudeDegrees>
              <LongitudeDegrees>20.58453421108424663543701171875</LongitudeDegrees>
            </Position>
            <AltitudeMeters>399.600006103515625</AltitudeMeters>
            <DistanceMeters>NAN</DistanceMeters>
          </Trackpoint>
          <Trackpoint>
            <Time>2022-09-22T11:36:02.000Z</Time>
            <Position>
              <LatitudeDegrees>49.519780687987804412841796875</LatitudeDegrees>
              <LongitudeDegrees>20.58453421108424663543701171875</LongitudeDegrees>
            </Position>
            <AltitudeMeters>399.79998779296875</AltitudeMeters>
            <DistanceMeters>NAN</DistanceMeters>
          </Trackpoint>
          <Trackpoint>
            <Time>2022-09-22T11:36:18.000Z</Time>
            <Position>
              <LatitudeDegrees>49.519780687987804412841796875</LatitudeDegrees>
              <LongitudeDegrees>20.58453421108424663543701171875</LongitudeDegrees>
            </Position>
            <AltitudeMeters>399.79998779296875</AltitudeMeters>
            <DistanceMeters>NAN</DistanceMeters>
          </Trackpoint>
          <Trackpoint>
            <Time>2022-09-22T11:36:23.000Z</Time>
            <Position>
              <LatitudeDegrees>49.519780687987804412841796875</LatitudeDegrees>
              <LongitudeDegrees>20.58453421108424663543701171875</LongitudeDegrees>
            </Position>
            <AltitudeMeters>399.79998779296875</AltitudeMeters>
            <DistanceMeters>NAN</DistanceMeters>
          </Trackpoint>
          <Trackpoint>
            <Time>2022-09-22T11:36:57.000Z</Time>
            <Position>
              <LatitudeDegrees>49.519775994122028350830078125</LatitudeDegrees>
              <LongitudeDegrees>20.58453655801713466644287109375</LongitudeDegrees>
            </Position>
            <AltitudeMeters>399.600006103515625</AltitudeMeters>
            <DistanceMeters>NAN</DistanceMeters>
          </Trackpoint>
          <Trackpoint>
            <Time>2022-09-22T11:37:51.000Z</Time>
            <Position>
              <LatitudeDegrees>49.519775994122028350830078125</LatitudeDegrees>
              <LongitudeDegrees>20.58453655801713466644287109375</LongitudeDegrees>
            </Position>
            <AltitudeMeters>399.600006103515625</AltitudeMeters>
            <DistanceMeters>NAN</DistanceMeters>
          </Trackpoint>
          <Trackpoint>
            <Time>2022-09-22T11:38:38.000Z</Time>
            <Position>
              <LatitudeDegrees>49.5197751559317111968994140625</LatitudeDegrees>
              <LongitudeDegrees>20.58452750556170940399169921875</LongitudeDegrees>
            </Position>
            <AltitudeMeters>399.600006103515625</AltitudeMeters>
            <DistanceMeters>NAN</DistanceMeters>
          </Trackpoint>
          <Trackpoint>
            <Time>2022-09-22T11:38:42.000Z</Time>
            <Position>
              <LatitudeDegrees>49.5197751559317111968994140625</LatitudeDegrees>
              <LongitudeDegrees>20.5845274217426776885986328125</LongitudeDegrees>
            </Position>
            <AltitudeMeters>399.600006103515625</AltitudeMeters>
            <DistanceMeters>NAN</DistanceMeters>
          </Trackpoint>
          <Trackpoint>
            <Time>2022-09-22T11:38:51.000Z</Time>
            <Position>
              <LatitudeDegrees>49.5197751559317111968994140625</LatitudeDegrees>
              <LongitudeDegrees>20.5845274217426776885986328125</LongitudeDegrees>
            </Position>
            <AltitudeMeters>399.600006103515625</AltitudeMeters>
            <DistanceMeters>NAN</DistanceMeters>
          </Trackpoint>
          <Trackpoint>
            <Time>2022-09-22T11:38:59.000Z</Time>
            <Position>
              <LatitudeDegrees>49.519745819270610809326171875</LatitudeDegrees>
              <LongitudeDegrees>20.58454041369259357452392578125</LongitudeDegrees>
            </Position>
            <AltitudeMeters>399.600006103515625</AltitudeMeters>
            <DistanceMeters>NAN</DistanceMeters>
          </Trackpoint>
          <Trackpoint>
            <Time>2022-09-22T11:39:01.000Z</Time>
            <Position>
              <LatitudeDegrees>49.51972260139882564544677734375</LatitudeDegrees>
              <LongitudeDegrees>20.5845368094742298126220703125</LongitudeDegrees>
            </Position>
            <AltitudeMeters>399.600006103515625</AltitudeMeters>
            <DistanceMeters>NAN</DistanceMeters>
          </Trackpoint>
          <Trackpoint>
            <Time>2022-09-22T11:39:05.000Z</Time>
            <Position>
              <LatitudeDegrees>49.5196785964071750640869140625</LatitudeDegrees>
              <LongitudeDegrees>20.5845297686755657196044921875</LongitudeDegrees>
            </Position>
            <AltitudeMeters>400.20001220703125</AltitudeMeters>
            <DistanceMeters>NAN</DistanceMeters>
          </Trackpoint>
          <Trackpoint>
            <Time>2022-09-22T11:39:08.000Z</Time>
            <Position>
              <LatitudeDegrees>49.51964557170867919921875</LatitudeDegrees>
              <LongitudeDegrees>20.5845297686755657196044921875</LongitudeDegrees>
            </Position>
            <AltitudeMeters>400.399993896484375</AltitudeMeters>
            <DistanceMeters>NAN</DistanceMeters>
          </Trackpoint>
          <Trackpoint>
            <Time>2022-09-22T11:39:15.000Z</Time>
            <Position>
              <LatitudeDegrees>49.5195686258375644683837890625</LatitudeDegrees>
              <LongitudeDegrees>20.58453739620745182037353515625</LongitudeDegrees>
            </Position>
            <AltitudeMeters>401.20001220703125</AltitudeMeters>
            <DistanceMeters>NAN</DistanceMeters>
          </Trackpoint>
          <Trackpoint>
            <Time>2022-09-22T11:39:17.000Z</Time>
            <Position>
              <LatitudeDegrees>49.51954834163188934326171875</LatitudeDegrees>
              <LongitudeDegrees>20.584543682634830474853515625</LongitudeDegrees>
            </Position>
            <AltitudeMeters>401.399993896484375</AltitudeMeters>
            <DistanceMeters>NAN</DistanceMeters>
          </Trackpoint>
          <Trackpoint>
            <Time>2022-09-22T11:39:25.000Z</Time>
            <Position>
              <LatitudeDegrees>49.5195022411644458770751953125</LatitudeDegrees>
              <LongitudeDegrees>20.58454242534935474395751953125</LongitudeDegrees>
            </Position>
            <AltitudeMeters>402.20001220703125</AltitudeMeters>
            <DistanceMeters>NAN</DistanceMeters>
          </Trackpoint>
          <Trackpoint>
            <Time>2022-09-22T11:39:33.000Z</Time>
            <Position>
              <LatitudeDegrees>49.51945689506828784942626953125</LatitudeDegrees>
              <LongitudeDegrees>20.584538988769054412841796875</LongitudeDegrees>
            </Position>
            <AltitudeMeters>403</AltitudeMeters>
            <DistanceMeters>NAN</DistanceMeters>
          </Trackpoint>
          <Trackpoint>
            <Time>2022-09-22T11:39:36.000Z</Time>
            <Position>
              <LatitudeDegrees>49.519435353577136993408203125</LatitudeDegrees>
              <LongitudeDegrees>20.584536977112293243408203125</LongitudeDegrees>
            </Position>
            <AltitudeMeters>403.20001220703125</AltitudeMeters>
            <DistanceMeters>NAN</DistanceMeters>
          </Trackpoint>
          <Trackpoint>
            <Time>2022-09-22T11:39:42.000Z</Time>
            <Position>
              <LatitudeDegrees>49.5193926058709621429443359375</LatitudeDegrees>
              <LongitudeDegrees>20.5845344625413417816162109375</LongitudeDegrees>
            </Position>
            <AltitudeMeters>403.79998779296875</AltitudeMeters>
            <DistanceMeters>NAN</DistanceMeters>
          </Trackpoint>
          <Trackpoint>
            <Time>2022-09-22T11:39:46.000Z</Time>
            <Position>
              <LatitudeDegrees>49.5193895883858203887939453125</LatitudeDegrees>
              <LongitudeDegrees>20.58453337289392948150634765625</LongitudeDegrees>
            </Position>
            <AltitudeMeters>404</AltitudeMeters>
            <DistanceMeters>NAN</DistanceMeters>
          </Trackpoint>
          <Trackpoint>
            <Time>2022-09-22T11:39:53.000Z</Time>
            <Position>
              <LatitudeDegrees>49.5193704776465892791748046875</LatitudeDegrees>
              <LongitudeDegrees>20.58453102596104145050048828125</LongitudeDegrees>
            </Position>
            <AltitudeMeters>404.399993896484375</AltitudeMeters>
            <DistanceMeters>NAN</DistanceMeters>
          </Trackpoint>
          <Trackpoint>
            <Time>2022-09-22T11:40:02.000Z</Time>
            <Position>
              <LatitudeDegrees>49.51935513876378536224365234375</LatitudeDegrees>
              <LongitudeDegrees>20.584529936313629150390625</LongitudeDegrees>
            </Position>
            <AltitudeMeters>405.20001220703125</AltitudeMeters>
            <DistanceMeters>NAN</DistanceMeters>
          </Trackpoint>
          <Trackpoint>
            <Time>2022-09-22T11:40:03.000Z</Time>
            <Position>
              <LatitudeDegrees>49.51935513876378536224365234375</LatitudeDegrees>
              <LongitudeDegrees>20.584529936313629150390625</LongitudeDegrees>
            </Position>
            <AltitudeMeters>405.20001220703125</AltitudeMeters>
            <DistanceMeters>NAN</DistanceMeters>
          </Trackpoint>
          <Trackpoint>
            <Time>2022-09-22T11:40:04.000Z</Time>
            <Position>
              <LatitudeDegrees>49.51935513876378536224365234375</LatitudeDegrees>
              <LongitudeDegrees>20.584529936313629150390625</LongitudeDegrees>
            </Position>
            <AltitudeMeters>405.399993896484375</AltitudeMeters>
            <DistanceMeters>NAN</DistanceMeters>
          </Trackpoint>
          <Trackpoint>
            <Time>2022-09-22T11:40:05.000Z</Time>
            <Position>
              <LatitudeDegrees>49.51935513876378536224365234375</LatitudeDegrees>
              <LongitudeDegrees>20.584529936313629150390625</LongitudeDegrees>
            </Position>
            <AltitudeMeters>405.600006103515625</AltitudeMeters>
            <DistanceMeters>NAN</DistanceMeters>
          </Trackpoint>
          <Trackpoint>
            <Time>2022-09-22T11:40:06.000Z</Time>
            <Position>
              <LatitudeDegrees>49.51935513876378536224365234375</LatitudeDegrees>
              <LongitudeDegrees>20.584529936313629150390625</LongitudeDegrees>
            </Position>
            <AltitudeMeters>405.600006103515625</AltitudeMeters>
            <DistanceMeters>NAN</DistanceMeters>
          </Trackpoint>
          <Trackpoint>
            <Time>2022-09-22T11:40:11.000Z</Time>
            <Position>
              <LatitudeDegrees>49.51935513876378536224365234375</LatitudeDegrees>
              <LongitudeDegrees>20.584529936313629150390625</LongitudeDegrees>
            </Position>
            <AltitudeMeters>405.79998779296875</AltitudeMeters>
            <DistanceMeters>NAN</DistanceMeters>
          </Trackpoint>
          <Trackpoint>
            <Time>2022-09-22T11:40:19.000Z</Time>
            <Position>
              <LatitudeDegrees>49.51935396529734134674072265625</LatitudeDegrees>
              <LongitudeDegrees>20.58453571982681751251220703125</LongitudeDegrees>
            </Position>
            <AltitudeMeters>406.399993896484375</AltitudeMeters>
            <DistanceMeters>NAN</DistanceMeters>
          </Trackpoint>
          <Trackpoint>
            <Time>2022-09-22T11:40:33.000Z</Time>
            <Position>
              <LatitudeDegrees>49.519326724112033843994140625</LatitudeDegrees>
              <LongitudeDegrees>20.58454292826354503631591796875</LongitudeDegrees>
            </Position>
            <AltitudeMeters>407.399993896484375</AltitudeMeters>
            <DistanceMeters>NAN</DistanceMeters>
          </Trackpoint>
          <Trackpoint>
            <Time>2022-09-22T11:40:35.000Z</Time>
            <Position>
              <LatitudeDegrees>49.519315995275974273681640625</LatitudeDegrees>
              <LongitudeDegrees>20.58454661630094051361083984375</LongitudeDegrees>
            </Position>
            <AltitudeMeters>407.600006103515625</AltitudeMeters>
            <DistanceMeters>NAN</DistanceMeters>
          </Trackpoint>
          <Trackpoint>
            <Time>2022-09-22T11:40:36.000Z</Time>
            <Position>
              <LatitudeDegrees>49.519315995275974273681640625</LatitudeDegrees>
              <LongitudeDegrees>20.58454661630094051361083984375</LongitudeDegrees>
            </Position>
            <AltitudeMeters>407.600006103515625</AltitudeMeters>
            <DistanceMeters>NAN</DistanceMeters>
          </Trackpoint>
          <Trackpoint>
            <Time>2022-09-22T11:40:46.000Z</Time>
            <Position>
              <LatitudeDegrees>49.51928389258682727813720703125</LatitudeDegrees>
              <LongitudeDegrees>20.58454913087189197540283203125</LongitudeDegrees>
            </Position>
            <AltitudeMeters>408.600006103515625</AltitudeMeters>
            <DistanceMeters>NAN</DistanceMeters>
          </Trackpoint>
          <Trackpoint>
            <Time>2022-09-22T11:40:53.000Z</Time>
            <Position>
              <LatitudeDegrees>49.51925874687731266021728515625</LatitudeDegrees>
              <LongitudeDegrees>20.584551729261875152587890625</LongitudeDegrees>
            </Position>
            <AltitudeMeters>409.20001220703125</AltitudeMeters>
            <DistanceMeters>NAN</DistanceMeters>
          </Trackpoint>
          <Trackpoint>
            <Time>2022-09-22T11:40:57.000Z</Time>
            <Position>
              <LatitudeDegrees>49.5191991515457630157470703125</LatitudeDegrees>
              <LongitudeDegrees>20.5845607817173004150390625</LongitudeDegrees>
            </Position>
            <AltitudeMeters>409.600006103515625</AltitudeMeters>
            <DistanceMeters>NAN</DistanceMeters>
          </Trackpoint>
          <Trackpoint>
            <Time>2022-09-22T11:41:01.000Z</Time>
            <Position>
              <LatitudeDegrees>49.5191384665668010711669921875</LatitudeDegrees>
              <LongitudeDegrees>20.58457360602915287017822265625</LongitudeDegrees>
            </Position>
            <AltitudeMeters>410</AltitudeMeters>
            <DistanceMeters>NAN</DistanceMeters>
          </Trackpoint>
          <Trackpoint>
            <Time>2022-09-22T11:41:09.000Z</Time>
            <Position>
              <LatitudeDegrees>49.519093036651611328125</LatitudeDegrees>
              <LongitudeDegrees>20.58458626270294189453125</LongitudeDegrees>
            </Position>
            <AltitudeMeters>410.600006103515625</AltitudeMeters>
            <DistanceMeters>NAN</DistanceMeters>
          </Trackpoint>
          <Trackpoint>
            <Time>2022-09-22T11:41:13.000Z</Time>
            <Position>
              <LatitudeDegrees>49.519093036651611328125</LatitudeDegrees>
              <LongitudeDegrees>20.58458626270294189453125</LongitudeDegrees>
            </Position>
            <AltitudeMeters>410.79998779296875</AltitudeMeters>
            <DistanceMeters>NAN</DistanceMeters>
          </Trackpoint>
          <Trackpoint>
            <Time>2022-09-22T11:41:25.000Z</Time>
            <Position>
              <LatitudeDegrees>49.519093036651611328125</LatitudeDegrees>
              <LongitudeDegrees>20.58458626270294189453125</LongitudeDegrees>
            </Position>
            <AltitudeMeters>411.79998779296875</AltitudeMeters>
            <DistanceMeters>NAN</DistanceMeters>
          </Trackpoint>
          <Trackpoint>
            <Time>2022-09-22T11:41:29.000Z</Time>
            <Position>
              <LatitudeDegrees>49.5190838165581226348876953125</LatitudeDegrees>
              <LongitudeDegrees>20.58458852581679821014404296875</LongitudeDegrees>
            </Position>
            <AltitudeMeters>412</AltitudeMeters>
            <DistanceMeters>NAN</DistanceMeters>
          </Trackpoint>
          <Trackpoint>
            <Time>2022-09-22T11:41:35.000Z</Time>
            <Position>
              <LatitudeDegrees>49.51905741356313228607177734375</LatitudeDegrees>
              <LongitudeDegrees>20.58459623716771602630615234375</LongitudeDegrees>
            </Position>
            <AltitudeMeters>412.600006103515625</AltitudeMeters>
            <DistanceMeters>NAN</DistanceMeters>
          </Trackpoint>
          <Trackpoint>
            <Time>2022-09-22T11:41:36.000Z</Time>
            <Position>
              <LatitudeDegrees>49.51905087567865848541259765625</LatitudeDegrees>
              <LongitudeDegrees>20.58459741063416004180908203125</LongitudeDegrees>
            </Position>
            <AltitudeMeters>412.79998779296875</AltitudeMeters>
            <DistanceMeters>NAN</DistanceMeters>
          </Trackpoint>
          <Trackpoint>
            <Time>2022-09-22T11:41:49.000Z</Time>
            <Position>
              <LatitudeDegrees>49.51896940357983112335205078125</LatitudeDegrees>
              <LongitudeDegrees>20.58462758548557758331298828125</LongitudeDegrees>
            </Position>
            <AltitudeMeters>413.79998779296875</AltitudeMeters>
            <DistanceMeters>NAN</DistanceMeters>
          </Trackpoint>
          <Trackpoint>
            <Time>2022-09-22T11:41:52.000Z</Time>
            <Position>
              <LatitudeDegrees>49.51896185986697673797607421875</LatitudeDegrees>
              <LongitudeDegrees>20.584634877741336822509765625</LongitudeDegrees>
            </Position>
            <AltitudeMeters>413.79998779296875</AltitudeMeters>
            <DistanceMeters>NAN</DistanceMeters>
          </Trackpoint>
          <Trackpoint>
            <Time>2022-09-22T11:41:56.000Z</Time>
            <Position>
              <LatitudeDegrees>49.51895616017282009124755859375</LatitudeDegrees>
              <LongitudeDegrees>20.58464284054934978485107421875</LongitudeDegrees>
            </Position>
            <AltitudeMeters>414</AltitudeMeters>
            <DistanceMeters>NAN</DistanceMeters>
          </Trackpoint>
          <Trackpoint>
            <Time>2022-09-22T11:42:06.000Z</Time>
            <Position>
              <LatitudeDegrees>49.51892917044460773468017578125</LatitudeDegrees>
              <LongitudeDegrees>20.5846575088798999786376953125</LongitudeDegrees>
            </Position>
            <AltitudeMeters>414.79998779296875</AltitudeMeters>
            <DistanceMeters>NAN</DistanceMeters>
          </Trackpoint>
          <Trackpoint>
            <Time>2022-09-22T11:42:19.000Z</Time>
            <Position>
              <LatitudeDegrees>49.51890033669769763946533203125</LatitudeDegrees>
              <LongitudeDegrees>20.5846846662461757659912109375</LongitudeDegrees>
            </Position>
            <AltitudeMeters>415.79998779296875</AltitudeMeters>
            <DistanceMeters>NAN</DistanceMeters>
          </Trackpoint>
          <Trackpoint>
            <Time>2022-09-22T11:42:29.000Z</Time>
            <Position>
              <LatitudeDegrees>49.518883489072322845458984375</LatitudeDegrees>
              <LongitudeDegrees>20.584692545235157012939453125</LongitudeDegrees>
            </Position>
            <AltitudeMeters>417</AltitudeMeters>
            <DistanceMeters>NAN</DistanceMeters>
          </Trackpoint>
          <Trackpoint>
            <Time>2022-09-22T11:42:37.000Z</Time>
            <Position>
              <LatitudeDegrees>49.51875566504895687103271484375</LatitudeDegrees>
              <LongitudeDegrees>20.58476261794567108154296875</LongitudeDegrees>
            </Position>
            <AltitudeMeters>417.79998779296875</AltitudeMeters>
            <DistanceMeters>NAN</DistanceMeters>
          </Trackpoint>
          <Trackpoint>
            <Time>2022-09-22T11:42:39.000Z</Time>
            <Position>
              <LatitudeDegrees>49.5187314413487911224365234375</LatitudeDegrees>
              <LongitudeDegrees>20.58477309532463550567626953125</LongitudeDegrees>
            </Position>
            <AltitudeMeters>418</AltitudeMeters>
            <DistanceMeters>NAN</DistanceMeters>
          </Trackpoint>
          <Trackpoint>
            <Time>2022-09-22T11:42:49.000Z</Time>
            <Position>
              <LatitudeDegrees>49.5186553336679935455322265625</LatitudeDegrees>
              <LongitudeDegrees>20.58481969870626926422119140625</LongitudeDegrees>
            </Position>
            <AltitudeMeters>418.79998779296875</AltitudeMeters>
            <DistanceMeters>NAN</DistanceMeters>
          </Trackpoint>
          <Trackpoint>
            <Time>2022-09-22T11:42:50.000Z</Time>
            <Position>
              <LatitudeDegrees>49.5186553336679935455322265625</LatitudeDegrees>
              <LongitudeDegrees>20.58481969870626926422119140625</LongitudeDegrees>
            </Position>
            <AltitudeMeters>419</AltitudeMeters>
            <DistanceMeters>NAN</DistanceMeters>
          </Trackpoint>
          <Trackpoint>
            <Time>2022-09-22T11:42:51.000Z</Time>
            <Position>
              <LatitudeDegrees>49.5186553336679935455322265625</LatitudeDegrees>
              <LongitudeDegrees>20.58481969870626926422119140625</LongitudeDegrees>
            </Position>
            <AltitudeMeters>419.20001220703125</AltitudeMeters>
            <DistanceMeters>NAN</DistanceMeters>
          </Trackpoint>
          <Trackpoint>
            <Time>2022-09-22T11:42:57.000Z</Time>
            <Position>
              <LatitudeDegrees>49.51864921487867832183837890625</LatitudeDegrees>
              <LongitudeDegrees>20.5848388932645320892333984375</LongitudeDegrees>
            </Position>
            <AltitudeMeters>419.399993896484375</AltitudeMeters>
            <DistanceMeters>NAN</DistanceMeters>
          </Trackpoint>
          <Trackpoint>
            <Time>2022-09-22T11:43:05.000Z</Time>
            <Position>
              <LatitudeDegrees>49.51864787377417087554931640625</LatitudeDegrees>
              <LongitudeDegrees>20.58484249748289585113525390625</LongitudeDegrees>
            </Position>
            <AltitudeMeters>420</AltitudeMeters>
            <DistanceMeters>NAN</DistanceMeters>
          </Trackpoint>
          <Trackpoint>
            <Time>2022-09-22T11:43:09.000Z</Time>
            <Position>
              <LatitudeDegrees>49.51864787377417087554931640625</LatitudeDegrees>
              <LongitudeDegrees>20.58484249748289585113525390625</LongitudeDegrees>
            </Position>
            <AltitudeMeters>420.20001220703125</AltitudeMeters>
            <DistanceMeters>NAN</DistanceMeters>
          </Trackpoint>
          <Trackpoint>
            <Time>2022-09-22T11:43:21.000Z</Time>
            <Position>
              <LatitudeDegrees>49.5186057128012180328369140625</LatitudeDegrees>
              <LongitudeDegrees>20.58487870730459690093994140625</LongitudeDegrees>
            </Position>
            <AltitudeMeters>421</AltitudeMeters>
            <DistanceMeters>NAN</DistanceMeters>
          </Trackpoint>
          <Trackpoint>
            <Time>2022-09-22T11:43:22.000Z</Time>
            <Position>
              <LatitudeDegrees>49.5186057128012180328369140625</LatitudeDegrees>
              <LongitudeDegrees>20.58487870730459690093994140625</LongitudeDegrees>
            </Position>
            <AltitudeMeters>421.20001220703125</AltitudeMeters>
            <DistanceMeters>NAN</DistanceMeters>
          </Trackpoint>
          <Trackpoint>
            <Time>2022-09-22T11:43:24.000Z</Time>
            <Position>
              <LatitudeDegrees>49.5186057128012180328369140625</LatitudeDegrees>
              <LongitudeDegrees>20.58487870730459690093994140625</LongitudeDegrees>
            </Position>
            <AltitudeMeters>421.399993896484375</AltitudeMeters>
            <DistanceMeters>NAN</DistanceMeters>
          </Trackpoint>
          <Trackpoint>
            <Time>2022-09-22T11:43:31.000Z</Time>
            <Position>
              <LatitudeDegrees>49.5186057128012180328369140625</LatitudeDegrees>
              <LongitudeDegrees>20.5848871730268001556396484375</LongitudeDegrees>
            </Position>
            <AltitudeMeters>421.600006103515625</AltitudeMeters>
            <DistanceMeters>NAN</DistanceMeters>
          </Trackpoint>
          <Trackpoint>
            <Time>2022-09-22T11:43:35.000Z</Time>
            <Position>
              <LatitudeDegrees>49.518578052520751953125</LatitudeDegrees>
              <LongitudeDegrees>20.58490804396569728851318359375</LongitudeDegrees>
            </Position>
            <AltitudeMeters>421.600006103515625</AltitudeMeters>
            <DistanceMeters>NAN</DistanceMeters>
          </Trackpoint>
          <Trackpoint>
            <Time>2022-09-22T11:43:39.000Z</Time>
            <Position>
              <LatitudeDegrees>49.51856321655213832855224609375</LatitudeDegrees>
              <LongitudeDegrees>20.584921874105930328369140625</LongitudeDegrees>
            </Position>
            <AltitudeMeters>421.399993896484375</AltitudeMeters>
            <DistanceMeters>NAN</DistanceMeters>
          </Trackpoint>
          <Trackpoint>
            <Time>2022-09-22T11:43:52.000Z</Time>
            <Position>
              <LatitudeDegrees>49.51856321655213832855224609375</LatitudeDegrees>
              <LongitudeDegrees>20.584921874105930328369140625</LongitudeDegrees>
            </Position>
            <AltitudeMeters>422.20001220703125</AltitudeMeters>
            <DistanceMeters>NAN</DistanceMeters>
          </Trackpoint>
          <Trackpoint>
            <Time>2022-09-22T11:43:57.000Z</Time>
            <Position>
              <LatitudeDegrees>49.518547542393207550048828125</LatitudeDegrees>
              <LongitudeDegrees>20.584937632083892822265625</LongitudeDegrees>
            </Position>
            <AltitudeMeters>422.600006103515625</AltitudeMeters>
            <DistanceMeters>NAN</DistanceMeters>
          </Trackpoint>
          <Trackpoint>
            <Time>2022-09-22T11:43:59.000Z</Time>
            <Position>
              <LatitudeDegrees>49.518520720303058624267578125</LatitudeDegrees>
              <LongitudeDegrees>20.5849622748792171478271484375</LongitudeDegrees>
            </Position>
            <AltitudeMeters>422.79998779296875</AltitudeMeters>
            <DistanceMeters>NAN</DistanceMeters>
          </Trackpoint>
          <Trackpoint>
            <Time>2022-09-22T11:44:04.000Z</Time>
            <Position>
              <LatitudeDegrees>49.51844871975481510162353515625</LatitudeDegrees>
              <LongitudeDegrees>20.5850226245820522308349609375</LongitudeDegrees>
            </Position>
            <AltitudeMeters>423.399993896484375</AltitudeMeters>
            <DistanceMeters>NAN</DistanceMeters>
          </Trackpoint>
          <Trackpoint>
            <Time>2022-09-22T11:44:10.000Z</Time>
            <Position>
              <LatitudeDegrees>49.51839021407067775726318359375</LatitudeDegrees>
              <LongitudeDegrees>20.585052631795406341552734375</LongitudeDegrees>
            </Position>
            <AltitudeMeters>423.600006103515625</AltitudeMeters>
            <DistanceMeters>NAN</DistanceMeters>
          </Trackpoint>
          <Trackpoint>
            <Time>2022-09-22T11:44:23.000Z</Time>
            <Position>
              <LatitudeDegrees>49.51839021407067775726318359375</LatitudeDegrees>
              <LongitudeDegrees>20.585052631795406341552734375</LongitudeDegrees>
            </Position>
            <AltitudeMeters>423.600006103515625</AltitudeMeters>
            <DistanceMeters>NAN</DistanceMeters>
          </Trackpoint>
          <Trackpoint>
            <Time>2022-09-22T11:44:25.000Z</Time>
            <Position>
              <LatitudeDegrees>49.51839021407067775726318359375</LatitudeDegrees>
              <LongitudeDegrees>20.585052631795406341552734375</LongitudeDegrees>
            </Position>
            <AltitudeMeters>423.600006103515625</AltitudeMeters>
            <DistanceMeters>NAN</DistanceMeters>
          </Trackpoint>
          <Trackpoint>
            <Time>2022-09-22T11:44:27.000Z</Time>
            <Position>
              <LatitudeDegrees>49.51839021407067775726318359375</LatitudeDegrees>
              <LongitudeDegrees>20.585052631795406341552734375</LongitudeDegrees>
            </Position>
            <AltitudeMeters>423.600006103515625</AltitudeMeters>
            <DistanceMeters>NAN</DistanceMeters>
          </Trackpoint>
          <Trackpoint>
            <Time>2022-09-22T11:44:31.000Z</Time>
            <Position>
              <LatitudeDegrees>49.51839021407067775726318359375</LatitudeDegrees>
              <LongitudeDegrees>20.585052631795406341552734375</LongitudeDegrees>
            </Position>
            <AltitudeMeters>423.600006103515625</AltitudeMeters>
            <DistanceMeters>NAN</DistanceMeters>
          </Trackpoint>
          <Trackpoint>
            <Time>2022-09-22T11:44:41.000Z</Time>
            <Position>
              <LatitudeDegrees>49.518354423344135284423828125</LatitudeDegrees>
              <LongitudeDegrees>20.58508657850325107574462890625</LongitudeDegrees>
            </Position>
            <AltitudeMeters>424</AltitudeMeters>
            <DistanceMeters>NAN</DistanceMeters>
          </Trackpoint>
          <Trackpoint>
            <Time>2022-09-22T11:44:42.000Z</Time>
            <Position>
              <LatitudeDegrees>49.51834059320390224456787109375</LatitudeDegrees>
              <LongitudeDegrees>20.58509915135800838470458984375</LongitudeDegrees>
            </Position>
            <AltitudeMeters>424</AltitudeMeters>
            <DistanceMeters>NAN</DistanceMeters>
          </Trackpoint>
          <Trackpoint>
            <Time>2022-09-22T11:44:48.000Z</Time>
            <Position>
              <LatitudeDegrees>49.518255181610584259033203125</LatitudeDegrees>
              <LongitudeDegrees>20.585187412798404693603515625</LongitudeDegrees>
            </Position>
            <AltitudeMeters>424.600006103515625</AltitudeMeters>
            <DistanceMeters>NAN</DistanceMeters>
          </Trackpoint>
          <Trackpoint>
            <Time>2022-09-22T11:44:53.000Z</Time>
            <Position>
              <LatitudeDegrees>49.51821662485599517822265625</LatitudeDegrees>
              <LongitudeDegrees>20.5852147378027439117431640625</LongitudeDegrees>
            </Position>
            <AltitudeMeters>424.79998779296875</AltitudeMeters>
            <DistanceMeters>NAN</DistanceMeters>
          </Trackpoint>
          <Trackpoint>
            <Time>2022-09-22T11:44:56.000Z</Time>
            <Position>
              <LatitudeDegrees>49.51818854548037052154541015625</LatitudeDegrees>
              <LongitudeDegrees>20.5852516181766986846923828125</LongitudeDegrees>
            </Position>
            <AltitudeMeters>425.20001220703125</AltitudeMeters>
            <DistanceMeters>NAN</DistanceMeters>
          </Trackpoint>
          <Trackpoint>
            <Time>2022-09-22T11:45:03.000Z</Time>
            <Position>
              <LatitudeDegrees>49.51814278028905391693115234375</LatitudeDegrees>
              <LongitudeDegrees>20.58533124625682830810546875</LongitudeDegrees>
            </Position>
            <AltitudeMeters>425.600006103515625</AltitudeMeters>
            <DistanceMeters>NAN</DistanceMeters>
          </Trackpoint>
          <Trackpoint>
            <Time>2022-09-22T11:45:08.000Z</Time>
            <Position>
              <LatitudeDegrees>49.51809936203062534332275390625</LatitudeDegrees>
              <LongitudeDegrees>20.58536083437502384185791015625</LongitudeDegrees>
            </Position>
            <AltitudeMeters>426.20001220703125</AltitudeMeters>
            <DistanceMeters>NAN</DistanceMeters>
          </Trackpoint>
          <Trackpoint>
            <Time>2022-09-22T11:45:15.000Z</Time>
            <Position>
              <LatitudeDegrees>49.51804068870842456817626953125</LatitudeDegrees>
              <LongitudeDegrees>20.5854132212698459625244140625</LongitudeDegrees>
            </Position>
            <AltitudeMeters>426.600006103515625</AltitudeMeters>
            <DistanceMeters>NAN</DistanceMeters>
          </Trackpoint>
          <Trackpoint>
            <Time>2022-09-22T11:45:17.000Z</Time>
            <Position>
              <LatitudeDegrees>49.5180246792733669281005859375</LatitudeDegrees>
              <LongitudeDegrees>20.58542110025882720947265625</LongitudeDegrees>
            </Position>
            <AltitudeMeters>426.79998779296875</AltitudeMeters>
            <DistanceMeters>NAN</DistanceMeters>
          </Trackpoint>
          <Trackpoint>
            <Time>2022-09-22T11:45:25.000Z</Time>
            <Position>
              <LatitudeDegrees>49.517965503036975860595703125</LatitudeDegrees>
              <LongitudeDegrees>20.58548538945615291595458984375</LongitudeDegrees>
            </Position>
            <AltitudeMeters>427.600006103515625</AltitudeMeters>
            <DistanceMeters>NAN</DistanceMeters>
          </Trackpoint>
          <Trackpoint>
            <Time>2022-09-22T11:45:29.000Z</Time>
            <Position>
              <LatitudeDegrees>49.51793490909039974212646484375</LatitudeDegrees>
              <LongitudeDegrees>20.58552159927785396575927734375</LongitudeDegrees>
            </Position>
            <AltitudeMeters>428</AltitudeMeters>
            <DistanceMeters>NAN</DistanceMeters>
          </Trackpoint>
          <Trackpoint>
            <Time>2022-09-22T11:45:37.000Z</Time>
            <Position>
              <LatitudeDegrees>49.51790858991444110870361328125</LatitudeDegrees>
              <LongitudeDegrees>20.5855369381606578826904296875</LongitudeDegrees>
            </Position>
            <AltitudeMeters>428.399993896484375</AltitudeMeters>
            <DistanceMeters>NAN</DistanceMeters>
          </Trackpoint>
          <Trackpoint>
            <Time>2022-09-22T11:45:41.000Z</Time>
            <Position>
              <LatitudeDegrees>49.51788042671978473663330078125</LatitudeDegrees>
              <LongitudeDegrees>20.5855661071836948394775390625</LongitudeDegrees>
            </Position>
            <AltitudeMeters>428.79998779296875</AltitudeMeters>
            <DistanceMeters>NAN</DistanceMeters>
          </Trackpoint>
          <Trackpoint>
            <Time>2022-09-22T11:45:46.000Z</Time>
            <Position>
              <LatitudeDegrees>49.51784756965935230255126953125</LatitudeDegrees>
              <LongitudeDegrees>20.5856175720691680908203125</LongitudeDegrees>
            </Position>
            <AltitudeMeters>429.20001220703125</AltitudeMeters>
            <DistanceMeters>NAN</DistanceMeters>
          </Trackpoint>
          <Trackpoint>
            <Time>2022-09-22T11:45:50.000Z</Time>
            <Position>
              <LatitudeDegrees>49.51782443560659885406494140625</LatitudeDegrees>
              <LongitudeDegrees>20.58564095757901668548583984375</LongitudeDegrees>
            </Position>
            <AltitudeMeters>429.600006103515625</AltitudeMeters>
            <DistanceMeters>NAN</DistanceMeters>
          </Trackpoint>
          <Trackpoint>
            <Time>2022-09-22T11:45:53.000Z</Time>
            <Position>
              <LatitudeDegrees>49.51780297793447971343994140625</LatitudeDegrees>
              <LongitudeDegrees>20.58565847575664520263671875</LongitudeDegrees>
            </Position>
            <AltitudeMeters>429.79998779296875</AltitudeMeters>
            <DistanceMeters>NAN</DistanceMeters>
          </Trackpoint>
          <Trackpoint>
            <Time>2022-09-22T11:45:55.000Z</Time>
            <Position>
              <LatitudeDegrees>49.5177893154323101043701171875</LatitudeDegrees>
              <LongitudeDegrees>20.58567188680171966552734375</LongitudeDegrees>
            </Position>
            <AltitudeMeters>430.20001220703125</AltitudeMeters>
            <DistanceMeters>NAN</DistanceMeters>
          </Trackpoint>
          <Trackpoint>
            <Time>2022-09-22T11:46:03.000Z</Time>
            <Position>
              <LatitudeDegrees>49.51775620691478252410888671875</LatitudeDegrees>
              <LongitudeDegrees>20.58569761924445629119873046875</LongitudeDegrees>
            </Position>
            <AltitudeMeters>430.79998779296875</AltitudeMeters>
            <DistanceMeters>NAN</DistanceMeters>
          </Trackpoint>
          <Trackpoint>
            <Time>2022-09-22T11:46:04.000Z</Time>
            <Position>
              <LatitudeDegrees>49.51775620691478252410888671875</LatitudeDegrees>
              <LongitudeDegrees>20.58569761924445629119873046875</LongitudeDegrees>
            </Position>
            <AltitudeMeters>431</AltitudeMeters>
            <DistanceMeters>NAN</DistanceMeters>
          </Trackpoint>
          <Trackpoint>
            <Time>2022-09-22T11:46:10.000Z</Time>
            <Position>
              <LatitudeDegrees>49.51775620691478252410888671875</LatitudeDegrees>
              <LongitudeDegrees>20.58569761924445629119873046875</LongitudeDegrees>
            </Position>
            <AltitudeMeters>431</AltitudeMeters>
            <DistanceMeters>NAN</DistanceMeters>
          </Trackpoint>
          <Trackpoint>
            <Time>2022-09-22T11:46:20.000Z</Time>
            <Position>
              <LatitudeDegrees>49.51772720552980899810791015625</LatitudeDegrees>
              <LongitudeDegrees>20.58571480214595794677734375</LongitudeDegrees>
            </Position>
            <AltitudeMeters>431.600006103515625</AltitudeMeters>
            <DistanceMeters>NAN</DistanceMeters>
          </Trackpoint>
          <Trackpoint>
            <Time>2022-09-22T11:46:23.000Z</Time>
            <Position>
              <LatitudeDegrees>49.5176917500793933868408203125</LatitudeDegrees>
              <LongitudeDegrees>20.585739947855472564697265625</LongitudeDegrees>
            </Position>
            <AltitudeMeters>432</AltitudeMeters>
            <DistanceMeters>NAN</DistanceMeters>
          </Trackpoint>
          <Trackpoint>
            <Time>2022-09-22T11:46:29.000Z</Time>
            <Position>
              <LatitudeDegrees>49.5176567137241363525390625</LatitudeDegrees>
              <LongitudeDegrees>20.585771463811397552490234375</LongitudeDegrees>
            </Position>
            <AltitudeMeters>432.600006103515625</AltitudeMeters>
            <DistanceMeters>NAN</DistanceMeters>
          </Trackpoint>
          <Trackpoint>
            <Time>2022-09-22T11:46:37.000Z</Time>
            <Position>
              <LatitudeDegrees>49.51761606149375438690185546875</LatitudeDegrees>
              <LongitudeDegrees>20.58582720346748828887939453125</LongitudeDegrees>
            </Position>
            <AltitudeMeters>433</AltitudeMeters>
            <DistanceMeters>NAN</DistanceMeters>
          </Trackpoint>
          <Trackpoint>
            <Time>2022-09-22T11:46:46.000Z</Time>
            <Position>
              <LatitudeDegrees>49.51758186332881450653076171875</LatitudeDegrees>
              <LongitudeDegrees>20.58586257509887218475341796875</LongitudeDegrees>
            </Position>
            <AltitudeMeters>433.79998779296875</AltitudeMeters>
            <DistanceMeters>NAN</DistanceMeters>
          </Trackpoint>
          <Trackpoint>
            <Time>2022-09-22T11:46:55.000Z</Time>
            <Position>
              <LatitudeDegrees>49.51753961853682994842529296875</LatitudeDegrees>
              <LongitudeDegrees>20.5859101004898548126220703125</LongitudeDegrees>
            </Position>
            <AltitudeMeters>433.79998779296875</AltitudeMeters>
            <DistanceMeters>NAN</DistanceMeters>
          </Trackpoint>
          <Trackpoint>
            <Time>2022-09-22T11:46:59.000Z</Time>
            <Position>
              <LatitudeDegrees>49.5175167359411716461181640625</LatitudeDegrees>
              <LongitudeDegrees>20.58593315072357654571533203125</LongitudeDegrees>
            </Position>
            <AltitudeMeters>434.20001220703125</AltitudeMeters>
            <DistanceMeters>NAN</DistanceMeters>
          </Trackpoint>
          <Trackpoint>
            <Time>2022-09-22T11:47:06.000Z</Time>
            <Position>
              <LatitudeDegrees>49.51745278201997280120849609375</LatitudeDegrees>
              <LongitudeDegrees>20.58600984513759613037109375</LongitudeDegrees>
            </Position>
            <AltitudeMeters>435</AltitudeMeters>
            <DistanceMeters>NAN</DistanceMeters>
          </Trackpoint>
          <Trackpoint>
            <Time>2022-09-22T11:47:10.000Z</Time>
            <Position>
              <LatitudeDegrees>49.517414979636669158935546875</LatitudeDegrees>
              <LongitudeDegrees>20.58603088371455669403076171875</LongitudeDegrees>
            </Position>
            <AltitudeMeters>435.399993896484375</AltitudeMeters>
            <DistanceMeters>NAN</DistanceMeters>
          </Trackpoint>
          <Trackpoint>
            <Time>2022-09-22T11:47:14.000Z</Time>
            <Position>
              <LatitudeDegrees>49.51739058829843997955322265625</LatitudeDegrees>
              <LongitudeDegrees>20.5860519222915172576904296875</LongitudeDegrees>
            </Position>
            <AltitudeMeters>435.79998779296875</AltitudeMeters>
            <DistanceMeters>NAN</DistanceMeters>
          </Trackpoint>
          <Trackpoint>
            <Time>2022-09-22T11:47:19.000Z</Time>
            <Position>
              <LatitudeDegrees>49.51739058829843997955322265625</LatitudeDegrees>
              <LongitudeDegrees>20.5860519222915172576904296875</LongitudeDegrees>
            </Position>
            <AltitudeMeters>436.20001220703125</AltitudeMeters>
            <DistanceMeters>NAN</DistanceMeters>
          </Trackpoint>
          <Trackpoint>
            <Time>2022-09-22T11:47:21.000Z</Time>
            <Position>
              <LatitudeDegrees>49.51737617142498493194580078125</LatitudeDegrees>
              <LongitudeDegrees>20.5860676802694797515869140625</LongitudeDegrees>
            </Position>
            <AltitudeMeters>436.399993896484375</AltitudeMeters>
            <DistanceMeters>NAN</DistanceMeters>
          </Trackpoint>
          <Trackpoint>
            <Time>2022-09-22T11:47:24.000Z</Time>
            <Position>
              <LatitudeDegrees>49.51735027134418487548828125</LatitudeDegrees>
              <LongitudeDegrees>20.58609567582607269287109375</LongitudeDegrees>
            </Position>
            <AltitudeMeters>436.399993896484375</AltitudeMeters>
            <DistanceMeters>NAN</DistanceMeters>
          </Trackpoint>
          <Trackpoint>
            <Time>2022-09-22T11:47:27.000Z</Time>
            <Position>
              <LatitudeDegrees>49.51733744703233242034912109375</LatitudeDegrees>
              <LongitudeDegrees>20.5861263535916805267333984375</LongitudeDegrees>
            </Position>
            <AltitudeMeters>437</AltitudeMeters>
            <DistanceMeters>NAN</DistanceMeters>
          </Trackpoint>
          <Trackpoint>
            <Time>2022-09-22T11:47:34.000Z</Time>
            <Position>
              <LatitudeDegrees>49.51730794273316860198974609375</LatitudeDegrees>
              <LongitudeDegrees>20.5861652456223964691162109375</LongitudeDegrees>
            </Position>
            <AltitudeMeters>437.399993896484375</AltitudeMeters>
            <DistanceMeters>NAN</DistanceMeters>
          </Trackpoint>
          <Trackpoint>
            <Time>2022-09-22T11:47:35.000Z</Time>
            <Position>
              <LatitudeDegrees>49.517302997410297393798828125</LatitudeDegrees>
              <LongitudeDegrees>20.5861727893352508544921875</LongitudeDegrees>
            </Position>
            <AltitudeMeters>437.399993896484375</AltitudeMeters>
            <DistanceMeters>NAN</DistanceMeters>
          </Trackpoint>
          <Trackpoint>
            <Time>2022-09-22T11:47:38.000Z</Time>
            <Position>
              <LatitudeDegrees>49.517277181148529052734375</LatitudeDegrees>
              <LongitudeDegrees>20.58618879877030849456787109375</LongitudeDegrees>
            </Position>
            <AltitudeMeters>438</AltitudeMeters>
            <DistanceMeters>NAN</DistanceMeters>
          </Trackpoint>
          <Trackpoint>
            <Time>2022-09-22T11:47:45.000Z</Time>
            <Position>
              <LatitudeDegrees>49.51722110621631145477294921875</LatitudeDegrees>
              <LongitudeDegrees>20.58622869662940502166748046875</LongitudeDegrees>
            </Position>
            <AltitudeMeters>438.600006103515625</AltitudeMeters>
            <DistanceMeters>NAN</DistanceMeters>
          </Trackpoint>
          <Trackpoint>
            <Time>2022-09-22T11:47:46.000Z</Time>
            <Position>
              <LatitudeDegrees>49.51721020974218845367431640625</LatitudeDegrees>
              <LongitudeDegrees>20.58622199110686779022216796875</LongitudeDegrees>
            </Position>
            <AltitudeMeters>438.79998779296875</AltitudeMeters>
            <DistanceMeters>NAN</DistanceMeters>
          </Trackpoint>
          <Trackpoint>
            <Time>2022-09-22T11:47:54.000Z</Time>
            <Position>
              <LatitudeDegrees>49.51716117560863494873046875</LatitudeDegrees>
              <LongitudeDegrees>20.5862854421138763427734375</LongitudeDegrees>
            </Position>
            <AltitudeMeters>439.399993896484375</AltitudeMeters>
            <DistanceMeters>NAN</DistanceMeters>
          </Trackpoint>
          <Trackpoint>
            <Time>2022-09-22T11:47:59.000Z</Time>
            <Position>
              <LatitudeDegrees>49.517154805362224578857421875</LatitudeDegrees>
              <LongitudeDegrees>20.5862926505506038665771484375</LongitudeDegrees>
            </Position>
            <AltitudeMeters>439.600006103515625</AltitudeMeters>
            <DistanceMeters>NAN</DistanceMeters>
          </Trackpoint>
          <Trackpoint>
            <Time>2022-09-22T11:48:01.000Z</Time>
            <Position>
              <LatitudeDegrees>49.5171455852687358856201171875</LatitudeDegrees>
              <LongitudeDegrees>20.58630664832890033721923828125</LongitudeDegrees>
            </Position>
            <AltitudeMeters>439.79998779296875</AltitudeMeters>
            <DistanceMeters>NAN</DistanceMeters>
          </Trackpoint>
          <Trackpoint>
            <Time>2022-09-22T11:48:08.000Z</Time>
            <Position>
              <LatitudeDegrees>49.51708934269845485687255859375</LatitudeDegrees>
              <LongitudeDegrees>20.5863519944250583648681640625</LongitudeDegrees>
            </Position>
            <AltitudeMeters>440.399993896484375</AltitudeMeters>
            <DistanceMeters>NAN</DistanceMeters>
          </Trackpoint>
          <Trackpoint>
            <Time>2022-09-22T11:48:10.000Z</Time>
            <Position>
              <LatitudeDegrees>49.5170768536627292633056640625</LatitudeDegrees>
              <LongitudeDegrees>20.58637018315494060516357421875</LongitudeDegrees>
            </Position>
            <AltitudeMeters>440.600006103515625</AltitudeMeters>
            <DistanceMeters>NAN</DistanceMeters>
          </Trackpoint>
          <Trackpoint>
            <Time>2022-09-22T11:48:14.000Z</Time>
            <Position>
              <LatitudeDegrees>49.51705648563802242279052734375</LatitudeDegrees>
              <LongitudeDegrees>20.5863835103809833526611328125</LongitudeDegrees>
            </Position>
            <AltitudeMeters>440.79998779296875</AltitudeMeters>
            <DistanceMeters>NAN</DistanceMeters>
          </Trackpoint>
          <Trackpoint>
            <Time>2022-09-22T11:48:21.000Z</Time>
            <Position>
              <LatitudeDegrees>49.51703603379428386688232421875</LatitudeDegrees>
              <LongitudeDegrees>20.58639474213123321533203125</LongitudeDegrees>
            </Position>
            <AltitudeMeters>441.20001220703125</AltitudeMeters>
            <DistanceMeters>NAN</DistanceMeters>
          </Trackpoint>
          <Trackpoint>
            <Time>2022-09-22T11:48:29.000Z</Time>
            <Position>
              <LatitudeDegrees>49.5169983990490436553955078125</LatitudeDegrees>
              <LongitudeDegrees>20.5864274315536022186279296875</LongitudeDegrees>
            </Position>
            <AltitudeMeters>441.399993896484375</AltitudeMeters>
            <DistanceMeters>NAN</DistanceMeters>
          </Trackpoint>
          <Trackpoint>
            <Time>2022-09-22T11:48:32.000Z</Time>
            <Position>
              <LatitudeDegrees>49.51697668991982936859130859375</LatitudeDegrees>
              <LongitudeDegrees>20.58644327335059642791748046875</LongitudeDegrees>
            </Position>
            <AltitudeMeters>441.399993896484375</AltitudeMeters>
            <DistanceMeters>NAN</DistanceMeters>
          </Trackpoint>
          <Trackpoint>
            <Time>2022-09-22T11:48:34.000Z</Time>
            <Position>
              <LatitudeDegrees>49.51695640571415424346923828125</LatitudeDegrees>
              <LongitudeDegrees>20.586458109319210052490234375</LongitudeDegrees>
            </Position>
            <AltitudeMeters>441.600006103515625</AltitudeMeters>
            <DistanceMeters>NAN</DistanceMeters>
          </Trackpoint>
          <Trackpoint>
            <Time>2022-09-22T11:48:38.000Z</Time>
            <Position>
              <LatitudeDegrees>49.51693176291882991790771484375</LatitudeDegrees>
              <LongitudeDegrees>20.5864844284951686859130859375</LongitudeDegrees>
            </Position>
            <AltitudeMeters>441.79998779296875</AltitudeMeters>
            <DistanceMeters>NAN</DistanceMeters>
          </Trackpoint>
          <Trackpoint>
            <Time>2022-09-22T11:48:46.000Z</Time>
            <Position>
              <LatitudeDegrees>49.516857750713825225830078125</LatitudeDegrees>
              <LongitudeDegrees>20.58650563471019268035888671875</LongitudeDegrees>
            </Position>
            <AltitudeMeters>442.20001220703125</AltitudeMeters>
            <DistanceMeters>NAN</DistanceMeters>
          </Trackpoint>
          <Trackpoint>
            <Time>2022-09-22T11:48:54.000Z</Time>
            <Position>
              <LatitudeDegrees>49.5168284140527248382568359375</LatitudeDegrees>
              <LongitudeDegrees>20.5865203030407428741455078125</LongitudeDegrees>
            </Position>
            <AltitudeMeters>442.600006103515625</AltitudeMeters>
            <DistanceMeters>NAN</DistanceMeters>
          </Trackpoint>
          <Trackpoint>
            <Time>2022-09-22T11:48:55.000Z</Time>
            <Position>
              <LatitudeDegrees>49.5168284140527248382568359375</LatitudeDegrees>
              <LongitudeDegrees>20.5865203030407428741455078125</LongitudeDegrees>
            </Position>
            <AltitudeMeters>442.79998779296875</AltitudeMeters>
            <DistanceMeters>NAN</DistanceMeters>
          </Trackpoint>
          <Trackpoint>
            <Time>2022-09-22T11:49:01.000Z</Time>
            <Position>
              <LatitudeDegrees>49.51677904464304447174072265625</LatitudeDegrees>
              <LongitudeDegrees>20.58654989115893840789794921875</LongitudeDegrees>
            </Position>
            <AltitudeMeters>443.20001220703125</AltitudeMeters>
            <DistanceMeters>NAN</DistanceMeters>
          </Trackpoint>
          <Trackpoint>
            <Time>2022-09-22T11:49:08.000Z</Time>
            <Position>
              <LatitudeDegrees>49.5167730934917926788330078125</LatitudeDegrees>
              <LongitudeDegrees>20.586550645530223846435546875</LongitudeDegrees>
            </Position>
            <AltitudeMeters>443.79998779296875</AltitudeMeters>
            <DistanceMeters>NAN</DistanceMeters>
          </Trackpoint>
          <Trackpoint>
            <Time>2022-09-22T11:49:09.000Z</Time>
            <Position>
              <LatitudeDegrees>49.51675993390381336212158203125</LatitudeDegrees>
              <LongitudeDegrees>20.58655072934925556182861328125</LongitudeDegrees>
            </Position>
            <AltitudeMeters>443.79998779296875</AltitudeMeters>
            <DistanceMeters>NAN</DistanceMeters>
          </Trackpoint>
          <Trackpoint>
            <Time>2022-09-22T11:49:16.000Z</Time>
            <Position>
              <LatitudeDegrees>49.51671064831316471099853515625</LatitudeDegrees>
              <LongitudeDegrees>20.58656464330852031707763671875</LongitudeDegrees>
            </Position>
            <AltitudeMeters>444.600006103515625</AltitudeMeters>
            <DistanceMeters>NAN</DistanceMeters>
          </Trackpoint>
          <Trackpoint>
            <Time>2022-09-22T11:49:19.000Z</Time>
            <Position>
              <LatitudeDegrees>49.51671064831316471099853515625</LatitudeDegrees>
              <LongitudeDegrees>20.58656464330852031707763671875</LongitudeDegrees>
            </Position>
            <AltitudeMeters>444.79998779296875</AltitudeMeters>
            <DistanceMeters>NAN</DistanceMeters>
          </Trackpoint>
          <Trackpoint>
            <Time>2022-09-22T11:49:27.000Z</Time>
            <Position>
              <LatitudeDegrees>49.51663554646074771881103515625</LatitudeDegrees>
              <LongitudeDegrees>20.58659632690250873565673828125</LongitudeDegrees>
            </Position>
            <AltitudeMeters>445.79998779296875</AltitudeMeters>
            <DistanceMeters>NAN</DistanceMeters>
          </Trackpoint>
          <Trackpoint>
            <Time>2022-09-22T11:49:28.000Z</Time>
            <Position>
              <LatitudeDegrees>49.516617693006992340087890625</LatitudeDegrees>
              <LongitudeDegrees>20.58660118840634822845458984375</LongitudeDegrees>
            </Position>
            <AltitudeMeters>445.79998779296875</AltitudeMeters>
            <DistanceMeters>NAN</DistanceMeters>
          </Trackpoint>
          <Trackpoint>
            <Time>2022-09-22T11:49:35.000Z</Time>
            <Position>
              <LatitudeDegrees>49.51656295917928218841552734375</LatitudeDegrees>
              <LongitudeDegrees>20.58662147261202335357666015625</LongitudeDegrees>
            </Position>
            <AltitudeMeters>446.79998779296875</AltitudeMeters>
            <DistanceMeters>NAN</DistanceMeters>
          </Trackpoint>
          <Trackpoint>
            <Time>2022-09-22T11:49:38.000Z</Time>
            <Position>
              <LatitudeDegrees>49.5165541581809520721435546875</LatitudeDegrees>
              <LongitudeDegrees>20.586627423763275146484375</LongitudeDegrees>
            </Position>
            <AltitudeMeters>447</AltitudeMeters>
            <DistanceMeters>NAN</DistanceMeters>
          </Trackpoint>
          <Trackpoint>
            <Time>2022-09-22T11:49:44.000Z</Time>
            <Position>
              <LatitudeDegrees>49.5165541581809520721435546875</LatitudeDegrees>
              <LongitudeDegrees>20.586627423763275146484375</LongitudeDegrees>
            </Position>
            <AltitudeMeters>447.399993896484375</AltitudeMeters>
            <DistanceMeters>NAN</DistanceMeters>
          </Trackpoint>
          <Trackpoint>
            <Time>2022-09-22T11:49:46.000Z</Time>
            <Position>
              <LatitudeDegrees>49.5165541581809520721435546875</LatitudeDegrees>
              <LongitudeDegrees>20.586627423763275146484375</LongitudeDegrees>
            </Position>
            <AltitudeMeters>447.399993896484375</AltitudeMeters>
            <DistanceMeters>NAN</DistanceMeters>
          </Trackpoint>
          <Trackpoint>
            <Time>2022-09-22T11:49:51.000Z</Time>
            <Position>
              <LatitudeDegrees>49.5165541581809520721435546875</LatitudeDegrees>
              <LongitudeDegrees>20.586627423763275146484375</LongitudeDegrees>
            </Position>
            <AltitudeMeters>447.79998779296875</AltitudeMeters>
            <DistanceMeters>NAN</DistanceMeters>
          </Trackpoint>
          <Trackpoint>
            <Time>2022-09-22T11:49:55.000Z</Time>
            <Position>
              <LatitudeDegrees>49.5165541581809520721435546875</LatitudeDegrees>
              <LongitudeDegrees>20.586627423763275146484375</LongitudeDegrees>
            </Position>
            <AltitudeMeters>448</AltitudeMeters>
            <DistanceMeters>NAN</DistanceMeters>
          </Trackpoint>
          <Trackpoint>
            <Time>2022-09-22T11:50:00.000Z</Time>
            <Position>
              <LatitudeDegrees>49.5165541581809520721435546875</LatitudeDegrees>
              <LongitudeDegrees>20.58663052506744861602783203125</LongitudeDegrees>
            </Position>
            <AltitudeMeters>448.20001220703125</AltitudeMeters>
            <DistanceMeters>NAN</DistanceMeters>
          </Trackpoint>
          <Trackpoint>
            <Time>2022-09-22T11:50:03.000Z</Time>
            <Position>
              <LatitudeDegrees>49.51655206270515918731689453125</LatitudeDegrees>
              <LongitudeDegrees>20.586633123457431793212890625</LongitudeDegrees>
            </Position>
            <AltitudeMeters>448.399993896484375</AltitudeMeters>
            <DistanceMeters>NAN</DistanceMeters>
          </Trackpoint>
          <Trackpoint>
            <Time>2022-09-22T11:50:09.000Z</Time>
            <Position>
              <LatitudeDegrees>49.5165417529642581939697265625</LatitudeDegrees>
              <LongitudeDegrees>20.586635135114192962646484375</LongitudeDegrees>
            </Position>
            <AltitudeMeters>448.79998779296875</AltitudeMeters>
            <DistanceMeters>NAN</DistanceMeters>
          </Trackpoint>
          <Trackpoint>
            <Time>2022-09-22T11:50:13.000Z</Time>
            <Position>
              <LatitudeDegrees>49.5165417529642581939697265625</LatitudeDegrees>
              <LongitudeDegrees>20.586635135114192962646484375</LongitudeDegrees>
            </Position>
            <AltitudeMeters>449</AltitudeMeters>
            <DistanceMeters>NAN</DistanceMeters>
          </Trackpoint>
          <Trackpoint>
            <Time>2022-09-22T11:50:20.000Z</Time>
            <Position>
              <LatitudeDegrees>49.51651484705507755279541015625</LatitudeDegrees>
              <LongitudeDegrees>20.58665516786277294158935546875</LongitudeDegrees>
            </Position>
            <AltitudeMeters>449.399993896484375</AltitudeMeters>
            <DistanceMeters>NAN</DistanceMeters>
          </Trackpoint>
          <Trackpoint>
            <Time>2022-09-22T11:50:21.000Z</Time>
            <Position>
              <LatitudeDegrees>49.5165031962096691131591796875</LatitudeDegrees>
              <LongitudeDegrees>20.58665835298597812652587890625</LongitudeDegrees>
            </Position>
            <AltitudeMeters>449.600006103515625</AltitudeMeters>
            <DistanceMeters>NAN</DistanceMeters>
          </Trackpoint>
          <Trackpoint>
            <Time>2022-09-22T11:50:26.000Z</Time>
            <Position>
              <LatitudeDegrees>49.5164746977388858795166015625</LatitudeDegrees>
              <LongitudeDegrees>20.58667059056460857391357421875</LongitudeDegrees>
            </Position>
            <AltitudeMeters>450</AltitudeMeters>
            <DistanceMeters>NAN</DistanceMeters>
          </Trackpoint>
          <Trackpoint>
            <Time>2022-09-22T11:50:29.000Z</Time>
            <Position>
              <LatitudeDegrees>49.51643857173621654510498046875</LatitudeDegrees>
              <LongitudeDegrees>20.58669975958764553070068359375</LongitudeDegrees>
            </Position>
            <AltitudeMeters>450.20001220703125</AltitudeMeters>
            <DistanceMeters>NAN</DistanceMeters>
          </Trackpoint>
          <Trackpoint>
            <Time>2022-09-22T11:50:32.000Z</Time>
            <Position>
              <LatitudeDegrees>49.5164215564727783203125</LatitudeDegrees>
              <LongitudeDegrees>20.5867241509258747100830078125</LongitudeDegrees>
            </Position>
            <AltitudeMeters>450.399993896484375</AltitudeMeters>
            <DistanceMeters>NAN</DistanceMeters>
          </Trackpoint>
          <Trackpoint>
            <Time>2022-09-22T11:50:39.000Z</Time>
            <Position>
              <LatitudeDegrees>49.5164207182824611663818359375</LatitudeDegrees>
              <LongitudeDegrees>20.58672507293522357940673828125</LongitudeDegrees>
            </Position>
            <AltitudeMeters>451.20001220703125</AltitudeMeters>
            <DistanceMeters>NAN</DistanceMeters>
          </Trackpoint>
          <Trackpoint>
            <Time>2022-09-22T11:50:48.000Z</Time>
            <Position>
              <LatitudeDegrees>49.51641275547444820404052734375</LatitudeDegrees>
              <LongitudeDegrees>20.58673395775258541107177734375</LongitudeDegrees>
            </Position>
            <AltitudeMeters>452</AltitudeMeters>
            <DistanceMeters>NAN</DistanceMeters>
          </Trackpoint>
          <Trackpoint>
            <Time>2022-09-22T11:50:51.000Z</Time>
            <Position>
              <LatitudeDegrees>49.51641275547444820404052734375</LatitudeDegrees>
              <LongitudeDegrees>20.58673395775258541107177734375</LongitudeDegrees>
            </Position>
            <AltitudeMeters>452.20001220703125</AltitudeMeters>
            <DistanceMeters>NAN</DistanceMeters>
          </Trackpoint>
          <Trackpoint>
            <Time>2022-09-22T11:50:58.000Z</Time>
            <Position>
              <LatitudeDegrees>49.51640085317194461822509765625</LatitudeDegrees>
              <LongitudeDegrees>20.58675206266343593597412109375</LongitudeDegrees>
            </Position>
            <AltitudeMeters>452.79998779296875</AltitudeMeters>
            <DistanceMeters>NAN</DistanceMeters>
          </Trackpoint>
          <Trackpoint>
            <Time>2022-09-22T11:51:01.000Z</Time>
            <Position>
              <LatitudeDegrees>49.51639272272586822509765625</LatitudeDegrees>
              <LongitudeDegrees>20.58676480315625667572021484375</LongitudeDegrees>
            </Position>
            <AltitudeMeters>453.20001220703125</AltitudeMeters>
            <DistanceMeters>NAN</DistanceMeters>
          </Trackpoint>
          <Trackpoint>
            <Time>2022-09-22T11:51:08.000Z</Time>
            <Position>
              <LatitudeDegrees>49.5163798145949840545654296875</LatitudeDegrees>
              <LongitudeDegrees>20.58678567409515380859375</LongitudeDegrees>
            </Position>
            <AltitudeMeters>453.399993896484375</AltitudeMeters>
            <DistanceMeters>NAN</DistanceMeters>
          </Trackpoint>
          <Trackpoint>
            <Time>2022-09-22T11:51:16.000Z</Time>
            <Position>
              <LatitudeDegrees>49.5163576863706111907958984375</LatitudeDegrees>
              <LongitudeDegrees>20.5868109874427318572998046875</LongitudeDegrees>
            </Position>
            <AltitudeMeters>454.399993896484375</AltitudeMeters>
            <DistanceMeters>NAN</DistanceMeters>
          </Trackpoint>
          <Trackpoint>
            <Time>2022-09-22T11:51:23.000Z</Time>
            <Position>
              <LatitudeDegrees>49.5163419283926486968994140625</LatitudeDegrees>
              <LongitudeDegrees>20.58683588169515132904052734375</LongitudeDegrees>
            </Position>
            <AltitudeMeters>455</AltitudeMeters>
            <DistanceMeters>NAN</DistanceMeters>
          </Trackpoint>
          <Trackpoint>
            <Time>2022-09-22T11:51:24.000Z</Time>
            <Position>
              <LatitudeDegrees>49.5163362286984920501708984375</LatitudeDegrees>
              <LongitudeDegrees>20.58684526942670345306396484375</LongitudeDegrees>
            </Position>
            <AltitudeMeters>455.20001220703125</AltitudeMeters>
            <DistanceMeters>NAN</DistanceMeters>
          </Trackpoint>
          <Trackpoint>
            <Time>2022-09-22T11:51:27.000Z</Time>
            <Position>
              <LatitudeDegrees>49.51630018651485443115234375</LatitudeDegrees>
              <LongitudeDegrees>20.586885921657085418701171875</LongitudeDegrees>
            </Position>
            <AltitudeMeters>455.399993896484375</AltitudeMeters>
            <DistanceMeters>NAN</DistanceMeters>
          </Trackpoint>
          <Trackpoint>
            <Time>2022-09-22T11:51:30.000Z</Time>
            <Position>
              <LatitudeDegrees>49.51628317125141620635986328125</LatitudeDegrees>
              <LongitudeDegrees>20.58691400103271007537841796875</LongitudeDegrees>
            </Position>
            <AltitudeMeters>455.600006103515625</AltitudeMeters>
            <DistanceMeters>NAN</DistanceMeters>
          </Trackpoint>
          <Trackpoint>
            <Time>2022-09-22T11:51:35.000Z</Time>
            <Position>
              <LatitudeDegrees>49.51627395115792751312255859375</LatitudeDegrees>
              <LongitudeDegrees>20.58694317005574703216552734375</LongitudeDegrees>
            </Position>
            <AltitudeMeters>455.79998779296875</AltitudeMeters>
            <DistanceMeters>NAN</DistanceMeters>
          </Trackpoint>
          <Trackpoint>
            <Time>2022-09-22T11:51:42.000Z</Time>
            <Position>
              <LatitudeDegrees>49.51627395115792751312255859375</LatitudeDegrees>
              <LongitudeDegrees>20.58694317005574703216552734375</LongitudeDegrees>
            </Position>
            <AltitudeMeters>456.399993896484375</AltitudeMeters>
            <DistanceMeters>NAN</DistanceMeters>
          </Trackpoint>
          <Trackpoint>
            <Time>2022-09-22T11:51:43.000Z</Time>
            <Position>
              <LatitudeDegrees>49.51627395115792751312255859375</LatitudeDegrees>
              <LongitudeDegrees>20.58694317005574703216552734375</LongitudeDegrees>
            </Position>
            <AltitudeMeters>456.600006103515625</AltitudeMeters>
            <DistanceMeters>NAN</DistanceMeters>
          </Trackpoint>
          <Trackpoint>
            <Time>2022-09-22T11:51:45.000Z</Time>
            <Position>
              <LatitudeDegrees>49.51627177186310291290283203125</LatitudeDegrees>
              <LongitudeDegrees>20.586944930255413055419921875</LongitudeDegrees>
            </Position>
            <AltitudeMeters>456.79998779296875</AltitudeMeters>
            <DistanceMeters>NAN</DistanceMeters>
          </Trackpoint>
          <Trackpoint>
            <Time>2022-09-22T11:51:51.000Z</Time>
            <Position>
              <LatitudeDegrees>49.51627177186310291290283203125</LatitudeDegrees>
              <LongitudeDegrees>20.586944930255413055419921875</LongitudeDegrees>
            </Position>
            <AltitudeMeters>457.600006103515625</AltitudeMeters>
            <DistanceMeters>NAN</DistanceMeters>
          </Trackpoint>
          <Trackpoint>
            <Time>2022-09-22T11:52:04.000Z</Time>
            <Position>
              <LatitudeDegrees>49.51625249348580837249755859375</LatitudeDegrees>
              <LongitudeDegrees>20.58696269989013671875</LongitudeDegrees>
            </Position>
            <AltitudeMeters>458.600006103515625</AltitudeMeters>
            <DistanceMeters>NAN</DistanceMeters>
          </Trackpoint>
          <Trackpoint>
            <Time>2022-09-22T11:52:08.000Z</Time>
            <Position>
              <LatitudeDegrees>49.5162349753081798553466796875</LatitudeDegrees>
              <LongitudeDegrees>20.5869927071034908294677734375</LongitudeDegrees>
            </Position>
            <AltitudeMeters>459.20001220703125</AltitudeMeters>
            <DistanceMeters>NAN</DistanceMeters>
          </Trackpoint>
          <Trackpoint>
            <Time>2022-09-22T11:52:13.000Z</Time>
            <Position>
              <LatitudeDegrees>49.5162316225469112396240234375</LatitudeDegrees>
              <LongitudeDegrees>20.58699547313153743743896484375</LongitudeDegrees>
            </Position>
            <AltitudeMeters>459.600006103515625</AltitudeMeters>
            <DistanceMeters>NAN</DistanceMeters>
          </Trackpoint>
          <Trackpoint>
            <Time>2022-09-22T11:52:20.000Z</Time>
            <Position>
              <LatitudeDegrees>49.5162198878824710845947265625</LatitudeDegrees>
              <LongitudeDegrees>20.5870148353278636932373046875</LongitudeDegrees>
            </Position>
            <AltitudeMeters>460.20001220703125</AltitudeMeters>
            <DistanceMeters>NAN</DistanceMeters>
          </Trackpoint>
          <Trackpoint>
            <Time>2022-09-22T11:52:25.000Z</Time>
            <Position>
              <LatitudeDegrees>49.5162198878824710845947265625</LatitudeDegrees>
              <LongitudeDegrees>20.5870148353278636932373046875</LongitudeDegrees>
            </Position>
            <AltitudeMeters>460.600006103515625</AltitudeMeters>
            <DistanceMeters>NAN</DistanceMeters>
          </Trackpoint>
          <Trackpoint>
            <Time>2022-09-22T11:52:31.000Z</Time>
            <Position>
              <LatitudeDegrees>49.51621837913990020751953125</LatitudeDegrees>
              <LongitudeDegrees>20.58701626025140285491943359375</LongitudeDegrees>
            </Position>
            <AltitudeMeters>461.20001220703125</AltitudeMeters>
            <DistanceMeters>NAN</DistanceMeters>
          </Trackpoint>
          <Trackpoint>
            <Time>2022-09-22T11:52:36.000Z</Time>
            <Position>
              <LatitudeDegrees>49.51621837913990020751953125</LatitudeDegrees>
              <LongitudeDegrees>20.58701626025140285491943359375</LongitudeDegrees>
            </Position>
            <AltitudeMeters>461.79998779296875</AltitudeMeters>
            <DistanceMeters>NAN</DistanceMeters>
          </Trackpoint>
          <Trackpoint>
            <Time>2022-09-22T11:52:51.000Z</Time>
            <Position>
              <LatitudeDegrees>49.51620161533355712890625</LatitudeDegrees>
              <LongitudeDegrees>20.58703369460999965667724609375</LongitudeDegrees>
            </Position>
            <AltitudeMeters>462.399993896484375</AltitudeMeters>
            <DistanceMeters>NAN</DistanceMeters>
          </Trackpoint>
          <Trackpoint>
            <Time>2022-09-22T11:52:55.000Z</Time>
            <Position>
              <LatitudeDegrees>49.51619951985776424407958984375</LatitudeDegrees>
              <LongitudeDegrees>20.5870471894741058349609375</LongitudeDegrees>
            </Position>
            <AltitudeMeters>462.79998779296875</AltitudeMeters>
            <DistanceMeters>NAN</DistanceMeters>
          </Trackpoint>
          <Trackpoint>
            <Time>2022-09-22T11:53:19.000Z</Time>
            <Position>
              <LatitudeDegrees>49.5161166228353977203369140625</LatitudeDegrees>
              <LongitudeDegrees>20.5872029252350330352783203125</LongitudeDegrees>
            </Position>
            <AltitudeMeters>463.79998779296875</AltitudeMeters>
            <DistanceMeters>NAN</DistanceMeters>
          </Trackpoint>
          <Trackpoint>
            <Time>2022-09-22T11:53:20.000Z</Time>
            <Position>
              <LatitudeDegrees>49.5161125995218753814697265625</LatitudeDegrees>
              <LongitudeDegrees>20.5872146598994731903076171875</LongitudeDegrees>
            </Position>
            <AltitudeMeters>463.79998779296875</AltitudeMeters>
            <DistanceMeters>NAN</DistanceMeters>
          </Trackpoint>
          <Trackpoint>
            <Time>2022-09-22T11:53:27.000Z</Time>
            <Position>
              <LatitudeDegrees>49.51609290204942226409912109375</LatitudeDegrees>
              <LongitudeDegrees>20.587264783680438995361328125</LongitudeDegrees>
            </Position>
            <AltitudeMeters>464.600006103515625</AltitudeMeters>
            <DistanceMeters>NAN</DistanceMeters>
          </Trackpoint>
          <Trackpoint>
            <Time>2022-09-22T11:53:31.000Z</Time>
            <Position>
              <LatitudeDegrees>49.5160599611699581146240234375</LatitudeDegrees>
              <LongitudeDegrees>20.587301664054393768310546875</LongitudeDegrees>
            </Position>
            <AltitudeMeters>464.79998779296875</AltitudeMeters>
            <DistanceMeters>NAN</DistanceMeters>
          </Trackpoint>
          <Trackpoint>
            <Time>2022-09-22T11:53:33.000Z</Time>
            <Position>
              <LatitudeDegrees>49.5160599611699581146240234375</LatitudeDegrees>
              <LongitudeDegrees>20.587301664054393768310546875</LongitudeDegrees>
            </Position>
            <AltitudeMeters>465.20001220703125</AltitudeMeters>
            <DistanceMeters>NAN</DistanceMeters>
          </Trackpoint>
          <Trackpoint>
            <Time>2022-09-22T11:53:40.000Z</Time>
            <Position>
              <LatitudeDegrees>49.5160599611699581146240234375</LatitudeDegrees>
              <LongitudeDegrees>20.587301664054393768310546875</LongitudeDegrees>
            </Position>
            <AltitudeMeters>466</AltitudeMeters>
            <DistanceMeters>NAN</DistanceMeters>
          </Trackpoint>
          <Trackpoint>
            <Time>2022-09-22T11:53:49.000Z</Time>
            <Position>
              <LatitudeDegrees>49.516009502112865447998046875</LatitudeDegrees>
              <LongitudeDegrees>20.587376765906810760498046875</LongitudeDegrees>
            </Position>
            <AltitudeMeters>467</AltitudeMeters>
            <DistanceMeters>NAN</DistanceMeters>
          </Trackpoint>
          <Trackpoint>
            <Time>2022-09-22T11:53:54.000Z</Time>
            <Position>
              <LatitudeDegrees>49.5159647427499294281005859375</LatitudeDegrees>
              <LongitudeDegrees>20.58744616806507110595703125</LongitudeDegrees>
            </Position>
            <AltitudeMeters>467.600006103515625</AltitudeMeters>
            <DistanceMeters>NAN</DistanceMeters>
          </Trackpoint>
          <Trackpoint>
            <Time>2022-09-22T11:54:02.000Z</Time>
            <Position>
              <LatitudeDegrees>49.515941776335239410400390625</LatitudeDegrees>
              <LongitudeDegrees>20.58748816139996051788330078125</LongitudeDegrees>
            </Position>
            <AltitudeMeters>468.20001220703125</AltitudeMeters>
            <DistanceMeters>NAN</DistanceMeters>
          </Trackpoint>
          <Trackpoint>
            <Time>2022-09-22T11:54:05.000Z</Time>
            <Position>
              <LatitudeDegrees>49.515904225409030914306640625</LatitudeDegrees>
              <LongitudeDegrees>20.5875388719141483306884765625</LongitudeDegrees>
            </Position>
            <AltitudeMeters>468.600006103515625</AltitudeMeters>
            <DistanceMeters>NAN</DistanceMeters>
          </Trackpoint>
          <Trackpoint>
            <Time>2022-09-22T11:54:11.000Z</Time>
            <Position>
              <LatitudeDegrees>49.5158896408975124359130859375</LatitudeDegrees>
              <LongitudeDegrees>20.58755588717758655548095703125</LongitudeDegrees>
            </Position>
            <AltitudeMeters>469.20001220703125</AltitudeMeters>
            <DistanceMeters>NAN</DistanceMeters>
          </Trackpoint>
          <Trackpoint>
            <Time>2022-09-22T11:54:12.000Z</Time>
            <Position>
              <LatitudeDegrees>49.515862651169300079345703125</LatitudeDegrees>
              <LongitudeDegrees>20.58758924715220928192138671875</LongitudeDegrees>
            </Position>
            <AltitudeMeters>469.399993896484375</AltitudeMeters>
            <DistanceMeters>NAN</DistanceMeters>
          </Trackpoint>
          <Trackpoint>
            <Time>2022-09-22T11:54:19.000Z</Time>
            <Position>
              <LatitudeDegrees>49.5156633295118808746337890625</LatitudeDegrees>
              <LongitudeDegrees>20.5878060869872570037841796875</LongitudeDegrees>
            </Position>
            <AltitudeMeters>470.20001220703125</AltitudeMeters>
            <DistanceMeters>NAN</DistanceMeters>
          </Trackpoint>
          <Trackpoint>
            <Time>2022-09-22T11:54:21.000Z</Time>
            <Position>
              <LatitudeDegrees>49.51562586240470409393310546875</LatitudeDegrees>
              <LongitudeDegrees>20.58785118162631988525390625</LongitudeDegrees>
            </Position>
            <AltitudeMeters>470.399993896484375</AltitudeMeters>
            <DistanceMeters>NAN</DistanceMeters>
          </Trackpoint>
          <Trackpoint>
            <Time>2022-09-22T11:54:25.000Z</Time>
            <Position>
              <LatitudeDegrees>49.51560507528483867645263671875</LatitudeDegrees>
              <LongitudeDegrees>20.5878788419067859649658203125</LongitudeDegrees>
            </Position>
            <AltitudeMeters>470.600006103515625</AltitudeMeters>
            <DistanceMeters>NAN</DistanceMeters>
          </Trackpoint>
          <Trackpoint>
            <Time>2022-09-22T11:54:35.000Z</Time>
            <Position>
              <LatitudeDegrees>49.51554137282073497772216796875</LatitudeDegrees>
              <LongitudeDegrees>20.587988980114459991455078125</LongitudeDegrees>
            </Position>
            <AltitudeMeters>471.20001220703125</AltitudeMeters>
            <DistanceMeters>NAN</DistanceMeters>
          </Trackpoint>
          <Trackpoint>
            <Time>2022-09-22T11:54:37.000Z</Time>
            <Position>
              <LatitudeDegrees>49.515517316758632659912109375</LatitudeDegrees>
              <LongitudeDegrees>20.58800264261662960052490234375</LongitudeDegrees>
            </Position>
            <AltitudeMeters>471.399993896484375</AltitudeMeters>
            <DistanceMeters>NAN</DistanceMeters>
          </Trackpoint>
          <Trackpoint>
            <Time>2022-09-22T11:54:43.000Z</Time>
            <Position>
              <LatitudeDegrees>49.51544816605746746063232421875</LatitudeDegrees>
              <LongitudeDegrees>20.58801203034818172454833984375</LongitudeDegrees>
            </Position>
            <AltitudeMeters>471.79998779296875</AltitudeMeters>
            <DistanceMeters>NAN</DistanceMeters>
          </Trackpoint>
          <Trackpoint>
            <Time>2022-09-22T11:54:50.000Z</Time>
            <Position>
              <LatitudeDegrees>49.51540164649486541748046875</LatitudeDegrees>
              <LongitudeDegrees>20.58802661485970020294189453125</LongitudeDegrees>
            </Position>
            <AltitudeMeters>472.20001220703125</AltitudeMeters>
            <DistanceMeters>NAN</DistanceMeters>
          </Trackpoint>
          <Trackpoint>
            <Time>2022-09-22T11:54:54.000Z</Time>
            <Position>
              <LatitudeDegrees>49.5153669454157352447509765625</LatitudeDegrees>
              <LongitudeDegrees>20.58802778832614421844482421875</LongitudeDegrees>
            </Position>
            <AltitudeMeters>472.399993896484375</AltitudeMeters>
            <DistanceMeters>NAN</DistanceMeters>
          </Trackpoint>
          <Trackpoint>
            <Time>2022-09-22T11:55:00.000Z</Time>
            <Position>
              <LatitudeDegrees>49.51534355990588665008544921875</LatitudeDegrees>
              <LongitudeDegrees>20.5880592204630374908447265625</LongitudeDegrees>
            </Position>
            <AltitudeMeters>472.79998779296875</AltitudeMeters>
            <DistanceMeters>NAN</DistanceMeters>
          </Trackpoint>
          <Trackpoint>
            <Time>2022-09-22T11:55:08.000Z</Time>
            <Position>
              <LatitudeDegrees>49.515267871320247650146484375</LatitudeDegrees>
              <LongitudeDegrees>20.58807120658457279205322265625</LongitudeDegrees>
            </Position>
            <AltitudeMeters>473.399993896484375</AltitudeMeters>
            <DistanceMeters>NAN</DistanceMeters>
          </Trackpoint>
          <Trackpoint>
            <Time>2022-09-22T11:55:09.000Z</Time>
            <Position>
              <LatitudeDegrees>49.51525102369487285614013671875</LatitudeDegrees>
              <LongitudeDegrees>20.5880686081945896148681640625</LongitudeDegrees>
            </Position>
            <AltitudeMeters>473.399993896484375</AltitudeMeters>
            <DistanceMeters>NAN</DistanceMeters>
          </Trackpoint>
          <Trackpoint>
            <Time>2022-09-22T11:55:17.000Z</Time>
            <Position>
              <LatitudeDegrees>49.515177346765995025634765625</LatitudeDegrees>
              <LongitudeDegrees>20.58808562345802783966064453125</LongitudeDegrees>
            </Position>
            <AltitudeMeters>474</AltitudeMeters>
            <DistanceMeters>NAN</DistanceMeters>
          </Trackpoint>
          <Trackpoint>
            <Time>2022-09-22T11:55:23.000Z</Time>
            <Position>
              <LatitudeDegrees>49.5151577331125736236572265625</LatitudeDegrees>
              <LongitudeDegrees>20.58809199370443820953369140625</LongitudeDegrees>
            </Position>
            <AltitudeMeters>474.399993896484375</AltitudeMeters>
            <DistanceMeters>NAN</DistanceMeters>
          </Trackpoint>
          <Trackpoint>
            <Time>2022-09-22T11:55:26.000Z</Time>
            <Position>
              <LatitudeDegrees>49.51515111140906810760498046875</LatitudeDegrees>
              <LongitudeDegrees>20.5880847014486789703369140625</LongitudeDegrees>
            </Position>
            <AltitudeMeters>474.600006103515625</AltitudeMeters>
            <DistanceMeters>NAN</DistanceMeters>
          </Trackpoint>
          <Trackpoint>
            <Time>2022-09-22T11:55:32.000Z</Time>
            <Position>
              <LatitudeDegrees>49.5151067711412906646728515625</LatitudeDegrees>
              <LongitudeDegrees>20.58810724876821041107177734375</LongitudeDegrees>
            </Position>
            <AltitudeMeters>475</AltitudeMeters>
            <DistanceMeters>NAN</DistanceMeters>
          </Trackpoint>
          <Trackpoint>
            <Time>2022-09-22T11:55:33.000Z</Time>
            <Position>
              <LatitudeDegrees>49.51509763486683368682861328125</LatitudeDegrees>
              <LongitudeDegrees>20.58810657821595668792724609375</LongitudeDegrees>
            </Position>
            <AltitudeMeters>475</AltitudeMeters>
            <DistanceMeters>NAN</DistanceMeters>
          </Trackpoint>
          <Trackpoint>
            <Time>2022-09-22T11:55:38.000Z</Time>
            <Position>
              <LatitudeDegrees>49.5150442421436309814453125</LatitudeDegrees>
              <LongitudeDegrees>20.5881168879568576812744140625</LongitudeDegrees>
            </Position>
            <AltitudeMeters>475.600006103515625</AltitudeMeters>
            <DistanceMeters>NAN</DistanceMeters>
          </Trackpoint>
          <Trackpoint>
            <Time>2022-09-22T11:55:40.000Z</Time>
            <Position>
              <LatitudeDegrees>49.51503979973495006561279296875</LatitudeDegrees>
              <LongitudeDegrees>20.588118396699428558349609375</LongitudeDegrees>
            </Position>
            <AltitudeMeters>475.600006103515625</AltitudeMeters>
            <DistanceMeters>NAN</DistanceMeters>
          </Trackpoint>
          <Trackpoint>
            <Time>2022-09-22T11:55:59.000Z</Time>
            <Position>
              <LatitudeDegrees>49.51503979973495006561279296875</LatitudeDegrees>
              <LongitudeDegrees>20.588118396699428558349609375</LongitudeDegrees>
            </Position>
            <AltitudeMeters>476</AltitudeMeters>
            <DistanceMeters>NAN</DistanceMeters>
          </Trackpoint>
          <Trackpoint>
            <Time>2022-09-22T11:56:05.000Z</Time>
            <Position>
              <LatitudeDegrees>49.51499126851558685302734375</LatitudeDegrees>
              <LongitudeDegrees>20.58814194984734058380126953125</LongitudeDegrees>
            </Position>
            <AltitudeMeters>476.399993896484375</AltitudeMeters>
            <DistanceMeters>NAN</DistanceMeters>
          </Trackpoint>
          <Trackpoint>
            <Time>2022-09-22T11:56:06.000Z</Time>
            <Position>
              <LatitudeDegrees>49.514979533851146697998046875</LatitudeDegrees>
              <LongitudeDegrees>20.5881507508456707000732421875</LongitudeDegrees>
            </Position>
            <AltitudeMeters>476.600006103515625</AltitudeMeters>
            <DistanceMeters>NAN</DistanceMeters>
          </Trackpoint>
          <Trackpoint>
            <Time>2022-09-22T11:56:17.000Z</Time>
            <Position>
              <LatitudeDegrees>49.51489764265716075897216796875</LatitudeDegrees>
              <LongitudeDegrees>20.58817975223064422607421875</LongitudeDegrees>
            </Position>
            <AltitudeMeters>477.600006103515625</AltitudeMeters>
            <DistanceMeters>NAN</DistanceMeters>
          </Trackpoint>
          <Trackpoint>
            <Time>2022-09-22T11:56:18.000Z</Time>
            <Position>
              <LatitudeDegrees>49.514895044267177581787109375</LatitudeDegrees>
              <LongitudeDegrees>20.58818704448640346527099609375</LongitudeDegrees>
            </Position>
            <AltitudeMeters>477.600006103515625</AltitudeMeters>
            <DistanceMeters>NAN</DistanceMeters>
          </Trackpoint>
          <Trackpoint>
            <Time>2022-09-22T11:56:23.000Z</Time>
            <Position>
              <LatitudeDegrees>49.514854811131954193115234375</LatitudeDegrees>
              <LongitudeDegrees>20.58822442777454853057861328125</LongitudeDegrees>
            </Position>
            <AltitudeMeters>477.79998779296875</AltitudeMeters>
            <DistanceMeters>NAN</DistanceMeters>
          </Trackpoint>
          <Trackpoint>
            <Time>2022-09-22T11:56:25.000Z</Time>
            <Position>
              <LatitudeDegrees>49.5148388855159282684326171875</LatitudeDegrees>
              <LongitudeDegrees>20.5882372520864009857177734375</LongitudeDegrees>
            </Position>
            <AltitudeMeters>478</AltitudeMeters>
            <DistanceMeters>NAN</DistanceMeters>
          </Trackpoint>
          <Trackpoint>
            <Time>2022-09-22T11:56:31.000Z</Time>
            <Position>
              <LatitudeDegrees>49.5148040167987346649169921875</LatitudeDegrees>
              <LongitudeDegrees>20.58825627900660037994384765625</LongitudeDegrees>
            </Position>
            <AltitudeMeters>478.600006103515625</AltitudeMeters>
            <DistanceMeters>NAN</DistanceMeters>
          </Trackpoint>
          <Trackpoint>
            <Time>2022-09-22T11:56:36.000Z</Time>
            <Position>
              <LatitudeDegrees>49.51477409340441226959228515625</LatitudeDegrees>
              <LongitudeDegrees>20.58827689848840236663818359375</LongitudeDegrees>
            </Position>
            <AltitudeMeters>479</AltitudeMeters>
            <DistanceMeters>NAN</DistanceMeters>
          </Trackpoint>
          <Trackpoint>
            <Time>2022-09-22T11:56:44.000Z</Time>
            <Position>
              <LatitudeDegrees>49.51473067514598369598388671875</LatitudeDegrees>
              <LongitudeDegrees>20.58831713162362575531005859375</LongitudeDegrees>
            </Position>
            <AltitudeMeters>479.79998779296875</AltitudeMeters>
            <DistanceMeters>NAN</DistanceMeters>
          </Trackpoint>
          <Trackpoint>
            <Time>2022-09-22T11:56:45.000Z</Time>
            <Position>
              <LatitudeDegrees>49.51473067514598369598388671875</LatitudeDegrees>
              <LongitudeDegrees>20.58831713162362575531005859375</LongitudeDegrees>
            </Position>
            <AltitudeMeters>479.79998779296875</AltitudeMeters>
            <DistanceMeters>NAN</DistanceMeters>
          </Trackpoint>
          <Trackpoint>
            <Time>2022-09-22T11:56:53.000Z</Time>
            <Position>
              <LatitudeDegrees>49.5147181861102581024169921875</LatitudeDegrees>
              <LongitudeDegrees>20.58833121322095394134521484375</LongitudeDegrees>
            </Position>
            <AltitudeMeters>480.20001220703125</AltitudeMeters>
            <DistanceMeters>NAN</DistanceMeters>
          </Trackpoint>
          <Trackpoint>
            <Time>2022-09-22T11:57:00.000Z</Time>
            <Position>
              <LatitudeDegrees>49.51467585749924182891845703125</LatitudeDegrees>
              <LongitudeDegrees>20.58836339972913265228271484375</LongitudeDegrees>
            </Position>
            <AltitudeMeters>480.79998779296875</AltitudeMeters>
            <DistanceMeters>NAN</DistanceMeters>
          </Trackpoint>
          <Trackpoint>
            <Time>2022-09-22T11:57:02.000Z</Time>
            <Position>
              <LatitudeDegrees>49.5146608538925647735595703125</LatitudeDegrees>
              <LongitudeDegrees>20.5883727036416530609130859375</LongitudeDegrees>
            </Position>
            <AltitudeMeters>480.79998779296875</AltitudeMeters>
            <DistanceMeters>NAN</DistanceMeters>
          </Trackpoint>
          <Trackpoint>
            <Time>2022-09-22T11:57:10.000Z</Time>
            <Position>
              <LatitudeDegrees>49.514610730111598968505859375</LatitudeDegrees>
              <LongitudeDegrees>20.58840849436819553375244140625</LongitudeDegrees>
            </Position>
            <AltitudeMeters>481.79998779296875</AltitudeMeters>
            <DistanceMeters>NAN</DistanceMeters>
          </Trackpoint>
          <Trackpoint>
            <Time>2022-09-22T11:57:14.000Z</Time>
            <Position>
              <LatitudeDegrees>49.51458617113530635833740234375</LatitudeDegrees>
              <LongitudeDegrees>20.5884347297251224517822265625</LongitudeDegrees>
            </Position>
            <AltitudeMeters>482</AltitudeMeters>
            <DistanceMeters>NAN</DistanceMeters>
          </Trackpoint>
          <Trackpoint>
            <Time>2022-09-22T11:57:20.000Z</Time>
            <Position>
              <LatitudeDegrees>49.51455063186585903167724609375</LatitudeDegrees>
              <LongitudeDegrees>20.58847554959356784820556640625</LongitudeDegrees>
            </Position>
            <AltitudeMeters>482.79998779296875</AltitudeMeters>
            <DistanceMeters>NAN</DistanceMeters>
          </Trackpoint>
          <Trackpoint>
            <Time>2022-09-22T11:57:23.000Z</Time>
            <Position>
              <LatitudeDegrees>49.51454526744782924652099609375</LatitudeDegrees>
              <LongitudeDegrees>20.5884739570319652557373046875</LongitudeDegrees>
            </Position>
            <AltitudeMeters>483</AltitudeMeters>
            <DistanceMeters>NAN</DistanceMeters>
          </Trackpoint>
          <Trackpoint>
            <Time>2022-09-22T11:57:27.000Z</Time>
            <Position>
              <LatitudeDegrees>49.5145300962030887603759765625</LatitudeDegrees>
              <LongitudeDegrees>20.58849717490375041961669921875</LongitudeDegrees>
            </Position>
            <AltitudeMeters>483.399993896484375</AltitudeMeters>
            <DistanceMeters>NAN</DistanceMeters>
          </Trackpoint>
          <Trackpoint>
            <Time>2022-09-22T11:57:28.000Z</Time>
            <Position>
              <LatitudeDegrees>49.5145233906805515289306640625</LatitudeDegrees>
              <LongitudeDegrees>20.58850656263530254364013671875</LongitudeDegrees>
            </Position>
            <AltitudeMeters>483.399993896484375</AltitudeMeters>
            <DistanceMeters>NAN</DistanceMeters>
          </Trackpoint>
          <Trackpoint>
            <Time>2022-09-22T11:57:29.000Z</Time>
            <Position>
              <LatitudeDegrees>49.51451710425317287445068359375</LatitudeDegrees>
              <LongitudeDegrees>20.58851494453847408294677734375</LongitudeDegrees>
            </Position>
            <AltitudeMeters>483.399993896484375</AltitudeMeters>
            <DistanceMeters>NAN</DistanceMeters>
          </Trackpoint>
          <Trackpoint>
            <Time>2022-09-22T11:57:31.000Z</Time>
            <Position>
              <LatitudeDegrees>49.51450587250292301177978515625</LatitudeDegrees>
              <LongitudeDegrees>20.5885198898613452911376953125</LongitudeDegrees>
            </Position>
            <AltitudeMeters>483.600006103515625</AltitudeMeters>
            <DistanceMeters>NAN</DistanceMeters>
          </Trackpoint>
          <Trackpoint>
            <Time>2022-09-22T11:57:33.000Z</Time>
            <Position>
              <LatitudeDegrees>49.514495395123958587646484375</LatitudeDegrees>
              <LongitudeDegrees>20.588528104126453399658203125</LongitudeDegrees>
            </Position>
            <AltitudeMeters>483.79998779296875</AltitudeMeters>
            <DistanceMeters>NAN</DistanceMeters>
          </Trackpoint>
          <Trackpoint>
            <Time>2022-09-22T11:57:35.000Z</Time>
            <Position>
              <LatitudeDegrees>49.51447988860309123992919921875</LatitudeDegrees>
              <LongitudeDegrees>20.588542185723781585693359375</LongitudeDegrees>
            </Position>
            <AltitudeMeters>484</AltitudeMeters>
            <DistanceMeters>NAN</DistanceMeters>
          </Trackpoint>
          <Trackpoint>
            <Time>2022-09-22T11:57:37.000Z</Time>
            <Position>
              <LatitudeDegrees>49.51446530409157276153564453125</LatitudeDegrees>
              <LongitudeDegrees>20.5885503999888896942138671875</LongitudeDegrees>
            </Position>
            <AltitudeMeters>484.20001220703125</AltitudeMeters>
            <DistanceMeters>NAN</DistanceMeters>
          </Trackpoint>
          <Trackpoint>
            <Time>2022-09-22T11:57:44.000Z</Time>
            <Position>
              <LatitudeDegrees>49.5144399069249629974365234375</LatitudeDegrees>
              <LongitudeDegrees>20.588577054440975189208984375</LongitudeDegrees>
            </Position>
            <AltitudeMeters>484.79998779296875</AltitudeMeters>
            <DistanceMeters>NAN</DistanceMeters>
          </Trackpoint>
          <Trackpoint>
            <Time>2022-09-22T11:57:46.000Z</Time>
            <Position>
              <LatitudeDegrees>49.51442020945250988006591796875</LatitudeDegrees>
              <LongitudeDegrees>20.58860027231276035308837890625</LongitudeDegrees>
            </Position>
            <AltitudeMeters>485</AltitudeMeters>
            <DistanceMeters>NAN</DistanceMeters>
          </Trackpoint>
          <Trackpoint>
            <Time>2022-09-22T11:57:54.000Z</Time>
            <Position>
              <LatitudeDegrees>49.51438114978373050689697265625</LatitudeDegrees>
              <LongitudeDegrees>20.5886385776102542877197265625</LongitudeDegrees>
            </Position>
            <AltitudeMeters>485.79998779296875</AltitudeMeters>
            <DistanceMeters>NAN</DistanceMeters>
          </Trackpoint>
          <Trackpoint>
            <Time>2022-09-22T11:57:56.000Z</Time>
            <Position>
              <LatitudeDegrees>49.51437838375568389892578125</LatitudeDegrees>
              <LongitudeDegrees>20.58864109218120574951171875</LongitudeDegrees>
            </Position>
            <AltitudeMeters>486</AltitudeMeters>
            <DistanceMeters>NAN</DistanceMeters>
          </Trackpoint>
          <Trackpoint>
            <Time>2022-09-22T11:58:04.000Z</Time>
            <Position>
              <LatitudeDegrees>49.5143410004675388336181640625</LatitudeDegrees>
              <LongitudeDegrees>20.588700436055660247802734375</LongitudeDegrees>
            </Position>
            <AltitudeMeters>486.600006103515625</AltitudeMeters>
            <DistanceMeters>NAN</DistanceMeters>
          </Trackpoint>
          <Trackpoint>
            <Time>2022-09-22T11:58:08.000Z</Time>
            <Position>
              <LatitudeDegrees>49.51431644149124622344970703125</LatitudeDegrees>
              <LongitudeDegrees>20.5887445248663425445556640625</LongitudeDegrees>
            </Position>
            <AltitudeMeters>487</AltitudeMeters>
            <DistanceMeters>NAN</DistanceMeters>
          </Trackpoint>
          <Trackpoint>
            <Time>2022-09-22T11:58:13.000Z</Time>
            <Position>
              <LatitudeDegrees>49.51428643427789211273193359375</LatitudeDegrees>
              <LongitudeDegrees>20.58878769166767597198486328125</LongitudeDegrees>
            </Position>
            <AltitudeMeters>487.399993896484375</AltitudeMeters>
            <DistanceMeters>NAN</DistanceMeters>
          </Trackpoint>
          <Trackpoint>
            <Time>2022-09-22T11:58:18.000Z</Time>
            <Position>
              <LatitudeDegrees>49.5142625458538532257080078125</LatitudeDegrees>
              <LongitudeDegrees>20.5888065509498119354248046875</LongitudeDegrees>
            </Position>
            <AltitudeMeters>488</AltitudeMeters>
            <DistanceMeters>NAN</DistanceMeters>
          </Trackpoint>
          <Trackpoint>
            <Time>2022-09-22T11:58:19.000Z</Time>
            <Position>
              <LatitudeDegrees>49.5142605341970920562744140625</LatitudeDegrees>
              <LongitudeDegrees>20.58880780823528766632080078125</LongitudeDegrees>
            </Position>
            <AltitudeMeters>488.20001220703125</AltitudeMeters>
            <DistanceMeters>NAN</DistanceMeters>
          </Trackpoint>
          <Trackpoint>
            <Time>2022-09-22T11:58:27.000Z</Time>
            <Position>
              <LatitudeDegrees>49.514245949685573577880859375</LatitudeDegrees>
              <LongitudeDegrees>20.58881334029138088226318359375</LongitudeDegrees>
            </Position>
            <AltitudeMeters>488.399993896484375</AltitudeMeters>
            <DistanceMeters>NAN</DistanceMeters>
          </Trackpoint>
          <Trackpoint>
            <Time>2022-09-22T11:58:45.000Z</Time>
            <Position>
              <LatitudeDegrees>49.51424536295235157012939453125</LatitudeDegrees>
              <LongitudeDegrees>20.58881409466266632080078125</LongitudeDegrees>
            </Position>
            <AltitudeMeters>488.600006103515625</AltitudeMeters>
            <DistanceMeters>NAN</DistanceMeters>
          </Trackpoint>
          <Trackpoint>
            <Time>2022-09-22T11:58:56.000Z</Time>
            <Position>
              <LatitudeDegrees>49.51424402184784412384033203125</LatitudeDegrees>
              <LongitudeDegrees>20.58882105164229869842529296875</LongitudeDegrees>
            </Position>
            <AltitudeMeters>488.399993896484375</AltitudeMeters>
            <DistanceMeters>NAN</DistanceMeters>
          </Trackpoint>
          <Trackpoint>
            <Time>2022-09-22T11:58:57.000Z</Time>
            <Position>
              <LatitudeDegrees>49.51424402184784412384033203125</LatitudeDegrees>
              <LongitudeDegrees>20.58882105164229869842529296875</LongitudeDegrees>
            </Position>
            <AltitudeMeters>488.399993896484375</AltitudeMeters>
            <DistanceMeters>NAN</DistanceMeters>
          </Trackpoint>
          <Trackpoint>
            <Time>2022-09-22T11:59:01.000Z</Time>
            <Position>
              <LatitudeDegrees>49.51422818005084991455078125</LatitudeDegrees>
              <LongitudeDegrees>20.58883647434413433074951171875</LongitudeDegrees>
            </Position>
            <AltitudeMeters>488.399993896484375</AltitudeMeters>
            <DistanceMeters>NAN</DistanceMeters>
          </Trackpoint>
          <Trackpoint>
            <Time>2022-09-22T11:59:04.000Z</Time>
            <Position>
              <LatitudeDegrees>49.51422206126153469085693359375</LatitudeDegrees>
              <LongitudeDegrees>20.58884267695248126983642578125</LongitudeDegrees>
            </Position>
            <AltitudeMeters>488.600006103515625</AltitudeMeters>
            <DistanceMeters>NAN</DistanceMeters>
          </Trackpoint>
          <Trackpoint>
            <Time>2022-09-22T11:59:16.000Z</Time>
            <Position>
              <LatitudeDegrees>49.51421988196671009063720703125</LatitudeDegrees>
              <LongitudeDegrees>20.5888467840850353240966796875</LongitudeDegrees>
            </Position>
            <AltitudeMeters>488.600006103515625</AltitudeMeters>
            <DistanceMeters>NAN</DistanceMeters>
          </Trackpoint>
          <Trackpoint>
            <Time>2022-09-22T11:59:25.000Z</Time>
            <Position>
              <LatitudeDegrees>49.51419993303716182708740234375</LatitudeDegrees>
              <LongitudeDegrees>20.58888274244964122772216796875</LongitudeDegrees>
            </Position>
            <AltitudeMeters>488.399993896484375</AltitudeMeters>
            <DistanceMeters>NAN</DistanceMeters>
          </Trackpoint>
          <Trackpoint>
            <Time>2022-09-22T11:59:33.000Z</Time>
            <Position>
              <LatitudeDegrees>49.51419976539909839630126953125</LatitudeDegrees>
              <LongitudeDegrees>20.58888274244964122772216796875</LongitudeDegrees>
            </Position>
            <AltitudeMeters>488.399993896484375</AltitudeMeters>
            <DistanceMeters>NAN</DistanceMeters>
          </Trackpoint>
          <Trackpoint>
            <Time>2022-09-22T11:59:38.000Z</Time>
            <Position>
              <LatitudeDegrees>49.51419976539909839630126953125</LatitudeDegrees>
              <LongitudeDegrees>20.58888274244964122772216796875</LongitudeDegrees>
            </Position>
            <AltitudeMeters>488.399993896484375</AltitudeMeters>
            <DistanceMeters>NAN</DistanceMeters>
          </Trackpoint>
          <Trackpoint>
            <Time>2022-09-22T12:00:04.000Z</Time>
            <Position>
              <LatitudeDegrees>49.51419976539909839630126953125</LatitudeDegrees>
              <LongitudeDegrees>20.58888274244964122772216796875</LongitudeDegrees>
            </Position>
            <AltitudeMeters>488.399993896484375</AltitudeMeters>
            <DistanceMeters>NAN</DistanceMeters>
          </Trackpoint>
          <Trackpoint>
            <Time>2022-09-22T12:00:32.000Z</Time>
            <Position>
              <LatitudeDegrees>49.51420144177973270416259765625</LatitudeDegrees>
              <LongitudeDegrees>20.58888559229671955108642578125</LongitudeDegrees>
            </Position>
            <AltitudeMeters>488.79998779296875</AltitudeMeters>
            <DistanceMeters>NAN</DistanceMeters>
          </Trackpoint>
          <Trackpoint>
            <Time>2022-09-22T12:00:35.000Z</Time>
            <Position>
              <LatitudeDegrees>49.5142595283687114715576171875</LatitudeDegrees>
              <LongitudeDegrees>20.58900495059788227081298828125</LongitudeDegrees>
            </Position>
            <AltitudeMeters>488.79998779296875</AltitudeMeters>
            <DistanceMeters>NAN</DistanceMeters>
          </Trackpoint>
          <Trackpoint>
            <Time>2022-09-22T12:00:37.000Z</Time>
            <Position>
              <LatitudeDegrees>49.51429766602814197540283203125</LatitudeDegrees>
              <LongitudeDegrees>20.5891183577477931976318359375</LongitudeDegrees>
            </Position>
            <AltitudeMeters>488.399993896484375</AltitudeMeters>
            <DistanceMeters>NAN</DistanceMeters>
          </Trackpoint>
          <Trackpoint>
            <Time>2022-09-22T12:00:40.000Z</Time>
            <Position>
              <LatitudeDegrees>49.5143661461770534515380859375</LatitudeDegrees>
              <LongitudeDegrees>20.589293204247951507568359375</LongitudeDegrees>
            </Position>
            <AltitudeMeters>487.79998779296875</AltitudeMeters>
            <DistanceMeters>NAN</DistanceMeters>
          </Trackpoint>
          <Trackpoint>
            <Time>2022-09-22T12:00:41.000Z</Time>
            <Position>
              <LatitudeDegrees>49.5143896155059337615966796875</LatitudeDegrees>
              <LongitudeDegrees>20.5893533863127231597900390625</LongitudeDegrees>
            </Position>
            <AltitudeMeters>487.20001220703125</AltitudeMeters>
            <DistanceMeters>NAN</DistanceMeters>
          </Trackpoint>
          <Trackpoint>
            <Time>2022-09-22T12:00:42.000Z</Time>
            <Position>
              <LatitudeDegrees>49.5144080556929111480712890625</LatitudeDegrees>
              <LongitudeDegrees>20.58941222727298736572265625</LongitudeDegrees>
            </Position>
            <AltitudeMeters>487</AltitudeMeters>
            <DistanceMeters>NAN</DistanceMeters>
          </Trackpoint>
          <Trackpoint>
            <Time>2022-09-22T12:00:47.000Z</Time>
            <Position>
              <LatitudeDegrees>49.5145129971206188201904296875</LatitudeDegrees>
              <LongitudeDegrees>20.58969109319150447845458984375</LongitudeDegrees>
            </Position>
            <AltitudeMeters>485.79998779296875</AltitudeMeters>
            <DistanceMeters>NAN</DistanceMeters>
          </Trackpoint>
          <Trackpoint>
            <Time>2022-09-22T12:00:49.000Z</Time>
            <Position>
              <LatitudeDegrees>49.5145535655319690704345703125</LatitudeDegrees>
              <LongitudeDegrees>20.58980458416044712066650390625</LongitudeDegrees>
            </Position>
            <AltitudeMeters>485.399993896484375</AltitudeMeters>
            <DistanceMeters>NAN</DistanceMeters>
          </Trackpoint>
          <Trackpoint>
            <Time>2022-09-22T12:00:52.000Z</Time>
            <Position>
              <LatitudeDegrees>49.514619447290897369384765625</LatitudeDegrees>
              <LongitudeDegrees>20.58999116532504558563232421875</LongitudeDegrees>
            </Position>
            <AltitudeMeters>484.399993896484375</AltitudeMeters>
            <DistanceMeters>NAN</DistanceMeters>
          </Trackpoint>
          <Trackpoint>
            <Time>2022-09-22T12:00:55.000Z</Time>
            <Position>
              <LatitudeDegrees>49.514695219695568084716796875</LatitudeDegrees>
              <LongitudeDegrees>20.59017791412770748138427734375</LongitudeDegrees>
            </Position>
            <AltitudeMeters>483.20001220703125</AltitudeMeters>
            <DistanceMeters>NAN</DistanceMeters>
          </Trackpoint>
          <Trackpoint>
            <Time>2022-09-22T12:00:56.000Z</Time>
            <Position>
              <LatitudeDegrees>49.514724723994731903076171875</LatitudeDegrees>
              <LongitudeDegrees>20.59024035930633544921875</LongitudeDegrees>
            </Position>
            <AltitudeMeters>482.79998779296875</AltitudeMeters>
            <DistanceMeters>NAN</DistanceMeters>
          </Trackpoint>
          <Trackpoint>
            <Time>2022-09-22T12:00:57.000Z</Time>
            <Position>
              <LatitudeDegrees>49.5147577486932277679443359375</LatitudeDegrees>
              <LongitudeDegrees>20.59030464850366115570068359375</LongitudeDegrees>
            </Position>
            <AltitudeMeters>482.600006103515625</AltitudeMeters>
            <DistanceMeters>NAN</DistanceMeters>
          </Trackpoint>
          <Trackpoint>
            <Time>2022-09-22T12:00:58.000Z</Time>
            <Position>
              <LatitudeDegrees>49.5147919468581676483154296875</LatitudeDegrees>
              <LongitudeDegrees>20.59037237428128719329833984375</LongitudeDegrees>
            </Position>
            <AltitudeMeters>482</AltitudeMeters>
            <DistanceMeters>NAN</DistanceMeters>
          </Trackpoint>
          <Trackpoint>
            <Time>2022-09-22T12:01:00.000Z</Time>
            <Position>
              <LatitudeDegrees>49.514866881072521209716796875</LatitudeDegrees>
              <LongitudeDegrees>20.59051151387393474578857421875</LongitudeDegrees>
            </Position>
            <AltitudeMeters>480.79998779296875</AltitudeMeters>
            <DistanceMeters>NAN</DistanceMeters>
          </Trackpoint>
          <Trackpoint>
            <Time>2022-09-22T12:01:02.000Z</Time>
            <Position>
              <LatitudeDegrees>49.51496151275932788848876953125</LatitudeDegrees>
              <LongitudeDegrees>20.59065409004688262939453125</LongitudeDegrees>
            </Position>
            <AltitudeMeters>479.399993896484375</AltitudeMeters>
            <DistanceMeters>NAN</DistanceMeters>
          </Trackpoint>
          <Trackpoint>
            <Time>2022-09-22T12:01:03.000Z</Time>
            <Position>
              <LatitudeDegrees>49.515019096434116363525390625</LatitudeDegrees>
              <LongitudeDegrees>20.5907271802425384521484375</LongitudeDegrees>
            </Position>
            <AltitudeMeters>478.399993896484375</AltitudeMeters>
            <DistanceMeters>NAN</DistanceMeters>
          </Trackpoint>
          <Trackpoint>
            <Time>2022-09-22T12:01:04.000Z</Time>
            <Position>
              <LatitudeDegrees>49.51508690603077411651611328125</LatitudeDegrees>
              <LongitudeDegrees>20.5908074788749217987060546875</LongitudeDegrees>
            </Position>
            <AltitudeMeters>477.600006103515625</AltitudeMeters>
            <DistanceMeters>NAN</DistanceMeters>
          </Trackpoint>
          <Trackpoint>
            <Time>2022-09-22T12:01:05.000Z</Time>
            <Position>
              <LatitudeDegrees>49.51515429653227329254150390625</LatitudeDegrees>
              <LongitudeDegrees>20.59088953770697116851806640625</LongitudeDegrees>
            </Position>
            <AltitudeMeters>476.399993896484375</AltitudeMeters>
            <DistanceMeters>NAN</DistanceMeters>
          </Trackpoint>
          <Trackpoint>
            <Time>2022-09-22T12:01:07.000Z</Time>
            <Position>
              <LatitudeDegrees>49.51528522185981273651123046875</LatitudeDegrees>
              <LongitudeDegrees>20.591037981212139129638671875</LongitudeDegrees>
            </Position>
            <AltitudeMeters>474.79998779296875</AltitudeMeters>
            <DistanceMeters>NAN</DistanceMeters>
          </Trackpoint>
          <Trackpoint>
            <Time>2022-09-22T12:01:09.000Z</Time>
            <Position>
              <LatitudeDegrees>49.51543651521205902099609375</LatitudeDegrees>
              <LongitudeDegrees>20.59121559374034404754638671875</LongitudeDegrees>
            </Position>
            <AltitudeMeters>473.20001220703125</AltitudeMeters>
            <DistanceMeters>NAN</DistanceMeters>
          </Trackpoint>
          <Trackpoint>
            <Time>2022-09-22T12:01:11.000Z</Time>
            <Position>
              <LatitudeDegrees>49.51555897481739521026611328125</LatitudeDegrees>
              <LongitudeDegrees>20.5914030969142913818359375</LongitudeDegrees>
            </Position>
            <AltitudeMeters>472.20001220703125</AltitudeMeters>
            <DistanceMeters>NAN</DistanceMeters>
          </Trackpoint>
          <Trackpoint>
            <Time>2022-09-22T12:01:12.000Z</Time>
            <Position>
              <LatitudeDegrees>49.515606500208377838134765625</LatitudeDegrees>
              <LongitudeDegrees>20.5914835631847381591796875</LongitudeDegrees>
            </Position>
            <AltitudeMeters>471.399993896484375</AltitudeMeters>
            <DistanceMeters>NAN</DistanceMeters>
          </Trackpoint>
          <Trackpoint>
            <Time>2022-09-22T12:01:13.000Z</Time>
            <Position>
              <LatitudeDegrees>49.51566458679735660552978515625</LatitudeDegrees>
              <LongitudeDegrees>20.5915869958698749542236328125</LongitudeDegrees>
            </Position>
            <AltitudeMeters>470.79998779296875</AltitudeMeters>
            <DistanceMeters>NAN</DistanceMeters>
          </Trackpoint>
          <Trackpoint>
            <Time>2022-09-22T12:01:15.000Z</Time>
            <Position>
              <LatitudeDegrees>49.5157783292233943939208984375</LatitudeDegrees>
              <LongitudeDegrees>20.5918035842478275299072265625</LongitudeDegrees>
            </Position>
            <AltitudeMeters>469.399993896484375</AltitudeMeters>
            <DistanceMeters>NAN</DistanceMeters>
          </Trackpoint>
          <Trackpoint>
            <Time>2022-09-22T12:01:16.000Z</Time>
            <Position>
              <LatitudeDegrees>49.515811689198017120361328125</LatitudeDegrees>
              <LongitudeDegrees>20.59189989231526851654052734375</LongitudeDegrees>
            </Position>
            <AltitudeMeters>468.600006103515625</AltitudeMeters>
            <DistanceMeters>NAN</DistanceMeters>
          </Trackpoint>
          <Trackpoint>
            <Time>2022-09-22T12:01:17.000Z</Time>
            <Position>
              <LatitudeDegrees>49.51583079993724822998046875</LatitudeDegrees>
              <LongitudeDegrees>20.5920013971626758575439453125</LongitudeDegrees>
            </Position>
            <AltitudeMeters>468.20001220703125</AltitudeMeters>
            <DistanceMeters>NAN</DistanceMeters>
          </Trackpoint>
          <Trackpoint>
            <Time>2022-09-22T12:01:19.000Z</Time>
            <Position>
              <LatitudeDegrees>49.5158420316874980926513671875</LatitudeDegrees>
              <LongitudeDegrees>20.59221454896032810211181640625</LongitudeDegrees>
            </Position>
            <AltitudeMeters>467.399993896484375</AltitudeMeters>
            <DistanceMeters>NAN</DistanceMeters>
          </Trackpoint>
          <Trackpoint>
            <Time>2022-09-22T12:01:22.000Z</Time>
            <Position>
              <LatitudeDegrees>49.5158581249415874481201171875</LatitudeDegrees>
              <LongitudeDegrees>20.5925207398831844329833984375</LongitudeDegrees>
            </Position>
            <AltitudeMeters>467.20001220703125</AltitudeMeters>
            <DistanceMeters>NAN</DistanceMeters>
          </Trackpoint>
          <Trackpoint>
            <Time>2022-09-22T12:01:23.000Z</Time>
            <Position>
              <LatitudeDegrees>49.51585804112255573272705078125</LatitudeDegrees>
              <LongitudeDegrees>20.59261017479002475738525390625</LongitudeDegrees>
            </Position>
            <AltitudeMeters>467</AltitudeMeters>
            <DistanceMeters>NAN</DistanceMeters>
          </Trackpoint>
          <Trackpoint>
            <Time>2022-09-22T12:01:24.000Z</Time>
            <Position>
              <LatitudeDegrees>49.51585737057030200958251953125</LatitudeDegrees>
              <LongitudeDegrees>20.59270254336297512054443359375</LongitudeDegrees>
            </Position>
            <AltitudeMeters>467</AltitudeMeters>
            <DistanceMeters>NAN</DistanceMeters>
          </Trackpoint>
          <Trackpoint>
            <Time>2022-09-22T12:01:30.000Z</Time>
            <Position>
              <LatitudeDegrees>49.51584345661103725433349609375</LatitudeDegrees>
              <LongitudeDegrees>20.59319053776562213897705078125</LongitudeDegrees>
            </Position>
            <AltitudeMeters>467.20001220703125</AltitudeMeters>
            <DistanceMeters>NAN</DistanceMeters>
          </Trackpoint>
          <Trackpoint>
            <Time>2022-09-22T12:01:31.000Z</Time>
            <Position>
              <LatitudeDegrees>49.51583842746913433074951171875</LatitudeDegrees>
              <LongitudeDegrees>20.593260861933231353759765625</LongitudeDegrees>
            </Position>
            <AltitudeMeters>467.20001220703125</AltitudeMeters>
            <DistanceMeters>NAN</DistanceMeters>
          </Trackpoint>
          <Trackpoint>
            <Time>2022-09-22T12:01:37.000Z</Time>
            <Position>
              <LatitudeDegrees>49.51583909802138805389404296875</LatitudeDegrees>
              <LongitudeDegrees>20.5937384627759456634521484375</LongitudeDegrees>
            </Position>
            <AltitudeMeters>466.399993896484375</AltitudeMeters>
            <DistanceMeters>NAN</DistanceMeters>
          </Trackpoint>
          <Trackpoint>
            <Time>2022-09-22T12:01:38.000Z</Time>
            <Position>
              <LatitudeDegrees>49.51584110967814922332763671875</LatitudeDegrees>
              <LongitudeDegrees>20.5938316695392131805419921875</LongitudeDegrees>
            </Position>
            <AltitudeMeters>466</AltitudeMeters>
            <DistanceMeters>NAN</DistanceMeters>
          </Trackpoint>
          <Trackpoint>
            <Time>2022-09-22T12:01:41.000Z</Time>
            <Position>
              <LatitudeDegrees>49.51584555208683013916015625</LatitudeDegrees>
              <LongitudeDegrees>20.59413559734821319580078125</LongitudeDegrees>
            </Position>
            <AltitudeMeters>464.79998779296875</AltitudeMeters>
            <DistanceMeters>NAN</DistanceMeters>
          </Trackpoint>
          <Trackpoint>
            <Time>2022-09-22T12:01:43.000Z</Time>
            <Position>
              <LatitudeDegrees>49.5158564485609531402587890625</LatitudeDegrees>
              <LongitudeDegrees>20.59434690512716770172119140625</LongitudeDegrees>
            </Position>
            <AltitudeMeters>463.79998779296875</AltitudeMeters>
            <DistanceMeters>NAN</DistanceMeters>
          </Trackpoint>
          <Trackpoint>
            <Time>2022-09-22T12:01:44.000Z</Time>
            <Position>
              <LatitudeDegrees>49.51586374081671237945556640625</LatitudeDegrees>
              <LongitudeDegrees>20.59445838443934917449951171875</LongitudeDegrees>
            </Position>
            <AltitudeMeters>463.399993896484375</AltitudeMeters>
            <DistanceMeters>NAN</DistanceMeters>
          </Trackpoint>
          <Trackpoint>
            <Time>2022-09-22T12:01:46.000Z</Time>
            <Position>
              <LatitudeDegrees>49.51588922180235385894775390625</LatitudeDegrees>
              <LongitudeDegrees>20.59469341300427913665771484375</LongitudeDegrees>
            </Position>
            <AltitudeMeters>462.399993896484375</AltitudeMeters>
            <DistanceMeters>NAN</DistanceMeters>
          </Trackpoint>
          <Trackpoint>
            <Time>2022-09-22T12:01:48.000Z</Time>
            <Position>
              <LatitudeDegrees>49.51591000892221927642822265625</LatitudeDegrees>
              <LongitudeDegrees>20.59492760337889194488525390625</LongitudeDegrees>
            </Position>
            <AltitudeMeters>461.399993896484375</AltitudeMeters>
            <DistanceMeters>NAN</DistanceMeters>
          </Trackpoint>
          <Trackpoint>
            <Time>2022-09-22T12:01:49.000Z</Time>
            <Position>
              <LatitudeDegrees>49.51592107303440570831298828125</LatitudeDegrees>
              <LongitudeDegrees>20.595049560070037841796875</LongitudeDegrees>
            </Position>
            <AltitudeMeters>460.79998779296875</AltitudeMeters>
            <DistanceMeters>NAN</DistanceMeters>
          </Trackpoint>
          <Trackpoint>
            <Time>2022-09-22T12:01:51.000Z</Time>
            <Position>
              <LatitudeDegrees>49.5159409381449222564697265625</LatitudeDegrees>
              <LongitudeDegrees>20.5952924676239490509033203125</LongitudeDegrees>
            </Position>
            <AltitudeMeters>459.399993896484375</AltitudeMeters>
            <DistanceMeters>NAN</DistanceMeters>
          </Trackpoint>
          <Trackpoint>
            <Time>2022-09-22T12:01:54.000Z</Time>
            <Position>
              <LatitudeDegrees>49.51598410494625568389892578125</LatitudeDegrees>
              <LongitudeDegrees>20.59564492665231227874755859375</LongitudeDegrees>
            </Position>
            <AltitudeMeters>458.399993896484375</AltitudeMeters>
            <DistanceMeters>NAN</DistanceMeters>
          </Trackpoint>
          <Trackpoint>
            <Time>2022-09-22T12:01:56.000Z</Time>
            <Position>
              <LatitudeDegrees>49.51600422151386737823486328125</LatitudeDegrees>
              <LongitudeDegrees>20.5958315916359424591064453125</LongitudeDegrees>
            </Position>
            <AltitudeMeters>457.79998779296875</AltitudeMeters>
            <DistanceMeters>NAN</DistanceMeters>
          </Trackpoint>
          <Trackpoint>
            <Time>2022-09-22T12:01:58.000Z</Time>
            <Position>
              <LatitudeDegrees>49.5160314626991748809814453125</LatitudeDegrees>
              <LongitudeDegrees>20.59601171873509883880615234375</LongitudeDegrees>
            </Position>
            <AltitudeMeters>457.20001220703125</AltitudeMeters>
            <DistanceMeters>NAN</DistanceMeters>
          </Trackpoint>
          <Trackpoint>
            <Time>2022-09-22T12:01:59.000Z</Time>
            <Position>
              <LatitudeDegrees>49.51604931615293025970458984375</LatitudeDegrees>
              <LongitudeDegrees>20.59611699543893337249755859375</LongitudeDegrees>
            </Position>
            <AltitudeMeters>456.79998779296875</AltitudeMeters>
            <DistanceMeters>NAN</DistanceMeters>
          </Trackpoint>
          <Trackpoint>
            <Time>2022-09-22T12:02:01.000Z</Time>
            <Position>
              <LatitudeDegrees>49.51607496477663516998291015625</LatitudeDegrees>
              <LongitudeDegrees>20.59629620052874088287353515625</LongitudeDegrees>
            </Position>
            <AltitudeMeters>455.79998779296875</AltitudeMeters>
            <DistanceMeters>NAN</DistanceMeters>
          </Trackpoint>
          <Trackpoint>
            <Time>2022-09-22T12:02:03.000Z</Time>
            <Position>
              <LatitudeDegrees>49.51610011048614978790283203125</LatitudeDegrees>
              <LongitudeDegrees>20.5965376831591129302978515625</LongitudeDegrees>
            </Position>
            <AltitudeMeters>454.600006103515625</AltitudeMeters>
            <DistanceMeters>NAN</DistanceMeters>
          </Trackpoint>
          <Trackpoint>
            <Time>2022-09-22T12:02:04.000Z</Time>
            <Position>
              <LatitudeDegrees>49.5161122642457485198974609375</LatitudeDegrees>
              <LongitudeDegrees>20.59666492044925689697265625</LongitudeDegrees>
            </Position>
            <AltitudeMeters>453.79998779296875</AltitudeMeters>
            <DistanceMeters>NAN</DistanceMeters>
          </Trackpoint>
          <Trackpoint>
            <Time>2022-09-22T12:02:05.000Z</Time>
            <Position>
              <LatitudeDegrees>49.5161219872534275054931640625</LatitudeDegrees>
              <LongitudeDegrees>20.59677262790501117706298828125</LongitudeDegrees>
            </Position>
            <AltitudeMeters>452.79998779296875</AltitudeMeters>
            <DistanceMeters>NAN</DistanceMeters>
          </Trackpoint>
          <Trackpoint>
            <Time>2022-09-22T12:02:06.000Z</Time>
            <Position>
              <LatitudeDegrees>49.5161305367946624755859375</LatitudeDegrees>
              <LongitudeDegrees>20.59693037532269954681396484375</LongitudeDegrees>
            </Position>
            <AltitudeMeters>452.20001220703125</AltitudeMeters>
            <DistanceMeters>NAN</DistanceMeters>
          </Trackpoint>
          <Trackpoint>
            <Time>2022-09-22T12:02:07.000Z</Time>
            <Position>
              <LatitudeDegrees>49.51612961478531360626220703125</LatitudeDegrees>
              <LongitudeDegrees>20.59706146828830242156982421875</LongitudeDegrees>
            </Position>
            <AltitudeMeters>451.600006103515625</AltitudeMeters>
            <DistanceMeters>NAN</DistanceMeters>
          </Trackpoint>
          <Trackpoint>
            <Time>2022-09-22T12:02:09.000Z</Time>
            <Position>
              <LatitudeDegrees>49.516112096607685089111328125</LatitudeDegrees>
              <LongitudeDegrees>20.597293563187122344970703125</LongitudeDegrees>
            </Position>
            <AltitudeMeters>450.79998779296875</AltitudeMeters>
            <DistanceMeters>NAN</DistanceMeters>
          </Trackpoint>
          <Trackpoint>
            <Time>2022-09-22T12:02:10.000Z</Time>
            <Position>
              <LatitudeDegrees>49.51609105803072452545166015625</LatitudeDegrees>
              <LongitudeDegrees>20.59740780852735042572021484375</LongitudeDegrees>
            </Position>
            <AltitudeMeters>450.600006103515625</AltitudeMeters>
            <DistanceMeters>NAN</DistanceMeters>
          </Trackpoint>
          <Trackpoint>
            <Time>2022-09-22T12:02:11.000Z</Time>
            <Position>
              <LatitudeDegrees>49.5160720311105251312255859375</LatitudeDegrees>
              <LongitudeDegrees>20.5975130014121532440185546875</LongitudeDegrees>
            </Position>
            <AltitudeMeters>450.20001220703125</AltitudeMeters>
            <DistanceMeters>NAN</DistanceMeters>
          </Trackpoint>
          <Trackpoint>
            <Time>2022-09-22T12:02:13.000Z</Time>
            <Position>
              <LatitudeDegrees>49.516045711934566497802734375</LatitudeDegrees>
              <LongitudeDegrees>20.59771500527858734130859375</LongitudeDegrees>
            </Position>
            <AltitudeMeters>449.79998779296875</AltitudeMeters>
            <DistanceMeters>NAN</DistanceMeters>
          </Trackpoint>
          <Trackpoint>
            <Time>2022-09-22T12:02:14.000Z</Time>
            <Position>
              <LatitudeDegrees>49.51603573746979236602783203125</LatitudeDegrees>
              <LongitudeDegrees>20.5978251434862613677978515625</LongitudeDegrees>
            </Position>
            <AltitudeMeters>449.399993896484375</AltitudeMeters>
            <DistanceMeters>NAN</DistanceMeters>
          </Trackpoint>
          <Trackpoint>
            <Time>2022-09-22T12:02:16.000Z</Time>
            <Position>
              <LatitudeDegrees>49.51602383516728878021240234375</LatitudeDegrees>
              <LongitudeDegrees>20.59803879819810390472412109375</LongitudeDegrees>
            </Position>
            <AltitudeMeters>448</AltitudeMeters>
            <DistanceMeters>NAN</DistanceMeters>
          </Trackpoint>
          <Trackpoint>
            <Time>2022-09-22T12:02:17.000Z</Time>
            <Position>
              <LatitudeDegrees>49.51602123677730560302734375</LatitudeDegrees>
              <LongitudeDegrees>20.59814508073031902313232421875</LongitudeDegrees>
            </Position>
            <AltitudeMeters>447.600006103515625</AltitudeMeters>
            <DistanceMeters>NAN</DistanceMeters>
          </Trackpoint>
          <Trackpoint>
            <Time>2022-09-22T12:02:18.000Z</Time>
            <Position>
              <LatitudeDegrees>49.51601092703640460968017578125</LatitudeDegrees>
              <LongitudeDegrees>20.59825991280376911163330078125</LongitudeDegrees>
            </Position>
            <AltitudeMeters>446.79998779296875</AltitudeMeters>
            <DistanceMeters>NAN</DistanceMeters>
          </Trackpoint>
          <Trackpoint>
            <Time>2022-09-22T12:02:20.000Z</Time>
            <Position>
              <LatitudeDegrees>49.515989720821380615234375</LatitudeDegrees>
              <LongitudeDegrees>20.5984712205827236175537109375</LongitudeDegrees>
            </Position>
            <AltitudeMeters>445.79998779296875</AltitudeMeters>
            <DistanceMeters>NAN</DistanceMeters>
          </Trackpoint>
          <Trackpoint>
            <Time>2022-09-22T12:02:22.000Z</Time>
            <Position>
              <LatitudeDegrees>49.5159399323165416717529296875</LatitudeDegrees>
              <LongitudeDegrees>20.59871555306017398834228515625</LongitudeDegrees>
            </Position>
            <AltitudeMeters>444.600006103515625</AltitudeMeters>
            <DistanceMeters>NAN</DistanceMeters>
          </Trackpoint>
          <Trackpoint>
            <Time>2022-09-22T12:02:23.000Z</Time>
            <Position>
              <LatitudeDegrees>49.51592006720602512359619140625</LatitudeDegrees>
              <LongitudeDegrees>20.59882921166718006134033203125</LongitudeDegrees>
            </Position>
            <AltitudeMeters>443.79998779296875</AltitudeMeters>
            <DistanceMeters>NAN</DistanceMeters>
          </Trackpoint>
          <Trackpoint>
            <Time>2022-09-22T12:02:24.000Z</Time>
            <Position>
              <LatitudeDegrees>49.5159043930470943450927734375</LatitudeDegrees>
              <LongitudeDegrees>20.59893465600907802581787109375</LongitudeDegrees>
            </Position>
            <AltitudeMeters>443.20001220703125</AltitudeMeters>
            <DistanceMeters>NAN</DistanceMeters>
          </Trackpoint>
          <Trackpoint>
            <Time>2022-09-22T12:02:26.000Z</Time>
            <Position>
              <LatitudeDegrees>49.51586374081671237945556640625</LatitudeDegrees>
              <LongitudeDegrees>20.5991226620972156524658203125</LongitudeDegrees>
            </Position>
            <AltitudeMeters>442</AltitudeMeters>
            <DistanceMeters>NAN</DistanceMeters>
          </Trackpoint>
          <Trackpoint>
            <Time>2022-09-22T12:02:27.000Z</Time>
            <Position>
              <LatitudeDegrees>49.515826441347599029541015625</LatitudeDegrees>
              <LongitudeDegrees>20.59919499792158603668212890625</LongitudeDegrees>
            </Position>
            <AltitudeMeters>441.20001220703125</AltitudeMeters>
            <DistanceMeters>NAN</DistanceMeters>
          </Trackpoint>
          <Trackpoint>
            <Time>2022-09-22T12:02:28.000Z</Time>
            <Position>
              <LatitudeDegrees>49.51579785905778408050537109375</LatitudeDegrees>
              <LongitudeDegrees>20.599267669022083282470703125</LongitudeDegrees>
            </Position>
            <AltitudeMeters>440.600006103515625</AltitudeMeters>
            <DistanceMeters>NAN</DistanceMeters>
          </Trackpoint>
          <Trackpoint>
            <Time>2022-09-22T12:02:30.000Z</Time>
            <Position>
              <LatitudeDegrees>49.51576173305511474609375</LatitudeDegrees>
              <LongitudeDegrees>20.59940672479569911956787109375</LongitudeDegrees>
            </Position>
            <AltitudeMeters>439.399993896484375</AltitudeMeters>
            <DistanceMeters>NAN</DistanceMeters>
          </Trackpoint>
          <Trackpoint>
            <Time>2022-09-22T12:02:32.000Z</Time>
            <Position>
              <LatitudeDegrees>49.51571035198867321014404296875</LatitudeDegrees>
              <LongitudeDegrees>20.59955231845378875732421875</LongitudeDegrees>
            </Position>
            <AltitudeMeters>437.79998779296875</AltitudeMeters>
            <DistanceMeters>NAN</DistanceMeters>
          </Trackpoint>
          <Trackpoint>
            <Time>2022-09-22T12:02:34.000Z</Time>
            <Position>
              <LatitudeDegrees>49.515658132731914520263671875</LatitudeDegrees>
              <LongitudeDegrees>20.599719621241092681884765625</LongitudeDegrees>
            </Position>
            <AltitudeMeters>436.20001220703125</AltitudeMeters>
            <DistanceMeters>NAN</DistanceMeters>
          </Trackpoint>
          <Trackpoint>
            <Time>2022-09-22T12:02:36.000Z</Time>
            <Position>
              <LatitudeDegrees>49.51562066562473773956298828125</LatitudeDegrees>
              <LongitudeDegrees>20.59986856766045093536376953125</LongitudeDegrees>
            </Position>
            <AltitudeMeters>434.600006103515625</AltitudeMeters>
            <DistanceMeters>NAN</DistanceMeters>
          </Trackpoint>
          <Trackpoint>
            <Time>2022-09-22T12:02:37.000Z</Time>
            <Position>
              <LatitudeDegrees>49.51560792513191699981689453125</LatitudeDegrees>
              <LongitudeDegrees>20.599947609007358551025390625</LongitudeDegrees>
            </Position>
            <AltitudeMeters>434.20001220703125</AltitudeMeters>
            <DistanceMeters>NAN</DistanceMeters>
          </Trackpoint>
          <Trackpoint>
            <Time>2022-09-22T12:02:39.000Z</Time>
            <Position>
              <LatitudeDegrees>49.51557590626180171966552734375</LatitudeDegrees>
              <LongitudeDegrees>20.600099824368953704833984375</LongitudeDegrees>
            </Position>
            <AltitudeMeters>433</AltitudeMeters>
            <DistanceMeters>NAN</DistanceMeters>
          </Trackpoint>
          <Trackpoint>
            <Time>2022-09-22T12:02:41.000Z</Time>
            <Position>
              <LatitudeDegrees>49.5155565440654754638671875</LatitudeDegrees>
              <LongitudeDegrees>20.60026503168046474456787109375</LongitudeDegrees>
            </Position>
            <AltitudeMeters>432</AltitudeMeters>
            <DistanceMeters>NAN</DistanceMeters>
          </Trackpoint>
          <Trackpoint>
            <Time>2022-09-22T12:02:42.000Z</Time>
            <Position>
              <LatitudeDegrees>49.51556098647415637969970703125</LatitudeDegrees>
              <LongitudeDegrees>20.60035421513020992279052734375</LongitudeDegrees>
            </Position>
            <AltitudeMeters>431.399993896484375</AltitudeMeters>
            <DistanceMeters>NAN</DistanceMeters>
          </Trackpoint>
          <Trackpoint>
            <Time>2022-09-22T12:02:43.000Z</Time>
            <Position>
              <LatitudeDegrees>49.51556953601539134979248046875</LatitudeDegrees>
              <LongitudeDegrees>20.60044473968446254730224609375</LongitudeDegrees>
            </Position>
            <AltitudeMeters>430.399993896484375</AltitudeMeters>
            <DistanceMeters>NAN</DistanceMeters>
          </Trackpoint>
          <Trackpoint>
            <Time>2022-09-22T12:02:45.000Z</Time>
            <Position>
              <LatitudeDegrees>49.51557389460504055023193359375</LatitudeDegrees>
              <LongitudeDegrees>20.6006406247615814208984375</LongitudeDegrees>
            </Position>
            <AltitudeMeters>429</AltitudeMeters>
            <DistanceMeters>NAN</DistanceMeters>
          </Trackpoint>
          <Trackpoint>
            <Time>2022-09-22T12:02:47.000Z</Time>
            <Position>
              <LatitudeDegrees>49.5155530236661434173583984375</LatitudeDegrees>
              <LongitudeDegrees>20.60083466582000255584716796875</LongitudeDegrees>
            </Position>
            <AltitudeMeters>427.79998779296875</AltitudeMeters>
            <DistanceMeters>NAN</DistanceMeters>
          </Trackpoint>
          <Trackpoint>
            <Time>2022-09-22T12:02:49.000Z</Time>
            <Position>
              <LatitudeDegrees>49.515528716146945953369140625</LatitudeDegrees>
              <LongitudeDegrees>20.601043291389942169189453125</LongitudeDegrees>
            </Position>
            <AltitudeMeters>426.399993896484375</AltitudeMeters>
            <DistanceMeters>NAN</DistanceMeters>
          </Trackpoint>
          <Trackpoint>
            <Time>2022-09-22T12:02:50.000Z</Time>
            <Position>
              <LatitudeDegrees>49.5155211724340915679931640625</LatitudeDegrees>
              <LongitudeDegrees>20.60113842599093914031982421875</LongitudeDegrees>
            </Position>
            <AltitudeMeters>425.79998779296875</AltitudeMeters>
            <DistanceMeters>NAN</DistanceMeters>
          </Trackpoint>
          <Trackpoint>
            <Time>2022-09-22T12:02:51.000Z</Time>
            <Position>
              <LatitudeDegrees>49.5155158080160617828369140625</LatitudeDegrees>
              <LongitudeDegrees>20.601227693259716033935546875</LongitudeDegrees>
            </Position>
            <AltitudeMeters>425.399993896484375</AltitudeMeters>
            <DistanceMeters>NAN</DistanceMeters>
          </Trackpoint>
          <Trackpoint>
            <Time>2022-09-22T12:02:54.000Z</Time>
            <Position>
              <LatitudeDegrees>49.51549828983843326568603515625</LatitudeDegrees>
              <LongitudeDegrees>20.60143145732581615447998046875</LongitudeDegrees>
            </Position>
            <AltitudeMeters>424.399993896484375</AltitudeMeters>
            <DistanceMeters>NAN</DistanceMeters>
          </Trackpoint>
          <Trackpoint>
            <Time>2022-09-22T12:02:55.000Z</Time>
            <Position>
              <LatitudeDegrees>49.51549275778234004974365234375</LatitudeDegrees>
              <LongitudeDegrees>20.601478479802608489990234375</LongitudeDegrees>
            </Position>
            <AltitudeMeters>423.79998779296875</AltitudeMeters>
            <DistanceMeters>NAN</DistanceMeters>
          </Trackpoint>
          <Trackpoint>
            <Time>2022-09-22T12:02:56.000Z</Time>
            <Position>
              <LatitudeDegrees>49.51548152603209018707275390625</LatitudeDegrees>
              <LongitudeDegrees>20.6015239097177982330322265625</LongitudeDegrees>
            </Position>
            <AltitudeMeters>423.399993896484375</AltitudeMeters>
            <DistanceMeters>NAN</DistanceMeters>
          </Trackpoint>
          <Trackpoint>
            <Time>2022-09-22T12:02:57.000Z</Time>
            <Position>
              <LatitudeDegrees>49.51547716744244098663330078125</LatitudeDegrees>
              <LongitudeDegrees>20.6015762127935886383056640625</LongitudeDegrees>
            </Position>
            <AltitudeMeters>423</AltitudeMeters>
            <DistanceMeters>NAN</DistanceMeters>
          </Trackpoint>
          <Trackpoint>
            <Time>2022-09-22T12:02:58.000Z</Time>
            <Position>
              <LatitudeDegrees>49.51548269949853420257568359375</LatitudeDegrees>
              <LongitudeDegrees>20.6016598641872406005859375</LongitudeDegrees>
            </Position>
            <AltitudeMeters>422.600006103515625</AltitudeMeters>
            <DistanceMeters>NAN</DistanceMeters>
          </Trackpoint>
          <Trackpoint>
            <Time>2022-09-22T12:03:00.000Z</Time>
            <Position>
              <LatitudeDegrees>49.5154868066310882568359375</LatitudeDegrees>
              <LongitudeDegrees>20.60175214894115924835205078125</LongitudeDegrees>
            </Position>
            <AltitudeMeters>422</AltitudeMeters>
            <DistanceMeters>NAN</DistanceMeters>
          </Trackpoint>
          <Trackpoint>
            <Time>2022-09-22T12:03:02.000Z</Time>
            <Position>
              <LatitudeDegrees>49.51547850854694843292236328125</LatitudeDegrees>
              <LongitudeDegrees>20.60180612839758396148681640625</LongitudeDegrees>
            </Position>
            <AltitudeMeters>421.399993896484375</AltitudeMeters>
            <DistanceMeters>NAN</DistanceMeters>
          </Trackpoint>
          <Trackpoint>
            <Time>2022-09-22T12:03:04.000Z</Time>
            <Position>
              <LatitudeDegrees>49.51543592847883701324462890625</LatitudeDegrees>
              <LongitudeDegrees>20.60182708315551280975341796875</LongitudeDegrees>
            </Position>
            <AltitudeMeters>420.79998779296875</AltitudeMeters>
            <DistanceMeters>NAN</DistanceMeters>
          </Trackpoint>
          <Trackpoint>
            <Time>2022-09-22T12:03:07.000Z</Time>
            <Position>
              <LatitudeDegrees>49.51539628207683563232421875</LatitudeDegrees>
              <LongitudeDegrees>20.6017166934907436370849609375</LongitudeDegrees>
            </Position>
            <AltitudeMeters>420.399993896484375</AltitudeMeters>
            <DistanceMeters>NAN</DistanceMeters>
          </Trackpoint>
          <Trackpoint>
            <Time>2022-09-22T12:03:08.000Z</Time>
            <Position>
              <LatitudeDegrees>49.51539703644812107086181640625</LatitudeDegrees>
              <LongitudeDegrees>20.60169515199959278106689453125</LongitudeDegrees>
            </Position>
            <AltitudeMeters>420.20001220703125</AltitudeMeters>
            <DistanceMeters>NAN</DistanceMeters>
          </Trackpoint>
          <Trackpoint>
            <Time>2022-09-22T12:03:09.000Z</Time>
            <Position>
              <LatitudeDegrees>49.5153930969536304473876953125</LatitudeDegrees>
              <LongitudeDegrees>20.6016761250793933868408203125</LongitudeDegrees>
            </Position>
            <AltitudeMeters>420.20001220703125</AltitudeMeters>
            <DistanceMeters>NAN</DistanceMeters>
          </Trackpoint>
          <Trackpoint>
            <Time>2022-09-22T12:03:12.000Z</Time>
            <Position>
              <LatitudeDegrees>49.5153515227138996124267578125</LatitudeDegrees>
              <LongitudeDegrees>20.60161468572914600372314453125</LongitudeDegrees>
            </Position>
            <AltitudeMeters>420.20001220703125</AltitudeMeters>
            <DistanceMeters>NAN</DistanceMeters>
          </Trackpoint>
          <Trackpoint>
            <Time>2022-09-22T12:03:14.000Z</Time>
            <Position>
              <LatitudeDegrees>49.51533593237400054931640625</LatitudeDegrees>
              <LongitudeDegrees>20.60157336294651031494140625</LongitudeDegrees>
            </Position>
            <AltitudeMeters>420.20001220703125</AltitudeMeters>
            <DistanceMeters>NAN</DistanceMeters>
          </Trackpoint>
          <Trackpoint>
            <Time>2022-09-22T12:03:17.000Z</Time>
            <Position>
              <LatitudeDegrees>49.51528421603143215179443359375</LatitudeDegrees>
              <LongitudeDegrees>20.6015192158520221710205078125</LongitudeDegrees>
            </Position>
            <AltitudeMeters>420.399993896484375</AltitudeMeters>
            <DistanceMeters>NAN</DistanceMeters>
          </Trackpoint>
          <Trackpoint>
            <Time>2022-09-22T12:03:18.000Z</Time>
            <Position>
              <LatitudeDegrees>49.5152734033763408660888671875</LatitudeDegrees>
              <LongitudeDegrees>20.60150370933115482330322265625</LongitudeDegrees>
            </Position>
            <AltitudeMeters>420.600006103515625</AltitudeMeters>
            <DistanceMeters>NAN</DistanceMeters>
          </Trackpoint>
          <Trackpoint>
            <Time>2022-09-22T12:03:23.000Z</Time>
            <Position>
              <LatitudeDegrees>49.515181370079517364501953125</LatitudeDegrees>
              <LongitudeDegrees>20.60142089612782001495361328125</LongitudeDegrees>
            </Position>
            <AltitudeMeters>420.79998779296875</AltitudeMeters>
            <DistanceMeters>NAN</DistanceMeters>
          </Trackpoint>
          <Trackpoint>
            <Time>2022-09-22T12:03:27.000Z</Time>
            <Position>
              <LatitudeDegrees>49.515149183571338653564453125</LatitudeDegrees>
              <LongitudeDegrees>20.6013948284089565277099609375</LongitudeDegrees>
            </Position>
            <AltitudeMeters>421</AltitudeMeters>
            <DistanceMeters>NAN</DistanceMeters>
          </Trackpoint>
          <Trackpoint>
            <Time>2022-09-22T12:03:29.000Z</Time>
            <Position>
              <LatitudeDegrees>49.51514071784913539886474609375</LatitudeDegrees>
              <LongitudeDegrees>20.60139692388474941253662109375</LongitudeDegrees>
            </Position>
            <AltitudeMeters>421</AltitudeMeters>
            <DistanceMeters>NAN</DistanceMeters>
          </Trackpoint>
          <Trackpoint>
            <Time>2022-09-22T12:03:36.000Z</Time>
            <Position>
              <LatitudeDegrees>49.51514071784913539886474609375</LatitudeDegrees>
              <LongitudeDegrees>20.60139692388474941253662109375</LongitudeDegrees>
            </Position>
            <AltitudeMeters>420.600006103515625</AltitudeMeters>
            <DistanceMeters>NAN</DistanceMeters>
          </Trackpoint>
          <Trackpoint>
            <Time>2022-09-22T12:03:55.000Z</Time>
            <Position>
              <LatitudeDegrees>49.51514071784913539886474609375</LatitudeDegrees>
              <LongitudeDegrees>20.60139692388474941253662109375</LongitudeDegrees>
            </Position>
            <AltitudeMeters>421</AltitudeMeters>
            <DistanceMeters>NAN</DistanceMeters>
          </Trackpoint>
          <Trackpoint>
            <Time>2022-09-22T12:04:02.000Z</Time>
            <Position>
              <LatitudeDegrees>49.51514071784913539886474609375</LatitudeDegrees>
              <LongitudeDegrees>20.60139692388474941253662109375</LongitudeDegrees>
            </Position>
            <AltitudeMeters>421</AltitudeMeters>
            <DistanceMeters>NAN</DistanceMeters>
          </Trackpoint>
          <Trackpoint>
            <Time>2022-09-22T12:04:04.000Z</Time>
            <Position>
              <LatitudeDegrees>49.51514071784913539886474609375</LatitudeDegrees>
              <LongitudeDegrees>20.60139692388474941253662109375</LongitudeDegrees>
            </Position>
            <AltitudeMeters>421</AltitudeMeters>
            <DistanceMeters>NAN</DistanceMeters>
          </Trackpoint>
          <Trackpoint>
            <Time>2022-09-22T12:04:10.000Z</Time>
            <Position>
              <LatitudeDegrees>49.51514071784913539886474609375</LatitudeDegrees>
              <LongitudeDegrees>20.60139692388474941253662109375</LongitudeDegrees>
            </Position>
            <AltitudeMeters>420.79998779296875</AltitudeMeters>
            <DistanceMeters>NAN</DistanceMeters>
          </Trackpoint>
          <Trackpoint>
            <Time>2022-09-22T12:04:26.000Z</Time>
            <Position>
              <LatitudeDegrees>49.51510601677000522613525390625</LatitudeDegrees>
              <LongitudeDegrees>20.60134696774184703826904296875</LongitudeDegrees>
            </Position>
            <AltitudeMeters>421</AltitudeMeters>
            <DistanceMeters>NAN</DistanceMeters>
          </Trackpoint>
          <Trackpoint>
            <Time>2022-09-22T12:04:33.000Z</Time>
            <Position>
              <LatitudeDegrees>49.51504114083945751190185546875</LatitudeDegrees>
              <LongitudeDegrees>20.6012816727161407470703125</LongitudeDegrees>
            </Position>
            <AltitudeMeters>421.20001220703125</AltitudeMeters>
            <DistanceMeters>NAN</DistanceMeters>
          </Trackpoint>
          <Trackpoint>
            <Time>2022-09-22T12:04:34.000Z</Time>
            <Position>
              <LatitudeDegrees>49.51502370648086071014404296875</LatitudeDegrees>
              <LongitudeDegrees>20.60127052478492259979248046875</LongitudeDegrees>
            </Position>
            <AltitudeMeters>421.20001220703125</AltitudeMeters>
            <DistanceMeters>NAN</DistanceMeters>
          </Trackpoint>
          <Trackpoint>
            <Time>2022-09-22T12:04:39.000Z</Time>
            <Position>
              <LatitudeDegrees>49.5149793662130832672119140625</LatitudeDegrees>
              <LongitudeDegrees>20.60122945345938205718994140625</LongitudeDegrees>
            </Position>
            <AltitudeMeters>421.399993896484375</AltitudeMeters>
            <DistanceMeters>NAN</DistanceMeters>
          </Trackpoint>
          <Trackpoint>
            <Time>2022-09-22T12:04:48.000Z</Time>
            <Position>
              <LatitudeDegrees>49.51492195017635822296142578125</LatitudeDegrees>
              <LongitudeDegrees>20.601154267787933349609375</LongitudeDegrees>
            </Position>
            <AltitudeMeters>421.79998779296875</AltitudeMeters>
            <DistanceMeters>NAN</DistanceMeters>
          </Trackpoint>
          <Trackpoint>
            <Time>2022-09-22T12:04:51.000Z</Time>
            <Position>
              <LatitudeDegrees>49.5148988999426364898681640625</LatitudeDegrees>
              <LongitudeDegrees>20.60113213956356048583984375</LongitudeDegrees>
            </Position>
            <AltitudeMeters>422.20001220703125</AltitudeMeters>
            <DistanceMeters>NAN</DistanceMeters>
          </Trackpoint>
          <Trackpoint>
            <Time>2022-09-22T12:04:54.000Z</Time>
            <Position>
              <LatitudeDegrees>49.5148851536214351654052734375</LatitudeDegrees>
              <LongitudeDegrees>20.6010950915515422821044921875</LongitudeDegrees>
            </Position>
            <AltitudeMeters>422.20001220703125</AltitudeMeters>
            <DistanceMeters>NAN</DistanceMeters>
          </Trackpoint>
          <Trackpoint>
            <Time>2022-09-22T12:04:56.000Z</Time>
            <Position>
              <LatitudeDegrees>49.51487853191792964935302734375</LatitudeDegrees>
              <LongitudeDegrees>20.6010773219168186187744140625</LongitudeDegrees>
            </Position>
            <AltitudeMeters>422.600006103515625</AltitudeMeters>
            <DistanceMeters>NAN</DistanceMeters>
          </Trackpoint>
          <Trackpoint>
            <Time>2022-09-22T12:05:02.000Z</Time>
            <Position>
              <LatitudeDegrees>49.514836370944976806640625</LatitudeDegrees>
              <LongitudeDegrees>20.60102912597358226776123046875</LongitudeDegrees>
            </Position>
            <AltitudeMeters>423</AltitudeMeters>
            <DistanceMeters>NAN</DistanceMeters>
          </Trackpoint>
          <Trackpoint>
            <Time>2022-09-22T12:05:07.000Z</Time>
            <Position>
              <LatitudeDegrees>49.51481499709188938140869140625</LatitudeDegrees>
              <LongitudeDegrees>20.60099911876022815704345703125</LongitudeDegrees>
            </Position>
            <AltitudeMeters>423.399993896484375</AltitudeMeters>
            <DistanceMeters>NAN</DistanceMeters>
          </Trackpoint>
          <Trackpoint>
            <Time>2022-09-22T12:05:08.000Z</Time>
            <Position>
              <LatitudeDegrees>49.51480795629322528839111328125</LatitudeDegrees>
              <LongitudeDegrees>20.6009851209819316864013671875</LongitudeDegrees>
            </Position>
            <AltitudeMeters>423.600006103515625</AltitudeMeters>
            <DistanceMeters>NAN</DistanceMeters>
          </Trackpoint>
          <Trackpoint>
            <Time>2022-09-22T12:05:16.000Z</Time>
            <Position>
              <LatitudeDegrees>49.5147500373423099517822265625</LatitudeDegrees>
              <LongitudeDegrees>20.60093424282968044281005859375</LongitudeDegrees>
            </Position>
            <AltitudeMeters>424.20001220703125</AltitudeMeters>
            <DistanceMeters>NAN</DistanceMeters>
          </Trackpoint>
          <Trackpoint>
            <Time>2022-09-22T12:05:18.000Z</Time>
            <Position>
              <LatitudeDegrees>49.51474760659039020538330078125</LatitudeDegrees>
              <LongitudeDegrees>20.60093021951615810394287109375</LongitudeDegrees>
            </Position>
            <AltitudeMeters>424.399993896484375</AltitudeMeters>
            <DistanceMeters>NAN</DistanceMeters>
          </Trackpoint>
          <Trackpoint>
            <Time>2022-09-22T12:05:19.000Z</Time>
            <Position>
              <LatitudeDegrees>49.51474760659039020538330078125</LatitudeDegrees>
              <LongitudeDegrees>20.60093021951615810394287109375</LongitudeDegrees>
            </Position>
            <AltitudeMeters>424.399993896484375</AltitudeMeters>
            <DistanceMeters>NAN</DistanceMeters>
          </Trackpoint>
          <Trackpoint>
            <Time>2022-09-22T12:05:25.000Z</Time>
            <Position>
              <LatitudeDegrees>49.51474123634397983551025390625</LatitudeDegrees>
              <LongitudeDegrees>20.60090473853051662445068359375</LongitudeDegrees>
            </Position>
            <AltitudeMeters>424.399993896484375</AltitudeMeters>
            <DistanceMeters>NAN</DistanceMeters>
          </Trackpoint>
          <Trackpoint>
            <Time>2022-09-22T12:05:28.000Z</Time>
            <Position>
              <LatitudeDegrees>49.51472246088087558746337890625</LatitudeDegrees>
              <LongitudeDegrees>20.60086391866207122802734375</LongitudeDegrees>
            </Position>
            <AltitudeMeters>424.600006103515625</AltitudeMeters>
            <DistanceMeters>NAN</DistanceMeters>
          </Trackpoint>
          <Trackpoint>
            <Time>2022-09-22T12:05:31.000Z</Time>
            <Position>
              <LatitudeDegrees>49.51471634209156036376953125</LatitudeDegrees>
              <LongitudeDegrees>20.600830055773258209228515625</LongitudeDegrees>
            </Position>
            <AltitudeMeters>424.79998779296875</AltitudeMeters>
            <DistanceMeters>NAN</DistanceMeters>
          </Trackpoint>
          <Trackpoint>
            <Time>2022-09-22T12:05:34.000Z</Time>
            <Position>
              <LatitudeDegrees>49.51470150612294673919677734375</LatitudeDegrees>
              <LongitudeDegrees>20.6008154712617397308349609375</LongitudeDegrees>
            </Position>
            <AltitudeMeters>425.20001220703125</AltitudeMeters>
            <DistanceMeters>NAN</DistanceMeters>
          </Trackpoint>
          <Trackpoint>
            <Time>2022-09-22T12:05:35.000Z</Time>
            <Position>
              <LatitudeDegrees>49.5146933756768703460693359375</LatitudeDegrees>
              <LongitudeDegrees>20.6008074246346950531005859375</LongitudeDegrees>
            </Position>
            <AltitudeMeters>425.20001220703125</AltitudeMeters>
            <DistanceMeters>NAN</DistanceMeters>
          </Trackpoint>
          <Trackpoint>
            <Time>2022-09-22T12:05:37.000Z</Time>
            <Position>
              <LatitudeDegrees>49.51467853970825672149658203125</LatitudeDegrees>
              <LongitudeDegrees>20.60078890062868595123291015625</LongitudeDegrees>
            </Position>
            <AltitudeMeters>425.20001220703125</AltitudeMeters>
            <DistanceMeters>NAN</DistanceMeters>
          </Trackpoint>
          <Trackpoint>
            <Time>2022-09-22T12:05:39.000Z</Time>
            <Position>
              <LatitudeDegrees>49.51466764323413372039794921875</LatitudeDegrees>
              <LongitudeDegrees>20.6007769145071506500244140625</LongitudeDegrees>
            </Position>
            <AltitudeMeters>425.399993896484375</AltitudeMeters>
            <DistanceMeters>NAN</DistanceMeters>
          </Trackpoint>
          <Trackpoint>
            <Time>2022-09-22T12:05:44.000Z</Time>
            <Position>
              <LatitudeDegrees>49.514664374291896820068359375</LatitudeDegrees>
              <LongitudeDegrees>20.6007339991629123687744140625</LongitudeDegrees>
            </Position>
            <AltitudeMeters>425.79998779296875</AltitudeMeters>
            <DistanceMeters>NAN</DistanceMeters>
          </Trackpoint>
          <Trackpoint>
            <Time>2022-09-22T12:05:49.000Z</Time>
            <Position>
              <LatitudeDegrees>49.5146419107913970947265625</LatitudeDegrees>
              <LongitudeDegrees>20.60069854371249675750732421875</LongitudeDegrees>
            </Position>
            <AltitudeMeters>426.20001220703125</AltitudeMeters>
            <DistanceMeters>NAN</DistanceMeters>
          </Trackpoint>
          <Trackpoint>
            <Time>2022-09-22T12:05:55.000Z</Time>
            <Position>
              <LatitudeDegrees>49.5146338641643524169921875</LatitudeDegrees>
              <LongitudeDegrees>20.600681193172931671142578125</LongitudeDegrees>
            </Position>
            <AltitudeMeters>426.399993896484375</AltitudeMeters>
            <DistanceMeters>NAN</DistanceMeters>
          </Trackpoint>
          <Trackpoint>
            <Time>2022-09-22T12:06:02.000Z</Time>
            <Position>
              <LatitudeDegrees>49.5145894400775432586669921875</LatitudeDegrees>
              <LongitudeDegrees>20.600617490708827972412109375</LongitudeDegrees>
            </Position>
            <AltitudeMeters>427</AltitudeMeters>
            <DistanceMeters>NAN</DistanceMeters>
          </Trackpoint>
          <Trackpoint>
            <Time>2022-09-22T12:06:09.000Z</Time>
            <Position>
              <LatitudeDegrees>49.51455147005617618560791015625</LatitudeDegrees>
              <LongitudeDegrees>20.60056074522435665130615234375</LongitudeDegrees>
            </Position>
            <AltitudeMeters>427.399993896484375</AltitudeMeters>
            <DistanceMeters>NAN</DistanceMeters>
          </Trackpoint>
          <Trackpoint>
            <Time>2022-09-22T12:06:19.000Z</Time>
            <Position>
              <LatitudeDegrees>49.5145158469676971435546875</LatitudeDegrees>
              <LongitudeDegrees>20.60053174383938312530517578125</LongitudeDegrees>
            </Position>
            <AltitudeMeters>428</AltitudeMeters>
            <DistanceMeters>NAN</DistanceMeters>
          </Trackpoint>
          <Trackpoint>
            <Time>2022-09-22T12:06:23.000Z</Time>
            <Position>
              <LatitudeDegrees>49.51450235210359096527099609375</LatitudeDegrees>
              <LongitudeDegrees>20.60051514767110347747802734375</LongitudeDegrees>
            </Position>
            <AltitudeMeters>428.20001220703125</AltitudeMeters>
            <DistanceMeters>NAN</DistanceMeters>
          </Trackpoint>
          <Trackpoint>
            <Time>2022-09-22T12:06:27.000Z</Time>
            <Position>
              <LatitudeDegrees>49.51445273123681545257568359375</LatitudeDegrees>
              <LongitudeDegrees>20.6004731543362140655517578125</LongitudeDegrees>
            </Position>
            <AltitudeMeters>428.600006103515625</AltitudeMeters>
            <DistanceMeters>NAN</DistanceMeters>
          </Trackpoint>
          <Trackpoint>
            <Time>2022-09-22T12:06:28.000Z</Time>
            <Position>
              <LatitudeDegrees>49.514441080391407012939453125</LatitudeDegrees>
              <LongitudeDegrees>20.600459575653076171875</LongitudeDegrees>
            </Position>
            <AltitudeMeters>428.600006103515625</AltitudeMeters>
            <DistanceMeters>NAN</DistanceMeters>
          </Trackpoint>
          <Trackpoint>
            <Time>2022-09-22T12:06:36.000Z</Time>
            <Position>
              <LatitudeDegrees>49.51443177647888660430908203125</LatitudeDegrees>
              <LongitudeDegrees>20.60040232725441455841064453125</LongitudeDegrees>
            </Position>
            <AltitudeMeters>429</AltitudeMeters>
            <DistanceMeters>NAN</DistanceMeters>
          </Trackpoint>
          <Trackpoint>
            <Time>2022-09-22T12:06:43.000Z</Time>
            <Position>
              <LatitudeDegrees>49.51442792080342769622802734375</LatitudeDegrees>
              <LongitudeDegrees>20.60038371942937374114990234375</LongitudeDegrees>
            </Position>
            <AltitudeMeters>429.600006103515625</AltitudeMeters>
            <DistanceMeters>NAN</DistanceMeters>
          </Trackpoint>
          <Trackpoint>
            <Time>2022-09-22T12:06:47.000Z</Time>
            <Position>
              <LatitudeDegrees>49.51441995799541473388671875</LatitudeDegrees>
              <LongitudeDegrees>20.6003697216510772705078125</LongitudeDegrees>
            </Position>
            <AltitudeMeters>429.79998779296875</AltitudeMeters>
            <DistanceMeters>NAN</DistanceMeters>
          </Trackpoint>
          <Trackpoint>
            <Time>2022-09-22T12:06:49.000Z</Time>
            <Position>
              <LatitudeDegrees>49.51441995799541473388671875</LatitudeDegrees>
              <LongitudeDegrees>20.6003697216510772705078125</LongitudeDegrees>
            </Position>
            <AltitudeMeters>430</AltitudeMeters>
            <DistanceMeters>NAN</DistanceMeters>
          </Trackpoint>
          <Trackpoint>
            <Time>2022-09-22T12:06:59.000Z</Time>
            <Position>
              <LatitudeDegrees>49.514412581920623779296875</LatitudeDegrees>
              <LongitudeDegrees>20.600348599255084991455078125</LongitudeDegrees>
            </Position>
            <AltitudeMeters>430.600006103515625</AltitudeMeters>
            <DistanceMeters>NAN</DistanceMeters>
          </Trackpoint>
          <Trackpoint>
            <Time>2022-09-22T12:07:02.000Z</Time>
            <Position>
              <LatitudeDegrees>49.514412581920623779296875</LatitudeDegrees>
              <LongitudeDegrees>20.600348599255084991455078125</LongitudeDegrees>
            </Position>
            <AltitudeMeters>430.600006103515625</AltitudeMeters>
            <DistanceMeters>NAN</DistanceMeters>
          </Trackpoint>
          <Trackpoint>
            <Time>2022-09-22T12:07:03.000Z</Time>
            <Position>
              <LatitudeDegrees>49.514412581920623779296875</LatitudeDegrees>
              <LongitudeDegrees>20.600348599255084991455078125</LongitudeDegrees>
            </Position>
            <AltitudeMeters>430.79998779296875</AltitudeMeters>
            <DistanceMeters>NAN</DistanceMeters>
          </Trackpoint>
          <Trackpoint>
            <Time>2022-09-22T12:07:05.000Z</Time>
            <Position>
              <LatitudeDegrees>49.514412581920623779296875</LatitudeDegrees>
              <LongitudeDegrees>20.6003477610647678375244140625</LongitudeDegrees>
            </Position>
            <AltitudeMeters>431</AltitudeMeters>
            <DistanceMeters>NAN</DistanceMeters>
          </Trackpoint>
          <Trackpoint>
            <Time>2022-09-22T12:07:07.000Z</Time>
            <Position>
              <LatitudeDegrees>49.514412581920623779296875</LatitudeDegrees>
              <LongitudeDegrees>20.6003477610647678375244140625</LongitudeDegrees>
            </Position>
            <AltitudeMeters>431</AltitudeMeters>
            <DistanceMeters>NAN</DistanceMeters>
          </Trackpoint>
          <Trackpoint>
            <Time>2022-09-22T12:07:09.000Z</Time>
            <Position>
              <LatitudeDegrees>49.51440227217972278594970703125</LatitudeDegrees>
              <LongitudeDegrees>20.60033552348613739013671875</LongitudeDegrees>
            </Position>
            <AltitudeMeters>431.20001220703125</AltitudeMeters>
            <DistanceMeters>NAN</DistanceMeters>
          </Trackpoint>
          <Trackpoint>
            <Time>2022-09-22T12:07:11.000Z</Time>
            <Position>
              <LatitudeDegrees>49.514392800629138946533203125</LatitudeDegrees>
              <LongitudeDegrees>20.60031666420400142669677734375</LongitudeDegrees>
            </Position>
            <AltitudeMeters>431.399993896484375</AltitudeMeters>
            <DistanceMeters>NAN</DistanceMeters>
          </Trackpoint>
          <Trackpoint>
            <Time>2022-09-22T12:07:15.000Z</Time>
            <Position>
              <LatitudeDegrees>49.5143859274685382843017578125</LatitudeDegrees>
              <LongitudeDegrees>20.6002843938767910003662109375</LongitudeDegrees>
            </Position>
            <AltitudeMeters>431.600006103515625</AltitudeMeters>
            <DistanceMeters>NAN</DistanceMeters>
          </Trackpoint>
          <Trackpoint>
            <Time>2022-09-22T12:07:22.000Z</Time>
            <Position>
              <LatitudeDegrees>49.51437880285084247589111328125</LatitudeDegrees>
              <LongitudeDegrees>20.60025866143405437469482421875</LongitudeDegrees>
            </Position>
            <AltitudeMeters>432.20001220703125</AltitudeMeters>
            <DistanceMeters>NAN</DistanceMeters>
          </Trackpoint>
          <Trackpoint>
            <Time>2022-09-22T12:07:28.000Z</Time>
            <Position>
              <LatitudeDegrees>49.51435969211161136627197265625</LatitudeDegrees>
              <LongitudeDegrees>20.6002146564424037933349609375</LongitudeDegrees>
            </Position>
            <AltitudeMeters>432.600006103515625</AltitudeMeters>
            <DistanceMeters>NAN</DistanceMeters>
          </Trackpoint>
          <Trackpoint>
            <Time>2022-09-22T12:07:42.000Z</Time>
            <Position>
              <LatitudeDegrees>49.51432717032730579376220703125</LatitudeDegrees>
              <LongitudeDegrees>20.60008683241903781890869140625</LongitudeDegrees>
            </Position>
            <AltitudeMeters>433.600006103515625</AltitudeMeters>
            <DistanceMeters>NAN</DistanceMeters>
          </Trackpoint>
          <Trackpoint>
            <Time>2022-09-22T12:07:44.000Z</Time>
            <Position>
              <LatitudeDegrees>49.514320380985736846923828125</LatitudeDegrees>
              <LongitudeDegrees>20.60006336309015750885009765625</LongitudeDegrees>
            </Position>
            <AltitudeMeters>433.79998779296875</AltitudeMeters>
            <DistanceMeters>NAN</DistanceMeters>
          </Trackpoint>
          <Trackpoint>
            <Time>2022-09-22T12:07:47.000Z</Time>
            <Position>
              <LatitudeDegrees>49.51431007124483585357666015625</LatitudeDegrees>
              <LongitudeDegrees>20.60002815909683704376220703125</LongitudeDegrees>
            </Position>
            <AltitudeMeters>433.79998779296875</AltitudeMeters>
            <DistanceMeters>NAN</DistanceMeters>
          </Trackpoint>
          <Trackpoint>
            <Time>2022-09-22T12:07:52.000Z</Time>
            <Position>
              <LatitudeDegrees>49.51431342400610446929931640625</LatitudeDegrees>
              <LongitudeDegrees>20.60001089237630367279052734375</LongitudeDegrees>
            </Position>
            <AltitudeMeters>434</AltitudeMeters>
            <DistanceMeters>NAN</DistanceMeters>
          </Trackpoint>
          <Trackpoint>
            <Time>2022-09-22T12:07:57.000Z</Time>
            <Position>
              <LatitudeDegrees>49.5143145136535167694091796875</LatitudeDegrees>
              <LongitudeDegrees>20.59999815188348293304443359375</LongitudeDegrees>
            </Position>
            <AltitudeMeters>434.20001220703125</AltitudeMeters>
            <DistanceMeters>NAN</DistanceMeters>
          </Trackpoint>
          <Trackpoint>
            <Time>2022-09-22T12:07:58.000Z</Time>
            <Position>
              <LatitudeDegrees>49.51431275345385074615478515625</LatitudeDegrees>
              <LongitudeDegrees>20.5999910272657871246337890625</LongitudeDegrees>
            </Position>
            <AltitudeMeters>434.20001220703125</AltitudeMeters>
            <DistanceMeters>NAN</DistanceMeters>
          </Trackpoint>
          <Trackpoint>
            <Time>2022-09-22T12:08:00.000Z</Time>
            <Position>
              <LatitudeDegrees>49.514310322701930999755859375</LatitudeDegrees>
              <LongitudeDegrees>20.59998574666678905487060546875</LongitudeDegrees>
            </Position>
            <AltitudeMeters>434.399993896484375</AltitudeMeters>
            <DistanceMeters>NAN</DistanceMeters>
          </Trackpoint>
          <Trackpoint>
            <Time>2022-09-22T12:08:03.000Z</Time>
            <Position>
              <LatitudeDegrees>49.514278136193752288818359375</LatitudeDegrees>
              <LongitudeDegrees>20.59992087073624134063720703125</LongitudeDegrees>
            </Position>
            <AltitudeMeters>434.600006103515625</AltitudeMeters>
            <DistanceMeters>NAN</DistanceMeters>
          </Trackpoint>
          <Trackpoint>
            <Time>2022-09-22T12:08:04.000Z</Time>
            <Position>
              <LatitudeDegrees>49.51426615007221698760986328125</LatitudeDegrees>
              <LongitudeDegrees>20.59990108944475650787353515625</LongitudeDegrees>
            </Position>
            <AltitudeMeters>434.79998779296875</AltitudeMeters>
            <DistanceMeters>NAN</DistanceMeters>
          </Trackpoint>
          <Trackpoint>
            <Time>2022-09-22T12:08:10.000Z</Time>
            <Position>
              <LatitudeDegrees>49.51421351172029972076416015625</LatitudeDegrees>
              <LongitudeDegrees>20.5998304300010204315185546875</LongitudeDegrees>
            </Position>
            <AltitudeMeters>435.20001220703125</AltitudeMeters>
            <DistanceMeters>NAN</DistanceMeters>
          </Trackpoint>
          <Trackpoint>
            <Time>2022-09-22T12:08:19.000Z</Time>
            <Position>
              <LatitudeDegrees>49.51417026109993457794189453125</LatitudeDegrees>
              <LongitudeDegrees>20.59974216856062412261962890625</LongitudeDegrees>
            </Position>
            <AltitudeMeters>435.79998779296875</AltitudeMeters>
            <DistanceMeters>NAN</DistanceMeters>
          </Trackpoint>
          <Trackpoint>
            <Time>2022-09-22T12:08:21.000Z</Time>
            <Position>
              <LatitudeDegrees>49.5141685009002685546875</LatitudeDegrees>
              <LongitudeDegrees>20.59971861541271209716796875</LongitudeDegrees>
            </Position>
            <AltitudeMeters>436.20001220703125</AltitudeMeters>
            <DistanceMeters>NAN</DistanceMeters>
          </Trackpoint>
          <Trackpoint>
            <Time>2022-09-22T12:08:29.000Z</Time>
            <Position>
              <LatitudeDegrees>49.5141029544174671173095703125</LatitudeDegrees>
              <LongitudeDegrees>20.59964275918900966644287109375</LongitudeDegrees>
            </Position>
            <AltitudeMeters>436.600006103515625</AltitudeMeters>
            <DistanceMeters>NAN</DistanceMeters>
          </Trackpoint>
          <Trackpoint>
            <Time>2022-09-22T12:08:30.000Z</Time>
            <Position>
              <LatitudeDegrees>49.514097757637500762939453125</LatitudeDegrees>
              <LongitudeDegrees>20.59963203035295009613037109375</LongitudeDegrees>
            </Position>
            <AltitudeMeters>436.79998779296875</AltitudeMeters>
            <DistanceMeters>NAN</DistanceMeters>
          </Trackpoint>
          <Trackpoint>
            <Time>2022-09-22T12:08:32.000Z</Time>
            <Position>
              <LatitudeDegrees>49.5140892080962657928466796875</LatitudeDegrees>
              <LongitudeDegrees>20.5996118299663066864013671875</LongitudeDegrees>
            </Position>
            <AltitudeMeters>436.79998779296875</AltitudeMeters>
            <DistanceMeters>NAN</DistanceMeters>
          </Trackpoint>
          <Trackpoint>
            <Time>2022-09-22T12:08:38.000Z</Time>
            <Position>
              <LatitudeDegrees>49.51407554559409618377685546875</LatitudeDegrees>
              <LongitudeDegrees>20.5995709262788295745849609375</LongitudeDegrees>
            </Position>
            <AltitudeMeters>437.399993896484375</AltitudeMeters>
            <DistanceMeters>NAN</DistanceMeters>
          </Trackpoint>
          <Trackpoint>
            <Time>2022-09-22T12:08:44.000Z</Time>
            <Position>
              <LatitudeDegrees>49.51406280510127544403076171875</LatitudeDegrees>
              <LongitudeDegrees>20.5995409190654754638671875</LongitudeDegrees>
            </Position>
            <AltitudeMeters>438</AltitudeMeters>
            <DistanceMeters>NAN</DistanceMeters>
          </Trackpoint>
          <Trackpoint>
            <Time>2022-09-22T12:08:48.000Z</Time>
            <Position>
              <LatitudeDegrees>49.51404444873332977294921875</LatitudeDegrees>
              <LongitudeDegrees>20.59949909336864948272705078125</LongitudeDegrees>
            </Position>
            <AltitudeMeters>438.20001220703125</AltitudeMeters>
            <DistanceMeters>NAN</DistanceMeters>
          </Trackpoint>
          <Trackpoint>
            <Time>2022-09-22T12:08:55.000Z</Time>
            <Position>
              <LatitudeDegrees>49.5140278525650501251220703125</LatitudeDegrees>
              <LongitudeDegrees>20.59945986606180667877197265625</LongitudeDegrees>
            </Position>
            <AltitudeMeters>439</AltitudeMeters>
            <DistanceMeters>NAN</DistanceMeters>
          </Trackpoint>
          <Trackpoint>
            <Time>2022-09-22T12:09:04.000Z</Time>
            <Position>
              <LatitudeDegrees>49.51401251368224620819091796875</LatitudeDegrees>
              <LongitudeDegrees>20.59943237341940402984619140625</LongitudeDegrees>
            </Position>
            <AltitudeMeters>439.600006103515625</AltitudeMeters>
            <DistanceMeters>NAN</DistanceMeters>
          </Trackpoint>
          <Trackpoint>
            <Time>2022-09-22T12:09:10.000Z</Time>
            <Position>
              <LatitudeDegrees>49.51399155892431735992431640625</LatitudeDegrees>
              <LongitudeDegrees>20.59940555132925510406494140625</LongitudeDegrees>
            </Position>
            <AltitudeMeters>439.79998779296875</AltitudeMeters>
            <DistanceMeters>NAN</DistanceMeters>
          </Trackpoint>
          <Trackpoint>
            <Time>2022-09-22T12:09:14.000Z</Time>
            <Position>
              <LatitudeDegrees>49.51397328637540340423583984375</LatitudeDegrees>
              <LongitudeDegrees>20.59937772341072559356689453125</LongitudeDegrees>
            </Position>
            <AltitudeMeters>440.20001220703125</AltitudeMeters>
            <DistanceMeters>NAN</DistanceMeters>
          </Trackpoint>
          <Trackpoint>
            <Time>2022-09-22T12:09:16.000Z</Time>
            <Position>
              <LatitudeDegrees>49.51397328637540340423583984375</LatitudeDegrees>
              <LongitudeDegrees>20.59937772341072559356689453125</LongitudeDegrees>
            </Position>
            <AltitudeMeters>440.20001220703125</AltitudeMeters>
            <DistanceMeters>NAN</DistanceMeters>
          </Trackpoint>
          <Trackpoint>
            <Time>2022-09-22T12:09:23.000Z</Time>
            <Position>
              <LatitudeDegrees>49.513944871723651885986328125</LatitudeDegrees>
              <LongitudeDegrees>20.59933916665613651275634765625</LongitudeDegrees>
            </Position>
            <AltitudeMeters>440.79998779296875</AltitudeMeters>
            <DistanceMeters>NAN</DistanceMeters>
          </Trackpoint>
          <Trackpoint>
            <Time>2022-09-22T12:09:26.000Z</Time>
            <Position>
              <LatitudeDegrees>49.51392785646021366119384765625</LatitudeDegrees>
              <LongitudeDegrees>20.599319636821746826171875</LongitudeDegrees>
            </Position>
            <AltitudeMeters>441</AltitudeMeters>
            <DistanceMeters>NAN</DistanceMeters>
          </Trackpoint>
          <Trackpoint>
            <Time>2022-09-22T12:09:27.000Z</Time>
            <Position>
              <LatitudeDegrees>49.51392785646021366119384765625</LatitudeDegrees>
              <LongitudeDegrees>20.599319636821746826171875</LongitudeDegrees>
            </Position>
            <AltitudeMeters>441.20001220703125</AltitudeMeters>
            <DistanceMeters>NAN</DistanceMeters>
          </Trackpoint>
          <Trackpoint>
            <Time>2022-09-22T12:09:32.000Z</Time>
            <Position>
              <LatitudeDegrees>49.51392785646021366119384765625</LatitudeDegrees>
              <LongitudeDegrees>20.599319636821746826171875</LongitudeDegrees>
            </Position>
            <AltitudeMeters>441.20001220703125</AltitudeMeters>
            <DistanceMeters>NAN</DistanceMeters>
          </Trackpoint>
          <Trackpoint>
            <Time>2022-09-22T12:09:33.000Z</Time>
            <Position>
              <LatitudeDegrees>49.51392785646021366119384765625</LatitudeDegrees>
              <LongitudeDegrees>20.599319636821746826171875</LongitudeDegrees>
            </Position>
            <AltitudeMeters>441.20001220703125</AltitudeMeters>
            <DistanceMeters>NAN</DistanceMeters>
          </Trackpoint>
          <Trackpoint>
            <Time>2022-09-22T12:09:45.000Z</Time>
            <Position>
              <LatitudeDegrees>49.5139230787754058837890625</LatitudeDegrees>
              <LongitudeDegrees>20.59930044226348400115966796875</LongitudeDegrees>
            </Position>
            <AltitudeMeters>442.20001220703125</AltitudeMeters>
            <DistanceMeters>NAN</DistanceMeters>
          </Trackpoint>
          <Trackpoint>
            <Time>2022-09-22T12:09:55.000Z</Time>
            <Position>
              <LatitudeDegrees>49.51388997025787830352783203125</LatitudeDegrees>
              <LongitudeDegrees>20.59921578504145145416259765625</LongitudeDegrees>
            </Position>
            <AltitudeMeters>443.399993896484375</AltitudeMeters>
            <DistanceMeters>NAN</DistanceMeters>
          </Trackpoint>
          <Trackpoint>
            <Time>2022-09-22T12:10:02.000Z</Time>
            <Position>
              <LatitudeDegrees>49.51386365108191967010498046875</LatitudeDegrees>
              <LongitudeDegrees>20.5991471372544765472412109375</LongitudeDegrees>
            </Position>
            <AltitudeMeters>444</AltitudeMeters>
            <DistanceMeters>NAN</DistanceMeters>
          </Trackpoint>
          <Trackpoint>
            <Time>2022-09-22T12:10:09.000Z</Time>
            <Position>
              <LatitudeDegrees>49.51383967883884906768798828125</LatitudeDegrees>
              <LongitudeDegrees>20.59911302290856838226318359375</LongitudeDegrees>
            </Position>
            <AltitudeMeters>444.399993896484375</AltitudeMeters>
            <DistanceMeters>NAN</DistanceMeters>
          </Trackpoint>
          <Trackpoint>
            <Time>2022-09-22T12:10:20.000Z</Time>
            <Position>
              <LatitudeDegrees>49.5138387568295001983642578125</LatitudeDegrees>
              <LongitudeDegrees>20.59911218471825122833251953125</LongitudeDegrees>
            </Position>
            <AltitudeMeters>444.600006103515625</AltitudeMeters>
            <DistanceMeters>NAN</DistanceMeters>
          </Trackpoint>
          <Trackpoint>
            <Time>2022-09-22T12:10:30.000Z</Time>
            <Position>
              <LatitudeDegrees>49.5138256810605525970458984375</LatitudeDegrees>
              <LongitudeDegrees>20.599103383719921112060546875</LongitudeDegrees>
            </Position>
            <AltitudeMeters>445.20001220703125</AltitudeMeters>
            <DistanceMeters>NAN</DistanceMeters>
          </Trackpoint>
          <Trackpoint>
            <Time>2022-09-22T12:10:32.000Z</Time>
            <Position>
              <LatitudeDegrees>49.5138256810605525970458984375</LatitudeDegrees>
              <LongitudeDegrees>20.599103383719921112060546875</LongitudeDegrees>
            </Position>
            <AltitudeMeters>445.399993896484375</AltitudeMeters>
            <DistanceMeters>NAN</DistanceMeters>
          </Trackpoint>
          <Trackpoint>
            <Time>2022-09-22T12:10:34.000Z</Time>
            <Position>
              <LatitudeDegrees>49.5138256810605525970458984375</LatitudeDegrees>
              <LongitudeDegrees>20.599103383719921112060546875</LongitudeDegrees>
            </Position>
            <AltitudeMeters>445.600006103515625</AltitudeMeters>
            <DistanceMeters>NAN</DistanceMeters>
          </Trackpoint>
          <Trackpoint>
            <Time>2022-09-22T12:10:39.000Z</Time>
            <Position>
              <LatitudeDegrees>49.51381109654903411865234375</LatitudeDegrees>
              <LongitudeDegrees>20.5990822613239288330078125</LongitudeDegrees>
            </Position>
            <AltitudeMeters>446.20001220703125</AltitudeMeters>
            <DistanceMeters>NAN</DistanceMeters>
          </Trackpoint>
          <Trackpoint>
            <Time>2022-09-22T12:10:40.000Z</Time>
            <Position>
              <LatitudeDegrees>49.51381109654903411865234375</LatitudeDegrees>
              <LongitudeDegrees>20.5990822613239288330078125</LongitudeDegrees>
            </Position>
            <AltitudeMeters>446.20001220703125</AltitudeMeters>
            <DistanceMeters>NAN</DistanceMeters>
          </Trackpoint>
          <Trackpoint>
            <Time>2022-09-22T12:10:43.000Z</Time>
            <Position>
              <LatitudeDegrees>49.51379843987524509429931640625</LatitudeDegrees>
              <LongitudeDegrees>20.5990663357079029083251953125</LongitudeDegrees>
            </Position>
            <AltitudeMeters>446.399993896484375</AltitudeMeters>
            <DistanceMeters>NAN</DistanceMeters>
          </Trackpoint>
          <Trackpoint>
            <Time>2022-09-22T12:10:55.000Z</Time>
            <Position>
              <LatitudeDegrees>49.5137388445436954498291015625</LatitudeDegrees>
              <LongitudeDegrees>20.59900623746216297149658203125</LongitudeDegrees>
            </Position>
            <AltitudeMeters>447.399993896484375</AltitudeMeters>
            <DistanceMeters>NAN</DistanceMeters>
          </Trackpoint>
          <Trackpoint>
            <Time>2022-09-22T12:11:07.000Z</Time>
            <Position>
              <LatitudeDegrees>49.51372501440346240997314453125</LatitudeDegrees>
              <LongitudeDegrees>20.59898637235164642333984375</LongitudeDegrees>
            </Position>
            <AltitudeMeters>448.20001220703125</AltitudeMeters>
            <DistanceMeters>NAN</DistanceMeters>
          </Trackpoint>
          <Trackpoint>
            <Time>2022-09-22T12:11:11.000Z</Time>
            <Position>
              <LatitudeDegrees>49.513712190091609954833984375</LatitudeDegrees>
              <LongitudeDegrees>20.59897488914430141448974609375</LongitudeDegrees>
            </Position>
            <AltitudeMeters>448.399993896484375</AltitudeMeters>
            <DistanceMeters>NAN</DistanceMeters>
          </Trackpoint>
          <Trackpoint>
            <Time>2022-09-22T12:11:15.000Z</Time>
            <Position>
              <LatitudeDegrees>49.513712190091609954833984375</LatitudeDegrees>
              <LongitudeDegrees>20.59897488914430141448974609375</LongitudeDegrees>
            </Position>
            <AltitudeMeters>448.600006103515625</AltitudeMeters>
            <DistanceMeters>NAN</DistanceMeters>
          </Trackpoint>
          <Trackpoint>
            <Time>2022-09-22T12:11:19.000Z</Time>
            <Position>
              <LatitudeDegrees>49.51368997804820537567138671875</LatitudeDegrees>
              <LongitudeDegrees>20.5989489890635013580322265625</LongitudeDegrees>
            </Position>
            <AltitudeMeters>449</AltitudeMeters>
            <DistanceMeters>NAN</DistanceMeters>
          </Trackpoint>
          <Trackpoint>
            <Time>2022-09-22T12:11:34.000Z</Time>
            <Position>
              <LatitudeDegrees>49.5136567018926143646240234375</LatitudeDegrees>
              <LongitudeDegrees>20.59892426244914531707763671875</LongitudeDegrees>
            </Position>
            <AltitudeMeters>449.399993896484375</AltitudeMeters>
            <DistanceMeters>NAN</DistanceMeters>
          </Trackpoint>
          <Trackpoint>
            <Time>2022-09-22T12:11:42.000Z</Time>
            <Position>
              <LatitudeDegrees>49.5136567018926143646240234375</LatitudeDegrees>
              <LongitudeDegrees>20.59892426244914531707763671875</LongitudeDegrees>
            </Position>
            <AltitudeMeters>450</AltitudeMeters>
            <DistanceMeters>NAN</DistanceMeters>
          </Trackpoint>
          <Trackpoint>
            <Time>2022-09-22T12:11:47.000Z</Time>
            <Position>
              <LatitudeDegrees>49.51361789368093013763427734375</LatitudeDegrees>
              <LongitudeDegrees>20.59890582226216793060302734375</LongitudeDegrees>
            </Position>
            <AltitudeMeters>450.600006103515625</AltitudeMeters>
            <DistanceMeters>NAN</DistanceMeters>
          </Trackpoint>
          <Trackpoint>
            <Time>2022-09-22T12:11:50.000Z</Time>
            <Position>
              <LatitudeDegrees>49.51357908546924591064453125</LatitudeDegrees>
              <LongitudeDegrees>20.598887465894222259521484375</LongitudeDegrees>
            </Position>
            <AltitudeMeters>450.600006103515625</AltitudeMeters>
            <DistanceMeters>NAN</DistanceMeters>
          </Trackpoint>
          <Trackpoint>
            <Time>2022-09-22T12:11:53.000Z</Time>
            <Position>
              <LatitudeDegrees>49.5135403610765933990478515625</LatitudeDegrees>
              <LongitudeDegrees>20.598869025707244873046875</LongitudeDegrees>
            </Position>
            <AltitudeMeters>450.600006103515625</AltitudeMeters>
            <DistanceMeters>NAN</DistanceMeters>
          </Trackpoint>
          <Trackpoint>
            <Time>2022-09-22T12:12:03.000Z</Time>
            <Position>
              <LatitudeDegrees>49.51352736912667751312255859375</LatitudeDegrees>
              <LongitudeDegrees>20.59886290691792964935302734375</LongitudeDegrees>
            </Position>
            <AltitudeMeters>450.79998779296875</AltitudeMeters>
            <DistanceMeters>NAN</DistanceMeters>
          </Trackpoint>
          <Trackpoint>
            <Time>2022-09-22T12:12:09.000Z</Time>
            <Position>
              <LatitudeDegrees>49.51352736912667751312255859375</LatitudeDegrees>
              <LongitudeDegrees>20.59886290691792964935302734375</LongitudeDegrees>
            </Position>
            <AltitudeMeters>451.399993896484375</AltitudeMeters>
            <DistanceMeters>NAN</DistanceMeters>
          </Trackpoint>
          <Trackpoint>
            <Time>2022-09-22T12:12:11.000Z</Time>
            <Position>
              <LatitudeDegrees>49.513515047729015350341796875</LatitudeDegrees>
              <LongitudeDegrees>20.59886005707085132598876953125</LongitudeDegrees>
            </Position>
            <AltitudeMeters>451.600006103515625</AltitudeMeters>
            <DistanceMeters>NAN</DistanceMeters>
          </Trackpoint>
          <Trackpoint>
            <Time>2022-09-22T12:12:17.000Z</Time>
            <Position>
              <LatitudeDegrees>49.5133720524609088897705078125</LatitudeDegrees>
              <LongitudeDegrees>20.59883373789489269256591796875</LongitudeDegrees>
            </Position>
            <AltitudeMeters>452.20001220703125</AltitudeMeters>
            <DistanceMeters>NAN</DistanceMeters>
          </Trackpoint>
          <Trackpoint>
            <Time>2022-09-22T12:12:22.000Z</Time>
            <Position>
              <LatitudeDegrees>49.513299800455570220947265625</LatitudeDegrees>
              <LongitudeDegrees>20.5988033115863800048828125</LongitudeDegrees>
            </Position>
            <AltitudeMeters>452.600006103515625</AltitudeMeters>
            <DistanceMeters>NAN</DistanceMeters>
          </Trackpoint>
          <Trackpoint>
            <Time>2022-09-22T12:12:27.000Z</Time>
            <Position>
              <LatitudeDegrees>49.51328211463987827301025390625</LatitudeDegrees>
              <LongitudeDegrees>20.59879601933062076568603515625</LongitudeDegrees>
            </Position>
            <AltitudeMeters>453</AltitudeMeters>
            <DistanceMeters>NAN</DistanceMeters>
          </Trackpoint>
          <Trackpoint>
            <Time>2022-09-22T12:12:33.000Z</Time>
            <Position>
              <LatitudeDegrees>49.51323266141116619110107421875</LatitudeDegrees>
              <LongitudeDegrees>20.59877791441977024078369140625</LongitudeDegrees>
            </Position>
            <AltitudeMeters>453.79998779296875</AltitudeMeters>
            <DistanceMeters>NAN</DistanceMeters>
          </Trackpoint>
          <Trackpoint>
            <Time>2022-09-22T12:12:37.000Z</Time>
            <Position>
              <LatitudeDegrees>49.51323266141116619110107421875</LatitudeDegrees>
              <LongitudeDegrees>20.59877791441977024078369140625</LongitudeDegrees>
            </Position>
            <AltitudeMeters>454</AltitudeMeters>
            <DistanceMeters>NAN</DistanceMeters>
          </Trackpoint>
          <Trackpoint>
            <Time>2022-09-22T12:12:45.000Z</Time>
            <Position>
              <LatitudeDegrees>49.51323266141116619110107421875</LatitudeDegrees>
              <LongitudeDegrees>20.59877791441977024078369140625</LongitudeDegrees>
            </Position>
            <AltitudeMeters>454.399993896484375</AltitudeMeters>
            <DistanceMeters>NAN</DistanceMeters>
          </Trackpoint>
          <Trackpoint>
            <Time>2022-09-22T12:12:49.000Z</Time>
            <Position>
              <LatitudeDegrees>49.51323266141116619110107421875</LatitudeDegrees>
              <LongitudeDegrees>20.59877791441977024078369140625</LongitudeDegrees>
            </Position>
            <AltitudeMeters>454.79998779296875</AltitudeMeters>
            <DistanceMeters>NAN</DistanceMeters>
          </Trackpoint>
          <Trackpoint>
            <Time>2022-09-22T12:12:54.000Z</Time>
            <Position>
              <LatitudeDegrees>49.51322310604155063629150390625</LatitudeDegrees>
              <LongitudeDegrees>20.5987751483917236328125</LongitudeDegrees>
            </Position>
            <AltitudeMeters>455.399993896484375</AltitudeMeters>
            <DistanceMeters>NAN</DistanceMeters>
          </Trackpoint>
          <Trackpoint>
            <Time>2022-09-22T12:12:57.000Z</Time>
            <Position>
              <LatitudeDegrees>49.513179101049900054931640625</LatitudeDegrees>
              <LongitudeDegrees>20.59875327162444591522216796875</LongitudeDegrees>
            </Position>
            <AltitudeMeters>455.79998779296875</AltitudeMeters>
            <DistanceMeters>NAN</DistanceMeters>
          </Trackpoint>
          <Trackpoint>
            <Time>2022-09-22T12:12:59.000Z</Time>
            <Position>
              <LatitudeDegrees>49.51316007412970066070556640625</LatitudeDegrees>
              <LongitudeDegrees>20.59874757193028926849365234375</LongitudeDegrees>
            </Position>
            <AltitudeMeters>456</AltitudeMeters>
            <DistanceMeters>NAN</DistanceMeters>
          </Trackpoint>
          <Trackpoint>
            <Time>2022-09-22T12:13:07.000Z</Time>
            <Position>
              <LatitudeDegrees>49.51308949850499629974365234375</LatitudeDegrees>
              <LongitudeDegrees>20.598751008510589599609375</LongitudeDegrees>
            </Position>
            <AltitudeMeters>456.399993896484375</AltitudeMeters>
            <DistanceMeters>NAN</DistanceMeters>
          </Trackpoint>
          <Trackpoint>
            <Time>2022-09-22T12:13:13.000Z</Time>
            <Position>
              <LatitudeDegrees>49.51304608024656772613525390625</LatitudeDegrees>
              <LongitudeDegrees>20.59874765574932098388671875</LongitudeDegrees>
            </Position>
            <AltitudeMeters>457</AltitudeMeters>
            <DistanceMeters>NAN</DistanceMeters>
          </Trackpoint>
          <Trackpoint>
            <Time>2022-09-22T12:13:15.000Z</Time>
            <Position>
              <LatitudeDegrees>49.5130354352295398712158203125</LatitudeDegrees>
              <LongitudeDegrees>20.59874572791159152984619140625</LongitudeDegrees>
            </Position>
            <AltitudeMeters>457.20001220703125</AltitudeMeters>
            <DistanceMeters>NAN</DistanceMeters>
          </Trackpoint>
          <Trackpoint>
            <Time>2022-09-22T12:13:24.000Z</Time>
            <Position>
              <LatitudeDegrees>49.5130039192736148834228515625</LatitudeDegrees>
              <LongitudeDegrees>20.59872888028621673583984375</LongitudeDegrees>
            </Position>
            <AltitudeMeters>457.79998779296875</AltitudeMeters>
            <DistanceMeters>NAN</DistanceMeters>
          </Trackpoint>
          <Trackpoint>
            <Time>2022-09-22T12:13:26.000Z</Time>
            <Position>
              <LatitudeDegrees>49.512993358075618743896484375</LatitudeDegrees>
              <LongitudeDegrees>20.5987293832004070281982421875</LongitudeDegrees>
            </Position>
            <AltitudeMeters>457.79998779296875</AltitudeMeters>
            <DistanceMeters>NAN</DistanceMeters>
          </Trackpoint>
          <Trackpoint>
            <Time>2022-09-22T12:13:29.000Z</Time>
            <Position>
              <LatitudeDegrees>49.51295170001685619354248046875</LatitudeDegrees>
              <LongitudeDegrees>20.598727203905582427978515625</LongitudeDegrees>
            </Position>
            <AltitudeMeters>458</AltitudeMeters>
            <DistanceMeters>NAN</DistanceMeters>
          </Trackpoint>
          <Trackpoint>
            <Time>2022-09-22T12:13:32.000Z</Time>
            <Position>
              <LatitudeDegrees>49.5129261352121829986572265625</LatitudeDegrees>
              <LongitudeDegrees>20.59874497354030609130859375</LongitudeDegrees>
            </Position>
            <AltitudeMeters>458.20001220703125</AltitudeMeters>
            <DistanceMeters>NAN</DistanceMeters>
          </Trackpoint>
          <Trackpoint>
            <Time>2022-09-22T12:13:39.000Z</Time>
            <Position>
              <LatitudeDegrees>49.51283477246761322021484375</LatitudeDegrees>
              <LongitudeDegrees>20.598737262189388275146484375</LongitudeDegrees>
            </Position>
            <AltitudeMeters>458.79998779296875</AltitudeMeters>
            <DistanceMeters>NAN</DistanceMeters>
          </Trackpoint>
          <Trackpoint>
            <Time>2022-09-22T12:13:40.000Z</Time>
            <Position>
              <LatitudeDegrees>49.51282429508864879608154296875</LatitudeDegrees>
              <LongitudeDegrees>20.59874354861676692962646484375</LongitudeDegrees>
            </Position>
            <AltitudeMeters>459</AltitudeMeters>
            <DistanceMeters>NAN</DistanceMeters>
          </Trackpoint>
          <Trackpoint>
            <Time>2022-09-22T12:13:42.000Z</Time>
            <Position>
              <LatitudeDegrees>49.51280401088297367095947265625</LatitudeDegrees>
              <LongitudeDegrees>20.5987578816711902618408203125</LongitudeDegrees>
            </Position>
            <AltitudeMeters>459.20001220703125</AltitudeMeters>
            <DistanceMeters>NAN</DistanceMeters>
          </Trackpoint>
          <Trackpoint>
            <Time>2022-09-22T12:13:50.000Z</Time>
            <Position>
              <LatitudeDegrees>49.51271868310868740081787109375</LatitudeDegrees>
              <LongitudeDegrees>20.59879803098738193511962890625</LongitudeDegrees>
            </Position>
            <AltitudeMeters>459.79998779296875</AltitudeMeters>
            <DistanceMeters>NAN</DistanceMeters>
          </Trackpoint>
          <Trackpoint>
            <Time>2022-09-22T12:13:54.000Z</Time>
            <Position>
              <LatitudeDegrees>49.5126756839454174041748046875</LatitudeDegrees>
              <LongitudeDegrees>20.5988165549933910369873046875</LongitudeDegrees>
            </Position>
            <AltitudeMeters>460.20001220703125</AltitudeMeters>
            <DistanceMeters>NAN</DistanceMeters>
          </Trackpoint>
          <Trackpoint>
            <Time>2022-09-22T12:13:59.000Z</Time>
            <Position>
              <LatitudeDegrees>49.5126233808696269989013671875</LatitudeDegrees>
              <LongitudeDegrees>20.59882082976400852203369140625</LongitudeDegrees>
            </Position>
            <AltitudeMeters>460.399993896484375</AltitudeMeters>
            <DistanceMeters>NAN</DistanceMeters>
          </Trackpoint>
          <Trackpoint>
            <Time>2022-09-22T12:14:07.000Z</Time>
            <Position>
              <LatitudeDegrees>49.512562863528728485107421875</LatitudeDegrees>
              <LongitudeDegrees>20.598813034594058990478515625</LongitudeDegrees>
            </Position>
            <AltitudeMeters>460.79998779296875</AltitudeMeters>
            <DistanceMeters>NAN</DistanceMeters>
          </Trackpoint>
          <Trackpoint>
            <Time>2022-09-22T12:14:13.000Z</Time>
            <Position>
              <LatitudeDegrees>49.512560181319713592529296875</LatitudeDegrees>
              <LongitudeDegrees>20.59881345368921756744384765625</LongitudeDegrees>
            </Position>
            <AltitudeMeters>460.79998779296875</AltitudeMeters>
            <DistanceMeters>NAN</DistanceMeters>
          </Trackpoint>
          <Trackpoint>
            <Time>2022-09-22T12:14:25.000Z</Time>
            <Position>
              <LatitudeDegrees>49.512560181319713592529296875</LatitudeDegrees>
              <LongitudeDegrees>20.59881345368921756744384765625</LongitudeDegrees>
            </Position>
            <AltitudeMeters>460.79998779296875</AltitudeMeters>
            <DistanceMeters>NAN</DistanceMeters>
          </Trackpoint>
          <Trackpoint>
            <Time>2022-09-22T12:14:30.000Z</Time>
            <Position>
              <LatitudeDegrees>49.512558840215206146240234375</LatitudeDegrees>
              <LongitudeDegrees>20.59881462715566158294677734375</LongitudeDegrees>
            </Position>
            <AltitudeMeters>461</AltitudeMeters>
            <DistanceMeters>NAN</DistanceMeters>
          </Trackpoint>
          <Trackpoint>
            <Time>2022-09-22T12:14:31.000Z</Time>
            <Position>
              <LatitudeDegrees>49.512558840215206146240234375</LatitudeDegrees>
              <LongitudeDegrees>20.59881462715566158294677734375</LongitudeDegrees>
            </Position>
            <AltitudeMeters>461</AltitudeMeters>
            <DistanceMeters>NAN</DistanceMeters>
          </Trackpoint>
          <Trackpoint>
            <Time>2022-09-22T12:14:58.000Z</Time>
            <Position>
              <LatitudeDegrees>49.51246856711804866790771484375</LatitudeDegrees>
              <LongitudeDegrees>20.59884362854063510894775390625</LongitudeDegrees>
            </Position>
            <AltitudeMeters>461</AltitudeMeters>
            <DistanceMeters>NAN</DistanceMeters>
          </Trackpoint>
          <Trackpoint>
            <Time>2022-09-22T12:15:03.000Z</Time>
            <Position>
              <LatitudeDegrees>49.51227343641221523284912109375</LatitudeDegrees>
              <LongitudeDegrees>20.59879316948354244232177734375</LongitudeDegrees>
            </Position>
            <AltitudeMeters>459.600006103515625</AltitudeMeters>
            <DistanceMeters>NAN</DistanceMeters>
          </Trackpoint>
          <Trackpoint>
            <Time>2022-09-22T12:15:04.000Z</Time>
            <Position>
              <LatitudeDegrees>49.51221727766096591949462890625</LatitudeDegrees>
              <LongitudeDegrees>20.59876299463212490081787109375</LongitudeDegrees>
            </Position>
            <AltitudeMeters>459.20001220703125</AltitudeMeters>
            <DistanceMeters>NAN</DistanceMeters>
          </Trackpoint>
          <Trackpoint>
            <Time>2022-09-22T12:15:05.000Z</Time>
            <Position>
              <LatitudeDegrees>49.51216380111873149871826171875</LatitudeDegrees>
              <LongitudeDegrees>20.59872644953429698944091796875</LongitudeDegrees>
            </Position>
            <AltitudeMeters>458.79998779296875</AltitudeMeters>
            <DistanceMeters>NAN</DistanceMeters>
          </Trackpoint>
          <Trackpoint>
            <Time>2022-09-22T12:15:06.000Z</Time>
            <Position>
              <LatitudeDegrees>49.51211032457649707794189453125</LatitudeDegrees>
              <LongitudeDegrees>20.59867297299206256866455078125</LongitudeDegrees>
            </Position>
            <AltitudeMeters>458.20001220703125</AltitudeMeters>
            <DistanceMeters>NAN</DistanceMeters>
          </Trackpoint>
          <Trackpoint>
            <Time>2022-09-22T12:15:07.000Z</Time>
            <Position>
              <LatitudeDegrees>49.5120601169764995574951171875</LatitudeDegrees>
              <LongitudeDegrees>20.59860407374799251556396484375</LongitudeDegrees>
            </Position>
            <AltitudeMeters>457.20001220703125</AltitudeMeters>
            <DistanceMeters>NAN</DistanceMeters>
          </Trackpoint>
          <Trackpoint>
            <Time>2022-09-22T12:15:09.000Z</Time>
            <Position>
              <LatitudeDegrees>49.51195626519620418548583984375</LatitudeDegrees>
              <LongitudeDegrees>20.59845286421477794647216796875</LongitudeDegrees>
            </Position>
            <AltitudeMeters>455.600006103515625</AltitudeMeters>
            <DistanceMeters>NAN</DistanceMeters>
          </Trackpoint>
          <Trackpoint>
            <Time>2022-09-22T12:15:11.000Z</Time>
            <Position>
              <LatitudeDegrees>49.5118700154125690460205078125</LatitudeDegrees>
              <LongitudeDegrees>20.59828472323715686798095703125</LongitudeDegrees>
            </Position>
            <AltitudeMeters>454.600006103515625</AltitudeMeters>
            <DistanceMeters>NAN</DistanceMeters>
          </Trackpoint>
          <Trackpoint>
            <Time>2022-09-22T12:15:12.000Z</Time>
            <Position>
              <LatitudeDegrees>49.51182634569704532623291015625</LatitudeDegrees>
              <LongitudeDegrees>20.59819403104484081268310546875</LongitudeDegrees>
            </Position>
            <AltitudeMeters>453.600006103515625</AltitudeMeters>
            <DistanceMeters>NAN</DistanceMeters>
          </Trackpoint>
          <Trackpoint>
            <Time>2022-09-22T12:15:13.000Z</Time>
            <Position>
              <LatitudeDegrees>49.5117853581905364990234375</LatitudeDegrees>
              <LongitudeDegrees>20.59810954146087169647216796875</LongitudeDegrees>
            </Position>
            <AltitudeMeters>453</AltitudeMeters>
            <DistanceMeters>NAN</DistanceMeters>
          </Trackpoint>
          <Trackpoint>
            <Time>2022-09-22T12:15:16.000Z</Time>
            <Position>
              <LatitudeDegrees>49.51165485195815563201904296875</LatitudeDegrees>
              <LongitudeDegrees>20.5978583358228206634521484375</LongitudeDegrees>
            </Position>
            <AltitudeMeters>452</AltitudeMeters>
            <DistanceMeters>NAN</DistanceMeters>
          </Trackpoint>
          <Trackpoint>
            <Time>2022-09-22T12:15:21.000Z</Time>
            <Position>
              <LatitudeDegrees>49.51143641956150531768798828125</LatitudeDegrees>
              <LongitudeDegrees>20.59743731282651424407958984375</LongitudeDegrees>
            </Position>
            <AltitudeMeters>450.79998779296875</AltitudeMeters>
            <DistanceMeters>NAN</DistanceMeters>
          </Trackpoint>
          <Trackpoint>
            <Time>2022-09-22T12:15:23.000Z</Time>
            <Position>
              <LatitudeDegrees>49.51133944094181060791015625</LatitudeDegrees>
              <LongitudeDegrees>20.5972930602729320526123046875</LongitudeDegrees>
            </Position>
            <AltitudeMeters>450.79998779296875</AltitudeMeters>
            <DistanceMeters>NAN</DistanceMeters>
          </Trackpoint>
          <Trackpoint>
            <Time>2022-09-22T12:15:25.000Z</Time>
            <Position>
              <LatitudeDegrees>49.5112262852489948272705078125</LatitudeDegrees>
              <LongitudeDegrees>20.59719264507293701171875</LongitudeDegrees>
            </Position>
            <AltitudeMeters>450.79998779296875</AltitudeMeters>
            <DistanceMeters>NAN</DistanceMeters>
          </Trackpoint>
          <Trackpoint>
            <Time>2022-09-22T12:15:29.000Z</Time>
            <Position>
              <LatitudeDegrees>49.5109986327588558197021484375</LatitudeDegrees>
              <LongitudeDegrees>20.597116537392139434814453125</LongitudeDegrees>
            </Position>
            <AltitudeMeters>450.79998779296875</AltitudeMeters>
            <DistanceMeters>NAN</DistanceMeters>
          </Trackpoint>
          <Trackpoint>
            <Time>2022-09-22T12:15:30.000Z</Time>
            <Position>
              <LatitudeDegrees>49.51094926334917545318603515625</LatitudeDegrees>
              <LongitudeDegrees>20.59711444191634654998779296875</LongitudeDegrees>
            </Position>
            <AltitudeMeters>450.79998779296875</AltitudeMeters>
            <DistanceMeters>NAN</DistanceMeters>
          </Trackpoint>
          <Trackpoint>
            <Time>2022-09-22T12:15:32.000Z</Time>
            <Position>
              <LatitudeDegrees>49.51088254339993000030517578125</LatitudeDegrees>
              <LongitudeDegrees>20.5971572734415531158447265625</LongitudeDegrees>
            </Position>
            <AltitudeMeters>450.79998779296875</AltitudeMeters>
            <DistanceMeters>NAN</DistanceMeters>
          </Trackpoint>
          <Trackpoint>
            <Time>2022-09-22T12:15:35.000Z</Time>
            <Position>
              <LatitudeDegrees>49.51081414707005023956298828125</LatitudeDegrees>
              <LongitudeDegrees>20.59721116907894611358642578125</LongitudeDegrees>
            </Position>
            <AltitudeMeters>450.79998779296875</AltitudeMeters>
            <DistanceMeters>NAN</DistanceMeters>
          </Trackpoint>
          <Trackpoint>
            <Time>2022-09-22T12:15:36.000Z</Time>
            <Position>
              <LatitudeDegrees>49.5107931084930896759033203125</LatitudeDegrees>
              <LongitudeDegrees>20.59723061509430408477783203125</LongitudeDegrees>
            </Position>
            <AltitudeMeters>450.79998779296875</AltitudeMeters>
            <DistanceMeters>NAN</DistanceMeters>
          </Trackpoint>
          <Trackpoint>
            <Time>2022-09-22T12:15:37.000Z</Time>
            <Position>
              <LatitudeDegrees>49.51077173464000225067138671875</LatitudeDegrees>
              <LongitudeDegrees>20.5972632206976413726806640625</LongitudeDegrees>
            </Position>
            <AltitudeMeters>450.600006103515625</AltitudeMeters>
            <DistanceMeters>NAN</DistanceMeters>
          </Trackpoint>
          <Trackpoint>
            <Time>2022-09-22T12:15:40.000Z</Time>
            <Position>
              <LatitudeDegrees>49.51074122451245784759521484375</LatitudeDegrees>
              <LongitudeDegrees>20.59739272110164165496826171875</LongitudeDegrees>
            </Position>
            <AltitudeMeters>450.20001220703125</AltitudeMeters>
            <DistanceMeters>NAN</DistanceMeters>
          </Trackpoint>
          <Trackpoint>
            <Time>2022-09-22T12:15:42.000Z</Time>
            <Position>
              <LatitudeDegrees>49.5107478462159633636474609375</LatitudeDegrees>
              <LongitudeDegrees>20.59750772081315517425537109375</LongitudeDegrees>
            </Position>
            <AltitudeMeters>449.79998779296875</AltitudeMeters>
            <DistanceMeters>NAN</DistanceMeters>
          </Trackpoint>
          <Trackpoint>
            <Time>2022-09-22T12:15:44.000Z</Time>
            <Position>
              <LatitudeDegrees>49.5107763446867465972900390625</LatitudeDegrees>
              <LongitudeDegrees>20.59764065779745578765869140625</LongitudeDegrees>
            </Position>
            <AltitudeMeters>449.20001220703125</AltitudeMeters>
            <DistanceMeters>NAN</DistanceMeters>
          </Trackpoint>
          <Trackpoint>
            <Time>2022-09-22T12:15:46.000Z</Time>
            <Position>
              <LatitudeDegrees>49.51080878265202045440673828125</LatitudeDegrees>
              <LongitudeDegrees>20.59779320843517780303955078125</LongitudeDegrees>
            </Position>
            <AltitudeMeters>448.600006103515625</AltitudeMeters>
            <DistanceMeters>NAN</DistanceMeters>
          </Trackpoint>
          <Trackpoint>
            <Time>2022-09-22T12:15:49.000Z</Time>
            <Position>
              <LatitudeDegrees>49.5108735747635364532470703125</LatitudeDegrees>
              <LongitudeDegrees>20.5980544723570346832275390625</LongitudeDegrees>
            </Position>
            <AltitudeMeters>447.399993896484375</AltitudeMeters>
            <DistanceMeters>NAN</DistanceMeters>
          </Trackpoint>
          <Trackpoint>
            <Time>2022-09-22T12:15:52.000Z</Time>
            <Position>
              <LatitudeDegrees>49.51096351258456707000732421875</LatitudeDegrees>
              <LongitudeDegrees>20.598337948322296142578125</LongitudeDegrees>
            </Position>
            <AltitudeMeters>446</AltitudeMeters>
            <DistanceMeters>NAN</DistanceMeters>
          </Trackpoint>
          <Trackpoint>
            <Time>2022-09-22T12:15:54.000Z</Time>
            <Position>
              <LatitudeDegrees>49.51103366911411285400390625</LatitudeDegrees>
              <LongitudeDegrees>20.59853835962712764739990234375</LongitudeDegrees>
            </Position>
            <AltitudeMeters>444.79998779296875</AltitudeMeters>
            <DistanceMeters>NAN</DistanceMeters>
          </Trackpoint>
          <Trackpoint>
            <Time>2022-09-22T12:15:56.000Z</Time>
            <Position>
              <LatitudeDegrees>49.51110416091978549957275390625</LatitudeDegrees>
              <LongitudeDegrees>20.59874455444514751434326171875</LongitudeDegrees>
            </Position>
            <AltitudeMeters>444</AltitudeMeters>
            <DistanceMeters>NAN</DistanceMeters>
          </Trackpoint>
          <Trackpoint>
            <Time>2022-09-22T12:15:57.000Z</Time>
            <Position>
              <LatitudeDegrees>49.51113902963697910308837890625</LatitudeDegrees>
              <LongitudeDegrees>20.59885226190090179443359375</LongitudeDegrees>
            </Position>
            <AltitudeMeters>443.79998779296875</AltitudeMeters>
            <DistanceMeters>NAN</DistanceMeters>
          </Trackpoint>
          <Trackpoint>
            <Time>2022-09-22T12:16:01.000Z</Time>
            <Position>
              <LatitudeDegrees>49.5113040693104267120361328125</LatitudeDegrees>
              <LongitudeDegrees>20.5992892943322658538818359375</LongitudeDegrees>
            </Position>
            <AltitudeMeters>442.79998779296875</AltitudeMeters>
            <DistanceMeters>NAN</DistanceMeters>
          </Trackpoint>
          <Trackpoint>
            <Time>2022-09-22T12:16:02.000Z</Time>
            <Position>
              <LatitudeDegrees>49.51134170405566692352294921875</LatitudeDegrees>
              <LongitudeDegrees>20.59940286912024021148681640625</LongitudeDegrees>
            </Position>
            <AltitudeMeters>442.600006103515625</AltitudeMeters>
            <DistanceMeters>NAN</DistanceMeters>
          </Trackpoint>
          <Trackpoint>
            <Time>2022-09-22T12:16:04.000Z</Time>
            <Position>
              <LatitudeDegrees>49.5114187337458133697509765625</LatitudeDegrees>
              <LongitudeDegrees>20.59963571839034557342529296875</LongitudeDegrees>
            </Position>
            <AltitudeMeters>442</AltitudeMeters>
            <DistanceMeters>NAN</DistanceMeters>
          </Trackpoint>
          <Trackpoint>
            <Time>2022-09-22T12:16:05.000Z</Time>
            <Position>
              <LatitudeDegrees>49.5114576257765293121337890625</LatitudeDegrees>
              <LongitudeDegrees>20.59975792653858661651611328125</LongitudeDegrees>
            </Position>
            <AltitudeMeters>441.399993896484375</AltitudeMeters>
            <DistanceMeters>NAN</DistanceMeters>
          </Trackpoint>
          <Trackpoint>
            <Time>2022-09-22T12:16:07.000Z</Time>
            <Position>
              <LatitudeDegrees>49.51153934933245182037353515625</LatitudeDegrees>
              <LongitudeDegrees>20.6000098027288913726806640625</LongitudeDegrees>
            </Position>
            <AltitudeMeters>440.399993896484375</AltitudeMeters>
            <DistanceMeters>NAN</DistanceMeters>
          </Trackpoint>
          <Trackpoint>
            <Time>2022-09-22T12:16:08.000Z</Time>
            <Position>
              <LatitudeDegrees>49.5115789957344532012939453125</LatitudeDegrees>
              <LongitudeDegrees>20.600133351981639862060546875</LongitudeDegrees>
            </Position>
            <AltitudeMeters>440.20001220703125</AltitudeMeters>
            <DistanceMeters>NAN</DistanceMeters>
          </Trackpoint>
          <Trackpoint>
            <Time>2022-09-22T12:16:11.000Z</Time>
            <Position>
              <LatitudeDegrees>49.51167949475347995758056640625</LatitudeDegrees>
              <LongitudeDegrees>20.600520931184291839599609375</LongitudeDegrees>
            </Position>
            <AltitudeMeters>439.20001220703125</AltitudeMeters>
            <DistanceMeters>NAN</DistanceMeters>
          </Trackpoint>
          <Trackpoint>
            <Time>2022-09-22T12:16:13.000Z</Time>
            <Position>
              <LatitudeDegrees>49.51172626577317714691162109375</LatitudeDegrees>
              <LongitudeDegrees>20.600794516503810882568359375</LongitudeDegrees>
            </Position>
            <AltitudeMeters>438.20001220703125</AltitudeMeters>
            <DistanceMeters>NAN</DistanceMeters>
          </Trackpoint>
          <Trackpoint>
            <Time>2022-09-22T12:16:14.000Z</Time>
            <Position>
              <LatitudeDegrees>49.511746130883693695068359375</LatitudeDegrees>
              <LongitudeDegrees>20.6009311415255069732666015625</LongitudeDegrees>
            </Position>
            <AltitudeMeters>437.79998779296875</AltitudeMeters>
            <DistanceMeters>NAN</DistanceMeters>
          </Trackpoint>
          <Trackpoint>
            <Time>2022-09-22T12:16:17.000Z</Time>
            <Position>
              <LatitudeDegrees>49.51180279254913330078125</LatitudeDegrees>
              <LongitudeDegrees>20.601351074874401092529296875</LongitudeDegrees>
            </Position>
            <AltitudeMeters>436</AltitudeMeters>
            <DistanceMeters>NAN</DistanceMeters>
          </Trackpoint>
          <Trackpoint>
            <Time>2022-09-22T12:16:20.000Z</Time>
            <Position>
              <LatitudeDegrees>49.51185467652976512908935546875</LatitudeDegrees>
              <LongitudeDegrees>20.60176857747137546539306640625</LongitudeDegrees>
            </Position>
            <AltitudeMeters>435</AltitudeMeters>
            <DistanceMeters>NAN</DistanceMeters>
          </Trackpoint>
          <Trackpoint>
            <Time>2022-09-22T12:16:22.000Z</Time>
            <Position>
              <LatitudeDegrees>49.51188133098185062408447265625</LatitudeDegrees>
              <LongitudeDegrees>20.60205071233212947845458984375</LongitudeDegrees>
            </Position>
            <AltitudeMeters>434</AltitudeMeters>
            <DistanceMeters>NAN</DistanceMeters>
          </Trackpoint>
          <Trackpoint>
            <Time>2022-09-22T12:16:24.000Z</Time>
            <Position>
              <LatitudeDegrees>49.5119085721671581268310546875</LatitudeDegrees>
              <LongitudeDegrees>20.6023376248776912689208984375</LongitudeDegrees>
            </Position>
            <AltitudeMeters>432.399993896484375</AltitudeMeters>
            <DistanceMeters>NAN</DistanceMeters>
          </Trackpoint>
          <Trackpoint>
            <Time>2022-09-22T12:16:26.000Z</Time>
            <Position>
              <LatitudeDegrees>49.51193179003894329071044921875</LatitudeDegrees>
              <LongitudeDegrees>20.6026256270706653594970703125</LongitudeDegrees>
            </Position>
            <AltitudeMeters>431.600006103515625</AltitudeMeters>
            <DistanceMeters>NAN</DistanceMeters>
          </Trackpoint>
          <Trackpoint>
            <Time>2022-09-22T12:16:27.000Z</Time>
            <Position>
              <LatitudeDegrees>49.51194025576114654541015625</LatitudeDegrees>
              <LongitudeDegrees>20.60277055017650127410888671875</LongitudeDegrees>
            </Position>
            <AltitudeMeters>431</AltitudeMeters>
            <DistanceMeters>NAN</DistanceMeters>
          </Trackpoint>
          <Trackpoint>
            <Time>2022-09-22T12:16:29.000Z</Time>
            <Position>
              <LatitudeDegrees>49.5119461230933666229248046875</LatitudeDegrees>
              <LongitudeDegrees>20.60306425206363201141357421875</LongitudeDegrees>
            </Position>
            <AltitudeMeters>430</AltitudeMeters>
            <DistanceMeters>NAN</DistanceMeters>
          </Trackpoint>
          <Trackpoint>
            <Time>2022-09-22T12:16:30.000Z</Time>
            <Position>
              <LatitudeDegrees>49.511947296559810638427734375</LatitudeDegrees>
              <LongitudeDegrees>20.60321344994008541107177734375</LongitudeDegrees>
            </Position>
            <AltitudeMeters>429.600006103515625</AltitudeMeters>
            <DistanceMeters>NAN</DistanceMeters>
          </Trackpoint>
          <Trackpoint>
            <Time>2022-09-22T12:16:34.000Z</Time>
            <Position>
              <LatitudeDegrees>49.51191050000488758087158203125</LatitudeDegrees>
              <LongitudeDegrees>20.60380420647561550140380859375</LongitudeDegrees>
            </Position>
            <AltitudeMeters>428.79998779296875</AltitudeMeters>
            <DistanceMeters>NAN</DistanceMeters>
          </Trackpoint>
          <Trackpoint>
            <Time>2022-09-22T12:16:36.000Z</Time>
            <Position>
              <LatitudeDegrees>49.51188820414245128631591796875</LatitudeDegrees>
              <LongitudeDegrees>20.60407544486224651336669921875</LongitudeDegrees>
            </Position>
            <AltitudeMeters>427.79998779296875</AltitudeMeters>
            <DistanceMeters>NAN</DistanceMeters>
          </Trackpoint>
          <Trackpoint>
            <Time>2022-09-22T12:16:39.000Z</Time>
            <Position>
              <LatitudeDegrees>49.51186171732842922210693359375</LatitudeDegrees>
              <LongitudeDegrees>20.60444743372499942779541015625</LongitudeDegrees>
            </Position>
            <AltitudeMeters>427</AltitudeMeters>
            <DistanceMeters>NAN</DistanceMeters>
          </Trackpoint>
          <Trackpoint>
            <Time>2022-09-22T12:16:40.000Z</Time>
            <Position>
              <LatitudeDegrees>49.5118606276810169219970703125</LatitudeDegrees>
              <LongitudeDegrees>20.60457408428192138671875</LongitudeDegrees>
            </Position>
            <AltitudeMeters>426.600006103515625</AltitudeMeters>
            <DistanceMeters>NAN</DistanceMeters>
          </Trackpoint>
          <Trackpoint>
            <Time>2022-09-22T12:16:43.000Z</Time>
            <Position>
              <LatitudeDegrees>49.5118468813598155975341796875</LatitudeDegrees>
              <LongitudeDegrees>20.60494213365018367767333984375</LongitudeDegrees>
            </Position>
            <AltitudeMeters>425.600006103515625</AltitudeMeters>
            <DistanceMeters>NAN</DistanceMeters>
          </Trackpoint>
          <Trackpoint>
            <Time>2022-09-22T12:16:45.000Z</Time>
            <Position>
              <LatitudeDegrees>49.51182064600288867950439453125</LatitudeDegrees>
              <LongitudeDegrees>20.605182945728302001953125</LongitudeDegrees>
            </Position>
            <AltitudeMeters>424.79998779296875</AltitudeMeters>
            <DistanceMeters>NAN</DistanceMeters>
          </Trackpoint>
          <Trackpoint>
            <Time>2022-09-22T12:16:46.000Z</Time>
            <Position>
              <LatitudeDegrees>49.5118039660155773162841796875</LatitudeDegrees>
              <LongitudeDegrees>20.6053061597049236297607421875</LongitudeDegrees>
            </Position>
            <AltitudeMeters>424.20001220703125</AltitudeMeters>
            <DistanceMeters>NAN</DistanceMeters>
          </Trackpoint>
          <Trackpoint>
            <Time>2022-09-22T12:16:48.000Z</Time>
            <Position>
              <LatitudeDegrees>49.5117670856416225433349609375</LatitudeDegrees>
              <LongitudeDegrees>20.60555652715265750885009765625</LongitudeDegrees>
            </Position>
            <AltitudeMeters>422.79998779296875</AltitudeMeters>
            <DistanceMeters>NAN</DistanceMeters>
          </Trackpoint>
          <Trackpoint>
            <Time>2022-09-22T12:16:51.000Z</Time>
            <Position>
              <LatitudeDegrees>49.5117281936109066009521484375</LatitudeDegrees>
              <LongitudeDegrees>20.6059599481523036956787109375</LongitudeDegrees>
            </Position>
            <AltitudeMeters>421</AltitudeMeters>
            <DistanceMeters>NAN</DistanceMeters>
          </Trackpoint>
          <Trackpoint>
            <Time>2022-09-22T12:16:53.000Z</Time>
            <Position>
              <LatitudeDegrees>49.51171763241291046142578125</LatitudeDegrees>
              <LongitudeDegrees>20.6062410771846771240234375</LongitudeDegrees>
            </Position>
            <AltitudeMeters>419.399993896484375</AltitudeMeters>
            <DistanceMeters>NAN</DistanceMeters>
          </Trackpoint>
          <Trackpoint>
            <Time>2022-09-22T12:16:54.000Z</Time>
            <Position>
              <LatitudeDegrees>49.51171352528035640716552734375</LatitudeDegrees>
              <LongitudeDegrees>20.6063857488334178924560546875</LongitudeDegrees>
            </Position>
            <AltitudeMeters>419</AltitudeMeters>
            <DistanceMeters>NAN</DistanceMeters>
          </Trackpoint>
          <Trackpoint>
            <Time>2022-09-22T12:16:55.000Z</Time>
            <Position>
              <LatitudeDegrees>49.51171268709003925323486328125</LatitudeDegrees>
              <LongitudeDegrees>20.60653083957731723785400390625</LongitudeDegrees>
            </Position>
            <AltitudeMeters>418.399993896484375</AltitudeMeters>
            <DistanceMeters>NAN</DistanceMeters>
          </Trackpoint>
          <Trackpoint>
            <Time>2022-09-22T12:16:57.000Z</Time>
            <Position>
              <LatitudeDegrees>49.51170899905264377593994140625</LatitudeDegrees>
              <LongitudeDegrees>20.60682789422571659088134765625</LongitudeDegrees>
            </Position>
            <AltitudeMeters>417.600006103515625</AltitudeMeters>
            <DistanceMeters>NAN</DistanceMeters>
          </Trackpoint>
          <Trackpoint>
            <Time>2022-09-22T12:16:58.000Z</Time>
            <Position>
              <LatitudeDegrees>49.51170195825397968292236328125</LatitudeDegrees>
              <LongitudeDegrees>20.6069775111973285675048828125</LongitudeDegrees>
            </Position>
            <AltitudeMeters>416.79998779296875</AltitudeMeters>
            <DistanceMeters>NAN</DistanceMeters>
          </Trackpoint>
          <Trackpoint>
            <Time>2022-09-22T12:17:01.000Z</Time>
            <Position>
              <LatitudeDegrees>49.51165937818586826324462890625</LatitudeDegrees>
              <LongitudeDegrees>20.60742284171283245086669921875</LongitudeDegrees>
            </Position>
            <AltitudeMeters>415.600006103515625</AltitudeMeters>
            <DistanceMeters>NAN</DistanceMeters>
          </Trackpoint>
          <Trackpoint>
            <Time>2022-09-22T12:17:03.000Z</Time>
            <Position>
              <LatitudeDegrees>49.51162518002092838287353515625</LatitudeDegrees>
              <LongitudeDegrees>20.60770447365939617156982421875</LongitudeDegrees>
            </Position>
            <AltitudeMeters>415.399993896484375</AltitudeMeters>
            <DistanceMeters>NAN</DistanceMeters>
          </Trackpoint>
          <Trackpoint>
            <Time>2022-09-22T12:17:07.000Z</Time>
            <Position>
              <LatitudeDegrees>49.51158754527568817138671875</LatitudeDegrees>
              <LongitudeDegrees>20.60824711807072162628173828125</LongitudeDegrees>
            </Position>
            <AltitudeMeters>414.600006103515625</AltitudeMeters>
            <DistanceMeters>NAN</DistanceMeters>
          </Trackpoint>
          <Trackpoint>
            <Time>2022-09-22T12:17:08.000Z</Time>
            <Position>
              <LatitudeDegrees>49.51158762909471988677978515625</LatitudeDegrees>
              <LongitudeDegrees>20.60837821103632450103759765625</LongitudeDegrees>
            </Position>
            <AltitudeMeters>414.399993896484375</AltitudeMeters>
            <DistanceMeters>NAN</DistanceMeters>
          </Trackpoint>
          <Trackpoint>
            <Time>2022-09-22T12:17:15.000Z</Time>
            <Position>
              <LatitudeDegrees>49.5116155408322811126708984375</LatitudeDegrees>
              <LongitudeDegrees>20.60927608050405979156494140625</LongitudeDegrees>
            </Position>
            <AltitudeMeters>413.600006103515625</AltitudeMeters>
            <DistanceMeters>NAN</DistanceMeters>
          </Trackpoint>
          <Trackpoint>
            <Time>2022-09-22T12:17:17.000Z</Time>
            <Position>
              <LatitudeDegrees>49.51163046061992645263671875</LatitudeDegrees>
              <LongitudeDegrees>20.60952284373342990875244140625</LongitudeDegrees>
            </Position>
            <AltitudeMeters>413</AltitudeMeters>
            <DistanceMeters>NAN</DistanceMeters>
          </Trackpoint>
          <Trackpoint>
            <Time>2022-09-22T12:17:18.000Z</Time>
            <Position>
              <LatitudeDegrees>49.51163741759955883026123046875</LatitudeDegrees>
              <LongitudeDegrees>20.6096446327865123748779296875</LongitudeDegrees>
            </Position>
            <AltitudeMeters>412.600006103515625</AltitudeMeters>
            <DistanceMeters>NAN</DistanceMeters>
          </Trackpoint>
          <Trackpoint>
            <Time>2022-09-22T12:17:20.000Z</Time>
            <Position>
              <LatitudeDegrees>49.51165032573044300079345703125</LatitudeDegrees>
              <LongitudeDegrees>20.60988360084593296051025390625</LongitudeDegrees>
            </Position>
            <AltitudeMeters>411.79998779296875</AltitudeMeters>
            <DistanceMeters>NAN</DistanceMeters>
          </Trackpoint>
          <Trackpoint>
            <Time>2022-09-22T12:17:22.000Z</Time>
            <Position>
              <LatitudeDegrees>49.51164261437952518463134765625</LatitudeDegrees>
              <LongitudeDegrees>20.61011577956378459930419921875</LongitudeDegrees>
            </Position>
            <AltitudeMeters>411.20001220703125</AltitudeMeters>
            <DistanceMeters>NAN</DistanceMeters>
          </Trackpoint>
          <Trackpoint>
            <Time>2022-09-22T12:17:27.000Z</Time>
            <Position>
              <LatitudeDegrees>49.5115914009511470794677734375</LatitudeDegrees>
              <LongitudeDegrees>20.61071910895407199859619140625</LongitudeDegrees>
            </Position>
            <AltitudeMeters>410</AltitudeMeters>
            <DistanceMeters>NAN</DistanceMeters>
          </Trackpoint>
          <Trackpoint>
            <Time>2022-09-22T12:17:30.000Z</Time>
            <Position>
              <LatitudeDegrees>49.51155276037752628326416015625</LatitudeDegrees>
              <LongitudeDegrees>20.6110826320946216583251953125</LongitudeDegrees>
            </Position>
            <AltitudeMeters>409</AltitudeMeters>
            <DistanceMeters>NAN</DistanceMeters>
          </Trackpoint>
          <Trackpoint>
            <Time>2022-09-22T12:17:32.000Z</Time>
            <Position>
              <LatitudeDegrees>49.5115330629050731658935546875</LatitudeDegrees>
              <LongitudeDegrees>20.611327551305294036865234375</LongitudeDegrees>
            </Position>
            <AltitudeMeters>408</AltitudeMeters>
            <DistanceMeters>NAN</DistanceMeters>
          </Trackpoint>
          <Trackpoint>
            <Time>2022-09-22T12:17:34.000Z</Time>
            <Position>
              <LatitudeDegrees>49.51150842010974884033203125</LatitudeDegrees>
              <LongitudeDegrees>20.61157473362982273101806640625</LongitudeDegrees>
            </Position>
            <AltitudeMeters>407</AltitudeMeters>
            <DistanceMeters>NAN</DistanceMeters>
          </Trackpoint>
          <Trackpoint>
            <Time>2022-09-22T12:17:35.000Z</Time>
            <Position>
              <LatitudeDegrees>49.51149425469338893890380859375</LatitudeDegrees>
              <LongitudeDegrees>20.61169845052063465118408203125</LongitudeDegrees>
            </Position>
            <AltitudeMeters>406.600006103515625</AltitudeMeters>
            <DistanceMeters>NAN</DistanceMeters>
          </Trackpoint>
          <Trackpoint>
            <Time>2022-09-22T12:17:36.000Z</Time>
            <Position>
              <LatitudeDegrees>49.51148134656250476837158203125</LatitudeDegrees>
              <LongitudeDegrees>20.6118254363536834716796875</LongitudeDegrees>
            </Position>
            <AltitudeMeters>406.399993896484375</AltitudeMeters>
            <DistanceMeters>NAN</DistanceMeters>
          </Trackpoint>
          <Trackpoint>
            <Time>2022-09-22T12:17:40.000Z</Time>
            <Position>
              <LatitudeDegrees>49.51144530437886714935302734375</LatitudeDegrees>
              <LongitudeDegrees>20.61233849264681339263916015625</LongitudeDegrees>
            </Position>
            <AltitudeMeters>405.600006103515625</AltitudeMeters>
            <DistanceMeters>NAN</DistanceMeters>
          </Trackpoint>
          <Trackpoint>
            <Time>2022-09-22T12:17:42.000Z</Time>
            <Position>
              <LatitudeDegrees>49.5114153809845447540283203125</LatitudeDegrees>
              <LongitudeDegrees>20.6125970743596553802490234375</LongitudeDegrees>
            </Position>
            <AltitudeMeters>404.79998779296875</AltitudeMeters>
            <DistanceMeters>NAN</DistanceMeters>
          </Trackpoint>
          <Trackpoint>
            <Time>2022-09-22T12:17:44.000Z</Time>
            <Position>
              <LatitudeDegrees>49.51138713397085666656494140625</LatitudeDegrees>
              <LongitudeDegrees>20.612863115966320037841796875</LongitudeDegrees>
            </Position>
            <AltitudeMeters>404</AltitudeMeters>
            <DistanceMeters>NAN</DistanceMeters>
          </Trackpoint>
          <Trackpoint>
            <Time>2022-09-22T12:17:46.000Z</Time>
            <Position>
              <LatitudeDegrees>49.5113728009164333343505859375</LatitudeDegrees>
              <LongitudeDegrees>20.61313896439969539642333984375</LongitudeDegrees>
            </Position>
            <AltitudeMeters>402.600006103515625</AltitudeMeters>
            <DistanceMeters>NAN</DistanceMeters>
          </Trackpoint>
          <Trackpoint>
            <Time>2022-09-22T12:17:49.000Z</Time>
            <Position>
              <LatitudeDegrees>49.511365257203578948974609375</LatitudeDegrees>
              <LongitudeDegrees>20.61355722136795520782470703125</LongitudeDegrees>
            </Position>
            <AltitudeMeters>402</AltitudeMeters>
            <DistanceMeters>NAN</DistanceMeters>
          </Trackpoint>
          <Trackpoint>
            <Time>2022-09-22T12:17:51.000Z</Time>
            <Position>
              <LatitudeDegrees>49.51136986725032329559326171875</LatitudeDegrees>
              <LongitudeDegrees>20.61385142616927623748779296875</LongitudeDegrees>
            </Position>
            <AltitudeMeters>400.600006103515625</AltitudeMeters>
            <DistanceMeters>NAN</DistanceMeters>
          </Trackpoint>
          <Trackpoint>
            <Time>2022-09-22T12:17:53.000Z</Time>
            <Position>
              <LatitudeDegrees>49.51138772070407867431640625</LatitudeDegrees>
              <LongitudeDegrees>20.61415736563503742218017578125</LongitudeDegrees>
            </Position>
            <AltitudeMeters>399</AltitudeMeters>
            <DistanceMeters>NAN</DistanceMeters>
          </Trackpoint>
          <Trackpoint>
            <Time>2022-09-22T12:17:55.000Z</Time>
            <Position>
              <LatitudeDegrees>49.5114002935588359832763671875</LatitudeDegrees>
              <LongitudeDegrees>20.61446028761565685272216796875</LongitudeDegrees>
            </Position>
            <AltitudeMeters>397.600006103515625</AltitudeMeters>
            <DistanceMeters>NAN</DistanceMeters>
          </Trackpoint>
          <Trackpoint>
            <Time>2022-09-22T12:17:57.000Z</Time>
            <Position>
              <LatitudeDegrees>49.51141244731843471527099609375</LatitudeDegrees>
              <LongitudeDegrees>20.61476723290979862213134765625</LongitudeDegrees>
            </Position>
            <AltitudeMeters>396.399993896484375</AltitudeMeters>
            <DistanceMeters>NAN</DistanceMeters>
          </Trackpoint>
          <Trackpoint>
            <Time>2022-09-22T12:18:01.000Z</Time>
            <Position>
              <LatitudeDegrees>49.5114452205598354339599609375</LatitudeDegrees>
              <LongitudeDegrees>20.61531926505267620086669921875</LongitudeDegrees>
            </Position>
            <AltitudeMeters>395.399993896484375</AltitudeMeters>
            <DistanceMeters>NAN</DistanceMeters>
          </Trackpoint>
          <Trackpoint>
            <Time>2022-09-22T12:18:02.000Z</Time>
            <Position>
              <LatitudeDegrees>49.51144731603562831878662109375</LatitudeDegrees>
              <LongitudeDegrees>20.61543744988739490509033203125</LongitudeDegrees>
            </Position>
            <AltitudeMeters>395.399993896484375</AltitudeMeters>
            <DistanceMeters>NAN</DistanceMeters>
          </Trackpoint>
          <Trackpoint>
            <Time>2022-09-22T12:18:04.000Z</Time>
            <Position>
              <LatitudeDegrees>49.511457122862339019775390625</LatitudeDegrees>
              <LongitudeDegrees>20.61566577292978763580322265625</LongitudeDegrees>
            </Position>
            <AltitudeMeters>394</AltitudeMeters>
            <DistanceMeters>NAN</DistanceMeters>
          </Trackpoint>
          <Trackpoint>
            <Time>2022-09-22T12:18:07.000Z</Time>
            <Position>
              <LatitudeDegrees>49.5114696957170963287353515625</LatitudeDegrees>
              <LongitudeDegrees>20.61601244844496250152587890625</LongitudeDegrees>
            </Position>
            <AltitudeMeters>392.20001220703125</AltitudeMeters>
            <DistanceMeters>NAN</DistanceMeters>
          </Trackpoint>
          <Trackpoint>
            <Time>2022-09-22T12:18:10.000Z</Time>
            <Position>
              <LatitudeDegrees>49.5114656724035739898681640625</LatitudeDegrees>
              <LongitudeDegrees>20.61636038124561309814453125</LongitudeDegrees>
            </Position>
            <AltitudeMeters>391</AltitudeMeters>
            <DistanceMeters>NAN</DistanceMeters>
          </Trackpoint>
          <Trackpoint>
            <Time>2022-09-22T12:18:12.000Z</Time>
            <Position>
              <LatitudeDegrees>49.5114170573651790618896484375</LatitudeDegrees>
              <LongitudeDegrees>20.61656917445361614227294921875</LongitudeDegrees>
            </Position>
            <AltitudeMeters>390.399993896484375</AltitudeMeters>
            <DistanceMeters>NAN</DistanceMeters>
          </Trackpoint>
          <Trackpoint>
            <Time>2022-09-22T12:18:14.000Z</Time>
            <Position>
              <LatitudeDegrees>49.51134103350341320037841796875</LatitudeDegrees>
              <LongitudeDegrees>20.61674821190536022186279296875</LongitudeDegrees>
            </Position>
            <AltitudeMeters>390</AltitudeMeters>
            <DistanceMeters>NAN</DistanceMeters>
          </Trackpoint>
          <Trackpoint>
            <Time>2022-09-22T12:18:16.000Z</Time>
            <Position>
              <LatitudeDegrees>49.511257968842983245849609375</LatitudeDegrees>
              <LongitudeDegrees>20.61690545640885829925537109375</LongitudeDegrees>
            </Position>
            <AltitudeMeters>389.399993896484375</AltitudeMeters>
            <DistanceMeters>NAN</DistanceMeters>
          </Trackpoint>
          <Trackpoint>
            <Time>2022-09-22T12:18:17.000Z</Time>
            <Position>
              <LatitudeDegrees>49.51121480204164981842041015625</LatitudeDegrees>
              <LongitudeDegrees>20.6169844977557659149169921875</LongitudeDegrees>
            </Position>
            <AltitudeMeters>388.79998779296875</AltitudeMeters>
            <DistanceMeters>NAN</DistanceMeters>
          </Trackpoint>
          <Trackpoint>
            <Time>2022-09-22T12:18:19.000Z</Time>
            <Position>
              <LatitudeDegrees>49.5111317373812198638916015625</LatitudeDegrees>
              <LongitudeDegrees>20.61715724878013134002685546875</LongitudeDegrees>
            </Position>
            <AltitudeMeters>388</AltitudeMeters>
            <DistanceMeters>NAN</DistanceMeters>
          </Trackpoint>
          <Trackpoint>
            <Time>2022-09-22T12:18:20.000Z</Time>
            <Position>
              <LatitudeDegrees>49.5111069269478321075439453125</LatitudeDegrees>
              <LongitudeDegrees>20.61725028790533542633056640625</LongitudeDegrees>
            </Position>
            <AltitudeMeters>387.79998779296875</AltitudeMeters>
            <DistanceMeters>NAN</DistanceMeters>
          </Trackpoint>
          <Trackpoint>
            <Time>2022-09-22T12:18:21.000Z</Time>
            <Position>
              <LatitudeDegrees>49.51109276153147220611572265625</LatitudeDegrees>
              <LongitudeDegrees>20.61734416522085666656494140625</LongitudeDegrees>
            </Position>
            <AltitudeMeters>387.79998779296875</AltitudeMeters>
            <DistanceMeters>NAN</DistanceMeters>
          </Trackpoint>
          <Trackpoint>
            <Time>2022-09-22T12:18:23.000Z</Time>
            <Position>
              <LatitudeDegrees>49.5110987126827239990234375</LatitudeDegrees>
              <LongitudeDegrees>20.617524795234203338623046875</LongitudeDegrees>
            </Position>
            <AltitudeMeters>387.399993896484375</AltitudeMeters>
            <DistanceMeters>NAN</DistanceMeters>
          </Trackpoint>
          <Trackpoint>
            <Time>2022-09-22T12:18:25.000Z</Time>
            <Position>
              <LatitudeDegrees>49.5111429691314697265625</LatitudeDegrees>
              <LongitudeDegrees>20.61769654043018817901611328125</LongitudeDegrees>
            </Position>
            <AltitudeMeters>387.399993896484375</AltitudeMeters>
            <DistanceMeters>NAN</DistanceMeters>
          </Trackpoint>
          <Trackpoint>
            <Time>2022-09-22T12:18:27.000Z</Time>
            <Position>
              <LatitudeDegrees>49.51121128164231777191162109375</LatitudeDegrees>
              <LongitudeDegrees>20.61785445548593997955322265625</LongitudeDegrees>
            </Position>
            <AltitudeMeters>387.600006103515625</AltitudeMeters>
            <DistanceMeters>NAN</DistanceMeters>
          </Trackpoint>
          <Trackpoint>
            <Time>2022-09-22T12:18:33.000Z</Time>
            <Position>
              <LatitudeDegrees>49.51141454279422760009765625</LatitudeDegrees>
              <LongitudeDegrees>20.6182773225009441375732421875</LongitudeDegrees>
            </Position>
            <AltitudeMeters>387.600006103515625</AltitudeMeters>
            <DistanceMeters>NAN</DistanceMeters>
          </Trackpoint>
          <Trackpoint>
            <Time>2022-09-22T12:18:34.000Z</Time>
            <Position>
              <LatitudeDegrees>49.51144463382661342620849609375</LatitudeDegrees>
              <LongitudeDegrees>20.61833851039409637451171875</LongitudeDegrees>
            </Position>
            <AltitudeMeters>387.79998779296875</AltitudeMeters>
            <DistanceMeters>NAN</DistanceMeters>
          </Trackpoint>
          <Trackpoint>
            <Time>2022-09-22T12:18:41.000Z</Time>
            <Position>
              <LatitudeDegrees>49.51163808815181255340576171875</LatitudeDegrees>
              <LongitudeDegrees>20.61876833438873291015625</LongitudeDegrees>
            </Position>
            <AltitudeMeters>386.399993896484375</AltitudeMeters>
            <DistanceMeters>NAN</DistanceMeters>
          </Trackpoint>
          <Trackpoint>
            <Time>2022-09-22T12:18:42.000Z</Time>
            <Position>
              <LatitudeDegrees>49.51167882420122623443603515625</LatitudeDegrees>
              <LongitudeDegrees>20.6188566796481609344482421875</LongitudeDegrees>
            </Position>
            <AltitudeMeters>386</AltitudeMeters>
            <DistanceMeters>NAN</DistanceMeters>
          </Trackpoint>
          <Trackpoint>
            <Time>2022-09-22T12:18:44.000Z</Time>
            <Position>
              <LatitudeDegrees>49.51175979338586330413818359375</LatitudeDegrees>
              <LongitudeDegrees>20.61902004294097423553466796875</LongitudeDegrees>
            </Position>
            <AltitudeMeters>384.600006103515625</AltitudeMeters>
            <DistanceMeters>NAN</DistanceMeters>
          </Trackpoint>
          <Trackpoint>
            <Time>2022-09-22T12:18:46.000Z</Time>
            <Position>
              <LatitudeDegrees>49.51185015030205249786376953125</LatitudeDegrees>
              <LongitudeDegrees>20.6191936321556568145751953125</LongitudeDegrees>
            </Position>
            <AltitudeMeters>383</AltitudeMeters>
            <DistanceMeters>NAN</DistanceMeters>
          </Trackpoint>
          <Trackpoint>
            <Time>2022-09-22T12:18:47.000Z</Time>
            <Position>
              <LatitudeDegrees>49.511897675693035125732421875</LatitudeDegrees>
              <LongitudeDegrees>20.619284324347972869873046875</LongitudeDegrees>
            </Position>
            <AltitudeMeters>382.600006103515625</AltitudeMeters>
            <DistanceMeters>NAN</DistanceMeters>
          </Trackpoint>
          <Trackpoint>
            <Time>2022-09-22T12:18:50.000Z</Time>
            <Position>
              <LatitudeDegrees>49.51205064542591571807861328125</LatitudeDegrees>
              <LongitudeDegrees>20.619564615190029144287109375</LongitudeDegrees>
            </Position>
            <AltitudeMeters>381.600006103515625</AltitudeMeters>
            <DistanceMeters>NAN</DistanceMeters>
          </Trackpoint>
          <Trackpoint>
            <Time>2022-09-22T12:18:52.000Z</Time>
            <Position>
              <LatitudeDegrees>49.5121409185230731964111328125</LatitudeDegrees>
              <LongitudeDegrees>20.61974876560270786285400390625</LongitudeDegrees>
            </Position>
            <AltitudeMeters>381</AltitudeMeters>
            <DistanceMeters>NAN</DistanceMeters>
          </Trackpoint>
          <Trackpoint>
            <Time>2022-09-22T12:18:54.000Z</Time>
            <Position>
              <LatitudeDegrees>49.51222280971705913543701171875</LatitudeDegrees>
              <LongitudeDegrees>20.619924366474151611328125</LongitudeDegrees>
            </Position>
            <AltitudeMeters>380.600006103515625</AltitudeMeters>
            <DistanceMeters>NAN</DistanceMeters>
          </Trackpoint>
          <Trackpoint>
            <Time>2022-09-22T12:18:55.000Z</Time>
            <Position>
              <LatitudeDegrees>49.51225281693041324615478515625</LatitudeDegrees>
              <LongitudeDegrees>20.62001246027648448944091796875</LongitudeDegrees>
            </Position>
            <AltitudeMeters>380.600006103515625</AltitudeMeters>
            <DistanceMeters>NAN</DistanceMeters>
          </Trackpoint>
          <Trackpoint>
            <Time>2022-09-22T12:18:56.000Z</Time>
            <Position>
              <LatitudeDegrees>49.51227293349802494049072265625</LatitudeDegrees>
              <LongitudeDegrees>20.62009979970753192901611328125</LongitudeDegrees>
            </Position>
            <AltitudeMeters>380.600006103515625</AltitudeMeters>
            <DistanceMeters>NAN</DistanceMeters>
          </Trackpoint>
          <Trackpoint>
            <Time>2022-09-22T12:18:57.000Z</Time>
            <Position>
              <LatitudeDegrees>49.51228382997214794158935546875</LatitudeDegrees>
              <LongitudeDegrees>20.620195604860782623291015625</LongitudeDegrees>
            </Position>
            <AltitudeMeters>380.399993896484375</AltitudeMeters>
            <DistanceMeters>NAN</DistanceMeters>
          </Trackpoint>
          <Trackpoint>
            <Time>2022-09-22T12:19:01.000Z</Time>
            <Position>
              <LatitudeDegrees>49.51230746693909168243408203125</LatitudeDegrees>
              <LongitudeDegrees>20.62055745162069797515869140625</LongitudeDegrees>
            </Position>
            <AltitudeMeters>380.20001220703125</AltitudeMeters>
            <DistanceMeters>NAN</DistanceMeters>
          </Trackpoint>
          <Trackpoint>
            <Time>2022-09-22T12:19:03.000Z</Time>
            <Position>
              <LatitudeDegrees>49.51233043335378170013427734375</LatitudeDegrees>
              <LongitudeDegrees>20.62073766253888607025146484375</LongitudeDegrees>
            </Position>
            <AltitudeMeters>380</AltitudeMeters>
            <DistanceMeters>NAN</DistanceMeters>
          </Trackpoint>
          <Trackpoint>
            <Time>2022-09-22T12:19:05.000Z</Time>
            <Position>
              <LatitudeDegrees>49.51236261986196041107177734375</LatitudeDegrees>
              <LongitudeDegrees>20.620913766324520111083984375</LongitudeDegrees>
            </Position>
            <AltitudeMeters>379.399993896484375</AltitudeMeters>
            <DistanceMeters>NAN</DistanceMeters>
          </Trackpoint>
          <Trackpoint>
            <Time>2022-09-22T12:19:07.000Z</Time>
            <Position>
              <LatitudeDegrees>49.51240737922489643096923828125</LatitudeDegrees>
              <LongitudeDegrees>20.62109188176691532135009765625</LongitudeDegrees>
            </Position>
            <AltitudeMeters>379</AltitudeMeters>
            <DistanceMeters>NAN</DistanceMeters>
          </Trackpoint>
          <Trackpoint>
            <Time>2022-09-22T12:19:10.000Z</Time>
            <Position>
              <LatitudeDegrees>49.51250511221587657928466796875</LatitudeDegrees>
              <LongitudeDegrees>20.62135733664035797119140625</LongitudeDegrees>
            </Position>
            <AltitudeMeters>378.399993896484375</AltitudeMeters>
            <DistanceMeters>NAN</DistanceMeters>
          </Trackpoint>
          <Trackpoint>
            <Time>2022-09-22T12:19:14.000Z</Time>
            <Position>
              <LatitudeDegrees>49.5126624405384063720703125</LatitudeDegrees>
              <LongitudeDegrees>20.62166981399059295654296875</LongitudeDegrees>
            </Position>
            <AltitudeMeters>377.600006103515625</AltitudeMeters>
            <DistanceMeters>NAN</DistanceMeters>
          </Trackpoint>
          <Trackpoint>
            <Time>2022-09-22T12:19:15.000Z</Time>
            <Position>
              <LatitudeDegrees>49.51270845718681812286376953125</LatitudeDegrees>
              <LongitudeDegrees>20.62173561193048954010009765625</LongitudeDegrees>
            </Position>
            <AltitudeMeters>377.399993896484375</AltitudeMeters>
            <DistanceMeters>NAN</DistanceMeters>
          </Trackpoint>
          <Trackpoint>
            <Time>2022-09-22T12:19:21.000Z</Time>
            <Position>
              <LatitudeDegrees>49.51302311383187770843505859375</LatitudeDegrees>
              <LongitudeDegrees>20.622116737067699432373046875</LongitudeDegrees>
            </Position>
            <AltitudeMeters>376.20001220703125</AltitudeMeters>
            <DistanceMeters>NAN</DistanceMeters>
          </Trackpoint>
          <Trackpoint>
            <Time>2022-09-22T12:19:23.000Z</Time>
            <Position>
              <LatitudeDegrees>49.51313509605824947357177734375</LatitudeDegrees>
              <LongitudeDegrees>20.62225931324064731597900390625</LongitudeDegrees>
            </Position>
            <AltitudeMeters>375.79998779296875</AltitudeMeters>
            <DistanceMeters>NAN</DistanceMeters>
          </Trackpoint>
          <Trackpoint>
            <Time>2022-09-22T12:19:25.000Z</Time>
            <Position>
              <LatitudeDegrees>49.51323282904922962188720703125</LatitudeDegrees>
              <LongitudeDegrees>20.62243667431175708770751953125</LongitudeDegrees>
            </Position>
            <AltitudeMeters>375</AltitudeMeters>
            <DistanceMeters>NAN</DistanceMeters>
          </Trackpoint>
          <Trackpoint>
            <Time>2022-09-22T12:19:26.000Z</Time>
            <Position>
              <LatitudeDegrees>49.5132694579660892486572265625</LatitudeDegrees>
              <LongitudeDegrees>20.62252418138086795806884765625</LongitudeDegrees>
            </Position>
            <AltitudeMeters>374.600006103515625</AltitudeMeters>
            <DistanceMeters>NAN</DistanceMeters>
          </Trackpoint>
          <Trackpoint>
            <Time>2022-09-22T12:19:29.000Z</Time>
            <Position>
              <LatitudeDegrees>49.5133489184081554412841796875</LatitudeDegrees>
              <LongitudeDegrees>20.62279139645397663116455078125</LongitudeDegrees>
            </Position>
            <AltitudeMeters>374</AltitudeMeters>
            <DistanceMeters>NAN</DistanceMeters>
          </Trackpoint>
          <Trackpoint>
            <Time>2022-09-22T12:19:32.000Z</Time>
            <Position>
              <LatitudeDegrees>49.5134246908128261566162109375</LatitudeDegrees>
              <LongitudeDegrees>20.6230570189654827117919921875</LongitudeDegrees>
            </Position>
            <AltitudeMeters>373.79998779296875</AltitudeMeters>
            <DistanceMeters>NAN</DistanceMeters>
          </Trackpoint>
          <Trackpoint>
            <Time>2022-09-22T12:19:38.000Z</Time>
            <Position>
              <LatitudeDegrees>49.5135098509490489959716796875</LatitudeDegrees>
              <LongitudeDegrees>20.6236615218222141265869140625</LongitudeDegrees>
            </Position>
            <AltitudeMeters>372</AltitudeMeters>
            <DistanceMeters>NAN</DistanceMeters>
          </Trackpoint>
          <Trackpoint>
            <Time>2022-09-22T12:19:40.000Z</Time>
            <Position>
              <LatitudeDegrees>49.5135309733450412750244140625</LatitudeDegrees>
              <LongitudeDegrees>20.62389277853071689605712890625</LongitudeDegrees>
            </Position>
            <AltitudeMeters>371</AltitudeMeters>
            <DistanceMeters>NAN</DistanceMeters>
          </Trackpoint>
          <Trackpoint>
            <Time>2022-09-22T12:19:42.000Z</Time>
            <Position>
              <LatitudeDegrees>49.513545893132686614990234375</LatitudeDegrees>
              <LongitudeDegrees>20.62412663362920284271240234375</LongitudeDegrees>
            </Position>
            <AltitudeMeters>370.399993896484375</AltitudeMeters>
            <DistanceMeters>NAN</DistanceMeters>
          </Trackpoint>
          <Trackpoint>
            <Time>2022-09-22T12:19:43.000Z</Time>
            <Position>
              <LatitudeDegrees>49.51354765333235263824462890625</LatitudeDegrees>
              <LongitudeDegrees>20.6242449022829532623291015625</LongitudeDegrees>
            </Position>
            <AltitudeMeters>369.600006103515625</AltitudeMeters>
            <DistanceMeters>NAN</DistanceMeters>
          </Trackpoint>
          <Trackpoint>
            <Time>2022-09-22T12:19:45.000Z</Time>
            <Position>
              <LatitudeDegrees>49.51357103884220123291015625</LatitudeDegrees>
              <LongitudeDegrees>20.62447607517242431640625</LongitudeDegrees>
            </Position>
            <AltitudeMeters>368.600006103515625</AltitudeMeters>
            <DistanceMeters>NAN</DistanceMeters>
          </Trackpoint>
          <Trackpoint>
            <Time>2022-09-22T12:19:48.000Z</Time>
            <Position>
              <LatitudeDegrees>49.513597525656223297119140625</LatitudeDegrees>
              <LongitudeDegrees>20.62482182867825031280517578125</LongitudeDegrees>
            </Position>
            <AltitudeMeters>368.20001220703125</AltitudeMeters>
            <DistanceMeters>NAN</DistanceMeters>
          </Trackpoint>
          <Trackpoint>
            <Time>2022-09-22T12:19:51.000Z</Time>
            <Position>
              <LatitudeDegrees>49.51362476684153079986572265625</LatitudeDegrees>
              <LongitudeDegrees>20.62516163103282451629638671875</LongitudeDegrees>
            </Position>
            <AltitudeMeters>368.399993896484375</AltitudeMeters>
            <DistanceMeters>NAN</DistanceMeters>
          </Trackpoint>
          <Trackpoint>
            <Time>2022-09-22T12:19:53.000Z</Time>
            <Position>
              <LatitudeDegrees>49.51364622451364994049072265625</LatitudeDegrees>
              <LongitudeDegrees>20.625326000154018402099609375</LongitudeDegrees>
            </Position>
            <AltitudeMeters>368.79998779296875</AltitudeMeters>
            <DistanceMeters>NAN</DistanceMeters>
          </Trackpoint>
          <Trackpoint>
            <Time>2022-09-22T12:19:56.000Z</Time>
            <Position>
              <LatitudeDegrees>49.51365594752132892608642578125</LatitudeDegrees>
              <LongitudeDegrees>20.6254760362207889556884765625</LongitudeDegrees>
            </Position>
            <AltitudeMeters>369</AltitudeMeters>
            <DistanceMeters>NAN</DistanceMeters>
          </Trackpoint>
          <Trackpoint>
            <Time>2022-09-22T12:19:57.000Z</Time>
            <Position>
              <LatitudeDegrees>49.5136600546538829803466796875</LatitudeDegrees>
              <LongitudeDegrees>20.6254966557025909423828125</LongitudeDegrees>
            </Position>
            <AltitudeMeters>369</AltitudeMeters>
            <DistanceMeters>NAN</DistanceMeters>
          </Trackpoint>
          <Trackpoint>
            <Time>2022-09-22T12:19:59.000Z</Time>
            <Position>
              <LatitudeDegrees>49.5136627368628978729248046875</LatitudeDegrees>
              <LongitudeDegrees>20.6255047023296356201171875</LongitudeDegrees>
            </Position>
            <AltitudeMeters>369</AltitudeMeters>
            <DistanceMeters>NAN</DistanceMeters>
          </Trackpoint>
          <Trackpoint>
            <Time>2022-09-22T12:20:09.000Z</Time>
            <Position>
              <LatitudeDegrees>49.5136627368628978729248046875</LatitudeDegrees>
              <LongitudeDegrees>20.6255047023296356201171875</LongitudeDegrees>
            </Position>
            <AltitudeMeters>369</AltitudeMeters>
            <DistanceMeters>NAN</DistanceMeters>
          </Trackpoint>
          <Trackpoint>
            <Time>2022-09-22T12:20:16.000Z</Time>
            <Position>
              <LatitudeDegrees>49.5136627368628978729248046875</LatitudeDegrees>
              <LongitudeDegrees>20.6255047023296356201171875</LongitudeDegrees>
            </Position>
            <AltitudeMeters>369.600006103515625</AltitudeMeters>
            <DistanceMeters>NAN</DistanceMeters>
          </Trackpoint>
          <Trackpoint>
            <Time>2022-09-22T12:20:20.000Z</Time>
            <Position>
              <LatitudeDegrees>49.5136627368628978729248046875</LatitudeDegrees>
              <LongitudeDegrees>20.6255047023296356201171875</LongitudeDegrees>
            </Position>
            <AltitudeMeters>369.600006103515625</AltitudeMeters>
            <DistanceMeters>NAN</DistanceMeters>
          </Trackpoint>
          <Trackpoint>
            <Time>2022-09-22T12:20:25.000Z</Time>
            <Position>
              <LatitudeDegrees>49.5136627368628978729248046875</LatitudeDegrees>
              <LongitudeDegrees>20.6255047023296356201171875</LongitudeDegrees>
            </Position>
            <AltitudeMeters>369.79998779296875</AltitudeMeters>
            <DistanceMeters>NAN</DistanceMeters>
          </Trackpoint>
          <Trackpoint>
            <Time>2022-09-22T12:20:32.000Z</Time>
            <Position>
              <LatitudeDegrees>49.51365963555872440338134765625</LatitudeDegrees>
              <LongitudeDegrees>20.6255041994154453277587890625</LongitudeDegrees>
            </Position>
            <AltitudeMeters>369.600006103515625</AltitudeMeters>
            <DistanceMeters>NAN</DistanceMeters>
          </Trackpoint>
          <Trackpoint>
            <Time>2022-09-22T12:20:37.000Z</Time>
            <Position>
              <LatitudeDegrees>49.5136748068034648895263671875</LatitudeDegrees>
              <LongitudeDegrees>20.6255380623042583465576171875</LongitudeDegrees>
            </Position>
            <AltitudeMeters>369.399993896484375</AltitudeMeters>
            <DistanceMeters>NAN</DistanceMeters>
          </Trackpoint>
          <Trackpoint>
            <Time>2022-09-22T12:20:38.000Z</Time>
            <Position>
              <LatitudeDegrees>49.51367774046957492828369140625</LatitudeDegrees>
              <LongitudeDegrees>20.62555633485317230224609375</LongitudeDegrees>
            </Position>
            <AltitudeMeters>369.399993896484375</AltitudeMeters>
            <DistanceMeters>NAN</DistanceMeters>
          </Trackpoint>
          <Trackpoint>
            <Time>2022-09-22T12:20:41.000Z</Time>
            <Position>
              <LatitudeDegrees>49.513678662478923797607421875</LatitudeDegrees>
              <LongitudeDegrees>20.6256242282688617706298828125</LongitudeDegrees>
            </Position>
            <AltitudeMeters>369.399993896484375</AltitudeMeters>
            <DistanceMeters>NAN</DistanceMeters>
          </Trackpoint>
          <Trackpoint>
            <Time>2022-09-22T12:20:44.000Z</Time>
            <Position>
              <LatitudeDegrees>49.51368662528693675994873046875</LatitudeDegrees>
              <LongitudeDegrees>20.625693462789058685302734375</LongitudeDegrees>
            </Position>
            <AltitudeMeters>369.399993896484375</AltitudeMeters>
            <DistanceMeters>NAN</DistanceMeters>
          </Trackpoint>
          <Trackpoint>
            <Time>2022-09-22T12:20:45.000Z</Time>
            <Position>
              <LatitudeDegrees>49.513687379658222198486328125</LatitudeDegrees>
              <LongitudeDegrees>20.62571936286985874176025390625</LongitudeDegrees>
            </Position>
            <AltitudeMeters>369.399993896484375</AltitudeMeters>
            <DistanceMeters>NAN</DistanceMeters>
          </Trackpoint>
          <Trackpoint>
            <Time>2022-09-22T12:20:49.000Z</Time>
            <Position>
              <LatitudeDegrees>49.5136972703039646148681640625</LatitudeDegrees>
              <LongitudeDegrees>20.6258203648030757904052734375</LongitudeDegrees>
            </Position>
            <AltitudeMeters>369.399993896484375</AltitudeMeters>
            <DistanceMeters>NAN</DistanceMeters>
          </Trackpoint>
          <Trackpoint>
            <Time>2022-09-22T12:20:50.000Z</Time>
            <Position>
              <LatitudeDegrees>49.513702131807804107666015625</LatitudeDegrees>
              <LongitudeDegrees>20.625837631523609161376953125</LongitudeDegrees>
            </Position>
            <AltitudeMeters>369.399993896484375</AltitudeMeters>
            <DistanceMeters>NAN</DistanceMeters>
          </Trackpoint>
          <Trackpoint>
            <Time>2022-09-22T12:20:53.000Z</Time>
            <Position>
              <LatitudeDegrees>49.51369785703718662261962890625</LatitudeDegrees>
              <LongitudeDegrees>20.62584064900875091552734375</LongitudeDegrees>
            </Position>
            <AltitudeMeters>369.20001220703125</AltitudeMeters>
            <DistanceMeters>NAN</DistanceMeters>
          </Trackpoint>
          <Trackpoint>
            <Time>2022-09-22T12:20:55.000Z</Time>
            <Position>
              <LatitudeDegrees>49.51367966830730438232421875</LatitudeDegrees>
              <LongitudeDegrees>20.625828914344310760498046875</LongitudeDegrees>
            </Position>
            <AltitudeMeters>369</AltitudeMeters>
            <DistanceMeters>NAN</DistanceMeters>
          </Trackpoint>
          <Trackpoint>
            <Time>2022-09-22T12:20:58.000Z</Time>
            <Position>
              <LatitudeDegrees>49.513678662478923797607421875</LatitudeDegrees>
              <LongitudeDegrees>20.62582748942077159881591796875</LongitudeDegrees>
            </Position>
            <AltitudeMeters>369</AltitudeMeters>
            <DistanceMeters>NAN</DistanceMeters>
          </Trackpoint>
          <Trackpoint>
            <Time>2022-09-22T12:21:08.000Z</Time>
            <Position>
              <LatitudeDegrees>49.513678662478923797607421875</LatitudeDegrees>
              <LongitudeDegrees>20.62582748942077159881591796875</LongitudeDegrees>
            </Position>
            <AltitudeMeters>369.20001220703125</AltitudeMeters>
            <DistanceMeters>NAN</DistanceMeters>
          </Trackpoint>
          <Trackpoint>
            <Time>2022-09-22T12:21:10.000Z</Time>
            <Position>
              <LatitudeDegrees>49.51367908157408237457275390625</LatitudeDegrees>
              <LongitudeDegrees>20.62582866288721561431884765625</LongitudeDegrees>
            </Position>
            <AltitudeMeters>369.20001220703125</AltitudeMeters>
            <DistanceMeters>NAN</DistanceMeters>
          </Trackpoint>
          <Trackpoint>
            <Time>2022-09-22T12:21:13.000Z</Time>
            <Position>
              <LatitudeDegrees>49.51369048096239566802978515625</LatitudeDegrees>
              <LongitudeDegrees>20.62589471228420734405517578125</LongitudeDegrees>
            </Position>
            <AltitudeMeters>369.20001220703125</AltitudeMeters>
            <DistanceMeters>NAN</DistanceMeters>
          </Trackpoint>
          <Trackpoint>
            <Time>2022-09-22T12:21:18.000Z</Time>
            <Position>
              <LatitudeDegrees>49.51371747069060802459716796875</LatitudeDegrees>
              <LongitudeDegrees>20.6260815449059009552001953125</LongitudeDegrees>
            </Position>
            <AltitudeMeters>369</AltitudeMeters>
            <DistanceMeters>NAN</DistanceMeters>
          </Trackpoint>
          <Trackpoint>
            <Time>2022-09-22T12:21:19.000Z</Time>
            <Position>
              <LatitudeDegrees>49.51372568495571613311767578125</LatitudeDegrees>
              <LongitudeDegrees>20.62612940557301044464111328125</LongitudeDegrees>
            </Position>
            <AltitudeMeters>368.79998779296875</AltitudeMeters>
            <DistanceMeters>NAN</DistanceMeters>
          </Trackpoint>
          <Trackpoint>
            <Time>2022-09-22T12:21:21.000Z</Time>
            <Position>
              <LatitudeDegrees>49.5137291215360164642333984375</LatitudeDegrees>
              <LongitudeDegrees>20.6262300722301006317138671875</LongitudeDegrees>
            </Position>
            <AltitudeMeters>368.600006103515625</AltitudeMeters>
            <DistanceMeters>NAN</DistanceMeters>
          </Trackpoint>
          <Trackpoint>
            <Time>2022-09-22T12:21:26.000Z</Time>
            <Position>
              <LatitudeDegrees>49.51374714262783527374267578125</LatitudeDegrees>
              <LongitudeDegrees>20.62650659121572971343994140625</LongitudeDegrees>
            </Position>
            <AltitudeMeters>368.20001220703125</AltitudeMeters>
            <DistanceMeters>NAN</DistanceMeters>
          </Trackpoint>
          <Trackpoint>
            <Time>2022-09-22T12:21:30.000Z</Time>
            <Position>
              <LatitudeDegrees>49.51378251425921916961669921875</LatitudeDegrees>
              <LongitudeDegrees>20.6267725490033626556396484375</LongitudeDegrees>
            </Position>
            <AltitudeMeters>367.20001220703125</AltitudeMeters>
            <DistanceMeters>NAN</DistanceMeters>
          </Trackpoint>
          <Trackpoint>
            <Time>2022-09-22T12:21:33.000Z</Time>
            <Position>
              <LatitudeDegrees>49.5138246752321720123291015625</LatitudeDegrees>
              <LongitudeDegrees>20.62699475325644016265869140625</LongitudeDegrees>
            </Position>
            <AltitudeMeters>366.399993896484375</AltitudeMeters>
            <DistanceMeters>NAN</DistanceMeters>
          </Trackpoint>
          <Trackpoint>
            <Time>2022-09-22T12:21:35.000Z</Time>
            <Position>
              <LatitudeDegrees>49.5138706080615520477294921875</LatitudeDegrees>
              <LongitudeDegrees>20.62715300358831882476806640625</LongitudeDegrees>
            </Position>
            <AltitudeMeters>366.20001220703125</AltitudeMeters>
            <DistanceMeters>NAN</DistanceMeters>
          </Trackpoint>
          <Trackpoint>
            <Time>2022-09-22T12:21:38.000Z</Time>
            <Position>
              <LatitudeDegrees>49.5139594562351703643798828125</LatitudeDegrees>
              <LongitudeDegrees>20.62738115899264812469482421875</LongitudeDegrees>
            </Position>
            <AltitudeMeters>365.79998779296875</AltitudeMeters>
            <DistanceMeters>NAN</DistanceMeters>
          </Trackpoint>
          <Trackpoint>
            <Time>2022-09-22T12:21:40.000Z</Time>
            <Position>
              <LatitudeDegrees>49.51402961276471614837646484375</LatitudeDegrees>
              <LongitudeDegrees>20.62754452228546142578125</LongitudeDegrees>
            </Position>
            <AltitudeMeters>364.79998779296875</AltitudeMeters>
            <DistanceMeters>NAN</DistanceMeters>
          </Trackpoint>
          <Trackpoint>
            <Time>2022-09-22T12:21:43.000Z</Time>
            <Position>
              <LatitudeDegrees>49.514141343533992767333984375</LatitudeDegrees>
              <LongitudeDegrees>20.62779170460999011993408203125</LongitudeDegrees>
            </Position>
            <AltitudeMeters>363.79998779296875</AltitudeMeters>
            <DistanceMeters>NAN</DistanceMeters>
          </Trackpoint>
          <Trackpoint>
            <Time>2022-09-22T12:21:48.000Z</Time>
            <Position>
              <LatitudeDegrees>49.51433840207755565643310546875</LatitudeDegrees>
              <LongitudeDegrees>20.62819839455187320709228515625</LongitudeDegrees>
            </Position>
            <AltitudeMeters>362.79998779296875</AltitudeMeters>
            <DistanceMeters>NAN</DistanceMeters>
          </Trackpoint>
          <Trackpoint>
            <Time>2022-09-22T12:21:49.000Z</Time>
            <Position>
              <LatitudeDegrees>49.51437679119408130645751953125</LatitudeDegrees>
              <LongitudeDegrees>20.62828472815454006195068359375</LongitudeDegrees>
            </Position>
            <AltitudeMeters>362.399993896484375</AltitudeMeters>
            <DistanceMeters>NAN</DistanceMeters>
          </Trackpoint>
          <Trackpoint>
            <Time>2022-09-22T12:21:50.000Z</Time>
            <Position>
              <LatitudeDegrees>49.514417611062526702880859375</LatitudeDegrees>
              <LongitudeDegrees>20.628372989594936370849609375</LongitudeDegrees>
            </Position>
            <AltitudeMeters>362.399993896484375</AltitudeMeters>
            <DistanceMeters>NAN</DistanceMeters>
          </Trackpoint>
          <Trackpoint>
            <Time>2022-09-22T12:21:51.000Z</Time>
            <Position>
              <LatitudeDegrees>49.51445155777037143707275390625</LatitudeDegrees>
              <LongitudeDegrees>20.62846426852047443389892578125</LongitudeDegrees>
            </Position>
            <AltitudeMeters>362</AltitudeMeters>
            <DistanceMeters>NAN</DistanceMeters>
          </Trackpoint>
          <Trackpoint>
            <Time>2022-09-22T12:21:53.000Z</Time>
            <Position>
              <LatitudeDegrees>49.5144958980381488800048828125</LatitudeDegrees>
              <LongitudeDegrees>20.62866241671144962310791015625</LongitudeDegrees>
            </Position>
            <AltitudeMeters>361.600006103515625</AltitudeMeters>
            <DistanceMeters>NAN</DistanceMeters>
          </Trackpoint>
          <Trackpoint>
            <Time>2022-09-22T12:21:54.000Z</Time>
            <Position>
              <LatitudeDegrees>49.5145093090832233428955078125</LatitudeDegrees>
              <LongitudeDegrees>20.62876819632947444915771484375</LongitudeDegrees>
            </Position>
            <AltitudeMeters>361.399993896484375</AltitudeMeters>
            <DistanceMeters>NAN</DistanceMeters>
          </Trackpoint>
          <Trackpoint>
            <Time>2022-09-22T12:21:59.000Z</Time>
            <Position>
              <LatitudeDegrees>49.51450042426586151123046875</LatitudeDegrees>
              <LongitudeDegrees>20.62930480577051639556884765625</LongitudeDegrees>
            </Position>
            <AltitudeMeters>360.399993896484375</AltitudeMeters>
            <DistanceMeters>NAN</DistanceMeters>
          </Trackpoint>
          <Trackpoint>
            <Time>2022-09-22T12:22:06.000Z</Time>
            <Position>
              <LatitudeDegrees>49.51440663076937198638916015625</LatitudeDegrees>
              <LongitudeDegrees>20.62998868525028228759765625</LongitudeDegrees>
            </Position>
            <AltitudeMeters>359.399993896484375</AltitudeMeters>
            <DistanceMeters>NAN</DistanceMeters>
          </Trackpoint>
          <Trackpoint>
            <Time>2022-09-22T12:22:07.000Z</Time>
            <Position>
              <LatitudeDegrees>49.51439389027655124664306640625</LatitudeDegrees>
              <LongitudeDegrees>20.6300857476890087127685546875</LongitudeDegrees>
            </Position>
            <AltitudeMeters>359.600006103515625</AltitudeMeters>
            <DistanceMeters>NAN</DistanceMeters>
          </Trackpoint>
          <Trackpoint>
            <Time>2022-09-22T12:22:13.000Z</Time>
            <Position>
              <LatitudeDegrees>49.5143312774598598480224609375</LatitudeDegrees>
              <LongitudeDegrees>20.63067826442420482635498046875</LongitudeDegrees>
            </Position>
            <AltitudeMeters>359</AltitudeMeters>
            <DistanceMeters>NAN</DistanceMeters>
          </Trackpoint>
          <Trackpoint>
            <Time>2022-09-22T12:22:15.000Z</Time>
            <Position>
              <LatitudeDegrees>49.51433412730693817138671875</LatitudeDegrees>
              <LongitudeDegrees>20.63087825663387775421142578125</LongitudeDegrees>
            </Position>
            <AltitudeMeters>358.399993896484375</AltitudeMeters>
            <DistanceMeters>NAN</DistanceMeters>
          </Trackpoint>
          <Trackpoint>
            <Time>2022-09-22T12:22:19.000Z</Time>
            <Position>
              <LatitudeDegrees>49.51435089111328125</LatitudeDegrees>
              <LongitudeDegrees>20.631275810301303863525390625</LongitudeDegrees>
            </Position>
            <AltitudeMeters>357.20001220703125</AltitudeMeters>
            <DistanceMeters>NAN</DistanceMeters>
          </Trackpoint>
          <Trackpoint>
            <Time>2022-09-22T12:22:22.000Z</Time>
            <Position>
              <LatitudeDegrees>49.51437972486019134521484375</LatitudeDegrees>
              <LongitudeDegrees>20.63157345168292522430419921875</LongitudeDegrees>
            </Position>
            <AltitudeMeters>356.399993896484375</AltitudeMeters>
            <DistanceMeters>NAN</DistanceMeters>
          </Trackpoint>
          <Trackpoint>
            <Time>2022-09-22T12:22:26.000Z</Time>
            <Position>
              <LatitudeDegrees>49.51443496160209178924560546875</LatitudeDegrees>
              <LongitudeDegrees>20.63194979913532733917236328125</LongitudeDegrees>
            </Position>
            <AltitudeMeters>356.20001220703125</AltitudeMeters>
            <DistanceMeters>NAN</DistanceMeters>
          </Trackpoint>
          <Trackpoint>
            <Time>2022-09-22T12:22:31.000Z</Time>
            <Position>
              <LatitudeDegrees>49.514509141445159912109375</LatitudeDegrees>
              <LongitudeDegrees>20.63238146714866161346435546875</LongitudeDegrees>
            </Position>
            <AltitudeMeters>356.79998779296875</AltitudeMeters>
            <DistanceMeters>NAN</DistanceMeters>
          </Trackpoint>
          <Trackpoint>
            <Time>2022-09-22T12:22:39.000Z</Time>
            <Position>
              <LatitudeDegrees>49.51459790579974651336669921875</LatitudeDegrees>
              <LongitudeDegrees>20.63296652399003505706787109375</LongitudeDegrees>
            </Position>
            <AltitudeMeters>357</AltitudeMeters>
            <DistanceMeters>NAN</DistanceMeters>
          </Trackpoint>
          <Trackpoint>
            <Time>2022-09-22T12:22:42.000Z</Time>
            <Position>
              <LatitudeDegrees>49.51463361270725727081298828125</LatitudeDegrees>
              <LongitudeDegrees>20.6331696175038814544677734375</LongitudeDegrees>
            </Position>
            <AltitudeMeters>357.20001220703125</AltitudeMeters>
            <DistanceMeters>NAN</DistanceMeters>
          </Trackpoint>
          <Trackpoint>
            <Time>2022-09-22T12:22:46.000Z</Time>
            <Position>
              <LatitudeDegrees>49.51464601792395114898681640625</LatitudeDegrees>
              <LongitudeDegrees>20.633426271378993988037109375</LongitudeDegrees>
            </Position>
            <AltitudeMeters>357.20001220703125</AltitudeMeters>
            <DistanceMeters>NAN</DistanceMeters>
          </Trackpoint>
          <Trackpoint>
            <Time>2022-09-22T12:22:53.000Z</Time>
            <Position>
              <LatitudeDegrees>49.51468004845082759857177734375</LatitudeDegrees>
              <LongitudeDegrees>20.6338007748126983642578125</LongitudeDegrees>
            </Position>
            <AltitudeMeters>357.20001220703125</AltitudeMeters>
            <DistanceMeters>NAN</DistanceMeters>
          </Trackpoint>
          <Trackpoint>
            <Time>2022-09-22T12:23:01.000Z</Time>
            <Position>
              <LatitudeDegrees>49.5147111453115940093994140625</LatitudeDegrees>
              <LongitudeDegrees>20.63433386385440826416015625</LongitudeDegrees>
            </Position>
            <AltitudeMeters>356.600006103515625</AltitudeMeters>
            <DistanceMeters>NAN</DistanceMeters>
          </Trackpoint>
          <Trackpoint>
            <Time>2022-09-22T12:23:04.000Z</Time>
            <Position>
              <LatitudeDegrees>49.51472698710858821868896484375</LatitudeDegrees>
              <LongitudeDegrees>20.6345734186470508575439453125</LongitudeDegrees>
            </Position>
            <AltitudeMeters>356.20001220703125</AltitudeMeters>
            <DistanceMeters>NAN</DistanceMeters>
          </Trackpoint>
          <Trackpoint>
            <Time>2022-09-22T12:23:07.000Z</Time>
            <Position>
              <LatitudeDegrees>49.51473914086818695068359375</LatitudeDegrees>
              <LongitudeDegrees>20.63482227735221385955810546875</LongitudeDegrees>
            </Position>
            <AltitudeMeters>355.20001220703125</AltitudeMeters>
            <DistanceMeters>NAN</DistanceMeters>
          </Trackpoint>
          <Trackpoint>
            <Time>2022-09-22T12:23:08.000Z</Time>
            <Position>
              <LatitudeDegrees>49.51474861241877079010009765625</LatitudeDegrees>
              <LongitudeDegrees>20.6349107064306735992431640625</LongitudeDegrees>
            </Position>
            <AltitudeMeters>355</AltitudeMeters>
            <DistanceMeters>NAN</DistanceMeters>
          </Trackpoint>
          <Trackpoint>
            <Time>2022-09-22T12:23:15.000Z</Time>
            <Position>
              <LatitudeDegrees>49.51479136012494564056396484375</LatitudeDegrees>
              <LongitudeDegrees>20.635542534291744232177734375</LongitudeDegrees>
            </Position>
            <AltitudeMeters>354</AltitudeMeters>
            <DistanceMeters>NAN</DistanceMeters>
          </Trackpoint>
          <Trackpoint>
            <Time>2022-09-22T12:23:16.000Z</Time>
            <Position>
              <LatitudeDegrees>49.51480158604681491851806640625</LatitudeDegrees>
              <LongitudeDegrees>20.635636746883392333984375</LongitudeDegrees>
            </Position>
            <AltitudeMeters>353.79998779296875</AltitudeMeters>
            <DistanceMeters>NAN</DistanceMeters>
          </Trackpoint>
          <Trackpoint>
            <Time>2022-09-22T12:23:22.000Z</Time>
            <Position>
              <LatitudeDegrees>49.514836035668849945068359375</LatitudeDegrees>
              <LongitudeDegrees>20.6362202949821949005126953125</LongitudeDegrees>
            </Position>
            <AltitudeMeters>353</AltitudeMeters>
            <DistanceMeters>NAN</DistanceMeters>
          </Trackpoint>
          <Trackpoint>
            <Time>2022-09-22T12:23:23.000Z</Time>
            <Position>
              <LatitudeDegrees>49.5148305036127567291259765625</LatitudeDegrees>
              <LongitudeDegrees>20.63631735742092132568359375</LongitudeDegrees>
            </Position>
            <AltitudeMeters>353</AltitudeMeters>
            <DistanceMeters>NAN</DistanceMeters>
          </Trackpoint>
          <Trackpoint>
            <Time>2022-09-22T12:23:27.000Z</Time>
            <Position>
              <LatitudeDegrees>49.51481265015900135040283203125</LatitudeDegrees>
              <LongitudeDegrees>20.636707954108715057373046875</LongitudeDegrees>
            </Position>
            <AltitudeMeters>352.79998779296875</AltitudeMeters>
            <DistanceMeters>NAN</DistanceMeters>
          </Trackpoint>
          <Trackpoint>
            <Time>2022-09-22T12:23:31.000Z</Time>
            <Position>
              <LatitudeDegrees>49.51480644755065441131591796875</LatitudeDegrees>
              <LongitudeDegrees>20.6370933540165424346923828125</LongitudeDegrees>
            </Position>
            <AltitudeMeters>351.399993896484375</AltitudeMeters>
            <DistanceMeters>NAN</DistanceMeters>
          </Trackpoint>
          <Trackpoint>
            <Time>2022-09-22T12:23:36.000Z</Time>
            <Position>
              <LatitudeDegrees>49.51482086442410945892333984375</LatitudeDegrees>
              <LongitudeDegrees>20.6375734694302082061767578125</LongitudeDegrees>
            </Position>
            <AltitudeMeters>350.600006103515625</AltitudeMeters>
            <DistanceMeters>NAN</DistanceMeters>
          </Trackpoint>
          <Trackpoint>
            <Time>2022-09-22T12:23:37.000Z</Time>
            <Position>
              <LatitudeDegrees>49.51482706703245639801025390625</LatitudeDegrees>
              <LongitudeDegrees>20.637676231563091278076171875</LongitudeDegrees>
            </Position>
            <AltitudeMeters>350.20001220703125</AltitudeMeters>
            <DistanceMeters>NAN</DistanceMeters>
          </Trackpoint>
          <Trackpoint>
            <Time>2022-09-22T12:23:39.000Z</Time>
            <Position>
              <LatitudeDegrees>49.51484366320073604583740234375</LatitudeDegrees>
              <LongitudeDegrees>20.63788401894271373748779296875</LongitudeDegrees>
            </Position>
            <AltitudeMeters>350</AltitudeMeters>
            <DistanceMeters>NAN</DistanceMeters>
          </Trackpoint>
          <Trackpoint>
            <Time>2022-09-22T12:23:44.000Z</Time>
            <Position>
              <LatitudeDegrees>49.514877609908580780029296875</LatitudeDegrees>
              <LongitudeDegrees>20.63842356204986572265625</LongitudeDegrees>
            </Position>
            <AltitudeMeters>349.20001220703125</AltitudeMeters>
            <DistanceMeters>NAN</DistanceMeters>
          </Trackpoint>
          <Trackpoint>
            <Time>2022-09-22T12:23:46.000Z</Time>
            <Position>
              <LatitudeDegrees>49.5149092935025691986083984375</LatitudeDegrees>
              <LongitudeDegrees>20.63864157535135746002197265625</LongitudeDegrees>
            </Position>
            <AltitudeMeters>349</AltitudeMeters>
            <DistanceMeters>NAN</DistanceMeters>
          </Trackpoint>
          <Trackpoint>
            <Time>2022-09-22T12:23:48.000Z</Time>
            <Position>
              <LatitudeDegrees>49.5149584114551544189453125</LatitudeDegrees>
              <LongitudeDegrees>20.63885330222547054290771484375</LongitudeDegrees>
            </Position>
            <AltitudeMeters>348.600006103515625</AltitudeMeters>
            <DistanceMeters>NAN</DistanceMeters>
          </Trackpoint>
          <Trackpoint>
            <Time>2022-09-22T12:23:51.000Z</Time>
            <Position>
              <LatitudeDegrees>49.5150427334010601043701171875</LatitudeDegrees>
              <LongitudeDegrees>20.6391663663089275360107421875</LongitudeDegrees>
            </Position>
            <AltitudeMeters>348</AltitudeMeters>
            <DistanceMeters>NAN</DistanceMeters>
          </Trackpoint>
          <Trackpoint>
            <Time>2022-09-22T12:23:52.000Z</Time>
            <Position>
              <LatitudeDegrees>49.515072405338287353515625</LatitudeDegrees>
              <LongitudeDegrees>20.639266110956668853759765625</LongitudeDegrees>
            </Position>
            <AltitudeMeters>347.79998779296875</AltitudeMeters>
            <DistanceMeters>NAN</DistanceMeters>
          </Trackpoint>
          <Trackpoint>
            <Time>2022-09-22T12:23:56.000Z</Time>
            <Position>
              <LatitudeDegrees>49.5151855610311031341552734375</LatitudeDegrees>
              <LongitudeDegrees>20.63964824192225933074951171875</LongitudeDegrees>
            </Position>
            <AltitudeMeters>347.399993896484375</AltitudeMeters>
            <DistanceMeters>NAN</DistanceMeters>
          </Trackpoint>
          <Trackpoint>
            <Time>2022-09-22T12:24:00.000Z</Time>
            <Position>
              <LatitudeDegrees>49.51529595069587230682373046875</LatitudeDegrees>
              <LongitudeDegrees>20.6400159560143947601318359375</LongitudeDegrees>
            </Position>
            <AltitudeMeters>347.399993896484375</AltitudeMeters>
            <DistanceMeters>NAN</DistanceMeters>
          </Trackpoint>
          <Trackpoint>
            <Time>2022-09-22T12:24:01.000Z</Time>
            <Position>
              <LatitudeDegrees>49.51532394625246524810791015625</LatitudeDegrees>
              <LongitudeDegrees>20.64010254107415676116943359375</LongitudeDegrees>
            </Position>
            <AltitudeMeters>347</AltitudeMeters>
            <DistanceMeters>NAN</DistanceMeters>
          </Trackpoint>
          <Trackpoint>
            <Time>2022-09-22T12:24:07.000Z</Time>
            <Position>
              <LatitudeDegrees>49.5154735632240772247314453125</LatitudeDegrees>
              <LongitudeDegrees>20.64061065204441547393798828125</LongitudeDegrees>
            </Position>
            <AltitudeMeters>347.20001220703125</AltitudeMeters>
            <DistanceMeters>NAN</DistanceMeters>
          </Trackpoint>
          <Trackpoint>
            <Time>2022-09-22T12:24:14.000Z</Time>
            <Position>
              <LatitudeDegrees>49.51562225818634033203125</LatitudeDegrees>
              <LongitudeDegrees>20.641162097454071044921875</LongitudeDegrees>
            </Position>
            <AltitudeMeters>347.399993896484375</AltitudeMeters>
            <DistanceMeters>NAN</DistanceMeters>
          </Trackpoint>
          <Trackpoint>
            <Time>2022-09-22T12:24:15.000Z</Time>
            <Position>
              <LatitudeDegrees>49.51563659124076366424560546875</LatitudeDegrees>
              <LongitudeDegrees>20.641240887343883514404296875</LongitudeDegrees>
            </Position>
            <AltitudeMeters>347.20001220703125</AltitudeMeters>
            <DistanceMeters>NAN</DistanceMeters>
          </Trackpoint>
          <Trackpoint>
            <Time>2022-09-22T12:24:16.000Z</Time>
            <Position>
              <LatitudeDegrees>49.51565050520002841949462890625</LatitudeDegrees>
              <LongitudeDegrees>20.64131892286241054534912109375</LongitudeDegrees>
            </Position>
            <AltitudeMeters>347</AltitudeMeters>
            <DistanceMeters>NAN</DistanceMeters>
          </Trackpoint>
          <Trackpoint>
            <Time>2022-09-22T12:24:17.000Z</Time>
            <Position>
              <LatitudeDegrees>49.51566022820770740509033203125</LatitudeDegrees>
              <LongitudeDegrees>20.641395784914493560791015625</LongitudeDegrees>
            </Position>
            <AltitudeMeters>346.79998779296875</AltitudeMeters>
            <DistanceMeters>NAN</DistanceMeters>
          </Trackpoint>
          <Trackpoint>
            <Time>2022-09-22T12:24:22.000Z</Time>
            <Position>
              <LatitudeDegrees>49.5157199911773204803466796875</LatitudeDegrees>
              <LongitudeDegrees>20.6418056599795818328857421875</LongitudeDegrees>
            </Position>
            <AltitudeMeters>345.79998779296875</AltitudeMeters>
            <DistanceMeters>NAN</DistanceMeters>
          </Trackpoint>
          <Trackpoint>
            <Time>2022-09-22T12:24:23.000Z</Time>
            <Position>
              <LatitudeDegrees>49.51572887599468231201171875</LatitudeDegrees>
              <LongitudeDegrees>20.6418985314667224884033203125</LongitudeDegrees>
            </Position>
            <AltitudeMeters>345.600006103515625</AltitudeMeters>
            <DistanceMeters>NAN</DistanceMeters>
          </Trackpoint>
          <Trackpoint>
            <Time>2022-09-22T12:24:27.000Z</Time>
            <Position>
              <LatitudeDegrees>49.51573533006012439727783203125</LatitudeDegrees>
              <LongitudeDegrees>20.64231033436954021453857421875</LongitudeDegrees>
            </Position>
            <AltitudeMeters>344.600006103515625</AltitudeMeters>
            <DistanceMeters>NAN</DistanceMeters>
          </Trackpoint>
          <Trackpoint>
            <Time>2022-09-22T12:24:28.000Z</Time>
            <Position>
              <LatitudeDegrees>49.51573164202272891998291015625</LatitudeDegrees>
              <LongitudeDegrees>20.64241996966302394866943359375</LongitudeDegrees>
            </Position>
            <AltitudeMeters>344.20001220703125</AltitudeMeters>
            <DistanceMeters>NAN</DistanceMeters>
          </Trackpoint>
          <Trackpoint>
            <Time>2022-09-22T12:24:30.000Z</Time>
            <Position>
              <LatitudeDegrees>49.5157183147966861724853515625</LatitudeDegrees>
              <LongitudeDegrees>20.64264879561960697174072265625</LongitudeDegrees>
            </Position>
            <AltitudeMeters>343.399993896484375</AltitudeMeters>
            <DistanceMeters>NAN</DistanceMeters>
          </Trackpoint>
          <Trackpoint>
            <Time>2022-09-22T12:24:32.000Z</Time>
            <Position>
              <LatitudeDegrees>49.51570741832256317138671875</LatitudeDegrees>
              <LongitudeDegrees>20.64289941452443599700927734375</LongitudeDegrees>
            </Position>
            <AltitudeMeters>342.20001220703125</AltitudeMeters>
            <DistanceMeters>NAN</DistanceMeters>
          </Trackpoint>
          <Trackpoint>
            <Time>2022-09-22T12:24:35.000Z</Time>
            <Position>
              <LatitudeDegrees>49.51569325290620326995849609375</LatitudeDegrees>
              <LongitudeDegrees>20.64330409280955791473388671875</LongitudeDegrees>
            </Position>
            <AltitudeMeters>340.79998779296875</AltitudeMeters>
            <DistanceMeters>NAN</DistanceMeters>
          </Trackpoint>
          <Trackpoint>
            <Time>2022-09-22T12:24:39.000Z</Time>
            <Position>
              <LatitudeDegrees>49.5156638324260711669921875</LatitudeDegrees>
              <LongitudeDegrees>20.643868111073970794677734375</LongitudeDegrees>
            </Position>
            <AltitudeMeters>339.79998779296875</AltitudeMeters>
            <DistanceMeters>NAN</DistanceMeters>
          </Trackpoint>
          <Trackpoint>
            <Time>2022-09-22T12:24:41.000Z</Time>
            <Position>
              <LatitudeDegrees>49.5156445540487766265869140625</LatitudeDegrees>
              <LongitudeDegrees>20.644165165722370147705078125</LongitudeDegrees>
            </Position>
            <AltitudeMeters>338.79998779296875</AltitudeMeters>
            <DistanceMeters>NAN</DistanceMeters>
          </Trackpoint>
          <Trackpoint>
            <Time>2022-09-22T12:24:42.000Z</Time>
            <Position>
              <LatitudeDegrees>49.5156365074217319488525390625</LatitudeDegrees>
              <LongitudeDegrees>20.64430908299982547760009765625</LongitudeDegrees>
            </Position>
            <AltitudeMeters>338.600006103515625</AltitudeMeters>
            <DistanceMeters>NAN</DistanceMeters>
          </Trackpoint>
          <Trackpoint>
            <Time>2022-09-22T12:24:45.000Z</Time>
            <Position>
              <LatitudeDegrees>49.51561261899769306182861328125</LatitudeDegrees>
              <LongitudeDegrees>20.64473387785255908966064453125</LongitudeDegrees>
            </Position>
            <AltitudeMeters>337.399993896484375</AltitudeMeters>
            <DistanceMeters>NAN</DistanceMeters>
          </Trackpoint>
          <Trackpoint>
            <Time>2022-09-22T12:24:47.000Z</Time>
            <Position>
              <LatitudeDegrees>49.51559803448617458343505859375</LatitudeDegrees>
              <LongitudeDegrees>20.64501534216105937957763671875</LongitudeDegrees>
            </Position>
            <AltitudeMeters>336.399993896484375</AltitudeMeters>
            <DistanceMeters>NAN</DistanceMeters>
          </Trackpoint>
          <Trackpoint>
            <Time>2022-09-22T12:24:48.000Z</Time>
            <Position>
              <LatitudeDegrees>49.51558998785912990570068359375</LatitudeDegrees>
              <LongitudeDegrees>20.6451557390391826629638671875</LongitudeDegrees>
            </Position>
            <AltitudeMeters>336.20001220703125</AltitudeMeters>
            <DistanceMeters>NAN</DistanceMeters>
          </Trackpoint>
          <Trackpoint>
            <Time>2022-09-22T12:24:50.000Z</Time>
            <Position>
              <LatitudeDegrees>49.515577666461467742919921875</LatitudeDegrees>
              <LongitudeDegrees>20.64542773179709911346435546875</LongitudeDegrees>
            </Position>
            <AltitudeMeters>335.79998779296875</AltitudeMeters>
            <DistanceMeters>NAN</DistanceMeters>
          </Trackpoint>
          <Trackpoint>
            <Time>2022-09-22T12:24:54.000Z</Time>
            <Position>
              <LatitudeDegrees>49.515560232102870941162109375</LatitudeDegrees>
              <LongitudeDegrees>20.64596031792461872100830078125</LongitudeDegrees>
            </Position>
            <AltitudeMeters>335.20001220703125</AltitudeMeters>
            <DistanceMeters>NAN</DistanceMeters>
          </Trackpoint>
          <Trackpoint>
            <Time>2022-09-22T12:24:58.000Z</Time>
            <Position>
              <LatitudeDegrees>49.51553449966013431549072265625</LatitudeDegrees>
              <LongitudeDegrees>20.646477900445461273193359375</LongitudeDegrees>
            </Position>
            <AltitudeMeters>334.79998779296875</AltitudeMeters>
            <DistanceMeters>NAN</DistanceMeters>
          </Trackpoint>
          <Trackpoint>
            <Time>2022-09-22T12:25:03.000Z</Time>
            <Position>
              <LatitudeDegrees>49.51552930288016796112060546875</LatitudeDegrees>
              <LongitudeDegrees>20.6470510549843311309814453125</LongitudeDegrees>
            </Position>
            <AltitudeMeters>334.79998779296875</AltitudeMeters>
            <DistanceMeters>NAN</DistanceMeters>
          </Trackpoint>
          <Trackpoint>
            <Time>2022-09-22T12:25:07.000Z</Time>
            <Position>
              <LatitudeDegrees>49.5155245251953601837158203125</LatitudeDegrees>
              <LongitudeDegrees>20.6474305875599384307861328125</LongitudeDegrees>
            </Position>
            <AltitudeMeters>335</AltitudeMeters>
            <DistanceMeters>NAN</DistanceMeters>
          </Trackpoint>
          <Trackpoint>
            <Time>2022-09-22T12:25:09.000Z</Time>
            <Position>
              <LatitudeDegrees>49.515526033937931060791015625</LatitudeDegrees>
              <LongitudeDegrees>20.64759545959532260894775390625</LongitudeDegrees>
            </Position>
            <AltitudeMeters>335.20001220703125</AltitudeMeters>
            <DistanceMeters>NAN</DistanceMeters>
          </Trackpoint>
          <Trackpoint>
            <Time>2022-09-22T12:25:15.000Z</Time>
            <Position>
              <LatitudeDegrees>49.51555721461772918701171875</LatitudeDegrees>
              <LongitudeDegrees>20.64800298772752285003662109375</LongitudeDegrees>
            </Position>
            <AltitudeMeters>336</AltitudeMeters>
            <DistanceMeters>NAN</DistanceMeters>
          </Trackpoint>
          <Trackpoint>
            <Time>2022-09-22T12:25:22.000Z</Time>
            <Position>
              <LatitudeDegrees>49.5155788399279117584228515625</LatitudeDegrees>
              <LongitudeDegrees>20.64835905097424983978271484375</LongitudeDegrees>
            </Position>
            <AltitudeMeters>336</AltitudeMeters>
            <DistanceMeters>NAN</DistanceMeters>
          </Trackpoint>
          <Trackpoint>
            <Time>2022-09-22T12:25:24.000Z</Time>
            <Position>
              <LatitudeDegrees>49.5155753195285797119140625</LatitudeDegrees>
              <LongitudeDegrees>20.64845971763134002685546875</LongitudeDegrees>
            </Position>
            <AltitudeMeters>336.20001220703125</AltitudeMeters>
            <DistanceMeters>NAN</DistanceMeters>
          </Trackpoint>
          <Trackpoint>
            <Time>2022-09-22T12:25:28.000Z</Time>
            <Position>
              <LatitudeDegrees>49.51560876332223415374755859375</LatitudeDegrees>
              <LongitudeDegrees>20.6486617214977741241455078125</LongitudeDegrees>
            </Position>
            <AltitudeMeters>336.20001220703125</AltitudeMeters>
            <DistanceMeters>NAN</DistanceMeters>
          </Trackpoint>
          <Trackpoint>
            <Time>2022-09-22T12:25:29.000Z</Time>
            <Position>
              <LatitudeDegrees>49.51560725457966327667236328125</LatitudeDegrees>
              <LongitudeDegrees>20.648710168898105621337890625</LongitudeDegrees>
            </Position>
            <AltitudeMeters>336.20001220703125</AltitudeMeters>
            <DistanceMeters>NAN</DistanceMeters>
          </Trackpoint>
          <Trackpoint>
            <Time>2022-09-22T12:25:36.000Z</Time>
            <Position>
              <LatitudeDegrees>49.51563097536563873291015625</LatitudeDegrees>
              <LongitudeDegrees>20.649054832756519317626953125</LongitudeDegrees>
            </Position>
            <AltitudeMeters>336</AltitudeMeters>
            <DistanceMeters>NAN</DistanceMeters>
          </Trackpoint>
          <Trackpoint>
            <Time>2022-09-22T12:25:44.000Z</Time>
            <Position>
              <LatitudeDegrees>49.5156665146350860595703125</LatitudeDegrees>
              <LongitudeDegrees>20.64951759763062000274658203125</LongitudeDegrees>
            </Position>
            <AltitudeMeters>335.600006103515625</AltitudeMeters>
            <DistanceMeters>NAN</DistanceMeters>
          </Trackpoint>
          <Trackpoint>
            <Time>2022-09-22T12:25:50.000Z</Time>
            <Position>
              <LatitudeDegrees>49.5156992040574550628662109375</LatitudeDegrees>
              <LongitudeDegrees>20.64991104416549205780029296875</LongitudeDegrees>
            </Position>
            <AltitudeMeters>335</AltitudeMeters>
            <DistanceMeters>NAN</DistanceMeters>
          </Trackpoint>
          <Trackpoint>
            <Time>2022-09-22T12:25:51.000Z</Time>
            <Position>
              <LatitudeDegrees>49.51570649631321430206298828125</LatitudeDegrees>
              <LongitudeDegrees>20.64998044632375240325927734375</LongitudeDegrees>
            </Position>
            <AltitudeMeters>334.79998779296875</AltitudeMeters>
            <DistanceMeters>NAN</DistanceMeters>
          </Trackpoint>
          <Trackpoint>
            <Time>2022-09-22T12:25:59.000Z</Time>
            <Position>
              <LatitudeDegrees>49.515780843794345855712890625</LatitudeDegrees>
              <LongitudeDegrees>20.650515295565128326416015625</LongitudeDegrees>
            </Position>
            <AltitudeMeters>334.399993896484375</AltitudeMeters>
            <DistanceMeters>NAN</DistanceMeters>
          </Trackpoint>
          <Trackpoint>
            <Time>2022-09-22T12:26:02.000Z</Time>
            <Position>
              <LatitudeDegrees>49.51584295369684696197509765625</LatitudeDegrees>
              <LongitudeDegrees>20.65069793723523616790771484375</LongitudeDegrees>
            </Position>
            <AltitudeMeters>334</AltitudeMeters>
            <DistanceMeters>NAN</DistanceMeters>
          </Trackpoint>
          <Trackpoint>
            <Time>2022-09-22T12:26:04.000Z</Time>
            <Position>
              <LatitudeDegrees>49.51588176190853118896484375</LatitudeDegrees>
              <LongitudeDegrees>20.65081075765192508697509765625</LongitudeDegrees>
            </Position>
            <AltitudeMeters>333.79998779296875</AltitudeMeters>
            <DistanceMeters>NAN</DistanceMeters>
          </Trackpoint>
          <Trackpoint>
            <Time>2022-09-22T12:26:05.000Z</Time>
            <Position>
              <LatitudeDegrees>49.5159121043980121612548828125</LatitudeDegrees>
              <LongitudeDegrees>20.65086859278380870819091796875</LongitudeDegrees>
            </Position>
            <AltitudeMeters>333.600006103515625</AltitudeMeters>
            <DistanceMeters>NAN</DistanceMeters>
          </Trackpoint>
          <Trackpoint>
            <Time>2022-09-22T12:26:08.000Z</Time>
            <Position>
              <LatitudeDegrees>49.515990726649761199951171875</LatitudeDegrees>
              <LongitudeDegrees>20.65100991167128086090087890625</LongitudeDegrees>
            </Position>
            <AltitudeMeters>333</AltitudeMeters>
            <DistanceMeters>NAN</DistanceMeters>
          </Trackpoint>
          <Trackpoint>
            <Time>2022-09-22T12:26:09.000Z</Time>
            <Position>
              <LatitudeDegrees>49.51602769084274768829345703125</LatitudeDegrees>
              <LongitudeDegrees>20.65105073153972625732421875</LongitudeDegrees>
            </Position>
            <AltitudeMeters>332.79998779296875</AltitudeMeters>
            <DistanceMeters>NAN</DistanceMeters>
          </Trackpoint>
          <Trackpoint>
            <Time>2022-09-22T12:26:12.000Z</Time>
            <Position>
              <LatitudeDegrees>49.5161493122577667236328125</LatitudeDegrees>
              <LongitudeDegrees>20.65117117948830127716064453125</LongitudeDegrees>
            </Position>
            <AltitudeMeters>332.20001220703125</AltitudeMeters>
            <DistanceMeters>NAN</DistanceMeters>
          </Trackpoint>
          <Trackpoint>
            <Time>2022-09-22T12:26:14.000Z</Time>
            <Position>
              <LatitudeDegrees>49.516224749386310577392578125</LatitudeDegrees>
              <LongitudeDegrees>20.65122465603053569793701171875</LongitudeDegrees>
            </Position>
            <AltitudeMeters>332.20001220703125</AltitudeMeters>
            <DistanceMeters>NAN</DistanceMeters>
          </Trackpoint>
          <Trackpoint>
            <Time>2022-09-22T12:26:17.000Z</Time>
            <Position>
              <LatitudeDegrees>49.5163348875939846038818359375</LatitudeDegrees>
              <LongitudeDegrees>20.65123555250465869903564453125</LongitudeDegrees>
            </Position>
            <AltitudeMeters>332.399993896484375</AltitudeMeters>
            <DistanceMeters>NAN</DistanceMeters>
          </Trackpoint>
          <Trackpoint>
            <Time>2022-09-22T12:26:20.000Z</Time>
            <Position>
              <LatitudeDegrees>49.51645550318062305450439453125</LatitudeDegrees>
              <LongitudeDegrees>20.651226080954074859619140625</LongitudeDegrees>
            </Position>
            <AltitudeMeters>332.600006103515625</AltitudeMeters>
            <DistanceMeters>NAN</DistanceMeters>
          </Trackpoint>
          <Trackpoint>
            <Time>2022-09-22T12:26:23.000Z</Time>
            <Position>
              <LatitudeDegrees>49.51658022589981555938720703125</LatitudeDegrees>
              <LongitudeDegrees>20.65121644176542758941650390625</LongitudeDegrees>
            </Position>
            <AltitudeMeters>332.600006103515625</AltitudeMeters>
            <DistanceMeters>NAN</DistanceMeters>
          </Trackpoint>
          <Trackpoint>
            <Time>2022-09-22T12:26:26.000Z</Time>
            <Position>
              <LatitudeDegrees>49.51669178903102874755859375</LatitudeDegrees>
              <LongitudeDegrees>20.65121443010866641998291015625</LongitudeDegrees>
            </Position>
            <AltitudeMeters>332.600006103515625</AltitudeMeters>
            <DistanceMeters>NAN</DistanceMeters>
          </Trackpoint>
          <Trackpoint>
            <Time>2022-09-22T12:26:32.000Z</Time>
            <Position>
              <LatitudeDegrees>49.51687359251081943511962890625</LatitudeDegrees>
              <LongitudeDegrees>20.65120185725390911102294921875</LongitudeDegrees>
            </Position>
            <AltitudeMeters>332.399993896484375</AltitudeMeters>
            <DistanceMeters>NAN</DistanceMeters>
          </Trackpoint>
          <Trackpoint>
            <Time>2022-09-22T12:26:38.000Z</Time>
            <Position>
              <LatitudeDegrees>49.51703301630914211273193359375</LatitudeDegrees>
              <LongitudeDegrees>20.65125784836709499359130859375</LongitudeDegrees>
            </Position>
            <AltitudeMeters>332</AltitudeMeters>
            <DistanceMeters>NAN</DistanceMeters>
          </Trackpoint>
          <Trackpoint>
            <Time>2022-09-22T12:26:39.000Z</Time>
            <Position>
              <LatitudeDegrees>49.51705430634319782257080078125</LatitudeDegrees>
              <LongitudeDegrees>20.65127293579280376434326171875</LongitudeDegrees>
            </Position>
            <AltitudeMeters>332</AltitudeMeters>
            <DistanceMeters>NAN</DistanceMeters>
          </Trackpoint>
          <Trackpoint>
            <Time>2022-09-22T12:26:44.000Z</Time>
            <Position>
              <LatitudeDegrees>49.51712773181498050689697265625</LatitudeDegrees>
              <LongitudeDegrees>20.65136916004121303558349609375</LongitudeDegrees>
            </Position>
            <AltitudeMeters>332</AltitudeMeters>
            <DistanceMeters>NAN</DistanceMeters>
          </Trackpoint>
          <Trackpoint>
            <Time>2022-09-22T12:26:46.000Z</Time>
            <Position>
              <LatitudeDegrees>49.51713946647942066192626953125</LatitudeDegrees>
              <LongitudeDegrees>20.65140168182551860809326171875</LongitudeDegrees>
            </Position>
            <AltitudeMeters>332.20001220703125</AltitudeMeters>
            <DistanceMeters>NAN</DistanceMeters>
          </Trackpoint>
          <Trackpoint>
            <Time>2022-09-22T12:26:50.000Z</Time>
            <Position>
              <LatitudeDegrees>49.517148435115814208984375</LatitudeDegrees>
              <LongitudeDegrees>20.65140771679580211639404296875</LongitudeDegrees>
            </Position>
            <AltitudeMeters>332.399993896484375</AltitudeMeters>
            <DistanceMeters>NAN</DistanceMeters>
          </Trackpoint>
          <Trackpoint>
            <Time>2022-09-22T12:26:51.000Z</Time>
            <Position>
              <LatitudeDegrees>49.517148435115814208984375</LatitudeDegrees>
              <LongitudeDegrees>20.65140771679580211639404296875</LongitudeDegrees>
            </Position>
            <AltitudeMeters>332.399993896484375</AltitudeMeters>
            <DistanceMeters>NAN</DistanceMeters>
          </Trackpoint>
          <Trackpoint>
            <Time>2022-09-22T12:27:00.000Z</Time>
            <Position>
              <LatitudeDegrees>49.51713779009878635406494140625</LatitudeDegrees>
              <LongitudeDegrees>20.65141660161316394805908203125</LongitudeDegrees>
            </Position>
            <AltitudeMeters>332.79998779296875</AltitudeMeters>
            <DistanceMeters>NAN</DistanceMeters>
          </Trackpoint>
          <Trackpoint>
            <Time>2022-09-22T12:27:20.000Z</Time>
            <Position>
              <LatitudeDegrees>49.51713862828910350799560546875</LatitudeDegrees>
              <LongitudeDegrees>20.65141660161316394805908203125</LongitudeDegrees>
            </Position>
            <AltitudeMeters>332.600006103515625</AltitudeMeters>
            <DistanceMeters>NAN</DistanceMeters>
          </Trackpoint>
          <Trackpoint>
            <Time>2022-09-22T12:27:55.000Z</Time>
            <Position>
              <LatitudeDegrees>49.51713812537491321563720703125</LatitudeDegrees>
              <LongitudeDegrees>20.651418864727020263671875</LongitudeDegrees>
            </Position>
            <AltitudeMeters>332.20001220703125</AltitudeMeters>
            <DistanceMeters>NAN</DistanceMeters>
          </Trackpoint>
          <Trackpoint>
            <Time>2022-09-22T12:28:24.000Z</Time>
            <Position>
              <LatitudeDegrees>49.517138041555881500244140625</LatitudeDegrees>
              <LongitudeDegrees>20.651418864727020263671875</LongitudeDegrees>
            </Position>
            <AltitudeMeters>331.79998779296875</AltitudeMeters>
            <DistanceMeters>NAN</DistanceMeters>
          </Trackpoint>
          <Trackpoint>
            <Time>2022-09-22T12:28:30.000Z</Time>
            <Position>
              <LatitudeDegrees>49.517138041555881500244140625</LatitudeDegrees>
              <LongitudeDegrees>20.651418864727020263671875</LongitudeDegrees>
            </Position>
            <AltitudeMeters>331.600006103515625</AltitudeMeters>
            <DistanceMeters>NAN</DistanceMeters>
          </Trackpoint>
          <Trackpoint>
            <Time>2022-09-22T12:28:32.000Z</Time>
            <Position>
              <LatitudeDegrees>49.517138041555881500244140625</LatitudeDegrees>
              <LongitudeDegrees>20.651418864727020263671875</LongitudeDegrees>
            </Position>
            <AltitudeMeters>331.399993896484375</AltitudeMeters>
            <DistanceMeters>NAN</DistanceMeters>
          </Trackpoint>
          <Trackpoint>
            <Time>2022-09-22T12:28:36.000Z</Time>
            <Position>
              <LatitudeDegrees>49.517138041555881500244140625</LatitudeDegrees>
              <LongitudeDegrees>20.651418864727020263671875</LongitudeDegrees>
            </Position>
            <AltitudeMeters>331.399993896484375</AltitudeMeters>
            <DistanceMeters>NAN</DistanceMeters>
          </Trackpoint>
          <Trackpoint>
            <Time>2022-09-22T12:28:52.000Z</Time>
            <Position>
              <LatitudeDegrees>49.51714533381164073944091796875</LatitudeDegrees>
              <LongitudeDegrees>20.65143562853336334228515625</LongitudeDegrees>
            </Position>
            <AltitudeMeters>331.399993896484375</AltitudeMeters>
            <DistanceMeters>NAN</DistanceMeters>
          </Trackpoint>
          <Trackpoint>
            <Time>2022-09-22T12:29:07.000Z</Time>
            <Position>
              <LatitudeDegrees>49.5171425677835941314697265625</LatitudeDegrees>
              <LongitudeDegrees>20.6514394842088222503662109375</LongitudeDegrees>
            </Position>
            <AltitudeMeters>330.79998779296875</AltitudeMeters>
            <DistanceMeters>NAN</DistanceMeters>
          </Trackpoint>
          <Trackpoint>
            <Time>2022-09-22T12:29:09.000Z</Time>
            <Position>
              <LatitudeDegrees>49.5171261392533779144287109375</LatitudeDegrees>
              <LongitudeDegrees>20.65145683474838733673095703125</LongitudeDegrees>
            </Position>
            <AltitudeMeters>330.79998779296875</AltitudeMeters>
            <DistanceMeters>NAN</DistanceMeters>
          </Trackpoint>
          <Trackpoint>
            <Time>2022-09-22T12:29:11.000Z</Time>
            <Position>
              <LatitudeDegrees>49.51711365021765232086181640625</LatitudeDegrees>
              <LongitudeDegrees>20.65146286971867084503173828125</LongitudeDegrees>
            </Position>
            <AltitudeMeters>330.600006103515625</AltitudeMeters>
            <DistanceMeters>NAN</DistanceMeters>
          </Trackpoint>
          <Trackpoint>
            <Time>2022-09-22T12:29:19.000Z</Time>
            <Position>
              <LatitudeDegrees>49.51708615757524967193603515625</LatitudeDegrees>
              <LongitudeDegrees>20.6514958105981349945068359375</LongitudeDegrees>
            </Position>
            <AltitudeMeters>330.600006103515625</AltitudeMeters>
            <DistanceMeters>NAN</DistanceMeters>
          </Trackpoint>
          <Trackpoint>
            <Time>2022-09-22T12:29:30.000Z</Time>
            <Position>
              <LatitudeDegrees>49.51708615757524967193603515625</LatitudeDegrees>
              <LongitudeDegrees>20.6514958105981349945068359375</LongitudeDegrees>
            </Position>
            <AltitudeMeters>330.600006103515625</AltitudeMeters>
            <DistanceMeters>NAN</DistanceMeters>
          </Trackpoint>
          <Trackpoint>
            <Time>2022-09-22T12:29:32.000Z</Time>
            <Position>
              <LatitudeDegrees>49.51708615757524967193603515625</LatitudeDegrees>
              <LongitudeDegrees>20.6514958105981349945068359375</LongitudeDegrees>
            </Position>
            <AltitudeMeters>330.600006103515625</AltitudeMeters>
            <DistanceMeters>NAN</DistanceMeters>
          </Trackpoint>
          <Trackpoint>
            <Time>2022-09-22T12:29:35.000Z</Time>
            <Position>
              <LatitudeDegrees>49.51708615757524967193603515625</LatitudeDegrees>
              <LongitudeDegrees>20.6514958105981349945068359375</LongitudeDegrees>
            </Position>
            <AltitudeMeters>330.600006103515625</AltitudeMeters>
            <DistanceMeters>NAN</DistanceMeters>
          </Trackpoint>
          <Trackpoint>
            <Time>2022-09-22T12:29:39.000Z</Time>
            <Position>
              <LatitudeDegrees>49.51708615757524967193603515625</LatitudeDegrees>
              <LongitudeDegrees>20.6514958105981349945068359375</LongitudeDegrees>
            </Position>
            <AltitudeMeters>330.399993896484375</AltitudeMeters>
            <DistanceMeters>NAN</DistanceMeters>
          </Trackpoint>
          <Trackpoint>
            <Time>2022-09-22T12:29:51.000Z</Time>
            <Position>
              <LatitudeDegrees>49.51708615757524967193603515625</LatitudeDegrees>
              <LongitudeDegrees>20.6514958105981349945068359375</LongitudeDegrees>
            </Position>
            <AltitudeMeters>330.79998779296875</AltitudeMeters>
            <DistanceMeters>NAN</DistanceMeters>
          </Trackpoint>
          <Trackpoint>
            <Time>2022-09-22T12:29:54.000Z</Time>
            <Position>
              <LatitudeDegrees>49.51708615757524967193603515625</LatitudeDegrees>
              <LongitudeDegrees>20.6514958105981349945068359375</LongitudeDegrees>
            </Position>
            <AltitudeMeters>330.600006103515625</AltitudeMeters>
            <DistanceMeters>NAN</DistanceMeters>
          </Trackpoint>
          <Trackpoint>
            <Time>2022-09-22T12:29:58.000Z</Time>
            <Position>
              <LatitudeDegrees>49.51708615757524967193603515625</LatitudeDegrees>
              <LongitudeDegrees>20.6514958105981349945068359375</LongitudeDegrees>
            </Position>
            <AltitudeMeters>330.600006103515625</AltitudeMeters>
            <DistanceMeters>NAN</DistanceMeters>
          </Trackpoint>
          <Trackpoint>
            <Time>2022-09-22T12:30:05.000Z</Time>
            <Position>
              <LatitudeDegrees>49.51708615757524967193603515625</LatitudeDegrees>
              <LongitudeDegrees>20.6514958105981349945068359375</LongitudeDegrees>
            </Position>
            <AltitudeMeters>330.600006103515625</AltitudeMeters>
            <DistanceMeters>NAN</DistanceMeters>
          </Trackpoint>
          <Trackpoint>
            <Time>2022-09-22T12:30:18.000Z</Time>
            <Position>
              <LatitudeDegrees>49.51708615757524967193603515625</LatitudeDegrees>
              <LongitudeDegrees>20.6514958105981349945068359375</LongitudeDegrees>
            </Position>
            <AltitudeMeters>330.399993896484375</AltitudeMeters>
            <DistanceMeters>NAN</DistanceMeters>
          </Trackpoint>
          <Trackpoint>
            <Time>2022-09-22T12:30:35.000Z</Time>
            <Position>
              <LatitudeDegrees>49.51708448119461536407470703125</LatitudeDegrees>
              <LongitudeDegrees>20.65149773843586444854736328125</LongitudeDegrees>
            </Position>
            <AltitudeMeters>330.600006103515625</AltitudeMeters>
            <DistanceMeters>NAN</DistanceMeters>
          </Trackpoint>
          <Trackpoint>
            <Time>2022-09-22T12:30:37.000Z</Time>
            <Position>
              <LatitudeDegrees>49.51704206876456737518310546875</LatitudeDegrees>
              <LongitudeDegrees>20.65152204595506191253662109375</LongitudeDegrees>
            </Position>
            <AltitudeMeters>330.399993896484375</AltitudeMeters>
            <DistanceMeters>NAN</DistanceMeters>
          </Trackpoint>
          <Trackpoint>
            <Time>2022-09-22T12:30:38.000Z</Time>
            <Position>
              <LatitudeDegrees>49.51702446676790714263916015625</LatitudeDegrees>
              <LongitudeDegrees>20.65152321942150592803955078125</LongitudeDegrees>
            </Position>
            <AltitudeMeters>330.399993896484375</AltitudeMeters>
            <DistanceMeters>NAN</DistanceMeters>
          </Trackpoint>
          <Trackpoint>
            <Time>2022-09-22T12:30:43.000Z</Time>
            <Position>
              <LatitudeDegrees>49.51688616536557674407958984375</LatitudeDegrees>
              <LongitudeDegrees>20.651531182229518890380859375</LongitudeDegrees>
            </Position>
            <AltitudeMeters>330.399993896484375</AltitudeMeters>
            <DistanceMeters>NAN</DistanceMeters>
          </Trackpoint>
          <Trackpoint>
            <Time>2022-09-22T12:30:53.000Z</Time>
            <Position>
              <LatitudeDegrees>49.5166420005261898040771484375</LatitudeDegrees>
              <LongitudeDegrees>20.65150695852935314178466796875</LongitudeDegrees>
            </Position>
            <AltitudeMeters>330.20001220703125</AltitudeMeters>
            <DistanceMeters>NAN</DistanceMeters>
          </Trackpoint>
          <Trackpoint>
            <Time>2022-09-22T12:31:03.000Z</Time>
            <Position>
              <LatitudeDegrees>49.51638610102236270904541015625</LatitudeDegrees>
              <LongitudeDegrees>20.651494301855564117431640625</LongitudeDegrees>
            </Position>
            <AltitudeMeters>329.79998779296875</AltitudeMeters>
            <DistanceMeters>NAN</DistanceMeters>
          </Trackpoint>
          <Trackpoint>
            <Time>2022-09-22T12:31:09.000Z</Time>
            <Position>
              <LatitudeDegrees>49.51624964363873004913330078125</LatitudeDegrees>
              <LongitudeDegrees>20.6514813937246799468994140625</LongitudeDegrees>
            </Position>
            <AltitudeMeters>329.79998779296875</AltitudeMeters>
            <DistanceMeters>NAN</DistanceMeters>
          </Trackpoint>
          <Trackpoint>
            <Time>2022-09-22T12:31:10.000Z</Time>
            <Position>
              <LatitudeDegrees>49.5162292756140232086181640625</LatitudeDegrees>
              <LongitudeDegrees>20.65148164518177509307861328125</LongitudeDegrees>
            </Position>
            <AltitudeMeters>329.79998779296875</AltitudeMeters>
            <DistanceMeters>NAN</DistanceMeters>
          </Trackpoint>
          <Trackpoint>
            <Time>2022-09-22T12:31:17.000Z</Time>
            <Position>
              <LatitudeDegrees>49.5160782337188720703125</LatitudeDegrees>
              <LongitudeDegrees>20.65146245062351226806640625</LongitudeDegrees>
            </Position>
            <AltitudeMeters>329.79998779296875</AltitudeMeters>
            <DistanceMeters>NAN</DistanceMeters>
          </Trackpoint>
          <Trackpoint>
            <Time>2022-09-22T12:31:19.000Z</Time>
            <Position>
              <LatitudeDegrees>49.5160205662250518798828125</LatitudeDegrees>
              <LongitudeDegrees>20.65145733766257762908935546875</LongitudeDegrees>
            </Position>
            <AltitudeMeters>330</AltitudeMeters>
            <DistanceMeters>NAN</DistanceMeters>
          </Trackpoint>
          <Trackpoint>
            <Time>2022-09-22T12:31:22.000Z</Time>
            <Position>
              <LatitudeDegrees>49.51591101475059986114501953125</LatitudeDegrees>
              <LongitudeDegrees>20.65146069042384624481201171875</LongitudeDegrees>
            </Position>
            <AltitudeMeters>330</AltitudeMeters>
            <DistanceMeters>NAN</DistanceMeters>
          </Trackpoint>
          <Trackpoint>
            <Time>2022-09-22T12:31:29.000Z</Time>
            <Position>
              <LatitudeDegrees>49.5156381838023662567138671875</LatitudeDegrees>
              <LongitudeDegrees>20.651413500308990478515625</LongitudeDegrees>
            </Position>
            <AltitudeMeters>329.79998779296875</AltitudeMeters>
            <DistanceMeters>NAN</DistanceMeters>
          </Trackpoint>
          <Trackpoint>
            <Time>2022-09-22T12:31:38.000Z</Time>
            <Position>
              <LatitudeDegrees>49.51536417938768863677978515625</LatitudeDegrees>
              <LongitudeDegrees>20.65134217031300067901611328125</LongitudeDegrees>
            </Position>
            <AltitudeMeters>329.79998779296875</AltitudeMeters>
            <DistanceMeters>NAN</DistanceMeters>
          </Trackpoint>
          <Trackpoint>
            <Time>2022-09-22T12:31:46.000Z</Time>
            <Position>
              <LatitudeDegrees>49.5151476748287677764892578125</LatitudeDegrees>
              <LongitudeDegrees>20.6512808986008167266845703125</LongitudeDegrees>
            </Position>
            <AltitudeMeters>330</AltitudeMeters>
            <DistanceMeters>NAN</DistanceMeters>
          </Trackpoint>
          <Trackpoint>
            <Time>2022-09-22T12:31:54.000Z</Time>
            <Position>
              <LatitudeDegrees>49.5149508677423000335693359375</LatitudeDegrees>
              <LongitudeDegrees>20.651204623281955718994140625</LongitudeDegrees>
            </Position>
            <AltitudeMeters>330.20001220703125</AltitudeMeters>
            <DistanceMeters>NAN</DistanceMeters>
          </Trackpoint>
          <Trackpoint>
            <Time>2022-09-22T12:32:01.000Z</Time>
            <Position>
              <LatitudeDegrees>49.51478381641209125518798828125</LatitudeDegrees>
              <LongitudeDegrees>20.651138238608837127685546875</LongitudeDegrees>
            </Position>
            <AltitudeMeters>330.399993896484375</AltitudeMeters>
            <DistanceMeters>NAN</DistanceMeters>
          </Trackpoint>
          <Trackpoint>
            <Time>2022-09-22T12:32:10.000Z</Time>
            <Position>
              <LatitudeDegrees>49.51453051529824733734130859375</LatitudeDegrees>
              <LongitudeDegrees>20.65103874541819095611572265625</LongitudeDegrees>
            </Position>
            <AltitudeMeters>330.20001220703125</AltitudeMeters>
            <DistanceMeters>NAN</DistanceMeters>
          </Trackpoint>
          <Trackpoint>
            <Time>2022-09-22T12:32:14.000Z</Time>
            <Position>
              <LatitudeDegrees>49.5144005119800567626953125</LatitudeDegrees>
              <LongitudeDegrees>20.651004798710346221923828125</LongitudeDegrees>
            </Position>
            <AltitudeMeters>330.20001220703125</AltitudeMeters>
            <DistanceMeters>NAN</DistanceMeters>
          </Trackpoint>
          <Trackpoint>
            <Time>2022-09-22T12:32:17.000Z</Time>
            <Position>
              <LatitudeDegrees>49.5142964087426662445068359375</LatitudeDegrees>
              <LongitudeDegrees>20.650975964963436126708984375</LongitudeDegrees>
            </Position>
            <AltitudeMeters>330.20001220703125</AltitudeMeters>
            <DistanceMeters>NAN</DistanceMeters>
          </Trackpoint>
          <Trackpoint>
            <Time>2022-09-22T12:32:25.000Z</Time>
            <Position>
              <LatitudeDegrees>49.5140543393790721893310546875</LatitudeDegrees>
              <LongitudeDegrees>20.6509124301373958587646484375</LongitudeDegrees>
            </Position>
            <AltitudeMeters>330.20001220703125</AltitudeMeters>
            <DistanceMeters>NAN</DistanceMeters>
          </Trackpoint>
          <Trackpoint>
            <Time>2022-09-22T12:32:30.000Z</Time>
            <Position>
              <LatitudeDegrees>49.5138766430318355560302734375</LatitudeDegrees>
              <LongitudeDegrees>20.65086708404123783111572265625</LongitudeDegrees>
            </Position>
            <AltitudeMeters>330.20001220703125</AltitudeMeters>
            <DistanceMeters>NAN</DistanceMeters>
          </Trackpoint>
          <Trackpoint>
            <Time>2022-09-22T12:32:33.000Z</Time>
            <Position>
              <LatitudeDegrees>49.513777904212474822998046875</LatitudeDegrees>
              <LongitudeDegrees>20.6508436985313892364501953125</LongitudeDegrees>
            </Position>
            <AltitudeMeters>330.20001220703125</AltitudeMeters>
            <DistanceMeters>NAN</DistanceMeters>
          </Trackpoint>
          <Trackpoint>
            <Time>2022-09-22T12:32:41.000Z</Time>
            <Position>
              <LatitudeDegrees>49.5135601423680782318115234375</LatitudeDegrees>
              <LongitudeDegrees>20.65080874599516391754150390625</LongitudeDegrees>
            </Position>
            <AltitudeMeters>330.20001220703125</AltitudeMeters>
            <DistanceMeters>NAN</DistanceMeters>
          </Trackpoint>
          <Trackpoint>
            <Time>2022-09-22T12:32:45.000Z</Time>
            <Position>
              <LatitudeDegrees>49.51345846988260746002197265625</LatitudeDegrees>
              <LongitudeDegrees>20.6507885456085205078125</LongitudeDegrees>
            </Position>
            <AltitudeMeters>330.20001220703125</AltitudeMeters>
            <DistanceMeters>NAN</DistanceMeters>
          </Trackpoint>
          <Trackpoint>
            <Time>2022-09-22T12:32:49.000Z</Time>
            <Position>
              <LatitudeDegrees>49.51334380544722080230712890625</LatitudeDegrees>
              <LongitudeDegrees>20.65076909959316253662109375</LongitudeDegrees>
            </Position>
            <AltitudeMeters>330.20001220703125</AltitudeMeters>
            <DistanceMeters>NAN</DistanceMeters>
          </Trackpoint>
          <Trackpoint>
            <Time>2022-09-22T12:32:55.000Z</Time>
            <Position>
              <LatitudeDegrees>49.513156972825527191162109375</LatitudeDegrees>
              <LongitudeDegrees>20.650743283331394195556640625</LongitudeDegrees>
            </Position>
            <AltitudeMeters>330.399993896484375</AltitudeMeters>
            <DistanceMeters>NAN</DistanceMeters>
          </Trackpoint>
          <Trackpoint>
            <Time>2022-09-22T12:33:03.000Z</Time>
            <Position>
              <LatitudeDegrees>49.51291498728096485137939453125</LatitudeDegrees>
              <LongitudeDegrees>20.65073490142822265625</LongitudeDegrees>
            </Position>
            <AltitudeMeters>330.399993896484375</AltitudeMeters>
            <DistanceMeters>NAN</DistanceMeters>
          </Trackpoint>
          <Trackpoint>
            <Time>2022-09-22T12:33:13.000Z</Time>
            <Position>
              <LatitudeDegrees>49.5126012526452541351318359375</LatitudeDegrees>
              <LongitudeDegrees>20.65073431469500064849853515625</LongitudeDegrees>
            </Position>
            <AltitudeMeters>330.600006103515625</AltitudeMeters>
            <DistanceMeters>NAN</DistanceMeters>
          </Trackpoint>
          <Trackpoint>
            <Time>2022-09-22T12:33:26.000Z</Time>
            <Position>
              <LatitudeDegrees>49.512169249355792999267578125</LatitudeDegrees>
              <LongitudeDegrees>20.65071486867964267730712890625</LongitudeDegrees>
            </Position>
            <AltitudeMeters>330.79998779296875</AltitudeMeters>
            <DistanceMeters>NAN</DistanceMeters>
          </Trackpoint>
          <Trackpoint>
            <Time>2022-09-22T12:33:35.000Z</Time>
            <Position>
              <LatitudeDegrees>49.5118948258459568023681640625</LatitudeDegrees>
              <LongitudeDegrees>20.65074504353106021881103515625</LongitudeDegrees>
            </Position>
            <AltitudeMeters>331.20001220703125</AltitudeMeters>
            <DistanceMeters>NAN</DistanceMeters>
          </Trackpoint>
          <Trackpoint>
            <Time>2022-09-22T12:33:39.000Z</Time>
            <Position>
              <LatitudeDegrees>49.5117878727614879608154296875</LatitudeDegrees>
              <LongitudeDegrees>20.6507682614028453826904296875</LongitudeDegrees>
            </Position>
            <AltitudeMeters>331.20001220703125</AltitudeMeters>
            <DistanceMeters>NAN</DistanceMeters>
          </Trackpoint>
          <Trackpoint>
            <Time>2022-09-22T12:33:43.000Z</Time>
            <Position>
              <LatitudeDegrees>49.51167144812643527984619140625</LatitudeDegrees>
              <LongitudeDegrees>20.6507845222949981689453125</LongitudeDegrees>
            </Position>
            <AltitudeMeters>331.600006103515625</AltitudeMeters>
            <DistanceMeters>NAN</DistanceMeters>
          </Trackpoint>
          <Trackpoint>
            <Time>2022-09-22T12:33:51.000Z</Time>
            <Position>
              <LatitudeDegrees>49.51144161634147167205810546875</LatitudeDegrees>
              <LongitudeDegrees>20.650831125676631927490234375</LongitudeDegrees>
            </Position>
            <AltitudeMeters>331.600006103515625</AltitudeMeters>
            <DistanceMeters>NAN</DistanceMeters>
          </Trackpoint>
          <Trackpoint>
            <Time>2022-09-22T12:33:52.000Z</Time>
            <Position>
              <LatitudeDegrees>49.51141077093780040740966796875</LatitudeDegrees>
              <LongitudeDegrees>20.65084059722721576690673828125</LongitudeDegrees>
            </Position>
            <AltitudeMeters>331.79998779296875</AltitudeMeters>
            <DistanceMeters>NAN</DistanceMeters>
          </Trackpoint>
          <Trackpoint>
            <Time>2022-09-22T12:34:00.000Z</Time>
            <Position>
              <LatitudeDegrees>49.5111858844757080078125</LatitudeDegrees>
              <LongitudeDegrees>20.65090329386293888092041015625</LongitudeDegrees>
            </Position>
            <AltitudeMeters>332</AltitudeMeters>
            <DistanceMeters>NAN</DistanceMeters>
          </Trackpoint>
          <Trackpoint>
            <Time>2022-09-22T12:34:07.000Z</Time>
            <Position>
              <LatitudeDegrees>49.51099989004433155059814453125</LatitudeDegrees>
              <LongitudeDegrees>20.650962553918361663818359375</LongitudeDegrees>
            </Position>
            <AltitudeMeters>332.399993896484375</AltitudeMeters>
            <DistanceMeters>NAN</DistanceMeters>
          </Trackpoint>
          <Trackpoint>
            <Time>2022-09-22T12:34:13.000Z</Time>
            <Position>
              <LatitudeDegrees>49.5108601637184619903564453125</LatitudeDegrees>
              <LongitudeDegrees>20.6510036252439022064208984375</LongitudeDegrees>
            </Position>
            <AltitudeMeters>332.79998779296875</AltitudeMeters>
            <DistanceMeters>NAN</DistanceMeters>
          </Trackpoint>
          <Trackpoint>
            <Time>2022-09-22T12:34:15.000Z</Time>
            <Position>
              <LatitudeDegrees>49.51082034967839717864990234375</LatitudeDegrees>
              <LongitudeDegrees>20.65102147869765758514404296875</LongitudeDegrees>
            </Position>
            <AltitudeMeters>332.79998779296875</AltitudeMeters>
            <DistanceMeters>NAN</DistanceMeters>
          </Trackpoint>
          <Trackpoint>
            <Time>2022-09-22T12:34:16.000Z</Time>
            <Position>
              <LatitudeDegrees>49.51079587452113628387451171875</LatitudeDegrees>
              <LongitudeDegrees>20.6510312855243682861328125</LongitudeDegrees>
            </Position>
            <AltitudeMeters>332.79998779296875</AltitudeMeters>
            <DistanceMeters>NAN</DistanceMeters>
          </Trackpoint>
          <Trackpoint>
            <Time>2022-09-22T12:34:22.000Z</Time>
            <Position>
              <LatitudeDegrees>49.51064198277890682220458984375</LatitudeDegrees>
              <LongitudeDegrees>20.65110663883388042449951171875</LongitudeDegrees>
            </Position>
            <AltitudeMeters>333</AltitudeMeters>
            <DistanceMeters>NAN</DistanceMeters>
          </Trackpoint>
          <Trackpoint>
            <Time>2022-09-22T12:34:25.000Z</Time>
            <Position>
              <LatitudeDegrees>49.51056336052715778350830078125</LatitudeDegrees>
              <LongitudeDegrees>20.651144944131374359130859375</LongitudeDegrees>
            </Position>
            <AltitudeMeters>333</AltitudeMeters>
            <DistanceMeters>NAN</DistanceMeters>
          </Trackpoint>
          <Trackpoint>
            <Time>2022-09-22T12:34:28.000Z</Time>
            <Position>
              <LatitudeDegrees>49.5104715786874294281005859375</LatitudeDegrees>
              <LongitudeDegrees>20.65119154751300811767578125</LongitudeDegrees>
            </Position>
            <AltitudeMeters>333</AltitudeMeters>
            <DistanceMeters>NAN</DistanceMeters>
          </Trackpoint>
          <Trackpoint>
            <Time>2022-09-22T12:34:32.000Z</Time>
            <Position>
              <LatitudeDegrees>49.510350041091442108154296875</LatitudeDegrees>
              <LongitudeDegrees>20.65124795772135257720947265625</LongitudeDegrees>
            </Position>
            <AltitudeMeters>333.20001220703125</AltitudeMeters>
            <DistanceMeters>NAN</DistanceMeters>
          </Trackpoint>
          <Trackpoint>
            <Time>2022-09-22T12:34:35.000Z</Time>
            <Position>
              <LatitudeDegrees>49.51026278547942638397216796875</LatitudeDegrees>
              <LongitudeDegrees>20.65129741095006465911865234375</LongitudeDegrees>
            </Position>
            <AltitudeMeters>333.20001220703125</AltitudeMeters>
            <DistanceMeters>NAN</DistanceMeters>
          </Trackpoint>
          <Trackpoint>
            <Time>2022-09-22T12:34:40.000Z</Time>
            <Position>
              <LatitudeDegrees>49.51009917072951793670654296875</LatitudeDegrees>
              <LongitudeDegrees>20.6513828225433826446533203125</LongitudeDegrees>
            </Position>
            <AltitudeMeters>333.399993896484375</AltitudeMeters>
            <DistanceMeters>NAN</DistanceMeters>
          </Trackpoint>
          <Trackpoint>
            <Time>2022-09-22T12:34:43.000Z</Time>
            <Position>
              <LatitudeDegrees>49.5100152678787708282470703125</LatitudeDegrees>
              <LongitudeDegrees>20.65140989609062671661376953125</LongitudeDegrees>
            </Position>
            <AltitudeMeters>333.79998779296875</AltitudeMeters>
            <DistanceMeters>NAN</DistanceMeters>
          </Trackpoint>
          <Trackpoint>
            <Time>2022-09-22T12:34:44.000Z</Time>
            <Position>
              <LatitudeDegrees>49.509991966187953948974609375</LatitudeDegrees>
              <LongitudeDegrees>20.651421882212162017822265625</LongitudeDegrees>
            </Position>
            <AltitudeMeters>333.79998779296875</AltitudeMeters>
            <DistanceMeters>NAN</DistanceMeters>
          </Trackpoint>
          <Trackpoint>
            <Time>2022-09-22T12:34:46.000Z</Time>
            <Position>
              <LatitudeDegrees>49.50994980521500110626220703125</LatitudeDegrees>
              <LongitudeDegrees>20.65143973566591739654541015625</LongitudeDegrees>
            </Position>
            <AltitudeMeters>334</AltitudeMeters>
            <DistanceMeters>NAN</DistanceMeters>
          </Trackpoint>
          <Trackpoint>
            <Time>2022-09-22T12:34:48.000Z</Time>
            <Position>
              <LatitudeDegrees>49.5098959095776081085205078125</LatitudeDegrees>
              <LongitudeDegrees>20.651455409824848175048828125</LongitudeDegrees>
            </Position>
            <AltitudeMeters>334</AltitudeMeters>
            <DistanceMeters>NAN</DistanceMeters>
          </Trackpoint>
          <Trackpoint>
            <Time>2022-09-22T12:34:55.000Z</Time>
            <Position>
              <LatitudeDegrees>49.50970807112753391265869140625</LatitudeDegrees>
              <LongitudeDegrees>20.65153193660080432891845703125</LongitudeDegrees>
            </Position>
            <AltitudeMeters>334.399993896484375</AltitudeMeters>
            <DistanceMeters>NAN</DistanceMeters>
          </Trackpoint>
          <Trackpoint>
            <Time>2022-09-22T12:34:56.000Z</Time>
            <Position>
              <LatitudeDegrees>49.50967848300933837890625</LatitudeDegrees>
              <LongitudeDegrees>20.651543922722339630126953125</LongitudeDegrees>
            </Position>
            <AltitudeMeters>334.600006103515625</AltitudeMeters>
            <DistanceMeters>NAN</DistanceMeters>
          </Trackpoint>
          <Trackpoint>
            <Time>2022-09-22T12:35:04.000Z</Time>
            <Position>
              <LatitudeDegrees>49.5094741322100162506103515625</LatitudeDegrees>
              <LongitudeDegrees>20.65163956023752689361572265625</LongitudeDegrees>
            </Position>
            <AltitudeMeters>334.79998779296875</AltitudeMeters>
            <DistanceMeters>NAN</DistanceMeters>
          </Trackpoint>
          <Trackpoint>
            <Time>2022-09-22T12:35:06.000Z</Time>
            <Position>
              <LatitudeDegrees>49.50942032039165496826171875</LatitudeDegrees>
              <LongitudeDegrees>20.65166319720447063446044921875</LongitudeDegrees>
            </Position>
            <AltitudeMeters>335</AltitudeMeters>
            <DistanceMeters>NAN</DistanceMeters>
          </Trackpoint>
          <Trackpoint>
            <Time>2022-09-22T12:35:14.000Z</Time>
            <Position>
              <LatitudeDegrees>49.50922309421002864837646484375</LatitudeDegrees>
              <LongitudeDegrees>20.65173871815204620361328125</LongitudeDegrees>
            </Position>
            <AltitudeMeters>335</AltitudeMeters>
            <DistanceMeters>NAN</DistanceMeters>
          </Trackpoint>
          <Trackpoint>
            <Time>2022-09-22T12:35:17.000Z</Time>
            <Position>
              <LatitudeDegrees>49.50915352441370487213134765625</LatitudeDegrees>
              <LongitudeDegrees>20.651771910488605499267578125</LongitudeDegrees>
            </Position>
            <AltitudeMeters>335</AltitudeMeters>
            <DistanceMeters>NAN</DistanceMeters>
          </Trackpoint>
          <Trackpoint>
            <Time>2022-09-22T12:35:21.000Z</Time>
            <Position>
              <LatitudeDegrees>49.509038440883159637451171875</LatitudeDegrees>
              <LongitudeDegrees>20.651820190250873565673828125</LongitudeDegrees>
            </Position>
            <AltitudeMeters>335</AltitudeMeters>
            <DistanceMeters>NAN</DistanceMeters>
          </Trackpoint>
          <Trackpoint>
            <Time>2022-09-22T12:35:29.000Z</Time>
            <Position>
              <LatitudeDegrees>49.50877315364778041839599609375</LatitudeDegrees>
              <LongitudeDegrees>20.651924796402454376220703125</LongitudeDegrees>
            </Position>
            <AltitudeMeters>335</AltitudeMeters>
            <DistanceMeters>NAN</DistanceMeters>
          </Trackpoint>
          <Trackpoint>
            <Time>2022-09-22T12:35:36.000Z</Time>
            <Position>
              <LatitudeDegrees>49.50855555944144725799560546875</LatitudeDegrees>
              <LongitudeDegrees>20.65201456658542156219482421875</LongitudeDegrees>
            </Position>
            <AltitudeMeters>335.20001220703125</AltitudeMeters>
            <DistanceMeters>NAN</DistanceMeters>
          </Trackpoint>
          <Trackpoint>
            <Time>2022-09-22T12:35:44.000Z</Time>
            <Position>
              <LatitudeDegrees>49.508285410702228546142578125</LatitudeDegrees>
              <LongitudeDegrees>20.65212587825953960418701171875</LongitudeDegrees>
            </Position>
            <AltitudeMeters>335.399993896484375</AltitudeMeters>
            <DistanceMeters>NAN</DistanceMeters>
          </Trackpoint>
          <Trackpoint>
            <Time>2022-09-22T12:35:45.000Z</Time>
            <Position>
              <LatitudeDegrees>49.5082547329366207122802734375</LatitudeDegrees>
              <LongitudeDegrees>20.652142725884914398193359375</LongitudeDegrees>
            </Position>
            <AltitudeMeters>335.399993896484375</AltitudeMeters>
            <DistanceMeters>NAN</DistanceMeters>
          </Trackpoint>
          <Trackpoint>
            <Time>2022-09-22T12:35:53.000Z</Time>
            <Position>
              <LatitudeDegrees>49.50802817009389400482177734375</LatitudeDegrees>
              <LongitudeDegrees>20.65223651938140392303466796875</LongitudeDegrees>
            </Position>
            <AltitudeMeters>335.600006103515625</AltitudeMeters>
            <DistanceMeters>NAN</DistanceMeters>
          </Trackpoint>
          <Trackpoint>
            <Time>2022-09-22T12:35:59.000Z</Time>
            <Position>
              <LatitudeDegrees>49.5078773796558380126953125</LatitudeDegrees>
              <LongitudeDegrees>20.6522934325039386749267578125</LongitudeDegrees>
            </Position>
            <AltitudeMeters>335.600006103515625</AltitudeMeters>
            <DistanceMeters>NAN</DistanceMeters>
          </Trackpoint>
          <Trackpoint>
            <Time>2022-09-22T12:36:01.000Z</Time>
            <Position>
              <LatitudeDegrees>49.50783018954098224639892578125</LatitudeDegrees>
              <LongitudeDegrees>20.65231597982347011566162109375</LongitudeDegrees>
            </Position>
            <AltitudeMeters>335.600006103515625</AltitudeMeters>
            <DistanceMeters>NAN</DistanceMeters>
          </Trackpoint>
          <Trackpoint>
            <Time>2022-09-22T12:36:03.000Z</Time>
            <Position>
              <LatitudeDegrees>49.507778473198413848876953125</LatitudeDegrees>
              <LongitudeDegrees>20.65232972614467144012451171875</LongitudeDegrees>
            </Position>
            <AltitudeMeters>335.600006103515625</AltitudeMeters>
            <DistanceMeters>NAN</DistanceMeters>
          </Trackpoint>
          <Trackpoint>
            <Time>2022-09-22T12:36:09.000Z</Time>
            <Position>
              <LatitudeDegrees>49.507636986672878265380859375</LatitudeDegrees>
              <LongitudeDegrees>20.65239661373198032379150390625</LongitudeDegrees>
            </Position>
            <AltitudeMeters>335.20001220703125</AltitudeMeters>
            <DistanceMeters>NAN</DistanceMeters>
          </Trackpoint>
          <Trackpoint>
            <Time>2022-09-22T12:36:16.000Z</Time>
            <Position>
              <LatitudeDegrees>49.507420063018798828125</LatitudeDegrees>
              <LongitudeDegrees>20.6524962745606899261474609375</LongitudeDegrees>
            </Position>
            <AltitudeMeters>335</AltitudeMeters>
            <DistanceMeters>NAN</DistanceMeters>
          </Trackpoint>
          <Trackpoint>
            <Time>2022-09-22T12:36:23.000Z</Time>
            <Position>
              <LatitudeDegrees>49.50717799365520477294921875</LatitudeDegrees>
              <LongitudeDegrees>20.6526146270334720611572265625</LongitudeDegrees>
            </Position>
            <AltitudeMeters>334.79998779296875</AltitudeMeters>
            <DistanceMeters>NAN</DistanceMeters>
          </Trackpoint>
          <Trackpoint>
            <Time>2022-09-22T12:36:29.000Z</Time>
            <Position>
              <LatitudeDegrees>49.5069803483784198760986328125</LatitudeDegrees>
              <LongitudeDegrees>20.65270087681710720062255859375</LongitudeDegrees>
            </Position>
            <AltitudeMeters>335.399993896484375</AltitudeMeters>
            <DistanceMeters>NAN</DistanceMeters>
          </Trackpoint>
          <Trackpoint>
            <Time>2022-09-22T12:36:30.000Z</Time>
            <Position>
              <LatitudeDegrees>49.50694925151765346527099609375</LatitudeDegrees>
              <LongitudeDegrees>20.6527155451476573944091796875</LongitudeDegrees>
            </Position>
            <AltitudeMeters>335.399993896484375</AltitudeMeters>
            <DistanceMeters>NAN</DistanceMeters>
          </Trackpoint>
          <Trackpoint>
            <Time>2022-09-22T12:36:32.000Z</Time>
            <Position>
              <LatitudeDegrees>49.50688689015805721282958984375</LatitudeDegrees>
              <LongitudeDegrees>20.6527500785887241363525390625</LongitudeDegrees>
            </Position>
            <AltitudeMeters>335.20001220703125</AltitudeMeters>
            <DistanceMeters>NAN</DistanceMeters>
          </Trackpoint>
          <Trackpoint>
            <Time>2022-09-22T12:36:40.000Z</Time>
            <Position>
              <LatitudeDegrees>49.5066383667290210723876953125</LatitudeDegrees>
              <LongitudeDegrees>20.65288058482110500335693359375</LongitudeDegrees>
            </Position>
            <AltitudeMeters>334.79998779296875</AltitudeMeters>
            <DistanceMeters>NAN</DistanceMeters>
          </Trackpoint>
          <Trackpoint>
            <Time>2022-09-22T12:36:47.000Z</Time>
            <Position>
              <LatitudeDegrees>49.5064351893961429595947265625</LatitudeDegrees>
              <LongitudeDegrees>20.65297680906951427459716796875</LongitudeDegrees>
            </Position>
            <AltitudeMeters>334.399993896484375</AltitudeMeters>
            <DistanceMeters>NAN</DistanceMeters>
          </Trackpoint>
          <Trackpoint>
            <Time>2022-09-22T12:36:48.000Z</Time>
            <Position>
              <LatitudeDegrees>49.50640878640115261077880859375</LatitudeDegrees>
              <LongitudeDegrees>20.6529884599149227142333984375</LongitudeDegrees>
            </Position>
            <AltitudeMeters>334.399993896484375</AltitudeMeters>
            <DistanceMeters>NAN</DistanceMeters>
          </Trackpoint>
          <Trackpoint>
            <Time>2022-09-22T12:36:54.000Z</Time>
            <Position>
              <LatitudeDegrees>49.50622019357979297637939453125</LatitudeDegrees>
              <LongitudeDegrees>20.65307688899338245391845703125</LongitudeDegrees>
            </Position>
            <AltitudeMeters>334.399993896484375</AltitudeMeters>
            <DistanceMeters>NAN</DistanceMeters>
          </Trackpoint>
          <Trackpoint>
            <Time>2022-09-22T12:36:58.000Z</Time>
            <Position>
              <LatitudeDegrees>49.5060865022242069244384765625</LatitudeDegrees>
              <LongitudeDegrees>20.653129108250141143798828125</LongitudeDegrees>
            </Position>
            <AltitudeMeters>334.399993896484375</AltitudeMeters>
            <DistanceMeters>NAN</DistanceMeters>
          </Trackpoint>
          <Trackpoint>
            <Time>2022-09-22T12:37:01.000Z</Time>
            <Position>
              <LatitudeDegrees>49.50599639676511287689208984375</LatitudeDegrees>
              <LongitudeDegrees>20.653172694146633148193359375</LongitudeDegrees>
            </Position>
            <AltitudeMeters>334.399993896484375</AltitudeMeters>
            <DistanceMeters>NAN</DistanceMeters>
          </Trackpoint>
          <Trackpoint>
            <Time>2022-09-22T12:37:02.000Z</Time>
            <Position>
              <LatitudeDegrees>49.50596773065626621246337890625</LatitudeDegrees>
              <LongitudeDegrees>20.65318417735397815704345703125</LongitudeDegrees>
            </Position>
            <AltitudeMeters>334.399993896484375</AltitudeMeters>
            <DistanceMeters>NAN</DistanceMeters>
          </Trackpoint>
          <Trackpoint>
            <Time>2022-09-22T12:37:07.000Z</Time>
            <Position>
              <LatitudeDegrees>49.5058189518749713897705078125</LatitudeDegrees>
              <LongitudeDegrees>20.653251148760318756103515625</LongitudeDegrees>
            </Position>
            <AltitudeMeters>334.399993896484375</AltitudeMeters>
            <DistanceMeters>NAN</DistanceMeters>
          </Trackpoint>
          <Trackpoint>
            <Time>2022-09-22T12:37:10.000Z</Time>
            <Position>
              <LatitudeDegrees>49.5057079754769802093505859375</LatitudeDegrees>
              <LongitudeDegrees>20.65329800359904766082763671875</LongitudeDegrees>
            </Position>
            <AltitudeMeters>334.399993896484375</AltitudeMeters>
            <DistanceMeters>NAN</DistanceMeters>
          </Trackpoint>
          <Trackpoint>
            <Time>2022-09-22T12:37:13.000Z</Time>
            <Position>
              <LatitudeDegrees>49.50561502017080783843994140625</LatitudeDegrees>
              <LongitudeDegrees>20.6533394940197467803955078125</LongitudeDegrees>
            </Position>
            <AltitudeMeters>334.20001220703125</AltitudeMeters>
            <DistanceMeters>NAN</DistanceMeters>
          </Trackpoint>
          <Trackpoint>
            <Time>2022-09-22T12:37:15.000Z</Time>
            <Position>
              <LatitudeDegrees>49.505545534193515777587890625</LatitudeDegrees>
              <LongitudeDegrees>20.653361789882183074951171875</LongitudeDegrees>
            </Position>
            <AltitudeMeters>334.399993896484375</AltitudeMeters>
            <DistanceMeters>NAN</DistanceMeters>
          </Trackpoint>
          <Trackpoint>
            <Time>2022-09-22T12:37:17.000Z</Time>
            <Position>
              <LatitudeDegrees>49.505493231117725372314453125</LatitudeDegrees>
              <LongitudeDegrees>20.6533889472484588623046875</LongitudeDegrees>
            </Position>
            <AltitudeMeters>334.399993896484375</AltitudeMeters>
            <DistanceMeters>NAN</DistanceMeters>
          </Trackpoint>
          <Trackpoint>
            <Time>2022-09-22T12:37:23.000Z</Time>
            <Position>
              <LatitudeDegrees>49.5053240843117237091064453125</LatitudeDegrees>
              <LongitudeDegrees>20.653478801250457763671875</LongitudeDegrees>
            </Position>
            <AltitudeMeters>334.399993896484375</AltitudeMeters>
            <DistanceMeters>NAN</DistanceMeters>
          </Trackpoint>
          <Trackpoint>
            <Time>2022-09-22T12:37:29.000Z</Time>
            <Position>
              <LatitudeDegrees>49.5051098428666591644287109375</LatitudeDegrees>
              <LongitudeDegrees>20.653581731021404266357421875</LongitudeDegrees>
            </Position>
            <AltitudeMeters>334.399993896484375</AltitudeMeters>
            <DistanceMeters>NAN</DistanceMeters>
          </Trackpoint>
          <Trackpoint>
            <Time>2022-09-22T12:37:35.000Z</Time>
            <Position>
              <LatitudeDegrees>49.50490490533411502838134765625</LatitudeDegrees>
              <LongitudeDegrees>20.653680972754955291748046875</LongitudeDegrees>
            </Position>
            <AltitudeMeters>335</AltitudeMeters>
            <DistanceMeters>NAN</DistanceMeters>
          </Trackpoint>
          <Trackpoint>
            <Time>2022-09-22T12:37:37.000Z</Time>
            <Position>
              <LatitudeDegrees>49.50484371744096279144287109375</LatitudeDegrees>
              <LongitudeDegrees>20.6537099741399288177490234375</LongitudeDegrees>
            </Position>
            <AltitudeMeters>335.20001220703125</AltitudeMeters>
            <DistanceMeters>NAN</DistanceMeters>
          </Trackpoint>
          <Trackpoint>
            <Time>2022-09-22T12:37:44.000Z</Time>
            <Position>
              <LatitudeDegrees>49.50467390008270740509033203125</LatitudeDegrees>
              <LongitudeDegrees>20.65381231717765331268310546875</LongitudeDegrees>
            </Position>
            <AltitudeMeters>335.20001220703125</AltitudeMeters>
            <DistanceMeters>NAN</DistanceMeters>
          </Trackpoint>
          <Trackpoint>
            <Time>2022-09-22T12:37:48.000Z</Time>
            <Position>
              <LatitudeDegrees>49.5045982114970684051513671875</LatitudeDegrees>
              <LongitudeDegrees>20.65386973321437835693359375</LongitudeDegrees>
            </Position>
            <AltitudeMeters>335</AltitudeMeters>
            <DistanceMeters>NAN</DistanceMeters>
          </Trackpoint>
          <Trackpoint>
            <Time>2022-09-22T12:37:51.000Z</Time>
            <Position>
              <LatitudeDegrees>49.50452864170074462890625</LatitudeDegrees>
              <LongitudeDegrees>20.65392329357564449310302734375</LongitudeDegrees>
            </Position>
            <AltitudeMeters>335</AltitudeMeters>
            <DistanceMeters>NAN</DistanceMeters>
          </Trackpoint>
          <Trackpoint>
            <Time>2022-09-22T12:38:01.000Z</Time>
            <Position>
              <LatitudeDegrees>49.50428514741361141204833984375</LatitudeDegrees>
              <LongitudeDegrees>20.6541448272764682769775390625</LongitudeDegrees>
            </Position>
            <AltitudeMeters>335.20001220703125</AltitudeMeters>
            <DistanceMeters>NAN</DistanceMeters>
          </Trackpoint>
          <Trackpoint>
            <Time>2022-09-22T12:38:03.000Z</Time>
            <Position>
              <LatitudeDegrees>49.50423871167004108428955078125</LatitudeDegrees>
              <LongitudeDegrees>20.65419369377195835113525390625</LongitudeDegrees>
            </Position>
            <AltitudeMeters>335.20001220703125</AltitudeMeters>
            <DistanceMeters>NAN</DistanceMeters>
          </Trackpoint>
          <Trackpoint>
            <Time>2022-09-22T12:38:10.000Z</Time>
            <Position>
              <LatitudeDegrees>49.50405992567539215087890625</LatitudeDegrees>
              <LongitudeDegrees>20.654377005994319915771484375</LongitudeDegrees>
            </Position>
            <AltitudeMeters>335.20001220703125</AltitudeMeters>
            <DistanceMeters>NAN</DistanceMeters>
          </Trackpoint>
          <Trackpoint>
            <Time>2022-09-22T12:38:11.000Z</Time>
            <Position>
              <LatitudeDegrees>49.5040369592607021331787109375</LatitudeDegrees>
              <LongitudeDegrees>20.6544080190360546112060546875</LongitudeDegrees>
            </Position>
            <AltitudeMeters>335.20001220703125</AltitudeMeters>
            <DistanceMeters>NAN</DistanceMeters>
          </Trackpoint>
          <Trackpoint>
            <Time>2022-09-22T12:38:14.000Z</Time>
            <Position>
              <LatitudeDegrees>49.50397417880594730377197265625</LatitudeDegrees>
              <LongitudeDegrees>20.6544814445078372955322265625</LongitudeDegrees>
            </Position>
            <AltitudeMeters>335.20001220703125</AltitudeMeters>
            <DistanceMeters>NAN</DistanceMeters>
          </Trackpoint>
          <Trackpoint>
            <Time>2022-09-22T12:38:18.000Z</Time>
            <Position>
              <LatitudeDegrees>49.50388885103166103363037109375</LatitudeDegrees>
              <LongitudeDegrees>20.65458680503070354461669921875</LongitudeDegrees>
            </Position>
            <AltitudeMeters>335</AltitudeMeters>
            <DistanceMeters>NAN</DistanceMeters>
          </Trackpoint>
          <Trackpoint>
            <Time>2022-09-22T12:38:20.000Z</Time>
            <Position>
              <LatitudeDegrees>49.50384794734418392181396484375</LatitudeDegrees>
              <LongitudeDegrees>20.65463407896459102630615234375</LongitudeDegrees>
            </Position>
            <AltitudeMeters>335</AltitudeMeters>
            <DistanceMeters>NAN</DistanceMeters>
          </Trackpoint>
          <Trackpoint>
            <Time>2022-09-22T12:38:21.000Z</Time>
            <Position>
              <LatitudeDegrees>49.5038326084613800048828125</LatitudeDegrees>
              <LongitudeDegrees>20.65466240979731082916259765625</LongitudeDegrees>
            </Position>
            <AltitudeMeters>335</AltitudeMeters>
            <DistanceMeters>NAN</DistanceMeters>
          </Trackpoint>
          <Trackpoint>
            <Time>2022-09-22T12:38:28.000Z</Time>
            <Position>
              <LatitudeDegrees>49.50366673059761524200439453125</LatitudeDegrees>
              <LongitudeDegrees>20.65488972701132297515869140625</LongitudeDegrees>
            </Position>
            <AltitudeMeters>335.20001220703125</AltitudeMeters>
            <DistanceMeters>NAN</DistanceMeters>
          </Trackpoint>
          <Trackpoint>
            <Time>2022-09-22T12:38:34.000Z</Time>
            <Position>
              <LatitudeDegrees>49.50352289713919162750244140625</LatitudeDegrees>
              <LongitudeDegrees>20.6550976820290088653564453125</LongitudeDegrees>
            </Position>
            <AltitudeMeters>335.399993896484375</AltitudeMeters>
            <DistanceMeters>NAN</DistanceMeters>
          </Trackpoint>
          <Trackpoint>
            <Time>2022-09-22T12:38:38.000Z</Time>
            <Position>
              <LatitudeDegrees>49.50342499651014804840087890625</LatitudeDegrees>
              <LongitudeDegrees>20.6552302837371826171875</LongitudeDegrees>
            </Position>
            <AltitudeMeters>335.20001220703125</AltitudeMeters>
            <DistanceMeters>NAN</DistanceMeters>
          </Trackpoint>
          <Trackpoint>
            <Time>2022-09-22T12:38:44.000Z</Time>
            <Position>
              <LatitudeDegrees>49.50329390354454517364501953125</LatitudeDegrees>
              <LongitudeDegrees>20.65543706528842449188232421875</LongitudeDegrees>
            </Position>
            <AltitudeMeters>335.20001220703125</AltitudeMeters>
            <DistanceMeters>NAN</DistanceMeters>
          </Trackpoint>
          <Trackpoint>
            <Time>2022-09-22T12:38:46.000Z</Time>
            <Position>
              <LatitudeDegrees>49.5032443664968013763427734375</LatitudeDegrees>
              <LongitudeDegrees>20.65552465617656707763671875</LongitudeDegrees>
            </Position>
            <AltitudeMeters>335.399993896484375</AltitudeMeters>
            <DistanceMeters>NAN</DistanceMeters>
          </Trackpoint>
          <Trackpoint>
            <Time>2022-09-22T12:38:47.000Z</Time>
            <Position>
              <LatitudeDegrees>49.50321394018828868865966796875</LatitudeDegrees>
              <LongitudeDegrees>20.65556488931179046630859375</LongitudeDegrees>
            </Position>
            <AltitudeMeters>335.399993896484375</AltitudeMeters>
            <DistanceMeters>NAN</DistanceMeters>
          </Trackpoint>
          <Trackpoint>
            <Time>2022-09-22T12:38:49.000Z</Time>
            <Position>
              <LatitudeDegrees>49.50316163711249828338623046875</LatitudeDegrees>
              <LongitudeDegrees>20.65564007498323917388916015625</LongitudeDegrees>
            </Position>
            <AltitudeMeters>335.600006103515625</AltitudeMeters>
            <DistanceMeters>NAN</DistanceMeters>
          </Trackpoint>
          <Trackpoint>
            <Time>2022-09-22T12:38:51.000Z</Time>
            <Position>
              <LatitudeDegrees>49.50311285443603992462158203125</LatitudeDegrees>
              <LongitudeDegrees>20.655706711113452911376953125</LongitudeDegrees>
            </Position>
            <AltitudeMeters>335.600006103515625</AltitudeMeters>
            <DistanceMeters>NAN</DistanceMeters>
          </Trackpoint>
          <Trackpoint>
            <Time>2022-09-22T12:38:52.000Z</Time>
            <Position>
              <LatitudeDegrees>49.5030887983739376068115234375</LatitudeDegrees>
              <LongitudeDegrees>20.655738227069377899169921875</LongitudeDegrees>
            </Position>
            <AltitudeMeters>335.600006103515625</AltitudeMeters>
            <DistanceMeters>NAN</DistanceMeters>
          </Trackpoint>
          <Trackpoint>
            <Time>2022-09-22T12:38:58.000Z</Time>
            <Position>
              <LatitudeDegrees>49.50293951667845249176025390625</LatitudeDegrees>
              <LongitudeDegrees>20.65596587955951690673828125</LongitudeDegrees>
            </Position>
            <AltitudeMeters>335.79998779296875</AltitudeMeters>
            <DistanceMeters>NAN</DistanceMeters>
          </Trackpoint>
          <Trackpoint>
            <Time>2022-09-22T12:39:02.000Z</Time>
            <Position>
              <LatitudeDegrees>49.50282619334757328033447265625</LatitudeDegrees>
              <LongitudeDegrees>20.65612505190074443817138671875</LongitudeDegrees>
            </Position>
            <AltitudeMeters>336</AltitudeMeters>
            <DistanceMeters>NAN</DistanceMeters>
          </Trackpoint>
          <Trackpoint>
            <Time>2022-09-22T12:39:04.000Z</Time>
            <Position>
              <LatitudeDegrees>49.50277808122336864471435546875</LatitudeDegrees>
              <LongitudeDegrees>20.6561973877251148223876953125</LongitudeDegrees>
            </Position>
            <AltitudeMeters>336</AltitudeMeters>
            <DistanceMeters>NAN</DistanceMeters>
          </Trackpoint>
          <Trackpoint>
            <Time>2022-09-22T12:39:08.000Z</Time>
            <Position>
              <LatitudeDegrees>49.50267397798597812652587890625</LatitudeDegrees>
              <LongitudeDegrees>20.656352452933788299560546875</LongitudeDegrees>
            </Position>
            <AltitudeMeters>336.20001220703125</AltitudeMeters>
            <DistanceMeters>NAN</DistanceMeters>
          </Trackpoint>
          <Trackpoint>
            <Time>2022-09-22T12:39:13.000Z</Time>
            <Position>
              <LatitudeDegrees>49.502530060708522796630859375</LatitudeDegrees>
              <LongitudeDegrees>20.6565591506659984588623046875</LongitudeDegrees>
            </Position>
            <AltitudeMeters>336</AltitudeMeters>
            <DistanceMeters>NAN</DistanceMeters>
          </Trackpoint>
          <Trackpoint>
            <Time>2022-09-22T12:39:20.000Z</Time>
            <Position>
              <LatitudeDegrees>49.50235127471387386322021484375</LatitudeDegrees>
              <LongitudeDegrees>20.6568555347621440887451171875</LongitudeDegrees>
            </Position>
            <AltitudeMeters>336.20001220703125</AltitudeMeters>
            <DistanceMeters>NAN</DistanceMeters>
          </Trackpoint>
          <Trackpoint>
            <Time>2022-09-22T12:39:24.000Z</Time>
            <Position>
              <LatitudeDegrees>49.502246417105197906494140625</LatitudeDegrees>
              <LongitudeDegrees>20.657014958560466766357421875</LongitudeDegrees>
            </Position>
            <AltitudeMeters>336.399993896484375</AltitudeMeters>
            <DistanceMeters>NAN</DistanceMeters>
          </Trackpoint>
          <Trackpoint>
            <Time>2022-09-22T12:39:26.000Z</Time>
            <Position>
              <LatitudeDegrees>49.50219972990453243255615234375</LatitudeDegrees>
              <LongitudeDegrees>20.6570915691554546356201171875</LongitudeDegrees>
            </Position>
            <AltitudeMeters>336.399993896484375</AltitudeMeters>
            <DistanceMeters>NAN</DistanceMeters>
          </Trackpoint>
          <Trackpoint>
            <Time>2022-09-22T12:39:29.000Z</Time>
            <Position>
              <LatitudeDegrees>49.50211398303508758544921875</LatitudeDegrees>
              <LongitudeDegrees>20.6572137773036956787109375</LongitudeDegrees>
            </Position>
            <AltitudeMeters>336.399993896484375</AltitudeMeters>
            <DistanceMeters>NAN</DistanceMeters>
          </Trackpoint>
          <Trackpoint>
            <Time>2022-09-22T12:39:38.000Z</Time>
            <Position>
              <LatitudeDegrees>49.50189194642007350921630859375</LatitudeDegrees>
              <LongitudeDegrees>20.65758568234741687774658203125</LongitudeDegrees>
            </Position>
            <AltitudeMeters>337</AltitudeMeters>
            <DistanceMeters>NAN</DistanceMeters>
          </Trackpoint>
          <Trackpoint>
            <Time>2022-09-22T12:39:44.000Z</Time>
            <Position>
              <LatitudeDegrees>49.5017852447926998138427734375</LatitudeDegrees>
              <LongitudeDegrees>20.657788775861263275146484375</LongitudeDegrees>
            </Position>
            <AltitudeMeters>336.79998779296875</AltitudeMeters>
            <DistanceMeters>NAN</DistanceMeters>
          </Trackpoint>
          <Trackpoint>
            <Time>2022-09-22T12:39:45.000Z</Time>
            <Position>
              <LatitudeDegrees>49.5017651282250881195068359375</LatitudeDegrees>
              <LongitudeDegrees>20.65781920216977596282958984375</LongitudeDegrees>
            </Position>
            <AltitudeMeters>336.79998779296875</AltitudeMeters>
            <DistanceMeters>NAN</DistanceMeters>
          </Trackpoint>
          <Trackpoint>
            <Time>2022-09-22T12:39:51.000Z</Time>
            <Position>
              <LatitudeDegrees>49.50167812407016754150390625</LatitudeDegrees>
              <LongitudeDegrees>20.6580186076462268829345703125</LongitudeDegrees>
            </Position>
            <AltitudeMeters>336.79998779296875</AltitudeMeters>
            <DistanceMeters>NAN</DistanceMeters>
          </Trackpoint>
          <Trackpoint>
            <Time>2022-09-22T12:39:58.000Z</Time>
            <Position>
              <LatitudeDegrees>49.5015642978250980377197265625</LatitudeDegrees>
              <LongitudeDegrees>20.658297054469585418701171875</LongitudeDegrees>
            </Position>
            <AltitudeMeters>336.399993896484375</AltitudeMeters>
            <DistanceMeters>NAN</DistanceMeters>
          </Trackpoint>
          <Trackpoint>
            <Time>2022-09-22T12:40:05.000Z</Time>
            <Position>
              <LatitudeDegrees>49.501453824341297149658203125</LatitudeDegrees>
              <LongitudeDegrees>20.6586009822785854339599609375</LongitudeDegrees>
            </Position>
            <AltitudeMeters>336.399993896484375</AltitudeMeters>
            <DistanceMeters>NAN</DistanceMeters>
          </Trackpoint>
          <Trackpoint>
            <Time>2022-09-22T12:40:07.000Z</Time>
            <Position>
              <LatitudeDegrees>49.50141384266316890716552734375</LatitudeDegrees>
              <LongitudeDegrees>20.65869745798408985137939453125</LongitudeDegrees>
            </Position>
            <AltitudeMeters>336.399993896484375</AltitudeMeters>
            <DistanceMeters>NAN</DistanceMeters>
          </Trackpoint>
          <Trackpoint>
            <Time>2022-09-22T12:40:15.000Z</Time>
            <Position>
              <LatitudeDegrees>49.5012833364307880401611328125</LatitudeDegrees>
              <LongitudeDegrees>20.6590502522885799407958984375</LongitudeDegrees>
            </Position>
            <AltitudeMeters>336.79998779296875</AltitudeMeters>
            <DistanceMeters>NAN</DistanceMeters>
          </Trackpoint>
          <Trackpoint>
            <Time>2022-09-22T12:40:21.000Z</Time>
            <Position>
              <LatitudeDegrees>49.50120848603546619415283203125</LatitudeDegrees>
              <LongitudeDegrees>20.65928670577704906463623046875</LongitudeDegrees>
            </Position>
            <AltitudeMeters>337</AltitudeMeters>
            <DistanceMeters>NAN</DistanceMeters>
          </Trackpoint>
          <Trackpoint>
            <Time>2022-09-22T12:40:22.000Z</Time>
            <Position>
              <LatitudeDegrees>49.50119574554264545440673828125</LatitudeDegrees>
              <LongitudeDegrees>20.65933045931160449981689453125</LongitudeDegrees>
            </Position>
            <AltitudeMeters>337</AltitudeMeters>
            <DistanceMeters>NAN</DistanceMeters>
          </Trackpoint>
          <Trackpoint>
            <Time>2022-09-22T12:40:32.000Z</Time>
            <Position>
              <LatitudeDegrees>49.50106389820575714111328125</LatitudeDegrees>
              <LongitudeDegrees>20.6596839241683483123779296875</LongitudeDegrees>
            </Position>
            <AltitudeMeters>337.79998779296875</AltitudeMeters>
            <DistanceMeters>NAN</DistanceMeters>
          </Trackpoint>
          <Trackpoint>
            <Time>2022-09-22T12:40:35.000Z</Time>
            <Position>
              <LatitudeDegrees>49.50101402588188648223876953125</LatitudeDegrees>
              <LongitudeDegrees>20.659783668816089630126953125</LongitudeDegrees>
            </Position>
            <AltitudeMeters>338</AltitudeMeters>
            <DistanceMeters>NAN</DistanceMeters>
          </Trackpoint>
          <Trackpoint>
            <Time>2022-09-22T12:40:39.000Z</Time>
            <Position>
              <LatitudeDegrees>49.50097161345183849334716796875</LatitudeDegrees>
              <LongitudeDegrees>20.659885592758655548095703125</LongitudeDegrees>
            </Position>
            <AltitudeMeters>338.20001220703125</AltitudeMeters>
            <DistanceMeters>NAN</DistanceMeters>
          </Trackpoint>
          <Trackpoint>
            <Time>2022-09-22T12:40:46.000Z</Time>
            <Position>
              <LatitudeDegrees>49.500910341739654541015625</LatitudeDegrees>
              <LongitudeDegrees>20.66003118641674518585205078125</LongitudeDegrees>
            </Position>
            <AltitudeMeters>338.399993896484375</AltitudeMeters>
            <DistanceMeters>NAN</DistanceMeters>
          </Trackpoint>
          <Trackpoint>
            <Time>2022-09-22T12:40:47.000Z</Time>
            <Position>
              <LatitudeDegrees>49.500905312597751617431640625</LatitudeDegrees>
              <LongitudeDegrees>20.66004442982375621795654296875</LongitudeDegrees>
            </Position>
            <AltitudeMeters>338.20001220703125</AltitudeMeters>
            <DistanceMeters>NAN</DistanceMeters>
          </Trackpoint>
          <Trackpoint>
            <Time>2022-09-22T12:40:49.000Z</Time>
            <Position>
              <LatitudeDegrees>49.5008950866758823394775390625</LatitudeDegrees>
              <LongitudeDegrees>20.660082399845123291015625</LongitudeDegrees>
            </Position>
            <AltitudeMeters>338.20001220703125</AltitudeMeters>
            <DistanceMeters>NAN</DistanceMeters>
          </Trackpoint>
          <Trackpoint>
            <Time>2022-09-22T12:40:50.000Z</Time>
            <Position>
              <LatitudeDegrees>49.5008880458772182464599609375</LatitudeDegrees>
              <LongitudeDegrees>20.66010293550789356231689453125</LongitudeDegrees>
            </Position>
            <AltitudeMeters>338.20001220703125</AltitudeMeters>
            <DistanceMeters>NAN</DistanceMeters>
          </Trackpoint>
          <Trackpoint>
            <Time>2022-09-22T12:40:58.000Z</Time>
            <Position>
              <LatitudeDegrees>49.500853680074214935302734375</LatitudeDegrees>
              <LongitudeDegrees>20.66020351834595203399658203125</LongitudeDegrees>
            </Position>
            <AltitudeMeters>338</AltitudeMeters>
            <DistanceMeters>NAN</DistanceMeters>
          </Trackpoint>
          <Trackpoint>
            <Time>2022-09-22T12:41:00.000Z</Time>
            <Position>
              <LatitudeDegrees>49.5008561946451663970947265625</LatitudeDegrees>
              <LongitudeDegrees>20.66022522747516632080078125</LongitudeDegrees>
            </Position>
            <AltitudeMeters>338</AltitudeMeters>
            <DistanceMeters>NAN</DistanceMeters>
          </Trackpoint>
          <Trackpoint>
            <Time>2022-09-22T12:41:03.000Z</Time>
            <Position>
              <LatitudeDegrees>49.5008588768541812896728515625</LatitudeDegrees>
              <LongitudeDegrees>20.660229586064815521240234375</LongitudeDegrees>
            </Position>
            <AltitudeMeters>338</AltitudeMeters>
            <DistanceMeters>NAN</DistanceMeters>
          </Trackpoint>
          <Trackpoint>
            <Time>2022-09-22T12:41:10.000Z</Time>
            <Position>
              <LatitudeDegrees>49.5008526742458343505859375</LatitudeDegrees>
              <LongitudeDegrees>20.66023218445479869842529296875</LongitudeDegrees>
            </Position>
            <AltitudeMeters>338</AltitudeMeters>
            <DistanceMeters>NAN</DistanceMeters>
          </Trackpoint>
          <Trackpoint>
            <Time>2022-09-22T12:41:19.000Z</Time>
            <Position>
              <LatitudeDegrees>49.5008525066077709197998046875</LatitudeDegrees>
              <LongitudeDegrees>20.66023386083543300628662109375</LongitudeDegrees>
            </Position>
            <AltitudeMeters>337.79998779296875</AltitudeMeters>
            <DistanceMeters>NAN</DistanceMeters>
          </Trackpoint>
          <Trackpoint>
            <Time>2022-09-22T12:41:23.000Z</Time>
            <Position>
              <LatitudeDegrees>49.5008525066077709197998046875</LatitudeDegrees>
              <LongitudeDegrees>20.66023386083543300628662109375</LongitudeDegrees>
            </Position>
            <AltitudeMeters>338</AltitudeMeters>
            <DistanceMeters>NAN</DistanceMeters>
          </Trackpoint>
          <Trackpoint>
            <Time>2022-09-22T12:41:24.000Z</Time>
            <Position>
              <LatitudeDegrees>49.50085108168423175811767578125</LatitudeDegrees>
              <LongitudeDegrees>20.6602374650537967681884765625</LongitudeDegrees>
            </Position>
            <AltitudeMeters>338</AltitudeMeters>
            <DistanceMeters>NAN</DistanceMeters>
          </Trackpoint>
          <Trackpoint>
            <Time>2022-09-22T12:41:25.000Z</Time>
            <Position>
              <LatitudeDegrees>49.50084395706653594970703125</LatitudeDegrees>
              <LongitudeDegrees>20.66025883890688419342041015625</LongitudeDegrees>
            </Position>
            <AltitudeMeters>338</AltitudeMeters>
            <DistanceMeters>NAN</DistanceMeters>
          </Trackpoint>
          <Trackpoint>
            <Time>2022-09-22T12:41:32.000Z</Time>
            <Position>
              <LatitudeDegrees>49.50080238282680511474609375</LatitudeDegrees>
              <LongitudeDegrees>20.66044726409018039703369140625</LongitudeDegrees>
            </Position>
            <AltitudeMeters>338</AltitudeMeters>
            <DistanceMeters>NAN</DistanceMeters>
          </Trackpoint>
          <Trackpoint>
            <Time>2022-09-22T12:41:34.000Z</Time>
            <Position>
              <LatitudeDegrees>49.50079391710460186004638671875</LatitudeDegrees>
              <LongitudeDegrees>20.66049839369952678680419921875</LongitudeDegrees>
            </Position>
            <AltitudeMeters>338</AltitudeMeters>
            <DistanceMeters>NAN</DistanceMeters>
          </Trackpoint>
          <Trackpoint>
            <Time>2022-09-22T12:41:38.000Z</Time>
            <Position>
              <LatitudeDegrees>49.50075351633131504058837890625</LatitudeDegrees>
              <LongitudeDegrees>20.66057936288416385650634765625</LongitudeDegrees>
            </Position>
            <AltitudeMeters>337.79998779296875</AltitudeMeters>
            <DistanceMeters>NAN</DistanceMeters>
          </Trackpoint>
          <Trackpoint>
            <Time>2022-09-22T12:41:47.000Z</Time>
            <Position>
              <LatitudeDegrees>49.50066600926220417022705078125</LatitudeDegrees>
              <LongitudeDegrees>20.66081271506845951080322265625</LongitudeDegrees>
            </Position>
            <AltitudeMeters>337.600006103515625</AltitudeMeters>
            <DistanceMeters>NAN</DistanceMeters>
          </Trackpoint>
          <Trackpoint>
            <Time>2022-09-22T12:41:53.000Z</Time>
            <Position>
              <LatitudeDegrees>49.50062309391796588897705078125</LatitudeDegrees>
              <LongitudeDegrees>20.66099845804274082183837890625</LongitudeDegrees>
            </Position>
            <AltitudeMeters>337.399993896484375</AltitudeMeters>
            <DistanceMeters>NAN</DistanceMeters>
          </Trackpoint>
          <Trackpoint>
            <Time>2022-09-22T12:41:54.000Z</Time>
            <Position>
              <LatitudeDegrees>49.500618986785411834716796875</LatitudeDegrees>
              <LongitudeDegrees>20.66104439087212085723876953125</LongitudeDegrees>
            </Position>
            <AltitudeMeters>337.20001220703125</AltitudeMeters>
            <DistanceMeters>NAN</DistanceMeters>
          </Trackpoint>
          <Trackpoint>
            <Time>2022-09-22T12:41:55.000Z</Time>
            <Position>
              <LatitudeDegrees>49.50061370618641376495361328125</LatitudeDegrees>
              <LongitudeDegrees>20.66109367646276950836181640625</LongitudeDegrees>
            </Position>
            <AltitudeMeters>337</AltitudeMeters>
            <DistanceMeters>NAN</DistanceMeters>
          </Trackpoint>
          <Trackpoint>
            <Time>2022-09-22T12:42:01.000Z</Time>
            <Position>
              <LatitudeDegrees>49.50056634843349456787109375</LatitudeDegrees>
              <LongitudeDegrees>20.66143565811216831207275390625</LongitudeDegrees>
            </Position>
            <AltitudeMeters>336</AltitudeMeters>
            <DistanceMeters>NAN</DistanceMeters>
          </Trackpoint>
          <Trackpoint>
            <Time>2022-09-22T12:42:02.000Z</Time>
            <Position>
              <LatitudeDegrees>49.50056022964417934417724609375</LatitudeDegrees>
              <LongitudeDegrees>20.66150153987109661102294921875</LongitudeDegrees>
            </Position>
            <AltitudeMeters>335.79998779296875</AltitudeMeters>
            <DistanceMeters>NAN</DistanceMeters>
          </Trackpoint>
          <Trackpoint>
            <Time>2022-09-22T12:42:07.000Z</Time>
            <Position>
              <LatitudeDegrees>49.50051580555737018585205078125</LatitudeDegrees>
              <LongitudeDegrees>20.66185466945171356201171875</LongitudeDegrees>
            </Position>
            <AltitudeMeters>335.20001220703125</AltitudeMeters>
            <DistanceMeters>NAN</DistanceMeters>
          </Trackpoint>
          <Trackpoint>
            <Time>2022-09-22T12:42:08.000Z</Time>
            <Position>
              <LatitudeDegrees>49.500507004559040069580078125</LatitudeDegrees>
              <LongitudeDegrees>20.66192935220897197723388671875</LongitudeDegrees>
            </Position>
            <AltitudeMeters>335.20001220703125</AltitudeMeters>
            <DistanceMeters>NAN</DistanceMeters>
          </Trackpoint>
          <Trackpoint>
            <Time>2022-09-22T12:42:10.000Z</Time>
            <Position>
              <LatitudeDegrees>49.50048579834401607513427734375</LatitudeDegrees>
              <LongitudeDegrees>20.66207326948642730712890625</LongitudeDegrees>
            </Position>
            <AltitudeMeters>334.600006103515625</AltitudeMeters>
            <DistanceMeters>NAN</DistanceMeters>
          </Trackpoint>
          <Trackpoint>
            <Time>2022-09-22T12:42:16.000Z</Time>
            <Position>
              <LatitudeDegrees>49.50043165124952793121337890625</LatitudeDegrees>
              <LongitudeDegrees>20.66249747760593891143798828125</LongitudeDegrees>
            </Position>
            <AltitudeMeters>333.600006103515625</AltitudeMeters>
            <DistanceMeters>NAN</DistanceMeters>
          </Trackpoint>
          <Trackpoint>
            <Time>2022-09-22T12:42:17.000Z</Time>
            <Position>
              <LatitudeDegrees>49.50042494572699069976806640625</LatitudeDegrees>
              <LongitudeDegrees>20.6625674664974212646484375</LongitudeDegrees>
            </Position>
            <AltitudeMeters>333.399993896484375</AltitudeMeters>
            <DistanceMeters>NAN</DistanceMeters>
          </Trackpoint>
          <Trackpoint>
            <Time>2022-09-22T12:42:18.000Z</Time>
            <Position>
              <LatitudeDegrees>49.50041689909994602203369140625</LatitudeDegrees>
              <LongitudeDegrees>20.66263862885534763336181640625</LongitudeDegrees>
            </Position>
            <AltitudeMeters>333.79998779296875</AltitudeMeters>
            <DistanceMeters>NAN</DistanceMeters>
          </Trackpoint>
          <Trackpoint>
            <Time>2022-09-22T12:42:19.000Z</Time>
            <Position>
              <LatitudeDegrees>49.5004101097583770751953125</LatitudeDegrees>
              <LongitudeDegrees>20.6627077795565128326416015625</LongitudeDegrees>
            </Position>
            <AltitudeMeters>333.79998779296875</AltitudeMeters>
            <DistanceMeters>NAN</DistanceMeters>
          </Trackpoint>
          <Trackpoint>
            <Time>2022-09-22T12:42:26.000Z</Time>
            <Position>
              <LatitudeDegrees>49.50036275200545787811279296875</LatitudeDegrees>
              <LongitudeDegrees>20.663161575794219970703125</LongitudeDegrees>
            </Position>
            <AltitudeMeters>334.20001220703125</AltitudeMeters>
            <DistanceMeters>NAN</DistanceMeters>
          </Trackpoint>
          <Trackpoint>
            <Time>2022-09-22T12:42:32.000Z</Time>
            <Position>
              <LatitudeDegrees>49.5003234408795833587646484375</LatitudeDegrees>
              <LongitudeDegrees>20.66350095905363559722900390625</LongitudeDegrees>
            </Position>
            <AltitudeMeters>333.79998779296875</AltitudeMeters>
            <DistanceMeters>NAN</DistanceMeters>
          </Trackpoint>
          <Trackpoint>
            <Time>2022-09-22T12:42:36.000Z</Time>
            <Position>
              <LatitudeDegrees>49.50029142200946807861328125</LatitudeDegrees>
              <LongitudeDegrees>20.6637411005795001983642578125</LongitudeDegrees>
            </Position>
            <AltitudeMeters>333.79998779296875</AltitudeMeters>
            <DistanceMeters>NAN</DistanceMeters>
          </Trackpoint>
          <Trackpoint>
            <Time>2022-09-22T12:42:41.000Z</Time>
            <Position>
              <LatitudeDegrees>49.500254876911640167236328125</LatitudeDegrees>
              <LongitudeDegrees>20.66403136588633060455322265625</LongitudeDegrees>
            </Position>
            <AltitudeMeters>333.79998779296875</AltitudeMeters>
            <DistanceMeters>NAN</DistanceMeters>
          </Trackpoint>
          <Trackpoint>
            <Time>2022-09-22T12:42:43.000Z</Time>
            <Position>
              <LatitudeDegrees>49.50024238787591457366943359375</LatitudeDegrees>
              <LongitudeDegrees>20.66413697786629199981689453125</LongitudeDegrees>
            </Position>
            <AltitudeMeters>333.79998779296875</AltitudeMeters>
            <DistanceMeters>NAN</DistanceMeters>
          </Trackpoint>
          <Trackpoint>
            <Time>2022-09-22T12:42:44.000Z</Time>
            <Position>
              <LatitudeDegrees>49.500236101448535919189453125</LatitudeDegrees>
              <LongitudeDegrees>20.66418341360986232757568359375</LongitudeDegrees>
            </Position>
            <AltitudeMeters>333.79998779296875</AltitudeMeters>
            <DistanceMeters>NAN</DistanceMeters>
          </Trackpoint>
          <Trackpoint>
            <Time>2022-09-22T12:42:46.000Z</Time>
            <Position>
              <LatitudeDegrees>49.50022034347057342529296875</LatitudeDegrees>
              <LongitudeDegrees>20.6642758660018444061279296875</LongitudeDegrees>
            </Position>
            <AltitudeMeters>333.79998779296875</AltitudeMeters>
            <DistanceMeters>NAN</DistanceMeters>
          </Trackpoint>
          <Trackpoint>
            <Time>2022-09-22T12:42:53.000Z</Time>
            <Position>
              <LatitudeDegrees>49.50017868541181087493896484375</LatitudeDegrees>
              <LongitudeDegrees>20.66462379880249500274658203125</LongitudeDegrees>
            </Position>
            <AltitudeMeters>334</AltitudeMeters>
            <DistanceMeters>NAN</DistanceMeters>
          </Trackpoint>
          <Trackpoint>
            <Time>2022-09-22T12:43:01.000Z</Time>
            <Position>
              <LatitudeDegrees>49.500144235789775848388671875</LatitudeDegrees>
              <LongitudeDegrees>20.66505580209195613861083984375</LongitudeDegrees>
            </Position>
            <AltitudeMeters>334</AltitudeMeters>
            <DistanceMeters>NAN</DistanceMeters>
          </Trackpoint>
          <Trackpoint>
            <Time>2022-09-22T12:43:09.000Z</Time>
            <Position>
              <LatitudeDegrees>49.50010140426456928253173828125</LatitudeDegrees>
              <LongitudeDegrees>20.66547255031764507293701171875</LongitudeDegrees>
            </Position>
            <AltitudeMeters>334.399993896484375</AltitudeMeters>
            <DistanceMeters>NAN</DistanceMeters>
          </Trackpoint>
          <Trackpoint>
            <Time>2022-09-22T12:43:19.000Z</Time>
            <Position>
              <LatitudeDegrees>49.500080533325672149658203125</LatitudeDegrees>
              <LongitudeDegrees>20.66598527133464813232421875</LongitudeDegrees>
            </Position>
            <AltitudeMeters>334.600006103515625</AltitudeMeters>
            <DistanceMeters>NAN</DistanceMeters>
          </Trackpoint>
          <Trackpoint>
            <Time>2022-09-22T12:43:25.000Z</Time>
            <Position>
              <LatitudeDegrees>49.50007458217442035675048828125</LatitudeDegrees>
              <LongitudeDegrees>20.66624410450458526611328125</LongitudeDegrees>
            </Position>
            <AltitudeMeters>335.20001220703125</AltitudeMeters>
            <DistanceMeters>NAN</DistanceMeters>
          </Trackpoint>
          <Trackpoint>
            <Time>2022-09-22T12:43:28.000Z</Time>
            <Position>
              <LatitudeDegrees>49.5000595785677433013916015625</LatitudeDegrees>
              <LongitudeDegrees>20.6663770414888858795166015625</LongitudeDegrees>
            </Position>
            <AltitudeMeters>335.399993896484375</AltitudeMeters>
            <DistanceMeters>NAN</DistanceMeters>
          </Trackpoint>
          <Trackpoint>
            <Time>2022-09-22T12:43:37.000Z</Time>
            <Position>
              <LatitudeDegrees>49.50006066821515560150146484375</LatitudeDegrees>
              <LongitudeDegrees>20.6667964719235897064208984375</LongitudeDegrees>
            </Position>
            <AltitudeMeters>335.20001220703125</AltitudeMeters>
            <DistanceMeters>NAN</DistanceMeters>
          </Trackpoint>
          <Trackpoint>
            <Time>2022-09-22T12:43:40.000Z</Time>
            <Position>
              <LatitudeDegrees>49.50006083585321903228759765625</LatitudeDegrees>
              <LongitudeDegrees>20.66692496649920940399169921875</LongitudeDegrees>
            </Position>
            <AltitudeMeters>335.399993896484375</AltitudeMeters>
            <DistanceMeters>NAN</DistanceMeters>
          </Trackpoint>
          <Trackpoint>
            <Time>2022-09-22T12:43:46.000Z</Time>
            <Position>
              <LatitudeDegrees>49.50005077756941318511962890625</LatitudeDegrees>
              <LongitudeDegrees>20.6672078557312488555908203125</LongitudeDegrees>
            </Position>
            <AltitudeMeters>335.399993896484375</AltitudeMeters>
            <DistanceMeters>NAN</DistanceMeters>
          </Trackpoint>
          <Trackpoint>
            <Time>2022-09-22T12:43:49.000Z</Time>
            <Position>
              <LatitudeDegrees>49.50004926882684230804443359375</LatitudeDegrees>
              <LongitudeDegrees>20.66735814325511455535888671875</LongitudeDegrees>
            </Position>
            <AltitudeMeters>335.399993896484375</AltitudeMeters>
            <DistanceMeters>NAN</DistanceMeters>
          </Trackpoint>
          <Trackpoint>
            <Time>2022-09-22T12:43:53.000Z</Time>
            <Position>
              <LatitudeDegrees>49.50004524551331996917724609375</LatitudeDegrees>
              <LongitudeDegrees>20.66752888262271881103515625</LongitudeDegrees>
            </Position>
            <AltitudeMeters>335.399993896484375</AltitudeMeters>
            <DistanceMeters>NAN</DistanceMeters>
          </Trackpoint>
          <Trackpoint>
            <Time>2022-09-22T12:43:54.000Z</Time>
            <Position>
              <LatitudeDegrees>49.50003552250564098358154296875</LatitudeDegrees>
              <LongitudeDegrees>20.66756869666278362274169921875</LongitudeDegrees>
            </Position>
            <AltitudeMeters>335.399993896484375</AltitudeMeters>
            <DistanceMeters>NAN</DistanceMeters>
          </Trackpoint>
          <Trackpoint>
            <Time>2022-09-22T12:44:04.000Z</Time>
            <Position>
              <LatitudeDegrees>49.5000310800969600677490234375</LatitudeDegrees>
              <LongitudeDegrees>20.6680591218173503875732421875</LongitudeDegrees>
            </Position>
            <AltitudeMeters>335.399993896484375</AltitudeMeters>
            <DistanceMeters>NAN</DistanceMeters>
          </Trackpoint>
          <Trackpoint>
            <Time>2022-09-22T12:44:08.000Z</Time>
            <Position>
              <LatitudeDegrees>49.50002831406891345977783203125</LatitudeDegrees>
              <LongitudeDegrees>20.66826825030148029327392578125</LongitudeDegrees>
            </Position>
            <AltitudeMeters>335.600006103515625</AltitudeMeters>
            <DistanceMeters>NAN</DistanceMeters>
          </Trackpoint>
          <Trackpoint>
            <Time>2022-09-22T12:44:13.000Z</Time>
            <Position>
              <LatitudeDegrees>49.5000190101563930511474609375</LatitudeDegrees>
              <LongitudeDegrees>20.6684919632971286773681640625</LongitudeDegrees>
            </Position>
            <AltitudeMeters>335.600006103515625</AltitudeMeters>
            <DistanceMeters>NAN</DistanceMeters>
          </Trackpoint>
          <Trackpoint>
            <Time>2022-09-22T12:44:19.000Z</Time>
            <Position>
              <LatitudeDegrees>49.500008113682270050048828125</LatitudeDegrees>
              <LongitudeDegrees>20.66878817975521087646484375</LongitudeDegrees>
            </Position>
            <AltitudeMeters>335.600006103515625</AltitudeMeters>
            <DistanceMeters>NAN</DistanceMeters>
          </Trackpoint>
          <Trackpoint>
            <Time>2022-09-22T12:44:20.000Z</Time>
            <Position>
              <LatitudeDegrees>49.50000518001616001129150390625</LatitudeDegrees>
              <LongitudeDegrees>20.668840818107128143310546875</LongitudeDegrees>
            </Position>
            <AltitudeMeters>335.600006103515625</AltitudeMeters>
            <DistanceMeters>NAN</DistanceMeters>
          </Trackpoint>
          <Trackpoint>
            <Time>2022-09-22T12:44:26.000Z</Time>
            <Position>
              <LatitudeDegrees>49.49999428354203701019287109375</LatitudeDegrees>
              <LongitudeDegrees>20.66917416639626026153564453125</LongitudeDegrees>
            </Position>
            <AltitudeMeters>335.20001220703125</AltitudeMeters>
            <DistanceMeters>NAN</DistanceMeters>
          </Trackpoint>
          <Trackpoint>
            <Time>2022-09-22T12:44:29.000Z</Time>
            <Position>
              <LatitudeDegrees>49.49998942203819751739501953125</LatitudeDegrees>
              <LongitudeDegrees>20.66933761350810527801513671875</LongitudeDegrees>
            </Position>
            <AltitudeMeters>335.20001220703125</AltitudeMeters>
            <DistanceMeters>NAN</DistanceMeters>
          </Trackpoint>
          <Trackpoint>
            <Time>2022-09-22T12:44:37.000Z</Time>
            <Position>
              <LatitudeDegrees>49.49998321942985057830810546875</LatitudeDegrees>
              <LongitudeDegrees>20.669724605977535247802734375</LongitudeDegrees>
            </Position>
            <AltitudeMeters>335.600006103515625</AltitudeMeters>
            <DistanceMeters>NAN</DistanceMeters>
          </Trackpoint>
          <Trackpoint>
            <Time>2022-09-22T12:44:44.000Z</Time>
            <Position>
              <LatitudeDegrees>49.49998774565756320953369140625</LatitudeDegrees>
              <LongitudeDegrees>20.6700748018920421600341796875</LongitudeDegrees>
            </Position>
            <AltitudeMeters>336.20001220703125</AltitudeMeters>
            <DistanceMeters>NAN</DistanceMeters>
          </Trackpoint>
          <Trackpoint>
            <Time>2022-09-22T12:44:52.000Z</Time>
            <Position>
              <LatitudeDegrees>49.49998623691499233245849609375</LatitudeDegrees>
              <LongitudeDegrees>20.67042089067399501800537109375</LongitudeDegrees>
            </Position>
            <AltitudeMeters>336.20001220703125</AltitudeMeters>
            <DistanceMeters>NAN</DistanceMeters>
          </Trackpoint>
          <Trackpoint>
            <Time>2022-09-22T12:45:02.000Z</Time>
            <Position>
              <LatitudeDegrees>49.49997366406023502349853515625</LatitudeDegrees>
              <LongitudeDegrees>20.67088692449033260345458984375</LongitudeDegrees>
            </Position>
            <AltitudeMeters>335.79998779296875</AltitudeMeters>
            <DistanceMeters>NAN</DistanceMeters>
          </Trackpoint>
          <Trackpoint>
            <Time>2022-09-22T12:45:11.000Z</Time>
            <Position>
              <LatitudeDegrees>49.49996528215706348419189453125</LatitudeDegrees>
              <LongitudeDegrees>20.67136486060917377471923828125</LongitudeDegrees>
            </Position>
            <AltitudeMeters>336</AltitudeMeters>
            <DistanceMeters>NAN</DistanceMeters>
          </Trackpoint>
          <Trackpoint>
            <Time>2022-09-22T12:45:16.000Z</Time>
            <Position>
              <LatitudeDegrees>49.49995120055973529815673828125</LatitudeDegrees>
              <LongitudeDegrees>20.67162604071199893951416015625</LongitudeDegrees>
            </Position>
            <AltitudeMeters>336</AltitudeMeters>
            <DistanceMeters>NAN</DistanceMeters>
          </Trackpoint>
          <Trackpoint>
            <Time>2022-09-22T12:45:20.000Z</Time>
            <Position>
              <LatitudeDegrees>49.49992127716541290283203125</LatitudeDegrees>
              <LongitudeDegrees>20.671854950487613677978515625</LongitudeDegrees>
            </Position>
            <AltitudeMeters>336</AltitudeMeters>
            <DistanceMeters>NAN</DistanceMeters>
          </Trackpoint>
          <Trackpoint>
            <Time>2022-09-22T12:45:28.000Z</Time>
            <Position>
              <LatitudeDegrees>49.49987123720347881317138671875</LatitudeDegrees>
              <LongitudeDegrees>20.67222811281681060791015625</LongitudeDegrees>
            </Position>
            <AltitudeMeters>336</AltitudeMeters>
            <DistanceMeters>NAN</DistanceMeters>
          </Trackpoint>
          <Trackpoint>
            <Time>2022-09-22T12:45:34.000Z</Time>
            <Position>
              <LatitudeDegrees>49.49981532990932464599609375</LatitudeDegrees>
              <LongitudeDegrees>20.672460459172725677490234375</LongitudeDegrees>
            </Position>
            <AltitudeMeters>336</AltitudeMeters>
            <DistanceMeters>NAN</DistanceMeters>
          </Trackpoint>
          <Trackpoint>
            <Time>2022-09-22T12:45:37.000Z</Time>
            <Position>
              <LatitudeDegrees>49.49978171847760677337646484375</LatitudeDegrees>
              <LongitudeDegrees>20.672568418085575103759765625</LongitudeDegrees>
            </Position>
            <AltitudeMeters>336</AltitudeMeters>
            <DistanceMeters>NAN</DistanceMeters>
          </Trackpoint>
          <Trackpoint>
            <Time>2022-09-22T12:45:41.000Z</Time>
            <Position>
              <LatitudeDegrees>49.49972270987927913665771484375</LatitudeDegrees>
              <LongitudeDegrees>20.67271904088556766510009765625</LongitudeDegrees>
            </Position>
            <AltitudeMeters>336.20001220703125</AltitudeMeters>
            <DistanceMeters>NAN</DistanceMeters>
          </Trackpoint>
          <Trackpoint>
            <Time>2022-09-22T12:45:49.000Z</Time>
            <Position>
              <LatitudeDegrees>49.49960066936910152435302734375</LatitudeDegrees>
              <LongitudeDegrees>20.67303679883480072021484375</LongitudeDegrees>
            </Position>
            <AltitudeMeters>336.600006103515625</AltitudeMeters>
            <DistanceMeters>NAN</DistanceMeters>
          </Trackpoint>
          <Trackpoint>
            <Time>2022-09-22T12:45:50.000Z</Time>
            <Position>
              <LatitudeDegrees>49.4995841570198535919189453125</LatitudeDegrees>
              <LongitudeDegrees>20.67307594232261180877685546875</LongitudeDegrees>
            </Position>
            <AltitudeMeters>336.600006103515625</AltitudeMeters>
            <DistanceMeters>NAN</DistanceMeters>
          </Trackpoint>
          <Trackpoint>
            <Time>2022-09-22T12:45:51.000Z</Time>
            <Position>
              <LatitudeDegrees>49.49956663884222507476806640625</LatitudeDegrees>
              <LongitudeDegrees>20.67311483435332775115966796875</LongitudeDegrees>
            </Position>
            <AltitudeMeters>336.600006103515625</AltitudeMeters>
            <DistanceMeters>NAN</DistanceMeters>
          </Trackpoint>
          <Trackpoint>
            <Time>2022-09-22T12:45:56.000Z</Time>
            <Position>
              <LatitudeDegrees>49.4994872622191905975341796875</LatitudeDegrees>
              <LongitudeDegrees>20.67327979020774364471435546875</LongitudeDegrees>
            </Position>
            <AltitudeMeters>336.79998779296875</AltitudeMeters>
            <DistanceMeters>NAN</DistanceMeters>
          </Trackpoint>
          <Trackpoint>
            <Time>2022-09-22T12:46:02.000Z</Time>
            <Position>
              <LatitudeDegrees>49.4993930496275424957275390625</LatitudeDegrees>
              <LongitudeDegrees>20.67344407550990581512451171875</LongitudeDegrees>
            </Position>
            <AltitudeMeters>336.600006103515625</AltitudeMeters>
            <DistanceMeters>NAN</DistanceMeters>
          </Trackpoint>
          <Trackpoint>
            <Time>2022-09-22T12:46:08.000Z</Time>
            <Position>
              <LatitudeDegrees>49.49930763803422451019287109375</LatitudeDegrees>
              <LongitudeDegrees>20.67362210713326930999755859375</LongitudeDegrees>
            </Position>
            <AltitudeMeters>336.79998779296875</AltitudeMeters>
            <DistanceMeters>NAN</DistanceMeters>
          </Trackpoint>
          <Trackpoint>
            <Time>2022-09-22T12:46:16.000Z</Time>
            <Position>
              <LatitudeDegrees>49.49918291531503200531005859375</LatitudeDegrees>
              <LongitudeDegrees>20.67386585287749767303466796875</LongitudeDegrees>
            </Position>
            <AltitudeMeters>336.79998779296875</AltitudeMeters>
            <DistanceMeters>NAN</DistanceMeters>
          </Trackpoint>
          <Trackpoint>
            <Time>2022-09-22T12:46:23.000Z</Time>
            <Position>
              <LatitudeDegrees>49.49909440241754055023193359375</LatitudeDegrees>
              <LongitudeDegrees>20.6741095148026943206787109375</LongitudeDegrees>
            </Position>
            <AltitudeMeters>336.600006103515625</AltitudeMeters>
            <DistanceMeters>NAN</DistanceMeters>
          </Trackpoint>
          <Trackpoint>
            <Time>2022-09-22T12:46:26.000Z</Time>
            <Position>
              <LatitudeDegrees>49.49903992004692554473876953125</LatitudeDegrees>
              <LongitudeDegrees>20.6742164678871631622314453125</LongitudeDegrees>
            </Position>
            <AltitudeMeters>336.600006103515625</AltitudeMeters>
            <DistanceMeters>NAN</DistanceMeters>
          </Trackpoint>
          <Trackpoint>
            <Time>2022-09-22T12:46:27.000Z</Time>
            <Position>
              <LatitudeDegrees>49.49902474880218505859375</LatitudeDegrees>
              <LongitudeDegrees>20.67425183951854705810546875</LongitudeDegrees>
            </Position>
            <AltitudeMeters>336.600006103515625</AltitudeMeters>
            <DistanceMeters>NAN</DistanceMeters>
          </Trackpoint>
          <Trackpoint>
            <Time>2022-09-22T12:46:33.000Z</Time>
            <Position>
              <LatitudeDegrees>49.4989491440355777740478515625</LatitudeDegrees>
              <LongitudeDegrees>20.67445409484207630157470703125</LongitudeDegrees>
            </Position>
            <AltitudeMeters>336.600006103515625</AltitudeMeters>
            <DistanceMeters>NAN</DistanceMeters>
          </Trackpoint>
          <Trackpoint>
            <Time>2022-09-22T12:46:36.000Z</Time>
            <Position>
              <LatitudeDegrees>49.49890740215778350830078125</LatitudeDegrees>
              <LongitudeDegrees>20.67454688251018524169921875</LongitudeDegrees>
            </Position>
            <AltitudeMeters>336.600006103515625</AltitudeMeters>
            <DistanceMeters>NAN</DistanceMeters>
          </Trackpoint>
          <Trackpoint>
            <Time>2022-09-22T12:46:40.000Z</Time>
            <Position>
              <LatitudeDegrees>49.4988723658025264739990234375</LatitudeDegrees>
              <LongitudeDegrees>20.67468727938830852508544921875</LongitudeDegrees>
            </Position>
            <AltitudeMeters>336.79998779296875</AltitudeMeters>
            <DistanceMeters>NAN</DistanceMeters>
          </Trackpoint>
          <Trackpoint>
            <Time>2022-09-22T12:46:47.000Z</Time>
            <Position>
              <LatitudeDegrees>49.4987922348082065582275390625</LatitudeDegrees>
              <LongitudeDegrees>20.6749527342617511749267578125</LongitudeDegrees>
            </Position>
            <AltitudeMeters>336.600006103515625</AltitudeMeters>
            <DistanceMeters>NAN</DistanceMeters>
          </Trackpoint>
          <Trackpoint>
            <Time>2022-09-22T12:46:53.000Z</Time>
            <Position>
              <LatitudeDegrees>49.49867698363959789276123046875</LatitudeDegrees>
              <LongitudeDegrees>20.67518055438995361328125</LongitudeDegrees>
            </Position>
            <AltitudeMeters>336.79998779296875</AltitudeMeters>
            <DistanceMeters>NAN</DistanceMeters>
          </Trackpoint>
          <Trackpoint>
            <Time>2022-09-22T12:46:54.000Z</Time>
            <Position>
              <LatitudeDegrees>49.49866038747131824493408203125</LatitudeDegrees>
              <LongitudeDegrees>20.67522807978093624114990234375</LongitudeDegrees>
            </Position>
            <AltitudeMeters>336.79998779296875</AltitudeMeters>
            <DistanceMeters>NAN</DistanceMeters>
          </Trackpoint>
          <Trackpoint>
            <Time>2022-09-22T12:46:55.000Z</Time>
            <Position>
              <LatitudeDegrees>49.4986430369317531585693359375</LatitudeDegrees>
              <LongitudeDegrees>20.6752799637615680694580078125</LongitudeDegrees>
            </Position>
            <AltitudeMeters>336.79998779296875</AltitudeMeters>
            <DistanceMeters>NAN</DistanceMeters>
          </Trackpoint>
          <Trackpoint>
            <Time>2022-09-22T12:47:01.000Z</Time>
            <Position>
              <LatitudeDegrees>49.49851990677416324615478515625</LatitudeDegrees>
              <LongitudeDegrees>20.67557944916188716888427734375</LongitudeDegrees>
            </Position>
            <AltitudeMeters>337</AltitudeMeters>
            <DistanceMeters>NAN</DistanceMeters>
          </Trackpoint>
          <Trackpoint>
            <Time>2022-09-22T12:47:09.000Z</Time>
            <Position>
              <LatitudeDegrees>49.49838328175246715545654296875</LatitudeDegrees>
              <LongitudeDegrees>20.6759069301187992095947265625</LongitudeDegrees>
            </Position>
            <AltitudeMeters>337</AltitudeMeters>
            <DistanceMeters>NAN</DistanceMeters>
          </Trackpoint>
          <Trackpoint>
            <Time>2022-09-22T12:47:13.000Z</Time>
            <Position>
              <LatitudeDegrees>49.49831387959420680999755859375</LatitudeDegrees>
              <LongitudeDegrees>20.67608378827571868896484375</LongitudeDegrees>
            </Position>
            <AltitudeMeters>337</AltitudeMeters>
            <DistanceMeters>NAN</DistanceMeters>
          </Trackpoint>
          <Trackpoint>
            <Time>2022-09-22T12:47:17.000Z</Time>
            <Position>
              <LatitudeDegrees>49.498228468000888824462890625</LatitudeDegrees>
              <LongitudeDegrees>20.676265172660350799560546875</LongitudeDegrees>
            </Position>
            <AltitudeMeters>337</AltitudeMeters>
            <DistanceMeters>NAN</DistanceMeters>
          </Trackpoint>
          <Trackpoint>
            <Time>2022-09-22T12:47:24.000Z</Time>
            <Position>
              <LatitudeDegrees>49.49809041805565357208251953125</LatitudeDegrees>
              <LongitudeDegrees>20.67657806910574436187744140625</LongitudeDegrees>
            </Position>
            <AltitudeMeters>337.20001220703125</AltitudeMeters>
            <DistanceMeters>NAN</DistanceMeters>
          </Trackpoint>
          <Trackpoint>
            <Time>2022-09-22T12:47:31.000Z</Time>
            <Position>
              <LatitudeDegrees>49.49798614718019962310791015625</LatitudeDegrees>
              <LongitudeDegrees>20.676846206188201904296875</LongitudeDegrees>
            </Position>
            <AltitudeMeters>337.20001220703125</AltitudeMeters>
            <DistanceMeters>NAN</DistanceMeters>
          </Trackpoint>
          <Trackpoint>
            <Time>2022-09-22T12:47:42.000Z</Time>
            <Position>
              <LatitudeDegrees>49.49777609668672084808349609375</LatitudeDegrees>
              <LongitudeDegrees>20.6773301772773265838623046875</LongitudeDegrees>
            </Position>
            <AltitudeMeters>337.399993896484375</AltitudeMeters>
            <DistanceMeters>NAN</DistanceMeters>
          </Trackpoint>
          <Trackpoint>
            <Time>2022-09-22T12:47:52.000Z</Time>
            <Position>
              <LatitudeDegrees>49.49759437702596187591552734375</LatitudeDegrees>
              <LongitudeDegrees>20.67773359827697277069091796875</LongitudeDegrees>
            </Position>
            <AltitudeMeters>337.399993896484375</AltitudeMeters>
            <DistanceMeters>NAN</DistanceMeters>
          </Trackpoint>
          <Trackpoint>
            <Time>2022-09-22T12:47:57.000Z</Time>
            <Position>
              <LatitudeDegrees>49.4975094683468341827392578125</LatitudeDegrees>
              <LongitudeDegrees>20.67790358327329158782958984375</LongitudeDegrees>
            </Position>
            <AltitudeMeters>337.79998779296875</AltitudeMeters>
            <DistanceMeters>NAN</DistanceMeters>
          </Trackpoint>
          <Trackpoint>
            <Time>2022-09-22T12:47:58.000Z</Time>
            <Position>
              <LatitudeDegrees>49.49749496765434741973876953125</LatitudeDegrees>
              <LongitudeDegrees>20.6779330037534236907958984375</LongitudeDegrees>
            </Position>
            <AltitudeMeters>337.79998779296875</AltitudeMeters>
            <DistanceMeters>NAN</DistanceMeters>
          </Trackpoint>
          <Trackpoint>
            <Time>2022-09-22T12:48:01.000Z</Time>
            <Position>
              <LatitudeDegrees>49.49745506979525089263916015625</LatitudeDegrees>
              <LongitudeDegrees>20.67803752608597278594970703125</LongitudeDegrees>
            </Position>
            <AltitudeMeters>338</AltitudeMeters>
            <DistanceMeters>NAN</DistanceMeters>
          </Trackpoint>
          <Trackpoint>
            <Time>2022-09-22T12:48:08.000Z</Time>
            <Position>
              <LatitudeDegrees>49.49733470566570758819580078125</LatitudeDegrees>
              <LongitudeDegrees>20.6783410347998142242431640625</LongitudeDegrees>
            </Position>
            <AltitudeMeters>338</AltitudeMeters>
            <DistanceMeters>NAN</DistanceMeters>
          </Trackpoint>
          <Trackpoint>
            <Time>2022-09-22T12:48:16.000Z</Time>
            <Position>
              <LatitudeDegrees>49.4971825741231441497802734375</LatitudeDegrees>
              <LongitudeDegrees>20.67866885103285312652587890625</LongitudeDegrees>
            </Position>
            <AltitudeMeters>338.399993896484375</AltitudeMeters>
            <DistanceMeters>NAN</DistanceMeters>
          </Trackpoint>
          <Trackpoint>
            <Time>2022-09-22T12:48:18.000Z</Time>
            <Position>
              <LatitudeDegrees>49.49714921414852142333984375</LatitudeDegrees>
              <LongitudeDegrees>20.67873976193368434906005859375</LongitudeDegrees>
            </Position>
            <AltitudeMeters>338.399993896484375</AltitudeMeters>
            <DistanceMeters>NAN</DistanceMeters>
          </Trackpoint>
          <Trackpoint>
            <Time>2022-09-22T12:48:20.000Z</Time>
            <Position>
              <LatitudeDegrees>49.49712499044835567474365234375</LatitudeDegrees>
              <LongitudeDegrees>20.6787986867129802703857421875</LongitudeDegrees>
            </Position>
            <AltitudeMeters>338.399993896484375</AltitudeMeters>
            <DistanceMeters>NAN</DistanceMeters>
          </Trackpoint>
          <Trackpoint>
            <Time>2022-09-22T12:48:22.000Z</Time>
            <Position>
              <LatitudeDegrees>49.49710655026137828826904296875</LatitudeDegrees>
              <LongitudeDegrees>20.67884285934269428253173828125</LongitudeDegrees>
            </Position>
            <AltitudeMeters>338.399993896484375</AltitudeMeters>
            <DistanceMeters>NAN</DistanceMeters>
          </Trackpoint>
          <Trackpoint>
            <Time>2022-09-22T12:48:26.000Z</Time>
            <Position>
              <LatitudeDegrees>49.49705944396555423736572265625</LatitudeDegrees>
              <LongitudeDegrees>20.67894168198108673095703125</LongitudeDegrees>
            </Position>
            <AltitudeMeters>338.600006103515625</AltitudeMeters>
            <DistanceMeters>NAN</DistanceMeters>
          </Trackpoint>
          <Trackpoint>
            <Time>2022-09-22T12:48:31.000Z</Time>
            <Position>
              <LatitudeDegrees>49.49698283337056636810302734375</LatitudeDegrees>
              <LongitudeDegrees>20.67915667779743671417236328125</LongitudeDegrees>
            </Position>
            <AltitudeMeters>338.399993896484375</AltitudeMeters>
            <DistanceMeters>NAN</DistanceMeters>
          </Trackpoint>
          <Trackpoint>
            <Time>2022-09-22T12:48:37.000Z</Time>
            <Position>
              <LatitudeDegrees>49.49688275344669818878173828125</LatitudeDegrees>
              <LongitudeDegrees>20.6794296763837337493896484375</LongitudeDegrees>
            </Position>
            <AltitudeMeters>338.79998779296875</AltitudeMeters>
            <DistanceMeters>NAN</DistanceMeters>
          </Trackpoint>
          <Trackpoint>
            <Time>2022-09-22T12:48:39.000Z</Time>
            <Position>
              <LatitudeDegrees>49.49684654362499713897705078125</LatitudeDegrees>
              <LongitudeDegrees>20.679492540657520294189453125</LongitudeDegrees>
            </Position>
            <AltitudeMeters>338.79998779296875</AltitudeMeters>
            <DistanceMeters>NAN</DistanceMeters>
          </Trackpoint>
          <Trackpoint>
            <Time>2022-09-22T12:48:44.000Z</Time>
            <Position>
              <LatitudeDegrees>49.4967695139348506927490234375</LatitudeDegrees>
              <LongitudeDegrees>20.6796442531049251556396484375</LongitudeDegrees>
            </Position>
            <AltitudeMeters>338.79998779296875</AltitudeMeters>
            <DistanceMeters>NAN</DistanceMeters>
          </Trackpoint>
          <Trackpoint>
            <Time>2022-09-22T12:48:45.000Z</Time>
            <Position>
              <LatitudeDegrees>49.4967470504343509674072265625</LatitudeDegrees>
              <LongitudeDegrees>20.67967250011861324310302734375</LongitudeDegrees>
            </Position>
            <AltitudeMeters>338.79998779296875</AltitudeMeters>
            <DistanceMeters>NAN</DistanceMeters>
          </Trackpoint>
          <Trackpoint>
            <Time>2022-09-22T12:48:55.000Z</Time>
            <Position>
              <LatitudeDegrees>49.496556110680103302001953125</LatitudeDegrees>
              <LongitudeDegrees>20.68000878207385540008544921875</LongitudeDegrees>
            </Position>
            <AltitudeMeters>339</AltitudeMeters>
            <DistanceMeters>NAN</DistanceMeters>
          </Trackpoint>
          <Trackpoint>
            <Time>2022-09-22T12:49:02.000Z</Time>
            <Position>
              <LatitudeDegrees>49.496393166482448577880859375</LatitudeDegrees>
              <LongitudeDegrees>20.68023660220205783843994140625</LongitudeDegrees>
            </Position>
            <AltitudeMeters>338.600006103515625</AltitudeMeters>
            <DistanceMeters>NAN</DistanceMeters>
          </Trackpoint>
          <Trackpoint>
            <Time>2022-09-22T12:49:06.000Z</Time>
            <Position>
              <LatitudeDegrees>49.4963024742901325225830078125</LatitudeDegrees>
              <LongitudeDegrees>20.6803392805159091949462890625</LongitudeDegrees>
            </Position>
            <AltitudeMeters>338.79998779296875</AltitudeMeters>
            <DistanceMeters>NAN</DistanceMeters>
          </Trackpoint>
          <Trackpoint>
            <Time>2022-09-22T12:49:10.000Z</Time>
            <Position>
              <LatitudeDegrees>49.49620348401367664337158203125</LatitudeDegrees>
              <LongitudeDegrees>20.68046241067349910736083984375</LongitudeDegrees>
            </Position>
            <AltitudeMeters>339</AltitudeMeters>
            <DistanceMeters>NAN</DistanceMeters>
          </Trackpoint>
          <Trackpoint>
            <Time>2022-09-22T12:49:12.000Z</Time>
            <Position>
              <LatitudeDegrees>49.4961519353091716766357421875</LatitudeDegrees>
              <LongitudeDegrees>20.68051907233893871307373046875</LongitudeDegrees>
            </Position>
            <AltitudeMeters>339</AltitudeMeters>
            <DistanceMeters>NAN</DistanceMeters>
          </Trackpoint>
          <Trackpoint>
            <Time>2022-09-22T12:49:14.000Z</Time>
            <Position>
              <LatitudeDegrees>49.4960835389792919158935546875</LatitudeDegrees>
              <LongitudeDegrees>20.680586211383342742919921875</LongitudeDegrees>
            </Position>
            <AltitudeMeters>339</AltitudeMeters>
            <DistanceMeters>NAN</DistanceMeters>
          </Trackpoint>
          <Trackpoint>
            <Time>2022-09-22T12:49:16.000Z</Time>
            <Position>
              <LatitudeDegrees>49.49602344073355197906494140625</LatitudeDegrees>
              <LongitudeDegrees>20.6806410290300846099853515625</LongitudeDegrees>
            </Position>
            <AltitudeMeters>339</AltitudeMeters>
            <DistanceMeters>NAN</DistanceMeters>
          </Trackpoint>
          <Trackpoint>
            <Time>2022-09-22T12:49:18.000Z</Time>
            <Position>
              <LatitudeDegrees>49.49595739133656024932861328125</LatitudeDegrees>
              <LongitudeDegrees>20.6807067431509494781494140625</LongitudeDegrees>
            </Position>
            <AltitudeMeters>339</AltitudeMeters>
            <DistanceMeters>NAN</DistanceMeters>
          </Trackpoint>
          <Trackpoint>
            <Time>2022-09-22T12:49:25.000Z</Time>
            <Position>
              <LatitudeDegrees>49.4957314990460872650146484375</LatitudeDegrees>
              <LongitudeDegrees>20.680916793644428253173828125</LongitudeDegrees>
            </Position>
            <AltitudeMeters>339.600006103515625</AltitudeMeters>
            <DistanceMeters>NAN</DistanceMeters>
          </Trackpoint>
          <Trackpoint>
            <Time>2022-09-22T12:49:27.000Z</Time>
            <Position>
              <LatitudeDegrees>49.49565798975527286529541015625</LatitudeDegrees>
              <LongitudeDegrees>20.6809937395155429840087890625</LongitudeDegrees>
            </Position>
            <AltitudeMeters>339.79998779296875</AltitudeMeters>
            <DistanceMeters>NAN</DistanceMeters>
          </Trackpoint>
          <Trackpoint>
            <Time>2022-09-22T12:49:28.000Z</Time>
            <Position>
              <LatitudeDegrees>49.49561775662004947662353515625</LatitudeDegrees>
              <LongitudeDegrees>20.6810317933559417724609375</LongitudeDegrees>
            </Position>
            <AltitudeMeters>339.79998779296875</AltitudeMeters>
            <DistanceMeters>NAN</DistanceMeters>
          </Trackpoint>
          <Trackpoint>
            <Time>2022-09-22T12:49:35.000Z</Time>
            <Position>
              <LatitudeDegrees>49.4954139925539493560791015625</LatitudeDegrees>
              <LongitudeDegrees>20.6812391616404056549072265625</LongitudeDegrees>
            </Position>
            <AltitudeMeters>340</AltitudeMeters>
            <DistanceMeters>NAN</DistanceMeters>
          </Trackpoint>
          <Trackpoint>
            <Time>2022-09-22T12:49:41.000Z</Time>
            <Position>
              <LatitudeDegrees>49.4952624477446079254150390625</LatitudeDegrees>
              <LongitudeDegrees>20.68137042224407196044921875</LongitudeDegrees>
            </Position>
            <AltitudeMeters>339.79998779296875</AltitudeMeters>
            <DistanceMeters>NAN</DistanceMeters>
          </Trackpoint>
          <Trackpoint>
            <Time>2022-09-22T12:49:45.000Z</Time>
            <Position>
              <LatitudeDegrees>49.495202600955963134765625</LatitudeDegrees>
              <LongitudeDegrees>20.68145759403705596923828125</LongitudeDegrees>
            </Position>
            <AltitudeMeters>340</AltitudeMeters>
            <DistanceMeters>NAN</DistanceMeters>
          </Trackpoint>
          <Trackpoint>
            <Time>2022-09-22T12:49:46.000Z</Time>
            <Position>
              <LatitudeDegrees>49.4951769523322582244873046875</LatitudeDegrees>
              <LongitudeDegrees>20.68147058598697185516357421875</LongitudeDegrees>
            </Position>
            <AltitudeMeters>340</AltitudeMeters>
            <DistanceMeters>NAN</DistanceMeters>
          </Trackpoint>
          <Trackpoint>
            <Time>2022-09-22T12:49:52.000Z</Time>
            <Position>
              <LatitudeDegrees>49.4950119964778423309326171875</LatitudeDegrees>
              <LongitudeDegrees>20.68157083354890346527099609375</LongitudeDegrees>
            </Position>
            <AltitudeMeters>340.20001220703125</AltitudeMeters>
            <DistanceMeters>NAN</DistanceMeters>
          </Trackpoint>
          <Trackpoint>
            <Time>2022-09-22T12:49:55.000Z</Time>
            <Position>
              <LatitudeDegrees>49.49492222629487514495849609375</LatitudeDegrees>
              <LongitudeDegrees>20.6816300936043262481689453125</LongitudeDegrees>
            </Position>
            <AltitudeMeters>340.20001220703125</AltitudeMeters>
            <DistanceMeters>NAN</DistanceMeters>
          </Trackpoint>
          <Trackpoint>
            <Time>2022-09-22T12:49:56.000Z</Time>
            <Position>
              <LatitudeDegrees>49.494895823299884796142578125</LatitudeDegrees>
              <LongitudeDegrees>20.681652389466762542724609375</LongitudeDegrees>
            </Position>
            <AltitudeMeters>340.399993896484375</AltitudeMeters>
            <DistanceMeters>NAN</DistanceMeters>
          </Trackpoint>
          <Trackpoint>
            <Time>2022-09-22T12:50:01.000Z</Time>
            <Position>
              <LatitudeDegrees>49.4947471283376216888427734375</LatitudeDegrees>
              <LongitudeDegrees>20.68173293955624103546142578125</LongitudeDegrees>
            </Position>
            <AltitudeMeters>340.399993896484375</AltitudeMeters>
            <DistanceMeters>NAN</DistanceMeters>
          </Trackpoint>
          <Trackpoint>
            <Time>2022-09-22T12:50:07.000Z</Time>
            <Position>
              <LatitudeDegrees>49.4945657439529895782470703125</LatitudeDegrees>
              <LongitudeDegrees>20.68180167116224765777587890625</LongitudeDegrees>
            </Position>
            <AltitudeMeters>340.20001220703125</AltitudeMeters>
            <DistanceMeters>NAN</DistanceMeters>
          </Trackpoint>
          <Trackpoint>
            <Time>2022-09-22T12:50:09.000Z</Time>
            <Position>
              <LatitudeDegrees>49.494513608515262603759765625</LatitudeDegrees>
              <LongitudeDegrees>20.68182145245373249053955078125</LongitudeDegrees>
            </Position>
            <AltitudeMeters>340.20001220703125</AltitudeMeters>
            <DistanceMeters>NAN</DistanceMeters>
          </Trackpoint>
          <Trackpoint>
            <Time>2022-09-22T12:50:13.000Z</Time>
            <Position>
              <LatitudeDegrees>49.494433142244815826416015625</LatitudeDegrees>
              <LongitudeDegrees>20.681860260665416717529296875</LongitudeDegrees>
            </Position>
            <AltitudeMeters>340.20001220703125</AltitudeMeters>
            <DistanceMeters>NAN</DistanceMeters>
          </Trackpoint>
          <Trackpoint>
            <Time>2022-09-22T12:50:14.000Z</Time>
            <Position>
              <LatitudeDegrees>49.49440254829823970794677734375</LatitudeDegrees>
              <LongitudeDegrees>20.68186084739863872528076171875</LongitudeDegrees>
            </Position>
            <AltitudeMeters>340.20001220703125</AltitudeMeters>
            <DistanceMeters>NAN</DistanceMeters>
          </Trackpoint>
          <Trackpoint>
            <Time>2022-09-22T12:50:16.000Z</Time>
            <Position>
              <LatitudeDegrees>49.494343288242816925048828125</LatitudeDegrees>
              <LongitudeDegrees>20.681869983673095703125</LongitudeDegrees>
            </Position>
            <AltitudeMeters>340.399993896484375</AltitudeMeters>
            <DistanceMeters>NAN</DistanceMeters>
          </Trackpoint>
          <Trackpoint>
            <Time>2022-09-22T12:50:18.000Z</Time>
            <Position>
              <LatitudeDegrees>49.49427078478038311004638671875</LatitudeDegrees>
              <LongitudeDegrees>20.6818766891956329345703125</LongitudeDegrees>
            </Position>
            <AltitudeMeters>340.600006103515625</AltitudeMeters>
            <DistanceMeters>NAN</DistanceMeters>
          </Trackpoint>
          <Trackpoint>
            <Time>2022-09-22T12:50:20.000Z</Time>
            <Position>
              <LatitudeDegrees>49.4942006282508373260498046875</LatitudeDegrees>
              <LongitudeDegrees>20.68188498727977275848388671875</LongitudeDegrees>
            </Position>
            <AltitudeMeters>340.600006103515625</AltitudeMeters>
            <DistanceMeters>NAN</DistanceMeters>
          </Trackpoint>
          <Trackpoint>
            <Time>2022-09-22T12:50:29.000Z</Time>
            <Position>
              <LatitudeDegrees>49.493879266083240509033203125</LatitudeDegrees>
              <LongitudeDegrees>20.68189789541065692901611328125</LongitudeDegrees>
            </Position>
            <AltitudeMeters>340.79998779296875</AltitudeMeters>
            <DistanceMeters>NAN</DistanceMeters>
          </Trackpoint>
          <Trackpoint>
            <Time>2022-09-22T12:50:37.000Z</Time>
            <Position>
              <LatitudeDegrees>49.49365370906889438629150390625</LatitudeDegrees>
              <LongitudeDegrees>20.68192589096724987030029296875</LongitudeDegrees>
            </Position>
            <AltitudeMeters>340.79998779296875</AltitudeMeters>
            <DistanceMeters>NAN</DistanceMeters>
          </Trackpoint>
          <Trackpoint>
            <Time>2022-09-22T12:50:42.000Z</Time>
            <Position>
              <LatitudeDegrees>49.49351524002850055694580078125</LatitudeDegrees>
              <LongitudeDegrees>20.68194366060197353363037109375</LongitudeDegrees>
            </Position>
            <AltitudeMeters>340.600006103515625</AltitudeMeters>
            <DistanceMeters>NAN</DistanceMeters>
          </Trackpoint>
          <Trackpoint>
            <Time>2022-09-22T12:50:45.000Z</Time>
            <Position>
              <LatitudeDegrees>49.4934298284351825714111328125</LatitudeDegrees>
              <LongitudeDegrees>20.68193972110748291015625</LongitudeDegrees>
            </Position>
            <AltitudeMeters>340.600006103515625</AltitudeMeters>
            <DistanceMeters>NAN</DistanceMeters>
          </Trackpoint>
          <Trackpoint>
            <Time>2022-09-22T12:50:53.000Z</Time>
            <Position>
              <LatitudeDegrees>49.49320427142083644866943359375</LatitudeDegrees>
              <LongitudeDegrees>20.6819502823054790496826171875</LongitudeDegrees>
            </Position>
            <AltitudeMeters>340.79998779296875</AltitudeMeters>
            <DistanceMeters>NAN</DistanceMeters>
          </Trackpoint>
          <Trackpoint>
            <Time>2022-09-22T12:50:59.000Z</Time>
            <Position>
              <LatitudeDegrees>49.49300662614405155181884765625</LatitudeDegrees>
              <LongitudeDegrees>20.68193494342267513275146484375</LongitudeDegrees>
            </Position>
            <AltitudeMeters>341.20001220703125</AltitudeMeters>
            <DistanceMeters>NAN</DistanceMeters>
          </Trackpoint>
          <Trackpoint>
            <Time>2022-09-22T12:51:07.000Z</Time>
            <Position>
              <LatitudeDegrees>49.49272382073104381561279296875</LatitudeDegrees>
              <LongitudeDegrees>20.68194533698260784149169921875</LongitudeDegrees>
            </Position>
            <AltitudeMeters>341.600006103515625</AltitudeMeters>
            <DistanceMeters>NAN</DistanceMeters>
          </Trackpoint>
          <Trackpoint>
            <Time>2022-09-22T12:51:15.000Z</Time>
            <Position>
              <LatitudeDegrees>49.49252617545425891876220703125</LatitudeDegrees>
              <LongitudeDegrees>20.68195246160030364990234375</LongitudeDegrees>
            </Position>
            <AltitudeMeters>341.79998779296875</AltitudeMeters>
            <DistanceMeters>NAN</DistanceMeters>
          </Trackpoint>
          <Trackpoint>
            <Time>2022-09-22T12:51:18.000Z</Time>
            <Position>
              <LatitudeDegrees>49.49245442636311054229736328125</LatitudeDegrees>
              <LongitudeDegrees>20.68194651044905185699462890625</LongitudeDegrees>
            </Position>
            <AltitudeMeters>341.399993896484375</AltitudeMeters>
            <DistanceMeters>NAN</DistanceMeters>
          </Trackpoint>
          <Trackpoint>
            <Time>2022-09-22T12:51:22.000Z</Time>
            <Position>
              <LatitudeDegrees>49.492336995899677276611328125</LatitudeDegrees>
              <LongitudeDegrees>20.6819382123649120330810546875</LongitudeDegrees>
            </Position>
            <AltitudeMeters>341.600006103515625</AltitudeMeters>
            <DistanceMeters>NAN</DistanceMeters>
          </Trackpoint>
          <Trackpoint>
            <Time>2022-09-22T12:51:25.000Z</Time>
            <Position>
              <LatitudeDegrees>49.49223968200385570526123046875</LatitudeDegrees>
              <LongitudeDegrees>20.68194936029613018035888671875</LongitudeDegrees>
            </Position>
            <AltitudeMeters>341.600006103515625</AltitudeMeters>
            <DistanceMeters>NAN</DistanceMeters>
          </Trackpoint>
          <Trackpoint>
            <Time>2022-09-22T12:51:26.000Z</Time>
            <Position>
              <LatitudeDegrees>49.49220447801053524017333984375</LatitudeDegrees>
              <LongitudeDegrees>20.6819556467235088348388671875</LongitudeDegrees>
            </Position>
            <AltitudeMeters>341.79998779296875</AltitudeMeters>
            <DistanceMeters>NAN</DistanceMeters>
          </Trackpoint>
          <Trackpoint>
            <Time>2022-09-22T12:51:28.000Z</Time>
            <Position>
              <LatitudeDegrees>49.49213356710970401763916015625</LatitudeDegrees>
              <LongitudeDegrees>20.68195204250514507293701171875</LongitudeDegrees>
            </Position>
            <AltitudeMeters>341.79998779296875</AltitudeMeters>
            <DistanceMeters>NAN</DistanceMeters>
          </Trackpoint>
          <Trackpoint>
            <Time>2022-09-22T12:51:29.000Z</Time>
            <Position>
              <LatitudeDegrees>49.49210037477314472198486328125</LatitudeDegrees>
              <LongitudeDegrees>20.68195103667676448822021484375</LongitudeDegrees>
            </Position>
            <AltitudeMeters>341.79998779296875</AltitudeMeters>
            <DistanceMeters>NAN</DistanceMeters>
          </Trackpoint>
          <Trackpoint>
            <Time>2022-09-22T12:51:31.000Z</Time>
            <Position>
              <LatitudeDegrees>49.492030553519725799560546875</LatitudeDegrees>
              <LongitudeDegrees>20.681956149637699127197265625</LongitudeDegrees>
            </Position>
            <AltitudeMeters>341.79998779296875</AltitudeMeters>
            <DistanceMeters>NAN</DistanceMeters>
          </Trackpoint>
          <Trackpoint>
            <Time>2022-09-22T12:51:35.000Z</Time>
            <Position>
              <LatitudeDegrees>49.49189049191772937774658203125</LatitudeDegrees>
              <LongitudeDegrees>20.68195472471415996551513671875</LongitudeDegrees>
            </Position>
            <AltitudeMeters>341.79998779296875</AltitudeMeters>
            <DistanceMeters>NAN</DistanceMeters>
          </Trackpoint>
          <Trackpoint>
            <Time>2022-09-22T12:51:36.000Z</Time>
            <Position>
              <LatitudeDegrees>49.49185411445796489715576171875</LatitudeDegrees>
              <LongitudeDegrees>20.68195246160030364990234375</LongitudeDegrees>
            </Position>
            <AltitudeMeters>342</AltitudeMeters>
            <DistanceMeters>NAN</DistanceMeters>
          </Trackpoint>
          <Trackpoint>
            <Time>2022-09-22T12:51:42.000Z</Time>
            <Position>
              <LatitudeDegrees>49.4916699640452861785888671875</LatitudeDegrees>
              <LongitudeDegrees>20.681963860988616943359375</LongitudeDegrees>
            </Position>
            <AltitudeMeters>342.20001220703125</AltitudeMeters>
            <DistanceMeters>NAN</DistanceMeters>
          </Trackpoint>
          <Trackpoint>
            <Time>2022-09-22T12:51:50.000Z</Time>
            <Position>
              <LatitudeDegrees>49.4914087839424610137939453125</LatitudeDegrees>
              <LongitudeDegrees>20.68195254541933536529541015625</LongitudeDegrees>
            </Position>
            <AltitudeMeters>342.399993896484375</AltitudeMeters>
            <DistanceMeters>NAN</DistanceMeters>
          </Trackpoint>
          <Trackpoint>
            <Time>2022-09-22T12:51:59.000Z</Time>
            <Position>
              <LatitudeDegrees>49.491146765649318695068359375</LatitudeDegrees>
              <LongitudeDegrees>20.68194198422133922576904296875</LongitudeDegrees>
            </Position>
            <AltitudeMeters>342.79998779296875</AltitudeMeters>
            <DistanceMeters>NAN</DistanceMeters>
          </Trackpoint>
          <Trackpoint>
            <Time>2022-09-22T12:52:03.000Z</Time>
            <Position>
              <LatitudeDegrees>49.49102036654949188232421875</LatitudeDegrees>
              <LongitudeDegrees>20.68192438222467899322509765625</LongitudeDegrees>
            </Position>
            <AltitudeMeters>342.79998779296875</AltitudeMeters>
            <DistanceMeters>NAN</DistanceMeters>
          </Trackpoint>
          <Trackpoint>
            <Time>2022-09-22T12:52:05.000Z</Time>
            <Position>
              <LatitudeDegrees>49.49096001684665679931640625</LatitudeDegrees>
              <LongitudeDegrees>20.6819103844463825225830078125</LongitudeDegrees>
            </Position>
            <AltitudeMeters>343</AltitudeMeters>
            <DistanceMeters>NAN</DistanceMeters>
          </Trackpoint>
          <Trackpoint>
            <Time>2022-09-22T12:52:06.000Z</Time>
            <Position>
              <LatitudeDegrees>49.4909326918423175811767578125</LatitudeDegrees>
              <LongitudeDegrees>20.681904852390289306640625</LongitudeDegrees>
            </Position>
            <AltitudeMeters>343</AltitudeMeters>
            <DistanceMeters>NAN</DistanceMeters>
          </Trackpoint>
          <Trackpoint>
            <Time>2022-09-22T12:52:07.000Z</Time>
            <Position>
              <LatitudeDegrees>49.4909041933715343475341796875</LatitudeDegrees>
              <LongitudeDegrees>20.68190091289579868316650390625</LongitudeDegrees>
            </Position>
            <AltitudeMeters>343</AltitudeMeters>
            <DistanceMeters>NAN</DistanceMeters>
          </Trackpoint>
          <Trackpoint>
            <Time>2022-09-22T12:52:15.000Z</Time>
            <Position>
              <LatitudeDegrees>49.49062968604266643524169921875</LatitudeDegrees>
              <LongitudeDegrees>20.68190728314220905303955078125</LongitudeDegrees>
            </Position>
            <AltitudeMeters>343</AltitudeMeters>
            <DistanceMeters>NAN</DistanceMeters>
          </Trackpoint>
          <Trackpoint>
            <Time>2022-09-22T12:52:23.000Z</Time>
            <Position>
              <LatitudeDegrees>49.4904056377708911895751953125</LatitudeDegrees>
              <LongitudeDegrees>20.68191985599696636199951171875</LongitudeDegrees>
            </Position>
            <AltitudeMeters>343.20001220703125</AltitudeMeters>
            <DistanceMeters>NAN</DistanceMeters>
          </Trackpoint>
          <Trackpoint>
            <Time>2022-09-22T12:52:24.000Z</Time>
            <Position>
              <LatitudeDegrees>49.490383677184581756591796875</LatitudeDegrees>
              <LongitudeDegrees>20.68191097117960453033447265625</LongitudeDegrees>
            </Position>
            <AltitudeMeters>343.20001220703125</AltitudeMeters>
            <DistanceMeters>NAN</DistanceMeters>
          </Trackpoint>
          <Trackpoint>
            <Time>2022-09-22T12:52:29.000Z</Time>
            <Position>
              <LatitudeDegrees>49.49025585316121578216552734375</LatitudeDegrees>
              <LongitudeDegrees>20.68188582547008991241455078125</LongitudeDegrees>
            </Position>
            <AltitudeMeters>343.399993896484375</AltitudeMeters>
            <DistanceMeters>NAN</DistanceMeters>
          </Trackpoint>
          <Trackpoint>
            <Time>2022-09-22T12:52:34.000Z</Time>
            <Position>
              <LatitudeDegrees>49.490119479596614837646484375</LatitudeDegrees>
              <LongitudeDegrees>20.68182664923369884490966796875</LongitudeDegrees>
            </Position>
            <AltitudeMeters>343.399993896484375</AltitudeMeters>
            <DistanceMeters>NAN</DistanceMeters>
          </Trackpoint>
          <Trackpoint>
            <Time>2022-09-22T12:52:36.000Z</Time>
            <Position>
              <LatitudeDegrees>49.4900576211512088775634765625</LatitudeDegrees>
              <LongitudeDegrees>20.681817345321178436279296875</LongitudeDegrees>
            </Position>
            <AltitudeMeters>343.399993896484375</AltitudeMeters>
            <DistanceMeters>NAN</DistanceMeters>
          </Trackpoint>
          <Trackpoint>
            <Time>2022-09-22T12:52:42.000Z</Time>
            <Position>
              <LatitudeDegrees>49.4898987002670764923095703125</LatitudeDegrees>
              <LongitudeDegrees>20.68176646716892719268798828125</LongitudeDegrees>
            </Position>
            <AltitudeMeters>343.600006103515625</AltitudeMeters>
            <DistanceMeters>NAN</DistanceMeters>
          </Trackpoint>
          <Trackpoint>
            <Time>2022-09-22T12:52:45.000Z</Time>
            <Position>
              <LatitudeDegrees>49.4898085109889507293701171875</LatitudeDegrees>
              <LongitudeDegrees>20.6817559897899627685546875</LongitudeDegrees>
            </Position>
            <AltitudeMeters>343.600006103515625</AltitudeMeters>
            <DistanceMeters>NAN</DistanceMeters>
          </Trackpoint>
          <Trackpoint>
            <Time>2022-09-22T12:52:48.000Z</Time>
            <Position>
              <LatitudeDegrees>49.48971639387309551239013671875</LatitudeDegrees>
              <LongitudeDegrees>20.681744925677776336669921875</LongitudeDegrees>
            </Position>
            <AltitudeMeters>343.600006103515625</AltitudeMeters>
            <DistanceMeters>NAN</DistanceMeters>
          </Trackpoint>
          <Trackpoint>
            <Time>2022-09-22T12:52:49.000Z</Time>
            <Position>
              <LatitudeDegrees>49.48969627730548381805419921875</LatitudeDegrees>
              <LongitudeDegrees>20.6817372143268585205078125</LongitudeDegrees>
            </Position>
            <AltitudeMeters>343.79998779296875</AltitudeMeters>
            <DistanceMeters>NAN</DistanceMeters>
          </Trackpoint>
          <Trackpoint>
            <Time>2022-09-22T12:52:50.000Z</Time>
            <Position>
              <LatitudeDegrees>49.48967398144304752349853515625</LatitudeDegrees>
              <LongitudeDegrees>20.68173386156558990478515625</LongitudeDegrees>
            </Position>
            <AltitudeMeters>343.79998779296875</AltitudeMeters>
            <DistanceMeters>NAN</DistanceMeters>
          </Trackpoint>
          <Trackpoint>
            <Time>2022-09-22T12:52:53.000Z</Time>
            <Position>
              <LatitudeDegrees>49.48961430229246616363525390625</LatitudeDegrees>
              <LongitudeDegrees>20.6817330233752727508544921875</LongitudeDegrees>
            </Position>
            <AltitudeMeters>343.79998779296875</AltitudeMeters>
            <DistanceMeters>NAN</DistanceMeters>
          </Trackpoint>
          <Trackpoint>
            <Time>2022-09-22T12:52:59.000Z</Time>
            <Position>
              <LatitudeDegrees>49.4895184971392154693603515625</LatitudeDegrees>
              <LongitudeDegrees>20.6817005015909671783447265625</LongitudeDegrees>
            </Position>
            <AltitudeMeters>343.79998779296875</AltitudeMeters>
            <DistanceMeters>NAN</DistanceMeters>
          </Trackpoint>
          <Trackpoint>
            <Time>2022-09-22T12:53:01.000Z</Time>
            <Position>
              <LatitudeDegrees>49.48949553072452545166015625</LatitudeDegrees>
              <LongitudeDegrees>20.68169337697327136993408203125</LongitudeDegrees>
            </Position>
            <AltitudeMeters>344</AltitudeMeters>
            <DistanceMeters>NAN</DistanceMeters>
          </Trackpoint>
          <Trackpoint>
            <Time>2022-09-22T12:53:06.000Z</Time>
            <Position>
              <LatitudeDegrees>49.48945739306509494781494140625</LatitudeDegrees>
              <LongitudeDegrees>20.68168289959430694580078125</LongitudeDegrees>
            </Position>
            <AltitudeMeters>344</AltitudeMeters>
            <DistanceMeters>NAN</DistanceMeters>
          </Trackpoint>
          <Trackpoint>
            <Time>2022-09-22T12:53:10.000Z</Time>
            <Position>
              <LatitudeDegrees>49.48945739306509494781494140625</LatitudeDegrees>
              <LongitudeDegrees>20.68168289959430694580078125</LongitudeDegrees>
            </Position>
            <AltitudeMeters>344</AltitudeMeters>
            <DistanceMeters>NAN</DistanceMeters>
          </Trackpoint>
          <Trackpoint>
            <Time>2022-09-22T12:53:13.000Z</Time>
            <Position>
              <LatitudeDegrees>49.48945739306509494781494140625</LatitudeDegrees>
              <LongitudeDegrees>20.68168289959430694580078125</LongitudeDegrees>
            </Position>
            <AltitudeMeters>344</AltitudeMeters>
            <DistanceMeters>NAN</DistanceMeters>
          </Trackpoint>
          <Trackpoint>
            <Time>2022-09-22T12:53:15.000Z</Time>
            <Position>
              <LatitudeDegrees>49.4894558005034923553466796875</LatitudeDegrees>
              <LongitudeDegrees>20.68168683908879756927490234375</LongitudeDegrees>
            </Position>
            <AltitudeMeters>344</AltitudeMeters>
            <DistanceMeters>NAN</DistanceMeters>
          </Trackpoint>
          <Trackpoint>
            <Time>2022-09-22T12:53:26.000Z</Time>
            <Position>
              <LatitudeDegrees>49.4894558005034923553466796875</LatitudeDegrees>
              <LongitudeDegrees>20.68168683908879756927490234375</LongitudeDegrees>
            </Position>
            <AltitudeMeters>344</AltitudeMeters>
            <DistanceMeters>NAN</DistanceMeters>
          </Trackpoint>
          <Trackpoint>
            <Time>2022-09-22T12:53:32.000Z</Time>
            <Position>
              <LatitudeDegrees>49.4894558005034923553466796875</LatitudeDegrees>
              <LongitudeDegrees>20.68168683908879756927490234375</LongitudeDegrees>
            </Position>
            <AltitudeMeters>344</AltitudeMeters>
            <DistanceMeters>NAN</DistanceMeters>
          </Trackpoint>
          <Trackpoint>
            <Time>2022-09-22T12:53:34.000Z</Time>
            <Position>
              <LatitudeDegrees>49.4894558005034923553466796875</LatitudeDegrees>
              <LongitudeDegrees>20.68168683908879756927490234375</LongitudeDegrees>
            </Position>
            <AltitudeMeters>344</AltitudeMeters>
            <DistanceMeters>NAN</DistanceMeters>
          </Trackpoint>
          <Trackpoint>
            <Time>2022-09-22T12:53:39.000Z</Time>
            <Position>
              <LatitudeDegrees>49.4894558005034923553466796875</LatitudeDegrees>
              <LongitudeDegrees>20.68168683908879756927490234375</LongitudeDegrees>
            </Position>
            <AltitudeMeters>344</AltitudeMeters>
            <DistanceMeters>NAN</DistanceMeters>
          </Trackpoint>
          <Trackpoint>
            <Time>2022-09-22T12:53:54.000Z</Time>
            <Position>
              <LatitudeDegrees>49.4894554652273654937744140625</LatitudeDegrees>
              <LongitudeDegrees>20.68168885074555873870849609375</LongitudeDegrees>
            </Position>
            <AltitudeMeters>343.79998779296875</AltitudeMeters>
            <DistanceMeters>NAN</DistanceMeters>
          </Trackpoint>
          <Trackpoint>
            <Time>2022-09-22T12:53:56.000Z</Time>
            <Position>
              <LatitudeDegrees>49.48945387266576290130615234375</LatitudeDegrees>
              <LongitudeDegrees>20.68172237835824489593505859375</LongitudeDegrees>
            </Position>
            <AltitudeMeters>343.79998779296875</AltitudeMeters>
            <DistanceMeters>NAN</DistanceMeters>
          </Trackpoint>
          <Trackpoint>
            <Time>2022-09-22T12:53:57.000Z</Time>
            <Position>
              <LatitudeDegrees>49.48945051990449428558349609375</LatitudeDegrees>
              <LongitudeDegrees>20.6817353703081607818603515625</LongitudeDegrees>
            </Position>
            <AltitudeMeters>343.79998779296875</AltitudeMeters>
            <DistanceMeters>NAN</DistanceMeters>
          </Trackpoint>
          <Trackpoint>
            <Time>2022-09-22T12:54:00.000Z</Time>
            <Position>
              <LatitudeDegrees>49.48943425901234149932861328125</LatitudeDegrees>
              <LongitudeDegrees>20.68178574554622173309326171875</LongitudeDegrees>
            </Position>
            <AltitudeMeters>343.79998779296875</AltitudeMeters>
            <DistanceMeters>NAN</DistanceMeters>
          </Trackpoint>
          <Trackpoint>
            <Time>2022-09-22T12:54:04.000Z</Time>
            <Position>
              <LatitudeDegrees>49.48943191207945346832275390625</LatitudeDegrees>
              <LongitudeDegrees>20.6818158365786075592041015625</LongitudeDegrees>
            </Position>
            <AltitudeMeters>343.79998779296875</AltitudeMeters>
            <DistanceMeters>NAN</DistanceMeters>
          </Trackpoint>
          <Trackpoint>
            <Time>2022-09-22T12:54:10.000Z</Time>
            <Position>
              <LatitudeDegrees>49.48943191207945346832275390625</LatitudeDegrees>
              <LongitudeDegrees>20.6818158365786075592041015625</LongitudeDegrees>
            </Position>
            <AltitudeMeters>343.79998779296875</AltitudeMeters>
            <DistanceMeters>NAN</DistanceMeters>
          </Trackpoint>
          <Trackpoint>
            <Time>2022-09-22T12:54:14.000Z</Time>
            <Position>
              <LatitudeDegrees>49.48943191207945346832275390625</LatitudeDegrees>
              <LongitudeDegrees>20.6818158365786075592041015625</LongitudeDegrees>
            </Position>
            <AltitudeMeters>343.79998779296875</AltitudeMeters>
            <DistanceMeters>NAN</DistanceMeters>
          </Trackpoint>
          <Trackpoint>
            <Time>2022-09-22T12:54:20.000Z</Time>
            <Position>
              <LatitudeDegrees>49.48943191207945346832275390625</LatitudeDegrees>
              <LongitudeDegrees>20.6818158365786075592041015625</LongitudeDegrees>
            </Position>
            <AltitudeMeters>344</AltitudeMeters>
            <DistanceMeters>NAN</DistanceMeters>
          </Trackpoint>
          <Trackpoint>
            <Time>2022-09-22T12:54:21.000Z</Time>
            <Position>
              <LatitudeDegrees>49.4894319958984851837158203125</LatitudeDegrees>
              <LongitudeDegrees>20.68181793205440044403076171875</LongitudeDegrees>
            </Position>
            <AltitudeMeters>344</AltitudeMeters>
            <DistanceMeters>NAN</DistanceMeters>
          </Trackpoint>
          <Trackpoint>
            <Time>2022-09-22T12:54:26.000Z</Time>
            <Position>
              <LatitudeDegrees>49.4894319958984851837158203125</LatitudeDegrees>
              <LongitudeDegrees>20.68181793205440044403076171875</LongitudeDegrees>
            </Position>
            <AltitudeMeters>344</AltitudeMeters>
            <DistanceMeters>NAN</DistanceMeters>
          </Trackpoint>
          <Trackpoint>
            <Time>2022-09-22T12:54:27.000Z</Time>
            <Position>
              <LatitudeDegrees>49.4894319958984851837158203125</LatitudeDegrees>
              <LongitudeDegrees>20.6818181835114955902099609375</LongitudeDegrees>
            </Position>
            <AltitudeMeters>344</AltitudeMeters>
            <DistanceMeters>NAN</DistanceMeters>
          </Trackpoint>
          <Trackpoint>
            <Time>2022-09-22T12:57:09.000Z</Time>
            <Position>
              <LatitudeDegrees>49.4894103705883026123046875</LatitudeDegrees>
              <LongitudeDegrees>20.68163906224071979522705078125</LongitudeDegrees>
            </Position>
            <AltitudeMeters>343.399993896484375</AltitudeMeters>
            <DistanceMeters>NAN</DistanceMeters>
          </Trackpoint>
          <Trackpoint>
            <Time>2022-09-22T12:57:11.000Z</Time>
            <Position>
              <LatitudeDegrees>49.48927181772887706756591796875</LatitudeDegrees>
              <LongitudeDegrees>20.68139598704874515533447265625</LongitudeDegrees>
            </Position>
            <AltitudeMeters>343.399993896484375</AltitudeMeters>
            <DistanceMeters>NAN</DistanceMeters>
          </Trackpoint>
          <Trackpoint>
            <Time>2022-09-22T12:57:15.000Z</Time>
            <Position>
              <LatitudeDegrees>49.4893853925168514251708984375</LatitudeDegrees>
              <LongitudeDegrees>20.68159832619130611419677734375</LongitudeDegrees>
            </Position>
            <AltitudeMeters>343.399993896484375</AltitudeMeters>
            <DistanceMeters>NAN</DistanceMeters>
          </Trackpoint>
          <Trackpoint>
            <Time>2022-09-22T12:57:20.000Z</Time>
            <Position>
              <LatitudeDegrees>49.4894122146070003509521484375</LatitudeDegrees>
              <LongitudeDegrees>20.6817090511322021484375</LongitudeDegrees>
            </Position>
            <AltitudeMeters>343.399993896484375</AltitudeMeters>
            <DistanceMeters>NAN</DistanceMeters>
          </Trackpoint>
          <Trackpoint>
            <Time>2022-09-22T12:57:26.000Z</Time>
            <Position>
              <LatitudeDegrees>49.48941498063504695892333984375</LatitudeDegrees>
              <LongitudeDegrees>20.68169790320098400115966796875</LongitudeDegrees>
            </Position>
            <AltitudeMeters>343.399993896484375</AltitudeMeters>
            <DistanceMeters>NAN</DistanceMeters>
          </Trackpoint>
          <Trackpoint>
            <Time>2022-09-22T12:57:29.000Z</Time>
            <Position>
              <LatitudeDegrees>49.4893877394497394561767578125</LatitudeDegrees>
              <LongitudeDegrees>20.68168013356626033782958984375</LongitudeDegrees>
            </Position>
            <AltitudeMeters>343.399993896484375</AltitudeMeters>
            <DistanceMeters>NAN</DistanceMeters>
          </Trackpoint>
          <Trackpoint>
            <Time>2022-09-22T12:57:30.000Z</Time>
            <Position>
              <LatitudeDegrees>49.48936720378696918487548828125</LatitudeDegrees>
              <LongitudeDegrees>20.68166152574121952056884765625</LongitudeDegrees>
            </Position>
            <AltitudeMeters>343.399993896484375</AltitudeMeters>
            <DistanceMeters>NAN</DistanceMeters>
          </Trackpoint>
          <Trackpoint>
            <Time>2022-09-22T12:57:33.000Z</Time>
            <Position>
              <LatitudeDegrees>49.4893578998744487762451171875</LatitudeDegrees>
              <LongitudeDegrees>20.681668817996978759765625</LongitudeDegrees>
            </Position>
            <AltitudeMeters>343.399993896484375</AltitudeMeters>
            <DistanceMeters>NAN</DistanceMeters>
          </Trackpoint>
          <Trackpoint>
            <Time>2022-09-22T12:57:40.000Z</Time>
            <Position>
              <LatitudeDegrees>49.48936334811151027679443359375</LatitudeDegrees>
              <LongitudeDegrees>20.6816860847175121307373046875</LongitudeDegrees>
            </Position>
            <AltitudeMeters>343.600006103515625</AltitudeMeters>
            <DistanceMeters>NAN</DistanceMeters>
          </Trackpoint>
          <Trackpoint>
            <Time>2022-09-22T12:57:49.000Z</Time>
            <Position>
              <LatitudeDegrees>49.489365108311176300048828125</LatitudeDegrees>
              <LongitudeDegrees>20.68167845718562602996826171875</LongitudeDegrees>
            </Position>
            <AltitudeMeters>343.399993896484375</AltitudeMeters>
            <DistanceMeters>NAN</DistanceMeters>
          </Trackpoint>
          <Trackpoint>
            <Time>2022-09-22T12:57:53.000Z</Time>
            <Position>
              <LatitudeDegrees>49.489365108311176300048828125</LatitudeDegrees>
              <LongitudeDegrees>20.68167845718562602996826171875</LongitudeDegrees>
            </Position>
            <AltitudeMeters>343.399993896484375</AltitudeMeters>
            <DistanceMeters>NAN</DistanceMeters>
          </Trackpoint>
          <Trackpoint>
            <Time>2022-09-22T12:58:01.000Z</Time>
            <Position>
              <LatitudeDegrees>49.48937927372753620147705078125</LatitudeDegrees>
              <LongitudeDegrees>20.6816961430013179779052734375</LongitudeDegrees>
            </Position>
            <AltitudeMeters>343.399993896484375</AltitudeMeters>
            <DistanceMeters>NAN</DistanceMeters>
          </Trackpoint>
          <Trackpoint>
            <Time>2022-09-22T12:58:03.000Z</Time>
            <Position>
              <LatitudeDegrees>49.48937927372753620147705078125</LatitudeDegrees>
              <LongitudeDegrees>20.6816961430013179779052734375</LongitudeDegrees>
            </Position>
            <AltitudeMeters>343.399993896484375</AltitudeMeters>
            <DistanceMeters>NAN</DistanceMeters>
          </Trackpoint>
          <Trackpoint>
            <Time>2022-09-22T12:58:07.000Z</Time>
            <Position>
              <LatitudeDegrees>49.4894145615398883819580078125</LatitudeDegrees>
              <LongitudeDegrees>20.68172204308211803436279296875</LongitudeDegrees>
            </Position>
            <AltitudeMeters>343.600006103515625</AltitudeMeters>
            <DistanceMeters>NAN</DistanceMeters>
          </Trackpoint>
          <Trackpoint>
            <Time>2022-09-22T12:58:09.000Z</Time>
            <Position>
              <LatitudeDegrees>49.489444233477115631103515625</LatitudeDegrees>
              <LongitudeDegrees>20.681756995618343353271484375</LongitudeDegrees>
            </Position>
            <AltitudeMeters>343.600006103515625</AltitudeMeters>
            <DistanceMeters>NAN</DistanceMeters>
          </Trackpoint>
          <Trackpoint>
            <Time>2022-09-22T12:58:13.000Z</Time>
            <Position>
              <LatitudeDegrees>49.4894715584814548492431640625</LatitudeDegrees>
              <LongitudeDegrees>20.68166219629347324371337890625</LongitudeDegrees>
            </Position>
            <AltitudeMeters>343.600006103515625</AltitudeMeters>
            <DistanceMeters>NAN</DistanceMeters>
          </Trackpoint>
          <Trackpoint>
            <Time>2022-09-22T12:58:17.000Z</Time>
            <Position>
              <LatitudeDegrees>49.48948270641267299652099609375</LatitudeDegrees>
              <LongitudeDegrees>20.6816595979034900665283203125</LongitudeDegrees>
            </Position>
            <AltitudeMeters>343.600006103515625</AltitudeMeters>
            <DistanceMeters>NAN</DistanceMeters>
          </Trackpoint>
          <Trackpoint>
            <Time>2022-09-22T12:58:20.000Z</Time>
            <Position>
              <LatitudeDegrees>49.4895184971392154693603515625</LatitudeDegrees>
              <LongitudeDegrees>20.68177878856658935546875</LongitudeDegrees>
            </Position>
            <AltitudeMeters>343.399993896484375</AltitudeMeters>
            <DistanceMeters>NAN</DistanceMeters>
          </Trackpoint>
          <Trackpoint>
            <Time>2022-09-22T12:58:25.000Z</Time>
            <Position>
              <LatitudeDegrees>49.4894497655332088470458984375</LatitudeDegrees>
              <LongitudeDegrees>20.68160452879965305328369140625</LongitudeDegrees>
            </Position>
            <AltitudeMeters>343.399993896484375</AltitudeMeters>
            <DistanceMeters>NAN</DistanceMeters>
          </Trackpoint>
          <Trackpoint>
            <Time>2022-09-22T12:58:30.000Z</Time>
            <Position>
              <LatitudeDegrees>49.48946258984506130218505859375</LatitudeDegrees>
              <LongitudeDegrees>20.6816790439188480377197265625</LongitudeDegrees>
            </Position>
            <AltitudeMeters>343.399993896484375</AltitudeMeters>
            <DistanceMeters>NAN</DistanceMeters>
          </Trackpoint>
          <Trackpoint>
            <Time>2022-09-22T12:58:34.000Z</Time>
            <Position>
              <LatitudeDegrees>49.48950198478996753692626953125</LatitudeDegrees>
              <LongitudeDegrees>20.681742243468761444091796875</LongitudeDegrees>
            </Position>
            <AltitudeMeters>343.600006103515625</AltitudeMeters>
            <DistanceMeters>NAN</DistanceMeters>
          </Trackpoint>
          <Trackpoint>
            <Time>2022-09-22T12:58:38.000Z</Time>
            <Position>
              <LatitudeDegrees>49.4894829578697681427001953125</LatitudeDegrees>
              <LongitudeDegrees>20.68182832561433315277099609375</LongitudeDegrees>
            </Position>
            <AltitudeMeters>343.600006103515625</AltitudeMeters>
            <DistanceMeters>NAN</DistanceMeters>
          </Trackpoint>
          <Trackpoint>
            <Time>2022-09-22T12:58:45.000Z</Time>
            <Position>
              <LatitudeDegrees>49.48944532312452793121337890625</LatitudeDegrees>
              <LongitudeDegrees>20.6817762739956378936767578125</LongitudeDegrees>
            </Position>
            <AltitudeMeters>343.600006103515625</AltitudeMeters>
            <DistanceMeters>NAN</DistanceMeters>
          </Trackpoint>
          <Trackpoint>
            <Time>2022-09-22T12:58:50.000Z</Time>
            <Position>
              <LatitudeDegrees>49.489434175193309783935546875</LatitudeDegrees>
              <LongitudeDegrees>20.6817479431629180908203125</LongitudeDegrees>
            </Position>
            <AltitudeMeters>343.600006103515625</AltitudeMeters>
            <DistanceMeters>NAN</DistanceMeters>
          </Trackpoint>
          <Trackpoint>
            <Time>2022-09-22T12:58:56.000Z</Time>
            <Position>
              <LatitudeDegrees>49.489436857402324676513671875</LatitudeDegrees>
              <LongitudeDegrees>20.68174182437360286712646484375</LongitudeDegrees>
            </Position>
            <AltitudeMeters>343.79998779296875</AltitudeMeters>
            <DistanceMeters>NAN</DistanceMeters>
          </Trackpoint>
          <Trackpoint>
            <Time>2022-09-22T12:59:00.000Z</Time>
            <Position>
              <LatitudeDegrees>49.48943920433521270751953125</LatitudeDegrees>
              <LongitudeDegrees>20.68175221793353557586669921875</LongitudeDegrees>
            </Position>
            <AltitudeMeters>343.600006103515625</AltitudeMeters>
            <DistanceMeters>NAN</DistanceMeters>
          </Trackpoint>
          <Trackpoint>
            <Time>2022-09-22T12:59:06.000Z</Time>
            <Position>
              <LatitudeDegrees>49.48941363953053951263427734375</LatitudeDegrees>
              <LongitudeDegrees>20.68175825290381908416748046875</LongitudeDegrees>
            </Position>
            <AltitudeMeters>343.600006103515625</AltitudeMeters>
            <DistanceMeters>NAN</DistanceMeters>
          </Trackpoint>
          <Trackpoint>
            <Time>2022-09-22T12:59:10.000Z</Time>
            <Position>
              <LatitudeDegrees>49.4894078560173511505126953125</LatitudeDegrees>
              <LongitudeDegrees>20.68173578940331935882568359375</LongitudeDegrees>
            </Position>
            <AltitudeMeters>343.600006103515625</AltitudeMeters>
            <DistanceMeters>NAN</DistanceMeters>
          </Trackpoint>
          <Trackpoint>
            <Time>2022-09-22T12:59:14.000Z</Time>
            <Position>
              <LatitudeDegrees>49.4893951155245304107666015625</LatitudeDegrees>
              <LongitudeDegrees>20.681696645915508270263671875</LongitudeDegrees>
            </Position>
            <AltitudeMeters>343.79998779296875</AltitudeMeters>
            <DistanceMeters>NAN</DistanceMeters>
          </Trackpoint>
          <Trackpoint>
            <Time>2022-09-22T12:59:18.000Z</Time>
            <Position>
              <LatitudeDegrees>49.48940475471317768096923828125</LatitudeDegrees>
              <LongitudeDegrees>20.6817189417779445648193359375</LongitudeDegrees>
            </Position>
            <AltitudeMeters>343.600006103515625</AltitudeMeters>
            <DistanceMeters>NAN</DistanceMeters>
          </Trackpoint>
          <Trackpoint>
            <Time>2022-09-22T12:59:21.000Z</Time>
            <Position>
              <LatitudeDegrees>49.48942084796726703643798828125</LatitudeDegrees>
              <LongitudeDegrees>20.68173696286976337432861328125</LongitudeDegrees>
            </Position>
            <AltitudeMeters>343.600006103515625</AltitudeMeters>
            <DistanceMeters>NAN</DistanceMeters>
          </Trackpoint>
          <Trackpoint>
            <Time>2022-09-22T12:59:26.000Z</Time>
            <Position>
              <LatitudeDegrees>49.48943526484072208404541015625</LatitudeDegrees>
              <LongitudeDegrees>20.68171399645507335662841796875</LongitudeDegrees>
            </Position>
            <AltitudeMeters>343.600006103515625</AltitudeMeters>
            <DistanceMeters>NAN</DistanceMeters>
          </Trackpoint>
          <Trackpoint>
            <Time>2022-09-22T12:59:31.000Z</Time>
            <Position>
              <LatitudeDegrees>49.48947013355791568756103515625</LatitudeDegrees>
              <LongitudeDegrees>20.68178256042301654815673828125</LongitudeDegrees>
            </Position>
            <AltitudeMeters>343.600006103515625</AltitudeMeters>
            <DistanceMeters>NAN</DistanceMeters>
          </Trackpoint>
          <Trackpoint>
            <Time>2022-09-22T12:59:35.000Z</Time>
            <Position>
              <LatitudeDegrees>49.4895127974450588226318359375</LatitudeDegrees>
              <LongitudeDegrees>20.681944079697132110595703125</LongitudeDegrees>
            </Position>
            <AltitudeMeters>343.600006103515625</AltitudeMeters>
            <DistanceMeters>NAN</DistanceMeters>
          </Trackpoint>
          <Trackpoint>
            <Time>2022-09-22T12:59:40.000Z</Time>
            <Position>
              <LatitudeDegrees>49.48950567282736301422119140625</LatitudeDegrees>
              <LongitudeDegrees>20.68192170001566410064697265625</LongitudeDegrees>
            </Position>
            <AltitudeMeters>343.600006103515625</AltitudeMeters>
            <DistanceMeters>NAN</DistanceMeters>
          </Trackpoint>
          <Trackpoint>
            <Time>2022-09-22T12:59:46.000Z</Time>
            <Position>
              <LatitudeDegrees>49.48950215242803096771240234375</LatitudeDegrees>
              <LongitudeDegrees>20.68193326704204082489013671875</LongitudeDegrees>
            </Position>
            <AltitudeMeters>343.600006103515625</AltitudeMeters>
            <DistanceMeters>NAN</DistanceMeters>
          </Trackpoint>
          <Trackpoint>
            <Time>2022-09-22T12:59:49.000Z</Time>
            <Position>
              <LatitudeDegrees>49.48952361010015010833740234375</LatitudeDegrees>
              <LongitudeDegrees>20.68193963728845119476318359375</LongitudeDegrees>
            </Position>
            <AltitudeMeters>343.600006103515625</AltitudeMeters>
            <DistanceMeters>NAN</DistanceMeters>
          </Trackpoint>
          <Trackpoint>
            <Time>2022-09-22T12:59:50.000Z</Time>
            <Position>
              <LatitudeDegrees>49.48952947743237018585205078125</LatitudeDegrees>
              <LongitudeDegrees>20.68194265477359294891357421875</LongitudeDegrees>
            </Position>
            <AltitudeMeters>343.600006103515625</AltitudeMeters>
            <DistanceMeters>NAN</DistanceMeters>
          </Trackpoint>
          <Trackpoint>
            <Time>2022-09-22T12:59:54.000Z</Time>
            <Position>
              <LatitudeDegrees>49.4895225204527378082275390625</LatitudeDegrees>
              <LongitudeDegrees>20.68196981213986873626708984375</LongitudeDegrees>
            </Position>
            <AltitudeMeters>343.600006103515625</AltitudeMeters>
            <DistanceMeters>NAN</DistanceMeters>
          </Trackpoint>
          <Trackpoint>
            <Time>2022-09-22T12:59:58.000Z</Time>
            <Position>
              <LatitudeDegrees>49.489499889314174652099609375</LatitudeDegrees>
              <LongitudeDegrees>20.68191817961633205413818359375</LongitudeDegrees>
            </Position>
            <AltitudeMeters>343.600006103515625</AltitudeMeters>
            <DistanceMeters>NAN</DistanceMeters>
          </Trackpoint>
          <Trackpoint>
            <Time>2022-09-22T13:00:02.000Z</Time>
            <Position>
              <LatitudeDegrees>49.48950248770415782928466796875</LatitudeDegrees>
              <LongitudeDegrees>20.68193024955689907073974609375</LongitudeDegrees>
            </Position>
            <AltitudeMeters>343.600006103515625</AltitudeMeters>
            <DistanceMeters>NAN</DistanceMeters>
          </Trackpoint>
          <Trackpoint>
            <Time>2022-09-22T13:00:09.000Z</Time>
            <Position>
              <LatitudeDegrees>49.48948555625975131988525390625</LatitudeDegrees>
              <LongitudeDegrees>20.68189881742000579833984375</LongitudeDegrees>
            </Position>
            <AltitudeMeters>343.600006103515625</AltitudeMeters>
            <DistanceMeters>NAN</DistanceMeters>
          </Trackpoint>
          <Trackpoint>
            <Time>2022-09-22T13:00:13.000Z</Time>
            <Position>
              <LatitudeDegrees>49.4894586503505706787109375</LatitudeDegrees>
              <LongitudeDegrees>20.68182162009179592132568359375</LongitudeDegrees>
            </Position>
            <AltitudeMeters>343.600006103515625</AltitudeMeters>
            <DistanceMeters>NAN</DistanceMeters>
          </Trackpoint>
          <Trackpoint>
            <Time>2022-09-22T13:00:14.000Z</Time>
            <Position>
              <LatitudeDegrees>49.48944431729614734649658203125</LatitudeDegrees>
              <LongitudeDegrees>20.68177937529981136322021484375</LongitudeDegrees>
            </Position>
            <AltitudeMeters>343.399993896484375</AltitudeMeters>
            <DistanceMeters>NAN</DistanceMeters>
          </Trackpoint>
          <Trackpoint>
            <Time>2022-09-22T13:00:17.000Z</Time>
            <Position>
              <LatitudeDegrees>49.489414058625698089599609375</LatitudeDegrees>
              <LongitudeDegrees>20.6817085482180118560791015625</LongitudeDegrees>
            </Position>
            <AltitudeMeters>343.399993896484375</AltitudeMeters>
            <DistanceMeters>NAN</DistanceMeters>
          </Trackpoint>
          <Trackpoint>
            <Time>2022-09-22T13:00:18.000Z</Time>
            <Position>
              <LatitudeDegrees>49.48941531591117382049560546875</LatitudeDegrees>
              <LongitudeDegrees>20.68170812912285327911376953125</LongitudeDegrees>
            </Position>
            <AltitudeMeters>343.399993896484375</AltitudeMeters>
            <DistanceMeters>NAN</DistanceMeters>
          </Trackpoint>
          <Trackpoint>
            <Time>2022-09-22T13:00:21.000Z</Time>
            <Position>
              <LatitudeDegrees>49.48942671529948711395263671875</LatitudeDegrees>
              <LongitudeDegrees>20.68172556348145008087158203125</LongitudeDegrees>
            </Position>
            <AltitudeMeters>343.399993896484375</AltitudeMeters>
            <DistanceMeters>NAN</DistanceMeters>
          </Trackpoint>
          <Trackpoint>
            <Time>2022-09-22T13:00:27.000Z</Time>
            <Position>
              <LatitudeDegrees>49.48942688293755054473876953125</LatitudeDegrees>
              <LongitudeDegrees>20.68170511163771152496337890625</LongitudeDegrees>
            </Position>
            <AltitudeMeters>343.399993896484375</AltitudeMeters>
            <DistanceMeters>NAN</DistanceMeters>
          </Trackpoint>
          <Trackpoint>
            <Time>2022-09-22T13:00:29.000Z</Time>
            <Position>
              <LatitudeDegrees>49.48941850103437900543212890625</LatitudeDegrees>
              <LongitudeDegrees>20.6816728413105010986328125</LongitudeDegrees>
            </Position>
            <AltitudeMeters>343.399993896484375</AltitudeMeters>
            <DistanceMeters>NAN</DistanceMeters>
          </Trackpoint>
          <Trackpoint>
            <Time>2022-09-22T13:00:30.000Z</Time>
            <Position>
              <LatitudeDegrees>49.4894216023385524749755859375</LatitudeDegrees>
              <LongitudeDegrees>20.681714750826358795166015625</LongitudeDegrees>
            </Position>
            <AltitudeMeters>343.399993896484375</AltitudeMeters>
            <DistanceMeters>NAN</DistanceMeters>
          </Trackpoint>
          <Trackpoint>
            <Time>2022-09-22T13:00:33.000Z</Time>
            <Position>
              <LatitudeDegrees>49.48946191929280757904052734375</LatitudeDegrees>
              <LongitudeDegrees>20.681803263723850250244140625</LongitudeDegrees>
            </Position>
            <AltitudeMeters>343.399993896484375</AltitudeMeters>
            <DistanceMeters>NAN</DistanceMeters>
          </Trackpoint>
          <Trackpoint>
            <Time>2022-09-22T13:00:34.000Z</Time>
            <Position>
              <LatitudeDegrees>49.48946736752986907958984375</LatitudeDegrees>
              <LongitudeDegrees>20.6817886792123317718505859375</LongitudeDegrees>
            </Position>
            <AltitudeMeters>343.399993896484375</AltitudeMeters>
            <DistanceMeters>NAN</DistanceMeters>
          </Trackpoint>
          <Trackpoint>
            <Time>2022-09-22T13:00:36.000Z</Time>
            <Position>
              <LatitudeDegrees>49.48946041055023670196533203125</LatitudeDegrees>
              <LongitudeDegrees>20.68173645995557308197021484375</LongitudeDegrees>
            </Position>
            <AltitudeMeters>343.399993896484375</AltitudeMeters>
            <DistanceMeters>NAN</DistanceMeters>
          </Trackpoint>
          <Trackpoint>
            <Time>2022-09-22T13:00:40.000Z</Time>
            <Position>
              <LatitudeDegrees>49.48945068754255771636962890625</LatitudeDegrees>
              <LongitudeDegrees>20.68164492957293987274169921875</LongitudeDegrees>
            </Position>
            <AltitudeMeters>343.399993896484375</AltitudeMeters>
            <DistanceMeters>NAN</DistanceMeters>
          </Trackpoint>
          <Trackpoint>
            <Time>2022-09-22T13:00:42.000Z</Time>
            <Position>
              <LatitudeDegrees>49.489452950656414031982421875</LatitudeDegrees>
              <LongitudeDegrees>20.6816808879375457763671875</LongitudeDegrees>
            </Position>
            <AltitudeMeters>343.399993896484375</AltitudeMeters>
            <DistanceMeters>NAN</DistanceMeters>
          </Trackpoint>
          <Trackpoint>
            <Time>2022-09-22T13:00:46.000Z</Time>
            <Position>
              <LatitudeDegrees>49.48947273194789886474609375</LatitudeDegrees>
              <LongitudeDegrees>20.6817447580397129058837890625</LongitudeDegrees>
            </Position>
            <AltitudeMeters>343.399993896484375</AltitudeMeters>
            <DistanceMeters>NAN</DistanceMeters>
          </Trackpoint>
          <Trackpoint>
            <Time>2022-09-22T13:00:49.000Z</Time>
            <Position>
              <LatitudeDegrees>49.48946066200733184814453125</LatitudeDegrees>
              <LongitudeDegrees>20.68172472529113292694091796875</LongitudeDegrees>
            </Position>
            <AltitudeMeters>343.399993896484375</AltitudeMeters>
            <DistanceMeters>NAN</DistanceMeters>
          </Trackpoint>
          <Trackpoint>
            <Time>2022-09-22T13:00:52.000Z</Time>
            <Position>
              <LatitudeDegrees>49.48946602642536163330078125</LatitudeDegrees>
              <LongitudeDegrees>20.68175272084772586822509765625</LongitudeDegrees>
            </Position>
            <AltitudeMeters>343.399993896484375</AltitudeMeters>
            <DistanceMeters>NAN</DistanceMeters>
          </Trackpoint>
          <Trackpoint>
            <Time>2022-09-22T13:00:57.000Z</Time>
            <Position>
              <LatitudeDegrees>49.4894237816333770751953125</LatitudeDegrees>
              <LongitudeDegrees>20.68161274306476116180419921875</LongitudeDegrees>
            </Position>
            <AltitudeMeters>343.399993896484375</AltitudeMeters>
            <DistanceMeters>NAN</DistanceMeters>
          </Trackpoint>
          <Trackpoint>
            <Time>2022-09-22T13:00:59.000Z</Time>
            <Position>
              <LatitudeDegrees>49.48939687572419643402099609375</LatitudeDegrees>
              <LongitudeDegrees>20.68154434673488140106201171875</LongitudeDegrees>
            </Position>
            <AltitudeMeters>343.399993896484375</AltitudeMeters>
            <DistanceMeters>NAN</DistanceMeters>
          </Trackpoint>
          <Trackpoint>
            <Time>2022-09-22T13:01:01.000Z</Time>
            <Position>
              <LatitudeDegrees>49.4894155673682689666748046875</LatitudeDegrees>
              <LongitudeDegrees>20.68160017021000385284423828125</LongitudeDegrees>
            </Position>
            <AltitudeMeters>343.20001220703125</AltitudeMeters>
            <DistanceMeters>NAN</DistanceMeters>
          </Trackpoint>
          <Trackpoint>
            <Time>2022-09-22T13:01:03.000Z</Time>
            <Position>
              <LatitudeDegrees>49.48943761177361011505126953125</LatitudeDegrees>
              <LongitudeDegrees>20.68165297619998455047607421875</LongitudeDegrees>
            </Position>
            <AltitudeMeters>343.20001220703125</AltitudeMeters>
            <DistanceMeters>NAN</DistanceMeters>
          </Trackpoint>
          <Trackpoint>
            <Time>2022-09-22T13:01:04.000Z</Time>
            <Position>
              <LatitudeDegrees>49.48944046162068843841552734375</LatitudeDegrees>
              <LongitudeDegrees>20.681663118302822113037109375</LongitudeDegrees>
            </Position>
            <AltitudeMeters>343.20001220703125</AltitudeMeters>
            <DistanceMeters>NAN</DistanceMeters>
          </Trackpoint>
          <Trackpoint>
            <Time>2022-09-22T13:01:08.000Z</Time>
            <Position>
              <LatitudeDegrees>49.4894135557115077972412109375</LatitudeDegrees>
              <LongitudeDegrees>20.6815472804009914398193359375</LongitudeDegrees>
            </Position>
            <AltitudeMeters>343.399993896484375</AltitudeMeters>
            <DistanceMeters>NAN</DistanceMeters>
          </Trackpoint>
          <Trackpoint>
            <Time>2022-09-22T13:01:10.000Z</Time>
            <Position>
              <LatitudeDegrees>49.4894018210470676422119140625</LatitudeDegrees>
              <LongitudeDegrees>20.68151802755892276763916015625</LongitudeDegrees>
            </Position>
            <AltitudeMeters>343.399993896484375</AltitudeMeters>
            <DistanceMeters>NAN</DistanceMeters>
          </Trackpoint>
          <Trackpoint>
            <Time>2022-09-22T13:01:12.000Z</Time>
            <Position>
              <LatitudeDegrees>49.48940374888479709625244140625</LatitudeDegrees>
              <LongitudeDegrees>20.681536383926868438720703125</LongitudeDegrees>
            </Position>
            <AltitudeMeters>343.399993896484375</AltitudeMeters>
            <DistanceMeters>NAN</DistanceMeters>
          </Trackpoint>
          <Trackpoint>
            <Time>2022-09-22T13:01:14.000Z</Time>
            <Position>
              <LatitudeDegrees>49.4893994741141796112060546875</LatitudeDegrees>
              <LongitudeDegrees>20.68157829344272613525390625</LongitudeDegrees>
            </Position>
            <AltitudeMeters>343.399993896484375</AltitudeMeters>
            <DistanceMeters>NAN</DistanceMeters>
          </Trackpoint>
          <Trackpoint>
            <Time>2022-09-22T13:01:15.000Z</Time>
            <Position>
              <LatitudeDegrees>49.48939536698162555694580078125</LatitudeDegrees>
              <LongitudeDegrees>20.6815777905285358428955078125</LongitudeDegrees>
            </Position>
            <AltitudeMeters>343.20001220703125</AltitudeMeters>
            <DistanceMeters>NAN</DistanceMeters>
          </Trackpoint>
          <Trackpoint>
            <Time>2022-09-22T13:01:20.000Z</Time>
            <Position>
              <LatitudeDegrees>49.4894216023385524749755859375</LatitudeDegrees>
              <LongitudeDegrees>20.68164425902068614959716796875</LongitudeDegrees>
            </Position>
            <AltitudeMeters>343.20001220703125</AltitudeMeters>
            <DistanceMeters>NAN</DistanceMeters>
          </Trackpoint>
          <Trackpoint>
            <Time>2022-09-22T13:01:25.000Z</Time>
            <Position>
              <LatitudeDegrees>49.48941908776760101318359375</LatitudeDegrees>
              <LongitudeDegrees>20.6816240586340427398681640625</LongitudeDegrees>
            </Position>
            <AltitudeMeters>343.20001220703125</AltitudeMeters>
            <DistanceMeters>NAN</DistanceMeters>
          </Trackpoint>
          <Trackpoint>
            <Time>2022-09-22T13:01:28.000Z</Time>
            <Position>
              <LatitudeDegrees>49.48940433561801910400390625</LatitudeDegrees>
              <LongitudeDegrees>20.68157737143337726593017578125</LongitudeDegrees>
            </Position>
            <AltitudeMeters>343.20001220703125</AltitudeMeters>
            <DistanceMeters>NAN</DistanceMeters>
          </Trackpoint>
          <Trackpoint>
            <Time>2022-09-22T13:01:29.000Z</Time>
            <Position>
              <LatitudeDegrees>49.4894018210470676422119140625</LatitudeDegrees>
              <LongitudeDegrees>20.681573264300823211669921875</LongitudeDegrees>
            </Position>
            <AltitudeMeters>343.20001220703125</AltitudeMeters>
            <DistanceMeters>NAN</DistanceMeters>
          </Trackpoint>
          <Trackpoint>
            <Time>2022-09-22T13:01:32.000Z</Time>
            <Position>
              <LatitudeDegrees>49.48939687572419643402099609375</LatitudeDegrees>
              <LongitudeDegrees>20.6815610267221927642822265625</LongitudeDegrees>
            </Position>
            <AltitudeMeters>343.20001220703125</AltitudeMeters>
            <DistanceMeters>NAN</DistanceMeters>
          </Trackpoint>
          <Trackpoint>
            <Time>2022-09-22T13:01:34.000Z</Time>
            <Position>
              <LatitudeDegrees>49.4894004799425601959228515625</LatitudeDegrees>
              <LongitudeDegrees>20.68158357404172420501708984375</LongitudeDegrees>
            </Position>
            <AltitudeMeters>343.20001220703125</AltitudeMeters>
            <DistanceMeters>NAN</DistanceMeters>
          </Trackpoint>
          <Trackpoint>
            <Time>2022-09-22T13:01:38.000Z</Time>
            <Position>
              <LatitudeDegrees>49.48944197036325931549072265625</LatitudeDegrees>
              <LongitudeDegrees>20.68165767006576061248779296875</LongitudeDegrees>
            </Position>
            <AltitudeMeters>343.20001220703125</AltitudeMeters>
            <DistanceMeters>NAN</DistanceMeters>
          </Trackpoint>
          <Trackpoint>
            <Time>2022-09-22T13:01:42.000Z</Time>
            <Position>
              <LatitudeDegrees>49.489435516297817230224609375</LatitudeDegrees>
              <LongitudeDegrees>20.68164291791617870330810546875</LongitudeDegrees>
            </Position>
            <AltitudeMeters>343.20001220703125</AltitudeMeters>
            <DistanceMeters>NAN</DistanceMeters>
          </Trackpoint>
          <Trackpoint>
            <Time>2022-09-22T13:01:45.000Z</Time>
            <Position>
              <LatitudeDegrees>49.48943442665040493011474609375</LatitudeDegrees>
              <LongitudeDegrees>20.68166085518896579742431640625</LongitudeDegrees>
            </Position>
            <AltitudeMeters>343.20001220703125</AltitudeMeters>
            <DistanceMeters>NAN</DistanceMeters>
          </Trackpoint>
          <Trackpoint>
            <Time>2022-09-22T13:01:46.000Z</Time>
            <Position>
              <LatitudeDegrees>49.48943560011684894561767578125</LatitudeDegrees>
              <LongitudeDegrees>20.68165875971317291259765625</LongitudeDegrees>
            </Position>
            <AltitudeMeters>343.20001220703125</AltitudeMeters>
            <DistanceMeters>NAN</DistanceMeters>
          </Trackpoint>
          <Trackpoint>
            <Time>2022-09-22T13:01:49.000Z</Time>
            <Position>
              <LatitudeDegrees>49.48945605196058750152587890625</LatitudeDegrees>
              <LongitudeDegrees>20.68169002421200275421142578125</LongitudeDegrees>
            </Position>
            <AltitudeMeters>343.20001220703125</AltitudeMeters>
            <DistanceMeters>NAN</DistanceMeters>
          </Trackpoint>
          <Trackpoint>
            <Time>2022-09-22T13:01:54.000Z</Time>
            <Position>
              <LatitudeDegrees>49.48947767727077007293701171875</LatitudeDegrees>
              <LongitudeDegrees>20.681805275380611419677734375</LongitudeDegrees>
            </Position>
            <AltitudeMeters>343.399993896484375</AltitudeMeters>
            <DistanceMeters>NAN</DistanceMeters>
          </Trackpoint>
          <Trackpoint>
            <Time>2022-09-22T13:02:00.000Z</Time>
            <Position>
              <LatitudeDegrees>49.4894859753549098968505859375</LatitudeDegrees>
              <LongitudeDegrees>20.68180024623870849609375</LongitudeDegrees>
            </Position>
            <AltitudeMeters>343.20001220703125</AltitudeMeters>
            <DistanceMeters>NAN</DistanceMeters>
          </Trackpoint>
          <Trackpoint>
            <Time>2022-09-22T13:02:02.000Z</Time>
            <Position>
              <LatitudeDegrees>49.48948974721133708953857421875</LatitudeDegrees>
              <LongitudeDegrees>20.68180351518094539642333984375</LongitudeDegrees>
            </Position>
            <AltitudeMeters>343.20001220703125</AltitudeMeters>
            <DistanceMeters>NAN</DistanceMeters>
          </Trackpoint>
          <Trackpoint>
            <Time>2022-09-22T13:02:11.000Z</Time>
            <Position>
              <LatitudeDegrees>49.48948890902101993560791015625</LatitudeDegrees>
              <LongitudeDegrees>20.68179680965840816497802734375</LongitudeDegrees>
            </Position>
            <AltitudeMeters>343.399993896484375</AltitudeMeters>
            <DistanceMeters>NAN</DistanceMeters>
          </Trackpoint>
          <Trackpoint>
            <Time>2022-09-22T13:02:24.000Z</Time>
            <Position>
              <LatitudeDegrees>49.4894863106310367584228515625</LatitudeDegrees>
              <LongitudeDegrees>20.681789182126522064208984375</LongitudeDegrees>
            </Position>
            <AltitudeMeters>343.399993896484375</AltitudeMeters>
            <DistanceMeters>NAN</DistanceMeters>
          </Trackpoint>
          <Trackpoint>
            <Time>2022-09-22T13:02:27.000Z</Time>
            <Position>
              <LatitudeDegrees>49.4894859753549098968505859375</LatitudeDegrees>
              <LongitudeDegrees>20.68176529370248317718505859375</LongitudeDegrees>
            </Position>
            <AltitudeMeters>343.399993896484375</AltitudeMeters>
            <DistanceMeters>NAN</DistanceMeters>
          </Trackpoint>
          <Trackpoint>
            <Time>2022-09-22T13:02:41.000Z</Time>
            <Position>
              <LatitudeDegrees>49.48948480188846588134765625</LatitudeDegrees>
              <LongitudeDegrees>20.68177317269146442413330078125</LongitudeDegrees>
            </Position>
            <AltitudeMeters>343.600006103515625</AltitudeMeters>
            <DistanceMeters>NAN</DistanceMeters>
          </Trackpoint>
          <Trackpoint>
            <Time>2022-09-22T13:02:46.000Z</Time>
            <Position>
              <LatitudeDegrees>49.48946527205407619476318359375</LatitudeDegrees>
              <LongitudeDegrees>20.68176579661667346954345703125</LongitudeDegrees>
            </Position>
            <AltitudeMeters>343.399993896484375</AltitudeMeters>
            <DistanceMeters>NAN</DistanceMeters>
          </Trackpoint>
          <Trackpoint>
            <Time>2022-09-22T13:02:52.000Z</Time>
            <Position>
              <LatitudeDegrees>49.48940567672252655029296875</LatitudeDegrees>
              <LongitudeDegrees>20.68147159181535243988037109375</LongitudeDegrees>
            </Position>
            <AltitudeMeters>343.600006103515625</AltitudeMeters>
            <DistanceMeters>NAN</DistanceMeters>
          </Trackpoint>
          <Trackpoint>
            <Time>2022-09-22T13:03:00.000Z</Time>
            <Position>
              <LatitudeDegrees>49.4894135557115077972412109375</LatitudeDegrees>
              <LongitudeDegrees>20.681427083909511566162109375</LongitudeDegrees>
            </Position>
            <AltitudeMeters>343.600006103515625</AltitudeMeters>
            <DistanceMeters>NAN</DistanceMeters>
          </Trackpoint>
          <Trackpoint>
            <Time>2022-09-22T13:03:04.000Z</Time>
            <Position>
              <LatitudeDegrees>49.489423446357250213623046875</LatitudeDegrees>
              <LongitudeDegrees>20.681423060595989227294921875</LongitudeDegrees>
            </Position>
            <AltitudeMeters>343.600006103515625</AltitudeMeters>
            <DistanceMeters>NAN</DistanceMeters>
          </Trackpoint>
          <Trackpoint>
            <Time>2022-09-22T13:03:09.000Z</Time>
            <Position>
              <LatitudeDegrees>49.4894303195178508758544921875</LatitudeDegrees>
              <LongitudeDegrees>20.68148433230817317962646484375</LongitudeDegrees>
            </Position>
            <AltitudeMeters>343.600006103515625</AltitudeMeters>
            <DistanceMeters>NAN</DistanceMeters>
          </Trackpoint>
          <Trackpoint>
            <Time>2022-09-22T13:03:25.000Z</Time>
            <Position>
              <LatitudeDegrees>49.489434845745563507080078125</LatitudeDegrees>
              <LongitudeDegrees>20.68152892403304576873779296875</LongitudeDegrees>
            </Position>
            <AltitudeMeters>343.600006103515625</AltitudeMeters>
            <DistanceMeters>NAN</DistanceMeters>
          </Trackpoint>
          <Trackpoint>
            <Time>2022-09-22T13:03:29.000Z</Time>
            <Position>
              <LatitudeDegrees>49.48945420794188976287841796875</LatitudeDegrees>
              <LongitudeDegrees>20.68161894567310810089111328125</LongitudeDegrees>
            </Position>
            <AltitudeMeters>343.600006103515625</AltitudeMeters>
            <DistanceMeters>NAN</DistanceMeters>
          </Trackpoint>
          <Trackpoint>
            <Time>2022-09-22T13:03:33.000Z</Time>
            <Position>
              <LatitudeDegrees>49.48947298340499401092529296875</LatitudeDegrees>
              <LongitudeDegrees>20.68167912773787975311279296875</LongitudeDegrees>
            </Position>
            <AltitudeMeters>343.600006103515625</AltitudeMeters>
            <DistanceMeters>NAN</DistanceMeters>
          </Trackpoint>
          <Trackpoint>
            <Time>2022-09-22T13:03:35.000Z</Time>
            <Position>
              <LatitudeDegrees>49.48947298340499401092529296875</LatitudeDegrees>
              <LongitudeDegrees>20.68167912773787975311279296875</LongitudeDegrees>
            </Position>
            <AltitudeMeters>343.600006103515625</AltitudeMeters>
            <DistanceMeters>NAN</DistanceMeters>
          </Trackpoint>
          <Trackpoint>
            <Time>2022-09-22T13:03:40.000Z</Time>
            <Position>
              <LatitudeDegrees>49.48947298340499401092529296875</LatitudeDegrees>
              <LongitudeDegrees>20.681677870452404022216796875</LongitudeDegrees>
            </Position>
            <AltitudeMeters>343.600006103515625</AltitudeMeters>
            <DistanceMeters>NAN</DistanceMeters>
          </Trackpoint>
          <Trackpoint>
            <Time>2022-09-22T13:03:44.000Z</Time>
            <Position>
              <LatitudeDegrees>49.4894749112427234649658203125</LatitudeDegrees>
              <LongitudeDegrees>20.68167124874889850616455078125</LongitudeDegrees>
            </Position>
            <AltitudeMeters>343.600006103515625</AltitudeMeters>
            <DistanceMeters>NAN</DistanceMeters>
          </Trackpoint>
          <Trackpoint>
            <Time>2022-09-22T13:03:45.000Z</Time>
            <Position>
              <LatitudeDegrees>49.4894765876233577728271484375</LatitudeDegrees>
              <LongitudeDegrees>20.6816740147769451141357421875</LongitudeDegrees>
            </Position>
            <AltitudeMeters>343.600006103515625</AltitudeMeters>
            <DistanceMeters>NAN</DistanceMeters>
          </Trackpoint>
          <Trackpoint>
            <Time>2022-09-22T13:03:47.000Z</Time>
            <Position>
              <LatitudeDegrees>49.48947549797594547271728515625</LatitudeDegrees>
              <LongitudeDegrees>20.68166839890182018280029296875</LongitudeDegrees>
            </Position>
            <AltitudeMeters>343.600006103515625</AltitudeMeters>
            <DistanceMeters>NAN</DistanceMeters>
          </Trackpoint>
          <Trackpoint>
            <Time>2022-09-22T13:03:51.000Z</Time>
            <Position>
              <LatitudeDegrees>49.489484466612339019775390625</LatitudeDegrees>
              <LongitudeDegrees>20.68173578940331935882568359375</LongitudeDegrees>
            </Position>
            <AltitudeMeters>343.600006103515625</AltitudeMeters>
            <DistanceMeters>NAN</DistanceMeters>
          </Trackpoint>
          <Trackpoint>
            <Time>2022-09-22T13:03:52.000Z</Time>
            <Position>
              <LatitudeDegrees>49.4894856400787830352783203125</LatitudeDegrees>
              <LongitudeDegrees>20.6817444227635860443115234375</LongitudeDegrees>
            </Position>
            <AltitudeMeters>343.600006103515625</AltitudeMeters>
            <DistanceMeters>NAN</DistanceMeters>
          </Trackpoint>
          <Trackpoint>
            <Time>2022-09-22T13:03:54.000Z</Time>
            <Position>
              <LatitudeDegrees>49.48947943747043609619140625</LatitudeDegrees>
              <LongitudeDegrees>20.68173713050782680511474609375</LongitudeDegrees>
            </Position>
            <AltitudeMeters>343.600006103515625</AltitudeMeters>
            <DistanceMeters>NAN</DistanceMeters>
          </Trackpoint>
          <Trackpoint>
            <Time>2022-09-22T13:04:00.000Z</Time>
            <Position>
              <LatitudeDegrees>49.4894695468246936798095703125</LatitudeDegrees>
              <LongitudeDegrees>20.6817581690847873687744140625</LongitudeDegrees>
            </Position>
            <AltitudeMeters>343.600006103515625</AltitudeMeters>
            <DistanceMeters>NAN</DistanceMeters>
          </Trackpoint>
          <Trackpoint>
            <Time>2022-09-22T13:04:06.000Z</Time>
            <Position>
              <LatitudeDegrees>49.48945923708379268646240234375</LatitudeDegrees>
              <LongitudeDegrees>20.68174618296325206756591796875</LongitudeDegrees>
            </Position>
            <AltitudeMeters>343.600006103515625</AltitudeMeters>
            <DistanceMeters>NAN</DistanceMeters>
          </Trackpoint>
          <Trackpoint>
            <Time>2022-09-22T13:04:27.000Z</Time>
            <Position>
              <LatitudeDegrees>49.48945923708379268646240234375</LatitudeDegrees>
              <LongitudeDegrees>20.68174819462001323699951171875</LongitudeDegrees>
            </Position>
            <AltitudeMeters>343.600006103515625</AltitudeMeters>
            <DistanceMeters>NAN</DistanceMeters>
          </Trackpoint>
          <Trackpoint>
            <Time>2022-09-22T13:04:29.000Z</Time>
            <Position>
              <LatitudeDegrees>49.48945906944572925567626953125</LatitudeDegrees>
              <LongitudeDegrees>20.68174785934388637542724609375</LongitudeDegrees>
            </Position>
            <AltitudeMeters>343.600006103515625</AltitudeMeters>
            <DistanceMeters>NAN</DistanceMeters>
          </Trackpoint>
          <Trackpoint>
            <Time>2022-09-22T13:04:42.000Z</Time>
            <Position>
              <LatitudeDegrees>49.48945487849414348602294921875</LatitudeDegrees>
              <LongitudeDegrees>20.68172288127243518829345703125</LongitudeDegrees>
            </Position>
            <AltitudeMeters>343.600006103515625</AltitudeMeters>
            <DistanceMeters>NAN</DistanceMeters>
          </Trackpoint>
          <Trackpoint>
            <Time>2022-09-22T13:04:44.000Z</Time>
            <Position>
              <LatitudeDegrees>49.48945538140833377838134765625</LatitudeDegrees>
              <LongitudeDegrees>20.68173252046108245849609375</LongitudeDegrees>
            </Position>
            <AltitudeMeters>343.600006103515625</AltitudeMeters>
            <DistanceMeters>NAN</DistanceMeters>
          </Trackpoint>
          <Trackpoint>
            <Time>2022-09-22T13:04:45.000Z</Time>
            <Position>
              <LatitudeDegrees>49.48945454321801662445068359375</LatitudeDegrees>
              <LongitudeDegrees>20.68173394538462162017822265625</LongitudeDegrees>
            </Position>
            <AltitudeMeters>343.600006103515625</AltitudeMeters>
            <DistanceMeters>NAN</DistanceMeters>
          </Trackpoint>
          <Trackpoint>
            <Time>2022-09-22T13:05:01.000Z</Time>
            <Position>
              <LatitudeDegrees>49.4894460774958133697509765625</LatitudeDegrees>
              <LongitudeDegrees>20.68168985657393932342529296875</LongitudeDegrees>
            </Position>
            <AltitudeMeters>343.600006103515625</AltitudeMeters>
            <DistanceMeters>NAN</DistanceMeters>
          </Trackpoint>
          <Trackpoint>
            <Time>2022-09-22T13:05:03.000Z</Time>
            <Position>
              <LatitudeDegrees>49.4894460774958133697509765625</LatitudeDegrees>
              <LongitudeDegrees>20.68168985657393932342529296875</LongitudeDegrees>
            </Position>
            <AltitudeMeters>343.600006103515625</AltitudeMeters>
            <DistanceMeters>NAN</DistanceMeters>
          </Trackpoint>
          <Trackpoint>
            <Time>2022-09-22T13:05:04.000Z</Time>
            <Position>
              <LatitudeDegrees>49.4894450716674327850341796875</LatitudeDegrees>
              <LongitudeDegrees>20.681684911251068115234375</LongitudeDegrees>
            </Position>
            <AltitudeMeters>343.600006103515625</AltitudeMeters>
            <DistanceMeters>NAN</DistanceMeters>
          </Trackpoint>
          <Trackpoint>
            <Time>2022-09-22T13:05:07.000Z</Time>
            <Position>
              <LatitudeDegrees>49.489440880715847015380859375</LatitudeDegrees>
              <LongitudeDegrees>20.68164459429681301116943359375</LongitudeDegrees>
            </Position>
            <AltitudeMeters>343.600006103515625</AltitudeMeters>
            <DistanceMeters>NAN</DistanceMeters>
          </Trackpoint>
          <Trackpoint>
            <Time>2022-09-22T13:05:08.000Z</Time>
            <Position>
              <LatitudeDegrees>49.489442892372608184814453125</LatitudeDegrees>
              <LongitudeDegrees>20.68165180273354053497314453125</LongitudeDegrees>
            </Position>
            <AltitudeMeters>343.600006103515625</AltitudeMeters>
            <DistanceMeters>NAN</DistanceMeters>
          </Trackpoint>
          <Trackpoint>
            <Time>2022-09-22T13:05:09.000Z</Time>
            <Position>
              <LatitudeDegrees>49.48944448493421077728271484375</LatitudeDegrees>
              <LongitudeDegrees>20.68167217075824737548828125</LongitudeDegrees>
            </Position>
            <AltitudeMeters>343.600006103515625</AltitudeMeters>
            <DistanceMeters>NAN</DistanceMeters>
          </Trackpoint>
          <Trackpoint>
            <Time>2022-09-22T13:05:11.000Z</Time>
            <Position>
              <LatitudeDegrees>49.48943962343037128448486328125</LatitudeDegrees>
              <LongitudeDegrees>20.6816984899342060089111328125</LongitudeDegrees>
            </Position>
            <AltitudeMeters>343.600006103515625</AltitudeMeters>
            <DistanceMeters>NAN</DistanceMeters>
          </Trackpoint>
          <Trackpoint>
            <Time>2022-09-22T13:05:12.000Z</Time>
            <Position>
              <LatitudeDegrees>49.4894366897642612457275390625</LatitudeDegrees>
              <LongitudeDegrees>20.68169974721968173980712890625</LongitudeDegrees>
            </Position>
            <AltitudeMeters>343.600006103515625</AltitudeMeters>
            <DistanceMeters>NAN</DistanceMeters>
          </Trackpoint>
          <Trackpoint>
            <Time>2022-09-22T13:05:13.000Z</Time>
            <Position>
              <LatitudeDegrees>49.4894346781075000762939453125</LatitudeDegrees>
              <LongitudeDegrees>20.68168533034622669219970703125</LongitudeDegrees>
            </Position>
            <AltitudeMeters>343.600006103515625</AltitudeMeters>
            <DistanceMeters>NAN</DistanceMeters>
          </Trackpoint>
          <Trackpoint>
            <Time>2022-09-22T13:05:15.000Z</Time>
            <Position>
              <LatitudeDegrees>49.4894371926784515380859375</LatitudeDegrees>
              <LongitudeDegrees>20.68173193372786045074462890625</LongitudeDegrees>
            </Position>
            <AltitudeMeters>343.600006103515625</AltitudeMeters>
            <DistanceMeters>NAN</DistanceMeters>
          </Trackpoint>
          <Trackpoint>
            <Time>2022-09-22T13:05:16.000Z</Time>
            <Position>
              <LatitudeDegrees>49.48944649659097194671630859375</LatitudeDegrees>
              <LongitudeDegrees>20.68179664202034473419189453125</LongitudeDegrees>
            </Position>
            <AltitudeMeters>343.600006103515625</AltitudeMeters>
            <DistanceMeters>NAN</DistanceMeters>
          </Trackpoint>
          <Trackpoint>
            <Time>2022-09-22T13:05:19.000Z</Time>
            <Position>
              <LatitudeDegrees>49.48945789597928524017333984375</LatitudeDegrees>
              <LongitudeDegrees>20.681837461888790130615234375</LongitudeDegrees>
            </Position>
            <AltitudeMeters>343.600006103515625</AltitudeMeters>
            <DistanceMeters>NAN</DistanceMeters>
          </Trackpoint>
          <Trackpoint>
            <Time>2022-09-22T13:05:23.000Z</Time>
            <Position>
              <LatitudeDegrees>49.48947683908045291900634765625</LatitudeDegrees>
              <LongitudeDegrees>20.6817953847348690032958984375</LongitudeDegrees>
            </Position>
            <AltitudeMeters>343.600006103515625</AltitudeMeters>
            <DistanceMeters>NAN</DistanceMeters>
          </Trackpoint>
          <Trackpoint>
            <Time>2022-09-22T13:05:28.000Z</Time>
            <Position>
              <LatitudeDegrees>49.4894802756607532501220703125</LatitudeDegrees>
              <LongitudeDegrees>20.6817340292036533355712890625</LongitudeDegrees>
            </Position>
            <AltitudeMeters>343.79998779296875</AltitudeMeters>
            <DistanceMeters>NAN</DistanceMeters>
          </Trackpoint>
          <Trackpoint>
            <Time>2022-09-22T13:05:32.000Z</Time>
            <Position>
              <LatitudeDegrees>49.4894400425255298614501953125</LatitudeDegrees>
              <LongitudeDegrees>20.68157552741467952728271484375</LongitudeDegrees>
            </Position>
            <AltitudeMeters>343.79998779296875</AltitudeMeters>
            <DistanceMeters>NAN</DistanceMeters>
          </Trackpoint>
          <Trackpoint>
            <Time>2022-09-22T13:05:34.000Z</Time>
            <Position>
              <LatitudeDegrees>49.48942202143371105194091796875</LatitudeDegrees>
              <LongitudeDegrees>20.68153495900332927703857421875</LongitudeDegrees>
            </Position>
            <AltitudeMeters>343.600006103515625</AltitudeMeters>
            <DistanceMeters>NAN</DistanceMeters>
          </Trackpoint>
          <Trackpoint>
            <Time>2022-09-22T13:05:36.000Z</Time>
            <Position>
              <LatitudeDegrees>49.48943241499364376068115234375</LatitudeDegrees>
              <LongitudeDegrees>20.68159933201968669891357421875</LongitudeDegrees>
            </Position>
            <AltitudeMeters>343.600006103515625</AltitudeMeters>
            <DistanceMeters>NAN</DistanceMeters>
          </Trackpoint>
          <Trackpoint>
            <Time>2022-09-22T13:05:39.000Z</Time>
            <Position>
              <LatitudeDegrees>49.489443562924861907958984375</LatitudeDegrees>
              <LongitudeDegrees>20.68173252046108245849609375</LongitudeDegrees>
            </Position>
            <AltitudeMeters>343.79998779296875</AltitudeMeters>
            <DistanceMeters>NAN</DistanceMeters>
          </Trackpoint>
          <Trackpoint>
            <Time>2022-09-22T13:05:47.000Z</Time>
            <Position>
              <LatitudeDegrees>49.48943794704973697662353515625</LatitudeDegrees>
              <LongitudeDegrees>20.6817769445478916168212890625</LongitudeDegrees>
            </Position>
            <AltitudeMeters>343.600006103515625</AltitudeMeters>
            <DistanceMeters>NAN</DistanceMeters>
          </Trackpoint>
          <Trackpoint>
            <Time>2022-09-22T13:05:54.000Z</Time>
            <Position>
              <LatitudeDegrees>49.4894179143011569976806640625</LatitudeDegrees>
              <LongitudeDegrees>20.68175397813320159912109375</LongitudeDegrees>
            </Position>
            <AltitudeMeters>344</AltitudeMeters>
            <DistanceMeters>NAN</DistanceMeters>
          </Trackpoint>
          <Trackpoint>
            <Time>2022-09-22T13:05:59.000Z</Time>
            <Position>
              <LatitudeDegrees>49.489377848803997039794921875</LatitudeDegrees>
              <LongitudeDegrees>20.6817088834941387176513671875</LongitudeDegrees>
            </Position>
            <AltitudeMeters>343.79998779296875</AltitudeMeters>
            <DistanceMeters>NAN</DistanceMeters>
          </Trackpoint>
          <Trackpoint>
            <Time>2022-09-22T13:06:08.000Z</Time>
            <Position>
              <LatitudeDegrees>49.48930333368480205535888671875</LatitudeDegrees>
              <LongitudeDegrees>20.68171449936926364898681640625</LongitudeDegrees>
            </Position>
            <AltitudeMeters>343.79998779296875</AltitudeMeters>
            <DistanceMeters>NAN</DistanceMeters>
          </Trackpoint>
          <Trackpoint>
            <Time>2022-09-22T13:06:15.000Z</Time>
            <Position>
              <LatitudeDegrees>49.4892620109021663665771484375</LatitudeDegrees>
              <LongitudeDegrees>20.68172338418662548065185546875</LongitudeDegrees>
            </Position>
            <AltitudeMeters>343.79998779296875</AltitudeMeters>
            <DistanceMeters>NAN</DistanceMeters>
          </Trackpoint>
          <Trackpoint>
            <Time>2022-09-22T13:06:18.000Z</Time>
            <Position>
              <LatitudeDegrees>49.4892442412674427032470703125</LatitudeDegrees>
              <LongitudeDegrees>20.68171969614923000335693359375</LongitudeDegrees>
            </Position>
            <AltitudeMeters>343.79998779296875</AltitudeMeters>
            <DistanceMeters>NAN</DistanceMeters>
          </Trackpoint>
          <Trackpoint>
            <Time>2022-09-22T13:06:19.000Z</Time>
            <Position>
              <LatitudeDegrees>49.48923728428781032562255859375</LatitudeDegrees>
              <LongitudeDegrees>20.68171718157827854156494140625</LongitudeDegrees>
            </Position>
            <AltitudeMeters>343.79998779296875</AltitudeMeters>
            <DistanceMeters>NAN</DistanceMeters>
          </Trackpoint>
          <Trackpoint>
            <Time>2022-09-22T13:06:24.000Z</Time>
            <Position>
              <LatitudeDegrees>49.489200823009014129638671875</LatitudeDegrees>
              <LongitudeDegrees>20.681698657572269439697265625</LongitudeDegrees>
            </Position>
            <AltitudeMeters>344</AltitudeMeters>
            <DistanceMeters>NAN</DistanceMeters>
          </Trackpoint>
          <Trackpoint>
            <Time>2022-09-22T13:06:25.000Z</Time>
            <Position>
              <LatitudeDegrees>49.489197470247745513916015625</LatitudeDegrees>
              <LongitudeDegrees>20.68169270642101764678955078125</LongitudeDegrees>
            </Position>
            <AltitudeMeters>344</AltitudeMeters>
            <DistanceMeters>NAN</DistanceMeters>
          </Trackpoint>
          <Trackpoint>
            <Time>2022-09-22T13:06:32.000Z</Time>
            <Position>
              <LatitudeDegrees>49.4891620986163616180419921875</LatitudeDegrees>
              <LongitudeDegrees>20.68165867589414119720458984375</LongitudeDegrees>
            </Position>
            <AltitudeMeters>343.79998779296875</AltitudeMeters>
            <DistanceMeters>NAN</DistanceMeters>
          </Trackpoint>
          <Trackpoint>
            <Time>2022-09-22T13:06:34.000Z</Time>
            <Position>
              <LatitudeDegrees>49.48916000314056873321533203125</LatitudeDegrees>
              <LongitudeDegrees>20.68162925541400909423828125</LongitudeDegrees>
            </Position>
            <AltitudeMeters>343.600006103515625</AltitudeMeters>
            <DistanceMeters>NAN</DistanceMeters>
          </Trackpoint>
          <Trackpoint>
            <Time>2022-09-22T13:06:36.000Z</Time>
            <Position>
              <LatitudeDegrees>49.48916620574891567230224609375</LatitudeDegrees>
              <LongitudeDegrees>20.68159363232553005218505859375</LongitudeDegrees>
            </Position>
            <AltitudeMeters>343.600006103515625</AltitudeMeters>
            <DistanceMeters>NAN</DistanceMeters>
          </Trackpoint>
          <Trackpoint>
            <Time>2022-09-22T13:06:39.000Z</Time>
            <Position>
              <LatitudeDegrees>49.4891724921762943267822265625</LatitudeDegrees>
              <LongitudeDegrees>20.68154015578329563140869140625</LongitudeDegrees>
            </Position>
            <AltitudeMeters>343.79998779296875</AltitudeMeters>
            <DistanceMeters>NAN</DistanceMeters>
          </Trackpoint>
          <Trackpoint>
            <Time>2022-09-22T13:06:42.000Z</Time>
            <Position>
              <LatitudeDegrees>49.48916838504374027252197265625</LatitudeDegrees>
              <LongitudeDegrees>20.68151635117828845977783203125</LongitudeDegrees>
            </Position>
            <AltitudeMeters>343.79998779296875</AltitudeMeters>
            <DistanceMeters>NAN</DistanceMeters>
          </Trackpoint>
          <Trackpoint>
            <Time>2022-09-22T13:06:43.000Z</Time>
            <Position>
              <LatitudeDegrees>49.48915983550250530242919921875</LatitudeDegrees>
              <LongitudeDegrees>20.68150327540934085845947265625</LongitudeDegrees>
            </Position>
            <AltitudeMeters>343.79998779296875</AltitudeMeters>
            <DistanceMeters>NAN</DistanceMeters>
          </Trackpoint>
          <Trackpoint>
            <Time>2022-09-22T13:06:44.000Z</Time>
            <Position>
              <LatitudeDegrees>49.4891510345041751861572265625</LatitudeDegrees>
              <LongitudeDegrees>20.6814929656684398651123046875</LongitudeDegrees>
            </Position>
            <AltitudeMeters>343.79998779296875</AltitudeMeters>
            <DistanceMeters>NAN</DistanceMeters>
          </Trackpoint>
          <Trackpoint>
            <Time>2022-09-22T13:06:45.000Z</Time>
            <Position>
              <LatitudeDegrees>49.489143155515193939208984375</LatitudeDegrees>
              <LongitudeDegrees>20.681488774716854095458984375</LongitudeDegrees>
            </Position>
            <AltitudeMeters>343.79998779296875</AltitudeMeters>
            <DistanceMeters>NAN</DistanceMeters>
          </Trackpoint>
          <Trackpoint>
            <Time>2022-09-22T13:06:50.000Z</Time>
            <Position>
              <LatitudeDegrees>49.4890856556594371795654296875</LatitudeDegrees>
              <LongitudeDegrees>20.68149112164974212646484375</LongitudeDegrees>
            </Position>
            <AltitudeMeters>343.79998779296875</AltitudeMeters>
            <DistanceMeters>NAN</DistanceMeters>
          </Trackpoint>
          <Trackpoint>
            <Time>2022-09-22T13:06:52.000Z</Time>
            <Position>
              <LatitudeDegrees>49.48906679637730121612548828125</LatitudeDegrees>
              <LongitudeDegrees>20.68149841390550136566162109375</LongitudeDegrees>
            </Position>
            <AltitudeMeters>343.600006103515625</AltitudeMeters>
            <DistanceMeters>NAN</DistanceMeters>
          </Trackpoint>
          <Trackpoint>
            <Time>2022-09-22T13:06:59.000Z</Time>
            <Position>
              <LatitudeDegrees>49.48900644667446613311767578125</LatitudeDegrees>
              <LongitudeDegrees>20.6815167702734470367431640625</LongitudeDegrees>
            </Position>
            <AltitudeMeters>343.79998779296875</AltitudeMeters>
            <DistanceMeters>NAN</DistanceMeters>
          </Trackpoint>
          <Trackpoint>
            <Time>2022-09-22T13:07:01.000Z</Time>
            <Position>
              <LatitudeDegrees>49.488990604877471923828125</LatitudeDegrees>
              <LongitudeDegrees>20.68150050938129425048828125</LongitudeDegrees>
            </Position>
            <AltitudeMeters>343.79998779296875</AltitudeMeters>
            <DistanceMeters>NAN</DistanceMeters>
          </Trackpoint>
          <Trackpoint>
            <Time>2022-09-22T13:07:02.000Z</Time>
            <Position>
              <LatitudeDegrees>49.4889813847839832305908203125</LatitudeDegrees>
              <LongitudeDegrees>20.6814986653625965118408203125</LongitudeDegrees>
            </Position>
            <AltitudeMeters>343.79998779296875</AltitudeMeters>
            <DistanceMeters>NAN</DistanceMeters>
          </Trackpoint>
          <Trackpoint>
            <Time>2022-09-22T13:07:10.000Z</Time>
            <Position>
              <LatitudeDegrees>49.488897733390331268310546875</LatitudeDegrees>
              <LongitudeDegrees>20.6814939714968204498291015625</LongitudeDegrees>
            </Position>
            <AltitudeMeters>343.79998779296875</AltitudeMeters>
            <DistanceMeters>NAN</DistanceMeters>
          </Trackpoint>
          <Trackpoint>
            <Time>2022-09-22T13:07:18.000Z</Time>
            <Position>
              <LatitudeDegrees>49.4888261519372463226318359375</LatitudeDegrees>
              <LongitudeDegrees>20.68147930316627025604248046875</LongitudeDegrees>
            </Position>
            <AltitudeMeters>343.600006103515625</AltitudeMeters>
            <DistanceMeters>NAN</DistanceMeters>
          </Trackpoint>
          <Trackpoint>
            <Time>2022-09-22T13:07:19.000Z</Time>
            <Position>
              <LatitudeDegrees>49.48881735093891620635986328125</LatitudeDegrees>
              <LongitudeDegrees>20.681478045880794525146484375</LongitudeDegrees>
            </Position>
            <AltitudeMeters>343.600006103515625</AltitudeMeters>
            <DistanceMeters>NAN</DistanceMeters>
          </Trackpoint>
          <Trackpoint>
            <Time>2022-09-22T13:07:25.000Z</Time>
            <Position>
              <LatitudeDegrees>49.48878315277397632598876953125</LatitudeDegrees>
              <LongitudeDegrees>20.6814540736377239227294921875</LongitudeDegrees>
            </Position>
            <AltitudeMeters>343.600006103515625</AltitudeMeters>
            <DistanceMeters>NAN</DistanceMeters>
          </Trackpoint>
          <Trackpoint>
            <Time>2022-09-22T13:07:33.000Z</Time>
            <Position>
              <LatitudeDegrees>49.48872146196663379669189453125</LatitudeDegrees>
              <LongitudeDegrees>20.6814161874353885650634765625</LongitudeDegrees>
            </Position>
            <AltitudeMeters>343.600006103515625</AltitudeMeters>
            <DistanceMeters>NAN</DistanceMeters>
          </Trackpoint>
          <Trackpoint>
            <Time>2022-09-22T13:07:39.000Z</Time>
            <Position>
              <LatitudeDegrees>49.48867737315595149993896484375</LatitudeDegrees>
              <LongitudeDegrees>20.6813912093639373779296875</LongitudeDegrees>
            </Position>
            <AltitudeMeters>343.600006103515625</AltitudeMeters>
            <DistanceMeters>NAN</DistanceMeters>
          </Trackpoint>
          <Trackpoint>
            <Time>2022-09-22T13:07:43.000Z</Time>
            <Position>
              <LatitudeDegrees>49.48864066042006015777587890625</LatitudeDegrees>
              <LongitudeDegrees>20.6813876889646053314208984375</LongitudeDegrees>
            </Position>
            <AltitudeMeters>343.600006103515625</AltitudeMeters>
            <DistanceMeters>NAN</DistanceMeters>
          </Trackpoint>
          <Trackpoint>
            <Time>2022-09-22T13:07:49.000Z</Time>
            <Position>
              <LatitudeDegrees>49.4886377267539501190185546875</LatitudeDegrees>
              <LongitudeDegrees>20.68135743029415607452392578125</LongitudeDegrees>
            </Position>
            <AltitudeMeters>343.600006103515625</AltitudeMeters>
            <DistanceMeters>NAN</DistanceMeters>
          </Trackpoint>
          <Trackpoint>
            <Time>2022-09-22T13:07:58.000Z</Time>
            <Position>
              <LatitudeDegrees>49.48863512836396694183349609375</LatitudeDegrees>
              <LongitudeDegrees>20.681352317333221435546875</LongitudeDegrees>
            </Position>
            <AltitudeMeters>343.600006103515625</AltitudeMeters>
            <DistanceMeters>NAN</DistanceMeters>
          </Trackpoint>
          <Trackpoint>
            <Time>2022-09-22T13:08:01.000Z</Time>
            <Position>
              <LatitudeDegrees>49.48863512836396694183349609375</LatitudeDegrees>
              <LongitudeDegrees>20.681352317333221435546875</LongitudeDegrees>
            </Position>
            <AltitudeMeters>343.600006103515625</AltitudeMeters>
            <DistanceMeters>NAN</DistanceMeters>
          </Trackpoint>
          <Trackpoint>
            <Time>2022-09-22T13:08:10.000Z</Time>
            <Position>
              <LatitudeDegrees>49.48858232237398624420166015625</LatitudeDegrees>
              <LongitudeDegrees>20.6813451088964939117431640625</LongitudeDegrees>
            </Position>
            <AltitudeMeters>343.600006103515625</AltitudeMeters>
            <DistanceMeters>NAN</DistanceMeters>
          </Trackpoint>
          <Trackpoint>
            <Time>2022-09-22T13:08:14.000Z</Time>
            <Position>
              <LatitudeDegrees>49.4885337911546230316162109375</LatitudeDegrees>
              <LongitudeDegrees>20.6813223101198673248291015625</LongitudeDegrees>
            </Position>
            <AltitudeMeters>343.600006103515625</AltitudeMeters>
            <DistanceMeters>NAN</DistanceMeters>
          </Trackpoint>
          <Trackpoint>
            <Time>2022-09-22T13:08:17.000Z</Time>
            <Position>
              <LatitudeDegrees>49.48850286193192005157470703125</LatitudeDegrees>
              <LongitudeDegrees>20.6813038699328899383544921875</LongitudeDegrees>
            </Position>
            <AltitudeMeters>343.600006103515625</AltitudeMeters>
            <DistanceMeters>NAN</DistanceMeters>
          </Trackpoint>
          <Trackpoint>
            <Time>2022-09-22T13:08:20.000Z</Time>
            <Position>
              <LatitudeDegrees>49.488475956022739410400390625</LatitudeDegrees>
              <LongitudeDegrees>20.68129800260066986083984375</LongitudeDegrees>
            </Position>
            <AltitudeMeters>343.79998779296875</AltitudeMeters>
            <DistanceMeters>NAN</DistanceMeters>
          </Trackpoint>
          <Trackpoint>
            <Time>2022-09-22T13:08:23.000Z</Time>
            <Position>
              <LatitudeDegrees>49.4884590245783329010009765625</LatitudeDegrees>
              <LongitudeDegrees>20.681291632354259490966796875</LongitudeDegrees>
            </Position>
            <AltitudeMeters>343.79998779296875</AltitudeMeters>
            <DistanceMeters>NAN</DistanceMeters>
          </Trackpoint>
          <Trackpoint>
            <Time>2022-09-22T13:08:25.000Z</Time>
            <Position>
              <LatitudeDegrees>49.48845676146447658538818359375</LatitudeDegrees>
              <LongitudeDegrees>20.68129724822938442230224609375</LongitudeDegrees>
            </Position>
            <AltitudeMeters>343.79998779296875</AltitudeMeters>
            <DistanceMeters>NAN</DistanceMeters>
          </Trackpoint>
          <Trackpoint>
            <Time>2022-09-22T13:08:27.000Z</Time>
            <Position>
              <LatitudeDegrees>49.4884550012648105621337890625</LatitudeDegrees>
              <LongitudeDegrees>20.6813021935522556304931640625</LongitudeDegrees>
            </Position>
            <AltitudeMeters>343.79998779296875</AltitudeMeters>
            <DistanceMeters>NAN</DistanceMeters>
          </Trackpoint>
          <Trackpoint>
            <Time>2022-09-22T13:08:33.000Z</Time>
            <Position>
              <LatitudeDegrees>49.48843471705913543701171875</LatitudeDegrees>
              <LongitudeDegrees>20.6813008524477481842041015625</LongitudeDegrees>
            </Position>
            <AltitudeMeters>343.79998779296875</AltitudeMeters>
            <DistanceMeters>NAN</DistanceMeters>
          </Trackpoint>
          <Trackpoint>
            <Time>2022-09-22T13:08:39.000Z</Time>
            <Position>
              <LatitudeDegrees>49.48832072317600250244140625</LatitudeDegrees>
              <LongitudeDegrees>20.6812839210033416748046875</LongitudeDegrees>
            </Position>
            <AltitudeMeters>343.79998779296875</AltitudeMeters>
            <DistanceMeters>NAN</DistanceMeters>
          </Trackpoint>
          <Trackpoint>
            <Time>2022-09-22T13:08:47.000Z</Time>
            <Position>
              <LatitudeDegrees>49.48810120113193988800048828125</LatitudeDegrees>
              <LongitudeDegrees>20.68123899400234222412109375</LongitudeDegrees>
            </Position>
            <AltitudeMeters>343.79998779296875</AltitudeMeters>
            <DistanceMeters>NAN</DistanceMeters>
          </Trackpoint>
          <Trackpoint>
            <Time>2022-09-22T13:08:56.000Z</Time>
            <Position>
              <LatitudeDegrees>49.48783658444881439208984375</LatitudeDegrees>
              <LongitudeDegrees>20.6811580248177051544189453125</LongitudeDegrees>
            </Position>
            <AltitudeMeters>344.20001220703125</AltitudeMeters>
            <DistanceMeters>NAN</DistanceMeters>
          </Trackpoint>
          <Trackpoint>
            <Time>2022-09-22T13:09:03.000Z</Time>
            <Position>
              <LatitudeDegrees>49.48764606378972530364990234375</LatitudeDegrees>
              <LongitudeDegrees>20.68111318163573741912841796875</LongitudeDegrees>
            </Position>
            <AltitudeMeters>344.399993896484375</AltitudeMeters>
            <DistanceMeters>NAN</DistanceMeters>
          </Trackpoint>
          <Trackpoint>
            <Time>2022-09-22T13:09:10.000Z</Time>
            <Position>
              <LatitudeDegrees>49.4874287210404872894287109375</LatitudeDegrees>
              <LongitudeDegrees>20.6810581125319004058837890625</LongitudeDegrees>
            </Position>
            <AltitudeMeters>344.600006103515625</AltitudeMeters>
            <DistanceMeters>NAN</DistanceMeters>
          </Trackpoint>
          <Trackpoint>
            <Time>2022-09-22T13:09:14.000Z</Time>
            <Position>
              <LatitudeDegrees>49.4873143918812274932861328125</LatitudeDegrees>
              <LongitudeDegrees>20.681038163602352142333984375</LongitudeDegrees>
            </Position>
            <AltitudeMeters>344.600006103515625</AltitudeMeters>
            <DistanceMeters>NAN</DistanceMeters>
          </Trackpoint>
          <Trackpoint>
            <Time>2022-09-22T13:09:17.000Z</Time>
            <Position>
              <LatitudeDegrees>49.4872208498418331146240234375</LatitudeDegrees>
              <LongitudeDegrees>20.6810130178928375244140625</LongitudeDegrees>
            </Position>
            <AltitudeMeters>344.79998779296875</AltitudeMeters>
            <DistanceMeters>NAN</DistanceMeters>
          </Trackpoint>
          <Trackpoint>
            <Time>2022-09-22T13:09:22.000Z</Time>
            <Position>
              <LatitudeDegrees>49.48705798946321010589599609375</LatitudeDegrees>
              <LongitudeDegrees>20.6809588707983493804931640625</LongitudeDegrees>
            </Position>
            <AltitudeMeters>345</AltitudeMeters>
            <DistanceMeters>NAN</DistanceMeters>
          </Trackpoint>
          <Trackpoint>
            <Time>2022-09-22T13:09:23.000Z</Time>
            <Position>
              <LatitudeDegrees>49.48702965863049030303955078125</LatitudeDegrees>
              <LongitudeDegrees>20.68095241673290729522705078125</LongitudeDegrees>
            </Position>
            <AltitudeMeters>345</AltitudeMeters>
            <DistanceMeters>NAN</DistanceMeters>
          </Trackpoint>
          <Trackpoint>
            <Time>2022-09-22T13:09:24.000Z</Time>
            <Position>
              <LatitudeDegrees>49.48700149543583393096923828125</LatitudeDegrees>
              <LongitudeDegrees>20.68094520829617977142333984375</LongitudeDegrees>
            </Position>
            <AltitudeMeters>345</AltitudeMeters>
            <DistanceMeters>NAN</DistanceMeters>
          </Trackpoint>
          <Trackpoint>
            <Time>2022-09-22T13:09:28.000Z</Time>
            <Position>
              <LatitudeDegrees>49.48690342716872692108154296875</LatitudeDegrees>
              <LongitudeDegrees>20.68090262822806835174560546875</LongitudeDegrees>
            </Position>
            <AltitudeMeters>345.20001220703125</AltitudeMeters>
            <DistanceMeters>NAN</DistanceMeters>
          </Trackpoint>
          <Trackpoint>
            <Time>2022-09-22T13:09:31.000Z</Time>
            <Position>
              <LatitudeDegrees>49.48682346381247043609619140625</LatitudeDegrees>
              <LongitudeDegrees>20.6808716990053653717041015625</LongitudeDegrees>
            </Position>
            <AltitudeMeters>345.20001220703125</AltitudeMeters>
            <DistanceMeters>NAN</DistanceMeters>
          </Trackpoint>
          <Trackpoint>
            <Time>2022-09-22T13:09:35.000Z</Time>
            <Position>
              <LatitudeDegrees>49.48671282269060611724853515625</LatitudeDegrees>
              <LongitudeDegrees>20.6808386743068695068359375</LongitudeDegrees>
            </Position>
            <AltitudeMeters>345.20001220703125</AltitudeMeters>
            <DistanceMeters>NAN</DistanceMeters>
          </Trackpoint>
          <Trackpoint>
            <Time>2022-09-22T13:09:38.000Z</Time>
            <Position>
              <LatitudeDegrees>49.48663604445755481719970703125</LatitudeDegrees>
              <LongitudeDegrees>20.68082082085311412811279296875</LongitudeDegrees>
            </Position>
            <AltitudeMeters>345.399993896484375</AltitudeMeters>
            <DistanceMeters>NAN</DistanceMeters>
          </Trackpoint>
          <Trackpoint>
            <Time>2022-09-22T13:09:41.000Z</Time>
            <Position>
              <LatitudeDegrees>49.48656999506056308746337890625</LatitudeDegrees>
              <LongitudeDegrees>20.680800788104534149169921875</LongitudeDegrees>
            </Position>
            <AltitudeMeters>345.399993896484375</AltitudeMeters>
            <DistanceMeters>NAN</DistanceMeters>
          </Trackpoint>
          <Trackpoint>
            <Time>2022-09-22T13:09:45.000Z</Time>
            <Position>
              <LatitudeDegrees>49.4865201227366924285888671875</LatitudeDegrees>
              <LongitudeDegrees>20.68077639676630496978759765625</LongitudeDegrees>
            </Position>
            <AltitudeMeters>345.399993896484375</AltitudeMeters>
            <DistanceMeters>NAN</DistanceMeters>
          </Trackpoint>
          <Trackpoint>
            <Time>2022-09-22T13:09:52.000Z</Time>
            <Position>
              <LatitudeDegrees>49.48652942664921283721923828125</LatitudeDegrees>
              <LongitudeDegrees>20.68076449446380138397216796875</LongitudeDegrees>
            </Position>
            <AltitudeMeters>345.600006103515625</AltitudeMeters>
            <DistanceMeters>NAN</DistanceMeters>
          </Trackpoint>
          <Trackpoint>
            <Time>2022-09-22T13:09:57.000Z</Time>
            <Position>
              <LatitudeDegrees>49.48652657680213451385498046875</LatitudeDegrees>
              <LongitudeDegrees>20.68076281808316707611083984375</LongitudeDegrees>
            </Position>
            <AltitudeMeters>345.600006103515625</AltitudeMeters>
            <DistanceMeters>NAN</DistanceMeters>
          </Trackpoint>
          <Trackpoint>
            <Time>2022-09-22T13:10:03.000Z</Time>
            <Position>
              <LatitudeDegrees>49.486517943441867828369140625</LatitudeDegrees>
              <LongitudeDegrees>20.6807764805853366851806640625</LongitudeDegrees>
            </Position>
            <AltitudeMeters>345.600006103515625</AltitudeMeters>
            <DistanceMeters>NAN</DistanceMeters>
          </Trackpoint>
          <Trackpoint>
            <Time>2022-09-22T13:10:13.000Z</Time>
            <Position>
              <LatitudeDegrees>49.48644493706524372100830078125</LatitudeDegrees>
              <LongitudeDegrees>20.6807734631001949310302734375</LongitudeDegrees>
            </Position>
            <AltitudeMeters>345.600006103515625</AltitudeMeters>
            <DistanceMeters>NAN</DistanceMeters>
          </Trackpoint>
          <Trackpoint>
            <Time>2022-09-22T13:10:22.000Z</Time>
            <Position>
              <LatitudeDegrees>49.48633228428661823272705078125</LatitudeDegrees>
              <LongitudeDegrees>20.68074605427682399749755859375</LongitudeDegrees>
            </Position>
            <AltitudeMeters>345.600006103515625</AltitudeMeters>
            <DistanceMeters>NAN</DistanceMeters>
          </Trackpoint>
          <Trackpoint>
            <Time>2022-09-22T13:10:31.000Z</Time>
            <Position>
              <LatitudeDegrees>49.486253075301647186279296875</LatitudeDegrees>
              <LongitudeDegrees>20.68067765794694423675537109375</LongitudeDegrees>
            </Position>
            <AltitudeMeters>345.600006103515625</AltitudeMeters>
            <DistanceMeters>NAN</DistanceMeters>
          </Trackpoint>
          <Trackpoint>
            <Time>2022-09-22T13:10:42.000Z</Time>
            <Position>
              <LatitudeDegrees>49.48614486493170261383056640625</LatitudeDegrees>
              <LongitudeDegrees>20.6806222535669803619384765625</LongitudeDegrees>
            </Position>
            <AltitudeMeters>345.600006103515625</AltitudeMeters>
            <DistanceMeters>NAN</DistanceMeters>
          </Trackpoint>
          <Trackpoint>
            <Time>2022-09-22T13:10:47.000Z</Time>
            <Position>
              <LatitudeDegrees>49.48609474115073680877685546875</LatitudeDegrees>
              <LongitudeDegrees>20.68060959689319133758544921875</LongitudeDegrees>
            </Position>
            <AltitudeMeters>345.600006103515625</AltitudeMeters>
            <DistanceMeters>NAN</DistanceMeters>
          </Trackpoint>
          <Trackpoint>
            <Time>2022-09-22T13:10:50.000Z</Time>
            <Position>
              <LatitudeDegrees>49.4860668294131755828857421875</LatitudeDegrees>
              <LongitudeDegrees>20.6805999577045440673828125</LongitudeDegrees>
            </Position>
            <AltitudeMeters>345.600006103515625</AltitudeMeters>
            <DistanceMeters>NAN</DistanceMeters>
          </Trackpoint>
          <Trackpoint>
            <Time>2022-09-22T13:10:52.000Z</Time>
            <Position>
              <LatitudeDegrees>49.48604193516075611114501953125</LatitudeDegrees>
              <LongitudeDegrees>20.68059920333325862884521484375</LongitudeDegrees>
            </Position>
            <AltitudeMeters>345.600006103515625</AltitudeMeters>
            <DistanceMeters>NAN</DistanceMeters>
          </Trackpoint>
          <Trackpoint>
            <Time>2022-09-22T13:10:59.000Z</Time>
            <Position>
              <LatitudeDegrees>49.4859722815454006195068359375</LatitudeDegrees>
              <LongitudeDegrees>20.68059467710554599761962890625</LongitudeDegrees>
            </Position>
            <AltitudeMeters>345.600006103515625</AltitudeMeters>
            <DistanceMeters>NAN</DistanceMeters>
          </Trackpoint>
          <Trackpoint>
            <Time>2022-09-22T13:11:02.000Z</Time>
            <Position>
              <LatitudeDegrees>49.48594369925558567047119140625</LatitudeDegrees>
              <LongitudeDegrees>20.68058981560170650482177734375</LongitudeDegrees>
            </Position>
            <AltitudeMeters>345.600006103515625</AltitudeMeters>
            <DistanceMeters>NAN</DistanceMeters>
          </Trackpoint>
          <Trackpoint>
            <Time>2022-09-22T13:11:12.000Z</Time>
            <Position>
              <LatitudeDegrees>49.4858408533036708831787109375</LatitudeDegrees>
              <LongitudeDegrees>20.68056500516831874847412109375</LongitudeDegrees>
            </Position>
            <AltitudeMeters>345.79998779296875</AltitudeMeters>
            <DistanceMeters>NAN</DistanceMeters>
          </Trackpoint>
          <Trackpoint>
            <Time>2022-09-22T13:11:14.000Z</Time>
            <Position>
              <LatitudeDegrees>49.48582232929766178131103515625</LatitudeDegrees>
              <LongitudeDegrees>20.680558718740940093994140625</LongitudeDegrees>
            </Position>
            <AltitudeMeters>346</AltitudeMeters>
            <DistanceMeters>NAN</DistanceMeters>
          </Trackpoint>
          <Trackpoint>
            <Time>2022-09-22T13:11:21.000Z</Time>
            <Position>
              <LatitudeDegrees>49.4857436232268810272216796875</LatitudeDegrees>
              <LongitudeDegrees>20.68055410869419574737548828125</LongitudeDegrees>
            </Position>
            <AltitudeMeters>346</AltitudeMeters>
            <DistanceMeters>NAN</DistanceMeters>
          </Trackpoint>
          <Trackpoint>
            <Time>2022-09-22T13:11:22.000Z</Time>
            <Position>
              <LatitudeDegrees>49.48573373258113861083984375</LatitudeDegrees>
              <LongitudeDegrees>20.68055125884711742401123046875</LongitudeDegrees>
            </Position>
            <AltitudeMeters>346</AltitudeMeters>
            <DistanceMeters>NAN</DistanceMeters>
          </Trackpoint>
          <Trackpoint>
            <Time>2022-09-22T13:11:25.000Z</Time>
            <Position>
              <LatitudeDegrees>49.485698528587818145751953125</LatitudeDegrees>
              <LongitudeDegrees>20.68054958246648311614990234375</LongitudeDegrees>
            </Position>
            <AltitudeMeters>346</AltitudeMeters>
            <DistanceMeters>NAN</DistanceMeters>
          </Trackpoint>
          <Trackpoint>
            <Time>2022-09-22T13:11:29.000Z</Time>
            <Position>
              <LatitudeDegrees>49.48566139675676822662353515625</LatitudeDegrees>
              <LongitudeDegrees>20.6805310584604740142822265625</LongitudeDegrees>
            </Position>
            <AltitudeMeters>346.20001220703125</AltitudeMeters>
            <DistanceMeters>NAN</DistanceMeters>
          </Trackpoint>
          <Trackpoint>
            <Time>2022-09-22T13:11:34.000Z</Time>
            <Position>
              <LatitudeDegrees>49.48560674674808979034423828125</LatitudeDegrees>
              <LongitudeDegrees>20.68051873706281185150146484375</LongitudeDegrees>
            </Position>
            <AltitudeMeters>346.20001220703125</AltitudeMeters>
            <DistanceMeters>NAN</DistanceMeters>
          </Trackpoint>
          <Trackpoint>
            <Time>2022-09-22T13:11:37.000Z</Time>
            <Position>
              <LatitudeDegrees>49.48558243922889232635498046875</LatitudeDegrees>
              <LongitudeDegrees>20.680515803396701812744140625</LongitudeDegrees>
            </Position>
            <AltitudeMeters>346.399993896484375</AltitudeMeters>
            <DistanceMeters>NAN</DistanceMeters>
          </Trackpoint>
          <Trackpoint>
            <Time>2022-09-22T13:11:44.000Z</Time>
            <Position>
              <LatitudeDegrees>49.4854988716542720794677734375</LatitudeDegrees>
              <LongitudeDegrees>20.6805226765573024749755859375</LongitudeDegrees>
            </Position>
            <AltitudeMeters>346.399993896484375</AltitudeMeters>
            <DistanceMeters>NAN</DistanceMeters>
          </Trackpoint>
          <Trackpoint>
            <Time>2022-09-22T13:11:52.000Z</Time>
            <Position>
              <LatitudeDegrees>49.4854207523167133331298828125</LatitudeDegrees>
              <LongitudeDegrees>20.680477917194366455078125</LongitudeDegrees>
            </Position>
            <AltitudeMeters>346.399993896484375</AltitudeMeters>
            <DistanceMeters>NAN</DistanceMeters>
          </Trackpoint>
          <Trackpoint>
            <Time>2022-09-22T13:11:55.000Z</Time>
            <Position>
              <LatitudeDegrees>49.48538906872272491455078125</LatitudeDegrees>
              <LongitudeDegrees>20.680475570261478424072265625</LongitudeDegrees>
            </Position>
            <AltitudeMeters>346.600006103515625</AltitudeMeters>
            <DistanceMeters>NAN</DistanceMeters>
          </Trackpoint>
          <Trackpoint>
            <Time>2022-09-22T13:11:58.000Z</Time>
            <Position>
              <LatitudeDegrees>49.4853570498526096343994140625</LatitudeDegrees>
              <LongitudeDegrees>20.6804653443396091461181640625</LongitudeDegrees>
            </Position>
            <AltitudeMeters>346.79998779296875</AltitudeMeters>
            <DistanceMeters>NAN</DistanceMeters>
          </Trackpoint>
          <Trackpoint>
            <Time>2022-09-22T13:12:01.000Z</Time>
            <Position>
              <LatitudeDegrees>49.4853280484676361083984375</LatitudeDegrees>
              <LongitudeDegrees>20.68045620806515216827392578125</LongitudeDegrees>
            </Position>
            <AltitudeMeters>346.79998779296875</AltitudeMeters>
            <DistanceMeters>NAN</DistanceMeters>
          </Trackpoint>
          <Trackpoint>
            <Time>2022-09-22T13:12:06.000Z</Time>
            <Position>
              <LatitudeDegrees>49.48527901433408260345458984375</LatitudeDegrees>
              <LongitudeDegrees>20.68044883199036121368408203125</LongitudeDegrees>
            </Position>
            <AltitudeMeters>347</AltitudeMeters>
            <DistanceMeters>NAN</DistanceMeters>
          </Trackpoint>
          <Trackpoint>
            <Time>2022-09-22T13:12:13.000Z</Time>
            <Position>
              <LatitudeDegrees>49.48521229438483715057373046875</LatitudeDegrees>
              <LongitudeDegrees>20.68043433129787445068359375</LongitudeDegrees>
            </Position>
            <AltitudeMeters>347.20001220703125</AltitudeMeters>
            <DistanceMeters>NAN</DistanceMeters>
          </Trackpoint>
          <Trackpoint>
            <Time>2022-09-22T13:12:14.000Z</Time>
            <Position>
              <LatitudeDegrees>49.48520408011972904205322265625</LatitudeDegrees>
              <LongitudeDegrees>20.68043475039303302764892578125</LongitudeDegrees>
            </Position>
            <AltitudeMeters>347.20001220703125</AltitudeMeters>
            <DistanceMeters>NAN</DistanceMeters>
          </Trackpoint>
          <Trackpoint>
            <Time>2022-09-22T13:12:19.000Z</Time>
            <Position>
              <LatitudeDegrees>49.48515705764293670654296875</LatitudeDegrees>
              <LongitudeDegrees>20.68042687140405178070068359375</LongitudeDegrees>
            </Position>
            <AltitudeMeters>347.399993896484375</AltitudeMeters>
            <DistanceMeters>NAN</DistanceMeters>
          </Trackpoint>
          <Trackpoint>
            <Time>2022-09-22T13:12:28.000Z</Time>
            <Position>
              <LatitudeDegrees>49.48507784865796566009521484375</LatitudeDegrees>
              <LongitudeDegrees>20.68040122278034687042236328125</LongitudeDegrees>
            </Position>
            <AltitudeMeters>347.600006103515625</AltitudeMeters>
            <DistanceMeters>NAN</DistanceMeters>
          </Trackpoint>
          <Trackpoint>
            <Time>2022-09-22T13:12:29.000Z</Time>
            <Position>
              <LatitudeDegrees>49.485069550573825836181640625</LatitudeDegrees>
              <LongitudeDegrees>20.6803972832858562469482421875</LongitudeDegrees>
            </Position>
            <AltitudeMeters>347.600006103515625</AltitudeMeters>
            <DistanceMeters>NAN</DistanceMeters>
          </Trackpoint>
          <Trackpoint>
            <Time>2022-09-22T13:12:36.000Z</Time>
            <Position>
              <LatitudeDegrees>49.4850154034793376922607421875</LatitudeDegrees>
              <LongitudeDegrees>20.68036861717700958251953125</LongitudeDegrees>
            </Position>
            <AltitudeMeters>348</AltitudeMeters>
            <DistanceMeters>NAN</DistanceMeters>
          </Trackpoint>
          <Trackpoint>
            <Time>2022-09-22T13:12:39.000Z</Time>
            <Position>
              <LatitudeDegrees>49.48499252088367938995361328125</LatitudeDegrees>
              <LongitudeDegrees>20.68036417476832866668701171875</LongitudeDegrees>
            </Position>
            <AltitudeMeters>348</AltitudeMeters>
            <DistanceMeters>NAN</DistanceMeters>
          </Trackpoint>
          <Trackpoint>
            <Time>2022-09-22T13:12:43.000Z</Time>
            <Position>
              <LatitudeDegrees>49.484959580004215240478515625</LatitudeDegrees>
              <LongitudeDegrees>20.68036149255931377410888671875</LongitudeDegrees>
            </Position>
            <AltitudeMeters>348.20001220703125</AltitudeMeters>
            <DistanceMeters>NAN</DistanceMeters>
          </Trackpoint>
          <Trackpoint>
            <Time>2022-09-22T13:12:49.000Z</Time>
            <Position>
              <LatitudeDegrees>49.4849282316863536834716796875</LatitudeDegrees>
              <LongitudeDegrees>20.6803523562848567962646484375</LongitudeDegrees>
            </Position>
            <AltitudeMeters>348.399993896484375</AltitudeMeters>
            <DistanceMeters>NAN</DistanceMeters>
          </Trackpoint>
          <Trackpoint>
            <Time>2022-09-22T13:12:56.000Z</Time>
            <Position>
              <LatitudeDegrees>49.4849017448723316192626953125</LatitudeDegrees>
              <LongitudeDegrees>20.68040273152291774749755859375</LongitudeDegrees>
            </Position>
            <AltitudeMeters>348.20001220703125</AltitudeMeters>
            <DistanceMeters>NAN</DistanceMeters>
          </Trackpoint>
          <Trackpoint>
            <Time>2022-09-22T13:13:01.000Z</Time>
            <Position>
              <LatitudeDegrees>49.4848908483982086181640625</LatitudeDegrees>
              <LongitudeDegrees>20.68042402155697345733642578125</LongitudeDegrees>
            </Position>
            <AltitudeMeters>348.20001220703125</AltitudeMeters>
            <DistanceMeters>NAN</DistanceMeters>
          </Trackpoint>
          <Trackpoint>
            <Time>2022-09-22T13:13:02.000Z</Time>
            <Position>
              <LatitudeDegrees>49.48488774709403514862060546875</LatitudeDegrees>
              <LongitudeDegrees>20.680430643260478973388671875</LongitudeDegrees>
            </Position>
            <AltitudeMeters>348.20001220703125</AltitudeMeters>
            <DistanceMeters>NAN</DistanceMeters>
          </Trackpoint>
          <Trackpoint>
            <Time>2022-09-22T13:13:10.000Z</Time>
            <Position>
              <LatitudeDegrees>49.48482672683894634246826171875</LatitudeDegrees>
              <LongitudeDegrees>20.6804740615189075469970703125</LongitudeDegrees>
            </Position>
            <AltitudeMeters>348.600006103515625</AltitudeMeters>
            <DistanceMeters>NAN</DistanceMeters>
          </Trackpoint>
          <Trackpoint>
            <Time>2022-09-22T13:13:11.000Z</Time>
            <Position>
              <LatitudeDegrees>49.4848219491541385650634765625</LatitudeDegrees>
              <LongitudeDegrees>20.6804827786982059478759765625</LongitudeDegrees>
            </Position>
            <AltitudeMeters>348.600006103515625</AltitudeMeters>
            <DistanceMeters>NAN</DistanceMeters>
          </Trackpoint>
          <Trackpoint>
            <Time>2022-09-22T13:13:18.000Z</Time>
            <Position>
              <LatitudeDegrees>49.4847746752202510833740234375</LatitudeDegrees>
              <LongitudeDegrees>20.6805498339235782623291015625</LongitudeDegrees>
            </Position>
            <AltitudeMeters>348.399993896484375</AltitudeMeters>
            <DistanceMeters>NAN</DistanceMeters>
          </Trackpoint>
          <Trackpoint>
            <Time>2022-09-22T13:13:28.000Z</Time>
            <Position>
              <LatitudeDegrees>49.48471239767968654632568359375</LatitudeDegrees>
              <LongitudeDegrees>20.6806923262774944305419921875</LongitudeDegrees>
            </Position>
            <AltitudeMeters>348.600006103515625</AltitudeMeters>
            <DistanceMeters>NAN</DistanceMeters>
          </Trackpoint>
          <Trackpoint>
            <Time>2022-09-22T13:13:29.000Z</Time>
            <Position>
              <LatitudeDegrees>49.48470736853778362274169921875</LatitudeDegrees>
              <LongitudeDegrees>20.6807018816471099853515625</LongitudeDegrees>
            </Position>
            <AltitudeMeters>348.600006103515625</AltitudeMeters>
            <DistanceMeters>NAN</DistanceMeters>
          </Trackpoint>
          <Trackpoint>
            <Time>2022-09-22T13:13:34.000Z</Time>
            <Position>
              <LatitudeDegrees>49.4846801273524761199951171875</LatitudeDegrees>
              <LongitudeDegrees>20.6807667575776576995849609375</LongitudeDegrees>
            </Position>
            <AltitudeMeters>348.600006103515625</AltitudeMeters>
            <DistanceMeters>NAN</DistanceMeters>
          </Trackpoint>
          <Trackpoint>
            <Time>2022-09-22T13:13:35.000Z</Time>
            <Position>
              <LatitudeDegrees>49.48467836715281009674072265625</LatitudeDegrees>
              <LongitudeDegrees>20.68076985888183116912841796875</LongitudeDegrees>
            </Position>
            <AltitudeMeters>348.600006103515625</AltitudeMeters>
            <DistanceMeters>NAN</DistanceMeters>
          </Trackpoint>
          <Trackpoint>
            <Time>2022-09-22T13:13:39.000Z</Time>
            <Position>
              <LatitudeDegrees>49.48463939130306243896484375</LatitudeDegrees>
              <LongitudeDegrees>20.68079047836363315582275390625</LongitudeDegrees>
            </Position>
            <AltitudeMeters>348.20001220703125</AltitudeMeters>
            <DistanceMeters>NAN</DistanceMeters>
          </Trackpoint>
          <Trackpoint>
            <Time>2022-09-22T13:13:42.000Z</Time>
            <Position>
              <LatitudeDegrees>49.4846134074032306671142578125</LatitudeDegrees>
              <LongitudeDegrees>20.680821239948272705078125</LongitudeDegrees>
            </Position>
            <AltitudeMeters>348.20001220703125</AltitudeMeters>
            <DistanceMeters>NAN</DistanceMeters>
          </Trackpoint>
          <Trackpoint>
            <Time>2022-09-22T13:13:44.000Z</Time>
            <Position>
              <LatitudeDegrees>49.48460427112877368927001953125</LatitudeDegrees>
              <LongitudeDegrees>20.68084714002907276153564453125</LongitudeDegrees>
            </Position>
            <AltitudeMeters>348</AltitudeMeters>
            <DistanceMeters>NAN</DistanceMeters>
          </Trackpoint>
          <Trackpoint>
            <Time>2022-09-22T13:13:49.000Z</Time>
            <Position>
              <LatitudeDegrees>49.48458834551274776458740234375</LatitudeDegrees>
              <LongitudeDegrees>20.6808820925652980804443359375</LongitudeDegrees>
            </Position>
            <AltitudeMeters>348</AltitudeMeters>
            <DistanceMeters>NAN</DistanceMeters>
          </Trackpoint>
          <Trackpoint>
            <Time>2022-09-22T13:13:55.000Z</Time>
            <Position>
              <LatitudeDegrees>49.48457635939121246337890625</LatitudeDegrees>
              <LongitudeDegrees>20.680922828614711761474609375</LongitudeDegrees>
            </Position>
            <AltitudeMeters>348</AltitudeMeters>
            <DistanceMeters>NAN</DistanceMeters>
          </Trackpoint>
          <Trackpoint>
            <Time>2022-09-22T13:13:58.000Z</Time>
            <Position>
              <LatitudeDegrees>49.4845483638346195220947265625</LatitudeDegrees>
              <LongitudeDegrees>20.6809991039335727691650390625</LongitudeDegrees>
            </Position>
            <AltitudeMeters>347.79998779296875</AltitudeMeters>
            <DistanceMeters>NAN</DistanceMeters>
          </Trackpoint>
          <Trackpoint>
            <Time>2022-09-22T13:14:01.000Z</Time>
            <Position>
              <LatitudeDegrees>49.48449815623462200164794921875</LatitudeDegrees>
              <LongitudeDegrees>20.68110764957964420318603515625</LongitudeDegrees>
            </Position>
            <AltitudeMeters>347.600006103515625</AltitudeMeters>
            <DistanceMeters>NAN</DistanceMeters>
          </Trackpoint>
          <Trackpoint>
            <Time>2022-09-22T13:14:08.000Z</Time>
            <Position>
              <LatitudeDegrees>49.484385587275028228759765625</LatitudeDegrees>
              <LongitudeDegrees>20.68138643167912960052490234375</LongitudeDegrees>
            </Position>
            <AltitudeMeters>347.20001220703125</AltitudeMeters>
            <DistanceMeters>NAN</DistanceMeters>
          </Trackpoint>
          <Trackpoint>
            <Time>2022-09-22T13:14:10.000Z</Time>
            <Position>
              <LatitudeDegrees>49.48434694670140743255615234375</LatitudeDegrees>
              <LongitudeDegrees>20.6814644671976566314697265625</LongitudeDegrees>
            </Position>
            <AltitudeMeters>347.20001220703125</AltitudeMeters>
            <DistanceMeters>NAN</DistanceMeters>
          </Trackpoint>
          <Trackpoint>
            <Time>2022-09-22T13:14:13.000Z</Time>
            <Position>
              <LatitudeDegrees>49.48428668081760406494140625</LatitudeDegrees>
              <LongitudeDegrees>20.68159664981067180633544921875</LongitudeDegrees>
            </Position>
            <AltitudeMeters>347</AltitudeMeters>
            <DistanceMeters>NAN</DistanceMeters>
          </Trackpoint>
          <Trackpoint>
            <Time>2022-09-22T13:14:18.000Z</Time>
            <Position>
              <LatitudeDegrees>49.4841872714459896087646484375</LatitudeDegrees>
              <LongitudeDegrees>20.68182078190147876739501953125</LongitudeDegrees>
            </Position>
            <AltitudeMeters>346.79998779296875</AltitudeMeters>
            <DistanceMeters>NAN</DistanceMeters>
          </Trackpoint>
          <Trackpoint>
            <Time>2022-09-22T13:14:23.000Z</Time>
            <Position>
              <LatitudeDegrees>49.48408911935985088348388671875</LatitudeDegrees>
              <LongitudeDegrees>20.682041309773921966552734375</LongitudeDegrees>
            </Position>
            <AltitudeMeters>346.600006103515625</AltitudeMeters>
            <DistanceMeters>NAN</DistanceMeters>
          </Trackpoint>
          <Trackpoint>
            <Time>2022-09-22T13:14:26.000Z</Time>
            <Position>
              <LatitudeDegrees>49.48403866030275821685791015625</LatitudeDegrees>
              <LongitudeDegrees>20.68218447268009185791015625</LongitudeDegrees>
            </Position>
            <AltitudeMeters>346.600006103515625</AltitudeMeters>
            <DistanceMeters>NAN</DistanceMeters>
          </Trackpoint>
          <Trackpoint>
            <Time>2022-09-22T13:14:31.000Z</Time>
            <Position>
              <LatitudeDegrees>49.483932293951511383056640625</LatitudeDegrees>
              <LongitudeDegrees>20.6824116222560405731201171875</LongitudeDegrees>
            </Position>
            <AltitudeMeters>346.399993896484375</AltitudeMeters>
            <DistanceMeters>NAN</DistanceMeters>
          </Trackpoint>
          <Trackpoint>
            <Time>2022-09-22T13:14:32.000Z</Time>
            <Position>
              <LatitudeDegrees>49.4839079864323139190673828125</LatitudeDegrees>
              <LongitudeDegrees>20.68246208131313323974609375</LongitudeDegrees>
            </Position>
            <AltitudeMeters>346.399993896484375</AltitudeMeters>
            <DistanceMeters>NAN</DistanceMeters>
          </Trackpoint>
          <Trackpoint>
            <Time>2022-09-22T13:14:34.000Z</Time>
            <Position>
              <LatitudeDegrees>49.48385618627071380615234375</LatitudeDegrees>
              <LongitudeDegrees>20.6825859658420085906982421875</LongitudeDegrees>
            </Position>
            <AltitudeMeters>345.79998779296875</AltitudeMeters>
            <DistanceMeters>NAN</DistanceMeters>
          </Trackpoint>
          <Trackpoint>
            <Time>2022-09-22T13:14:37.000Z</Time>
            <Position>
              <LatitudeDegrees>49.483768008649349212646484375</LatitudeDegrees>
              <LongitudeDegrees>20.68280749954283237457275390625</LongitudeDegrees>
            </Position>
            <AltitudeMeters>344.79998779296875</AltitudeMeters>
            <DistanceMeters>NAN</DistanceMeters>
          </Trackpoint>
          <Trackpoint>
            <Time>2022-09-22T13:14:38.000Z</Time>
            <Position>
              <LatitudeDegrees>49.4837262667715549468994140625</LatitudeDegrees>
              <LongitudeDegrees>20.68288360722362995147705078125</LongitudeDegrees>
            </Position>
            <AltitudeMeters>344.399993896484375</AltitudeMeters>
            <DistanceMeters>NAN</DistanceMeters>
          </Trackpoint>
          <Trackpoint>
            <Time>2022-09-22T13:14:39.000Z</Time>
            <Position>
              <LatitudeDegrees>49.4836716167628765106201171875</LatitudeDegrees>
              <LongitudeDegrees>20.68294965662062168121337890625</LongitudeDegrees>
            </Position>
            <AltitudeMeters>343.600006103515625</AltitudeMeters>
            <DistanceMeters>NAN</DistanceMeters>
          </Trackpoint>
          <Trackpoint>
            <Time>2022-09-22T13:14:40.000Z</Time>
            <Position>
              <LatitudeDegrees>49.483610093593597412109375</LatitudeDegrees>
              <LongitudeDegrees>20.6829996965825557708740234375</LongitudeDegrees>
            </Position>
            <AltitudeMeters>343.20001220703125</AltitudeMeters>
            <DistanceMeters>NAN</DistanceMeters>
          </Trackpoint>
          <Trackpoint>
            <Time>2022-09-22T13:14:41.000Z</Time>
            <Position>
              <LatitudeDegrees>49.48354362510144710540771484375</LatitudeDegrees>
              <LongitudeDegrees>20.6830265186727046966552734375</LongitudeDegrees>
            </Position>
            <AltitudeMeters>342.79998779296875</AltitudeMeters>
            <DistanceMeters>NAN</DistanceMeters>
          </Trackpoint>
          <Trackpoint>
            <Time>2022-09-22T13:14:42.000Z</Time>
            <Position>
              <LatitudeDegrees>49.48347724042832851409912109375</LatitudeDegrees>
              <LongitudeDegrees>20.68301402963697910308837890625</LongitudeDegrees>
            </Position>
            <AltitudeMeters>342.79998779296875</AltitudeMeters>
            <DistanceMeters>NAN</DistanceMeters>
          </Trackpoint>
          <Trackpoint>
            <Time>2022-09-22T13:14:47.000Z</Time>
            <Position>
              <LatitudeDegrees>49.4831546209752559661865234375</LatitudeDegrees>
              <LongitudeDegrees>20.68290791474282741546630859375</LongitudeDegrees>
            </Position>
            <AltitudeMeters>342.79998779296875</AltitudeMeters>
            <DistanceMeters>NAN</DistanceMeters>
          </Trackpoint>
          <Trackpoint>
            <Time>2022-09-22T13:14:48.000Z</Time>
            <Position>
              <LatitudeDegrees>49.48309502564370632171630859375</LatitudeDegrees>
              <LongitudeDegrees>20.6828883849084377288818359375</LongitudeDegrees>
            </Position>
            <AltitudeMeters>342.79998779296875</AltitudeMeters>
            <DistanceMeters>NAN</DistanceMeters>
          </Trackpoint>
          <Trackpoint>
            <Time>2022-09-22T13:14:51.000Z</Time>
            <Position>
              <LatitudeDegrees>49.48293325491249561309814453125</LatitudeDegrees>
              <LongitudeDegrees>20.6828250177204608917236328125</LongitudeDegrees>
            </Position>
            <AltitudeMeters>343</AltitudeMeters>
            <DistanceMeters>NAN</DistanceMeters>
          </Trackpoint>
          <Trackpoint>
            <Time>2022-09-22T13:14:53.000Z</Time>
            <Position>
              <LatitudeDegrees>49.48283837176859378814697265625</LatitudeDegrees>
              <LongitudeDegrees>20.6827988661825656890869140625</LongitudeDegrees>
            </Position>
            <AltitudeMeters>343.20001220703125</AltitudeMeters>
            <DistanceMeters>NAN</DistanceMeters>
          </Trackpoint>
          <Trackpoint>
            <Time>2022-09-22T13:14:56.000Z</Time>
            <Position>
              <LatitudeDegrees>49.4827080331742763519287109375</LatitudeDegrees>
              <LongitudeDegrees>20.68277380429208278656005859375</LongitudeDegrees>
            </Position>
            <AltitudeMeters>343.399993896484375</AltitudeMeters>
            <DistanceMeters>NAN</DistanceMeters>
          </Trackpoint>
          <Trackpoint>
            <Time>2022-09-22T13:14:59.000Z</Time>
            <Position>
              <LatitudeDegrees>49.48259060271084308624267578125</LatitudeDegrees>
              <LongitudeDegrees>20.68277816288173198699951171875</LongitudeDegrees>
            </Position>
            <AltitudeMeters>343.79998779296875</AltitudeMeters>
            <DistanceMeters>NAN</DistanceMeters>
          </Trackpoint>
          <Trackpoint>
            <Time>2022-09-22T13:15:05.000Z</Time>
            <Position>
              <LatitudeDegrees>49.4823398999869823455810546875</LatitudeDegrees>
              <LongitudeDegrees>20.68279802799224853515625</LongitudeDegrees>
            </Position>
            <AltitudeMeters>344.20001220703125</AltitudeMeters>
            <DistanceMeters>NAN</DistanceMeters>
          </Trackpoint>
          <Trackpoint>
            <Time>2022-09-22T13:15:12.000Z</Time>
            <Position>
              <LatitudeDegrees>49.482052065432071685791015625</LatitudeDegrees>
              <LongitudeDegrees>20.68280464969575405120849609375</LongitudeDegrees>
            </Position>
            <AltitudeMeters>344.600006103515625</AltitudeMeters>
            <DistanceMeters>NAN</DistanceMeters>
          </Trackpoint>
          <Trackpoint>
            <Time>2022-09-22T13:15:19.000Z</Time>
            <Position>
              <LatitudeDegrees>49.4818168692290782928466796875</LatitudeDegrees>
              <LongitudeDegrees>20.682801045477390289306640625</LongitudeDegrees>
            </Position>
            <AltitudeMeters>344.79998779296875</AltitudeMeters>
            <DistanceMeters>NAN</DistanceMeters>
          </Trackpoint>
          <Trackpoint>
            <Time>2022-09-22T13:15:22.000Z</Time>
            <Position>
              <LatitudeDegrees>49.48171268217265605926513671875</LatitudeDegrees>
              <LongitudeDegrees>20.68280397914350032806396484375</LongitudeDegrees>
            </Position>
            <AltitudeMeters>344.79998779296875</AltitudeMeters>
            <DistanceMeters>NAN</DistanceMeters>
          </Trackpoint>
          <Trackpoint>
            <Time>2022-09-22T13:15:23.000Z</Time>
            <Position>
              <LatitudeDegrees>49.48167764581739902496337890625</LatitudeDegrees>
              <LongitudeDegrees>20.68280632607638835906982421875</LongitudeDegrees>
            </Position>
            <AltitudeMeters>345</AltitudeMeters>
            <DistanceMeters>NAN</DistanceMeters>
          </Trackpoint>
          <Trackpoint>
            <Time>2022-09-22T13:15:27.000Z</Time>
            <Position>
              <LatitudeDegrees>49.4815261848270893096923828125</LatitudeDegrees>
              <LongitudeDegrees>20.6828236766159534454345703125</LongitudeDegrees>
            </Position>
            <AltitudeMeters>345.20001220703125</AltitudeMeters>
            <DistanceMeters>NAN</DistanceMeters>
          </Trackpoint>
          <Trackpoint>
            <Time>2022-09-22T13:15:28.000Z</Time>
            <Position>
              <LatitudeDegrees>49.48149123229086399078369140625</LatitudeDegrees>
              <LongitudeDegrees>20.682820491492748260498046875</LongitudeDegrees>
            </Position>
            <AltitudeMeters>345.20001220703125</AltitudeMeters>
            <DistanceMeters>NAN</DistanceMeters>
          </Trackpoint>
          <Trackpoint>
            <Time>2022-09-22T13:15:30.000Z</Time>
            <Position>
              <LatitudeDegrees>49.48141981847584247589111328125</LatitudeDegrees>
              <LongitudeDegrees>20.68282409571111202239990234375</LongitudeDegrees>
            </Position>
            <AltitudeMeters>345.399993896484375</AltitudeMeters>
            <DistanceMeters>NAN</DistanceMeters>
          </Trackpoint>
          <Trackpoint>
            <Time>2022-09-22T13:15:35.000Z</Time>
            <Position>
              <LatitudeDegrees>49.48124907910823822021484375</LatitudeDegrees>
              <LongitudeDegrees>20.68283733911812305450439453125</LongitudeDegrees>
            </Position>
            <AltitudeMeters>345.79998779296875</AltitudeMeters>
            <DistanceMeters>NAN</DistanceMeters>
          </Trackpoint>
          <Trackpoint>
            <Time>2022-09-22T13:15:41.000Z</Time>
            <Position>
              <LatitudeDegrees>49.4810472428798675537109375</LatitudeDegrees>
              <LongitudeDegrees>20.68288226611912250518798828125</LongitudeDegrees>
            </Position>
            <AltitudeMeters>346.20001220703125</AltitudeMeters>
            <DistanceMeters>NAN</DistanceMeters>
          </Trackpoint>
          <Trackpoint>
            <Time>2022-09-22T13:15:42.000Z</Time>
            <Position>
              <LatitudeDegrees>49.481013715267181396484375</LatitudeDegrees>
              <LongitudeDegrees>20.6828959286212921142578125</LongitudeDegrees>
            </Position>
            <AltitudeMeters>346.399993896484375</AltitudeMeters>
            <DistanceMeters>NAN</DistanceMeters>
          </Trackpoint>
          <Trackpoint>
            <Time>2022-09-22T13:15:51.000Z</Time>
            <Position>
              <LatitudeDegrees>49.4807094521820545196533203125</LatitudeDegrees>
              <LongitudeDegrees>20.68301637656986713409423828125</LongitudeDegrees>
            </Position>
            <AltitudeMeters>346.20001220703125</AltitudeMeters>
            <DistanceMeters>NAN</DistanceMeters>
          </Trackpoint>
          <Trackpoint>
            <Time>2022-09-22T13:15:52.000Z</Time>
            <Position>
              <LatitudeDegrees>49.4806772656738758087158203125</LatitudeDegrees>
              <LongitudeDegrees>20.683033727109432220458984375</LongitudeDegrees>
            </Position>
            <AltitudeMeters>346.20001220703125</AltitudeMeters>
            <DistanceMeters>NAN</DistanceMeters>
          </Trackpoint>
          <Trackpoint>
            <Time>2022-09-22T13:16:00.000Z</Time>
            <Position>
              <LatitudeDegrees>49.4804056920111179351806640625</LatitudeDegrees>
              <LongitudeDegrees>20.6831867806613445281982421875</LongitudeDegrees>
            </Position>
            <AltitudeMeters>345.79998779296875</AltitudeMeters>
            <DistanceMeters>NAN</DistanceMeters>
          </Trackpoint>
          <Trackpoint>
            <Time>2022-09-22T13:16:01.000Z</Time>
            <Position>
              <LatitudeDegrees>49.48036654852330684661865234375</LatitudeDegrees>
              <LongitudeDegrees>20.68320983089506626129150390625</LongitudeDegrees>
            </Position>
            <AltitudeMeters>345.600006103515625</AltitudeMeters>
            <DistanceMeters>NAN</DistanceMeters>
          </Trackpoint>
          <Trackpoint>
            <Time>2022-09-22T13:16:05.000Z</Time>
            <Position>
              <LatitudeDegrees>49.4802018441259860992431640625</LatitudeDegrees>
              <LongitudeDegrees>20.683309324085712432861328125</LongitudeDegrees>
            </Position>
            <AltitudeMeters>345.600006103515625</AltitudeMeters>
            <DistanceMeters>NAN</DistanceMeters>
          </Trackpoint>
          <Trackpoint>
            <Time>2022-09-22T13:16:07.000Z</Time>
            <Position>
              <LatitudeDegrees>49.48012523353099822998046875</LatitudeDegrees>
              <LongitudeDegrees>20.683342181146144866943359375</LongitudeDegrees>
            </Position>
            <AltitudeMeters>345.600006103515625</AltitudeMeters>
            <DistanceMeters>NAN</DistanceMeters>
          </Trackpoint>
          <Trackpoint>
            <Time>2022-09-22T13:16:12.000Z</Time>
            <Position>
              <LatitudeDegrees>49.47993077337741851806640625</LatitudeDegrees>
              <LongitudeDegrees>20.68345508538186550140380859375</LongitudeDegrees>
            </Position>
            <AltitudeMeters>345.79998779296875</AltitudeMeters>
            <DistanceMeters>NAN</DistanceMeters>
          </Trackpoint>
          <Trackpoint>
            <Time>2022-09-22T13:16:18.000Z</Time>
            <Position>
              <LatitudeDegrees>49.47967328131198883056640625</LatitudeDegrees>
              <LongitudeDegrees>20.68361501209437847137451171875</LongitudeDegrees>
            </Position>
            <AltitudeMeters>346</AltitudeMeters>
            <DistanceMeters>NAN</DistanceMeters>
          </Trackpoint>
          <Trackpoint>
            <Time>2022-09-22T13:16:26.000Z</Time>
            <Position>
              <LatitudeDegrees>49.47938050143420696258544921875</LatitudeDegrees>
              <LongitudeDegrees>20.68378550000488758087158203125</LongitudeDegrees>
            </Position>
            <AltitudeMeters>346.399993896484375</AltitudeMeters>
            <DistanceMeters>NAN</DistanceMeters>
          </Trackpoint>
          <Trackpoint>
            <Time>2022-09-22T13:16:32.000Z</Time>
            <Position>
              <LatitudeDegrees>49.47918755002319812774658203125</LatitudeDegrees>
              <LongitudeDegrees>20.683906786143779754638671875</LongitudeDegrees>
            </Position>
            <AltitudeMeters>346</AltitudeMeters>
            <DistanceMeters>NAN</DistanceMeters>
          </Trackpoint>
          <Trackpoint>
            <Time>2022-09-22T13:16:36.000Z</Time>
            <Position>
              <LatitudeDegrees>49.47905637323856353759765625</LatitudeDegrees>
              <LongitudeDegrees>20.68398532457649707794189453125</LongitudeDegrees>
            </Position>
            <AltitudeMeters>345.79998779296875</AltitudeMeters>
            <DistanceMeters>NAN</DistanceMeters>
          </Trackpoint>
          <Trackpoint>
            <Time>2022-09-22T13:16:41.000Z</Time>
            <Position>
              <LatitudeDegrees>49.47889233939349651336669921875</LatitudeDegrees>
              <LongitudeDegrees>20.68410367704927921295166015625</LongitudeDegrees>
            </Position>
            <AltitudeMeters>346</AltitudeMeters>
            <DistanceMeters>NAN</DistanceMeters>
          </Trackpoint>
          <Trackpoint>
            <Time>2022-09-22T13:16:47.000Z</Time>
            <Position>
              <LatitudeDegrees>49.47872805409133434295654296875</LatitudeDegrees>
              <LongitudeDegrees>20.68423636257648468017578125</LongitudeDegrees>
            </Position>
            <AltitudeMeters>346</AltitudeMeters>
            <DistanceMeters>NAN</DistanceMeters>
          </Trackpoint>
          <Trackpoint>
            <Time>2022-09-22T13:16:54.000Z</Time>
            <Position>
              <LatitudeDegrees>49.47853074409067630767822265625</LatitudeDegrees>
              <LongitudeDegrees>20.68440131843090057373046875</LongitudeDegrees>
            </Position>
            <AltitudeMeters>346</AltitudeMeters>
            <DistanceMeters>NAN</DistanceMeters>
          </Trackpoint>
          <Trackpoint>
            <Time>2022-09-22T13:16:58.000Z</Time>
            <Position>
              <LatitudeDegrees>49.47839328087866306304931640625</LatitudeDegrees>
              <LongitudeDegrees>20.68449913524091243743896484375</LongitudeDegrees>
            </Position>
            <AltitudeMeters>346.20001220703125</AltitudeMeters>
            <DistanceMeters>NAN</DistanceMeters>
          </Trackpoint>
          <Trackpoint>
            <Time>2022-09-22T13:17:03.000Z</Time>
            <Position>
              <LatitudeDegrees>49.4782424904406070709228515625</LatitudeDegrees>
              <LongitudeDegrees>20.68461799062788486480712890625</LongitudeDegrees>
            </Position>
            <AltitudeMeters>346.399993896484375</AltitudeMeters>
            <DistanceMeters>NAN</DistanceMeters>
          </Trackpoint>
          <Trackpoint>
            <Time>2022-09-22T13:17:09.000Z</Time>
            <Position>
              <LatitudeDegrees>49.478069655597209930419921875</LatitudeDegrees>
              <LongitudeDegrees>20.68477557040750980377197265625</LongitudeDegrees>
            </Position>
            <AltitudeMeters>346.600006103515625</AltitudeMeters>
            <DistanceMeters>NAN</DistanceMeters>
          </Trackpoint>
          <Trackpoint>
            <Time>2022-09-22T13:17:12.000Z</Time>
            <Position>
              <LatitudeDegrees>49.47796630673110485076904296875</LatitudeDegrees>
              <LongitudeDegrees>20.684870369732379913330078125</LongitudeDegrees>
            </Position>
            <AltitudeMeters>346.600006103515625</AltitudeMeters>
            <DistanceMeters>NAN</DistanceMeters>
          </Trackpoint>
          <Trackpoint>
            <Time>2022-09-22T13:17:18.000Z</Time>
            <Position>
              <LatitudeDegrees>49.47777905501425266265869140625</LatitudeDegrees>
              <LongitudeDegrees>20.68504932336509227752685546875</LongitudeDegrees>
            </Position>
            <AltitudeMeters>346.79998779296875</AltitudeMeters>
            <DistanceMeters>NAN</DistanceMeters>
          </Trackpoint>
          <Trackpoint>
            <Time>2022-09-22T13:17:26.000Z</Time>
            <Position>
              <LatitudeDegrees>49.47757487185299396514892578125</LatitudeDegrees>
              <LongitudeDegrees>20.6852594576776027679443359375</LongitudeDegrees>
            </Position>
            <AltitudeMeters>347</AltitudeMeters>
            <DistanceMeters>NAN</DistanceMeters>
          </Trackpoint>
          <Trackpoint>
            <Time>2022-09-22T13:17:32.000Z</Time>
            <Position>
              <LatitudeDegrees>49.4773939065635204315185546875</LatitudeDegrees>
              <LongitudeDegrees>20.68544796667993068695068359375</LongitudeDegrees>
            </Position>
            <AltitudeMeters>347</AltitudeMeters>
            <DistanceMeters>NAN</DistanceMeters>
          </Trackpoint>
          <Trackpoint>
            <Time>2022-09-22T13:17:35.000Z</Time>
            <Position>
              <LatitudeDegrees>49.477289132773876190185546875</LatitudeDegrees>
              <LongitudeDegrees>20.68555424921214580535888671875</LongitudeDegrees>
            </Position>
            <AltitudeMeters>347</AltitudeMeters>
            <DistanceMeters>NAN</DistanceMeters>
          </Trackpoint>
          <Trackpoint>
            <Time>2022-09-22T13:17:42.000Z</Time>
            <Position>
              <LatitudeDegrees>49.4770566187798976898193359375</LatitudeDegrees>
              <LongitudeDegrees>20.68586370907723903656005859375</LongitudeDegrees>
            </Position>
            <AltitudeMeters>347</AltitudeMeters>
            <DistanceMeters>NAN</DistanceMeters>
          </Trackpoint>
          <Trackpoint>
            <Time>2022-09-22T13:17:49.000Z</Time>
            <Position>
              <LatitudeDegrees>49.47684531100094318389892578125</LatitudeDegrees>
              <LongitudeDegrees>20.68618942983448505401611328125</LongitudeDegrees>
            </Position>
            <AltitudeMeters>347.20001220703125</AltitudeMeters>
            <DistanceMeters>NAN</DistanceMeters>
          </Trackpoint>
          <Trackpoint>
            <Time>2022-09-22T13:17:50.000Z</Time>
            <Position>
              <LatitudeDegrees>49.476824104785919189453125</LatitudeDegrees>
              <LongitudeDegrees>20.68624106235802173614501953125</LongitudeDegrees>
            </Position>
            <AltitudeMeters>347.399993896484375</AltitudeMeters>
            <DistanceMeters>NAN</DistanceMeters>
          </Trackpoint>
          <Trackpoint>
            <Time>2022-09-22T13:17:51.000Z</Time>
            <Position>
              <LatitudeDegrees>49.476802647113800048828125</LatitudeDegrees>
              <LongitudeDegrees>20.68628448061645030975341796875</LongitudeDegrees>
            </Position>
            <AltitudeMeters>347.399993896484375</AltitudeMeters>
            <DistanceMeters>NAN</DistanceMeters>
          </Trackpoint>
          <Trackpoint>
            <Time>2022-09-22T13:17:54.000Z</Time>
            <Position>
              <LatitudeDegrees>49.47671991772949695587158203125</LatitudeDegrees>
              <LongitudeDegrees>20.68638523109257221221923828125</LongitudeDegrees>
            </Position>
            <AltitudeMeters>347.600006103515625</AltitudeMeters>
            <DistanceMeters>NAN</DistanceMeters>
          </Trackpoint>
          <Trackpoint>
            <Time>2022-09-22T13:18:02.000Z</Time>
            <Position>
              <LatitudeDegrees>49.476484470069408416748046875</LatitudeDegrees>
              <LongitudeDegrees>20.68668412975966930389404296875</LongitudeDegrees>
            </Position>
            <AltitudeMeters>347.79998779296875</AltitudeMeters>
            <DistanceMeters>NAN</DistanceMeters>
          </Trackpoint>
          <Trackpoint>
            <Time>2022-09-22T13:18:12.000Z</Time>
            <Position>
              <LatitudeDegrees>49.47617836296558380126953125</LatitudeDegrees>
              <LongitudeDegrees>20.68704991601407527923583984375</LongitudeDegrees>
            </Position>
            <AltitudeMeters>348.399993896484375</AltitudeMeters>
            <DistanceMeters>NAN</DistanceMeters>
          </Trackpoint>
          <Trackpoint>
            <Time>2022-09-22T13:18:18.000Z</Time>
            <Position>
              <LatitudeDegrees>49.47599605657160282135009765625</LatitudeDegrees>
              <LongitudeDegrees>20.68723146803677082061767578125</LongitudeDegrees>
            </Position>
            <AltitudeMeters>348.399993896484375</AltitudeMeters>
            <DistanceMeters>NAN</DistanceMeters>
          </Trackpoint>
          <Trackpoint>
            <Time>2022-09-22T13:18:21.000Z</Time>
            <Position>
              <LatitudeDegrees>49.47590075433254241943359375</LatitudeDegrees>
              <LongitudeDegrees>20.68732350133359432220458984375</LongitudeDegrees>
            </Position>
            <AltitudeMeters>349</AltitudeMeters>
            <DistanceMeters>NAN</DistanceMeters>
          </Trackpoint>
          <Trackpoint>
            <Time>2022-09-22T13:18:22.000Z</Time>
            <Position>
              <LatitudeDegrees>49.47586731053888797760009765625</LatitudeDegrees>
              <LongitudeDegrees>20.68735585547983646392822265625</LongitudeDegrees>
            </Position>
            <AltitudeMeters>349</AltitudeMeters>
            <DistanceMeters>NAN</DistanceMeters>
          </Trackpoint>
          <Trackpoint>
            <Time>2022-09-22T13:18:26.000Z</Time>
            <Position>
              <LatitudeDegrees>49.4757500477135181427001953125</LatitudeDegrees>
              <LongitudeDegrees>20.68747404031455516815185546875</LongitudeDegrees>
            </Position>
            <AltitudeMeters>349</AltitudeMeters>
            <DistanceMeters>NAN</DistanceMeters>
          </Trackpoint>
          <Trackpoint>
            <Time>2022-09-22T13:18:30.000Z</Time>
            <Position>
              <LatitudeDegrees>49.47564703412353992462158203125</LatitudeDegrees>
              <LongitudeDegrees>20.687590800225734710693359375</LongitudeDegrees>
            </Position>
            <AltitudeMeters>349</AltitudeMeters>
            <DistanceMeters>NAN</DistanceMeters>
          </Trackpoint>
          <Trackpoint>
            <Time>2022-09-22T13:18:36.000Z</Time>
            <Position>
              <LatitudeDegrees>49.47553991340100765228271484375</LatitudeDegrees>
              <LongitudeDegrees>20.687757097184658050537109375</LongitudeDegrees>
            </Position>
            <AltitudeMeters>348.600006103515625</AltitudeMeters>
            <DistanceMeters>NAN</DistanceMeters>
          </Trackpoint>
          <Trackpoint>
            <Time>2022-09-22T13:18:38.000Z</Time>
            <Position>
              <LatitudeDegrees>49.4755073077976703643798828125</LatitudeDegrees>
              <LongitudeDegrees>20.6878095678985118865966796875</LongitudeDegrees>
            </Position>
            <AltitudeMeters>348.600006103515625</AltitudeMeters>
            <DistanceMeters>NAN</DistanceMeters>
          </Trackpoint>
          <Trackpoint>
            <Time>2022-09-22T13:18:41.000Z</Time>
            <Position>
              <LatitudeDegrees>49.47545039467513561248779296875</LatitudeDegrees>
              <LongitudeDegrees>20.68790562450885772705078125</LongitudeDegrees>
            </Position>
            <AltitudeMeters>348.79998779296875</AltitudeMeters>
            <DistanceMeters>NAN</DistanceMeters>
          </Trackpoint>
          <Trackpoint>
            <Time>2022-09-22T13:18:42.000Z</Time>
            <Position>
              <LatitudeDegrees>49.4754301942884922027587890625</LatitudeDegrees>
              <LongitudeDegrees>20.6879436783492565155029296875</LongitudeDegrees>
            </Position>
            <AltitudeMeters>348.79998779296875</AltitudeMeters>
            <DistanceMeters>NAN</DistanceMeters>
          </Trackpoint>
          <Trackpoint>
            <Time>2022-09-22T13:18:44.000Z</Time>
            <Position>
              <LatitudeDegrees>49.4753849320113658905029296875</LatitudeDegrees>
              <LongitudeDegrees>20.6880135834217071533203125</LongitudeDegrees>
            </Position>
            <AltitudeMeters>348.79998779296875</AltitudeMeters>
            <DistanceMeters>NAN</DistanceMeters>
          </Trackpoint>
          <Trackpoint>
            <Time>2022-09-22T13:18:50.000Z</Time>
            <Position>
              <LatitudeDegrees>49.47527873329818248748779296875</LatitudeDegrees>
              <LongitudeDegrees>20.68823075853288173675537109375</LongitudeDegrees>
            </Position>
            <AltitudeMeters>349</AltitudeMeters>
            <DistanceMeters>NAN</DistanceMeters>
          </Trackpoint>
          <Trackpoint>
            <Time>2022-09-22T13:19:00.000Z</Time>
            <Position>
              <LatitudeDegrees>49.47508226148784160614013671875</LatitudeDegrees>
              <LongitudeDegrees>20.6885897554457187652587890625</LongitudeDegrees>
            </Position>
            <AltitudeMeters>349</AltitudeMeters>
            <DistanceMeters>NAN</DistanceMeters>
          </Trackpoint>
          <Trackpoint>
            <Time>2022-09-22T13:19:09.000Z</Time>
            <Position>
              <LatitudeDegrees>49.474885202944278717041015625</LatitudeDegrees>
              <LongitudeDegrees>20.68890885449945926666259765625</LongitudeDegrees>
            </Position>
            <AltitudeMeters>349.399993896484375</AltitudeMeters>
            <DistanceMeters>NAN</DistanceMeters>
          </Trackpoint>
          <Trackpoint>
            <Time>2022-09-22T13:19:15.000Z</Time>
            <Position>
              <LatitudeDegrees>49.47475654073059558868408203125</LatitudeDegrees>
              <LongitudeDegrees>20.68912745453417301177978515625</LongitudeDegrees>
            </Position>
            <AltitudeMeters>349.20001220703125</AltitudeMeters>
            <DistanceMeters>NAN</DistanceMeters>
          </Trackpoint>
          <Trackpoint>
            <Time>2022-09-22T13:19:18.000Z</Time>
            <Position>
              <LatitudeDegrees>49.4746831990778446197509765625</LatitudeDegrees>
              <LongitudeDegrees>20.68925972096621990203857421875</LongitudeDegrees>
            </Position>
            <AltitudeMeters>349</AltitudeMeters>
            <DistanceMeters>NAN</DistanceMeters>
          </Trackpoint>
          <Trackpoint>
            <Time>2022-09-22T13:19:20.000Z</Time>
            <Position>
              <LatitudeDegrees>49.47462729178369045257568359375</LatitudeDegrees>
              <LongitudeDegrees>20.6893546879291534423828125</LongitudeDegrees>
            </Position>
            <AltitudeMeters>349</AltitudeMeters>
            <DistanceMeters>NAN</DistanceMeters>
          </Trackpoint>
          <Trackpoint>
            <Time>2022-09-22T13:19:26.000Z</Time>
            <Position>
              <LatitudeDegrees>49.4744696281850337982177734375</LatitudeDegrees>
              <LongitudeDegrees>20.689618885517120361328125</LongitudeDegrees>
            </Position>
            <AltitudeMeters>349</AltitudeMeters>
            <DistanceMeters>NAN</DistanceMeters>
          </Trackpoint>
          <Trackpoint>
            <Time>2022-09-22T13:19:32.000Z</Time>
            <Position>
              <LatitudeDegrees>49.47432822547852993011474609375</LatitudeDegrees>
              <LongitudeDegrees>20.68986363708972930908203125</LongitudeDegrees>
            </Position>
            <AltitudeMeters>349</AltitudeMeters>
            <DistanceMeters>NAN</DistanceMeters>
          </Trackpoint>
          <Trackpoint>
            <Time>2022-09-22T13:19:38.000Z</Time>
            <Position>
              <LatitudeDegrees>49.47420618496835231781005859375</LatitudeDegrees>
              <LongitudeDegrees>20.6901075504720211029052734375</LongitudeDegrees>
            </Position>
            <AltitudeMeters>349</AltitudeMeters>
            <DistanceMeters>NAN</DistanceMeters>
          </Trackpoint>
          <Trackpoint>
            <Time>2022-09-22T13:19:40.000Z</Time>
            <Position>
              <LatitudeDegrees>49.47416662238538265228271484375</LatitudeDegrees>
              <LongitudeDegrees>20.690195895731449127197265625</LongitudeDegrees>
            </Position>
            <AltitudeMeters>349</AltitudeMeters>
            <DistanceMeters>NAN</DistanceMeters>
          </Trackpoint>
          <Trackpoint>
            <Time>2022-09-22T13:19:46.000Z</Time>
            <Position>
              <LatitudeDegrees>49.47404055856168270111083984375</LatitudeDegrees>
              <LongitudeDegrees>20.69046168588101863861083984375</LongitudeDegrees>
            </Position>
            <AltitudeMeters>349.399993896484375</AltitudeMeters>
            <DistanceMeters>NAN</DistanceMeters>
          </Trackpoint>
          <Trackpoint>
            <Time>2022-09-22T13:19:48.000Z</Time>
            <Position>
              <LatitudeDegrees>49.47400351054966449737548828125</LatitudeDegrees>
              <LongitudeDegrees>20.69053997285664081573486328125</LongitudeDegrees>
            </Position>
            <AltitudeMeters>349.399993896484375</AltitudeMeters>
            <DistanceMeters>NAN</DistanceMeters>
          </Trackpoint>
          <Trackpoint>
            <Time>2022-09-22T13:19:51.000Z</Time>
            <Position>
              <LatitudeDegrees>49.47394383139908313751220703125</LatitudeDegrees>
              <LongitudeDegrees>20.6906577385962009429931640625</LongitudeDegrees>
            </Position>
            <AltitudeMeters>349.600006103515625</AltitudeMeters>
            <DistanceMeters>NAN</DistanceMeters>
          </Trackpoint>
          <Trackpoint>
            <Time>2022-09-22T13:19:59.000Z</Time>
            <Position>
              <LatitudeDegrees>49.47376529686152935028076171875</LatitudeDegrees>
              <LongitudeDegrees>20.6910352595150470733642578125</LongitudeDegrees>
            </Position>
            <AltitudeMeters>349.79998779296875</AltitudeMeters>
            <DistanceMeters>NAN</DistanceMeters>
          </Trackpoint>
          <Trackpoint>
            <Time>2022-09-22T13:20:05.000Z</Time>
            <Position>
              <LatitudeDegrees>49.47364392690360546112060546875</LatitudeDegrees>
              <LongitudeDegrees>20.691335164010524749755859375</LongitudeDegrees>
            </Position>
            <AltitudeMeters>349.79998779296875</AltitudeMeters>
            <DistanceMeters>NAN</DistanceMeters>
          </Trackpoint>
          <Trackpoint>
            <Time>2022-09-22T13:20:12.000Z</Time>
            <Position>
              <LatitudeDegrees>49.47351618669927120208740234375</LatitudeDegrees>
              <LongitudeDegrees>20.69162786006927490234375</LongitudeDegrees>
            </Position>
            <AltitudeMeters>349.79998779296875</AltitudeMeters>
            <DistanceMeters>NAN</DistanceMeters>
          </Trackpoint>
          <Trackpoint>
            <Time>2022-09-22T13:20:15.000Z</Time>
            <Position>
              <LatitudeDegrees>49.4734604470431804656982421875</LatitudeDegrees>
              <LongitudeDegrees>20.69174797274172306060791015625</LongitudeDegrees>
            </Position>
            <AltitudeMeters>349.79998779296875</AltitudeMeters>
            <DistanceMeters>NAN</DistanceMeters>
          </Trackpoint>
          <Trackpoint>
            <Time>2022-09-22T13:20:18.000Z</Time>
            <Position>
              <LatitudeDegrees>49.473388195037841796875</LatitudeDegrees>
              <LongitudeDegrees>20.6918811611831188201904296875</LongitudeDegrees>
            </Position>
            <AltitudeMeters>349.79998779296875</AltitudeMeters>
            <DistanceMeters>NAN</DistanceMeters>
          </Trackpoint>
          <Trackpoint>
            <Time>2022-09-22T13:20:19.000Z</Time>
            <Position>
              <LatitudeDegrees>49.47336145676672458648681640625</LatitudeDegrees>
              <LongitudeDegrees>20.69193053059279918670654296875</LongitudeDegrees>
            </Position>
            <AltitudeMeters>349.79998779296875</AltitudeMeters>
            <DistanceMeters>NAN</DistanceMeters>
          </Trackpoint>
          <Trackpoint>
            <Time>2022-09-22T13:20:26.000Z</Time>
            <Position>
              <LatitudeDegrees>49.4732163660228252410888671875</LatitudeDegrees>
              <LongitudeDegrees>20.692247450351715087890625</LongitudeDegrees>
            </Position>
            <AltitudeMeters>350</AltitudeMeters>
            <DistanceMeters>NAN</DistanceMeters>
          </Trackpoint>
          <Trackpoint>
            <Time>2022-09-22T13:20:32.000Z</Time>
            <Position>
              <LatitudeDegrees>49.47310723364353179931640625</LatitudeDegrees>
              <LongitudeDegrees>20.69249295629560947418212890625</LongitudeDegrees>
            </Position>
            <AltitudeMeters>350</AltitudeMeters>
            <DistanceMeters>NAN</DistanceMeters>
          </Trackpoint>
          <Trackpoint>
            <Time>2022-09-22T13:20:41.000Z</Time>
            <Position>
              <LatitudeDegrees>49.47291051037609577178955078125</LatitudeDegrees>
              <LongitudeDegrees>20.69296896457672119140625</LongitudeDegrees>
            </Position>
            <AltitudeMeters>350.20001220703125</AltitudeMeters>
            <DistanceMeters>NAN</DistanceMeters>
          </Trackpoint>
          <Trackpoint>
            <Time>2022-09-22T13:20:44.000Z</Time>
            <Position>
              <LatitudeDegrees>49.472832977771759033203125</LatitudeDegrees>
              <LongitudeDegrees>20.69313769228756427764892578125</LongitudeDegrees>
            </Position>
            <AltitudeMeters>350</AltitudeMeters>
            <DistanceMeters>NAN</DistanceMeters>
          </Trackpoint>
          <Trackpoint>
            <Time>2022-09-22T13:20:47.000Z</Time>
            <Position>
              <LatitudeDegrees>49.47276684455573558807373046875</LatitudeDegrees>
              <LongitudeDegrees>20.693306587636470794677734375</LongitudeDegrees>
            </Position>
            <AltitudeMeters>350.20001220703125</AltitudeMeters>
            <DistanceMeters>NAN</DistanceMeters>
          </Trackpoint>
          <Trackpoint>
            <Time>2022-09-22T13:20:50.000Z</Time>
            <Position>
              <LatitudeDegrees>49.47271018289029598236083984375</LatitudeDegrees>
              <LongitudeDegrees>20.69345218129456043243408203125</LongitudeDegrees>
            </Position>
            <AltitudeMeters>350.20001220703125</AltitudeMeters>
            <DistanceMeters>NAN</DistanceMeters>
          </Trackpoint>
          <Trackpoint>
            <Time>2022-09-22T13:20:54.000Z</Time>
            <Position>
              <LatitudeDegrees>49.47261949069797992706298828125</LatitudeDegrees>
              <LongitudeDegrees>20.69362870417535305023193359375</LongitudeDegrees>
            </Position>
            <AltitudeMeters>350.399993896484375</AltitudeMeters>
            <DistanceMeters>NAN</DistanceMeters>
          </Trackpoint>
          <Trackpoint>
            <Time>2022-09-22T13:21:00.000Z</Time>
            <Position>
              <LatitudeDegrees>49.472503401339054107666015625</LatitudeDegrees>
              <LongitudeDegrees>20.6938931532204151153564453125</LongitudeDegrees>
            </Position>
            <AltitudeMeters>350.79998779296875</AltitudeMeters>
            <DistanceMeters>NAN</DistanceMeters>
          </Trackpoint>
          <Trackpoint>
            <Time>2022-09-22T13:21:01.000Z</Time>
            <Position>
              <LatitudeDegrees>49.47248487733304500579833984375</LatitudeDegrees>
              <LongitudeDegrees>20.69393430836498737335205078125</LongitudeDegrees>
            </Position>
            <AltitudeMeters>350.79998779296875</AltitudeMeters>
            <DistanceMeters>NAN</DistanceMeters>
          </Trackpoint>
          <Trackpoint>
            <Time>2022-09-22T13:21:06.000Z</Time>
            <Position>
              <LatitudeDegrees>49.47239720262587070465087890625</LatitudeDegrees>
              <LongitudeDegrees>20.69412809796631336212158203125</LongitudeDegrees>
            </Position>
            <AltitudeMeters>351.20001220703125</AltitudeMeters>
            <DistanceMeters>NAN</DistanceMeters>
          </Trackpoint>
          <Trackpoint>
            <Time>2022-09-22T13:21:11.000Z</Time>
            <Position>
              <LatitudeDegrees>49.4723292253911495208740234375</LatitudeDegrees>
              <LongitudeDegrees>20.69428517483174800872802734375</LongitudeDegrees>
            </Position>
            <AltitudeMeters>350.79998779296875</AltitudeMeters>
            <DistanceMeters>NAN</DistanceMeters>
          </Trackpoint>
          <Trackpoint>
            <Time>2022-09-22T13:21:13.000Z</Time>
            <Position>
              <LatitudeDegrees>49.47230969555675983428955078125</LatitudeDegrees>
              <LongitudeDegrees>20.69435323588550090789794921875</LongitudeDegrees>
            </Position>
            <AltitudeMeters>350.79998779296875</AltitudeMeters>
            <DistanceMeters>NAN</DistanceMeters>
          </Trackpoint>
          <Trackpoint>
            <Time>2022-09-22T13:21:17.000Z</Time>
            <Position>
              <LatitudeDegrees>49.47222973220050334930419921875</LatitudeDegrees>
              <LongitudeDegrees>20.6945003382861614227294921875</LongitudeDegrees>
            </Position>
            <AltitudeMeters>350.600006103515625</AltitudeMeters>
            <DistanceMeters>NAN</DistanceMeters>
          </Trackpoint>
          <Trackpoint>
            <Time>2022-09-22T13:21:24.000Z</Time>
            <Position>
              <LatitudeDegrees>49.4721340946853160858154296875</LatitudeDegrees>
              <LongitudeDegrees>20.6947504542768001556396484375</LongitudeDegrees>
            </Position>
            <AltitudeMeters>350.600006103515625</AltitudeMeters>
            <DistanceMeters>NAN</DistanceMeters>
          </Trackpoint>
          <Trackpoint>
            <Time>2022-09-22T13:21:27.000Z</Time>
            <Position>
              <LatitudeDegrees>49.47208103723824024200439453125</LatitudeDegrees>
              <LongitudeDegrees>20.69487291388213634490966796875</LongitudeDegrees>
            </Position>
            <AltitudeMeters>350.600006103515625</AltitudeMeters>
            <DistanceMeters>NAN</DistanceMeters>
          </Trackpoint>
          <Trackpoint>
            <Time>2022-09-22T13:21:30.000Z</Time>
            <Position>
              <LatitudeDegrees>49.47203594259917736053466796875</LatitudeDegrees>
              <LongitudeDegrees>20.6950042583048343658447265625</LongitudeDegrees>
            </Position>
            <AltitudeMeters>350.79998779296875</AltitudeMeters>
            <DistanceMeters>NAN</DistanceMeters>
          </Trackpoint>
          <Trackpoint>
            <Time>2022-09-22T13:21:31.000Z</Time>
            <Position>
              <LatitudeDegrees>49.47202404029667377471923828125</LatitudeDegrees>
              <LongitudeDegrees>20.69504968822002410888671875</LongitudeDegrees>
            </Position>
            <AltitudeMeters>351</AltitudeMeters>
            <DistanceMeters>NAN</DistanceMeters>
          </Trackpoint>
          <Trackpoint>
            <Time>2022-09-22T13:21:34.000Z</Time>
            <Position>
              <LatitudeDegrees>49.47197022847831249237060546875</LatitudeDegrees>
              <LongitudeDegrees>20.69515773095190525054931640625</LongitudeDegrees>
            </Position>
            <AltitudeMeters>351</AltitudeMeters>
            <DistanceMeters>NAN</DistanceMeters>
          </Trackpoint>
          <Trackpoint>
            <Time>2022-09-22T13:21:39.000Z</Time>
            <Position>
              <LatitudeDegrees>49.47187785990536212921142578125</LatitudeDegrees>
              <LongitudeDegrees>20.695345737040042877197265625</LongitudeDegrees>
            </Position>
            <AltitudeMeters>351</AltitudeMeters>
            <DistanceMeters>NAN</DistanceMeters>
          </Trackpoint>
          <Trackpoint>
            <Time>2022-09-22T13:21:46.000Z</Time>
            <Position>
              <LatitudeDegrees>49.47173905558884143829345703125</LatitudeDegrees>
              <LongitudeDegrees>20.69567103870213031768798828125</LongitudeDegrees>
            </Position>
            <AltitudeMeters>351</AltitudeMeters>
            <DistanceMeters>NAN</DistanceMeters>
          </Trackpoint>
          <Trackpoint>
            <Time>2022-09-22T13:21:52.000Z</Time>
            <Position>
              <LatitudeDegrees>49.47164232842624187469482421875</LatitudeDegrees>
              <LongitudeDegrees>20.69593708030879497528076171875</LongitudeDegrees>
            </Position>
            <AltitudeMeters>351.20001220703125</AltitudeMeters>
            <DistanceMeters>NAN</DistanceMeters>
          </Trackpoint>
          <Trackpoint>
            <Time>2022-09-22T13:21:53.000Z</Time>
            <Position>
              <LatitudeDegrees>49.47161433286964893341064453125</LatitudeDegrees>
              <LongitudeDegrees>20.69597714580595493316650390625</LongitudeDegrees>
            </Position>
            <AltitudeMeters>351.20001220703125</AltitudeMeters>
            <DistanceMeters>NAN</DistanceMeters>
          </Trackpoint>
          <Trackpoint>
            <Time>2022-09-22T13:21:54.000Z</Time>
            <Position>
              <LatitudeDegrees>49.471593797206878662109375</LatitudeDegrees>
              <LongitudeDegrees>20.6960107572376728057861328125</LongitudeDegrees>
            </Position>
            <AltitudeMeters>351.20001220703125</AltitudeMeters>
            <DistanceMeters>NAN</DistanceMeters>
          </Trackpoint>
          <Trackpoint>
            <Time>2022-09-22T13:21:56.000Z</Time>
            <Position>
              <LatitudeDegrees>49.4715554080903530120849609375</LatitudeDegrees>
              <LongitudeDegrees>20.69607563316822052001953125</LongitudeDegrees>
            </Position>
            <AltitudeMeters>351.399993896484375</AltitudeMeters>
            <DistanceMeters>NAN</DistanceMeters>
          </Trackpoint>
          <Trackpoint>
            <Time>2022-09-22T13:22:00.000Z</Time>
            <Position>
              <LatitudeDegrees>49.4714752770960330963134765625</LatitudeDegrees>
              <LongitudeDegrees>20.6962265074253082275390625</LongitudeDegrees>
            </Position>
            <AltitudeMeters>351.20001220703125</AltitudeMeters>
            <DistanceMeters>NAN</DistanceMeters>
          </Trackpoint>
          <Trackpoint>
            <Time>2022-09-22T13:22:05.000Z</Time>
            <Position>
              <LatitudeDegrees>49.47135650552809238433837890625</LatitudeDegrees>
              <LongitudeDegrees>20.6964560039341449737548828125</LongitudeDegrees>
            </Position>
            <AltitudeMeters>351.399993896484375</AltitudeMeters>
            <DistanceMeters>NAN</DistanceMeters>
          </Trackpoint>
          <Trackpoint>
            <Time>2022-09-22T13:22:12.000Z</Time>
            <Position>
              <LatitudeDegrees>49.47121627628803253173828125</LatitudeDegrees>
              <LongitudeDegrees>20.6967292539775371551513671875</LongitudeDegrees>
            </Position>
            <AltitudeMeters>351.399993896484375</AltitudeMeters>
            <DistanceMeters>NAN</DistanceMeters>
          </Trackpoint>
          <Trackpoint>
            <Time>2022-09-22T13:22:16.000Z</Time>
            <Position>
              <LatitudeDegrees>49.47113086469471454620361328125</LatitudeDegrees>
              <LongitudeDegrees>20.69687535054981708526611328125</LongitudeDegrees>
            </Position>
            <AltitudeMeters>351.399993896484375</AltitudeMeters>
            <DistanceMeters>NAN</DistanceMeters>
          </Trackpoint>
          <Trackpoint>
            <Time>2022-09-22T13:22:18.000Z</Time>
            <Position>
              <LatitudeDegrees>49.47108887135982513427734375</LatitudeDegrees>
              <LongitudeDegrees>20.69695548154413700103759765625</LongitudeDegrees>
            </Position>
            <AltitudeMeters>351.600006103515625</AltitudeMeters>
            <DistanceMeters>NAN</DistanceMeters>
          </Trackpoint>
          <Trackpoint>
            <Time>2022-09-22T13:22:20.000Z</Time>
            <Position>
              <LatitudeDegrees>49.471065737307071685791015625</LatitudeDegrees>
              <LongitudeDegrees>20.69699026644229888916015625</LongitudeDegrees>
            </Position>
            <AltitudeMeters>351.600006103515625</AltitudeMeters>
            <DistanceMeters>NAN</DistanceMeters>
          </Trackpoint>
          <Trackpoint>
            <Time>2022-09-22T13:22:22.000Z</Time>
            <Position>
              <LatitudeDegrees>49.471065737307071685791015625</LatitudeDegrees>
              <LongitudeDegrees>20.69699026644229888916015625</LongitudeDegrees>
            </Position>
            <AltitudeMeters>351.600006103515625</AltitudeMeters>
            <DistanceMeters>NAN</DistanceMeters>
          </Trackpoint>
          <Trackpoint>
            <Time>2022-09-22T13:22:33.000Z</Time>
            <Position>
              <LatitudeDegrees>49.47105559520423412322998046875</LatitudeDegrees>
              <LongitudeDegrees>20.6970075331628322601318359375</LongitudeDegrees>
            </Position>
            <AltitudeMeters>351.600006103515625</AltitudeMeters>
            <DistanceMeters>NAN</DistanceMeters>
          </Trackpoint>
          <Trackpoint>
            <Time>2022-09-22T13:22:42.000Z</Time>
            <Position>
              <LatitudeDegrees>49.47105559520423412322998046875</LatitudeDegrees>
              <LongitudeDegrees>20.6970075331628322601318359375</LongitudeDegrees>
            </Position>
            <AltitudeMeters>351.600006103515625</AltitudeMeters>
            <DistanceMeters>NAN</DistanceMeters>
          </Trackpoint>
          <Trackpoint>
            <Time>2022-09-22T13:22:49.000Z</Time>
            <Position>
              <LatitudeDegrees>49.47105559520423412322998046875</LatitudeDegrees>
              <LongitudeDegrees>20.6970075331628322601318359375</LongitudeDegrees>
            </Position>
            <AltitudeMeters>351.600006103515625</AltitudeMeters>
            <DistanceMeters>NAN</DistanceMeters>
          </Trackpoint>
          <Trackpoint>
            <Time>2022-09-22T13:22:55.000Z</Time>
            <Position>
              <LatitudeDegrees>49.47105559520423412322998046875</LatitudeDegrees>
              <LongitudeDegrees>20.6970075331628322601318359375</LongitudeDegrees>
            </Position>
            <AltitudeMeters>351.600006103515625</AltitudeMeters>
            <DistanceMeters>NAN</DistanceMeters>
          </Trackpoint>
          <Trackpoint>
            <Time>2022-09-22T13:23:04.000Z</Time>
            <Position>
              <LatitudeDegrees>49.471050985157489776611328125</LatitudeDegrees>
              <LongitudeDegrees>20.6970150768756866455078125</LongitudeDegrees>
            </Position>
            <AltitudeMeters>351.600006103515625</AltitudeMeters>
            <DistanceMeters>NAN</DistanceMeters>
          </Trackpoint>
          <Trackpoint>
            <Time>2022-09-22T13:23:21.000Z</Time>
            <Position>
              <LatitudeDegrees>49.47105056606233119964599609375</LatitudeDegrees>
              <LongitudeDegrees>20.69701532833278179168701171875</LongitudeDegrees>
            </Position>
            <AltitudeMeters>351.600006103515625</AltitudeMeters>
            <DistanceMeters>NAN</DistanceMeters>
          </Trackpoint>
          <Trackpoint>
            <Time>2022-09-22T13:23:25.000Z</Time>
            <Position>
              <LatitudeDegrees>49.47105056606233119964599609375</LatitudeDegrees>
              <LongitudeDegrees>20.69701532833278179168701171875</LongitudeDegrees>
            </Position>
            <AltitudeMeters>351.600006103515625</AltitudeMeters>
            <DistanceMeters>NAN</DistanceMeters>
          </Trackpoint>
          <Trackpoint>
            <Time>2022-09-22T13:23:46.000Z</Time>
            <Position>
              <LatitudeDegrees>49.47103950195014476776123046875</LatitudeDegrees>
              <LongitudeDegrees>20.697032846510410308837890625</LongitudeDegrees>
            </Position>
            <AltitudeMeters>351.600006103515625</AltitudeMeters>
            <DistanceMeters>NAN</DistanceMeters>
          </Trackpoint>
          <Trackpoint>
            <Time>2022-09-22T13:23:49.000Z</Time>
            <Position>
              <LatitudeDegrees>49.47099926881492137908935546875</LatitudeDegrees>
              <LongitudeDegrees>20.69711423479020595550537109375</LongitudeDegrees>
            </Position>
            <AltitudeMeters>351.600006103515625</AltitudeMeters>
            <DistanceMeters>NAN</DistanceMeters>
          </Trackpoint>
          <Trackpoint>
            <Time>2022-09-22T13:23:53.000Z</Time>
            <Position>
              <LatitudeDegrees>49.470910839736461639404296875</LatitudeDegrees>
              <LongitudeDegrees>20.6972445733845233917236328125</LongitudeDegrees>
            </Position>
            <AltitudeMeters>351.79998779296875</AltitudeMeters>
            <DistanceMeters>NAN</DistanceMeters>
          </Trackpoint>
          <Trackpoint>
            <Time>2022-09-22T13:23:54.000Z</Time>
            <Position>
              <LatitudeDegrees>49.470880329608917236328125</LatitudeDegrees>
              <LongitudeDegrees>20.69728136993944644927978515625</LongitudeDegrees>
            </Position>
            <AltitudeMeters>351.79998779296875</AltitudeMeters>
            <DistanceMeters>NAN</DistanceMeters>
          </Trackpoint>
          <Trackpoint>
            <Time>2022-09-22T13:24:01.000Z</Time>
            <Position>
              <LatitudeDegrees>49.47074278257787227630615234375</LatitudeDegrees>
              <LongitudeDegrees>20.6975248642265796661376953125</LongitudeDegrees>
            </Position>
            <AltitudeMeters>351.79998779296875</AltitudeMeters>
            <DistanceMeters>NAN</DistanceMeters>
          </Trackpoint>
          <Trackpoint>
            <Time>2022-09-22T13:24:05.000Z</Time>
            <Position>
              <LatitudeDegrees>49.4706649146974086761474609375</LatitudeDegrees>
              <LongitudeDegrees>20.6976428814232349395751953125</LongitudeDegrees>
            </Position>
            <AltitudeMeters>352</AltitudeMeters>
            <DistanceMeters>NAN</DistanceMeters>
          </Trackpoint>
          <Trackpoint>
            <Time>2022-09-22T13:24:09.000Z</Time>
            <Position>
              <LatitudeDegrees>49.47059132158756256103515625</LatitudeDegrees>
              <LongitudeDegrees>20.6977595575153827667236328125</LongitudeDegrees>
            </Position>
            <AltitudeMeters>352</AltitudeMeters>
            <DistanceMeters>NAN</DistanceMeters>
          </Trackpoint>
          <Trackpoint>
            <Time>2022-09-22T13:24:11.000Z</Time>
            <Position>
              <LatitudeDegrees>49.47058520279824733734130859375</LatitudeDegrees>
              <LongitudeDegrees>20.6978237628936767578125</LongitudeDegrees>
            </Position>
            <AltitudeMeters>352</AltitudeMeters>
            <DistanceMeters>NAN</DistanceMeters>
          </Trackpoint>
          <Trackpoint>
            <Time>2022-09-22T13:24:13.000Z</Time>
            <Position>
              <LatitudeDegrees>49.4706203229725360870361328125</LatitudeDegrees>
              <LongitudeDegrees>20.69786332547664642333984375</LongitudeDegrees>
            </Position>
            <AltitudeMeters>351.79998779296875</AltitudeMeters>
            <DistanceMeters>NAN</DistanceMeters>
          </Trackpoint>
          <Trackpoint>
            <Time>2022-09-22T13:24:14.000Z</Time>
            <Position>
              <LatitudeDegrees>49.4706273637712001800537109375</LatitudeDegrees>
              <LongitudeDegrees>20.6978465616703033447265625</LongitudeDegrees>
            </Position>
            <AltitudeMeters>352</AltitudeMeters>
            <DistanceMeters>NAN</DistanceMeters>
          </Trackpoint>
          <Trackpoint>
            <Time>2022-09-22T13:24:16.000Z</Time>
            <Position>
              <LatitudeDegrees>49.4706464745104312896728515625</LatitudeDegrees>
              <LongitudeDegrees>20.69779316894710063934326171875</LongitudeDegrees>
            </Position>
            <AltitudeMeters>352.20001220703125</AltitudeMeters>
            <DistanceMeters>NAN</DistanceMeters>
          </Trackpoint>
          <Trackpoint>
            <Time>2022-09-22T13:24:18.000Z</Time>
            <Position>
              <LatitudeDegrees>49.47066801600158214569091796875</LatitudeDegrees>
              <LongitudeDegrees>20.69776115007698535919189453125</LongitudeDegrees>
            </Position>
            <AltitudeMeters>352.600006103515625</AltitudeMeters>
            <DistanceMeters>NAN</DistanceMeters>
          </Trackpoint>
          <Trackpoint>
            <Time>2022-09-22T13:24:19.000Z</Time>
            <Position>
              <LatitudeDegrees>49.4706756435334682464599609375</LatitudeDegrees>
              <LongitudeDegrees>20.69776182062923908233642578125</LongitudeDegrees>
            </Position>
            <AltitudeMeters>352.79998779296875</AltitudeMeters>
            <DistanceMeters>NAN</DistanceMeters>
          </Trackpoint>
          <Trackpoint>
            <Time>2022-09-22T13:24:25.000Z</Time>
            <Position>
              <LatitudeDegrees>49.47067354805767536163330078125</LatitudeDegrees>
              <LongitudeDegrees>20.69774304516613483428955078125</LongitudeDegrees>
            </Position>
            <AltitudeMeters>353</AltitudeMeters>
            <DistanceMeters>NAN</DistanceMeters>
          </Trackpoint>
          <Trackpoint>
            <Time>2022-09-22T13:24:31.000Z</Time>
            <Position>
              <LatitudeDegrees>49.47070422582328319549560546875</LatitudeDegrees>
              <LongitudeDegrees>20.69772183895111083984375</LongitudeDegrees>
            </Position>
            <AltitudeMeters>353.399993896484375</AltitudeMeters>
            <DistanceMeters>NAN</DistanceMeters>
          </Trackpoint>
          <Trackpoint>
            <Time>2022-09-22T13:24:34.000Z</Time>
            <Position>
              <LatitudeDegrees>49.470709003508090972900390625</LatitudeDegrees>
              <LongitudeDegrees>20.69771580398082733154296875</LongitudeDegrees>
            </Position>
            <AltitudeMeters>353.600006103515625</AltitudeMeters>
            <DistanceMeters>NAN</DistanceMeters>
          </Trackpoint>
          <Trackpoint>
            <Time>2022-09-22T13:24:35.000Z</Time>
            <Position>
              <LatitudeDegrees>49.47071126662194728851318359375</LatitudeDegrees>
              <LongitudeDegrees>20.69771018810570240020751953125</LongitudeDegrees>
            </Position>
            <AltitudeMeters>353.79998779296875</AltitudeMeters>
            <DistanceMeters>NAN</DistanceMeters>
          </Trackpoint>
          <Trackpoint>
            <Time>2022-09-22T13:24:36.000Z</Time>
            <Position>
              <LatitudeDegrees>49.470722414553165435791015625</LatitudeDegrees>
              <LongitudeDegrees>20.6976945139467716217041015625</LongitudeDegrees>
            </Position>
            <AltitudeMeters>354</AltitudeMeters>
            <DistanceMeters>NAN</DistanceMeters>
          </Trackpoint>
          <Trackpoint>
            <Time>2022-09-22T13:24:38.000Z</Time>
            <Position>
              <LatitudeDegrees>49.47074445895850658416748046875</LatitudeDegrees>
              <LongitudeDegrees>20.697678588330745697021484375</LongitudeDegrees>
            </Position>
            <AltitudeMeters>354.20001220703125</AltitudeMeters>
            <DistanceMeters>NAN</DistanceMeters>
          </Trackpoint>
          <Trackpoint>
            <Time>2022-09-22T13:24:41.000Z</Time>
            <Position>
              <LatitudeDegrees>49.47076742537319660186767578125</LatitudeDegrees>
              <LongitudeDegrees>20.6976346671581268310546875</LongitudeDegrees>
            </Position>
            <AltitudeMeters>354.399993896484375</AltitudeMeters>
            <DistanceMeters>NAN</DistanceMeters>
          </Trackpoint>
          <Trackpoint>
            <Time>2022-09-22T13:24:42.000Z</Time>
            <Position>
              <LatitudeDegrees>49.4707717001438140869140625</LatitudeDegrees>
              <LongitudeDegrees>20.6976163946092128753662109375</LongitudeDegrees>
            </Position>
            <AltitudeMeters>354.399993896484375</AltitudeMeters>
            <DistanceMeters>NAN</DistanceMeters>
          </Trackpoint>
          <Trackpoint>
            <Time>2022-09-22T13:24:44.000Z</Time>
            <Position>
              <LatitudeDegrees>49.4707889668643474578857421875</LatitudeDegrees>
              <LongitudeDegrees>20.69756970740854740142822265625</LongitudeDegrees>
            </Position>
            <AltitudeMeters>354.79998779296875</AltitudeMeters>
            <DistanceMeters>NAN</DistanceMeters>
          </Trackpoint>
          <Trackpoint>
            <Time>2022-09-22T13:24:45.000Z</Time>
            <Position>
              <LatitudeDegrees>49.47079709731042385101318359375</LatitudeDegrees>
              <LongitudeDegrees>20.69756031967699527740478515625</LongitudeDegrees>
            </Position>
            <AltitudeMeters>354.79998779296875</AltitudeMeters>
            <DistanceMeters>NAN</DistanceMeters>
          </Trackpoint>
          <Trackpoint>
            <Time>2022-09-22T13:24:46.000Z</Time>
            <Position>
              <LatitudeDegrees>49.47080112062394618988037109375</LatitudeDegrees>
              <LongitudeDegrees>20.6975433044135570526123046875</LongitudeDegrees>
            </Position>
            <AltitudeMeters>354.79998779296875</AltitudeMeters>
            <DistanceMeters>NAN</DistanceMeters>
          </Trackpoint>
          <Trackpoint>
            <Time>2022-09-22T13:24:49.000Z</Time>
            <Position>
              <LatitudeDegrees>49.4708141125738620758056640625</LatitudeDegrees>
              <LongitudeDegrees>20.6975191645324230194091796875</LongitudeDegrees>
            </Position>
            <AltitudeMeters>355.20001220703125</AltitudeMeters>
            <DistanceMeters>NAN</DistanceMeters>
          </Trackpoint>
          <Trackpoint>
            <Time>2022-09-22T13:24:52.000Z</Time>
            <Position>
              <LatitudeDegrees>49.4708245061337947845458984375</LatitudeDegrees>
              <LongitudeDegrees>20.69748253561556339263916015625</LongitudeDegrees>
            </Position>
            <AltitudeMeters>355.600006103515625</AltitudeMeters>
            <DistanceMeters>NAN</DistanceMeters>
          </Trackpoint>
          <Trackpoint>
            <Time>2022-09-22T13:24:53.000Z</Time>
            <Position>
              <LatitudeDegrees>49.470832385122776031494140625</LatitudeDegrees>
              <LongitudeDegrees>20.69747264496982097625732421875</LongitudeDegrees>
            </Position>
            <AltitudeMeters>355.600006103515625</AltitudeMeters>
            <DistanceMeters>NAN</DistanceMeters>
          </Trackpoint>
          <Trackpoint>
            <Time>2022-09-22T13:24:55.000Z</Time>
            <Position>
              <LatitudeDegrees>49.4708399288356304168701171875</LatitudeDegrees>
              <LongitudeDegrees>20.697468034923076629638671875</LongitudeDegrees>
            </Position>
            <AltitudeMeters>355.79998779296875</AltitudeMeters>
            <DistanceMeters>NAN</DistanceMeters>
          </Trackpoint>
          <Trackpoint>
            <Time>2022-09-22T13:24:58.000Z</Time>
            <Position>
              <LatitudeDegrees>49.4708399288356304168701171875</LatitudeDegrees>
              <LongitudeDegrees>20.697468034923076629638671875</LongitudeDegrees>
            </Position>
            <AltitudeMeters>356.20001220703125</AltitudeMeters>
            <DistanceMeters>NAN</DistanceMeters>
          </Trackpoint>
          <Trackpoint>
            <Time>2022-09-22T13:25:01.000Z</Time>
            <Position>
              <LatitudeDegrees>49.47085283696651458740234375</LatitudeDegrees>
              <LongitudeDegrees>20.6974645145237445831298828125</LongitudeDegrees>
            </Position>
            <AltitudeMeters>356.20001220703125</AltitudeMeters>
            <DistanceMeters>NAN</DistanceMeters>
          </Trackpoint>
          <Trackpoint>
            <Time>2022-09-22T13:25:06.000Z</Time>
            <Position>
              <LatitudeDegrees>49.47088661603629589080810546875</LatitudeDegrees>
              <LongitudeDegrees>20.69743308238685131072998046875</LongitudeDegrees>
            </Position>
            <AltitudeMeters>356.79998779296875</AltitudeMeters>
            <DistanceMeters>NAN</DistanceMeters>
          </Trackpoint>
          <Trackpoint>
            <Time>2022-09-22T13:25:07.000Z</Time>
            <Position>
              <LatitudeDegrees>49.47088996879756450653076171875</LatitudeDegrees>
              <LongitudeDegrees>20.6974296458065509796142578125</LongitudeDegrees>
            </Position>
            <AltitudeMeters>356.79998779296875</AltitudeMeters>
            <DistanceMeters>NAN</DistanceMeters>
          </Trackpoint>
          <Trackpoint>
            <Time>2022-09-22T13:25:16.000Z</Time>
            <Position>
              <LatitudeDegrees>49.47088996879756450653076171875</LatitudeDegrees>
              <LongitudeDegrees>20.6974296458065509796142578125</LongitudeDegrees>
            </Position>
            <AltitudeMeters>357.600006103515625</AltitudeMeters>
            <DistanceMeters>NAN</DistanceMeters>
          </Trackpoint>
          <Trackpoint>
            <Time>2022-09-22T13:25:20.000Z</Time>
            <Position>
              <LatitudeDegrees>49.47088996879756450653076171875</LatitudeDegrees>
              <LongitudeDegrees>20.6974296458065509796142578125</LongitudeDegrees>
            </Position>
            <AltitudeMeters>357.600006103515625</AltitudeMeters>
            <DistanceMeters>NAN</DistanceMeters>
          </Trackpoint>
          <Trackpoint>
            <Time>2022-09-22T13:25:23.000Z</Time>
            <Position>
              <LatitudeDegrees>49.47089952416718006134033203125</LatitudeDegrees>
              <LongitudeDegrees>20.69741749204695224761962890625</LongitudeDegrees>
            </Position>
            <AltitudeMeters>357.79998779296875</AltitudeMeters>
            <DistanceMeters>NAN</DistanceMeters>
          </Trackpoint>
          <Trackpoint>
            <Time>2022-09-22T13:25:25.000Z</Time>
            <Position>
              <LatitudeDegrees>49.47089952416718006134033203125</LatitudeDegrees>
              <LongitudeDegrees>20.69741749204695224761962890625</LongitudeDegrees>
            </Position>
            <AltitudeMeters>358</AltitudeMeters>
            <DistanceMeters>NAN</DistanceMeters>
          </Trackpoint>
          <Trackpoint>
            <Time>2022-09-22T13:25:33.000Z</Time>
            <Position>
              <LatitudeDegrees>49.470960795879364013671875</LatitudeDegrees>
              <LongitudeDegrees>20.69735898636281490325927734375</LongitudeDegrees>
            </Position>
            <AltitudeMeters>358.79998779296875</AltitudeMeters>
            <DistanceMeters>NAN</DistanceMeters>
          </Trackpoint>
          <Trackpoint>
            <Time>2022-09-22T13:25:34.000Z</Time>
            <Position>
              <LatitudeDegrees>49.47096976451575756072998046875</LatitudeDegrees>
              <LongitudeDegrees>20.697349347174167633056640625</LongitudeDegrees>
            </Position>
            <AltitudeMeters>358.79998779296875</AltitudeMeters>
            <DistanceMeters>NAN</DistanceMeters>
          </Trackpoint>
          <Trackpoint>
            <Time>2022-09-22T13:25:43.000Z</Time>
            <Position>
              <LatitudeDegrees>49.47105224244296550750732421875</LatitudeDegrees>
              <LongitudeDegrees>20.697278939187526702880859375</LongitudeDegrees>
            </Position>
            <AltitudeMeters>359.79998779296875</AltitudeMeters>
            <DistanceMeters>NAN</DistanceMeters>
          </Trackpoint>
          <Trackpoint>
            <Time>2022-09-22T13:25:46.000Z</Time>
            <Position>
              <LatitudeDegrees>49.47107587940990924835205078125</LatitudeDegrees>
              <LongitudeDegrees>20.69726175628602504730224609375</LongitudeDegrees>
            </Position>
            <AltitudeMeters>360</AltitudeMeters>
            <DistanceMeters>NAN</DistanceMeters>
          </Trackpoint>
          <Trackpoint>
            <Time>2022-09-22T13:25:52.000Z</Time>
            <Position>
              <LatitudeDegrees>49.47110538370907306671142578125</LatitudeDegrees>
              <LongitudeDegrees>20.6972355209290981292724609375</LongitudeDegrees>
            </Position>
            <AltitudeMeters>360</AltitudeMeters>
            <DistanceMeters>NAN</DistanceMeters>
          </Trackpoint>
          <Trackpoint>
            <Time>2022-09-22T13:26:04.000Z</Time>
            <Position>
              <LatitudeDegrees>49.47110538370907306671142578125</LatitudeDegrees>
              <LongitudeDegrees>20.6972355209290981292724609375</LongitudeDegrees>
            </Position>
            <AltitudeMeters>360</AltitudeMeters>
            <DistanceMeters>NAN</DistanceMeters>
          </Trackpoint>
          <Trackpoint>
            <Time>2022-09-22T13:26:21.000Z</Time>
            <Position>
              <LatitudeDegrees>49.47110538370907306671142578125</LatitudeDegrees>
              <LongitudeDegrees>20.6972355209290981292724609375</LongitudeDegrees>
            </Position>
            <AltitudeMeters>360</AltitudeMeters>
            <DistanceMeters>NAN</DistanceMeters>
          </Trackpoint>
          <Trackpoint>
            <Time>2022-09-22T13:26:38.000Z</Time>
            <Position>
              <LatitudeDegrees>49.47110538370907306671142578125</LatitudeDegrees>
              <LongitudeDegrees>20.6972355209290981292724609375</LongitudeDegrees>
            </Position>
            <AltitudeMeters>360</AltitudeMeters>
            <DistanceMeters>NAN</DistanceMeters>
          </Trackpoint>
          <Trackpoint>
            <Time>2022-09-22T13:26:40.000Z</Time>
            <Position>
              <LatitudeDegrees>49.47110538370907306671142578125</LatitudeDegrees>
              <LongitudeDegrees>20.6972355209290981292724609375</LongitudeDegrees>
            </Position>
            <AltitudeMeters>360</AltitudeMeters>
            <DistanceMeters>NAN</DistanceMeters>
          </Trackpoint>
          <Trackpoint>
            <Time>2022-09-22T13:26:43.000Z</Time>
            <Position>
              <LatitudeDegrees>49.47110538370907306671142578125</LatitudeDegrees>
              <LongitudeDegrees>20.6972355209290981292724609375</LongitudeDegrees>
            </Position>
            <AltitudeMeters>360</AltitudeMeters>
            <DistanceMeters>NAN</DistanceMeters>
          </Trackpoint>
          <Trackpoint>
            <Time>2022-09-22T13:27:01.000Z</Time>
            <Position>
              <LatitudeDegrees>49.47110538370907306671142578125</LatitudeDegrees>
              <LongitudeDegrees>20.6972355209290981292724609375</LongitudeDegrees>
            </Position>
            <AltitudeMeters>360</AltitudeMeters>
            <DistanceMeters>NAN</DistanceMeters>
          </Trackpoint>
          <Trackpoint>
            <Time>2022-09-22T13:27:09.000Z</Time>
            <Position>
              <LatitudeDegrees>49.47110538370907306671142578125</LatitudeDegrees>
              <LongitudeDegrees>20.6972355209290981292724609375</LongitudeDegrees>
            </Position>
            <AltitudeMeters>359.79998779296875</AltitudeMeters>
            <DistanceMeters>NAN</DistanceMeters>
          </Trackpoint>
          <Trackpoint>
            <Time>2022-09-22T13:27:33.000Z</Time>
            <Position>
              <LatitudeDegrees>49.47110538370907306671142578125</LatitudeDegrees>
              <LongitudeDegrees>20.6972355209290981292724609375</LongitudeDegrees>
            </Position>
            <AltitudeMeters>359.79998779296875</AltitudeMeters>
            <DistanceMeters>NAN</DistanceMeters>
          </Trackpoint>
          <Trackpoint>
            <Time>2022-09-22T13:27:40.000Z</Time>
            <Position>
              <LatitudeDegrees>49.47110538370907306671142578125</LatitudeDegrees>
              <LongitudeDegrees>20.6972355209290981292724609375</LongitudeDegrees>
            </Position>
            <AltitudeMeters>359.79998779296875</AltitudeMeters>
            <DistanceMeters>NAN</DistanceMeters>
          </Trackpoint>
          <Trackpoint>
            <Time>2022-09-22T13:27:52.000Z</Time>
            <Position>
              <LatitudeDegrees>49.47110538370907306671142578125</LatitudeDegrees>
              <LongitudeDegrees>20.6972355209290981292724609375</LongitudeDegrees>
            </Position>
            <AltitudeMeters>359.79998779296875</AltitudeMeters>
            <DistanceMeters>NAN</DistanceMeters>
          </Trackpoint>
          <Trackpoint>
            <Time>2022-09-22T13:28:00.000Z</Time>
            <Position>
              <LatitudeDegrees>49.47110538370907306671142578125</LatitudeDegrees>
              <LongitudeDegrees>20.6972355209290981292724609375</LongitudeDegrees>
            </Position>
            <AltitudeMeters>359.79998779296875</AltitudeMeters>
            <DistanceMeters>NAN</DistanceMeters>
          </Trackpoint>
          <Trackpoint>
            <Time>2022-09-22T13:28:04.000Z</Time>
            <Position>
              <LatitudeDegrees>49.47110538370907306671142578125</LatitudeDegrees>
              <LongitudeDegrees>20.6972355209290981292724609375</LongitudeDegrees>
            </Position>
            <AltitudeMeters>359.79998779296875</AltitudeMeters>
            <DistanceMeters>NAN</DistanceMeters>
          </Trackpoint>
          <Trackpoint>
            <Time>2022-09-22T13:28:15.000Z</Time>
            <Position>
              <LatitudeDegrees>49.47110538370907306671142578125</LatitudeDegrees>
              <LongitudeDegrees>20.6972355209290981292724609375</LongitudeDegrees>
            </Position>
            <AltitudeMeters>359.79998779296875</AltitudeMeters>
            <DistanceMeters>NAN</DistanceMeters>
          </Trackpoint>
          <Trackpoint>
            <Time>2022-09-22T13:28:22.000Z</Time>
            <Position>
              <LatitudeDegrees>49.47110538370907306671142578125</LatitudeDegrees>
              <LongitudeDegrees>20.6972355209290981292724609375</LongitudeDegrees>
            </Position>
            <AltitudeMeters>359.79998779296875</AltitudeMeters>
            <DistanceMeters>NAN</DistanceMeters>
          </Trackpoint>
          <Trackpoint>
            <Time>2022-09-22T13:28:39.000Z</Time>
            <Position>
              <LatitudeDegrees>49.47110655717551708221435546875</LatitudeDegrees>
              <LongitudeDegrees>20.69724147208034992218017578125</LongitudeDegrees>
            </Position>
            <AltitudeMeters>359.79998779296875</AltitudeMeters>
            <DistanceMeters>NAN</DistanceMeters>
          </Trackpoint>
          <Trackpoint>
            <Time>2022-09-22T13:28:46.000Z</Time>
            <Position>
              <LatitudeDegrees>49.47110739536583423614501953125</LatitudeDegrees>
              <LongitudeDegrees>20.69724415428936481475830078125</LongitudeDegrees>
            </Position>
            <AltitudeMeters>359.79998779296875</AltitudeMeters>
            <DistanceMeters>NAN</DistanceMeters>
          </Trackpoint>
          <Trackpoint>
            <Time>2022-09-22T13:28:48.000Z</Time>
            <Position>
              <LatitudeDegrees>49.4711074791848659515380859375</LatitudeDegrees>
              <LongitudeDegrees>20.6972444057464599609375</LongitudeDegrees>
            </Position>
            <AltitudeMeters>359.79998779296875</AltitudeMeters>
            <DistanceMeters>NAN</DistanceMeters>
          </Trackpoint>
          <Trackpoint>
            <Time>2022-09-22T13:29:06.000Z</Time>
            <Position>
              <LatitudeDegrees>49.47110605426132678985595703125</LatitudeDegrees>
              <LongitudeDegrees>20.69725119508802890777587890625</LongitudeDegrees>
            </Position>
            <AltitudeMeters>359.79998779296875</AltitudeMeters>
            <DistanceMeters>NAN</DistanceMeters>
          </Trackpoint>
          <Trackpoint>
            <Time>2022-09-22T13:29:30.000Z</Time>
            <Position>
              <LatitudeDegrees>49.4711054675281047821044921875</LatitudeDegrees>
              <LongitudeDegrees>20.69725320674479007720947265625</LongitudeDegrees>
            </Position>
            <AltitudeMeters>359.79998779296875</AltitudeMeters>
            <DistanceMeters>NAN</DistanceMeters>
          </Trackpoint>
          <Trackpoint>
            <Time>2022-09-22T13:29:31.000Z</Time>
            <Position>
              <LatitudeDegrees>49.4711054675281047821044921875</LatitudeDegrees>
              <LongitudeDegrees>20.69725320674479007720947265625</LongitudeDegrees>
            </Position>
            <AltitudeMeters>359.79998779296875</AltitudeMeters>
            <DistanceMeters>NAN</DistanceMeters>
          </Trackpoint>
          <Trackpoint>
            <Time>2022-09-22T13:29:32.000Z</Time>
            <Position>
              <LatitudeDegrees>49.4711054675281047821044921875</LatitudeDegrees>
              <LongitudeDegrees>20.69725320674479007720947265625</LongitudeDegrees>
            </Position>
            <AltitudeMeters>359.79998779296875</AltitudeMeters>
            <DistanceMeters>NAN</DistanceMeters>
          </Trackpoint>
          <Trackpoint>
            <Time>2022-09-22T13:29:37.000Z</Time>
            <Position>
              <LatitudeDegrees>49.4711054675281047821044921875</LatitudeDegrees>
              <LongitudeDegrees>20.697252452373504638671875</LongitudeDegrees>
            </Position>
            <AltitudeMeters>359.79998779296875</AltitudeMeters>
            <DistanceMeters>NAN</DistanceMeters>
          </Trackpoint>
          <Trackpoint>
            <Time>2022-09-22T13:29:43.000Z</Time>
            <Position>
              <LatitudeDegrees>49.4711054675281047821044921875</LatitudeDegrees>
              <LongitudeDegrees>20.697252452373504638671875</LongitudeDegrees>
            </Position>
            <AltitudeMeters>359.79998779296875</AltitudeMeters>
            <DistanceMeters>NAN</DistanceMeters>
          </Trackpoint>
          <Trackpoint>
            <Time>2022-09-22T13:29:53.000Z</Time>
            <Position>
              <LatitudeDegrees>49.47114477865397930145263671875</LatitudeDegrees>
              <LongitudeDegrees>20.69720258004963397979736328125</LongitudeDegrees>
            </Position>
            <AltitudeMeters>359.79998779296875</AltitudeMeters>
            <DistanceMeters>NAN</DistanceMeters>
          </Trackpoint>
          <Trackpoint>
            <Time>2022-09-22T13:29:56.000Z</Time>
            <Position>
              <LatitudeDegrees>49.47118333540856838226318359375</LatitudeDegrees>
              <LongitudeDegrees>20.69715580902993679046630859375</LongitudeDegrees>
            </Position>
            <AltitudeMeters>359.79998779296875</AltitudeMeters>
            <DistanceMeters>NAN</DistanceMeters>
          </Trackpoint>
          <Trackpoint>
            <Time>2022-09-22T13:30:03.000Z</Time>
            <Position>
              <LatitudeDegrees>49.47124619968235492706298828125</LatitudeDegrees>
              <LongitudeDegrees>20.697046257555484771728515625</LongitudeDegrees>
            </Position>
            <AltitudeMeters>359.79998779296875</AltitudeMeters>
            <DistanceMeters>NAN</DistanceMeters>
          </Trackpoint>
          <Trackpoint>
            <Time>2022-09-22T13:30:05.000Z</Time>
            <Position>
              <LatitudeDegrees>49.47125776670873165130615234375</LatitudeDegrees>
              <LongitudeDegrees>20.6970175914466381072998046875</LongitudeDegrees>
            </Position>
            <AltitudeMeters>359.79998779296875</AltitudeMeters>
            <DistanceMeters>NAN</DistanceMeters>
          </Trackpoint>
          <Trackpoint>
            <Time>2022-09-22T13:30:10.000Z</Time>
            <Position>
              <LatitudeDegrees>49.47128324769437313079833984375</LatitudeDegrees>
              <LongitudeDegrees>20.69700409658253192901611328125</LongitudeDegrees>
            </Position>
            <AltitudeMeters>359.79998779296875</AltitudeMeters>
            <DistanceMeters>NAN</DistanceMeters>
          </Trackpoint>
          <Trackpoint>
            <Time>2022-09-22T13:30:16.000Z</Time>
            <Position>
              <LatitudeDegrees>49.471319206058979034423828125</LatitudeDegrees>
              <LongitudeDegrees>20.69692899473011493682861328125</LongitudeDegrees>
            </Position>
            <AltitudeMeters>360</AltitudeMeters>
            <DistanceMeters>NAN</DistanceMeters>
          </Trackpoint>
          <Trackpoint>
            <Time>2022-09-22T13:30:21.000Z</Time>
            <Position>
              <LatitudeDegrees>49.4713800586760044097900390625</LatitudeDegrees>
              <LongitudeDegrees>20.69690083153545856475830078125</LongitudeDegrees>
            </Position>
            <AltitudeMeters>360.20001220703125</AltitudeMeters>
            <DistanceMeters>NAN</DistanceMeters>
          </Trackpoint>
          <Trackpoint>
            <Time>2022-09-22T13:30:23.000Z</Time>
            <Position>
              <LatitudeDegrees>49.47139841504395008087158203125</LatitudeDegrees>
              <LongitudeDegrees>20.696903429925441741943359375</LongitudeDegrees>
            </Position>
            <AltitudeMeters>360.20001220703125</AltitudeMeters>
            <DistanceMeters>NAN</DistanceMeters>
          </Trackpoint>
          <Trackpoint>
            <Time>2022-09-22T13:30:29.000Z</Time>
            <Position>
              <LatitudeDegrees>49.471427835524082183837890625</LatitudeDegrees>
              <LongitudeDegrees>20.696853138506412506103515625</LongitudeDegrees>
            </Position>
            <AltitudeMeters>360.600006103515625</AltitudeMeters>
            <DistanceMeters>NAN</DistanceMeters>
          </Trackpoint>
          <Trackpoint>
            <Time>2022-09-22T13:30:34.000Z</Time>
            <Position>
              <LatitudeDegrees>49.47143311612308025360107421875</LatitudeDegrees>
              <LongitudeDegrees>20.6968214549124240875244140625</LongitudeDegrees>
            </Position>
            <AltitudeMeters>361</AltitudeMeters>
            <DistanceMeters>NAN</DistanceMeters>
          </Trackpoint>
          <Trackpoint>
            <Time>2022-09-22T13:30:36.000Z</Time>
            <Position>
              <LatitudeDegrees>49.47143311612308025360107421875</LatitudeDegrees>
              <LongitudeDegrees>20.6968214549124240875244140625</LongitudeDegrees>
            </Position>
            <AltitudeMeters>361.20001220703125</AltitudeMeters>
            <DistanceMeters>NAN</DistanceMeters>
          </Trackpoint>
          <Trackpoint>
            <Time>2022-09-22T13:30:51.000Z</Time>
            <Position>
              <LatitudeDegrees>49.47143311612308025360107421875</LatitudeDegrees>
              <LongitudeDegrees>20.6968214549124240875244140625</LongitudeDegrees>
            </Position>
            <AltitudeMeters>361.79998779296875</AltitudeMeters>
            <DistanceMeters>NAN</DistanceMeters>
          </Trackpoint>
          <Trackpoint>
            <Time>2022-09-22T13:30:55.000Z</Time>
            <Position>
              <LatitudeDegrees>49.47143311612308025360107421875</LatitudeDegrees>
              <LongitudeDegrees>20.6968214549124240875244140625</LongitudeDegrees>
            </Position>
            <AltitudeMeters>362</AltitudeMeters>
            <DistanceMeters>NAN</DistanceMeters>
          </Trackpoint>
          <Trackpoint>
            <Time>2022-09-22T13:31:00.000Z</Time>
            <Position>
              <LatitudeDegrees>49.4714417494833469390869140625</LatitudeDegrees>
              <LongitudeDegrees>20.69681324064731597900390625</LongitudeDegrees>
            </Position>
            <AltitudeMeters>362.399993896484375</AltitudeMeters>
            <DistanceMeters>NAN</DistanceMeters>
          </Trackpoint>
          <Trackpoint>
            <Time>2022-09-22T13:31:01.000Z</Time>
            <Position>
              <LatitudeDegrees>49.471441917121410369873046875</LatitudeDegrees>
              <LongitudeDegrees>20.696812905371189117431640625</LongitudeDegrees>
            </Position>
            <AltitudeMeters>362.600006103515625</AltitudeMeters>
            <DistanceMeters>NAN</DistanceMeters>
          </Trackpoint>
          <Trackpoint>
            <Time>2022-09-22T13:31:05.000Z</Time>
            <Position>
              <LatitudeDegrees>49.471443258225917816162109375</LatitudeDegrees>
              <LongitudeDegrees>20.69680896587669849395751953125</LongitudeDegrees>
            </Position>
            <AltitudeMeters>362.600006103515625</AltitudeMeters>
            <DistanceMeters>NAN</DistanceMeters>
          </Trackpoint>
          <Trackpoint>
            <Time>2022-09-22T13:31:17.000Z</Time>
            <Position>
              <LatitudeDegrees>49.47145926766097545623779296875</LatitudeDegrees>
              <LongitudeDegrees>20.69679857231676578521728515625</LongitudeDegrees>
            </Position>
            <AltitudeMeters>363.20001220703125</AltitudeMeters>
            <DistanceMeters>NAN</DistanceMeters>
          </Trackpoint>
          <Trackpoint>
            <Time>2022-09-22T13:31:24.000Z</Time>
            <Position>
              <LatitudeDegrees>49.471466057002544403076171875</LatitudeDegrees>
              <LongitudeDegrees>20.69679002277553081512451171875</LongitudeDegrees>
            </Position>
            <AltitudeMeters>363.600006103515625</AltitudeMeters>
            <DistanceMeters>NAN</DistanceMeters>
          </Trackpoint>
          <Trackpoint>
            <Time>2022-09-22T13:31:27.000Z</Time>
            <Position>
              <LatitudeDegrees>49.47147921659052371978759765625</LatitudeDegrees>
              <LongitudeDegrees>20.6967859156429767608642578125</LongitudeDegrees>
            </Position>
            <AltitudeMeters>363.79998779296875</AltitudeMeters>
            <DistanceMeters>NAN</DistanceMeters>
          </Trackpoint>
          <Trackpoint>
            <Time>2022-09-22T13:31:32.000Z</Time>
            <Position>
              <LatitudeDegrees>49.4714990817010402679443359375</LatitudeDegrees>
              <LongitudeDegrees>20.6967859156429767608642578125</LongitudeDegrees>
            </Position>
            <AltitudeMeters>364.20001220703125</AltitudeMeters>
            <DistanceMeters>NAN</DistanceMeters>
          </Trackpoint>
          <Trackpoint>
            <Time>2022-09-22T13:31:52.000Z</Time>
            <Position>
              <LatitudeDegrees>49.47150821797549724578857421875</LatitudeDegrees>
              <LongitudeDegrees>20.6967768631875514984130859375</LongitudeDegrees>
            </Position>
            <AltitudeMeters>364.79998779296875</AltitudeMeters>
            <DistanceMeters>NAN</DistanceMeters>
          </Trackpoint>
          <Trackpoint>
            <Time>2022-09-22T13:31:56.000Z</Time>
            <Position>
              <LatitudeDegrees>49.47151794098317623138427734375</LatitudeDegrees>
              <LongitudeDegrees>20.69676856510341167449951171875</LongitudeDegrees>
            </Position>
            <AltitudeMeters>365.20001220703125</AltitudeMeters>
            <DistanceMeters>NAN</DistanceMeters>
          </Trackpoint>
          <Trackpoint>
            <Time>2022-09-22T13:31:57.000Z</Time>
            <Position>
              <LatitudeDegrees>49.47151794098317623138427734375</LatitudeDegrees>
              <LongitudeDegrees>20.69676856510341167449951171875</LongitudeDegrees>
            </Position>
            <AltitudeMeters>365.20001220703125</AltitudeMeters>
            <DistanceMeters>NAN</DistanceMeters>
          </Trackpoint>
          <Trackpoint>
            <Time>2022-09-22T13:31:59.000Z</Time>
            <Position>
              <LatitudeDegrees>49.47151794098317623138427734375</LatitudeDegrees>
              <LongitudeDegrees>20.69676856510341167449951171875</LongitudeDegrees>
            </Position>
            <AltitudeMeters>365.399993896484375</AltitudeMeters>
            <DistanceMeters>NAN</DistanceMeters>
          </Trackpoint>
          <Trackpoint>
            <Time>2022-09-22T13:32:07.000Z</Time>
            <Position>
              <LatitudeDegrees>49.47155415080487728118896484375</LatitudeDegrees>
              <LongitudeDegrees>20.6967386417090892791748046875</LongitudeDegrees>
            </Position>
            <AltitudeMeters>366.20001220703125</AltitudeMeters>
            <DistanceMeters>NAN</DistanceMeters>
          </Trackpoint>
          <Trackpoint>
            <Time>2022-09-22T13:32:11.000Z</Time>
            <Position>
              <LatitudeDegrees>49.471622295677661895751953125</LatitudeDegrees>
              <LongitudeDegrees>20.69668122567236423492431640625</LongitudeDegrees>
            </Position>
            <AltitudeMeters>366.399993896484375</AltitudeMeters>
            <DistanceMeters>NAN</DistanceMeters>
          </Trackpoint>
          <Trackpoint>
            <Time>2022-09-22T13:32:16.000Z</Time>
            <Position>
              <LatitudeDegrees>49.4716506265103816986083984375</LatitudeDegrees>
              <LongitudeDegrees>20.6966561637818813323974609375</LongitudeDegrees>
            </Position>
            <AltitudeMeters>367</AltitudeMeters>
            <DistanceMeters>NAN</DistanceMeters>
          </Trackpoint>
          <Trackpoint>
            <Time>2022-09-22T13:32:19.000Z</Time>
            <Position>
              <LatitudeDegrees>49.47166747413575649261474609375</LatitudeDegrees>
              <LongitudeDegrees>20.6966564990580081939697265625</LongitudeDegrees>
            </Position>
            <AltitudeMeters>367.399993896484375</AltitudeMeters>
            <DistanceMeters>NAN</DistanceMeters>
          </Trackpoint>
          <Trackpoint>
            <Time>2022-09-22T13:32:22.000Z</Time>
            <Position>
              <LatitudeDegrees>49.47166982106864452362060546875</LatitudeDegrees>
              <LongitudeDegrees>20.69665390066802501678466796875</LongitudeDegrees>
            </Position>
            <AltitudeMeters>367.600006103515625</AltitudeMeters>
            <DistanceMeters>NAN</DistanceMeters>
          </Trackpoint>
          <Trackpoint>
            <Time>2022-09-22T13:32:28.000Z</Time>
            <Position>
              <LatitudeDegrees>49.47167401202023029327392578125</LatitudeDegrees>
              <LongitudeDegrees>20.69665859453380107879638671875</LongitudeDegrees>
            </Position>
            <AltitudeMeters>368.399993896484375</AltitudeMeters>
            <DistanceMeters>NAN</DistanceMeters>
          </Trackpoint>
          <Trackpoint>
            <Time>2022-09-22T13:32:29.000Z</Time>
            <Position>
              <LatitudeDegrees>49.4716823101043701171875</LatitudeDegrees>
              <LongitudeDegrees>20.69666831754148006439208984375</LongitudeDegrees>
            </Position>
            <AltitudeMeters>368.399993896484375</AltitudeMeters>
            <DistanceMeters>NAN</DistanceMeters>
          </Trackpoint>
          <Trackpoint>
            <Time>2022-09-22T13:32:35.000Z</Time>
            <Position>
              <LatitudeDegrees>49.4717240519821643829345703125</LatitudeDegrees>
              <LongitudeDegrees>20.69670385681092739105224609375</LongitudeDegrees>
            </Position>
            <AltitudeMeters>369</AltitudeMeters>
            <DistanceMeters>NAN</DistanceMeters>
          </Trackpoint>
          <Trackpoint>
            <Time>2022-09-22T13:32:40.000Z</Time>
            <Position>
              <LatitudeDegrees>49.4717240519821643829345703125</LatitudeDegrees>
              <LongitudeDegrees>20.69670385681092739105224609375</LongitudeDegrees>
            </Position>
            <AltitudeMeters>369.399993896484375</AltitudeMeters>
            <DistanceMeters>NAN</DistanceMeters>
          </Trackpoint>
          <Trackpoint>
            <Time>2022-09-22T13:32:43.000Z</Time>
            <Position>
              <LatitudeDegrees>49.47172380052506923675537109375</LatitudeDegrees>
              <LongitudeDegrees>20.69670821540057659149169921875</LongitudeDegrees>
            </Position>
            <AltitudeMeters>369.600006103515625</AltitudeMeters>
            <DistanceMeters>NAN</DistanceMeters>
          </Trackpoint>
          <Trackpoint>
            <Time>2022-09-22T13:32:47.000Z</Time>
            <Position>
              <LatitudeDegrees>49.47172380052506923675537109375</LatitudeDegrees>
              <LongitudeDegrees>20.69670821540057659149169921875</LongitudeDegrees>
            </Position>
            <AltitudeMeters>369.79998779296875</AltitudeMeters>
            <DistanceMeters>NAN</DistanceMeters>
          </Trackpoint>
          <Trackpoint>
            <Time>2022-09-22T13:33:00.000Z</Time>
            <Position>
              <LatitudeDegrees>49.47172187268733978271484375</LatitudeDegrees>
              <LongitudeDegrees>20.696747861802577972412109375</LongitudeDegrees>
            </Position>
            <AltitudeMeters>370.399993896484375</AltitudeMeters>
            <DistanceMeters>NAN</DistanceMeters>
          </Trackpoint>
          <Trackpoint>
            <Time>2022-09-22T13:33:03.000Z</Time>
            <Position>
              <LatitudeDegrees>49.47171893902122974395751953125</LatitudeDegrees>
              <LongitudeDegrees>20.69675423204898834228515625</LongitudeDegrees>
            </Position>
            <AltitudeMeters>370.79998779296875</AltitudeMeters>
            <DistanceMeters>NAN</DistanceMeters>
          </Trackpoint>
          <Trackpoint>
            <Time>2022-09-22T13:33:07.000Z</Time>
            <Position>
              <LatitudeDegrees>49.47168926708400249481201171875</LatitudeDegrees>
              <LongitudeDegrees>20.696809552609920501708984375</LongitudeDegrees>
            </Position>
            <AltitudeMeters>371.20001220703125</AltitudeMeters>
            <DistanceMeters>NAN</DistanceMeters>
          </Trackpoint>
          <Trackpoint>
            <Time>2022-09-22T13:33:13.000Z</Time>
            <Position>
              <LatitudeDegrees>49.47166244499385356903076171875</LatitudeDegrees>
              <LongitudeDegrees>20.69686747156083583831787109375</LongitudeDegrees>
            </Position>
            <AltitudeMeters>371.399993896484375</AltitudeMeters>
            <DistanceMeters>NAN</DistanceMeters>
          </Trackpoint>
          <Trackpoint>
            <Time>2022-09-22T13:33:14.000Z</Time>
            <Position>
              <LatitudeDegrees>49.47166244499385356903076171875</LatitudeDegrees>
              <LongitudeDegrees>20.69686747156083583831787109375</LongitudeDegrees>
            </Position>
            <AltitudeMeters>371.600006103515625</AltitudeMeters>
            <DistanceMeters>NAN</DistanceMeters>
          </Trackpoint>
          <Trackpoint>
            <Time>2022-09-22T13:33:21.000Z</Time>
            <Position>
              <LatitudeDegrees>49.47166244499385356903076171875</LatitudeDegrees>
              <LongitudeDegrees>20.69686747156083583831787109375</LongitudeDegrees>
            </Position>
            <AltitudeMeters>371.79998779296875</AltitudeMeters>
            <DistanceMeters>NAN</DistanceMeters>
          </Trackpoint>
          <Trackpoint>
            <Time>2022-09-22T13:33:33.000Z</Time>
            <Position>
              <LatitudeDegrees>49.47166177444159984588623046875</LatitudeDegrees>
              <LongitudeDegrees>20.696869231760501861572265625</LongitudeDegrees>
            </Position>
            <AltitudeMeters>372.20001220703125</AltitudeMeters>
            <DistanceMeters>NAN</DistanceMeters>
          </Trackpoint>
          <Trackpoint>
            <Time>2022-09-22T13:33:39.000Z</Time>
            <Position>
              <LatitudeDegrees>49.47165858931839466094970703125</LatitudeDegrees>
              <LongitudeDegrees>20.6968756020069122314453125</LongitudeDegrees>
            </Position>
            <AltitudeMeters>372.600006103515625</AltitudeMeters>
            <DistanceMeters>NAN</DistanceMeters>
          </Trackpoint>
          <Trackpoint>
            <Time>2022-09-22T13:33:40.000Z</Time>
            <Position>
              <LatitudeDegrees>49.47165548801422119140625</LatitudeDegrees>
              <LongitudeDegrees>20.69688205607235431671142578125</LongitudeDegrees>
            </Position>
            <AltitudeMeters>372.600006103515625</AltitudeMeters>
            <DistanceMeters>NAN</DistanceMeters>
          </Trackpoint>
          <Trackpoint>
            <Time>2022-09-22T13:33:44.000Z</Time>
            <Position>
              <LatitudeDegrees>49.47164316661655902862548828125</LatitudeDegrees>
              <LongitudeDegrees>20.69691122509539127349853515625</LongitudeDegrees>
            </Position>
            <AltitudeMeters>372.79998779296875</AltitudeMeters>
            <DistanceMeters>NAN</DistanceMeters>
          </Trackpoint>
          <Trackpoint>
            <Time>2022-09-22T13:33:51.000Z</Time>
            <Position>
              <LatitudeDegrees>49.471603520214557647705078125</LatitudeDegrees>
              <LongitudeDegrees>20.69699202664196491241455078125</LongitudeDegrees>
            </Position>
            <AltitudeMeters>373</AltitudeMeters>
            <DistanceMeters>NAN</DistanceMeters>
          </Trackpoint>
          <Trackpoint>
            <Time>2022-09-22T13:33:57.000Z</Time>
            <Position>
              <LatitudeDegrees>49.47155180387198925018310546875</LatitudeDegrees>
              <LongitudeDegrees>20.69710937328636646270751953125</LongitudeDegrees>
            </Position>
            <AltitudeMeters>373.399993896484375</AltitudeMeters>
            <DistanceMeters>NAN</DistanceMeters>
          </Trackpoint>
          <Trackpoint>
            <Time>2022-09-22T13:33:58.000Z</Time>
            <Position>
              <LatitudeDegrees>49.47154744528234004974365234375</LatitudeDegrees>
              <LongitudeDegrees>20.69711859337985515594482421875</LongitudeDegrees>
            </Position>
            <AltitudeMeters>373.399993896484375</AltitudeMeters>
            <DistanceMeters>NAN</DistanceMeters>
          </Trackpoint>
          <Trackpoint>
            <Time>2022-09-22T13:34:00.000Z</Time>
            <Position>
              <LatitudeDegrees>49.4715309329330921173095703125</LatitudeDegrees>
              <LongitudeDegrees>20.6971664540469646453857421875</LongitudeDegrees>
            </Position>
            <AltitudeMeters>373.600006103515625</AltitudeMeters>
            <DistanceMeters>NAN</DistanceMeters>
          </Trackpoint>
          <Trackpoint>
            <Time>2022-09-22T13:34:06.000Z</Time>
            <Position>
              <LatitudeDegrees>49.47147837840020656585693359375</LatitudeDegrees>
              <LongitudeDegrees>20.6973149813711643218994140625</LongitudeDegrees>
            </Position>
            <AltitudeMeters>374</AltitudeMeters>
            <DistanceMeters>NAN</DistanceMeters>
          </Trackpoint>
          <Trackpoint>
            <Time>2022-09-22T13:34:14.000Z</Time>
            <Position>
              <LatitudeDegrees>49.47144786827266216278076171875</LatitudeDegrees>
              <LongitudeDegrees>20.697482787072658538818359375</LongitudeDegrees>
            </Position>
            <AltitudeMeters>374.600006103515625</AltitudeMeters>
            <DistanceMeters>NAN</DistanceMeters>
          </Trackpoint>
          <Trackpoint>
            <Time>2022-09-22T13:34:21.000Z</Time>
            <Position>
              <LatitudeDegrees>49.47142540477216243743896484375</LatitudeDegrees>
              <LongitudeDegrees>20.69763625971972942352294921875</LongitudeDegrees>
            </Position>
            <AltitudeMeters>375</AltitudeMeters>
            <DistanceMeters>NAN</DistanceMeters>
          </Trackpoint>
          <Trackpoint>
            <Time>2022-09-22T13:34:22.000Z</Time>
            <Position>
              <LatitudeDegrees>49.4714249856770038604736328125</LatitudeDegrees>
              <LongitudeDegrees>20.6976405344903469085693359375</LongitudeDegrees>
            </Position>
            <AltitudeMeters>375</AltitudeMeters>
            <DistanceMeters>NAN</DistanceMeters>
          </Trackpoint>
          <Trackpoint>
            <Time>2022-09-22T13:34:29.000Z</Time>
            <Position>
              <LatitudeDegrees>49.47140579111874103546142578125</LatitudeDegrees>
              <LongitudeDegrees>20.69776567630469799041748046875</LongitudeDegrees>
            </Position>
            <AltitudeMeters>375.399993896484375</AltitudeMeters>
            <DistanceMeters>NAN</DistanceMeters>
          </Trackpoint>
          <Trackpoint>
            <Time>2022-09-22T13:34:35.000Z</Time>
            <Position>
              <LatitudeDegrees>49.47137980721890926361083984375</LatitudeDegrees>
              <LongitudeDegrees>20.6978277862071990966796875</LongitudeDegrees>
            </Position>
            <AltitudeMeters>375.600006103515625</AltitudeMeters>
            <DistanceMeters>NAN</DistanceMeters>
          </Trackpoint>
          <Trackpoint>
            <Time>2022-09-22T13:34:37.000Z</Time>
            <Position>
              <LatitudeDegrees>49.47136647999286651611328125</LatitudeDegrees>
              <LongitudeDegrees>20.69785670377314090728759765625</LongitudeDegrees>
            </Position>
            <AltitudeMeters>375.600006103515625</AltitudeMeters>
            <DistanceMeters>NAN</DistanceMeters>
          </Trackpoint>
          <Trackpoint>
            <Time>2022-09-22T13:34:40.000Z</Time>
            <Position>
              <LatitudeDegrees>49.471338652074337005615234375</LatitudeDegrees>
              <LongitudeDegrees>20.697904564440250396728515625</LongitudeDegrees>
            </Position>
            <AltitudeMeters>375.79998779296875</AltitudeMeters>
            <DistanceMeters>NAN</DistanceMeters>
          </Trackpoint>
          <Trackpoint>
            <Time>2022-09-22T13:34:47.000Z</Time>
            <Position>
              <LatitudeDegrees>49.47134007699787616729736328125</LatitudeDegrees>
              <LongitudeDegrees>20.69804211147129535675048828125</LongitudeDegrees>
            </Position>
            <AltitudeMeters>376.20001220703125</AltitudeMeters>
            <DistanceMeters>NAN</DistanceMeters>
          </Trackpoint>
          <Trackpoint>
            <Time>2022-09-22T13:34:49.000Z</Time>
            <Position>
              <LatitudeDegrees>49.4713351316750049591064453125</LatitudeDegrees>
              <LongitudeDegrees>20.6980944983661174774169921875</LongitudeDegrees>
            </Position>
            <AltitudeMeters>376.20001220703125</AltitudeMeters>
            <DistanceMeters>NAN</DistanceMeters>
          </Trackpoint>
          <Trackpoint>
            <Time>2022-09-22T13:34:50.000Z</Time>
            <Position>
              <LatitudeDegrees>49.471333958208560943603515625</LatitudeDegrees>
              <LongitudeDegrees>20.6981095857918262481689453125</LongitudeDegrees>
            </Position>
            <AltitudeMeters>376.399993896484375</AltitudeMeters>
            <DistanceMeters>NAN</DistanceMeters>
          </Trackpoint>
          <Trackpoint>
            <Time>2022-09-22T13:34:55.000Z</Time>
            <Position>
              <LatitudeDegrees>49.47131526656448841094970703125</LatitudeDegrees>
              <LongitudeDegrees>20.69815836846828460693359375</LongitudeDegrees>
            </Position>
            <AltitudeMeters>376.600006103515625</AltitudeMeters>
            <DistanceMeters>NAN</DistanceMeters>
          </Trackpoint>
          <Trackpoint>
            <Time>2022-09-22T13:34:56.000Z</Time>
            <Position>
              <LatitudeDegrees>49.4713026098906993865966796875</LatitudeDegrees>
              <LongitudeDegrees>20.6981722824275493621826171875</LongitudeDegrees>
            </Position>
            <AltitudeMeters>376.600006103515625</AltitudeMeters>
            <DistanceMeters>NAN</DistanceMeters>
          </Trackpoint>
          <Trackpoint>
            <Time>2022-09-22T13:35:02.000Z</Time>
            <Position>
              <LatitudeDegrees>49.4712710939347743988037109375</LatitudeDegrees>
              <LongitudeDegrees>20.69820891134440898895263671875</LongitudeDegrees>
            </Position>
            <AltitudeMeters>376.600006103515625</AltitudeMeters>
            <DistanceMeters>NAN</DistanceMeters>
          </Trackpoint>
          <Trackpoint>
            <Time>2022-09-22T13:35:03.000Z</Time>
            <Position>
              <LatitudeDegrees>49.4712680764496326446533203125</LatitudeDegrees>
              <LongitudeDegrees>20.69821159355342388153076171875</LongitudeDegrees>
            </Position>
            <AltitudeMeters>376.79998779296875</AltitudeMeters>
            <DistanceMeters>NAN</DistanceMeters>
          </Trackpoint>
          <Trackpoint>
            <Time>2022-09-22T13:35:07.000Z</Time>
            <Position>
              <LatitudeDegrees>49.47123547084629535675048828125</LatitudeDegrees>
              <LongitudeDegrees>20.6982524134218692779541015625</LongitudeDegrees>
            </Position>
            <AltitudeMeters>377</AltitudeMeters>
            <DistanceMeters>NAN</DistanceMeters>
          </Trackpoint>
          <Trackpoint>
            <Time>2022-09-22T13:35:09.000Z</Time>
            <Position>
              <LatitudeDegrees>49.4712322019040584564208984375</LatitudeDegrees>
              <LongitudeDegrees>20.698278732597827911376953125</LongitudeDegrees>
            </Position>
            <AltitudeMeters>377</AltitudeMeters>
            <DistanceMeters>NAN</DistanceMeters>
          </Trackpoint>
          <Trackpoint>
            <Time>2022-09-22T13:35:17.000Z</Time>
            <Position>
              <LatitudeDegrees>49.4711353071033954620361328125</LatitudeDegrees>
              <LongitudeDegrees>20.69840420968830585479736328125</LongitudeDegrees>
            </Position>
            <AltitudeMeters>377.20001220703125</AltitudeMeters>
            <DistanceMeters>NAN</DistanceMeters>
          </Trackpoint>
          <Trackpoint>
            <Time>2022-09-22T13:35:25.000Z</Time>
            <Position>
              <LatitudeDegrees>49.4711021147668361663818359375</LatitudeDegrees>
              <LongitudeDegrees>20.6984565965831279754638671875</LongitudeDegrees>
            </Position>
            <AltitudeMeters>377.600006103515625</AltitudeMeters>
            <DistanceMeters>NAN</DistanceMeters>
          </Trackpoint>
          <Trackpoint>
            <Time>2022-09-22T13:35:27.000Z</Time>
            <Position>
              <LatitudeDegrees>49.47109281085431575775146484375</LatitudeDegrees>
              <LongitudeDegrees>20.69848769344389438629150390625</LongitudeDegrees>
            </Position>
            <AltitudeMeters>377.79998779296875</AltitudeMeters>
            <DistanceMeters>NAN</DistanceMeters>
          </Trackpoint>
          <Trackpoint>
            <Time>2022-09-22T13:35:30.000Z</Time>
            <Position>
              <LatitudeDegrees>49.47107101790606975555419921875</LatitudeDegrees>
              <LongitudeDegrees>20.69851753301918506622314453125</LongitudeDegrees>
            </Position>
            <AltitudeMeters>378</AltitudeMeters>
            <DistanceMeters>NAN</DistanceMeters>
          </Trackpoint>
          <Trackpoint>
            <Time>2022-09-22T13:35:32.000Z</Time>
            <Position>
              <LatitudeDegrees>49.4710591994225978851318359375</LatitudeDegrees>
              <LongitudeDegrees>20.69853848777711391448974609375</LongitudeDegrees>
            </Position>
            <AltitudeMeters>378</AltitudeMeters>
            <DistanceMeters>NAN</DistanceMeters>
          </Trackpoint>
          <Trackpoint>
            <Time>2022-09-22T13:35:37.000Z</Time>
            <Position>
              <LatitudeDegrees>49.47104654274880886077880859375</LatitudeDegrees>
              <LongitudeDegrees>20.698569752275943756103515625</LongitudeDegrees>
            </Position>
            <AltitudeMeters>378.20001220703125</AltitudeMeters>
            <DistanceMeters>NAN</DistanceMeters>
          </Trackpoint>
          <Trackpoint>
            <Time>2022-09-22T13:35:44.000Z</Time>
            <Position>
              <LatitudeDegrees>49.4710243307054042816162109375</LatitudeDegrees>
              <LongitudeDegrees>20.69863848388195037841796875</LongitudeDegrees>
            </Position>
            <AltitudeMeters>378.399993896484375</AltitudeMeters>
            <DistanceMeters>NAN</DistanceMeters>
          </Trackpoint>
          <Trackpoint>
            <Time>2022-09-22T13:35:53.000Z</Time>
            <Position>
              <LatitudeDegrees>49.470980577170848846435546875</LatitudeDegrees>
              <LongitudeDegrees>20.69878877140581607818603515625</LongitudeDegrees>
            </Position>
            <AltitudeMeters>378.600006103515625</AltitudeMeters>
            <DistanceMeters>NAN</DistanceMeters>
          </Trackpoint>
          <Trackpoint>
            <Time>2022-09-22T13:35:55.000Z</Time>
            <Position>
              <LatitudeDegrees>49.47095744311809539794921875</LatitudeDegrees>
              <LongitudeDegrees>20.698813498020172119140625</LongitudeDegrees>
            </Position>
            <AltitudeMeters>378.79998779296875</AltitudeMeters>
            <DistanceMeters>NAN</DistanceMeters>
          </Trackpoint>
          <Trackpoint>
            <Time>2022-09-22T13:35:57.000Z</Time>
            <Position>
              <LatitudeDegrees>49.470928274095058441162109375</LatitudeDegrees>
              <LongitudeDegrees>20.69885850884020328521728515625</LongitudeDegrees>
            </Position>
            <AltitudeMeters>378.79998779296875</AltitudeMeters>
            <DistanceMeters>NAN</DistanceMeters>
          </Trackpoint>
          <Trackpoint>
            <Time>2022-09-22T13:35:58.000Z</Time>
            <Position>
              <LatitudeDegrees>49.4709224067628383636474609375</LatitudeDegrees>
              <LongitudeDegrees>20.6988766975700855255126953125</LongitudeDegrees>
            </Position>
            <AltitudeMeters>378.79998779296875</AltitudeMeters>
            <DistanceMeters>NAN</DistanceMeters>
          </Trackpoint>
          <Trackpoint>
            <Time>2022-09-22T13:36:00.000Z</Time>
            <Position>
              <LatitudeDegrees>49.47090723551809787750244140625</LatitudeDegrees>
              <LongitudeDegrees>20.69889354519546031951904296875</LongitudeDegrees>
            </Position>
            <AltitudeMeters>378.79998779296875</AltitudeMeters>
            <DistanceMeters>NAN</DistanceMeters>
          </Trackpoint>
          <Trackpoint>
            <Time>2022-09-22T13:36:04.000Z</Time>
            <Position>
              <LatitudeDegrees>49.47088628076016902923583984375</LatitudeDegrees>
              <LongitudeDegrees>20.69895909167826175689697265625</LongitudeDegrees>
            </Position>
            <AltitudeMeters>379</AltitudeMeters>
            <DistanceMeters>NAN</DistanceMeters>
          </Trackpoint>
          <Trackpoint>
            <Time>2022-09-22T13:36:07.000Z</Time>
            <Position>
              <LatitudeDegrees>49.47086356580257415771484375</LatitudeDegrees>
              <LongitudeDegrees>20.6990054436028003692626953125</LongitudeDegrees>
            </Position>
            <AltitudeMeters>379</AltitudeMeters>
            <DistanceMeters>NAN</DistanceMeters>
          </Trackpoint>
          <Trackpoint>
            <Time>2022-09-22T13:36:10.000Z</Time>
            <Position>
              <LatitudeDegrees>49.4708506576716899871826171875</LatitudeDegrees>
              <LongitudeDegrees>20.69903335534036159515380859375</LongitudeDegrees>
            </Position>
            <AltitudeMeters>379.20001220703125</AltitudeMeters>
            <DistanceMeters>NAN</DistanceMeters>
          </Trackpoint>
          <Trackpoint>
            <Time>2022-09-22T13:36:11.000Z</Time>
            <Position>
              <LatitudeDegrees>49.47084789164364337921142578125</LatitudeDegrees>
              <LongitudeDegrees>20.69903679192066192626953125</LongitudeDegrees>
            </Position>
            <AltitudeMeters>379.399993896484375</AltitudeMeters>
            <DistanceMeters>NAN</DistanceMeters>
          </Trackpoint>
          <Trackpoint>
            <Time>2022-09-22T13:36:12.000Z</Time>
            <Position>
              <LatitudeDegrees>49.4708426110446453094482421875</LatitudeDegrees>
              <LongitudeDegrees>20.6990460120141506195068359375</LongitudeDegrees>
            </Position>
            <AltitudeMeters>379.399993896484375</AltitudeMeters>
            <DistanceMeters>NAN</DistanceMeters>
          </Trackpoint>
          <Trackpoint>
            <Time>2022-09-22T13:36:13.000Z</Time>
            <Position>
              <LatitudeDegrees>49.470837414264678955078125</LatitudeDegrees>
              <LongitudeDegrees>20.699055902659893035888671875</LongitudeDegrees>
            </Position>
            <AltitudeMeters>379.399993896484375</AltitudeMeters>
            <DistanceMeters>NAN</DistanceMeters>
          </Trackpoint>
          <Trackpoint>
            <Time>2022-09-22T13:36:20.000Z</Time>
            <Position>
              <LatitudeDegrees>49.47080816142261028289794921875</LatitudeDegrees>
              <LongitudeDegrees>20.69916092790663242340087890625</LongitudeDegrees>
            </Position>
            <AltitudeMeters>379.79998779296875</AltitudeMeters>
            <DistanceMeters>NAN</DistanceMeters>
          </Trackpoint>
          <Trackpoint>
            <Time>2022-09-22T13:36:25.000Z</Time>
            <Position>
              <LatitudeDegrees>49.470789134502410888671875</LatitudeDegrees>
              <LongitudeDegrees>20.69920836947858333587646484375</LongitudeDegrees>
            </Position>
            <AltitudeMeters>380.20001220703125</AltitudeMeters>
            <DistanceMeters>NAN</DistanceMeters>
          </Trackpoint>
          <Trackpoint>
            <Time>2022-09-22T13:36:31.000Z</Time>
            <Position>
              <LatitudeDegrees>49.47076189331710338592529296875</LatitudeDegrees>
              <LongitudeDegrees>20.6992827169597148895263671875</LongitudeDegrees>
            </Position>
            <AltitudeMeters>380.399993896484375</AltitudeMeters>
            <DistanceMeters>NAN</DistanceMeters>
          </Trackpoint>
          <Trackpoint>
            <Time>2022-09-22T13:36:36.000Z</Time>
            <Position>
              <LatitudeDegrees>49.4707475602626800537109375</LatitudeDegrees>
              <LongitudeDegrees>20.69930593483150005340576171875</LongitudeDegrees>
            </Position>
            <AltitudeMeters>380.600006103515625</AltitudeMeters>
            <DistanceMeters>NAN</DistanceMeters>
          </Trackpoint>
          <Trackpoint>
            <Time>2022-09-22T13:36:38.000Z</Time>
            <Position>
              <LatitudeDegrees>49.4707497395575046539306640625</LatitudeDegrees>
              <LongitudeDegrees>20.69930191151797771453857421875</LongitudeDegrees>
            </Position>
            <AltitudeMeters>380.600006103515625</AltitudeMeters>
            <DistanceMeters>NAN</DistanceMeters>
          </Trackpoint>
          <Trackpoint>
            <Time>2022-09-22T13:36:42.000Z</Time>
            <Position>
              <LatitudeDegrees>49.47075049392879009246826171875</LatitudeDegrees>
              <LongitudeDegrees>20.69932043552398681640625</LongitudeDegrees>
            </Position>
            <AltitudeMeters>380.600006103515625</AltitudeMeters>
            <DistanceMeters>NAN</DistanceMeters>
          </Trackpoint>
          <Trackpoint>
            <Time>2022-09-22T13:36:45.000Z</Time>
            <Position>
              <LatitudeDegrees>49.4707366637885570526123046875</LatitudeDegrees>
              <LongitudeDegrees>20.69938925094902515411376953125</LongitudeDegrees>
            </Position>
            <AltitudeMeters>380.79998779296875</AltitudeMeters>
            <DistanceMeters>NAN</DistanceMeters>
          </Trackpoint>
          <Trackpoint>
            <Time>2022-09-22T13:36:47.000Z</Time>
            <Position>
              <LatitudeDegrees>49.47072903625667095184326171875</LatitudeDegrees>
              <LongitudeDegrees>20.6994476728141307830810546875</LongitudeDegrees>
            </Position>
            <AltitudeMeters>380.79998779296875</AltitudeMeters>
            <DistanceMeters>NAN</DistanceMeters>
          </Trackpoint>
          <Trackpoint>
            <Time>2022-09-22T13:36:51.000Z</Time>
            <Position>
              <LatitudeDegrees>49.47071202099323272705078125</LatitudeDegrees>
              <LongitudeDegrees>20.69956225343048572540283203125</LongitudeDegrees>
            </Position>
            <AltitudeMeters>380.79998779296875</AltitudeMeters>
            <DistanceMeters>NAN</DistanceMeters>
          </Trackpoint>
          <Trackpoint>
            <Time>2022-09-22T13:36:59.000Z</Time>
            <Position>
              <LatitudeDegrees>49.47063960134983062744140625</LatitudeDegrees>
              <LongitudeDegrees>20.69984413683414459228515625</LongitudeDegrees>
            </Position>
            <AltitudeMeters>380.399993896484375</AltitudeMeters>
            <DistanceMeters>NAN</DistanceMeters>
          </Trackpoint>
          <Trackpoint>
            <Time>2022-09-22T13:37:06.000Z</Time>
            <Position>
              <LatitudeDegrees>49.4705777429044246673583984375</LatitudeDegrees>
              <LongitudeDegrees>20.7001142017543315887451171875</LongitudeDegrees>
            </Position>
            <AltitudeMeters>380.399993896484375</AltitudeMeters>
            <DistanceMeters>NAN</DistanceMeters>
          </Trackpoint>
          <Trackpoint>
            <Time>2022-09-22T13:37:12.000Z</Time>
            <Position>
              <LatitudeDegrees>49.47043851949274539947509765625</LatitudeDegrees>
              <LongitudeDegrees>20.700374543666839599609375</LongitudeDegrees>
            </Position>
            <AltitudeMeters>379.600006103515625</AltitudeMeters>
            <DistanceMeters>NAN</DistanceMeters>
          </Trackpoint>
          <Trackpoint>
            <Time>2022-09-22T13:37:14.000Z</Time>
            <Position>
              <LatitudeDegrees>49.4703692011535167694091796875</LatitudeDegrees>
              <LongitudeDegrees>20.70049650035798549652099609375</LongitudeDegrees>
            </Position>
            <AltitudeMeters>378.399993896484375</AltitudeMeters>
            <DistanceMeters>NAN</DistanceMeters>
          </Trackpoint>
          <Trackpoint>
            <Time>2022-09-22T13:37:17.000Z</Time>
            <Position>
              <LatitudeDegrees>49.47023919783532619476318359375</LatitudeDegrees>
              <LongitudeDegrees>20.70070923306047916412353515625</LongitudeDegrees>
            </Position>
            <AltitudeMeters>376.79998779296875</AltitudeMeters>
            <DistanceMeters>NAN</DistanceMeters>
          </Trackpoint>
          <Trackpoint>
            <Time>2022-09-22T13:37:20.000Z</Time>
            <Position>
              <LatitudeDegrees>49.47011246345937252044677734375</LatitudeDegrees>
              <LongitudeDegrees>20.7009195350110530853271484375</LongitudeDegrees>
            </Position>
            <AltitudeMeters>375.79998779296875</AltitudeMeters>
            <DistanceMeters>NAN</DistanceMeters>
          </Trackpoint>
          <Trackpoint>
            <Time>2022-09-22T13:37:21.000Z</Time>
            <Position>
              <LatitudeDegrees>49.47006653062999248504638671875</LatitudeDegrees>
              <LongitudeDegrees>20.70097980089485645294189453125</LongitudeDegrees>
            </Position>
            <AltitudeMeters>375.600006103515625</AltitudeMeters>
            <DistanceMeters>NAN</DistanceMeters>
          </Trackpoint>
          <Trackpoint>
            <Time>2022-09-22T13:37:22.000Z</Time>
            <Position>
              <LatitudeDegrees>49.4700235314667224884033203125</LatitudeDegrees>
              <LongitudeDegrees>20.70103612728416919708251953125</LongitudeDegrees>
            </Position>
            <AltitudeMeters>375.79998779296875</AltitudeMeters>
            <DistanceMeters>NAN</DistanceMeters>
          </Trackpoint>
          <Trackpoint>
            <Time>2022-09-22T13:37:24.000Z</Time>
            <Position>
              <LatitudeDegrees>49.4699645228683948516845703125</LatitudeDegrees>
              <LongitudeDegrees>20.70112162269651889801025390625</LongitudeDegrees>
            </Position>
            <AltitudeMeters>376.600006103515625</AltitudeMeters>
            <DistanceMeters>NAN</DistanceMeters>
          </Trackpoint>
          <Trackpoint>
            <Time>2022-09-22T13:37:25.000Z</Time>
            <Position>
              <LatitudeDegrees>49.46993694640696048736572265625</LatitudeDegrees>
              <LongitudeDegrees>20.7011572457849979400634765625</LongitudeDegrees>
            </Position>
            <AltitudeMeters>377.20001220703125</AltitudeMeters>
            <DistanceMeters>NAN</DistanceMeters>
          </Trackpoint>
          <Trackpoint>
            <Time>2022-09-22T13:37:26.000Z</Time>
            <Position>
              <LatitudeDegrees>49.46992135606706142425537109375</LatitudeDegrees>
              <LongitudeDegrees>20.7011766918003559112548828125</LongitudeDegrees>
            </Position>
            <AltitudeMeters>377.79998779296875</AltitudeMeters>
            <DistanceMeters>NAN</DistanceMeters>
          </Trackpoint>
          <Trackpoint>
            <Time>2022-09-22T13:37:27.000Z</Time>
            <Position>
              <LatitudeDegrees>49.46991364471614360809326171875</LatitudeDegrees>
              <LongitudeDegrees>20.70118968375027179718017578125</LongitudeDegrees>
            </Position>
            <AltitudeMeters>378.20001220703125</AltitudeMeters>
            <DistanceMeters>NAN</DistanceMeters>
          </Trackpoint>
          <Trackpoint>
            <Time>2022-09-22T13:37:30.000Z</Time>
            <Position>
              <LatitudeDegrees>49.4698867388069629669189453125</LatitudeDegrees>
              <LongitudeDegrees>20.70124064572155475616455078125</LongitudeDegrees>
            </Position>
            <AltitudeMeters>379.399993896484375</AltitudeMeters>
            <DistanceMeters>NAN</DistanceMeters>
          </Trackpoint>
          <Trackpoint>
            <Time>2022-09-22T13:37:33.000Z</Time>
            <Position>
              <LatitudeDegrees>49.46985312737524509429931640625</LatitudeDegrees>
              <LongitudeDegrees>20.70129948668181896209716796875</LongitudeDegrees>
            </Position>
            <AltitudeMeters>380.20001220703125</AltitudeMeters>
            <DistanceMeters>NAN</DistanceMeters>
          </Trackpoint>
          <Trackpoint>
            <Time>2022-09-22T13:37:34.000Z</Time>
            <Position>
              <LatitudeDegrees>49.4698364473879337310791015625</LatitudeDegrees>
              <LongitudeDegrees>20.7013201899826526641845703125</LongitudeDegrees>
            </Position>
            <AltitudeMeters>380.399993896484375</AltitudeMeters>
            <DistanceMeters>NAN</DistanceMeters>
          </Trackpoint>
          <Trackpoint>
            <Time>2022-09-22T13:37:35.000Z</Time>
            <Position>
              <LatitudeDegrees>49.46982446126639842987060546875</LatitudeDegrees>
              <LongitudeDegrees>20.70133837871253490447998046875</LongitudeDegrees>
            </Position>
            <AltitudeMeters>380.600006103515625</AltitudeMeters>
            <DistanceMeters>NAN</DistanceMeters>
          </Trackpoint>
          <Trackpoint>
            <Time>2022-09-22T13:37:39.000Z</Time>
            <Position>
              <LatitudeDegrees>49.46977718733251094818115234375</LatitudeDegrees>
              <LongitudeDegrees>20.7014160789549350738525390625</LongitudeDegrees>
            </Position>
            <AltitudeMeters>381.399993896484375</AltitudeMeters>
            <DistanceMeters>NAN</DistanceMeters>
          </Trackpoint>
          <Trackpoint>
            <Time>2022-09-22T13:37:43.000Z</Time>
            <Position>
              <LatitudeDegrees>49.46973460726439952850341796875</LatitudeDegrees>
              <LongitudeDegrees>20.7014905102550983428955078125</LongitudeDegrees>
            </Position>
            <AltitudeMeters>382.399993896484375</AltitudeMeters>
            <DistanceMeters>NAN</DistanceMeters>
          </Trackpoint>
          <Trackpoint>
            <Time>2022-09-22T13:37:44.000Z</Time>
            <Position>
              <LatitudeDegrees>49.46972471661865711212158203125</LatitudeDegrees>
              <LongitudeDegrees>20.7015126384794712066650390625</LongitudeDegrees>
            </Position>
            <AltitudeMeters>382.399993896484375</AltitudeMeters>
            <DistanceMeters>NAN</DistanceMeters>
          </Trackpoint>
          <Trackpoint>
            <Time>2022-09-22T13:37:48.000Z</Time>
            <Position>
              <LatitudeDegrees>49.46969001553952693939208984375</LatitudeDegrees>
              <LongitudeDegrees>20.70157642476260662078857421875</LongitudeDegrees>
            </Position>
            <AltitudeMeters>383.20001220703125</AltitudeMeters>
            <DistanceMeters>NAN</DistanceMeters>
          </Trackpoint>
          <Trackpoint>
            <Time>2022-09-22T13:37:50.000Z</Time>
            <Position>
              <LatitudeDegrees>49.46967492811381816864013671875</LatitudeDegrees>
              <LongitudeDegrees>20.7016038335859775543212890625</LongitudeDegrees>
            </Position>
            <AltitudeMeters>383.399993896484375</AltitudeMeters>
            <DistanceMeters>NAN</DistanceMeters>
          </Trackpoint>
          <Trackpoint>
            <Time>2022-09-22T13:37:51.000Z</Time>
            <Position>
              <LatitudeDegrees>49.46966386400163173675537109375</LatitudeDegrees>
              <LongitudeDegrees>20.7016273029148578643798828125</LongitudeDegrees>
            </Position>
            <AltitudeMeters>383.399993896484375</AltitudeMeters>
            <DistanceMeters>NAN</DistanceMeters>
          </Trackpoint>
          <Trackpoint>
            <Time>2022-09-22T13:37:52.000Z</Time>
            <Position>
              <LatitudeDegrees>49.46965120732784271240234375</LatitudeDegrees>
              <LongitudeDegrees>20.7016472518444061279296875</LongitudeDegrees>
            </Position>
            <AltitudeMeters>383.79998779296875</AltitudeMeters>
            <DistanceMeters>NAN</DistanceMeters>
          </Trackpoint>
          <Trackpoint>
            <Time>2022-09-22T13:37:55.000Z</Time>
            <Position>
              <LatitudeDegrees>49.46962681598961353302001953125</LatitudeDegrees>
              <LongitudeDegrees>20.7017013989388942718505859375</LongitudeDegrees>
            </Position>
            <AltitudeMeters>384.20001220703125</AltitudeMeters>
            <DistanceMeters>NAN</DistanceMeters>
          </Trackpoint>
          <Trackpoint>
            <Time>2022-09-22T13:37:58.000Z</Time>
            <Position>
              <LatitudeDegrees>49.46960418485105037689208984375</LatitudeDegrees>
              <LongitudeDegrees>20.701766945421695709228515625</LongitudeDegrees>
            </Position>
            <AltitudeMeters>384.79998779296875</AltitudeMeters>
            <DistanceMeters>NAN</DistanceMeters>
          </Trackpoint>
          <Trackpoint>
            <Time>2022-09-22T13:37:59.000Z</Time>
            <Position>
              <LatitudeDegrees>49.46959865279495716094970703125</LatitudeDegrees>
              <LongitudeDegrees>20.701791755855083465576171875</LongitudeDegrees>
            </Position>
            <AltitudeMeters>385</AltitudeMeters>
            <DistanceMeters>NAN</DistanceMeters>
          </Trackpoint>
          <Trackpoint>
            <Time>2022-09-22T13:38:04.000Z</Time>
            <Position>
              <LatitudeDegrees>49.469568729400634765625</LatitudeDegrees>
              <LongitudeDegrees>20.70191538892686367034912109375</LongitudeDegrees>
            </Position>
            <AltitudeMeters>385.79998779296875</AltitudeMeters>
            <DistanceMeters>NAN</DistanceMeters>
          </Trackpoint>
          <Trackpoint>
            <Time>2022-09-22T13:38:05.000Z</Time>
            <Position>
              <LatitudeDegrees>49.469561018049716949462890625</LatitudeDegrees>
              <LongitudeDegrees>20.7019471563398838043212890625</LongitudeDegrees>
            </Position>
            <AltitudeMeters>386</AltitudeMeters>
            <DistanceMeters>NAN</DistanceMeters>
          </Trackpoint>
          <Trackpoint>
            <Time>2022-09-22T13:38:07.000Z</Time>
            <Position>
              <LatitudeDegrees>49.46954517625272274017333984375</LatitudeDegrees>
              <LongitudeDegrees>20.7020165584981441497802734375</LongitudeDegrees>
            </Position>
            <AltitudeMeters>386.399993896484375</AltitudeMeters>
            <DistanceMeters>NAN</DistanceMeters>
          </Trackpoint>
          <Trackpoint>
            <Time>2022-09-22T13:38:13.000Z</Time>
            <Position>
              <LatitudeDegrees>49.46950326673686504364013671875</LatitudeDegrees>
              <LongitudeDegrees>20.702203810214996337890625</LongitudeDegrees>
            </Position>
            <AltitudeMeters>387.20001220703125</AltitudeMeters>
            <DistanceMeters>NAN</DistanceMeters>
          </Trackpoint>
          <Trackpoint>
            <Time>2022-09-22T13:38:14.000Z</Time>
            <Position>
              <LatitudeDegrees>49.469495974481105804443359375</LatitudeDegrees>
              <LongitudeDegrees>20.70223373360931873321533203125</LongitudeDegrees>
            </Position>
            <AltitudeMeters>387.20001220703125</AltitudeMeters>
            <DistanceMeters>NAN</DistanceMeters>
          </Trackpoint>
          <Trackpoint>
            <Time>2022-09-22T13:38:19.000Z</Time>
            <Position>
              <LatitudeDegrees>49.46946957148611545562744140625</LatitudeDegrees>
              <LongitudeDegrees>20.70233532227575778961181640625</LongitudeDegrees>
            </Position>
            <AltitudeMeters>387.79998779296875</AltitudeMeters>
            <DistanceMeters>NAN</DistanceMeters>
          </Trackpoint>
          <Trackpoint>
            <Time>2022-09-22T13:38:20.000Z</Time>
            <Position>
              <LatitudeDegrees>49.46946454234421253204345703125</LatitudeDegrees>
              <LongitudeDegrees>20.70234940387308597564697265625</LongitudeDegrees>
            </Position>
            <AltitudeMeters>387.79998779296875</AltitudeMeters>
            <DistanceMeters>NAN</DistanceMeters>
          </Trackpoint>
          <Trackpoint>
            <Time>2022-09-22T13:38:26.000Z</Time>
            <Position>
              <LatitudeDegrees>49.469431601464748382568359375</LatitudeDegrees>
              <LongitudeDegrees>20.70248921401798725128173828125</LongitudeDegrees>
            </Position>
            <AltitudeMeters>387.399993896484375</AltitudeMeters>
            <DistanceMeters>NAN</DistanceMeters>
          </Trackpoint>
          <Trackpoint>
            <Time>2022-09-22T13:38:31.000Z</Time>
            <Position>
              <LatitudeDegrees>49.46936362423002719879150390625</LatitudeDegrees>
              <LongitudeDegrees>20.70268082432448863983154296875</LongitudeDegrees>
            </Position>
            <AltitudeMeters>387</AltitudeMeters>
            <DistanceMeters>NAN</DistanceMeters>
          </Trackpoint>
          <Trackpoint>
            <Time>2022-09-22T13:38:36.000Z</Time>
            <Position>
              <LatitudeDegrees>49.46924619376659393310546875</LatitudeDegrees>
              <LongitudeDegrees>20.70290814153850078582763671875</LongitudeDegrees>
            </Position>
            <AltitudeMeters>386</AltitudeMeters>
            <DistanceMeters>NAN</DistanceMeters>
          </Trackpoint>
          <Trackpoint>
            <Time>2022-09-22T13:38:37.000Z</Time>
            <Position>
              <LatitudeDegrees>49.4692111574113368988037109375</LatitudeDegrees>
              <LongitudeDegrees>20.70296027697622776031494140625</LongitudeDegrees>
            </Position>
            <AltitudeMeters>385.600006103515625</AltitudeMeters>
            <DistanceMeters>NAN</DistanceMeters>
          </Trackpoint>
          <Trackpoint>
            <Time>2022-09-22T13:38:39.000Z</Time>
            <Position>
              <LatitudeDegrees>49.4691628776490688323974609375</LatitudeDegrees>
              <LongitudeDegrees>20.70304560475051403045654296875</LongitudeDegrees>
            </Position>
            <AltitudeMeters>385</AltitudeMeters>
            <DistanceMeters>NAN</DistanceMeters>
          </Trackpoint>
          <Trackpoint>
            <Time>2022-09-22T13:38:42.000Z</Time>
            <Position>
              <LatitudeDegrees>49.469084255397319793701171875</LatitudeDegrees>
              <LongitudeDegrees>20.7032141648232936859130859375</LongitudeDegrees>
            </Position>
            <AltitudeMeters>383.399993896484375</AltitudeMeters>
            <DistanceMeters>NAN</DistanceMeters>
          </Trackpoint>
          <Trackpoint>
            <Time>2022-09-22T13:38:43.000Z</Time>
            <Position>
              <LatitudeDegrees>49.469051398336887359619140625</LatitudeDegrees>
              <LongitudeDegrees>20.70327065885066986083984375</LongitudeDegrees>
            </Position>
            <AltitudeMeters>383.20001220703125</AltitudeMeters>
            <DistanceMeters>NAN</DistanceMeters>
          </Trackpoint>
          <Trackpoint>
            <Time>2022-09-22T13:38:46.000Z</Time>
            <Position>
              <LatitudeDegrees>49.46893103420734405517578125</LatitudeDegrees>
              <LongitudeDegrees>20.70345832966268062591552734375</LongitudeDegrees>
            </Position>
            <AltitudeMeters>382.20001220703125</AltitudeMeters>
            <DistanceMeters>NAN</DistanceMeters>
          </Trackpoint>
          <Trackpoint>
            <Time>2022-09-22T13:38:47.000Z</Time>
            <Position>
              <LatitudeDegrees>49.46889826096594333648681640625</LatitudeDegrees>
              <LongitudeDegrees>20.70351918227970600128173828125</LongitudeDegrees>
            </Position>
            <AltitudeMeters>381.79998779296875</AltitudeMeters>
            <DistanceMeters>NAN</DistanceMeters>
          </Trackpoint>
          <Trackpoint>
            <Time>2022-09-22T13:38:50.000Z</Time>
            <Position>
              <LatitudeDegrees>49.46883573196828365325927734375</LatitudeDegrees>
              <LongitudeDegrees>20.70364080369472503662109375</LongitudeDegrees>
            </Position>
            <AltitudeMeters>381</AltitudeMeters>
            <DistanceMeters>NAN</DistanceMeters>
          </Trackpoint>
          <Trackpoint>
            <Time>2022-09-22T13:38:51.000Z</Time>
            <Position>
              <LatitudeDegrees>49.4688172079622745513916015625</LatitudeDegrees>
              <LongitudeDegrees>20.7036879099905490875244140625</LongitudeDegrees>
            </Position>
            <AltitudeMeters>380.600006103515625</AltitudeMeters>
            <DistanceMeters>NAN</DistanceMeters>
          </Trackpoint>
          <Trackpoint>
            <Time>2022-09-22T13:38:53.000Z</Time>
            <Position>
              <LatitudeDegrees>49.46877387352287769317626953125</LatitudeDegrees>
              <LongitudeDegrees>20.70376695133745670318603515625</LongitudeDegrees>
            </Position>
            <AltitudeMeters>380</AltitudeMeters>
            <DistanceMeters>NAN</DistanceMeters>
          </Trackpoint>
          <Trackpoint>
            <Time>2022-09-22T13:38:55.000Z</Time>
            <Position>
              <LatitudeDegrees>49.4687129370868206024169921875</LatitudeDegrees>
              <LongitudeDegrees>20.70383534766733646392822265625</LongitudeDegrees>
            </Position>
            <AltitudeMeters>379.399993896484375</AltitudeMeters>
            <DistanceMeters>NAN</DistanceMeters>
          </Trackpoint>
          <Trackpoint>
            <Time>2022-09-22T13:38:57.000Z</Time>
            <Position>
              <LatitudeDegrees>49.46865384466946125030517578125</LatitudeDegrees>
              <LongitudeDegrees>20.70386200211942195892333984375</LongitudeDegrees>
            </Position>
            <AltitudeMeters>379</AltitudeMeters>
            <DistanceMeters>NAN</DistanceMeters>
          </Trackpoint>
          <Trackpoint>
            <Time>2022-09-22T13:39:01.000Z</Time>
            <Position>
              <LatitudeDegrees>49.46851403452455997467041015625</LatitudeDegrees>
              <LongitudeDegrees>20.7039293088018894195556640625</LongitudeDegrees>
            </Position>
            <AltitudeMeters>377.600006103515625</AltitudeMeters>
            <DistanceMeters>NAN</DistanceMeters>
          </Trackpoint>
          <Trackpoint>
            <Time>2022-09-22T13:39:04.000Z</Time>
            <Position>
              <LatitudeDegrees>49.468414373695850372314453125</LatitudeDegrees>
              <LongitudeDegrees>20.70385630242526531219482421875</LongitudeDegrees>
            </Position>
            <AltitudeMeters>376.600006103515625</AltitudeMeters>
            <DistanceMeters>NAN</DistanceMeters>
          </Trackpoint>
          <Trackpoint>
            <Time>2022-09-22T13:39:06.000Z</Time>
            <Position>
              <LatitudeDegrees>49.4683391042053699493408203125</LatitudeDegrees>
              <LongitudeDegrees>20.7037968747317790985107421875</LongitudeDegrees>
            </Position>
            <AltitudeMeters>376</AltitudeMeters>
            <DistanceMeters>NAN</DistanceMeters>
          </Trackpoint>
          <Trackpoint>
            <Time>2022-09-22T13:39:07.000Z</Time>
            <Position>
              <LatitudeDegrees>49.46829979307949542999267578125</LatitudeDegrees>
              <LongitudeDegrees>20.70376024581491947174072265625</LongitudeDegrees>
            </Position>
            <AltitudeMeters>375.399993896484375</AltitudeMeters>
            <DistanceMeters>NAN</DistanceMeters>
          </Trackpoint>
          <Trackpoint>
            <Time>2022-09-22T13:39:09.000Z</Time>
            <Position>
              <LatitudeDegrees>49.46822435595095157623291015625</LatitudeDegrees>
              <LongitudeDegrees>20.7036838866770267486572265625</LongitudeDegrees>
            </Position>
            <AltitudeMeters>374.20001220703125</AltitudeMeters>
            <DistanceMeters>NAN</DistanceMeters>
          </Trackpoint>
          <Trackpoint>
            <Time>2022-09-22T13:39:11.000Z</Time>
            <Position>
              <LatitudeDegrees>49.4681516848504543304443359375</LatitudeDegrees>
              <LongitudeDegrees>20.70355363190174102783203125</LongitudeDegrees>
            </Position>
            <AltitudeMeters>373</AltitudeMeters>
            <DistanceMeters>NAN</DistanceMeters>
          </Trackpoint>
          <Trackpoint>
            <Time>2022-09-22T13:39:13.000Z</Time>
            <Position>
              <LatitudeDegrees>49.46809443645179271697998046875</LatitudeDegrees>
              <LongitudeDegrees>20.70343963801860809326171875</LongitudeDegrees>
            </Position>
            <AltitudeMeters>371.79998779296875</AltitudeMeters>
            <DistanceMeters>NAN</DistanceMeters>
          </Trackpoint>
          <Trackpoint>
            <Time>2022-09-22T13:39:16.000Z</Time>
            <Position>
              <LatitudeDegrees>49.4679902493953704833984375</LatitudeDegrees>
              <LongitudeDegrees>20.7032557390630245208740234375</LongitudeDegrees>
            </Position>
            <AltitudeMeters>370.399993896484375</AltitudeMeters>
            <DistanceMeters>NAN</DistanceMeters>
          </Trackpoint>
          <Trackpoint>
            <Time>2022-09-22T13:39:18.000Z</Time>
            <Position>
              <LatitudeDegrees>49.4679206795990467071533203125</LatitudeDegrees>
              <LongitudeDegrees>20.70312271825969219207763671875</LongitudeDegrees>
            </Position>
            <AltitudeMeters>369.20001220703125</AltitudeMeters>
            <DistanceMeters>NAN</DistanceMeters>
          </Trackpoint>
          <Trackpoint>
            <Time>2022-09-22T13:39:20.000Z</Time>
            <Position>
              <LatitudeDegrees>49.46784515865147113800048828125</LatitudeDegrees>
              <LongitudeDegrees>20.70297452621161937713623046875</LongitudeDegrees>
            </Position>
            <AltitudeMeters>368</AltitudeMeters>
            <DistanceMeters>NAN</DistanceMeters>
          </Trackpoint>
          <Trackpoint>
            <Time>2022-09-22T13:39:22.000Z</Time>
            <Position>
              <LatitudeDegrees>49.4677607528865337371826171875</LatitudeDegrees>
              <LongitudeDegrees>20.70282298140227794647216796875</LongitudeDegrees>
            </Position>
            <AltitudeMeters>366.600006103515625</AltitudeMeters>
            <DistanceMeters>NAN</DistanceMeters>
          </Trackpoint>
          <Trackpoint>
            <Time>2022-09-22T13:39:23.000Z</Time>
            <Position>
              <LatitudeDegrees>49.4677208550274372100830078125</LatitudeDegrees>
              <LongitudeDegrees>20.70274494588375091552734375</LongitudeDegrees>
            </Position>
            <AltitudeMeters>366</AltitudeMeters>
            <DistanceMeters>NAN</DistanceMeters>
          </Trackpoint>
          <Trackpoint>
            <Time>2022-09-22T13:39:24.000Z</Time>
            <Position>
              <LatitudeDegrees>49.4676816277205944061279296875</LatitudeDegrees>
              <LongitudeDegrees>20.70266674272716045379638671875</LongitudeDegrees>
            </Position>
            <AltitudeMeters>365.600006103515625</AltitudeMeters>
            <DistanceMeters>NAN</DistanceMeters>
          </Trackpoint>
          <Trackpoint>
            <Time>2022-09-22T13:39:27.000Z</Time>
            <Position>
              <LatitudeDegrees>49.46758163161575794219970703125</LatitudeDegrees>
              <LongitudeDegrees>20.70244629867374897003173828125</LongitudeDegrees>
            </Position>
            <AltitudeMeters>364.20001220703125</AltitudeMeters>
            <DistanceMeters>NAN</DistanceMeters>
          </Trackpoint>
          <Trackpoint>
            <Time>2022-09-22T13:39:29.000Z</Time>
            <Position>
              <LatitudeDegrees>49.46752748452126979827880859375</LatitudeDegrees>
              <LongitudeDegrees>20.7022921554744243621826171875</LongitudeDegrees>
            </Position>
            <AltitudeMeters>363.399993896484375</AltitudeMeters>
            <DistanceMeters>NAN</DistanceMeters>
          </Trackpoint>
          <Trackpoint>
            <Time>2022-09-22T13:39:30.000Z</Time>
            <Position>
              <LatitudeDegrees>49.4675052724778652191162109375</LatitudeDegrees>
              <LongitudeDegrees>20.7022204063832759857177734375</LongitudeDegrees>
            </Position>
            <AltitudeMeters>363</AltitudeMeters>
            <DistanceMeters>NAN</DistanceMeters>
          </Trackpoint>
          <Trackpoint>
            <Time>2022-09-22T13:39:33.000Z</Time>
            <Position>
              <LatitudeDegrees>49.4674551486968994140625</LatitudeDegrees>
              <LongitudeDegrees>20.7020039856433868408203125</LongitudeDegrees>
            </Position>
            <AltitudeMeters>362</AltitudeMeters>
            <DistanceMeters>NAN</DistanceMeters>
          </Trackpoint>
          <Trackpoint>
            <Time>2022-09-22T13:39:34.000Z</Time>
            <Position>
              <LatitudeDegrees>49.46745179593563079833984375</LatitudeDegrees>
              <LongitudeDegrees>20.70192754268646240234375</LongitudeDegrees>
            </Position>
            <AltitudeMeters>361.600006103515625</AltitudeMeters>
            <DistanceMeters>NAN</DistanceMeters>
          </Trackpoint>
          <Trackpoint>
            <Time>2022-09-22T13:39:37.000Z</Time>
            <Position>
              <LatitudeDegrees>49.46744467131793498992919921875</LatitudeDegrees>
              <LongitudeDegrees>20.70168840698897838592529296875</LongitudeDegrees>
            </Position>
            <AltitudeMeters>360.79998779296875</AltitudeMeters>
            <DistanceMeters>NAN</DistanceMeters>
          </Trackpoint>
          <Trackpoint>
            <Time>2022-09-22T13:39:42.000Z</Time>
            <Position>
              <LatitudeDegrees>49.46742103435099124908447265625</LatitudeDegrees>
              <LongitudeDegrees>20.70125070400536060333251953125</LongitudeDegrees>
            </Position>
            <AltitudeMeters>359.600006103515625</AltitudeMeters>
            <DistanceMeters>NAN</DistanceMeters>
          </Trackpoint>
          <Trackpoint>
            <Time>2022-09-22T13:39:45.000Z</Time>
            <Position>
              <LatitudeDegrees>49.46741315536201000213623046875</LatitudeDegrees>
              <LongitudeDegrees>20.70097963325679302215576171875</LongitudeDegrees>
            </Position>
            <AltitudeMeters>358.399993896484375</AltitudeMeters>
            <DistanceMeters>NAN</DistanceMeters>
          </Trackpoint>
          <Trackpoint>
            <Time>2022-09-22T13:39:48.000Z</Time>
            <Position>
              <LatitudeDegrees>49.46740058250725269317626953125</LatitudeDegrees>
              <LongitudeDegrees>20.70069716311991214752197265625</LongitudeDegrees>
            </Position>
            <AltitudeMeters>357.600006103515625</AltitudeMeters>
            <DistanceMeters>NAN</DistanceMeters>
          </Trackpoint>
          <Trackpoint>
            <Time>2022-09-22T13:39:49.000Z</Time>
            <Position>
              <LatitudeDegrees>49.46738784201443195343017578125</LatitudeDegrees>
              <LongitudeDegrees>20.70060647092759609222412109375</LongitudeDegrees>
            </Position>
            <AltitudeMeters>357</AltitudeMeters>
            <DistanceMeters>NAN</DistanceMeters>
          </Trackpoint>
          <Trackpoint>
            <Time>2022-09-22T13:39:51.000Z</Time>
            <Position>
              <LatitudeDegrees>49.46734450757503509521484375</LatitudeDegrees>
              <LongitudeDegrees>20.700423829257488250732421875</LongitudeDegrees>
            </Position>
            <AltitudeMeters>356.399993896484375</AltitudeMeters>
            <DistanceMeters>NAN</DistanceMeters>
          </Trackpoint>
          <Trackpoint>
            <Time>2022-09-22T13:39:52.000Z</Time>
            <Position>
              <LatitudeDegrees>49.46731609292328357696533203125</LatitudeDegrees>
              <LongitudeDegrees>20.70033523254096508026123046875</LongitudeDegrees>
            </Position>
            <AltitudeMeters>356</AltitudeMeters>
            <DistanceMeters>NAN</DistanceMeters>
          </Trackpoint>
          <Trackpoint>
            <Time>2022-09-22T13:39:53.000Z</Time>
            <Position>
              <LatitudeDegrees>49.46727803908288478851318359375</LatitudeDegrees>
              <LongitudeDegrees>20.70025526918470859527587890625</LongitudeDegrees>
            </Position>
            <AltitudeMeters>356</AltitudeMeters>
            <DistanceMeters>NAN</DistanceMeters>
          </Trackpoint>
          <Trackpoint>
            <Time>2022-09-22T13:39:56.000Z</Time>
            <Position>
              <LatitudeDegrees>49.46714426390826702117919921875</LatitudeDegrees>
              <LongitudeDegrees>20.7000862061977386474609375</LongitudeDegrees>
            </Position>
            <AltitudeMeters>355.399993896484375</AltitudeMeters>
            <DistanceMeters>NAN</DistanceMeters>
          </Trackpoint>
          <Trackpoint>
            <Time>2022-09-22T13:39:57.000Z</Time>
            <Position>
              <LatitudeDegrees>49.46710369549691677093505859375</LatitudeDegrees>
              <LongitudeDegrees>20.70004723034799098968505859375</LongitudeDegrees>
            </Position>
            <AltitudeMeters>355.399993896484375</AltitudeMeters>
            <DistanceMeters>NAN</DistanceMeters>
          </Trackpoint>
          <Trackpoint>
            <Time>2022-09-22T13:40:00.000Z</Time>
            <Position>
              <LatitudeDegrees>49.46700160391628742218017578125</LatitudeDegrees>
              <LongitudeDegrees>20.699959136545658111572265625</LongitudeDegrees>
            </Position>
            <AltitudeMeters>355.399993896484375</AltitudeMeters>
            <DistanceMeters>NAN</DistanceMeters>
          </Trackpoint>
          <Trackpoint>
            <Time>2022-09-22T13:40:03.000Z</Time>
            <Position>
              <LatitudeDegrees>49.4669275917112827301025390625</LatitudeDegrees>
              <LongitudeDegrees>20.69991110824048519134521484375</LongitudeDegrees>
            </Position>
            <AltitudeMeters>355.600006103515625</AltitudeMeters>
            <DistanceMeters>NAN</DistanceMeters>
          </Trackpoint>
          <Trackpoint>
            <Time>2022-09-22T13:40:04.000Z</Time>
            <Position>
              <LatitudeDegrees>49.46691627614200115203857421875</LatitudeDegrees>
              <LongitudeDegrees>20.6999123655259609222412109375</LongitudeDegrees>
            </Position>
            <AltitudeMeters>355.600006103515625</AltitudeMeters>
            <DistanceMeters>NAN</DistanceMeters>
          </Trackpoint>
          <Trackpoint>
            <Time>2022-09-22T13:40:08.000Z</Time>
            <Position>
              <LatitudeDegrees>49.46691862307488918304443359375</LatitudeDegrees>
              <LongitudeDegrees>20.6999311409890651702880859375</LongitudeDegrees>
            </Position>
            <AltitudeMeters>355.600006103515625</AltitudeMeters>
            <DistanceMeters>NAN</DistanceMeters>
          </Trackpoint>
          <Trackpoint>
            <Time>2022-09-22T13:40:09.000Z</Time>
            <Position>
              <LatitudeDegrees>49.466935135424137115478515625</LatitudeDegrees>
              <LongitudeDegrees>20.6999388523399829864501953125</LongitudeDegrees>
            </Position>
            <AltitudeMeters>355.600006103515625</AltitudeMeters>
            <DistanceMeters>NAN</DistanceMeters>
          </Trackpoint>
          <Trackpoint>
            <Time>2022-09-22T13:40:12.000Z</Time>
            <Position>
              <LatitudeDegrees>49.4670000113546848297119140625</LatitudeDegrees>
              <LongitudeDegrees>20.69996961392462253570556640625</LongitudeDegrees>
            </Position>
            <AltitudeMeters>355.399993896484375</AltitudeMeters>
            <DistanceMeters>NAN</DistanceMeters>
          </Trackpoint>
          <Trackpoint>
            <Time>2022-09-22T13:40:18.000Z</Time>
            <Position>
              <LatitudeDegrees>49.46714007295668125152587890625</LatitudeDegrees>
              <LongitudeDegrees>20.70010305382311344146728515625</LongitudeDegrees>
            </Position>
            <AltitudeMeters>355.20001220703125</AltitudeMeters>
            <DistanceMeters>NAN</DistanceMeters>
          </Trackpoint>
          <Trackpoint>
            <Time>2022-09-22T13:40:24.000Z</Time>
            <Position>
              <LatitudeDegrees>49.467238895595073699951171875</LatitudeDegrees>
              <LongitudeDegrees>20.70018938742578029632568359375</LongitudeDegrees>
            </Position>
            <AltitudeMeters>355.600006103515625</AltitudeMeters>
            <DistanceMeters>NAN</DistanceMeters>
          </Trackpoint>
          <Trackpoint>
            <Time>2022-09-22T13:40:26.000Z</Time>
            <Position>
              <LatitudeDegrees>49.46726580150425434112548828125</LatitudeDegrees>
              <LongitudeDegrees>20.70022107101976871490478515625</LongitudeDegrees>
            </Position>
            <AltitudeMeters>355.600006103515625</AltitudeMeters>
            <DistanceMeters>NAN</DistanceMeters>
          </Trackpoint>
          <Trackpoint>
            <Time>2022-09-22T13:40:28.000Z</Time>
            <Position>
              <LatitudeDegrees>49.467295892536640167236328125</LatitudeDegrees>
              <LongitudeDegrees>20.7002444565296173095703125</LongitudeDegrees>
            </Position>
            <AltitudeMeters>355.79998779296875</AltitudeMeters>
            <DistanceMeters>NAN</DistanceMeters>
          </Trackpoint>
          <Trackpoint>
            <Time>2022-09-22T13:40:29.000Z</Time>
            <Position>
              <LatitudeDegrees>49.46730569936335086822509765625</LatitudeDegrees>
              <LongitudeDegrees>20.70026247762143611907958984375</LongitudeDegrees>
            </Position>
            <AltitudeMeters>355.79998779296875</AltitudeMeters>
            <DistanceMeters>NAN</DistanceMeters>
          </Trackpoint>
          <Trackpoint>
            <Time>2022-09-22T13:40:36.000Z</Time>
            <Position>
              <LatitudeDegrees>49.4673735089600086212158203125</LatitudeDegrees>
              <LongitudeDegrees>20.70047445595264434814453125</LongitudeDegrees>
            </Position>
            <AltitudeMeters>356</AltitudeMeters>
            <DistanceMeters>NAN</DistanceMeters>
          </Trackpoint>
          <Trackpoint>
            <Time>2022-09-22T13:40:41.000Z</Time>
            <Position>
              <LatitudeDegrees>49.46738365106284618377685546875</LatitudeDegrees>
              <LongitudeDegrees>20.70051334798336029052734375</LongitudeDegrees>
            </Position>
            <AltitudeMeters>356.399993896484375</AltitudeMeters>
            <DistanceMeters>NAN</DistanceMeters>
          </Trackpoint>
          <Trackpoint>
            <Time>2022-09-22T13:40:46.000Z</Time>
            <Position>
              <LatitudeDegrees>49.46738281287252902984619140625</LatitudeDegrees>
              <LongitudeDegrees>20.70051326416432857513427734375</LongitudeDegrees>
            </Position>
            <AltitudeMeters>356.399993896484375</AltitudeMeters>
            <DistanceMeters>NAN</DistanceMeters>
          </Trackpoint>
          <Trackpoint>
            <Time>2022-09-22T13:40:47.000Z</Time>
            <Position>
              <LatitudeDegrees>49.46738281287252902984619140625</LatitudeDegrees>
              <LongitudeDegrees>20.70051326416432857513427734375</LongitudeDegrees>
            </Position>
            <AltitudeMeters>356.399993896484375</AltitudeMeters>
            <DistanceMeters>NAN</DistanceMeters>
          </Trackpoint>
          <Trackpoint>
            <Time>2022-09-22T13:41:06.000Z</Time>
            <Position>
              <LatitudeDegrees>49.46738281287252902984619140625</LatitudeDegrees>
              <LongitudeDegrees>20.70051326416432857513427734375</LongitudeDegrees>
            </Position>
            <AltitudeMeters>356.399993896484375</AltitudeMeters>
            <DistanceMeters>NAN</DistanceMeters>
          </Trackpoint>
          <Trackpoint>
            <Time>2022-09-22T13:41:09.000Z</Time>
            <Position>
              <LatitudeDegrees>49.46738281287252902984619140625</LatitudeDegrees>
              <LongitudeDegrees>20.70051326416432857513427734375</LongitudeDegrees>
            </Position>
            <AltitudeMeters>356.399993896484375</AltitudeMeters>
            <DistanceMeters>NAN</DistanceMeters>
          </Trackpoint>
          <Trackpoint>
            <Time>2022-09-22T13:41:32.000Z</Time>
            <Position>
              <LatitudeDegrees>49.467390440404415130615234375</LatitudeDegrees>
              <LongitudeDegrees>20.70051862858235836029052734375</LongitudeDegrees>
            </Position>
            <AltitudeMeters>356.399993896484375</AltitudeMeters>
            <DistanceMeters>NAN</DistanceMeters>
          </Trackpoint>
          <Trackpoint>
            <Time>2022-09-22T13:41:41.000Z</Time>
            <Position>
              <LatitudeDegrees>49.467390440404415130615234375</LatitudeDegrees>
              <LongitudeDegrees>20.70051862858235836029052734375</LongitudeDegrees>
            </Position>
            <AltitudeMeters>356.399993896484375</AltitudeMeters>
            <DistanceMeters>NAN</DistanceMeters>
          </Trackpoint>
          <Trackpoint>
            <Time>2022-09-22T13:41:44.000Z</Time>
            <Position>
              <LatitudeDegrees>49.467390440404415130615234375</LatitudeDegrees>
              <LongitudeDegrees>20.70051862858235836029052734375</LongitudeDegrees>
            </Position>
            <AltitudeMeters>356.20001220703125</AltitudeMeters>
            <DistanceMeters>NAN</DistanceMeters>
          </Trackpoint>
          <Trackpoint>
            <Time>2022-09-22T13:41:52.000Z</Time>
            <Position>
              <LatitudeDegrees>49.467390440404415130615234375</LatitudeDegrees>
              <LongitudeDegrees>20.70051862858235836029052734375</LongitudeDegrees>
            </Position>
            <AltitudeMeters>356.20001220703125</AltitudeMeters>
            <DistanceMeters>NAN</DistanceMeters>
          </Trackpoint>
          <Trackpoint>
            <Time>2022-09-22T13:42:13.000Z</Time>
            <Position>
              <LatitudeDegrees>49.4673721678555011749267578125</LatitudeDegrees>
              <LongitudeDegrees>20.7005153596401214599609375</LongitudeDegrees>
            </Position>
            <AltitudeMeters>356.20001220703125</AltitudeMeters>
            <DistanceMeters>NAN</DistanceMeters>
          </Trackpoint>
          <Trackpoint>
            <Time>2022-09-22T13:42:17.000Z</Time>
            <Position>
              <LatitudeDegrees>49.4673721678555011749267578125</LatitudeDegrees>
              <LongitudeDegrees>20.7005153596401214599609375</LongitudeDegrees>
            </Position>
            <AltitudeMeters>356.20001220703125</AltitudeMeters>
            <DistanceMeters>NAN</DistanceMeters>
          </Trackpoint>
          <Trackpoint>
            <Time>2022-09-22T13:42:44.000Z</Time>
            <Position>
              <LatitudeDegrees>49.4673721678555011749267578125</LatitudeDegrees>
              <LongitudeDegrees>20.7005153596401214599609375</LongitudeDegrees>
            </Position>
            <AltitudeMeters>356.20001220703125</AltitudeMeters>
            <DistanceMeters>NAN</DistanceMeters>
          </Trackpoint>
          <Trackpoint>
            <Time>2022-09-22T13:42:55.000Z</Time>
            <Position>
              <LatitudeDegrees>49.46736252866685390472412109375</LatitudeDegrees>
              <LongitudeDegrees>20.70053438656032085418701171875</LongitudeDegrees>
            </Position>
            <AltitudeMeters>356.20001220703125</AltitudeMeters>
            <DistanceMeters>NAN</DistanceMeters>
          </Trackpoint>
          <Trackpoint>
            <Time>2022-09-22T13:42:59.000Z</Time>
            <Position>
              <LatitudeDegrees>49.4673621095716953277587890625</LatitudeDegrees>
              <LongitudeDegrees>20.7005332969129085540771484375</LongitudeDegrees>
            </Position>
            <AltitudeMeters>356.20001220703125</AltitudeMeters>
            <DistanceMeters>NAN</DistanceMeters>
          </Trackpoint>
          <Trackpoint>
            <Time>2022-09-22T13:43:01.000Z</Time>
            <Position>
              <LatitudeDegrees>49.46734911762177944183349609375</LatitudeDegrees>
              <LongitudeDegrees>20.700488202273845672607421875</LongitudeDegrees>
            </Position>
            <AltitudeMeters>356.20001220703125</AltitudeMeters>
            <DistanceMeters>NAN</DistanceMeters>
          </Trackpoint>
          <Trackpoint>
            <Time>2022-09-22T13:43:06.000Z</Time>
            <Position>
              <LatitudeDegrees>49.46731022559106349945068359375</LatitudeDegrees>
              <LongitudeDegrees>20.70034839212894439697265625</LongitudeDegrees>
            </Position>
            <AltitudeMeters>355.79998779296875</AltitudeMeters>
            <DistanceMeters>NAN</DistanceMeters>
          </Trackpoint>
          <Trackpoint>
            <Time>2022-09-22T13:43:12.000Z</Time>
            <Position>
              <LatitudeDegrees>49.46723051369190216064453125</LatitudeDegrees>
              <LongitudeDegrees>20.700230710208415985107421875</LongitudeDegrees>
            </Position>
            <AltitudeMeters>355.399993896484375</AltitudeMeters>
            <DistanceMeters>NAN</DistanceMeters>
          </Trackpoint>
          <Trackpoint>
            <Time>2022-09-22T13:43:17.000Z</Time>
            <Position>
              <LatitudeDegrees>49.4671525619924068450927734375</LatitudeDegrees>
              <LongitudeDegrees>20.7001229189336299896240234375</LongitudeDegrees>
            </Position>
            <AltitudeMeters>355.20001220703125</AltitudeMeters>
            <DistanceMeters>NAN</DistanceMeters>
          </Trackpoint>
          <Trackpoint>
            <Time>2022-09-22T13:43:20.000Z</Time>
            <Position>
              <LatitudeDegrees>49.467091374099254608154296875</LatitudeDegrees>
              <LongitudeDegrees>20.7000823505222797393798828125</LongitudeDegrees>
            </Position>
            <AltitudeMeters>355</AltitudeMeters>
            <DistanceMeters>NAN</DistanceMeters>
          </Trackpoint>
          <Trackpoint>
            <Time>2022-09-22T13:43:27.000Z</Time>
            <Position>
              <LatitudeDegrees>49.466955922544002532958984375</LatitudeDegrees>
              <LongitudeDegrees>20.699988640844821929931640625</LongitudeDegrees>
            </Position>
            <AltitudeMeters>355</AltitudeMeters>
            <DistanceMeters>NAN</DistanceMeters>
          </Trackpoint>
          <Trackpoint>
            <Time>2022-09-22T13:43:29.000Z</Time>
            <Position>
              <LatitudeDegrees>49.4669192098081111907958984375</LatitudeDegrees>
              <LongitudeDegrees>20.69996483623981475830078125</LongitudeDegrees>
            </Position>
            <AltitudeMeters>355</AltitudeMeters>
            <DistanceMeters>NAN</DistanceMeters>
          </Trackpoint>
          <Trackpoint>
            <Time>2022-09-22T13:43:33.000Z</Time>
            <Position>
              <LatitudeDegrees>49.46684829890727996826171875</LatitudeDegrees>
              <LongitudeDegrees>20.6999153830111026763916015625</LongitudeDegrees>
            </Position>
            <AltitudeMeters>355</AltitudeMeters>
            <DistanceMeters>NAN</DistanceMeters>
          </Trackpoint>
          <Trackpoint>
            <Time>2022-09-22T13:43:38.000Z</Time>
            <Position>
              <LatitudeDegrees>49.46672902442514896392822265625</LatitudeDegrees>
              <LongitudeDegrees>20.6998382695019245147705078125</LongitudeDegrees>
            </Position>
            <AltitudeMeters>354.79998779296875</AltitudeMeters>
            <DistanceMeters>NAN</DistanceMeters>
          </Trackpoint>
          <Trackpoint>
            <Time>2022-09-22T13:43:39.000Z</Time>
            <Position>
              <LatitudeDegrees>49.466703124344348907470703125</LatitudeDegrees>
              <LongitudeDegrees>20.69982645101845264434814453125</LongitudeDegrees>
            </Position>
            <AltitudeMeters>354.79998779296875</AltitudeMeters>
            <DistanceMeters>NAN</DistanceMeters>
          </Trackpoint>
          <Trackpoint>
            <Time>2022-09-22T13:43:44.000Z</Time>
            <Position>
              <LatitudeDegrees>49.46658946573734283447265625</LatitudeDegrees>
              <LongitudeDegrees>20.699775405228137969970703125</LongitudeDegrees>
            </Position>
            <AltitudeMeters>355</AltitudeMeters>
            <DistanceMeters>NAN</DistanceMeters>
          </Trackpoint>
          <Trackpoint>
            <Time>2022-09-22T13:43:50.000Z</Time>
            <Position>
              <LatitudeDegrees>49.46645024232566356658935546875</LatitudeDegrees>
              <LongitudeDegrees>20.69968186318874359130859375</LongitudeDegrees>
            </Position>
            <AltitudeMeters>355</AltitudeMeters>
            <DistanceMeters>NAN</DistanceMeters>
          </Trackpoint>
          <Trackpoint>
            <Time>2022-09-22T13:43:53.000Z</Time>
            <Position>
              <LatitudeDegrees>49.46633239276707172393798828125</LatitudeDegrees>
              <LongitudeDegrees>20.69961975328624248504638671875</LongitudeDegrees>
            </Position>
            <AltitudeMeters>354.79998779296875</AltitudeMeters>
            <DistanceMeters>NAN</DistanceMeters>
          </Trackpoint>
          <Trackpoint>
            <Time>2022-09-22T13:43:55.000Z</Time>
            <Position>
              <LatitudeDegrees>49.4662550278007984161376953125</LatitudeDegrees>
              <LongitudeDegrees>20.69961137138307094573974609375</LongitudeDegrees>
            </Position>
            <AltitudeMeters>354.79998779296875</AltitudeMeters>
            <DistanceMeters>NAN</DistanceMeters>
          </Trackpoint>
          <Trackpoint>
            <Time>2022-09-22T13:44:03.000Z</Time>
            <Position>
              <LatitudeDegrees>49.46598772890865802764892578125</LatitudeDegrees>
              <LongitudeDegrees>20.6995727308094501495361328125</LongitudeDegrees>
            </Position>
            <AltitudeMeters>355</AltitudeMeters>
            <DistanceMeters>NAN</DistanceMeters>
          </Trackpoint>
          <Trackpoint>
            <Time>2022-09-22T13:44:09.000Z</Time>
            <Position>
              <LatitudeDegrees>49.4658029079437255859375</LatitudeDegrees>
              <LongitudeDegrees>20.69956946186721324920654296875</LongitudeDegrees>
            </Position>
            <AltitudeMeters>355.399993896484375</AltitudeMeters>
            <DistanceMeters>NAN</DistanceMeters>
          </Trackpoint>
          <Trackpoint>
            <Time>2022-09-22T13:44:15.000Z</Time>
            <Position>
              <LatitudeDegrees>49.46556997485458850860595703125</LatitudeDegrees>
              <LongitudeDegrees>20.69954632781445980072021484375</LongitudeDegrees>
            </Position>
            <AltitudeMeters>355.600006103515625</AltitudeMeters>
            <DistanceMeters>NAN</DistanceMeters>
          </Trackpoint>
          <Trackpoint>
            <Time>2022-09-22T13:44:23.000Z</Time>
            <Position>
              <LatitudeDegrees>49.46529219858348369598388671875</LatitudeDegrees>
              <LongitudeDegrees>20.69951883517205715179443359375</LongitudeDegrees>
            </Position>
            <AltitudeMeters>355.399993896484375</AltitudeMeters>
            <DistanceMeters>NAN</DistanceMeters>
          </Trackpoint>
          <Trackpoint>
            <Time>2022-09-22T13:44:29.000Z</Time>
            <Position>
              <LatitudeDegrees>49.4651551544666290283203125</LatitudeDegrees>
              <LongitudeDegrees>20.69949067197740077972412109375</LongitudeDegrees>
            </Position>
            <AltitudeMeters>355.600006103515625</AltitudeMeters>
            <DistanceMeters>NAN</DistanceMeters>
          </Trackpoint>
          <Trackpoint>
            <Time>2022-09-22T13:44:35.000Z</Time>
            <Position>
              <LatitudeDegrees>49.46515138261020183563232421875</LatitudeDegrees>
              <LongitudeDegrees>20.69948782213032245635986328125</LongitudeDegrees>
            </Position>
            <AltitudeMeters>355.600006103515625</AltitudeMeters>
            <DistanceMeters>NAN</DistanceMeters>
          </Trackpoint>
          <Trackpoint>
            <Time>2022-09-22T13:44:41.000Z</Time>
            <Position>
              <LatitudeDegrees>49.46510964073240756988525390625</LatitudeDegrees>
              <LongitudeDegrees>20.69947960786521434783935546875</LongitudeDegrees>
            </Position>
            <AltitudeMeters>355.79998779296875</AltitudeMeters>
            <DistanceMeters>NAN</DistanceMeters>
          </Trackpoint>
          <Trackpoint>
            <Time>2022-09-22T13:44:43.000Z</Time>
            <Position>
              <LatitudeDegrees>49.46509187109768390655517578125</LatitudeDegrees>
              <LongitudeDegrees>20.699471645057201385498046875</LongitudeDegrees>
            </Position>
            <AltitudeMeters>356</AltitudeMeters>
            <DistanceMeters>NAN</DistanceMeters>
          </Trackpoint>
          <Trackpoint>
            <Time>2022-09-22T13:44:50.000Z</Time>
            <Position>
              <LatitudeDegrees>49.46502883918583393096923828125</LatitudeDegrees>
              <LongitudeDegrees>20.69944306276738643646240234375</LongitudeDegrees>
            </Position>
            <AltitudeMeters>356.79998779296875</AltitudeMeters>
            <DistanceMeters>NAN</DistanceMeters>
          </Trackpoint>
          <Trackpoint>
            <Time>2022-09-22T13:44:53.000Z</Time>
            <Position>
              <LatitudeDegrees>49.46500235237181186676025390625</LatitudeDegrees>
              <LongitudeDegrees>20.699436105787754058837890625</LongitudeDegrees>
            </Position>
            <AltitudeMeters>357</AltitudeMeters>
            <DistanceMeters>NAN</DistanceMeters>
          </Trackpoint>
          <Trackpoint>
            <Time>2022-09-22T13:44:59.000Z</Time>
            <Position>
              <LatitudeDegrees>49.4649789668619632720947265625</LatitudeDegrees>
              <LongitudeDegrees>20.69941054098308086395263671875</LongitudeDegrees>
            </Position>
            <AltitudeMeters>357.600006103515625</AltitudeMeters>
            <DistanceMeters>NAN</DistanceMeters>
          </Trackpoint>
          <Trackpoint>
            <Time>2022-09-22T13:45:06.000Z</Time>
            <Position>
              <LatitudeDegrees>49.46493077091872692108154296875</LatitudeDegrees>
              <LongitudeDegrees>20.69938941858708858489990234375</LongitudeDegrees>
            </Position>
            <AltitudeMeters>357.79998779296875</AltitudeMeters>
            <DistanceMeters>NAN</DistanceMeters>
          </Trackpoint>
          <Trackpoint>
            <Time>2022-09-22T13:45:09.000Z</Time>
            <Position>
              <LatitudeDegrees>49.46493051946163177490234375</LatitudeDegrees>
              <LongitudeDegrees>20.699367038905620574951171875</LongitudeDegrees>
            </Position>
            <AltitudeMeters>358</AltitudeMeters>
            <DistanceMeters>NAN</DistanceMeters>
          </Trackpoint>
          <Trackpoint>
            <Time>2022-09-22T13:45:12.000Z</Time>
            <Position>
              <LatitudeDegrees>49.46493051946163177490234375</LatitudeDegrees>
              <LongitudeDegrees>20.699367038905620574951171875</LongitudeDegrees>
            </Position>
            <AltitudeMeters>358.20001220703125</AltitudeMeters>
            <DistanceMeters>NAN</DistanceMeters>
          </Trackpoint>
          <Trackpoint>
            <Time>2022-09-22T13:45:15.000Z</Time>
            <Position>
              <LatitudeDegrees>49.46493051946163177490234375</LatitudeDegrees>
              <LongitudeDegrees>20.699367038905620574951171875</LongitudeDegrees>
            </Position>
            <AltitudeMeters>358.20001220703125</AltitudeMeters>
            <DistanceMeters>NAN</DistanceMeters>
          </Trackpoint>
          <Trackpoint>
            <Time>2022-09-22T13:45:31.000Z</Time>
            <Position>
              <LatitudeDegrees>49.46492423303425312042236328125</LatitudeDegrees>
              <LongitudeDegrees>20.69935589097440242767333984375</LongitudeDegrees>
            </Position>
            <AltitudeMeters>358</AltitudeMeters>
            <DistanceMeters>NAN</DistanceMeters>
          </Trackpoint>
          <Trackpoint>
            <Time>2022-09-22T13:45:32.000Z</Time>
            <Position>
              <LatitudeDegrees>49.46492423303425312042236328125</LatitudeDegrees>
              <LongitudeDegrees>20.69935589097440242767333984375</LongitudeDegrees>
            </Position>
            <AltitudeMeters>358.20001220703125</AltitudeMeters>
            <DistanceMeters>NAN</DistanceMeters>
          </Trackpoint>
          <Trackpoint>
            <Time>2022-09-22T13:45:45.000Z</Time>
            <Position>
              <LatitudeDegrees>49.46491350419819355010986328125</LatitudeDegrees>
              <LongitudeDegrees>20.699329487979412078857421875</LongitudeDegrees>
            </Position>
            <AltitudeMeters>358.20001220703125</AltitudeMeters>
            <DistanceMeters>NAN</DistanceMeters>
          </Trackpoint>
          <Trackpoint>
            <Time>2022-09-22T13:45:48.000Z</Time>
            <Position>
              <LatitudeDegrees>49.46491300128400325775146484375</LatitudeDegrees>
              <LongitudeDegrees>20.69924910552799701690673828125</LongitudeDegrees>
            </Position>
            <AltitudeMeters>358.20001220703125</AltitudeMeters>
            <DistanceMeters>NAN</DistanceMeters>
          </Trackpoint>
          <Trackpoint>
            <Time>2022-09-22T13:45:55.000Z</Time>
            <Position>
              <LatitudeDegrees>49.46493932045996189117431640625</LatitudeDegrees>
              <LongitudeDegrees>20.69903167895972728729248046875</LongitudeDegrees>
            </Position>
            <AltitudeMeters>358.600006103515625</AltitudeMeters>
            <DistanceMeters>NAN</DistanceMeters>
          </Trackpoint>
          <Trackpoint>
            <Time>2022-09-22T13:45:59.000Z</Time>
            <Position>
              <LatitudeDegrees>49.464979469776153564453125</LatitudeDegrees>
              <LongitudeDegrees>20.69884878583252429962158203125</LongitudeDegrees>
            </Position>
            <AltitudeMeters>358.79998779296875</AltitudeMeters>
            <DistanceMeters>NAN</DistanceMeters>
          </Trackpoint>
          <Trackpoint>
            <Time>2022-09-22T13:46:00.000Z</Time>
            <Position>
              <LatitudeDegrees>49.46499128825962543487548828125</LatitudeDegrees>
              <LongitudeDegrees>20.69879681803286075592041015625</LongitudeDegrees>
            </Position>
            <AltitudeMeters>358.79998779296875</AltitudeMeters>
            <DistanceMeters>NAN</DistanceMeters>
          </Trackpoint>
          <Trackpoint>
            <Time>2022-09-22T13:46:02.000Z</Time>
            <Position>
              <LatitudeDegrees>49.46501056663691997528076171875</LatitudeDegrees>
              <LongitudeDegrees>20.6987013481557369232177734375</LongitudeDegrees>
            </Position>
            <AltitudeMeters>359.20001220703125</AltitudeMeters>
            <DistanceMeters>NAN</DistanceMeters>
          </Trackpoint>
          <Trackpoint>
            <Time>2022-09-22T13:46:07.000Z</Time>
            <Position>
              <LatitudeDegrees>49.4650530628859996795654296875</LatitudeDegrees>
              <LongitudeDegrees>20.6985037028789520263671875</LongitudeDegrees>
            </Position>
            <AltitudeMeters>359.79998779296875</AltitudeMeters>
            <DistanceMeters>NAN</DistanceMeters>
          </Trackpoint>
          <Trackpoint>
            <Time>2022-09-22T13:46:16.000Z</Time>
            <Position>
              <LatitudeDegrees>49.465125314891338348388671875</LatitudeDegrees>
              <LongitudeDegrees>20.69818929769098758697509765625</LongitudeDegrees>
            </Position>
            <AltitudeMeters>359.79998779296875</AltitudeMeters>
            <DistanceMeters>NAN</DistanceMeters>
          </Trackpoint>
          <Trackpoint>
            <Time>2022-09-22T13:46:23.000Z</Time>
            <Position>
              <LatitudeDegrees>49.4651922024786472320556640625</LatitudeDegrees>
              <LongitudeDegrees>20.69786944426596164703369140625</LongitudeDegrees>
            </Position>
            <AltitudeMeters>359.20001220703125</AltitudeMeters>
            <DistanceMeters>NAN</DistanceMeters>
          </Trackpoint>
          <Trackpoint>
            <Time>2022-09-22T13:46:24.000Z</Time>
            <Position>
              <LatitudeDegrees>49.46520670317113399505615234375</LatitudeDegrees>
              <LongitudeDegrees>20.69781948812305927276611328125</LongitudeDegrees>
            </Position>
            <AltitudeMeters>359</AltitudeMeters>
            <DistanceMeters>NAN</DistanceMeters>
          </Trackpoint>
          <Trackpoint>
            <Time>2022-09-22T13:46:30.000Z</Time>
            <Position>
              <LatitudeDegrees>49.46526889689266681671142578125</LatitudeDegrees>
              <LongitudeDegrees>20.6975406222045421600341796875</LongitudeDegrees>
            </Position>
            <AltitudeMeters>358</AltitudeMeters>
            <DistanceMeters>NAN</DistanceMeters>
          </Trackpoint>
          <Trackpoint>
            <Time>2022-09-22T13:46:34.000Z</Time>
            <Position>
              <LatitudeDegrees>49.46530074812471866607666015625</LatitudeDegrees>
              <LongitudeDegrees>20.69737239740788936614990234375</LongitudeDegrees>
            </Position>
            <AltitudeMeters>357.399993896484375</AltitudeMeters>
            <DistanceMeters>NAN</DistanceMeters>
          </Trackpoint>
          <Trackpoint>
            <Time>2022-09-22T13:46:39.000Z</Time>
            <Position>
              <LatitudeDegrees>49.46533025242388248443603515625</LatitudeDegrees>
              <LongitudeDegrees>20.6971802003681659698486328125</LongitudeDegrees>
            </Position>
            <AltitudeMeters>357.399993896484375</AltitudeMeters>
            <DistanceMeters>NAN</DistanceMeters>
          </Trackpoint>
          <Trackpoint>
            <Time>2022-09-22T13:46:40.000Z</Time>
            <Position>
              <LatitudeDegrees>49.46532505564391613006591796875</LatitudeDegrees>
              <LongitudeDegrees>20.6971580721437931060791015625</LongitudeDegrees>
            </Position>
            <AltitudeMeters>357.600006103515625</AltitudeMeters>
            <DistanceMeters>NAN</DistanceMeters>
          </Trackpoint>
          <Trackpoint>
            <Time>2022-09-22T13:46:41.000Z</Time>
            <Position>
              <LatitudeDegrees>49.46531197987496852874755859375</LatitudeDegrees>
              <LongitudeDegrees>20.69713049568235874176025390625</LongitudeDegrees>
            </Position>
            <AltitudeMeters>357.600006103515625</AltitudeMeters>
            <DistanceMeters>NAN</DistanceMeters>
          </Trackpoint>
          <Trackpoint>
            <Time>2022-09-22T13:46:42.000Z</Time>
            <Position>
              <LatitudeDegrees>49.465285241603851318359375</LatitudeDegrees>
              <LongitudeDegrees>20.6971111334860324859619140625</LongitudeDegrees>
            </Position>
            <AltitudeMeters>357.600006103515625</AltitudeMeters>
            <DistanceMeters>NAN</DistanceMeters>
          </Trackpoint>
          <Trackpoint>
            <Time>2022-09-22T13:46:43.000Z</Time>
            <Position>
              <LatitudeDegrees>49.4652485288679599761962890625</LatitudeDegrees>
              <LongitudeDegrees>20.69709487259387969970703125</LongitudeDegrees>
            </Position>
            <AltitudeMeters>357.79998779296875</AltitudeMeters>
            <DistanceMeters>NAN</DistanceMeters>
          </Trackpoint>
          <Trackpoint>
            <Time>2022-09-22T13:46:46.000Z</Time>
            <Position>
              <LatitudeDegrees>49.4651214592158794403076171875</LatitudeDegrees>
              <LongitudeDegrees>20.6970392167568206787109375</LongitudeDegrees>
            </Position>
            <AltitudeMeters>357.79998779296875</AltitudeMeters>
            <DistanceMeters>NAN</DistanceMeters>
          </Trackpoint>
          <Trackpoint>
            <Time>2022-09-22T13:46:47.000Z</Time>
            <Position>
              <LatitudeDegrees>49.46507326327264308929443359375</LatitudeDegrees>
              <LongitudeDegrees>20.69702379405498504638671875</LongitudeDegrees>
            </Position>
            <AltitudeMeters>358</AltitudeMeters>
            <DistanceMeters>NAN</DistanceMeters>
          </Trackpoint>
          <Trackpoint>
            <Time>2022-09-22T13:46:51.000Z</Time>
            <Position>
              <LatitudeDegrees>49.46487830020487308502197265625</LatitudeDegrees>
              <LongitudeDegrees>20.69696268998086452484130859375</LongitudeDegrees>
            </Position>
            <AltitudeMeters>358.20001220703125</AltitudeMeters>
            <DistanceMeters>NAN</DistanceMeters>
          </Trackpoint>
          <Trackpoint>
            <Time>2022-09-22T13:46:53.000Z</Time>
            <Position>
              <LatitudeDegrees>49.46481325663626194000244140625</LatitudeDegrees>
              <LongitudeDegrees>20.69695011712610721588134765625</LongitudeDegrees>
            </Position>
            <AltitudeMeters>359.20001220703125</AltitudeMeters>
            <DistanceMeters>NAN</DistanceMeters>
          </Trackpoint>
          <Trackpoint>
            <Time>2022-09-22T13:46:59.000Z</Time>
            <Position>
              <LatitudeDegrees>49.46465156972408294677734375</LatitudeDegrees>
              <LongitudeDegrees>20.69689261727035045623779296875</LongitudeDegrees>
            </Position>
            <AltitudeMeters>360</AltitudeMeters>
            <DistanceMeters>NAN</DistanceMeters>
          </Trackpoint>
          <Trackpoint>
            <Time>2022-09-22T13:47:00.000Z</Time>
            <Position>
              <LatitudeDegrees>49.46462751366198062896728515625</LatitudeDegrees>
              <LongitudeDegrees>20.6968888454139232635498046875</LongitudeDegrees>
            </Position>
            <AltitudeMeters>360.20001220703125</AltitudeMeters>
            <DistanceMeters>NAN</DistanceMeters>
          </Trackpoint>
          <Trackpoint>
            <Time>2022-09-22T13:47:06.000Z</Time>
            <Position>
              <LatitudeDegrees>49.46452877484261989593505859375</LatitudeDegrees>
              <LongitudeDegrees>20.69677912630140781402587890625</LongitudeDegrees>
            </Position>
            <AltitudeMeters>360.600006103515625</AltitudeMeters>
            <DistanceMeters>NAN</DistanceMeters>
          </Trackpoint>
          <Trackpoint>
            <Time>2022-09-22T13:47:08.000Z</Time>
            <Position>
              <LatitudeDegrees>49.46449893526732921600341796875</LatitudeDegrees>
              <LongitudeDegrees>20.69675934500992298126220703125</LongitudeDegrees>
            </Position>
            <AltitudeMeters>360.79998779296875</AltitudeMeters>
            <DistanceMeters>NAN</DistanceMeters>
          </Trackpoint>
          <Trackpoint>
            <Time>2022-09-22T13:47:10.000Z</Time>
            <Position>
              <LatitudeDegrees>49.4644629769027233123779296875</LatitudeDegrees>
              <LongitudeDegrees>20.69677359424531459808349609375</LongitudeDegrees>
            </Position>
            <AltitudeMeters>360.79998779296875</AltitudeMeters>
            <DistanceMeters>NAN</DistanceMeters>
          </Trackpoint>
          <Trackpoint>
            <Time>2022-09-22T13:47:18.000Z</Time>
            <Position>
              <LatitudeDegrees>49.4642648287117481231689453125</LatitudeDegrees>
              <LongitudeDegrees>20.69670150987803936004638671875</LongitudeDegrees>
            </Position>
            <AltitudeMeters>361</AltitudeMeters>
            <DistanceMeters>NAN</DistanceMeters>
          </Trackpoint>
          <Trackpoint>
            <Time>2022-09-22T13:47:24.000Z</Time>
            <Position>
              <LatitudeDegrees>49.46412493474781513214111328125</LatitudeDegrees>
              <LongitudeDegrees>20.6966474466025829315185546875</LongitudeDegrees>
            </Position>
            <AltitudeMeters>361</AltitudeMeters>
            <DistanceMeters>NAN</DistanceMeters>
          </Trackpoint>
          <Trackpoint>
            <Time>2022-09-22T13:47:29.000Z</Time>
            <Position>
              <LatitudeDegrees>49.464023597538471221923828125</LatitudeDegrees>
              <LongitudeDegrees>20.69660495035350322723388671875</LongitudeDegrees>
            </Position>
            <AltitudeMeters>361</AltitudeMeters>
            <DistanceMeters>NAN</DistanceMeters>
          </Trackpoint>
          <Trackpoint>
            <Time>2022-09-22T13:47:34.000Z</Time>
            <Position>
              <LatitudeDegrees>49.46388739161193370819091796875</LatitudeDegrees>
              <LongitudeDegrees>20.69657695479691028594970703125</LongitudeDegrees>
            </Position>
            <AltitudeMeters>361</AltitudeMeters>
            <DistanceMeters>NAN</DistanceMeters>
          </Trackpoint>
          <Trackpoint>
            <Time>2022-09-22T13:47:36.000Z</Time>
            <Position>
              <LatitudeDegrees>49.46383173577487468719482421875</LatitudeDegrees>
              <LongitudeDegrees>20.69655734114348888397216796875</LongitudeDegrees>
            </Position>
            <AltitudeMeters>360.79998779296875</AltitudeMeters>
            <DistanceMeters>NAN</DistanceMeters>
          </Trackpoint>
          <Trackpoint>
            <Time>2022-09-22T13:47:42.000Z</Time>
            <Position>
              <LatitudeDegrees>49.46366158314049243927001953125</LatitudeDegrees>
              <LongitudeDegrees>20.69648374803364276885986328125</LongitudeDegrees>
            </Position>
            <AltitudeMeters>360.600006103515625</AltitudeMeters>
            <DistanceMeters>NAN</DistanceMeters>
          </Trackpoint>
          <Trackpoint>
            <Time>2022-09-22T13:47:47.000Z</Time>
            <Position>
              <LatitudeDegrees>49.46349377743899822235107421875</LatitudeDegrees>
              <LongitudeDegrees>20.69640512578189373016357421875</LongitudeDegrees>
            </Position>
            <AltitudeMeters>360</AltitudeMeters>
            <DistanceMeters>NAN</DistanceMeters>
          </Trackpoint>
          <Trackpoint>
            <Time>2022-09-22T13:47:49.000Z</Time>
            <Position>
              <LatitudeDegrees>49.46341766975820064544677734375</LatitudeDegrees>
              <LongitudeDegrees>20.6963668204843997955322265625</LongitudeDegrees>
            </Position>
            <AltitudeMeters>359.79998779296875</AltitudeMeters>
            <DistanceMeters>NAN</DistanceMeters>
          </Trackpoint>
          <Trackpoint>
            <Time>2022-09-22T13:47:54.000Z</Time>
            <Position>
              <LatitudeDegrees>49.463197477161884307861328125</LatitudeDegrees>
              <LongitudeDegrees>20.696264393627643585205078125</LongitudeDegrees>
            </Position>
            <AltitudeMeters>359.20001220703125</AltitudeMeters>
            <DistanceMeters>NAN</DistanceMeters>
          </Trackpoint>
          <Trackpoint>
            <Time>2022-09-22T13:47:55.000Z</Time>
            <Position>
              <LatitudeDegrees>49.4631527177989482879638671875</LatitudeDegrees>
              <LongitudeDegrees>20.69623924791812896728515625</LongitudeDegrees>
            </Position>
            <AltitudeMeters>359</AltitudeMeters>
            <DistanceMeters>NAN</DistanceMeters>
          </Trackpoint>
          <Trackpoint>
            <Time>2022-09-22T13:47:57.000Z</Time>
            <Position>
              <LatitudeDegrees>49.4630702398717403411865234375</LatitudeDegrees>
              <LongitudeDegrees>20.69618937559425830841064453125</LongitudeDegrees>
            </Position>
            <AltitudeMeters>358.79998779296875</AltitudeMeters>
            <DistanceMeters>NAN</DistanceMeters>
          </Trackpoint>
          <Trackpoint>
            <Time>2022-09-22T13:48:01.000Z</Time>
            <Position>
              <LatitudeDegrees>49.4628684036433696746826171875</LatitudeDegrees>
              <LongitudeDegrees>20.69608359597623348236083984375</LongitudeDegrees>
            </Position>
            <AltitudeMeters>358.20001220703125</AltitudeMeters>
            <DistanceMeters>NAN</DistanceMeters>
          </Trackpoint>
          <Trackpoint>
            <Time>2022-09-22T13:48:02.000Z</Time>
            <Position>
              <LatitudeDegrees>49.462820626795291900634765625</LatitudeDegrees>
              <LongitudeDegrees>20.6960590369999408721923828125</LongitudeDegrees>
            </Position>
            <AltitudeMeters>358</AltitudeMeters>
            <DistanceMeters>NAN</DistanceMeters>
          </Trackpoint>
          <Trackpoint>
            <Time>2022-09-22T13:48:11.000Z</Time>
            <Position>
              <LatitudeDegrees>49.46245945058763027191162109375</LatitudeDegrees>
              <LongitudeDegrees>20.69586616940796375274658203125</LongitudeDegrees>
            </Position>
            <AltitudeMeters>358.600006103515625</AltitudeMeters>
            <DistanceMeters>NAN</DistanceMeters>
          </Trackpoint>
          <Trackpoint>
            <Time>2022-09-22T13:48:16.000Z</Time>
            <Position>
              <LatitudeDegrees>49.46231477893888950347900390625</LatitudeDegrees>
              <LongitudeDegrees>20.6958025507628917694091796875</LongitudeDegrees>
            </Position>
            <AltitudeMeters>359.20001220703125</AltitudeMeters>
            <DistanceMeters>NAN</DistanceMeters>
          </Trackpoint>
          <Trackpoint>
            <Time>2022-09-22T13:48:18.000Z</Time>
            <Position>
              <LatitudeDegrees>49.46225367486476898193359375</LatitudeDegrees>
              <LongitudeDegrees>20.69577346555888652801513671875</LongitudeDegrees>
            </Position>
            <AltitudeMeters>359.20001220703125</AltitudeMeters>
            <DistanceMeters>NAN</DistanceMeters>
          </Trackpoint>
          <Trackpoint>
            <Time>2022-09-22T13:48:25.000Z</Time>
            <Position>
              <LatitudeDegrees>49.4620104320347309112548828125</LatitudeDegrees>
              <LongitudeDegrees>20.69567757658660411834716796875</LongitudeDegrees>
            </Position>
            <AltitudeMeters>359.600006103515625</AltitudeMeters>
            <DistanceMeters>NAN</DistanceMeters>
          </Trackpoint>
          <Trackpoint>
            <Time>2022-09-22T13:48:27.000Z</Time>
            <Position>
              <LatitudeDegrees>49.461934156715869903564453125</LatitudeDegrees>
              <LongitudeDegrees>20.69565578363835811614990234375</LongitudeDegrees>
            </Position>
            <AltitudeMeters>359.600006103515625</AltitudeMeters>
            <DistanceMeters>NAN</DistanceMeters>
          </Trackpoint>
          <Trackpoint>
            <Time>2022-09-22T13:48:29.000Z</Time>
            <Position>
              <LatitudeDegrees>49.46186534129083156585693359375</LatitudeDegrees>
              <LongitudeDegrees>20.69562795571982860565185546875</LongitudeDegrees>
            </Position>
            <AltitudeMeters>360.399993896484375</AltitudeMeters>
            <DistanceMeters>NAN</DistanceMeters>
          </Trackpoint>
          <Trackpoint>
            <Time>2022-09-22T13:48:32.000Z</Time>
            <Position>
              <LatitudeDegrees>49.4617733918130397796630859375</LatitudeDegrees>
              <LongitudeDegrees>20.69558369927108287811279296875</LongitudeDegrees>
            </Position>
            <AltitudeMeters>360.79998779296875</AltitudeMeters>
            <DistanceMeters>NAN</DistanceMeters>
          </Trackpoint>
          <Trackpoint>
            <Time>2022-09-22T13:48:35.000Z</Time>
            <Position>
              <LatitudeDegrees>49.4616763293743133544921875</LatitudeDegrees>
              <LongitudeDegrees>20.69554396905004978179931640625</LongitudeDegrees>
            </Position>
            <AltitudeMeters>361.20001220703125</AltitudeMeters>
            <DistanceMeters>NAN</DistanceMeters>
          </Trackpoint>
          <Trackpoint>
            <Time>2022-09-22T13:48:36.000Z</Time>
            <Position>
              <LatitudeDegrees>49.461645819246768951416015625</LatitudeDegrees>
              <LongitudeDegrees>20.695525109767913818359375</LongitudeDegrees>
            </Position>
            <AltitudeMeters>361.399993896484375</AltitudeMeters>
            <DistanceMeters>NAN</DistanceMeters>
          </Trackpoint>
          <Trackpoint>
            <Time>2022-09-22T13:48:44.000Z</Time>
            <Position>
              <LatitudeDegrees>49.46144758723676204681396484375</LatitudeDegrees>
              <LongitudeDegrees>20.695446319878101348876953125</LongitudeDegrees>
            </Position>
            <AltitudeMeters>362.399993896484375</AltitudeMeters>
            <DistanceMeters>NAN</DistanceMeters>
          </Trackpoint>
          <Trackpoint>
            <Time>2022-09-22T13:48:45.000Z</Time>
            <Position>
              <LatitudeDegrees>49.46142864413559436798095703125</LatitudeDegrees>
              <LongitudeDegrees>20.69543953053653240203857421875</LongitudeDegrees>
            </Position>
            <AltitudeMeters>362.399993896484375</AltitudeMeters>
            <DistanceMeters>NAN</DistanceMeters>
          </Trackpoint>
          <Trackpoint>
            <Time>2022-09-22T13:48:52.000Z</Time>
            <Position>
              <LatitudeDegrees>49.46131087839603424072265625</LatitudeDegrees>
              <LongitudeDegrees>20.695388652384281158447265625</LongitudeDegrees>
            </Position>
            <AltitudeMeters>363</AltitudeMeters>
            <DistanceMeters>NAN</DistanceMeters>
          </Trackpoint>
          <Trackpoint>
            <Time>2022-09-22T13:48:56.000Z</Time>
            <Position>
              <LatitudeDegrees>49.4612268917262554168701171875</LatitudeDegrees>
              <LongitudeDegrees>20.6953469105064868927001953125</LongitudeDegrees>
            </Position>
            <AltitudeMeters>363.399993896484375</AltitudeMeters>
            <DistanceMeters>NAN</DistanceMeters>
          </Trackpoint>
          <Trackpoint>
            <Time>2022-09-22T13:49:01.000Z</Time>
            <Position>
              <LatitudeDegrees>49.4611494429409503936767578125</LatitudeDegrees>
              <LongitudeDegrees>20.6953117065131664276123046875</LongitudeDegrees>
            </Position>
            <AltitudeMeters>363.600006103515625</AltitudeMeters>
            <DistanceMeters>NAN</DistanceMeters>
          </Trackpoint>
          <Trackpoint>
            <Time>2022-09-22T13:49:07.000Z</Time>
            <Position>
              <LatitudeDegrees>49.461124800145626068115234375</LatitudeDegrees>
              <LongitudeDegrees>20.69529754109680652618408203125</LongitudeDegrees>
            </Position>
            <AltitudeMeters>363.600006103515625</AltitudeMeters>
            <DistanceMeters>NAN</DistanceMeters>
          </Trackpoint>
          <Trackpoint>
            <Time>2022-09-22T13:49:14.000Z</Time>
            <Position>
              <LatitudeDegrees>49.46108716540038585662841796875</LatitudeDegrees>
              <LongitudeDegrees>20.69528094492852687835693359375</LongitudeDegrees>
            </Position>
            <AltitudeMeters>363.79998779296875</AltitudeMeters>
            <DistanceMeters>NAN</DistanceMeters>
          </Trackpoint>
          <Trackpoint>
            <Time>2022-09-22T13:49:16.000Z</Time>
            <Position>
              <LatitudeDegrees>49.4610743410885334014892578125</LatitudeDegrees>
              <LongitudeDegrees>20.6952976249158382415771484375</LongitudeDegrees>
            </Position>
            <AltitudeMeters>363.79998779296875</AltitudeMeters>
            <DistanceMeters>NAN</DistanceMeters>
          </Trackpoint>
          <Trackpoint>
            <Time>2022-09-22T13:49:18.000Z</Time>
            <Position>
              <LatitudeDegrees>49.4610567390918731689453125</LatitudeDegrees>
              <LongitudeDegrees>20.69535068236291408538818359375</LongitudeDegrees>
            </Position>
            <AltitudeMeters>364</AltitudeMeters>
            <DistanceMeters>NAN</DistanceMeters>
          </Trackpoint>
          <Trackpoint>
            <Time>2022-09-22T13:49:21.000Z</Time>
            <Position>
              <LatitudeDegrees>49.4610213674604892730712890625</LatitudeDegrees>
              <LongitudeDegrees>20.69535722024738788604736328125</LongitudeDegrees>
            </Position>
            <AltitudeMeters>364</AltitudeMeters>
            <DistanceMeters>NAN</DistanceMeters>
          </Trackpoint>
          <Trackpoint>
            <Time>2022-09-22T13:49:27.000Z</Time>
            <Position>
              <LatitudeDegrees>49.4610176794230937957763671875</LatitudeDegrees>
              <LongitudeDegrees>20.6953522749245166778564453125</LongitudeDegrees>
            </Position>
            <AltitudeMeters>363.79998779296875</AltitudeMeters>
            <DistanceMeters>NAN</DistanceMeters>
          </Trackpoint>
          <Trackpoint>
            <Time>2022-09-22T13:49:34.000Z</Time>
            <Position>
              <LatitudeDegrees>49.46100183762609958648681640625</LatitudeDegrees>
              <LongitudeDegrees>20.6953358463943004608154296875</LongitudeDegrees>
            </Position>
            <AltitudeMeters>364</AltitudeMeters>
            <DistanceMeters>NAN</DistanceMeters>
          </Trackpoint>
          <Trackpoint>
            <Time>2022-09-22T13:49:38.000Z</Time>
            <Position>
              <LatitudeDegrees>49.46099798195064067840576171875</LatitudeDegrees>
              <LongitudeDegrees>20.69533458910882472991943359375</LongitudeDegrees>
            </Position>
            <AltitudeMeters>364.20001220703125</AltitudeMeters>
            <DistanceMeters>NAN</DistanceMeters>
          </Trackpoint>
          <Trackpoint>
            <Time>2022-09-22T13:49:42.000Z</Time>
            <Position>
              <LatitudeDegrees>49.460944421589374542236328125</LatitudeDegrees>
              <LongitudeDegrees>20.6952899135649204254150390625</LongitudeDegrees>
            </Position>
            <AltitudeMeters>364</AltitudeMeters>
            <DistanceMeters>NAN</DistanceMeters>
          </Trackpoint>
          <Trackpoint>
            <Time>2022-09-22T13:49:48.000Z</Time>
            <Position>
              <LatitudeDegrees>49.4608624465763568878173828125</LatitudeDegrees>
              <LongitudeDegrees>20.6952228583395481109619140625</LongitudeDegrees>
            </Position>
            <AltitudeMeters>364.399993896484375</AltitudeMeters>
            <DistanceMeters>NAN</DistanceMeters>
          </Trackpoint>
          <Trackpoint>
            <Time>2022-09-22T13:49:50.000Z</Time>
            <Position>
              <LatitudeDegrees>49.460828416049480438232421875</LatitudeDegrees>
              <LongitudeDegrees>20.69521925412118434906005859375</LongitudeDegrees>
            </Position>
            <AltitudeMeters>364.399993896484375</AltitudeMeters>
            <DistanceMeters>NAN</DistanceMeters>
          </Trackpoint>
          <Trackpoint>
            <Time>2022-09-22T13:49:52.000Z</Time>
            <Position>
              <LatitudeDegrees>49.46081626228988170623779296875</LatitudeDegrees>
              <LongitudeDegrees>20.69519947282969951629638671875</LongitudeDegrees>
            </Position>
            <AltitudeMeters>364.399993896484375</AltitudeMeters>
            <DistanceMeters>NAN</DistanceMeters>
          </Trackpoint>
          <Trackpoint>
            <Time>2022-09-22T13:49:53.000Z</Time>
            <Position>
              <LatitudeDegrees>49.4608054496347904205322265625</LatitudeDegrees>
              <LongitudeDegrees>20.6951913423836231231689453125</LongitudeDegrees>
            </Position>
            <AltitudeMeters>364.399993896484375</AltitudeMeters>
            <DistanceMeters>NAN</DistanceMeters>
          </Trackpoint>
          <Trackpoint>
            <Time>2022-09-22T13:49:55.000Z</Time>
            <Position>
              <LatitudeDegrees>49.46079111658036708831787109375</LatitudeDegrees>
              <LongitudeDegrees>20.69516996853053569793701171875</LongitudeDegrees>
            </Position>
            <AltitudeMeters>364.399993896484375</AltitudeMeters>
            <DistanceMeters>NAN</DistanceMeters>
          </Trackpoint>
          <Trackpoint>
            <Time>2022-09-22T13:49:57.000Z</Time>
            <Position>
              <LatitudeDegrees>49.46076764725148677825927734375</LatitudeDegrees>
              <LongitudeDegrees>20.69516058079898357391357421875</LongitudeDegrees>
            </Position>
            <AltitudeMeters>364.399993896484375</AltitudeMeters>
            <DistanceMeters>NAN</DistanceMeters>
          </Trackpoint>
          <Trackpoint>
            <Time>2022-09-22T13:49:58.000Z</Time>
            <Position>
              <LatitudeDegrees>49.46075876243412494659423828125</LatitudeDegrees>
              <LongitudeDegrees>20.695153288543224334716796875</LongitudeDegrees>
            </Position>
            <AltitudeMeters>364.600006103515625</AltitudeMeters>
            <DistanceMeters>NAN</DistanceMeters>
          </Trackpoint>
          <Trackpoint>
            <Time>2022-09-22T13:50:00.000Z</Time>
            <Position>
              <LatitudeDegrees>49.46074417792260646820068359375</LatitudeDegrees>
              <LongitudeDegrees>20.6951356865465641021728515625</LongitudeDegrees>
            </Position>
            <AltitudeMeters>364.600006103515625</AltitudeMeters>
            <DistanceMeters>NAN</DistanceMeters>
          </Trackpoint>
          <Trackpoint>
            <Time>2022-09-22T13:50:03.000Z</Time>
            <Position>
              <LatitudeDegrees>49.4607095606625080108642578125</LatitudeDegrees>
              <LongitudeDegrees>20.69511967711150646209716796875</LongitudeDegrees>
            </Position>
            <AltitudeMeters>364.79998779296875</AltitudeMeters>
            <DistanceMeters>NAN</DistanceMeters>
          </Trackpoint>
          <Trackpoint>
            <Time>2022-09-22T13:50:04.000Z</Time>
            <Position>
              <LatitudeDegrees>49.4607008434832096099853515625</LatitudeDegrees>
              <LongitudeDegrees>20.69510727189481258392333984375</LongitudeDegrees>
            </Position>
            <AltitudeMeters>364.79998779296875</AltitudeMeters>
            <DistanceMeters>NAN</DistanceMeters>
          </Trackpoint>
          <Trackpoint>
            <Time>2022-09-22T13:50:09.000Z</Time>
            <Position>
              <LatitudeDegrees>49.46066119708120822906494140625</LatitudeDegrees>
              <LongitudeDegrees>20.695067457854747772216796875</LongitudeDegrees>
            </Position>
            <AltitudeMeters>365</AltitudeMeters>
            <DistanceMeters>NAN</DistanceMeters>
          </Trackpoint>
          <Trackpoint>
            <Time>2022-09-22T13:50:10.000Z</Time>
            <Position>
              <LatitudeDegrees>49.4606505520641803741455078125</LatitudeDegrees>
              <LongitudeDegrees>20.69505848921835422515869140625</LongitudeDegrees>
            </Position>
            <AltitudeMeters>365</AltitudeMeters>
            <DistanceMeters>NAN</DistanceMeters>
          </Trackpoint>
          <Trackpoint>
            <Time>2022-09-22T13:50:13.000Z</Time>
            <Position>
              <LatitudeDegrees>49.460620544850826263427734375</LatitudeDegrees>
              <LongitudeDegrees>20.695036947727203369140625</LongitudeDegrees>
            </Position>
            <AltitudeMeters>365.20001220703125</AltitudeMeters>
            <DistanceMeters>NAN</DistanceMeters>
          </Trackpoint>
          <Trackpoint>
            <Time>2022-09-22T13:50:15.000Z</Time>
            <Position>
              <LatitudeDegrees>49.46060973219573497772216796875</LatitudeDegrees>
              <LongitudeDegrees>20.6950163282454013824462890625</LongitudeDegrees>
            </Position>
            <AltitudeMeters>365.399993896484375</AltitudeMeters>
            <DistanceMeters>NAN</DistanceMeters>
          </Trackpoint>
          <Trackpoint>
            <Time>2022-09-22T13:50:18.000Z</Time>
            <Position>
              <LatitudeDegrees>49.46056648157536983489990234375</LatitudeDegrees>
              <LongitudeDegrees>20.69500735960900783538818359375</LongitudeDegrees>
            </Position>
            <AltitudeMeters>365.399993896484375</AltitudeMeters>
            <DistanceMeters>NAN</DistanceMeters>
          </Trackpoint>
          <Trackpoint>
            <Time>2022-09-22T13:50:23.000Z</Time>
            <Position>
              <LatitudeDegrees>49.460517950356006622314453125</LatitudeDegrees>
              <LongitudeDegrees>20.694989673793315887451171875</LongitudeDegrees>
            </Position>
            <AltitudeMeters>365.79998779296875</AltitudeMeters>
            <DistanceMeters>NAN</DistanceMeters>
          </Trackpoint>
          <Trackpoint>
            <Time>2022-09-22T13:50:33.000Z</Time>
            <Position>
              <LatitudeDegrees>49.46042667143046855926513671875</LatitudeDegrees>
              <LongitudeDegrees>20.6949405558407306671142578125</LongitudeDegrees>
            </Position>
            <AltitudeMeters>366.20001220703125</AltitudeMeters>
            <DistanceMeters>NAN</DistanceMeters>
          </Trackpoint>
          <Trackpoint>
            <Time>2022-09-22T13:50:40.000Z</Time>
            <Position>
              <LatitudeDegrees>49.46037721820175647735595703125</LatitudeDegrees>
              <LongitudeDegrees>20.69488875567913055419921875</LongitudeDegrees>
            </Position>
            <AltitudeMeters>366.399993896484375</AltitudeMeters>
            <DistanceMeters>NAN</DistanceMeters>
          </Trackpoint>
          <Trackpoint>
            <Time>2022-09-22T13:50:42.000Z</Time>
            <Position>
              <LatitudeDegrees>49.46035726927220821380615234375</LatitudeDegrees>
              <LongitudeDegrees>20.69487257860600948333740234375</LongitudeDegrees>
            </Position>
            <AltitudeMeters>366.600006103515625</AltitudeMeters>
            <DistanceMeters>NAN</DistanceMeters>
          </Trackpoint>
          <Trackpoint>
            <Time>2022-09-22T13:50:43.000Z</Time>
            <Position>
              <LatitudeDegrees>49.460344277322292327880859375</LatitudeDegrees>
              <LongitudeDegrees>20.69486637599766254425048828125</LongitudeDegrees>
            </Position>
            <AltitudeMeters>366.600006103515625</AltitudeMeters>
            <DistanceMeters>NAN</DistanceMeters>
          </Trackpoint>
          <Trackpoint>
            <Time>2022-09-22T13:50:50.000Z</Time>
            <Position>
              <LatitudeDegrees>49.460288621485233306884765625</LatitudeDegrees>
              <LongitudeDegrees>20.694813989102840423583984375</LongitudeDegrees>
            </Position>
            <AltitudeMeters>366.79998779296875</AltitudeMeters>
            <DistanceMeters>NAN</DistanceMeters>
          </Trackpoint>
          <Trackpoint>
            <Time>2022-09-22T13:50:57.000Z</Time>
            <Position>
              <LatitudeDegrees>49.460246376693248748779296875</LatitudeDegrees>
              <LongitudeDegrees>20.694740228354930877685546875</LongitudeDegrees>
            </Position>
            <AltitudeMeters>367</AltitudeMeters>
            <DistanceMeters>NAN</DistanceMeters>
          </Trackpoint>
          <Trackpoint>
            <Time>2022-09-22T13:51:06.000Z</Time>
            <Position>
              <LatitudeDegrees>49.46017538197338581085205078125</LatitudeDegrees>
              <LongitudeDegrees>20.69467359222471714019775390625</LongitudeDegrees>
            </Position>
            <AltitudeMeters>367.399993896484375</AltitudeMeters>
            <DistanceMeters>NAN</DistanceMeters>
          </Trackpoint>
          <Trackpoint>
            <Time>2022-09-22T13:51:09.000Z</Time>
            <Position>
              <LatitudeDegrees>49.460159875452518463134765625</LatitudeDegrees>
              <LongitudeDegrees>20.694651715457439422607421875</LongitudeDegrees>
            </Position>
            <AltitudeMeters>367.600006103515625</AltitudeMeters>
            <DistanceMeters>NAN</DistanceMeters>
          </Trackpoint>
          <Trackpoint>
            <Time>2022-09-22T13:51:12.000Z</Time>
            <Position>
              <LatitudeDegrees>49.4601446203887462615966796875</LatitudeDegrees>
              <LongitudeDegrees>20.6946367956697940826416015625</LongitudeDegrees>
            </Position>
            <AltitudeMeters>367.600006103515625</AltitudeMeters>
            <DistanceMeters>NAN</DistanceMeters>
          </Trackpoint>
          <Trackpoint>
            <Time>2022-09-22T13:51:19.000Z</Time>
            <Position>
              <LatitudeDegrees>49.460106231272220611572265625</LatitudeDegrees>
              <LongitudeDegrees>20.6946029327809810638427734375</LongitudeDegrees>
            </Position>
            <AltitudeMeters>368.20001220703125</AltitudeMeters>
            <DistanceMeters>NAN</DistanceMeters>
          </Trackpoint>
          <Trackpoint>
            <Time>2022-09-22T13:51:24.000Z</Time>
            <Position>
              <LatitudeDegrees>49.46005803532898426055908203125</LatitudeDegrees>
              <LongitudeDegrees>20.69457418285310268402099609375</LongitudeDegrees>
            </Position>
            <AltitudeMeters>368.20001220703125</AltitudeMeters>
            <DistanceMeters>NAN</DistanceMeters>
          </Trackpoint>
          <Trackpoint>
            <Time>2022-09-22T13:51:31.000Z</Time>
            <Position>
              <LatitudeDegrees>49.4599947519600391387939453125</LatitudeDegrees>
              <LongitudeDegrees>20.6945120729506015777587890625</LongitudeDegrees>
            </Position>
            <AltitudeMeters>368.399993896484375</AltitudeMeters>
            <DistanceMeters>NAN</DistanceMeters>
          </Trackpoint>
          <Trackpoint>
            <Time>2022-09-22T13:51:33.000Z</Time>
            <Position>
              <LatitudeDegrees>49.45997538976371288299560546875</LatitudeDegrees>
              <LongitudeDegrees>20.6945026852190494537353515625</LongitudeDegrees>
            </Position>
            <AltitudeMeters>368.600006103515625</AltitudeMeters>
            <DistanceMeters>NAN</DistanceMeters>
          </Trackpoint>
          <Trackpoint>
            <Time>2022-09-22T13:51:37.000Z</Time>
            <Position>
              <LatitudeDegrees>49.459947980940341949462890625</LatitudeDegrees>
              <LongitudeDegrees>20.6944725103676319122314453125</LongitudeDegrees>
            </Position>
            <AltitudeMeters>368.79998779296875</AltitudeMeters>
            <DistanceMeters>NAN</DistanceMeters>
          </Trackpoint>
          <Trackpoint>
            <Time>2022-09-22T13:51:45.000Z</Time>
            <Position>
              <LatitudeDegrees>49.4598844461143016815185546875</LatitudeDegrees>
              <LongitudeDegrees>20.69444677792489528656005859375</LongitudeDegrees>
            </Position>
            <AltitudeMeters>369.20001220703125</AltitudeMeters>
            <DistanceMeters>NAN</DistanceMeters>
          </Trackpoint>
          <Trackpoint>
            <Time>2022-09-22T13:51:46.000Z</Time>
            <Position>
              <LatitudeDegrees>49.45987866260111331939697265625</LatitudeDegrees>
              <LongitudeDegrees>20.69442716427147388458251953125</LongitudeDegrees>
            </Position>
            <AltitudeMeters>369.20001220703125</AltitudeMeters>
            <DistanceMeters>NAN</DistanceMeters>
          </Trackpoint>
          <Trackpoint>
            <Time>2022-09-22T13:51:52.000Z</Time>
            <Position>
              <LatitudeDegrees>49.45981948636472225189208984375</LatitudeDegrees>
              <LongitudeDegrees>20.6943829916417598724365234375</LongitudeDegrees>
            </Position>
            <AltitudeMeters>369.399993896484375</AltitudeMeters>
            <DistanceMeters>NAN</DistanceMeters>
          </Trackpoint>
          <Trackpoint>
            <Time>2022-09-22T13:51:57.000Z</Time>
            <Position>
              <LatitudeDegrees>49.4597788341343402862548828125</LatitudeDegrees>
              <LongitudeDegrees>20.69433965720236301422119140625</LongitudeDegrees>
            </Position>
            <AltitudeMeters>369.600006103515625</AltitudeMeters>
            <DistanceMeters>NAN</DistanceMeters>
          </Trackpoint>
          <Trackpoint>
            <Time>2022-09-22T13:52:02.000Z</Time>
            <Position>
              <LatitudeDegrees>49.459732733666896820068359375</LatitudeDegrees>
              <LongitudeDegrees>20.69432239048182964324951171875</LongitudeDegrees>
            </Position>
            <AltitudeMeters>369.79998779296875</AltitudeMeters>
            <DistanceMeters>NAN</DistanceMeters>
          </Trackpoint>
          <Trackpoint>
            <Time>2022-09-22T13:52:06.000Z</Time>
            <Position>
              <LatitudeDegrees>49.4597027264535427093505859375</LatitudeDegrees>
              <LongitudeDegrees>20.69430805742740631103515625</LongitudeDegrees>
            </Position>
            <AltitudeMeters>370</AltitudeMeters>
            <DistanceMeters>NAN</DistanceMeters>
          </Trackpoint>
          <Trackpoint>
            <Time>2022-09-22T13:52:08.000Z</Time>
            <Position>
              <LatitudeDegrees>49.45963625796139240264892578125</LatitudeDegrees>
              <LongitudeDegrees>20.69433689117431640625</LongitudeDegrees>
            </Position>
            <AltitudeMeters>370</AltitudeMeters>
            <DistanceMeters>NAN</DistanceMeters>
          </Trackpoint>
          <Trackpoint>
            <Time>2022-09-22T13:52:15.000Z</Time>
            <Position>
              <LatitudeDegrees>49.45954020135104656219482421875</LatitudeDegrees>
              <LongitudeDegrees>20.69433429278433322906494140625</LongitudeDegrees>
            </Position>
            <AltitudeMeters>370</AltitudeMeters>
            <DistanceMeters>NAN</DistanceMeters>
          </Trackpoint>
          <Trackpoint>
            <Time>2022-09-22T13:52:17.000Z</Time>
            <Position>
              <LatitudeDegrees>49.45950449444353580474853515625</LatitudeDegrees>
              <LongitudeDegrees>20.694347955286502838134765625</LongitudeDegrees>
            </Position>
            <AltitudeMeters>370</AltitudeMeters>
            <DistanceMeters>NAN</DistanceMeters>
          </Trackpoint>
          <Trackpoint>
            <Time>2022-09-22T13:52:19.000Z</Time>
            <Position>
              <LatitudeDegrees>49.45947515778243541717529296875</LatitudeDegrees>
              <LongitudeDegrees>20.6943306885659694671630859375</LongitudeDegrees>
            </Position>
            <AltitudeMeters>370</AltitudeMeters>
            <DistanceMeters>NAN</DistanceMeters>
          </Trackpoint>
          <Trackpoint>
            <Time>2022-09-22T13:52:20.000Z</Time>
            <Position>
              <LatitudeDegrees>49.45945613086223602294921875</LatitudeDegrees>
              <LongitudeDegrees>20.6943481229245662689208984375</LongitudeDegrees>
            </Position>
            <AltitudeMeters>370</AltitudeMeters>
            <DistanceMeters>NAN</DistanceMeters>
          </Trackpoint>
          <Trackpoint>
            <Time>2022-09-22T13:52:22.000Z</Time>
            <Position>
              <LatitudeDegrees>49.45943609811365604400634765625</LatitudeDegrees>
              <LongitudeDegrees>20.6943330354988574981689453125</LongitudeDegrees>
            </Position>
            <AltitudeMeters>370</AltitudeMeters>
            <DistanceMeters>NAN</DistanceMeters>
          </Trackpoint>
          <Trackpoint>
            <Time>2022-09-22T13:52:23.000Z</Time>
            <Position>
              <LatitudeDegrees>49.4594170711934566497802734375</LatitudeDegrees>
              <LongitudeDegrees>20.694326497614383697509765625</LongitudeDegrees>
            </Position>
            <AltitudeMeters>370.20001220703125</AltitudeMeters>
            <DistanceMeters>NAN</DistanceMeters>
          </Trackpoint>
          <Trackpoint>
            <Time>2022-09-22T13:52:24.000Z</Time>
            <Position>
              <LatitudeDegrees>49.4594190828502178192138671875</LatitudeDegrees>
              <LongitudeDegrees>20.69429825060069561004638671875</LongitudeDegrees>
            </Position>
            <AltitudeMeters>370.20001220703125</AltitudeMeters>
            <DistanceMeters>NAN</DistanceMeters>
          </Trackpoint>
          <Trackpoint>
            <Time>2022-09-22T13:52:27.000Z</Time>
            <Position>
              <LatitudeDegrees>49.45942402817308902740478515625</LatitudeDegrees>
              <LongitudeDegrees>20.6942800618708133697509765625</LongitudeDegrees>
            </Position>
            <AltitudeMeters>370.20001220703125</AltitudeMeters>
            <DistanceMeters>NAN</DistanceMeters>
          </Trackpoint>
          <Trackpoint>
            <Time>2022-09-22T13:52:28.000Z</Time>
            <Position>
              <LatitudeDegrees>49.45942402817308902740478515625</LatitudeDegrees>
              <LongitudeDegrees>20.69425432942807674407958984375</LongitudeDegrees>
            </Position>
            <AltitudeMeters>370.20001220703125</AltitudeMeters>
            <DistanceMeters>NAN</DistanceMeters>
          </Trackpoint>
          <Trackpoint>
            <Time>2022-09-22T13:52:29.000Z</Time>
            <Position>
              <LatitudeDegrees>49.4594244472682476043701171875</LatitudeDegrees>
              <LongitudeDegrees>20.69423471577465534210205078125</LongitudeDegrees>
            </Position>
            <AltitudeMeters>370.20001220703125</AltitudeMeters>
            <DistanceMeters>NAN</DistanceMeters>
          </Trackpoint>
          <Trackpoint>
            <Time>2022-09-22T13:52:31.000Z</Time>
            <Position>
              <LatitudeDegrees>49.459414221346378326416015625</LatitudeDegrees>
              <LongitudeDegrees>20.69423354230821132659912109375</LongitudeDegrees>
            </Position>
            <AltitudeMeters>370.20001220703125</AltitudeMeters>
            <DistanceMeters>NAN</DistanceMeters>
          </Trackpoint>
          <Trackpoint>
            <Time>2022-09-22T13:52:33.000Z</Time>
            <Position>
              <LatitudeDegrees>49.459407515823841094970703125</LatitudeDegrees>
              <LongitudeDegrees>20.69422767497599124908447265625</LongitudeDegrees>
            </Position>
            <AltitudeMeters>370.20001220703125</AltitudeMeters>
            <DistanceMeters>NAN</DistanceMeters>
          </Trackpoint>
          <Trackpoint>
            <Time>2022-09-22T13:52:39.000Z</Time>
            <Position>
              <LatitudeDegrees>49.45935957133769989013671875</LatitudeDegrees>
              <LongitudeDegrees>20.6941935606300830841064453125</LongitudeDegrees>
            </Position>
            <AltitudeMeters>370.20001220703125</AltitudeMeters>
            <DistanceMeters>NAN</DistanceMeters>
          </Trackpoint>
          <Trackpoint>
            <Time>2022-09-22T13:52:44.000Z</Time>
            <Position>
              <LatitudeDegrees>49.4593079388141632080078125</LatitudeDegrees>
              <LongitudeDegrees>20.694192387163639068603515625</LongitudeDegrees>
            </Position>
            <AltitudeMeters>370.399993896484375</AltitudeMeters>
            <DistanceMeters>NAN</DistanceMeters>
          </Trackpoint>
          <Trackpoint>
            <Time>2022-09-22T13:52:47.000Z</Time>
            <Position>
              <LatitudeDegrees>49.45927147753536701202392578125</LatitudeDegrees>
              <LongitudeDegrees>20.69418325088918209075927734375</LongitudeDegrees>
            </Position>
            <AltitudeMeters>370.399993896484375</AltitudeMeters>
            <DistanceMeters>NAN</DistanceMeters>
          </Trackpoint>
          <Trackpoint>
            <Time>2022-09-22T13:52:48.000Z</Time>
            <Position>
              <LatitudeDegrees>49.45926577784121036529541015625</LatitudeDegrees>
              <LongitudeDegrees>20.694176964461803436279296875</LongitudeDegrees>
            </Position>
            <AltitudeMeters>370.399993896484375</AltitudeMeters>
            <DistanceMeters>NAN</DistanceMeters>
          </Trackpoint>
          <Trackpoint>
            <Time>2022-09-22T13:52:52.000Z</Time>
            <Position>
              <LatitudeDegrees>49.4592155702412128448486328125</LatitudeDegrees>
              <LongitudeDegrees>20.69417185150086879730224609375</LongitudeDegrees>
            </Position>
            <AltitudeMeters>370.399993896484375</AltitudeMeters>
            <DistanceMeters>NAN</DistanceMeters>
          </Trackpoint>
          <Trackpoint>
            <Time>2022-09-22T13:52:58.000Z</Time>
            <Position>
              <LatitudeDegrees>49.45915999822318553924560546875</LatitudeDegrees>
              <LongitudeDegrees>20.694157183170318603515625</LongitudeDegrees>
            </Position>
            <AltitudeMeters>370.399993896484375</AltitudeMeters>
            <DistanceMeters>NAN</DistanceMeters>
          </Trackpoint>
          <Trackpoint>
            <Time>2022-09-22T13:52:59.000Z</Time>
            <Position>
              <LatitudeDegrees>49.4591510295867919921875</LatitudeDegrees>
              <LongitudeDegrees>20.6941506452858448028564453125</LongitudeDegrees>
            </Position>
            <AltitudeMeters>370.399993896484375</AltitudeMeters>
            <DistanceMeters>NAN</DistanceMeters>
          </Trackpoint>
          <Trackpoint>
            <Time>2022-09-22T13:53:01.000Z</Time>
            <Position>
              <LatitudeDegrees>49.45912479422986507415771484375</LatitudeDegrees>
              <LongitudeDegrees>20.69413111545145511627197265625</LongitudeDegrees>
            </Position>
            <AltitudeMeters>370.399993896484375</AltitudeMeters>
            <DistanceMeters>NAN</DistanceMeters>
          </Trackpoint>
          <Trackpoint>
            <Time>2022-09-22T13:53:03.000Z</Time>
            <Position>
              <LatitudeDegrees>49.45912311784923076629638671875</LatitudeDegrees>
              <LongitudeDegrees>20.69412088952958583831787109375</LongitudeDegrees>
            </Position>
            <AltitudeMeters>370.399993896484375</AltitudeMeters>
            <DistanceMeters>NAN</DistanceMeters>
          </Trackpoint>
          <Trackpoint>
            <Time>2022-09-22T13:53:11.000Z</Time>
            <Position>
              <LatitudeDegrees>49.45904172956943511962890625</LatitudeDegrees>
              <LongitudeDegrees>20.69410420954227447509765625</LongitudeDegrees>
            </Position>
            <AltitudeMeters>370.600006103515625</AltitudeMeters>
            <DistanceMeters>NAN</DistanceMeters>
          </Trackpoint>
          <Trackpoint>
            <Time>2022-09-22T13:53:12.000Z</Time>
            <Position>
              <LatitudeDegrees>49.459034018218517303466796875</LatitudeDegrees>
              <LongitudeDegrees>20.6941070593893527984619140625</LongitudeDegrees>
            </Position>
            <AltitudeMeters>370.600006103515625</AltitudeMeters>
            <DistanceMeters>NAN</DistanceMeters>
          </Trackpoint>
          <Trackpoint>
            <Time>2022-09-22T13:53:19.000Z</Time>
            <Position>
              <LatitudeDegrees>49.45899344980716705322265625</LatitudeDegrees>
              <LongitudeDegrees>20.69409708492457866668701171875</LongitudeDegrees>
            </Position>
            <AltitudeMeters>370.600006103515625</AltitudeMeters>
            <DistanceMeters>NAN</DistanceMeters>
          </Trackpoint>
          <Trackpoint>
            <Time>2022-09-22T13:53:24.000Z</Time>
            <Position>
              <LatitudeDegrees>49.45893100462853908538818359375</LatitudeDegrees>
              <LongitudeDegrees>20.6940876133739948272705078125</LongitudeDegrees>
            </Position>
            <AltitudeMeters>370.79998779296875</AltitudeMeters>
            <DistanceMeters>NAN</DistanceMeters>
          </Trackpoint>
          <Trackpoint>
            <Time>2022-09-22T13:53:26.000Z</Time>
            <Position>
              <LatitudeDegrees>49.45889965631067752838134765625</LatitudeDegrees>
              <LongitudeDegrees>20.69407126866281032562255859375</LongitudeDegrees>
            </Position>
            <AltitudeMeters>370.79998779296875</AltitudeMeters>
            <DistanceMeters>NAN</DistanceMeters>
          </Trackpoint>
          <Trackpoint>
            <Time>2022-09-22T13:53:31.000Z</Time>
            <Position>
              <LatitudeDegrees>49.4588305056095123291015625</LatitudeDegrees>
              <LongitudeDegrees>20.69405416958034038543701171875</LongitudeDegrees>
            </Position>
            <AltitudeMeters>371.20001220703125</AltitudeMeters>
            <DistanceMeters>NAN</DistanceMeters>
          </Trackpoint>
          <Trackpoint>
            <Time>2022-09-22T13:53:33.000Z</Time>
            <Position>
              <LatitudeDegrees>49.45881550200283527374267578125</LatitudeDegrees>
              <LongitudeDegrees>20.69405995309352874755859375</LongitudeDegrees>
            </Position>
            <AltitudeMeters>371.20001220703125</AltitudeMeters>
            <DistanceMeters>NAN</DistanceMeters>
          </Trackpoint>
          <Trackpoint>
            <Time>2022-09-22T13:53:37.000Z</Time>
            <Position>
              <LatitudeDegrees>49.45878080092370510101318359375</LatitudeDegrees>
              <LongitudeDegrees>20.694029442965984344482421875</LongitudeDegrees>
            </Position>
            <AltitudeMeters>371.399993896484375</AltitudeMeters>
            <DistanceMeters>NAN</DistanceMeters>
          </Trackpoint>
          <Trackpoint>
            <Time>2022-09-22T13:53:42.000Z</Time>
            <Position>
              <LatitudeDegrees>49.458756409585475921630859375</LatitudeDegrees>
              <LongitudeDegrees>20.6940021179616451263427734375</LongitudeDegrees>
            </Position>
            <AltitudeMeters>371.600006103515625</AltitudeMeters>
            <DistanceMeters>NAN</DistanceMeters>
          </Trackpoint>
          <Trackpoint>
            <Time>2022-09-22T13:53:48.000Z</Time>
            <Position>
              <LatitudeDegrees>49.45870234631001949310302734375</LatitudeDegrees>
              <LongitudeDegrees>20.69399415515363216400146484375</LongitudeDegrees>
            </Position>
            <AltitudeMeters>371.600006103515625</AltitudeMeters>
            <DistanceMeters>NAN</DistanceMeters>
          </Trackpoint>
          <Trackpoint>
            <Time>2022-09-22T13:53:56.000Z</Time>
            <Position>
              <LatitudeDegrees>49.458626322448253631591796875</LatitudeDegrees>
              <LongitudeDegrees>20.69396163336932659149169921875</LongitudeDegrees>
            </Position>
            <AltitudeMeters>372</AltitudeMeters>
            <DistanceMeters>NAN</DistanceMeters>
          </Trackpoint>
          <Trackpoint>
            <Time>2022-09-22T13:54:04.000Z</Time>
            <Position>
              <LatitudeDegrees>49.45852934382855892181396484375</LatitudeDegrees>
              <LongitudeDegrees>20.69397890008985996246337890625</LongitudeDegrees>
            </Position>
            <AltitudeMeters>372.399993896484375</AltitudeMeters>
            <DistanceMeters>NAN</DistanceMeters>
          </Trackpoint>
          <Trackpoint>
            <Time>2022-09-22T13:54:11.000Z</Time>
            <Position>
              <LatitudeDegrees>49.45849732495844364166259765625</LatitudeDegrees>
              <LongitudeDegrees>20.6939270161092281341552734375</LongitudeDegrees>
            </Position>
            <AltitudeMeters>372.399993896484375</AltitudeMeters>
            <DistanceMeters>NAN</DistanceMeters>
          </Trackpoint>
          <Trackpoint>
            <Time>2022-09-22T13:54:13.000Z</Time>
            <Position>
              <LatitudeDegrees>49.4584316946566104888916015625</LatitudeDegrees>
              <LongitudeDegrees>20.6938653253018856048583984375</LongitudeDegrees>
            </Position>
            <AltitudeMeters>372.600006103515625</AltitudeMeters>
            <DistanceMeters>NAN</DistanceMeters>
          </Trackpoint>
          <Trackpoint>
            <Time>2022-09-22T13:54:15.000Z</Time>
            <Position>
              <LatitudeDegrees>49.45842239074409008026123046875</LatitudeDegrees>
              <LongitudeDegrees>20.6938495673239231109619140625</LongitudeDegrees>
            </Position>
            <AltitudeMeters>372.600006103515625</AltitudeMeters>
            <DistanceMeters>NAN</DistanceMeters>
          </Trackpoint>
          <Trackpoint>
            <Time>2022-09-22T13:54:19.000Z</Time>
            <Position>
              <LatitudeDegrees>49.458410404622554779052734375</LatitudeDegrees>
              <LongitudeDegrees>20.69385920651257038116455078125</LongitudeDegrees>
            </Position>
            <AltitudeMeters>373</AltitudeMeters>
            <DistanceMeters>NAN</DistanceMeters>
          </Trackpoint>
          <Trackpoint>
            <Time>2022-09-22T13:54:20.000Z</Time>
            <Position>
              <LatitudeDegrees>49.45838064886629581451416015625</LatitudeDegrees>
              <LongitudeDegrees>20.6938737072050571441650390625</LongitudeDegrees>
            </Position>
            <AltitudeMeters>373</AltitudeMeters>
            <DistanceMeters>NAN</DistanceMeters>
          </Trackpoint>
          <Trackpoint>
            <Time>2022-09-22T13:54:27.000Z</Time>
            <Position>
              <LatitudeDegrees>49.4583606161177158355712890625</LatitudeDegrees>
              <LongitudeDegrees>20.6938837654888629913330078125</LongitudeDegrees>
            </Position>
            <AltitudeMeters>373.20001220703125</AltitudeMeters>
            <DistanceMeters>NAN</DistanceMeters>
          </Trackpoint>
          <Trackpoint>
            <Time>2022-09-22T13:54:31.000Z</Time>
            <Position>
              <LatitudeDegrees>49.45827168412506580352783203125</LatitudeDegrees>
              <LongitudeDegrees>20.69393816404044628143310546875</LongitudeDegrees>
            </Position>
            <AltitudeMeters>373.20001220703125</AltitudeMeters>
            <DistanceMeters>NAN</DistanceMeters>
          </Trackpoint>
          <Trackpoint>
            <Time>2022-09-22T13:54:39.000Z</Time>
            <Position>
              <LatitudeDegrees>49.45813975296914577484130859375</LatitudeDegrees>
              <LongitudeDegrees>20.693893320858478546142578125</LongitudeDegrees>
            </Position>
            <AltitudeMeters>373</AltitudeMeters>
            <DistanceMeters>NAN</DistanceMeters>
          </Trackpoint>
          <Trackpoint>
            <Time>2022-09-22T13:54:44.000Z</Time>
            <Position>
              <LatitudeDegrees>49.458018802106380462646484375</LatitudeDegrees>
              <LongitudeDegrees>20.693904049694538116455078125</LongitudeDegrees>
            </Position>
            <AltitudeMeters>372.79998779296875</AltitudeMeters>
            <DistanceMeters>NAN</DistanceMeters>
          </Trackpoint>
          <Trackpoint>
            <Time>2022-09-22T13:54:47.000Z</Time>
            <Position>
              <LatitudeDegrees>49.4579274393618106842041015625</LatitudeDegrees>
              <LongitudeDegrees>20.6939236633479595184326171875</LongitudeDegrees>
            </Position>
            <AltitudeMeters>372.399993896484375</AltitudeMeters>
            <DistanceMeters>NAN</DistanceMeters>
          </Trackpoint>
          <Trackpoint>
            <Time>2022-09-22T13:54:49.000Z</Time>
            <Position>
              <LatitudeDegrees>49.45783632807433605194091796875</LatitudeDegrees>
              <LongitudeDegrees>20.6939364038407802581787109375</LongitudeDegrees>
            </Position>
            <AltitudeMeters>372</AltitudeMeters>
            <DistanceMeters>NAN</DistanceMeters>
          </Trackpoint>
          <Trackpoint>
            <Time>2022-09-22T13:54:51.000Z</Time>
            <Position>
              <LatitudeDegrees>49.45774664171040058135986328125</LatitudeDegrees>
              <LongitudeDegrees>20.69395543076097965240478515625</LongitudeDegrees>
            </Position>
            <AltitudeMeters>371.399993896484375</AltitudeMeters>
            <DistanceMeters>NAN</DistanceMeters>
          </Trackpoint>
          <Trackpoint>
            <Time>2022-09-22T13:54:52.000Z</Time>
            <Position>
              <LatitudeDegrees>49.45768453180789947509765625</LatitudeDegrees>
              <LongitudeDegrees>20.6939692609012126922607421875</LongitudeDegrees>
            </Position>
            <AltitudeMeters>371.20001220703125</AltitudeMeters>
            <DistanceMeters>NAN</DistanceMeters>
          </Trackpoint>
          <Trackpoint>
            <Time>2022-09-22T13:54:55.000Z</Time>
            <Position>
              <LatitudeDegrees>49.45752401836216449737548828125</LatitudeDegrees>
              <LongitudeDegrees>20.69400421343743801116943359375</LongitudeDegrees>
            </Position>
            <AltitudeMeters>370.20001220703125</AltitudeMeters>
            <DistanceMeters>NAN</DistanceMeters>
          </Trackpoint>
          <Trackpoint>
            <Time>2022-09-22T13:54:58.000Z</Time>
            <Position>
              <LatitudeDegrees>49.45733316242694854736328125</LatitudeDegrees>
              <LongitudeDegrees>20.69405517540872097015380859375</LongitudeDegrees>
            </Position>
            <AltitudeMeters>369.399993896484375</AltitudeMeters>
            <DistanceMeters>NAN</DistanceMeters>
          </Trackpoint>
          <Trackpoint>
            <Time>2022-09-22T13:55:00.000Z</Time>
            <Position>
              <LatitudeDegrees>49.4572257064282894134521484375</LatitudeDegrees>
              <LongitudeDegrees>20.6940876133739948272705078125</LongitudeDegrees>
            </Position>
            <AltitudeMeters>369</AltitudeMeters>
            <DistanceMeters>NAN</DistanceMeters>
          </Trackpoint>
          <Trackpoint>
            <Time>2022-09-22T13:55:03.000Z</Time>
            <Position>
              <LatitudeDegrees>49.45703133009374141693115234375</LatitudeDegrees>
              <LongitudeDegrees>20.6941553391516208648681640625</LongitudeDegrees>
            </Position>
            <AltitudeMeters>368.600006103515625</AltitudeMeters>
            <DistanceMeters>NAN</DistanceMeters>
          </Trackpoint>
          <Trackpoint>
            <Time>2022-09-22T13:55:04.000Z</Time>
            <Position>
              <LatitudeDegrees>49.45696041919291019439697265625</LatitudeDegrees>
              <LongitudeDegrees>20.69418408907949924468994140625</LongitudeDegrees>
            </Position>
            <AltitudeMeters>368.399993896484375</AltitudeMeters>
            <DistanceMeters>NAN</DistanceMeters>
          </Trackpoint>
          <Trackpoint>
            <Time>2022-09-22T13:55:05.000Z</Time>
            <Position>
              <LatitudeDegrees>49.456913061439990997314453125</LatitudeDegrees>
              <LongitudeDegrees>20.69420806132256984710693359375</LongitudeDegrees>
            </Position>
            <AltitudeMeters>368.399993896484375</AltitudeMeters>
            <DistanceMeters>NAN</DistanceMeters>
          </Trackpoint>
          <Trackpoint>
            <Time>2022-09-22T13:55:12.000Z</Time>
            <Position>
              <LatitudeDegrees>49.456508047878742218017578125</LatitudeDegrees>
              <LongitudeDegrees>20.6943782977759838104248046875</LongitudeDegrees>
            </Position>
            <AltitudeMeters>368.399993896484375</AltitudeMeters>
            <DistanceMeters>NAN</DistanceMeters>
          </Trackpoint>
          <Trackpoint>
            <Time>2022-09-22T13:55:18.000Z</Time>
            <Position>
              <LatitudeDegrees>49.45623337291181087493896484375</LatitudeDegrees>
              <LongitudeDegrees>20.69450763054192066192626953125</LongitudeDegrees>
            </Position>
            <AltitudeMeters>368.399993896484375</AltitudeMeters>
            <DistanceMeters>NAN</DistanceMeters>
          </Trackpoint>
          <Trackpoint>
            <Time>2022-09-22T13:55:20.000Z</Time>
            <Position>
              <LatitudeDegrees>49.45614385418593883514404296875</LatitudeDegrees>
              <LongitudeDegrees>20.6945630349218845367431640625</LongitudeDegrees>
            </Position>
            <AltitudeMeters>368.600006103515625</AltitudeMeters>
            <DistanceMeters>NAN</DistanceMeters>
          </Trackpoint>
          <Trackpoint>
            <Time>2022-09-22T13:55:25.000Z</Time>
            <Position>
              <LatitudeDegrees>49.4559301994740962982177734375</LatitudeDegrees>
              <LongitudeDegrees>20.6947186030447483062744140625</LongitudeDegrees>
            </Position>
            <AltitudeMeters>368.600006103515625</AltitudeMeters>
            <DistanceMeters>NAN</DistanceMeters>
          </Trackpoint>
          <Trackpoint>
            <Time>2022-09-22T13:55:28.000Z</Time>
            <Position>
              <LatitudeDegrees>49.45579751394689083099365234375</LatitudeDegrees>
              <LongitudeDegrees>20.69481474347412586212158203125</LongitudeDegrees>
            </Position>
            <AltitudeMeters>368.399993896484375</AltitudeMeters>
            <DistanceMeters>NAN</DistanceMeters>
          </Trackpoint>
          <Trackpoint>
            <Time>2022-09-22T13:55:31.000Z</Time>
            <Position>
              <LatitudeDegrees>49.4556623138487339019775390625</LatitudeDegrees>
              <LongitudeDegrees>20.694932006299495697021484375</LongitudeDegrees>
            </Position>
            <AltitudeMeters>367.79998779296875</AltitudeMeters>
            <DistanceMeters>NAN</DistanceMeters>
          </Trackpoint>
          <Trackpoint>
            <Time>2022-09-22T13:55:37.000Z</Time>
            <Position>
              <LatitudeDegrees>49.45537238381803035736083984375</LatitudeDegrees>
              <LongitudeDegrees>20.6951913423836231231689453125</LongitudeDegrees>
            </Position>
            <AltitudeMeters>366.600006103515625</AltitudeMeters>
            <DistanceMeters>NAN</DistanceMeters>
          </Trackpoint>
          <Trackpoint>
            <Time>2022-09-22T13:55:38.000Z</Time>
            <Position>
              <LatitudeDegrees>49.45532226003706455230712890625</LatitudeDegrees>
              <LongitudeDegrees>20.695235095918178558349609375</LongitudeDegrees>
            </Position>
            <AltitudeMeters>366.399993896484375</AltitudeMeters>
            <DistanceMeters>NAN</DistanceMeters>
          </Trackpoint>
          <Trackpoint>
            <Time>2022-09-22T13:55:42.000Z</Time>
            <Position>
              <LatitudeDegrees>49.4551049172878265380859375</LatitudeDegrees>
              <LongitudeDegrees>20.6954149715602397918701171875</LongitudeDegrees>
            </Position>
            <AltitudeMeters>365.399993896484375</AltitudeMeters>
            <DistanceMeters>NAN</DistanceMeters>
          </Trackpoint>
          <Trackpoint>
            <Time>2022-09-22T13:55:43.000Z</Time>
            <Position>
              <LatitudeDegrees>49.45504515431821346282958984375</LatitudeDegrees>
              <LongitudeDegrees>20.69546299986541271209716796875</LongitudeDegrees>
            </Position>
            <AltitudeMeters>364.79998779296875</AltitudeMeters>
            <DistanceMeters>NAN</DistanceMeters>
          </Trackpoint>
          <Trackpoint>
            <Time>2022-09-22T13:55:44.000Z</Time>
            <Position>
              <LatitudeDegrees>49.4549788534641265869140625</LatitudeDegrees>
              <LongitudeDegrees>20.69550968706607818603515625</LongitudeDegrees>
            </Position>
            <AltitudeMeters>364.20001220703125</AltitudeMeters>
            <DistanceMeters>NAN</DistanceMeters>
          </Trackpoint>
          <Trackpoint>
            <Time>2022-09-22T13:55:46.000Z</Time>
            <Position>
              <LatitudeDegrees>49.4548418931663036346435546875</LatitudeDegrees>
              <LongitudeDegrees>20.6956087611615657806396484375</LongitudeDegrees>
            </Position>
            <AltitudeMeters>363</AltitudeMeters>
            <DistanceMeters>NAN</DistanceMeters>
          </Trackpoint>
          <Trackpoint>
            <Time>2022-09-22T13:55:50.000Z</Time>
            <Position>
              <LatitudeDegrees>49.454560764133930206298828125</LatitudeDegrees>
              <LongitudeDegrees>20.6958072446286678314208984375</LongitudeDegrees>
            </Position>
            <AltitudeMeters>362</AltitudeMeters>
            <DistanceMeters>NAN</DistanceMeters>
          </Trackpoint>
          <Trackpoint>
            <Time>2022-09-22T13:55:51.000Z</Time>
            <Position>
              <LatitudeDegrees>49.45449328981339931488037109375</LatitudeDegrees>
              <LongitudeDegrees>20.69585711695253849029541015625</LongitudeDegrees>
            </Position>
            <AltitudeMeters>361.79998779296875</AltitudeMeters>
            <DistanceMeters>NAN</DistanceMeters>
          </Trackpoint>
          <Trackpoint>
            <Time>2022-09-22T13:55:55.000Z</Time>
            <Position>
              <LatitudeDegrees>49.4542286731302738189697265625</LatitudeDegrees>
              <LongitudeDegrees>20.69605040363967418670654296875</LongitudeDegrees>
            </Position>
            <AltitudeMeters>361.79998779296875</AltitudeMeters>
            <DistanceMeters>NAN</DistanceMeters>
          </Trackpoint>
          <Trackpoint>
            <Time>2022-09-22T13:55:58.000Z</Time>
            <Position>
              <LatitudeDegrees>49.45404401980340480804443359375</LatitudeDegrees>
              <LongitudeDegrees>20.69617353379726409912109375</LongitudeDegrees>
            </Position>
            <AltitudeMeters>361.79998779296875</AltitudeMeters>
            <DistanceMeters>NAN</DistanceMeters>
          </Trackpoint>
          <Trackpoint>
            <Time>2022-09-22T13:56:04.000Z</Time>
            <Position>
              <LatitudeDegrees>49.45374528877437114715576171875</LatitudeDegrees>
              <LongitudeDegrees>20.69639146327972412109375</LongitudeDegrees>
            </Position>
            <AltitudeMeters>362.79998779296875</AltitudeMeters>
            <DistanceMeters>NAN</DistanceMeters>
          </Trackpoint>
          <Trackpoint>
            <Time>2022-09-22T13:56:05.000Z</Time>
            <Position>
              <LatitudeDegrees>49.453698433935642242431640625</LatitudeDegrees>
              <LongitudeDegrees>20.6964167766273021697998046875</LongitudeDegrees>
            </Position>
            <AltitudeMeters>362.79998779296875</AltitudeMeters>
            <DistanceMeters>NAN</DistanceMeters>
          </Trackpoint>
          <Trackpoint>
            <Time>2022-09-22T13:56:10.000Z</Time>
            <Position>
              <LatitudeDegrees>49.4534969329833984375</LatitudeDegrees>
              <LongitudeDegrees>20.6965418346226215362548828125</LongitudeDegrees>
            </Position>
            <AltitudeMeters>363.600006103515625</AltitudeMeters>
            <DistanceMeters>NAN</DistanceMeters>
          </Trackpoint>
          <Trackpoint>
            <Time>2022-09-22T13:56:15.000Z</Time>
            <Position>
              <LatitudeDegrees>49.45334698073565959930419921875</LatitudeDegrees>
              <LongitudeDegrees>20.69664451293647289276123046875</LongitudeDegrees>
            </Position>
            <AltitudeMeters>364</AltitudeMeters>
            <DistanceMeters>NAN</DistanceMeters>
          </Trackpoint>
          <Trackpoint>
            <Time>2022-09-22T13:56:16.000Z</Time>
            <Position>
              <LatitudeDegrees>49.45331932045519351959228515625</LatitudeDegrees>
              <LongitudeDegrees>20.69666194729506969451904296875</LongitudeDegrees>
            </Position>
            <AltitudeMeters>364</AltitudeMeters>
            <DistanceMeters>NAN</DistanceMeters>
          </Trackpoint>
          <Trackpoint>
            <Time>2022-09-22T13:56:24.000Z</Time>
            <Position>
              <LatitudeDegrees>49.453077502548694610595703125</LatitudeDegrees>
              <LongitudeDegrees>20.6968147493898868560791015625</LongitudeDegrees>
            </Position>
            <AltitudeMeters>364.20001220703125</AltitudeMeters>
            <DistanceMeters>NAN</DistanceMeters>
          </Trackpoint>
          <Trackpoint>
            <Time>2022-09-22T13:56:30.000Z</Time>
            <Position>
              <LatitudeDegrees>49.45291313342750072479248046875</LatitudeDegrees>
              <LongitudeDegrees>20.69694139994680881500244140625</LongitudeDegrees>
            </Position>
            <AltitudeMeters>364.600006103515625</AltitudeMeters>
            <DistanceMeters>NAN</DistanceMeters>
          </Trackpoint>
          <Trackpoint>
            <Time>2022-09-22T13:56:36.000Z</Time>
            <Position>
              <LatitudeDegrees>49.45273292250931262969970703125</LatitudeDegrees>
              <LongitudeDegrees>20.697060339152812957763671875</LongitudeDegrees>
            </Position>
            <AltitudeMeters>365</AltitudeMeters>
            <DistanceMeters>NAN</DistanceMeters>
          </Trackpoint>
          <Trackpoint>
            <Time>2022-09-22T13:56:37.000Z</Time>
            <Position>
              <LatitudeDegrees>49.45270459167659282684326171875</LatitudeDegrees>
              <LongitudeDegrees>20.69708020426332950592041015625</LongitudeDegrees>
            </Position>
            <AltitudeMeters>365</AltitudeMeters>
            <DistanceMeters>NAN</DistanceMeters>
          </Trackpoint>
          <Trackpoint>
            <Time>2022-09-22T13:56:46.000Z</Time>
            <Position>
              <LatitudeDegrees>49.45247123949229717254638671875</LatitudeDegrees>
              <LongitudeDegrees>20.6972331739962100982666015625</LongitudeDegrees>
            </Position>
            <AltitudeMeters>365.600006103515625</AltitudeMeters>
            <DistanceMeters>NAN</DistanceMeters>
          </Trackpoint>
          <Trackpoint>
            <Time>2022-09-22T13:56:49.000Z</Time>
            <Position>
              <LatitudeDegrees>49.45239395834505558013916015625</LatitudeDegrees>
              <LongitudeDegrees>20.6972915120422840118408203125</LongitudeDegrees>
            </Position>
            <AltitudeMeters>365.79998779296875</AltitudeMeters>
            <DistanceMeters>NAN</DistanceMeters>
          </Trackpoint>
          <Trackpoint>
            <Time>2022-09-22T13:56:55.000Z</Time>
            <Position>
              <LatitudeDegrees>49.45221408270299434661865234375</LatitudeDegrees>
              <LongitudeDegrees>20.69742687977850437164306640625</LongitudeDegrees>
            </Position>
            <AltitudeMeters>365.600006103515625</AltitudeMeters>
            <DistanceMeters>NAN</DistanceMeters>
          </Trackpoint>
          <Trackpoint>
            <Time>2022-09-22T13:57:02.000Z</Time>
            <Position>
              <LatitudeDegrees>49.4520309381186962127685546875</LatitudeDegrees>
              <LongitudeDegrees>20.69760256446897983551025390625</LongitudeDegrees>
            </Position>
            <AltitudeMeters>365.399993896484375</AltitudeMeters>
            <DistanceMeters>NAN</DistanceMeters>
          </Trackpoint>
          <Trackpoint>
            <Time>2022-09-22T13:57:03.000Z</Time>
            <Position>
              <LatitudeDegrees>49.4520067982375621795654296875</LatitudeDegrees>
              <LongitudeDegrees>20.69762863218784332275390625</LongitudeDegrees>
            </Position>
            <AltitudeMeters>365.399993896484375</AltitudeMeters>
            <DistanceMeters>NAN</DistanceMeters>
          </Trackpoint>
          <Trackpoint>
            <Time>2022-09-22T13:57:12.000Z</Time>
            <Position>
              <LatitudeDegrees>49.4517285190522670745849609375</LatitudeDegrees>
              <LongitudeDegrees>20.6979189813137054443359375</LongitudeDegrees>
            </Position>
            <AltitudeMeters>365</AltitudeMeters>
            <DistanceMeters>NAN</DistanceMeters>
          </Trackpoint>
          <Trackpoint>
            <Time>2022-09-22T13:57:17.000Z</Time>
            <Position>
              <LatitudeDegrees>49.4515813328325748443603515625</LatitudeDegrees>
              <LongitudeDegrees>20.6980706937611103057861328125</LongitudeDegrees>
            </Position>
            <AltitudeMeters>365</AltitudeMeters>
            <DistanceMeters>NAN</DistanceMeters>
          </Trackpoint>
          <Trackpoint>
            <Time>2022-09-22T13:57:22.000Z</Time>
            <Position>
              <LatitudeDegrees>49.45144596509635448455810546875</LatitudeDegrees>
              <LongitudeDegrees>20.698223747313022613525390625</LongitudeDegrees>
            </Position>
            <AltitudeMeters>365</AltitudeMeters>
            <DistanceMeters>NAN</DistanceMeters>
          </Trackpoint>
          <Trackpoint>
            <Time>2022-09-22T13:57:26.000Z</Time>
            <Position>
              <LatitudeDegrees>49.45132291875779628753662109375</LatitudeDegrees>
              <LongitudeDegrees>20.69835039786994457244873046875</LongitudeDegrees>
            </Position>
            <AltitudeMeters>365.20001220703125</AltitudeMeters>
            <DistanceMeters>NAN</DistanceMeters>
          </Trackpoint>
          <Trackpoint>
            <Time>2022-09-22T13:57:29.000Z</Time>
            <Position>
              <LatitudeDegrees>49.4512453861534595489501953125</LatitudeDegrees>
              <LongitudeDegrees>20.69843136705458164215087890625</LongitudeDegrees>
            </Position>
            <AltitudeMeters>365.399993896484375</AltitudeMeters>
            <DistanceMeters>NAN</DistanceMeters>
          </Trackpoint>
          <Trackpoint>
            <Time>2022-09-22T13:57:36.000Z</Time>
            <Position>
              <LatitudeDegrees>49.45106509141623973846435546875</LatitudeDegrees>
              <LongitudeDegrees>20.6986135058104991912841796875</LongitudeDegrees>
            </Position>
            <AltitudeMeters>365.79998779296875</AltitudeMeters>
            <DistanceMeters>NAN</DistanceMeters>
          </Trackpoint>
          <Trackpoint>
            <Time>2022-09-22T13:57:39.000Z</Time>
            <Position>
              <LatitudeDegrees>49.4510073401033878326416015625</LatitudeDegrees>
              <LongitudeDegrees>20.6986822374165058135986328125</LongitudeDegrees>
            </Position>
            <AltitudeMeters>366</AltitudeMeters>
            <DistanceMeters>NAN</DistanceMeters>
          </Trackpoint>
          <Trackpoint>
            <Time>2022-09-22T13:57:43.000Z</Time>
            <Position>
              <LatitudeDegrees>49.450945816934108734130859375</LatitudeDegrees>
              <LongitudeDegrees>20.6987580098211765289306640625</LongitudeDegrees>
            </Position>
            <AltitudeMeters>366</AltitudeMeters>
            <DistanceMeters>NAN</DistanceMeters>
          </Trackpoint>
          <Trackpoint>
            <Time>2022-09-22T13:57:48.000Z</Time>
            <Position>
              <LatitudeDegrees>49.45085638202726840972900390625</LatitudeDegrees>
              <LongitudeDegrees>20.69887326098978519439697265625</LongitudeDegrees>
            </Position>
            <AltitudeMeters>365.79998779296875</AltitudeMeters>
            <DistanceMeters>NAN</DistanceMeters>
          </Trackpoint>
          <Trackpoint>
            <Time>2022-09-22T13:57:49.000Z</Time>
            <Position>
              <LatitudeDegrees>49.45084162987768650054931640625</LatitudeDegrees>
              <LongitudeDegrees>20.69889840669929981231689453125</LongitudeDegrees>
            </Position>
            <AltitudeMeters>365.600006103515625</AltitudeMeters>
            <DistanceMeters>NAN</DistanceMeters>
          </Trackpoint>
          <Trackpoint>
            <Time>2022-09-22T13:57:57.000Z</Time>
            <Position>
              <LatitudeDegrees>49.45072260685265064239501953125</LatitudeDegrees>
              <LongitudeDegrees>20.6991325132548809051513671875</LongitudeDegrees>
            </Position>
            <AltitudeMeters>365.600006103515625</AltitudeMeters>
            <DistanceMeters>NAN</DistanceMeters>
          </Trackpoint>
          <Trackpoint>
            <Time>2022-09-22T13:58:05.000Z</Time>
            <Position>
              <LatitudeDegrees>49.45057022385299205780029296875</LatitudeDegrees>
              <LongitudeDegrees>20.699459575116634368896484375</LongitudeDegrees>
            </Position>
            <AltitudeMeters>365.20001220703125</AltitudeMeters>
            <DistanceMeters>NAN</DistanceMeters>
          </Trackpoint>
          <Trackpoint>
            <Time>2022-09-22T13:58:07.000Z</Time>
            <Position>
              <LatitudeDegrees>49.45053300820291042327880859375</LatitudeDegrees>
              <LongitudeDegrees>20.69956510327756404876708984375</LongitudeDegrees>
            </Position>
            <AltitudeMeters>365</AltitudeMeters>
            <DistanceMeters>NAN</DistanceMeters>
          </Trackpoint>
          <Trackpoint>
            <Time>2022-09-22T13:58:11.000Z</Time>
            <Position>
              <LatitudeDegrees>49.45048539899289608001708984375</LatitudeDegrees>
              <LongitudeDegrees>20.69980013184249401092529296875</LongitudeDegrees>
            </Position>
            <AltitudeMeters>364.399993896484375</AltitudeMeters>
            <DistanceMeters>NAN</DistanceMeters>
          </Trackpoint>
          <Trackpoint>
            <Time>2022-09-22T13:58:15.000Z</Time>
            <Position>
              <LatitudeDegrees>49.4504651986062526702880859375</LatitudeDegrees>
              <LongitudeDegrees>20.6999118626117706298828125</LongitudeDegrees>
            </Position>
            <AltitudeMeters>364.20001220703125</AltitudeMeters>
            <DistanceMeters>NAN</DistanceMeters>
          </Trackpoint>
          <Trackpoint>
            <Time>2022-09-22T13:58:20.000Z</Time>
            <Position>
              <LatitudeDegrees>49.45045874454081058502197265625</LatitudeDegrees>
              <LongitudeDegrees>20.700025521218776702880859375</LongitudeDegrees>
            </Position>
            <AltitudeMeters>364</AltitudeMeters>
            <DistanceMeters>NAN</DistanceMeters>
          </Trackpoint>
          <Trackpoint>
            <Time>2022-09-22T13:58:21.000Z</Time>
            <Position>
              <LatitudeDegrees>49.45045086555182933807373046875</LatitudeDegrees>
              <LongitudeDegrees>20.7000531814992427825927734375</LongitudeDegrees>
            </Position>
            <AltitudeMeters>364</AltitudeMeters>
            <DistanceMeters>NAN</DistanceMeters>
          </Trackpoint>
          <Trackpoint>
            <Time>2022-09-22T13:58:23.000Z</Time>
            <Position>
              <LatitudeDegrees>49.450426138937473297119140625</LatitudeDegrees>
              <LongitudeDegrees>20.70010892115533351898193359375</LongitudeDegrees>
            </Position>
            <AltitudeMeters>364</AltitudeMeters>
            <DistanceMeters>NAN</DistanceMeters>
          </Trackpoint>
          <Trackpoint>
            <Time>2022-09-22T13:58:26.000Z</Time>
            <Position>
              <LatitudeDegrees>49.4503740034997463226318359375</LatitudeDegrees>
              <LongitudeDegrees>20.7002305425703525543212890625</LongitudeDegrees>
            </Position>
            <AltitudeMeters>363.79998779296875</AltitudeMeters>
            <DistanceMeters>NAN</DistanceMeters>
          </Trackpoint>
          <Trackpoint>
            <Time>2022-09-22T13:58:33.000Z</Time>
            <Position>
              <LatitudeDegrees>49.45024584420025348663330078125</LatitudeDegrees>
              <LongitudeDegrees>20.7005034573376178741455078125</LongitudeDegrees>
            </Position>
            <AltitudeMeters>363.600006103515625</AltitudeMeters>
            <DistanceMeters>NAN</DistanceMeters>
          </Trackpoint>
          <Trackpoint>
            <Time>2022-09-22T13:58:34.000Z</Time>
            <Position>
              <LatitudeDegrees>49.4502254761755466461181640625</LatitudeDegrees>
              <LongitudeDegrees>20.7005475461483001708984375</LongitudeDegrees>
            </Position>
            <AltitudeMeters>363.399993896484375</AltitudeMeters>
            <DistanceMeters>NAN</DistanceMeters>
          </Trackpoint>
          <Trackpoint>
            <Time>2022-09-22T13:58:38.000Z</Time>
            <Position>
              <LatitudeDegrees>49.45014727301895618438720703125</LatitudeDegrees>
              <LongitudeDegrees>20.70069163106381893157958984375</LongitudeDegrees>
            </Position>
            <AltitudeMeters>363.600006103515625</AltitudeMeters>
            <DistanceMeters>NAN</DistanceMeters>
          </Trackpoint>
          <Trackpoint>
            <Time>2022-09-22T13:58:42.000Z</Time>
            <Position>
              <LatitudeDegrees>49.45008005015552043914794921875</LatitudeDegrees>
              <LongitudeDegrees>20.70083814673125743865966796875</LongitudeDegrees>
            </Position>
            <AltitudeMeters>363.79998779296875</AltitudeMeters>
            <DistanceMeters>NAN</DistanceMeters>
          </Trackpoint>
          <Trackpoint>
            <Time>2022-09-22T13:58:48.000Z</Time>
            <Position>
              <LatitudeDegrees>49.44999757222831249237060546875</LatitudeDegrees>
              <LongitudeDegrees>20.7010261528193950653076171875</LongitudeDegrees>
            </Position>
            <AltitudeMeters>363.79998779296875</AltitudeMeters>
            <DistanceMeters>NAN</DistanceMeters>
          </Trackpoint>
          <Trackpoint>
            <Time>2022-09-22T13:58:51.000Z</Time>
            <Position>
              <LatitudeDegrees>49.449960775673389434814453125</LatitudeDegrees>
              <LongitudeDegrees>20.70110737346112728118896484375</LongitudeDegrees>
            </Position>
            <AltitudeMeters>363.79998779296875</AltitudeMeters>
            <DistanceMeters>NAN</DistanceMeters>
          </Trackpoint>
          <Trackpoint>
            <Time>2022-09-22T13:58:55.000Z</Time>
            <Position>
              <LatitudeDegrees>49.4499183632433414459228515625</LatitudeDegrees>
              <LongitudeDegrees>20.7011927850544452667236328125</LongitudeDegrees>
            </Position>
            <AltitudeMeters>363.79998779296875</AltitudeMeters>
            <DistanceMeters>NAN</DistanceMeters>
          </Trackpoint>
          <Trackpoint>
            <Time>2022-09-22T13:58:58.000Z</Time>
            <Position>
              <LatitudeDegrees>49.44987150840461254119873046875</LatitudeDegrees>
              <LongitudeDegrees>20.701251290738582611083984375</LongitudeDegrees>
            </Position>
            <AltitudeMeters>363.79998779296875</AltitudeMeters>
            <DistanceMeters>NAN</DistanceMeters>
          </Trackpoint>
          <Trackpoint>
            <Time>2022-09-22T13:59:02.000Z</Time>
            <Position>
              <LatitudeDegrees>49.44977461360394954681396484375</LatitudeDegrees>
              <LongitudeDegrees>20.70141322910785675048828125</LongitudeDegrees>
            </Position>
            <AltitudeMeters>364</AltitudeMeters>
            <DistanceMeters>NAN</DistanceMeters>
          </Trackpoint>
          <Trackpoint>
            <Time>2022-09-22T13:59:03.000Z</Time>
            <Position>
              <LatitudeDegrees>49.449750892817974090576171875</LatitudeDegrees>
              <LongitudeDegrees>20.70146410726010799407958984375</LongitudeDegrees>
            </Position>
            <AltitudeMeters>364</AltitudeMeters>
            <DistanceMeters>NAN</DistanceMeters>
          </Trackpoint>
          <Trackpoint>
            <Time>2022-09-22T13:59:10.000Z</Time>
            <Position>
              <LatitudeDegrees>49.44959406740963459014892578125</LatitudeDegrees>
              <LongitudeDegrees>20.70178513415157794952392578125</LongitudeDegrees>
            </Position>
            <AltitudeMeters>364.20001220703125</AltitudeMeters>
            <DistanceMeters>NAN</DistanceMeters>
          </Trackpoint>
          <Trackpoint>
            <Time>2022-09-22T13:59:18.000Z</Time>
            <Position>
              <LatitudeDegrees>49.44941067136824131011962890625</LatitudeDegrees>
              <LongitudeDegrees>20.70213013328611850738525390625</LongitudeDegrees>
            </Position>
            <AltitudeMeters>364.20001220703125</AltitudeMeters>
            <DistanceMeters>NAN</DistanceMeters>
          </Trackpoint>
          <Trackpoint>
            <Time>2022-09-22T13:59:28.000Z</Time>
            <Position>
              <LatitudeDegrees>49.44915468804538249969482421875</LatitudeDegrees>
              <LongitudeDegrees>20.70261963643133640289306640625</LongitudeDegrees>
            </Position>
            <AltitudeMeters>364</AltitudeMeters>
            <DistanceMeters>NAN</DistanceMeters>
          </Trackpoint>
          <Trackpoint>
            <Time>2022-09-22T13:59:30.000Z</Time>
            <Position>
              <LatitudeDegrees>49.4491063244640827178955078125</LatitudeDegrees>
              <LongitudeDegrees>20.7027139328420162200927734375</LongitudeDegrees>
            </Position>
            <AltitudeMeters>364.20001220703125</AltitudeMeters>
            <DistanceMeters>NAN</DistanceMeters>
          </Trackpoint>
          <Trackpoint>
            <Time>2022-09-22T13:59:35.000Z</Time>
            <Position>
              <LatitudeDegrees>49.44900230504572391510009765625</LatitudeDegrees>
              <LongitudeDegrees>20.70291099138557910919189453125</LongitudeDegrees>
            </Position>
            <AltitudeMeters>364</AltitudeMeters>
            <DistanceMeters>NAN</DistanceMeters>
          </Trackpoint>
          <Trackpoint>
            <Time>2022-09-22T13:59:42.000Z</Time>
            <Position>
              <LatitudeDegrees>49.44884740747511386871337890625</LatitudeDegrees>
              <LongitudeDegrees>20.70322011597454547882080078125</LongitudeDegrees>
            </Position>
            <AltitudeMeters>364</AltitudeMeters>
            <DistanceMeters>NAN</DistanceMeters>
          </Trackpoint>
          <Trackpoint>
            <Time>2022-09-22T13:59:47.000Z</Time>
            <Position>
              <LatitudeDegrees>49.4487391971051692962646484375</LatitudeDegrees>
              <LongitudeDegrees>20.70342446677386760711669921875</LongitudeDegrees>
            </Position>
            <AltitudeMeters>364.20001220703125</AltitudeMeters>
            <DistanceMeters>NAN</DistanceMeters>
          </Trackpoint>
          <Trackpoint>
            <Time>2022-09-22T13:59:50.000Z</Time>
            <Position>
              <LatitudeDegrees>49.44867608137428760528564453125</LatitudeDegrees>
              <LongitudeDegrees>20.7035249657928943634033203125</LongitudeDegrees>
            </Position>
            <AltitudeMeters>364.399993896484375</AltitudeMeters>
            <DistanceMeters>NAN</DistanceMeters>
          </Trackpoint>
          <Trackpoint>
            <Time>2022-09-22T13:59:55.000Z</Time>
            <Position>
              <LatitudeDegrees>49.4485842995345592498779296875</LatitudeDegrees>
              <LongitudeDegrees>20.703679025173187255859375</LongitudeDegrees>
            </Position>
            <AltitudeMeters>364.600006103515625</AltitudeMeters>
            <DistanceMeters>NAN</DistanceMeters>
          </Trackpoint>
          <Trackpoint>
            <Time>2022-09-22T13:59:56.000Z</Time>
            <Position>
              <LatitudeDegrees>49.4485641829669475555419921875</LatitudeDegrees>
              <LongitudeDegrees>20.70369771681725978851318359375</LongitudeDegrees>
            </Position>
            <AltitudeMeters>364.600006103515625</AltitudeMeters>
            <DistanceMeters>NAN</DistanceMeters>
          </Trackpoint>
          <Trackpoint>
            <Time>2022-09-22T13:59:58.000Z</Time>
            <Position>
              <LatitudeDegrees>49.44853275083005428314208984375</LatitudeDegrees>
              <LongitudeDegrees>20.70370660163462162017822265625</LongitudeDegrees>
            </Position>
            <AltitudeMeters>364.600006103515625</AltitudeMeters>
            <DistanceMeters>NAN</DistanceMeters>
          </Trackpoint>
          <Trackpoint>
            <Time>2022-09-22T14:00:01.000Z</Time>
            <Position>
              <LatitudeDegrees>49.448511712253093719482421875</LatitudeDegrees>
              <LongitudeDegrees>20.70373174734413623809814453125</LongitudeDegrees>
            </Position>
            <AltitudeMeters>364.399993896484375</AltitudeMeters>
            <DistanceMeters>NAN</DistanceMeters>
          </Trackpoint>
          <Trackpoint>
            <Time>2022-09-22T14:00:02.000Z</Time>
            <Position>
              <LatitudeDegrees>49.44850190542638301849365234375</LatitudeDegrees>
              <LongitudeDegrees>20.7037509419023990631103515625</LongitudeDegrees>
            </Position>
            <AltitudeMeters>364.399993896484375</AltitudeMeters>
            <DistanceMeters>NAN</DistanceMeters>
          </Trackpoint>
          <Trackpoint>
            <Time>2022-09-22T14:00:03.000Z</Time>
            <Position>
              <LatitudeDegrees>49.448494613170623779296875</LatitudeDegrees>
              <LongitudeDegrees>20.7037690468132495880126953125</LongitudeDegrees>
            </Position>
            <AltitudeMeters>364.399993896484375</AltitudeMeters>
            <DistanceMeters>NAN</DistanceMeters>
          </Trackpoint>
          <Trackpoint>
            <Time>2022-09-22T14:00:05.000Z</Time>
            <Position>
              <LatitudeDegrees>49.4484810344874858856201171875</LatitudeDegrees>
              <LongitudeDegrees>20.703806765377521514892578125</LongitudeDegrees>
            </Position>
            <AltitudeMeters>364.399993896484375</AltitudeMeters>
            <DistanceMeters>NAN</DistanceMeters>
          </Trackpoint>
          <Trackpoint>
            <Time>2022-09-22T14:00:06.000Z</Time>
            <Position>
              <LatitudeDegrees>49.44848187267780303955078125</LatitudeDegrees>
              <LongitudeDegrees>20.703820846974849700927734375</LongitudeDegrees>
            </Position>
            <AltitudeMeters>364.399993896484375</AltitudeMeters>
            <DistanceMeters>NAN</DistanceMeters>
          </Trackpoint>
          <Trackpoint>
            <Time>2022-09-22T14:00:12.000Z</Time>
            <Position>
              <LatitudeDegrees>49.4484662823379039764404296875</LatitudeDegrees>
              <LongitudeDegrees>20.70385403931140899658203125</LongitudeDegrees>
            </Position>
            <AltitudeMeters>364.399993896484375</AltitudeMeters>
            <DistanceMeters>NAN</DistanceMeters>
          </Trackpoint>
          <Trackpoint>
            <Time>2022-09-22T14:00:13.000Z</Time>
            <Position>
              <LatitudeDegrees>49.448456056416034698486328125</LatitudeDegrees>
              <LongitudeDegrees>20.70386585779488086700439453125</LongitudeDegrees>
            </Position>
            <AltitudeMeters>364.600006103515625</AltitudeMeters>
            <DistanceMeters>NAN</DistanceMeters>
          </Trackpoint>
          <Trackpoint>
            <Time>2022-09-22T14:00:16.000Z</Time>
            <Position>
              <LatitudeDegrees>49.44842495955526828765869140625</LatitudeDegrees>
              <LongitudeDegrees>20.70392637513577938079833984375</LongitudeDegrees>
            </Position>
            <AltitudeMeters>364.600006103515625</AltitudeMeters>
            <DistanceMeters>NAN</DistanceMeters>
          </Trackpoint>
          <Trackpoint>
            <Time>2022-09-22T14:00:22.000Z</Time>
            <Position>
              <LatitudeDegrees>49.4483288191258907318115234375</LatitudeDegrees>
              <LongitudeDegrees>20.704139359295368194580078125</LongitudeDegrees>
            </Position>
            <AltitudeMeters>364.79998779296875</AltitudeMeters>
            <DistanceMeters>NAN</DistanceMeters>
          </Trackpoint>
          <Trackpoint>
            <Time>2022-09-22T14:00:30.000Z</Time>
            <Position>
              <LatitudeDegrees>49.4482196867465972900390625</LatitudeDegrees>
              <LongitudeDegrees>20.70438914000988006591796875</LongitudeDegrees>
            </Position>
            <AltitudeMeters>364.79998779296875</AltitudeMeters>
            <DistanceMeters>NAN</DistanceMeters>
          </Trackpoint>
          <Trackpoint>
            <Time>2022-09-22T14:00:34.000Z</Time>
            <Position>
              <LatitudeDegrees>49.44817920215427875518798828125</LatitudeDegrees>
              <LongitudeDegrees>20.70449751801788806915283203125</LongitudeDegrees>
            </Position>
            <AltitudeMeters>365</AltitudeMeters>
            <DistanceMeters>NAN</DistanceMeters>
          </Trackpoint>
          <Trackpoint>
            <Time>2022-09-22T14:00:38.000Z</Time>
            <Position>
              <LatitudeDegrees>49.44813863374292850494384765625</LatitudeDegrees>
              <LongitudeDegrees>20.70458200760185718536376953125</LongitudeDegrees>
            </Position>
            <AltitudeMeters>365</AltitudeMeters>
            <DistanceMeters>NAN</DistanceMeters>
          </Trackpoint>
          <Trackpoint>
            <Time>2022-09-22T14:00:45.000Z</Time>
            <Position>
              <LatitudeDegrees>49.44808381609618663787841796875</LatitudeDegrees>
              <LongitudeDegrees>20.704724080860614776611328125</LongitudeDegrees>
            </Position>
            <AltitudeMeters>365</AltitudeMeters>
            <DistanceMeters>NAN</DistanceMeters>
          </Trackpoint>
          <Trackpoint>
            <Time>2022-09-22T14:00:46.000Z</Time>
            <Position>
              <LatitudeDegrees>49.4480882585048675537109375</LatitudeDegrees>
              <LongitudeDegrees>20.704737491905689239501953125</LongitudeDegrees>
            </Position>
            <AltitudeMeters>365</AltitudeMeters>
            <DistanceMeters>NAN</DistanceMeters>
          </Trackpoint>
          <Trackpoint>
            <Time>2022-09-22T14:00:48.000Z</Time>
            <Position>
              <LatitudeDegrees>49.4480877555906772613525390625</LatitudeDegrees>
              <LongitudeDegrees>20.704738162457942962646484375</LongitudeDegrees>
            </Position>
            <AltitudeMeters>365</AltitudeMeters>
            <DistanceMeters>NAN</DistanceMeters>
          </Trackpoint>
          <Trackpoint>
            <Time>2022-09-22T14:00:52.000Z</Time>
            <Position>
              <LatitudeDegrees>49.4480877555906772613525390625</LatitudeDegrees>
              <LongitudeDegrees>20.704738162457942962646484375</LongitudeDegrees>
            </Position>
            <AltitudeMeters>365.20001220703125</AltitudeMeters>
            <DistanceMeters>NAN</DistanceMeters>
          </Trackpoint>
          <Trackpoint>
            <Time>2022-09-22T14:00:55.000Z</Time>
            <Position>
              <LatitudeDegrees>49.4480877555906772613525390625</LatitudeDegrees>
              <LongitudeDegrees>20.704738162457942962646484375</LongitudeDegrees>
            </Position>
            <AltitudeMeters>365.20001220703125</AltitudeMeters>
            <DistanceMeters>NAN</DistanceMeters>
          </Trackpoint>
          <Trackpoint>
            <Time>2022-09-22T14:01:01.000Z</Time>
            <Position>
              <LatitudeDegrees>49.4480877555906772613525390625</LatitudeDegrees>
              <LongitudeDegrees>20.704738162457942962646484375</LongitudeDegrees>
            </Position>
            <AltitudeMeters>365.20001220703125</AltitudeMeters>
            <DistanceMeters>NAN</DistanceMeters>
          </Trackpoint>
          <Trackpoint>
            <Time>2022-09-22T14:01:06.000Z</Time>
            <Position>
              <LatitudeDegrees>49.448086582124233245849609375</LatitudeDegrees>
              <LongitudeDegrees>20.704741179943084716796875</LongitudeDegrees>
            </Position>
            <AltitudeMeters>365.399993896484375</AltitudeMeters>
            <DistanceMeters>NAN</DistanceMeters>
          </Trackpoint>
          <Trackpoint>
            <Time>2022-09-22T14:01:08.000Z</Time>
            <Position>
              <LatitudeDegrees>49.44807325489819049835205078125</LatitudeDegrees>
              <LongitudeDegrees>20.70477831177413463592529296875</LongitudeDegrees>
            </Position>
            <AltitudeMeters>365.399993896484375</AltitudeMeters>
            <DistanceMeters>NAN</DistanceMeters>
          </Trackpoint>
          <Trackpoint>
            <Time>2022-09-22T14:01:14.000Z</Time>
            <Position>
              <LatitudeDegrees>49.44797627627849578857421875</LatitudeDegrees>
              <LongitudeDegrees>20.70500059984624385833740234375</LongitudeDegrees>
            </Position>
            <AltitudeMeters>365.600006103515625</AltitudeMeters>
            <DistanceMeters>NAN</DistanceMeters>
          </Trackpoint>
          <Trackpoint>
            <Time>2022-09-22T14:01:22.000Z</Time>
            <Position>
              <LatitudeDegrees>49.4478213787078857421875</LatitudeDegrees>
              <LongitudeDegrees>20.70528474636375904083251953125</LongitudeDegrees>
            </Position>
            <AltitudeMeters>366</AltitudeMeters>
            <DistanceMeters>NAN</DistanceMeters>
          </Trackpoint>
          <Trackpoint>
            <Time>2022-09-22T14:01:28.000Z</Time>
            <Position>
              <LatitudeDegrees>49.44770336151123046875</LatitudeDegrees>
              <LongitudeDegrees>20.705508626997470855712890625</LongitudeDegrees>
            </Position>
            <AltitudeMeters>366.20001220703125</AltitudeMeters>
            <DistanceMeters>NAN</DistanceMeters>
          </Trackpoint>
          <Trackpoint>
            <Time>2022-09-22T14:01:30.000Z</Time>
            <Position>
              <LatitudeDegrees>49.44767410866916179656982421875</LatitudeDegrees>
              <LongitudeDegrees>20.70555858314037322998046875</LongitudeDegrees>
            </Position>
            <AltitudeMeters>366.399993896484375</AltitudeMeters>
            <DistanceMeters>NAN</DistanceMeters>
          </Trackpoint>
          <Trackpoint>
            <Time>2022-09-22T14:01:35.000Z</Time>
            <Position>
              <LatitudeDegrees>49.44760101847350597381591796875</LatitudeDegrees>
              <LongitudeDegrees>20.70570400916039943695068359375</LongitudeDegrees>
            </Position>
            <AltitudeMeters>366.600006103515625</AltitudeMeters>
            <DistanceMeters>NAN</DistanceMeters>
          </Trackpoint>
          <Trackpoint>
            <Time>2022-09-22T14:01:38.000Z</Time>
            <Position>
              <LatitudeDegrees>49.4475573487579822540283203125</LatitudeDegrees>
              <LongitudeDegrees>20.70581833831965923309326171875</LongitudeDegrees>
            </Position>
            <AltitudeMeters>366.600006103515625</AltitudeMeters>
            <DistanceMeters>NAN</DistanceMeters>
          </Trackpoint>
          <Trackpoint>
            <Time>2022-09-22T14:01:44.000Z</Time>
            <Position>
              <LatitudeDegrees>49.44744980894029140472412109375</LatitudeDegrees>
              <LongitudeDegrees>20.70606359280645847320556640625</LongitudeDegrees>
            </Position>
            <AltitudeMeters>367</AltitudeMeters>
            <DistanceMeters>NAN</DistanceMeters>
          </Trackpoint>
          <Trackpoint>
            <Time>2022-09-22T14:01:45.000Z</Time>
            <Position>
              <LatitudeDegrees>49.44742977619171142578125</LatitudeDegrees>
              <LongitudeDegrees>20.7061089389026165008544921875</LongitudeDegrees>
            </Position>
            <AltitudeMeters>367</AltitudeMeters>
            <DistanceMeters>NAN</DistanceMeters>
          </Trackpoint>
          <Trackpoint>
            <Time>2022-09-22T14:01:52.000Z</Time>
            <Position>
              <LatitudeDegrees>49.44731083698570728302001953125</LatitudeDegrees>
              <LongitudeDegrees>20.70639006793498992919921875</LongitudeDegrees>
            </Position>
            <AltitudeMeters>366.79998779296875</AltitudeMeters>
            <DistanceMeters>NAN</DistanceMeters>
          </Trackpoint>
          <Trackpoint>
            <Time>2022-09-22T14:01:57.000Z</Time>
            <Position>
              <LatitudeDegrees>49.4472180493175983428955078125</LatitudeDegrees>
              <LongitudeDegrees>20.70665736682713031768798828125</LongitudeDegrees>
            </Position>
            <AltitudeMeters>366.79998779296875</AltitudeMeters>
            <DistanceMeters>NAN</DistanceMeters>
          </Trackpoint>
          <Trackpoint>
            <Time>2022-09-22T14:02:05.000Z</Time>
            <Position>
              <LatitudeDegrees>49.447096176445484161376953125</LatitudeDegrees>
              <LongitudeDegrees>20.70702667348086833953857421875</LongitudeDegrees>
            </Position>
            <AltitudeMeters>367</AltitudeMeters>
            <DistanceMeters>NAN</DistanceMeters>
          </Trackpoint>
          <Trackpoint>
            <Time>2022-09-22T14:02:07.000Z</Time>
            <Position>
              <LatitudeDegrees>49.4470594637095928192138671875</LatitudeDegrees>
              <LongitudeDegrees>20.7071335427463054656982421875</LongitudeDegrees>
            </Position>
            <AltitudeMeters>366.79998779296875</AltitudeMeters>
            <DistanceMeters>NAN</DistanceMeters>
          </Trackpoint>
          <Trackpoint>
            <Time>2022-09-22T14:02:12.000Z</Time>
            <Position>
              <LatitudeDegrees>49.44698109291493892669677734375</LatitudeDegrees>
              <LongitudeDegrees>20.70741827599704265594482421875</LongitudeDegrees>
            </Position>
            <AltitudeMeters>367</AltitudeMeters>
            <DistanceMeters>NAN</DistanceMeters>
          </Trackpoint>
          <Trackpoint>
            <Time>2022-09-22T14:02:19.000Z</Time>
            <Position>
              <LatitudeDegrees>49.4468696974217891693115234375</LatitudeDegrees>
              <LongitudeDegrees>20.7077786140143871307373046875</LongitudeDegrees>
            </Position>
            <AltitudeMeters>367.20001220703125</AltitudeMeters>
            <DistanceMeters>NAN</DistanceMeters>
          </Trackpoint>
          <Trackpoint>
            <Time>2022-09-22T14:02:24.000Z</Time>
            <Position>
              <LatitudeDegrees>49.446781016886234283447265625</LatitudeDegrees>
              <LongitudeDegrees>20.70801858790218830108642578125</LongitudeDegrees>
            </Position>
            <AltitudeMeters>367.79998779296875</AltitudeMeters>
            <DistanceMeters>NAN</DistanceMeters>
          </Trackpoint>
          <Trackpoint>
            <Time>2022-09-22T14:02:25.000Z</Time>
            <Position>
              <LatitudeDegrees>49.44676525890827178955078125</LatitudeDegrees>
              <LongitudeDegrees>20.70805982686579227447509765625</LongitudeDegrees>
            </Position>
            <AltitudeMeters>367.79998779296875</AltitudeMeters>
            <DistanceMeters>NAN</DistanceMeters>
          </Trackpoint>
          <Trackpoint>
            <Time>2022-09-22T14:02:33.000Z</Time>
            <Position>
              <LatitudeDegrees>49.446616061031818389892578125</LatitudeDegrees>
              <LongitudeDegrees>20.70837917737662792205810546875</LongitudeDegrees>
            </Position>
            <AltitudeMeters>367.600006103515625</AltitudeMeters>
            <DistanceMeters>NAN</DistanceMeters>
          </Trackpoint>
          <Trackpoint>
            <Time>2022-09-22T14:02:38.000Z</Time>
            <Position>
              <LatitudeDegrees>49.44649628363549709320068359375</LatitudeDegrees>
              <LongitudeDegrees>20.70862124674022197723388671875</LongitudeDegrees>
            </Position>
            <AltitudeMeters>367.79998779296875</AltitudeMeters>
            <DistanceMeters>NAN</DistanceMeters>
          </Trackpoint>
          <Trackpoint>
            <Time>2022-09-22T14:02:40.000Z</Time>
            <Position>
              <LatitudeDegrees>49.44644741714000701904296875</LatitudeDegrees>
              <LongitudeDegrees>20.7087002880871295928955078125</LongitudeDegrees>
            </Position>
            <AltitudeMeters>368</AltitudeMeters>
            <DistanceMeters>NAN</DistanceMeters>
          </Trackpoint>
          <Trackpoint>
            <Time>2022-09-22T14:02:46.000Z</Time>
            <Position>
              <LatitudeDegrees>49.44629008881747722625732421875</LatitudeDegrees>
              <LongitudeDegrees>20.70897244848310947418212890625</LongitudeDegrees>
            </Position>
            <AltitudeMeters>368</AltitudeMeters>
            <DistanceMeters>NAN</DistanceMeters>
          </Trackpoint>
          <Trackpoint>
            <Time>2022-09-22T14:02:54.000Z</Time>
            <Position>
              <LatitudeDegrees>49.446123875677585601806640625</LatitudeDegrees>
              <LongitudeDegrees>20.70926941931247711181640625</LongitudeDegrees>
            </Position>
            <AltitudeMeters>369</AltitudeMeters>
            <DistanceMeters>NAN</DistanceMeters>
          </Trackpoint>
          <Trackpoint>
            <Time>2022-09-22T14:02:56.000Z</Time>
            <Position>
              <LatitudeDegrees>49.4460891745984554290771484375</LatitudeDegrees>
              <LongitudeDegrees>20.70932650007307529449462890625</LongitudeDegrees>
            </Position>
            <AltitudeMeters>369</AltitudeMeters>
            <DistanceMeters>NAN</DistanceMeters>
          </Trackpoint>
          <Trackpoint>
            <Time>2022-09-22T14:03:01.000Z</Time>
            <Position>
              <LatitudeDegrees>49.44599320180714130401611328125</LatitudeDegrees>
              <LongitudeDegrees>20.70949346758425235748291015625</LongitudeDegrees>
            </Position>
            <AltitudeMeters>369.20001220703125</AltitudeMeters>
            <DistanceMeters>NAN</DistanceMeters>
          </Trackpoint>
          <Trackpoint>
            <Time>2022-09-22T14:03:10.000Z</Time>
            <Position>
              <LatitudeDegrees>49.44580427370965480804443359375</LatitudeDegrees>
              <LongitudeDegrees>20.70981097407639026641845703125</LongitudeDegrees>
            </Position>
            <AltitudeMeters>369.600006103515625</AltitudeMeters>
            <DistanceMeters>NAN</DistanceMeters>
          </Trackpoint>
          <Trackpoint>
            <Time>2022-09-22T14:03:14.000Z</Time>
            <Position>
              <LatitudeDegrees>49.44572347216308116912841796875</LatitudeDegrees>
              <LongitudeDegrees>20.70996888913214206695556640625</LongitudeDegrees>
            </Position>
            <AltitudeMeters>369.600006103515625</AltitudeMeters>
            <DistanceMeters>NAN</DistanceMeters>
          </Trackpoint>
          <Trackpoint>
            <Time>2022-09-22T14:03:18.000Z</Time>
            <Position>
              <LatitudeDegrees>49.4456311874091625213623046875</LatitudeDegrees>
              <LongitudeDegrees>20.71012194268405437469482421875</LongitudeDegrees>
            </Position>
            <AltitudeMeters>370</AltitudeMeters>
            <DistanceMeters>NAN</DistanceMeters>
          </Trackpoint>
          <Trackpoint>
            <Time>2022-09-22T14:03:20.000Z</Time>
            <Position>
              <LatitudeDegrees>49.4455899484455585479736328125</LatitudeDegrees>
              <LongitudeDegrees>20.7102008163928985595703125</LongitudeDegrees>
            </Position>
            <AltitudeMeters>370</AltitudeMeters>
            <DistanceMeters>NAN</DistanceMeters>
          </Trackpoint>
          <Trackpoint>
            <Time>2022-09-22T14:03:25.000Z</Time>
            <Position>
              <LatitudeDegrees>49.44548944942653179168701171875</LatitudeDegrees>
              <LongitudeDegrees>20.71035529486835002899169921875</LongitudeDegrees>
            </Position>
            <AltitudeMeters>370.20001220703125</AltitudeMeters>
            <DistanceMeters>NAN</DistanceMeters>
          </Trackpoint>
          <Trackpoint>
            <Time>2022-09-22T14:03:35.000Z</Time>
            <Position>
              <LatitudeDegrees>49.4452679157257080078125</LatitudeDegrees>
              <LongitudeDegrees>20.71072694845497608184814453125</LongitudeDegrees>
            </Position>
            <AltitudeMeters>370.399993896484375</AltitudeMeters>
            <DistanceMeters>NAN</DistanceMeters>
          </Trackpoint>
          <Trackpoint>
            <Time>2022-09-22T14:03:41.000Z</Time>
            <Position>
              <LatitudeDegrees>49.4451825879514217376708984375</LatitudeDegrees>
              <LongitudeDegrees>20.71094554848968982696533203125</LongitudeDegrees>
            </Position>
            <AltitudeMeters>370.79998779296875</AltitudeMeters>
            <DistanceMeters>NAN</DistanceMeters>
          </Trackpoint>
          <Trackpoint>
            <Time>2022-09-22T14:03:50.000Z</Time>
            <Position>
              <LatitudeDegrees>49.4450001977384090423583984375</LatitudeDegrees>
              <LongitudeDegrees>20.71124847047030925750732421875</LongitudeDegrees>
            </Position>
            <AltitudeMeters>371</AltitudeMeters>
            <DistanceMeters>NAN</DistanceMeters>
          </Trackpoint>
          <Trackpoint>
            <Time>2022-09-22T14:03:53.000Z</Time>
            <Position>
              <LatitudeDegrees>49.4449554383754730224609375</LatitudeDegrees>
              <LongitudeDegrees>20.71132876910269260406494140625</LongitudeDegrees>
            </Position>
            <AltitudeMeters>371.20001220703125</AltitudeMeters>
            <DistanceMeters>NAN</DistanceMeters>
          </Trackpoint>
          <Trackpoint>
            <Time>2022-09-22T14:03:57.000Z</Time>
            <Position>
              <LatitudeDegrees>49.4448892213404178619384765625</LatitudeDegrees>
              <LongitudeDegrees>20.7114435173571109771728515625</LongitudeDegrees>
            </Position>
            <AltitudeMeters>371.20001220703125</AltitudeMeters>
            <DistanceMeters>NAN</DistanceMeters>
          </Trackpoint>
          <Trackpoint>
            <Time>2022-09-22T14:04:04.000Z</Time>
            <Position>
              <LatitudeDegrees>49.44471999071538448333740234375</LatitudeDegrees>
              <LongitudeDegrees>20.7117176055908203125</LongitudeDegrees>
            </Position>
            <AltitudeMeters>371.399993896484375</AltitudeMeters>
            <DistanceMeters>NAN</DistanceMeters>
          </Trackpoint>
          <Trackpoint>
            <Time>2022-09-22T14:04:10.000Z</Time>
            <Position>
              <LatitudeDegrees>49.44458596408367156982421875</LatitudeDegrees>
              <LongitudeDegrees>20.71194215677678585052490234375</LongitudeDegrees>
            </Position>
            <AltitudeMeters>371.399993896484375</AltitudeMeters>
            <DistanceMeters>NAN</DistanceMeters>
          </Trackpoint>
          <Trackpoint>
            <Time>2022-09-22T14:04:15.000Z</Time>
            <Position>
              <LatitudeDegrees>49.4444946013391017913818359375</LatitudeDegrees>
              <LongitudeDegrees>20.71211013011634349822998046875</LongitudeDegrees>
            </Position>
            <AltitudeMeters>371.600006103515625</AltitudeMeters>
            <DistanceMeters>NAN</DistanceMeters>
          </Trackpoint>
          <Trackpoint>
            <Time>2022-09-22T14:04:23.000Z</Time>
            <Position>
              <LatitudeDegrees>49.44430458359420299530029296875</LatitudeDegrees>
              <LongitudeDegrees>20.712402574717998504638671875</LongitudeDegrees>
            </Position>
            <AltitudeMeters>371.79998779296875</AltitudeMeters>
            <DistanceMeters>NAN</DistanceMeters>
          </Trackpoint>
          <Trackpoint>
            <Time>2022-09-22T14:04:30.000Z</Time>
            <Position>
              <LatitudeDegrees>49.44413946010172367095947265625</LatitudeDegrees>
              <LongitudeDegrees>20.71265595965087413787841796875</LongitudeDegrees>
            </Position>
            <AltitudeMeters>372</AltitudeMeters>
            <DistanceMeters>NAN</DistanceMeters>
          </Trackpoint>
          <Trackpoint>
            <Time>2022-09-22T14:04:33.000Z</Time>
            <Position>
              <LatitudeDegrees>49.44406419061124324798583984375</LatitudeDegrees>
              <LongitudeDegrees>20.7127779163420200347900390625</LongitudeDegrees>
            </Position>
            <AltitudeMeters>372.20001220703125</AltitudeMeters>
            <DistanceMeters>NAN</DistanceMeters>
          </Trackpoint>
          <Trackpoint>
            <Time>2022-09-22T14:04:39.000Z</Time>
            <Position>
              <LatitudeDegrees>49.443936534225940704345703125</LatitudeDegrees>
              <LongitudeDegrees>20.71296793408691883087158203125</LongitudeDegrees>
            </Position>
            <AltitudeMeters>372.399993896484375</AltitudeMeters>
            <DistanceMeters>NAN</DistanceMeters>
          </Trackpoint>
          <Trackpoint>
            <Time>2022-09-22T14:04:46.000Z</Time>
            <Position>
              <LatitudeDegrees>49.44379010237753391265869140625</LatitudeDegrees>
              <LongitudeDegrees>20.7132263481616973876953125</LongitudeDegrees>
            </Position>
            <AltitudeMeters>372.600006103515625</AltitudeMeters>
            <DistanceMeters>NAN</DistanceMeters>
          </Trackpoint>
          <Trackpoint>
            <Time>2022-09-22T14:04:54.000Z</Time>
            <Position>
              <LatitudeDegrees>49.44361374713480472564697265625</LatitudeDegrees>
              <LongitudeDegrees>20.71346095763146877288818359375</LongitudeDegrees>
            </Position>
            <AltitudeMeters>373</AltitudeMeters>
            <DistanceMeters>NAN</DistanceMeters>
          </Trackpoint>
          <Trackpoint>
            <Time>2022-09-22T14:04:59.000Z</Time>
            <Position>
              <LatitudeDegrees>49.44352003745734691619873046875</LatitudeDegrees>
              <LongitudeDegrees>20.71356656961143016815185546875</LongitudeDegrees>
            </Position>
            <AltitudeMeters>373.20001220703125</AltitudeMeters>
            <DistanceMeters>NAN</DistanceMeters>
          </Trackpoint>
          <Trackpoint>
            <Time>2022-09-22T14:05:02.000Z</Time>
            <Position>
              <LatitudeDegrees>49.44346874020993709564208984375</LatitudeDegrees>
              <LongitudeDegrees>20.71364007890224456787109375</LongitudeDegrees>
            </Position>
            <AltitudeMeters>373.20001220703125</AltitudeMeters>
            <DistanceMeters>NAN</DistanceMeters>
          </Trackpoint>
          <Trackpoint>
            <Time>2022-09-22T14:05:10.000Z</Time>
            <Position>
              <LatitudeDegrees>49.4432829134166240692138671875</LatitudeDegrees>
              <LongitudeDegrees>20.7138719223439693450927734375</LongitudeDegrees>
            </Position>
            <AltitudeMeters>373.20001220703125</AltitudeMeters>
            <DistanceMeters>NAN</DistanceMeters>
          </Trackpoint>
          <Trackpoint>
            <Time>2022-09-22T14:05:18.000Z</Time>
            <Position>
              <LatitudeDegrees>49.44313094951212406158447265625</LatitudeDegrees>
              <LongitudeDegrees>20.71407065726816654205322265625</LongitudeDegrees>
            </Position>
            <AltitudeMeters>373.399993896484375</AltitudeMeters>
            <DistanceMeters>NAN</DistanceMeters>
          </Trackpoint>
          <Trackpoint>
            <Time>2022-09-22T14:05:27.000Z</Time>
            <Position>
              <LatitudeDegrees>49.44297127425670623779296875</LatitudeDegrees>
              <LongitudeDegrees>20.7142923586070537567138671875</LongitudeDegrees>
            </Position>
            <AltitudeMeters>373.79998779296875</AltitudeMeters>
            <DistanceMeters>NAN</DistanceMeters>
          </Trackpoint>
          <Trackpoint>
            <Time>2022-09-22T14:05:33.000Z</Time>
            <Position>
              <LatitudeDegrees>49.442844875156879425048828125</LatitudeDegrees>
              <LongitudeDegrees>20.71444381959736347198486328125</LongitudeDegrees>
            </Position>
            <AltitudeMeters>373.79998779296875</AltitudeMeters>
            <DistanceMeters>NAN</DistanceMeters>
          </Trackpoint>
          <Trackpoint>
            <Time>2022-09-22T14:05:40.000Z</Time>
            <Position>
              <LatitudeDegrees>49.44272358901798725128173828125</LatitudeDegrees>
              <LongitudeDegrees>20.714587233960628509521484375</LongitudeDegrees>
            </Position>
            <AltitudeMeters>374.20001220703125</AltitudeMeters>
            <DistanceMeters>NAN</DistanceMeters>
          </Trackpoint>
          <Trackpoint>
            <Time>2022-09-22T14:05:42.000Z</Time>
            <Position>
              <LatitudeDegrees>49.44269710220396518707275390625</LatitudeDegrees>
              <LongitudeDegrees>20.71462470106780529022216796875</LongitudeDegrees>
            </Position>
            <AltitudeMeters>374.399993896484375</AltitudeMeters>
            <DistanceMeters>NAN</DistanceMeters>
          </Trackpoint>
          <Trackpoint>
            <Time>2022-09-22T14:05:49.000Z</Time>
            <Position>
              <LatitudeDegrees>49.4426244311034679412841796875</LatitudeDegrees>
              <LongitudeDegrees>20.71469494141638278961181640625</LongitudeDegrees>
            </Position>
            <AltitudeMeters>374.399993896484375</AltitudeMeters>
            <DistanceMeters>NAN</DistanceMeters>
          </Trackpoint>
          <Trackpoint>
            <Time>2022-09-22T14:05:54.000Z</Time>
            <Position>
              <LatitudeDegrees>49.4426244311034679412841796875</LatitudeDegrees>
              <LongitudeDegrees>20.71469494141638278961181640625</LongitudeDegrees>
            </Position>
            <AltitudeMeters>374.600006103515625</AltitudeMeters>
            <DistanceMeters>NAN</DistanceMeters>
          </Trackpoint>
          <Trackpoint>
            <Time>2022-09-22T14:06:01.000Z</Time>
            <Position>
              <LatitudeDegrees>49.4426244311034679412841796875</LatitudeDegrees>
              <LongitudeDegrees>20.71469494141638278961181640625</LongitudeDegrees>
            </Position>
            <AltitudeMeters>374.600006103515625</AltitudeMeters>
            <DistanceMeters>NAN</DistanceMeters>
          </Trackpoint>
          <Trackpoint>
            <Time>2022-09-22T14:06:05.000Z</Time>
            <Position>
              <LatitudeDegrees>49.442622251808643341064453125</LatitudeDegrees>
              <LongitudeDegrees>20.7146980427205562591552734375</LongitudeDegrees>
            </Position>
            <AltitudeMeters>374.79998779296875</AltitudeMeters>
            <DistanceMeters>NAN</DistanceMeters>
          </Trackpoint>
          <Trackpoint>
            <Time>2022-09-22T14:06:06.000Z</Time>
            <Position>
              <LatitudeDegrees>49.44261881522834300994873046875</LatitudeDegrees>
              <LongitudeDegrees>20.71470332331955432891845703125</LongitudeDegrees>
            </Position>
            <AltitudeMeters>374.79998779296875</AltitudeMeters>
            <DistanceMeters>NAN</DistanceMeters>
          </Trackpoint>
          <Trackpoint>
            <Time>2022-09-22T14:06:14.000Z</Time>
            <Position>
              <LatitudeDegrees>49.44250666536390781402587890625</LatitudeDegrees>
              <LongitudeDegrees>20.71481295861303806304931640625</LongitudeDegrees>
            </Position>
            <AltitudeMeters>375.20001220703125</AltitudeMeters>
            <DistanceMeters>NAN</DistanceMeters>
          </Trackpoint>
          <Trackpoint>
            <Time>2022-09-22T14:06:15.000Z</Time>
            <Position>
              <LatitudeDegrees>49.44249895401298999786376953125</LatitudeDegrees>
              <LongitudeDegrees>20.71482117287814617156982421875</LongitudeDegrees>
            </Position>
            <AltitudeMeters>375.20001220703125</AltitudeMeters>
            <DistanceMeters>NAN</DistanceMeters>
          </Trackpoint>
          <Trackpoint>
            <Time>2022-09-22T14:06:23.000Z</Time>
            <Position>
              <LatitudeDegrees>49.4424846209585666656494140625</LatitudeDegrees>
              <LongitudeDegrees>20.71483257226645946502685546875</LongitudeDegrees>
            </Position>
            <AltitudeMeters>375.399993896484375</AltitudeMeters>
            <DistanceMeters>NAN</DistanceMeters>
          </Trackpoint>
          <Trackpoint>
            <Time>2022-09-22T14:06:24.000Z</Time>
            <Position>
              <LatitudeDegrees>49.4424846209585666656494140625</LatitudeDegrees>
              <LongitudeDegrees>20.71483257226645946502685546875</LongitudeDegrees>
            </Position>
            <AltitudeMeters>375.399993896484375</AltitudeMeters>
            <DistanceMeters>NAN</DistanceMeters>
          </Trackpoint>
          <Trackpoint>
            <Time>2022-09-22T14:06:31.000Z</Time>
            <Position>
              <LatitudeDegrees>49.44247783161699771881103515625</LatitudeDegrees>
              <LongitudeDegrees>20.7148448936641216278076171875</LongitudeDegrees>
            </Position>
            <AltitudeMeters>375.399993896484375</AltitudeMeters>
            <DistanceMeters>NAN</DistanceMeters>
          </Trackpoint>
          <Trackpoint>
            <Time>2022-09-22T14:06:32.000Z</Time>
            <Position>
              <LatitudeDegrees>49.4424675218760967254638671875</LatitudeDegrees>
              <LongitudeDegrees>20.714860819280147552490234375</LongitudeDegrees>
            </Position>
            <AltitudeMeters>375.399993896484375</AltitudeMeters>
            <DistanceMeters>NAN</DistanceMeters>
          </Trackpoint>
          <Trackpoint>
            <Time>2022-09-22T14:06:38.000Z</Time>
            <Position>
              <LatitudeDegrees>49.44240692071616649627685546875</LatitudeDegrees>
              <LongitudeDegrees>20.7149454765021800994873046875</LongitudeDegrees>
            </Position>
            <AltitudeMeters>375.600006103515625</AltitudeMeters>
            <DistanceMeters>NAN</DistanceMeters>
          </Trackpoint>
          <Trackpoint>
            <Time>2022-09-22T14:06:39.000Z</Time>
            <Position>
              <LatitudeDegrees>49.4424127042293548583984375</LatitudeDegrees>
              <LongitudeDegrees>20.7149563729763031005859375</LongitudeDegrees>
            </Position>
            <AltitudeMeters>375.79998779296875</AltitudeMeters>
            <DistanceMeters>NAN</DistanceMeters>
          </Trackpoint>
          <Trackpoint>
            <Time>2022-09-22T14:06:41.000Z</Time>
            <Position>
              <LatitudeDegrees>49.44240205921232700347900390625</LatitudeDegrees>
              <LongitudeDegrees>20.7149684429168701171875</LongitudeDegrees>
            </Position>
            <AltitudeMeters>375.79998779296875</AltitudeMeters>
            <DistanceMeters>NAN</DistanceMeters>
          </Trackpoint>
          <Trackpoint>
            <Time>2022-09-22T14:06:42.000Z</Time>
            <Position>
              <LatitudeDegrees>49.442384876310825347900390625</LatitudeDegrees>
              <LongitudeDegrees>20.71497716009616851806640625</LongitudeDegrees>
            </Position>
            <AltitudeMeters>376</AltitudeMeters>
            <DistanceMeters>NAN</DistanceMeters>
          </Trackpoint>
          <Trackpoint>
            <Time>2022-09-22T14:06:45.000Z</Time>
            <Position>
              <LatitudeDegrees>49.4423612393438816070556640625</LatitudeDegrees>
              <LongitudeDegrees>20.714997947216033935546875</LongitudeDegrees>
            </Position>
            <AltitudeMeters>376.20001220703125</AltitudeMeters>
            <DistanceMeters>NAN</DistanceMeters>
          </Trackpoint>
          <Trackpoint>
            <Time>2022-09-22T14:06:49.000Z</Time>
            <Position>
              <LatitudeDegrees>49.4423612393438816070556640625</LatitudeDegrees>
              <LongitudeDegrees>20.714997947216033935546875</LongitudeDegrees>
            </Position>
            <AltitudeMeters>376.399993896484375</AltitudeMeters>
            <DistanceMeters>NAN</DistanceMeters>
          </Trackpoint>
          <Trackpoint>
            <Time>2022-09-22T14:06:58.000Z</Time>
            <Position>
              <LatitudeDegrees>49.44235897623002529144287109375</LatitudeDegrees>
              <LongitudeDegrees>20.71499199606478214263916015625</LongitudeDegrees>
            </Position>
            <AltitudeMeters>376.600006103515625</AltitudeMeters>
            <DistanceMeters>NAN</DistanceMeters>
          </Trackpoint>
          <Trackpoint>
            <Time>2022-09-22T14:07:02.000Z</Time>
            <Position>
              <LatitudeDegrees>49.44235897623002529144287109375</LatitudeDegrees>
              <LongitudeDegrees>20.71499199606478214263916015625</LongitudeDegrees>
            </Position>
            <AltitudeMeters>376.600006103515625</AltitudeMeters>
            <DistanceMeters>NAN</DistanceMeters>
          </Trackpoint>
          <Trackpoint>
            <Time>2022-09-22T14:07:10.000Z</Time>
            <Position>
              <LatitudeDegrees>49.44235897623002529144287109375</LatitudeDegrees>
              <LongitudeDegrees>20.71499199606478214263916015625</LongitudeDegrees>
            </Position>
            <AltitudeMeters>376.600006103515625</AltitudeMeters>
            <DistanceMeters>NAN</DistanceMeters>
          </Trackpoint>
          <Trackpoint>
            <Time>2022-09-22T14:07:11.000Z</Time>
            <Position>
              <LatitudeDegrees>49.44235897623002529144287109375</LatitudeDegrees>
              <LongitudeDegrees>20.71499199606478214263916015625</LongitudeDegrees>
            </Position>
            <AltitudeMeters>376.600006103515625</AltitudeMeters>
            <DistanceMeters>NAN</DistanceMeters>
          </Trackpoint>
          <Trackpoint>
            <Time>2022-09-22T14:07:17.000Z</Time>
            <Position>
              <LatitudeDegrees>49.44233735091984272003173828125</LatitudeDegrees>
              <LongitudeDegrees>20.715011022984981536865234375</LongitudeDegrees>
            </Position>
            <AltitudeMeters>376.79998779296875</AltitudeMeters>
            <DistanceMeters>NAN</DistanceMeters>
          </Trackpoint>
          <Trackpoint>
            <Time>2022-09-22T14:07:19.000Z</Time>
            <Position>
              <LatitudeDegrees>49.44232427515089511871337890625</LatitudeDegrees>
              <LongitudeDegrees>20.715017728507518768310546875</LongitudeDegrees>
            </Position>
            <AltitudeMeters>376.79998779296875</AltitudeMeters>
            <DistanceMeters>NAN</DistanceMeters>
          </Trackpoint>
          <Trackpoint>
            <Time>2022-09-22T14:07:23.000Z</Time>
            <Position>
              <LatitudeDegrees>49.44230332039296627044677734375</LatitudeDegrees>
              <LongitudeDegrees>20.71504346095025539398193359375</LongitudeDegrees>
            </Position>
            <AltitudeMeters>377</AltitudeMeters>
            <DistanceMeters>NAN</DistanceMeters>
          </Trackpoint>
          <Trackpoint>
            <Time>2022-09-22T14:07:25.000Z</Time>
            <Position>
              <LatitudeDegrees>49.44228387437760829925537109375</LatitudeDegrees>
              <LongitudeDegrees>20.71506374515593051910400390625</LongitudeDegrees>
            </Position>
            <AltitudeMeters>377.20001220703125</AltitudeMeters>
            <DistanceMeters>NAN</DistanceMeters>
          </Trackpoint>
          <Trackpoint>
            <Time>2022-09-22T14:07:26.000Z</Time>
            <Position>
              <LatitudeDegrees>49.44227389991283416748046875</LatitudeDegrees>
              <LongitudeDegrees>20.71507547982037067413330078125</LongitudeDegrees>
            </Position>
            <AltitudeMeters>377.399993896484375</AltitudeMeters>
            <DistanceMeters>NAN</DistanceMeters>
          </Trackpoint>
          <Trackpoint>
            <Time>2022-09-22T14:07:31.000Z</Time>
            <Position>
              <LatitudeDegrees>49.442222602665424346923828125</LatitudeDegrees>
              <LongitudeDegrees>20.71512107737362384796142578125</LongitudeDegrees>
            </Position>
            <AltitudeMeters>377.600006103515625</AltitudeMeters>
            <DistanceMeters>NAN</DistanceMeters>
          </Trackpoint>
          <Trackpoint>
            <Time>2022-09-22T14:07:32.000Z</Time>
            <Position>
              <LatitudeDegrees>49.4422180764377117156982421875</LatitudeDegrees>
              <LongitudeDegrees>20.71512443013489246368408203125</LongitudeDegrees>
            </Position>
            <AltitudeMeters>377.79998779296875</AltitudeMeters>
            <DistanceMeters>NAN</DistanceMeters>
          </Trackpoint>
          <Trackpoint>
            <Time>2022-09-22T14:07:38.000Z</Time>
            <Position>
              <LatitudeDegrees>49.44219904951751232147216796875</LatitudeDegrees>
              <LongitudeDegrees>20.71516432799398899078369140625</LongitudeDegrees>
            </Position>
            <AltitudeMeters>377.79998779296875</AltitudeMeters>
            <DistanceMeters>NAN</DistanceMeters>
          </Trackpoint>
          <Trackpoint>
            <Time>2022-09-22T14:07:43.000Z</Time>
            <Position>
              <LatitudeDegrees>49.44218002259731292724609375</LatitudeDegrees>
              <LongitudeDegrees>20.71520942263305187225341796875</LongitudeDegrees>
            </Position>
            <AltitudeMeters>378.20001220703125</AltitudeMeters>
            <DistanceMeters>NAN</DistanceMeters>
          </Trackpoint>
          <Trackpoint>
            <Time>2022-09-22T14:07:45.000Z</Time>
            <Position>
              <LatitudeDegrees>49.44215680472552776336669921875</LatitudeDegrees>
              <LongitudeDegrees>20.715243704617023468017578125</LongitudeDegrees>
            </Position>
            <AltitudeMeters>378.399993896484375</AltitudeMeters>
            <DistanceMeters>NAN</DistanceMeters>
          </Trackpoint>
          <Trackpoint>
            <Time>2022-09-22T14:07:50.000Z</Time>
            <Position>
              <LatitudeDegrees>49.442126713693141937255859375</LatitudeDegrees>
              <LongitudeDegrees>20.715309418737888336181640625</LongitudeDegrees>
            </Position>
            <AltitudeMeters>378.600006103515625</AltitudeMeters>
            <DistanceMeters>NAN</DistanceMeters>
          </Trackpoint>
          <Trackpoint>
            <Time>2022-09-22T14:07:57.000Z</Time>
            <Position>
              <LatitudeDegrees>49.44209293462336063385009765625</LatitudeDegrees>
              <LongitudeDegrees>20.7153447903692722320556640625</LongitudeDegrees>
            </Position>
            <AltitudeMeters>379.20001220703125</AltitudeMeters>
            <DistanceMeters>NAN</DistanceMeters>
          </Trackpoint>
          <Trackpoint>
            <Time>2022-09-22T14:08:00.000Z</Time>
            <Position>
              <LatitudeDegrees>49.44209293462336063385009765625</LatitudeDegrees>
              <LongitudeDegrees>20.7153447903692722320556640625</LongitudeDegrees>
            </Position>
            <AltitudeMeters>379.399993896484375</AltitudeMeters>
            <DistanceMeters>NAN</DistanceMeters>
          </Trackpoint>
          <Trackpoint>
            <Time>2022-09-22T14:08:05.000Z</Time>
            <Position>
              <LatitudeDegrees>49.442084468901157379150390625</LatitudeDegrees>
              <LongitudeDegrees>20.71541360579431056976318359375</LongitudeDegrees>
            </Position>
            <AltitudeMeters>379.600006103515625</AltitudeMeters>
            <DistanceMeters>NAN</DistanceMeters>
          </Trackpoint>
          <Trackpoint>
            <Time>2022-09-22T14:08:12.000Z</Time>
            <Position>
              <LatitudeDegrees>49.4419964589178562164306640625</LatitudeDegrees>
              <LongitudeDegrees>20.7154996879398822784423828125</LongitudeDegrees>
            </Position>
            <AltitudeMeters>380.20001220703125</AltitudeMeters>
            <DistanceMeters>NAN</DistanceMeters>
          </Trackpoint>
          <Trackpoint>
            <Time>2022-09-22T14:08:18.000Z</Time>
            <Position>
              <LatitudeDegrees>49.44197340868413448333740234375</LatitudeDegrees>
              <LongitudeDegrees>20.71552072651684284210205078125</LongitudeDegrees>
            </Position>
            <AltitudeMeters>380.399993896484375</AltitudeMeters>
            <DistanceMeters>NAN</DistanceMeters>
          </Trackpoint>
          <Trackpoint>
            <Time>2022-09-22T14:08:19.000Z</Time>
            <Position>
              <LatitudeDegrees>49.44196988828480243682861328125</LatitudeDegrees>
              <LongitudeDegrees>20.7155223190784454345703125</LongitudeDegrees>
            </Position>
            <AltitudeMeters>380.399993896484375</AltitudeMeters>
            <DistanceMeters>NAN</DistanceMeters>
          </Trackpoint>
          <Trackpoint>
            <Time>2022-09-22T14:08:21.000Z</Time>
            <Position>
              <LatitudeDegrees>49.44197089411318302154541015625</LatitudeDegrees>
              <LongitudeDegrees>20.71555593051016330718994140625</LongitudeDegrees>
            </Position>
            <AltitudeMeters>380.600006103515625</AltitudeMeters>
            <DistanceMeters>NAN</DistanceMeters>
          </Trackpoint>
          <Trackpoint>
            <Time>2022-09-22T14:08:23.000Z</Time>
            <Position>
              <LatitudeDegrees>49.441973157227039337158203125</LatitudeDegrees>
              <LongitudeDegrees>20.715577639639377593994140625</LongitudeDegrees>
            </Position>
            <AltitudeMeters>380.79998779296875</AltitudeMeters>
            <DistanceMeters>NAN</DistanceMeters>
          </Trackpoint>
          <Trackpoint>
            <Time>2022-09-22T14:08:27.000Z</Time>
            <Position>
              <LatitudeDegrees>49.44191875867545604705810546875</LatitudeDegrees>
              <LongitudeDegrees>20.71567319333553314208984375</LongitudeDegrees>
            </Position>
            <AltitudeMeters>381</AltitudeMeters>
            <DistanceMeters>NAN</DistanceMeters>
          </Trackpoint>
          <Trackpoint>
            <Time>2022-09-22T14:08:28.000Z</Time>
            <Position>
              <LatitudeDegrees>49.44191180169582366943359375</LatitudeDegrees>
              <LongitudeDegrees>20.71568333543837070465087890625</LongitudeDegrees>
            </Position>
            <AltitudeMeters>381.20001220703125</AltitudeMeters>
            <DistanceMeters>NAN</DistanceMeters>
          </Trackpoint>
          <Trackpoint>
            <Time>2022-09-22T14:08:32.000Z</Time>
            <Position>
              <LatitudeDegrees>49.44190911948680877685546875</LatitudeDegrees>
              <LongitudeDegrees>20.71568191051483154296875</LongitudeDegrees>
            </Position>
            <AltitudeMeters>381.399993896484375</AltitudeMeters>
            <DistanceMeters>NAN</DistanceMeters>
          </Trackpoint>
          <Trackpoint>
            <Time>2022-09-22T14:08:35.000Z</Time>
            <Position>
              <LatitudeDegrees>49.44192345254123210906982421875</LatitudeDegrees>
              <LongitudeDegrees>20.71567855775356292724609375</LongitudeDegrees>
            </Position>
            <AltitudeMeters>381.600006103515625</AltitudeMeters>
            <DistanceMeters>NAN</DistanceMeters>
          </Trackpoint>
          <Trackpoint>
            <Time>2022-09-22T14:08:40.000Z</Time>
            <Position>
              <LatitudeDegrees>49.4419097900390625</LatitudeDegrees>
              <LongitudeDegrees>20.71568568237125873565673828125</LongitudeDegrees>
            </Position>
            <AltitudeMeters>381.600006103515625</AltitudeMeters>
            <DistanceMeters>NAN</DistanceMeters>
          </Trackpoint>
          <Trackpoint>
            <Time>2022-09-22T14:08:41.000Z</Time>
            <Position>
              <LatitudeDegrees>49.441896378993988037109375</LatitudeDegrees>
              <LongitudeDegrees>20.715686939656734466552734375</LongitudeDegrees>
            </Position>
            <AltitudeMeters>381.600006103515625</AltitudeMeters>
            <DistanceMeters>NAN</DistanceMeters>
          </Trackpoint>
          <Trackpoint>
            <Time>2022-09-22T14:08:43.000Z</Time>
            <Position>
              <LatitudeDegrees>49.4418727420270442962646484375</LatitudeDegrees>
              <LongitudeDegrees>20.71569389663636684417724609375</LongitudeDegrees>
            </Position>
            <AltitudeMeters>381.600006103515625</AltitudeMeters>
            <DistanceMeters>NAN</DistanceMeters>
          </Trackpoint>
          <Trackpoint>
            <Time>2022-09-22T14:08:46.000Z</Time>
            <Position>
              <LatitudeDegrees>49.44186762906610965728759765625</LatitudeDegrees>
              <LongitudeDegrees>20.71569808758795261383056640625</LongitudeDegrees>
            </Position>
            <AltitudeMeters>382</AltitudeMeters>
            <DistanceMeters>NAN</DistanceMeters>
          </Trackpoint>
          <Trackpoint>
            <Time>2022-09-22T14:08:50.000Z</Time>
            <Position>
              <LatitudeDegrees>49.44186511449515819549560546875</LatitudeDegrees>
              <LongitudeDegrees>20.715699680149555206298828125</LongitudeDegrees>
            </Position>
            <AltitudeMeters>382.20001220703125</AltitudeMeters>
            <DistanceMeters>NAN</DistanceMeters>
          </Trackpoint>
          <Trackpoint>
            <Time>2022-09-22T14:08:52.000Z</Time>
            <Position>
              <LatitudeDegrees>49.4418408907949924468994140625</LatitudeDegrees>
              <LongitudeDegrees>20.71571099571883678436279296875</LongitudeDegrees>
            </Position>
            <AltitudeMeters>382.399993896484375</AltitudeMeters>
            <DistanceMeters>NAN</DistanceMeters>
          </Trackpoint>
          <Trackpoint>
            <Time>2022-09-22T14:08:54.000Z</Time>
            <Position>
              <LatitudeDegrees>49.44181465543806552886962890625</LatitudeDegrees>
              <LongitudeDegrees>20.7157154381275177001953125</LongitudeDegrees>
            </Position>
            <AltitudeMeters>382.600006103515625</AltitudeMeters>
            <DistanceMeters>NAN</DistanceMeters>
          </Trackpoint>
          <Trackpoint>
            <Time>2022-09-22T14:08:57.000Z</Time>
            <Position>
              <LatitudeDegrees>49.441782049834728240966796875</LatitudeDegrees>
              <LongitudeDegrees>20.7157390750944614410400390625</LongitudeDegrees>
            </Position>
            <AltitudeMeters>382.79998779296875</AltitudeMeters>
            <DistanceMeters>NAN</DistanceMeters>
          </Trackpoint>
          <Trackpoint>
            <Time>2022-09-22T14:08:58.000Z</Time>
            <Position>
              <LatitudeDegrees>49.44178012199699878692626953125</LatitudeDegrees>
              <LongitudeDegrees>20.71574251167476177215576171875</LongitudeDegrees>
            </Position>
            <AltitudeMeters>383</AltitudeMeters>
            <DistanceMeters>NAN</DistanceMeters>
          </Trackpoint>
          <Trackpoint>
            <Time>2022-09-22T14:08:59.000Z</Time>
            <Position>
              <LatitudeDegrees>49.441776014864444732666015625</LatitudeDegrees>
              <LongitudeDegrees>20.71574603207409381866455078125</LongitudeDegrees>
            </Position>
            <AltitudeMeters>383</AltitudeMeters>
            <DistanceMeters>NAN</DistanceMeters>
          </Trackpoint>
          <Trackpoint>
            <Time>2022-09-22T14:09:02.000Z</Time>
            <Position>
              <LatitudeDegrees>49.4417543895542621612548828125</LatitudeDegrees>
              <LongitudeDegrees>20.715762712061405181884765625</LongitudeDegrees>
            </Position>
            <AltitudeMeters>383.20001220703125</AltitudeMeters>
            <DistanceMeters>NAN</DistanceMeters>
          </Trackpoint>
          <Trackpoint>
            <Time>2022-09-22T14:09:05.000Z</Time>
            <Position>
              <LatitudeDegrees>49.4417396374046802520751953125</LatitudeDegrees>
              <LongitudeDegrees>20.71578928269445896148681640625</LongitudeDegrees>
            </Position>
            <AltitudeMeters>383.600006103515625</AltitudeMeters>
            <DistanceMeters>NAN</DistanceMeters>
          </Trackpoint>
          <Trackpoint>
            <Time>2022-09-22T14:09:06.000Z</Time>
            <Position>
              <LatitudeDegrees>49.4417332671582698822021484375</LatitudeDegrees>
              <LongitudeDegrees>20.71581208147108554840087890625</LongitudeDegrees>
            </Position>
            <AltitudeMeters>383.600006103515625</AltitudeMeters>
            <DistanceMeters>NAN</DistanceMeters>
          </Trackpoint>
          <Trackpoint>
            <Time>2022-09-22T14:09:08.000Z</Time>
            <Position>
              <LatitudeDegrees>49.44173083640635013580322265625</LatitudeDegrees>
              <LongitudeDegrees>20.71582130156457424163818359375</LongitudeDegrees>
            </Position>
            <AltitudeMeters>383.79998779296875</AltitudeMeters>
            <DistanceMeters>NAN</DistanceMeters>
          </Trackpoint>
          <Trackpoint>
            <Time>2022-09-22T14:09:10.000Z</Time>
            <Position>
              <LatitudeDegrees>49.44172295741736888885498046875</LatitudeDegrees>
              <LongitudeDegrees>20.7158369757235050201416015625</LongitudeDegrees>
            </Position>
            <AltitudeMeters>384</AltitudeMeters>
            <DistanceMeters>NAN</DistanceMeters>
          </Trackpoint>
          <Trackpoint>
            <Time>2022-09-22T14:09:11.000Z</Time>
            <Position>
              <LatitudeDegrees>49.44172144867479801177978515625</LatitudeDegrees>
              <LongitudeDegrees>20.715837813913822174072265625</LongitudeDegrees>
            </Position>
            <AltitudeMeters>384</AltitudeMeters>
            <DistanceMeters>NAN</DistanceMeters>
          </Trackpoint>
          <Trackpoint>
            <Time>2022-09-22T14:09:12.000Z</Time>
            <Position>
              <LatitudeDegrees>49.4417238794267177581787109375</LatitudeDegrees>
              <LongitudeDegrees>20.71584376506507396697998046875</LongitudeDegrees>
            </Position>
            <AltitudeMeters>384</AltitudeMeters>
            <DistanceMeters>NAN</DistanceMeters>
          </Trackpoint>
          <Trackpoint>
            <Time>2022-09-22T14:09:14.000Z</Time>
            <Position>
              <LatitudeDegrees>49.4417379610240459442138671875</LatitudeDegrees>
              <LongitudeDegrees>20.7158602774143218994140625</LongitudeDegrees>
            </Position>
            <AltitudeMeters>384.20001220703125</AltitudeMeters>
            <DistanceMeters>NAN</DistanceMeters>
          </Trackpoint>
          <Trackpoint>
            <Time>2022-09-22T14:09:18.000Z</Time>
            <Position>
              <LatitudeDegrees>49.44168976508080959320068359375</LatitudeDegrees>
              <LongitudeDegrees>20.715961866080760955810546875</LongitudeDegrees>
            </Position>
            <AltitudeMeters>384.399993896484375</AltitudeMeters>
            <DistanceMeters>NAN</DistanceMeters>
          </Trackpoint>
          <Trackpoint>
            <Time>2022-09-22T14:09:20.000Z</Time>
            <Position>
              <LatitudeDegrees>49.441634528338909149169921875</LatitudeDegrees>
              <LongitudeDegrees>20.71602665819227695465087890625</LongitudeDegrees>
            </Position>
            <AltitudeMeters>384.600006103515625</AltitudeMeters>
            <DistanceMeters>NAN</DistanceMeters>
          </Trackpoint>
          <Trackpoint>
            <Time>2022-09-22T14:09:25.000Z</Time>
            <Position>
              <LatitudeDegrees>49.44161248393356800079345703125</LatitudeDegrees>
              <LongitudeDegrees>20.716030932962894439697265625</LongitudeDegrees>
            </Position>
            <AltitudeMeters>385</AltitudeMeters>
            <DistanceMeters>NAN</DistanceMeters>
          </Trackpoint>
          <Trackpoint>
            <Time>2022-09-22T14:09:26.000Z</Time>
            <Position>
              <LatitudeDegrees>49.44158800877630710601806640625</LatitudeDegrees>
              <LongitudeDegrees>20.71606974117457866668701171875</LongitudeDegrees>
            </Position>
            <AltitudeMeters>385</AltitudeMeters>
            <DistanceMeters>NAN</DistanceMeters>
          </Trackpoint>
          <Trackpoint>
            <Time>2022-09-22T14:09:28.000Z</Time>
            <Position>
              <LatitudeDegrees>49.4415609352290630340576171875</LatitudeDegrees>
              <LongitudeDegrees>20.71608767844736576080322265625</LongitudeDegrees>
            </Position>
            <AltitudeMeters>385.20001220703125</AltitudeMeters>
            <DistanceMeters>NAN</DistanceMeters>
          </Trackpoint>
          <Trackpoint>
            <Time>2022-09-22T14:09:30.000Z</Time>
            <Position>
              <LatitudeDegrees>49.441539309918880462646484375</LatitudeDegrees>
              <LongitudeDegrees>20.71608700789511203765869140625</LongitudeDegrees>
            </Position>
            <AltitudeMeters>385.399993896484375</AltitudeMeters>
            <DistanceMeters>NAN</DistanceMeters>
          </Trackpoint>
          <Trackpoint>
            <Time>2022-09-22T14:09:34.000Z</Time>
            <Position>
              <LatitudeDegrees>49.441492371261119842529296875</LatitudeDegrees>
              <LongitudeDegrees>20.71610980667173862457275390625</LongitudeDegrees>
            </Position>
            <AltitudeMeters>385.600006103515625</AltitudeMeters>
            <DistanceMeters>NAN</DistanceMeters>
          </Trackpoint>
          <Trackpoint>
            <Time>2022-09-22T14:09:36.000Z</Time>
            <Position>
              <LatitudeDegrees>49.4414777867496013641357421875</LatitudeDegrees>
              <LongitudeDegrees>20.7161204516887664794921875</LongitudeDegrees>
            </Position>
            <AltitudeMeters>385.79998779296875</AltitudeMeters>
            <DistanceMeters>NAN</DistanceMeters>
          </Trackpoint>
          <Trackpoint>
            <Time>2022-09-22T14:09:38.000Z</Time>
            <Position>
              <LatitudeDegrees>49.44146697409451007843017578125</LatitudeDegrees>
              <LongitudeDegrees>20.71612573228776454925537109375</LongitudeDegrees>
            </Position>
            <AltitudeMeters>386.20001220703125</AltitudeMeters>
            <DistanceMeters>NAN</DistanceMeters>
          </Trackpoint>
          <Trackpoint>
            <Time>2022-09-22T14:09:40.000Z</Time>
            <Position>
              <LatitudeDegrees>49.44145205430686473846435546875</LatitudeDegrees>
              <LongitudeDegrees>20.71614115498960018157958984375</LongitudeDegrees>
            </Position>
            <AltitudeMeters>386.20001220703125</AltitudeMeters>
            <DistanceMeters>NAN</DistanceMeters>
          </Trackpoint>
          <Trackpoint>
            <Time>2022-09-22T14:09:41.000Z</Time>
            <Position>
              <LatitudeDegrees>49.44144182838499546051025390625</LatitudeDegrees>
              <LongitudeDegrees>20.7161461003124713897705078125</LongitudeDegrees>
            </Position>
            <AltitudeMeters>386.20001220703125</AltitudeMeters>
            <DistanceMeters>NAN</DistanceMeters>
          </Trackpoint>
          <Trackpoint>
            <Time>2022-09-22T14:09:42.000Z</Time>
            <Position>
              <LatitudeDegrees>49.4414412416517734527587890625</LatitudeDegrees>
              <LongitudeDegrees>20.71613788604736328125</LongitudeDegrees>
            </Position>
            <AltitudeMeters>386.399993896484375</AltitudeMeters>
            <DistanceMeters>NAN</DistanceMeters>
          </Trackpoint>
          <Trackpoint>
            <Time>2022-09-22T14:09:44.000Z</Time>
            <Position>
              <LatitudeDegrees>49.44142221473157405853271484375</LatitudeDegrees>
              <LongitudeDegrees>20.7161353714764118194580078125</LongitudeDegrees>
            </Position>
            <AltitudeMeters>386.600006103515625</AltitudeMeters>
            <DistanceMeters>NAN</DistanceMeters>
          </Trackpoint>
          <Trackpoint>
            <Time>2022-09-22T14:09:45.000Z</Time>
            <Position>
              <LatitudeDegrees>49.44141131825745105743408203125</LatitudeDegrees>
              <LongitudeDegrees>20.71613159961998462677001953125</LongitudeDegrees>
            </Position>
            <AltitudeMeters>386.600006103515625</AltitudeMeters>
            <DistanceMeters>NAN</DistanceMeters>
          </Trackpoint>
          <Trackpoint>
            <Time>2022-09-22T14:09:46.000Z</Time>
            <Position>
              <LatitudeDegrees>49.44140226580202579498291015625</LatitudeDegrees>
              <LongitudeDegrees>20.71613042615354061126708984375</LongitudeDegrees>
            </Position>
            <AltitudeMeters>386.79998779296875</AltitudeMeters>
            <DistanceMeters>NAN</DistanceMeters>
          </Trackpoint>
          <Trackpoint>
            <Time>2022-09-22T14:09:54.000Z</Time>
            <Position>
              <LatitudeDegrees>49.44136739708483219146728515625</LatitudeDegrees>
              <LongitudeDegrees>20.716119110584259033203125</LongitudeDegrees>
            </Position>
            <AltitudeMeters>387.20001220703125</AltitudeMeters>
            <DistanceMeters>NAN</DistanceMeters>
          </Trackpoint>
          <Trackpoint>
            <Time>2022-09-22T14:09:59.000Z</Time>
            <Position>
              <LatitudeDegrees>49.44132884033024311065673828125</LatitudeDegrees>
              <LongitudeDegrees>20.71612137369811534881591796875</LongitudeDegrees>
            </Position>
            <AltitudeMeters>387.600006103515625</AltitudeMeters>
            <DistanceMeters>NAN</DistanceMeters>
          </Trackpoint>
          <Trackpoint>
            <Time>2022-09-22T14:10:01.000Z</Time>
            <Position>
              <LatitudeDegrees>49.44132884033024311065673828125</LatitudeDegrees>
              <LongitudeDegrees>20.71612137369811534881591796875</LongitudeDegrees>
            </Position>
            <AltitudeMeters>387.79998779296875</AltitudeMeters>
            <DistanceMeters>NAN</DistanceMeters>
          </Trackpoint>
          <Trackpoint>
            <Time>2022-09-22T14:10:09.000Z</Time>
            <Position>
              <LatitudeDegrees>49.44127075374126434326171875</LatitudeDegrees>
              <LongitudeDegrees>20.71613830514252185821533203125</LongitudeDegrees>
            </Position>
            <AltitudeMeters>388</AltitudeMeters>
            <DistanceMeters>NAN</DistanceMeters>
          </Trackpoint>
          <Trackpoint>
            <Time>2022-09-22T14:10:10.000Z</Time>
            <Position>
              <LatitudeDegrees>49.44124787114560604095458984375</LatitudeDegrees>
              <LongitudeDegrees>20.7161601819097995758056640625</LongitudeDegrees>
            </Position>
            <AltitudeMeters>388</AltitudeMeters>
            <DistanceMeters>NAN</DistanceMeters>
          </Trackpoint>
          <Trackpoint>
            <Time>2022-09-22T14:10:13.000Z</Time>
            <Position>
              <LatitudeDegrees>49.44119305349886417388916015625</LatitudeDegrees>
              <LongitudeDegrees>20.7161608524620532989501953125</LongitudeDegrees>
            </Position>
            <AltitudeMeters>388.20001220703125</AltitudeMeters>
            <DistanceMeters>NAN</DistanceMeters>
          </Trackpoint>
          <Trackpoint>
            <Time>2022-09-22T14:10:16.000Z</Time>
            <Position>
              <LatitudeDegrees>49.44113940931856632232666015625</LatitudeDegrees>
              <LongitudeDegrees>20.716140232980251312255859375</LongitudeDegrees>
            </Position>
            <AltitudeMeters>388.399993896484375</AltitudeMeters>
            <DistanceMeters>NAN</DistanceMeters>
          </Trackpoint>
          <Trackpoint>
            <Time>2022-09-22T14:10:19.000Z</Time>
            <Position>
              <LatitudeDegrees>49.441113509237766265869140625</LatitudeDegrees>
              <LongitudeDegrees>20.71613310836255550384521484375</LongitudeDegrees>
            </Position>
            <AltitudeMeters>388.79998779296875</AltitudeMeters>
            <DistanceMeters>NAN</DistanceMeters>
          </Trackpoint>
          <Trackpoint>
            <Time>2022-09-22T14:10:20.000Z</Time>
            <Position>
              <LatitudeDegrees>49.44110303185880184173583984375</LatitudeDegrees>
              <LongitudeDegrees>20.71613210253417491912841796875</LongitudeDegrees>
            </Position>
            <AltitudeMeters>388.79998779296875</AltitudeMeters>
            <DistanceMeters>NAN</DistanceMeters>
          </Trackpoint>
          <Trackpoint>
            <Time>2022-09-22T14:10:29.000Z</Time>
            <Position>
              <LatitudeDegrees>49.4410407543182373046875</LatitudeDegrees>
              <LongitudeDegrees>20.71601760573685169219970703125</LongitudeDegrees>
            </Position>
            <AltitudeMeters>389.79998779296875</AltitudeMeters>
            <DistanceMeters>NAN</DistanceMeters>
          </Trackpoint>
          <Trackpoint>
            <Time>2022-09-22T14:10:30.000Z</Time>
            <Position>
              <LatitudeDegrees>49.44104083813726902008056640625</LatitudeDegrees>
              <LongitudeDegrees>20.716001093387603759765625</LongitudeDegrees>
            </Position>
            <AltitudeMeters>389.79998779296875</AltitudeMeters>
            <DistanceMeters>NAN</DistanceMeters>
          </Trackpoint>
          <Trackpoint>
            <Time>2022-09-22T14:10:36.000Z</Time>
            <Position>
              <LatitudeDegrees>49.44102943874895572662353515625</LatitudeDegrees>
              <LongitudeDegrees>20.71591819636523723602294921875</LongitudeDegrees>
            </Position>
            <AltitudeMeters>390.20001220703125</AltitudeMeters>
            <DistanceMeters>NAN</DistanceMeters>
          </Trackpoint>
          <Trackpoint>
            <Time>2022-09-22T14:10:44.000Z</Time>
            <Position>
              <LatitudeDegrees>49.4409986771643161773681640625</LatitudeDegrees>
              <LongitudeDegrees>20.7158374786376953125</LongitudeDegrees>
            </Position>
            <AltitudeMeters>390.600006103515625</AltitudeMeters>
            <DistanceMeters>NAN</DistanceMeters>
          </Trackpoint>
          <Trackpoint>
            <Time>2022-09-22T14:10:46.000Z</Time>
            <Position>
              <LatitudeDegrees>49.44099314510822296142578125</LatitudeDegrees>
              <LongitudeDegrees>20.71581065654754638671875</LongitudeDegrees>
            </Position>
            <AltitudeMeters>390.79998779296875</AltitudeMeters>
            <DistanceMeters>NAN</DistanceMeters>
          </Trackpoint>
          <Trackpoint>
            <Time>2022-09-22T14:10:49.000Z</Time>
            <Position>
              <LatitudeDegrees>49.440984092652797698974609375</LatitudeDegrees>
              <LongitudeDegrees>20.7157682441174983978271484375</LongitudeDegrees>
            </Position>
            <AltitudeMeters>391</AltitudeMeters>
            <DistanceMeters>NAN</DistanceMeters>
          </Trackpoint>
          <Trackpoint>
            <Time>2022-09-22T14:10:50.000Z</Time>
            <Position>
              <LatitudeDegrees>49.44097864441573619842529296875</LatitudeDegrees>
              <LongitudeDegrees>20.71575659327208995819091796875</LongitudeDegrees>
            </Position>
            <AltitudeMeters>391.20001220703125</AltitudeMeters>
            <DistanceMeters>NAN</DistanceMeters>
          </Trackpoint>
          <Trackpoint>
            <Time>2022-09-22T14:10:54.000Z</Time>
            <Position>
              <LatitudeDegrees>49.44097545929253101348876953125</LatitudeDegrees>
              <LongitudeDegrees>20.71568819694221019744873046875</LongitudeDegrees>
            </Position>
            <AltitudeMeters>391.399993896484375</AltitudeMeters>
            <DistanceMeters>NAN</DistanceMeters>
          </Trackpoint>
          <Trackpoint>
            <Time>2022-09-22T14:11:01.000Z</Time>
            <Position>
              <LatitudeDegrees>49.44095157086849212646484375</LatitudeDegrees>
              <LongitudeDegrees>20.71559079922735691070556640625</LongitudeDegrees>
            </Position>
            <AltitudeMeters>391.79998779296875</AltitudeMeters>
            <DistanceMeters>NAN</DistanceMeters>
          </Trackpoint>
          <Trackpoint>
            <Time>2022-09-22T14:11:03.000Z</Time>
            <Position>
              <LatitudeDegrees>49.4409410096704959869384765625</LatitudeDegrees>
              <LongitudeDegrees>20.71557068265974521636962890625</LongitudeDegrees>
            </Position>
            <AltitudeMeters>391.79998779296875</AltitudeMeters>
            <DistanceMeters>NAN</DistanceMeters>
          </Trackpoint>
          <Trackpoint>
            <Time>2022-09-22T14:11:10.000Z</Time>
            <Position>
              <LatitudeDegrees>49.4408892095088958740234375</LatitudeDegrees>
              <LongitudeDegrees>20.71552894078195095062255859375</LongitudeDegrees>
            </Position>
            <AltitudeMeters>392.20001220703125</AltitudeMeters>
            <DistanceMeters>NAN</DistanceMeters>
          </Trackpoint>
          <Trackpoint>
            <Time>2022-09-22T14:11:11.000Z</Time>
            <Position>
              <LatitudeDegrees>49.4408860243856906890869140625</LatitudeDegrees>
              <LongitudeDegrees>20.7155187986791133880615234375</LongitudeDegrees>
            </Position>
            <AltitudeMeters>392.20001220703125</AltitudeMeters>
            <DistanceMeters>NAN</DistanceMeters>
          </Trackpoint>
          <Trackpoint>
            <Time>2022-09-22T14:11:16.000Z</Time>
            <Position>
              <LatitudeDegrees>49.44086498580873012542724609375</LatitudeDegrees>
              <LongitudeDegrees>20.7154738716781139373779296875</LongitudeDegrees>
            </Position>
            <AltitudeMeters>392.399993896484375</AltitudeMeters>
            <DistanceMeters>NAN</DistanceMeters>
          </Trackpoint>
          <Trackpoint>
            <Time>2022-09-22T14:11:19.000Z</Time>
            <Position>
              <LatitudeDegrees>49.44085392169654369354248046875</LatitudeDegrees>
              <LongitudeDegrees>20.71545015089213848114013671875</LongitudeDegrees>
            </Position>
            <AltitudeMeters>392.600006103515625</AltitudeMeters>
            <DistanceMeters>NAN</DistanceMeters>
          </Trackpoint>
          <Trackpoint>
            <Time>2022-09-22T14:11:21.000Z</Time>
            <Position>
              <LatitudeDegrees>49.44083313457667827606201171875</LatitudeDegrees>
              <LongitudeDegrees>20.715436153113842010498046875</LongitudeDegrees>
            </Position>
            <AltitudeMeters>392.79998779296875</AltitudeMeters>
            <DistanceMeters>NAN</DistanceMeters>
          </Trackpoint>
          <Trackpoint>
            <Time>2022-09-22T14:11:23.000Z</Time>
            <Position>
              <LatitudeDegrees>49.44081150926649570465087890625</LatitudeDegrees>
              <LongitudeDegrees>20.71542014367878437042236328125</LongitudeDegrees>
            </Position>
            <AltitudeMeters>393</AltitudeMeters>
            <DistanceMeters>NAN</DistanceMeters>
          </Trackpoint>
          <Trackpoint>
            <Time>2022-09-22T14:11:26.000Z</Time>
            <Position>
              <LatitudeDegrees>49.440764486789703369140625</LatitudeDegrees>
              <LongitudeDegrees>20.71540438570082187652587890625</LongitudeDegrees>
            </Position>
            <AltitudeMeters>393.20001220703125</AltitudeMeters>
            <DistanceMeters>NAN</DistanceMeters>
          </Trackpoint>
          <Trackpoint>
            <Time>2022-09-22T14:11:27.000Z</Time>
            <Position>
              <LatitudeDegrees>49.44074814207851886749267578125</LatitudeDegrees>
              <LongitudeDegrees>20.71539985947310924530029296875</LongitudeDegrees>
            </Position>
            <AltitudeMeters>393.20001220703125</AltitudeMeters>
            <DistanceMeters>NAN</DistanceMeters>
          </Trackpoint>
          <Trackpoint>
            <Time>2022-09-22T14:11:30.000Z</Time>
            <Position>
              <LatitudeDegrees>49.44071285426616668701171875</LatitudeDegrees>
              <LongitudeDegrees>20.71537320502102375030517578125</LongitudeDegrees>
            </Position>
            <AltitudeMeters>393.20001220703125</AltitudeMeters>
            <DistanceMeters>NAN</DistanceMeters>
          </Trackpoint>
          <Trackpoint>
            <Time>2022-09-22T14:11:33.000Z</Time>
            <Position>
              <LatitudeDegrees>49.44066868163645267486572265625</LatitudeDegrees>
              <LongitudeDegrees>20.71533431299030780792236328125</LongitudeDegrees>
            </Position>
            <AltitudeMeters>393.399993896484375</AltitudeMeters>
            <DistanceMeters>NAN</DistanceMeters>
          </Trackpoint>
          <Trackpoint>
            <Time>2022-09-22T14:11:34.000Z</Time>
            <Position>
              <LatitudeDegrees>49.44066499359905719757080078125</LatitudeDegrees>
              <LongitudeDegrees>20.715331546962261199951171875</LongitudeDegrees>
            </Position>
            <AltitudeMeters>393.600006103515625</AltitudeMeters>
            <DistanceMeters>NAN</DistanceMeters>
          </Trackpoint>
          <Trackpoint>
            <Time>2022-09-22T14:11:36.000Z</Time>
            <Position>
              <LatitudeDegrees>49.44066264666616916656494140625</LatitudeDegrees>
              <LongitudeDegrees>20.715318806469440460205078125</LongitudeDegrees>
            </Position>
            <AltitudeMeters>393.600006103515625</AltitudeMeters>
            <DistanceMeters>NAN</DistanceMeters>
          </Trackpoint>
          <Trackpoint>
            <Time>2022-09-22T14:11:39.000Z</Time>
            <Position>
              <LatitudeDegrees>49.44064018316566944122314453125</LatitudeDegrees>
              <LongitudeDegrees>20.71528502739965915679931640625</LongitudeDegrees>
            </Position>
            <AltitudeMeters>393.79998779296875</AltitudeMeters>
            <DistanceMeters>NAN</DistanceMeters>
          </Trackpoint>
          <Trackpoint>
            <Time>2022-09-22T14:11:40.000Z</Time>
            <Position>
              <LatitudeDegrees>49.44064403884112834930419921875</LatitudeDegrees>
              <LongitudeDegrees>20.715276896953582763671875</LongitudeDegrees>
            </Position>
            <AltitudeMeters>394</AltitudeMeters>
            <DistanceMeters>NAN</DistanceMeters>
          </Trackpoint>
          <Trackpoint>
            <Time>2022-09-22T14:11:42.000Z</Time>
            <Position>
              <LatitudeDegrees>49.4406053982675075531005859375</LatitudeDegrees>
              <LongitudeDegrees>20.7152670063078403472900390625</LongitudeDegrees>
            </Position>
            <AltitudeMeters>394</AltitudeMeters>
            <DistanceMeters>NAN</DistanceMeters>
          </Trackpoint>
          <Trackpoint>
            <Time>2022-09-22T14:11:43.000Z</Time>
            <Position>
              <LatitudeDegrees>49.44060363806784152984619140625</LatitudeDegrees>
              <LongitudeDegrees>20.71526683866977691650390625</LongitudeDegrees>
            </Position>
            <AltitudeMeters>394</AltitudeMeters>
            <DistanceMeters>NAN</DistanceMeters>
          </Trackpoint>
          <Trackpoint>
            <Time>2022-09-22T14:11:47.000Z</Time>
            <Position>
              <LatitudeDegrees>49.44057480432093143463134765625</LatitudeDegrees>
              <LongitudeDegrees>20.71510531939566135406494140625</LongitudeDegrees>
            </Position>
            <AltitudeMeters>394.20001220703125</AltitudeMeters>
            <DistanceMeters>NAN</DistanceMeters>
          </Trackpoint>
          <Trackpoint>
            <Time>2022-09-22T14:11:48.000Z</Time>
            <Position>
              <LatitudeDegrees>49.44057731889188289642333984375</LatitudeDegrees>
              <LongitudeDegrees>20.7150757312774658203125</LongitudeDegrees>
            </Position>
            <AltitudeMeters>394.20001220703125</AltitudeMeters>
            <DistanceMeters>NAN</DistanceMeters>
          </Trackpoint>
          <Trackpoint>
            <Time>2022-09-22T14:11:53.000Z</Time>
            <Position>
              <LatitudeDegrees>49.4405715353786945343017578125</LatitudeDegrees>
              <LongitudeDegrees>20.71499685756862163543701171875</LongitudeDegrees>
            </Position>
            <AltitudeMeters>394.399993896484375</AltitudeMeters>
            <DistanceMeters>NAN</DistanceMeters>
          </Trackpoint>
          <Trackpoint>
            <Time>2022-09-22T14:11:55.000Z</Time>
            <Position>
              <LatitudeDegrees>49.440595842897891998291015625</LatitudeDegrees>
              <LongitudeDegrees>20.71495679207146167755126953125</LongitudeDegrees>
            </Position>
            <AltitudeMeters>394.399993896484375</AltitudeMeters>
            <DistanceMeters>NAN</DistanceMeters>
          </Trackpoint>
          <Trackpoint>
            <Time>2022-09-22T14:11:57.000Z</Time>
            <Position>
              <LatitudeDegrees>49.44059089757502079010009765625</LatitudeDegrees>
              <LongitudeDegrees>20.71485587395727634429931640625</LongitudeDegrees>
            </Position>
            <AltitudeMeters>394.399993896484375</AltitudeMeters>
            <DistanceMeters>NAN</DistanceMeters>
          </Trackpoint>
          <Trackpoint>
            <Time>2022-09-22T14:12:01.000Z</Time>
            <Position>
              <LatitudeDegrees>49.440608583390712738037109375</LatitudeDegrees>
              <LongitudeDegrees>20.71479753591120243072509765625</LongitudeDegrees>
            </Position>
            <AltitudeMeters>394.600006103515625</AltitudeMeters>
            <DistanceMeters>NAN</DistanceMeters>
          </Trackpoint>
          <Trackpoint>
            <Time>2022-09-22T14:12:02.000Z</Time>
            <Position>
              <LatitudeDegrees>49.440611265599727630615234375</LatitudeDegrees>
              <LongitudeDegrees>20.71479099802672863006591796875</LongitudeDegrees>
            </Position>
            <AltitudeMeters>394.600006103515625</AltitudeMeters>
            <DistanceMeters>NAN</DistanceMeters>
          </Trackpoint>
          <Trackpoint>
            <Time>2022-09-22T14:12:13.000Z</Time>
            <Position>
              <LatitudeDegrees>49.44054831750690937042236328125</LatitudeDegrees>
              <LongitudeDegrees>20.7146747410297393798828125</LongitudeDegrees>
            </Position>
            <AltitudeMeters>395</AltitudeMeters>
            <DistanceMeters>NAN</DistanceMeters>
          </Trackpoint>
          <Trackpoint>
            <Time>2022-09-22T14:12:18.000Z</Time>
            <Position>
              <LatitudeDegrees>49.44052116014063358306884765625</LatitudeDegrees>
              <LongitudeDegrees>20.7146319933235645294189453125</LongitudeDegrees>
            </Position>
            <AltitudeMeters>395.20001220703125</AltitudeMeters>
            <DistanceMeters>NAN</DistanceMeters>
          </Trackpoint>
          <Trackpoint>
            <Time>2022-09-22T14:12:23.000Z</Time>
            <Position>
              <LatitudeDegrees>49.44049970246851444244384765625</LatitudeDegrees>
              <LongitudeDegrees>20.71459150873124599456787109375</LongitudeDegrees>
            </Position>
            <AltitudeMeters>395.399993896484375</AltitudeMeters>
            <DistanceMeters>NAN</DistanceMeters>
          </Trackpoint>
          <Trackpoint>
            <Time>2022-09-22T14:12:24.000Z</Time>
            <Position>
              <LatitudeDegrees>49.44049316458404064178466796875</LatitudeDegrees>
              <LongitudeDegrees>20.71457139216363430023193359375</LongitudeDegrees>
            </Position>
            <AltitudeMeters>395.399993896484375</AltitudeMeters>
            <DistanceMeters>NAN</DistanceMeters>
          </Trackpoint>
          <Trackpoint>
            <Time>2022-09-22T14:12:32.000Z</Time>
            <Position>
              <LatitudeDegrees>49.44045745767652988433837890625</LatitudeDegrees>
              <LongitudeDegrees>20.714491344988346099853515625</LongitudeDegrees>
            </Position>
            <AltitudeMeters>395.600006103515625</AltitudeMeters>
            <DistanceMeters>NAN</DistanceMeters>
          </Trackpoint>
          <Trackpoint>
            <Time>2022-09-22T14:12:33.000Z</Time>
            <Position>
              <LatitudeDegrees>49.44045360200107097625732421875</LatitudeDegrees>
              <LongitudeDegrees>20.7144754193723201751708984375</LongitudeDegrees>
            </Position>
            <AltitudeMeters>395.79998779296875</AltitudeMeters>
            <DistanceMeters>NAN</DistanceMeters>
          </Trackpoint>
          <Trackpoint>
            <Time>2022-09-22T14:12:36.000Z</Time>
            <Position>
              <LatitudeDegrees>49.4404300488531589508056640625</LatitudeDegrees>
              <LongitudeDegrees>20.71443443186581134796142578125</LongitudeDegrees>
            </Position>
            <AltitudeMeters>395.79998779296875</AltitudeMeters>
            <DistanceMeters>NAN</DistanceMeters>
          </Trackpoint>
          <Trackpoint>
            <Time>2022-09-22T14:12:40.000Z</Time>
            <Position>
              <LatitudeDegrees>49.440429210662841796875</LatitudeDegrees>
              <LongitudeDegrees>20.714408867061138153076171875</LongitudeDegrees>
            </Position>
            <AltitudeMeters>396</AltitudeMeters>
            <DistanceMeters>NAN</DistanceMeters>
          </Trackpoint>
          <Trackpoint>
            <Time>2022-09-22T14:12:46.000Z</Time>
            <Position>
              <LatitudeDegrees>49.44037514738738536834716796875</LatitudeDegrees>
              <LongitudeDegrees>20.7143111340701580047607421875</LongitudeDegrees>
            </Position>
            <AltitudeMeters>396.399993896484375</AltitudeMeters>
            <DistanceMeters>NAN</DistanceMeters>
          </Trackpoint>
          <Trackpoint>
            <Time>2022-09-22T14:12:50.000Z</Time>
            <Position>
              <LatitudeDegrees>49.44034539163112640380859375</LatitudeDegrees>
              <LongitudeDegrees>20.71419856511056423187255859375</LongitudeDegrees>
            </Position>
            <AltitudeMeters>396.399993896484375</AltitudeMeters>
            <DistanceMeters>NAN</DistanceMeters>
          </Trackpoint>
          <Trackpoint>
            <Time>2022-09-22T14:12:53.000Z</Time>
            <Position>
              <LatitudeDegrees>49.4403355009853839874267578125</LatitudeDegrees>
              <LongitudeDegrees>20.71420602500438690185546875</LongitudeDegrees>
            </Position>
            <AltitudeMeters>396.600006103515625</AltitudeMeters>
            <DistanceMeters>NAN</DistanceMeters>
          </Trackpoint>
          <Trackpoint>
            <Time>2022-09-22T14:12:57.000Z</Time>
            <Position>
              <LatitudeDegrees>49.4403184019029140472412109375</LatitudeDegrees>
              <LongitudeDegrees>20.71415548212826251983642578125</LongitudeDegrees>
            </Position>
            <AltitudeMeters>396.600006103515625</AltitudeMeters>
            <DistanceMeters>NAN</DistanceMeters>
          </Trackpoint>
          <Trackpoint>
            <Time>2022-09-22T14:13:01.000Z</Time>
            <Position>
              <LatitudeDegrees>49.4403036497533321380615234375</LatitudeDegrees>
              <LongitudeDegrees>20.71411491371691226959228515625</LongitudeDegrees>
            </Position>
            <AltitudeMeters>396.600006103515625</AltitudeMeters>
            <DistanceMeters>NAN</DistanceMeters>
          </Trackpoint>
          <Trackpoint>
            <Time>2022-09-22T14:13:07.000Z</Time>
            <Position>
              <LatitudeDegrees>49.4402989558875560760498046875</LatitudeDegrees>
              <LongitudeDegrees>20.71409680880606174468994140625</LongitudeDegrees>
            </Position>
            <AltitudeMeters>396.600006103515625</AltitudeMeters>
            <DistanceMeters>NAN</DistanceMeters>
          </Trackpoint>
          <Trackpoint>
            <Time>2022-09-22T14:13:10.000Z</Time>
            <Position>
              <LatitudeDegrees>49.4402989558875560760498046875</LatitudeDegrees>
              <LongitudeDegrees>20.71409680880606174468994140625</LongitudeDegrees>
            </Position>
            <AltitudeMeters>396.600006103515625</AltitudeMeters>
            <DistanceMeters>NAN</DistanceMeters>
          </Trackpoint>
          <Trackpoint>
            <Time>2022-09-22T14:13:19.000Z</Time>
            <Position>
              <LatitudeDegrees>49.44025553762912750244140625</LatitudeDegrees>
              <LongitudeDegrees>20.71404048241674900054931640625</LongitudeDegrees>
            </Position>
            <AltitudeMeters>396.79998779296875</AltitudeMeters>
            <DistanceMeters>NAN</DistanceMeters>
          </Trackpoint>
          <Trackpoint>
            <Time>2022-09-22T14:13:26.000Z</Time>
            <Position>
              <LatitudeDegrees>49.4401956908404827117919921875</LatitudeDegrees>
              <LongitudeDegrees>20.71398549713194370269775390625</LongitudeDegrees>
            </Position>
            <AltitudeMeters>397</AltitudeMeters>
            <DistanceMeters>NAN</DistanceMeters>
          </Trackpoint>
          <Trackpoint>
            <Time>2022-09-22T14:13:34.000Z</Time>
            <Position>
              <LatitudeDegrees>49.44018445909023284912109375</LatitudeDegrees>
              <LongitudeDegrees>20.71399069391191005706787109375</LongitudeDegrees>
            </Position>
            <AltitudeMeters>397</AltitudeMeters>
            <DistanceMeters>NAN</DistanceMeters>
          </Trackpoint>
          <Trackpoint>
            <Time>2022-09-22T14:13:38.000Z</Time>
            <Position>
              <LatitudeDegrees>49.44014816544950008392333984375</LatitudeDegrees>
              <LongitudeDegrees>20.71397133171558380126953125</LongitudeDegrees>
            </Position>
            <AltitudeMeters>397</AltitudeMeters>
            <DistanceMeters>NAN</DistanceMeters>
          </Trackpoint>
          <Trackpoint>
            <Time>2022-09-22T14:13:39.000Z</Time>
            <Position>
              <LatitudeDegrees>49.44013374857604503631591796875</LatitudeDegrees>
              <LongitudeDegrees>20.71395968087017536163330078125</LongitudeDegrees>
            </Position>
            <AltitudeMeters>397</AltitudeMeters>
            <DistanceMeters>NAN</DistanceMeters>
          </Trackpoint>
          <Trackpoint>
            <Time>2022-09-22T14:13:46.000Z</Time>
            <Position>
              <LatitudeDegrees>49.44008194841444492340087890625</LatitudeDegrees>
              <LongitudeDegrees>20.71386496536433696746826171875</LongitudeDegrees>
            </Position>
            <AltitudeMeters>397.20001220703125</AltitudeMeters>
            <DistanceMeters>NAN</DistanceMeters>
          </Trackpoint>
          <Trackpoint>
            <Time>2022-09-22T14:13:48.000Z</Time>
            <Position>
              <LatitudeDegrees>49.4400622509419918060302734375</LatitudeDegrees>
              <LongitudeDegrees>20.71385742165148258209228515625</LongitudeDegrees>
            </Position>
            <AltitudeMeters>397</AltitudeMeters>
            <DistanceMeters>NAN</DistanceMeters>
          </Trackpoint>
          <Trackpoint>
            <Time>2022-09-22T14:13:55.000Z</Time>
            <Position>
              <LatitudeDegrees>49.439991675317287445068359375</LatitudeDegrees>
              <LongitudeDegrees>20.7137924619019031524658203125</LongitudeDegrees>
            </Position>
            <AltitudeMeters>397.20001220703125</AltitudeMeters>
            <DistanceMeters>NAN</DistanceMeters>
          </Trackpoint>
          <Trackpoint>
            <Time>2022-09-22T14:13:56.000Z</Time>
            <Position>
              <LatitudeDegrees>49.43998706527054309844970703125</LatitudeDegrees>
              <LongitudeDegrees>20.7137740217149257659912109375</LongitudeDegrees>
            </Position>
            <AltitudeMeters>397.20001220703125</AltitudeMeters>
            <DistanceMeters>NAN</DistanceMeters>
          </Trackpoint>
          <Trackpoint>
            <Time>2022-09-22T14:13:58.000Z</Time>
            <Position>
              <LatitudeDegrees>49.43997390568256378173828125</LatitudeDegrees>
              <LongitudeDegrees>20.71374460123479366302490234375</LongitudeDegrees>
            </Position>
            <AltitudeMeters>397.20001220703125</AltitudeMeters>
            <DistanceMeters>NAN</DistanceMeters>
          </Trackpoint>
          <Trackpoint>
            <Time>2022-09-22T14:14:01.000Z</Time>
            <Position>
              <LatitudeDegrees>49.43996451795101165771484375</LatitudeDegrees>
              <LongitudeDegrees>20.71369397453963756561279296875</LongitudeDegrees>
            </Position>
            <AltitudeMeters>397.20001220703125</AltitudeMeters>
            <DistanceMeters>NAN</DistanceMeters>
          </Trackpoint>
          <Trackpoint>
            <Time>2022-09-22T14:14:07.000Z</Time>
            <Position>
              <LatitudeDegrees>49.43992906250059604644775390625</LatitudeDegrees>
              <LongitudeDegrees>20.7136704213917255401611328125</LongitudeDegrees>
            </Position>
            <AltitudeMeters>397.20001220703125</AltitudeMeters>
            <DistanceMeters>NAN</DistanceMeters>
          </Trackpoint>
          <Trackpoint>
            <Time>2022-09-22T14:14:09.000Z</Time>
            <Position>
              <LatitudeDegrees>49.439909197390079498291015625</LatitudeDegrees>
              <LongitudeDegrees>20.71365751326084136962890625</LongitudeDegrees>
            </Position>
            <AltitudeMeters>397</AltitudeMeters>
            <DistanceMeters>NAN</DistanceMeters>
          </Trackpoint>
          <Trackpoint>
            <Time>2022-09-22T14:14:12.000Z</Time>
            <Position>
              <LatitudeDegrees>49.439891092479228973388671875</LatitudeDegrees>
              <LongitudeDegrees>20.7136281765997409820556640625</LongitudeDegrees>
            </Position>
            <AltitudeMeters>397</AltitudeMeters>
            <DistanceMeters>NAN</DistanceMeters>
          </Trackpoint>
          <Trackpoint>
            <Time>2022-09-22T14:14:14.000Z</Time>
            <Position>
              <LatitudeDegrees>49.43986703641712665557861328125</LatitudeDegrees>
              <LongitudeDegrees>20.71360764093697071075439453125</LongitudeDegrees>
            </Position>
            <AltitudeMeters>397</AltitudeMeters>
            <DistanceMeters>NAN</DistanceMeters>
          </Trackpoint>
          <Trackpoint>
            <Time>2022-09-22T14:14:16.000Z</Time>
            <Position>
              <LatitudeDegrees>49.439832754433155059814453125</LatitudeDegrees>
              <LongitudeDegrees>20.71358182467520236968994140625</LongitudeDegrees>
            </Position>
            <AltitudeMeters>396.79998779296875</AltitudeMeters>
            <DistanceMeters>NAN</DistanceMeters>
          </Trackpoint>
          <Trackpoint>
            <Time>2022-09-22T14:14:19.000Z</Time>
            <Position>
              <LatitudeDegrees>49.439794532954692840576171875</LatitudeDegrees>
              <LongitudeDegrees>20.71357243694365024566650390625</LongitudeDegrees>
            </Position>
            <AltitudeMeters>396.79998779296875</AltitudeMeters>
            <DistanceMeters>NAN</DistanceMeters>
          </Trackpoint>
          <Trackpoint>
            <Time>2022-09-22T14:14:22.000Z</Time>
            <Position>
              <LatitudeDegrees>49.4397558085620403289794921875</LatitudeDegrees>
              <LongitudeDegrees>20.71354913525283336639404296875</LongitudeDegrees>
            </Position>
            <AltitudeMeters>396.600006103515625</AltitudeMeters>
            <DistanceMeters>NAN</DistanceMeters>
          </Trackpoint>
          <Trackpoint>
            <Time>2022-09-22T14:14:24.000Z</Time>
            <Position>
              <LatitudeDegrees>49.439724124968051910400390625</LatitudeDegrees>
              <LongitudeDegrees>20.71353035978972911834716796875</LongitudeDegrees>
            </Position>
            <AltitudeMeters>396.600006103515625</AltitudeMeters>
            <DistanceMeters>NAN</DistanceMeters>
          </Trackpoint>
          <Trackpoint>
            <Time>2022-09-22T14:14:28.000Z</Time>
            <Position>
              <LatitudeDegrees>49.43965748883783817291259765625</LatitudeDegrees>
              <LongitudeDegrees>20.7135118357837200164794921875</LongitudeDegrees>
            </Position>
            <AltitudeMeters>396.399993896484375</AltitudeMeters>
            <DistanceMeters>NAN</DistanceMeters>
          </Trackpoint>
          <Trackpoint>
            <Time>2022-09-22T14:14:30.000Z</Time>
            <Position>
              <LatitudeDegrees>49.4396324269473552703857421875</LatitudeDegrees>
              <LongitudeDegrees>20.7135118357837200164794921875</LongitudeDegrees>
            </Position>
            <AltitudeMeters>396.399993896484375</AltitudeMeters>
            <DistanceMeters>NAN</DistanceMeters>
          </Trackpoint>
          <Trackpoint>
            <Time>2022-09-22T14:14:32.000Z</Time>
            <Position>
              <LatitudeDegrees>49.4396071135997772216796875</LatitudeDegrees>
              <LongitudeDegrees>20.71351007558405399322509765625</LongitudeDegrees>
            </Position>
            <AltitudeMeters>396.20001220703125</AltitudeMeters>
            <DistanceMeters>NAN</DistanceMeters>
          </Trackpoint>
          <Trackpoint>
            <Time>2022-09-22T14:14:34.000Z</Time>
            <Position>
              <LatitudeDegrees>49.4395791180431842803955078125</LatitudeDegrees>
              <LongitudeDegrees>20.71349984966218471527099609375</LongitudeDegrees>
            </Position>
            <AltitudeMeters>396</AltitudeMeters>
            <DistanceMeters>NAN</DistanceMeters>
          </Trackpoint>
          <Trackpoint>
            <Time>2022-09-22T14:14:42.000Z</Time>
            <Position>
              <LatitudeDegrees>49.43955187685787677764892578125</LatitudeDegrees>
              <LongitudeDegrees>20.7134994305670261383056640625</LongitudeDegrees>
            </Position>
            <AltitudeMeters>395.600006103515625</AltitudeMeters>
            <DistanceMeters>NAN</DistanceMeters>
          </Trackpoint>
          <Trackpoint>
            <Time>2022-09-22T14:14:50.000Z</Time>
            <Position>
              <LatitudeDegrees>49.4395507872104644775390625</LatitudeDegrees>
              <LongitudeDegrees>20.71350320242345333099365234375</LongitudeDegrees>
            </Position>
            <AltitudeMeters>395.600006103515625</AltitudeMeters>
            <DistanceMeters>NAN</DistanceMeters>
          </Trackpoint>
          <Trackpoint>
            <Time>2022-09-22T14:14:55.000Z</Time>
            <Position>
              <LatitudeDegrees>49.4395507872104644775390625</LatitudeDegrees>
              <LongitudeDegrees>20.71350320242345333099365234375</LongitudeDegrees>
            </Position>
            <AltitudeMeters>395.600006103515625</AltitudeMeters>
            <DistanceMeters>NAN</DistanceMeters>
          </Trackpoint>
          <Trackpoint>
            <Time>2022-09-22T14:15:02.000Z</Time>
            <Position>
              <LatitudeDegrees>49.4395502842962741851806640625</LatitudeDegrees>
              <LongitudeDegrees>20.7135041244328022003173828125</LongitudeDegrees>
            </Position>
            <AltitudeMeters>395.600006103515625</AltitudeMeters>
            <DistanceMeters>NAN</DistanceMeters>
          </Trackpoint>
          <Trackpoint>
            <Time>2022-09-22T14:15:05.000Z</Time>
            <Position>
              <LatitudeDegrees>49.43949102424085140228271484375</LatitudeDegrees>
              <LongitudeDegrees>20.7135393284261226654052734375</LongitudeDegrees>
            </Position>
            <AltitudeMeters>395.20001220703125</AltitudeMeters>
            <DistanceMeters>NAN</DistanceMeters>
          </Trackpoint>
          <Trackpoint>
            <Time>2022-09-22T14:15:07.000Z</Time>
            <Position>
              <LatitudeDegrees>49.4394166767597198486328125</LatitudeDegrees>
              <LongitudeDegrees>20.71356271393597126007080078125</LongitudeDegrees>
            </Position>
            <AltitudeMeters>394.79998779296875</AltitudeMeters>
            <DistanceMeters>NAN</DistanceMeters>
          </Trackpoint>
          <Trackpoint>
            <Time>2022-09-22T14:15:09.000Z</Time>
            <Position>
              <LatitudeDegrees>49.43931282497942447662353515625</LatitudeDegrees>
              <LongitudeDegrees>20.71358450688421726226806640625</LongitudeDegrees>
            </Position>
            <AltitudeMeters>394.20001220703125</AltitudeMeters>
            <DistanceMeters>NAN</DistanceMeters>
          </Trackpoint>
          <Trackpoint>
            <Time>2022-09-22T14:15:11.000Z</Time>
            <Position>
              <LatitudeDegrees>49.43921023048460483551025390625</LatitudeDegrees>
              <LongitudeDegrees>20.713597498834133148193359375</LongitudeDegrees>
            </Position>
            <AltitudeMeters>393.79998779296875</AltitudeMeters>
            <DistanceMeters>NAN</DistanceMeters>
          </Trackpoint>
          <Trackpoint>
            <Time>2022-09-22T14:15:14.000Z</Time>
            <Position>
              <LatitudeDegrees>49.43904175423085689544677734375</LatitudeDegrees>
              <LongitudeDegrees>20.7136167772114276885986328125</LongitudeDegrees>
            </Position>
            <AltitudeMeters>392.20001220703125</AltitudeMeters>
            <DistanceMeters>NAN</DistanceMeters>
          </Trackpoint>
          <Trackpoint>
            <Time>2022-09-22T14:15:15.000Z</Time>
            <Position>
              <LatitudeDegrees>49.4389846734702587127685546875</LatitudeDegrees>
              <LongitudeDegrees>20.71361233480274677276611328125</LongitudeDegrees>
            </Position>
            <AltitudeMeters>392</AltitudeMeters>
            <DistanceMeters>NAN</DistanceMeters>
          </Trackpoint>
          <Trackpoint>
            <Time>2022-09-22T14:15:19.000Z</Time>
            <Position>
              <LatitudeDegrees>49.438706226646900177001953125</LatitudeDegrees>
              <LongitudeDegrees>20.713566653430461883544921875</LongitudeDegrees>
            </Position>
            <AltitudeMeters>391</AltitudeMeters>
            <DistanceMeters>NAN</DistanceMeters>
          </Trackpoint>
          <Trackpoint>
            <Time>2022-09-22T14:15:21.000Z</Time>
            <Position>
              <LatitudeDegrees>49.43856180645525455474853515625</LatitudeDegrees>
              <LongitudeDegrees>20.71352851577103137969970703125</LongitudeDegrees>
            </Position>
            <AltitudeMeters>390.399993896484375</AltitudeMeters>
            <DistanceMeters>NAN</DistanceMeters>
          </Trackpoint>
          <Trackpoint>
            <Time>2022-09-22T14:15:23.000Z</Time>
            <Position>
              <LatitudeDegrees>49.43841109983623027801513671875</LatitudeDegrees>
              <LongitudeDegrees>20.71347906254231929779052734375</LongitudeDegrees>
            </Position>
            <AltitudeMeters>389.79998779296875</AltitudeMeters>
            <DistanceMeters>NAN</DistanceMeters>
          </Trackpoint>
          <Trackpoint>
            <Time>2022-09-22T14:15:26.000Z</Time>
            <Position>
              <LatitudeDegrees>49.43819417618215084075927734375</LatitudeDegrees>
              <LongitudeDegrees>20.713380910456180572509765625</LongitudeDegrees>
            </Position>
            <AltitudeMeters>388.600006103515625</AltitudeMeters>
            <DistanceMeters>NAN</DistanceMeters>
          </Trackpoint>
          <Trackpoint>
            <Time>2022-09-22T14:15:29.000Z</Time>
            <Position>
              <LatitudeDegrees>49.43796719424426555633544921875</LatitudeDegrees>
              <LongitudeDegrees>20.71323799900710582733154296875</LongitudeDegrees>
            </Position>
            <AltitudeMeters>387.20001220703125</AltitudeMeters>
            <DistanceMeters>NAN</DistanceMeters>
          </Trackpoint>
          <Trackpoint>
            <Time>2022-09-22T14:15:32.000Z</Time>
            <Position>
              <LatitudeDegrees>49.43773132748901844024658203125</LatitudeDegrees>
              <LongitudeDegrees>20.71308427490293979644775390625</LongitudeDegrees>
            </Position>
            <AltitudeMeters>385.79998779296875</AltitudeMeters>
            <DistanceMeters>NAN</DistanceMeters>
          </Trackpoint>
          <Trackpoint>
            <Time>2022-09-22T14:15:35.000Z</Time>
            <Position>
              <LatitudeDegrees>49.43748976103961467742919921875</LatitudeDegrees>
              <LongitudeDegrees>20.71291378699243068695068359375</LongitudeDegrees>
            </Position>
            <AltitudeMeters>384.600006103515625</AltitudeMeters>
            <DistanceMeters>NAN</DistanceMeters>
          </Trackpoint>
          <Trackpoint>
            <Time>2022-09-22T14:15:37.000Z</Time>
            <Position>
              <LatitudeDegrees>49.43732799030840396881103515625</LatitudeDegrees>
              <LongitudeDegrees>20.71280549280345439910888671875</LongitudeDegrees>
            </Position>
            <AltitudeMeters>383.399993896484375</AltitudeMeters>
            <DistanceMeters>NAN</DistanceMeters>
          </Trackpoint>
          <Trackpoint>
            <Time>2022-09-22T14:15:39.000Z</Time>
            <Position>
              <LatitudeDegrees>49.43715180270373821258544921875</LatitudeDegrees>
              <LongitudeDegrees>20.71270306594669818878173828125</LongitudeDegrees>
            </Position>
            <AltitudeMeters>383</AltitudeMeters>
            <DistanceMeters>NAN</DistanceMeters>
          </Trackpoint>
          <Trackpoint>
            <Time>2022-09-22T14:15:44.000Z</Time>
            <Position>
              <LatitudeDegrees>49.43682993762195110321044921875</LatitudeDegrees>
              <LongitudeDegrees>20.7125184126198291778564453125</LongitudeDegrees>
            </Position>
            <AltitudeMeters>382.399993896484375</AltitudeMeters>
            <DistanceMeters>NAN</DistanceMeters>
          </Trackpoint>
          <Trackpoint>
            <Time>2022-09-22T14:15:48.000Z</Time>
            <Position>
              <LatitudeDegrees>49.43664260208606719970703125</LatitudeDegrees>
              <LongitudeDegrees>20.71244088001549243927001953125</LongitudeDegrees>
            </Position>
            <AltitudeMeters>382.600006103515625</AltitudeMeters>
            <DistanceMeters>NAN</DistanceMeters>
          </Trackpoint>
          <Trackpoint>
            <Time>2022-09-22T14:15:52.000Z</Time>
            <Position>
              <LatitudeDegrees>49.43652994930744171142578125</LatitudeDegrees>
              <LongitudeDegrees>20.7123708911240100860595703125</LongitudeDegrees>
            </Position>
            <AltitudeMeters>382.399993896484375</AltitudeMeters>
            <DistanceMeters>NAN</DistanceMeters>
          </Trackpoint>
          <Trackpoint>
            <Time>2022-09-22T14:15:53.000Z</Time>
            <Position>
              <LatitudeDegrees>49.43651427514851093292236328125</LatitudeDegrees>
              <LongitudeDegrees>20.71232537738978862762451171875</LongitudeDegrees>
            </Position>
            <AltitudeMeters>382.20001220703125</AltitudeMeters>
            <DistanceMeters>NAN</DistanceMeters>
          </Trackpoint>
          <Trackpoint>
            <Time>2022-09-22T14:15:56.000Z</Time>
            <Position>
              <LatitudeDegrees>49.43645694293081760406494140625</LatitudeDegrees>
              <LongitudeDegrees>20.71222546510398387908935546875</LongitudeDegrees>
            </Position>
            <AltitudeMeters>382</AltitudeMeters>
            <DistanceMeters>NAN</DistanceMeters>
          </Trackpoint>
          <Trackpoint>
            <Time>2022-09-22T14:15:57.000Z</Time>
            <Position>
              <LatitudeDegrees>49.43642810918390750885009765625</LatitudeDegrees>
              <LongitudeDegrees>20.71222479455173015594482421875</LongitudeDegrees>
            </Position>
            <AltitudeMeters>382</AltitudeMeters>
            <DistanceMeters>NAN</DistanceMeters>
          </Trackpoint>
          <Trackpoint>
            <Time>2022-09-22T14:15:58.000Z</Time>
            <Position>
              <LatitudeDegrees>49.4364087469875812530517578125</LatitudeDegrees>
              <LongitudeDegrees>20.7122270576655864715576171875</LongitudeDegrees>
            </Position>
            <AltitudeMeters>382</AltitudeMeters>
            <DistanceMeters>NAN</DistanceMeters>
          </Trackpoint>
          <Trackpoint>
            <Time>2022-09-22T14:16:00.000Z</Time>
            <Position>
              <LatitudeDegrees>49.4364057295024394989013671875</LatitudeDegrees>
              <LongitudeDegrees>20.712224207818508148193359375</LongitudeDegrees>
            </Position>
            <AltitudeMeters>382</AltitudeMeters>
            <DistanceMeters>NAN</DistanceMeters>
          </Trackpoint>
          <Trackpoint>
            <Time>2022-09-22T14:16:04.000Z</Time>
            <Position>
              <LatitudeDegrees>49.43642802536487579345703125</LatitudeDegrees>
              <LongitudeDegrees>20.7122448273003101348876953125</LongitudeDegrees>
            </Position>
            <AltitudeMeters>382.20001220703125</AltitudeMeters>
            <DistanceMeters>NAN</DistanceMeters>
          </Trackpoint>
          <Trackpoint>
            <Time>2022-09-22T14:16:06.000Z</Time>
            <Position>
              <LatitudeDegrees>49.43642961792647838592529296875</LatitudeDegrees>
              <LongitudeDegrees>20.71225865744054317474365234375</LongitudeDegrees>
            </Position>
            <AltitudeMeters>382.399993896484375</AltitudeMeters>
            <DistanceMeters>NAN</DistanceMeters>
          </Trackpoint>
          <Trackpoint>
            <Time>2022-09-22T14:16:09.000Z</Time>
            <Position>
              <LatitudeDegrees>49.436433725059032440185546875</LatitudeDegrees>
              <LongitudeDegrees>20.71229889057576656341552734375</LongitudeDegrees>
            </Position>
            <AltitudeMeters>382.399993896484375</AltitudeMeters>
            <DistanceMeters>NAN</DistanceMeters>
          </Trackpoint>
          <Trackpoint>
            <Time>2022-09-22T14:16:11.000Z</Time>
            <Position>
              <LatitudeDegrees>49.4364074058830738067626953125</LatitudeDegrees>
              <LongitudeDegrees>20.71232638321816921234130859375</LongitudeDegrees>
            </Position>
            <AltitudeMeters>382.600006103515625</AltitudeMeters>
            <DistanceMeters>NAN</DistanceMeters>
          </Trackpoint>
          <Trackpoint>
            <Time>2022-09-22T14:16:14.000Z</Time>
            <Position>
              <LatitudeDegrees>49.4363581202924251556396484375</LatitudeDegrees>
              <LongitudeDegrees>20.71233107708394527435302734375</LongitudeDegrees>
            </Position>
            <AltitudeMeters>382.600006103515625</AltitudeMeters>
            <DistanceMeters>NAN</DistanceMeters>
          </Trackpoint>
          <Trackpoint>
            <Time>2022-09-22T14:16:17.000Z</Time>
            <Position>
              <LatitudeDegrees>49.43628243170678615570068359375</LatitudeDegrees>
              <LongitudeDegrees>20.71233191527426242828369140625</LongitudeDegrees>
            </Position>
            <AltitudeMeters>382.600006103515625</AltitudeMeters>
            <DistanceMeters>NAN</DistanceMeters>
          </Trackpoint>
          <Trackpoint>
            <Time>2022-09-22T14:16:24.000Z</Time>
            <Position>
              <LatitudeDegrees>49.43609400652348995208740234375</LatitudeDegrees>
              <LongitudeDegrees>20.7122914306819438934326171875</LongitudeDegrees>
            </Position>
            <AltitudeMeters>382.20001220703125</AltitudeMeters>
            <DistanceMeters>NAN</DistanceMeters>
          </Trackpoint>
          <Trackpoint>
            <Time>2022-09-22T14:16:32.000Z</Time>
            <Position>
              <LatitudeDegrees>49.435840956866741180419921875</LatitudeDegrees>
              <LongitudeDegrees>20.7122424803674221038818359375</LongitudeDegrees>
            </Position>
            <AltitudeMeters>381.79998779296875</AltitudeMeters>
            <DistanceMeters>NAN</DistanceMeters>
          </Trackpoint>
          <Trackpoint>
            <Time>2022-09-22T14:16:40.000Z</Time>
            <Position>
              <LatitudeDegrees>49.43555890582501888275146484375</LatitudeDegrees>
              <LongitudeDegrees>20.71218372322618961334228515625</LongitudeDegrees>
            </Position>
            <AltitudeMeters>381.600006103515625</AltitudeMeters>
            <DistanceMeters>NAN</DistanceMeters>
          </Trackpoint>
          <Trackpoint>
            <Time>2022-09-22T14:16:43.000Z</Time>
            <Position>
              <LatitudeDegrees>49.435451030731201171875</LatitudeDegrees>
              <LongitudeDegrees>20.71215321309864521026611328125</LongitudeDegrees>
            </Position>
            <AltitudeMeters>381.399993896484375</AltitudeMeters>
            <DistanceMeters>NAN</DistanceMeters>
          </Trackpoint>
          <Trackpoint>
            <Time>2022-09-22T14:16:45.000Z</Time>
            <Position>
              <LatitudeDegrees>49.43537433631718158721923828125</LatitudeDegrees>
              <LongitudeDegrees>20.7121346890926361083984375</LongitudeDegrees>
            </Position>
            <AltitudeMeters>381.20001220703125</AltitudeMeters>
            <DistanceMeters>NAN</DistanceMeters>
          </Trackpoint>
          <Trackpoint>
            <Time>2022-09-22T14:16:54.000Z</Time>
            <Position>
              <LatitudeDegrees>49.43503503687679767608642578125</LatitudeDegrees>
              <LongitudeDegrees>20.7120761834084987640380859375</LongitudeDegrees>
            </Position>
            <AltitudeMeters>380.79998779296875</AltitudeMeters>
            <DistanceMeters>NAN</DistanceMeters>
          </Trackpoint>
          <Trackpoint>
            <Time>2022-09-22T14:17:01.000Z</Time>
            <Position>
              <LatitudeDegrees>49.4347736053168773651123046875</LatitudeDegrees>
              <LongitudeDegrees>20.711929835379123687744140625</LongitudeDegrees>
            </Position>
            <AltitudeMeters>380.399993896484375</AltitudeMeters>
            <DistanceMeters>NAN</DistanceMeters>
          </Trackpoint>
          <Trackpoint>
            <Time>2022-09-22T14:17:02.000Z</Time>
            <Position>
              <LatitudeDegrees>49.4347397424280643463134765625</LatitudeDegrees>
              <LongitudeDegrees>20.711895637214183807373046875</LongitudeDegrees>
            </Position>
            <AltitudeMeters>380.399993896484375</AltitudeMeters>
            <DistanceMeters>NAN</DistanceMeters>
          </Trackpoint>
          <Trackpoint>
            <Time>2022-09-22T14:17:08.000Z</Time>
            <Position>
              <LatitudeDegrees>49.4345670752227306365966796875</LatitudeDegrees>
              <LongitudeDegrees>20.71167695336043834686279296875</LongitudeDegrees>
            </Position>
            <AltitudeMeters>380.20001220703125</AltitudeMeters>
            <DistanceMeters>NAN</DistanceMeters>
          </Trackpoint>
          <Trackpoint>
            <Time>2022-09-22T14:17:09.000Z</Time>
            <Position>
              <LatitudeDegrees>49.4345596991479396820068359375</LatitudeDegrees>
              <LongitudeDegrees>20.71165096946060657501220703125</LongitudeDegrees>
            </Position>
            <AltitudeMeters>380.20001220703125</AltitudeMeters>
            <DistanceMeters>NAN</DistanceMeters>
          </Trackpoint>
          <Trackpoint>
            <Time>2022-09-22T14:17:11.000Z</Time>
            <Position>
              <LatitudeDegrees>49.4345543347299098968505859375</LatitudeDegrees>
              <LongitudeDegrees>20.711629092693328857421875</LongitudeDegrees>
            </Position>
            <AltitudeMeters>380.20001220703125</AltitudeMeters>
            <DistanceMeters>NAN</DistanceMeters>
          </Trackpoint>
          <Trackpoint>
            <Time>2022-09-22T14:17:17.000Z</Time>
            <Position>
              <LatitudeDegrees>49.4345543347299098968505859375</LatitudeDegrees>
              <LongitudeDegrees>20.711629092693328857421875</LongitudeDegrees>
            </Position>
            <AltitudeMeters>380.20001220703125</AltitudeMeters>
            <DistanceMeters>NAN</DistanceMeters>
          </Trackpoint>
          <Trackpoint>
            <Time>2022-09-22T14:17:26.000Z</Time>
            <Position>
              <LatitudeDegrees>49.43455223925411701202392578125</LatitudeDegrees>
              <LongitudeDegrees>20.7116279192268848419189453125</LongitudeDegrees>
            </Position>
            <AltitudeMeters>380.20001220703125</AltitudeMeters>
            <DistanceMeters>NAN</DistanceMeters>
          </Trackpoint>
          <Trackpoint>
            <Time>2022-09-22T14:17:32.000Z</Time>
            <Position>
              <LatitudeDegrees>49.43444947712123394012451171875</LatitudeDegrees>
              <LongitudeDegrees>20.7115199603140354156494140625</LongitudeDegrees>
            </Position>
            <AltitudeMeters>380</AltitudeMeters>
            <DistanceMeters>NAN</DistanceMeters>
          </Trackpoint>
          <Trackpoint>
            <Time>2022-09-22T14:17:39.000Z</Time>
            <Position>
              <LatitudeDegrees>49.43431955762207508087158203125</LatitudeDegrees>
              <LongitudeDegrees>20.7113845087587833404541015625</LongitudeDegrees>
            </Position>
            <AltitudeMeters>379.79998779296875</AltitudeMeters>
            <DistanceMeters>NAN</DistanceMeters>
          </Trackpoint>
          <Trackpoint>
            <Time>2022-09-22T14:17:46.000Z</Time>
            <Position>
              <LatitudeDegrees>49.43416952155530452728271484375</LatitudeDegrees>
              <LongitudeDegrees>20.7112188823521137237548828125</LongitudeDegrees>
            </Position>
            <AltitudeMeters>379.79998779296875</AltitudeMeters>
            <DistanceMeters>NAN</DistanceMeters>
          </Trackpoint>
          <Trackpoint>
            <Time>2022-09-22T14:17:54.000Z</Time>
            <Position>
              <LatitudeDegrees>49.4340115226805210113525390625</LatitudeDegrees>
              <LongitudeDegrees>20.7110730372369289398193359375</LongitudeDegrees>
            </Position>
            <AltitudeMeters>379.79998779296875</AltitudeMeters>
            <DistanceMeters>NAN</DistanceMeters>
          </Trackpoint>
          <Trackpoint>
            <Time>2022-09-22T14:17:58.000Z</Time>
            <Position>
              <LatitudeDegrees>49.43392493762075901031494140625</LatitudeDegrees>
              <LongitudeDegrees>20.71098779328167438507080078125</LongitudeDegrees>
            </Position>
            <AltitudeMeters>379.79998779296875</AltitudeMeters>
            <DistanceMeters>NAN</DistanceMeters>
          </Trackpoint>
          <Trackpoint>
            <Time>2022-09-22T14:17:59.000Z</Time>
            <Position>
              <LatitudeDegrees>49.4339075870811939239501953125</LatitudeDegrees>
              <LongitudeDegrees>20.7109684310853481292724609375</LongitudeDegrees>
            </Position>
            <AltitudeMeters>379.79998779296875</AltitudeMeters>
            <DistanceMeters>NAN</DistanceMeters>
          </Trackpoint>
          <Trackpoint>
            <Time>2022-09-22T14:18:01.000Z</Time>
            <Position>
              <LatitudeDegrees>49.433862827718257904052734375</LatitudeDegrees>
              <LongitudeDegrees>20.7109399326145648956298828125</LongitudeDegrees>
            </Position>
            <AltitudeMeters>379.79998779296875</AltitudeMeters>
            <DistanceMeters>NAN</DistanceMeters>
          </Trackpoint>
          <Trackpoint>
            <Time>2022-09-22T14:18:08.000Z</Time>
            <Position>
              <LatitudeDegrees>49.4336762465536594390869140625</LatitudeDegrees>
              <LongitudeDegrees>20.71084764786064624786376953125</LongitudeDegrees>
            </Position>
            <AltitudeMeters>379.600006103515625</AltitudeMeters>
            <DistanceMeters>NAN</DistanceMeters>
          </Trackpoint>
          <Trackpoint>
            <Time>2022-09-22T14:18:12.000Z</Time>
            <Position>
              <LatitudeDegrees>49.433563090860843658447265625</LatitudeDegrees>
              <LongitudeDegrees>20.7108311355113983154296875</LongitudeDegrees>
            </Position>
            <AltitudeMeters>379.600006103515625</AltitudeMeters>
            <DistanceMeters>NAN</DistanceMeters>
          </Trackpoint>
          <Trackpoint>
            <Time>2022-09-22T14:18:15.000Z</Time>
            <Position>
              <LatitudeDegrees>49.4334757514297962188720703125</LatitudeDegrees>
              <LongitudeDegrees>20.71083909831941127777099609375</LongitudeDegrees>
            </Position>
            <AltitudeMeters>379.600006103515625</AltitudeMeters>
            <DistanceMeters>NAN</DistanceMeters>
          </Trackpoint>
          <Trackpoint>
            <Time>2022-09-22T14:18:21.000Z</Time>
            <Position>
              <LatitudeDegrees>49.43331372924149036407470703125</LatitudeDegrees>
              <LongitudeDegrees>20.7108883000910282135009765625</LongitudeDegrees>
            </Position>
            <AltitudeMeters>379.399993896484375</AltitudeMeters>
            <DistanceMeters>NAN</DistanceMeters>
          </Trackpoint>
          <Trackpoint>
            <Time>2022-09-22T14:18:22.000Z</Time>
            <Position>
              <LatitudeDegrees>49.43328321911394596099853515625</LatitudeDegrees>
              <LongitudeDegrees>20.7109033875167369842529296875</LongitudeDegrees>
            </Position>
            <AltitudeMeters>379.399993896484375</AltitudeMeters>
            <DistanceMeters>NAN</DistanceMeters>
          </Trackpoint>
          <Trackpoint>
            <Time>2022-09-22T14:18:32.000Z</Time>
            <Position>
              <LatitudeDegrees>49.43303461186587810516357421875</LatitudeDegrees>
              <LongitudeDegrees>20.7111213169991970062255859375</LongitudeDegrees>
            </Position>
            <AltitudeMeters>378.600006103515625</AltitudeMeters>
            <DistanceMeters>NAN</DistanceMeters>
          </Trackpoint>
          <Trackpoint>
            <Time>2022-09-22T14:18:35.000Z</Time>
            <Position>
              <LatitudeDegrees>49.4329815544188022613525390625</LatitudeDegrees>
              <LongitudeDegrees>20.711231790482997894287109375</LongitudeDegrees>
            </Position>
            <AltitudeMeters>378.399993896484375</AltitudeMeters>
            <DistanceMeters>NAN</DistanceMeters>
          </Trackpoint>
          <Trackpoint>
            <Time>2022-09-22T14:18:38.000Z</Time>
            <Position>
              <LatitudeDegrees>49.43294174037873744964599609375</LatitudeDegrees>
              <LongitudeDegrees>20.71134553290903568267822265625</LongitudeDegrees>
            </Position>
            <AltitudeMeters>378.399993896484375</AltitudeMeters>
            <DistanceMeters>NAN</DistanceMeters>
          </Trackpoint>
          <Trackpoint>
            <Time>2022-09-22T14:18:43.000Z</Time>
            <Position>
              <LatitudeDegrees>49.4328585080802440643310546875</LatitudeDegrees>
              <LongitudeDegrees>20.71160134859383106231689453125</LongitudeDegrees>
            </Position>
            <AltitudeMeters>378</AltitudeMeters>
            <DistanceMeters>NAN</DistanceMeters>
          </Trackpoint>
          <Trackpoint>
            <Time>2022-09-22T14:18:49.000Z</Time>
            <Position>
              <LatitudeDegrees>49.4328219629824161529541015625</LatitudeDegrees>
              <LongitudeDegrees>20.71194433607161045074462890625</LongitudeDegrees>
            </Position>
            <AltitudeMeters>378</AltitudeMeters>
            <DistanceMeters>NAN</DistanceMeters>
          </Trackpoint>
          <Trackpoint>
            <Time>2022-09-22T14:18:55.000Z</Time>
            <Position>
              <LatitudeDegrees>49.4328434206545352935791015625</LatitudeDegrees>
              <LongitudeDegrees>20.71228950284421443939208984375</LongitudeDegrees>
            </Position>
            <AltitudeMeters>378</AltitudeMeters>
            <DistanceMeters>NAN</DistanceMeters>
          </Trackpoint>
          <Trackpoint>
            <Time>2022-09-22T14:19:00.000Z</Time>
            <Position>
              <LatitudeDegrees>49.4328533113002777099609375</LatitudeDegrees>
              <LongitudeDegrees>20.71249938569962978363037109375</LongitudeDegrees>
            </Position>
            <AltitudeMeters>378.20001220703125</AltitudeMeters>
            <DistanceMeters>NAN</DistanceMeters>
          </Trackpoint>
          <Trackpoint>
            <Time>2022-09-22T14:19:01.000Z</Time>
            <Position>
              <LatitudeDegrees>49.43284903652966022491455078125</LatitudeDegrees>
              <LongitudeDegrees>20.7125143893063068389892578125</LongitudeDegrees>
            </Position>
            <AltitudeMeters>378.20001220703125</AltitudeMeters>
            <DistanceMeters>NAN</DistanceMeters>
          </Trackpoint>
          <Trackpoint>
            <Time>2022-09-22T14:19:03.000Z</Time>
            <Position>
              <LatitudeDegrees>49.4328561611473560333251953125</LatitudeDegrees>
              <LongitudeDegrees>20.71254297159612178802490234375</LongitudeDegrees>
            </Position>
            <AltitudeMeters>378.399993896484375</AltitudeMeters>
            <DistanceMeters>NAN</DistanceMeters>
          </Trackpoint>
          <Trackpoint>
            <Time>2022-09-22T14:19:05.000Z</Time>
            <Position>
              <LatitudeDegrees>49.4328491203486919403076171875</LatitudeDegrees>
              <LongitudeDegrees>20.71258521638810634613037109375</LongitudeDegrees>
            </Position>
            <AltitudeMeters>378.399993896484375</AltitudeMeters>
            <DistanceMeters>NAN</DistanceMeters>
          </Trackpoint>
          <Trackpoint>
            <Time>2022-09-22T14:19:08.000Z</Time>
            <Position>
              <LatitudeDegrees>49.43284459412097930908203125</LatitudeDegrees>
              <LongitudeDegrees>20.71267641149461269378662109375</LongitudeDegrees>
            </Position>
            <AltitudeMeters>378.399993896484375</AltitudeMeters>
            <DistanceMeters>NAN</DistanceMeters>
          </Trackpoint>
          <Trackpoint>
            <Time>2022-09-22T14:19:10.000Z</Time>
            <Position>
              <LatitudeDegrees>49.43281249143183231353759765625</LatitudeDegrees>
              <LongitudeDegrees>20.7127259485423564910888671875</LongitudeDegrees>
            </Position>
            <AltitudeMeters>378.399993896484375</AltitudeMeters>
            <DistanceMeters>NAN</DistanceMeters>
          </Trackpoint>
          <Trackpoint>
            <Time>2022-09-22T14:19:15.000Z</Time>
            <Position>
              <LatitudeDegrees>49.4327647984027862548828125</LatitudeDegrees>
              <LongitudeDegrees>20.712730474770069122314453125</LongitudeDegrees>
            </Position>
            <AltitudeMeters>378.79998779296875</AltitudeMeters>
            <DistanceMeters>NAN</DistanceMeters>
          </Trackpoint>
          <Trackpoint>
            <Time>2022-09-22T14:19:21.000Z</Time>
            <Position>
              <LatitudeDegrees>49.4327647984027862548828125</LatitudeDegrees>
              <LongitudeDegrees>20.712730474770069122314453125</LongitudeDegrees>
            </Position>
            <AltitudeMeters>379</AltitudeMeters>
            <DistanceMeters>NAN</DistanceMeters>
          </Trackpoint>
          <Trackpoint>
            <Time>2022-09-22T14:19:29.000Z</Time>
            <Position>
              <LatitudeDegrees>49.4327647984027862548828125</LatitudeDegrees>
              <LongitudeDegrees>20.712730474770069122314453125</LongitudeDegrees>
            </Position>
            <AltitudeMeters>378.79998779296875</AltitudeMeters>
            <DistanceMeters>NAN</DistanceMeters>
          </Trackpoint>
          <Trackpoint>
            <Time>2022-09-22T14:19:36.000Z</Time>
            <Position>
              <LatitudeDegrees>49.4327647984027862548828125</LatitudeDegrees>
              <LongitudeDegrees>20.712730474770069122314453125</LongitudeDegrees>
            </Position>
            <AltitudeMeters>378.79998779296875</AltitudeMeters>
            <DistanceMeters>NAN</DistanceMeters>
          </Trackpoint>
          <Trackpoint>
            <Time>2022-09-22T14:19:41.000Z</Time>
            <Position>
              <LatitudeDegrees>49.4327647984027862548828125</LatitudeDegrees>
              <LongitudeDegrees>20.712730474770069122314453125</LongitudeDegrees>
            </Position>
            <AltitudeMeters>378.600006103515625</AltitudeMeters>
            <DistanceMeters>NAN</DistanceMeters>
          </Trackpoint>
          <Trackpoint>
            <Time>2022-09-22T14:20:07.000Z</Time>
            <Position>
              <LatitudeDegrees>49.43271324969828128814697265625</LatitudeDegrees>
              <LongitudeDegrees>20.712733827531337738037109375</LongitudeDegrees>
            </Position>
            <AltitudeMeters>378.79998779296875</AltitudeMeters>
            <DistanceMeters>NAN</DistanceMeters>
          </Trackpoint>
          <Trackpoint>
            <Time>2022-09-22T14:20:08.000Z</Time>
            <Position>
              <LatitudeDegrees>49.4326896965503692626953125</LatitudeDegrees>
              <LongitudeDegrees>20.71272552944719791412353515625</LongitudeDegrees>
            </Position>
            <AltitudeMeters>378.79998779296875</AltitudeMeters>
            <DistanceMeters>NAN</DistanceMeters>
          </Trackpoint>
          <Trackpoint>
            <Time>2022-09-22T14:20:14.000Z</Time>
            <Position>
              <LatitudeDegrees>49.432521052658557891845703125</LatitudeDegrees>
              <LongitudeDegrees>20.71272100321948528289794921875</LongitudeDegrees>
            </Position>
            <AltitudeMeters>378.79998779296875</AltitudeMeters>
            <DistanceMeters>NAN</DistanceMeters>
          </Trackpoint>
          <Trackpoint>
            <Time>2022-09-22T14:20:23.000Z</Time>
            <Position>
              <LatitudeDegrees>49.4322989322245121002197265625</LatitudeDegrees>
              <LongitudeDegrees>20.71272569708526134490966796875</LongitudeDegrees>
            </Position>
            <AltitudeMeters>378.79998779296875</AltitudeMeters>
            <DistanceMeters>NAN</DistanceMeters>
          </Trackpoint>
          <Trackpoint>
            <Time>2022-09-22T14:20:29.000Z</Time>
            <Position>
              <LatitudeDegrees>49.43219876848161220550537109375</LatitudeDegrees>
              <LongitudeDegrees>20.71273525245487689971923828125</LongitudeDegrees>
            </Position>
            <AltitudeMeters>378.79998779296875</AltitudeMeters>
            <DistanceMeters>NAN</DistanceMeters>
          </Trackpoint>
          <Trackpoint>
            <Time>2022-09-22T14:20:35.000Z</Time>
            <Position>
              <LatitudeDegrees>49.4321011193096637725830078125</LatitudeDegrees>
              <LongitudeDegrees>20.7127336598932743072509765625</LongitudeDegrees>
            </Position>
            <AltitudeMeters>378.600006103515625</AltitudeMeters>
            <DistanceMeters>NAN</DistanceMeters>
          </Trackpoint>
          <Trackpoint>
            <Time>2022-09-22T14:20:40.000Z</Time>
            <Position>
              <LatitudeDegrees>49.431975223124027252197265625</LatitudeDegrees>
              <LongitudeDegrees>20.71272787638008594512939453125</LongitudeDegrees>
            </Position>
            <AltitudeMeters>378.600006103515625</AltitudeMeters>
            <DistanceMeters>NAN</DistanceMeters>
          </Trackpoint>
          <Trackpoint>
            <Time>2022-09-22T14:20:47.000Z</Time>
            <Position>
              <LatitudeDegrees>49.43182828836143016815185546875</LatitudeDegrees>
              <LongitudeDegrees>20.7127403654158115386962890625</LongitudeDegrees>
            </Position>
            <AltitudeMeters>378.600006103515625</AltitudeMeters>
            <DistanceMeters>NAN</DistanceMeters>
          </Trackpoint>
          <Trackpoint>
            <Time>2022-09-22T14:20:52.000Z</Time>
            <Position>
              <LatitudeDegrees>49.4317185692489147186279296875</LatitudeDegrees>
              <LongitudeDegrees>20.7127650082111358642578125</LongitudeDegrees>
            </Position>
            <AltitudeMeters>378.600006103515625</AltitudeMeters>
            <DistanceMeters>NAN</DistanceMeters>
          </Trackpoint>
          <Trackpoint>
            <Time>2022-09-22T14:20:53.000Z</Time>
            <Position>
              <LatitudeDegrees>49.4317018054425716400146484375</LatitudeDegrees>
              <LongitudeDegrees>20.71275553666055202484130859375</LongitudeDegrees>
            </Position>
            <AltitudeMeters>378.79998779296875</AltitudeMeters>
            <DistanceMeters>NAN</DistanceMeters>
          </Trackpoint>
          <Trackpoint>
            <Time>2022-09-22T14:21:00.000Z</Time>
            <Position>
              <LatitudeDegrees>49.43157725036144256591796875</LatitudeDegrees>
              <LongitudeDegrees>20.712716393172740936279296875</LongitudeDegrees>
            </Position>
            <AltitudeMeters>379</AltitudeMeters>
            <DistanceMeters>NAN</DistanceMeters>
          </Trackpoint>
          <Trackpoint>
            <Time>2022-09-22T14:21:01.000Z</Time>
            <Position>
              <LatitudeDegrees>49.43156023509800434112548828125</LatitudeDegrees>
              <LongitudeDegrees>20.71271815337240695953369140625</LongitudeDegrees>
            </Position>
            <AltitudeMeters>379</AltitudeMeters>
            <DistanceMeters>NAN</DistanceMeters>
          </Trackpoint>
          <Trackpoint>
            <Time>2022-09-22T14:21:04.000Z</Time>
            <Position>
              <LatitudeDegrees>49.43150575272738933563232421875</LatitudeDegrees>
              <LongitudeDegrees>20.71273609064519405364990234375</LongitudeDegrees>
            </Position>
            <AltitudeMeters>378.79998779296875</AltitudeMeters>
            <DistanceMeters>NAN</DistanceMeters>
          </Trackpoint>
          <Trackpoint>
            <Time>2022-09-22T14:21:05.000Z</Time>
            <Position>
              <LatitudeDegrees>49.4314865581691265106201171875</LatitudeDegrees>
              <LongitudeDegrees>20.712735168635845184326171875</LongitudeDegrees>
            </Position>
            <AltitudeMeters>378.79998779296875</AltitudeMeters>
            <DistanceMeters>NAN</DistanceMeters>
          </Trackpoint>
          <Trackpoint>
            <Time>2022-09-22T14:21:08.000Z</Time>
            <Position>
              <LatitudeDegrees>49.431450851261615753173828125</LatitudeDegrees>
              <LongitudeDegrees>20.71275587193667888641357421875</LongitudeDegrees>
            </Position>
            <AltitudeMeters>378.79998779296875</AltitudeMeters>
            <DistanceMeters>NAN</DistanceMeters>
          </Trackpoint>
          <Trackpoint>
            <Time>2022-09-22T14:21:10.000Z</Time>
            <Position>
              <LatitudeDegrees>49.4314558804035186767578125</LatitudeDegrees>
              <LongitudeDegrees>20.71278202347457408905029296875</LongitudeDegrees>
            </Position>
            <AltitudeMeters>378.600006103515625</AltitudeMeters>
            <DistanceMeters>NAN</DistanceMeters>
          </Trackpoint>
          <Trackpoint>
            <Time>2022-09-22T14:21:13.000Z</Time>
            <Position>
              <LatitudeDegrees>49.431477673351764678955078125</LatitudeDegrees>
              <LongitudeDegrees>20.71277548559010028839111328125</LongitudeDegrees>
            </Position>
            <AltitudeMeters>378.399993896484375</AltitudeMeters>
            <DistanceMeters>NAN</DistanceMeters>
          </Trackpoint>
          <Trackpoint>
            <Time>2022-09-22T14:21:15.000Z</Time>
            <Position>
              <LatitudeDegrees>49.43149217404425144195556640625</LatitudeDegrees>
              <LongitudeDegrees>20.71275536902248859405517578125</LongitudeDegrees>
            </Position>
            <AltitudeMeters>378.399993896484375</AltitudeMeters>
            <DistanceMeters>NAN</DistanceMeters>
          </Trackpoint>
          <Trackpoint>
            <Time>2022-09-22T14:21:17.000Z</Time>
            <Position>
              <LatitudeDegrees>49.4315100274980068206787109375</LatitudeDegrees>
              <LongitudeDegrees>20.71272812783718109130859375</LongitudeDegrees>
            </Position>
            <AltitudeMeters>378.399993896484375</AltitudeMeters>
            <DistanceMeters>NAN</DistanceMeters>
          </Trackpoint>
          <Trackpoint>
            <Time>2022-09-22T14:21:20.000Z</Time>
            <Position>
              <LatitudeDegrees>49.43154850043356418609619140625</LatitudeDegrees>
              <LongitudeDegrees>20.71269954554736614227294921875</LongitudeDegrees>
            </Position>
            <AltitudeMeters>378.399993896484375</AltitudeMeters>
            <DistanceMeters>NAN</DistanceMeters>
          </Trackpoint>
          <Trackpoint>
            <Time>2022-09-22T14:21:23.000Z</Time>
            <Position>
              <LatitudeDegrees>49.431594349443912506103515625</LatitudeDegrees>
              <LongitudeDegrees>20.7126803509891033172607421875</LongitudeDegrees>
            </Position>
            <AltitudeMeters>378.399993896484375</AltitudeMeters>
            <DistanceMeters>NAN</DistanceMeters>
          </Trackpoint>
          <Trackpoint>
            <Time>2022-09-22T14:21:26.000Z</Time>
            <Position>
              <LatitudeDegrees>49.431640617549419403076171875</LatitudeDegrees>
              <LongitudeDegrees>20.7126518525183200836181640625</LongitudeDegrees>
            </Position>
            <AltitudeMeters>378.399993896484375</AltitudeMeters>
            <DistanceMeters>NAN</DistanceMeters>
          </Trackpoint>
          <Trackpoint>
            <Time>2022-09-22T14:21:27.000Z</Time>
            <Position>
              <LatitudeDegrees>49.43165210075676441192626953125</LatitudeDegrees>
              <LongitudeDegrees>20.71262276731431484222412109375</LongitudeDegrees>
            </Position>
            <AltitudeMeters>378.600006103515625</AltitudeMeters>
            <DistanceMeters>NAN</DistanceMeters>
          </Trackpoint>
          <Trackpoint>
            <Time>2022-09-22T14:21:28.000Z</Time>
            <Position>
              <LatitudeDegrees>49.43165210075676441192626953125</LatitudeDegrees>
              <LongitudeDegrees>20.71259778924286365509033203125</LongitudeDegrees>
            </Position>
            <AltitudeMeters>378.600006103515625</AltitudeMeters>
            <DistanceMeters>NAN</DistanceMeters>
          </Trackpoint>
          <Trackpoint>
            <Time>2022-09-22T14:21:31.000Z</Time>
            <Position>
              <LatitudeDegrees>49.4316404499113559722900390625</LatitudeDegrees>
              <LongitudeDegrees>20.71252830326557159423828125</LongitudeDegrees>
            </Position>
            <AltitudeMeters>378.399993896484375</AltitudeMeters>
            <DistanceMeters>NAN</DistanceMeters>
          </Trackpoint>
          <Trackpoint>
            <Time>2022-09-22T14:21:35.000Z</Time>
            <Position>
              <LatitudeDegrees>49.4316253624856472015380859375</LatitudeDegrees>
              <LongitudeDegrees>20.71232973597943782806396484375</LongitudeDegrees>
            </Position>
            <AltitudeMeters>377.600006103515625</AltitudeMeters>
            <DistanceMeters>NAN</DistanceMeters>
          </Trackpoint>
          <Trackpoint>
            <Time>2022-09-22T14:21:37.000Z</Time>
            <Position>
              <LatitudeDegrees>49.43161136470735073089599609375</LatitudeDegrees>
              <LongitudeDegrees>20.71219193749129772186279296875</LongitudeDegrees>
            </Position>
            <AltitudeMeters>377.20001220703125</AltitudeMeters>
            <DistanceMeters>NAN</DistanceMeters>
          </Trackpoint>
          <Trackpoint>
            <Time>2022-09-22T14:21:42.000Z</Time>
            <Position>
              <LatitudeDegrees>49.43157901056110858917236328125</LatitudeDegrees>
              <LongitudeDegrees>20.71185481734573841094970703125</LongitudeDegrees>
            </Position>
            <AltitudeMeters>376.600006103515625</AltitudeMeters>
            <DistanceMeters>NAN</DistanceMeters>
          </Trackpoint>
          <Trackpoint>
            <Time>2022-09-22T14:21:44.000Z</Time>
            <Position>
              <LatitudeDegrees>49.4315723888576030731201171875</LatitudeDegrees>
              <LongitudeDegrees>20.71173126809298992156982421875</LongitudeDegrees>
            </Position>
            <AltitudeMeters>376.600006103515625</AltitudeMeters>
            <DistanceMeters>NAN</DistanceMeters>
          </Trackpoint>
          <Trackpoint>
            <Time>2022-09-22T14:21:47.000Z</Time>
            <Position>
              <LatitudeDegrees>49.43155956454575061798095703125</LatitudeDegrees>
              <LongitudeDegrees>20.71155038662254810333251953125</LongitudeDegrees>
            </Position>
            <AltitudeMeters>376.600006103515625</AltitudeMeters>
            <DistanceMeters>NAN</DistanceMeters>
          </Trackpoint>
          <Trackpoint>
            <Time>2022-09-22T14:21:48.000Z</Time>
            <Position>
              <LatitudeDegrees>49.43156157620251178741455078125</LatitudeDegrees>
              <LongitudeDegrees>20.7114897854626178741455078125</LongitudeDegrees>
            </Position>
            <AltitudeMeters>376.600006103515625</AltitudeMeters>
            <DistanceMeters>NAN</DistanceMeters>
          </Trackpoint>
          <Trackpoint>
            <Time>2022-09-22T14:21:49.000Z</Time>
            <Position>
              <LatitudeDegrees>49.43156694062054157257080078125</LatitudeDegrees>
              <LongitudeDegrees>20.7114311121404170989990234375</LongitudeDegrees>
            </Position>
            <AltitudeMeters>376.79998779296875</AltitudeMeters>
            <DistanceMeters>NAN</DistanceMeters>
          </Trackpoint>
          <Trackpoint>
            <Time>2022-09-22T14:21:53.000Z</Time>
            <Position>
              <LatitudeDegrees>49.43158655427396297454833984375</LatitudeDegrees>
              <LongitudeDegrees>20.7112309522926807403564453125</LongitudeDegrees>
            </Position>
            <AltitudeMeters>376.79998779296875</AltitudeMeters>
            <DistanceMeters>NAN</DistanceMeters>
          </Trackpoint>
          <Trackpoint>
            <Time>2022-09-22T14:21:56.000Z</Time>
            <Position>
              <LatitudeDegrees>49.43159401416778564453125</LatitudeDegrees>
              <LongitudeDegrees>20.71106155402958393096923828125</LongitudeDegrees>
            </Position>
            <AltitudeMeters>376.600006103515625</AltitudeMeters>
            <DistanceMeters>NAN</DistanceMeters>
          </Trackpoint>
          <Trackpoint>
            <Time>2022-09-22T14:21:59.000Z</Time>
            <Position>
              <LatitudeDegrees>49.4315982051193714141845703125</LatitudeDegrees>
              <LongitudeDegrees>20.71089684963226318359375</LongitudeDegrees>
            </Position>
            <AltitudeMeters>376.20001220703125</AltitudeMeters>
            <DistanceMeters>NAN</DistanceMeters>
          </Trackpoint>
          <Trackpoint>
            <Time>2022-09-22T14:22:00.000Z</Time>
            <Position>
              <LatitudeDegrees>49.43160139024257659912109375</LatitudeDegrees>
              <LongitudeDegrees>20.7108457200229167938232421875</LongitudeDegrees>
            </Position>
            <AltitudeMeters>376.20001220703125</AltitudeMeters>
            <DistanceMeters>NAN</DistanceMeters>
          </Trackpoint>
          <Trackpoint>
            <Time>2022-09-22T14:22:09.000Z</Time>
            <Position>
              <LatitudeDegrees>49.43162863142788410186767578125</LatitudeDegrees>
              <LongitudeDegrees>20.71033827960491180419921875</LongitudeDegrees>
            </Position>
            <AltitudeMeters>376.399993896484375</AltitudeMeters>
            <DistanceMeters>NAN</DistanceMeters>
          </Trackpoint>
          <Trackpoint>
            <Time>2022-09-22T14:22:12.000Z</Time>
            <Position>
              <LatitudeDegrees>49.431645981967449188232421875</LatitudeDegrees>
              <LongitudeDegrees>20.71018815971910953521728515625</LongitudeDegrees>
            </Position>
            <AltitudeMeters>376.20001220703125</AltitudeMeters>
            <DistanceMeters>NAN</DistanceMeters>
          </Trackpoint>
          <Trackpoint>
            <Time>2022-09-22T14:22:15.000Z</Time>
            <Position>
              <LatitudeDegrees>49.43165025673806667327880859375</LatitudeDegrees>
              <LongitudeDegrees>20.71001750417053699493408203125</LongitudeDegrees>
            </Position>
            <AltitudeMeters>376.399993896484375</AltitudeMeters>
            <DistanceMeters>NAN</DistanceMeters>
          </Trackpoint>
          <Trackpoint>
            <Time>2022-09-22T14:22:16.000Z</Time>
            <Position>
              <LatitudeDegrees>49.431652016937732696533203125</LatitudeDegrees>
              <LongitudeDegrees>20.7099649496376514434814453125</LongitudeDegrees>
            </Position>
            <AltitudeMeters>376.399993896484375</AltitudeMeters>
            <DistanceMeters>NAN</DistanceMeters>
          </Trackpoint>
          <Trackpoint>
            <Time>2022-09-22T14:22:24.000Z</Time>
            <Position>
              <LatitudeDegrees>49.43168311379849910736083984375</LatitudeDegrees>
              <LongitudeDegrees>20.70961232297122478485107421875</LongitudeDegrees>
            </Position>
            <AltitudeMeters>376.600006103515625</AltitudeMeters>
            <DistanceMeters>NAN</DistanceMeters>
          </Trackpoint>
          <Trackpoint>
            <Time>2022-09-22T14:22:32.000Z</Time>
            <Position>
              <LatitudeDegrees>49.431729130446910858154296875</LatitudeDegrees>
              <LongitudeDegrees>20.70927050895988941192626953125</LongitudeDegrees>
            </Position>
            <AltitudeMeters>376.20001220703125</AltitudeMeters>
            <DistanceMeters>NAN</DistanceMeters>
          </Trackpoint>
          <Trackpoint>
            <Time>2022-09-22T14:22:42.000Z</Time>
            <Position>
              <LatitudeDegrees>49.4318717904388904571533203125</LatitudeDegrees>
              <LongitudeDegrees>20.7088156230747699737548828125</LongitudeDegrees>
            </Position>
            <AltitudeMeters>375.600006103515625</AltitudeMeters>
            <DistanceMeters>NAN</DistanceMeters>
          </Trackpoint>
          <Trackpoint>
            <Time>2022-09-22T14:22:50.000Z</Time>
            <Position>
              <LatitudeDegrees>49.4319847784936428070068359375</LatitudeDegrees>
              <LongitudeDegrees>20.7085014693439006805419921875</LongitudeDegrees>
            </Position>
            <AltitudeMeters>375.399993896484375</AltitudeMeters>
            <DistanceMeters>NAN</DistanceMeters>
          </Trackpoint>
          <Trackpoint>
            <Time>2022-09-22T14:22:51.000Z</Time>
            <Position>
              <LatitudeDegrees>49.4319985248148441314697265625</LatitudeDegrees>
              <LongitudeDegrees>20.70846651680767536163330078125</LongitudeDegrees>
            </Position>
            <AltitudeMeters>375.399993896484375</AltitudeMeters>
            <DistanceMeters>NAN</DistanceMeters>
          </Trackpoint>
          <Trackpoint>
            <Time>2022-09-22T14:22:54.000Z</Time>
            <Position>
              <LatitudeDegrees>49.43204772658646106719970703125</LatitudeDegrees>
              <LongitudeDegrees>20.7083589769899845123291015625</LongitudeDegrees>
            </Position>
            <AltitudeMeters>375.20001220703125</AltitudeMeters>
            <DistanceMeters>NAN</DistanceMeters>
          </Trackpoint>
          <Trackpoint>
            <Time>2022-09-22T14:22:56.000Z</Time>
            <Position>
              <LatitudeDegrees>49.43207471631467342376708984375</LatitudeDegrees>
              <LongitudeDegrees>20.7083016447722911834716796875</LongitudeDegrees>
            </Position>
            <AltitudeMeters>375</AltitudeMeters>
            <DistanceMeters>NAN</DistanceMeters>
          </Trackpoint>
          <Trackpoint>
            <Time>2022-09-22T14:22:57.000Z</Time>
            <Position>
              <LatitudeDegrees>49.43207077682018280029296875</LatitudeDegrees>
              <LongitudeDegrees>20.7082721404731273651123046875</LongitudeDegrees>
            </Position>
            <AltitudeMeters>375</AltitudeMeters>
            <DistanceMeters>NAN</DistanceMeters>
          </Trackpoint>
          <Trackpoint>
            <Time>2022-09-22T14:22:58.000Z</Time>
            <Position>
              <LatitudeDegrees>49.43206935189664363861083984375</LatitudeDegrees>
              <LongitudeDegrees>20.70824590511620044708251953125</LongitudeDegrees>
            </Position>
            <AltitudeMeters>375.20001220703125</AltitudeMeters>
            <DistanceMeters>NAN</DistanceMeters>
          </Trackpoint>
          <Trackpoint>
            <Time>2022-09-22T14:23:02.000Z</Time>
            <Position>
              <LatitudeDegrees>49.4320701062679290771484375</LatitudeDegrees>
              <LongitudeDegrees>20.7082355953752994537353515625</LongitudeDegrees>
            </Position>
            <AltitudeMeters>375.20001220703125</AltitudeMeters>
            <DistanceMeters>NAN</DistanceMeters>
          </Trackpoint>
          <Trackpoint>
            <Time>2022-09-22T14:23:05.000Z</Time>
            <Position>
              <LatitudeDegrees>49.4320639036595821380615234375</LatitudeDegrees>
              <LongitudeDegrees>20.70823383517563343048095703125</LongitudeDegrees>
            </Position>
            <AltitudeMeters>375.399993896484375</AltitudeMeters>
            <DistanceMeters>NAN</DistanceMeters>
          </Trackpoint>
          <Trackpoint>
            <Time>2022-09-22T14:23:08.000Z</Time>
            <Position>
              <LatitudeDegrees>49.4320639036595821380615234375</LatitudeDegrees>
              <LongitudeDegrees>20.70823383517563343048095703125</LongitudeDegrees>
            </Position>
            <AltitudeMeters>375.399993896484375</AltitudeMeters>
            <DistanceMeters>NAN</DistanceMeters>
          </Trackpoint>
          <Trackpoint>
            <Time>2022-09-22T14:23:13.000Z</Time>
            <Position>
              <LatitudeDegrees>49.432052671909332275390625</LatitudeDegrees>
              <LongitudeDegrees>20.7082671113312244415283203125</LongitudeDegrees>
            </Position>
            <AltitudeMeters>375.399993896484375</AltitudeMeters>
            <DistanceMeters>NAN</DistanceMeters>
          </Trackpoint>
          <Trackpoint>
            <Time>2022-09-22T14:23:15.000Z</Time>
            <Position>
              <LatitudeDegrees>49.4320454634726047515869140625</LatitudeDegrees>
              <LongitudeDegrees>20.70826870389282703399658203125</LongitudeDegrees>
            </Position>
            <AltitudeMeters>375.600006103515625</AltitudeMeters>
            <DistanceMeters>NAN</DistanceMeters>
          </Trackpoint>
          <Trackpoint>
            <Time>2022-09-22T14:23:16.000Z</Time>
            <Position>
              <LatitudeDegrees>49.4320454634726047515869140625</LatitudeDegrees>
              <LongitudeDegrees>20.70826870389282703399658203125</LongitudeDegrees>
            </Position>
            <AltitudeMeters>375.600006103515625</AltitudeMeters>
            <DistanceMeters>NAN</DistanceMeters>
          </Trackpoint>
          <Trackpoint>
            <Time>2022-09-22T14:23:20.000Z</Time>
            <Position>
              <LatitudeDegrees>49.432046301662921905517578125</LatitudeDegrees>
              <LongitudeDegrees>20.7082687877118587493896484375</LongitudeDegrees>
            </Position>
            <AltitudeMeters>376</AltitudeMeters>
            <DistanceMeters>NAN</DistanceMeters>
          </Trackpoint>
          <Trackpoint>
            <Time>2022-09-22T14:23:22.000Z</Time>
            <Position>
              <LatitudeDegrees>49.4320471398532390594482421875</LatitudeDegrees>
              <LongitudeDegrees>20.70826895534992218017578125</LongitudeDegrees>
            </Position>
            <AltitudeMeters>376.20001220703125</AltitudeMeters>
            <DistanceMeters>NAN</DistanceMeters>
          </Trackpoint>
          <Trackpoint>
            <Time>2022-09-22T14:23:23.000Z</Time>
            <Position>
              <LatitudeDegrees>49.43205091170966625213623046875</LatitudeDegrees>
              <LongitudeDegrees>20.70829234085977077484130859375</LongitudeDegrees>
            </Position>
            <AltitudeMeters>376.399993896484375</AltitudeMeters>
            <DistanceMeters>NAN</DistanceMeters>
          </Trackpoint>
          <Trackpoint>
            <Time>2022-09-22T14:23:25.000Z</Time>
            <Position>
              <LatitudeDegrees>49.43206407129764556884765625</LatitudeDegrees>
              <LongitudeDegrees>20.7082573883235454559326171875</LongitudeDegrees>
            </Position>
            <AltitudeMeters>376.600006103515625</AltitudeMeters>
            <DistanceMeters>NAN</DistanceMeters>
          </Trackpoint>
          <Trackpoint>
            <Time>2022-09-23T07:45:31.000Z</Time>
            <Position>
              <LatitudeDegrees>49.43163801915943622589111328125</LatitudeDegrees>
              <LongitudeDegrees>20.71085887961089611053466796875</LongitudeDegrees>
            </Position>
            <AltitudeMeters>376.399993896484375</AltitudeMeters>
            <DistanceMeters>NAN</DistanceMeters>
          </Trackpoint>
          <Trackpoint>
            <Time>2022-09-23T07:45:33.000Z</Time>
            <Position>
              <LatitudeDegrees>49.43162661977112293243408203125</LatitudeDegrees>
              <LongitudeDegrees>20.710982345044612884521484375</LongitudeDegrees>
            </Position>
            <AltitudeMeters>376.399993896484375</AltitudeMeters>
            <DistanceMeters>NAN</DistanceMeters>
          </Trackpoint>
          <Trackpoint>
            <Time>2022-09-23T07:45:39.000Z</Time>
            <Position>
              <LatitudeDegrees>49.43163835443556308746337890625</LatitudeDegrees>
              <LongitudeDegrees>20.71122785098850727081298828125</LongitudeDegrees>
            </Position>
            <AltitudeMeters>376.20001220703125</AltitudeMeters>
            <DistanceMeters>NAN</DistanceMeters>
          </Trackpoint>
          <Trackpoint>
            <Time>2022-09-23T07:45:41.000Z</Time>
            <Position>
              <LatitudeDegrees>49.43163667805492877960205078125</LatitudeDegrees>
              <LongitudeDegrees>20.71130110882222652435302734375</LongitudeDegrees>
            </Position>
            <AltitudeMeters>376</AltitudeMeters>
            <DistanceMeters>NAN</DistanceMeters>
          </Trackpoint>
          <Trackpoint>
            <Time>2022-09-23T07:45:45.000Z</Time>
            <Position>
              <LatitudeDegrees>49.43163148127496242523193359375</LatitudeDegrees>
              <LongitudeDegrees>20.7114542461931705474853515625</LongitudeDegrees>
            </Position>
            <AltitudeMeters>376.20001220703125</AltitudeMeters>
            <DistanceMeters>NAN</DistanceMeters>
          </Trackpoint>
          <Trackpoint>
            <Time>2022-09-23T07:45:48.000Z</Time>
            <Position>
              <LatitudeDegrees>49.43163651041686534881591796875</LatitudeDegrees>
              <LongitudeDegrees>20.7115759514272212982177734375</LongitudeDegrees>
            </Position>
            <AltitudeMeters>376.20001220703125</AltitudeMeters>
            <DistanceMeters>NAN</DistanceMeters>
          </Trackpoint>
          <Trackpoint>
            <Time>2022-09-23T07:45:49.000Z</Time>
            <Position>
              <LatitudeDegrees>49.43163936026394367218017578125</LatitudeDegrees>
              <LongitudeDegrees>20.71161006577312946319580078125</LongitudeDegrees>
            </Position>
            <AltitudeMeters>376.20001220703125</AltitudeMeters>
            <DistanceMeters>NAN</DistanceMeters>
          </Trackpoint>
          <Trackpoint>
            <Time>2022-09-23T07:45:51.000Z</Time>
            <Position>
              <LatitudeDegrees>49.4316411204636096954345703125</LatitudeDegrees>
              <LongitudeDegrees>20.71166873909533023834228515625</LongitudeDegrees>
            </Position>
            <AltitudeMeters>376.20001220703125</AltitudeMeters>
            <DistanceMeters>NAN</DistanceMeters>
          </Trackpoint>
          <Trackpoint>
            <Time>2022-09-23T07:45:57.000Z</Time>
            <Position>
              <LatitudeDegrees>49.43164740689098834991455078125</LatitudeDegrees>
              <LongitudeDegrees>20.71189957670867443084716796875</LongitudeDegrees>
            </Position>
            <AltitudeMeters>376.600006103515625</AltitudeMeters>
            <DistanceMeters>NAN</DistanceMeters>
          </Trackpoint>
          <Trackpoint>
            <Time>2022-09-23T07:46:05.000Z</Time>
            <Position>
              <LatitudeDegrees>49.43166936747729778289794921875</LatitudeDegrees>
              <LongitudeDegrees>20.71225178427994251251220703125</LongitudeDegrees>
            </Position>
            <AltitudeMeters>376.79998779296875</AltitudeMeters>
            <DistanceMeters>NAN</DistanceMeters>
          </Trackpoint>
          <Trackpoint>
            <Time>2022-09-23T07:46:06.000Z</Time>
            <Position>
              <LatitudeDegrees>49.4316704571247100830078125</LatitudeDegrees>
              <LongitudeDegrees>20.7123021595180034637451171875</LongitudeDegrees>
            </Position>
            <AltitudeMeters>376.79998779296875</AltitudeMeters>
            <DistanceMeters>NAN</DistanceMeters>
          </Trackpoint>
          <Trackpoint>
            <Time>2022-09-23T07:46:09.000Z</Time>
            <Position>
              <LatitudeDegrees>49.43167339079082012176513671875</LatitudeDegrees>
              <LongitudeDegrees>20.7124208472669124603271484375</LongitudeDegrees>
            </Position>
            <AltitudeMeters>377.20001220703125</AltitudeMeters>
            <DistanceMeters>NAN</DistanceMeters>
          </Trackpoint>
          <Trackpoint>
            <Time>2022-09-23T07:46:13.000Z</Time>
            <Position>
              <LatitudeDegrees>49.43167707882821559906005859375</LatitudeDegrees>
              <LongitudeDegrees>20.71257297880947589874267578125</LongitudeDegrees>
            </Position>
            <AltitudeMeters>377.79998779296875</AltitudeMeters>
            <DistanceMeters>NAN</DistanceMeters>
          </Trackpoint>
          <Trackpoint>
            <Time>2022-09-23T07:46:15.000Z</Time>
            <Position>
              <LatitudeDegrees>49.4316887296736240386962890625</LatitudeDegrees>
              <LongitudeDegrees>20.7126250304281711578369140625</LongitudeDegrees>
            </Position>
            <AltitudeMeters>378.20001220703125</AltitudeMeters>
            <DistanceMeters>NAN</DistanceMeters>
          </Trackpoint>
          <Trackpoint>
            <Time>2022-09-23T07:46:17.000Z</Time>
            <Position>
              <LatitudeDegrees>49.4317021407186985015869140625</LatitudeDegrees>
              <LongitudeDegrees>20.7126676104962825775146484375</LongitudeDegrees>
            </Position>
            <AltitudeMeters>378.79998779296875</AltitudeMeters>
            <DistanceMeters>NAN</DistanceMeters>
          </Trackpoint>
          <Trackpoint>
            <Time>2022-09-23T07:46:20.000Z</Time>
            <Position>
              <LatitudeDegrees>49.4317202456295490264892578125</LatitudeDegrees>
              <LongitudeDegrees>20.7127098552882671356201171875</LongitudeDegrees>
            </Position>
            <AltitudeMeters>379</AltitudeMeters>
            <DistanceMeters>NAN</DistanceMeters>
          </Trackpoint>
          <Trackpoint>
            <Time>2022-09-23T07:46:24.000Z</Time>
            <Position>
              <LatitudeDegrees>49.431806914508342742919921875</LatitudeDegrees>
              <LongitudeDegrees>20.71270935237407684326171875</LongitudeDegrees>
            </Position>
            <AltitudeMeters>379</AltitudeMeters>
            <DistanceMeters>NAN</DistanceMeters>
          </Trackpoint>
          <Trackpoint>
            <Time>2022-09-23T07:46:25.000Z</Time>
            <Position>
              <LatitudeDegrees>49.4318332336843013763427734375</LatitudeDegrees>
              <LongitudeDegrees>20.7127078436315059661865234375</LongitudeDegrees>
            </Position>
            <AltitudeMeters>378.79998779296875</AltitudeMeters>
            <DistanceMeters>NAN</DistanceMeters>
          </Trackpoint>
          <Trackpoint>
            <Time>2022-09-23T07:46:32.000Z</Time>
            <Position>
              <LatitudeDegrees>49.4319948367774486541748046875</LatitudeDegrees>
              <LongitudeDegrees>20.712700299918651580810546875</LongitudeDegrees>
            </Position>
            <AltitudeMeters>378.600006103515625</AltitudeMeters>
            <DistanceMeters>NAN</DistanceMeters>
          </Trackpoint>
          <Trackpoint>
            <Time>2022-09-23T07:46:40.000Z</Time>
            <Position>
              <LatitudeDegrees>49.43219373933970928192138671875</LatitudeDegrees>
              <LongitudeDegrees>20.71270055137574672698974609375</LongitudeDegrees>
            </Position>
            <AltitudeMeters>378.79998779296875</AltitudeMeters>
            <DistanceMeters>NAN</DistanceMeters>
          </Trackpoint>
          <Trackpoint>
            <Time>2022-09-23T07:46:42.000Z</Time>
            <Position>
              <LatitudeDegrees>49.43224319256842136383056640625</LatitudeDegrees>
              <LongitudeDegrees>20.71270122192800045013427734375</LongitudeDegrees>
            </Position>
            <AltitudeMeters>379</AltitudeMeters>
            <DistanceMeters>NAN</DistanceMeters>
          </Trackpoint>
          <Trackpoint>
            <Time>2022-09-23T07:46:50.000Z</Time>
            <Position>
              <LatitudeDegrees>49.4324306957423686981201171875</LatitudeDegrees>
              <LongitudeDegrees>20.7126991264522075653076171875</LongitudeDegrees>
            </Position>
            <AltitudeMeters>379.20001220703125</AltitudeMeters>
            <DistanceMeters>NAN</DistanceMeters>
          </Trackpoint>
          <Trackpoint>
            <Time>2022-09-23T07:46:52.000Z</Time>
            <Position>
              <LatitudeDegrees>49.4324732758104801177978515625</LatitudeDegrees>
              <LongitudeDegrees>20.7126987911760807037353515625</LongitudeDegrees>
            </Position>
            <AltitudeMeters>379.20001220703125</AltitudeMeters>
            <DistanceMeters>NAN</DistanceMeters>
          </Trackpoint>
          <Trackpoint>
            <Time>2022-09-23T07:47:01.000Z</Time>
            <Position>
              <LatitudeDegrees>49.4326720945537090301513671875</LatitudeDegrees>
              <LongitudeDegrees>20.7127044908702373504638671875</LongitudeDegrees>
            </Position>
            <AltitudeMeters>379.20001220703125</AltitudeMeters>
            <DistanceMeters>NAN</DistanceMeters>
          </Trackpoint>
          <Trackpoint>
            <Time>2022-09-23T07:47:08.000Z</Time>
            <Position>
              <LatitudeDegrees>49.432798326015472412109375</LatitudeDegrees>
              <LongitudeDegrees>20.7127024792134761810302734375</LongitudeDegrees>
            </Position>
            <AltitudeMeters>379</AltitudeMeters>
            <DistanceMeters>NAN</DistanceMeters>
          </Trackpoint>
          <Trackpoint>
            <Time>2022-09-23T07:47:12.000Z</Time>
            <Position>
              <LatitudeDegrees>49.43285356275737285614013671875</LatitudeDegrees>
              <LongitudeDegrees>20.7126793451607227325439453125</LongitudeDegrees>
            </Position>
            <AltitudeMeters>378.79998779296875</AltitudeMeters>
            <DistanceMeters>NAN</DistanceMeters>
          </Trackpoint>
          <Trackpoint>
            <Time>2022-09-23T07:47:14.000Z</Time>
            <Position>
              <LatitudeDegrees>49.4328648783266544342041015625</LatitudeDegrees>
              <LongitudeDegrees>20.712643973529338836669921875</LongitudeDegrees>
            </Position>
            <AltitudeMeters>378.600006103515625</AltitudeMeters>
            <DistanceMeters>NAN</DistanceMeters>
          </Trackpoint>
          <Trackpoint>
            <Time>2022-09-23T07:47:19.000Z</Time>
            <Position>
              <LatitudeDegrees>49.4328414089977741241455078125</LatitudeDegrees>
              <LongitudeDegrees>20.71246485225856304168701171875</LongitudeDegrees>
            </Position>
            <AltitudeMeters>378.600006103515625</AltitudeMeters>
            <DistanceMeters>NAN</DistanceMeters>
          </Trackpoint>
          <Trackpoint>
            <Time>2022-09-23T07:47:25.000Z</Time>
            <Position>
              <LatitudeDegrees>49.4328222982585430145263671875</LatitudeDegrees>
              <LongitudeDegrees>20.7121942006051540374755859375</LongitudeDegrees>
            </Position>
            <AltitudeMeters>378.600006103515625</AltitudeMeters>
            <DistanceMeters>NAN</DistanceMeters>
          </Trackpoint>
          <Trackpoint>
            <Time>2022-09-23T07:47:31.000Z</Time>
            <Position>
              <LatitudeDegrees>49.43281584419310092926025390625</LatitudeDegrees>
              <LongitudeDegrees>20.71192304603755474090576171875</LongitudeDegrees>
            </Position>
            <AltitudeMeters>378.399993896484375</AltitudeMeters>
            <DistanceMeters>NAN</DistanceMeters>
          </Trackpoint>
          <Trackpoint>
            <Time>2022-09-23T07:47:39.000Z</Time>
            <Position>
              <LatitudeDegrees>49.4328653812408447265625</LatitudeDegrees>
              <LongitudeDegrees>20.7115565054118633270263671875</LongitudeDegrees>
            </Position>
            <AltitudeMeters>378.79998779296875</AltitudeMeters>
            <DistanceMeters>NAN</DistanceMeters>
          </Trackpoint>
          <Trackpoint>
            <Time>2022-09-23T07:47:45.000Z</Time>
            <Position>
              <LatitudeDegrees>49.43296671845018863677978515625</LatitudeDegrees>
              <LongitudeDegrees>20.71130312047898769378662109375</LongitudeDegrees>
            </Position>
            <AltitudeMeters>379</AltitudeMeters>
            <DistanceMeters>NAN</DistanceMeters>
          </Trackpoint>
          <Trackpoint>
            <Time>2022-09-23T07:47:53.000Z</Time>
            <Position>
              <LatitudeDegrees>49.433133266866207122802734375</LatitudeDegrees>
              <LongitudeDegrees>20.711040012538433074951171875</LongitudeDegrees>
            </Position>
            <AltitudeMeters>379.20001220703125</AltitudeMeters>
            <DistanceMeters>NAN</DistanceMeters>
          </Trackpoint>
          <Trackpoint>
            <Time>2022-09-23T07:47:57.000Z</Time>
            <Position>
              <LatitudeDegrees>49.4332360289990901947021484375</LatitudeDegrees>
              <LongitudeDegrees>20.710944123566150665283203125</LongitudeDegrees>
            </Position>
            <AltitudeMeters>379.399993896484375</AltitudeMeters>
            <DistanceMeters>NAN</DistanceMeters>
          </Trackpoint>
          <Trackpoint>
            <Time>2022-09-23T07:48:01.000Z</Time>
            <Position>
              <LatitudeDegrees>49.43334105424582958221435546875</LatitudeDegrees>
              <LongitudeDegrees>20.7108678482472896575927734375</LongitudeDegrees>
            </Position>
            <AltitudeMeters>379.399993896484375</AltitudeMeters>
            <DistanceMeters>NAN</DistanceMeters>
          </Trackpoint>
          <Trackpoint>
            <Time>2022-09-23T07:48:05.000Z</Time>
            <Position>
              <LatitudeDegrees>49.43346175365149974822998046875</LatitudeDegrees>
              <LongitudeDegrees>20.7108074985444545745849609375</LongitudeDegrees>
            </Position>
            <AltitudeMeters>379.399993896484375</AltitudeMeters>
            <DistanceMeters>NAN</DistanceMeters>
          </Trackpoint>
          <Trackpoint>
            <Time>2022-09-23T07:48:10.000Z</Time>
            <Position>
              <LatitudeDegrees>49.4336138851940631866455078125</LatitudeDegrees>
              <LongitudeDegrees>20.71078863926231861114501953125</LongitudeDegrees>
            </Position>
            <AltitudeMeters>379.600006103515625</AltitudeMeters>
            <DistanceMeters>NAN</DistanceMeters>
          </Trackpoint>
          <Trackpoint>
            <Time>2022-09-23T07:48:15.000Z</Time>
            <Position>
              <LatitudeDegrees>49.4337865523993968963623046875</LatitudeDegrees>
              <LongitudeDegrees>20.71082820184528827667236328125</LongitudeDegrees>
            </Position>
            <AltitudeMeters>379.79998779296875</AltitudeMeters>
            <DistanceMeters>NAN</DistanceMeters>
          </Trackpoint>
          <Trackpoint>
            <Time>2022-09-23T07:48:18.000Z</Time>
            <Position>
              <LatitudeDegrees>49.433882944285869598388671875</LatitudeDegrees>
              <LongitudeDegrees>20.7108789123594760894775390625</LongitudeDegrees>
            </Position>
            <AltitudeMeters>379.79998779296875</AltitudeMeters>
            <DistanceMeters>NAN</DistanceMeters>
          </Trackpoint>
          <Trackpoint>
            <Time>2022-09-23T07:48:24.000Z</Time>
            <Position>
              <LatitudeDegrees>49.43403876386582851409912109375</LatitudeDegrees>
              <LongitudeDegrees>20.71101310662925243377685546875</LongitudeDegrees>
            </Position>
            <AltitudeMeters>379.79998779296875</AltitudeMeters>
            <DistanceMeters>NAN</DistanceMeters>
          </Trackpoint>
          <Trackpoint>
            <Time>2022-09-23T07:48:31.000Z</Time>
            <Position>
              <LatitudeDegrees>49.43420849740505218505859375</LatitudeDegrees>
              <LongitudeDegrees>20.711223073303699493408203125</LongitudeDegrees>
            </Position>
            <AltitudeMeters>379.79998779296875</AltitudeMeters>
            <DistanceMeters>NAN</DistanceMeters>
          </Trackpoint>
          <Trackpoint>
            <Time>2022-09-23T07:48:38.000Z</Time>
            <Position>
              <LatitudeDegrees>49.43434805609285831451416015625</LatitudeDegrees>
              <LongitudeDegrees>20.71140311658382415771484375</LongitudeDegrees>
            </Position>
            <AltitudeMeters>380</AltitudeMeters>
            <DistanceMeters>NAN</DistanceMeters>
          </Trackpoint>
          <Trackpoint>
            <Time>2022-09-23T07:48:45.000Z</Time>
            <Position>
              <LatitudeDegrees>49.43448543548583984375</LatitudeDegrees>
              <LongitudeDegrees>20.71157352067530155181884765625</LongitudeDegrees>
            </Position>
            <AltitudeMeters>380.20001220703125</AltitudeMeters>
            <DistanceMeters>NAN</DistanceMeters>
          </Trackpoint>
          <Trackpoint>
            <Time>2022-09-23T07:48:50.000Z</Time>
            <Position>
              <LatitudeDegrees>49.43456632085144519805908203125</LatitudeDegrees>
              <LongitudeDegrees>20.71166463196277618408203125</LongitudeDegrees>
            </Position>
            <AltitudeMeters>380.399993896484375</AltitudeMeters>
            <DistanceMeters>NAN</DistanceMeters>
          </Trackpoint>
          <Trackpoint>
            <Time>2022-09-23T07:48:53.000Z</Time>
            <Position>
              <LatitudeDegrees>49.4346133433282375335693359375</LatitudeDegrees>
              <LongitudeDegrees>20.711723305284976959228515625</LongitudeDegrees>
            </Position>
            <AltitudeMeters>380.600006103515625</AltitudeMeters>
            <DistanceMeters>NAN</DistanceMeters>
          </Trackpoint>
          <Trackpoint>
            <Time>2022-09-23T07:49:01.000Z</Time>
            <Position>
              <LatitudeDegrees>49.434707053005695343017578125</LatitudeDegrees>
              <LongitudeDegrees>20.711833946406841278076171875</LongitudeDegrees>
            </Position>
            <AltitudeMeters>380.600006103515625</AltitudeMeters>
            <DistanceMeters>NAN</DistanceMeters>
          </Trackpoint>
          <Trackpoint>
            <Time>2022-09-23T07:49:03.000Z</Time>
            <Position>
              <LatitudeDegrees>49.43469892255961894989013671875</LatitudeDegrees>
              <LongitudeDegrees>20.71186889894306659698486328125</LongitudeDegrees>
            </Position>
            <AltitudeMeters>380.600006103515625</AltitudeMeters>
            <DistanceMeters>NAN</DistanceMeters>
          </Trackpoint>
          <Trackpoint>
            <Time>2022-09-23T07:49:06.000Z</Time>
            <Position>
              <LatitudeDegrees>49.43468232639133930206298828125</LatitudeDegrees>
              <LongitudeDegrees>20.71191541850566864013671875</LongitudeDegrees>
            </Position>
            <AltitudeMeters>380.600006103515625</AltitudeMeters>
            <DistanceMeters>NAN</DistanceMeters>
          </Trackpoint>
          <Trackpoint>
            <Time>2022-09-23T07:49:09.000Z</Time>
            <Position>
              <LatitudeDegrees>49.43469707854092121124267578125</LatitudeDegrees>
              <LongitudeDegrees>20.71197987534105777740478515625</LongitudeDegrees>
            </Position>
            <AltitudeMeters>380.79998779296875</AltitudeMeters>
            <DistanceMeters>NAN</DistanceMeters>
          </Trackpoint>
          <Trackpoint>
            <Time>2022-09-23T07:49:11.000Z</Time>
            <Position>
              <LatitudeDegrees>49.4347169436514377593994140625</LatitudeDegrees>
              <LongitudeDegrees>20.71201021783053874969482421875</LongitudeDegrees>
            </Position>
            <AltitudeMeters>381</AltitudeMeters>
            <DistanceMeters>NAN</DistanceMeters>
          </Trackpoint>
          <Trackpoint>
            <Time>2022-09-23T07:49:17.000Z</Time>
            <Position>
              <LatitudeDegrees>49.43474384956061840057373046875</LatitudeDegrees>
              <LongitudeDegrees>20.71214533410966396331787109375</LongitudeDegrees>
            </Position>
            <AltitudeMeters>381</AltitudeMeters>
            <DistanceMeters>NAN</DistanceMeters>
          </Trackpoint>
          <Trackpoint>
            <Time>2022-09-23T07:49:23.000Z</Time>
            <Position>
              <LatitudeDegrees>49.4347536563873291015625</LatitudeDegrees>
              <LongitudeDegrees>20.71222010068595409393310546875</LongitudeDegrees>
            </Position>
            <AltitudeMeters>380.600006103515625</AltitudeMeters>
            <DistanceMeters>NAN</DistanceMeters>
          </Trackpoint>
          <Trackpoint>
            <Time>2022-09-23T07:49:29.000Z</Time>
            <Position>
              <LatitudeDegrees>49.43475030362606048583984375</LatitudeDegrees>
              <LongitudeDegrees>20.71221926249563694000244140625</LongitudeDegrees>
            </Position>
            <AltitudeMeters>380.600006103515625</AltitudeMeters>
            <DistanceMeters>NAN</DistanceMeters>
          </Trackpoint>
          <Trackpoint>
            <Time>2022-09-23T07:49:47.000Z</Time>
            <Position>
              <LatitudeDegrees>49.43475055508315563201904296875</LatitudeDegrees>
              <LongitudeDegrees>20.71221322752535343170166015625</LongitudeDegrees>
            </Position>
            <AltitudeMeters>380.399993896484375</AltitudeMeters>
            <DistanceMeters>NAN</DistanceMeters>
          </Trackpoint>
          <Trackpoint>
            <Time>2022-09-23T07:50:05.000Z</Time>
            <Position>
              <LatitudeDegrees>49.4347709231078624725341796875</LatitudeDegrees>
              <LongitudeDegrees>20.7121992297470569610595703125</LongitudeDegrees>
            </Position>
            <AltitudeMeters>380.20001220703125</AltitudeMeters>
            <DistanceMeters>NAN</DistanceMeters>
          </Trackpoint>
          <Trackpoint>
            <Time>2022-09-23T07:50:18.000Z</Time>
            <Position>
              <LatitudeDegrees>49.43478089757263660430908203125</LatitudeDegrees>
              <LongitudeDegrees>20.71227810345590114593505859375</LongitudeDegrees>
            </Position>
            <AltitudeMeters>380</AltitudeMeters>
            <DistanceMeters>NAN</DistanceMeters>
          </Trackpoint>
          <Trackpoint>
            <Time>2022-09-23T07:50:21.000Z</Time>
            <Position>
              <LatitudeDegrees>49.43479212932288646697998046875</LatitudeDegrees>
              <LongitudeDegrees>20.71242394857108592987060546875</LongitudeDegrees>
            </Position>
            <AltitudeMeters>379.79998779296875</AltitudeMeters>
            <DistanceMeters>NAN</DistanceMeters>
          </Trackpoint>
          <Trackpoint>
            <Time>2022-09-23T07:50:23.000Z</Time>
            <Position>
              <LatitudeDegrees>49.4347925484180450439453125</LatitudeDegrees>
              <LongitudeDegrees>20.71255738846957683563232421875</LongitudeDegrees>
            </Position>
            <AltitudeMeters>379.600006103515625</AltitudeMeters>
            <DistanceMeters>NAN</DistanceMeters>
          </Trackpoint>
          <Trackpoint>
            <Time>2022-09-23T07:50:24.000Z</Time>
            <Position>
              <LatitudeDegrees>49.4347937218844890594482421875</LatitudeDegrees>
              <LongitudeDegrees>20.71263299323618412017822265625</LongitudeDegrees>
            </Position>
            <AltitudeMeters>379.399993896484375</AltitudeMeters>
            <DistanceMeters>NAN</DistanceMeters>
          </Trackpoint>
          <Trackpoint>
            <Time>2022-09-23T07:50:28.000Z</Time>
            <Position>
              <LatitudeDegrees>49.43479313515126705169677734375</LatitudeDegrees>
              <LongitudeDegrees>20.712959133088588714599609375</LongitudeDegrees>
            </Position>
            <AltitudeMeters>378.20001220703125</AltitudeMeters>
            <DistanceMeters>NAN</DistanceMeters>
          </Trackpoint>
          <Trackpoint>
            <Time>2022-09-23T07:50:29.000Z</Time>
            <Position>
              <LatitudeDegrees>49.4347920455038547515869140625</LatitudeDegrees>
              <LongitudeDegrees>20.71304739452898502349853515625</LongitudeDegrees>
            </Position>
            <AltitudeMeters>377.79998779296875</AltitudeMeters>
            <DistanceMeters>NAN</DistanceMeters>
          </Trackpoint>
          <Trackpoint>
            <Time>2022-09-23T07:50:31.000Z</Time>
            <Position>
              <LatitudeDegrees>49.4347898662090301513671875</LatitudeDegrees>
              <LongitudeDegrees>20.71323313750326633453369140625</LongitudeDegrees>
            </Position>
            <AltitudeMeters>377</AltitudeMeters>
            <DistanceMeters>NAN</DistanceMeters>
          </Trackpoint>
          <Trackpoint>
            <Time>2022-09-23T07:50:33.000Z</Time>
            <Position>
              <LatitudeDegrees>49.43478860892355442047119140625</LatitudeDegrees>
              <LongitudeDegrees>20.71341904811561107635498046875</LongitudeDegrees>
            </Position>
            <AltitudeMeters>376.600006103515625</AltitudeMeters>
            <DistanceMeters>NAN</DistanceMeters>
          </Trackpoint>
          <Trackpoint>
            <Time>2022-09-23T07:50:34.000Z</Time>
            <Position>
              <LatitudeDegrees>49.43478911183774471282958984375</LatitudeDegrees>
              <LongitudeDegrees>20.71352851577103137969970703125</LongitudeDegrees>
            </Position>
            <AltitudeMeters>376.399993896484375</AltitudeMeters>
            <DistanceMeters>NAN</DistanceMeters>
          </Trackpoint>
          <Trackpoint>
            <Time>2022-09-23T07:50:35.000Z</Time>
            <Position>
              <LatitudeDegrees>49.43478961475193500518798828125</LatitudeDegrees>
              <LongitudeDegrees>20.713617615401744842529296875</LongitudeDegrees>
            </Position>
            <AltitudeMeters>376.20001220703125</AltitudeMeters>
            <DistanceMeters>NAN</DistanceMeters>
          </Trackpoint>
          <Trackpoint>
            <Time>2022-09-23T07:50:36.000Z</Time>
            <Position>
              <LatitudeDegrees>49.4347876869142055511474609375</LatitudeDegrees>
              <LongitudeDegrees>20.71370570920407772064208984375</LongitudeDegrees>
            </Position>
            <AltitudeMeters>376</AltitudeMeters>
            <DistanceMeters>NAN</DistanceMeters>
          </Trackpoint>
          <Trackpoint>
            <Time>2022-09-23T07:50:38.000Z</Time>
            <Position>
              <LatitudeDegrees>49.43478827364742755889892578125</LatitudeDegrees>
              <LongitudeDegrees>20.7138789631426334381103515625</LongitudeDegrees>
            </Position>
            <AltitudeMeters>376</AltitudeMeters>
            <DistanceMeters>NAN</DistanceMeters>
          </Trackpoint>
          <Trackpoint>
            <Time>2022-09-23T07:50:43.000Z</Time>
            <Position>
              <LatitudeDegrees>49.43478441797196865081787109375</LatitudeDegrees>
              <LongitudeDegrees>20.714282132685184478759765625</LongitudeDegrees>
            </Position>
            <AltitudeMeters>375.79998779296875</AltitudeMeters>
            <DistanceMeters>NAN</DistanceMeters>
          </Trackpoint>
          <Trackpoint>
            <Time>2022-09-23T07:50:46.000Z</Time>
            <Position>
              <LatitudeDegrees>49.434785507619380950927734375</LatitudeDegrees>
              <LongitudeDegrees>20.714496709406375885009765625</LongitudeDegrees>
            </Position>
            <AltitudeMeters>375.79998779296875</AltitudeMeters>
            <DistanceMeters>NAN</DistanceMeters>
          </Trackpoint>
          <Trackpoint>
            <Time>2022-09-23T07:50:51.000Z</Time>
            <Position>
              <LatitudeDegrees>49.43480704911053180694580078125</LatitudeDegrees>
              <LongitudeDegrees>20.714864842593669891357421875</LongitudeDegrees>
            </Position>
            <AltitudeMeters>375.600006103515625</AltitudeMeters>
            <DistanceMeters>NAN</DistanceMeters>
          </Trackpoint>
          <Trackpoint>
            <Time>2022-09-23T07:50:54.000Z</Time>
            <Position>
              <LatitudeDegrees>49.4348161853849887847900390625</LatitudeDegrees>
              <LongitudeDegrees>20.715071372687816619873046875</LongitudeDegrees>
            </Position>
            <AltitudeMeters>375.600006103515625</AltitudeMeters>
            <DistanceMeters>NAN</DistanceMeters>
          </Trackpoint>
          <Trackpoint>
            <Time>2022-09-23T07:50:57.000Z</Time>
            <Position>
              <LatitudeDegrees>49.43485465832054615020751953125</LatitudeDegrees>
              <LongitudeDegrees>20.71528200991451740264892578125</LongitudeDegrees>
            </Position>
            <AltitudeMeters>375.399993896484375</AltitudeMeters>
            <DistanceMeters>NAN</DistanceMeters>
          </Trackpoint>
          <Trackpoint>
            <Time>2022-09-23T07:51:01.000Z</Time>
            <Position>
              <LatitudeDegrees>49.43491852842271327972412109375</LatitudeDegrees>
              <LongitudeDegrees>20.7155184634029865264892578125</LongitudeDegrees>
            </Position>
            <AltitudeMeters>375.20001220703125</AltitudeMeters>
            <DistanceMeters>NAN</DistanceMeters>
          </Trackpoint>
          <Trackpoint>
            <Time>2022-09-23T07:51:04.000Z</Time>
            <Position>
              <LatitudeDegrees>49.4349784590303897857666015625</LatitudeDegrees>
              <LongitudeDegrees>20.71570093743503093719482421875</LongitudeDegrees>
            </Position>
            <AltitudeMeters>375.20001220703125</AltitudeMeters>
            <DistanceMeters>NAN</DistanceMeters>
          </Trackpoint>
          <Trackpoint>
            <Time>2022-09-23T07:51:06.000Z</Time>
            <Position>
              <LatitudeDegrees>49.4350136630237102508544921875</LatitudeDegrees>
              <LongitudeDegrees>20.7158205471932888031005859375</LongitudeDegrees>
            </Position>
            <AltitudeMeters>375</AltitudeMeters>
            <DistanceMeters>NAN</DistanceMeters>
          </Trackpoint>
          <Trackpoint>
            <Time>2022-09-23T07:51:09.000Z</Time>
            <Position>
              <LatitudeDegrees>49.435061104595661163330078125</LatitudeDegrees>
              <LongitudeDegrees>20.7160032726824283599853515625</LongitudeDegrees>
            </Position>
            <AltitudeMeters>374.79998779296875</AltitudeMeters>
            <DistanceMeters>NAN</DistanceMeters>
          </Trackpoint>
          <Trackpoint>
            <Time>2022-09-23T07:51:10.000Z</Time>
            <Position>
              <LatitudeDegrees>49.4350773654878139495849609375</LatitudeDegrees>
              <LongitudeDegrees>20.71606521494686603546142578125</LongitudeDegrees>
            </Position>
            <AltitudeMeters>374.600006103515625</AltitudeMeters>
            <DistanceMeters>NAN</DistanceMeters>
          </Trackpoint>
          <Trackpoint>
            <Time>2022-09-23T07:51:16.000Z</Time>
            <Position>
              <LatitudeDegrees>49.4352037645876407623291015625</LatitudeDegrees>
              <LongitudeDegrees>20.71646017022430896759033203125</LongitudeDegrees>
            </Position>
            <AltitudeMeters>374</AltitudeMeters>
            <DistanceMeters>NAN</DistanceMeters>
          </Trackpoint>
          <Trackpoint>
            <Time>2022-09-23T07:51:17.000Z</Time>
            <Position>
              <LatitudeDegrees>49.4352242164313793182373046875</LatitudeDegrees>
              <LongitudeDegrees>20.71653158403933048248291015625</LongitudeDegrees>
            </Position>
            <AltitudeMeters>373.79998779296875</AltitudeMeters>
            <DistanceMeters>NAN</DistanceMeters>
          </Trackpoint>
          <Trackpoint>
            <Time>2022-09-23T07:51:18.000Z</Time>
            <Position>
              <LatitudeDegrees>49.43524793721735477447509765625</LatitudeDegrees>
              <LongitudeDegrees>20.71660660207271575927734375</LongitudeDegrees>
            </Position>
            <AltitudeMeters>373.79998779296875</AltitudeMeters>
            <DistanceMeters>NAN</DistanceMeters>
          </Trackpoint>
          <Trackpoint>
            <Time>2022-09-23T07:51:20.000Z</Time>
            <Position>
              <LatitudeDegrees>49.4353026710450649261474609375</LatitudeDegrees>
              <LongitudeDegrees>20.7167532853782176971435546875</LongitudeDegrees>
            </Position>
            <AltitudeMeters>373.20001220703125</AltitudeMeters>
            <DistanceMeters>NAN</DistanceMeters>
          </Trackpoint>
          <Trackpoint>
            <Time>2022-09-23T07:51:21.000Z</Time>
            <Position>
              <LatitudeDegrees>49.43532538600265979766845703125</LatitudeDegrees>
              <LongitudeDegrees>20.7168303988873958587646484375</LongitudeDegrees>
            </Position>
            <AltitudeMeters>373</AltitudeMeters>
            <DistanceMeters>NAN</DistanceMeters>
          </Trackpoint>
          <Trackpoint>
            <Time>2022-09-23T07:51:22.000Z</Time>
            <Position>
              <LatitudeDegrees>49.43534667603671550750732421875</LatitudeDegrees>
              <LongitudeDegrees>20.71691036224365234375</LongitudeDegrees>
            </Position>
            <AltitudeMeters>372.79998779296875</AltitudeMeters>
            <DistanceMeters>NAN</DistanceMeters>
          </Trackpoint>
          <Trackpoint>
            <Time>2022-09-23T07:51:23.000Z</Time>
            <Position>
              <LatitudeDegrees>49.4353717379271984100341796875</LatitudeDegrees>
              <LongitudeDegrees>20.7169963605701923370361328125</LongitudeDegrees>
            </Position>
            <AltitudeMeters>372.399993896484375</AltitudeMeters>
            <DistanceMeters>NAN</DistanceMeters>
          </Trackpoint>
          <Trackpoint>
            <Time>2022-09-23T07:51:24.000Z</Time>
            <Position>
              <LatitudeDegrees>49.43540652282536029815673828125</LatitudeDegrees>
              <LongitudeDegrees>20.71709878742694854736328125</LongitudeDegrees>
            </Position>
            <AltitudeMeters>372.20001220703125</AltitudeMeters>
            <DistanceMeters>NAN</DistanceMeters>
          </Trackpoint>
          <Trackpoint>
            <Time>2022-09-23T07:51:25.000Z</Time>
            <Position>
              <LatitudeDegrees>49.43543619476258754730224609375</LatitudeDegrees>
              <LongitudeDegrees>20.7171596400439739227294921875</LongitudeDegrees>
            </Position>
            <AltitudeMeters>372</AltitudeMeters>
            <DistanceMeters>NAN</DistanceMeters>
          </Trackpoint>
          <Trackpoint>
            <Time>2022-09-23T07:51:27.000Z</Time>
            <Position>
              <LatitudeDegrees>49.43552420474588871002197265625</LatitudeDegrees>
              <LongitudeDegrees>20.71732233278453350067138671875</LongitudeDegrees>
            </Position>
            <AltitudeMeters>371.600006103515625</AltitudeMeters>
            <DistanceMeters>NAN</DistanceMeters>
          </Trackpoint>
          <Trackpoint>
            <Time>2022-09-23T07:51:28.000Z</Time>
            <Position>
              <LatitudeDegrees>49.4355759210884571075439453125</LatitudeDegrees>
              <LongitudeDegrees>20.7174137793481349945068359375</LongitudeDegrees>
            </Position>
            <AltitudeMeters>371.399993896484375</AltitudeMeters>
            <DistanceMeters>NAN</DistanceMeters>
          </Trackpoint>
          <Trackpoint>
            <Time>2022-09-23T07:51:32.000Z</Time>
            <Position>
              <LatitudeDegrees>49.435756467282772064208984375</LatitudeDegrees>
              <LongitudeDegrees>20.7176719419658184051513671875</LongitudeDegrees>
            </Position>
            <AltitudeMeters>370.79998779296875</AltitudeMeters>
            <DistanceMeters>NAN</DistanceMeters>
          </Trackpoint>
          <Trackpoint>
            <Time>2022-09-23T07:51:34.000Z</Time>
            <Position>
              <LatitudeDegrees>49.43584254942834377288818359375</LatitudeDegrees>
              <LongitudeDegrees>20.717790462076663970947265625</LongitudeDegrees>
            </Position>
            <AltitudeMeters>370.79998779296875</AltitudeMeters>
            <DistanceMeters>NAN</DistanceMeters>
          </Trackpoint>
          <Trackpoint>
            <Time>2022-09-23T07:51:36.000Z</Time>
            <Position>
              <LatitudeDegrees>49.43593290634453296661376953125</LatitudeDegrees>
              <LongitudeDegrees>20.7179121673107147216796875</LongitudeDegrees>
            </Position>
            <AltitudeMeters>370.79998779296875</AltitudeMeters>
            <DistanceMeters>NAN</DistanceMeters>
          </Trackpoint>
          <Trackpoint>
            <Time>2022-09-23T07:51:40.000Z</Time>
            <Position>
              <LatitudeDegrees>49.43610976450145244598388671875</LatitudeDegrees>
              <LongitudeDegrees>20.71811224333941936492919921875</LongitudeDegrees>
            </Position>
            <AltitudeMeters>370.79998779296875</AltitudeMeters>
            <DistanceMeters>NAN</DistanceMeters>
          </Trackpoint>
          <Trackpoint>
            <Time>2022-09-23T07:51:44.000Z</Time>
            <Position>
              <LatitudeDegrees>49.43627187050879001617431640625</LatitudeDegrees>
              <LongitudeDegrees>20.718307457864284515380859375</LongitudeDegrees>
            </Position>
            <AltitudeMeters>370.79998779296875</AltitudeMeters>
            <DistanceMeters>NAN</DistanceMeters>
          </Trackpoint>
          <Trackpoint>
            <Time>2022-09-23T07:51:48.000Z</Time>
            <Position>
              <LatitudeDegrees>49.436438418924808502197265625</LatitudeDegrees>
              <LongitudeDegrees>20.71850468404591083526611328125</LongitudeDegrees>
            </Position>
            <AltitudeMeters>370.79998779296875</AltitudeMeters>
            <DistanceMeters>NAN</DistanceMeters>
          </Trackpoint>
          <Trackpoint>
            <Time>2022-09-23T07:51:49.000Z</Time>
            <Position>
              <LatitudeDegrees>49.4364794902503490447998046875</LatitudeDegrees>
              <LongitudeDegrees>20.71854726411402225494384765625</LongitudeDegrees>
            </Position>
            <AltitudeMeters>370.79998779296875</AltitudeMeters>
            <DistanceMeters>NAN</DistanceMeters>
          </Trackpoint>
          <Trackpoint>
            <Time>2022-09-23T07:51:56.000Z</Time>
            <Position>
              <LatitudeDegrees>49.436751566827297210693359375</LatitudeDegrees>
              <LongitudeDegrees>20.7188444025814533233642578125</LongitudeDegrees>
            </Position>
            <AltitudeMeters>370.79998779296875</AltitudeMeters>
            <DistanceMeters>NAN</DistanceMeters>
          </Trackpoint>
          <Trackpoint>
            <Time>2022-09-23T07:52:04.000Z</Time>
            <Position>
              <LatitudeDegrees>49.43703948520123958587646484375</LatitudeDegrees>
              <LongitudeDegrees>20.719182193279266357421875</LongitudeDegrees>
            </Position>
            <AltitudeMeters>370.79998779296875</AltitudeMeters>
            <DistanceMeters>NAN</DistanceMeters>
          </Trackpoint>
          <Trackpoint>
            <Time>2022-09-23T07:52:06.000Z</Time>
            <Position>
              <LatitudeDegrees>49.43711869418621063232421875</LatitudeDegrees>
              <LongitudeDegrees>20.719273388385772705078125</LongitudeDegrees>
            </Position>
            <AltitudeMeters>370.79998779296875</AltitudeMeters>
            <DistanceMeters>NAN</DistanceMeters>
          </Trackpoint>
          <Trackpoint>
            <Time>2022-09-23T07:52:13.000Z</Time>
            <Position>
              <LatitudeDegrees>49.43738398142158985137939453125</LatitudeDegrees>
              <LongitudeDegrees>20.71949961595237255096435546875</LongitudeDegrees>
            </Position>
            <AltitudeMeters>370.600006103515625</AltitudeMeters>
            <DistanceMeters>NAN</DistanceMeters>
          </Trackpoint>
          <Trackpoint>
            <Time>2022-09-23T07:52:19.000Z</Time>
            <Position>
              <LatitudeDegrees>49.43762873299419879913330078125</LatitudeDegrees>
              <LongitudeDegrees>20.71960690431296825408935546875</LongitudeDegrees>
            </Position>
            <AltitudeMeters>370.600006103515625</AltitudeMeters>
            <DistanceMeters>NAN</DistanceMeters>
          </Trackpoint>
          <Trackpoint>
            <Time>2022-09-23T07:52:20.000Z</Time>
            <Position>
              <LatitudeDegrees>49.4376693852245807647705078125</LatitudeDegrees>
              <LongitudeDegrees>20.719616711139678955078125</LongitudeDegrees>
            </Position>
            <AltitudeMeters>370.600006103515625</AltitudeMeters>
            <DistanceMeters>NAN</DistanceMeters>
          </Trackpoint>
          <Trackpoint>
            <Time>2022-09-23T07:52:23.000Z</Time>
            <Position>
              <LatitudeDegrees>49.43779083900153636932373046875</LatitudeDegrees>
              <LongitudeDegrees>20.7196323014795780181884765625</LongitudeDegrees>
            </Position>
            <AltitudeMeters>370.79998779296875</AltitudeMeters>
            <DistanceMeters>NAN</DistanceMeters>
          </Trackpoint>
          <Trackpoint>
            <Time>2022-09-23T07:52:26.000Z</Time>
            <Position>
              <LatitudeDegrees>49.4379181601107120513916015625</LatitudeDegrees>
              <LongitudeDegrees>20.7196255959570407867431640625</LongitudeDegrees>
            </Position>
            <AltitudeMeters>370.79998779296875</AltitudeMeters>
            <DistanceMeters>NAN</DistanceMeters>
          </Trackpoint>
          <Trackpoint>
            <Time>2022-09-23T07:52:27.000Z</Time>
            <Position>
              <LatitudeDegrees>49.437953531742095947265625</LatitudeDegrees>
              <LongitudeDegrees>20.7196225784718990325927734375</LongitudeDegrees>
            </Position>
            <AltitudeMeters>371</AltitudeMeters>
            <DistanceMeters>NAN</DistanceMeters>
          </Trackpoint>
          <Trackpoint>
            <Time>2022-09-23T07:52:34.000Z</Time>
            <Position>
              <LatitudeDegrees>49.43827380426228046417236328125</LatitudeDegrees>
              <LongitudeDegrees>20.71953867562115192413330078125</LongitudeDegrees>
            </Position>
            <AltitudeMeters>371</AltitudeMeters>
            <DistanceMeters>NAN</DistanceMeters>
          </Trackpoint>
          <Trackpoint>
            <Time>2022-09-23T07:52:38.000Z</Time>
            <Position>
              <LatitudeDegrees>49.43844697438180446624755859375</LatitudeDegrees>
              <LongitudeDegrees>20.71948737837374210357666015625</LongitudeDegrees>
            </Position>
            <AltitudeMeters>371.20001220703125</AltitudeMeters>
            <DistanceMeters>NAN</DistanceMeters>
          </Trackpoint>
          <Trackpoint>
            <Time>2022-09-23T07:52:42.000Z</Time>
            <Position>
              <LatitudeDegrees>49.438598938286304473876953125</LatitudeDegrees>
              <LongitudeDegrees>20.71943423710763454437255859375</LongitudeDegrees>
            </Position>
            <AltitudeMeters>371.399993896484375</AltitudeMeters>
            <DistanceMeters>NAN</DistanceMeters>
          </Trackpoint>
          <Trackpoint>
            <Time>2022-09-23T07:52:49.000Z</Time>
            <Position>
              <LatitudeDegrees>49.43884897045791149139404296875</LatitudeDegrees>
              <LongitudeDegrees>20.7193536870181560516357421875</LongitudeDegrees>
            </Position>
            <AltitudeMeters>371.399993896484375</AltitudeMeters>
            <DistanceMeters>NAN</DistanceMeters>
          </Trackpoint>
          <Trackpoint>
            <Time>2022-09-23T07:52:58.000Z</Time>
            <Position>
              <LatitudeDegrees>49.43920821882784366607666015625</LatitudeDegrees>
              <LongitudeDegrees>20.71923390962183475494384765625</LongitudeDegrees>
            </Position>
            <AltitudeMeters>371.600006103515625</AltitudeMeters>
            <DistanceMeters>NAN</DistanceMeters>
          </Trackpoint>
          <Trackpoint>
            <Time>2022-09-23T07:53:09.000Z</Time>
            <Position>
              <LatitudeDegrees>49.43962119519710540771484375</LatitudeDegrees>
              <LongitudeDegrees>20.7191300578415393829345703125</LongitudeDegrees>
            </Position>
            <AltitudeMeters>371.79998779296875</AltitudeMeters>
            <DistanceMeters>NAN</DistanceMeters>
          </Trackpoint>
          <Trackpoint>
            <Time>2022-09-23T07:53:18.000Z</Time>
            <Position>
              <LatitudeDegrees>49.4399370253086090087890625</LatitudeDegrees>
              <LongitudeDegrees>20.719029642641544342041015625</LongitudeDegrees>
            </Position>
            <AltitudeMeters>372</AltitudeMeters>
            <DistanceMeters>NAN</DistanceMeters>
          </Trackpoint>
          <Trackpoint>
            <Time>2022-09-23T07:53:25.000Z</Time>
            <Position>
              <LatitudeDegrees>49.44015185348689556121826171875</LatitudeDegrees>
              <LongitudeDegrees>20.718940459191799163818359375</LongitudeDegrees>
            </Position>
            <AltitudeMeters>372.20001220703125</AltitudeMeters>
            <DistanceMeters>NAN</DistanceMeters>
          </Trackpoint>
          <Trackpoint>
            <Time>2022-09-23T07:53:34.000Z</Time>
            <Position>
              <LatitudeDegrees>49.44046483375132083892822265625</LatitudeDegrees>
              <LongitudeDegrees>20.71883325465023517608642578125</LongitudeDegrees>
            </Position>
            <AltitudeMeters>371.79998779296875</AltitudeMeters>
            <DistanceMeters>NAN</DistanceMeters>
          </Trackpoint>
          <Trackpoint>
            <Time>2022-09-23T07:53:35.000Z</Time>
            <Position>
              <LatitudeDegrees>49.44050523452460765838623046875</LatitudeDegrees>
              <LongitudeDegrees>20.71882386691868305206298828125</LongitudeDegrees>
            </Position>
            <AltitudeMeters>371.79998779296875</AltitudeMeters>
            <DistanceMeters>NAN</DistanceMeters>
          </Trackpoint>
          <Trackpoint>
            <Time>2022-09-23T07:53:36.000Z</Time>
            <Position>
              <LatitudeDegrees>49.4405561126768589019775390625</LatitudeDegrees>
              <LongitudeDegrees>20.718813724815845489501953125</LongitudeDegrees>
            </Position>
            <AltitudeMeters>371.600006103515625</AltitudeMeters>
            <DistanceMeters>NAN</DistanceMeters>
          </Trackpoint>
          <Trackpoint>
            <Time>2022-09-23T07:53:40.000Z</Time>
            <Position>
              <LatitudeDegrees>49.44072492420673370361328125</LatitudeDegrees>
              <LongitudeDegrees>20.71879033930599689483642578125</LongitudeDegrees>
            </Position>
            <AltitudeMeters>371</AltitudeMeters>
            <DistanceMeters>NAN</DistanceMeters>
          </Trackpoint>
          <Trackpoint>
            <Time>2022-09-23T07:53:43.000Z</Time>
            <Position>
              <LatitudeDegrees>49.4408662430942058563232421875</LatitudeDegrees>
              <LongitudeDegrees>20.7188102044165134429931640625</LongitudeDegrees>
            </Position>
            <AltitudeMeters>370.600006103515625</AltitudeMeters>
            <DistanceMeters>NAN</DistanceMeters>
          </Trackpoint>
          <Trackpoint>
            <Time>2022-09-23T07:53:44.000Z</Time>
            <Position>
              <LatitudeDegrees>49.440911673009395599365234375</LatitudeDegrees>
              <LongitudeDegrees>20.71881112642586231231689453125</LongitudeDegrees>
            </Position>
            <AltitudeMeters>370.600006103515625</AltitudeMeters>
            <DistanceMeters>NAN</DistanceMeters>
          </Trackpoint>
          <Trackpoint>
            <Time>2022-09-23T07:53:49.000Z</Time>
            <Position>
              <LatitudeDegrees>49.4411247409880161285400390625</LatitudeDegrees>
              <LongitudeDegrees>20.718823783099651336669921875</LongitudeDegrees>
            </Position>
            <AltitudeMeters>370.399993896484375</AltitudeMeters>
            <DistanceMeters>NAN</DistanceMeters>
          </Trackpoint>
          <Trackpoint>
            <Time>2022-09-23T07:53:52.000Z</Time>
            <Position>
              <LatitudeDegrees>49.44124887697398662567138671875</LatitudeDegrees>
              <LongitudeDegrees>20.7188370265066623687744140625</LongitudeDegrees>
            </Position>
            <AltitudeMeters>370.399993896484375</AltitudeMeters>
            <DistanceMeters>NAN</DistanceMeters>
          </Trackpoint>
          <Trackpoint>
            <Time>2022-09-23T07:53:55.000Z</Time>
            <Position>
              <LatitudeDegrees>49.44137041456997394561767578125</LatitudeDegrees>
              <LongitudeDegrees>20.7188444025814533233642578125</LongitudeDegrees>
            </Position>
            <AltitudeMeters>370.399993896484375</AltitudeMeters>
            <DistanceMeters>NAN</DistanceMeters>
          </Trackpoint>
          <Trackpoint>
            <Time>2022-09-23T07:54:00.000Z</Time>
            <Position>
              <LatitudeDegrees>49.441581554710865020751953125</LatitudeDegrees>
              <LongitudeDegrees>20.71887516416609287261962890625</LongitudeDegrees>
            </Position>
            <AltitudeMeters>370</AltitudeMeters>
            <DistanceMeters>NAN</DistanceMeters>
          </Trackpoint>
          <Trackpoint>
            <Time>2022-09-23T07:54:07.000Z</Time>
            <Position>
              <LatitudeDegrees>49.4418532960116863250732421875</LatitudeDegrees>
              <LongitudeDegrees>20.718908272683620452880859375</LongitudeDegrees>
            </Position>
            <AltitudeMeters>370</AltitudeMeters>
            <DistanceMeters>NAN</DistanceMeters>
          </Trackpoint>
          <Trackpoint>
            <Time>2022-09-23T07:54:14.000Z</Time>
            <Position>
              <LatitudeDegrees>49.44209192879498004913330078125</LatitudeDegrees>
              <LongitudeDegrees>20.71895663626492023468017578125</LongitudeDegrees>
            </Position>
            <AltitudeMeters>370.20001220703125</AltitudeMeters>
            <DistanceMeters>NAN</DistanceMeters>
          </Trackpoint>
          <Trackpoint>
            <Time>2022-09-23T07:54:22.000Z</Time>
            <Position>
              <LatitudeDegrees>49.44236635230481624603271484375</LatitudeDegrees>
              <LongitudeDegrees>20.7190038263797760009765625</LongitudeDegrees>
            </Position>
            <AltitudeMeters>370.20001220703125</AltitudeMeters>
            <DistanceMeters>NAN</DistanceMeters>
          </Trackpoint>
          <Trackpoint>
            <Time>2022-09-23T07:54:30.000Z</Time>
            <Position>
              <LatitudeDegrees>49.44261680357158184051513671875</LatitudeDegrees>
              <LongitudeDegrees>20.71907549165189266204833984375</LongitudeDegrees>
            </Position>
            <AltitudeMeters>369.79998779296875</AltitudeMeters>
            <DistanceMeters>NAN</DistanceMeters>
          </Trackpoint>
          <Trackpoint>
            <Time>2022-09-23T07:54:38.000Z</Time>
            <Position>
              <LatitudeDegrees>49.4428745470941066741943359375</LatitudeDegrees>
              <LongitudeDegrees>20.71917322464287281036376953125</LongitudeDegrees>
            </Position>
            <AltitudeMeters>369.79998779296875</AltitudeMeters>
            <DistanceMeters>NAN</DistanceMeters>
          </Trackpoint>
          <Trackpoint>
            <Time>2022-09-23T07:54:46.000Z</Time>
            <Position>
              <LatitudeDegrees>49.4431182928383350372314453125</LatitudeDegrees>
              <LongitudeDegrees>20.7192500866949558258056640625</LongitudeDegrees>
            </Position>
            <AltitudeMeters>369.600006103515625</AltitudeMeters>
            <DistanceMeters>NAN</DistanceMeters>
          </Trackpoint>
          <Trackpoint>
            <Time>2022-09-23T07:54:51.000Z</Time>
            <Position>
              <LatitudeDegrees>49.44326505996286869049072265625</LatitudeDegrees>
              <LongitudeDegrees>20.7193080894649028778076171875</LongitudeDegrees>
            </Position>
            <AltitudeMeters>369.600006103515625</AltitudeMeters>
            <DistanceMeters>NAN</DistanceMeters>
          </Trackpoint>
          <Trackpoint>
            <Time>2022-09-23T07:54:54.000Z</Time>
            <Position>
              <LatitudeDegrees>49.44335491396486759185791015625</LatitudeDegrees>
              <LongitudeDegrees>20.719330720603466033935546875</LongitudeDegrees>
            </Position>
            <AltitudeMeters>369.600006103515625</AltitudeMeters>
            <DistanceMeters>NAN</DistanceMeters>
          </Trackpoint>
          <Trackpoint>
            <Time>2022-09-23T07:54:56.000Z</Time>
            <Position>
              <LatitudeDegrees>49.4434136711061000823974609375</LatitudeDegrees>
              <LongitudeDegrees>20.71933801285922527313232421875</LongitudeDegrees>
            </Position>
            <AltitudeMeters>369.600006103515625</AltitudeMeters>
            <DistanceMeters>NAN</DistanceMeters>
          </Trackpoint>
          <Trackpoint>
            <Time>2022-09-23T07:55:04.000Z</Time>
            <Position>
              <LatitudeDegrees>49.443662278354167938232421875</LatitudeDegrees>
              <LongitudeDegrees>20.71932879276573657989501953125</LongitudeDegrees>
            </Position>
            <AltitudeMeters>369.600006103515625</AltitudeMeters>
            <DistanceMeters>NAN</DistanceMeters>
          </Trackpoint>
          <Trackpoint>
            <Time>2022-09-23T07:55:11.000Z</Time>
            <Position>
              <LatitudeDegrees>49.44384642876684665679931640625</LatitudeDegrees>
              <LongitudeDegrees>20.7193090952932834625244140625</LongitudeDegrees>
            </Position>
            <AltitudeMeters>369.600006103515625</AltitudeMeters>
            <DistanceMeters>NAN</DistanceMeters>
          </Trackpoint>
          <Trackpoint>
            <Time>2022-09-23T07:55:21.000Z</Time>
            <Position>
              <LatitudeDegrees>49.44412370212376117706298828125</LatitudeDegrees>
              <LongitudeDegrees>20.71925603784620761871337890625</LongitudeDegrees>
            </Position>
            <AltitudeMeters>369.399993896484375</AltitudeMeters>
            <DistanceMeters>NAN</DistanceMeters>
          </Trackpoint>
          <Trackpoint>
            <Time>2022-09-23T07:55:30.000Z</Time>
            <Position>
              <LatitudeDegrees>49.444374404847621917724609375</LatitudeDegrees>
              <LongitudeDegrees>20.71920557878911495208740234375</LongitudeDegrees>
            </Position>
            <AltitudeMeters>369.600006103515625</AltitudeMeters>
            <DistanceMeters>NAN</DistanceMeters>
          </Trackpoint>
          <Trackpoint>
            <Time>2022-09-23T07:55:39.000Z</Time>
            <Position>
              <LatitudeDegrees>49.4445904903113842010498046875</LatitudeDegrees>
              <LongitudeDegrees>20.7191578857600688934326171875</LongitudeDegrees>
            </Position>
            <AltitudeMeters>369.600006103515625</AltitudeMeters>
            <DistanceMeters>NAN</DistanceMeters>
          </Trackpoint>
          <Trackpoint>
            <Time>2022-09-23T07:55:42.000Z</Time>
            <Position>
              <LatitudeDegrees>49.44466282613575458526611328125</LatitudeDegrees>
              <LongitudeDegrees>20.71914724074304103851318359375</LongitudeDegrees>
            </Position>
            <AltitudeMeters>369.600006103515625</AltitudeMeters>
            <DistanceMeters>NAN</DistanceMeters>
          </Trackpoint>
          <Trackpoint>
            <Time>2022-09-23T07:55:48.000Z</Time>
            <Position>
              <LatitudeDegrees>49.44481722079217433929443359375</LatitudeDegrees>
              <LongitudeDegrees>20.71912092156708240509033203125</LongitudeDegrees>
            </Position>
            <AltitudeMeters>369.399993896484375</AltitudeMeters>
            <DistanceMeters>NAN</DistanceMeters>
          </Trackpoint>
          <Trackpoint>
            <Time>2022-09-23T07:55:51.000Z</Time>
            <Position>
              <LatitudeDegrees>49.44488511420786380767822265625</LatitudeDegrees>
              <LongitudeDegrees>20.71910717524588108062744140625</LongitudeDegrees>
            </Position>
            <AltitudeMeters>369.20001220703125</AltitudeMeters>
            <DistanceMeters>NAN</DistanceMeters>
          </Trackpoint>
          <Trackpoint>
            <Time>2022-09-23T07:55:56.000Z</Time>
            <Position>
              <LatitudeDegrees>49.4450010359287261962890625</LatitudeDegrees>
              <LongitudeDegrees>20.7190844602882862091064453125</LongitudeDegrees>
            </Position>
            <AltitudeMeters>369.20001220703125</AltitudeMeters>
            <DistanceMeters>NAN</DistanceMeters>
          </Trackpoint>
          <Trackpoint>
            <Time>2022-09-23T07:56:04.000Z</Time>
            <Position>
              <LatitudeDegrees>49.44518166594207286834716796875</LatitudeDegrees>
              <LongitudeDegrees>20.71903710253536701202392578125</LongitudeDegrees>
            </Position>
            <AltitudeMeters>369.20001220703125</AltitudeMeters>
            <DistanceMeters>NAN</DistanceMeters>
          </Trackpoint>
          <Trackpoint>
            <Time>2022-09-23T07:56:13.000Z</Time>
            <Position>
              <LatitudeDegrees>49.44537377916276454925537109375</LatitudeDegrees>
              <LongitudeDegrees>20.71893199346959590911865234375</LongitudeDegrees>
            </Position>
            <AltitudeMeters>369.20001220703125</AltitudeMeters>
            <DistanceMeters>NAN</DistanceMeters>
          </Trackpoint>
          <Trackpoint>
            <Time>2022-09-23T07:56:20.000Z</Time>
            <Position>
              <LatitudeDegrees>49.4454824924468994140625</LatitudeDegrees>
              <LongitudeDegrees>20.7188598252832889556884765625</LongitudeDegrees>
            </Position>
            <AltitudeMeters>369.20001220703125</AltitudeMeters>
            <DistanceMeters>NAN</DistanceMeters>
          </Trackpoint>
          <Trackpoint>
            <Time>2022-09-23T07:56:24.000Z</Time>
            <Position>
              <LatitudeDegrees>49.4454824924468994140625</LatitudeDegrees>
              <LongitudeDegrees>20.71885974146425724029541015625</LongitudeDegrees>
            </Position>
            <AltitudeMeters>369.20001220703125</AltitudeMeters>
            <DistanceMeters>NAN</DistanceMeters>
          </Trackpoint>
          <Trackpoint>
            <Time>2022-09-23T07:56:29.000Z</Time>
            <Position>
              <LatitudeDegrees>49.4454824924468994140625</LatitudeDegrees>
              <LongitudeDegrees>20.71885974146425724029541015625</LongitudeDegrees>
            </Position>
            <AltitudeMeters>369.20001220703125</AltitudeMeters>
            <DistanceMeters>NAN</DistanceMeters>
          </Trackpoint>
          <Trackpoint>
            <Time>2022-09-23T07:56:42.000Z</Time>
            <Position>
              <LatitudeDegrees>49.4454824924468994140625</LatitudeDegrees>
              <LongitudeDegrees>20.71885974146425724029541015625</LongitudeDegrees>
            </Position>
            <AltitudeMeters>369.20001220703125</AltitudeMeters>
            <DistanceMeters>NAN</DistanceMeters>
          </Trackpoint>
          <Trackpoint>
            <Time>2022-09-23T07:56:52.000Z</Time>
            <Position>
              <LatitudeDegrees>49.4454838335514068603515625</LatitudeDegrees>
              <LongitudeDegrees>20.71885655634105205535888671875</LongitudeDegrees>
            </Position>
            <AltitudeMeters>368.79998779296875</AltitudeMeters>
            <DistanceMeters>NAN</DistanceMeters>
          </Trackpoint>
          <Trackpoint>
            <Time>2022-09-23T07:56:55.000Z</Time>
            <Position>
              <LatitudeDegrees>49.44552565924823284149169921875</LatitudeDegrees>
              <LongitudeDegrees>20.7187890820205211639404296875</LongitudeDegrees>
            </Position>
            <AltitudeMeters>368.79998779296875</AltitudeMeters>
            <DistanceMeters>NAN</DistanceMeters>
          </Trackpoint>
          <Trackpoint>
            <Time>2022-09-23T07:57:01.000Z</Time>
            <Position>
              <LatitudeDegrees>49.44564820267260074615478515625</LatitudeDegrees>
              <LongitudeDegrees>20.71865220554172992706298828125</LongitudeDegrees>
            </Position>
            <AltitudeMeters>368.79998779296875</AltitudeMeters>
            <DistanceMeters>NAN</DistanceMeters>
          </Trackpoint>
          <Trackpoint>
            <Time>2022-09-23T07:57:04.000Z</Time>
            <Position>
              <LatitudeDegrees>49.4457217119634151458740234375</LatitudeDegrees>
              <LongitudeDegrees>20.718570314347743988037109375</LongitudeDegrees>
            </Position>
            <AltitudeMeters>368.600006103515625</AltitudeMeters>
            <DistanceMeters>NAN</DistanceMeters>
          </Trackpoint>
          <Trackpoint>
            <Time>2022-09-23T07:57:05.000Z</Time>
            <Position>
              <LatitudeDegrees>49.44574342109262943267822265625</LatitudeDegrees>
              <LongitudeDegrees>20.71854307316243648529052734375</LongitudeDegrees>
            </Position>
            <AltitudeMeters>368.600006103515625</AltitudeMeters>
            <DistanceMeters>NAN</DistanceMeters>
          </Trackpoint>
          <Trackpoint>
            <Time>2022-09-23T07:57:08.000Z</Time>
            <Position>
              <LatitudeDegrees>49.44581441581249237060546875</LatitudeDegrees>
              <LongitudeDegrees>20.71846394799649715423583984375</LongitudeDegrees>
            </Position>
            <AltitudeMeters>368.399993896484375</AltitudeMeters>
            <DistanceMeters>NAN</DistanceMeters>
          </Trackpoint>
          <Trackpoint>
            <Time>2022-09-23T07:57:15.000Z</Time>
            <Position>
              <LatitudeDegrees>49.44597375579178333282470703125</LatitudeDegrees>
              <LongitudeDegrees>20.71828457526862621307373046875</LongitudeDegrees>
            </Position>
            <AltitudeMeters>368.20001220703125</AltitudeMeters>
            <DistanceMeters>NAN</DistanceMeters>
          </Trackpoint>
          <Trackpoint>
            <Time>2022-09-23T07:57:20.000Z</Time>
            <Position>
              <LatitudeDegrees>49.446079619228839874267578125</LatitudeDegrees>
              <LongitudeDegrees>20.71815884672105312347412109375</LongitudeDegrees>
            </Position>
            <AltitudeMeters>368</AltitudeMeters>
            <DistanceMeters>NAN</DistanceMeters>
          </Trackpoint>
          <Trackpoint>
            <Time>2022-09-23T07:57:22.000Z</Time>
            <Position>
              <LatitudeDegrees>49.44612446241080760955810546875</LatitudeDegrees>
              <LongitudeDegrees>20.71810788474977016448974609375</LongitudeDegrees>
            </Position>
            <AltitudeMeters>368</AltitudeMeters>
            <DistanceMeters>NAN</DistanceMeters>
          </Trackpoint>
          <Trackpoint>
            <Time>2022-09-23T07:57:29.000Z</Time>
            <Position>
              <LatitudeDegrees>49.446314312517642974853515625</LatitudeDegrees>
              <LongitudeDegrees>20.71789984591305255889892578125</LongitudeDegrees>
            </Position>
            <AltitudeMeters>367.79998779296875</AltitudeMeters>
            <DistanceMeters>NAN</DistanceMeters>
          </Trackpoint>
          <Trackpoint>
            <Time>2022-09-23T07:57:35.000Z</Time>
            <Position>
              <LatitudeDegrees>49.44647717289626598358154296875</LatitudeDegrees>
              <LongitudeDegrees>20.7177383266389369964599609375</LongitudeDegrees>
            </Position>
            <AltitudeMeters>367.600006103515625</AltitudeMeters>
            <DistanceMeters>NAN</DistanceMeters>
          </Trackpoint>
          <Trackpoint>
            <Time>2022-09-23T07:57:39.000Z</Time>
            <Position>
              <LatitudeDegrees>49.44658094085752964019775390625</LatitudeDegrees>
              <LongitudeDegrees>20.7176296971738338470458984375</LongitudeDegrees>
            </Position>
            <AltitudeMeters>367.399993896484375</AltitudeMeters>
            <DistanceMeters>NAN</DistanceMeters>
          </Trackpoint>
          <Trackpoint>
            <Time>2022-09-23T07:57:49.000Z</Time>
            <Position>
              <LatitudeDegrees>49.446827955543994903564453125</LatitudeDegrees>
              <LongitudeDegrees>20.7173654995858669281005859375</LongitudeDegrees>
            </Position>
            <AltitudeMeters>367.20001220703125</AltitudeMeters>
            <DistanceMeters>NAN</DistanceMeters>
          </Trackpoint>
          <Trackpoint>
            <Time>2022-09-23T07:57:51.000Z</Time>
            <Position>
              <LatitudeDegrees>49.44687916897237300872802734375</LatitudeDegrees>
              <LongitudeDegrees>20.7173031382262706756591796875</LongitudeDegrees>
            </Position>
            <AltitudeMeters>367</AltitudeMeters>
            <DistanceMeters>NAN</DistanceMeters>
          </Trackpoint>
          <Trackpoint>
            <Time>2022-09-23T07:57:56.000Z</Time>
            <Position>
              <LatitudeDegrees>49.44700120948255062103271484375</LatitudeDegrees>
              <LongitudeDegrees>20.717189647257328033447265625</LongitudeDegrees>
            </Position>
            <AltitudeMeters>366.79998779296875</AltitudeMeters>
            <DistanceMeters>NAN</DistanceMeters>
          </Trackpoint>
          <Trackpoint>
            <Time>2022-09-23T07:57:58.000Z</Time>
            <Position>
              <LatitudeDegrees>49.4470527581870555877685546875</LatitudeDegrees>
              <LongitudeDegrees>20.7171184010803699493408203125</LongitudeDegrees>
            </Position>
            <AltitudeMeters>366.79998779296875</AltitudeMeters>
            <DistanceMeters>NAN</DistanceMeters>
          </Trackpoint>
          <Trackpoint>
            <Time>2022-09-23T07:58:03.000Z</Time>
            <Position>
              <LatitudeDegrees>49.44716566242277622222900390625</LatitudeDegrees>
              <LongitudeDegrees>20.71696274913847446441650390625</LongitudeDegrees>
            </Position>
            <AltitudeMeters>366.399993896484375</AltitudeMeters>
            <DistanceMeters>NAN</DistanceMeters>
          </Trackpoint>
          <Trackpoint>
            <Time>2022-09-23T07:58:05.000Z</Time>
            <Position>
              <LatitudeDegrees>49.44720639847218990325927734375</LatitudeDegrees>
              <LongitudeDegrees>20.71689167059957981109619140625</LongitudeDegrees>
            </Position>
            <AltitudeMeters>366.399993896484375</AltitudeMeters>
            <DistanceMeters>NAN</DistanceMeters>
          </Trackpoint>
          <Trackpoint>
            <Time>2022-09-23T07:58:11.000Z</Time>
            <Position>
              <LatitudeDegrees>49.44731217809021472930908203125</LatitudeDegrees>
              <LongitudeDegrees>20.71668346412479877471923828125</LongitudeDegrees>
            </Position>
            <AltitudeMeters>366.399993896484375</AltitudeMeters>
            <DistanceMeters>NAN</DistanceMeters>
          </Trackpoint>
          <Trackpoint>
            <Time>2022-09-23T07:58:18.000Z</Time>
            <Position>
              <LatitudeDegrees>49.44737219251692295074462890625</LatitudeDegrees>
              <LongitudeDegrees>20.71638724766671657562255859375</LongitudeDegrees>
            </Position>
            <AltitudeMeters>366.20001220703125</AltitudeMeters>
            <DistanceMeters>NAN</DistanceMeters>
          </Trackpoint>
          <Trackpoint>
            <Time>2022-09-23T07:58:27.000Z</Time>
            <Position>
              <LatitudeDegrees>49.44737135432660579681396484375</LatitudeDegrees>
              <LongitudeDegrees>20.715969912707805633544921875</LongitudeDegrees>
            </Position>
            <AltitudeMeters>366</AltitudeMeters>
            <DistanceMeters>NAN</DistanceMeters>
          </Trackpoint>
          <Trackpoint>
            <Time>2022-09-23T07:58:34.000Z</Time>
            <Position>
              <LatitudeDegrees>49.447373449802398681640625</LatitudeDegrees>
              <LongitudeDegrees>20.71563656441867351531982421875</LongitudeDegrees>
            </Position>
            <AltitudeMeters>365.79998779296875</AltitudeMeters>
            <DistanceMeters>NAN</DistanceMeters>
          </Trackpoint>
          <Trackpoint>
            <Time>2022-09-23T07:58:36.000Z</Time>
            <Position>
              <LatitudeDegrees>49.44738040678203105926513671875</LatitudeDegrees>
              <LongitudeDegrees>20.715540088713169097900390625</LongitudeDegrees>
            </Position>
            <AltitudeMeters>365.600006103515625</AltitudeMeters>
            <DistanceMeters>NAN</DistanceMeters>
          </Trackpoint>
          <Trackpoint>
            <Time>2022-09-23T07:58:41.000Z</Time>
            <Position>
              <LatitudeDegrees>49.44737772457301616668701171875</LatitudeDegrees>
              <LongitudeDegrees>20.71529743261635303497314453125</LongitudeDegrees>
            </Position>
            <AltitudeMeters>365.399993896484375</AltitudeMeters>
            <DistanceMeters>NAN</DistanceMeters>
          </Trackpoint>
          <Trackpoint>
            <Time>2022-09-23T07:58:43.000Z</Time>
            <Position>
              <LatitudeDegrees>49.4473903812468051910400390625</LatitudeDegrees>
              <LongitudeDegrees>20.71519115008413791656494140625</LongitudeDegrees>
            </Position>
            <AltitudeMeters>365.399993896484375</AltitudeMeters>
            <DistanceMeters>NAN</DistanceMeters>
          </Trackpoint>
          <Trackpoint>
            <Time>2022-09-23T07:58:44.000Z</Time>
            <Position>
              <LatitudeDegrees>49.44739968515932559967041015625</LatitudeDegrees>
              <LongitudeDegrees>20.7151439599692821502685546875</LongitudeDegrees>
            </Position>
            <AltitudeMeters>365.399993896484375</AltitudeMeters>
            <DistanceMeters>NAN</DistanceMeters>
          </Trackpoint>
          <Trackpoint>
            <Time>2022-09-23T07:58:52.000Z</Time>
            <Position>
              <LatitudeDegrees>49.44748987443745136260986328125</LatitudeDegrees>
              <LongitudeDegrees>20.7148153893649578094482421875</LongitudeDegrees>
            </Position>
            <AltitudeMeters>365.600006103515625</AltitudeMeters>
            <DistanceMeters>NAN</DistanceMeters>
          </Trackpoint>
          <Trackpoint>
            <Time>2022-09-23T07:59:01.000Z</Time>
            <Position>
              <LatitudeDegrees>49.44759431295096874237060546875</LatitudeDegrees>
              <LongitudeDegrees>20.71440853178501129150390625</LongitudeDegrees>
            </Position>
            <AltitudeMeters>365.600006103515625</AltitudeMeters>
            <DistanceMeters>NAN</DistanceMeters>
          </Trackpoint>
          <Trackpoint>
            <Time>2022-09-23T07:59:03.000Z</Time>
            <Position>
              <LatitudeDegrees>49.44762214086949825286865234375</LatitudeDegrees>
              <LongitudeDegrees>20.7143188454210758209228515625</LongitudeDegrees>
            </Position>
            <AltitudeMeters>365.79998779296875</AltitudeMeters>
            <DistanceMeters>NAN</DistanceMeters>
          </Trackpoint>
          <Trackpoint>
            <Time>2022-09-23T07:59:04.000Z</Time>
            <Position>
              <LatitudeDegrees>49.44763555191457271575927734375</LatitudeDegrees>
              <LongitudeDegrees>20.71427132003009319305419921875</LongitudeDegrees>
            </Position>
            <AltitudeMeters>365.79998779296875</AltitudeMeters>
            <DistanceMeters>NAN</DistanceMeters>
          </Trackpoint>
          <Trackpoint>
            <Time>2022-09-23T07:59:09.000Z</Time>
            <Position>
              <LatitudeDegrees>49.4476958177983760833740234375</LatitudeDegrees>
              <LongitudeDegrees>20.71404081769287586212158203125</LongitudeDegrees>
            </Position>
            <AltitudeMeters>365.79998779296875</AltitudeMeters>
            <DistanceMeters>NAN</DistanceMeters>
          </Trackpoint>
          <Trackpoint>
            <Time>2022-09-23T07:59:10.000Z</Time>
            <Position>
              <LatitudeDegrees>49.4477095641195774078369140625</LatitudeDegrees>
              <LongitudeDegrees>20.71399203501641750335693359375</LongitudeDegrees>
            </Position>
            <AltitudeMeters>366</AltitudeMeters>
            <DistanceMeters>NAN</DistanceMeters>
          </Trackpoint>
          <Trackpoint>
            <Time>2022-09-23T07:59:11.000Z</Time>
            <Position>
              <LatitudeDegrees>49.447725825011730194091796875</LatitudeDegrees>
              <LongitudeDegrees>20.71394761092960834503173828125</LongitudeDegrees>
            </Position>
            <AltitudeMeters>365.79998779296875</AltitudeMeters>
            <DistanceMeters>NAN</DistanceMeters>
          </Trackpoint>
          <Trackpoint>
            <Time>2022-09-23T07:59:12.000Z</Time>
            <Position>
              <LatitudeDegrees>49.44774250499904155731201171875</LatitudeDegrees>
              <LongitudeDegrees>20.71390184573829174041748046875</LongitudeDegrees>
            </Position>
            <AltitudeMeters>365.79998779296875</AltitudeMeters>
            <DistanceMeters>NAN</DistanceMeters>
          </Trackpoint>
          <Trackpoint>
            <Time>2022-09-23T07:59:17.000Z</Time>
            <Position>
              <LatitudeDegrees>49.44780168123543262481689453125</LatitudeDegrees>
              <LongitudeDegrees>20.71367402561008930206298828125</LongitudeDegrees>
            </Position>
            <AltitudeMeters>366</AltitudeMeters>
            <DistanceMeters>NAN</DistanceMeters>
          </Trackpoint>
          <Trackpoint>
            <Time>2022-09-23T07:59:22.000Z</Time>
            <Position>
              <LatitudeDegrees>49.447848536074161529541015625</LatitudeDegrees>
              <LongitudeDegrees>20.71347001008689403533935546875</LongitudeDegrees>
            </Position>
            <AltitudeMeters>366</AltitudeMeters>
            <DistanceMeters>NAN</DistanceMeters>
          </Trackpoint>
          <Trackpoint>
            <Time>2022-09-23T07:59:31.000Z</Time>
            <Position>
              <LatitudeDegrees>49.44795171730220317840576171875</LatitudeDegrees>
              <LongitudeDegrees>20.71309567429125308990478515625</LongitudeDegrees>
            </Position>
            <AltitudeMeters>366.399993896484375</AltitudeMeters>
            <DistanceMeters>NAN</DistanceMeters>
          </Trackpoint>
          <Trackpoint>
            <Time>2022-09-23T07:59:33.000Z</Time>
            <Position>
              <LatitudeDegrees>49.44797317497432231903076171875</LatitudeDegrees>
              <LongitudeDegrees>20.71302115917205810546875</LongitudeDegrees>
            </Position>
            <AltitudeMeters>366.399993896484375</AltitudeMeters>
            <DistanceMeters>NAN</DistanceMeters>
          </Trackpoint>
          <Trackpoint>
            <Time>2022-09-23T07:59:39.000Z</Time>
            <Position>
              <LatitudeDegrees>49.44804333150386810302734375</LatitudeDegrees>
              <LongitudeDegrees>20.7127623260021209716796875</LongitudeDegrees>
            </Position>
            <AltitudeMeters>366.600006103515625</AltitudeMeters>
            <DistanceMeters>NAN</DistanceMeters>
          </Trackpoint>
          <Trackpoint>
            <Time>2022-09-23T07:59:40.000Z</Time>
            <Position>
              <LatitudeDegrees>49.44805665872991085052490234375</LatitudeDegrees>
              <LongitudeDegrees>20.71272385306656360626220703125</LongitudeDegrees>
            </Position>
            <AltitudeMeters>366.600006103515625</AltitudeMeters>
            <DistanceMeters>NAN</DistanceMeters>
          </Trackpoint>
          <Trackpoint>
            <Time>2022-09-23T07:59:49.000Z</Time>
            <Position>
              <LatitudeDegrees>49.44814953021705150604248046875</LatitudeDegrees>
              <LongitudeDegrees>20.712392516434192657470703125</LongitudeDegrees>
            </Position>
            <AltitudeMeters>366.79998779296875</AltitudeMeters>
            <DistanceMeters>NAN</DistanceMeters>
          </Trackpoint>
          <Trackpoint>
            <Time>2022-09-23T07:59:55.000Z</Time>
            <Position>
              <LatitudeDegrees>49.44820367731153964996337890625</LatitudeDegrees>
              <LongitudeDegrees>20.71219864301383495330810546875</LongitudeDegrees>
            </Position>
            <AltitudeMeters>367</AltitudeMeters>
            <DistanceMeters>NAN</DistanceMeters>
          </Trackpoint>
          <Trackpoint>
            <Time>2022-09-23T07:59:57.000Z</Time>
            <Position>
              <LatitudeDegrees>49.4482185132801532745361328125</LatitudeDegrees>
              <LongitudeDegrees>20.71213066577911376953125</LongitudeDegrees>
            </Position>
            <AltitudeMeters>367</AltitudeMeters>
            <DistanceMeters>NAN</DistanceMeters>
          </Trackpoint>
          <Trackpoint>
            <Time>2022-09-23T08:00:05.000Z</Time>
            <Position>
              <LatitudeDegrees>49.44827810861170291900634765625</LatitudeDegrees>
              <LongitudeDegrees>20.71188163943588733673095703125</LongitudeDegrees>
            </Position>
            <AltitudeMeters>367</AltitudeMeters>
            <DistanceMeters>NAN</DistanceMeters>
          </Trackpoint>
          <Trackpoint>
            <Time>2022-09-23T08:00:11.000Z</Time>
            <Position>
              <LatitudeDegrees>49.44831834174692630767822265625</LatitudeDegrees>
              <LongitudeDegrees>20.71171215735375881195068359375</LongitudeDegrees>
            </Position>
            <AltitudeMeters>367</AltitudeMeters>
            <DistanceMeters>NAN</DistanceMeters>
          </Trackpoint>
          <Trackpoint>
            <Time>2022-09-23T08:00:13.000Z</Time>
            <Position>
              <LatitudeDegrees>49.44832655601203441619873046875</LatitudeDegrees>
              <LongitudeDegrees>20.71166320703923702239990234375</LongitudeDegrees>
            </Position>
            <AltitudeMeters>367.20001220703125</AltitudeMeters>
            <DistanceMeters>NAN</DistanceMeters>
          </Trackpoint>
          <Trackpoint>
            <Time>2022-09-23T08:00:19.000Z</Time>
            <Position>
              <LatitudeDegrees>49.44832990877330303192138671875</LatitudeDegrees>
              <LongitudeDegrees>20.71163286454975605010986328125</LongitudeDegrees>
            </Position>
            <AltitudeMeters>367.399993896484375</AltitudeMeters>
            <DistanceMeters>NAN</DistanceMeters>
          </Trackpoint>
          <Trackpoint>
            <Time>2022-09-23T08:00:24.000Z</Time>
            <Position>
              <LatitudeDegrees>49.44832990877330303192138671875</LatitudeDegrees>
              <LongitudeDegrees>20.71163286454975605010986328125</LongitudeDegrees>
            </Position>
            <AltitudeMeters>367.399993896484375</AltitudeMeters>
            <DistanceMeters>NAN</DistanceMeters>
          </Trackpoint>
          <Trackpoint>
            <Time>2022-09-23T08:00:29.000Z</Time>
            <Position>
              <LatitudeDegrees>49.44832990877330303192138671875</LatitudeDegrees>
              <LongitudeDegrees>20.71163286454975605010986328125</LongitudeDegrees>
            </Position>
            <AltitudeMeters>367.399993896484375</AltitudeMeters>
            <DistanceMeters>NAN</DistanceMeters>
          </Trackpoint>
          <Trackpoint>
            <Time>2022-09-23T08:00:34.000Z</Time>
            <Position>
              <LatitudeDegrees>49.44832990877330303192138671875</LatitudeDegrees>
              <LongitudeDegrees>20.71163286454975605010986328125</LongitudeDegrees>
            </Position>
            <AltitudeMeters>367.399993896484375</AltitudeMeters>
            <DistanceMeters>NAN</DistanceMeters>
          </Trackpoint>
          <Trackpoint>
            <Time>2022-09-23T08:00:36.000Z</Time>
            <Position>
              <LatitudeDegrees>49.44832990877330303192138671875</LatitudeDegrees>
              <LongitudeDegrees>20.71163286454975605010986328125</LongitudeDegrees>
            </Position>
            <AltitudeMeters>367.399993896484375</AltitudeMeters>
            <DistanceMeters>NAN</DistanceMeters>
          </Trackpoint>
          <Trackpoint>
            <Time>2022-09-23T08:00:38.000Z</Time>
            <Position>
              <LatitudeDegrees>49.44832990877330303192138671875</LatitudeDegrees>
              <LongitudeDegrees>20.71163286454975605010986328125</LongitudeDegrees>
            </Position>
            <AltitudeMeters>367.399993896484375</AltitudeMeters>
            <DistanceMeters>NAN</DistanceMeters>
          </Trackpoint>
          <Trackpoint>
            <Time>2022-09-23T08:00:45.000Z</Time>
            <Position>
              <LatitudeDegrees>49.44832990877330303192138671875</LatitudeDegrees>
              <LongitudeDegrees>20.71163286454975605010986328125</LongitudeDegrees>
            </Position>
            <AltitudeMeters>367.399993896484375</AltitudeMeters>
            <DistanceMeters>NAN</DistanceMeters>
          </Trackpoint>
          <Trackpoint>
            <Time>2022-09-23T08:00:51.000Z</Time>
            <Position>
              <LatitudeDegrees>49.44832990877330303192138671875</LatitudeDegrees>
              <LongitudeDegrees>20.71163286454975605010986328125</LongitudeDegrees>
            </Position>
            <AltitudeMeters>367.399993896484375</AltitudeMeters>
            <DistanceMeters>NAN</DistanceMeters>
          </Trackpoint>
          <Trackpoint>
            <Time>2022-09-23T08:01:09.000Z</Time>
            <Position>
              <LatitudeDegrees>49.44832990877330303192138671875</LatitudeDegrees>
              <LongitudeDegrees>20.71163286454975605010986328125</LongitudeDegrees>
            </Position>
            <AltitudeMeters>367.399993896484375</AltitudeMeters>
            <DistanceMeters>NAN</DistanceMeters>
          </Trackpoint>
          <Trackpoint>
            <Time>2022-09-23T08:01:22.000Z</Time>
            <Position>
              <LatitudeDegrees>49.44832806475460529327392578125</LatitudeDegrees>
              <LongitudeDegrees>20.7115233130753040313720703125</LongitudeDegrees>
            </Position>
            <AltitudeMeters>367.399993896484375</AltitudeMeters>
            <DistanceMeters>NAN</DistanceMeters>
          </Trackpoint>
          <Trackpoint>
            <Time>2022-09-23T08:01:29.000Z</Time>
            <Position>
              <LatitudeDegrees>49.4483315013349056243896484375</LatitudeDegrees>
              <LongitudeDegrees>20.71116515435278415679931640625</LongitudeDegrees>
            </Position>
            <AltitudeMeters>367.20001220703125</AltitudeMeters>
            <DistanceMeters>NAN</DistanceMeters>
          </Trackpoint>
          <Trackpoint>
            <Time>2022-09-23T08:01:36.000Z</Time>
            <Position>
              <LatitudeDegrees>49.44836519658565521240234375</LatitudeDegrees>
              <LongitudeDegrees>20.7107280381023883819580078125</LongitudeDegrees>
            </Position>
            <AltitudeMeters>366.399993896484375</AltitudeMeters>
            <DistanceMeters>NAN</DistanceMeters>
          </Trackpoint>
          <Trackpoint>
            <Time>2022-09-23T08:01:38.000Z</Time>
            <Position>
              <LatitudeDegrees>49.44838942028582096099853515625</LatitudeDegrees>
              <LongitudeDegrees>20.71059032343327999114990234375</LongitudeDegrees>
            </Position>
            <AltitudeMeters>365.79998779296875</AltitudeMeters>
            <DistanceMeters>NAN</DistanceMeters>
          </Trackpoint>
          <Trackpoint>
            <Time>2022-09-23T08:01:39.000Z</Time>
            <Position>
              <LatitudeDegrees>49.44840408861637115478515625</LatitudeDegrees>
              <LongitudeDegrees>20.71052134037017822265625</LongitudeDegrees>
            </Position>
            <AltitudeMeters>365.600006103515625</AltitudeMeters>
            <DistanceMeters>NAN</DistanceMeters>
          </Trackpoint>
          <Trackpoint>
            <Time>2022-09-23T08:01:40.000Z</Time>
            <Position>
              <LatitudeDegrees>49.44841925986111164093017578125</LatitudeDegrees>
              <LongitudeDegrees>20.71044959127902984619140625</LongitudeDegrees>
            </Position>
            <AltitudeMeters>365.399993896484375</AltitudeMeters>
            <DistanceMeters>NAN</DistanceMeters>
          </Trackpoint>
          <Trackpoint>
            <Time>2022-09-23T08:01:42.000Z</Time>
            <Position>
              <LatitudeDegrees>49.4484579004347324371337890625</LatitudeDegrees>
              <LongitudeDegrees>20.71030835621058940887451171875</LongitudeDegrees>
            </Position>
            <AltitudeMeters>365.20001220703125</AltitudeMeters>
            <DistanceMeters>NAN</DistanceMeters>
          </Trackpoint>
          <Trackpoint>
            <Time>2022-09-23T08:01:49.000Z</Time>
            <Position>
              <LatitudeDegrees>49.4485980458557605743408203125</LatitudeDegrees>
              <LongitudeDegrees>20.7098425738513469696044921875</LongitudeDegrees>
            </Position>
            <AltitudeMeters>364.399993896484375</AltitudeMeters>
            <DistanceMeters>NAN</DistanceMeters>
          </Trackpoint>
          <Trackpoint>
            <Time>2022-09-23T08:01:50.000Z</Time>
            <Position>
              <LatitudeDegrees>49.44861724041402339935302734375</LatitudeDegrees>
              <LongitudeDegrees>20.70977694354951381683349609375</LongitudeDegrees>
            </Position>
            <AltitudeMeters>364.399993896484375</AltitudeMeters>
            <DistanceMeters>NAN</DistanceMeters>
          </Trackpoint>
          <Trackpoint>
            <Time>2022-09-23T08:01:54.000Z</Time>
            <Position>
              <LatitudeDegrees>49.44869720377027988433837890625</LatitudeDegrees>
              <LongitudeDegrees>20.70952682755887508392333984375</LongitudeDegrees>
            </Position>
            <AltitudeMeters>364.20001220703125</AltitudeMeters>
            <DistanceMeters>NAN</DistanceMeters>
          </Trackpoint>
          <Trackpoint>
            <Time>2022-09-23T08:01:55.000Z</Time>
            <Position>
              <LatitudeDegrees>49.44871765561401844024658203125</LatitudeDegrees>
              <LongitudeDegrees>20.7094643823802471160888671875</LongitudeDegrees>
            </Position>
            <AltitudeMeters>364.20001220703125</AltitudeMeters>
            <DistanceMeters>NAN</DistanceMeters>
          </Trackpoint>
          <Trackpoint>
            <Time>2022-09-23T08:02:01.000Z</Time>
            <Position>
              <LatitudeDegrees>49.44881991483271121978759765625</LatitudeDegrees>
              <LongitudeDegrees>20.709110833704471588134765625</LongitudeDegrees>
            </Position>
            <AltitudeMeters>364</AltitudeMeters>
            <DistanceMeters>NAN</DistanceMeters>
          </Trackpoint>
          <Trackpoint>
            <Time>2022-09-23T08:02:04.000Z</Time>
            <Position>
              <LatitudeDegrees>49.44886618293821811676025390625</LatitudeDegrees>
              <LongitudeDegrees>20.70895886979997158050537109375</LongitudeDegrees>
            </Position>
            <AltitudeMeters>364</AltitudeMeters>
            <DistanceMeters>NAN</DistanceMeters>
          </Trackpoint>
          <Trackpoint>
            <Time>2022-09-23T08:02:08.000Z</Time>
            <Position>
              <LatitudeDegrees>49.44892988540232181549072265625</LatitudeDegrees>
              <LongitudeDegrees>20.70873574353754520416259765625</LongitudeDegrees>
            </Position>
            <AltitudeMeters>363.79998779296875</AltitudeMeters>
            <DistanceMeters>NAN</DistanceMeters>
          </Trackpoint>
          <Trackpoint>
            <Time>2022-09-23T08:02:16.000Z</Time>
            <Position>
              <LatitudeDegrees>49.44903633557260036468505859375</LatitudeDegrees>
              <LongitudeDegrees>20.70832150988280773162841796875</LongitudeDegrees>
            </Position>
            <AltitudeMeters>363.79998779296875</AltitudeMeters>
            <DistanceMeters>NAN</DistanceMeters>
          </Trackpoint>
          <Trackpoint>
            <Time>2022-09-23T08:02:25.000Z</Time>
            <Position>
              <LatitudeDegrees>49.4491477310657501220703125</LatitudeDegrees>
              <LongitudeDegrees>20.707918591797351837158203125</LongitudeDegrees>
            </Position>
            <AltitudeMeters>363.79998779296875</AltitudeMeters>
            <DistanceMeters>NAN</DistanceMeters>
          </Trackpoint>
          <Trackpoint>
            <Time>2022-09-23T08:02:29.000Z</Time>
            <Position>
              <LatitudeDegrees>49.44920447655022144317626953125</LatitudeDegrees>
              <LongitudeDegrees>20.70773041807115077972412109375</LongitudeDegrees>
            </Position>
            <AltitudeMeters>363.79998779296875</AltitudeMeters>
            <DistanceMeters>NAN</DistanceMeters>
          </Trackpoint>
          <Trackpoint>
            <Time>2022-09-23T08:02:30.000Z</Time>
            <Position>
              <LatitudeDegrees>49.44921839050948619842529296875</LatitudeDegrees>
              <LongitudeDegrees>20.70768096484243869781494140625</LongitudeDegrees>
            </Position>
            <AltitudeMeters>363.79998779296875</AltitudeMeters>
            <DistanceMeters>NAN</DistanceMeters>
          </Trackpoint>
          <Trackpoint>
            <Time>2022-09-23T08:02:32.000Z</Time>
            <Position>
              <LatitudeDegrees>49.449254684150218963623046875</LatitudeDegrees>
              <LongitudeDegrees>20.7075938768684864044189453125</LongitudeDegrees>
            </Position>
            <AltitudeMeters>363.600006103515625</AltitudeMeters>
            <DistanceMeters>NAN</DistanceMeters>
          </Trackpoint>
          <Trackpoint>
            <Time>2022-09-23T08:02:34.000Z</Time>
            <Position>
              <LatitudeDegrees>49.4492836855351924896240234375</LatitudeDegrees>
              <LongitudeDegrees>20.70751248858869075775146484375</LongitudeDegrees>
            </Position>
            <AltitudeMeters>363.600006103515625</AltitudeMeters>
            <DistanceMeters>NAN</DistanceMeters>
          </Trackpoint>
          <Trackpoint>
            <Time>2022-09-23T08:02:36.000Z</Time>
            <Position>
              <LatitudeDegrees>49.449308998882770538330078125</LatitudeDegrees>
              <LongitudeDegrees>20.70742866955697536468505859375</LongitudeDegrees>
            </Position>
            <AltitudeMeters>363.600006103515625</AltitudeMeters>
            <DistanceMeters>NAN</DistanceMeters>
          </Trackpoint>
          <Trackpoint>
            <Time>2022-09-23T08:02:38.000Z</Time>
            <Position>
              <LatitudeDegrees>49.44933657534420490264892578125</LatitudeDegrees>
              <LongitudeDegrees>20.70734635926783084869384765625</LongitudeDegrees>
            </Position>
            <AltitudeMeters>363.600006103515625</AltitudeMeters>
            <DistanceMeters>NAN</DistanceMeters>
          </Trackpoint>
          <Trackpoint>
            <Time>2022-09-23T08:02:40.000Z</Time>
            <Position>
              <LatitudeDegrees>49.44936297833919525146484375</LatitudeDegrees>
              <LongitudeDegrees>20.7072649709880352020263671875</LongitudeDegrees>
            </Position>
            <AltitudeMeters>363.600006103515625</AltitudeMeters>
            <DistanceMeters>NAN</DistanceMeters>
          </Trackpoint>
          <Trackpoint>
            <Time>2022-09-23T08:02:41.000Z</Time>
            <Position>
              <LatitudeDegrees>49.4493728689849376678466796875</LatitudeDegrees>
              <LongitudeDegrees>20.70723630487918853759765625</LongitudeDegrees>
            </Position>
            <AltitudeMeters>363.600006103515625</AltitudeMeters>
            <DistanceMeters>NAN</DistanceMeters>
          </Trackpoint>
          <Trackpoint>
            <Time>2022-09-23T08:02:49.000Z</Time>
            <Position>
              <LatitudeDegrees>49.4494959153234958648681640625</LatitudeDegrees>
              <LongitudeDegrees>20.7069125957787036895751953125</LongitudeDegrees>
            </Position>
            <AltitudeMeters>363.79998779296875</AltitudeMeters>
            <DistanceMeters>NAN</DistanceMeters>
          </Trackpoint>
          <Trackpoint>
            <Time>2022-09-23T08:02:55.000Z</Time>
            <Position>
              <LatitudeDegrees>49.44958786480128765106201171875</LatitudeDegrees>
              <LongitudeDegrees>20.7066426984965801239013671875</LongitudeDegrees>
            </Position>
            <AltitudeMeters>363.600006103515625</AltitudeMeters>
            <DistanceMeters>NAN</DistanceMeters>
          </Trackpoint>
          <Trackpoint>
            <Time>2022-09-23T08:02:59.000Z</Time>
            <Position>
              <LatitudeDegrees>49.449655674397945404052734375</LatitudeDegrees>
              <LongitudeDegrees>20.706466175615787506103515625</LongitudeDegrees>
            </Position>
            <AltitudeMeters>363.600006103515625</AltitudeMeters>
            <DistanceMeters>NAN</DistanceMeters>
          </Trackpoint>
          <Trackpoint>
            <Time>2022-09-23T08:03:03.000Z</Time>
            <Position>
              <LatitudeDegrees>49.44972549565136432647705078125</LatitudeDegrees>
              <LongitudeDegrees>20.70629493333399295806884765625</LongitudeDegrees>
            </Position>
            <AltitudeMeters>363.399993896484375</AltitudeMeters>
            <DistanceMeters>NAN</DistanceMeters>
          </Trackpoint>
          <Trackpoint>
            <Time>2022-09-23T08:03:04.000Z</Time>
            <Position>
              <LatitudeDegrees>49.4497413374483585357666015625</LatitudeDegrees>
              <LongitudeDegrees>20.7062551192939281463623046875</LongitudeDegrees>
            </Position>
            <AltitudeMeters>363.399993896484375</AltitudeMeters>
            <DistanceMeters>NAN</DistanceMeters>
          </Trackpoint>
          <Trackpoint>
            <Time>2022-09-23T08:03:11.000Z</Time>
            <Position>
              <LatitudeDegrees>49.44987787865102291107177734375</LatitudeDegrees>
              <LongitudeDegrees>20.70597038604319095611572265625</LongitudeDegrees>
            </Position>
            <AltitudeMeters>363.399993896484375</AltitudeMeters>
            <DistanceMeters>NAN</DistanceMeters>
          </Trackpoint>
          <Trackpoint>
            <Time>2022-09-23T08:03:21.000Z</Time>
            <Position>
              <LatitudeDegrees>49.45011273957788944244384765625</LatitudeDegrees>
              <LongitudeDegrees>20.705568306148052215576171875</LongitudeDegrees>
            </Position>
            <AltitudeMeters>363.20001220703125</AltitudeMeters>
            <DistanceMeters>NAN</DistanceMeters>
          </Trackpoint>
          <Trackpoint>
            <Time>2022-09-23T08:03:24.000Z</Time>
            <Position>
              <LatitudeDegrees>49.4501765258610248565673828125</LatitudeDegrees>
              <LongitudeDegrees>20.7054460979998111724853515625</LongitudeDegrees>
            </Position>
            <AltitudeMeters>363.20001220703125</AltitudeMeters>
            <DistanceMeters>NAN</DistanceMeters>
          </Trackpoint>
          <Trackpoint>
            <Time>2022-09-23T08:03:29.000Z</Time>
            <Position>
              <LatitudeDegrees>49.45029898546636104583740234375</LatitudeDegrees>
              <LongitudeDegrees>20.7052392326295375823974609375</LongitudeDegrees>
            </Position>
            <AltitudeMeters>363.20001220703125</AltitudeMeters>
            <DistanceMeters>NAN</DistanceMeters>
          </Trackpoint>
          <Trackpoint>
            <Time>2022-09-23T08:03:39.000Z</Time>
            <Position>
              <LatitudeDegrees>49.450524710118770599365234375</LatitudeDegrees>
              <LongitudeDegrees>20.7048449479043483734130859375</LongitudeDegrees>
            </Position>
            <AltitudeMeters>363</AltitudeMeters>
            <DistanceMeters>NAN</DistanceMeters>
          </Trackpoint>
          <Trackpoint>
            <Time>2022-09-23T08:03:45.000Z</Time>
            <Position>
              <LatitudeDegrees>49.45067952387034893035888671875</LatitudeDegrees>
              <LongitudeDegrees>20.70461310446262359619140625</LongitudeDegrees>
            </Position>
            <AltitudeMeters>363</AltitudeMeters>
            <DistanceMeters>NAN</DistanceMeters>
          </Trackpoint>
          <Trackpoint>
            <Time>2022-09-23T08:03:47.000Z</Time>
            <Position>
              <LatitudeDegrees>49.4507340900599956512451171875</LatitudeDegrees>
              <LongitudeDegrees>20.70455074310302734375</LongitudeDegrees>
            </Position>
            <AltitudeMeters>363</AltitudeMeters>
            <DistanceMeters>NAN</DistanceMeters>
          </Trackpoint>
          <Trackpoint>
            <Time>2022-09-23T08:03:50.000Z</Time>
            <Position>
              <LatitudeDegrees>49.45082302205264568328857421875</LatitudeDegrees>
              <LongitudeDegrees>20.70445879362523555755615234375</LongitudeDegrees>
            </Position>
            <AltitudeMeters>363</AltitudeMeters>
            <DistanceMeters>NAN</DistanceMeters>
          </Trackpoint>
          <Trackpoint>
            <Time>2022-09-23T08:03:54.000Z</Time>
            <Position>
              <LatitudeDegrees>49.4509449787437915802001953125</LatitudeDegrees>
              <LongitudeDegrees>20.7043484039604663848876953125</LongitudeDegrees>
            </Position>
            <AltitudeMeters>363</AltitudeMeters>
            <DistanceMeters>NAN</DistanceMeters>
          </Trackpoint>
          <Trackpoint>
            <Time>2022-09-23T08:04:02.000Z</Time>
            <Position>
              <LatitudeDegrees>49.45115595124661922454833984375</LatitudeDegrees>
              <LongitudeDegrees>20.7040842063724994659423828125</LongitudeDegrees>
            </Position>
            <AltitudeMeters>362.600006103515625</AltitudeMeters>
            <DistanceMeters>NAN</DistanceMeters>
          </Trackpoint>
          <Trackpoint>
            <Time>2022-09-23T08:04:05.000Z</Time>
            <Position>
              <LatitudeDegrees>49.4512544386088848114013671875</LatitudeDegrees>
              <LongitudeDegrees>20.7039655186235904693603515625</LongitudeDegrees>
            </Position>
            <AltitudeMeters>362.399993896484375</AltitudeMeters>
            <DistanceMeters>NAN</DistanceMeters>
          </Trackpoint>
          <Trackpoint>
            <Time>2022-09-23T08:04:07.000Z</Time>
            <Position>
              <LatitudeDegrees>49.451319985091686248779296875</LatitudeDegrees>
              <LongitudeDegrees>20.70388832129538059234619140625</LongitudeDegrees>
            </Position>
            <AltitudeMeters>362.20001220703125</AltitudeMeters>
            <DistanceMeters>NAN</DistanceMeters>
          </Trackpoint>
          <Trackpoint>
            <Time>2022-09-23T08:04:12.000Z</Time>
            <Position>
              <LatitudeDegrees>49.45146608166396617889404296875</LatitudeDegrees>
              <LongitudeDegrees>20.703704841434955596923828125</LongitudeDegrees>
            </Position>
            <AltitudeMeters>362.399993896484375</AltitudeMeters>
            <DistanceMeters>NAN</DistanceMeters>
          </Trackpoint>
          <Trackpoint>
            <Time>2022-09-23T08:04:15.000Z</Time>
            <Position>
              <LatitudeDegrees>49.45155878551304340362548828125</LatitudeDegrees>
              <LongitudeDegrees>20.70359478704631328582763671875</LongitudeDegrees>
            </Position>
            <AltitudeMeters>362.600006103515625</AltitudeMeters>
            <DistanceMeters>NAN</DistanceMeters>
          </Trackpoint>
          <Trackpoint>
            <Time>2022-09-23T08:04:21.000Z</Time>
            <Position>
              <LatitudeDegrees>49.45172809995710849761962890625</LatitudeDegrees>
              <LongitudeDegrees>20.70339412428438663482666015625</LongitudeDegrees>
            </Position>
            <AltitudeMeters>362.399993896484375</AltitudeMeters>
            <DistanceMeters>NAN</DistanceMeters>
          </Trackpoint>
          <Trackpoint>
            <Time>2022-09-23T08:04:22.000Z</Time>
            <Position>
              <LatitudeDegrees>49.45175550878047943115234375</LatitudeDegrees>
              <LongitudeDegrees>20.7033660449087619781494140625</LongitudeDegrees>
            </Position>
            <AltitudeMeters>362.399993896484375</AltitudeMeters>
            <DistanceMeters>NAN</DistanceMeters>
          </Trackpoint>
          <Trackpoint>
            <Time>2022-09-23T08:04:24.000Z</Time>
            <Position>
              <LatitudeDegrees>49.451805464923381805419921875</LatitudeDegrees>
              <LongitudeDegrees>20.703308880329132080078125</LongitudeDegrees>
            </Position>
            <AltitudeMeters>362.600006103515625</AltitudeMeters>
            <DistanceMeters>NAN</DistanceMeters>
          </Trackpoint>
          <Trackpoint>
            <Time>2022-09-23T08:04:28.000Z</Time>
            <Position>
              <LatitudeDegrees>49.4519078917801380157470703125</LatitudeDegrees>
              <LongitudeDegrees>20.7031779550015926361083984375</LongitudeDegrees>
            </Position>
            <AltitudeMeters>363</AltitudeMeters>
            <DistanceMeters>NAN</DistanceMeters>
          </Trackpoint>
          <Trackpoint>
            <Time>2022-09-23T08:04:31.000Z</Time>
            <Position>
              <LatitudeDegrees>49.45197436027228832244873046875</LatitudeDegrees>
              <LongitudeDegrees>20.70306588895618915557861328125</LongitudeDegrees>
            </Position>
            <AltitudeMeters>363</AltitudeMeters>
            <DistanceMeters>NAN</DistanceMeters>
          </Trackpoint>
          <Trackpoint>
            <Time>2022-09-23T08:04:33.000Z</Time>
            <Position>
              <LatitudeDegrees>49.4520121626555919647216796875</LatitudeDegrees>
              <LongitudeDegrees>20.70299145765602588653564453125</LongitudeDegrees>
            </Position>
            <AltitudeMeters>363</AltitudeMeters>
            <DistanceMeters>NAN</DistanceMeters>
          </Trackpoint>
          <Trackpoint>
            <Time>2022-09-23T08:04:37.000Z</Time>
            <Position>
              <LatitudeDegrees>49.4520839117467403411865234375</LatitudeDegrees>
              <LongitudeDegrees>20.702831111848354339599609375</LongitudeDegrees>
            </Position>
            <AltitudeMeters>363.20001220703125</AltitudeMeters>
            <DistanceMeters>NAN</DistanceMeters>
          </Trackpoint>
          <Trackpoint>
            <Time>2022-09-23T08:04:38.000Z</Time>
            <Position>
              <LatitudeDegrees>49.45210059173405170440673828125</LatitudeDegrees>
              <LongitudeDegrees>20.70278811268508434295654296875</LongitudeDegrees>
            </Position>
            <AltitudeMeters>363.20001220703125</AltitudeMeters>
            <DistanceMeters>NAN</DistanceMeters>
          </Trackpoint>
          <Trackpoint>
            <Time>2022-09-23T08:04:39.000Z</Time>
            <Position>
              <LatitudeDegrees>49.45211718790233135223388671875</LatitudeDegrees>
              <LongitudeDegrees>20.70275005884468555450439453125</LongitudeDegrees>
            </Position>
            <AltitudeMeters>363.399993896484375</AltitudeMeters>
            <DistanceMeters>NAN</DistanceMeters>
          </Trackpoint>
          <Trackpoint>
            <Time>2022-09-23T08:04:48.000Z</Time>
            <Position>
              <LatitudeDegrees>49.45227007381618022918701171875</LatitudeDegrees>
              <LongitudeDegrees>20.70236499421298503875732421875</LongitudeDegrees>
            </Position>
            <AltitudeMeters>363.399993896484375</AltitudeMeters>
            <DistanceMeters>NAN</DistanceMeters>
          </Trackpoint>
          <Trackpoint>
            <Time>2022-09-23T08:04:56.000Z</Time>
            <Position>
              <LatitudeDegrees>49.4523905217647552490234375</LatitudeDegrees>
              <LongitudeDegrees>20.70201647467911243438720703125</LongitudeDegrees>
            </Position>
            <AltitudeMeters>363.600006103515625</AltitudeMeters>
            <DistanceMeters>NAN</DistanceMeters>
          </Trackpoint>
          <Trackpoint>
            <Time>2022-09-23T08:04:59.000Z</Time>
            <Position>
              <LatitudeDegrees>49.4524332694709300994873046875</LatitudeDegrees>
              <LongitudeDegrees>20.70190583355724811553955078125</LongitudeDegrees>
            </Position>
            <AltitudeMeters>363.399993896484375</AltitudeMeters>
            <DistanceMeters>NAN</DistanceMeters>
          </Trackpoint>
          <Trackpoint>
            <Time>2022-09-23T08:05:05.000Z</Time>
            <Position>
              <LatitudeDegrees>49.45253293029963970184326171875</LatitudeDegrees>
              <LongitudeDegrees>20.70167331956326961517333984375</LongitudeDegrees>
            </Position>
            <AltitudeMeters>363.600006103515625</AltitudeMeters>
            <DistanceMeters>NAN</DistanceMeters>
          </Trackpoint>
          <Trackpoint>
            <Time>2022-09-23T08:05:11.000Z</Time>
            <Position>
              <LatitudeDegrees>49.4526337645947933197021484375</LatitudeDegrees>
              <LongitudeDegrees>20.7014127261936664581298828125</LongitudeDegrees>
            </Position>
            <AltitudeMeters>363.600006103515625</AltitudeMeters>
            <DistanceMeters>NAN</DistanceMeters>
          </Trackpoint>
          <Trackpoint>
            <Time>2022-09-23T08:05:19.000Z</Time>
            <Position>
              <LatitudeDegrees>49.4528077729046344757080078125</LatitudeDegrees>
              <LongitudeDegrees>20.7010764442384243011474609375</LongitudeDegrees>
            </Position>
            <AltitudeMeters>363.20001220703125</AltitudeMeters>
            <DistanceMeters>NAN</DistanceMeters>
          </Trackpoint>
          <Trackpoint>
            <Time>2022-09-23T08:05:28.000Z</Time>
            <Position>
              <LatitudeDegrees>49.4530476629734039306640625</LatitudeDegrees>
              <LongitudeDegrees>20.70076203905045986175537109375</LongitudeDegrees>
            </Position>
            <AltitudeMeters>363.20001220703125</AltitudeMeters>
            <DistanceMeters>NAN</DistanceMeters>
          </Trackpoint>
          <Trackpoint>
            <Time>2022-09-23T08:05:30.000Z</Time>
            <Position>
              <LatitudeDegrees>49.45310189388692378997802734375</LatitudeDegrees>
              <LongitudeDegrees>20.70069079287350177764892578125</LongitudeDegrees>
            </Position>
            <AltitudeMeters>363.20001220703125</AltitudeMeters>
            <DistanceMeters>NAN</DistanceMeters>
          </Trackpoint>
          <Trackpoint>
            <Time>2022-09-23T08:05:35.000Z</Time>
            <Position>
              <LatitudeDegrees>49.45322443731129169464111328125</LatitudeDegrees>
              <LongitudeDegrees>20.70047034882009029388427734375</LongitudeDegrees>
            </Position>
            <AltitudeMeters>363.399993896484375</AltitudeMeters>
            <DistanceMeters>NAN</DistanceMeters>
          </Trackpoint>
          <Trackpoint>
            <Time>2022-09-23T08:05:37.000Z</Time>
            <Position>
              <LatitudeDegrees>49.45327389054000377655029296875</LatitudeDegrees>
              <LongitudeDegrees>20.70038837380707263946533203125</LongitudeDegrees>
            </Position>
            <AltitudeMeters>363.20001220703125</AltitudeMeters>
            <DistanceMeters>NAN</DistanceMeters>
          </Trackpoint>
          <Trackpoint>
            <Time>2022-09-23T08:05:38.000Z</Time>
            <Position>
              <LatitudeDegrees>49.4532989524304866790771484375</LatitudeDegrees>
              <LongitudeDegrees>20.70034998469054698944091796875</LongitudeDegrees>
            </Position>
            <AltitudeMeters>363.20001220703125</AltitudeMeters>
            <DistanceMeters>NAN</DistanceMeters>
          </Trackpoint>
          <Trackpoint>
            <Time>2022-09-23T08:05:41.000Z</Time>
            <Position>
              <LatitudeDegrees>49.45338402874767780303955078125</LatitudeDegrees>
              <LongitudeDegrees>20.70023532025516033172607421875</LongitudeDegrees>
            </Position>
            <AltitudeMeters>363.20001220703125</AltitudeMeters>
            <DistanceMeters>NAN</DistanceMeters>
          </Trackpoint>
          <Trackpoint>
            <Time>2022-09-23T08:05:52.000Z</Time>
            <Position>
              <LatitudeDegrees>49.45370547473430633544921875</LatitudeDegrees>
              <LongitudeDegrees>20.6998597271740436553955078125</LongitudeDegrees>
            </Position>
            <AltitudeMeters>362.79998779296875</AltitudeMeters>
            <DistanceMeters>NAN</DistanceMeters>
          </Trackpoint>
          <Trackpoint>
            <Time>2022-09-23T08:05:57.000Z</Time>
            <Position>
              <LatitudeDegrees>49.45387923158705234527587890625</LatitudeDegrees>
              <LongitudeDegrees>20.6997269578278064727783203125</LongitudeDegrees>
            </Position>
            <AltitudeMeters>362.600006103515625</AltitudeMeters>
            <DistanceMeters>NAN</DistanceMeters>
          </Trackpoint>
          <Trackpoint>
            <Time>2022-09-23T08:05:58.000Z</Time>
            <Position>
              <LatitudeDegrees>49.4539188779890537261962890625</LatitudeDegrees>
              <LongitudeDegrees>20.699691586196422576904296875</LongitudeDegrees>
            </Position>
            <AltitudeMeters>362.79998779296875</AltitudeMeters>
            <DistanceMeters>NAN</DistanceMeters>
          </Trackpoint>
          <Trackpoint>
            <Time>2022-09-23T08:06:00.000Z</Time>
            <Position>
              <LatitudeDegrees>49.453990124166011810302734375</LatitudeDegrees>
              <LongitudeDegrees>20.69964691065251827239990234375</LongitudeDegrees>
            </Position>
            <AltitudeMeters>362.79998779296875</AltitudeMeters>
            <DistanceMeters>NAN</DistanceMeters>
          </Trackpoint>
          <Trackpoint>
            <Time>2022-09-23T08:06:02.000Z</Time>
            <Position>
              <LatitudeDegrees>49.4540650583803653717041015625</LatitudeDegrees>
              <LongitudeDegrees>20.69962729699909687042236328125</LongitudeDegrees>
            </Position>
            <AltitudeMeters>362.79998779296875</AltitudeMeters>
            <DistanceMeters>NAN</DistanceMeters>
          </Trackpoint>
          <Trackpoint>
            <Time>2022-09-23T08:06:04.000Z</Time>
            <Position>
              <LatitudeDegrees>49.45413856767117977142333984375</LatitudeDegrees>
              <LongitudeDegrees>20.6995770893990993499755859375</LongitudeDegrees>
            </Position>
            <AltitudeMeters>362.79998779296875</AltitudeMeters>
            <DistanceMeters>NAN</DistanceMeters>
          </Trackpoint>
          <Trackpoint>
            <Time>2022-09-23T08:06:13.000Z</Time>
            <Position>
              <LatitudeDegrees>49.4543929584324359893798828125</LatitudeDegrees>
              <LongitudeDegrees>20.69922546856105327606201171875</LongitudeDegrees>
            </Position>
            <AltitudeMeters>363</AltitudeMeters>
            <DistanceMeters>NAN</DistanceMeters>
          </Trackpoint>
          <Trackpoint>
            <Time>2022-09-23T08:06:17.000Z</Time>
            <Position>
              <LatitudeDegrees>49.45448775775730609893798828125</LatitudeDegrees>
              <LongitudeDegrees>20.699066631495952606201171875</LongitudeDegrees>
            </Position>
            <AltitudeMeters>363</AltitudeMeters>
            <DistanceMeters>NAN</DistanceMeters>
          </Trackpoint>
          <Trackpoint>
            <Time>2022-09-23T08:06:20.000Z</Time>
            <Position>
              <LatitudeDegrees>49.4545575790107250213623046875</LatitudeDegrees>
              <LongitudeDegrees>20.6989460997283458709716796875</LongitudeDegrees>
            </Position>
            <AltitudeMeters>363</AltitudeMeters>
            <DistanceMeters>NAN</DistanceMeters>
          </Trackpoint>
          <Trackpoint>
            <Time>2022-09-23T08:06:26.000Z</Time>
            <Position>
              <LatitudeDegrees>49.45471842773258686065673828125</LatitudeDegrees>
              <LongitudeDegrees>20.698716603219509124755859375</LongitudeDegrees>
            </Position>
            <AltitudeMeters>362.600006103515625</AltitudeMeters>
            <DistanceMeters>NAN</DistanceMeters>
          </Trackpoint>
          <Trackpoint>
            <Time>2022-09-23T08:06:30.000Z</Time>
            <Position>
              <LatitudeDegrees>49.45480207912623882293701171875</LatitudeDegrees>
              <LongitudeDegrees>20.6985310278832912445068359375</LongitudeDegrees>
            </Position>
            <AltitudeMeters>362.79998779296875</AltitudeMeters>
            <DistanceMeters>NAN</DistanceMeters>
          </Trackpoint>
          <Trackpoint>
            <Time>2022-09-23T08:06:33.000Z</Time>
            <Position>
              <LatitudeDegrees>49.4548750855028629302978515625</LatitudeDegrees>
              <LongitudeDegrees>20.6983925588428974151611328125</LongitudeDegrees>
            </Position>
            <AltitudeMeters>363</AltitudeMeters>
            <DistanceMeters>NAN</DistanceMeters>
          </Trackpoint>
          <Trackpoint>
            <Time>2022-09-23T08:06:40.000Z</Time>
            <Position>
              <LatitudeDegrees>49.45502017624676227569580078125</LatitudeDegrees>
              <LongitudeDegrees>20.69812023080885410308837890625</LongitudeDegrees>
            </Position>
            <AltitudeMeters>362.79998779296875</AltitudeMeters>
            <DistanceMeters>NAN</DistanceMeters>
          </Trackpoint>
          <Trackpoint>
            <Time>2022-09-23T08:06:48.000Z</Time>
            <Position>
              <LatitudeDegrees>49.455150179564952850341796875</LatitudeDegrees>
              <LongitudeDegrees>20.6977914087474346160888671875</LongitudeDegrees>
            </Position>
            <AltitudeMeters>362.600006103515625</AltitudeMeters>
            <DistanceMeters>NAN</DistanceMeters>
          </Trackpoint>
          <Trackpoint>
            <Time>2022-09-23T08:06:56.000Z</Time>
            <Position>
              <LatitudeDegrees>49.45522754453122615814208984375</LatitudeDegrees>
              <LongitudeDegrees>20.69738924503326416015625</LongitudeDegrees>
            </Position>
            <AltitudeMeters>362.399993896484375</AltitudeMeters>
            <DistanceMeters>NAN</DistanceMeters>
          </Trackpoint>
          <Trackpoint>
            <Time>2022-09-23T08:06:58.000Z</Time>
            <Position>
              <LatitudeDegrees>49.45525302551686763763427734375</LatitudeDegrees>
              <LongitudeDegrees>20.6972750835120677947998046875</LongitudeDegrees>
            </Position>
            <AltitudeMeters>362.399993896484375</AltitudeMeters>
            <DistanceMeters>NAN</DistanceMeters>
          </Trackpoint>
          <Trackpoint>
            <Time>2022-09-23T08:07:02.000Z</Time>
            <Position>
              <LatitudeDegrees>49.45531614124774932861328125</LatitudeDegrees>
              <LongitudeDegrees>20.69705103524029254913330078125</LongitudeDegrees>
            </Position>
            <AltitudeMeters>362</AltitudeMeters>
            <DistanceMeters>NAN</DistanceMeters>
          </Trackpoint>
          <Trackpoint>
            <Time>2022-09-23T08:07:03.000Z</Time>
            <Position>
              <LatitudeDegrees>49.45533969439566135406494140625</LatitudeDegrees>
              <LongitudeDegrees>20.6970008276402950286865234375</LongitudeDegrees>
            </Position>
            <AltitudeMeters>361.79998779296875</AltitudeMeters>
            <DistanceMeters>NAN</DistanceMeters>
          </Trackpoint>
          <Trackpoint>
            <Time>2022-09-23T08:07:06.000Z</Time>
            <Position>
              <LatitudeDegrees>49.4554239325225353240966796875</LatitudeDegrees>
              <LongitudeDegrees>20.69684651680290699005126953125</LongitudeDegrees>
            </Position>
            <AltitudeMeters>361.20001220703125</AltitudeMeters>
            <DistanceMeters>NAN</DistanceMeters>
          </Trackpoint>
          <Trackpoint>
            <Time>2022-09-23T08:07:10.000Z</Time>
            <Position>
              <LatitudeDegrees>49.4555593840777873992919921875</LatitudeDegrees>
              <LongitudeDegrees>20.6966756097972393035888671875</LongitudeDegrees>
            </Position>
            <AltitudeMeters>360.79998779296875</AltitudeMeters>
            <DistanceMeters>NAN</DistanceMeters>
          </Trackpoint>
          <Trackpoint>
            <Time>2022-09-23T08:07:13.000Z</Time>
            <Position>
              <LatitudeDegrees>49.45566675625741481781005859375</LatitudeDegrees>
              <LongitudeDegrees>20.696574188768863677978515625</LongitudeDegrees>
            </Position>
            <AltitudeMeters>360.600006103515625</AltitudeMeters>
            <DistanceMeters>NAN</DistanceMeters>
          </Trackpoint>
          <Trackpoint>
            <Time>2022-09-23T08:07:19.000Z</Time>
            <Position>
              <LatitudeDegrees>49.4558889605104923248291015625</LatitudeDegrees>
              <LongitudeDegrees>20.6964033655822277069091796875</LongitudeDegrees>
            </Position>
            <AltitudeMeters>360.399993896484375</AltitudeMeters>
            <DistanceMeters>NAN</DistanceMeters>
          </Trackpoint>
          <Trackpoint>
            <Time>2022-09-23T08:07:22.000Z</Time>
            <Position>
              <LatitudeDegrees>49.45600957609713077545166015625</LatitudeDegrees>
              <LongitudeDegrees>20.6963195465505123138427734375</LongitudeDegrees>
            </Position>
            <AltitudeMeters>360</AltitudeMeters>
            <DistanceMeters>NAN</DistanceMeters>
          </Trackpoint>
          <Trackpoint>
            <Time>2022-09-23T08:07:29.000Z</Time>
            <Position>
              <LatitudeDegrees>49.45626924745738506317138671875</LatitudeDegrees>
              <LongitudeDegrees>20.6961763836443424224853515625</LongitudeDegrees>
            </Position>
            <AltitudeMeters>359.600006103515625</AltitudeMeters>
            <DistanceMeters>NAN</DistanceMeters>
          </Trackpoint>
          <Trackpoint>
            <Time>2022-09-23T08:07:30.000Z</Time>
            <Position>
              <LatitudeDegrees>49.456306211650371551513671875</LatitudeDegrees>
              <LongitudeDegrees>20.69616414606571197509765625</LongitudeDegrees>
            </Position>
            <AltitudeMeters>359.600006103515625</AltitudeMeters>
            <DistanceMeters>NAN</DistanceMeters>
          </Trackpoint>
          <Trackpoint>
            <Time>2022-09-23T08:07:36.000Z</Time>
            <Position>
              <LatitudeDegrees>49.4565501250326633453369140625</LatitudeDegrees>
              <LongitudeDegrees>20.6961381621658802032470703125</LongitudeDegrees>
            </Position>
            <AltitudeMeters>359.79998779296875</AltitudeMeters>
            <DistanceMeters>NAN</DistanceMeters>
          </Trackpoint>
          <Trackpoint>
            <Time>2022-09-23T08:07:43.000Z</Time>
            <Position>
              <LatitudeDegrees>49.4568161666393280029296875</LatitudeDegrees>
              <LongitudeDegrees>20.696149058640003204345703125</LongitudeDegrees>
            </Position>
            <AltitudeMeters>359.600006103515625</AltitudeMeters>
            <DistanceMeters>NAN</DistanceMeters>
          </Trackpoint>
          <Trackpoint>
            <Time>2022-09-23T08:07:48.000Z</Time>
            <Position>
              <LatitudeDegrees>49.45700651966035366058349609375</LatitudeDegrees>
              <LongitudeDegrees>20.6961663253605365753173828125</LongitudeDegrees>
            </Position>
            <AltitudeMeters>359.79998779296875</AltitudeMeters>
            <DistanceMeters>NAN</DistanceMeters>
          </Trackpoint>
          <Trackpoint>
            <Time>2022-09-23T08:07:50.000Z</Time>
            <Position>
              <LatitudeDegrees>49.4570939429104328155517578125</LatitudeDegrees>
              <LongitudeDegrees>20.6961713545024394989013671875</LongitudeDegrees>
            </Position>
            <AltitudeMeters>360</AltitudeMeters>
            <DistanceMeters>NAN</DistanceMeters>
          </Trackpoint>
          <Trackpoint>
            <Time>2022-09-23T08:07:53.000Z</Time>
            <Position>
              <LatitudeDegrees>49.45720852352678775787353515625</LatitudeDegrees>
              <LongitudeDegrees>20.69618669338524341583251953125</LongitudeDegrees>
            </Position>
            <AltitudeMeters>360</AltitudeMeters>
            <DistanceMeters>NAN</DistanceMeters>
          </Trackpoint>
          <Trackpoint>
            <Time>2022-09-23T08:08:00.000Z</Time>
            <Position>
              <LatitudeDegrees>49.45747372694313526153564453125</LatitudeDegrees>
              <LongitudeDegrees>20.6962122581899166107177734375</LongitudeDegrees>
            </Position>
            <AltitudeMeters>360</AltitudeMeters>
            <DistanceMeters>NAN</DistanceMeters>
          </Trackpoint>
          <Trackpoint>
            <Time>2022-09-23T08:08:09.000Z</Time>
            <Position>
              <LatitudeDegrees>49.45779592730104923248291015625</LatitudeDegrees>
              <LongitudeDegrees>20.69628224708139896392822265625</LongitudeDegrees>
            </Position>
            <AltitudeMeters>359.79998779296875</AltitudeMeters>
            <DistanceMeters>NAN</DistanceMeters>
          </Trackpoint>
          <Trackpoint>
            <Time>2022-09-23T08:08:11.000Z</Time>
            <Position>
              <LatitudeDegrees>49.4578707776963710784912109375</LatitudeDegrees>
              <LongitudeDegrees>20.6962967477738857269287109375</LongitudeDegrees>
            </Position>
            <AltitudeMeters>359.79998779296875</AltitudeMeters>
            <DistanceMeters>NAN</DistanceMeters>
          </Trackpoint>
          <Trackpoint>
            <Time>2022-09-23T08:08:14.000Z</Time>
            <Position>
              <LatitudeDegrees>49.45798032917082309722900390625</LatitudeDegrees>
              <LongitudeDegrees>20.69632415659725666046142578125</LongitudeDegrees>
            </Position>
            <AltitudeMeters>359.79998779296875</AltitudeMeters>
            <DistanceMeters>NAN</DistanceMeters>
          </Trackpoint>
          <Trackpoint>
            <Time>2022-09-23T08:08:17.000Z</Time>
            <Position>
              <LatitudeDegrees>49.45809264667332172393798828125</LatitudeDegrees>
              <LongitudeDegrees>20.69634259678423404693603515625</LongitudeDegrees>
            </Position>
            <AltitudeMeters>359.79998779296875</AltitudeMeters>
            <DistanceMeters>NAN</DistanceMeters>
          </Trackpoint>
          <Trackpoint>
            <Time>2022-09-23T08:08:24.000Z</Time>
            <Position>
              <LatitudeDegrees>49.45833899080753326416015625</LatitudeDegrees>
              <LongitudeDegrees>20.69638115353882312774658203125</LongitudeDegrees>
            </Position>
            <AltitudeMeters>359.79998779296875</AltitudeMeters>
            <DistanceMeters>NAN</DistanceMeters>
          </Trackpoint>
          <Trackpoint>
            <Time>2022-09-23T08:08:28.000Z</Time>
            <Position>
              <LatitudeDegrees>49.45847167633473873138427734375</LatitudeDegrees>
              <LongitudeDegrees>20.69636371918022632598876953125</LongitudeDegrees>
            </Position>
            <AltitudeMeters>359.600006103515625</AltitudeMeters>
            <DistanceMeters>NAN</DistanceMeters>
          </Trackpoint>
          <Trackpoint>
            <Time>2022-09-23T08:08:29.000Z</Time>
            <Position>
              <LatitudeDegrees>49.45850604213774204254150390625</LatitudeDegrees>
              <LongitudeDegrees>20.69635751657187938690185546875</LongitudeDegrees>
            </Position>
            <AltitudeMeters>359.600006103515625</AltitudeMeters>
            <DistanceMeters>NAN</DistanceMeters>
          </Trackpoint>
          <Trackpoint>
            <Time>2022-09-23T08:08:32.000Z</Time>
            <Position>
              <LatitudeDegrees>49.4586140848696231842041015625</LatitudeDegrees>
              <LongitudeDegrees>20.696336813271045684814453125</LongitudeDegrees>
            </Position>
            <AltitudeMeters>359.399993896484375</AltitudeMeters>
            <DistanceMeters>NAN</DistanceMeters>
          </Trackpoint>
          <Trackpoint>
            <Time>2022-09-23T08:08:34.000Z</Time>
            <Position>
              <LatitudeDegrees>49.4586942158639430999755859375</LatitudeDegrees>
              <LongitudeDegrees>20.69632465951144695281982421875</LongitudeDegrees>
            </Position>
            <AltitudeMeters>359.20001220703125</AltitudeMeters>
            <DistanceMeters>NAN</DistanceMeters>
          </Trackpoint>
          <Trackpoint>
            <Time>2022-09-23T08:08:35.000Z</Time>
            <Position>
              <LatitudeDegrees>49.45873620919883251190185546875</LatitudeDegrees>
              <LongitudeDegrees>20.69631845690310001373291015625</LongitudeDegrees>
            </Position>
            <AltitudeMeters>359</AltitudeMeters>
            <DistanceMeters>NAN</DistanceMeters>
          </Trackpoint>
          <Trackpoint>
            <Time>2022-09-23T08:08:42.000Z</Time>
            <Position>
              <LatitudeDegrees>49.459017254412174224853515625</LatitudeDegrees>
              <LongitudeDegrees>20.69628928788006305694580078125</LongitudeDegrees>
            </Position>
            <AltitudeMeters>358.79998779296875</AltitudeMeters>
            <DistanceMeters>NAN</DistanceMeters>
          </Trackpoint>
          <Trackpoint>
            <Time>2022-09-23T08:08:50.000Z</Time>
            <Position>
              <LatitudeDegrees>49.4592926837503910064697265625</LatitudeDegrees>
              <LongitudeDegrees>20.696275122463703155517578125</LongitudeDegrees>
            </Position>
            <AltitudeMeters>358.600006103515625</AltitudeMeters>
            <DistanceMeters>NAN</DistanceMeters>
          </Trackpoint>
          <Trackpoint>
            <Time>2022-09-23T08:08:51.000Z</Time>
            <Position>
              <LatitudeDegrees>49.45932797156274318695068359375</LatitudeDegrees>
              <LongitudeDegrees>20.696285180747509002685546875</LongitudeDegrees>
            </Position>
            <AltitudeMeters>358.600006103515625</AltitudeMeters>
            <DistanceMeters>NAN</DistanceMeters>
          </Trackpoint>
          <Trackpoint>
            <Time>2022-09-23T08:09:00.000Z</Time>
            <Position>
              <LatitudeDegrees>49.45961304008960723876953125</LatitudeDegrees>
              <LongitudeDegrees>20.69631225429475307464599609375</LongitudeDegrees>
            </Position>
            <AltitudeMeters>358.399993896484375</AltitudeMeters>
            <DistanceMeters>NAN</DistanceMeters>
          </Trackpoint>
          <Trackpoint>
            <Time>2022-09-23T08:09:08.000Z</Time>
            <Position>
              <LatitudeDegrees>49.45989492349326610565185546875</LatitudeDegrees>
              <LongitudeDegrees>20.69634946994483470916748046875</LongitudeDegrees>
            </Position>
            <AltitudeMeters>358.399993896484375</AltitudeMeters>
            <DistanceMeters>NAN</DistanceMeters>
          </Trackpoint>
          <Trackpoint>
            <Time>2022-09-23T08:09:14.000Z</Time>
            <Position>
              <LatitudeDegrees>49.46010832674801349639892578125</LatitudeDegrees>
              <LongitudeDegrees>20.6964214704930782318115234375</LongitudeDegrees>
            </Position>
            <AltitudeMeters>358.399993896484375</AltitudeMeters>
            <DistanceMeters>NAN</DistanceMeters>
          </Trackpoint>
          <Trackpoint>
            <Time>2022-09-23T08:09:17.000Z</Time>
            <Position>
              <LatitudeDegrees>49.46021410636603832244873046875</LatitudeDegrees>
              <LongitudeDegrees>20.69647670723497867584228515625</LongitudeDegrees>
            </Position>
            <AltitudeMeters>358.20001220703125</AltitudeMeters>
            <DistanceMeters>NAN</DistanceMeters>
          </Trackpoint>
          <Trackpoint>
            <Time>2022-09-23T08:09:26.000Z</Time>
            <Position>
              <LatitudeDegrees>49.46050143800675868988037109375</LatitudeDegrees>
              <LongitudeDegrees>20.6966447643935680389404296875</LongitudeDegrees>
            </Position>
            <AltitudeMeters>358.20001220703125</AltitudeMeters>
            <DistanceMeters>NAN</DistanceMeters>
          </Trackpoint>
          <Trackpoint>
            <Time>2022-09-23T08:09:33.000Z</Time>
            <Position>
              <LatitudeDegrees>49.46074283681809902191162109375</LatitudeDegrees>
              <LongitudeDegrees>20.69679773412644863128662109375</LongitudeDegrees>
            </Position>
            <AltitudeMeters>358.20001220703125</AltitudeMeters>
            <DistanceMeters>NAN</DistanceMeters>
          </Trackpoint>
          <Trackpoint>
            <Time>2022-09-23T08:09:41.000Z</Time>
            <Position>
              <LatitudeDegrees>49.46100686676800251007080078125</LatitudeDegrees>
              <LongitudeDegrees>20.6969793699681758880615234375</LongitudeDegrees>
            </Position>
            <AltitudeMeters>358</AltitudeMeters>
            <DistanceMeters>NAN</DistanceMeters>
          </Trackpoint>
          <Trackpoint>
            <Time>2022-09-23T08:09:43.000Z</Time>
            <Position>
              <LatitudeDegrees>49.4610689766705036163330078125</LatitudeDegrees>
              <LongitudeDegrees>20.69702672772109508514404296875</LongitudeDegrees>
            </Position>
            <AltitudeMeters>357.79998779296875</AltitudeMeters>
            <DistanceMeters>NAN</DistanceMeters>
          </Trackpoint>
          <Trackpoint>
            <Time>2022-09-23T08:09:44.000Z</Time>
            <Position>
              <LatitudeDegrees>49.4611011631786823272705078125</LatitudeDegrees>
              <LongitudeDegrees>20.69704952649772167205810546875</LongitudeDegrees>
            </Position>
            <AltitudeMeters>357.79998779296875</AltitudeMeters>
            <DistanceMeters>NAN</DistanceMeters>
          </Trackpoint>
          <Trackpoint>
            <Time>2022-09-23T08:09:51.000Z</Time>
            <Position>
              <LatitudeDegrees>49.46135790087282657623291015625</LatitudeDegrees>
              <LongitudeDegrees>20.69720325060188770294189453125</LongitudeDegrees>
            </Position>
            <AltitudeMeters>357.79998779296875</AltitudeMeters>
            <DistanceMeters>NAN</DistanceMeters>
          </Trackpoint>
          <Trackpoint>
            <Time>2022-09-23T08:09:59.000Z</Time>
            <Position>
              <LatitudeDegrees>49.4616677798330783843994140625</LatitudeDegrees>
              <LongitudeDegrees>20.69731657393276691436767578125</LongitudeDegrees>
            </Position>
            <AltitudeMeters>357.79998779296875</AltitudeMeters>
            <DistanceMeters>NAN</DistanceMeters>
          </Trackpoint>
          <Trackpoint>
            <Time>2022-09-23T08:10:01.000Z</Time>
            <Position>
              <LatitudeDegrees>49.46174673736095428466796875</LatitudeDegrees>
              <LongitudeDegrees>20.69737373851239681243896484375</LongitudeDegrees>
            </Position>
            <AltitudeMeters>357.79998779296875</AltitudeMeters>
            <DistanceMeters>NAN</DistanceMeters>
          </Trackpoint>
          <Trackpoint>
            <Time>2022-09-23T08:10:04.000Z</Time>
            <Position>
              <LatitudeDegrees>49.46184656582772731781005859375</LatitudeDegrees>
              <LongitudeDegrees>20.697507597506046295166015625</LongitudeDegrees>
            </Position>
            <AltitudeMeters>357.79998779296875</AltitudeMeters>
            <DistanceMeters>NAN</DistanceMeters>
          </Trackpoint>
          <Trackpoint>
            <Time>2022-09-23T08:10:11.000Z</Time>
            <Position>
              <LatitudeDegrees>49.4620442949235439300537109375</LatitudeDegrees>
              <LongitudeDegrees>20.69780356250703334808349609375</LongitudeDegrees>
            </Position>
            <AltitudeMeters>358.79998779296875</AltitudeMeters>
            <DistanceMeters>NAN</DistanceMeters>
          </Trackpoint>
          <Trackpoint>
            <Time>2022-09-23T08:10:13.000Z</Time>
            <Position>
              <LatitudeDegrees>49.4620892219245433807373046875</LatitudeDegrees>
              <LongitudeDegrees>20.69786994718015193939208984375</LongitudeDegrees>
            </Position>
            <AltitudeMeters>359.20001220703125</AltitudeMeters>
            <DistanceMeters>NAN</DistanceMeters>
          </Trackpoint>
          <Trackpoint>
            <Time>2022-09-23T08:10:16.000Z</Time>
            <Position>
              <LatitudeDegrees>49.4621535949409008026123046875</LatitudeDegrees>
              <LongitudeDegrees>20.697957538068294525146484375</LongitudeDegrees>
            </Position>
            <AltitudeMeters>359.399993896484375</AltitudeMeters>
            <DistanceMeters>NAN</DistanceMeters>
          </Trackpoint>
          <Trackpoint>
            <Time>2022-09-23T08:10:20.000Z</Time>
            <Position>
              <LatitudeDegrees>49.4622615538537502288818359375</LatitudeDegrees>
              <LongitudeDegrees>20.6980421952903270721435546875</LongitudeDegrees>
            </Position>
            <AltitudeMeters>359.600006103515625</AltitudeMeters>
            <DistanceMeters>NAN</DistanceMeters>
          </Trackpoint>
          <Trackpoint>
            <Time>2022-09-23T08:10:24.000Z</Time>
            <Position>
              <LatitudeDegrees>49.46240228600800037384033203125</LatitudeDegrees>
              <LongitudeDegrees>20.6981354020535945892333984375</LongitudeDegrees>
            </Position>
            <AltitudeMeters>359.600006103515625</AltitudeMeters>
            <DistanceMeters>NAN</DistanceMeters>
          </Trackpoint>
          <Trackpoint>
            <Time>2022-09-23T08:10:31.000Z</Time>
            <Position>
              <LatitudeDegrees>49.462657012045383453369140625</LatitudeDegrees>
              <LongitudeDegrees>20.69832894019782543182373046875</LongitudeDegrees>
            </Position>
            <AltitudeMeters>358.79998779296875</AltitudeMeters>
            <DistanceMeters>NAN</DistanceMeters>
          </Trackpoint>
          <Trackpoint>
            <Time>2022-09-23T08:10:39.000Z</Time>
            <Position>
              <LatitudeDegrees>49.46289782412350177764892578125</LatitudeDegrees>
              <LongitudeDegrees>20.69852977059781551361083984375</LongitudeDegrees>
            </Position>
            <AltitudeMeters>359</AltitudeMeters>
            <DistanceMeters>NAN</DistanceMeters>
          </Trackpoint>
          <Trackpoint>
            <Time>2022-09-23T08:10:47.000Z</Time>
            <Position>
              <LatitudeDegrees>49.46308189071714878082275390625</LatitudeDegrees>
              <LongitudeDegrees>20.698783658444881439208984375</LongitudeDegrees>
            </Position>
            <AltitudeMeters>359</AltitudeMeters>
            <DistanceMeters>NAN</DistanceMeters>
          </Trackpoint>
          <Trackpoint>
            <Time>2022-09-23T08:10:53.000Z</Time>
            <Position>
              <LatitudeDegrees>49.4632224552333354949951171875</LatitudeDegrees>
              <LongitudeDegrees>20.69896780885756015777587890625</LongitudeDegrees>
            </Position>
            <AltitudeMeters>359</AltitudeMeters>
            <DistanceMeters>NAN</DistanceMeters>
          </Trackpoint>
          <Trackpoint>
            <Time>2022-09-23T08:10:55.000Z</Time>
            <Position>
              <LatitudeDegrees>49.46328699588775634765625</LatitudeDegrees>
              <LongitudeDegrees>20.69900183938443660736083984375</LongitudeDegrees>
            </Position>
            <AltitudeMeters>359.20001220703125</AltitudeMeters>
            <DistanceMeters>NAN</DistanceMeters>
          </Trackpoint>
          <Trackpoint>
            <Time>2022-09-23T08:10:58.000Z</Time>
            <Position>
              <LatitudeDegrees>49.4633632712066173553466796875</LatitudeDegrees>
              <LongitudeDegrees>20.69903008639812469482421875</LongitudeDegrees>
            </Position>
            <AltitudeMeters>359.399993896484375</AltitudeMeters>
            <DistanceMeters>NAN</DistanceMeters>
          </Trackpoint>
          <Trackpoint>
            <Time>2022-09-23T08:11:02.000Z</Time>
            <Position>
              <LatitudeDegrees>49.46346863172948360443115234375</LatitudeDegrees>
              <LongitudeDegrees>20.699064619839191436767578125</LongitudeDegrees>
            </Position>
            <AltitudeMeters>359.399993896484375</AltitudeMeters>
            <DistanceMeters>NAN</DistanceMeters>
          </Trackpoint>
          <Trackpoint>
            <Time>2022-09-23T08:11:12.000Z</Time>
            <Position>
              <LatitudeDegrees>49.46379192173480987548828125</LatitudeDegrees>
              <LongitudeDegrees>20.6991326808929443359375</LongitudeDegrees>
            </Position>
            <AltitudeMeters>358.600006103515625</AltitudeMeters>
            <DistanceMeters>NAN</DistanceMeters>
          </Trackpoint>
          <Trackpoint>
            <Time>2022-09-23T08:11:13.000Z</Time>
            <Position>
              <LatitudeDegrees>49.46382855065166950225830078125</LatitudeDegrees>
              <LongitudeDegrees>20.69913276471197605133056640625</LongitudeDegrees>
            </Position>
            <AltitudeMeters>358.600006103515625</AltitudeMeters>
            <DistanceMeters>NAN</DistanceMeters>
          </Trackpoint>
          <Trackpoint>
            <Time>2022-09-23T08:11:18.000Z</Time>
            <Position>
              <LatitudeDegrees>49.464035667479038238525390625</LatitudeDegrees>
              <LongitudeDegrees>20.69905347190797328948974609375</LongitudeDegrees>
            </Position>
            <AltitudeMeters>358.20001220703125</AltitudeMeters>
            <DistanceMeters>NAN</DistanceMeters>
          </Trackpoint>
          <Trackpoint>
            <Time>2022-09-23T08:11:24.000Z</Time>
            <Position>
              <LatitudeDegrees>49.464279077947139739990234375</LatitudeDegrees>
              <LongitudeDegrees>20.698957331478595733642578125</LongitudeDegrees>
            </Position>
            <AltitudeMeters>358.20001220703125</AltitudeMeters>
            <DistanceMeters>NAN</DistanceMeters>
          </Trackpoint>
          <Trackpoint>
            <Time>2022-09-23T08:11:25.000Z</Time>
            <Position>
              <LatitudeDegrees>49.46431470103561878204345703125</LatitudeDegrees>
              <LongitudeDegrees>20.6989521346986293792724609375</LongitudeDegrees>
            </Position>
            <AltitudeMeters>358.20001220703125</AltitudeMeters>
            <DistanceMeters>NAN</DistanceMeters>
          </Trackpoint>
          <Trackpoint>
            <Time>2022-09-23T08:11:26.000Z</Time>
            <Position>
              <LatitudeDegrees>49.464344121515750885009765625</LatitudeDegrees>
              <LongitudeDegrees>20.6989521346986293792724609375</LongitudeDegrees>
            </Position>
            <AltitudeMeters>358.20001220703125</AltitudeMeters>
            <DistanceMeters>NAN</DistanceMeters>
          </Trackpoint>
          <Trackpoint>
            <Time>2022-09-23T08:11:30.000Z</Time>
            <Position>
              <LatitudeDegrees>49.46447395719587802886962890625</LatitudeDegrees>
              <LongitudeDegrees>20.69902933202683925628662109375</LongitudeDegrees>
            </Position>
            <AltitudeMeters>358.20001220703125</AltitudeMeters>
            <DistanceMeters>NAN</DistanceMeters>
          </Trackpoint>
          <Trackpoint>
            <Time>2022-09-23T08:11:32.000Z</Time>
            <Position>
              <LatitudeDegrees>49.46452458389103412628173828125</LatitudeDegrees>
              <LongitudeDegrees>20.699080713093280792236328125</LongitudeDegrees>
            </Position>
            <AltitudeMeters>358.20001220703125</AltitudeMeters>
            <DistanceMeters>NAN</DistanceMeters>
          </Trackpoint>
          <Trackpoint>
            <Time>2022-09-23T08:11:35.000Z</Time>
            <Position>
              <LatitudeDegrees>49.46457244455814361572265625</LatitudeDegrees>
              <LongitudeDegrees>20.6991408951580524444580078125</LongitudeDegrees>
            </Position>
            <AltitudeMeters>358.399993896484375</AltitudeMeters>
            <DistanceMeters>NAN</DistanceMeters>
          </Trackpoint>
          <Trackpoint>
            <Time>2022-09-23T08:11:39.000Z</Time>
            <Position>
              <LatitudeDegrees>49.4645742885768413543701171875</LatitudeDegrees>
              <LongitudeDegrees>20.69914567284286022186279296875</LongitudeDegrees>
            </Position>
            <AltitudeMeters>358.600006103515625</AltitudeMeters>
            <DistanceMeters>NAN</DistanceMeters>
          </Trackpoint>
          <Trackpoint>
            <Time>2022-09-23T08:11:51.000Z</Time>
            <Position>
              <LatitudeDegrees>49.4645742885768413543701171875</LatitudeDegrees>
              <LongitudeDegrees>20.69914567284286022186279296875</LongitudeDegrees>
            </Position>
            <AltitudeMeters>358.600006103515625</AltitudeMeters>
            <DistanceMeters>NAN</DistanceMeters>
          </Trackpoint>
          <Trackpoint>
            <Time>2022-09-23T08:11:54.000Z</Time>
            <Position>
              <LatitudeDegrees>49.4645742885768413543701171875</LatitudeDegrees>
              <LongitudeDegrees>20.69914567284286022186279296875</LongitudeDegrees>
            </Position>
            <AltitudeMeters>358.600006103515625</AltitudeMeters>
            <DistanceMeters>NAN</DistanceMeters>
          </Trackpoint>
          <Trackpoint>
            <Time>2022-09-23T08:12:11.000Z</Time>
            <Position>
              <LatitudeDegrees>49.46456305682659149169921875</LatitudeDegrees>
              <LongitudeDegrees>20.69912689737975597381591796875</LongitudeDegrees>
            </Position>
            <AltitudeMeters>358.600006103515625</AltitudeMeters>
            <DistanceMeters>NAN</DistanceMeters>
          </Trackpoint>
          <Trackpoint>
            <Time>2022-09-23T08:12:12.000Z</Time>
            <Position>
              <LatitudeDegrees>49.4645498134195804595947265625</LatitudeDegrees>
              <LongitudeDegrees>20.699112229049205780029296875</LongitudeDegrees>
            </Position>
            <AltitudeMeters>358.600006103515625</AltitudeMeters>
            <DistanceMeters>NAN</DistanceMeters>
          </Trackpoint>
          <Trackpoint>
            <Time>2022-09-23T08:12:13.000Z</Time>
            <Position>
              <LatitudeDegrees>49.46453816257417201995849609375</LatitudeDegrees>
              <LongitudeDegrees>20.6991003267467021942138671875</LongitudeDegrees>
            </Position>
            <AltitudeMeters>358.600006103515625</AltitudeMeters>
            <DistanceMeters>NAN</DistanceMeters>
          </Trackpoint>
          <Trackpoint>
            <Time>2022-09-23T08:12:19.000Z</Time>
            <Position>
              <LatitudeDegrees>49.4644140265882015228271484375</LatitudeDegrees>
              <LongitudeDegrees>20.69897317327558994293212890625</LongitudeDegrees>
            </Position>
            <AltitudeMeters>358.20001220703125</AltitudeMeters>
            <DistanceMeters>NAN</DistanceMeters>
          </Trackpoint>
          <Trackpoint>
            <Time>2022-09-23T08:12:22.000Z</Time>
            <Position>
              <LatitudeDegrees>49.4643385894596576690673828125</LatitudeDegrees>
              <LongitudeDegrees>20.69893620908260345458984375</LongitudeDegrees>
            </Position>
            <AltitudeMeters>358</AltitudeMeters>
            <DistanceMeters>NAN</DistanceMeters>
          </Trackpoint>
          <Trackpoint>
            <Time>2022-09-23T08:12:25.000Z</Time>
            <Position>
              <LatitudeDegrees>49.46425451897084712982177734375</LatitudeDegrees>
              <LongitudeDegrees>20.698939226567745208740234375</LongitudeDegrees>
            </Position>
            <AltitudeMeters>357.79998779296875</AltitudeMeters>
            <DistanceMeters>NAN</DistanceMeters>
          </Trackpoint>
          <Trackpoint>
            <Time>2022-09-23T08:12:32.000Z</Time>
            <Position>
              <LatitudeDegrees>49.46407087147235870361328125</LatitudeDegrees>
              <LongitudeDegrees>20.6990054436028003692626953125</LongitudeDegrees>
            </Position>
            <AltitudeMeters>357.600006103515625</AltitudeMeters>
            <DistanceMeters>NAN</DistanceMeters>
          </Trackpoint>
          <Trackpoint>
            <Time>2022-09-23T08:12:36.000Z</Time>
            <Position>
              <LatitudeDegrees>49.46394388563930988311767578125</LatitudeDegrees>
              <LongitudeDegrees>20.69904693402349948883056640625</LongitudeDegrees>
            </Position>
            <AltitudeMeters>357.600006103515625</AltitudeMeters>
            <DistanceMeters>NAN</DistanceMeters>
          </Trackpoint>
          <Trackpoint>
            <Time>2022-09-23T08:12:39.000Z</Time>
            <Position>
              <LatitudeDegrees>49.4638668559491634368896484375</LatitudeDegrees>
              <LongitudeDegrees>20.6990678049623966217041015625</LongitudeDegrees>
            </Position>
            <AltitudeMeters>357.600006103515625</AltitudeMeters>
            <DistanceMeters>NAN</DistanceMeters>
          </Trackpoint>
          <Trackpoint>
            <Time>2022-09-23T08:12:40.000Z</Time>
            <Position>
              <LatitudeDegrees>49.46383022703230381011962890625</LatitudeDegrees>
              <LongitudeDegrees>20.69907040335237979888916015625</LongitudeDegrees>
            </Position>
            <AltitudeMeters>357.600006103515625</AltitudeMeters>
            <DistanceMeters>NAN</DistanceMeters>
          </Trackpoint>
          <Trackpoint>
            <Time>2022-09-23T08:12:43.000Z</Time>
            <Position>
              <LatitudeDegrees>49.463740624487400054931640625</LatitudeDegrees>
              <LongitudeDegrees>20.69906118325889110565185546875</LongitudeDegrees>
            </Position>
            <AltitudeMeters>357.79998779296875</AltitudeMeters>
            <DistanceMeters>NAN</DistanceMeters>
          </Trackpoint>
          <Trackpoint>
            <Time>2022-09-23T08:12:49.000Z</Time>
            <Position>
              <LatitudeDegrees>49.4635619223117828369140625</LatitudeDegrees>
              <LongitudeDegrees>20.699043832719326019287109375</LongitudeDegrees>
            </Position>
            <AltitudeMeters>358</AltitudeMeters>
            <DistanceMeters>NAN</DistanceMeters>
          </Trackpoint>
          <Trackpoint>
            <Time>2022-09-23T08:12:52.000Z</Time>
            <Position>
              <LatitudeDegrees>49.46347064338624477386474609375</LatitudeDegrees>
              <LongitudeDegrees>20.6990121491253376007080078125</LongitudeDegrees>
            </Position>
            <AltitudeMeters>358.20001220703125</AltitudeMeters>
            <DistanceMeters>NAN</DistanceMeters>
          </Trackpoint>
          <Trackpoint>
            <Time>2022-09-23T08:12:56.000Z</Time>
            <Position>
              <LatitudeDegrees>49.4633589126169681549072265625</LatitudeDegrees>
              <LongitudeDegrees>20.69899362511932849884033203125</LongitudeDegrees>
            </Position>
            <AltitudeMeters>358.600006103515625</AltitudeMeters>
            <DistanceMeters>NAN</DistanceMeters>
          </Trackpoint>
          <Trackpoint>
            <Time>2022-09-23T08:13:00.000Z</Time>
            <Position>
              <LatitudeDegrees>49.463262520730495452880859375</LatitudeDegrees>
              <LongitudeDegrees>20.69906973280012607574462890625</LongitudeDegrees>
            </Position>
            <AltitudeMeters>358.600006103515625</AltitudeMeters>
            <DistanceMeters>NAN</DistanceMeters>
          </Trackpoint>
          <Trackpoint>
            <Time>2022-09-23T08:13:05.000Z</Time>
            <Position>
              <LatitudeDegrees>49.46321482770144939422607421875</LatitudeDegrees>
              <LongitudeDegrees>20.69928950630128383636474609375</LongitudeDegrees>
            </Position>
            <AltitudeMeters>358.79998779296875</AltitudeMeters>
            <DistanceMeters>NAN</DistanceMeters>
          </Trackpoint>
          <Trackpoint>
            <Time>2022-09-23T08:13:06.000Z</Time>
            <Position>
              <LatitudeDegrees>49.463218264281749725341796875</LatitudeDegrees>
              <LongitudeDegrees>20.69933409802615642547607421875</LongitudeDegrees>
            </Position>
            <AltitudeMeters>359</AltitudeMeters>
            <DistanceMeters>NAN</DistanceMeters>
          </Trackpoint>
          <Trackpoint>
            <Time>2022-09-23T08:13:10.000Z</Time>
            <Position>
              <LatitudeDegrees>49.4632717408239841461181640625</LatitudeDegrees>
              <LongitudeDegrees>20.69947893731296062469482421875</LongitudeDegrees>
            </Position>
            <AltitudeMeters>359.399993896484375</AltitudeMeters>
            <DistanceMeters>NAN</DistanceMeters>
          </Trackpoint>
          <Trackpoint>
            <Time>2022-09-23T08:13:16.000Z</Time>
            <Position>
              <LatitudeDegrees>49.46341515518724918365478515625</LatitudeDegrees>
              <LongitudeDegrees>20.699613802134990692138671875</LongitudeDegrees>
            </Position>
            <AltitudeMeters>360</AltitudeMeters>
            <DistanceMeters>NAN</DistanceMeters>
          </Trackpoint>
          <Trackpoint>
            <Time>2022-09-23T08:13:17.000Z</Time>
            <Position>
              <LatitudeDegrees>49.4634393788874149322509765625</LatitudeDegrees>
              <LongitudeDegrees>20.6996262073516845703125</LongitudeDegrees>
            </Position>
            <AltitudeMeters>360.20001220703125</AltitudeMeters>
            <DistanceMeters>NAN</DistanceMeters>
          </Trackpoint>
          <Trackpoint>
            <Time>2022-09-23T08:13:22.000Z</Time>
            <Position>
              <LatitudeDegrees>49.46357332170009613037109375</LatitudeDegrees>
              <LongitudeDegrees>20.69971547462046146392822265625</LongitudeDegrees>
            </Position>
            <AltitudeMeters>360.79998779296875</AltitudeMeters>
            <DistanceMeters>NAN</DistanceMeters>
          </Trackpoint>
          <Trackpoint>
            <Time>2022-09-23T08:13:29.000Z</Time>
            <Position>
              <LatitudeDegrees>49.46374791674315929412841796875</LatitudeDegrees>
              <LongitudeDegrees>20.69979929365217685699462890625</LongitudeDegrees>
            </Position>
            <AltitudeMeters>361</AltitudeMeters>
            <DistanceMeters>NAN</DistanceMeters>
          </Trackpoint>
          <Trackpoint>
            <Time>2022-09-23T08:13:34.000Z</Time>
            <Position>
              <LatitudeDegrees>49.463897533714771270751953125</LatitudeDegrees>
              <LongitudeDegrees>20.6998510099947452545166015625</LongitudeDegrees>
            </Position>
            <AltitudeMeters>361.20001220703125</AltitudeMeters>
            <DistanceMeters>NAN</DistanceMeters>
          </Trackpoint>
          <Trackpoint>
            <Time>2022-09-23T08:13:35.000Z</Time>
            <Position>
              <LatitudeDegrees>49.4639245234429836273193359375</LatitudeDegrees>
              <LongitudeDegrees>20.6998627446591854095458984375</LongitudeDegrees>
            </Position>
            <AltitudeMeters>361.20001220703125</AltitudeMeters>
            <DistanceMeters>NAN</DistanceMeters>
          </Trackpoint>
          <Trackpoint>
            <Time>2022-09-23T08:13:39.000Z</Time>
            <Position>
              <LatitudeDegrees>49.4640308059751987457275390625</LatitudeDegrees>
              <LongitudeDegrees>20.69991345517337322235107421875</LongitudeDegrees>
            </Position>
            <AltitudeMeters>361.600006103515625</AltitudeMeters>
            <DistanceMeters>NAN</DistanceMeters>
          </Trackpoint>
          <Trackpoint>
            <Time>2022-09-23T08:13:48.000Z</Time>
            <Position>
              <LatitudeDegrees>49.4642685167491436004638671875</LatitudeDegrees>
              <LongitudeDegrees>20.7000223360955715179443359375</LongitudeDegrees>
            </Position>
            <AltitudeMeters>361.79998779296875</AltitudeMeters>
            <DistanceMeters>NAN</DistanceMeters>
          </Trackpoint>
          <Trackpoint>
            <Time>2022-09-23T08:13:56.000Z</Time>
            <Position>
              <LatitudeDegrees>49.46446607820689678192138671875</LatitudeDegrees>
              <LongitudeDegrees>20.7001517526805400848388671875</LongitudeDegrees>
            </Position>
            <AltitudeMeters>362</AltitudeMeters>
            <DistanceMeters>NAN</DistanceMeters>
          </Trackpoint>
          <Trackpoint>
            <Time>2022-09-23T08:13:57.000Z</Time>
            <Position>
              <LatitudeDegrees>49.46449642069637775421142578125</LatitudeDegrees>
              <LongitudeDegrees>20.70017145015299320220947265625</LongitudeDegrees>
            </Position>
            <AltitudeMeters>362</AltitudeMeters>
            <DistanceMeters>NAN</DistanceMeters>
          </Trackpoint>
          <Trackpoint>
            <Time>2022-09-23T08:14:01.000Z</Time>
            <Position>
              <LatitudeDegrees>49.464593566954135894775390625</LatitudeDegrees>
              <LongitudeDegrees>20.70024973712861537933349609375</LongitudeDegrees>
            </Position>
            <AltitudeMeters>362</AltitudeMeters>
            <DistanceMeters>NAN</DistanceMeters>
          </Trackpoint>
          <Trackpoint>
            <Time>2022-09-23T08:14:04.000Z</Time>
            <Position>
              <LatitudeDegrees>49.46465902961790561676025390625</LatitudeDegrees>
              <LongitudeDegrees>20.70032282732427120208740234375</LongitudeDegrees>
            </Position>
            <AltitudeMeters>362.20001220703125</AltitudeMeters>
            <DistanceMeters>NAN</DistanceMeters>
          </Trackpoint>
          <Trackpoint>
            <Time>2022-09-23T08:14:05.000Z</Time>
            <Position>
              <LatitudeDegrees>49.46467864327132701873779296875</LatitudeDegrees>
              <LongitudeDegrees>20.7003448717296123504638671875</LongitudeDegrees>
            </Position>
            <AltitudeMeters>362.20001220703125</AltitudeMeters>
            <DistanceMeters>NAN</DistanceMeters>
          </Trackpoint>
          <Trackpoint>
            <Time>2022-09-23T08:14:14.000Z</Time>
            <Position>
              <LatitudeDegrees>49.46489640511572360992431640625</LatitudeDegrees>
              <LongitudeDegrees>20.70052851922810077667236328125</LongitudeDegrees>
            </Position>
            <AltitudeMeters>362</AltitudeMeters>
            <DistanceMeters>NAN</DistanceMeters>
          </Trackpoint>
          <Trackpoint>
            <Time>2022-09-23T08:14:20.000Z</Time>
            <Position>
              <LatitudeDegrees>49.46506253443658351898193359375</LatitudeDegrees>
              <LongitudeDegrees>20.7005594484508037567138671875</LongitudeDegrees>
            </Position>
            <AltitudeMeters>361.79998779296875</AltitudeMeters>
            <DistanceMeters>NAN</DistanceMeters>
          </Trackpoint>
          <Trackpoint>
            <Time>2022-09-23T08:14:28.000Z</Time>
            <Position>
              <LatitudeDegrees>49.46528549306094646453857421875</LatitudeDegrees>
              <LongitudeDegrees>20.70064821280539035797119140625</LongitudeDegrees>
            </Position>
            <AltitudeMeters>361.399993896484375</AltitudeMeters>
            <DistanceMeters>NAN</DistanceMeters>
          </Trackpoint>
          <Trackpoint>
            <Time>2022-09-23T08:14:31.000Z</Time>
            <Position>
              <LatitudeDegrees>49.465364031493663787841796875</LatitudeDegrees>
              <LongitudeDegrees>20.70069976150989532470703125</LongitudeDegrees>
            </Position>
            <AltitudeMeters>361.399993896484375</AltitudeMeters>
            <DistanceMeters>NAN</DistanceMeters>
          </Trackpoint>
          <Trackpoint>
            <Time>2022-09-23T08:14:36.000Z</Time>
            <Position>
              <LatitudeDegrees>49.46550694294273853302001953125</LatitudeDegrees>
              <LongitudeDegrees>20.70080704987049102783203125</LongitudeDegrees>
            </Position>
            <AltitudeMeters>361.20001220703125</AltitudeMeters>
            <DistanceMeters>NAN</DistanceMeters>
          </Trackpoint>
          <Trackpoint>
            <Time>2022-09-23T08:14:43.000Z</Time>
            <Position>
              <LatitudeDegrees>49.465710036456584930419921875</LatitudeDegrees>
              <LongitudeDegrees>20.7009150087833404541015625</LongitudeDegrees>
            </Position>
            <AltitudeMeters>360.79998779296875</AltitudeMeters>
            <DistanceMeters>NAN</DistanceMeters>
          </Trackpoint>
          <Trackpoint>
            <Time>2022-09-23T08:14:44.000Z</Time>
            <Position>
              <LatitudeDegrees>49.4657390378415584564208984375</LatitudeDegrees>
              <LongitudeDegrees>20.7009284198284149169921875</LongitudeDegrees>
            </Position>
            <AltitudeMeters>360.79998779296875</AltitudeMeters>
            <DistanceMeters>NAN</DistanceMeters>
          </Trackpoint>
          <Trackpoint>
            <Time>2022-09-23T08:14:50.000Z</Time>
            <Position>
              <LatitudeDegrees>49.46588530205190181732177734375</LatitudeDegrees>
              <LongitudeDegrees>20.7009976543486118316650390625</LongitudeDegrees>
            </Position>
            <AltitudeMeters>360.600006103515625</AltitudeMeters>
            <DistanceMeters>NAN</DistanceMeters>
          </Trackpoint>
          <Trackpoint>
            <Time>2022-09-23T08:14:51.000Z</Time>
            <Position>
              <LatitudeDegrees>49.4659061729907989501953125</LatitudeDegrees>
              <LongitudeDegrees>20.701001845300197601318359375</LongitudeDegrees>
            </Position>
            <AltitudeMeters>360.600006103515625</AltitudeMeters>
            <DistanceMeters>NAN</DistanceMeters>
          </Trackpoint>
          <Trackpoint>
            <Time>2022-09-23T08:14:58.000Z</Time>
            <Position>
              <LatitudeDegrees>49.466051347553730010986328125</LatitudeDegrees>
              <LongitudeDegrees>20.70108465850353240966796875</LongitudeDegrees>
            </Position>
            <AltitudeMeters>360.600006103515625</AltitudeMeters>
            <DistanceMeters>NAN</DistanceMeters>
          </Trackpoint>
          <Trackpoint>
            <Time>2022-09-23T08:15:04.000Z</Time>
            <Position>
              <LatitudeDegrees>49.4661705382168292999267578125</LatitudeDegrees>
              <LongitudeDegrees>20.70113872177898883819580078125</LongitudeDegrees>
            </Position>
            <AltitudeMeters>360.600006103515625</AltitudeMeters>
            <DistanceMeters>NAN</DistanceMeters>
          </Trackpoint>
          <Trackpoint>
            <Time>2022-09-23T08:15:10.000Z</Time>
            <Position>
              <LatitudeDegrees>49.46634613908827304840087890625</LatitudeDegrees>
              <LongitudeDegrees>20.70125363767147064208984375</LongitudeDegrees>
            </Position>
            <AltitudeMeters>360.600006103515625</AltitudeMeters>
            <DistanceMeters>NAN</DistanceMeters>
          </Trackpoint>
          <Trackpoint>
            <Time>2022-09-23T08:15:12.000Z</Time>
            <Position>
              <LatitudeDegrees>49.46641453541815280914306640625</LatitudeDegrees>
              <LongitudeDegrees>20.70128205232322216033935546875</LongitudeDegrees>
            </Position>
            <AltitudeMeters>360.600006103515625</AltitudeMeters>
            <DistanceMeters>NAN</DistanceMeters>
          </Trackpoint>
          <Trackpoint>
            <Time>2022-09-23T08:15:13.000Z</Time>
            <Position>
              <LatitudeDegrees>49.46645057760179042816162109375</LatitudeDegrees>
              <LongitudeDegrees>20.7012886740267276763916015625</LongitudeDegrees>
            </Position>
            <AltitudeMeters>360.600006103515625</AltitudeMeters>
            <DistanceMeters>NAN</DistanceMeters>
          </Trackpoint>
          <Trackpoint>
            <Time>2022-09-23T08:15:16.000Z</Time>
            <Position>
              <LatitudeDegrees>49.4665601290762424468994140625</LatitudeDegrees>
              <LongitudeDegrees>20.701284818351268768310546875</LongitudeDegrees>
            </Position>
            <AltitudeMeters>361</AltitudeMeters>
            <DistanceMeters>NAN</DistanceMeters>
          </Trackpoint>
          <Trackpoint>
            <Time>2022-09-23T08:15:18.000Z</Time>
            <Position>
              <LatitudeDegrees>49.4666308723390102386474609375</LatitudeDegrees>
              <LongitudeDegrees>20.70129127241671085357666015625</LongitudeDegrees>
            </Position>
            <AltitudeMeters>361.399993896484375</AltitudeMeters>
            <DistanceMeters>NAN</DistanceMeters>
          </Trackpoint>
          <Trackpoint>
            <Time>2022-09-23T08:15:23.000Z</Time>
            <Position>
              <LatitudeDegrees>49.4667840935289859771728515625</LatitudeDegrees>
              <LongitudeDegrees>20.701383389532566070556640625</LongitudeDegrees>
            </Position>
            <AltitudeMeters>362.399993896484375</AltitudeMeters>
            <DistanceMeters>NAN</DistanceMeters>
          </Trackpoint>
          <Trackpoint>
            <Time>2022-09-23T08:15:24.000Z</Time>
            <Position>
              <LatitudeDegrees>49.46680806577205657958984375</LatitudeDegrees>
              <LongitudeDegrees>20.701398141682147979736328125</LongitudeDegrees>
            </Position>
            <AltitudeMeters>362.399993896484375</AltitudeMeters>
            <DistanceMeters>NAN</DistanceMeters>
          </Trackpoint>
          <Trackpoint>
            <Time>2022-09-23T08:15:27.000Z</Time>
            <Position>
              <LatitudeDegrees>49.46687914431095123291015625</LatitudeDegrees>
              <LongitudeDegrees>20.70144809782505035400390625</LongitudeDegrees>
            </Position>
            <AltitudeMeters>363</AltitudeMeters>
            <DistanceMeters>NAN</DistanceMeters>
          </Trackpoint>
          <Trackpoint>
            <Time>2022-09-23T08:15:30.000Z</Time>
            <Position>
              <LatitudeDegrees>49.4669547490775585174560546875</LatitudeDegrees>
              <LongitudeDegrees>20.701469220221042633056640625</LongitudeDegrees>
            </Position>
            <AltitudeMeters>363.20001220703125</AltitudeMeters>
            <DistanceMeters>NAN</DistanceMeters>
          </Trackpoint>
          <Trackpoint>
            <Time>2022-09-23T08:15:34.000Z</Time>
            <Position>
              <LatitudeDegrees>49.46704083122313022613525390625</LatitudeDegrees>
              <LongitudeDegrees>20.70147047750651836395263671875</LongitudeDegrees>
            </Position>
            <AltitudeMeters>363.399993896484375</AltitudeMeters>
            <DistanceMeters>NAN</DistanceMeters>
          </Trackpoint>
          <Trackpoint>
            <Time>2022-09-23T08:15:36.000Z</Time>
            <Position>
              <LatitudeDegrees>49.46707301773130893707275390625</LatitudeDegrees>
              <LongitudeDegrees>20.70147315971553325653076171875</LongitudeDegrees>
            </Position>
            <AltitudeMeters>363.399993896484375</AltitudeMeters>
            <DistanceMeters>NAN</DistanceMeters>
          </Trackpoint>
          <Trackpoint>
            <Time>2022-09-23T08:15:41.000Z</Time>
            <Position>
              <LatitudeDegrees>49.46707704104483127593994140625</LatitudeDegrees>
              <LongitudeDegrees>20.70147450082004070281982421875</LongitudeDegrees>
            </Position>
            <AltitudeMeters>363.399993896484375</AltitudeMeters>
            <DistanceMeters>NAN</DistanceMeters>
          </Trackpoint>
          <Trackpoint>
            <Time>2022-09-23T08:15:50.000Z</Time>
            <Position>
              <LatitudeDegrees>49.46707704104483127593994140625</LatitudeDegrees>
              <LongitudeDegrees>20.70147450082004070281982421875</LongitudeDegrees>
            </Position>
            <AltitudeMeters>363.20001220703125</AltitudeMeters>
            <DistanceMeters>NAN</DistanceMeters>
          </Trackpoint>
          <Trackpoint>
            <Time>2022-09-23T08:15:58.000Z</Time>
            <Position>
              <LatitudeDegrees>49.46707704104483127593994140625</LatitudeDegrees>
              <LongitudeDegrees>20.70147450082004070281982421875</LongitudeDegrees>
            </Position>
            <AltitudeMeters>363.20001220703125</AltitudeMeters>
            <DistanceMeters>NAN</DistanceMeters>
          </Trackpoint>
          <Trackpoint>
            <Time>2022-09-23T08:16:00.000Z</Time>
            <Position>
              <LatitudeDegrees>49.46707704104483127593994140625</LatitudeDegrees>
              <LongitudeDegrees>20.70147450082004070281982421875</LongitudeDegrees>
            </Position>
            <AltitudeMeters>363.20001220703125</AltitudeMeters>
            <DistanceMeters>NAN</DistanceMeters>
          </Trackpoint>
          <Trackpoint>
            <Time>2022-09-23T08:16:17.000Z</Time>
            <Position>
              <LatitudeDegrees>49.46714225225150585174560546875</LatitudeDegrees>
              <LongitudeDegrees>20.701490342617034912109375</LongitudeDegrees>
            </Position>
            <AltitudeMeters>362.79998779296875</AltitudeMeters>
            <DistanceMeters>NAN</DistanceMeters>
          </Trackpoint>
          <Trackpoint>
            <Time>2022-09-23T08:16:23.000Z</Time>
            <Position>
              <LatitudeDegrees>49.46731072850525379180908203125</LatitudeDegrees>
              <LongitudeDegrees>20.701575167477130889892578125</LongitudeDegrees>
            </Position>
            <AltitudeMeters>362.20001220703125</AltitudeMeters>
            <DistanceMeters>NAN</DistanceMeters>
          </Trackpoint>
          <Trackpoint>
            <Time>2022-09-23T08:16:26.000Z</Time>
            <Position>
              <LatitudeDegrees>49.46738247759640216827392578125</LatitudeDegrees>
              <LongitudeDegrees>20.7015998102724552154541015625</LongitudeDegrees>
            </Position>
            <AltitudeMeters>361.600006103515625</AltitudeMeters>
            <DistanceMeters>NAN</DistanceMeters>
          </Trackpoint>
          <Trackpoint>
            <Time>2022-09-23T08:16:28.000Z</Time>
            <Position>
              <LatitudeDegrees>49.4674328528344631195068359375</LatitudeDegrees>
              <LongitudeDegrees>20.701620765030384063720703125</LongitudeDegrees>
            </Position>
            <AltitudeMeters>361.399993896484375</AltitudeMeters>
            <DistanceMeters>NAN</DistanceMeters>
          </Trackpoint>
          <Trackpoint>
            <Time>2022-09-23T08:16:30.000Z</Time>
            <Position>
              <LatitudeDegrees>49.46746713481843471527099609375</LatitudeDegrees>
              <LongitudeDegrees>20.7016846351325511932373046875</LongitudeDegrees>
            </Position>
            <AltitudeMeters>361.399993896484375</AltitudeMeters>
            <DistanceMeters>NAN</DistanceMeters>
          </Trackpoint>
          <Trackpoint>
            <Time>2022-09-23T08:16:32.000Z</Time>
            <Position>
              <LatitudeDegrees>49.467468559741973876953125</LatitudeDegrees>
              <LongitudeDegrees>20.70175596512854099273681640625</LongitudeDegrees>
            </Position>
            <AltitudeMeters>361.399993896484375</AltitudeMeters>
            <DistanceMeters>NAN</DistanceMeters>
          </Trackpoint>
          <Trackpoint>
            <Time>2022-09-23T08:16:33.000Z</Time>
            <Position>
              <LatitudeDegrees>49.467463530600070953369140625</LatitudeDegrees>
              <LongitudeDegrees>20.70178211666643619537353515625</LongitudeDegrees>
            </Position>
            <AltitudeMeters>361.600006103515625</AltitudeMeters>
            <DistanceMeters>NAN</DistanceMeters>
          </Trackpoint>
          <Trackpoint>
            <Time>2022-09-23T08:16:36.000Z</Time>
            <Position>
              <LatitudeDegrees>49.46745179593563079833984375</LatitudeDegrees>
              <LongitudeDegrees>20.701844394207000732421875</LongitudeDegrees>
            </Position>
            <AltitudeMeters>361.79998779296875</AltitudeMeters>
            <DistanceMeters>NAN</DistanceMeters>
          </Trackpoint>
          <Trackpoint>
            <Time>2022-09-23T08:16:37.000Z</Time>
            <Position>
              <LatitudeDegrees>49.46745255030691623687744140625</LatitudeDegrees>
              <LongitudeDegrees>20.70186710916459560394287109375</LongitudeDegrees>
            </Position>
            <AltitudeMeters>361.79998779296875</AltitudeMeters>
            <DistanceMeters>NAN</DistanceMeters>
          </Trackpoint>
          <Trackpoint>
            <Time>2022-09-23T08:16:43.000Z</Time>
            <Position>
              <LatitudeDegrees>49.46746998466551303863525390625</LatitudeDegrees>
              <LongitudeDegrees>20.70205570198595523834228515625</LongitudeDegrees>
            </Position>
            <AltitudeMeters>362.399993896484375</AltitudeMeters>
            <DistanceMeters>NAN</DistanceMeters>
          </Trackpoint>
          <Trackpoint>
            <Time>2022-09-23T08:16:48.000Z</Time>
            <Position>
              <LatitudeDegrees>49.4675029255449771881103515625</LatitudeDegrees>
              <LongitudeDegrees>20.70222057402133941650390625</LongitudeDegrees>
            </Position>
            <AltitudeMeters>362.79998779296875</AltitudeMeters>
            <DistanceMeters>NAN</DistanceMeters>
          </Trackpoint>
          <Trackpoint>
            <Time>2022-09-23T08:16:51.000Z</Time>
            <Position>
              <LatitudeDegrees>49.46751474402844905853271484375</LatitudeDegrees>
              <LongitudeDegrees>20.70229140110313892364501953125</LongitudeDegrees>
            </Position>
            <AltitudeMeters>363.399993896484375</AltitudeMeters>
            <DistanceMeters>NAN</DistanceMeters>
          </Trackpoint>
          <Trackpoint>
            <Time>2022-09-23T08:16:56.000Z</Time>
            <Position>
              <LatitudeDegrees>49.46751591749489307403564453125</LatitudeDegrees>
              <LongitudeDegrees>20.7022951729595661163330078125</LongitudeDegrees>
            </Position>
            <AltitudeMeters>363.79998779296875</AltitudeMeters>
            <DistanceMeters>NAN</DistanceMeters>
          </Trackpoint>
          <Trackpoint>
            <Time>2022-09-23T08:17:03.000Z</Time>
            <Position>
              <LatitudeDegrees>49.46751591749489307403564453125</LatitudeDegrees>
              <LongitudeDegrees>20.7022951729595661163330078125</LongitudeDegrees>
            </Position>
            <AltitudeMeters>363.79998779296875</AltitudeMeters>
            <DistanceMeters>NAN</DistanceMeters>
          </Trackpoint>
          <Trackpoint>
            <Time>2022-09-23T08:17:08.000Z</Time>
            <Position>
              <LatitudeDegrees>49.46751591749489307403564453125</LatitudeDegrees>
              <LongitudeDegrees>20.7022951729595661163330078125</LongitudeDegrees>
            </Position>
            <AltitudeMeters>363.79998779296875</AltitudeMeters>
            <DistanceMeters>NAN</DistanceMeters>
          </Trackpoint>
          <Trackpoint>
            <Time>2022-09-23T08:17:25.000Z</Time>
            <Position>
              <LatitudeDegrees>49.46751591749489307403564453125</LatitudeDegrees>
              <LongitudeDegrees>20.7022951729595661163330078125</LongitudeDegrees>
            </Position>
            <AltitudeMeters>363.79998779296875</AltitudeMeters>
            <DistanceMeters>NAN</DistanceMeters>
          </Trackpoint>
          <Trackpoint>
            <Time>2022-09-23T08:17:27.000Z</Time>
            <Position>
              <LatitudeDegrees>49.46751591749489307403564453125</LatitudeDegrees>
              <LongitudeDegrees>20.7022951729595661163330078125</LongitudeDegrees>
            </Position>
            <AltitudeMeters>363.600006103515625</AltitudeMeters>
            <DistanceMeters>NAN</DistanceMeters>
          </Trackpoint>
          <Trackpoint>
            <Time>2022-09-23T08:17:32.000Z</Time>
            <Position>
              <LatitudeDegrees>49.46751591749489307403564453125</LatitudeDegrees>
              <LongitudeDegrees>20.7022951729595661163330078125</LongitudeDegrees>
            </Position>
            <AltitudeMeters>363.600006103515625</AltitudeMeters>
            <DistanceMeters>NAN</DistanceMeters>
          </Trackpoint>
          <Trackpoint>
            <Time>2022-09-23T08:17:36.000Z</Time>
            <Position>
              <LatitudeDegrees>49.46751591749489307403564453125</LatitudeDegrees>
              <LongitudeDegrees>20.7022951729595661163330078125</LongitudeDegrees>
            </Position>
            <AltitudeMeters>363.600006103515625</AltitudeMeters>
            <DistanceMeters>NAN</DistanceMeters>
          </Trackpoint>
          <Trackpoint>
            <Time>2022-09-23T08:17:43.000Z</Time>
            <Position>
              <LatitudeDegrees>49.46751591749489307403564453125</LatitudeDegrees>
              <LongitudeDegrees>20.7022951729595661163330078125</LongitudeDegrees>
            </Position>
            <AltitudeMeters>363.600006103515625</AltitudeMeters>
            <DistanceMeters>NAN</DistanceMeters>
          </Trackpoint>
          <Trackpoint>
            <Time>2022-09-23T08:17:46.000Z</Time>
            <Position>
              <LatitudeDegrees>49.46751591749489307403564453125</LatitudeDegrees>
              <LongitudeDegrees>20.7022951729595661163330078125</LongitudeDegrees>
            </Position>
            <AltitudeMeters>363.600006103515625</AltitudeMeters>
            <DistanceMeters>NAN</DistanceMeters>
          </Trackpoint>
          <Trackpoint>
            <Time>2022-09-23T08:17:50.000Z</Time>
            <Position>
              <LatitudeDegrees>49.46754290722310543060302734375</LatitudeDegrees>
              <LongitudeDegrees>20.70232392288744449615478515625</LongitudeDegrees>
            </Position>
            <AltitudeMeters>363.600006103515625</AltitudeMeters>
            <DistanceMeters>NAN</DistanceMeters>
          </Trackpoint>
          <Trackpoint>
            <Time>2022-09-23T08:17:51.000Z</Time>
            <Position>
              <LatitudeDegrees>49.467557407915592193603515625</LatitudeDegrees>
              <LongitudeDegrees>20.7023427821695804595947265625</LongitudeDegrees>
            </Position>
            <AltitudeMeters>363.600006103515625</AltitudeMeters>
            <DistanceMeters>NAN</DistanceMeters>
          </Trackpoint>
          <Trackpoint>
            <Time>2022-09-23T08:17:55.000Z</Time>
            <Position>
              <LatitudeDegrees>49.46763284504413604736328125</LatitudeDegrees>
              <LongitudeDegrees>20.70245333947241306304931640625</LongitudeDegrees>
            </Position>
            <AltitudeMeters>364</AltitudeMeters>
            <DistanceMeters>NAN</DistanceMeters>
          </Trackpoint>
          <Trackpoint>
            <Time>2022-09-23T08:17:57.000Z</Time>
            <Position>
              <LatitudeDegrees>49.46765656583011150360107421875</LatitudeDegrees>
              <LongitudeDegrees>20.70251050405204296112060546875</LongitudeDegrees>
            </Position>
            <AltitudeMeters>364.399993896484375</AltitudeMeters>
            <DistanceMeters>NAN</DistanceMeters>
          </Trackpoint>
          <Trackpoint>
            <Time>2022-09-23T08:18:05.000Z</Time>
            <Position>
              <LatitudeDegrees>49.46773250587284564971923828125</LatitudeDegrees>
              <LongitudeDegrees>20.70269423536956310272216796875</LongitudeDegrees>
            </Position>
            <AltitudeMeters>365.399993896484375</AltitudeMeters>
            <DistanceMeters>NAN</DistanceMeters>
          </Trackpoint>
          <Trackpoint>
            <Time>2022-09-23T08:18:06.000Z</Time>
            <Position>
              <LatitudeDegrees>49.4677426479756832122802734375</LatitudeDegrees>
              <LongitudeDegrees>20.70271770469844341278076171875</LongitudeDegrees>
            </Position>
            <AltitudeMeters>365.399993896484375</AltitudeMeters>
            <DistanceMeters>NAN</DistanceMeters>
          </Trackpoint>
          <Trackpoint>
            <Time>2022-09-23T08:18:13.000Z</Time>
            <Position>
              <LatitudeDegrees>49.467828981578350067138671875</LatitudeDegrees>
              <LongitudeDegrees>20.70285449735820293426513671875</LongitudeDegrees>
            </Position>
            <AltitudeMeters>366.399993896484375</AltitudeMeters>
            <DistanceMeters>NAN</DistanceMeters>
          </Trackpoint>
          <Trackpoint>
            <Time>2022-09-23T08:18:14.000Z</Time>
            <Position>
              <LatitudeDegrees>49.4678365252912044525146484375</LatitudeDegrees>
              <LongitudeDegrees>20.70287226699292659759521484375</LongitudeDegrees>
            </Position>
            <AltitudeMeters>366.600006103515625</AltitudeMeters>
            <DistanceMeters>NAN</DistanceMeters>
          </Trackpoint>
          <Trackpoint>
            <Time>2022-09-23T08:18:17.000Z</Time>
            <Position>
              <LatitudeDegrees>49.4678599946200847625732421875</LatitudeDegrees>
              <LongitudeDegrees>20.7029268331825733184814453125</LongitudeDegrees>
            </Position>
            <AltitudeMeters>367</AltitudeMeters>
            <DistanceMeters>NAN</DistanceMeters>
          </Trackpoint>
          <Trackpoint>
            <Time>2022-09-23T08:18:19.000Z</Time>
            <Position>
              <LatitudeDegrees>49.46788120083510875701904296875</LatitudeDegrees>
              <LongitudeDegrees>20.7029650546610355377197265625</LongitudeDegrees>
            </Position>
            <AltitudeMeters>367.20001220703125</AltitudeMeters>
            <DistanceMeters>NAN</DistanceMeters>
          </Trackpoint>
          <Trackpoint>
            <Time>2022-09-23T08:18:22.000Z</Time>
            <Position>
              <LatitudeDegrees>49.46791581809520721435546875</LatitudeDegrees>
              <LongitudeDegrees>20.70302615873515605926513671875</LongitudeDegrees>
            </Position>
            <AltitudeMeters>367.600006103515625</AltitudeMeters>
            <DistanceMeters>NAN</DistanceMeters>
          </Trackpoint>
          <Trackpoint>
            <Time>2022-09-23T08:18:28.000Z</Time>
            <Position>
              <LatitudeDegrees>49.46797885000705718994140625</LatitudeDegrees>
              <LongitudeDegrees>20.70315440185368061065673828125</LongitudeDegrees>
            </Position>
            <AltitudeMeters>368.600006103515625</AltitudeMeters>
            <DistanceMeters>NAN</DistanceMeters>
          </Trackpoint>
          <Trackpoint>
            <Time>2022-09-23T08:18:29.000Z</Time>
            <Position>
              <LatitudeDegrees>49.46798882447183132171630859375</LatitudeDegrees>
              <LongitudeDegrees>20.70317217148840427398681640625</LongitudeDegrees>
            </Position>
            <AltitudeMeters>368.79998779296875</AltitudeMeters>
            <DistanceMeters>NAN</DistanceMeters>
          </Trackpoint>
          <Trackpoint>
            <Time>2022-09-23T08:18:31.000Z</Time>
            <Position>
              <LatitudeDegrees>49.4679994694888591766357421875</LatitudeDegrees>
              <LongitudeDegrees>20.7032081298530101776123046875</LongitudeDegrees>
            </Position>
            <AltitudeMeters>369.20001220703125</AltitudeMeters>
            <DistanceMeters>NAN</DistanceMeters>
          </Trackpoint>
          <Trackpoint>
            <Time>2022-09-23T08:18:32.000Z</Time>
            <Position>
              <LatitudeDegrees>49.467999972403049468994140625</LatitudeDegrees>
              <LongitudeDegrees>20.703218020498752593994140625</LongitudeDegrees>
            </Position>
            <AltitudeMeters>369.600006103515625</AltitudeMeters>
            <DistanceMeters>NAN</DistanceMeters>
          </Trackpoint>
          <Trackpoint>
            <Time>2022-09-23T08:18:33.000Z</Time>
            <Position>
              <LatitudeDegrees>49.467999972403049468994140625</LatitudeDegrees>
              <LongitudeDegrees>20.703218020498752593994140625</LongitudeDegrees>
            </Position>
            <AltitudeMeters>369.79998779296875</AltitudeMeters>
            <DistanceMeters>NAN</DistanceMeters>
          </Trackpoint>
          <Trackpoint>
            <Time>2022-09-23T08:18:34.000Z</Time>
            <Position>
              <LatitudeDegrees>49.467999972403049468994140625</LatitudeDegrees>
              <LongitudeDegrees>20.703218020498752593994140625</LongitudeDegrees>
            </Position>
            <AltitudeMeters>369.79998779296875</AltitudeMeters>
            <DistanceMeters>NAN</DistanceMeters>
          </Trackpoint>
          <Trackpoint>
            <Time>2022-09-23T08:18:42.000Z</Time>
            <Position>
              <LatitudeDegrees>49.468015730381011962890625</LatitudeDegrees>
              <LongitudeDegrees>20.7032604329288005828857421875</LongitudeDegrees>
            </Position>
            <AltitudeMeters>370.399993896484375</AltitudeMeters>
            <DistanceMeters>NAN</DistanceMeters>
          </Trackpoint>
          <Trackpoint>
            <Time>2022-09-23T08:18:47.000Z</Time>
            <Position>
              <LatitudeDegrees>49.4680306501686573028564453125</LatitudeDegrees>
              <LongitudeDegrees>20.70329287089407444000244140625</LongitudeDegrees>
            </Position>
            <AltitudeMeters>370.600006103515625</AltitudeMeters>
            <DistanceMeters>NAN</DistanceMeters>
          </Trackpoint>
          <Trackpoint>
            <Time>2022-09-23T08:18:48.000Z</Time>
            <Position>
              <LatitudeDegrees>49.468031823635101318359375</LatitudeDegrees>
              <LongitudeDegrees>20.70329471491277217864990234375</LongitudeDegrees>
            </Position>
            <AltitudeMeters>370.79998779296875</AltitudeMeters>
            <DistanceMeters>NAN</DistanceMeters>
          </Trackpoint>
          <Trackpoint>
            <Time>2022-09-23T08:18:50.000Z</Time>
            <Position>
              <LatitudeDegrees>49.46804196573793888092041015625</LatitudeDegrees>
              <LongitudeDegrees>20.703319944441318511962890625</LongitudeDegrees>
            </Position>
            <AltitudeMeters>370.79998779296875</AltitudeMeters>
            <DistanceMeters>NAN</DistanceMeters>
          </Trackpoint>
          <Trackpoint>
            <Time>2022-09-23T08:18:51.000Z</Time>
            <Position>
              <LatitudeDegrees>49.46804590523242950439453125</LatitudeDegrees>
              <LongitudeDegrees>20.70333427749574184417724609375</LongitudeDegrees>
            </Position>
            <AltitudeMeters>371</AltitudeMeters>
            <DistanceMeters>NAN</DistanceMeters>
          </Trackpoint>
          <Trackpoint>
            <Time>2022-09-23T08:18:52.000Z</Time>
            <Position>
              <LatitudeDegrees>49.4680554606020450592041015625</LatitudeDegrees>
              <LongitudeDegrees>20.7033496163785457611083984375</LongitudeDegrees>
            </Position>
            <AltitudeMeters>371</AltitudeMeters>
            <DistanceMeters>NAN</DistanceMeters>
          </Trackpoint>
          <Trackpoint>
            <Time>2022-09-23T08:18:55.000Z</Time>
            <Position>
              <LatitudeDegrees>49.46808001957833766937255859375</LatitudeDegrees>
              <LongitudeDegrees>20.7033880054950714111328125</LongitudeDegrees>
            </Position>
            <AltitudeMeters>371.399993896484375</AltitudeMeters>
            <DistanceMeters>NAN</DistanceMeters>
          </Trackpoint>
          <Trackpoint>
            <Time>2022-09-23T08:18:56.000Z</Time>
            <Position>
              <LatitudeDegrees>49.468083791434764862060546875</LatitudeDegrees>
              <LongitudeDegrees>20.70339228026568889617919921875</LongitudeDegrees>
            </Position>
            <AltitudeMeters>371.399993896484375</AltitudeMeters>
            <DistanceMeters>NAN</DistanceMeters>
          </Trackpoint>
          <Trackpoint>
            <Time>2022-09-23T08:19:00.000Z</Time>
            <Position>
              <LatitudeDegrees>49.4680849649012088775634765625</LatitudeDegrees>
              <LongitudeDegrees>20.70339412428438663482666015625</LongitudeDegrees>
            </Position>
            <AltitudeMeters>371.600006103515625</AltitudeMeters>
            <DistanceMeters>NAN</DistanceMeters>
          </Trackpoint>
          <Trackpoint>
            <Time>2022-09-23T08:19:01.000Z</Time>
            <Position>
              <LatitudeDegrees>49.4680849649012088775634765625</LatitudeDegrees>
              <LongitudeDegrees>20.70339412428438663482666015625</LongitudeDegrees>
            </Position>
            <AltitudeMeters>371.600006103515625</AltitudeMeters>
            <DistanceMeters>NAN</DistanceMeters>
          </Trackpoint>
          <Trackpoint>
            <Time>2022-09-23T08:19:04.000Z</Time>
            <Position>
              <LatitudeDegrees>49.46809879504144191741943359375</LatitudeDegrees>
              <LongitudeDegrees>20.7034176774322986602783203125</LongitudeDegrees>
            </Position>
            <AltitudeMeters>371.79998779296875</AltitudeMeters>
            <DistanceMeters>NAN</DistanceMeters>
          </Trackpoint>
          <Trackpoint>
            <Time>2022-09-23T08:19:06.000Z</Time>
            <Position>
              <LatitudeDegrees>49.4681055843830108642578125</LatitudeDegrees>
              <LongitudeDegrees>20.70342949591577053070068359375</LongitudeDegrees>
            </Position>
            <AltitudeMeters>371.79998779296875</AltitudeMeters>
            <DistanceMeters>NAN</DistanceMeters>
          </Trackpoint>
          <Trackpoint>
            <Time>2022-09-23T08:19:07.000Z</Time>
            <Position>
              <LatitudeDegrees>49.4681055843830108642578125</LatitudeDegrees>
              <LongitudeDegrees>20.70342949591577053070068359375</LongitudeDegrees>
            </Position>
            <AltitudeMeters>371.79998779296875</AltitudeMeters>
            <DistanceMeters>NAN</DistanceMeters>
          </Trackpoint>
          <Trackpoint>
            <Time>2022-09-23T08:19:14.000Z</Time>
            <Position>
              <LatitudeDegrees>49.4681134633719921112060546875</LatitudeDegrees>
              <LongitudeDegrees>20.7034481875598430633544921875</LongitudeDegrees>
            </Position>
            <AltitudeMeters>372.399993896484375</AltitudeMeters>
            <DistanceMeters>NAN</DistanceMeters>
          </Trackpoint>
          <Trackpoint>
            <Time>2022-09-23T08:19:21.000Z</Time>
            <Position>
              <LatitudeDegrees>49.4681416265666484832763671875</LatitudeDegrees>
              <LongitudeDegrees>20.703498311340808868408203125</LongitudeDegrees>
            </Position>
            <AltitudeMeters>372.79998779296875</AltitudeMeters>
            <DistanceMeters>NAN</DistanceMeters>
          </Trackpoint>
          <Trackpoint>
            <Time>2022-09-23T08:19:23.000Z</Time>
            <Position>
              <LatitudeDegrees>49.46817087940871715545654296875</LatitudeDegrees>
              <LongitudeDegrees>20.7035447470843791961669921875</LongitudeDegrees>
            </Position>
            <AltitudeMeters>373</AltitudeMeters>
            <DistanceMeters>NAN</DistanceMeters>
          </Trackpoint>
          <Trackpoint>
            <Time>2022-09-23T08:19:26.000Z</Time>
            <Position>
              <LatitudeDegrees>49.46820273064076900482177734375</LatitudeDegrees>
              <LongitudeDegrees>20.703605599701404571533203125</LongitudeDegrees>
            </Position>
            <AltitudeMeters>373.20001220703125</AltitudeMeters>
            <DistanceMeters>NAN</DistanceMeters>
          </Trackpoint>
          <Trackpoint>
            <Time>2022-09-23T08:19:29.000Z</Time>
            <Position>
              <LatitudeDegrees>49.46822435595095157623291015625</LatitudeDegrees>
              <LongitudeDegrees>20.7036443240940570831298828125</LongitudeDegrees>
            </Position>
            <AltitudeMeters>373.399993896484375</AltitudeMeters>
            <DistanceMeters>NAN</DistanceMeters>
          </Trackpoint>
          <Trackpoint>
            <Time>2022-09-23T08:19:33.000Z</Time>
            <Position>
              <LatitudeDegrees>49.468243382871150970458984375</LatitudeDegrees>
              <LongitudeDegrees>20.70368313230574131011962890625</LongitudeDegrees>
            </Position>
            <AltitudeMeters>373.79998779296875</AltitudeMeters>
            <DistanceMeters>NAN</DistanceMeters>
          </Trackpoint>
          <Trackpoint>
            <Time>2022-09-23T08:19:34.000Z</Time>
            <Position>
              <LatitudeDegrees>49.4682502560317516326904296875</LatitudeDegrees>
              <LongitudeDegrees>20.7036902569234371185302734375</LongitudeDegrees>
            </Position>
            <AltitudeMeters>373.79998779296875</AltitudeMeters>
            <DistanceMeters>NAN</DistanceMeters>
          </Trackpoint>
          <Trackpoint>
            <Time>2022-09-23T08:19:39.000Z</Time>
            <Position>
              <LatitudeDegrees>49.4682831130921840667724609375</LatitudeDegrees>
              <LongitudeDegrees>20.70370827801525592803955078125</LongitudeDegrees>
            </Position>
            <AltitudeMeters>374.399993896484375</AltitudeMeters>
            <DistanceMeters>NAN</DistanceMeters>
          </Trackpoint>
          <Trackpoint>
            <Time>2022-09-23T08:19:42.000Z</Time>
            <Position>
              <LatitudeDegrees>49.4682879745960235595703125</LatitudeDegrees>
              <LongitudeDegrees>20.703718923032283782958984375</LongitudeDegrees>
            </Position>
            <AltitudeMeters>374.399993896484375</AltitudeMeters>
            <DistanceMeters>NAN</DistanceMeters>
          </Trackpoint>
          <Trackpoint>
            <Time>2022-09-23T08:19:49.000Z</Time>
            <Position>
              <LatitudeDegrees>49.468357376754283905029296875</LatitudeDegrees>
              <LongitudeDegrees>20.70377684198319911956787109375</LongitudeDegrees>
            </Position>
            <AltitudeMeters>374.79998779296875</AltitudeMeters>
            <DistanceMeters>NAN</DistanceMeters>
          </Trackpoint>
          <Trackpoint>
            <Time>2022-09-23T08:19:50.000Z</Time>
            <Position>
              <LatitudeDegrees>49.4683672674000263214111328125</LatitudeDegrees>
              <LongitudeDegrees>20.70378363132476806640625</LongitudeDegrees>
            </Position>
            <AltitudeMeters>375</AltitudeMeters>
            <DistanceMeters>NAN</DistanceMeters>
          </Trackpoint>
          <Trackpoint>
            <Time>2022-09-23T08:19:52.000Z</Time>
            <Position>
              <LatitudeDegrees>49.46838713251054286956787109375</LatitudeDegrees>
              <LongitudeDegrees>20.70380014367401599884033203125</LongitudeDegrees>
            </Position>
            <AltitudeMeters>375.20001220703125</AltitudeMeters>
            <DistanceMeters>NAN</DistanceMeters>
          </Trackpoint>
          <Trackpoint>
            <Time>2022-09-23T08:19:57.000Z</Time>
            <Position>
              <LatitudeDegrees>49.46841278113424777984619140625</LatitudeDegrees>
              <LongitudeDegrees>20.70381489582359790802001953125</LongitudeDegrees>
            </Position>
            <AltitudeMeters>375.600006103515625</AltitudeMeters>
            <DistanceMeters>NAN</DistanceMeters>
          </Trackpoint>
          <Trackpoint>
            <Time>2022-09-23T08:19:59.000Z</Time>
            <Position>
              <LatitudeDegrees>49.4684381783008575439453125</LatitudeDegrees>
              <LongitudeDegrees>20.7038062624633312225341796875</LongitudeDegrees>
            </Position>
            <AltitudeMeters>376</AltitudeMeters>
            <DistanceMeters>NAN</DistanceMeters>
          </Trackpoint>
          <Trackpoint>
            <Time>2022-09-23T08:20:04.000Z</Time>
            <Position>
              <LatitudeDegrees>49.4685020484030246734619140625</LatitudeDegrees>
              <LongitudeDegrees>20.7038206793367862701416015625</LongitudeDegrees>
            </Position>
            <AltitudeMeters>376.399993896484375</AltitudeMeters>
            <DistanceMeters>NAN</DistanceMeters>
          </Trackpoint>
          <Trackpoint>
            <Time>2022-09-23T08:20:05.000Z</Time>
            <Position>
              <LatitudeDegrees>49.468516968190670013427734375</LatitudeDegrees>
              <LongitudeDegrees>20.7038236968219280242919921875</LongitudeDegrees>
            </Position>
            <AltitudeMeters>376.399993896484375</AltitudeMeters>
            <DistanceMeters>NAN</DistanceMeters>
          </Trackpoint>
          <Trackpoint>
            <Time>2022-09-23T08:20:08.000Z</Time>
            <Position>
              <LatitudeDegrees>49.46854353882372379302978515625</LatitudeDegrees>
              <LongitudeDegrees>20.703839957714080810546875</LongitudeDegrees>
            </Position>
            <AltitudeMeters>376.79998779296875</AltitudeMeters>
            <DistanceMeters>NAN</DistanceMeters>
          </Trackpoint>
          <Trackpoint>
            <Time>2022-09-23T08:20:10.000Z</Time>
            <Position>
              <LatitudeDegrees>49.4685697741806507110595703125</LatitudeDegrees>
              <LongitudeDegrees>20.70385043509304523468017578125</LongitudeDegrees>
            </Position>
            <AltitudeMeters>377</AltitudeMeters>
            <DistanceMeters>NAN</DistanceMeters>
          </Trackpoint>
          <Trackpoint>
            <Time>2022-09-23T08:20:13.000Z</Time>
            <Position>
              <LatitudeDegrees>49.4685892201960086822509765625</LatitudeDegrees>
              <LongitudeDegrees>20.70385714061558246612548828125</LongitudeDegrees>
            </Position>
            <AltitudeMeters>377.20001220703125</AltitudeMeters>
            <DistanceMeters>NAN</DistanceMeters>
          </Trackpoint>
          <Trackpoint>
            <Time>2022-09-23T08:20:15.000Z</Time>
            <Position>
              <LatitudeDegrees>49.4685892201960086822509765625</LatitudeDegrees>
              <LongitudeDegrees>20.70385714061558246612548828125</LongitudeDegrees>
            </Position>
            <AltitudeMeters>377.399993896484375</AltitudeMeters>
            <DistanceMeters>NAN</DistanceMeters>
          </Trackpoint>
          <Trackpoint>
            <Time>2022-09-23T08:20:21.000Z</Time>
            <Position>
              <LatitudeDegrees>49.468621909618377685546875</LatitudeDegrees>
              <LongitudeDegrees>20.7038850523531436920166015625</LongitudeDegrees>
            </Position>
            <AltitudeMeters>377.600006103515625</AltitudeMeters>
            <DistanceMeters>NAN</DistanceMeters>
          </Trackpoint>
          <Trackpoint>
            <Time>2022-09-23T08:20:22.000Z</Time>
            <Position>
              <LatitudeDegrees>49.46862618438899517059326171875</LatitudeDegrees>
              <LongitudeDegrees>20.703885890543460845947265625</LongitudeDegrees>
            </Position>
            <AltitudeMeters>377.600006103515625</AltitudeMeters>
            <DistanceMeters>NAN</DistanceMeters>
          </Trackpoint>
          <Trackpoint>
            <Time>2022-09-23T08:20:28.000Z</Time>
            <Position>
              <LatitudeDegrees>49.4686606340110301971435546875</LatitudeDegrees>
              <LongitudeDegrees>20.7038746587932109832763671875</LongitudeDegrees>
            </Position>
            <AltitudeMeters>378</AltitudeMeters>
            <DistanceMeters>NAN</DistanceMeters>
          </Trackpoint>
          <Trackpoint>
            <Time>2022-09-23T08:20:30.000Z</Time>
            <Position>
              <LatitudeDegrees>49.46866624988615512847900390625</LatitudeDegrees>
              <LongitudeDegrees>20.7038729824125766754150390625</LongitudeDegrees>
            </Position>
            <AltitudeMeters>378.20001220703125</AltitudeMeters>
            <DistanceMeters>NAN</DistanceMeters>
          </Trackpoint>
          <Trackpoint>
            <Time>2022-09-23T08:20:32.000Z</Time>
            <Position>
              <LatitudeDegrees>49.46867362596094608306884765625</LatitudeDegrees>
              <LongitudeDegrees>20.70386686362326145172119140625</LongitudeDegrees>
            </Position>
            <AltitudeMeters>378.399993896484375</AltitudeMeters>
            <DistanceMeters>NAN</DistanceMeters>
          </Trackpoint>
          <Trackpoint>
            <Time>2022-09-23T08:20:37.000Z</Time>
            <Position>
              <LatitudeDegrees>49.468719474971294403076171875</LatitudeDegrees>
              <LongitudeDegrees>20.70383350364863872528076171875</LongitudeDegrees>
            </Position>
            <AltitudeMeters>378.79998779296875</AltitudeMeters>
            <DistanceMeters>NAN</DistanceMeters>
          </Trackpoint>
          <Trackpoint>
            <Time>2022-09-23T08:20:40.000Z</Time>
            <Position>
              <LatitudeDegrees>49.4687466323375701904296875</LatitudeDegrees>
              <LongitudeDegrees>20.7038109563291072845458984375</LongitudeDegrees>
            </Position>
            <AltitudeMeters>379</AltitudeMeters>
            <DistanceMeters>NAN</DistanceMeters>
          </Trackpoint>
          <Trackpoint>
            <Time>2022-09-23T08:20:41.000Z</Time>
            <Position>
              <LatitudeDegrees>49.468756355345249176025390625</LatitudeDegrees>
              <LongitudeDegrees>20.7038022391498088836669921875</LongitudeDegrees>
            </Position>
            <AltitudeMeters>379</AltitudeMeters>
            <DistanceMeters>NAN</DistanceMeters>
          </Trackpoint>
          <Trackpoint>
            <Time>2022-09-23T08:20:42.000Z</Time>
            <Position>
              <LatitudeDegrees>49.46876398287713527679443359375</LatitudeDegrees>
              <LongitudeDegrees>20.70379368960857391357421875</LongitudeDegrees>
            </Position>
            <AltitudeMeters>379</AltitudeMeters>
            <DistanceMeters>NAN</DistanceMeters>
          </Trackpoint>
          <Trackpoint>
            <Time>2022-09-23T08:20:48.000Z</Time>
            <Position>
              <LatitudeDegrees>49.4688138552010059356689453125</LatitudeDegrees>
              <LongitudeDegrees>20.703742392361164093017578125</LongitudeDegrees>
            </Position>
            <AltitudeMeters>379.399993896484375</AltitudeMeters>
            <DistanceMeters>NAN</DistanceMeters>
          </Trackpoint>
          <Trackpoint>
            <Time>2022-09-23T08:20:50.000Z</Time>
            <Position>
              <LatitudeDegrees>49.46881544776260852813720703125</LatitudeDegrees>
              <LongitudeDegrees>20.7037090323865413665771484375</LongitudeDegrees>
            </Position>
            <AltitudeMeters>379.399993896484375</AltitudeMeters>
            <DistanceMeters>NAN</DistanceMeters>
          </Trackpoint>
          <Trackpoint>
            <Time>2022-09-23T08:20:51.000Z</Time>
            <Position>
              <LatitudeDegrees>49.4688148610293865203857421875</LatitudeDegrees>
              <LongitudeDegrees>20.70368883199989795684814453125</LongitudeDegrees>
            </Position>
            <AltitudeMeters>379.600006103515625</AltitudeMeters>
            <DistanceMeters>NAN</DistanceMeters>
          </Trackpoint>
          <Trackpoint>
            <Time>2022-09-23T08:20:53.000Z</Time>
            <Position>
              <LatitudeDegrees>49.46880890987813472747802734375</LatitudeDegrees>
              <LongitudeDegrees>20.703656561672687530517578125</LongitudeDegrees>
            </Position>
            <AltitudeMeters>379.600006103515625</AltitudeMeters>
            <DistanceMeters>NAN</DistanceMeters>
          </Trackpoint>
          <Trackpoint>
            <Time>2022-09-23T08:20:57.000Z</Time>
            <Position>
              <LatitudeDegrees>49.4688202254474163055419921875</LatitudeDegrees>
              <LongitudeDegrees>20.703624375164508819580078125</LongitudeDegrees>
            </Position>
            <AltitudeMeters>380</AltitudeMeters>
            <DistanceMeters>NAN</DistanceMeters>
          </Trackpoint>
          <Trackpoint>
            <Time>2022-09-23T08:21:01.000Z</Time>
            <Position>
              <LatitudeDegrees>49.46885903365910053253173828125</LatitudeDegrees>
              <LongitudeDegrees>20.70355572737753391265869140625</LongitudeDegrees>
            </Position>
            <AltitudeMeters>380.399993896484375</AltitudeMeters>
            <DistanceMeters>NAN</DistanceMeters>
          </Trackpoint>
          <Trackpoint>
            <Time>2022-09-23T08:21:02.000Z</Time>
            <Position>
              <LatitudeDegrees>49.46886263787746429443359375</LatitudeDegrees>
              <LongitudeDegrees>20.7035350240767002105712890625</LongitudeDegrees>
            </Position>
            <AltitudeMeters>380.600006103515625</AltitudeMeters>
            <DistanceMeters>NAN</DistanceMeters>
          </Trackpoint>
          <Trackpoint>
            <Time>2022-09-23T08:21:03.000Z</Time>
            <Position>
              <LatitudeDegrees>49.4688641466200351715087890625</LatitudeDegrees>
              <LongitudeDegrees>20.70351448841392993927001953125</LongitudeDegrees>
            </Position>
            <AltitudeMeters>380.600006103515625</AltitudeMeters>
            <DistanceMeters>NAN</DistanceMeters>
          </Trackpoint>
          <Trackpoint>
            <Time>2022-09-23T08:21:09.000Z</Time>
            <Position>
              <LatitudeDegrees>49.46886775083839893341064453125</LatitudeDegrees>
              <LongitudeDegrees>20.70344776846468448638916015625</LongitudeDegrees>
            </Position>
            <AltitudeMeters>381</AltitudeMeters>
            <DistanceMeters>NAN</DistanceMeters>
          </Trackpoint>
          <Trackpoint>
            <Time>2022-09-23T08:21:10.000Z</Time>
            <Position>
              <LatitudeDegrees>49.46887671947479248046875</LatitudeDegrees>
              <LongitudeDegrees>20.703411139547824859619140625</LongitudeDegrees>
            </Position>
            <AltitudeMeters>381</AltitudeMeters>
            <DistanceMeters>NAN</DistanceMeters>
          </Trackpoint>
          <Trackpoint>
            <Time>2022-09-23T08:21:18.000Z</Time>
            <Position>
              <LatitudeDegrees>49.4689201377332210540771484375</LatitudeDegrees>
              <LongitudeDegrees>20.70335372351109981536865234375</LongitudeDegrees>
            </Position>
            <AltitudeMeters>381.79998779296875</AltitudeMeters>
            <DistanceMeters>NAN</DistanceMeters>
          </Trackpoint>
          <Trackpoint>
            <Time>2022-09-23T08:21:21.000Z</Time>
            <Position>
              <LatitudeDegrees>49.4689352251589298248291015625</LatitudeDegrees>
              <LongitudeDegrees>20.70333746261894702911376953125</LongitudeDegrees>
            </Position>
            <AltitudeMeters>382.20001220703125</AltitudeMeters>
            <DistanceMeters>NAN</DistanceMeters>
          </Trackpoint>
          <Trackpoint>
            <Time>2022-09-23T08:21:27.000Z</Time>
            <Position>
              <LatitudeDegrees>49.4689399190247058868408203125</LatitudeDegrees>
              <LongitudeDegrees>20.7033234648406505584716796875</LongitudeDegrees>
            </Position>
            <AltitudeMeters>382.399993896484375</AltitudeMeters>
            <DistanceMeters>NAN</DistanceMeters>
          </Trackpoint>
          <Trackpoint>
            <Time>2022-09-23T08:21:29.000Z</Time>
            <Position>
              <LatitudeDegrees>49.468956850469112396240234375</LatitudeDegrees>
              <LongitudeDegrees>20.7033023424446582794189453125</LongitudeDegrees>
            </Position>
            <AltitudeMeters>382.600006103515625</AltitudeMeters>
            <DistanceMeters>NAN</DistanceMeters>
          </Trackpoint>
          <Trackpoint>
            <Time>2022-09-23T08:21:32.000Z</Time>
            <Position>
              <LatitudeDegrees>49.4689907133579254150390625</LatitudeDegrees>
              <LongitudeDegrees>20.70324257947504520416259765625</LongitudeDegrees>
            </Position>
            <AltitudeMeters>382.600006103515625</AltitudeMeters>
            <DistanceMeters>NAN</DistanceMeters>
          </Trackpoint>
          <Trackpoint>
            <Time>2022-09-23T08:21:38.000Z</Time>
            <Position>
              <LatitudeDegrees>49.4691139273345470428466796875</LatitudeDegrees>
              <LongitudeDegrees>20.7031088881194591522216796875</LongitudeDegrees>
            </Position>
            <AltitudeMeters>383</AltitudeMeters>
            <DistanceMeters>NAN</DistanceMeters>
          </Trackpoint>
          <Trackpoint>
            <Time>2022-09-23T08:21:39.000Z</Time>
            <Position>
              <LatitudeDegrees>49.46913756430149078369140625</LatitudeDegrees>
              <LongitudeDegrees>20.7030733488500118255615234375</LongitudeDegrees>
            </Position>
            <AltitudeMeters>383.20001220703125</AltitudeMeters>
            <DistanceMeters>NAN</DistanceMeters>
          </Trackpoint>
          <Trackpoint>
            <Time>2022-09-23T08:21:42.000Z</Time>
            <Position>
              <LatitudeDegrees>49.4691980816423892974853515625</LatitudeDegrees>
              <LongitudeDegrees>20.70296698249876499176025390625</LongitudeDegrees>
            </Position>
            <AltitudeMeters>383.600006103515625</AltitudeMeters>
            <DistanceMeters>NAN</DistanceMeters>
          </Trackpoint>
          <Trackpoint>
            <Time>2022-09-23T08:21:45.000Z</Time>
            <Position>
              <LatitudeDegrees>49.46926496922969818115234375</LatitudeDegrees>
              <LongitudeDegrees>20.702884756028652191162109375</LongitudeDegrees>
            </Position>
            <AltitudeMeters>384.399993896484375</AltitudeMeters>
            <DistanceMeters>NAN</DistanceMeters>
          </Trackpoint>
          <Trackpoint>
            <Time>2022-09-23T08:21:48.000Z</Time>
            <Position>
              <LatitudeDegrees>49.46932255290448665618896484375</LatitudeDegrees>
              <LongitudeDegrees>20.70281124673783779144287109375</LongitudeDegrees>
            </Position>
            <AltitudeMeters>384.79998779296875</AltitudeMeters>
            <DistanceMeters>NAN</DistanceMeters>
          </Trackpoint>
          <Trackpoint>
            <Time>2022-09-23T08:21:49.000Z</Time>
            <Position>
              <LatitudeDegrees>49.46934149600565433502197265625</LatitudeDegrees>
              <LongitudeDegrees>20.7027898728847503662109375</LongitudeDegrees>
            </Position>
            <AltitudeMeters>385.399993896484375</AltitudeMeters>
            <DistanceMeters>NAN</DistanceMeters>
          </Trackpoint>
          <Trackpoint>
            <Time>2022-09-23T08:21:51.000Z</Time>
            <Position>
              <LatitudeDegrees>49.46937150321900844573974609375</LatitudeDegrees>
              <LongitudeDegrees>20.7027390785515308380126953125</LongitudeDegrees>
            </Position>
            <AltitudeMeters>386</AltitudeMeters>
            <DistanceMeters>NAN</DistanceMeters>
          </Trackpoint>
          <Trackpoint>
            <Time>2022-09-23T08:21:54.000Z</Time>
            <Position>
              <LatitudeDegrees>49.46940251626074314117431640625</LatitudeDegrees>
              <LongitudeDegrees>20.7026783935725688934326171875</LongitudeDegrees>
            </Position>
            <AltitudeMeters>386.79998779296875</AltitudeMeters>
            <DistanceMeters>NAN</DistanceMeters>
          </Trackpoint>
          <Trackpoint>
            <Time>2022-09-23T08:21:59.000Z</Time>
            <Position>
              <LatitudeDegrees>49.469422884285449981689453125</LatitudeDegrees>
              <LongitudeDegrees>20.70263455621898174285888671875</LongitudeDegrees>
            </Position>
            <AltitudeMeters>387.600006103515625</AltitudeMeters>
            <DistanceMeters>NAN</DistanceMeters>
          </Trackpoint>
          <Trackpoint>
            <Time>2022-09-23T08:22:06.000Z</Time>
            <Position>
              <LatitudeDegrees>49.46940234862267971038818359375</LatitudeDegrees>
              <LongitudeDegrees>20.7025861926376819610595703125</LongitudeDegrees>
            </Position>
            <AltitudeMeters>387.79998779296875</AltitudeMeters>
            <DistanceMeters>NAN</DistanceMeters>
          </Trackpoint>
          <Trackpoint>
            <Time>2022-09-23T08:22:07.000Z</Time>
            <Position>
              <LatitudeDegrees>49.46940368972718715667724609375</LatitudeDegrees>
              <LongitudeDegrees>20.7025771401822566986083984375</LongitudeDegrees>
            </Position>
            <AltitudeMeters>387.79998779296875</AltitudeMeters>
            <DistanceMeters>NAN</DistanceMeters>
          </Trackpoint>
          <Trackpoint>
            <Time>2022-09-23T08:22:09.000Z</Time>
            <Position>
              <LatitudeDegrees>49.4694091379642486572265625</LatitudeDegrees>
              <LongitudeDegrees>20.702527351677417755126953125</LongitudeDegrees>
            </Position>
            <AltitudeMeters>387.79998779296875</AltitudeMeters>
            <DistanceMeters>NAN</DistanceMeters>
          </Trackpoint>
          <Trackpoint>
            <Time>2022-09-23T08:22:13.000Z</Time>
            <Position>
              <LatitudeDegrees>49.46944761089980602264404296875</LatitudeDegrees>
              <LongitudeDegrees>20.702371783554553985595703125</LongitudeDegrees>
            </Position>
            <AltitudeMeters>388</AltitudeMeters>
            <DistanceMeters>NAN</DistanceMeters>
          </Trackpoint>
          <Trackpoint>
            <Time>2022-09-23T08:22:17.000Z</Time>
            <Position>
              <LatitudeDegrees>49.4694894365966320037841796875</LatitudeDegrees>
              <LongitudeDegrees>20.7022534310817718505859375</LongitudeDegrees>
            </Position>
            <AltitudeMeters>388.20001220703125</AltitudeMeters>
            <DistanceMeters>NAN</DistanceMeters>
          </Trackpoint>
          <Trackpoint>
            <Time>2022-09-23T08:22:19.000Z</Time>
            <Position>
              <LatitudeDegrees>49.4695025123655796051025390625</LatitudeDegrees>
              <LongitudeDegrees>20.70218813605606555938720703125</LongitudeDegrees>
            </Position>
            <AltitudeMeters>388.20001220703125</AltitudeMeters>
            <DistanceMeters>NAN</DistanceMeters>
          </Trackpoint>
          <Trackpoint>
            <Time>2022-09-23T08:22:20.000Z</Time>
            <Position>
              <LatitudeDegrees>49.46951047517359256744384765625</LatitudeDegrees>
              <LongitudeDegrees>20.70215427316725254058837890625</LongitudeDegrees>
            </Position>
            <AltitudeMeters>388.399993896484375</AltitudeMeters>
            <DistanceMeters>NAN</DistanceMeters>
          </Trackpoint>
          <Trackpoint>
            <Time>2022-09-23T08:22:26.000Z</Time>
            <Position>
              <LatitudeDegrees>49.46956939995288848876953125</LatitudeDegrees>
              <LongitudeDegrees>20.7018807716667652130126953125</LongitudeDegrees>
            </Position>
            <AltitudeMeters>387.399993896484375</AltitudeMeters>
            <DistanceMeters>NAN</DistanceMeters>
          </Trackpoint>
          <Trackpoint>
            <Time>2022-09-23T08:22:28.000Z</Time>
            <Position>
              <LatitudeDegrees>49.46960636414587497711181640625</LatitudeDegrees>
              <LongitudeDegrees>20.7017634250223636627197265625</LongitudeDegrees>
            </Position>
            <AltitudeMeters>386.79998779296875</AltitudeMeters>
            <DistanceMeters>NAN</DistanceMeters>
          </Trackpoint>
          <Trackpoint>
            <Time>2022-09-23T08:22:31.000Z</Time>
            <Position>
              <LatitudeDegrees>49.4696919433772563934326171875</LatitudeDegrees>
              <LongitudeDegrees>20.70159167982637882232666015625</LongitudeDegrees>
            </Position>
            <AltitudeMeters>385.600006103515625</AltitudeMeters>
            <DistanceMeters>NAN</DistanceMeters>
          </Trackpoint>
          <Trackpoint>
            <Time>2022-09-23T08:22:34.000Z</Time>
            <Position>
              <LatitudeDegrees>49.46980719454586505889892578125</LatitudeDegrees>
              <LongitudeDegrees>20.7013912685215473175048828125</LongitudeDegrees>
            </Position>
            <AltitudeMeters>384.20001220703125</AltitudeMeters>
            <DistanceMeters>NAN</DistanceMeters>
          </Trackpoint>
          <Trackpoint>
            <Time>2022-09-23T08:22:36.000Z</Time>
            <Position>
              <LatitudeDegrees>49.4699053466320037841796875</LatitudeDegrees>
              <LongitudeDegrees>20.7012199424207210540771484375</LongitudeDegrees>
            </Position>
            <AltitudeMeters>382.600006103515625</AltitudeMeters>
            <DistanceMeters>NAN</DistanceMeters>
          </Trackpoint>
          <Trackpoint>
            <Time>2022-09-23T08:22:37.000Z</Time>
            <Position>
              <LatitudeDegrees>49.4699635170400142669677734375</LatitudeDegrees>
              <LongitudeDegrees>20.7011134922504425048828125</LongitudeDegrees>
            </Position>
            <AltitudeMeters>381.20001220703125</AltitudeMeters>
            <DistanceMeters>NAN</DistanceMeters>
          </Trackpoint>
          <Trackpoint>
            <Time>2022-09-23T08:22:38.000Z</Time>
            <Position>
              <LatitudeDegrees>49.47003082372248172760009765625</LatitudeDegrees>
              <LongitudeDegrees>20.7009989954531192779541015625</LongitudeDegrees>
            </Position>
            <AltitudeMeters>379.399993896484375</AltitudeMeters>
            <DistanceMeters>NAN</DistanceMeters>
          </Trackpoint>
          <Trackpoint>
            <Time>2022-09-23T08:22:39.000Z</Time>
            <Position>
              <LatitudeDegrees>49.4700993038713932037353515625</LatitudeDegrees>
              <LongitudeDegrees>20.7008960656821727752685546875</LongitudeDegrees>
            </Position>
            <AltitudeMeters>377.79998779296875</AltitudeMeters>
            <DistanceMeters>NAN</DistanceMeters>
          </Trackpoint>
          <Trackpoint>
            <Time>2022-09-23T08:22:40.000Z</Time>
            <Position>
              <LatitudeDegrees>49.470167867839336395263671875</LatitudeDegrees>
              <LongitudeDegrees>20.7007961533963680267333984375</LongitudeDegrees>
            </Position>
            <AltitudeMeters>376.399993896484375</AltitudeMeters>
            <DistanceMeters>NAN</DistanceMeters>
          </Trackpoint>
          <Trackpoint>
            <Time>2022-09-23T08:22:41.000Z</Time>
            <Position>
              <LatitudeDegrees>49.4702314026653766632080078125</LatitudeDegrees>
              <LongitudeDegrees>20.70069573819637298583984375</LongitudeDegrees>
            </Position>
            <AltitudeMeters>375.600006103515625</AltitudeMeters>
            <DistanceMeters>NAN</DistanceMeters>
          </Trackpoint>
          <Trackpoint>
            <Time>2022-09-23T08:22:42.000Z</Time>
            <Position>
              <LatitudeDegrees>49.470286555588245391845703125</LatitudeDegrees>
              <LongitudeDegrees>20.70059842430055141448974609375</LongitudeDegrees>
            </Position>
            <AltitudeMeters>375.20001220703125</AltitudeMeters>
            <DistanceMeters>NAN</DistanceMeters>
          </Trackpoint>
          <Trackpoint>
            <Time>2022-09-23T08:22:44.000Z</Time>
            <Position>
              <LatitudeDegrees>49.4703866355121135711669921875</LatitudeDegrees>
              <LongitudeDegrees>20.7004337199032306671142578125</LongitudeDegrees>
            </Position>
            <AltitudeMeters>375.20001220703125</AltitudeMeters>
            <DistanceMeters>NAN</DistanceMeters>
          </Trackpoint>
          <Trackpoint>
            <Time>2022-09-23T08:22:45.000Z</Time>
            <Position>
              <LatitudeDegrees>49.47043114341795444488525390625</LatitudeDegrees>
              <LongitudeDegrees>20.70035786367952823638916015625</LongitudeDegrees>
            </Position>
            <AltitudeMeters>376</AltitudeMeters>
            <DistanceMeters>NAN</DistanceMeters>
          </Trackpoint>
          <Trackpoint>
            <Time>2022-09-23T08:22:46.000Z</Time>
            <Position>
              <LatitudeDegrees>49.4704701192677021026611328125</LatitudeDegrees>
              <LongitudeDegrees>20.7002872042357921600341796875</LongitudeDegrees>
            </Position>
            <AltitudeMeters>376.600006103515625</AltitudeMeters>
            <DistanceMeters>NAN</DistanceMeters>
          </Trackpoint>
          <Trackpoint>
            <Time>2022-09-23T08:22:48.000Z</Time>
            <Position>
              <LatitudeDegrees>49.47053457610309123992919921875</LatitudeDegrees>
              <LongitudeDegrees>20.70017161779105663299560546875</LongitudeDegrees>
            </Position>
            <AltitudeMeters>378</AltitudeMeters>
            <DistanceMeters>NAN</DistanceMeters>
          </Trackpoint>
          <Trackpoint>
            <Time>2022-09-23T08:22:50.000Z</Time>
            <Position>
              <LatitudeDegrees>49.47057313285768032073974609375</LatitudeDegrees>
              <LongitudeDegrees>20.70008109323680400848388671875</LongitudeDegrees>
            </Position>
            <AltitudeMeters>379.399993896484375</AltitudeMeters>
            <DistanceMeters>NAN</DistanceMeters>
          </Trackpoint>
          <Trackpoint>
            <Time>2022-09-23T08:22:52.000Z</Time>
            <Position>
              <LatitudeDegrees>49.47060364298522472381591796875</LatitudeDegrees>
              <LongitudeDegrees>20.69999442435801029205322265625</LongitudeDegrees>
            </Position>
            <AltitudeMeters>381</AltitudeMeters>
            <DistanceMeters>NAN</DistanceMeters>
          </Trackpoint>
          <Trackpoint>
            <Time>2022-09-23T08:22:58.000Z</Time>
            <Position>
              <LatitudeDegrees>49.47069349698722362518310546875</LatitudeDegrees>
              <LongitudeDegrees>20.69969083182513713836669921875</LongitudeDegrees>
            </Position>
            <AltitudeMeters>382</AltitudeMeters>
            <DistanceMeters>NAN</DistanceMeters>
          </Trackpoint>
          <Trackpoint>
            <Time>2022-09-23T08:22:59.000Z</Time>
            <Position>
              <LatitudeDegrees>49.47070531547069549560546875</LatitudeDegrees>
              <LongitudeDegrees>20.6996461562812328338623046875</LongitudeDegrees>
            </Position>
            <AltitudeMeters>382</AltitudeMeters>
            <DistanceMeters>NAN</DistanceMeters>
          </Trackpoint>
          <Trackpoint>
            <Time>2022-09-23T08:23:04.000Z</Time>
            <Position>
              <LatitudeDegrees>49.470770023763179779052734375</LatitudeDegrees>
              <LongitudeDegrees>20.69940769113600254058837890625</LongitudeDegrees>
            </Position>
            <AltitudeMeters>382.399993896484375</AltitudeMeters>
            <DistanceMeters>NAN</DistanceMeters>
          </Trackpoint>
          <Trackpoint>
            <Time>2022-09-23T08:23:06.000Z</Time>
            <Position>
              <LatitudeDegrees>49.47079357691109180450439453125</LatitudeDegrees>
              <LongitudeDegrees>20.6993088684976100921630859375</LongitudeDegrees>
            </Position>
            <AltitudeMeters>382.399993896484375</AltitudeMeters>
            <DistanceMeters>NAN</DistanceMeters>
          </Trackpoint>
          <Trackpoint>
            <Time>2022-09-23T08:23:07.000Z</Time>
            <Position>
              <LatitudeDegrees>49.4708057306706905364990234375</LatitudeDegrees>
              <LongitudeDegrees>20.69927458651363849639892578125</LongitudeDegrees>
            </Position>
            <AltitudeMeters>382.399993896484375</AltitudeMeters>
            <DistanceMeters>NAN</DistanceMeters>
          </Trackpoint>
          <Trackpoint>
            <Time>2022-09-23T08:23:09.000Z</Time>
            <Position>
              <LatitudeDegrees>49.4708426110446453094482421875</LatitudeDegrees>
              <LongitudeDegrees>20.69918858818709850311279296875</LongitudeDegrees>
            </Position>
            <AltitudeMeters>382.20001220703125</AltitudeMeters>
            <DistanceMeters>NAN</DistanceMeters>
          </Trackpoint>
          <Trackpoint>
            <Time>2022-09-23T08:23:13.000Z</Time>
            <Position>
              <LatitudeDegrees>49.470936320722103118896484375</LatitudeDegrees>
              <LongitudeDegrees>20.69893889129161834716796875</LongitudeDegrees>
            </Position>
            <AltitudeMeters>381.399993896484375</AltitudeMeters>
            <DistanceMeters>NAN</DistanceMeters>
          </Trackpoint>
          <Trackpoint>
            <Time>2022-09-23T08:23:15.000Z</Time>
            <Position>
              <LatitudeDegrees>49.47099457494914531707763671875</LatitudeDegrees>
              <LongitudeDegrees>20.69879514165222644805908203125</LongitudeDegrees>
            </Position>
            <AltitudeMeters>380.79998779296875</AltitudeMeters>
            <DistanceMeters>NAN</DistanceMeters>
          </Trackpoint>
          <Trackpoint>
            <Time>2022-09-23T08:23:18.000Z</Time>
            <Position>
              <LatitudeDegrees>49.47108711116015911102294921875</LatitudeDegrees>
              <LongitudeDegrees>20.69857520051300525665283203125</LongitudeDegrees>
            </Position>
            <AltitudeMeters>380</AltitudeMeters>
            <DistanceMeters>NAN</DistanceMeters>
          </Trackpoint>
          <Trackpoint>
            <Time>2022-09-23T08:23:20.000Z</Time>
            <Position>
              <LatitudeDegrees>49.47116355411708354949951171875</LatitudeDegrees>
              <LongitudeDegrees>20.6984297744929790496826171875</LongitudeDegrees>
            </Position>
            <AltitudeMeters>379.399993896484375</AltitudeMeters>
            <DistanceMeters>NAN</DistanceMeters>
          </Trackpoint>
          <Trackpoint>
            <Time>2022-09-23T08:23:22.000Z</Time>
            <Position>
              <LatitudeDegrees>49.4712439365684986114501953125</LatitudeDegrees>
              <LongitudeDegrees>20.69828032515943050384521484375</LongitudeDegrees>
            </Position>
            <AltitudeMeters>378.79998779296875</AltitudeMeters>
            <DistanceMeters>NAN</DistanceMeters>
          </Trackpoint>
          <Trackpoint>
            <Time>2022-09-23T08:23:24.000Z</Time>
            <Position>
              <LatitudeDegrees>49.47131878696382045745849609375</LatitudeDegrees>
              <LongitudeDegrees>20.69812484085559844970703125</LongitudeDegrees>
            </Position>
            <AltitudeMeters>378.399993896484375</AltitudeMeters>
            <DistanceMeters>NAN</DistanceMeters>
          </Trackpoint>
          <Trackpoint>
            <Time>2022-09-23T08:23:26.000Z</Time>
            <Position>
              <LatitudeDegrees>49.47137092240154743194580078125</LatitudeDegrees>
              <LongitudeDegrees>20.697982348501682281494140625</LongitudeDegrees>
            </Position>
            <AltitudeMeters>378</AltitudeMeters>
            <DistanceMeters>NAN</DistanceMeters>
          </Trackpoint>
          <Trackpoint>
            <Time>2022-09-23T08:23:29.000Z</Time>
            <Position>
              <LatitudeDegrees>49.4714360497891902923583984375</LatitudeDegrees>
              <LongitudeDegrees>20.69779132492840290069580078125</LongitudeDegrees>
            </Position>
            <AltitudeMeters>377.600006103515625</AltitudeMeters>
            <DistanceMeters>NAN</DistanceMeters>
          </Trackpoint>
          <Trackpoint>
            <Time>2022-09-23T08:23:32.000Z</Time>
            <Position>
              <LatitudeDegrees>49.47146840393543243408203125</LatitudeDegrees>
              <LongitudeDegrees>20.69762301631271839141845703125</LongitudeDegrees>
            </Position>
            <AltitudeMeters>377.20001220703125</AltitudeMeters>
            <DistanceMeters>NAN</DistanceMeters>
          </Trackpoint>
          <Trackpoint>
            <Time>2022-09-23T08:23:37.000Z</Time>
            <Position>
              <LatitudeDegrees>49.47153738699853420257568359375</LatitudeDegrees>
              <LongitudeDegrees>20.69731506519019603729248046875</LongitudeDegrees>
            </Position>
            <AltitudeMeters>376</AltitudeMeters>
            <DistanceMeters>NAN</DistanceMeters>
          </Trackpoint>
          <Trackpoint>
            <Time>2022-09-23T08:23:38.000Z</Time>
            <Position>
              <LatitudeDegrees>49.47156068868935108184814453125</LatitudeDegrees>
              <LongitudeDegrees>20.69725069217383861541748046875</LongitudeDegrees>
            </Position>
            <AltitudeMeters>375.79998779296875</AltitudeMeters>
            <DistanceMeters>NAN</DistanceMeters>
          </Trackpoint>
          <Trackpoint>
            <Time>2022-09-23T08:23:41.000Z</Time>
            <Position>
              <LatitudeDegrees>49.47164920158684253692626953125</LatitudeDegrees>
              <LongitudeDegrees>20.69708808325231075286865234375</LongitudeDegrees>
            </Position>
            <AltitudeMeters>374.79998779296875</AltitudeMeters>
            <DistanceMeters>NAN</DistanceMeters>
          </Trackpoint>
          <Trackpoint>
            <Time>2022-09-23T08:23:42.000Z</Time>
            <Position>
              <LatitudeDegrees>49.47167895734310150146484375</LatitudeDegrees>
              <LongitudeDegrees>20.69703963585197925567626953125</LongitudeDegrees>
            </Position>
            <AltitudeMeters>374.399993896484375</AltitudeMeters>
            <DistanceMeters>NAN</DistanceMeters>
          </Trackpoint>
          <Trackpoint>
            <Time>2022-09-23T08:23:44.000Z</Time>
            <Position>
              <LatitudeDegrees>49.4717377983033657073974609375</LatitudeDegrees>
              <LongitudeDegrees>20.6969445012509822845458984375</LongitudeDegrees>
            </Position>
            <AltitudeMeters>373.600006103515625</AltitudeMeters>
            <DistanceMeters>NAN</DistanceMeters>
          </Trackpoint>
          <Trackpoint>
            <Time>2022-09-23T08:23:47.000Z</Time>
            <Position>
              <LatitudeDegrees>49.47181172668933868408203125</LatitudeDegrees>
              <LongitudeDegrees>20.6968147493898868560791015625</LongitudeDegrees>
            </Position>
            <AltitudeMeters>372.600006103515625</AltitudeMeters>
            <DistanceMeters>NAN</DistanceMeters>
          </Trackpoint>
          <Trackpoint>
            <Time>2022-09-23T08:23:48.000Z</Time>
            <Position>
              <LatitudeDegrees>49.47183611802756786346435546875</LatitudeDegrees>
              <LongitudeDegrees>20.6967711634933948516845703125</LongitudeDegrees>
            </Position>
            <AltitudeMeters>372.20001220703125</AltitudeMeters>
            <DistanceMeters>NAN</DistanceMeters>
          </Trackpoint>
          <Trackpoint>
            <Time>2022-09-23T08:23:50.000Z</Time>
            <Position>
              <LatitudeDegrees>49.47187006473541259765625</LatitudeDegrees>
              <LongitudeDegrees>20.69668876938521862030029296875</LongitudeDegrees>
            </Position>
            <AltitudeMeters>371.399993896484375</AltitudeMeters>
            <DistanceMeters>NAN</DistanceMeters>
          </Trackpoint>
          <Trackpoint>
            <Time>2022-09-23T08:23:51.000Z</Time>
            <Position>
              <LatitudeDegrees>49.471872746944427490234375</LatitudeDegrees>
              <LongitudeDegrees>20.69665842689573764801025390625</LongitudeDegrees>
            </Position>
            <AltitudeMeters>371.20001220703125</AltitudeMeters>
            <DistanceMeters>NAN</DistanceMeters>
          </Trackpoint>
          <Trackpoint>
            <Time>2022-09-23T08:23:52.000Z</Time>
            <Position>
              <LatitudeDegrees>49.47186537086963653564453125</LatitudeDegrees>
              <LongitudeDegrees>20.69663219153881072998046875</LongitudeDegrees>
            </Position>
            <AltitudeMeters>370.79998779296875</AltitudeMeters>
            <DistanceMeters>NAN</DistanceMeters>
          </Trackpoint>
          <Trackpoint>
            <Time>2022-09-23T08:23:53.000Z</Time>
            <Position>
              <LatitudeDegrees>49.4718534685671329498291015625</LatitudeDegrees>
              <LongitudeDegrees>20.6966179423034191131591796875</LongitudeDegrees>
            </Position>
            <AltitudeMeters>370.600006103515625</AltitudeMeters>
            <DistanceMeters>NAN</DistanceMeters>
          </Trackpoint>
          <Trackpoint>
            <Time>2022-09-23T08:23:54.000Z</Time>
            <Position>
              <LatitudeDegrees>49.47183494456112384796142578125</LatitudeDegrees>
              <LongitudeDegrees>20.6966162659227848052978515625</LongitudeDegrees>
            </Position>
            <AltitudeMeters>370.399993896484375</AltitudeMeters>
            <DistanceMeters>NAN</DistanceMeters>
          </Trackpoint>
          <Trackpoint>
            <Time>2022-09-23T08:23:55.000Z</Time>
            <Position>
              <LatitudeDegrees>49.4718016684055328369140625</LatitudeDegrees>
              <LongitudeDegrees>20.6966347061097621917724609375</LongitudeDegrees>
            </Position>
            <AltitudeMeters>370.20001220703125</AltitudeMeters>
            <DistanceMeters>NAN</DistanceMeters>
          </Trackpoint>
          <Trackpoint>
            <Time>2022-09-23T08:23:56.000Z</Time>
            <Position>
              <LatitudeDegrees>49.4717719964683055877685546875</LatitudeDegrees>
              <LongitudeDegrees>20.69666035473346710205078125</LongitudeDegrees>
            </Position>
            <AltitudeMeters>369.79998779296875</AltitudeMeters>
            <DistanceMeters>NAN</DistanceMeters>
          </Trackpoint>
          <Trackpoint>
            <Time>2022-09-23T08:23:57.000Z</Time>
            <Position>
              <LatitudeDegrees>49.47172799147665500640869140625</LatitudeDegrees>
              <LongitudeDegrees>20.69669882766902446746826171875</LongitudeDegrees>
            </Position>
            <AltitudeMeters>369.20001220703125</AltitudeMeters>
            <DistanceMeters>NAN</DistanceMeters>
          </Trackpoint>
          <Trackpoint>
            <Time>2022-09-23T08:23:58.000Z</Time>
            <Position>
              <LatitudeDegrees>49.47167417965829372406005859375</LatitudeDegrees>
              <LongitudeDegrees>20.69674626924097537994384765625</LongitudeDegrees>
            </Position>
            <AltitudeMeters>368.79998779296875</AltitudeMeters>
            <DistanceMeters>NAN</DistanceMeters>
          </Trackpoint>
          <Trackpoint>
            <Time>2022-09-23T08:23:59.000Z</Time>
            <Position>
              <LatitudeDegrees>49.4716120697557926177978515625</LatitudeDegrees>
              <LongitudeDegrees>20.69680117070674896240234375</LongitudeDegrees>
            </Position>
            <AltitudeMeters>367.600006103515625</AltitudeMeters>
            <DistanceMeters>NAN</DistanceMeters>
          </Trackpoint>
          <Trackpoint>
            <Time>2022-09-23T08:24:00.000Z</Time>
            <Position>
              <LatitudeDegrees>49.4715416617691516876220703125</LatitudeDegrees>
              <LongitudeDegrees>20.696859173476696014404296875</LongitudeDegrees>
            </Position>
            <AltitudeMeters>366.399993896484375</AltitudeMeters>
            <DistanceMeters>NAN</DistanceMeters>
          </Trackpoint>
          <Trackpoint>
            <Time>2022-09-23T08:24:01.000Z</Time>
            <Position>
              <LatitudeDegrees>49.47146832011640071868896484375</LatitudeDegrees>
              <LongitudeDegrees>20.6969290785491466522216796875</LongitudeDegrees>
            </Position>
            <AltitudeMeters>365</AltitudeMeters>
            <DistanceMeters>NAN</DistanceMeters>
          </Trackpoint>
          <Trackpoint>
            <Time>2022-09-23T08:24:02.000Z</Time>
            <Position>
              <LatitudeDegrees>49.47139975614845752716064453125</LatitudeDegrees>
              <LongitudeDegrees>20.69700367748737335205078125</LongitudeDegrees>
            </Position>
            <AltitudeMeters>363.600006103515625</AltitudeMeters>
            <DistanceMeters>NAN</DistanceMeters>
          </Trackpoint>
          <Trackpoint>
            <Time>2022-09-23T08:24:03.000Z</Time>
            <Position>
              <LatitudeDegrees>49.4713341258466243743896484375</LatitudeDegrees>
              <LongitudeDegrees>20.697077102959156036376953125</LongitudeDegrees>
            </Position>
            <AltitudeMeters>362.399993896484375</AltitudeMeters>
            <DistanceMeters>NAN</DistanceMeters>
          </Trackpoint>
          <Trackpoint>
            <Time>2022-09-23T08:24:06.000Z</Time>
            <Position>
              <LatitudeDegrees>49.47115316055715084075927734375</LatitudeDegrees>
              <LongitudeDegrees>20.69723258726298809051513671875</LongitudeDegrees>
            </Position>
            <AltitudeMeters>361.20001220703125</AltitudeMeters>
            <DistanceMeters>NAN</DistanceMeters>
          </Trackpoint>
          <Trackpoint>
            <Time>2022-09-23T08:24:11.000Z</Time>
            <Position>
              <LatitudeDegrees>49.47093053720891475677490234375</LatitudeDegrees>
              <LongitudeDegrees>20.69748790003359317779541015625</LongitudeDegrees>
            </Position>
            <AltitudeMeters>359.600006103515625</AltitudeMeters>
            <DistanceMeters>NAN</DistanceMeters>
          </Trackpoint>
          <Trackpoint>
            <Time>2022-09-23T08:24:13.000Z</Time>
            <Position>
              <LatitudeDegrees>49.47084872983396053314208984375</LatitudeDegrees>
              <LongitudeDegrees>20.6975969485938549041748046875</LongitudeDegrees>
            </Position>
            <AltitudeMeters>358.399993896484375</AltitudeMeters>
            <DistanceMeters>NAN</DistanceMeters>
          </Trackpoint>
          <Trackpoint>
            <Time>2022-09-23T08:24:15.000Z</Time>
            <Position>
              <LatitudeDegrees>49.47076256386935710906982421875</LatitudeDegrees>
              <LongitudeDegrees>20.69771354086697101593017578125</LongitudeDegrees>
            </Position>
            <AltitudeMeters>356.79998779296875</AltitudeMeters>
            <DistanceMeters>NAN</DistanceMeters>
          </Trackpoint>
          <Trackpoint>
            <Time>2022-09-23T08:24:17.000Z</Time>
            <Position>
              <LatitudeDegrees>49.47069383226335048675537109375</LatitudeDegrees>
              <LongitudeDegrees>20.69780004210770130157470703125</LongitudeDegrees>
            </Position>
            <AltitudeMeters>355.600006103515625</AltitudeMeters>
            <DistanceMeters>NAN</DistanceMeters>
          </Trackpoint>
          <Trackpoint>
            <Time>2022-09-23T08:24:19.000Z</Time>
            <Position>
              <LatitudeDegrees>49.4706350751221179962158203125</LatitudeDegrees>
              <LongitudeDegrees>20.69784094579517841339111328125</LongitudeDegrees>
            </Position>
            <AltitudeMeters>355</AltitudeMeters>
            <DistanceMeters>NAN</DistanceMeters>
          </Trackpoint>
          <Trackpoint>
            <Time>2022-09-23T08:24:20.000Z</Time>
            <Position>
              <LatitudeDegrees>49.4706005416810512542724609375</LatitudeDegrees>
              <LongitudeDegrees>20.69783926941454410552978515625</LongitudeDegrees>
            </Position>
            <AltitudeMeters>354.600006103515625</AltitudeMeters>
            <DistanceMeters>NAN</DistanceMeters>
          </Trackpoint>
          <Trackpoint>
            <Time>2022-09-23T08:24:21.000Z</Time>
            <Position>
              <LatitudeDegrees>49.4705723784863948822021484375</LatitudeDegrees>
              <LongitudeDegrees>20.69784480147063732147216796875</LongitudeDegrees>
            </Position>
            <AltitudeMeters>354.399993896484375</AltitudeMeters>
            <DistanceMeters>NAN</DistanceMeters>
          </Trackpoint>
          <Trackpoint>
            <Time>2022-09-23T08:24:22.000Z</Time>
            <Position>
              <LatitudeDegrees>49.4705651700496673583984375</LatitudeDegrees>
              <LongitudeDegrees>20.697809346020221710205078125</LongitudeDegrees>
            </Position>
            <AltitudeMeters>354.20001220703125</AltitudeMeters>
            <DistanceMeters>NAN</DistanceMeters>
          </Trackpoint>
          <Trackpoint>
            <Time>2022-09-23T08:24:25.000Z</Time>
            <Position>
              <LatitudeDegrees>49.470618478953838348388671875</LatitudeDegrees>
              <LongitudeDegrees>20.697685964405536651611328125</LongitudeDegrees>
            </Position>
            <AltitudeMeters>353.399993896484375</AltitudeMeters>
            <DistanceMeters>NAN</DistanceMeters>
          </Trackpoint>
          <Trackpoint>
            <Time>2022-09-23T08:24:26.000Z</Time>
            <Position>
              <LatitudeDegrees>49.47063482366502285003662109375</LatitudeDegrees>
              <LongitudeDegrees>20.697657801210880279541015625</LongitudeDegrees>
            </Position>
            <AltitudeMeters>353.399993896484375</AltitudeMeters>
            <DistanceMeters>NAN</DistanceMeters>
          </Trackpoint>
          <Trackpoint>
            <Time>2022-09-23T08:24:32.000Z</Time>
            <Position>
              <LatitudeDegrees>49.47079944424331188201904296875</LatitudeDegrees>
              <LongitudeDegrees>20.6974361836910247802734375</LongitudeDegrees>
            </Position>
            <AltitudeMeters>352.79998779296875</AltitudeMeters>
            <DistanceMeters>NAN</DistanceMeters>
          </Trackpoint>
          <Trackpoint>
            <Time>2022-09-23T08:24:39.000Z</Time>
            <Position>
              <LatitudeDegrees>49.47097864933311939239501953125</LatitudeDegrees>
              <LongitudeDegrees>20.69716905243694782257080078125</LongitudeDegrees>
            </Position>
            <AltitudeMeters>352.79998779296875</AltitudeMeters>
            <DistanceMeters>NAN</DistanceMeters>
          </Trackpoint>
          <Trackpoint>
            <Time>2022-09-23T08:24:47.000Z</Time>
            <Position>
              <LatitudeDegrees>49.47117025963962078094482421875</LatitudeDegrees>
              <LongitudeDegrees>20.69686797447502613067626953125</LongitudeDegrees>
            </Position>
            <AltitudeMeters>352.600006103515625</AltitudeMeters>
            <DistanceMeters>NAN</DistanceMeters>
          </Trackpoint>
          <Trackpoint>
            <Time>2022-09-23T08:24:55.000Z</Time>
            <Position>
              <LatitudeDegrees>49.47136807255446910858154296875</LatitudeDegrees>
              <LongitudeDegrees>20.69650621153414249420166015625</LongitudeDegrees>
            </Position>
            <AltitudeMeters>352.600006103515625</AltitudeMeters>
            <DistanceMeters>NAN</DistanceMeters>
          </Trackpoint>
          <Trackpoint>
            <Time>2022-09-23T08:24:56.000Z</Time>
            <Position>
              <LatitudeDegrees>49.47139170952141284942626953125</LatitudeDegrees>
              <LongitudeDegrees>20.69645374082028865814208984375</LongitudeDegrees>
            </Position>
            <AltitudeMeters>352.600006103515625</AltitudeMeters>
            <DistanceMeters>NAN</DistanceMeters>
          </Trackpoint>
          <Trackpoint>
            <Time>2022-09-23T08:25:03.000Z</Time>
            <Position>
              <LatitudeDegrees>49.47155021131038665771484375</LatitudeDegrees>
              <LongitudeDegrees>20.6961272656917572021484375</LongitudeDegrees>
            </Position>
            <AltitudeMeters>352.600006103515625</AltitudeMeters>
            <DistanceMeters>NAN</DistanceMeters>
          </Trackpoint>
          <Trackpoint>
            <Time>2022-09-23T08:25:04.000Z</Time>
            <Position>
              <LatitudeDegrees>49.471569322049617767333984375</LatitudeDegrees>
              <LongitudeDegrees>20.69607303477823734283447265625</LongitudeDegrees>
            </Position>
            <AltitudeMeters>352.600006103515625</AltitudeMeters>
            <DistanceMeters>NAN</DistanceMeters>
          </Trackpoint>
          <Trackpoint>
            <Time>2022-09-23T08:25:12.000Z</Time>
            <Position>
              <LatitudeDegrees>49.471741653978824615478515625</LatitudeDegrees>
              <LongitudeDegrees>20.69568428210914134979248046875</LongitudeDegrees>
            </Position>
            <AltitudeMeters>352.79998779296875</AltitudeMeters>
            <DistanceMeters>NAN</DistanceMeters>
          </Trackpoint>
          <Trackpoint>
            <Time>2022-09-23T08:25:20.000Z</Time>
            <Position>
              <LatitudeDegrees>49.47189889848232269287109375</LatitudeDegrees>
              <LongitudeDegrees>20.69529804401099681854248046875</LongitudeDegrees>
            </Position>
            <AltitudeMeters>352.600006103515625</AltitudeMeters>
            <DistanceMeters>NAN</DistanceMeters>
          </Trackpoint>
          <Trackpoint>
            <Time>2022-09-23T08:25:26.000Z</Time>
            <Position>
              <LatitudeDegrees>49.47203074581921100616455078125</LatitudeDegrees>
              <LongitudeDegrees>20.69500132463872432708740234375</LongitudeDegrees>
            </Position>
            <AltitudeMeters>353</AltitudeMeters>
            <DistanceMeters>NAN</DistanceMeters>
          </Trackpoint>
          <Trackpoint>
            <Time>2022-09-23T08:25:35.000Z</Time>
            <Position>
              <LatitudeDegrees>49.472185559570789337158203125</LatitudeDegrees>
              <LongitudeDegrees>20.69461475126445293426513671875</LongitudeDegrees>
            </Position>
            <AltitudeMeters>352.79998779296875</AltitudeMeters>
            <DistanceMeters>NAN</DistanceMeters>
          </Trackpoint>
          <Trackpoint>
            <Time>2022-09-23T08:25:36.000Z</Time>
            <Position>
              <LatitudeDegrees>49.47220089845359325408935546875</LatitudeDegrees>
              <LongitudeDegrees>20.694576613605022430419921875</LongitudeDegrees>
            </Position>
            <AltitudeMeters>352.79998779296875</AltitudeMeters>
            <DistanceMeters>NAN</DistanceMeters>
          </Trackpoint>
          <Trackpoint>
            <Time>2022-09-23T08:25:37.000Z</Time>
            <Position>
              <LatitudeDegrees>49.4722138904035091400146484375</LatitudeDegrees>
              <LongitudeDegrees>20.694537051022052764892578125</LongitudeDegrees>
            </Position>
            <AltitudeMeters>352.79998779296875</AltitudeMeters>
            <DistanceMeters>NAN</DistanceMeters>
          </Trackpoint>
          <Trackpoint>
            <Time>2022-09-23T08:25:41.000Z</Time>
            <Position>
              <LatitudeDegrees>49.472270049154758453369140625</LatitudeDegrees>
              <LongitudeDegrees>20.69438776932656764984130859375</LongitudeDegrees>
            </Position>
            <AltitudeMeters>352.600006103515625</AltitudeMeters>
            <DistanceMeters>NAN</DistanceMeters>
          </Trackpoint>
          <Trackpoint>
            <Time>2022-09-23T08:25:47.000Z</Time>
            <Position>
              <LatitudeDegrees>49.47236652486026287078857421875</LatitudeDegrees>
              <LongitudeDegrees>20.69416313432157039642333984375</LongitudeDegrees>
            </Position>
            <AltitudeMeters>352.600006103515625</AltitudeMeters>
            <DistanceMeters>NAN</DistanceMeters>
          </Trackpoint>
          <Trackpoint>
            <Time>2022-09-23T08:25:50.000Z</Time>
            <Position>
              <LatitudeDegrees>49.4724334962666034698486328125</LatitudeDegrees>
              <LongitudeDegrees>20.69400019012391567230224609375</LongitudeDegrees>
            </Position>
            <AltitudeMeters>352.399993896484375</AltitudeMeters>
            <DistanceMeters>NAN</DistanceMeters>
          </Trackpoint>
          <Trackpoint>
            <Time>2022-09-23T08:25:57.000Z</Time>
            <Position>
              <LatitudeDegrees>49.472572468221187591552734375</LatitudeDegrees>
              <LongitudeDegrees>20.693685449659824371337890625</LongitudeDegrees>
            </Position>
            <AltitudeMeters>352.20001220703125</AltitudeMeters>
            <DistanceMeters>NAN</DistanceMeters>
          </Trackpoint>
          <Trackpoint>
            <Time>2022-09-23T08:26:05.000Z</Time>
            <Position>
              <LatitudeDegrees>49.4727218337357044219970703125</LatitudeDegrees>
              <LongitudeDegrees>20.69337238557636737823486328125</LongitudeDegrees>
            </Position>
            <AltitudeMeters>352.399993896484375</AltitudeMeters>
            <DistanceMeters>NAN</DistanceMeters>
          </Trackpoint>
          <Trackpoint>
            <Time>2022-09-23T08:26:06.000Z</Time>
            <Position>
              <LatitudeDegrees>49.4727404415607452392578125</LatitudeDegrees>
              <LongitudeDegrees>20.6933308951556682586669921875</LongitudeDegrees>
            </Position>
            <AltitudeMeters>352.399993896484375</AltitudeMeters>
            <DistanceMeters>NAN</DistanceMeters>
          </Trackpoint>
          <Trackpoint>
            <Time>2022-09-23T08:26:13.000Z</Time>
            <Position>
              <LatitudeDegrees>49.47285284288227558135986328125</LatitudeDegrees>
              <LongitudeDegrees>20.69306208752095699310302734375</LongitudeDegrees>
            </Position>
            <AltitudeMeters>353.399993896484375</AltitudeMeters>
            <DistanceMeters>NAN</DistanceMeters>
          </Trackpoint>
          <Trackpoint>
            <Time>2022-09-23T08:26:19.000Z</Time>
            <Position>
              <LatitudeDegrees>49.47294336743652820587158203125</LatitudeDegrees>
              <LongitudeDegrees>20.6928588263690471649169921875</LongitudeDegrees>
            </Position>
            <AltitudeMeters>353</AltitudeMeters>
            <DistanceMeters>NAN</DistanceMeters>
          </Trackpoint>
          <Trackpoint>
            <Time>2022-09-23T08:26:27.000Z</Time>
            <Position>
              <LatitudeDegrees>49.47309876792132854461669921875</LatitudeDegrees>
              <LongitudeDegrees>20.6925175152719020843505859375</LongitudeDegrees>
            </Position>
            <AltitudeMeters>352.399993896484375</AltitudeMeters>
            <DistanceMeters>NAN</DistanceMeters>
          </Trackpoint>
          <Trackpoint>
            <Time>2022-09-23T08:26:29.000Z</Time>
            <Position>
              <LatitudeDegrees>49.4731415994465351104736328125</LatitudeDegrees>
              <LongitudeDegrees>20.692424476146697998046875</LongitudeDegrees>
            </Position>
            <AltitudeMeters>352.20001220703125</AltitudeMeters>
            <DistanceMeters>NAN</DistanceMeters>
          </Trackpoint>
          <Trackpoint>
            <Time>2022-09-23T08:26:39.000Z</Time>
            <Position>
              <LatitudeDegrees>49.473335556685924530029296875</LatitudeDegrees>
              <LongitudeDegrees>20.69200479425489902496337890625</LongitudeDegrees>
            </Position>
            <AltitudeMeters>352</AltitudeMeters>
            <DistanceMeters>NAN</DistanceMeters>
          </Trackpoint>
          <Trackpoint>
            <Time>2022-09-23T08:26:46.000Z</Time>
            <Position>
              <LatitudeDegrees>49.47347293607890605926513671875</LatitudeDegrees>
              <LongitudeDegrees>20.69169960916042327880859375</LongitudeDegrees>
            </Position>
            <AltitudeMeters>351.79998779296875</AltitudeMeters>
            <DistanceMeters>NAN</DistanceMeters>
          </Trackpoint>
          <Trackpoint>
            <Time>2022-09-23T08:26:51.000Z</Time>
            <Position>
              <LatitudeDegrees>49.47357125580310821533203125</LatitudeDegrees>
              <LongitudeDegrees>20.69148779846727848052978515625</LongitudeDegrees>
            </Position>
            <AltitudeMeters>351.600006103515625</AltitudeMeters>
            <DistanceMeters>NAN</DistanceMeters>
          </Trackpoint>
          <Trackpoint>
            <Time>2022-09-23T08:26:53.000Z</Time>
            <Position>
              <LatitudeDegrees>49.4736093096435070037841796875</LatitudeDegrees>
              <LongitudeDegrees>20.69140733219683170318603515625</LongitudeDegrees>
            </Position>
            <AltitudeMeters>351.600006103515625</AltitudeMeters>
            <DistanceMeters>NAN</DistanceMeters>
          </Trackpoint>
          <Trackpoint>
            <Time>2022-09-23T08:27:00.000Z</Time>
            <Position>
              <LatitudeDegrees>49.4737514667212963104248046875</LatitudeDegrees>
              <LongitudeDegrees>20.6910764984786510467529296875</LongitudeDegrees>
            </Position>
            <AltitudeMeters>352</AltitudeMeters>
            <DistanceMeters>NAN</DistanceMeters>
          </Trackpoint>
          <Trackpoint>
            <Time>2022-09-23T08:27:07.000Z</Time>
            <Position>
              <LatitudeDegrees>49.4738991558551788330078125</LatitudeDegrees>
              <LongitudeDegrees>20.69077156484127044677734375</LongitudeDegrees>
            </Position>
            <AltitudeMeters>352</AltitudeMeters>
            <DistanceMeters>NAN</DistanceMeters>
          </Trackpoint>
          <Trackpoint>
            <Time>2022-09-23T08:27:08.000Z</Time>
            <Position>
              <LatitudeDegrees>49.4739248044788837432861328125</LatitudeDegrees>
              <LongitudeDegrees>20.6907281465828418731689453125</LongitudeDegrees>
            </Position>
            <AltitudeMeters>352</AltitudeMeters>
            <DistanceMeters>NAN</DistanceMeters>
          </Trackpoint>
          <Trackpoint>
            <Time>2022-09-23T08:27:13.000Z</Time>
            <Position>
              <LatitudeDegrees>49.474038295447826385498046875</LatitudeDegrees>
              <LongitudeDegrees>20.69047610275447368621826171875</LongitudeDegrees>
            </Position>
            <AltitudeMeters>352</AltitudeMeters>
            <DistanceMeters>NAN</DistanceMeters>
          </Trackpoint>
          <Trackpoint>
            <Time>2022-09-23T08:27:14.000Z</Time>
            <Position>
              <LatitudeDegrees>49.4740636087954044342041015625</LatitudeDegrees>
              <LongitudeDegrees>20.69042824208736419677734375</LongitudeDegrees>
            </Position>
            <AltitudeMeters>352</AltitudeMeters>
            <DistanceMeters>NAN</DistanceMeters>
          </Trackpoint>
          <Trackpoint>
            <Time>2022-09-23T08:27:16.000Z</Time>
            <Position>
              <LatitudeDegrees>49.4741118885576725006103515625</LatitudeDegrees>
              <LongitudeDegrees>20.69033302366733551025390625</LongitudeDegrees>
            </Position>
            <AltitudeMeters>351.79998779296875</AltitudeMeters>
            <DistanceMeters>NAN</DistanceMeters>
          </Trackpoint>
          <Trackpoint>
            <Time>2022-09-23T08:27:23.000Z</Time>
            <Position>
              <LatitudeDegrees>49.47426502592861652374267578125</LatitudeDegrees>
              <LongitudeDegrees>20.69000780582427978515625</LongitudeDegrees>
            </Position>
            <AltitudeMeters>351.20001220703125</AltitudeMeters>
            <DistanceMeters>NAN</DistanceMeters>
          </Trackpoint>
          <Trackpoint>
            <Time>2022-09-23T08:27:24.000Z</Time>
            <Position>
              <LatitudeDegrees>49.47428581304848194122314453125</LatitudeDegrees>
              <LongitudeDegrees>20.6899606995284557342529296875</LongitudeDegrees>
            </Position>
            <AltitudeMeters>351.20001220703125</AltitudeMeters>
            <DistanceMeters>NAN</DistanceMeters>
          </Trackpoint>
          <Trackpoint>
            <Time>2022-09-23T08:27:32.000Z</Time>
            <Position>
              <LatitudeDegrees>49.47448597289621829986572265625</LatitudeDegrees>
              <LongitudeDegrees>20.689577646553516387939453125</LongitudeDegrees>
            </Position>
            <AltitudeMeters>351</AltitudeMeters>
            <DistanceMeters>NAN</DistanceMeters>
          </Trackpoint>
          <Trackpoint>
            <Time>2022-09-23T08:27:35.000Z</Time>
            <Position>
              <LatitudeDegrees>49.47455856017768383026123046875</LatitudeDegrees>
              <LongitudeDegrees>20.68945082835853099822998046875</LongitudeDegrees>
            </Position>
            <AltitudeMeters>351</AltitudeMeters>
            <DistanceMeters>NAN</DistanceMeters>
          </Trackpoint>
          <Trackpoint>
            <Time>2022-09-23T08:27:40.000Z</Time>
            <Position>
              <LatitudeDegrees>49.474692083895206451416015625</LatitudeDegrees>
              <LongitudeDegrees>20.68923600018024444580078125</LongitudeDegrees>
            </Position>
            <AltitudeMeters>351.20001220703125</AltitudeMeters>
            <DistanceMeters>NAN</DistanceMeters>
          </Trackpoint>
          <Trackpoint>
            <Time>2022-09-23T08:27:43.000Z</Time>
            <Position>
              <LatitudeDegrees>49.4747817702591419219970703125</LatitudeDegrees>
              <LongitudeDegrees>20.68911957554519176483154296875</LongitudeDegrees>
            </Position>
            <AltitudeMeters>351.20001220703125</AltitudeMeters>
            <DistanceMeters>NAN</DistanceMeters>
          </Trackpoint>
          <Trackpoint>
            <Time>2022-09-23T08:27:52.000Z</Time>
            <Position>
              <LatitudeDegrees>49.47501889429986476898193359375</LatitudeDegrees>
              <LongitudeDegrees>20.68872814066708087921142578125</LongitudeDegrees>
            </Position>
            <AltitudeMeters>351.399993896484375</AltitudeMeters>
            <DistanceMeters>NAN</DistanceMeters>
          </Trackpoint>
          <Trackpoint>
            <Time>2022-09-23T08:27:59.000Z</Time>
            <Position>
              <LatitudeDegrees>49.475216455757617950439453125</LatitudeDegrees>
              <LongitudeDegrees>20.6883919425308704376220703125</LongitudeDegrees>
            </Position>
            <AltitudeMeters>351.399993896484375</AltitudeMeters>
            <DistanceMeters>NAN</DistanceMeters>
          </Trackpoint>
          <Trackpoint>
            <Time>2022-09-23T08:28:00.000Z</Time>
            <Position>
              <LatitudeDegrees>49.47523548267781734466552734375</LatitudeDegrees>
              <LongitudeDegrees>20.6883500330150127410888671875</LongitudeDegrees>
            </Position>
            <AltitudeMeters>351.399993896484375</AltitudeMeters>
            <DistanceMeters>NAN</DistanceMeters>
          </Trackpoint>
          <Trackpoint>
            <Time>2022-09-23T08:28:03.000Z</Time>
            <Position>
              <LatitudeDegrees>49.47532198391854763031005859375</LatitudeDegrees>
              <LongitudeDegrees>20.68818247877061367034912109375</LongitudeDegrees>
            </Position>
            <AltitudeMeters>351.20001220703125</AltitudeMeters>
            <DistanceMeters>NAN</DistanceMeters>
          </Trackpoint>
          <Trackpoint>
            <Time>2022-09-23T08:28:06.000Z</Time>
            <Position>
              <LatitudeDegrees>49.4754013605415821075439453125</LatitudeDegrees>
              <LongitudeDegrees>20.688032694160938262939453125</LongitudeDegrees>
            </Position>
            <AltitudeMeters>351.20001220703125</AltitudeMeters>
            <DistanceMeters>NAN</DistanceMeters>
          </Trackpoint>
          <Trackpoint>
            <Time>2022-09-23T08:28:08.000Z</Time>
            <Position>
              <LatitudeDegrees>49.4754556752741336822509765625</LatitudeDegrees>
              <LongitudeDegrees>20.687947534024715423583984375</LongitudeDegrees>
            </Position>
            <AltitudeMeters>351.20001220703125</AltitudeMeters>
            <DistanceMeters>NAN</DistanceMeters>
          </Trackpoint>
          <Trackpoint>
            <Time>2022-09-23T08:28:16.000Z</Time>
            <Position>
              <LatitudeDegrees>49.475656338036060333251953125</LatitudeDegrees>
              <LongitudeDegrees>20.6876476295292377471923828125</LongitudeDegrees>
            </Position>
            <AltitudeMeters>351</AltitudeMeters>
            <DistanceMeters>NAN</DistanceMeters>
          </Trackpoint>
          <Trackpoint>
            <Time>2022-09-23T08:28:21.000Z</Time>
            <Position>
              <LatitudeDegrees>49.47581014595925807952880859375</LatitudeDegrees>
              <LongitudeDegrees>20.68746197037398815155029296875</LongitudeDegrees>
            </Position>
            <AltitudeMeters>350.79998779296875</AltitudeMeters>
            <DistanceMeters>NAN</DistanceMeters>
          </Trackpoint>
          <Trackpoint>
            <Time>2022-09-23T08:28:23.000Z</Time>
            <Position>
              <LatitudeDegrees>49.4758885167539119720458984375</LatitudeDegrees>
              <LongitudeDegrees>20.68738820962607860565185546875</LongitudeDegrees>
            </Position>
            <AltitudeMeters>350.79998779296875</AltitudeMeters>
            <DistanceMeters>NAN</DistanceMeters>
          </Trackpoint>
          <Trackpoint>
            <Time>2022-09-23T08:28:31.000Z</Time>
            <Position>
              <LatitudeDegrees>49.47615288197994232177734375</LatitudeDegrees>
              <LongitudeDegrees>20.6871041469275951385498046875</LongitudeDegrees>
            </Position>
            <AltitudeMeters>350.600006103515625</AltitudeMeters>
            <DistanceMeters>NAN</DistanceMeters>
          </Trackpoint>
          <Trackpoint>
            <Time>2022-09-23T08:28:34.000Z</Time>
            <Position>
              <LatitudeDegrees>49.47625086642801761627197265625</LatitudeDegrees>
              <LongitudeDegrees>20.68698856048285961151123046875</LongitudeDegrees>
            </Position>
            <AltitudeMeters>350.600006103515625</AltitudeMeters>
            <DistanceMeters>NAN</DistanceMeters>
          </Trackpoint>
          <Trackpoint>
            <Time>2022-09-23T08:28:40.000Z</Time>
            <Position>
              <LatitudeDegrees>49.47643426246941089630126953125</LatitudeDegrees>
              <LongitudeDegrees>20.686786137521266937255859375</LongitudeDegrees>
            </Position>
            <AltitudeMeters>351.399993896484375</AltitudeMeters>
            <DistanceMeters>NAN</DistanceMeters>
          </Trackpoint>
          <Trackpoint>
            <Time>2022-09-23T08:28:46.000Z</Time>
            <Position>
              <LatitudeDegrees>49.476588070392608642578125</LatitudeDegrees>
              <LongitudeDegrees>20.6865707226097583770751953125</LongitudeDegrees>
            </Position>
            <AltitudeMeters>351.600006103515625</AltitudeMeters>
            <DistanceMeters>NAN</DistanceMeters>
          </Trackpoint>
          <Trackpoint>
            <Time>2022-09-23T08:28:52.000Z</Time>
            <Position>
              <LatitudeDegrees>49.476741962134838104248046875</LatitudeDegrees>
              <LongitudeDegrees>20.686356313526630401611328125</LongitudeDegrees>
            </Position>
            <AltitudeMeters>351</AltitudeMeters>
            <DistanceMeters>NAN</DistanceMeters>
          </Trackpoint>
          <Trackpoint>
            <Time>2022-09-23T08:28:53.000Z</Time>
            <Position>
              <LatitudeDegrees>49.47676719166338443756103515625</LatitudeDegrees>
              <LongitudeDegrees>20.6863192655146121978759765625</LongitudeDegrees>
            </Position>
            <AltitudeMeters>350.79998779296875</AltitudeMeters>
            <DistanceMeters>NAN</DistanceMeters>
          </Trackpoint>
          <Trackpoint>
            <Time>2022-09-23T08:28:58.000Z</Time>
            <Position>
              <LatitudeDegrees>49.47689996100962162017822265625</LatitudeDegrees>
              <LongitudeDegrees>20.68617316894233226776123046875</LongitudeDegrees>
            </Position>
            <AltitudeMeters>350.399993896484375</AltitudeMeters>
            <DistanceMeters>NAN</DistanceMeters>
          </Trackpoint>
          <Trackpoint>
            <Time>2022-09-23T08:29:01.000Z</Time>
            <Position>
              <LatitudeDegrees>49.47696651332080364227294921875</LatitudeDegrees>
              <LongitudeDegrees>20.6860823929309844970703125</LongitudeDegrees>
            </Position>
            <AltitudeMeters>350.20001220703125</AltitudeMeters>
            <DistanceMeters>NAN</DistanceMeters>
          </Trackpoint>
          <Trackpoint>
            <Time>2022-09-23T08:29:04.000Z</Time>
            <Position>
              <LatitudeDegrees>49.47703792713582515716552734375</LatitudeDegrees>
              <LongitudeDegrees>20.68596932105720043182373046875</LongitudeDegrees>
            </Position>
            <AltitudeMeters>349.79998779296875</AltitudeMeters>
            <DistanceMeters>NAN</DistanceMeters>
          </Trackpoint>
          <Trackpoint>
            <Time>2022-09-23T08:29:09.000Z</Time>
            <Position>
              <LatitudeDegrees>49.47718058712780475616455078125</LatitudeDegrees>
              <LongitudeDegrees>20.68577301688492298126220703125</LongitudeDegrees>
            </Position>
            <AltitudeMeters>349.399993896484375</AltitudeMeters>
            <DistanceMeters>NAN</DistanceMeters>
          </Trackpoint>
          <Trackpoint>
            <Time>2022-09-23T08:29:12.000Z</Time>
            <Position>
              <LatitudeDegrees>49.47726859711110591888427734375</LatitudeDegrees>
              <LongitudeDegrees>20.685658268630504608154296875</LongitudeDegrees>
            </Position>
            <AltitudeMeters>349.399993896484375</AltitudeMeters>
            <DistanceMeters>NAN</DistanceMeters>
          </Trackpoint>
          <Trackpoint>
            <Time>2022-09-23T08:29:21.000Z</Time>
            <Position>
              <LatitudeDegrees>49.47755576111376285552978515625</LatitudeDegrees>
              <LongitudeDegrees>20.68533984012901782989501953125</LongitudeDegrees>
            </Position>
            <AltitudeMeters>349.20001220703125</AltitudeMeters>
            <DistanceMeters>NAN</DistanceMeters>
          </Trackpoint>
          <Trackpoint>
            <Time>2022-09-23T08:29:27.000Z</Time>
            <Position>
              <LatitudeDegrees>49.47773915715515613555908203125</LatitudeDegrees>
              <LongitudeDegrees>20.68514772690832614898681640625</LongitudeDegrees>
            </Position>
            <AltitudeMeters>349</AltitudeMeters>
            <DistanceMeters>NAN</DistanceMeters>
          </Trackpoint>
          <Trackpoint>
            <Time>2022-09-23T08:29:30.000Z</Time>
            <Position>
              <LatitudeDegrees>49.47783387266099452972412109375</LatitudeDegrees>
              <LongitudeDegrees>20.685058794915676116943359375</LongitudeDegrees>
            </Position>
            <AltitudeMeters>349</AltitudeMeters>
            <DistanceMeters>NAN</DistanceMeters>
          </Trackpoint>
          <Trackpoint>
            <Time>2022-09-23T08:29:38.000Z</Time>
            <Position>
              <LatitudeDegrees>49.4780912809073925018310546875</LatitudeDegrees>
              <LongitudeDegrees>20.684816054999828338623046875</LongitudeDegrees>
            </Position>
            <AltitudeMeters>348.79998779296875</AltitudeMeters>
            <DistanceMeters>NAN</DistanceMeters>
          </Trackpoint>
          <Trackpoint>
            <Time>2022-09-23T08:29:50.000Z</Time>
            <Position>
              <LatitudeDegrees>49.47848933748900890350341796875</LatitudeDegrees>
              <LongitudeDegrees>20.6844779290258884429931640625</LongitudeDegrees>
            </Position>
            <AltitudeMeters>348.79998779296875</AltitudeMeters>
            <DistanceMeters>NAN</DistanceMeters>
          </Trackpoint>
          <Trackpoint>
            <Time>2022-09-23T08:29:58.000Z</Time>
            <Position>
              <LatitudeDegrees>49.47874716483056545257568359375</LatitudeDegrees>
              <LongitudeDegrees>20.684270225465297698974609375</LongitudeDegrees>
            </Position>
            <AltitudeMeters>348.600006103515625</AltitudeMeters>
            <DistanceMeters>NAN</DistanceMeters>
          </Trackpoint>
          <Trackpoint>
            <Time>2022-09-23T08:30:07.000Z</Time>
            <Position>
              <LatitudeDegrees>49.4790193252265453338623046875</LatitudeDegrees>
              <LongitudeDegrees>20.6840444169938564300537109375</LongitudeDegrees>
            </Position>
            <AltitudeMeters>348.79998779296875</AltitudeMeters>
            <DistanceMeters>NAN</DistanceMeters>
          </Trackpoint>
          <Trackpoint>
            <Time>2022-09-23T08:30:08.000Z</Time>
            <Position>
              <LatitudeDegrees>49.47904807515442371368408203125</LatitudeDegrees>
              <LongitudeDegrees>20.6840263120830059051513671875</LongitudeDegrees>
            </Position>
            <AltitudeMeters>348.79998779296875</AltitudeMeters>
            <DistanceMeters>NAN</DistanceMeters>
          </Trackpoint>
          <Trackpoint>
            <Time>2022-09-23T08:30:17.000Z</Time>
            <Position>
              <LatitudeDegrees>49.47936574928462505340576171875</LatitudeDegrees>
              <LongitudeDegrees>20.68383210338652133941650390625</LongitudeDegrees>
            </Position>
            <AltitudeMeters>348.600006103515625</AltitudeMeters>
            <DistanceMeters>NAN</DistanceMeters>
          </Trackpoint>
          <Trackpoint>
            <Time>2022-09-23T08:30:25.000Z</Time>
            <Position>
              <LatitudeDegrees>49.47965274564921855926513671875</LatitudeDegrees>
              <LongitudeDegrees>20.68364359438419342041015625</LongitudeDegrees>
            </Position>
            <AltitudeMeters>348.600006103515625</AltitudeMeters>
            <DistanceMeters>NAN</DistanceMeters>
          </Trackpoint>
          <Trackpoint>
            <Time>2022-09-23T08:30:27.000Z</Time>
            <Position>
              <LatitudeDegrees>49.47973287664353847503662109375</LatitudeDegrees>
              <LongitudeDegrees>20.68359791301190853118896484375</LongitudeDegrees>
            </Position>
            <AltitudeMeters>348.600006103515625</AltitudeMeters>
            <DistanceMeters>NAN</DistanceMeters>
          </Trackpoint>
          <Trackpoint>
            <Time>2022-09-23T08:30:33.000Z</Time>
            <Position>
              <LatitudeDegrees>49.4799406640231609344482421875</LatitudeDegrees>
              <LongitudeDegrees>20.68348241038620471954345703125</LongitudeDegrees>
            </Position>
            <AltitudeMeters>348.79998779296875</AltitudeMeters>
            <DistanceMeters>NAN</DistanceMeters>
          </Trackpoint>
          <Trackpoint>
            <Time>2022-09-23T08:30:35.000Z</Time>
            <Position>
              <LatitudeDegrees>49.48001065291464328765869140625</LatitudeDegrees>
              <LongitudeDegrees>20.6834385730326175689697265625</LongitudeDegrees>
            </Position>
            <AltitudeMeters>349</AltitudeMeters>
            <DistanceMeters>NAN</DistanceMeters>
          </Trackpoint>
          <Trackpoint>
            <Time>2022-09-23T08:30:41.000Z</Time>
            <Position>
              <LatitudeDegrees>49.48021433316171169281005859375</LatitudeDegrees>
              <LongitudeDegrees>20.68331904709339141845703125</LongitudeDegrees>
            </Position>
            <AltitudeMeters>348.79998779296875</AltitudeMeters>
            <DistanceMeters>NAN</DistanceMeters>
          </Trackpoint>
          <Trackpoint>
            <Time>2022-09-23T08:30:42.000Z</Time>
            <Position>
              <LatitudeDegrees>49.48024467565119266510009765625</LatitudeDegrees>
              <LongitudeDegrees>20.68330002017319202423095703125</LongitudeDegrees>
            </Position>
            <AltitudeMeters>348.79998779296875</AltitudeMeters>
            <DistanceMeters>NAN</DistanceMeters>
          </Trackpoint>
          <Trackpoint>
            <Time>2022-09-23T08:30:46.000Z</Time>
            <Position>
              <LatitudeDegrees>49.480390436947345733642578125</LatitudeDegrees>
              <LongitudeDegrees>20.68321804516017436981201171875</LongitudeDegrees>
            </Position>
            <AltitudeMeters>348.79998779296875</AltitudeMeters>
            <DistanceMeters>NAN</DistanceMeters>
          </Trackpoint>
          <Trackpoint>
            <Time>2022-09-23T08:30:50.000Z</Time>
            <Position>
              <LatitudeDegrees>49.48052756488323211669921875</LatitudeDegrees>
              <LongitudeDegrees>20.68313891999423503875732421875</LongitudeDegrees>
            </Position>
            <AltitudeMeters>348.79998779296875</AltitudeMeters>
            <DistanceMeters>NAN</DistanceMeters>
          </Trackpoint>
          <Trackpoint>
            <Time>2022-09-23T08:31:00.000Z</Time>
            <Position>
              <LatitudeDegrees>49.48085454292595386505126953125</LatitudeDegrees>
              <LongitudeDegrees>20.6829763948917388916015625</LongitudeDegrees>
            </Position>
            <AltitudeMeters>349</AltitudeMeters>
            <DistanceMeters>NAN</DistanceMeters>
          </Trackpoint>
          <Trackpoint>
            <Time>2022-09-23T08:31:05.000Z</Time>
            <Position>
              <LatitudeDegrees>49.481007345020771026611328125</LatitudeDegrees>
              <LongitudeDegrees>20.68292367272078990936279296875</LongitudeDegrees>
            </Position>
            <AltitudeMeters>349.399993896484375</AltitudeMeters>
            <DistanceMeters>NAN</DistanceMeters>
          </Trackpoint>
          <Trackpoint>
            <Time>2022-09-23T08:31:09.000Z</Time>
            <Position>
              <LatitudeDegrees>49.4811411201953887939453125</LatitudeDegrees>
              <LongitudeDegrees>20.68289165385067462921142578125</LongitudeDegrees>
            </Position>
            <AltitudeMeters>349.399993896484375</AltitudeMeters>
            <DistanceMeters>NAN</DistanceMeters>
          </Trackpoint>
          <Trackpoint>
            <Time>2022-09-23T08:31:19.000Z</Time>
            <Position>
              <LatitudeDegrees>49.48149257339537143707275390625</LatitudeDegrees>
              <LongitudeDegrees>20.6828421168029308319091796875</LongitudeDegrees>
            </Position>
            <AltitudeMeters>349</AltitudeMeters>
            <DistanceMeters>NAN</DistanceMeters>
          </Trackpoint>
          <Trackpoint>
            <Time>2022-09-23T08:31:26.000Z</Time>
            <Position>
              <LatitudeDegrees>49.48174537159502506256103515625</LatitudeDegrees>
              <LongitudeDegrees>20.68283918313682079315185546875</LongitudeDegrees>
            </Position>
            <AltitudeMeters>348.399993896484375</AltitudeMeters>
            <DistanceMeters>NAN</DistanceMeters>
          </Trackpoint>
          <Trackpoint>
            <Time>2022-09-23T08:31:33.000Z</Time>
            <Position>
              <LatitudeDegrees>49.482001774013042449951171875</LatitudeDegrees>
              <LongitudeDegrees>20.68278419785201549530029296875</LongitudeDegrees>
            </Position>
            <AltitudeMeters>348.20001220703125</AltitudeMeters>
            <DistanceMeters>NAN</DistanceMeters>
          </Trackpoint>
          <Trackpoint>
            <Time>2022-09-23T08:31:34.000Z</Time>
            <Position>
              <LatitudeDegrees>49.48204033076763153076171875</LatitudeDegrees>
              <LongitudeDegrees>20.682782270014286041259765625</LongitudeDegrees>
            </Position>
            <AltitudeMeters>348.20001220703125</AltitudeMeters>
            <DistanceMeters>NAN</DistanceMeters>
          </Trackpoint>
          <Trackpoint>
            <Time>2022-09-23T08:31:39.000Z</Time>
            <Position>
              <LatitudeDegrees>49.482226409018039703369140625</LatitudeDegrees>
              <LongitudeDegrees>20.68280875682830810546875</LongitudeDegrees>
            </Position>
            <AltitudeMeters>347.600006103515625</AltitudeMeters>
            <DistanceMeters>NAN</DistanceMeters>
          </Trackpoint>
          <Trackpoint>
            <Time>2022-09-23T08:31:43.000Z</Time>
            <Position>
              <LatitudeDegrees>49.482359178364276885986328125</LatitudeDegrees>
              <LongitudeDegrees>20.682800710201263427734375</LongitudeDegrees>
            </Position>
            <AltitudeMeters>347.600006103515625</AltitudeMeters>
            <DistanceMeters>NAN</DistanceMeters>
          </Trackpoint>
          <Trackpoint>
            <Time>2022-09-23T08:31:45.000Z</Time>
            <Position>
              <LatitudeDegrees>49.48243436403572559356689453125</LatitudeDegrees>
              <LongitudeDegrees>20.6828181445598602294921875</LongitudeDegrees>
            </Position>
            <AltitudeMeters>347.79998779296875</AltitudeMeters>
            <DistanceMeters>NAN</DistanceMeters>
          </Trackpoint>
          <Trackpoint>
            <Time>2022-09-23T08:31:46.000Z</Time>
            <Position>
              <LatitudeDegrees>49.48246805928647518157958984375</LatitudeDegrees>
              <LongitudeDegrees>20.68282661028206348419189453125</LongitudeDegrees>
            </Position>
            <AltitudeMeters>347.79998779296875</AltitudeMeters>
            <DistanceMeters>NAN</DistanceMeters>
          </Trackpoint>
          <Trackpoint>
            <Time>2022-09-23T08:31:52.000Z</Time>
            <Position>
              <LatitudeDegrees>49.48266067542135715484619140625</LatitudeDegrees>
              <LongitudeDegrees>20.68283700384199619293212890625</LongitudeDegrees>
            </Position>
            <AltitudeMeters>347.79998779296875</AltitudeMeters>
            <DistanceMeters>NAN</DistanceMeters>
          </Trackpoint>
          <Trackpoint>
            <Time>2022-09-23T08:31:56.000Z</Time>
            <Position>
              <LatitudeDegrees>49.48278103955090045928955078125</LatitudeDegrees>
              <LongitudeDegrees>20.68284471519291400909423828125</LongitudeDegrees>
            </Position>
            <AltitudeMeters>347.399993896484375</AltitudeMeters>
            <DistanceMeters>NAN</DistanceMeters>
          </Trackpoint>
          <Trackpoint>
            <Time>2022-09-23T08:32:02.000Z</Time>
            <Position>
              <LatitudeDegrees>49.48298036120831966400146484375</LatitudeDegrees>
              <LongitudeDegrees>20.68289651535451412200927734375</LongitudeDegrees>
            </Position>
            <AltitudeMeters>347.20001220703125</AltitudeMeters>
            <DistanceMeters>NAN</DistanceMeters>
          </Trackpoint>
          <Trackpoint>
            <Time>2022-09-23T08:32:03.000Z</Time>
            <Position>
              <LatitudeDegrees>49.4830148108303546905517578125</LatitudeDegrees>
              <LongitudeDegrees>20.6829064898192882537841796875</LongitudeDegrees>
            </Position>
            <AltitudeMeters>347</AltitudeMeters>
            <DistanceMeters>NAN</DistanceMeters>
          </Trackpoint>
          <Trackpoint>
            <Time>2022-09-23T08:32:12.000Z</Time>
            <Position>
              <LatitudeDegrees>49.4833547808229923248291015625</LatitudeDegrees>
              <LongitudeDegrees>20.6830194778740406036376953125</LongitudeDegrees>
            </Position>
            <AltitudeMeters>346.600006103515625</AltitudeMeters>
            <DistanceMeters>NAN</DistanceMeters>
          </Trackpoint>
          <Trackpoint>
            <Time>2022-09-23T08:32:19.000Z</Time>
            <Position>
              <LatitudeDegrees>49.48361076414585113525390625</LatitudeDegrees>
              <LongitudeDegrees>20.683058537542819976806640625</LongitudeDegrees>
            </Position>
            <AltitudeMeters>346.399993896484375</AltitudeMeters>
            <DistanceMeters>NAN</DistanceMeters>
          </Trackpoint>
          <Trackpoint>
            <Time>2022-09-23T08:32:21.000Z</Time>
            <Position>
              <LatitudeDegrees>49.4836860336363315582275390625</LatitudeDegrees>
              <LongitudeDegrees>20.68299843929708003997802734375</LongitudeDegrees>
            </Position>
            <AltitudeMeters>346.399993896484375</AltitudeMeters>
            <DistanceMeters>NAN</DistanceMeters>
          </Trackpoint>
          <Trackpoint>
            <Time>2022-09-23T08:32:23.000Z</Time>
            <Position>
              <LatitudeDegrees>49.48375635780394077301025390625</LatitudeDegrees>
              <LongitudeDegrees>20.68290825001895427703857421875</LongitudeDegrees>
            </Position>
            <AltitudeMeters>346.399993896484375</AltitudeMeters>
            <DistanceMeters>NAN</DistanceMeters>
          </Trackpoint>
          <Trackpoint>
            <Time>2022-09-23T08:32:29.000Z</Time>
            <Position>
              <LatitudeDegrees>49.48390488512814044952392578125</LatitudeDegrees>
              <LongitudeDegrees>20.68255956284701824188232421875</LongitudeDegrees>
            </Position>
            <AltitudeMeters>348.20001220703125</AltitudeMeters>
            <DistanceMeters>NAN</DistanceMeters>
          </Trackpoint>
          <Trackpoint>
            <Time>2022-09-23T08:32:33.000Z</Time>
            <Position>
              <LatitudeDegrees>49.4839773885905742645263671875</LatitudeDegrees>
              <LongitudeDegrees>20.68237063474953174591064453125</LongitudeDegrees>
            </Position>
            <AltitudeMeters>349.399993896484375</AltitudeMeters>
            <DistanceMeters>NAN</DistanceMeters>
          </Trackpoint>
          <Trackpoint>
            <Time>2022-09-23T08:32:35.000Z</Time>
            <Position>
              <LatitudeDegrees>49.4840110838413238525390625</LatitudeDegrees>
              <LongitudeDegrees>20.68229251541197299957275390625</LongitudeDegrees>
            </Position>
            <AltitudeMeters>350.20001220703125</AltitudeMeters>
            <DistanceMeters>NAN</DistanceMeters>
          </Trackpoint>
          <Trackpoint>
            <Time>2022-09-23T08:32:36.000Z</Time>
            <Position>
              <LatitudeDegrees>49.48402642272412776947021484375</LatitudeDegrees>
              <LongitudeDegrees>20.682255215942859649658203125</LongitudeDegrees>
            </Position>
            <AltitudeMeters>350.600006103515625</AltitudeMeters>
            <DistanceMeters>NAN</DistanceMeters>
          </Trackpoint>
          <Trackpoint>
            <Time>2022-09-23T08:32:40.000Z</Time>
            <Position>
              <LatitudeDegrees>49.48408861644566059112548828125</LatitudeDegrees>
              <LongitudeDegrees>20.68209453485906124114990234375</LongitudeDegrees>
            </Position>
            <AltitudeMeters>351.399993896484375</AltitudeMeters>
            <DistanceMeters>NAN</DistanceMeters>
          </Trackpoint>
          <Trackpoint>
            <Time>2022-09-23T08:32:44.000Z</Time>
            <Position>
              <LatitudeDegrees>49.4841537438333034515380859375</LatitudeDegrees>
              <LongitudeDegrees>20.6819432415068149566650390625</LongitudeDegrees>
            </Position>
            <AltitudeMeters>351.399993896484375</AltitudeMeters>
            <DistanceMeters>NAN</DistanceMeters>
          </Trackpoint>
          <Trackpoint>
            <Time>2022-09-23T08:32:49.000Z</Time>
            <Position>
              <LatitudeDegrees>49.48423169553279876708984375</LatitudeDegrees>
              <LongitudeDegrees>20.681765712797641754150390625</LongitudeDegrees>
            </Position>
            <AltitudeMeters>351.600006103515625</AltitudeMeters>
            <DistanceMeters>NAN</DistanceMeters>
          </Trackpoint>
          <Trackpoint>
            <Time>2022-09-23T08:32:53.000Z</Time>
            <Position>
              <LatitudeDegrees>49.4842766225337982177734375</LatitudeDegrees>
              <LongitudeDegrees>20.6816290877759456634521484375</LongitudeDegrees>
            </Position>
            <AltitudeMeters>351.79998779296875</AltitudeMeters>
            <DistanceMeters>NAN</DistanceMeters>
          </Trackpoint>
          <Trackpoint>
            <Time>2022-09-23T08:33:03.000Z</Time>
            <Position>
              <LatitudeDegrees>49.4844340346753597259521484375</LatitudeDegrees>
              <LongitudeDegrees>20.68127159960567951202392578125</LongitudeDegrees>
            </Position>
            <AltitudeMeters>352.20001220703125</AltitudeMeters>
            <DistanceMeters>NAN</DistanceMeters>
          </Trackpoint>
          <Trackpoint>
            <Time>2022-09-23T08:33:09.000Z</Time>
            <Position>
              <LatitudeDegrees>49.48451332747936248779296875</LatitudeDegrees>
              <LongitudeDegrees>20.68108082748949527740478515625</LongitudeDegrees>
            </Position>
            <AltitudeMeters>352.20001220703125</AltitudeMeters>
            <DistanceMeters>NAN</DistanceMeters>
          </Trackpoint>
          <Trackpoint>
            <Time>2022-09-23T08:33:13.000Z</Time>
            <Position>
              <LatitudeDegrees>49.4845674745738506317138671875</LatitudeDegrees>
              <LongitudeDegrees>20.68093682639300823211669921875</LongitudeDegrees>
            </Position>
            <AltitudeMeters>352.20001220703125</AltitudeMeters>
            <DistanceMeters>NAN</DistanceMeters>
          </Trackpoint>
          <Trackpoint>
            <Time>2022-09-23T08:33:21.000Z</Time>
            <Position>
              <LatitudeDegrees>49.48468230664730072021484375</LatitudeDegrees>
              <LongitudeDegrees>20.68067732267081737518310546875</LongitudeDegrees>
            </Position>
            <AltitudeMeters>352.600006103515625</AltitudeMeters>
            <DistanceMeters>NAN</DistanceMeters>
          </Trackpoint>
          <Trackpoint>
            <Time>2022-09-23T08:33:22.000Z</Time>
            <Position>
              <LatitudeDegrees>49.48469546623528003692626953125</LatitudeDegrees>
              <LongitudeDegrees>20.68065024912357330322265625</LongitudeDegrees>
            </Position>
            <AltitudeMeters>352.79998779296875</AltitudeMeters>
            <DistanceMeters>NAN</DistanceMeters>
          </Trackpoint>
          <Trackpoint>
            <Time>2022-09-23T08:33:26.000Z</Time>
            <Position>
              <LatitudeDegrees>49.4847508706152439117431640625</LatitudeDegrees>
              <LongitudeDegrees>20.68053483031690120697021484375</LongitudeDegrees>
            </Position>
            <AltitudeMeters>353</AltitudeMeters>
            <DistanceMeters>NAN</DistanceMeters>
          </Trackpoint>
          <Trackpoint>
            <Time>2022-09-23T08:33:30.000Z</Time>
            <Position>
              <LatitudeDegrees>49.4848159141838550567626953125</LatitudeDegrees>
              <LongitudeDegrees>20.6804499216377735137939453125</LongitudeDegrees>
            </Position>
            <AltitudeMeters>353</AltitudeMeters>
            <DistanceMeters>NAN</DistanceMeters>
          </Trackpoint>
          <Trackpoint>
            <Time>2022-09-23T08:33:33.000Z</Time>
            <Position>
              <LatitudeDegrees>49.48486662469804286956787109375</LatitudeDegrees>
              <LongitudeDegrees>20.680412538349628448486328125</LongitudeDegrees>
            </Position>
            <AltitudeMeters>353</AltitudeMeters>
            <DistanceMeters>NAN</DistanceMeters>
          </Trackpoint>
          <Trackpoint>
            <Time>2022-09-23T08:33:34.000Z</Time>
            <Position>
              <LatitudeDegrees>49.48488992638885974884033203125</LatitudeDegrees>
              <LongitudeDegrees>20.680412538349628448486328125</LongitudeDegrees>
            </Position>
            <AltitudeMeters>353</AltitudeMeters>
            <DistanceMeters>NAN</DistanceMeters>
          </Trackpoint>
          <Trackpoint>
            <Time>2022-09-23T08:33:40.000Z</Time>
            <Position>
              <LatitudeDegrees>49.4850837998092174530029296875</LatitudeDegrees>
              <LongitudeDegrees>20.68046006374061107635498046875</LongitudeDegrees>
            </Position>
            <AltitudeMeters>352.20001220703125</AltitudeMeters>
            <DistanceMeters>NAN</DistanceMeters>
          </Trackpoint>
          <Trackpoint>
            <Time>2022-09-23T08:33:44.000Z</Time>
            <Position>
              <LatitudeDegrees>49.48524163104593753814697265625</LatitudeDegrees>
              <LongitudeDegrees>20.6805126182734966278076171875</LongitudeDegrees>
            </Position>
            <AltitudeMeters>351.600006103515625</AltitudeMeters>
            <DistanceMeters>NAN</DistanceMeters>
          </Trackpoint>
          <Trackpoint>
            <Time>2022-09-23T08:33:47.000Z</Time>
            <Position>
              <LatitudeDegrees>49.4853775016963481903076171875</LatitudeDegrees>
              <LongitudeDegrees>20.68055930547416210174560546875</LongitudeDegrees>
            </Position>
            <AltitudeMeters>351</AltitudeMeters>
            <DistanceMeters>NAN</DistanceMeters>
          </Trackpoint>
          <Trackpoint>
            <Time>2022-09-23T08:33:49.000Z</Time>
            <Position>
              <LatitudeDegrees>49.4854697026312351226806640625</LatitudeDegrees>
              <LongitudeDegrees>20.6805971078574657440185546875</LongitudeDegrees>
            </Position>
            <AltitudeMeters>350.600006103515625</AltitudeMeters>
            <DistanceMeters>NAN</DistanceMeters>
          </Trackpoint>
          <Trackpoint>
            <Time>2022-09-23T08:33:54.000Z</Time>
            <Position>
              <LatitudeDegrees>49.485710598528385162353515625</LatitudeDegrees>
              <LongitudeDegrees>20.68068838678300380706787109375</LongitudeDegrees>
            </Position>
            <AltitudeMeters>349.79998779296875</AltitudeMeters>
            <DistanceMeters>NAN</DistanceMeters>
          </Trackpoint>
          <Trackpoint>
            <Time>2022-09-23T08:33:55.000Z</Time>
            <Position>
              <LatitudeDegrees>49.48574923910200595855712890625</LatitudeDegrees>
              <LongitudeDegrees>20.6807005405426025390625</LongitudeDegrees>
            </Position>
            <AltitudeMeters>349.79998779296875</AltitudeMeters>
            <DistanceMeters>NAN</DistanceMeters>
          </Trackpoint>
          <Trackpoint>
            <Time>2022-09-23T08:34:00.000Z</Time>
            <Position>
              <LatitudeDegrees>49.4859186373651027679443359375</LatitudeDegrees>
              <LongitudeDegrees>20.68073398433625698089599609375</LongitudeDegrees>
            </Position>
            <AltitudeMeters>349.79998779296875</AltitudeMeters>
            <DistanceMeters>NAN</DistanceMeters>
          </Trackpoint>
          <Trackpoint>
            <Time>2022-09-23T08:34:01.000Z</Time>
            <Position>
              <LatitudeDegrees>49.48596331290900707244873046875</LatitudeDegrees>
              <LongitudeDegrees>20.680740773677825927734375</LongitudeDegrees>
            </Position>
            <AltitudeMeters>350</AltitudeMeters>
            <DistanceMeters>NAN</DistanceMeters>
          </Trackpoint>
          <Trackpoint>
            <Time>2022-09-23T08:34:02.000Z</Time>
            <Position>
              <LatitudeDegrees>49.486000947654247283935546875</LatitudeDegrees>
              <LongitudeDegrees>20.6807469762861728668212890625</LongitudeDegrees>
            </Position>
            <AltitudeMeters>350</AltitudeMeters>
            <DistanceMeters>NAN</DistanceMeters>
          </Trackpoint>
          <Trackpoint>
            <Time>2022-09-23T08:34:05.000Z</Time>
            <Position>
              <LatitudeDegrees>49.486098848283290863037109375</LatitudeDegrees>
              <LongitudeDegrees>20.68077941425144672393798828125</LongitudeDegrees>
            </Position>
            <AltitudeMeters>350</AltitudeMeters>
            <DistanceMeters>NAN</DistanceMeters>
          </Trackpoint>
          <Trackpoint>
            <Time>2022-09-23T08:34:06.000Z</Time>
            <Position>
              <LatitudeDegrees>49.4861345551908016204833984375</LatitudeDegrees>
              <LongitudeDegrees>20.68082132376730442047119140625</LongitudeDegrees>
            </Position>
            <AltitudeMeters>350</AltitudeMeters>
            <DistanceMeters>NAN</DistanceMeters>
          </Trackpoint>
          <Trackpoint>
            <Time>2022-09-23T08:34:08.000Z</Time>
            <Position>
              <LatitudeDegrees>49.4861878640949726104736328125</LatitudeDegrees>
              <LongitudeDegrees>20.68087832070887088775634765625</LongitudeDegrees>
            </Position>
            <AltitudeMeters>350</AltitudeMeters>
            <DistanceMeters>NAN</DistanceMeters>
          </Trackpoint>
          <Trackpoint>
            <Time>2022-09-23T08:34:09.000Z</Time>
            <Position>
              <LatitudeDegrees>49.4862009398639202117919921875</LatitudeDegrees>
              <LongitudeDegrees>20.6808763928711414337158203125</LongitudeDegrees>
            </Position>
            <AltitudeMeters>350</AltitudeMeters>
            <DistanceMeters>NAN</DistanceMeters>
          </Trackpoint>
          <Trackpoint>
            <Time>2022-09-23T08:34:11.000Z</Time>
            <Position>
              <LatitudeDegrees>49.48624125681817531585693359375</LatitudeDegrees>
              <LongitudeDegrees>20.6808559410274028778076171875</LongitudeDegrees>
            </Position>
            <AltitudeMeters>350</AltitudeMeters>
            <DistanceMeters>NAN</DistanceMeters>
          </Trackpoint>
          <Trackpoint>
            <Time>2022-09-23T08:34:13.000Z</Time>
            <Position>
              <LatitudeDegrees>49.48629724793136119842529296875</LatitudeDegrees>
              <LongitudeDegrees>20.6808592937886714935302734375</LongitudeDegrees>
            </Position>
            <AltitudeMeters>350</AltitudeMeters>
            <DistanceMeters>NAN</DistanceMeters>
          </Trackpoint>
          <Trackpoint>
            <Time>2022-09-23T08:34:14.000Z</Time>
            <Position>
              <LatitudeDegrees>49.48631979525089263916015625</LatitudeDegrees>
              <LongitudeDegrees>20.68086792714893817901611328125</LongitudeDegrees>
            </Position>
            <AltitudeMeters>350</AltitudeMeters>
            <DistanceMeters>NAN</DistanceMeters>
          </Trackpoint>
          <Trackpoint>
            <Time>2022-09-23T08:34:24.000Z</Time>
            <Position>
              <LatitudeDegrees>49.4866208732128143310546875</LatitudeDegrees>
              <LongitudeDegrees>20.68095627240836620330810546875</LongitudeDegrees>
            </Position>
            <AltitudeMeters>349.600006103515625</AltitudeMeters>
            <DistanceMeters>NAN</DistanceMeters>
          </Trackpoint>
          <Trackpoint>
            <Time>2022-09-23T08:34:32.000Z</Time>
            <Position>
              <LatitudeDegrees>49.486825726926326751708984375</LatitudeDegrees>
              <LongitudeDegrees>20.6810292787849903106689453125</LongitudeDegrees>
            </Position>
            <AltitudeMeters>349.79998779296875</AltitudeMeters>
            <DistanceMeters>NAN</DistanceMeters>
          </Trackpoint>
          <Trackpoint>
            <Time>2022-09-23T08:34:33.000Z</Time>
            <Position>
              <LatitudeDegrees>49.486844837665557861328125</LatitudeDegrees>
              <LongitudeDegrees>20.68103472702205181121826171875</LongitudeDegrees>
            </Position>
            <AltitudeMeters>349.79998779296875</AltitudeMeters>
            <DistanceMeters>NAN</DistanceMeters>
          </Trackpoint>
          <Trackpoint>
            <Time>2022-09-23T08:34:40.000Z</Time>
            <Position>
              <LatitudeDegrees>49.48702680878341197967529296875</LatitudeDegrees>
              <LongitudeDegrees>20.6810612976551055908203125</LongitudeDegrees>
            </Position>
            <AltitudeMeters>349.600006103515625</AltitudeMeters>
            <DistanceMeters>NAN</DistanceMeters>
          </Trackpoint>
          <Trackpoint>
            <Time>2022-09-23T08:34:47.000Z</Time>
            <Position>
              <LatitudeDegrees>49.48726418428122997283935546875</LatitudeDegrees>
              <LongitudeDegrees>20.68115626461803913116455078125</LongitudeDegrees>
            </Position>
            <AltitudeMeters>349.600006103515625</AltitudeMeters>
            <DistanceMeters>NAN</DistanceMeters>
          </Trackpoint>
          <Trackpoint>
            <Time>2022-09-23T08:34:54.000Z</Time>
            <Position>
              <LatitudeDegrees>49.48749669827520847320556640625</LatitudeDegrees>
              <LongitudeDegrees>20.68122197873890399932861328125</LongitudeDegrees>
            </Position>
            <AltitudeMeters>349.20001220703125</AltitudeMeters>
            <DistanceMeters>NAN</DistanceMeters>
          </Trackpoint>
          <Trackpoint>
            <Time>2022-09-23T08:35:00.000Z</Time>
            <Position>
              <LatitudeDegrees>49.48764120228588581085205078125</LatitudeDegrees>
              <LongitudeDegrees>20.6812743656337261199951171875</LongitudeDegrees>
            </Position>
            <AltitudeMeters>349.399993896484375</AltitudeMeters>
            <DistanceMeters>NAN</DistanceMeters>
          </Trackpoint>
          <Trackpoint>
            <Time>2022-09-23T08:35:06.000Z</Time>
            <Position>
              <LatitudeDegrees>49.48765997774899005889892578125</LatitudeDegrees>
              <LongitudeDegrees>20.681278891861438751220703125</LongitudeDegrees>
            </Position>
            <AltitudeMeters>349.399993896484375</AltitudeMeters>
            <DistanceMeters>NAN</DistanceMeters>
          </Trackpoint>
          <Trackpoint>
            <Time>2022-09-23T08:35:10.000Z</Time>
            <Position>
              <LatitudeDegrees>49.48772837407886981964111328125</LatitudeDegrees>
              <LongitudeDegrees>20.68130764178931713104248046875</LongitudeDegrees>
            </Position>
            <AltitudeMeters>349.399993896484375</AltitudeMeters>
            <DistanceMeters>NAN</DistanceMeters>
          </Trackpoint>
          <Trackpoint>
            <Time>2022-09-23T08:35:15.000Z</Time>
            <Position>
              <LatitudeDegrees>49.48784555308520793914794921875</LatitudeDegrees>
              <LongitudeDegrees>20.68134502507746219635009765625</LongitudeDegrees>
            </Position>
            <AltitudeMeters>349.20001220703125</AltitudeMeters>
            <DistanceMeters>NAN</DistanceMeters>
          </Trackpoint>
          <Trackpoint>
            <Time>2022-09-23T08:35:16.000Z</Time>
            <Position>
              <LatitudeDegrees>49.48787103407084941864013671875</LatitudeDegrees>
              <LongitudeDegrees>20.681347958743572235107421875</LongitudeDegrees>
            </Position>
            <AltitudeMeters>349.20001220703125</AltitudeMeters>
            <DistanceMeters>NAN</DistanceMeters>
          </Trackpoint>
          <Trackpoint>
            <Time>2022-09-23T08:35:25.000Z</Time>
            <Position>
              <LatitudeDegrees>49.48809198103845119476318359375</LatitudeDegrees>
              <LongitudeDegrees>20.68140394985675811767578125</LongitudeDegrees>
            </Position>
            <AltitudeMeters>348.79998779296875</AltitudeMeters>
            <DistanceMeters>NAN</DistanceMeters>
          </Trackpoint>
          <Trackpoint>
            <Time>2022-09-23T08:35:33.000Z</Time>
            <Position>
              <LatitudeDegrees>49.4882905483245849609375</LatitudeDegrees>
              <LongitudeDegrees>20.681472681462764739990234375</LongitudeDegrees>
            </Position>
            <AltitudeMeters>348.79998779296875</AltitudeMeters>
            <DistanceMeters>NAN</DistanceMeters>
          </Trackpoint>
          <Trackpoint>
            <Time>2022-09-23T08:35:40.000Z</Time>
            <Position>
              <LatitudeDegrees>49.48850973509252071380615234375</LatitudeDegrees>
              <LongitudeDegrees>20.68153646774590015411376953125</LongitudeDegrees>
            </Position>
            <AltitudeMeters>348.79998779296875</AltitudeMeters>
            <DistanceMeters>NAN</DistanceMeters>
          </Trackpoint>
          <Trackpoint>
            <Time>2022-09-23T08:35:47.000Z</Time>
            <Position>
              <LatitudeDegrees>49.48873520828783512115478515625</LatitudeDegrees>
              <LongitudeDegrees>20.681564547121524810791015625</LongitudeDegrees>
            </Position>
            <AltitudeMeters>348.600006103515625</AltitudeMeters>
            <DistanceMeters>NAN</DistanceMeters>
          </Trackpoint>
          <Trackpoint>
            <Time>2022-09-23T08:35:49.000Z</Time>
            <Position>
              <LatitudeDegrees>49.4887875951826572418212890625</LatitudeDegrees>
              <LongitudeDegrees>20.6815724261105060577392578125</LongitudeDegrees>
            </Position>
            <AltitudeMeters>348.600006103515625</AltitudeMeters>
            <DistanceMeters>NAN</DistanceMeters>
          </Trackpoint>
          <Trackpoint>
            <Time>2022-09-23T08:35:54.000Z</Time>
            <Position>
              <LatitudeDegrees>49.48890200816094875335693359375</LatitudeDegrees>
              <LongitudeDegrees>20.681609474122524261474609375</LongitudeDegrees>
            </Position>
            <AltitudeMeters>348.600006103515625</AltitudeMeters>
            <DistanceMeters>NAN</DistanceMeters>
          </Trackpoint>
          <Trackpoint>
            <Time>2022-09-23T08:36:01.000Z</Time>
            <Position>
              <LatitudeDegrees>49.48904885910451412200927734375</LatitudeDegrees>
              <LongitudeDegrees>20.68166001699864864349365234375</LongitudeDegrees>
            </Position>
            <AltitudeMeters>348.79998779296875</AltitudeMeters>
            <DistanceMeters>NAN</DistanceMeters>
          </Trackpoint>
          <Trackpoint>
            <Time>2022-09-23T08:36:05.000Z</Time>
            <Position>
              <LatitudeDegrees>49.48912630788981914520263671875</LatitudeDegrees>
              <LongitudeDegrees>20.6816827319562435150146484375</LongitudeDegrees>
            </Position>
            <AltitudeMeters>348.600006103515625</AltitudeMeters>
            <DistanceMeters>NAN</DistanceMeters>
          </Trackpoint>
          <Trackpoint>
            <Time>2022-09-23T08:36:07.000Z</Time>
            <Position>
              <LatitudeDegrees>49.48916427791118621826171875</LatitudeDegrees>
              <LongitudeDegrees>20.68168826401233673095703125</LongitudeDegrees>
            </Position>
            <AltitudeMeters>348.399993896484375</AltitudeMeters>
            <DistanceMeters>NAN</DistanceMeters>
          </Trackpoint>
          <Trackpoint>
            <Time>2022-09-23T08:36:11.000Z</Time>
            <Position>
              <LatitudeDegrees>49.48924482800066471099853515625</LatitudeDegrees>
              <LongitudeDegrees>20.68172086961567401885986328125</LongitudeDegrees>
            </Position>
            <AltitudeMeters>348.20001220703125</AltitudeMeters>
            <DistanceMeters>NAN</DistanceMeters>
          </Trackpoint>
          <Trackpoint>
            <Time>2022-09-23T08:36:20.000Z</Time>
            <Position>
              <LatitudeDegrees>49.48943425901234149932861328125</LatitudeDegrees>
              <LongitudeDegrees>20.681782476603984832763671875</LongitudeDegrees>
            </Position>
            <AltitudeMeters>348.20001220703125</AltitudeMeters>
            <DistanceMeters>NAN</DistanceMeters>
          </Trackpoint>
          <Trackpoint>
            <Time>2022-09-23T08:36:23.000Z</Time>
            <Position>
              <LatitudeDegrees>49.48949729092419147491455078125</LatitudeDegrees>
              <LongitudeDegrees>20.68180569447576999664306640625</LongitudeDegrees>
            </Position>
            <AltitudeMeters>348.20001220703125</AltitudeMeters>
            <DistanceMeters>NAN</DistanceMeters>
          </Trackpoint>
          <Trackpoint>
            <Time>2022-09-23T08:36:24.000Z</Time>
            <Position>
              <LatitudeDegrees>49.48949963785707950592041015625</LatitudeDegrees>
              <LongitudeDegrees>20.681820698082447052001953125</LongitudeDegrees>
            </Position>
            <AltitudeMeters>348</AltitudeMeters>
            <DistanceMeters>NAN</DistanceMeters>
          </Trackpoint>
          <Trackpoint>
            <Time>2022-09-23T08:36:28.000Z</Time>
            <Position>
              <LatitudeDegrees>49.48951028287410736083984375</LatitudeDegrees>
              <LongitudeDegrees>20.68185984157025814056396484375</LongitudeDegrees>
            </Position>
            <AltitudeMeters>348.20001220703125</AltitudeMeters>
            <DistanceMeters>NAN</DistanceMeters>
          </Trackpoint>
          <Trackpoint>
            <Time>2022-09-23T08:36:34.000Z</Time>
            <Position>
              <LatitudeDegrees>49.48951028287410736083984375</LatitudeDegrees>
              <LongitudeDegrees>20.68185984157025814056396484375</LongitudeDegrees>
            </Position>
            <AltitudeMeters>348.20001220703125</AltitudeMeters>
            <DistanceMeters>NAN</DistanceMeters>
          </Trackpoint>
          <Trackpoint>
            <Time>2022-09-23T08:36:36.000Z</Time>
            <Position>
              <LatitudeDegrees>49.48951028287410736083984375</LatitudeDegrees>
              <LongitudeDegrees>20.68185984157025814056396484375</LongitudeDegrees>
            </Position>
            <AltitudeMeters>348.20001220703125</AltitudeMeters>
            <DistanceMeters>NAN</DistanceMeters>
          </Trackpoint>
          <Trackpoint>
            <Time>2022-09-23T08:36:42.000Z</Time>
            <Position>
              <LatitudeDegrees>49.48951028287410736083984375</LatitudeDegrees>
              <LongitudeDegrees>20.68185984157025814056396484375</LongitudeDegrees>
            </Position>
            <AltitudeMeters>348.20001220703125</AltitudeMeters>
            <DistanceMeters>NAN</DistanceMeters>
          </Trackpoint>
          <Trackpoint>
            <Time>2022-09-23T08:36:43.000Z</Time>
            <Position>
              <LatitudeDegrees>49.48951028287410736083984375</LatitudeDegrees>
              <LongitudeDegrees>20.68185984157025814056396484375</LongitudeDegrees>
            </Position>
            <AltitudeMeters>348.20001220703125</AltitudeMeters>
            <DistanceMeters>NAN</DistanceMeters>
          </Trackpoint>
          <Trackpoint>
            <Time>2022-09-23T08:36:47.000Z</Time>
            <Position>
              <LatitudeDegrees>49.48951028287410736083984375</LatitudeDegrees>
              <LongitudeDegrees>20.68185984157025814056396484375</LongitudeDegrees>
            </Position>
            <AltitudeMeters>348.20001220703125</AltitudeMeters>
            <DistanceMeters>NAN</DistanceMeters>
          </Trackpoint>
          <Trackpoint>
            <Time>2022-09-23T08:36:51.000Z</Time>
            <Position>
              <LatitudeDegrees>49.48951028287410736083984375</LatitudeDegrees>
              <LongitudeDegrees>20.68185984157025814056396484375</LongitudeDegrees>
            </Position>
            <AltitudeMeters>348.20001220703125</AltitudeMeters>
            <DistanceMeters>NAN</DistanceMeters>
          </Trackpoint>
          <Trackpoint>
            <Time>2022-09-23T08:36:59.000Z</Time>
            <Position>
              <LatitudeDegrees>49.48951028287410736083984375</LatitudeDegrees>
              <LongitudeDegrees>20.68185984157025814056396484375</LongitudeDegrees>
            </Position>
            <AltitudeMeters>348.20001220703125</AltitudeMeters>
            <DistanceMeters>NAN</DistanceMeters>
          </Trackpoint>
          <Trackpoint>
            <Time>2022-09-23T08:37:12.000Z</Time>
            <Position>
              <LatitudeDegrees>49.48951154015958309173583984375</LatitudeDegrees>
              <LongitudeDegrees>20.6818597577512264251708984375</LongitudeDegrees>
            </Position>
            <AltitudeMeters>348.20001220703125</AltitudeMeters>
            <DistanceMeters>NAN</DistanceMeters>
          </Trackpoint>
          <Trackpoint>
            <Time>2022-09-23T08:37:15.000Z</Time>
            <Position>
              <LatitudeDegrees>49.48951154015958309173583984375</LatitudeDegrees>
              <LongitudeDegrees>20.6818597577512264251708984375</LongitudeDegrees>
            </Position>
            <AltitudeMeters>348.20001220703125</AltitudeMeters>
            <DistanceMeters>NAN</DistanceMeters>
          </Trackpoint>
          <Trackpoint>
            <Time>2022-09-23T08:37:20.000Z</Time>
            <Position>
              <LatitudeDegrees>49.48951154015958309173583984375</LatitudeDegrees>
              <LongitudeDegrees>20.6818597577512264251708984375</LongitudeDegrees>
            </Position>
            <AltitudeMeters>348.20001220703125</AltitudeMeters>
            <DistanceMeters>NAN</DistanceMeters>
          </Trackpoint>
          <Trackpoint>
            <Time>2022-09-23T08:37:28.000Z</Time>
            <Position>
              <LatitudeDegrees>49.48952260427176952362060546875</LatitudeDegrees>
              <LongitudeDegrees>20.68185917101800441741943359375</LongitudeDegrees>
            </Position>
            <AltitudeMeters>348.20001220703125</AltitudeMeters>
            <DistanceMeters>NAN</DistanceMeters>
          </Trackpoint>
          <Trackpoint>
            <Time>2022-09-23T08:37:32.000Z</Time>
            <Position>
              <LatitudeDegrees>49.48952260427176952362060546875</LatitudeDegrees>
              <LongitudeDegrees>20.68185917101800441741943359375</LongitudeDegrees>
            </Position>
            <AltitudeMeters>348.20001220703125</AltitudeMeters>
            <DistanceMeters>NAN</DistanceMeters>
          </Trackpoint>
          <Trackpoint>
            <Time>2022-09-23T08:37:38.000Z</Time>
            <Position>
              <LatitudeDegrees>49.4895225204527378082275390625</LatitudeDegrees>
              <LongitudeDegrees>20.681856907904148101806640625</LongitudeDegrees>
            </Position>
            <AltitudeMeters>348.20001220703125</AltitudeMeters>
            <DistanceMeters>NAN</DistanceMeters>
          </Trackpoint>
          <Trackpoint>
            <Time>2022-09-23T08:37:44.000Z</Time>
            <Position>
              <LatitudeDegrees>49.48952293954789638519287109375</LatitudeDegrees>
              <LongitudeDegrees>20.681856907904148101806640625</LongitudeDegrees>
            </Position>
            <AltitudeMeters>348.20001220703125</AltitudeMeters>
            <DistanceMeters>NAN</DistanceMeters>
          </Trackpoint>
          <Trackpoint>
            <Time>2022-09-23T08:37:46.000Z</Time>
            <Position>
              <LatitudeDegrees>49.48952369391918182373046875</LatitudeDegrees>
              <LongitudeDegrees>20.681856907904148101806640625</LongitudeDegrees>
            </Position>
            <AltitudeMeters>348.20001220703125</AltitudeMeters>
            <DistanceMeters>NAN</DistanceMeters>
          </Trackpoint>
          <Trackpoint>
            <Time>2022-09-23T08:38:11.000Z</Time>
            <Position>
              <LatitudeDegrees>49.48952629230916500091552734375</LatitudeDegrees>
              <LongitudeDegrees>20.68182262592017650604248046875</LongitudeDegrees>
            </Position>
            <AltitudeMeters>348.20001220703125</AltitudeMeters>
            <DistanceMeters>NAN</DistanceMeters>
          </Trackpoint>
          <Trackpoint>
            <Time>2022-09-23T08:38:16.000Z</Time>
            <Position>
              <LatitudeDegrees>49.48952629230916500091552734375</LatitudeDegrees>
              <LongitudeDegrees>20.68182262592017650604248046875</LongitudeDegrees>
            </Position>
            <AltitudeMeters>348.20001220703125</AltitudeMeters>
            <DistanceMeters>NAN</DistanceMeters>
          </Trackpoint>
          <Trackpoint>
            <Time>2022-09-23T08:38:19.000Z</Time>
            <Position>
              <LatitudeDegrees>49.48952914215624332427978515625</LatitudeDegrees>
              <LongitudeDegrees>20.68182229064404964447021484375</LongitudeDegrees>
            </Position>
            <AltitudeMeters>348.20001220703125</AltitudeMeters>
            <DistanceMeters>NAN</DistanceMeters>
          </Trackpoint>
          <Trackpoint>
            <Time>2022-09-23T08:38:22.000Z</Time>
            <Position>
              <LatitudeDegrees>49.48959887959063053131103515625</LatitudeDegrees>
              <LongitudeDegrees>20.68178691901266574859619140625</LongitudeDegrees>
            </Position>
            <AltitudeMeters>348</AltitudeMeters>
            <DistanceMeters>NAN</DistanceMeters>
          </Trackpoint>
          <Trackpoint>
            <Time>2022-09-23T08:38:29.000Z</Time>
            <Position>
              <LatitudeDegrees>49.48975880630314350128173828125</LatitudeDegrees>
              <LongitudeDegrees>20.68183134309947490692138671875</LongitudeDegrees>
            </Position>
            <AltitudeMeters>347.600006103515625</AltitudeMeters>
            <DistanceMeters>NAN</DistanceMeters>
          </Trackpoint>
          <Trackpoint>
            <Time>2022-09-23T08:38:33.000Z</Time>
            <Position>
              <LatitudeDegrees>49.48982569389045238494873046875</LatitudeDegrees>
              <LongitudeDegrees>20.68184517323970794677734375</LongitudeDegrees>
            </Position>
            <AltitudeMeters>347.600006103515625</AltitudeMeters>
            <DistanceMeters>NAN</DistanceMeters>
          </Trackpoint>
          <Trackpoint>
            <Time>2022-09-23T08:38:35.000Z</Time>
            <Position>
              <LatitudeDegrees>49.48986123315989971160888671875</LatitudeDegrees>
              <LongitudeDegrees>20.681878030300140380859375</LongitudeDegrees>
            </Position>
            <AltitudeMeters>347.399993896484375</AltitudeMeters>
            <DistanceMeters>NAN</DistanceMeters>
          </Trackpoint>
          <Trackpoint>
            <Time>2022-09-23T08:38:36.000Z</Time>
            <Position>
              <LatitudeDegrees>49.48988118208944797515869140625</LatitudeDegrees>
              <LongitudeDegrees>20.681885071098804473876953125</LongitudeDegrees>
            </Position>
            <AltitudeMeters>347.399993896484375</AltitudeMeters>
            <DistanceMeters>NAN</DistanceMeters>
          </Trackpoint>
          <Trackpoint>
            <Time>2022-09-23T08:38:41.000Z</Time>
            <Position>
              <LatitudeDegrees>49.49004949070513248443603515625</LatitudeDegrees>
              <LongitudeDegrees>20.68194349296391010284423828125</LongitudeDegrees>
            </Position>
            <AltitudeMeters>347.20001220703125</AltitudeMeters>
            <DistanceMeters>NAN</DistanceMeters>
          </Trackpoint>
          <Trackpoint>
            <Time>2022-09-23T08:38:51.000Z</Time>
            <Position>
              <LatitudeDegrees>49.49037789367139339447021484375</LatitudeDegrees>
              <LongitudeDegrees>20.68203116767108440399169921875</LongitudeDegrees>
            </Position>
            <AltitudeMeters>347.399993896484375</AltitudeMeters>
            <DistanceMeters>NAN</DistanceMeters>
          </Trackpoint>
          <Trackpoint>
            <Time>2022-09-23T08:38:59.000Z</Time>
            <Position>
              <LatitudeDegrees>49.49065835215151309967041015625</LatitudeDegrees>
              <LongitudeDegrees>20.68204675801098346710205078125</LongitudeDegrees>
            </Position>
            <AltitudeMeters>346.600006103515625</AltitudeMeters>
            <DistanceMeters>NAN</DistanceMeters>
          </Trackpoint>
          <Trackpoint>
            <Time>2022-09-23T08:39:07.000Z</Time>
            <Position>
              <LatitudeDegrees>49.49095959775149822235107421875</LatitudeDegrees>
              <LongitudeDegrees>20.68200786598026752471923828125</LongitudeDegrees>
            </Position>
            <AltitudeMeters>346.399993896484375</AltitudeMeters>
            <DistanceMeters>NAN</DistanceMeters>
          </Trackpoint>
          <Trackpoint>
            <Time>2022-09-23T08:39:08.000Z</Time>
            <Position>
              <LatitudeDegrees>49.49100117199122905731201171875</LatitudeDegrees>
              <LongitudeDegrees>20.68200208246707916259765625</LongitudeDegrees>
            </Position>
            <AltitudeMeters>346.399993896484375</AltitudeMeters>
            <DistanceMeters>NAN</DistanceMeters>
          </Trackpoint>
          <Trackpoint>
            <Time>2022-09-23T08:39:11.000Z</Time>
            <Position>
              <LatitudeDegrees>49.49113628827035427093505859375</LatitudeDegrees>
              <LongitudeDegrees>20.68200803361833095550537109375</LongitudeDegrees>
            </Position>
            <AltitudeMeters>346.20001220703125</AltitudeMeters>
            <DistanceMeters>NAN</DistanceMeters>
          </Trackpoint>
          <Trackpoint>
            <Time>2022-09-23T08:39:12.000Z</Time>
            <Position>
              <LatitudeDegrees>49.4911683909595012664794921875</LatitudeDegrees>
              <LongitudeDegrees>20.68201306276023387908935546875</LongitudeDegrees>
            </Position>
            <AltitudeMeters>346.20001220703125</AltitudeMeters>
            <DistanceMeters>NAN</DistanceMeters>
          </Trackpoint>
          <Trackpoint>
            <Time>2022-09-23T08:39:15.000Z</Time>
            <Position>
              <LatitudeDegrees>49.4912921078503131866455078125</LatitudeDegrees>
              <LongitudeDegrees>20.6820652820169925689697265625</LongitudeDegrees>
            </Position>
            <AltitudeMeters>346.20001220703125</AltitudeMeters>
            <DistanceMeters>NAN</DistanceMeters>
          </Trackpoint>
          <Trackpoint>
            <Time>2022-09-23T08:39:19.000Z</Time>
            <Position>
              <LatitudeDegrees>49.49144423939287662506103515625</LatitudeDegrees>
              <LongitudeDegrees>20.6820944510400295257568359375</LongitudeDegrees>
            </Position>
            <AltitudeMeters>346</AltitudeMeters>
            <DistanceMeters>NAN</DistanceMeters>
          </Trackpoint>
          <Trackpoint>
            <Time>2022-09-23T08:39:22.000Z</Time>
            <Position>
              <LatitudeDegrees>49.49156544171273708343505859375</LatitudeDegrees>
              <LongitudeDegrees>20.682092271745204925537109375</LongitudeDegrees>
            </Position>
            <AltitudeMeters>346</AltitudeMeters>
            <DistanceMeters>NAN</DistanceMeters>
          </Trackpoint>
          <Trackpoint>
            <Time>2022-09-23T08:39:27.000Z</Time>
            <Position>
              <LatitudeDegrees>49.49179912917315959930419921875</LatitudeDegrees>
              <LongitudeDegrees>20.68205664865672588348388671875</LongitudeDegrees>
            </Position>
            <AltitudeMeters>345.79998779296875</AltitudeMeters>
            <DistanceMeters>NAN</DistanceMeters>
          </Trackpoint>
          <Trackpoint>
            <Time>2022-09-23T08:39:29.000Z</Time>
            <Position>
              <LatitudeDegrees>49.49188009835779666900634765625</LatitudeDegrees>
              <LongitudeDegrees>20.68205011077225208282470703125</LongitudeDegrees>
            </Position>
            <AltitudeMeters>345.600006103515625</AltitudeMeters>
            <DistanceMeters>NAN</DistanceMeters>
          </Trackpoint>
          <Trackpoint>
            <Time>2022-09-23T08:39:36.000Z</Time>
            <Position>
              <LatitudeDegrees>49.49219827540218830108642578125</LatitudeDegrees>
              <LongitudeDegrees>20.68204541690647602081298828125</LongitudeDegrees>
            </Position>
            <AltitudeMeters>345.399993896484375</AltitudeMeters>
            <DistanceMeters>NAN</DistanceMeters>
          </Trackpoint>
          <Trackpoint>
            <Time>2022-09-23T08:39:43.000Z</Time>
            <Position>
              <LatitudeDegrees>49.4924900494515895843505859375</LatitudeDegrees>
              <LongitudeDegrees>20.68204390816390514373779296875</LongitudeDegrees>
            </Position>
            <AltitudeMeters>345.399993896484375</AltitudeMeters>
            <DistanceMeters>NAN</DistanceMeters>
          </Trackpoint>
          <Trackpoint>
            <Time>2022-09-23T08:39:46.000Z</Time>
            <Position>
              <LatitudeDegrees>49.492615275084972381591796875</LatitudeDegrees>
              <LongitudeDegrees>20.6820481829345226287841796875</LongitudeDegrees>
            </Position>
            <AltitudeMeters>345.399993896484375</AltitudeMeters>
            <DistanceMeters>NAN</DistanceMeters>
          </Trackpoint>
          <Trackpoint>
            <Time>2022-09-23T08:39:53.000Z</Time>
            <Position>
              <LatitudeDegrees>49.49288525618612766265869140625</LatitudeDegrees>
              <LongitudeDegrees>20.68204625509679317474365234375</LongitudeDegrees>
            </Position>
            <AltitudeMeters>345</AltitudeMeters>
            <DistanceMeters>NAN</DistanceMeters>
          </Trackpoint>
          <Trackpoint>
            <Time>2022-09-23T08:39:57.000Z</Time>
            <Position>
              <LatitudeDegrees>49.4930486194789409637451171875</LatitudeDegrees>
              <LongitudeDegrees>20.6820558942854404449462890625</LongitudeDegrees>
            </Position>
            <AltitudeMeters>344.79998779296875</AltitudeMeters>
            <DistanceMeters>NAN</DistanceMeters>
          </Trackpoint>
          <Trackpoint>
            <Time>2022-09-23T08:39:59.000Z</Time>
            <Position>
              <LatitudeDegrees>49.4931331090629100799560546875</LatitudeDegrees>
              <LongitudeDegrees>20.68205430172383785247802734375</LongitudeDegrees>
            </Position>
            <AltitudeMeters>344.79998779296875</AltitudeMeters>
            <DistanceMeters>NAN</DistanceMeters>
          </Trackpoint>
          <Trackpoint>
            <Time>2022-09-23T08:40:00.000Z</Time>
            <Position>
              <LatitudeDegrees>49.49316822923719882965087890625</LatitudeDegrees>
              <LongitudeDegrees>20.682054720818996429443359375</LongitudeDegrees>
            </Position>
            <AltitudeMeters>344.79998779296875</AltitudeMeters>
            <DistanceMeters>NAN</DistanceMeters>
          </Trackpoint>
          <Trackpoint>
            <Time>2022-09-23T08:40:11.000Z</Time>
            <Position>
              <LatitudeDegrees>49.4936014898121356964111328125</LatitudeDegrees>
              <LongitudeDegrees>20.68205748684704303741455078125</LongitudeDegrees>
            </Position>
            <AltitudeMeters>344.399993896484375</AltitudeMeters>
            <DistanceMeters>NAN</DistanceMeters>
          </Trackpoint>
          <Trackpoint>
            <Time>2022-09-23T08:40:12.000Z</Time>
            <Position>
              <LatitudeDegrees>49.493633843958377838134765625</LatitudeDegrees>
              <LongitudeDegrees>20.682059414684772491455078125</LongitudeDegrees>
            </Position>
            <AltitudeMeters>344.399993896484375</AltitudeMeters>
            <DistanceMeters>NAN</DistanceMeters>
          </Trackpoint>
          <Trackpoint>
            <Time>2022-09-23T08:40:25.000Z</Time>
            <Position>
              <LatitudeDegrees>49.49410490691661834716796875</LatitudeDegrees>
              <LongitudeDegrees>20.682051368057727813720703125</LongitudeDegrees>
            </Position>
            <AltitudeMeters>344.399993896484375</AltitudeMeters>
            <DistanceMeters>NAN</DistanceMeters>
          </Trackpoint>
          <Trackpoint>
            <Time>2022-09-23T08:40:34.000Z</Time>
            <Position>
              <LatitudeDegrees>49.4943813420832157135009765625</LatitudeDegrees>
              <LongitudeDegrees>20.68201809190213680267333984375</LongitudeDegrees>
            </Position>
            <AltitudeMeters>344.399993896484375</AltitudeMeters>
            <DistanceMeters>NAN</DistanceMeters>
          </Trackpoint>
          <Trackpoint>
            <Time>2022-09-23T08:40:41.000Z</Time>
            <Position>
              <LatitudeDegrees>49.49463170953094959259033203125</LatitudeDegrees>
              <LongitudeDegrees>20.6819301657378673553466796875</LongitudeDegrees>
            </Position>
            <AltitudeMeters>344.20001220703125</AltitudeMeters>
            <DistanceMeters>NAN</DistanceMeters>
          </Trackpoint>
          <Trackpoint>
            <Time>2022-09-23T08:40:48.000Z</Time>
            <Position>
              <LatitudeDegrees>49.494904540479183197021484375</LatitudeDegrees>
              <LongitudeDegrees>20.68179287016391754150390625</LongitudeDegrees>
            </Position>
            <AltitudeMeters>344.20001220703125</AltitudeMeters>
            <DistanceMeters>NAN</DistanceMeters>
          </Trackpoint>
          <Trackpoint>
            <Time>2022-09-23T08:40:50.000Z</Time>
            <Position>
              <LatitudeDegrees>49.49498777277767658233642578125</LatitudeDegrees>
              <LongitudeDegrees>20.68174668587744235992431640625</LongitudeDegrees>
            </Position>
            <AltitudeMeters>344.20001220703125</AltitudeMeters>
            <DistanceMeters>NAN</DistanceMeters>
          </Trackpoint>
          <Trackpoint>
            <Time>2022-09-23T08:40:53.000Z</Time>
            <Position>
              <LatitudeDegrees>49.4951102323830127716064453125</LatitudeDegrees>
              <LongitudeDegrees>20.68169622682034969329833984375</LongitudeDegrees>
            </Position>
            <AltitudeMeters>344.20001220703125</AltitudeMeters>
            <DistanceMeters>NAN</DistanceMeters>
          </Trackpoint>
          <Trackpoint>
            <Time>2022-09-23T08:40:54.000Z</Time>
            <Position>
              <LatitudeDegrees>49.49515306390821933746337890625</LatitudeDegrees>
              <LongitudeDegrees>20.68166680634021759033203125</LongitudeDegrees>
            </Position>
            <AltitudeMeters>344</AltitudeMeters>
            <DistanceMeters>NAN</DistanceMeters>
          </Trackpoint>
          <Trackpoint>
            <Time>2022-09-23T08:40:58.000Z</Time>
            <Position>
              <LatitudeDegrees>49.4953368790447711944580078125</LatitudeDegrees>
              <LongitudeDegrees>20.6815191172063350677490234375</LongitudeDegrees>
            </Position>
            <AltitudeMeters>343.20001220703125</AltitudeMeters>
            <DistanceMeters>NAN</DistanceMeters>
          </Trackpoint>
          <Trackpoint>
            <Time>2022-09-23T08:41:02.000Z</Time>
            <Position>
              <LatitudeDegrees>49.49551633559167385101318359375</LatitudeDegrees>
              <LongitudeDegrees>20.68134888075292110443115234375</LongitudeDegrees>
            </Position>
            <AltitudeMeters>342.79998779296875</AltitudeMeters>
            <DistanceMeters>NAN</DistanceMeters>
          </Trackpoint>
          <Trackpoint>
            <Time>2022-09-23T08:41:12.000Z</Time>
            <Position>
              <LatitudeDegrees>49.4959132187068462371826171875</LatitudeDegrees>
              <LongitudeDegrees>20.680976808071136474609375</LongitudeDegrees>
            </Position>
            <AltitudeMeters>342.600006103515625</AltitudeMeters>
            <DistanceMeters>NAN</DistanceMeters>
          </Trackpoint>
          <Trackpoint>
            <Time>2022-09-23T08:41:15.000Z</Time>
            <Position>
              <LatitudeDegrees>49.496035091578960418701171875</LatitudeDegrees>
              <LongitudeDegrees>20.6808628141880035400390625</LongitudeDegrees>
            </Position>
            <AltitudeMeters>342.79998779296875</AltitudeMeters>
            <DistanceMeters>NAN</DistanceMeters>
          </Trackpoint>
          <Trackpoint>
            <Time>2022-09-23T08:41:19.000Z</Time>
            <Position>
              <LatitudeDegrees>49.4961804337799549102783203125</LatitudeDegrees>
              <LongitudeDegrees>20.68071487359702587127685546875</LongitudeDegrees>
            </Position>
            <AltitudeMeters>342.79998779296875</AltitudeMeters>
            <DistanceMeters>NAN</DistanceMeters>
          </Trackpoint>
          <Trackpoint>
            <Time>2022-09-23T08:41:25.000Z</Time>
            <Position>
              <LatitudeDegrees>49.49638855643570423126220703125</LatitudeDegrees>
              <LongitudeDegrees>20.680469535291194915771484375</LongitudeDegrees>
            </Position>
            <AltitudeMeters>342.399993896484375</AltitudeMeters>
            <DistanceMeters>NAN</DistanceMeters>
          </Trackpoint>
          <Trackpoint>
            <Time>2022-09-23T08:41:26.000Z</Time>
            <Position>
              <LatitudeDegrees>49.4964154623448848724365234375</LatitudeDegrees>
              <LongitudeDegrees>20.6804184056818485260009765625</LongitudeDegrees>
            </Position>
            <AltitudeMeters>342.399993896484375</AltitudeMeters>
            <DistanceMeters>NAN</DistanceMeters>
          </Trackpoint>
          <Trackpoint>
            <Time>2022-09-23T08:41:28.000Z</Time>
            <Position>
              <LatitudeDegrees>49.49646298773586750030517578125</LatitudeDegrees>
              <LongitudeDegrees>20.6803263723850250244140625</LongitudeDegrees>
            </Position>
            <AltitudeMeters>342.399993896484375</AltitudeMeters>
            <DistanceMeters>NAN</DistanceMeters>
          </Trackpoint>
          <Trackpoint>
            <Time>2022-09-23T08:41:31.000Z</Time>
            <Position>
              <LatitudeDegrees>49.49655510485172271728515625</LatitudeDegrees>
              <LongitudeDegrees>20.68020659498870372772216796875</LongitudeDegrees>
            </Position>
            <AltitudeMeters>343</AltitudeMeters>
            <DistanceMeters>NAN</DistanceMeters>
          </Trackpoint>
          <Trackpoint>
            <Time>2022-09-23T08:41:36.000Z</Time>
            <Position>
              <LatitudeDegrees>49.4967068172991275787353515625</LatitudeDegrees>
              <LongitudeDegrees>20.6799852289259433746337890625</LongitudeDegrees>
            </Position>
            <AltitudeMeters>343</AltitudeMeters>
            <DistanceMeters>NAN</DistanceMeters>
          </Trackpoint>
          <Trackpoint>
            <Time>2022-09-23T08:41:40.000Z</Time>
            <Position>
              <LatitudeDegrees>49.49682273901998996734619140625</LatitudeDegrees>
              <LongitudeDegrees>20.6797899305820465087890625</LongitudeDegrees>
            </Position>
            <AltitudeMeters>343</AltitudeMeters>
            <DistanceMeters>NAN</DistanceMeters>
          </Trackpoint>
          <Trackpoint>
            <Time>2022-09-23T08:41:47.000Z</Time>
            <Position>
              <LatitudeDegrees>49.49700881727039813995361328125</LatitudeDegrees>
              <LongitudeDegrees>20.679432190954685211181640625</LongitudeDegrees>
            </Position>
            <AltitudeMeters>342.600006103515625</AltitudeMeters>
            <DistanceMeters>NAN</DistanceMeters>
          </Trackpoint>
          <Trackpoint>
            <Time>2022-09-23T08:41:52.000Z</Time>
            <Position>
              <LatitudeDegrees>49.49713605456054210662841796875</LatitudeDegrees>
              <LongitudeDegrees>20.67915114574134349822998046875</LongitudeDegrees>
            </Position>
            <AltitudeMeters>342.20001220703125</AltitudeMeters>
            <DistanceMeters>NAN</DistanceMeters>
          </Trackpoint>
          <Trackpoint>
            <Time>2022-09-23T08:41:55.000Z</Time>
            <Position>
              <LatitudeDegrees>49.49721568264067173004150390625</LatitudeDegrees>
              <LongitudeDegrees>20.67896448075771331787109375</LongitudeDegrees>
            </Position>
            <AltitudeMeters>342.20001220703125</AltitudeMeters>
            <DistanceMeters>NAN</DistanceMeters>
          </Trackpoint>
          <Trackpoint>
            <Time>2022-09-23T08:42:00.000Z</Time>
            <Position>
              <LatitudeDegrees>49.49735842645168304443359375</LatitudeDegrees>
              <LongitudeDegrees>20.67861445248126983642578125</LongitudeDegrees>
            </Position>
            <AltitudeMeters>341.79998779296875</AltitudeMeters>
            <DistanceMeters>NAN</DistanceMeters>
          </Trackpoint>
          <Trackpoint>
            <Time>2022-09-23T08:42:04.000Z</Time>
            <Position>
              <LatitudeDegrees>49.49746781028807163238525390625</LatitudeDegrees>
              <LongitudeDegrees>20.67835939116775989532470703125</LongitudeDegrees>
            </Position>
            <AltitudeMeters>341.600006103515625</AltitudeMeters>
            <DistanceMeters>NAN</DistanceMeters>
          </Trackpoint>
          <Trackpoint>
            <Time>2022-09-23T08:42:09.000Z</Time>
            <Position>
              <LatitudeDegrees>49.49758549220860004425048828125</LatitudeDegrees>
              <LongitudeDegrees>20.6780396215617656707763671875</LongitudeDegrees>
            </Position>
            <AltitudeMeters>341.600006103515625</AltitudeMeters>
            <DistanceMeters>NAN</DistanceMeters>
          </Trackpoint>
          <Trackpoint>
            <Time>2022-09-23T08:42:18.000Z</Time>
            <Position>
              <LatitudeDegrees>49.4978075288236141204833984375</LatitudeDegrees>
              <LongitudeDegrees>20.67750996910035610198974609375</LongitudeDegrees>
            </Position>
            <AltitudeMeters>341.20001220703125</AltitudeMeters>
            <DistanceMeters>NAN</DistanceMeters>
          </Trackpoint>
          <Trackpoint>
            <Time>2022-09-23T08:42:20.000Z</Time>
            <Position>
              <LatitudeDegrees>49.49785555712878704071044921875</LatitudeDegrees>
              <LongitudeDegrees>20.6773992441594600677490234375</LongitudeDegrees>
            </Position>
            <AltitudeMeters>341.20001220703125</AltitudeMeters>
            <DistanceMeters>NAN</DistanceMeters>
          </Trackpoint>
          <Trackpoint>
            <Time>2022-09-23T08:42:27.000Z</Time>
            <Position>
              <LatitudeDegrees>49.4980164058506488800048828125</LatitudeDegrees>
              <LongitudeDegrees>20.6770270876586437225341796875</LongitudeDegrees>
            </Position>
            <AltitudeMeters>341</AltitudeMeters>
            <DistanceMeters>NAN</DistanceMeters>
          </Trackpoint>
          <Trackpoint>
            <Time>2022-09-23T08:42:29.000Z</Time>
            <Position>
              <LatitudeDegrees>49.4980670325458049774169921875</LatitudeDegrees>
              <LongitudeDegrees>20.6769025325775146484375</LongitudeDegrees>
            </Position>
            <AltitudeMeters>341</AltitudeMeters>
            <DistanceMeters>NAN</DistanceMeters>
          </Trackpoint>
          <Trackpoint>
            <Time>2022-09-23T08:42:30.000Z</Time>
            <Position>
              <LatitudeDegrees>49.49809008277952671051025390625</LatitudeDegrees>
              <LongitudeDegrees>20.6768446974456310272216796875</LongitudeDegrees>
            </Position>
            <AltitudeMeters>341</AltitudeMeters>
            <DistanceMeters>NAN</DistanceMeters>
          </Trackpoint>
          <Trackpoint>
            <Time>2022-09-23T08:42:34.000Z</Time>
            <Position>
              <LatitudeDegrees>49.498185217380523681640625</LatitudeDegrees>
              <LongitudeDegrees>20.676608495414257049560546875</LongitudeDegrees>
            </Position>
            <AltitudeMeters>341</AltitudeMeters>
            <DistanceMeters>NAN</DistanceMeters>
          </Trackpoint>
          <Trackpoint>
            <Time>2022-09-23T08:42:37.000Z</Time>
            <Position>
              <LatitudeDegrees>49.49825017713010311126708984375</LatitudeDegrees>
              <LongitudeDegrees>20.67645904608070850372314453125</LongitudeDegrees>
            </Position>
            <AltitudeMeters>340.79998779296875</AltitudeMeters>
            <DistanceMeters>NAN</DistanceMeters>
          </Trackpoint>
          <Trackpoint>
            <Time>2022-09-23T08:42:39.000Z</Time>
            <Position>
              <LatitudeDegrees>49.498301558196544647216796875</LatitudeDegrees>
              <LongitudeDegrees>20.67634421400725841522216796875</LongitudeDegrees>
            </Position>
            <AltitudeMeters>340.79998779296875</AltitudeMeters>
            <DistanceMeters>NAN</DistanceMeters>
          </Trackpoint>
          <Trackpoint>
            <Time>2022-09-23T08:42:43.000Z</Time>
            <Position>
              <LatitudeDegrees>49.4983932562172412872314453125</LatitudeDegrees>
              <LongitudeDegrees>20.67611438222229480743408203125</LongitudeDegrees>
            </Position>
            <AltitudeMeters>340.600006103515625</AltitudeMeters>
            <DistanceMeters>NAN</DistanceMeters>
          </Trackpoint>
          <Trackpoint>
            <Time>2022-09-23T08:42:46.000Z</Time>
            <Position>
              <LatitudeDegrees>49.498465172946453094482421875</LatitudeDegrees>
              <LongitudeDegrees>20.6759518571197986602783203125</LongitudeDegrees>
            </Position>
            <AltitudeMeters>340.600006103515625</AltitudeMeters>
            <DistanceMeters>NAN</DistanceMeters>
          </Trackpoint>
          <Trackpoint>
            <Time>2022-09-23T08:42:49.000Z</Time>
            <Position>
              <LatitudeDegrees>49.4985189847648143768310546875</LatitudeDegrees>
              <LongitudeDegrees>20.67581766285002231597900390625</LongitudeDegrees>
            </Position>
            <AltitudeMeters>340.79998779296875</AltitudeMeters>
            <DistanceMeters>NAN</DistanceMeters>
          </Trackpoint>
          <Trackpoint>
            <Time>2022-09-23T08:42:53.000Z</Time>
            <Position>
              <LatitudeDegrees>49.49855125509202480316162109375</LatitudeDegrees>
              <LongitudeDegrees>20.67575513385236263275146484375</LongitudeDegrees>
            </Position>
            <AltitudeMeters>341</AltitudeMeters>
            <DistanceMeters>NAN</DistanceMeters>
          </Trackpoint>
          <Trackpoint>
            <Time>2022-09-23T08:43:06.000Z</Time>
            <Position>
              <LatitudeDegrees>49.49855125509202480316162109375</LatitudeDegrees>
              <LongitudeDegrees>20.67575513385236263275146484375</LongitudeDegrees>
            </Position>
            <AltitudeMeters>341</AltitudeMeters>
            <DistanceMeters>NAN</DistanceMeters>
          </Trackpoint>
          <Trackpoint>
            <Time>2022-09-23T08:43:22.000Z</Time>
            <Position>
              <LatitudeDegrees>49.49855125509202480316162109375</LatitudeDegrees>
              <LongitudeDegrees>20.67575513385236263275146484375</LongitudeDegrees>
            </Position>
            <AltitudeMeters>341</AltitudeMeters>
            <DistanceMeters>NAN</DistanceMeters>
          </Trackpoint>
          <Trackpoint>
            <Time>2022-09-23T08:43:27.000Z</Time>
            <Position>
              <LatitudeDegrees>49.49855125509202480316162109375</LatitudeDegrees>
              <LongitudeDegrees>20.67575513385236263275146484375</LongitudeDegrees>
            </Position>
            <AltitudeMeters>341</AltitudeMeters>
            <DistanceMeters>NAN</DistanceMeters>
          </Trackpoint>
          <Trackpoint>
            <Time>2022-09-23T08:43:28.000Z</Time>
            <Position>
              <LatitudeDegrees>49.49855125509202480316162109375</LatitudeDegrees>
              <LongitudeDegrees>20.67575513385236263275146484375</LongitudeDegrees>
            </Position>
            <AltitudeMeters>341</AltitudeMeters>
            <DistanceMeters>NAN</DistanceMeters>
          </Trackpoint>
          <Trackpoint>
            <Time>2022-09-23T08:43:29.000Z</Time>
            <Position>
              <LatitudeDegrees>49.49855125509202480316162109375</LatitudeDegrees>
              <LongitudeDegrees>20.67575513385236263275146484375</LongitudeDegrees>
            </Position>
            <AltitudeMeters>341</AltitudeMeters>
            <DistanceMeters>NAN</DistanceMeters>
          </Trackpoint>
          <Trackpoint>
            <Time>2022-09-23T08:43:30.000Z</Time>
            <Position>
              <LatitudeDegrees>49.49855125509202480316162109375</LatitudeDegrees>
              <LongitudeDegrees>20.67575513385236263275146484375</LongitudeDegrees>
            </Position>
            <AltitudeMeters>341</AltitudeMeters>
            <DistanceMeters>NAN</DistanceMeters>
          </Trackpoint>
          <Trackpoint>
            <Time>2022-09-23T08:43:31.000Z</Time>
            <Position>
              <LatitudeDegrees>49.49855125509202480316162109375</LatitudeDegrees>
              <LongitudeDegrees>20.67575513385236263275146484375</LongitudeDegrees>
            </Position>
            <AltitudeMeters>341</AltitudeMeters>
            <DistanceMeters>NAN</DistanceMeters>
          </Trackpoint>
          <Trackpoint>
            <Time>2022-09-23T08:43:32.000Z</Time>
            <Position>
              <LatitudeDegrees>49.49855293147265911102294921875</LatitudeDegrees>
              <LongitudeDegrees>20.67575362510979175567626953125</LongitudeDegrees>
            </Position>
            <AltitudeMeters>340.79998779296875</AltitudeMeters>
            <DistanceMeters>NAN</DistanceMeters>
          </Trackpoint>
          <Trackpoint>
            <Time>2022-09-23T08:43:34.000Z</Time>
            <Position>
              <LatitudeDegrees>49.4986011274158954620361328125</LatitudeDegrees>
              <LongitudeDegrees>20.6757692992687225341796875</LongitudeDegrees>
            </Position>
            <AltitudeMeters>340.79998779296875</AltitudeMeters>
            <DistanceMeters>NAN</DistanceMeters>
          </Trackpoint>
          <Trackpoint>
            <Time>2022-09-23T08:43:40.000Z</Time>
            <Position>
              <LatitudeDegrees>49.4987570308148860931396484375</LatitudeDegrees>
              <LongitudeDegrees>20.67588857375085353851318359375</LongitudeDegrees>
            </Position>
            <AltitudeMeters>340.20001220703125</AltitudeMeters>
            <DistanceMeters>NAN</DistanceMeters>
          </Trackpoint>
          <Trackpoint>
            <Time>2022-09-23T08:43:44.000Z</Time>
            <Position>
              <LatitudeDegrees>49.49884395115077495574951171875</LatitudeDegrees>
              <LongitudeDegrees>20.675944648683071136474609375</LongitudeDegrees>
            </Position>
            <AltitudeMeters>340.600006103515625</AltitudeMeters>
            <DistanceMeters>NAN</DistanceMeters>
          </Trackpoint>
          <Trackpoint>
            <Time>2022-09-23T08:43:46.000Z</Time>
            <Position>
              <LatitudeDegrees>49.49888619594275951385498046875</LatitudeDegrees>
              <LongitudeDegrees>20.6759820319712162017822265625</LongitudeDegrees>
            </Position>
            <AltitudeMeters>340.79998779296875</AltitudeMeters>
            <DistanceMeters>NAN</DistanceMeters>
          </Trackpoint>
          <Trackpoint>
            <Time>2022-09-23T08:43:48.000Z</Time>
            <Position>
              <LatitudeDegrees>49.49893564917147159576416015625</LatitudeDegrees>
              <LongitudeDegrees>20.67602536641061305999755859375</LongitudeDegrees>
            </Position>
            <AltitudeMeters>340.79998779296875</AltitudeMeters>
            <DistanceMeters>NAN</DistanceMeters>
          </Trackpoint>
          <Trackpoint>
            <Time>2022-09-23T08:43:54.000Z</Time>
            <Position>
              <LatitudeDegrees>49.49911166913807392120361328125</LatitudeDegrees>
              <LongitudeDegrees>20.6761828623712062835693359375</LongitudeDegrees>
            </Position>
            <AltitudeMeters>341.399993896484375</AltitudeMeters>
            <DistanceMeters>NAN</DistanceMeters>
          </Trackpoint>
          <Trackpoint>
            <Time>2022-09-23T08:43:58.000Z</Time>
            <Position>
              <LatitudeDegrees>49.49921778403222560882568359375</LatitudeDegrees>
              <LongitudeDegrees>20.67626877687871456146240234375</LongitudeDegrees>
            </Position>
            <AltitudeMeters>342</AltitudeMeters>
            <DistanceMeters>NAN</DistanceMeters>
          </Trackpoint>
          <Trackpoint>
            <Time>2022-09-23T08:44:00.000Z</Time>
            <Position>
              <LatitudeDegrees>49.499255754053592681884765625</LatitudeDegrees>
              <LongitudeDegrees>20.67630297504365444183349609375</LongitudeDegrees>
            </Position>
            <AltitudeMeters>342.20001220703125</AltitudeMeters>
            <DistanceMeters>NAN</DistanceMeters>
          </Trackpoint>
          <Trackpoint>
            <Time>2022-09-23T08:44:05.000Z</Time>
            <Position>
              <LatitudeDegrees>49.49937351979315280914306640625</LatitudeDegrees>
              <LongitudeDegrees>20.67638377659022808074951171875</LongitudeDegrees>
            </Position>
            <AltitudeMeters>342.600006103515625</AltitudeMeters>
            <DistanceMeters>NAN</DistanceMeters>
          </Trackpoint>
          <Trackpoint>
            <Time>2022-09-23T08:44:11.000Z</Time>
            <Position>
              <LatitudeDegrees>49.4995053671300411224365234375</LatitudeDegrees>
              <LongitudeDegrees>20.676492489874362945556640625</LongitudeDegrees>
            </Position>
            <AltitudeMeters>343.399993896484375</AltitudeMeters>
            <DistanceMeters>NAN</DistanceMeters>
          </Trackpoint>
          <Trackpoint>
            <Time>2022-09-23T08:44:16.000Z</Time>
            <Position>
              <LatitudeDegrees>49.49962128885090351104736328125</LatitudeDegrees>
              <LongitudeDegrees>20.676563568413257598876953125</LongitudeDegrees>
            </Position>
            <AltitudeMeters>343.600006103515625</AltitudeMeters>
            <DistanceMeters>NAN</DistanceMeters>
          </Trackpoint>
          <Trackpoint>
            <Time>2022-09-23T08:44:22.000Z</Time>
            <Position>
              <LatitudeDegrees>49.49973620474338531494140625</LatitudeDegrees>
              <LongitudeDegrees>20.6766195595264434814453125</LongitudeDegrees>
            </Position>
            <AltitudeMeters>344</AltitudeMeters>
            <DistanceMeters>NAN</DistanceMeters>
          </Trackpoint>
          <Trackpoint>
            <Time>2022-09-23T08:44:23.000Z</Time>
            <Position>
              <LatitudeDegrees>49.49975657276809215545654296875</LatitudeDegrees>
              <LongitudeDegrees>20.67663288675248622894287109375</LongitudeDegrees>
            </Position>
            <AltitudeMeters>344</AltitudeMeters>
            <DistanceMeters>NAN</DistanceMeters>
          </Trackpoint>
          <Trackpoint>
            <Time>2022-09-23T08:44:29.000Z</Time>
            <Position>
              <LatitudeDegrees>49.49990275315940380096435546875</LatitudeDegrees>
              <LongitudeDegrees>20.67672458477318286895751953125</LongitudeDegrees>
            </Position>
            <AltitudeMeters>344.20001220703125</AltitudeMeters>
            <DistanceMeters>NAN</DistanceMeters>
          </Trackpoint>
          <Trackpoint>
            <Time>2022-09-23T08:44:33.000Z</Time>
            <Position>
              <LatitudeDegrees>49.4999958761036396026611328125</LatitudeDegrees>
              <LongitudeDegrees>20.67677789367735385894775390625</LongitudeDegrees>
            </Position>
            <AltitudeMeters>344.399993896484375</AltitudeMeters>
            <DistanceMeters>NAN</DistanceMeters>
          </Trackpoint>
          <Trackpoint>
            <Time>2022-09-23T08:44:36.000Z</Time>
            <Position>
              <LatitudeDegrees>49.5000669546425342559814453125</LatitudeDegrees>
              <LongitudeDegrees>20.67682919092476367950439453125</LongitudeDegrees>
            </Position>
            <AltitudeMeters>344.600006103515625</AltitudeMeters>
            <DistanceMeters>NAN</DistanceMeters>
          </Trackpoint>
          <Trackpoint>
            <Time>2022-09-23T08:44:44.000Z</Time>
            <Position>
              <LatitudeDegrees>49.50028203427791595458984375</LatitudeDegrees>
              <LongitudeDegrees>20.67696950398385524749755859375</LongitudeDegrees>
            </Position>
            <AltitudeMeters>344.600006103515625</AltitudeMeters>
            <DistanceMeters>NAN</DistanceMeters>
          </Trackpoint>
          <Trackpoint>
            <Time>2022-09-23T08:44:53.000Z</Time>
            <Position>
              <LatitudeDegrees>49.5005236007273197174072265625</LatitudeDegrees>
              <LongitudeDegrees>20.67714015953242778778076171875</LongitudeDegrees>
            </Position>
            <AltitudeMeters>344.600006103515625</AltitudeMeters>
            <DistanceMeters>NAN</DistanceMeters>
          </Trackpoint>
          <Trackpoint>
            <Time>2022-09-23T08:45:03.000Z</Time>
            <Position>
              <LatitudeDegrees>49.50080330483615398406982421875</LatitudeDegrees>
              <LongitudeDegrees>20.6772922910749912261962890625</LongitudeDegrees>
            </Position>
            <AltitudeMeters>344.20001220703125</AltitudeMeters>
            <DistanceMeters>NAN</DistanceMeters>
          </Trackpoint>
          <Trackpoint>
            <Time>2022-09-23T08:45:07.000Z</Time>
            <Position>
              <LatitudeDegrees>49.5009229145944118499755859375</LatitudeDegrees>
              <LongitudeDegrees>20.67730427719652652740478515625</LongitudeDegrees>
            </Position>
            <AltitudeMeters>344.20001220703125</AltitudeMeters>
            <DistanceMeters>NAN</DistanceMeters>
          </Trackpoint>
          <Trackpoint>
            <Time>2022-09-23T08:45:09.000Z</Time>
            <Position>
              <LatitudeDegrees>49.500978402793407440185546875</LatitudeDegrees>
              <LongitudeDegrees>20.67729908041656017303466796875</LongitudeDegrees>
            </Position>
            <AltitudeMeters>344.20001220703125</AltitudeMeters>
            <DistanceMeters>NAN</DistanceMeters>
          </Trackpoint>
          <Trackpoint>
            <Time>2022-09-23T08:45:11.000Z</Time>
            <Position>
              <LatitudeDegrees>49.50103900395333766937255859375</LatitudeDegrees>
              <LongitudeDegrees>20.677283070981502532958984375</LongitudeDegrees>
            </Position>
            <AltitudeMeters>344</AltitudeMeters>
            <DistanceMeters>NAN</DistanceMeters>
          </Trackpoint>
          <Trackpoint>
            <Time>2022-09-23T08:45:14.000Z</Time>
            <Position>
              <LatitudeDegrees>49.5011235773563385009765625</LatitudeDegrees>
              <LongitudeDegrees>20.6772176921367645263671875</LongitudeDegrees>
            </Position>
            <AltitudeMeters>343.79998779296875</AltitudeMeters>
            <DistanceMeters>NAN</DistanceMeters>
          </Trackpoint>
          <Trackpoint>
            <Time>2022-09-23T08:45:16.000Z</Time>
            <Position>
              <LatitudeDegrees>49.50113472528755664825439453125</LatitudeDegrees>
              <LongitudeDegrees>20.67712943069636821746826171875</LongitudeDegrees>
            </Position>
            <AltitudeMeters>343.600006103515625</AltitudeMeters>
            <DistanceMeters>NAN</DistanceMeters>
          </Trackpoint>
          <Trackpoint>
            <Time>2022-09-23T08:45:18.000Z</Time>
            <Position>
              <LatitudeDegrees>49.5010747946798801422119140625</LatitudeDegrees>
              <LongitudeDegrees>20.67704728804528713226318359375</LongitudeDegrees>
            </Position>
            <AltitudeMeters>343</AltitudeMeters>
            <DistanceMeters>NAN</DistanceMeters>
          </Trackpoint>
          <Trackpoint>
            <Time>2022-09-23T08:45:19.000Z</Time>
            <Position>
              <LatitudeDegrees>49.5010325498878955841064453125</LatitudeDegrees>
              <LongitudeDegrees>20.6770160235464572906494140625</LongitudeDegrees>
            </Position>
            <AltitudeMeters>342.20001220703125</AltitudeMeters>
            <DistanceMeters>NAN</DistanceMeters>
          </Trackpoint>
          <Trackpoint>
            <Time>2022-09-23T08:45:20.000Z</Time>
            <Position>
              <LatitudeDegrees>49.50098100118339061737060546875</LatitudeDegrees>
              <LongitudeDegrees>20.67696883343160152435302734375</LongitudeDegrees>
            </Position>
            <AltitudeMeters>341.79998779296875</AltitudeMeters>
            <DistanceMeters>NAN</DistanceMeters>
          </Trackpoint>
          <Trackpoint>
            <Time>2022-09-23T08:45:23.000Z</Time>
            <Position>
              <LatitudeDegrees>49.50087304227054119110107421875</LatitudeDegrees>
              <LongitudeDegrees>20.67681611515581607818603515625</LongitudeDegrees>
            </Position>
            <AltitudeMeters>340.79998779296875</AltitudeMeters>
            <DistanceMeters>NAN</DistanceMeters>
          </Trackpoint>
          <Trackpoint>
            <Time>2022-09-23T08:45:24.000Z</Time>
            <Position>
              <LatitudeDegrees>49.50083993375301361083984375</LatitudeDegrees>
              <LongitudeDegrees>20.67674537189304828643798828125</LongitudeDegrees>
            </Position>
            <AltitudeMeters>340.600006103515625</AltitudeMeters>
            <DistanceMeters>NAN</DistanceMeters>
          </Trackpoint>
          <Trackpoint>
            <Time>2022-09-23T08:45:25.000Z</Time>
            <Position>
              <LatitudeDegrees>49.5008176378905773162841796875</LatitudeDegrees>
              <LongitudeDegrees>20.67667010240256786346435546875</LongitudeDegrees>
            </Position>
            <AltitudeMeters>340.399993896484375</AltitudeMeters>
            <DistanceMeters>NAN</DistanceMeters>
          </Trackpoint>
          <Trackpoint>
            <Time>2022-09-23T08:45:27.000Z</Time>
            <Position>
              <LatitudeDegrees>49.5008003711700439453125</LatitudeDegrees>
              <LongitudeDegrees>20.67649542354047298431396484375</LongitudeDegrees>
            </Position>
            <AltitudeMeters>339.79998779296875</AltitudeMeters>
            <DistanceMeters>NAN</DistanceMeters>
          </Trackpoint>
          <Trackpoint>
            <Time>2022-09-23T08:45:28.000Z</Time>
            <Position>
              <LatitudeDegrees>49.50078897178173065185546875</LatitudeDegrees>
              <LongitudeDegrees>20.67643381655216217041015625</LongitudeDegrees>
            </Position>
            <AltitudeMeters>339.79998779296875</AltitudeMeters>
            <DistanceMeters>NAN</DistanceMeters>
          </Trackpoint>
          <Trackpoint>
            <Time>2022-09-23T08:45:31.000Z</Time>
            <Position>
              <LatitudeDegrees>49.5007807575166225433349609375</LatitudeDegrees>
              <LongitudeDegrees>20.6761868856847286224365234375</LongitudeDegrees>
            </Position>
            <AltitudeMeters>339.399993896484375</AltitudeMeters>
            <DistanceMeters>NAN</DistanceMeters>
          </Trackpoint>
          <Trackpoint>
            <Time>2022-09-23T08:45:33.000Z</Time>
            <Position>
              <LatitudeDegrees>49.5007854513823986053466796875</LatitudeDegrees>
              <LongitudeDegrees>20.6760202534496784210205078125</LongitudeDegrees>
            </Position>
            <AltitudeMeters>339.399993896484375</AltitudeMeters>
            <DistanceMeters>NAN</DistanceMeters>
          </Trackpoint>
          <Trackpoint>
            <Time>2022-09-23T08:45:37.000Z</Time>
            <Position>
              <LatitudeDegrees>49.5008344016969203948974609375</LatitudeDegrees>
              <LongitudeDegrees>20.67571992985904216766357421875</LongitudeDegrees>
            </Position>
            <AltitudeMeters>339.20001220703125</AltitudeMeters>
            <DistanceMeters>NAN</DistanceMeters>
          </Trackpoint>
          <Trackpoint>
            <Time>2022-09-23T08:45:41.000Z</Time>
            <Position>
              <LatitudeDegrees>49.5008716173470020294189453125</LatitudeDegrees>
              <LongitudeDegrees>20.67544802092015743255615234375</LongitudeDegrees>
            </Position>
            <AltitudeMeters>339.20001220703125</AltitudeMeters>
            <DistanceMeters>NAN</DistanceMeters>
          </Trackpoint>
          <Trackpoint>
            <Time>2022-09-23T08:45:42.000Z</Time>
            <Position>
              <LatitudeDegrees>49.50087857432663440704345703125</LatitudeDegrees>
              <LongitudeDegrees>20.67538029514253139495849609375</LongitudeDegrees>
            </Position>
            <AltitudeMeters>339.20001220703125</AltitudeMeters>
            <DistanceMeters>NAN</DistanceMeters>
          </Trackpoint>
          <Trackpoint>
            <Time>2022-09-23T08:45:44.000Z</Time>
            <Position>
              <LatitudeDegrees>49.50088419020175933837890625</LatitudeDegrees>
              <LongitudeDegrees>20.67524786107242107391357421875</LongitudeDegrees>
            </Position>
            <AltitudeMeters>339.600006103515625</AltitudeMeters>
            <DistanceMeters>NAN</DistanceMeters>
          </Trackpoint>
          <Trackpoint>
            <Time>2022-09-23T08:45:46.000Z</Time>
            <Position>
              <LatitudeDegrees>49.5008937455713748931884765625</LatitudeDegrees>
              <LongitudeDegrees>20.67512867040932178497314453125</LongitudeDegrees>
            </Position>
            <AltitudeMeters>339.79998779296875</AltitudeMeters>
            <DistanceMeters>NAN</DistanceMeters>
          </Trackpoint>
          <Trackpoint>
            <Time>2022-09-23T08:45:48.000Z</Time>
            <Position>
              <LatitudeDegrees>49.50090564787387847900390625</LatitudeDegrees>
              <LongitudeDegrees>20.67501752637326717376708984375</LongitudeDegrees>
            </Position>
            <AltitudeMeters>339.79998779296875</AltitudeMeters>
            <DistanceMeters>NAN</DistanceMeters>
          </Trackpoint>
          <Trackpoint>
            <Time>2022-09-23T08:45:53.000Z</Time>
            <Position>
              <LatitudeDegrees>49.50089734978973865509033203125</LatitudeDegrees>
              <LongitudeDegrees>20.6746553443372249603271484375</LongitudeDegrees>
            </Position>
            <AltitudeMeters>339.20001220703125</AltitudeMeters>
            <DistanceMeters>NAN</DistanceMeters>
          </Trackpoint>
          <Trackpoint>
            <Time>2022-09-23T08:45:55.000Z</Time>
            <Position>
              <LatitudeDegrees>49.50089491903781890869140625</LatitudeDegrees>
              <LongitudeDegrees>20.67451813258230686187744140625</LongitudeDegrees>
            </Position>
            <AltitudeMeters>338.79998779296875</AltitudeMeters>
            <DistanceMeters>NAN</DistanceMeters>
          </Trackpoint>
          <Trackpoint>
            <Time>2022-09-23T08:45:57.000Z</Time>
            <Position>
              <LatitudeDegrees>49.5008833520114421844482421875</LatitudeDegrees>
              <LongitudeDegrees>20.674375556409358978271484375</LongitudeDegrees>
            </Position>
            <AltitudeMeters>338.399993896484375</AltitudeMeters>
            <DistanceMeters>NAN</DistanceMeters>
          </Trackpoint>
          <Trackpoint>
            <Time>2022-09-23T08:45:58.000Z</Time>
            <Position>
              <LatitudeDegrees>49.50087890960276126861572265625</LatitudeDegrees>
              <LongitudeDegrees>20.67429282702505588531494140625</LongitudeDegrees>
            </Position>
            <AltitudeMeters>338.20001220703125</AltitudeMeters>
            <DistanceMeters>NAN</DistanceMeters>
          </Trackpoint>
          <Trackpoint>
            <Time>2022-09-23T08:46:05.000Z</Time>
            <Position>
              <LatitudeDegrees>49.50090338476002216339111328125</LatitudeDegrees>
              <LongitudeDegrees>20.67381329834461212158203125</LongitudeDegrees>
            </Position>
            <AltitudeMeters>338</AltitudeMeters>
            <DistanceMeters>NAN</DistanceMeters>
          </Trackpoint>
          <Trackpoint>
            <Time>2022-09-23T08:46:08.000Z</Time>
            <Position>
              <LatitudeDegrees>49.50091361068189144134521484375</LatitudeDegrees>
              <LongitudeDegrees>20.6736099533736705780029296875</LongitudeDegrees>
            </Position>
            <AltitudeMeters>337.79998779296875</AltitudeMeters>
            <DistanceMeters>NAN</DistanceMeters>
          </Trackpoint>
          <Trackpoint>
            <Time>2022-09-23T08:46:11.000Z</Time>
            <Position>
              <LatitudeDegrees>49.50092366896569728851318359375</LatitudeDegrees>
              <LongitudeDegrees>20.67340266890823841094970703125</LongitudeDegrees>
            </Position>
            <AltitudeMeters>337.600006103515625</AltitudeMeters>
            <DistanceMeters>NAN</DistanceMeters>
          </Trackpoint>
          <Trackpoint>
            <Time>2022-09-23T08:46:12.000Z</Time>
            <Position>
              <LatitudeDegrees>49.50092668645083904266357421875</LatitudeDegrees>
              <LongitudeDegrees>20.67333376966416835784912109375</LongitudeDegrees>
            </Position>
            <AltitudeMeters>337.600006103515625</AltitudeMeters>
            <DistanceMeters>NAN</DistanceMeters>
          </Trackpoint>
          <Trackpoint>
            <Time>2022-09-23T08:46:13.000Z</Time>
            <Position>
              <LatitudeDegrees>49.5009336434304714202880859375</LatitudeDegrees>
              <LongitudeDegrees>20.67326503805816173553466796875</LongitudeDegrees>
            </Position>
            <AltitudeMeters>337.600006103515625</AltitudeMeters>
            <DistanceMeters>NAN</DistanceMeters>
          </Trackpoint>
          <Trackpoint>
            <Time>2022-09-23T08:46:15.000Z</Time>
            <Position>
              <LatitudeDegrees>49.50095132924616336822509765625</LatitudeDegrees>
              <LongitudeDegrees>20.67312254570424556732177734375</LongitudeDegrees>
            </Position>
            <AltitudeMeters>337.600006103515625</AltitudeMeters>
            <DistanceMeters>NAN</DistanceMeters>
          </Trackpoint>
          <Trackpoint>
            <Time>2022-09-23T08:46:18.000Z</Time>
            <Position>
              <LatitudeDegrees>49.50099709443747997283935546875</LatitudeDegrees>
              <LongitudeDegrees>20.6729226373136043548583984375</LongitudeDegrees>
            </Position>
            <AltitudeMeters>337.600006103515625</AltitudeMeters>
            <DistanceMeters>NAN</DistanceMeters>
          </Trackpoint>
          <Trackpoint>
            <Time>2022-09-23T08:46:20.000Z</Time>
            <Position>
              <LatitudeDegrees>49.50103581883013248443603515625</LatitudeDegrees>
              <LongitudeDegrees>20.672801099717617034912109375</LongitudeDegrees>
            </Position>
            <AltitudeMeters>337.600006103515625</AltitudeMeters>
            <DistanceMeters>NAN</DistanceMeters>
          </Trackpoint>
          <Trackpoint>
            <Time>2022-09-23T08:46:22.000Z</Time>
            <Position>
              <LatitudeDegrees>49.50106079690158367156982421875</LatitudeDegrees>
              <LongitudeDegrees>20.6726698391139507293701171875</LongitudeDegrees>
            </Position>
            <AltitudeMeters>337.600006103515625</AltitudeMeters>
            <DistanceMeters>NAN</DistanceMeters>
          </Trackpoint>
          <Trackpoint>
            <Time>2022-09-23T08:46:25.000Z</Time>
            <Position>
              <LatitudeDegrees>49.50110438279807567596435546875</LatitudeDegrees>
              <LongitudeDegrees>20.67246406339108943939208984375</LongitudeDegrees>
            </Position>
            <AltitudeMeters>337.600006103515625</AltitudeMeters>
            <DistanceMeters>NAN</DistanceMeters>
          </Trackpoint>
          <Trackpoint>
            <Time>2022-09-23T08:46:28.000Z</Time>
            <Position>
              <LatitudeDegrees>49.50114159844815731048583984375</LatitudeDegrees>
              <LongitudeDegrees>20.67222434096038341522216796875</LongitudeDegrees>
            </Position>
            <AltitudeMeters>338.399993896484375</AltitudeMeters>
            <DistanceMeters>NAN</DistanceMeters>
          </Trackpoint>
          <Trackpoint>
            <Time>2022-09-23T08:46:30.000Z</Time>
            <Position>
              <LatitudeDegrees>49.50117328204214572906494140625</LatitudeDegrees>
              <LongitudeDegrees>20.67204304039478302001953125</LongitudeDegrees>
            </Position>
            <AltitudeMeters>338.600006103515625</AltitudeMeters>
            <DistanceMeters>NAN</DistanceMeters>
          </Trackpoint>
          <Trackpoint>
            <Time>2022-09-23T08:46:33.000Z</Time>
            <Position>
              <LatitudeDegrees>49.5012308657169342041015625</LatitudeDegrees>
              <LongitudeDegrees>20.671808011829853057861328125</LongitudeDegrees>
            </Position>
            <AltitudeMeters>338.79998779296875</AltitudeMeters>
            <DistanceMeters>NAN</DistanceMeters>
          </Trackpoint>
          <Trackpoint>
            <Time>2022-09-23T08:46:35.000Z</Time>
            <Position>
              <LatitudeDegrees>49.50126774609088897705078125</LatitudeDegrees>
              <LongitudeDegrees>20.67166074179112911224365234375</LongitudeDegrees>
            </Position>
            <AltitudeMeters>339.20001220703125</AltitudeMeters>
            <DistanceMeters>NAN</DistanceMeters>
          </Trackpoint>
          <Trackpoint>
            <Time>2022-09-23T08:46:36.000Z</Time>
            <Position>
              <LatitudeDegrees>49.50129163451492786407470703125</LatitudeDegrees>
              <LongitudeDegrees>20.67161162383854389190673828125</LongitudeDegrees>
            </Position>
            <AltitudeMeters>339.399993896484375</AltitudeMeters>
            <DistanceMeters>NAN</DistanceMeters>
          </Trackpoint>
          <Trackpoint>
            <Time>2022-09-23T08:46:37.000Z</Time>
            <Position>
              <LatitudeDegrees>49.50131292454898357391357421875</LatitudeDegrees>
              <LongitudeDegrees>20.67155965603888034820556640625</LongitudeDegrees>
            </Position>
            <AltitudeMeters>339.79998779296875</AltitudeMeters>
            <DistanceMeters>NAN</DistanceMeters>
          </Trackpoint>
          <Trackpoint>
            <Time>2022-09-23T08:46:40.000Z</Time>
            <Position>
              <LatitudeDegrees>49.5013450272381305694580078125</LatitudeDegrees>
              <LongitudeDegrees>20.67144758999347686767578125</LongitudeDegrees>
            </Position>
            <AltitudeMeters>340.600006103515625</AltitudeMeters>
            <DistanceMeters>NAN</DistanceMeters>
          </Trackpoint>
          <Trackpoint>
            <Time>2022-09-23T08:46:41.000Z</Time>
            <Position>
              <LatitudeDegrees>49.501349888741970062255859375</LatitudeDegrees>
              <LongitudeDegrees>20.67144130356609821319580078125</LongitudeDegrees>
            </Position>
            <AltitudeMeters>341</AltitudeMeters>
            <DistanceMeters>NAN</DistanceMeters>
          </Trackpoint>
          <Trackpoint>
            <Time>2022-09-23T08:46:44.000Z</Time>
            <Position>
              <LatitudeDegrees>49.501349888741970062255859375</LatitudeDegrees>
              <LongitudeDegrees>20.67144130356609821319580078125</LongitudeDegrees>
            </Position>
            <AltitudeMeters>341.600006103515625</AltitudeMeters>
            <DistanceMeters>NAN</DistanceMeters>
          </Trackpoint>
          <Trackpoint>
            <Time>2022-09-23T08:46:46.000Z</Time>
            <Position>
              <LatitudeDegrees>49.50135223567485809326171875</LatitudeDegrees>
              <LongitudeDegrees>20.67143208347260951995849609375</LongitudeDegrees>
            </Position>
            <AltitudeMeters>341.399993896484375</AltitudeMeters>
            <DistanceMeters>NAN</DistanceMeters>
          </Trackpoint>
          <Trackpoint>
            <Time>2022-09-23T08:46:48.000Z</Time>
            <Position>
              <LatitudeDegrees>49.5013728551566600799560546875</LatitudeDegrees>
              <LongitudeDegrees>20.67141213454306125640869140625</LongitudeDegrees>
            </Position>
            <AltitudeMeters>341.399993896484375</AltitudeMeters>
            <DistanceMeters>NAN</DistanceMeters>
          </Trackpoint>
          <Trackpoint>
            <Time>2022-09-23T08:46:50.000Z</Time>
            <Position>
              <LatitudeDegrees>49.50137914158403873443603515625</LatitudeDegrees>
              <LongitudeDegrees>20.67139931023120880126953125</LongitudeDegrees>
            </Position>
            <AltitudeMeters>341.399993896484375</AltitudeMeters>
            <DistanceMeters>NAN</DistanceMeters>
          </Trackpoint>
          <Trackpoint>
            <Time>2022-09-23T08:47:02.000Z</Time>
            <Position>
              <LatitudeDegrees>49.50137914158403873443603515625</LatitudeDegrees>
              <LongitudeDegrees>20.67139931023120880126953125</LongitudeDegrees>
            </Position>
            <AltitudeMeters>341.399993896484375</AltitudeMeters>
            <DistanceMeters>NAN</DistanceMeters>
          </Trackpoint>
          <Trackpoint>
            <Time>2022-09-23T08:47:06.000Z</Time>
            <Position>
              <LatitudeDegrees>49.50137914158403873443603515625</LatitudeDegrees>
              <LongitudeDegrees>20.67139931023120880126953125</LongitudeDegrees>
            </Position>
            <AltitudeMeters>341.399993896484375</AltitudeMeters>
            <DistanceMeters>NAN</DistanceMeters>
          </Trackpoint>
          <Trackpoint>
            <Time>2022-09-23T08:47:32.000Z</Time>
            <Position>
              <LatitudeDegrees>49.50139758177101612091064453125</LatitudeDegrees>
              <LongitudeDegrees>20.67137525416910648345947265625</LongitudeDegrees>
            </Position>
            <AltitudeMeters>341.399993896484375</AltitudeMeters>
            <DistanceMeters>NAN</DistanceMeters>
          </Trackpoint>
          <Trackpoint>
            <Time>2022-09-23T08:47:35.000Z</Time>
            <Position>
              <LatitudeDegrees>49.5014033652842044830322265625</LatitudeDegrees>
              <LongitudeDegrees>20.67136737518012523651123046875</LongitudeDegrees>
            </Position>
            <AltitudeMeters>341.399993896484375</AltitudeMeters>
            <DistanceMeters>NAN</DistanceMeters>
          </Trackpoint>
          <Trackpoint>
            <Time>2022-09-23T08:47:38.000Z</Time>
            <Position>
              <LatitudeDegrees>49.50140344910323619842529296875</LatitudeDegrees>
              <LongitudeDegrees>20.6713672913610935211181640625</LongitudeDegrees>
            </Position>
            <AltitudeMeters>341.399993896484375</AltitudeMeters>
            <DistanceMeters>NAN</DistanceMeters>
          </Trackpoint>
          <Trackpoint>
            <Time>2022-09-23T08:47:46.000Z</Time>
            <Position>
              <LatitudeDegrees>49.50140344910323619842529296875</LatitudeDegrees>
              <LongitudeDegrees>20.6713672913610935211181640625</LongitudeDegrees>
            </Position>
            <AltitudeMeters>346.399993896484375</AltitudeMeters>
            <DistanceMeters>NAN</DistanceMeters>
          </Trackpoint>
          <Trackpoint>
            <Time>2022-09-23T08:47:51.000Z</Time>
            <Position>
              <LatitudeDegrees>49.501433707773685455322265625</LatitudeDegrees>
              <LongitudeDegrees>20.6713082827627658843994140625</LongitudeDegrees>
            </Position>
            <AltitudeMeters>346.600006103515625</AltitudeMeters>
            <DistanceMeters>NAN</DistanceMeters>
          </Trackpoint>
          <Trackpoint>
            <Time>2022-09-23T08:47:56.000Z</Time>
            <Position>
              <LatitudeDegrees>49.50149447657167911529541015625</LatitudeDegrees>
              <LongitudeDegrees>20.6711751781404018402099609375</LongitudeDegrees>
            </Position>
            <AltitudeMeters>347.20001220703125</AltitudeMeters>
            <DistanceMeters>NAN</DistanceMeters>
          </Trackpoint>
          <Trackpoint>
            <Time>2022-09-23T08:47:59.000Z</Time>
            <Position>
              <LatitudeDegrees>49.501522220671176910400390625</LatitudeDegrees>
              <LongitudeDegrees>20.6711195223033428192138671875</LongitudeDegrees>
            </Position>
            <AltitudeMeters>347.399993896484375</AltitudeMeters>
            <DistanceMeters>NAN</DistanceMeters>
          </Trackpoint>
          <Trackpoint>
            <Time>2022-09-23T08:48:04.000Z</Time>
            <Position>
              <LatitudeDegrees>49.5015515573322772979736328125</LatitudeDegrees>
              <LongitudeDegrees>20.67105464637279510498046875</LongitudeDegrees>
            </Position>
            <AltitudeMeters>348</AltitudeMeters>
            <DistanceMeters>NAN</DistanceMeters>
          </Trackpoint>
          <Trackpoint>
            <Time>2022-09-23T08:48:09.000Z</Time>
            <Position>
              <LatitudeDegrees>49.50156689621508121490478515625</LatitudeDegrees>
              <LongitudeDegrees>20.6710263155400753021240234375</LongitudeDegrees>
            </Position>
            <AltitudeMeters>348.20001220703125</AltitudeMeters>
            <DistanceMeters>NAN</DistanceMeters>
          </Trackpoint>
          <Trackpoint>
            <Time>2022-09-23T08:48:14.000Z</Time>
            <Position>
              <LatitudeDegrees>49.50159874744713306427001953125</LatitudeDegrees>
              <LongitudeDegrees>20.670966804027557373046875</LongitudeDegrees>
            </Position>
            <AltitudeMeters>348.399993896484375</AltitudeMeters>
            <DistanceMeters>NAN</DistanceMeters>
          </Trackpoint>
          <Trackpoint>
            <Time>2022-09-23T08:48:18.000Z</Time>
            <Position>
              <LatitudeDegrees>49.50161106884479522705078125</LatitudeDegrees>
              <LongitudeDegrees>20.6709277443587779998779296875</LongitudeDegrees>
            </Position>
            <AltitudeMeters>349</AltitudeMeters>
            <DistanceMeters>NAN</DistanceMeters>
          </Trackpoint>
          <Trackpoint>
            <Time>2022-09-23T08:48:20.000Z</Time>
            <Position>
              <LatitudeDegrees>49.5016400702297687530517578125</LatitudeDegrees>
              <LongitudeDegrees>20.67090067081153392791748046875</LongitudeDegrees>
            </Position>
            <AltitudeMeters>349</AltitudeMeters>
            <DistanceMeters>NAN</DistanceMeters>
          </Trackpoint>
          <Trackpoint>
            <Time>2022-09-23T08:48:24.000Z</Time>
            <Position>
              <LatitudeDegrees>49.50165331363677978515625</LatitudeDegrees>
              <LongitudeDegrees>20.67086446098983287811279296875</LongitudeDegrees>
            </Position>
            <AltitudeMeters>349.600006103515625</AltitudeMeters>
            <DistanceMeters>NAN</DistanceMeters>
          </Trackpoint>
          <Trackpoint>
            <Time>2022-09-23T08:48:25.000Z</Time>
            <Position>
              <LatitudeDegrees>49.5016653835773468017578125</LatitudeDegrees>
              <LongitudeDegrees>20.6708539836108684539794921875</LongitudeDegrees>
            </Position>
            <AltitudeMeters>349.600006103515625</AltitudeMeters>
            <DistanceMeters>NAN</DistanceMeters>
          </Trackpoint>
          <Trackpoint>
            <Time>2022-09-23T08:48:29.000Z</Time>
            <Position>
              <LatitudeDegrees>49.50168776325881481170654296875</LatitudeDegrees>
              <LongitudeDegrees>20.67083872854709625244140625</LongitudeDegrees>
            </Position>
            <AltitudeMeters>350.20001220703125</AltitudeMeters>
            <DistanceMeters>NAN</DistanceMeters>
          </Trackpoint>
          <Trackpoint>
            <Time>2022-09-23T08:48:32.000Z</Time>
            <Position>
              <LatitudeDegrees>49.50168776325881481170654296875</LatitudeDegrees>
              <LongitudeDegrees>20.67083872854709625244140625</LongitudeDegrees>
            </Position>
            <AltitudeMeters>350.600006103515625</AltitudeMeters>
            <DistanceMeters>NAN</DistanceMeters>
          </Trackpoint>
          <Trackpoint>
            <Time>2022-09-23T08:48:35.000Z</Time>
            <Position>
              <LatitudeDegrees>49.50169555842876434326171875</LatitudeDegrees>
              <LongitudeDegrees>20.67080629058182239532470703125</LongitudeDegrees>
            </Position>
            <AltitudeMeters>350.600006103515625</AltitudeMeters>
            <DistanceMeters>NAN</DistanceMeters>
          </Trackpoint>
          <Trackpoint>
            <Time>2022-09-23T08:48:38.000Z</Time>
            <Position>
              <LatitudeDegrees>49.50168759562075138092041015625</LatitudeDegrees>
              <LongitudeDegrees>20.6707041151821613311767578125</LongitudeDegrees>
            </Position>
            <AltitudeMeters>350.79998779296875</AltitudeMeters>
            <DistanceMeters>NAN</DistanceMeters>
          </Trackpoint>
          <Trackpoint>
            <Time>2022-09-23T08:48:40.000Z</Time>
            <Position>
              <LatitudeDegrees>49.50170067138969898223876953125</LatitudeDegrees>
              <LongitudeDegrees>20.67064736969769001007080078125</LongitudeDegrees>
            </Position>
            <AltitudeMeters>350.79998779296875</AltitudeMeters>
            <DistanceMeters>NAN</DistanceMeters>
          </Trackpoint>
          <Trackpoint>
            <Time>2022-09-23T08:48:41.000Z</Time>
            <Position>
              <LatitudeDegrees>49.50170184485614299774169921875</LatitudeDegrees>
              <LongitudeDegrees>20.67063982598483562469482421875</LongitudeDegrees>
            </Position>
            <AltitudeMeters>351</AltitudeMeters>
            <DistanceMeters>NAN</DistanceMeters>
          </Trackpoint>
          <Trackpoint>
            <Time>2022-09-23T08:48:48.000Z</Time>
            <Position>
              <LatitudeDegrees>49.50170184485614299774169921875</LatitudeDegrees>
              <LongitudeDegrees>20.67063982598483562469482421875</LongitudeDegrees>
            </Position>
            <AltitudeMeters>351.20001220703125</AltitudeMeters>
            <DistanceMeters>NAN</DistanceMeters>
          </Trackpoint>
          <Trackpoint>
            <Time>2022-09-23T08:48:57.000Z</Time>
            <Position>
              <LatitudeDegrees>49.50170184485614299774169921875</LatitudeDegrees>
              <LongitudeDegrees>20.67063982598483562469482421875</LongitudeDegrees>
            </Position>
            <AltitudeMeters>351.399993896484375</AltitudeMeters>
            <DistanceMeters>NAN</DistanceMeters>
          </Trackpoint>
          <Trackpoint>
            <Time>2022-09-23T08:48:59.000Z</Time>
            <Position>
              <LatitudeDegrees>49.50170184485614299774169921875</LatitudeDegrees>
              <LongitudeDegrees>20.67063982598483562469482421875</LongitudeDegrees>
            </Position>
            <AltitudeMeters>351.399993896484375</AltitudeMeters>
            <DistanceMeters>NAN</DistanceMeters>
          </Trackpoint>
          <Trackpoint>
            <Time>2022-09-23T08:49:00.000Z</Time>
            <Position>
              <LatitudeDegrees>49.50170184485614299774169921875</LatitudeDegrees>
              <LongitudeDegrees>20.67063982598483562469482421875</LongitudeDegrees>
            </Position>
            <AltitudeMeters>351.399993896484375</AltitudeMeters>
            <DistanceMeters>NAN</DistanceMeters>
          </Trackpoint>
          <Trackpoint>
            <Time>2022-09-23T08:49:09.000Z</Time>
            <Position>
              <LatitudeDegrees>49.50170184485614299774169921875</LatitudeDegrees>
              <LongitudeDegrees>20.67063982598483562469482421875</LongitudeDegrees>
            </Position>
            <AltitudeMeters>351.399993896484375</AltitudeMeters>
            <DistanceMeters>NAN</DistanceMeters>
          </Trackpoint>
          <Trackpoint>
            <Time>2022-09-23T08:49:22.000Z</Time>
            <Position>
              <LatitudeDegrees>49.50170184485614299774169921875</LatitudeDegrees>
              <LongitudeDegrees>20.67063982598483562469482421875</LongitudeDegrees>
            </Position>
            <AltitudeMeters>351.20001220703125</AltitudeMeters>
            <DistanceMeters>NAN</DistanceMeters>
          </Trackpoint>
          <Trackpoint>
            <Time>2022-09-23T08:49:24.000Z</Time>
            <Position>
              <LatitudeDegrees>49.50170184485614299774169921875</LatitudeDegrees>
              <LongitudeDegrees>20.67063982598483562469482421875</LongitudeDegrees>
            </Position>
            <AltitudeMeters>351.20001220703125</AltitudeMeters>
            <DistanceMeters>NAN</DistanceMeters>
          </Trackpoint>
          <Trackpoint>
            <Time>2022-09-23T08:49:29.000Z</Time>
            <Position>
              <LatitudeDegrees>49.50170184485614299774169921875</LatitudeDegrees>
              <LongitudeDegrees>20.67063982598483562469482421875</LongitudeDegrees>
            </Position>
            <AltitudeMeters>351.20001220703125</AltitudeMeters>
            <DistanceMeters>NAN</DistanceMeters>
          </Trackpoint>
          <Trackpoint>
            <Time>2022-09-23T08:49:31.000Z</Time>
            <Position>
              <LatitudeDegrees>49.50170184485614299774169921875</LatitudeDegrees>
              <LongitudeDegrees>20.67063982598483562469482421875</LongitudeDegrees>
            </Position>
            <AltitudeMeters>351.20001220703125</AltitudeMeters>
            <DistanceMeters>NAN</DistanceMeters>
          </Trackpoint>
          <Trackpoint>
            <Time>2022-09-23T08:49:48.000Z</Time>
            <Position>
              <LatitudeDegrees>49.50170184485614299774169921875</LatitudeDegrees>
              <LongitudeDegrees>20.67063982598483562469482421875</LongitudeDegrees>
            </Position>
            <AltitudeMeters>351.600006103515625</AltitudeMeters>
            <DistanceMeters>NAN</DistanceMeters>
          </Trackpoint>
          <Trackpoint>
            <Time>2022-09-23T08:49:49.000Z</Time>
            <Position>
              <LatitudeDegrees>49.50170335359871387481689453125</LatitudeDegrees>
              <LongitudeDegrees>20.670637227594852447509765625</LongitudeDegrees>
            </Position>
            <AltitudeMeters>351.600006103515625</AltitudeMeters>
            <DistanceMeters>NAN</DistanceMeters>
          </Trackpoint>
          <Trackpoint>
            <Time>2022-09-23T08:49:52.000Z</Time>
            <Position>
              <LatitudeDegrees>49.50172414071857929229736328125</LatitudeDegrees>
              <LongitudeDegrees>20.6705897860229015350341796875</LongitudeDegrees>
            </Position>
            <AltitudeMeters>351.600006103515625</AltitudeMeters>
            <DistanceMeters>NAN</DistanceMeters>
          </Trackpoint>
          <Trackpoint>
            <Time>2022-09-23T08:50:00.000Z</Time>
            <Position>
              <LatitudeDegrees>49.50174777768552303314208984375</LatitudeDegrees>
              <LongitudeDegrees>20.670535974204540252685546875</LongitudeDegrees>
            </Position>
            <AltitudeMeters>352</AltitudeMeters>
            <DistanceMeters>NAN</DistanceMeters>
          </Trackpoint>
          <Trackpoint>
            <Time>2022-09-23T08:50:05.000Z</Time>
            <Position>
              <LatitudeDegrees>49.50176370330154895782470703125</LatitudeDegrees>
              <LongitudeDegrees>20.670491047203540802001953125</LongitudeDegrees>
            </Position>
            <AltitudeMeters>352.600006103515625</AltitudeMeters>
            <DistanceMeters>NAN</DistanceMeters>
          </Trackpoint>
          <Trackpoint>
            <Time>2022-09-23T08:50:06.000Z</Time>
            <Position>
              <LatitudeDegrees>49.501764290034770965576171875</LatitudeDegrees>
              <LongitudeDegrees>20.67048056982457637786865234375</LongitudeDegrees>
            </Position>
            <AltitudeMeters>352.79998779296875</AltitudeMeters>
            <DistanceMeters>NAN</DistanceMeters>
          </Trackpoint>
          <Trackpoint>
            <Time>2022-09-23T08:50:12.000Z</Time>
            <Position>
              <LatitudeDegrees>49.5017983205616474151611328125</LatitudeDegrees>
              <LongitudeDegrees>20.67042860202491283416748046875</LongitudeDegrees>
            </Position>
            <AltitudeMeters>353.600006103515625</AltitudeMeters>
            <DistanceMeters>NAN</DistanceMeters>
          </Trackpoint>
          <Trackpoint>
            <Time>2022-09-23T08:50:13.000Z</Time>
            <Position>
              <LatitudeDegrees>49.50180041603744029998779296875</LatitudeDegrees>
              <LongitudeDegrees>20.6704265065491199493408203125</LongitudeDegrees>
            </Position>
            <AltitudeMeters>353.79998779296875</AltitudeMeters>
            <DistanceMeters>NAN</DistanceMeters>
          </Trackpoint>
          <Trackpoint>
            <Time>2022-09-23T08:50:19.000Z</Time>
            <Position>
              <LatitudeDegrees>49.50180192478001117706298828125</LatitudeDegrees>
              <LongitudeDegrees>20.6704238243401050567626953125</LongitudeDegrees>
            </Position>
            <AltitudeMeters>354.600006103515625</AltitudeMeters>
            <DistanceMeters>NAN</DistanceMeters>
          </Trackpoint>
          <Trackpoint>
            <Time>2022-09-23T08:50:20.000Z</Time>
            <Position>
              <LatitudeDegrees>49.50180192478001117706298828125</LatitudeDegrees>
              <LongitudeDegrees>20.6704238243401050567626953125</LongitudeDegrees>
            </Position>
            <AltitudeMeters>354.79998779296875</AltitudeMeters>
            <DistanceMeters>NAN</DistanceMeters>
          </Trackpoint>
          <Trackpoint>
            <Time>2022-09-23T08:50:28.000Z</Time>
            <Position>
              <LatitudeDegrees>49.5018343627452850341796875</LatitudeDegrees>
              <LongitudeDegrees>20.67036221735179424285888671875</LongitudeDegrees>
            </Position>
            <AltitudeMeters>355.79998779296875</AltitudeMeters>
            <DistanceMeters>NAN</DistanceMeters>
          </Trackpoint>
          <Trackpoint>
            <Time>2022-09-23T08:50:29.000Z</Time>
            <Position>
              <LatitudeDegrees>49.5018343627452850341796875</LatitudeDegrees>
              <LongitudeDegrees>20.67036221735179424285888671875</LongitudeDegrees>
            </Position>
            <AltitudeMeters>356</AltitudeMeters>
            <DistanceMeters>NAN</DistanceMeters>
          </Trackpoint>
          <Trackpoint>
            <Time>2022-09-23T08:50:34.000Z</Time>
            <Position>
              <LatitudeDegrees>49.5018343627452850341796875</LatitudeDegrees>
              <LongitudeDegrees>20.67036221735179424285888671875</LongitudeDegrees>
            </Position>
            <AltitudeMeters>356.20001220703125</AltitudeMeters>
            <DistanceMeters>NAN</DistanceMeters>
          </Trackpoint>
          <Trackpoint>
            <Time>2022-09-23T08:50:37.000Z</Time>
            <Position>
              <LatitudeDegrees>49.5018343627452850341796875</LatitudeDegrees>
              <LongitudeDegrees>20.67036221735179424285888671875</LongitudeDegrees>
            </Position>
            <AltitudeMeters>356.399993896484375</AltitudeMeters>
            <DistanceMeters>NAN</DistanceMeters>
          </Trackpoint>
          <Trackpoint>
            <Time>2022-09-23T08:50:45.000Z</Time>
            <Position>
              <LatitudeDegrees>49.5018343627452850341796875</LatitudeDegrees>
              <LongitudeDegrees>20.67036221735179424285888671875</LongitudeDegrees>
            </Position>
            <AltitudeMeters>357</AltitudeMeters>
            <DistanceMeters>NAN</DistanceMeters>
          </Trackpoint>
          <Trackpoint>
            <Time>2022-09-23T08:50:49.000Z</Time>
            <Position>
              <LatitudeDegrees>49.5018343627452850341796875</LatitudeDegrees>
              <LongitudeDegrees>20.67035861313343048095703125</LongitudeDegrees>
            </Position>
            <AltitudeMeters>357.399993896484375</AltitudeMeters>
            <DistanceMeters>NAN</DistanceMeters>
          </Trackpoint>
          <Trackpoint>
            <Time>2022-09-23T08:50:51.000Z</Time>
            <Position>
              <LatitudeDegrees>49.50183511711657047271728515625</LatitudeDegrees>
              <LongitudeDegrees>20.67034964449703693389892578125</LongitudeDegrees>
            </Position>
            <AltitudeMeters>357.600006103515625</AltitudeMeters>
            <DistanceMeters>NAN</DistanceMeters>
          </Trackpoint>
          <Trackpoint>
            <Time>2022-09-23T08:50:54.000Z</Time>
            <Position>
              <LatitudeDegrees>49.50183645822107791900634765625</LatitudeDegrees>
              <LongitudeDegrees>20.670338831841945648193359375</LongitudeDegrees>
            </Position>
            <AltitudeMeters>358</AltitudeMeters>
            <DistanceMeters>NAN</DistanceMeters>
          </Trackpoint>
          <Trackpoint>
            <Time>2022-09-23T08:50:59.000Z</Time>
            <Position>
              <LatitudeDegrees>49.5018385536968708038330078125</LatitudeDegrees>
              <LongitudeDegrees>20.67033355124294757843017578125</LongitudeDegrees>
            </Position>
            <AltitudeMeters>358.600006103515625</AltitudeMeters>
            <DistanceMeters>NAN</DistanceMeters>
          </Trackpoint>
          <Trackpoint>
            <Time>2022-09-23T08:51:04.000Z</Time>
            <Position>
              <LatitudeDegrees>49.501860179007053375244140625</LatitudeDegrees>
              <LongitudeDegrees>20.67026607692241668701171875</LongitudeDegrees>
            </Position>
            <AltitudeMeters>359.20001220703125</AltitudeMeters>
            <DistanceMeters>NAN</DistanceMeters>
          </Trackpoint>
          <Trackpoint>
            <Time>2022-09-23T08:51:06.000Z</Time>
            <Position>
              <LatitudeDegrees>49.50186780653893947601318359375</LatitudeDegrees>
              <LongitudeDegrees>20.67024051211774349212646484375</LongitudeDegrees>
            </Position>
            <AltitudeMeters>359.399993896484375</AltitudeMeters>
            <DistanceMeters>NAN</DistanceMeters>
          </Trackpoint>
          <Trackpoint>
            <Time>2022-09-23T08:51:10.000Z</Time>
            <Position>
              <LatitudeDegrees>49.50188138522207736968994140625</LatitudeDegrees>
              <LongitudeDegrees>20.67018921487033367156982421875</LongitudeDegrees>
            </Position>
            <AltitudeMeters>359.399993896484375</AltitudeMeters>
            <DistanceMeters>NAN</DistanceMeters>
          </Trackpoint>
          <Trackpoint>
            <Time>2022-09-23T08:51:14.000Z</Time>
            <Position>
              <LatitudeDegrees>49.5018935389816761016845703125</LatitudeDegrees>
              <LongitudeDegrees>20.67013976164162158966064453125</LongitudeDegrees>
            </Position>
            <AltitudeMeters>359.79998779296875</AltitudeMeters>
            <DistanceMeters>NAN</DistanceMeters>
          </Trackpoint>
          <Trackpoint>
            <Time>2022-09-23T08:51:17.000Z</Time>
            <Position>
              <LatitudeDegrees>49.50189379043877124786376953125</LatitudeDegrees>
              <LongitudeDegrees>20.670136995613574981689453125</LongitudeDegrees>
            </Position>
            <AltitudeMeters>360</AltitudeMeters>
            <DistanceMeters>NAN</DistanceMeters>
          </Trackpoint>
          <Trackpoint>
            <Time>2022-09-23T08:51:19.000Z</Time>
            <Position>
              <LatitudeDegrees>49.50189379043877124786376953125</LatitudeDegrees>
              <LongitudeDegrees>20.670136995613574981689453125</LongitudeDegrees>
            </Position>
            <AltitudeMeters>360.20001220703125</AltitudeMeters>
            <DistanceMeters>NAN</DistanceMeters>
          </Trackpoint>
          <Trackpoint>
            <Time>2022-09-23T08:51:21.000Z</Time>
            <Position>
              <LatitudeDegrees>49.50189379043877124786376953125</LatitudeDegrees>
              <LongitudeDegrees>20.670136995613574981689453125</LongitudeDegrees>
            </Position>
            <AltitudeMeters>360.399993896484375</AltitudeMeters>
            <DistanceMeters>NAN</DistanceMeters>
          </Trackpoint>
          <Trackpoint>
            <Time>2022-09-23T08:51:29.000Z</Time>
            <Position>
              <LatitudeDegrees>49.50192480348050594329833984375</LatitudeDegrees>
              <LongitudeDegrees>20.6700707785785198211669921875</LongitudeDegrees>
            </Position>
            <AltitudeMeters>361.20001220703125</AltitudeMeters>
            <DistanceMeters>NAN</DistanceMeters>
          </Trackpoint>
          <Trackpoint>
            <Time>2022-09-23T08:51:30.000Z</Time>
            <Position>
              <LatitudeDegrees>49.50193301774561405181884765625</LatitudeDegrees>
              <LongitudeDegrees>20.67005057819187641143798828125</LongitudeDegrees>
            </Position>
            <AltitudeMeters>361.399993896484375</AltitudeMeters>
            <DistanceMeters>NAN</DistanceMeters>
          </Trackpoint>
          <Trackpoint>
            <Time>2022-09-23T08:51:35.000Z</Time>
            <Position>
              <LatitudeDegrees>49.50196872465312480926513671875</LatitudeDegrees>
              <LongitudeDegrees>20.6699564494192600250244140625</LongitudeDegrees>
            </Position>
            <AltitudeMeters>362</AltitudeMeters>
            <DistanceMeters>NAN</DistanceMeters>
          </Trackpoint>
          <Trackpoint>
            <Time>2022-09-23T08:51:39.000Z</Time>
            <Position>
              <LatitudeDegrees>49.50198381207883358001708984375</LatitudeDegrees>
              <LongitudeDegrees>20.669909007847309112548828125</LongitudeDegrees>
            </Position>
            <AltitudeMeters>362.399993896484375</AltitudeMeters>
            <DistanceMeters>NAN</DistanceMeters>
          </Trackpoint>
          <Trackpoint>
            <Time>2022-09-23T08:51:44.000Z</Time>
            <Position>
              <LatitudeDegrees>49.5019994862377643585205078125</LatitudeDegrees>
              <LongitudeDegrees>20.66985343582928180694580078125</LongitudeDegrees>
            </Position>
            <AltitudeMeters>362.79998779296875</AltitudeMeters>
            <DistanceMeters>NAN</DistanceMeters>
          </Trackpoint>
          <Trackpoint>
            <Time>2022-09-23T08:51:48.000Z</Time>
            <Position>
              <LatitudeDegrees>49.50200736522674560546875</LatitudeDegrees>
              <LongitudeDegrees>20.669834911823272705078125</LongitudeDegrees>
            </Position>
            <AltitudeMeters>363.399993896484375</AltitudeMeters>
            <DistanceMeters>NAN</DistanceMeters>
          </Trackpoint>
          <Trackpoint>
            <Time>2022-09-23T08:51:56.000Z</Time>
            <Position>
              <LatitudeDegrees>49.50202521868050098419189453125</LatitudeDegrees>
              <LongitudeDegrees>20.66981890238821506500244140625</LongitudeDegrees>
            </Position>
            <AltitudeMeters>364</AltitudeMeters>
            <DistanceMeters>NAN</DistanceMeters>
          </Trackpoint>
          <Trackpoint>
            <Time>2022-09-23T08:51:57.000Z</Time>
            <Position>
              <LatitudeDegrees>49.50202521868050098419189453125</LatitudeDegrees>
              <LongitudeDegrees>20.66981890238821506500244140625</LongitudeDegrees>
            </Position>
            <AltitudeMeters>364</AltitudeMeters>
            <DistanceMeters>NAN</DistanceMeters>
          </Trackpoint>
          <Trackpoint>
            <Time>2022-09-23T08:51:58.000Z</Time>
            <Position>
              <LatitudeDegrees>49.50202521868050098419189453125</LatitudeDegrees>
              <LongitudeDegrees>20.66981890238821506500244140625</LongitudeDegrees>
            </Position>
            <AltitudeMeters>364</AltitudeMeters>
            <DistanceMeters>NAN</DistanceMeters>
          </Trackpoint>
          <Trackpoint>
            <Time>2022-09-23T08:51:59.000Z</Time>
            <Position>
              <LatitudeDegrees>49.50202521868050098419189453125</LatitudeDegrees>
              <LongitudeDegrees>20.66981890238821506500244140625</LongitudeDegrees>
            </Position>
            <AltitudeMeters>364.20001220703125</AltitudeMeters>
            <DistanceMeters>NAN</DistanceMeters>
          </Trackpoint>
          <Trackpoint>
            <Time>2022-09-23T08:52:00.000Z</Time>
            <Position>
              <LatitudeDegrees>49.50202521868050098419189453125</LatitudeDegrees>
              <LongitudeDegrees>20.66981890238821506500244140625</LongitudeDegrees>
            </Position>
            <AltitudeMeters>364.20001220703125</AltitudeMeters>
            <DistanceMeters>NAN</DistanceMeters>
          </Trackpoint>
          <Trackpoint>
            <Time>2022-09-23T08:52:03.000Z</Time>
            <Position>
              <LatitudeDegrees>49.502026475965976715087890625</LatitudeDegrees>
              <LongitudeDegrees>20.6698163039982318878173828125</LongitudeDegrees>
            </Position>
            <AltitudeMeters>364.399993896484375</AltitudeMeters>
            <DistanceMeters>NAN</DistanceMeters>
          </Trackpoint>
          <Trackpoint>
            <Time>2022-09-23T08:52:06.000Z</Time>
            <Position>
              <LatitudeDegrees>49.502026475965976715087890625</LatitudeDegrees>
              <LongitudeDegrees>20.6698163039982318878173828125</LongitudeDegrees>
            </Position>
            <AltitudeMeters>364.79998779296875</AltitudeMeters>
            <DistanceMeters>NAN</DistanceMeters>
          </Trackpoint>
          <Trackpoint>
            <Time>2022-09-23T08:52:11.000Z</Time>
            <Position>
              <LatitudeDegrees>49.502029828727245330810546875</LatitudeDegrees>
              <LongitudeDegrees>20.66980800591409206390380859375</LongitudeDegrees>
            </Position>
            <AltitudeMeters>365.399993896484375</AltitudeMeters>
            <DistanceMeters>NAN</DistanceMeters>
          </Trackpoint>
          <Trackpoint>
            <Time>2022-09-23T08:52:13.000Z</Time>
            <Position>
              <LatitudeDegrees>49.5020350255072116851806640625</LatitudeDegrees>
              <LongitudeDegrees>20.669796355068683624267578125</LongitudeDegrees>
            </Position>
            <AltitudeMeters>365.600006103515625</AltitudeMeters>
            <DistanceMeters>NAN</DistanceMeters>
          </Trackpoint>
          <Trackpoint>
            <Time>2022-09-23T08:52:16.000Z</Time>
            <Position>
              <LatitudeDegrees>49.5020350255072116851806640625</LatitudeDegrees>
              <LongitudeDegrees>20.669796355068683624267578125</LongitudeDegrees>
            </Position>
            <AltitudeMeters>366</AltitudeMeters>
            <DistanceMeters>NAN</DistanceMeters>
          </Trackpoint>
          <Trackpoint>
            <Time>2022-09-23T08:52:20.000Z</Time>
            <Position>
              <LatitudeDegrees>49.50204231776297092437744140625</LatitudeDegrees>
              <LongitudeDegrees>20.669772215187549591064453125</LongitudeDegrees>
            </Position>
            <AltitudeMeters>366.600006103515625</AltitudeMeters>
            <DistanceMeters>NAN</DistanceMeters>
          </Trackpoint>
          <Trackpoint>
            <Time>2022-09-23T08:52:30.000Z</Time>
            <Position>
              <LatitudeDegrees>49.502137117087841033935546875</LatitudeDegrees>
              <LongitudeDegrees>20.66958068870007991790771484375</LongitudeDegrees>
            </Position>
            <AltitudeMeters>367.399993896484375</AltitudeMeters>
            <DistanceMeters>NAN</DistanceMeters>
          </Trackpoint>
          <Trackpoint>
            <Time>2022-09-23T08:52:31.000Z</Time>
            <Position>
              <LatitudeDegrees>49.5021535456180572509765625</LatitudeDegrees>
              <LongitudeDegrees>20.669554285705089569091796875</LongitudeDegrees>
            </Position>
            <AltitudeMeters>367.600006103515625</AltitudeMeters>
            <DistanceMeters>NAN</DistanceMeters>
          </Trackpoint>
          <Trackpoint>
            <Time>2022-09-23T08:52:34.000Z</Time>
            <Position>
              <LatitudeDegrees>49.50217760168015956878662109375</LatitudeDegrees>
              <LongitudeDegrees>20.669512040913105010986328125</LongitudeDegrees>
            </Position>
            <AltitudeMeters>367.79998779296875</AltitudeMeters>
            <DistanceMeters>NAN</DistanceMeters>
          </Trackpoint>
          <Trackpoint>
            <Time>2022-09-23T08:52:38.000Z</Time>
            <Position>
              <LatitudeDegrees>49.5021964609622955322265625</LatitudeDegrees>
              <LongitudeDegrees>20.669483207166194915771484375</LongitudeDegrees>
            </Position>
            <AltitudeMeters>368.20001220703125</AltitudeMeters>
            <DistanceMeters>NAN</DistanceMeters>
          </Trackpoint>
          <Trackpoint>
            <Time>2022-09-23T08:52:40.000Z</Time>
            <Position>
              <LatitudeDegrees>49.5021993108093738555908203125</LatitudeDegrees>
              <LongitudeDegrees>20.6694414652884006500244140625</LongitudeDegrees>
            </Position>
            <AltitudeMeters>368.399993896484375</AltitudeMeters>
            <DistanceMeters>NAN</DistanceMeters>
          </Trackpoint>
          <Trackpoint>
            <Time>2022-09-23T08:52:42.000Z</Time>
            <Position>
              <LatitudeDegrees>49.50220945291221141815185546875</LatitudeDegrees>
              <LongitudeDegrees>20.66940232180058956146240234375</LongitudeDegrees>
            </Position>
            <AltitudeMeters>368.600006103515625</AltitudeMeters>
            <DistanceMeters>NAN</DistanceMeters>
          </Trackpoint>
          <Trackpoint>
            <Time>2022-09-23T08:52:43.000Z</Time>
            <Position>
              <LatitudeDegrees>49.5022194273769855499267578125</LatitudeDegrees>
              <LongitudeDegrees>20.66939393989741802215576171875</LongitudeDegrees>
            </Position>
            <AltitudeMeters>368.79998779296875</AltitudeMeters>
            <DistanceMeters>NAN</DistanceMeters>
          </Trackpoint>
          <Trackpoint>
            <Time>2022-09-23T08:52:46.000Z</Time>
            <Position>
              <LatitudeDegrees>49.50224943459033966064453125</LatitudeDegrees>
              <LongitudeDegrees>20.6693589873611927032470703125</LongitudeDegrees>
            </Position>
            <AltitudeMeters>369</AltitudeMeters>
            <DistanceMeters>NAN</DistanceMeters>
          </Trackpoint>
          <Trackpoint>
            <Time>2022-09-23T08:52:49.000Z</Time>
            <Position>
              <LatitudeDegrees>49.5022794418036937713623046875</LatitudeDegrees>
              <LongitudeDegrees>20.6693214364349842071533203125</LongitudeDegrees>
            </Position>
            <AltitudeMeters>369</AltitudeMeters>
            <DistanceMeters>NAN</DistanceMeters>
          </Trackpoint>
          <Trackpoint>
            <Time>2022-09-23T08:52:50.000Z</Time>
            <Position>
              <LatitudeDegrees>49.502283297479152679443359375</LatitudeDegrees>
              <LongitudeDegrees>20.669309534132480621337890625</LongitudeDegrees>
            </Position>
            <AltitudeMeters>369.20001220703125</AltitudeMeters>
            <DistanceMeters>NAN</DistanceMeters>
          </Trackpoint>
          <Trackpoint>
            <Time>2022-09-23T08:52:55.000Z</Time>
            <Position>
              <LatitudeDegrees>49.5023173280060291290283203125</LatitudeDegrees>
              <LongitudeDegrees>20.6692971289157867431640625</LongitudeDegrees>
            </Position>
            <AltitudeMeters>369.79998779296875</AltitudeMeters>
            <DistanceMeters>NAN</DistanceMeters>
          </Trackpoint>
          <Trackpoint>
            <Time>2022-09-23T08:52:58.000Z</Time>
            <Position>
              <LatitudeDegrees>49.50232160277664661407470703125</LatitudeDegrees>
              <LongitudeDegrees>20.669286064803600311279296875</LongitudeDegrees>
            </Position>
            <AltitudeMeters>370</AltitudeMeters>
            <DistanceMeters>NAN</DistanceMeters>
          </Trackpoint>
          <Trackpoint>
            <Time>2022-09-23T08:53:01.000Z</Time>
            <Position>
              <LatitudeDegrees>49.50232160277664661407470703125</LatitudeDegrees>
              <LongitudeDegrees>20.669286064803600311279296875</LongitudeDegrees>
            </Position>
            <AltitudeMeters>370.399993896484375</AltitudeMeters>
            <DistanceMeters>NAN</DistanceMeters>
          </Trackpoint>
          <Trackpoint>
            <Time>2022-09-23T08:53:02.000Z</Time>
            <Position>
              <LatitudeDegrees>49.50232160277664661407470703125</LatitudeDegrees>
              <LongitudeDegrees>20.669286064803600311279296875</LongitudeDegrees>
            </Position>
            <AltitudeMeters>370.399993896484375</AltitudeMeters>
            <DistanceMeters>NAN</DistanceMeters>
          </Trackpoint>
          <Trackpoint>
            <Time>2022-09-23T08:53:06.000Z</Time>
            <Position>
              <LatitudeDegrees>49.50232160277664661407470703125</LatitudeDegrees>
              <LongitudeDegrees>20.669286064803600311279296875</LongitudeDegrees>
            </Position>
            <AltitudeMeters>370.600006103515625</AltitudeMeters>
            <DistanceMeters>NAN</DistanceMeters>
          </Trackpoint>
          <Trackpoint>
            <Time>2022-09-23T08:53:07.000Z</Time>
            <Position>
              <LatitudeDegrees>49.50232160277664661407470703125</LatitudeDegrees>
              <LongitudeDegrees>20.669286064803600311279296875</LongitudeDegrees>
            </Position>
            <AltitudeMeters>370.79998779296875</AltitudeMeters>
            <DistanceMeters>NAN</DistanceMeters>
          </Trackpoint>
          <Trackpoint>
            <Time>2022-09-23T08:53:11.000Z</Time>
            <Position>
              <LatitudeDegrees>49.50232160277664661407470703125</LatitudeDegrees>
              <LongitudeDegrees>20.669286064803600311279296875</LongitudeDegrees>
            </Position>
            <AltitudeMeters>371.20001220703125</AltitudeMeters>
            <DistanceMeters>NAN</DistanceMeters>
          </Trackpoint>
          <Trackpoint>
            <Time>2022-09-23T08:53:13.000Z</Time>
            <Position>
              <LatitudeDegrees>49.50232160277664661407470703125</LatitudeDegrees>
              <LongitudeDegrees>20.669286064803600311279296875</LongitudeDegrees>
            </Position>
            <AltitudeMeters>371.399993896484375</AltitudeMeters>
            <DistanceMeters>NAN</DistanceMeters>
          </Trackpoint>
          <Trackpoint>
            <Time>2022-09-23T08:53:16.000Z</Time>
            <Position>
              <LatitudeDegrees>49.50232160277664661407470703125</LatitudeDegrees>
              <LongitudeDegrees>20.669286064803600311279296875</LongitudeDegrees>
            </Position>
            <AltitudeMeters>371.600006103515625</AltitudeMeters>
            <DistanceMeters>NAN</DistanceMeters>
          </Trackpoint>
          <Trackpoint>
            <Time>2022-09-23T08:53:19.000Z</Time>
            <Position>
              <LatitudeDegrees>49.50232160277664661407470703125</LatitudeDegrees>
              <LongitudeDegrees>20.669286064803600311279296875</LongitudeDegrees>
            </Position>
            <AltitudeMeters>371.79998779296875</AltitudeMeters>
            <DistanceMeters>NAN</DistanceMeters>
          </Trackpoint>
          <Trackpoint>
            <Time>2022-09-23T08:53:20.000Z</Time>
            <Position>
              <LatitudeDegrees>49.50232160277664661407470703125</LatitudeDegrees>
              <LongitudeDegrees>20.669286064803600311279296875</LongitudeDegrees>
            </Position>
            <AltitudeMeters>372</AltitudeMeters>
            <DistanceMeters>NAN</DistanceMeters>
          </Trackpoint>
          <Trackpoint>
            <Time>2022-09-23T08:53:33.000Z</Time>
            <Position>
              <LatitudeDegrees>49.502337612211704254150390625</LatitudeDegrees>
              <LongitudeDegrees>20.6692895852029323577880859375</LongitudeDegrees>
            </Position>
            <AltitudeMeters>372</AltitudeMeters>
            <DistanceMeters>NAN</DistanceMeters>
          </Trackpoint>
          <Trackpoint>
            <Time>2022-09-23T08:53:35.000Z</Time>
            <Position>
              <LatitudeDegrees>49.5023293979465961456298828125</LatitudeDegrees>
              <LongitudeDegrees>20.66929201595485210418701171875</LongitudeDegrees>
            </Position>
            <AltitudeMeters>372</AltitudeMeters>
            <DistanceMeters>NAN</DistanceMeters>
          </Trackpoint>
          <Trackpoint>
            <Time>2022-09-23T08:53:36.000Z</Time>
            <Position>
              <LatitudeDegrees>49.50232512317597866058349609375</LatitudeDegrees>
              <LongitudeDegrees>20.6692917644977569580078125</LongitudeDegrees>
            </Position>
            <AltitudeMeters>372</AltitudeMeters>
            <DistanceMeters>NAN</DistanceMeters>
          </Trackpoint>
          <Trackpoint>
            <Time>2022-09-23T08:53:38.000Z</Time>
            <Position>
              <LatitudeDegrees>49.50232512317597866058349609375</LatitudeDegrees>
              <LongitudeDegrees>20.6692917644977569580078125</LongitudeDegrees>
            </Position>
            <AltitudeMeters>372</AltitudeMeters>
            <DistanceMeters>NAN</DistanceMeters>
          </Trackpoint>
          <Trackpoint>
            <Time>2022-09-23T08:53:39.000Z</Time>
            <Position>
              <LatitudeDegrees>49.50232512317597866058349609375</LatitudeDegrees>
              <LongitudeDegrees>20.6692917644977569580078125</LongitudeDegrees>
            </Position>
            <AltitudeMeters>371.79998779296875</AltitudeMeters>
            <DistanceMeters>NAN</DistanceMeters>
          </Trackpoint>
          <Trackpoint>
            <Time>2022-09-23T08:53:47.000Z</Time>
            <Position>
              <LatitudeDegrees>49.50228522531688213348388671875</LatitudeDegrees>
              <LongitudeDegrees>20.6693137250840663909912109375</LongitudeDegrees>
            </Position>
            <AltitudeMeters>370.79998779296875</AltitudeMeters>
            <DistanceMeters>NAN</DistanceMeters>
          </Trackpoint>
          <Trackpoint>
            <Time>2022-09-23T08:53:48.000Z</Time>
            <Position>
              <LatitudeDegrees>49.50227432884275913238525390625</LatitudeDegrees>
              <LongitudeDegrees>20.66931967623531818389892578125</LongitudeDegrees>
            </Position>
            <AltitudeMeters>370.79998779296875</AltitudeMeters>
            <DistanceMeters>NAN</DistanceMeters>
          </Trackpoint>
          <Trackpoint>
            <Time>2022-09-23T08:53:54.000Z</Time>
            <Position>
              <LatitudeDegrees>49.5022254623472690582275390625</LatitudeDegrees>
              <LongitudeDegrees>20.66937466152012348175048828125</LongitudeDegrees>
            </Position>
            <AltitudeMeters>369.600006103515625</AltitudeMeters>
            <DistanceMeters>NAN</DistanceMeters>
          </Trackpoint>
          <Trackpoint>
            <Time>2022-09-23T08:53:57.000Z</Time>
            <Position>
              <LatitudeDegrees>49.5022164098918437957763671875</LatitudeDegrees>
              <LongitudeDegrees>20.669399388134479522705078125</LongitudeDegrees>
            </Position>
            <AltitudeMeters>369.399993896484375</AltitudeMeters>
            <DistanceMeters>NAN</DistanceMeters>
          </Trackpoint>
          <Trackpoint>
            <Time>2022-09-23T08:54:00.000Z</Time>
            <Position>
              <LatitudeDegrees>49.50220207683742046356201171875</LatitudeDegrees>
              <LongitudeDegrees>20.6694312393665313720703125</LongitudeDegrees>
            </Position>
            <AltitudeMeters>369</AltitudeMeters>
            <DistanceMeters>NAN</DistanceMeters>
          </Trackpoint>
          <Trackpoint>
            <Time>2022-09-23T08:54:03.000Z</Time>
            <Position>
              <LatitudeDegrees>49.50218095444142818450927734375</LatitudeDegrees>
              <LongitudeDegrees>20.6694793514907360076904296875</LongitudeDegrees>
            </Position>
            <AltitudeMeters>368.600006103515625</AltitudeMeters>
            <DistanceMeters>NAN</DistanceMeters>
          </Trackpoint>
          <Trackpoint>
            <Time>2022-09-23T08:54:04.000Z</Time>
            <Position>
              <LatitudeDegrees>49.50217642821371555328369140625</LatitudeDegrees>
              <LongitudeDegrees>20.66949016414582729339599609375</LongitudeDegrees>
            </Position>
            <AltitudeMeters>368.600006103515625</AltitudeMeters>
            <DistanceMeters>NAN</DistanceMeters>
          </Trackpoint>
          <Trackpoint>
            <Time>2022-09-23T08:54:11.000Z</Time>
            <Position>
              <LatitudeDegrees>49.50216100551187992095947265625</LatitudeDegrees>
              <LongitudeDegrees>20.669532828032970428466796875</LongitudeDegrees>
            </Position>
            <AltitudeMeters>368</AltitudeMeters>
            <DistanceMeters>NAN</DistanceMeters>
          </Trackpoint>
          <Trackpoint>
            <Time>2022-09-23T08:54:18.000Z</Time>
            <Position>
              <LatitudeDegrees>49.50216100551187992095947265625</LatitudeDegrees>
              <LongitudeDegrees>20.669532828032970428466796875</LongitudeDegrees>
            </Position>
            <AltitudeMeters>368</AltitudeMeters>
            <DistanceMeters>NAN</DistanceMeters>
          </Trackpoint>
          <Trackpoint>
            <Time>2022-09-23T08:54:24.000Z</Time>
            <Position>
              <LatitudeDegrees>49.50216100551187992095947265625</LatitudeDegrees>
              <LongitudeDegrees>20.669532828032970428466796875</LongitudeDegrees>
            </Position>
            <AltitudeMeters>368</AltitudeMeters>
            <DistanceMeters>NAN</DistanceMeters>
          </Trackpoint>
          <Trackpoint>
            <Time>2022-09-23T08:54:25.000Z</Time>
            <Position>
              <LatitudeDegrees>49.50216100551187992095947265625</LatitudeDegrees>
              <LongitudeDegrees>20.669532828032970428466796875</LongitudeDegrees>
            </Position>
            <AltitudeMeters>367.79998779296875</AltitudeMeters>
            <DistanceMeters>NAN</DistanceMeters>
          </Trackpoint>
          <Trackpoint>
            <Time>2022-09-23T08:54:39.000Z</Time>
            <Position>
              <LatitudeDegrees>49.50216100551187992095947265625</LatitudeDegrees>
              <LongitudeDegrees>20.669532828032970428466796875</LongitudeDegrees>
            </Position>
            <AltitudeMeters>367.79998779296875</AltitudeMeters>
            <DistanceMeters>NAN</DistanceMeters>
          </Trackpoint>
          <Trackpoint>
            <Time>2022-09-23T08:54:40.000Z</Time>
            <Position>
              <LatitudeDegrees>49.50215966440737247467041015625</LatitudeDegrees>
              <LongitudeDegrees>20.66953492350876331329345703125</LongitudeDegrees>
            </Position>
            <AltitudeMeters>367.600006103515625</AltitudeMeters>
            <DistanceMeters>NAN</DistanceMeters>
          </Trackpoint>
          <Trackpoint>
            <Time>2022-09-23T08:54:41.000Z</Time>
            <Position>
              <LatitudeDegrees>49.50213787145912647247314453125</LatitudeDegrees>
              <LongitudeDegrees>20.66957331262528896331787109375</LongitudeDegrees>
            </Position>
            <AltitudeMeters>367.600006103515625</AltitudeMeters>
            <DistanceMeters>NAN</DistanceMeters>
          </Trackpoint>
          <Trackpoint>
            <Time>2022-09-23T08:54:42.000Z</Time>
            <Position>
              <LatitudeDegrees>49.50211406685411930084228515625</LatitudeDegrees>
              <LongitudeDegrees>20.66961823962628841400146484375</LongitudeDegrees>
            </Position>
            <AltitudeMeters>367.600006103515625</AltitudeMeters>
            <DistanceMeters>NAN</DistanceMeters>
          </Trackpoint>
          <Trackpoint>
            <Time>2022-09-23T08:54:45.000Z</Time>
            <Position>
              <LatitudeDegrees>49.50205103494226932525634765625</LatitudeDegrees>
              <LongitudeDegrees>20.66977749578654766082763671875</LongitudeDegrees>
            </Position>
            <AltitudeMeters>366.20001220703125</AltitudeMeters>
            <DistanceMeters>NAN</DistanceMeters>
          </Trackpoint>
          <Trackpoint>
            <Time>2022-09-23T08:54:47.000Z</Time>
            <Position>
              <LatitudeDegrees>49.502001665532588958740234375</LatitudeDegrees>
              <LongitudeDegrees>20.6698883883655071258544921875</LongitudeDegrees>
            </Position>
            <AltitudeMeters>364.79998779296875</AltitudeMeters>
            <DistanceMeters>NAN</DistanceMeters>
          </Trackpoint>
          <Trackpoint>
            <Time>2022-09-23T08:54:49.000Z</Time>
            <Position>
              <LatitudeDegrees>49.50195749290287494659423828125</LatitudeDegrees>
              <LongitudeDegrees>20.6699886359274387359619140625</LongitudeDegrees>
            </Position>
            <AltitudeMeters>363.20001220703125</AltitudeMeters>
            <DistanceMeters>NAN</DistanceMeters>
          </Trackpoint>
          <Trackpoint>
            <Time>2022-09-23T08:54:51.000Z</Time>
            <Position>
              <LatitudeDegrees>49.501926563680171966552734375</LatitudeDegrees>
              <LongitudeDegrees>20.67007438279688358306884765625</LongitudeDegrees>
            </Position>
            <AltitudeMeters>362.20001220703125</AltitudeMeters>
            <DistanceMeters>NAN</DistanceMeters>
          </Trackpoint>
          <Trackpoint>
            <Time>2022-09-23T08:54:52.000Z</Time>
            <Position>
              <LatitudeDegrees>49.50190938077867031097412109375</LatitudeDegrees>
              <LongitudeDegrees>20.67011721432209014892578125</LongitudeDegrees>
            </Position>
            <AltitudeMeters>361.399993896484375</AltitudeMeters>
            <DistanceMeters>NAN</DistanceMeters>
          </Trackpoint>
          <Trackpoint>
            <Time>2022-09-23T08:54:53.000Z</Time>
            <Position>
              <LatitudeDegrees>49.5018982328474521636962890625</LatitudeDegrees>
              <LongitudeDegrees>20.670163817703723907470703125</LongitudeDegrees>
            </Position>
            <AltitudeMeters>360.600006103515625</AltitudeMeters>
            <DistanceMeters>NAN</DistanceMeters>
          </Trackpoint>
          <Trackpoint>
            <Time>2022-09-23T08:54:55.000Z</Time>
            <Position>
              <LatitudeDegrees>49.501866884529590606689453125</LatitudeDegrees>
              <LongitudeDegrees>20.6702573597431182861328125</LongitudeDegrees>
            </Position>
            <AltitudeMeters>359.399993896484375</AltitudeMeters>
            <DistanceMeters>NAN</DistanceMeters>
          </Trackpoint>
          <Trackpoint>
            <Time>2022-09-23T08:54:57.000Z</Time>
            <Position>
              <LatitudeDegrees>49.50183562003076076507568359375</LatitudeDegrees>
              <LongitudeDegrees>20.67034964449703693389892578125</LongitudeDegrees>
            </Position>
            <AltitudeMeters>358</AltitudeMeters>
            <DistanceMeters>NAN</DistanceMeters>
          </Trackpoint>
          <Trackpoint>
            <Time>2022-09-23T08:54:59.000Z</Time>
            <Position>
              <LatitudeDegrees>49.50181080959737300872802734375</LatitudeDegrees>
              <LongitudeDegrees>20.67044368945062160491943359375</LongitudeDegrees>
            </Position>
            <AltitudeMeters>356.399993896484375</AltitudeMeters>
            <DistanceMeters>NAN</DistanceMeters>
          </Trackpoint>
          <Trackpoint>
            <Time>2022-09-23T08:55:00.000Z</Time>
            <Position>
              <LatitudeDegrees>49.5018043555319309234619140625</LatitudeDegrees>
              <LongitudeDegrees>20.67048333585262298583984375</LongitudeDegrees>
            </Position>
            <AltitudeMeters>355.79998779296875</AltitudeMeters>
            <DistanceMeters>NAN</DistanceMeters>
          </Trackpoint>
          <Trackpoint>
            <Time>2022-09-23T08:55:01.000Z</Time>
            <Position>
              <LatitudeDegrees>49.50179882347583770751953125</LatitudeDegrees>
              <LongitudeDegrees>20.67052650265395641326904296875</LongitudeDegrees>
            </Position>
            <AltitudeMeters>355.20001220703125</AltitudeMeters>
            <DistanceMeters>NAN</DistanceMeters>
          </Trackpoint>
          <Trackpoint>
            <Time>2022-09-23T08:55:03.000Z</Time>
            <Position>
              <LatitudeDegrees>49.50178951956331729888916015625</LatitudeDegrees>
              <LongitudeDegrees>20.6705985032021999359130859375</LongitudeDegrees>
            </Position>
            <AltitudeMeters>353.79998779296875</AltitudeMeters>
            <DistanceMeters>NAN</DistanceMeters>
          </Trackpoint>
          <Trackpoint>
            <Time>2022-09-23T08:55:05.000Z</Time>
            <Position>
              <LatitudeDegrees>49.5017726719379425048828125</LatitudeDegrees>
              <LongitudeDegrees>20.67065642215311527252197265625</LongitudeDegrees>
            </Position>
            <AltitudeMeters>352.600006103515625</AltitudeMeters>
            <DistanceMeters>NAN</DistanceMeters>
          </Trackpoint>
          <Trackpoint>
            <Time>2022-09-23T08:55:06.000Z</Time>
            <Position>
              <LatitudeDegrees>49.50176487676799297332763671875</LatitudeDegrees>
              <LongitudeDegrees>20.67067989148199558258056640625</LongitudeDegrees>
            </Position>
            <AltitudeMeters>352</AltitudeMeters>
            <DistanceMeters>NAN</DistanceMeters>
          </Trackpoint>
          <Trackpoint>
            <Time>2022-09-23T08:55:07.000Z</Time>
            <Position>
              <LatitudeDegrees>49.50175615958869457244873046875</LatitudeDegrees>
              <LongitudeDegrees>20.67070319317281246185302734375</LongitudeDegrees>
            </Position>
            <AltitudeMeters>351.399993896484375</AltitudeMeters>
            <DistanceMeters>NAN</DistanceMeters>
          </Trackpoint>
          <Trackpoint>
            <Time>2022-09-23T08:55:09.000Z</Time>
            <Position>
              <LatitudeDegrees>49.50171425007283687591552734375</LatitudeDegrees>
              <LongitudeDegrees>20.67077837884426116943359375</LongitudeDegrees>
            </Position>
            <AltitudeMeters>350.20001220703125</AltitudeMeters>
            <DistanceMeters>NAN</DistanceMeters>
          </Trackpoint>
          <Trackpoint>
            <Time>2022-09-23T08:55:11.000Z</Time>
            <Position>
              <LatitudeDegrees>49.5016541518270969390869140625</LatitudeDegrees>
              <LongitudeDegrees>20.6708479486405849456787109375</LongitudeDegrees>
            </Position>
            <AltitudeMeters>349.399993896484375</AltitudeMeters>
            <DistanceMeters>NAN</DistanceMeters>
          </Trackpoint>
          <Trackpoint>
            <Time>2022-09-23T08:55:12.000Z</Time>
            <Position>
              <LatitudeDegrees>49.501629173755645751953125</LatitudeDegrees>
              <LongitudeDegrees>20.6708734296262264251708984375</LongitudeDegrees>
            </Position>
            <AltitudeMeters>348.79998779296875</AltitudeMeters>
            <DistanceMeters>NAN</DistanceMeters>
          </Trackpoint>
          <Trackpoint>
            <Time>2022-09-23T08:55:14.000Z</Time>
            <Position>
              <LatitudeDegrees>49.5015807263553142547607421875</LatitudeDegrees>
              <LongitudeDegrees>20.67093034274876117706298828125</LongitudeDegrees>
            </Position>
            <AltitudeMeters>347.79998779296875</AltitudeMeters>
            <DistanceMeters>NAN</DistanceMeters>
          </Trackpoint>
          <Trackpoint>
            <Time>2022-09-23T08:55:16.000Z</Time>
            <Position>
              <LatitudeDegrees>49.50152833946049213409423828125</LatitudeDegrees>
              <LongitudeDegrees>20.67099840380251407623291015625</LongitudeDegrees>
            </Position>
            <AltitudeMeters>346.600006103515625</AltitudeMeters>
            <DistanceMeters>NAN</DistanceMeters>
          </Trackpoint>
          <Trackpoint>
            <Time>2022-09-23T08:55:17.000Z</Time>
            <Position>
              <LatitudeDegrees>49.50150453485548496246337890625</LatitudeDegrees>
              <LongitudeDegrees>20.671036876738071441650390625</LongitudeDegrees>
            </Position>
            <AltitudeMeters>346</AltitudeMeters>
            <DistanceMeters>NAN</DistanceMeters>
          </Trackpoint>
          <Trackpoint>
            <Time>2022-09-23T08:55:19.000Z</Time>
            <Position>
              <LatitudeDegrees>49.50147100724279880523681640625</LatitudeDegrees>
              <LongitudeDegrees>20.67111474461853504180908203125</LongitudeDegrees>
            </Position>
            <AltitudeMeters>345</AltitudeMeters>
            <DistanceMeters>NAN</DistanceMeters>
          </Trackpoint>
          <Trackpoint>
            <Time>2022-09-23T08:55:21.000Z</Time>
            <Position>
              <LatitudeDegrees>49.50142473913729190826416015625</LatitudeDegrees>
              <LongitudeDegrees>20.67122940905392169952392578125</LongitudeDegrees>
            </Position>
            <AltitudeMeters>344</AltitudeMeters>
            <DistanceMeters>NAN</DistanceMeters>
          </Trackpoint>
          <Trackpoint>
            <Time>2022-09-23T08:55:22.000Z</Time>
            <Position>
              <LatitudeDegrees>49.50140110217034816741943359375</LatitudeDegrees>
              <LongitudeDegrees>20.67129529081284999847412109375</LongitudeDegrees>
            </Position>
            <AltitudeMeters>343.399993896484375</AltitudeMeters>
            <DistanceMeters>NAN</DistanceMeters>
          </Trackpoint>
          <Trackpoint>
            <Time>2022-09-23T08:55:23.000Z</Time>
            <Position>
              <LatitudeDegrees>49.50136790983378887176513671875</LatitudeDegrees>
              <LongitudeDegrees>20.67139151506125926971435546875</LongitudeDegrees>
            </Position>
            <AltitudeMeters>342</AltitudeMeters>
            <DistanceMeters>NAN</DistanceMeters>
          </Trackpoint>
          <Trackpoint>
            <Time>2022-09-23T08:55:24.000Z</Time>
            <Position>
              <LatitudeDegrees>49.501342512667179107666015625</LatitudeDegrees>
              <LongitudeDegrees>20.671469382941722869873046875</LongitudeDegrees>
            </Position>
            <AltitudeMeters>340.79998779296875</AltitudeMeters>
            <DistanceMeters>NAN</DistanceMeters>
          </Trackpoint>
          <Trackpoint>
            <Time>2022-09-23T08:55:25.000Z</Time>
            <Position>
              <LatitudeDegrees>49.50131678022444248199462890625</LatitudeDegrees>
              <LongitudeDegrees>20.67154808901250362396240234375</LongitudeDegrees>
            </Position>
            <AltitudeMeters>339.79998779296875</AltitudeMeters>
            <DistanceMeters>NAN</DistanceMeters>
          </Trackpoint>
          <Trackpoint>
            <Time>2022-09-23T08:55:26.000Z</Time>
            <Position>
              <LatitudeDegrees>49.5013011060655117034912109375</LatitudeDegrees>
              <LongitudeDegrees>20.67162671126425266265869140625</LongitudeDegrees>
            </Position>
            <AltitudeMeters>339</AltitudeMeters>
            <DistanceMeters>NAN</DistanceMeters>
          </Trackpoint>
          <Trackpoint>
            <Time>2022-09-23T08:55:28.000Z</Time>
            <Position>
              <LatitudeDegrees>49.50126263312995433807373046875</LatitudeDegrees>
              <LongitudeDegrees>20.67175210453569889068603515625</LongitudeDegrees>
            </Position>
            <AltitudeMeters>338.20001220703125</AltitudeMeters>
            <DistanceMeters>NAN</DistanceMeters>
          </Trackpoint>
          <Trackpoint>
            <Time>2022-09-23T08:55:29.000Z</Time>
            <Position>
              <LatitudeDegrees>49.5012538321316242218017578125</LatitudeDegrees>
              <LongitudeDegrees>20.67180834710597991943359375</LongitudeDegrees>
            </Position>
            <AltitudeMeters>338</AltitudeMeters>
            <DistanceMeters>NAN</DistanceMeters>
          </Trackpoint>
          <Trackpoint>
            <Time>2022-09-23T08:55:32.000Z</Time>
            <Position>
              <LatitudeDegrees>49.5011991821229457855224609375</LatitudeDegrees>
              <LongitudeDegrees>20.67201546393334865570068359375</LongitudeDegrees>
            </Position>
            <AltitudeMeters>337</AltitudeMeters>
            <DistanceMeters>NAN</DistanceMeters>
          </Trackpoint>
          <Trackpoint>
            <Time>2022-09-23T08:55:33.000Z</Time>
            <Position>
              <LatitudeDegrees>49.501187615096569061279296875</LatitudeDegrees>
              <LongitudeDegrees>20.672086291015148162841796875</LongitudeDegrees>
            </Position>
            <AltitudeMeters>336.79998779296875</AltitudeMeters>
            <DistanceMeters>NAN</DistanceMeters>
          </Trackpoint>
          <Trackpoint>
            <Time>2022-09-23T08:55:39.000Z</Time>
            <Position>
              <LatitudeDegrees>49.50108409859240055084228515625</LatitudeDegrees>
              <LongitudeDegrees>20.67248133011162281036376953125</LongitudeDegrees>
            </Position>
            <AltitudeMeters>336.20001220703125</AltitudeMeters>
            <DistanceMeters>NAN</DistanceMeters>
          </Trackpoint>
          <Trackpoint>
            <Time>2022-09-23T08:55:45.000Z</Time>
            <Position>
              <LatitudeDegrees>49.5010711066424846649169921875</LatitudeDegrees>
              <LongitudeDegrees>20.672837980091571807861328125</LongitudeDegrees>
            </Position>
            <AltitudeMeters>336.600006103515625</AltitudeMeters>
            <DistanceMeters>NAN</DistanceMeters>
          </Trackpoint>
          <Trackpoint>
            <Time>2022-09-23T08:55:51.000Z</Time>
            <Position>
              <LatitudeDegrees>49.501011259853839874267578125</LatitudeDegrees>
              <LongitudeDegrees>20.6731968931853771209716796875</LongitudeDegrees>
            </Position>
            <AltitudeMeters>336.399993896484375</AltitudeMeters>
            <DistanceMeters>NAN</DistanceMeters>
          </Trackpoint>
          <Trackpoint>
            <Time>2022-09-23T08:55:57.000Z</Time>
            <Position>
              <LatitudeDegrees>49.50096197426319122314453125</LatitudeDegrees>
              <LongitudeDegrees>20.67359243519604206085205078125</LongitudeDegrees>
            </Position>
            <AltitudeMeters>336.399993896484375</AltitudeMeters>
            <DistanceMeters>NAN</DistanceMeters>
          </Trackpoint>
          <Trackpoint>
            <Time>2022-09-23T08:56:04.000Z</Time>
            <Position>
              <LatitudeDegrees>49.5008984394371509552001953125</LatitudeDegrees>
              <LongitudeDegrees>20.6740204989910125732421875</LongitudeDegrees>
            </Position>
            <AltitudeMeters>336.600006103515625</AltitudeMeters>
            <DistanceMeters>NAN</DistanceMeters>
          </Trackpoint>
          <Trackpoint>
            <Time>2022-09-23T08:56:09.000Z</Time>
            <Position>
              <LatitudeDegrees>49.50085627846419811248779296875</LatitudeDegrees>
              <LongitudeDegrees>20.67429182119667530059814453125</LongitudeDegrees>
            </Position>
            <AltitudeMeters>337</AltitudeMeters>
            <DistanceMeters>NAN</DistanceMeters>
          </Trackpoint>
          <Trackpoint>
            <Time>2022-09-23T08:56:15.000Z</Time>
            <Position>
              <LatitudeDegrees>49.50083683244884014129638671875</LatitudeDegrees>
              <LongitudeDegrees>20.67459893412888050079345703125</LongitudeDegrees>
            </Position>
            <AltitudeMeters>337.399993896484375</AltitudeMeters>
            <DistanceMeters>NAN</DistanceMeters>
          </Trackpoint>
          <Trackpoint>
            <Time>2022-09-23T08:56:17.000Z</Time>
            <Position>
              <LatitudeDegrees>49.50081872753798961639404296875</LatitudeDegrees>
              <LongitudeDegrees>20.67469381727278232574462890625</LongitudeDegrees>
            </Position>
            <AltitudeMeters>337.399993896484375</AltitudeMeters>
            <DistanceMeters>NAN</DistanceMeters>
          </Trackpoint>
          <Trackpoint>
            <Time>2022-09-23T08:56:19.000Z</Time>
            <Position>
              <LatitudeDegrees>49.5008129440248012542724609375</LatitudeDegrees>
              <LongitudeDegrees>20.67477461881935596466064453125</LongitudeDegrees>
            </Position>
            <AltitudeMeters>337.399993896484375</AltitudeMeters>
            <DistanceMeters>NAN</DistanceMeters>
          </Trackpoint>
          <Trackpoint>
            <Time>2022-09-23T08:56:22.000Z</Time>
            <Position>
              <LatitudeDegrees>49.50083255767822265625</LatitudeDegrees>
              <LongitudeDegrees>20.6748987548053264617919921875</LongitudeDegrees>
            </Position>
            <AltitudeMeters>337.79998779296875</AltitudeMeters>
            <DistanceMeters>NAN</DistanceMeters>
          </Trackpoint>
          <Trackpoint>
            <Time>2022-09-23T08:56:23.000Z</Time>
            <Position>
              <LatitudeDegrees>49.50083398260176181793212890625</LatitudeDegrees>
              <LongitudeDegrees>20.67494493909180164337158203125</LongitudeDegrees>
            </Position>
            <AltitudeMeters>337.79998779296875</AltitudeMeters>
            <DistanceMeters>NAN</DistanceMeters>
          </Trackpoint>
          <Trackpoint>
            <Time>2022-09-23T08:56:25.000Z</Time>
            <Position>
              <LatitudeDegrees>49.5008491538465023040771484375</LatitudeDegrees>
              <LongitudeDegrees>20.67503747530281543731689453125</LongitudeDegrees>
            </Position>
            <AltitudeMeters>338.20001220703125</AltitudeMeters>
            <DistanceMeters>NAN</DistanceMeters>
          </Trackpoint>
          <Trackpoint>
            <Time>2022-09-23T08:56:29.000Z</Time>
            <Position>
              <LatitudeDegrees>49.50085007585585117340087890625</LatitudeDegrees>
              <LongitudeDegrees>20.67523143254220485687255859375</LongitudeDegrees>
            </Position>
            <AltitudeMeters>338.600006103515625</AltitudeMeters>
            <DistanceMeters>NAN</DistanceMeters>
          </Trackpoint>
          <Trackpoint>
            <Time>2022-09-23T08:56:32.000Z</Time>
            <Position>
              <LatitudeDegrees>49.50085778720676898956298828125</LatitudeDegrees>
              <LongitudeDegrees>20.67538063041865825653076171875</LongitudeDegrees>
            </Position>
            <AltitudeMeters>338.79998779296875</AltitudeMeters>
            <DistanceMeters>NAN</DistanceMeters>
          </Trackpoint>
          <Trackpoint>
            <Time>2022-09-23T08:56:33.000Z</Time>
            <Position>
              <LatitudeDegrees>49.50085527263581752777099609375</LatitudeDegrees>
              <LongitudeDegrees>20.675424300134181976318359375</LongitudeDegrees>
            </Position>
            <AltitudeMeters>338.79998779296875</AltitudeMeters>
            <DistanceMeters>NAN</DistanceMeters>
          </Trackpoint>
          <Trackpoint>
            <Time>2022-09-23T08:56:36.000Z</Time>
            <Position>
              <LatitudeDegrees>49.50084454379975795745849609375</LatitudeDegrees>
              <LongitudeDegrees>20.67554726265370845794677734375</LongitudeDegrees>
            </Position>
            <AltitudeMeters>338.600006103515625</AltitudeMeters>
            <DistanceMeters>NAN</DistanceMeters>
          </Trackpoint>
          <Trackpoint>
            <Time>2022-09-23T08:56:42.000Z</Time>
            <Position>
              <LatitudeDegrees>49.50081084854900836944580078125</LatitudeDegrees>
              <LongitudeDegrees>20.6758563034236431121826171875</LongitudeDegrees>
            </Position>
            <AltitudeMeters>339.20001220703125</AltitudeMeters>
            <DistanceMeters>NAN</DistanceMeters>
          </Trackpoint>
          <Trackpoint>
            <Time>2022-09-23T08:56:43.000Z</Time>
            <Position>
              <LatitudeDegrees>49.50080850161612033843994140625</LatitudeDegrees>
              <LongitudeDegrees>20.67591221071779727935791015625</LongitudeDegrees>
            </Position>
            <AltitudeMeters>339.20001220703125</AltitudeMeters>
            <DistanceMeters>NAN</DistanceMeters>
          </Trackpoint>
          <Trackpoint>
            <Time>2022-09-23T08:56:46.000Z</Time>
            <Position>
              <LatitudeDegrees>49.500808417797088623046875</LatitudeDegrees>
              <LongitudeDegrees>20.6760591454803943634033203125</LongitudeDegrees>
            </Position>
            <AltitudeMeters>339</AltitudeMeters>
            <DistanceMeters>NAN</DistanceMeters>
          </Trackpoint>
          <Trackpoint>
            <Time>2022-09-23T08:56:48.000Z</Time>
            <Position>
              <LatitudeDegrees>49.50080866925418376922607421875</LatitudeDegrees>
              <LongitudeDegrees>20.6761681102216243743896484375</LongitudeDegrees>
            </Position>
            <AltitudeMeters>339</AltitudeMeters>
            <DistanceMeters>NAN</DistanceMeters>
          </Trackpoint>
          <Trackpoint>
            <Time>2022-09-23T08:56:49.000Z</Time>
            <Position>
              <LatitudeDegrees>49.50080598704516887664794921875</LatitudeDegrees>
              <LongitudeDegrees>20.67623491398990154266357421875</LongitudeDegrees>
            </Position>
            <AltitudeMeters>338.79998779296875</AltitudeMeters>
            <DistanceMeters>NAN</DistanceMeters>
          </Trackpoint>
          <Trackpoint>
            <Time>2022-09-23T08:56:52.000Z</Time>
            <Position>
              <LatitudeDegrees>49.50081051327288150787353515625</LatitudeDegrees>
              <LongitudeDegrees>20.67640028893947601318359375</LongitudeDegrees>
            </Position>
            <AltitudeMeters>339</AltitudeMeters>
            <DistanceMeters>NAN</DistanceMeters>
          </Trackpoint>
          <Trackpoint>
            <Time>2022-09-23T08:56:54.000Z</Time>
            <Position>
              <LatitudeDegrees>49.5008119381964206695556640625</LatitudeDegrees>
              <LongitudeDegrees>20.6764738820493221282958984375</LongitudeDegrees>
            </Position>
            <AltitudeMeters>339.399993896484375</AltitudeMeters>
            <DistanceMeters>NAN</DistanceMeters>
          </Trackpoint>
          <Trackpoint>
            <Time>2022-09-23T08:57:01.000Z</Time>
            <Position>
              <LatitudeDegrees>49.5008578710258007049560546875</LatitudeDegrees>
              <LongitudeDegrees>20.6767454557120800018310546875</LongitudeDegrees>
            </Position>
            <AltitudeMeters>339.79998779296875</AltitudeMeters>
            <DistanceMeters>NAN</DistanceMeters>
          </Trackpoint>
          <Trackpoint>
            <Time>2022-09-23T08:57:06.000Z</Time>
            <Position>
              <LatitudeDegrees>49.50091914273798465728759765625</LatitudeDegrees>
              <LongitudeDegrees>20.6768661551177501678466796875</LongitudeDegrees>
            </Position>
            <AltitudeMeters>340.20001220703125</AltitudeMeters>
            <DistanceMeters>NAN</DistanceMeters>
          </Trackpoint>
          <Trackpoint>
            <Time>2022-09-23T08:57:07.000Z</Time>
            <Position>
              <LatitudeDegrees>49.5009336434304714202880859375</LatitudeDegrees>
              <LongitudeDegrees>20.67687981761991977691650390625</LongitudeDegrees>
            </Position>
            <AltitudeMeters>340.20001220703125</AltitudeMeters>
            <DistanceMeters>NAN</DistanceMeters>
          </Trackpoint>
          <Trackpoint>
            <Time>2022-09-23T08:57:11.000Z</Time>
            <Position>
              <LatitudeDegrees>49.50100623071193695068359375</LatitudeDegrees>
              <LongitudeDegrees>20.67695274017751216888427734375</LongitudeDegrees>
            </Position>
            <AltitudeMeters>340.399993896484375</AltitudeMeters>
            <DistanceMeters>NAN</DistanceMeters>
          </Trackpoint>
          <Trackpoint>
            <Time>2022-09-23T08:57:19.000Z</Time>
            <Position>
              <LatitudeDegrees>49.50117881409823894500732421875</LatitudeDegrees>
              <LongitudeDegrees>20.67709523253142833709716796875</LongitudeDegrees>
            </Position>
            <AltitudeMeters>341.20001220703125</AltitudeMeters>
            <DistanceMeters>NAN</DistanceMeters>
          </Trackpoint>
          <Trackpoint>
            <Time>2022-09-23T08:57:20.000Z</Time>
            <Position>
              <LatitudeDegrees>49.501191638410091400146484375</LatitudeDegrees>
              <LongitudeDegrees>20.67712021060287952423095703125</LongitudeDegrees>
            </Position>
            <AltitudeMeters>341.399993896484375</AltitudeMeters>
            <DistanceMeters>NAN</DistanceMeters>
          </Trackpoint>
          <Trackpoint>
            <Time>2022-09-23T08:57:23.000Z</Time>
            <Position>
              <LatitudeDegrees>49.50122105889022350311279296875</LatitudeDegrees>
              <LongitudeDegrees>20.67718793638050556182861328125</LongitudeDegrees>
            </Position>
            <AltitudeMeters>341.600006103515625</AltitudeMeters>
            <DistanceMeters>NAN</DistanceMeters>
          </Trackpoint>
          <Trackpoint>
            <Time>2022-09-23T08:57:24.000Z</Time>
            <Position>
              <LatitudeDegrees>49.50122742913663387298583984375</LatitudeDegrees>
              <LongitudeDegrees>20.67720117978751659393310546875</LongitudeDegrees>
            </Position>
            <AltitudeMeters>342</AltitudeMeters>
            <DistanceMeters>NAN</DistanceMeters>
          </Trackpoint>
          <Trackpoint>
            <Time>2022-09-23T08:57:26.000Z</Time>
            <Position>
              <LatitudeDegrees>49.501258023083209991455078125</LatitudeDegrees>
              <LongitudeDegrees>20.67721978761255741119384765625</LongitudeDegrees>
            </Position>
            <AltitudeMeters>342.399993896484375</AltitudeMeters>
            <DistanceMeters>NAN</DistanceMeters>
          </Trackpoint>
          <Trackpoint>
            <Time>2022-09-23T08:57:28.000Z</Time>
            <Position>
              <LatitudeDegrees>49.5012940652668476104736328125</LatitudeDegrees>
              <LongitudeDegrees>20.67721844650804996490478515625</LongitudeDegrees>
            </Position>
            <AltitudeMeters>342.399993896484375</AltitudeMeters>
            <DistanceMeters>NAN</DistanceMeters>
          </Trackpoint>
          <Trackpoint>
            <Time>2022-09-23T08:57:36.000Z</Time>
            <Position>
              <LatitudeDegrees>49.50147159397602081298828125</LatitudeDegrees>
              <LongitudeDegrees>20.67719128914177417755126953125</LongitudeDegrees>
            </Position>
            <AltitudeMeters>342.399993896484375</AltitudeMeters>
            <DistanceMeters>NAN</DistanceMeters>
          </Trackpoint>
          <Trackpoint>
            <Time>2022-09-23T08:57:41.000Z</Time>
            <Position>
              <LatitudeDegrees>49.50159631669521331787109375</LatitudeDegrees>
              <LongitudeDegrees>20.67717008292675018310546875</LongitudeDegrees>
            </Position>
            <AltitudeMeters>343.399993896484375</AltitudeMeters>
            <DistanceMeters>NAN</DistanceMeters>
          </Trackpoint>
          <Trackpoint>
            <Time>2022-09-23T08:57:42.000Z</Time>
            <Position>
              <LatitudeDegrees>49.50162322260439395904541015625</LatitudeDegrees>
              <LongitudeDegrees>20.67716564051806926727294921875</LongitudeDegrees>
            </Position>
            <AltitudeMeters>343.600006103515625</AltitudeMeters>
            <DistanceMeters>NAN</DistanceMeters>
          </Trackpoint>
          <Trackpoint>
            <Time>2022-09-23T08:57:44.000Z</Time>
            <Position>
              <LatitudeDegrees>49.5016702450811862945556640625</LatitudeDegrees>
              <LongitudeDegrees>20.67714988254010677337646484375</LongitudeDegrees>
            </Position>
            <AltitudeMeters>344</AltitudeMeters>
            <DistanceMeters>NAN</DistanceMeters>
          </Trackpoint>
          <Trackpoint>
            <Time>2022-09-23T08:57:45.000Z</Time>
            <Position>
              <LatitudeDegrees>49.501697234809398651123046875</LatitudeDegrees>
              <LongitudeDegrees>20.677141584455966949462890625</LongitudeDegrees>
            </Position>
            <AltitudeMeters>344.20001220703125</AltitudeMeters>
            <DistanceMeters>NAN</DistanceMeters>
          </Trackpoint>
          <Trackpoint>
            <Time>2022-09-23T08:57:46.000Z</Time>
            <Position>
              <LatitudeDegrees>49.50172330252826213836669921875</LatitudeDegrees>
              <LongitudeDegrees>20.67713714204728603363037109375</LongitudeDegrees>
            </Position>
            <AltitudeMeters>344.399993896484375</AltitudeMeters>
            <DistanceMeters>NAN</DistanceMeters>
          </Trackpoint>
          <Trackpoint>
            <Time>2022-09-23T08:57:47.000Z</Time>
            <Position>
              <LatitudeDegrees>49.50174911879003047943115234375</LatitudeDegrees>
              <LongitudeDegrees>20.6771310232579708099365234375</LongitudeDegrees>
            </Position>
            <AltitudeMeters>344.600006103515625</AltitudeMeters>
            <DistanceMeters>NAN</DistanceMeters>
          </Trackpoint>
          <Trackpoint>
            <Time>2022-09-23T08:57:51.000Z</Time>
            <Position>
              <LatitudeDegrees>49.50182639993727207183837890625</LatitudeDegrees>
              <LongitudeDegrees>20.67710570991039276123046875</LongitudeDegrees>
            </Position>
            <AltitudeMeters>345.79998779296875</AltitudeMeters>
            <DistanceMeters>NAN</DistanceMeters>
          </Trackpoint>
          <Trackpoint>
            <Time>2022-09-23T08:57:52.000Z</Time>
            <Position>
              <LatitudeDegrees>49.5018343627452850341796875</LatitudeDegrees>
              <LongitudeDegrees>20.677100010216236114501953125</LongitudeDegrees>
            </Position>
            <AltitudeMeters>346</AltitudeMeters>
            <DistanceMeters>NAN</DistanceMeters>
          </Trackpoint>
          <Trackpoint>
            <Time>2022-09-23T08:57:53.000Z</Time>
            <Position>
              <LatitudeDegrees>49.50183494947850704193115234375</LatitudeDegrees>
              <LongitudeDegrees>20.67709757946431636810302734375</LongitudeDegrees>
            </Position>
            <AltitudeMeters>346.20001220703125</AltitudeMeters>
            <DistanceMeters>NAN</DistanceMeters>
          </Trackpoint>
          <Trackpoint>
            <Time>2022-09-23T08:57:56.000Z</Time>
            <Position>
              <LatitudeDegrees>49.50183846987783908843994140625</LatitudeDegrees>
              <LongitudeDegrees>20.67710797302424907684326171875</LongitudeDegrees>
            </Position>
            <AltitudeMeters>346.399993896484375</AltitudeMeters>
            <DistanceMeters>NAN</DistanceMeters>
          </Trackpoint>
          <Trackpoint>
            <Time>2022-09-23T08:58:02.000Z</Time>
            <Position>
              <LatitudeDegrees>49.50183846987783908843994140625</LatitudeDegrees>
              <LongitudeDegrees>20.67710797302424907684326171875</LongitudeDegrees>
            </Position>
            <AltitudeMeters>346.600006103515625</AltitudeMeters>
            <DistanceMeters>NAN</DistanceMeters>
          </Trackpoint>
          <Trackpoint>
            <Time>2022-09-23T08:58:04.000Z</Time>
            <Position>
              <LatitudeDegrees>49.50183846987783908843994140625</LatitudeDegrees>
              <LongitudeDegrees>20.67710797302424907684326171875</LongitudeDegrees>
            </Position>
            <AltitudeMeters>346.600006103515625</AltitudeMeters>
            <DistanceMeters>NAN</DistanceMeters>
          </Trackpoint>
          <Trackpoint>
            <Time>2022-09-23T08:58:12.000Z</Time>
            <Position>
              <LatitudeDegrees>49.50183846987783908843994140625</LatitudeDegrees>
              <LongitudeDegrees>20.67710797302424907684326171875</LongitudeDegrees>
            </Position>
            <AltitudeMeters>346.600006103515625</AltitudeMeters>
            <DistanceMeters>NAN</DistanceMeters>
          </Trackpoint>
          <Trackpoint>
            <Time>2022-09-23T08:58:21.000Z</Time>
            <Position>
              <LatitudeDegrees>49.50183846987783908843994140625</LatitudeDegrees>
              <LongitudeDegrees>20.67710797302424907684326171875</LongitudeDegrees>
            </Position>
            <AltitudeMeters>346.399993896484375</AltitudeMeters>
            <DistanceMeters>NAN</DistanceMeters>
          </Trackpoint>
          <Trackpoint>
            <Time>2022-09-23T08:58:25.000Z</Time>
            <Position>
              <LatitudeDegrees>49.50183846987783908843994140625</LatitudeDegrees>
              <LongitudeDegrees>20.67710797302424907684326171875</LongitudeDegrees>
            </Position>
            <AltitudeMeters>346.600006103515625</AltitudeMeters>
            <DistanceMeters>NAN</DistanceMeters>
          </Trackpoint>
          <Trackpoint>
            <Time>2022-09-23T08:58:26.000Z</Time>
            <Position>
              <LatitudeDegrees>49.50183846987783908843994140625</LatitudeDegrees>
              <LongitudeDegrees>20.67710797302424907684326171875</LongitudeDegrees>
            </Position>
            <AltitudeMeters>346.600006103515625</AltitudeMeters>
            <DistanceMeters>NAN</DistanceMeters>
          </Trackpoint>
          <Trackpoint>
            <Time>2022-09-23T08:58:28.000Z</Time>
            <Position>
              <LatitudeDegrees>49.50183846987783908843994140625</LatitudeDegrees>
              <LongitudeDegrees>20.67710797302424907684326171875</LongitudeDegrees>
            </Position>
            <AltitudeMeters>346.600006103515625</AltitudeMeters>
            <DistanceMeters>NAN</DistanceMeters>
          </Trackpoint>
          <Trackpoint>
            <Time>2022-09-23T08:58:35.000Z</Time>
            <Position>
              <LatitudeDegrees>49.50183846987783908843994140625</LatitudeDegrees>
              <LongitudeDegrees>20.67710797302424907684326171875</LongitudeDegrees>
            </Position>
            <AltitudeMeters>346.399993896484375</AltitudeMeters>
            <DistanceMeters>NAN</DistanceMeters>
          </Trackpoint>
          <Trackpoint>
            <Time>2022-09-23T08:58:39.000Z</Time>
            <Position>
              <LatitudeDegrees>49.50183846987783908843994140625</LatitudeDegrees>
              <LongitudeDegrees>20.67710797302424907684326171875</LongitudeDegrees>
            </Position>
            <AltitudeMeters>346.600006103515625</AltitudeMeters>
            <DistanceMeters>NAN</DistanceMeters>
          </Trackpoint>
          <Trackpoint>
            <Time>2022-09-23T08:58:42.000Z</Time>
            <Position>
              <LatitudeDegrees>49.50183846987783908843994140625</LatitudeDegrees>
              <LongitudeDegrees>20.67710797302424907684326171875</LongitudeDegrees>
            </Position>
            <AltitudeMeters>346.600006103515625</AltitudeMeters>
            <DistanceMeters>NAN</DistanceMeters>
          </Trackpoint>
          <Trackpoint>
            <Time>2022-09-23T08:58:53.000Z</Time>
            <Position>
              <LatitudeDegrees>49.50183746404945850372314453125</LatitudeDegrees>
              <LongitudeDegrees>20.67710964940488338470458984375</LongitudeDegrees>
            </Position>
            <AltitudeMeters>346.399993896484375</AltitudeMeters>
            <DistanceMeters>NAN</DistanceMeters>
          </Trackpoint>
          <Trackpoint>
            <Time>2022-09-23T08:58:56.000Z</Time>
            <Position>
              <LatitudeDegrees>49.50176529586315155029296875</LatitudeDegrees>
              <LongitudeDegrees>20.67712054587900638580322265625</LongitudeDegrees>
            </Position>
            <AltitudeMeters>346.20001220703125</AltitudeMeters>
            <DistanceMeters>NAN</DistanceMeters>
          </Trackpoint>
          <Trackpoint>
            <Time>2022-09-23T08:59:00.000Z</Time>
            <Position>
              <LatitudeDegrees>49.5015984959900379180908203125</LatitudeDegrees>
              <LongitudeDegrees>20.67714418284595012664794921875</LongitudeDegrees>
            </Position>
            <AltitudeMeters>345</AltitudeMeters>
            <DistanceMeters>NAN</DistanceMeters>
          </Trackpoint>
          <Trackpoint>
            <Time>2022-09-23T08:59:01.000Z</Time>
            <Position>
              <LatitudeDegrees>49.50153521262109279632568359375</LatitudeDegrees>
              <LongitudeDegrees>20.6771534867584705352783203125</LongitudeDegrees>
            </Position>
            <AltitudeMeters>344.399993896484375</AltitudeMeters>
            <DistanceMeters>NAN</DistanceMeters>
          </Trackpoint>
          <Trackpoint>
            <Time>2022-09-23T08:59:03.000Z</Time>
            <Position>
              <LatitudeDegrees>49.50139758177101612091064453125</LatitudeDegrees>
              <LongitudeDegrees>20.677165724337100982666015625</LongitudeDegrees>
            </Position>
            <AltitudeMeters>343</AltitudeMeters>
            <DistanceMeters>NAN</DistanceMeters>
          </Trackpoint>
          <Trackpoint>
            <Time>2022-09-23T08:59:05.000Z</Time>
            <Position>
              <LatitudeDegrees>49.50130538083612918853759765625</LatitudeDegrees>
              <LongitudeDegrees>20.67717544734477996826171875</LongitudeDegrees>
            </Position>
            <AltitudeMeters>342</AltitudeMeters>
            <DistanceMeters>NAN</DistanceMeters>
          </Trackpoint>
          <Trackpoint>
            <Time>2022-09-23T08:59:06.000Z</Time>
            <Position>
              <LatitudeDegrees>49.501266740262508392333984375</LatitudeDegrees>
              <LongitudeDegrees>20.67717905156314373016357421875</LongitudeDegrees>
            </Position>
            <AltitudeMeters>341.79998779296875</AltitudeMeters>
            <DistanceMeters>NAN</DistanceMeters>
          </Trackpoint>
          <Trackpoint>
            <Time>2022-09-23T08:59:10.000Z</Time>
            <Position>
              <LatitudeDegrees>49.50117898173630237579345703125</LatitudeDegrees>
              <LongitudeDegrees>20.67716698162257671356201171875</LongitudeDegrees>
            </Position>
            <AltitudeMeters>341.79998779296875</AltitudeMeters>
            <DistanceMeters>NAN</DistanceMeters>
          </Trackpoint>
          <Trackpoint>
            <Time>2022-09-23T08:59:11.000Z</Time>
            <Position>
              <LatitudeDegrees>49.50116238556802272796630859375</LatitudeDegrees>
              <LongitudeDegrees>20.6771541573107242584228515625</LongitudeDegrees>
            </Position>
            <AltitudeMeters>341.79998779296875</AltitudeMeters>
            <DistanceMeters>NAN</DistanceMeters>
          </Trackpoint>
          <Trackpoint>
            <Time>2022-09-23T08:59:14.000Z</Time>
            <Position>
              <LatitudeDegrees>49.5010979287326335906982421875</LatitudeDegrees>
              <LongitudeDegrees>20.6770800612866878509521484375</LongitudeDegrees>
            </Position>
            <AltitudeMeters>341.600006103515625</AltitudeMeters>
            <DistanceMeters>NAN</DistanceMeters>
          </Trackpoint>
          <Trackpoint>
            <Time>2022-09-23T08:59:17.000Z</Time>
            <Position>
              <LatitudeDegrees>49.50098334811627864837646484375</LatitudeDegrees>
              <LongitudeDegrees>20.67695911042392253875732421875</LongitudeDegrees>
            </Position>
            <AltitudeMeters>340.79998779296875</AltitudeMeters>
            <DistanceMeters>NAN</DistanceMeters>
          </Trackpoint>
          <Trackpoint>
            <Time>2022-09-23T08:59:18.000Z</Time>
            <Position>
              <LatitudeDegrees>49.50094227679073810577392578125</LatitudeDegrees>
              <LongitudeDegrees>20.67691267468035221099853515625</LongitudeDegrees>
            </Position>
            <AltitudeMeters>340.20001220703125</AltitudeMeters>
            <DistanceMeters>NAN</DistanceMeters>
          </Trackpoint>
          <Trackpoint>
            <Time>2022-09-23T08:59:20.000Z</Time>
            <Position>
              <LatitudeDegrees>49.50086717493832111358642578125</LatitudeDegrees>
              <LongitudeDegrees>20.6768004409968852996826171875</LongitudeDegrees>
            </Position>
            <AltitudeMeters>339.600006103515625</AltitudeMeters>
            <DistanceMeters>NAN</DistanceMeters>
          </Trackpoint>
          <Trackpoint>
            <Time>2022-09-23T08:59:22.000Z</Time>
            <Position>
              <LatitudeDegrees>49.5008179731667041778564453125</LatitudeDegrees>
              <LongitudeDegrees>20.67665484733879566192626953125</LongitudeDegrees>
            </Position>
            <AltitudeMeters>339.399993896484375</AltitudeMeters>
            <DistanceMeters>NAN</DistanceMeters>
          </Trackpoint>
          <Trackpoint>
            <Time>2022-09-23T08:59:25.000Z</Time>
            <Position>
              <LatitudeDegrees>49.5007985271513462066650390625</LatitudeDegrees>
              <LongitudeDegrees>20.67641126923263072967529296875</LongitudeDegrees>
            </Position>
            <AltitudeMeters>339.20001220703125</AltitudeMeters>
            <DistanceMeters>NAN</DistanceMeters>
          </Trackpoint>
          <Trackpoint>
            <Time>2022-09-23T08:59:26.000Z</Time>
            <Position>
              <LatitudeDegrees>49.50079299509525299072265625</LatitudeDegrees>
              <LongitudeDegrees>20.676333568990230560302734375</LongitudeDegrees>
            </Position>
            <AltitudeMeters>339</AltitudeMeters>
            <DistanceMeters>NAN</DistanceMeters>
          </Trackpoint>
          <Trackpoint>
            <Time>2022-09-23T08:59:28.000Z</Time>
            <Position>
              <LatitudeDegrees>49.5007831044495105743408203125</LatitudeDegrees>
              <LongitudeDegrees>20.67615595646202564239501953125</LongitudeDegrees>
            </Position>
            <AltitudeMeters>338.600006103515625</AltitudeMeters>
            <DistanceMeters>NAN</DistanceMeters>
          </Trackpoint>
          <Trackpoint>
            <Time>2022-09-23T08:59:29.000Z</Time>
            <Position>
              <LatitudeDegrees>49.5007824338972568511962890625</LatitudeDegrees>
              <LongitudeDegrees>20.676088146865367889404296875</LongitudeDegrees>
            </Position>
            <AltitudeMeters>338.399993896484375</AltitudeMeters>
            <DistanceMeters>NAN</DistanceMeters>
          </Trackpoint>
          <Trackpoint>
            <Time>2022-09-23T08:59:31.000Z</Time>
            <Position>
              <LatitudeDegrees>49.5007909834384918212890625</LatitudeDegrees>
              <LongitudeDegrees>20.6759329140186309814453125</LongitudeDegrees>
            </Position>
            <AltitudeMeters>338.399993896484375</AltitudeMeters>
            <DistanceMeters>NAN</DistanceMeters>
          </Trackpoint>
          <Trackpoint>
            <Time>2022-09-23T08:59:32.000Z</Time>
            <Position>
              <LatitudeDegrees>49.5008017122745513916015625</LatitudeDegrees>
              <LongitudeDegrees>20.675858147442340850830078125</LongitudeDegrees>
            </Position>
            <AltitudeMeters>339.20001220703125</AltitudeMeters>
            <DistanceMeters>NAN</DistanceMeters>
          </Trackpoint>
          <Trackpoint>
            <Time>2022-09-23T08:59:38.000Z</Time>
            <Position>
              <LatitudeDegrees>49.50085158459842205047607421875</LatitudeDegrees>
              <LongitudeDegrees>20.6754378788173198699951171875</LongitudeDegrees>
            </Position>
            <AltitudeMeters>339</AltitudeMeters>
            <DistanceMeters>NAN</DistanceMeters>
          </Trackpoint>
          <Trackpoint>
            <Time>2022-09-23T08:59:44.000Z</Time>
            <Position>
              <LatitudeDegrees>49.500859044492244720458984375</LatitudeDegrees>
              <LongitudeDegrees>20.675076283514499664306640625</LongitudeDegrees>
            </Position>
            <AltitudeMeters>339.20001220703125</AltitudeMeters>
            <DistanceMeters>NAN</DistanceMeters>
          </Trackpoint>
          <Trackpoint>
            <Time>2022-09-23T08:59:48.000Z</Time>
            <Position>
              <LatitudeDegrees>49.50083750300109386444091796875</LatitudeDegrees>
              <LongitudeDegrees>20.674769841134548187255859375</LongitudeDegrees>
            </Position>
            <AltitudeMeters>339</AltitudeMeters>
            <DistanceMeters>NAN</DistanceMeters>
          </Trackpoint>
          <Trackpoint>
            <Time>2022-09-23T08:59:49.000Z</Time>
            <Position>
              <LatitudeDegrees>49.5008280314505100250244140625</LatitudeDegrees>
              <LongitudeDegrees>20.67470110952854156494140625</LongitudeDegrees>
            </Position>
            <AltitudeMeters>338.79998779296875</AltitudeMeters>
            <DistanceMeters>NAN</DistanceMeters>
          </Trackpoint>
          <Trackpoint>
            <Time>2022-09-23T08:59:55.000Z</Time>
            <Position>
              <LatitudeDegrees>49.50082610361278057098388671875</LatitudeDegrees>
              <LongitudeDegrees>20.67425225861370563507080078125</LongitudeDegrees>
            </Position>
            <AltitudeMeters>337.79998779296875</AltitudeMeters>
            <DistanceMeters>NAN</DistanceMeters>
          </Trackpoint>
          <Trackpoint>
            <Time>2022-09-23T08:59:57.000Z</Time>
            <Position>
              <LatitudeDegrees>49.5008394308388233184814453125</LatitudeDegrees>
              <LongitudeDegrees>20.6741011328995227813720703125</LongitudeDegrees>
            </Position>
            <AltitudeMeters>337.79998779296875</AltitudeMeters>
            <DistanceMeters>NAN</DistanceMeters>
          </Trackpoint>
          <Trackpoint>
            <Time>2022-09-23T09:00:03.000Z</Time>
            <Position>
              <LatitudeDegrees>49.50087538920342922210693359375</LatitudeDegrees>
              <LongitudeDegrees>20.67368312738835811614990234375</LongitudeDegrees>
            </Position>
            <AltitudeMeters>337.399993896484375</AltitudeMeters>
            <DistanceMeters>NAN</DistanceMeters>
          </Trackpoint>
          <Trackpoint>
            <Time>2022-09-23T09:00:10.000Z</Time>
            <Position>
              <LatitudeDegrees>49.50092098675668239593505859375</LatitudeDegrees>
              <LongitudeDegrees>20.67325598560273647308349609375</LongitudeDegrees>
            </Position>
            <AltitudeMeters>337.79998779296875</AltitudeMeters>
            <DistanceMeters>NAN</DistanceMeters>
          </Trackpoint>
          <Trackpoint>
            <Time>2022-09-23T09:00:16.000Z</Time>
            <Position>
              <LatitudeDegrees>49.50097161345183849334716796875</LatitudeDegrees>
              <LongitudeDegrees>20.67296077497303485870361328125</LongitudeDegrees>
            </Position>
            <AltitudeMeters>337.79998779296875</AltitudeMeters>
            <DistanceMeters>NAN</DistanceMeters>
          </Trackpoint>
          <Trackpoint>
            <Time>2022-09-23T09:00:22.000Z</Time>
            <Position>
              <LatitudeDegrees>49.50102592818439006805419921875</LatitudeDegrees>
              <LongitudeDegrees>20.67269691266119480133056640625</LongitudeDegrees>
            </Position>
            <AltitudeMeters>338</AltitudeMeters>
            <DistanceMeters>NAN</DistanceMeters>
          </Trackpoint>
          <Trackpoint>
            <Time>2022-09-23T09:00:29.000Z</Time>
            <Position>
              <LatitudeDegrees>49.5010833442211151123046875</LatitudeDegrees>
              <LongitudeDegrees>20.67243036814033985137939453125</LongitudeDegrees>
            </Position>
            <AltitudeMeters>338</AltitudeMeters>
            <DistanceMeters>NAN</DistanceMeters>
          </Trackpoint>
          <Trackpoint>
            <Time>2022-09-23T09:00:36.000Z</Time>
            <Position>
              <LatitudeDegrees>49.50111544691026210784912109375</LatitudeDegrees>
              <LongitudeDegrees>20.67220539785921573638916015625</LongitudeDegrees>
            </Position>
            <AltitudeMeters>337.79998779296875</AltitudeMeters>
            <DistanceMeters>NAN</DistanceMeters>
          </Trackpoint>
          <Trackpoint>
            <Time>2022-09-23T09:00:43.000Z</Time>
            <Position>
              <LatitudeDegrees>49.5010994374752044677734375</LatitudeDegrees>
              <LongitudeDegrees>20.67202568985521793365478515625</LongitudeDegrees>
            </Position>
            <AltitudeMeters>338</AltitudeMeters>
            <DistanceMeters>NAN</DistanceMeters>
          </Trackpoint>
          <Trackpoint>
            <Time>2022-09-23T09:00:45.000Z</Time>
            <Position>
              <LatitudeDegrees>49.50109264813363552093505859375</LatitudeDegrees>
              <LongitudeDegrees>20.67198939621448516845703125</LongitudeDegrees>
            </Position>
            <AltitudeMeters>338</AltitudeMeters>
            <DistanceMeters>NAN</DistanceMeters>
          </Trackpoint>
          <Trackpoint>
            <Time>2022-09-23T09:00:48.000Z</Time>
            <Position>
              <LatitudeDegrees>49.50108258984982967376708984375</LatitudeDegrees>
              <LongitudeDegrees>20.67193935625255107879638671875</LongitudeDegrees>
            </Position>
            <AltitudeMeters>338</AltitudeMeters>
            <DistanceMeters>NAN</DistanceMeters>
          </Trackpoint>
          <Trackpoint>
            <Time>2022-09-23T09:01:01.000Z</Time>
            <Position>
              <LatitudeDegrees>49.50108258984982967376708984375</LatitudeDegrees>
              <LongitudeDegrees>20.67193935625255107879638671875</LongitudeDegrees>
            </Position>
            <AltitudeMeters>338</AltitudeMeters>
            <DistanceMeters>NAN</DistanceMeters>
          </Trackpoint>
          <Trackpoint>
            <Time>2022-09-23T09:01:03.000Z</Time>
            <Position>
              <LatitudeDegrees>49.50108258984982967376708984375</LatitudeDegrees>
              <LongitudeDegrees>20.67193935625255107879638671875</LongitudeDegrees>
            </Position>
            <AltitudeMeters>338</AltitudeMeters>
            <DistanceMeters>NAN</DistanceMeters>
          </Trackpoint>
          <Trackpoint>
            <Time>2022-09-23T09:01:29.000Z</Time>
            <Position>
              <LatitudeDegrees>49.50108258984982967376708984375</LatitudeDegrees>
              <LongitudeDegrees>20.67193935625255107879638671875</LongitudeDegrees>
            </Position>
            <AltitudeMeters>338.20001220703125</AltitudeMeters>
            <DistanceMeters>NAN</DistanceMeters>
          </Trackpoint>
          <Trackpoint>
            <Time>2022-09-23T09:01:41.000Z</Time>
            <Position>
              <LatitudeDegrees>49.50108258984982967376708984375</LatitudeDegrees>
              <LongitudeDegrees>20.67193935625255107879638671875</LongitudeDegrees>
            </Position>
            <AltitudeMeters>338.20001220703125</AltitudeMeters>
            <DistanceMeters>NAN</DistanceMeters>
          </Trackpoint>
          <Trackpoint>
            <Time>2022-09-23T09:01:42.000Z</Time>
            <Position>
              <LatitudeDegrees>49.50108443386852741241455078125</LatitudeDegrees>
              <LongitudeDegrees>20.67193969152867794036865234375</LongitudeDegrees>
            </Position>
            <AltitudeMeters>338.20001220703125</AltitudeMeters>
            <DistanceMeters>NAN</DistanceMeters>
          </Trackpoint>
          <Trackpoint>
            <Time>2022-09-23T09:01:44.000Z</Time>
            <Position>
              <LatitudeDegrees>49.5011006109416484832763671875</LatitudeDegrees>
              <LongitudeDegrees>20.6719684414565563201904296875</LongitudeDegrees>
            </Position>
            <AltitudeMeters>338</AltitudeMeters>
            <DistanceMeters>NAN</DistanceMeters>
          </Trackpoint>
          <Trackpoint>
            <Time>2022-09-23T09:01:45.000Z</Time>
            <Position>
              <LatitudeDegrees>49.5011032931506633758544921875</LatitudeDegrees>
              <LongitudeDegrees>20.6719801761209964752197265625</LongitudeDegrees>
            </Position>
            <AltitudeMeters>338.20001220703125</AltitudeMeters>
            <DistanceMeters>NAN</DistanceMeters>
          </Trackpoint>
          <Trackpoint>
            <Time>2022-09-23T09:01:48.000Z</Time>
            <Position>
              <LatitudeDegrees>49.5011042989790439605712890625</LatitudeDegrees>
              <LongitudeDegrees>20.67198612727224826812744140625</LongitudeDegrees>
            </Position>
            <AltitudeMeters>338.20001220703125</AltitudeMeters>
            <DistanceMeters>NAN</DistanceMeters>
          </Trackpoint>
          <Trackpoint>
            <Time>2022-09-23T09:01:52.000Z</Time>
            <Position>
              <LatitudeDegrees>49.50111678801476955413818359375</LatitudeDegrees>
              <LongitudeDegrees>20.67197422496974468231201171875</LongitudeDegrees>
            </Position>
            <AltitudeMeters>338.600006103515625</AltitudeMeters>
            <DistanceMeters>NAN</DistanceMeters>
          </Trackpoint>
          <Trackpoint>
            <Time>2022-09-23T09:01:56.000Z</Time>
            <Position>
              <LatitudeDegrees>49.50115467421710491180419921875</LatitudeDegrees>
              <LongitudeDegrees>20.67192410118877887725830078125</LongitudeDegrees>
            </Position>
            <AltitudeMeters>338.600006103515625</AltitudeMeters>
            <DistanceMeters>NAN</DistanceMeters>
          </Trackpoint>
          <Trackpoint>
            <Time>2022-09-23T09:01:57.000Z</Time>
            <Position>
              <LatitudeDegrees>49.50116171501576900482177734375</LatitudeDegrees>
              <LongitudeDegrees>20.6719087623059749603271484375</LongitudeDegrees>
            </Position>
            <AltitudeMeters>338.600006103515625</AltitudeMeters>
            <DistanceMeters>NAN</DistanceMeters>
          </Trackpoint>
          <Trackpoint>
            <Time>2022-09-23T09:02:00.000Z</Time>
            <Position>
              <LatitudeDegrees>49.501200020313262939453125</LatitudeDegrees>
              <LongitudeDegrees>20.67187699489295482635498046875</LongitudeDegrees>
            </Position>
            <AltitudeMeters>338.600006103515625</AltitudeMeters>
            <DistanceMeters>NAN</DistanceMeters>
          </Trackpoint>
          <Trackpoint>
            <Time>2022-09-23T09:02:02.000Z</Time>
            <Position>
              <LatitudeDegrees>49.501216448843479156494140625</LatitudeDegrees>
              <LongitudeDegrees>20.671864338219165802001953125</LongitudeDegrees>
            </Position>
            <AltitudeMeters>338.600006103515625</AltitudeMeters>
            <DistanceMeters>NAN</DistanceMeters>
          </Trackpoint>
          <Trackpoint>
            <Time>2022-09-23T09:02:03.000Z</Time>
            <Position>
              <LatitudeDegrees>49.5012186281383037567138671875</LatitudeDegrees>
              <LongitudeDegrees>20.67185419611632823944091796875</LongitudeDegrees>
            </Position>
            <AltitudeMeters>338.600006103515625</AltitudeMeters>
            <DistanceMeters>NAN</DistanceMeters>
          </Trackpoint>
          <Trackpoint>
            <Time>2022-09-23T09:02:05.000Z</Time>
            <Position>
              <LatitudeDegrees>49.50122256763279438018798828125</LatitudeDegrees>
              <LongitudeDegrees>20.67181429825723171234130859375</LongitudeDegrees>
            </Position>
            <AltitudeMeters>338.600006103515625</AltitudeMeters>
            <DistanceMeters>NAN</DistanceMeters>
          </Trackpoint>
          <Trackpoint>
            <Time>2022-09-23T09:02:07.000Z</Time>
            <Position>
              <LatitudeDegrees>49.5012166164815425872802734375</LatitudeDegrees>
              <LongitudeDegrees>20.6717754900455474853515625</LongitudeDegrees>
            </Position>
            <AltitudeMeters>338.79998779296875</AltitudeMeters>
            <DistanceMeters>NAN</DistanceMeters>
          </Trackpoint>
          <Trackpoint>
            <Time>2022-09-23T09:02:09.000Z</Time>
            <Position>
              <LatitudeDegrees>49.50122072361409664154052734375</LatitudeDegrees>
              <LongitudeDegrees>20.67174791358411312103271484375</LongitudeDegrees>
            </Position>
            <AltitudeMeters>338.79998779296875</AltitudeMeters>
            <DistanceMeters>NAN</DistanceMeters>
          </Trackpoint>
          <Trackpoint>
            <Time>2022-09-23T09:02:11.000Z</Time>
            <Position>
              <LatitudeDegrees>49.5012253336608409881591796875</LatitudeDegrees>
              <LongitudeDegrees>20.67171907983720302581787109375</LongitudeDegrees>
            </Position>
            <AltitudeMeters>338.79998779296875</AltitudeMeters>
            <DistanceMeters>NAN</DistanceMeters>
          </Trackpoint>
          <Trackpoint>
            <Time>2022-09-23T09:02:12.000Z</Time>
            <Position>
              <LatitudeDegrees>49.50123446993529796600341796875</LatitudeDegrees>
              <LongitudeDegrees>20.67170935682952404022216796875</LongitudeDegrees>
            </Position>
            <AltitudeMeters>339</AltitudeMeters>
            <DistanceMeters>NAN</DistanceMeters>
          </Trackpoint>
          <Trackpoint>
            <Time>2022-09-23T09:02:13.000Z</Time>
            <Position>
              <LatitudeDegrees>49.501241929829120635986328125</LatitudeDegrees>
              <LongitudeDegrees>20.67169594578444957733154296875</LongitudeDegrees>
            </Position>
            <AltitudeMeters>339</AltitudeMeters>
            <DistanceMeters>NAN</DistanceMeters>
          </Trackpoint>
          <Trackpoint>
            <Time>2022-09-23T09:02:18.000Z</Time>
            <Position>
              <LatitudeDegrees>49.501283168792724609375</LatitudeDegrees>
              <LongitudeDegrees>20.6716019846498966217041015625</LongitudeDegrees>
            </Position>
            <AltitudeMeters>339.399993896484375</AltitudeMeters>
            <DistanceMeters>NAN</DistanceMeters>
          </Trackpoint>
          <Trackpoint>
            <Time>2022-09-23T09:02:19.000Z</Time>
            <Position>
              <LatitudeDegrees>49.50128794647753238677978515625</LatitudeDegrees>
              <LongitudeDegrees>20.671599805355072021484375</LongitudeDegrees>
            </Position>
            <AltitudeMeters>339.600006103515625</AltitudeMeters>
            <DistanceMeters>NAN</DistanceMeters>
          </Trackpoint>
          <Trackpoint>
            <Time>2022-09-23T09:02:23.000Z</Time>
            <Position>
              <LatitudeDegrees>49.50127352960407733917236328125</LatitudeDegrees>
              <LongitudeDegrees>20.67153635434806346893310546875</LongitudeDegrees>
            </Position>
            <AltitudeMeters>339.79998779296875</AltitudeMeters>
            <DistanceMeters>NAN</DistanceMeters>
          </Trackpoint>
          <Trackpoint>
            <Time>2022-09-23T09:02:24.000Z</Time>
            <Position>
              <LatitudeDegrees>49.5012833364307880401611328125</LatitudeDegrees>
              <LongitudeDegrees>20.67151439376175403594970703125</LongitudeDegrees>
            </Position>
            <AltitudeMeters>339.79998779296875</AltitudeMeters>
            <DistanceMeters>NAN</DistanceMeters>
          </Trackpoint>
          <Trackpoint>
            <Time>2022-09-23T09:02:25.000Z</Time>
            <Position>
              <LatitudeDegrees>49.50129322707653045654296875</LatitudeDegrees>
              <LongitudeDegrees>20.67146913148462772369384765625</LongitudeDegrees>
            </Position>
            <AltitudeMeters>340</AltitudeMeters>
            <DistanceMeters>NAN</DistanceMeters>
          </Trackpoint>
          <Trackpoint>
            <Time>2022-09-23T09:02:27.000Z</Time>
            <Position>
              <LatitudeDegrees>49.5013011060655117034912109375</LatitudeDegrees>
              <LongitudeDegrees>20.6714296527206897735595703125</LongitudeDegrees>
            </Position>
            <AltitudeMeters>340</AltitudeMeters>
            <DistanceMeters>NAN</DistanceMeters>
          </Trackpoint>
          <Trackpoint>
            <Time>2022-09-23T09:02:29.000Z</Time>
            <Position>
              <LatitudeDegrees>49.5012990944087505340576171875</LatitudeDegrees>
              <LongitudeDegrees>20.67139537073671817779541015625</LongitudeDegrees>
            </Position>
            <AltitudeMeters>340.20001220703125</AltitudeMeters>
            <DistanceMeters>NAN</DistanceMeters>
          </Trackpoint>
          <Trackpoint>
            <Time>2022-09-23T09:02:30.000Z</Time>
            <Position>
              <LatitudeDegrees>49.50131024233996868133544921875</LatitudeDegrees>
              <LongitudeDegrees>20.6713773496448993682861328125</LongitudeDegrees>
            </Position>
            <AltitudeMeters>340.399993896484375</AltitudeMeters>
            <DistanceMeters>NAN</DistanceMeters>
          </Trackpoint>
          <Trackpoint>
            <Time>2022-09-23T09:02:31.000Z</Time>
            <Position>
              <LatitudeDegrees>49.501311667263507843017578125</LatitudeDegrees>
              <LongitudeDegrees>20.67137558944523334503173828125</LongitudeDegrees>
            </Position>
            <AltitudeMeters>340.600006103515625</AltitudeMeters>
            <DistanceMeters>NAN</DistanceMeters>
          </Trackpoint>
          <Trackpoint>
            <Time>2022-09-23T09:02:35.000Z</Time>
            <Position>
              <LatitudeDegrees>49.50131736695766448974609375</LatitudeDegrees>
              <LongitudeDegrees>20.67135295830667018890380859375</LongitudeDegrees>
            </Position>
            <AltitudeMeters>341</AltitudeMeters>
            <DistanceMeters>NAN</DistanceMeters>
          </Trackpoint>
          <Trackpoint>
            <Time>2022-09-23T09:02:41.000Z</Time>
            <Position>
              <LatitudeDegrees>49.50134812854230403900146484375</LatitudeDegrees>
              <LongitudeDegrees>20.67128322087228298187255859375</LongitudeDegrees>
            </Position>
            <AltitudeMeters>341.600006103515625</AltitudeMeters>
            <DistanceMeters>NAN</DistanceMeters>
          </Trackpoint>
          <Trackpoint>
            <Time>2022-09-23T09:02:47.000Z</Time>
            <Position>
              <LatitudeDegrees>49.50138232670724391937255859375</LatitudeDegrees>
              <LongitudeDegrees>20.67121817730367183685302734375</LongitudeDegrees>
            </Position>
            <AltitudeMeters>342.600006103515625</AltitudeMeters>
            <DistanceMeters>NAN</DistanceMeters>
          </Trackpoint>
          <Trackpoint>
            <Time>2022-09-23T09:02:48.000Z</Time>
            <Position>
              <LatitudeDegrees>49.5013839192688465118408203125</LatitudeDegrees>
              <LongitudeDegrees>20.67121365107595920562744140625</LongitudeDegrees>
            </Position>
            <AltitudeMeters>342.600006103515625</AltitudeMeters>
            <DistanceMeters>NAN</DistanceMeters>
          </Trackpoint>
          <Trackpoint>
            <Time>2022-09-23T09:02:53.000Z</Time>
            <Position>
              <LatitudeDegrees>49.501414261758327484130859375</LatitudeDegrees>
              <LongitudeDegrees>20.671178363263607025146484375</LongitudeDegrees>
            </Position>
            <AltitudeMeters>343.600006103515625</AltitudeMeters>
            <DistanceMeters>NAN</DistanceMeters>
          </Trackpoint>
          <Trackpoint>
            <Time>2022-09-23T09:02:54.000Z</Time>
            <Position>
              <LatitudeDegrees>49.50141669251024723052978515625</LatitudeDegrees>
              <LongitudeDegrees>20.67117132246494293212890625</LongitudeDegrees>
            </Position>
            <AltitudeMeters>343.79998779296875</AltitudeMeters>
            <DistanceMeters>NAN</DistanceMeters>
          </Trackpoint>
          <Trackpoint>
            <Time>2022-09-23T09:03:03.000Z</Time>
            <Position>
              <LatitudeDegrees>49.5014469511806964874267578125</LatitudeDegrees>
              <LongitudeDegrees>20.67112815566360950469970703125</LongitudeDegrees>
            </Position>
            <AltitudeMeters>344.79998779296875</AltitudeMeters>
            <DistanceMeters>NAN</DistanceMeters>
          </Trackpoint>
          <Trackpoint>
            <Time>2022-09-23T09:03:04.000Z</Time>
            <Position>
              <LatitudeDegrees>49.5014533214271068572998046875</LatitudeDegrees>
              <LongitudeDegrees>20.67110552452504634857177734375</LongitudeDegrees>
            </Position>
            <AltitudeMeters>344.79998779296875</AltitudeMeters>
            <DistanceMeters>NAN</DistanceMeters>
          </Trackpoint>
          <Trackpoint>
            <Time>2022-09-23T09:03:10.000Z</Time>
            <Position>
              <LatitudeDegrees>49.50144200585782527923583984375</LatitudeDegrees>
              <LongitudeDegrees>20.67101038992404937744140625</LongitudeDegrees>
            </Position>
            <AltitudeMeters>345.600006103515625</AltitudeMeters>
            <DistanceMeters>NAN</DistanceMeters>
          </Trackpoint>
          <Trackpoint>
            <Time>2022-09-23T09:03:13.000Z</Time>
            <Position>
              <LatitudeDegrees>49.50144200585782527923583984375</LatitudeDegrees>
              <LongitudeDegrees>20.67101038992404937744140625</LongitudeDegrees>
            </Position>
            <AltitudeMeters>345.79998779296875</AltitudeMeters>
            <DistanceMeters>NAN</DistanceMeters>
          </Trackpoint>
          <Trackpoint>
            <Time>2022-09-23T09:03:21.000Z</Time>
            <Position>
              <LatitudeDegrees>49.50144200585782527923583984375</LatitudeDegrees>
              <LongitudeDegrees>20.67101038992404937744140625</LongitudeDegrees>
            </Position>
            <AltitudeMeters>345.79998779296875</AltitudeMeters>
            <DistanceMeters>NAN</DistanceMeters>
          </Trackpoint>
          <Trackpoint>
            <Time>2022-09-23T09:03:31.000Z</Time>
            <Position>
              <LatitudeDegrees>49.50144200585782527923583984375</LatitudeDegrees>
              <LongitudeDegrees>20.67101038992404937744140625</LongitudeDegrees>
            </Position>
            <AltitudeMeters>345.79998779296875</AltitudeMeters>
            <DistanceMeters>NAN</DistanceMeters>
          </Trackpoint>
          <Trackpoint>
            <Time>2022-09-23T09:03:35.000Z</Time>
            <Position>
              <LatitudeDegrees>49.50147201307117938995361328125</LatitudeDegrees>
              <LongitudeDegrees>20.670989267528057098388671875</LongitudeDegrees>
            </Position>
            <AltitudeMeters>345.79998779296875</AltitudeMeters>
            <DistanceMeters>NAN</DistanceMeters>
          </Trackpoint>
          <Trackpoint>
            <Time>2022-09-23T09:03:37.000Z</Time>
            <Position>
              <LatitudeDegrees>49.5014784671366214752197265625</LatitudeDegrees>
              <LongitudeDegrees>20.670981891453266143798828125</LongitudeDegrees>
            </Position>
            <AltitudeMeters>346</AltitudeMeters>
            <DistanceMeters>NAN</DistanceMeters>
          </Trackpoint>
          <Trackpoint>
            <Time>2022-09-23T09:03:45.000Z</Time>
            <Position>
              <LatitudeDegrees>49.501524232327938079833984375</LatitudeDegrees>
              <LongitudeDegrees>20.6709297560155391693115234375</LongitudeDegrees>
            </Position>
            <AltitudeMeters>346.79998779296875</AltitudeMeters>
            <DistanceMeters>NAN</DistanceMeters>
          </Trackpoint>
          <Trackpoint>
            <Time>2022-09-23T09:03:46.000Z</Time>
            <Position>
              <LatitudeDegrees>49.5015394873917102813720703125</LatitudeDegrees>
              <LongitudeDegrees>20.6709160096943378448486328125</LongitudeDegrees>
            </Position>
            <AltitudeMeters>347</AltitudeMeters>
            <DistanceMeters>NAN</DistanceMeters>
          </Trackpoint>
          <Trackpoint>
            <Time>2022-09-23T09:03:53.000Z</Time>
            <Position>
              <LatitudeDegrees>49.5016229711472988128662109375</LatitudeDegrees>
              <LongitudeDegrees>20.6708150915801525115966796875</LongitudeDegrees>
            </Position>
            <AltitudeMeters>348.20001220703125</AltitudeMeters>
            <DistanceMeters>NAN</DistanceMeters>
          </Trackpoint>
          <Trackpoint>
            <Time>2022-09-23T09:03:54.000Z</Time>
            <Position>
              <LatitudeDegrees>49.5016249828040599822998046875</LatitudeDegrees>
              <LongitudeDegrees>20.670796148478984832763671875</LongitudeDegrees>
            </Position>
            <AltitudeMeters>348.20001220703125</AltitudeMeters>
            <DistanceMeters>NAN</DistanceMeters>
          </Trackpoint>
          <Trackpoint>
            <Time>2022-09-23T09:03:56.000Z</Time>
            <Position>
              <LatitudeDegrees>49.5016397349536418914794921875</LatitudeDegrees>
              <LongitudeDegrees>20.6707839109003543853759765625</LongitudeDegrees>
            </Position>
            <AltitudeMeters>348.399993896484375</AltitudeMeters>
            <DistanceMeters>NAN</DistanceMeters>
          </Trackpoint>
          <Trackpoint>
            <Time>2022-09-23T09:04:00.000Z</Time>
            <Position>
              <LatitudeDegrees>49.5016491226851940155029296875</LatitudeDegrees>
              <LongitudeDegrees>20.67077100276947021484375</LongitudeDegrees>
            </Position>
            <AltitudeMeters>349</AltitudeMeters>
            <DistanceMeters>NAN</DistanceMeters>
          </Trackpoint>
          <Trackpoint>
            <Time>2022-09-23T09:04:01.000Z</Time>
            <Position>
              <LatitudeDegrees>49.50165155343711376190185546875</LatitudeDegrees>
              <LongitudeDegrees>20.67076806910336017608642578125</LongitudeDegrees>
            </Position>
            <AltitudeMeters>349.20001220703125</AltitudeMeters>
            <DistanceMeters>NAN</DistanceMeters>
          </Trackpoint>
          <Trackpoint>
            <Time>2022-09-23T09:04:05.000Z</Time>
            <Position>
              <LatitudeDegrees>49.50165800750255584716796875</LatitudeDegrees>
              <LongitudeDegrees>20.67073504440486431121826171875</LongitudeDegrees>
            </Position>
            <AltitudeMeters>349.79998779296875</AltitudeMeters>
            <DistanceMeters>NAN</DistanceMeters>
          </Trackpoint>
          <Trackpoint>
            <Time>2022-09-23T09:04:07.000Z</Time>
            <Position>
              <LatitudeDegrees>49.50165800750255584716796875</LatitudeDegrees>
              <LongitudeDegrees>20.67073504440486431121826171875</LongitudeDegrees>
            </Position>
            <AltitudeMeters>350</AltitudeMeters>
            <DistanceMeters>NAN</DistanceMeters>
          </Trackpoint>
          <Trackpoint>
            <Time>2022-09-23T09:04:08.000Z</Time>
            <Position>
              <LatitudeDegrees>49.50165800750255584716796875</LatitudeDegrees>
              <LongitudeDegrees>20.67073504440486431121826171875</LongitudeDegrees>
            </Position>
            <AltitudeMeters>350</AltitudeMeters>
            <DistanceMeters>NAN</DistanceMeters>
          </Trackpoint>
          <Trackpoint>
            <Time>2022-09-23T09:04:12.000Z</Time>
            <Position>
              <LatitudeDegrees>49.50165800750255584716796875</LatitudeDegrees>
              <LongitudeDegrees>20.6707349605858325958251953125</LongitudeDegrees>
            </Position>
            <AltitudeMeters>350</AltitudeMeters>
            <DistanceMeters>NAN</DistanceMeters>
          </Trackpoint>
          <Trackpoint>
            <Time>2022-09-23T09:04:15.000Z</Time>
            <Position>
              <LatitudeDegrees>49.50165800750255584716796875</LatitudeDegrees>
              <LongitudeDegrees>20.6707349605858325958251953125</LongitudeDegrees>
            </Position>
            <AltitudeMeters>350</AltitudeMeters>
            <DistanceMeters>NAN</DistanceMeters>
          </Trackpoint>
          <Trackpoint>
            <Time>2022-09-23T09:04:18.000Z</Time>
            <Position>
              <LatitudeDegrees>49.50165800750255584716796875</LatitudeDegrees>
              <LongitudeDegrees>20.6707349605858325958251953125</LongitudeDegrees>
            </Position>
            <AltitudeMeters>350</AltitudeMeters>
            <DistanceMeters>NAN</DistanceMeters>
          </Trackpoint>
          <Trackpoint>
            <Time>2022-09-23T09:04:21.000Z</Time>
            <Position>
              <LatitudeDegrees>49.50165775604546070098876953125</LatitudeDegrees>
              <LongitudeDegrees>20.6707342900335788726806640625</LongitudeDegrees>
            </Position>
            <AltitudeMeters>350</AltitudeMeters>
            <DistanceMeters>NAN</DistanceMeters>
          </Trackpoint>
          <Trackpoint>
            <Time>2022-09-23T09:04:30.000Z</Time>
            <Position>
              <LatitudeDegrees>49.50165775604546070098876953125</LatitudeDegrees>
              <LongitudeDegrees>20.6707342900335788726806640625</LongitudeDegrees>
            </Position>
            <AltitudeMeters>350</AltitudeMeters>
            <DistanceMeters>NAN</DistanceMeters>
          </Trackpoint>
          <Trackpoint>
            <Time>2022-09-23T09:04:34.000Z</Time>
            <Position>
              <LatitudeDegrees>49.50165666639804840087890625</LatitudeDegrees>
              <LongitudeDegrees>20.6707295961678028106689453125</LongitudeDegrees>
            </Position>
            <AltitudeMeters>350</AltitudeMeters>
            <DistanceMeters>NAN</DistanceMeters>
          </Trackpoint>
          <Trackpoint>
            <Time>2022-09-23T09:04:35.000Z</Time>
            <Position>
              <LatitudeDegrees>49.50165666639804840087890625</LatitudeDegrees>
              <LongitudeDegrees>20.6707295961678028106689453125</LongitudeDegrees>
            </Position>
            <AltitudeMeters>350</AltitudeMeters>
            <DistanceMeters>NAN</DistanceMeters>
          </Trackpoint>
          <Trackpoint>
            <Time>2022-09-23T09:04:41.000Z</Time>
            <Position>
              <LatitudeDegrees>49.50165373273193836212158203125</LatitudeDegrees>
              <LongitudeDegrees>20.67071928642690181732177734375</LongitudeDegrees>
            </Position>
            <AltitudeMeters>350</AltitudeMeters>
            <DistanceMeters>NAN</DistanceMeters>
          </Trackpoint>
          <Trackpoint>
            <Time>2022-09-23T09:04:45.000Z</Time>
            <Position>
              <LatitudeDegrees>49.50165188871324062347412109375</LatitudeDegrees>
              <LongitudeDegrees>20.6707081384956836700439453125</LongitudeDegrees>
            </Position>
            <AltitudeMeters>349.79998779296875</AltitudeMeters>
            <DistanceMeters>NAN</DistanceMeters>
          </Trackpoint>
          <Trackpoint>
            <Time>2022-09-23T09:04:47.000Z</Time>
            <Position>
              <LatitudeDegrees>49.501646272838115692138671875</LatitudeDegrees>
              <LongitudeDegrees>20.67058484070003032684326171875</LongitudeDegrees>
            </Position>
            <AltitudeMeters>349.600006103515625</AltitudeMeters>
            <DistanceMeters>NAN</DistanceMeters>
          </Trackpoint>
          <Trackpoint>
            <Time>2022-09-23T09:04:49.000Z</Time>
            <Position>
              <LatitudeDegrees>49.5016541518270969390869140625</LatitudeDegrees>
              <LongitudeDegrees>20.6704255007207393646240234375</LongitudeDegrees>
            </Position>
            <AltitudeMeters>349.20001220703125</AltitudeMeters>
            <DistanceMeters>NAN</DistanceMeters>
          </Trackpoint>
          <Trackpoint>
            <Time>2022-09-23T09:04:51.000Z</Time>
            <Position>
              <LatitudeDegrees>49.50165859423577785491943359375</LatitudeDegrees>
              <LongitudeDegrees>20.6702377460896968841552734375</LongitudeDegrees>
            </Position>
            <AltitudeMeters>348.399993896484375</AltitudeMeters>
            <DistanceMeters>NAN</DistanceMeters>
          </Trackpoint>
          <Trackpoint>
            <Time>2022-09-23T09:04:52.000Z</Time>
            <Position>
              <LatitudeDegrees>49.5016645453870296478271484375</LatitudeDegrees>
              <LongitudeDegrees>20.670147053897380828857421875</LongitudeDegrees>
            </Position>
            <AltitudeMeters>347.79998779296875</AltitudeMeters>
            <DistanceMeters>NAN</DistanceMeters>
          </Trackpoint>
          <Trackpoint>
            <Time>2022-09-23T09:04:54.000Z</Time>
            <Position>
              <LatitudeDegrees>49.50168038718402385711669921875</LatitudeDegrees>
              <LongitudeDegrees>20.66990003921091556549072265625</LongitudeDegrees>
            </Position>
            <AltitudeMeters>346.600006103515625</AltitudeMeters>
            <DistanceMeters>NAN</DistanceMeters>
          </Trackpoint>
          <Trackpoint>
            <Time>2022-09-23T09:04:56.000Z</Time>
            <Position>
              <LatitudeDegrees>49.501696564257144927978515625</LatitudeDegrees>
              <LongitudeDegrees>20.66967959515750408172607421875</LongitudeDegrees>
            </Position>
            <AltitudeMeters>345.20001220703125</AltitudeMeters>
            <DistanceMeters>NAN</DistanceMeters>
          </Trackpoint>
          <Trackpoint>
            <Time>2022-09-23T09:04:58.000Z</Time>
            <Position>
              <LatitudeDegrees>49.50173445045948028564453125</LatitudeDegrees>
              <LongitudeDegrees>20.66945998929440975189208984375</LongitudeDegrees>
            </Position>
            <AltitudeMeters>344.399993896484375</AltitudeMeters>
            <DistanceMeters>NAN</DistanceMeters>
          </Trackpoint>
          <Trackpoint>
            <Time>2022-09-23T09:04:59.000Z</Time>
            <Position>
              <LatitudeDegrees>49.50175884179770946502685546875</LatitudeDegrees>
              <LongitudeDegrees>20.66934742033481597900390625</LongitudeDegrees>
            </Position>
            <AltitudeMeters>344.20001220703125</AltitudeMeters>
            <DistanceMeters>NAN</DistanceMeters>
          </Trackpoint>
          <Trackpoint>
            <Time>2022-09-23T09:05:01.000Z</Time>
            <Position>
              <LatitudeDegrees>49.50180645100772380828857421875</LatitudeDegrees>
              <LongitudeDegrees>20.66911968402564525604248046875</LongitudeDegrees>
            </Position>
            <AltitudeMeters>343.20001220703125</AltitudeMeters>
            <DistanceMeters>NAN</DistanceMeters>
          </Trackpoint>
          <Trackpoint>
            <Time>2022-09-23T09:05:02.000Z</Time>
            <Position>
              <LatitudeDegrees>49.50182673521339893341064453125</LatitudeDegrees>
              <LongitudeDegrees>20.66900552250444889068603515625</LongitudeDegrees>
            </Position>
            <AltitudeMeters>343</AltitudeMeters>
            <DistanceMeters>NAN</DistanceMeters>
          </Trackpoint>
          <Trackpoint>
            <Time>2022-09-23T09:05:03.000Z</Time>
            <Position>
              <LatitudeDegrees>49.50184316374361515045166015625</LatitudeDegrees>
              <LongitudeDegrees>20.6688949652016162872314453125</LongitudeDegrees>
            </Position>
            <AltitudeMeters>342.79998779296875</AltitudeMeters>
            <DistanceMeters>NAN</DistanceMeters>
          </Trackpoint>
          <Trackpoint>
            <Time>2022-09-23T09:05:06.000Z</Time>
            <Position>
              <LatitudeDegrees>49.50186990201473236083984375</LatitudeDegrees>
              <LongitudeDegrees>20.6686002574861049652099609375</LongitudeDegrees>
            </Position>
            <AltitudeMeters>343.399993896484375</AltitudeMeters>
            <DistanceMeters>NAN</DistanceMeters>
          </Trackpoint>
          <Trackpoint>
            <Time>2022-09-23T09:05:11.000Z</Time>
            <Position>
              <LatitudeDegrees>49.501956067979335784912109375</LatitudeDegrees>
              <LongitudeDegrees>20.668171606957912445068359375</LongitudeDegrees>
            </Position>
            <AltitudeMeters>343.600006103515625</AltitudeMeters>
            <DistanceMeters>NAN</DistanceMeters>
          </Trackpoint>
          <Trackpoint>
            <Time>2022-09-23T09:05:15.000Z</Time>
            <Position>
              <LatitudeDegrees>49.50202790088951587677001953125</LatitudeDegrees>
              <LongitudeDegrees>20.66779584623873233795166015625</LongitudeDegrees>
            </Position>
            <AltitudeMeters>342.79998779296875</AltitudeMeters>
            <DistanceMeters>NAN</DistanceMeters>
          </Trackpoint>
          <Trackpoint>
            <Time>2022-09-23T09:05:16.000Z</Time>
            <Position>
              <LatitudeDegrees>49.502039887011051177978515625</LatitudeDegrees>
              <LongitudeDegrees>20.66769744269549846649169921875</LongitudeDegrees>
            </Position>
            <AltitudeMeters>342.79998779296875</AltitudeMeters>
            <DistanceMeters>NAN</DistanceMeters>
          </Trackpoint>
          <Trackpoint>
            <Time>2022-09-23T09:05:20.000Z</Time>
            <Position>
              <LatitudeDegrees>49.50210149399936199188232421875</LatitudeDegrees>
              <LongitudeDegrees>20.66727315075695514678955078125</LongitudeDegrees>
            </Position>
            <AltitudeMeters>342</AltitudeMeters>
            <DistanceMeters>NAN</DistanceMeters>
          </Trackpoint>
          <Trackpoint>
            <Time>2022-09-23T09:05:22.000Z</Time>
            <Position>
              <LatitudeDegrees>49.50212848372757434844970703125</LatitudeDegrees>
              <LongitudeDegrees>20.66704901866614818572998046875</LongitudeDegrees>
            </Position>
            <AltitudeMeters>341.399993896484375</AltitudeMeters>
            <DistanceMeters>NAN</DistanceMeters>
          </Trackpoint>
          <Trackpoint>
            <Time>2022-09-23T09:05:24.000Z</Time>
            <Position>
              <LatitudeDegrees>49.50215555727481842041015625</LatitudeDegrees>
              <LongitudeDegrees>20.66684760153293609619140625</LongitudeDegrees>
            </Position>
            <AltitudeMeters>340.79998779296875</AltitudeMeters>
            <DistanceMeters>NAN</DistanceMeters>
          </Trackpoint>
          <Trackpoint>
            <Time>2022-09-23T09:05:25.000Z</Time>
            <Position>
              <LatitudeDegrees>49.5021731592714786529541015625</LatitudeDegrees>
              <LongitudeDegrees>20.66670821048319339752197265625</LongitudeDegrees>
            </Position>
            <AltitudeMeters>340.399993896484375</AltitudeMeters>
            <DistanceMeters>NAN</DistanceMeters>
          </Trackpoint>
          <Trackpoint>
            <Time>2022-09-23T09:05:28.000Z</Time>
            <Position>
              <LatitudeDegrees>49.50222772546112537384033203125</LatitudeDegrees>
              <LongitudeDegrees>20.666367150843143463134765625</LongitudeDegrees>
            </Position>
            <AltitudeMeters>339.399993896484375</AltitudeMeters>
            <DistanceMeters>NAN</DistanceMeters>
          </Trackpoint>
          <Trackpoint>
            <Time>2022-09-23T09:05:30.000Z</Time>
            <Position>
              <LatitudeDegrees>49.5023099519312381744384765625</LatitudeDegrees>
              <LongitudeDegrees>20.66611158661544322967529296875</LongitudeDegrees>
            </Position>
            <AltitudeMeters>338.20001220703125</AltitudeMeters>
            <DistanceMeters>NAN</DistanceMeters>
          </Trackpoint>
          <Trackpoint>
            <Time>2022-09-23T09:05:31.000Z</Time>
            <Position>
              <LatitudeDegrees>49.502360410988330841064453125</LatitudeDegrees>
              <LongitudeDegrees>20.666005052626132965087890625</LongitudeDegrees>
            </Position>
            <AltitudeMeters>337.600006103515625</AltitudeMeters>
            <DistanceMeters>NAN</DistanceMeters>
          </Trackpoint>
          <Trackpoint>
            <Time>2022-09-23T09:05:32.000Z</Time>
            <Position>
              <LatitudeDegrees>49.50241615064442157745361328125</LatitudeDegrees>
              <LongitudeDegrees>20.6659066490828990936279296875</LongitudeDegrees>
            </Position>
            <AltitudeMeters>337.20001220703125</AltitudeMeters>
            <DistanceMeters>NAN</DistanceMeters>
          </Trackpoint>
          <Trackpoint>
            <Time>2022-09-23T09:05:36.000Z</Time>
            <Position>
              <LatitudeDegrees>49.50264598242938518524169921875</LatitudeDegrees>
              <LongitudeDegrees>20.665549077093601226806640625</LongitudeDegrees>
            </Position>
            <AltitudeMeters>336.399993896484375</AltitudeMeters>
            <DistanceMeters>NAN</DistanceMeters>
          </Trackpoint>
          <Trackpoint>
            <Time>2022-09-23T09:05:38.000Z</Time>
            <Position>
              <LatitudeDegrees>49.50275561772286891937255859375</LatitudeDegrees>
              <LongitudeDegrees>20.66535302437841892242431640625</LongitudeDegrees>
            </Position>
            <AltitudeMeters>336.20001220703125</AltitudeMeters>
            <DistanceMeters>NAN</DistanceMeters>
          </Trackpoint>
          <Trackpoint>
            <Time>2022-09-23T09:05:39.000Z</Time>
            <Position>
              <LatitudeDegrees>49.5028132013976573944091796875</LatitudeDegrees>
              <LongitudeDegrees>20.66525663249194622039794921875</LongitudeDegrees>
            </Position>
            <AltitudeMeters>335.79998779296875</AltitudeMeters>
            <DistanceMeters>NAN</DistanceMeters>
          </Trackpoint>
          <Trackpoint>
            <Time>2022-09-23T09:05:42.000Z</Time>
            <Position>
              <LatitudeDegrees>49.50297740288078784942626953125</LatitudeDegrees>
              <LongitudeDegrees>20.664968378841876983642578125</LongitudeDegrees>
            </Position>
            <AltitudeMeters>334.79998779296875</AltitudeMeters>
            <DistanceMeters>NAN</DistanceMeters>
          </Trackpoint>
          <Trackpoint>
            <Time>2022-09-23T09:05:45.000Z</Time>
            <Position>
              <LatitudeDegrees>49.50313900597393512725830078125</LatitudeDegrees>
              <LongitudeDegrees>20.664740391075611114501953125</LongitudeDegrees>
            </Position>
            <AltitudeMeters>334.399993896484375</AltitudeMeters>
            <DistanceMeters>NAN</DistanceMeters>
          </Trackpoint>
          <Trackpoint>
            <Time>2022-09-23T09:05:50.000Z</Time>
            <Position>
              <LatitudeDegrees>49.5034213922917842864990234375</LatitudeDegrees>
              <LongitudeDegrees>20.66444031894207000732421875</LongitudeDegrees>
            </Position>
            <AltitudeMeters>334.79998779296875</AltitudeMeters>
            <DistanceMeters>NAN</DistanceMeters>
          </Trackpoint>
          <Trackpoint>
            <Time>2022-09-23T09:05:54.000Z</Time>
            <Position>
              <LatitudeDegrees>49.50362113304436206817626953125</LatitudeDegrees>
              <LongitudeDegrees>20.6642151810228824615478515625</LongitudeDegrees>
            </Position>
            <AltitudeMeters>335.399993896484375</AltitudeMeters>
            <DistanceMeters>NAN</DistanceMeters>
          </Trackpoint>
          <Trackpoint>
            <Time>2022-09-23T09:05:56.000Z</Time>
            <Position>
              <LatitudeDegrees>49.50371769256889820098876953125</LatitudeDegrees>
              <LongitudeDegrees>20.664120130240917205810546875</LongitudeDegrees>
            </Position>
            <AltitudeMeters>335.399993896484375</AltitudeMeters>
            <DistanceMeters>NAN</DistanceMeters>
          </Trackpoint>
          <Trackpoint>
            <Time>2022-09-23T09:06:00.000Z</Time>
            <Position>
              <LatitudeDegrees>49.50391776859760284423828125</LatitudeDegrees>
              <LongitudeDegrees>20.66394452936947345733642578125</LongitudeDegrees>
            </Position>
            <AltitudeMeters>335.20001220703125</AltitudeMeters>
            <DistanceMeters>NAN</DistanceMeters>
          </Trackpoint>
          <Trackpoint>
            <Time>2022-09-23T09:06:03.000Z</Time>
            <Position>
              <LatitudeDegrees>49.50405447743833065032958984375</LatitudeDegrees>
              <LongitudeDegrees>20.66381075419485569000244140625</LongitudeDegrees>
            </Position>
            <AltitudeMeters>335.20001220703125</AltitudeMeters>
            <DistanceMeters>NAN</DistanceMeters>
          </Trackpoint>
          <Trackpoint>
            <Time>2022-09-23T09:06:10.000Z</Time>
            <Position>
              <LatitudeDegrees>49.50436226092278957366943359375</LatitudeDegrees>
              <LongitudeDegrees>20.663564242422580718994140625</LongitudeDegrees>
            </Position>
            <AltitudeMeters>334.600006103515625</AltitudeMeters>
            <DistanceMeters>NAN</DistanceMeters>
          </Trackpoint>
          <Trackpoint>
            <Time>2022-09-23T09:06:19.000Z</Time>
            <Position>
              <LatitudeDegrees>49.5047584734857082366943359375</LatitudeDegrees>
              <LongitudeDegrees>20.66332426853477954864501953125</LongitudeDegrees>
            </Position>
            <AltitudeMeters>334.600006103515625</AltitudeMeters>
            <DistanceMeters>NAN</DistanceMeters>
          </Trackpoint>
          <Trackpoint>
            <Time>2022-09-23T09:06:20.000Z</Time>
            <Position>
              <LatitudeDegrees>49.5048037357628345489501953125</LatitudeDegrees>
              <LongitudeDegrees>20.6632888130843639373779296875</LongitudeDegrees>
            </Position>
            <AltitudeMeters>334.600006103515625</AltitudeMeters>
            <DistanceMeters>NAN</DistanceMeters>
          </Trackpoint>
          <Trackpoint>
            <Time>2022-09-23T09:06:24.000Z</Time>
            <Position>
              <LatitudeDegrees>49.504966177046298980712890625</LatitudeDegrees>
              <LongitudeDegrees>20.66316802985966205596923828125</LongitudeDegrees>
            </Position>
            <AltitudeMeters>334.399993896484375</AltitudeMeters>
            <DistanceMeters>NAN</DistanceMeters>
          </Trackpoint>
          <Trackpoint>
            <Time>2022-09-23T09:06:29.000Z</Time>
            <Position>
              <LatitudeDegrees>49.50515694916248321533203125</LatitudeDegrees>
              <LongitudeDegrees>20.663004331290721893310546875</LongitudeDegrees>
            </Position>
            <AltitudeMeters>334.399993896484375</AltitudeMeters>
            <DistanceMeters>NAN</DistanceMeters>
          </Trackpoint>
          <Trackpoint>
            <Time>2022-09-23T09:06:31.000Z</Time>
            <Position>
              <LatitudeDegrees>49.50522827915847301483154296875</LatitudeDegrees>
              <LongitudeDegrees>20.66293568350374698638916015625</LongitudeDegrees>
            </Position>
            <AltitudeMeters>334.399993896484375</AltitudeMeters>
            <DistanceMeters>NAN</DistanceMeters>
          </Trackpoint>
          <Trackpoint>
            <Time>2022-09-23T09:06:35.000Z</Time>
            <Position>
              <LatitudeDegrees>49.5053616352379322052001953125</LatitudeDegrees>
              <LongitudeDegrees>20.6627741642296314239501953125</LongitudeDegrees>
            </Position>
            <AltitudeMeters>334.20001220703125</AltitudeMeters>
            <DistanceMeters>NAN</DistanceMeters>
          </Trackpoint>
          <Trackpoint>
            <Time>2022-09-23T09:06:36.000Z</Time>
            <Position>
              <LatitudeDegrees>49.5053948275744915008544921875</LatitudeDegrees>
              <LongitudeDegrees>20.6627248786389827728271484375</LongitudeDegrees>
            </Position>
            <AltitudeMeters>334.20001220703125</AltitudeMeters>
            <DistanceMeters>NAN</DistanceMeters>
          </Trackpoint>
          <Trackpoint>
            <Time>2022-09-23T09:06:39.000Z</Time>
            <Position>
              <LatitudeDegrees>49.50549683533608913421630859375</LatitudeDegrees>
              <LongitudeDegrees>20.66258196718990802764892578125</LongitudeDegrees>
            </Position>
            <AltitudeMeters>334</AltitudeMeters>
            <DistanceMeters>NAN</DistanceMeters>
          </Trackpoint>
          <Trackpoint>
            <Time>2022-09-23T09:06:41.000Z</Time>
            <Position>
              <LatitudeDegrees>49.5055584423243999481201171875</LatitudeDegrees>
              <LongitudeDegrees>20.66247836686670780181884765625</LongitudeDegrees>
            </Position>
            <AltitudeMeters>333.79998779296875</AltitudeMeters>
            <DistanceMeters>NAN</DistanceMeters>
          </Trackpoint>
          <Trackpoint>
            <Time>2022-09-23T09:06:44.000Z</Time>
            <Position>
              <LatitudeDegrees>49.50564016588032245635986328125</LatitudeDegrees>
              <LongitudeDegrees>20.6623141653835773468017578125</LongitudeDegrees>
            </Position>
            <AltitudeMeters>333.79998779296875</AltitudeMeters>
            <DistanceMeters>NAN</DistanceMeters>
          </Trackpoint>
          <Trackpoint>
            <Time>2022-09-23T09:06:47.000Z</Time>
            <Position>
              <LatitudeDegrees>49.5057133398950099945068359375</LatitudeDegrees>
              <LongitudeDegrees>20.66213705576956272125244140625</LongitudeDegrees>
            </Position>
            <AltitudeMeters>333.79998779296875</AltitudeMeters>
            <DistanceMeters>NAN</DistanceMeters>
          </Trackpoint>
          <Trackpoint>
            <Time>2022-09-23T09:06:49.000Z</Time>
            <Position>
              <LatitudeDegrees>49.50576203875243663787841796875</LatitudeDegrees>
              <LongitudeDegrees>20.6620120815932750701904296875</LongitudeDegrees>
            </Position>
            <AltitudeMeters>333.600006103515625</AltitudeMeters>
            <DistanceMeters>NAN</DistanceMeters>
          </Trackpoint>
          <Trackpoint>
            <Time>2022-09-23T09:06:51.000Z</Time>
            <Position>
              <LatitudeDegrees>49.5058142580091953277587890625</LatitudeDegrees>
              <LongitudeDegrees>20.66189498640596866607666015625</LongitudeDegrees>
            </Position>
            <AltitudeMeters>333.399993896484375</AltitudeMeters>
            <DistanceMeters>NAN</DistanceMeters>
          </Trackpoint>
          <Trackpoint>
            <Time>2022-09-23T09:06:59.000Z</Time>
            <Position>
              <LatitudeDegrees>49.506003521382808685302734375</LatitudeDegrees>
              <LongitudeDegrees>20.66141101531684398651123046875</LongitudeDegrees>
            </Position>
            <AltitudeMeters>333.20001220703125</AltitudeMeters>
            <DistanceMeters>NAN</DistanceMeters>
          </Trackpoint>
          <Trackpoint>
            <Time>2022-09-23T09:07:01.000Z</Time>
            <Position>
              <LatitudeDegrees>49.50605775229632854461669921875</LatitudeDegrees>
              <LongitudeDegrees>20.66131194122135639190673828125</LongitudeDegrees>
            </Position>
            <AltitudeMeters>333.20001220703125</AltitudeMeters>
            <DistanceMeters>NAN</DistanceMeters>
          </Trackpoint>
          <Trackpoint>
            <Time>2022-09-23T09:07:05.000Z</Time>
            <Position>
              <LatitudeDegrees>49.50617484748363494873046875</LatitudeDegrees>
              <LongitudeDegrees>20.66113390959799289703369140625</LongitudeDegrees>
            </Position>
            <AltitudeMeters>333.20001220703125</AltitudeMeters>
            <DistanceMeters>NAN</DistanceMeters>
          </Trackpoint>
          <Trackpoint>
            <Time>2022-09-23T09:07:10.000Z</Time>
            <Position>
              <LatitudeDegrees>49.50636402703821659088134765625</LatitudeDegrees>
              <LongitudeDegrees>20.660925619304180145263671875</LongitudeDegrees>
            </Position>
            <AltitudeMeters>333.399993896484375</AltitudeMeters>
            <DistanceMeters>NAN</DistanceMeters>
          </Trackpoint>
          <Trackpoint>
            <Time>2022-09-23T09:07:12.000Z</Time>
            <Position>
              <LatitudeDegrees>49.50644533149898052215576171875</LatitudeDegrees>
              <LongitudeDegrees>20.66083920188248157501220703125</LongitudeDegrees>
            </Position>
            <AltitudeMeters>333</AltitudeMeters>
            <DistanceMeters>NAN</DistanceMeters>
          </Trackpoint>
          <Trackpoint>
            <Time>2022-09-23T09:07:14.000Z</Time>
            <Position>
              <LatitudeDegrees>49.506526887416839599609375</LatitudeDegrees>
              <LongitudeDegrees>20.66075135953724384307861328125</LongitudeDegrees>
            </Position>
            <AltitudeMeters>332.600006103515625</AltitudeMeters>
            <DistanceMeters>NAN</DistanceMeters>
          </Trackpoint>
          <Trackpoint>
            <Time>2022-09-23T09:07:16.000Z</Time>
            <Position>
              <LatitudeDegrees>49.5066060125827789306640625</LatitudeDegrees>
              <LongitudeDegrees>20.66067424602806568145751953125</LongitudeDegrees>
            </Position>
            <AltitudeMeters>332.399993896484375</AltitudeMeters>
            <DistanceMeters>NAN</DistanceMeters>
          </Trackpoint>
          <Trackpoint>
            <Time>2022-09-23T09:07:19.000Z</Time>
            <Position>
              <LatitudeDegrees>49.5067278854548931121826171875</LatitudeDegrees>
              <LongitudeDegrees>20.66057131625711917877197265625</LongitudeDegrees>
            </Position>
            <AltitudeMeters>332.600006103515625</AltitudeMeters>
            <DistanceMeters>NAN</DistanceMeters>
          </Trackpoint>
          <Trackpoint>
            <Time>2022-09-23T09:07:28.000Z</Time>
            <Position>
              <LatitudeDegrees>49.5071010477840900421142578125</LatitudeDegrees>
              <LongitudeDegrees>20.66027459688484668731689453125</LongitudeDegrees>
            </Position>
            <AltitudeMeters>332.600006103515625</AltitudeMeters>
            <DistanceMeters>NAN</DistanceMeters>
          </Trackpoint>
          <Trackpoint>
            <Time>2022-09-23T09:07:34.000Z</Time>
            <Position>
              <LatitudeDegrees>49.50731704942882061004638671875</LatitudeDegrees>
              <LongitudeDegrees>20.66009321250021457672119140625</LongitudeDegrees>
            </Position>
            <AltitudeMeters>333</AltitudeMeters>
            <DistanceMeters>NAN</DistanceMeters>
          </Trackpoint>
          <Trackpoint>
            <Time>2022-09-23T09:07:36.000Z</Time>
            <Position>
              <LatitudeDegrees>49.50739265419542789459228515625</LatitudeDegrees>
              <LongitudeDegrees>20.660043172538280487060546875</LongitudeDegrees>
            </Position>
            <AltitudeMeters>333</AltitudeMeters>
            <DistanceMeters>NAN</DistanceMeters>
          </Trackpoint>
          <Trackpoint>
            <Time>2022-09-23T09:07:44.000Z</Time>
            <Position>
              <LatitudeDegrees>49.50772172771394252777099609375</LatitudeDegrees>
              <LongitudeDegrees>20.65987930633127689361572265625</LongitudeDegrees>
            </Position>
            <AltitudeMeters>332.600006103515625</AltitudeMeters>
            <DistanceMeters>NAN</DistanceMeters>
          </Trackpoint>
          <Trackpoint>
            <Time>2022-09-23T09:07:48.000Z</Time>
            <Position>
              <LatitudeDegrees>49.50786924920976161956787109375</LatitudeDegrees>
              <LongitudeDegrees>20.65979749895632266998291015625</LongitudeDegrees>
            </Position>
            <AltitudeMeters>332.600006103515625</AltitudeMeters>
            <DistanceMeters>NAN</DistanceMeters>
          </Trackpoint>
          <Trackpoint>
            <Time>2022-09-23T09:07:54.000Z</Time>
            <Position>
              <LatitudeDegrees>49.5080991648137569427490234375</LatitudeDegrees>
              <LongitudeDegrees>20.659683756530284881591796875</LongitudeDegrees>
            </Position>
            <AltitudeMeters>332.399993896484375</AltitudeMeters>
            <DistanceMeters>NAN</DistanceMeters>
          </Trackpoint>
          <Trackpoint>
            <Time>2022-09-23T09:08:04.000Z</Time>
            <Position>
              <LatitudeDegrees>49.50847106985747814178466796875</LatitudeDegrees>
              <LongitudeDegrees>20.65948049537837505340576171875</LongitudeDegrees>
            </Position>
            <AltitudeMeters>332.399993896484375</AltitudeMeters>
            <DistanceMeters>NAN</DistanceMeters>
          </Trackpoint>
          <Trackpoint>
            <Time>2022-09-23T09:08:16.000Z</Time>
            <Position>
              <LatitudeDegrees>49.508893601596355438232421875</LatitudeDegrees>
              <LongitudeDegrees>20.65918025560677051544189453125</LongitudeDegrees>
            </Position>
            <AltitudeMeters>332.399993896484375</AltitudeMeters>
            <DistanceMeters>NAN</DistanceMeters>
          </Trackpoint>
          <Trackpoint>
            <Time>2022-09-23T09:08:25.000Z</Time>
            <Position>
              <LatitudeDegrees>49.50917900539934635162353515625</LatitudeDegrees>
              <LongitudeDegrees>20.65877641551196575164794921875</LongitudeDegrees>
            </Position>
            <AltitudeMeters>332.600006103515625</AltitudeMeters>
            <DistanceMeters>NAN</DistanceMeters>
          </Trackpoint>
          <Trackpoint>
            <Time>2022-09-23T09:08:30.000Z</Time>
            <Position>
              <LatitudeDegrees>49.5093096792697906494140625</LatitudeDegrees>
              <LongitudeDegrees>20.65860877744853496551513671875</LongitudeDegrees>
            </Position>
            <AltitudeMeters>333.399993896484375</AltitudeMeters>
            <DistanceMeters>NAN</DistanceMeters>
          </Trackpoint>
          <Trackpoint>
            <Time>2022-09-23T09:08:32.000Z</Time>
            <Position>
              <LatitudeDegrees>49.509371705353260040283203125</LatitudeDegrees>
              <LongitudeDegrees>20.658541806042194366455078125</LongitudeDegrees>
            </Position>
            <AltitudeMeters>333.600006103515625</AltitudeMeters>
            <DistanceMeters>NAN</DistanceMeters>
          </Trackpoint>
          <Trackpoint>
            <Time>2022-09-23T09:08:35.000Z</Time>
            <Position>
              <LatitudeDegrees>49.50948611833155155181884765625</LatitudeDegrees>
              <LongitudeDegrees>20.6584420613944530487060546875</LongitudeDegrees>
            </Position>
            <AltitudeMeters>333</AltitudeMeters>
            <DistanceMeters>NAN</DistanceMeters>
          </Trackpoint>
          <Trackpoint>
            <Time>2022-09-23T09:08:37.000Z</Time>
            <Position>
              <LatitudeDegrees>49.50957479886710643768310546875</LatitudeDegrees>
              <LongitudeDegrees>20.658378191292285919189453125</LongitudeDegrees>
            </Position>
            <AltitudeMeters>332.79998779296875</AltitudeMeters>
            <DistanceMeters>NAN</DistanceMeters>
          </Trackpoint>
          <Trackpoint>
            <Time>2022-09-23T09:08:40.000Z</Time>
            <Position>
              <LatitudeDegrees>49.50971092097461223602294921875</LatitudeDegrees>
              <LongitudeDegrees>20.658270902931690216064453125</LongitudeDegrees>
            </Position>
            <AltitudeMeters>332.399993896484375</AltitudeMeters>
            <DistanceMeters>NAN</DistanceMeters>
          </Trackpoint>
          <Trackpoint>
            <Time>2022-09-23T09:08:41.000Z</Time>
            <Position>
              <LatitudeDegrees>49.50975693762302398681640625</LatitudeDegrees>
              <LongitudeDegrees>20.65823234617710113525390625</LongitudeDegrees>
            </Position>
            <AltitudeMeters>332.20001220703125</AltitudeMeters>
            <DistanceMeters>NAN</DistanceMeters>
          </Trackpoint>
          <Trackpoint>
            <Time>2022-09-23T09:08:49.000Z</Time>
            <Position>
              <LatitudeDegrees>49.5101054571568965911865234375</LatitudeDegrees>
              <LongitudeDegrees>20.65790168009698390960693359375</LongitudeDegrees>
            </Position>
            <AltitudeMeters>331.600006103515625</AltitudeMeters>
            <DistanceMeters>NAN</DistanceMeters>
          </Trackpoint>
          <Trackpoint>
            <Time>2022-09-23T09:08:54.000Z</Time>
            <Position>
              <LatitudeDegrees>49.51030989177525043487548828125</LatitudeDegrees>
              <LongitudeDegrees>20.65770437009632587432861328125</LongitudeDegrees>
            </Position>
            <AltitudeMeters>331.399993896484375</AltitudeMeters>
            <DistanceMeters>NAN</DistanceMeters>
          </Trackpoint>
          <Trackpoint>
            <Time>2022-09-23T09:08:56.000Z</Time>
            <Position>
              <LatitudeDegrees>49.51038667000830173492431640625</LatitudeDegrees>
              <LongitudeDegrees>20.6576491333544254302978515625</LongitudeDegrees>
            </Position>
            <AltitudeMeters>331.399993896484375</AltitudeMeters>
            <DistanceMeters>NAN</DistanceMeters>
          </Trackpoint>
          <Trackpoint>
            <Time>2022-09-23T09:09:02.000Z</Time>
            <Position>
              <LatitudeDegrees>49.51061164028942584991455078125</LatitudeDegrees>
              <LongitudeDegrees>20.65750253386795520782470703125</LongitudeDegrees>
            </Position>
            <AltitudeMeters>331.600006103515625</AltitudeMeters>
            <DistanceMeters>NAN</DistanceMeters>
          </Trackpoint>
          <Trackpoint>
            <Time>2022-09-23T09:09:03.000Z</Time>
            <Position>
              <LatitudeDegrees>49.51065103523433208465576171875</LatitudeDegrees>
              <LongitudeDegrees>20.65747437067329883575439453125</LongitudeDegrees>
            </Position>
            <AltitudeMeters>331.600006103515625</AltitudeMeters>
            <DistanceMeters>NAN</DistanceMeters>
          </Trackpoint>
          <Trackpoint>
            <Time>2022-09-23T09:09:04.000Z</Time>
            <Position>
              <LatitudeDegrees>49.51069110073149204254150390625</LatitudeDegrees>
              <LongitudeDegrees>20.6574498116970062255859375</LongitudeDegrees>
            </Position>
            <AltitudeMeters>331.600006103515625</AltitudeMeters>
            <DistanceMeters>NAN</DistanceMeters>
          </Trackpoint>
          <Trackpoint>
            <Time>2022-09-23T09:09:11.000Z</Time>
            <Position>
              <LatitudeDegrees>49.51097306795418262481689453125</LatitudeDegrees>
              <LongitudeDegrees>20.65724973566830158233642578125</LongitudeDegrees>
            </Position>
            <AltitudeMeters>330.79998779296875</AltitudeMeters>
            <DistanceMeters>NAN</DistanceMeters>
          </Trackpoint>
          <Trackpoint>
            <Time>2022-09-23T09:09:16.000Z</Time>
            <Position>
              <LatitudeDegrees>49.511174820363521575927734375</LatitudeDegrees>
              <LongitudeDegrees>20.6571163795888423919677734375</LongitudeDegrees>
            </Position>
            <AltitudeMeters>330.79998779296875</AltitudeMeters>
            <DistanceMeters>NAN</DistanceMeters>
          </Trackpoint>
          <Trackpoint>
            <Time>2022-09-23T09:09:18.000Z</Time>
            <Position>
              <LatitudeDegrees>49.511259980499744415283203125</LatitudeDegrees>
              <LongitudeDegrees>20.65706499852240085601806640625</LongitudeDegrees>
            </Position>
            <AltitudeMeters>330.600006103515625</AltitudeMeters>
            <DistanceMeters>NAN</DistanceMeters>
          </Trackpoint>
          <Trackpoint>
            <Time>2022-09-23T09:09:21.000Z</Time>
            <Position>
              <LatitudeDegrees>49.51138864271342754364013671875</LatitudeDegrees>
              <LongitudeDegrees>20.65698201768100261688232421875</LongitudeDegrees>
            </Position>
            <AltitudeMeters>330.399993896484375</AltitudeMeters>
            <DistanceMeters>NAN</DistanceMeters>
          </Trackpoint>
          <Trackpoint>
            <Time>2022-09-23T09:09:24.000Z</Time>
            <Position>
              <LatitudeDegrees>49.511538259685039520263671875</LatitudeDegrees>
              <LongitudeDegrees>20.65692937932908535003662109375</LongitudeDegrees>
            </Position>
            <AltitudeMeters>330</AltitudeMeters>
            <DistanceMeters>NAN</DistanceMeters>
          </Trackpoint>
          <Trackpoint>
            <Time>2022-09-23T09:09:27.000Z</Time>
            <Position>
              <LatitudeDegrees>49.5116943307220935821533203125</LatitudeDegrees>
              <LongitudeDegrees>20.65686232410371303558349609375</LongitudeDegrees>
            </Position>
            <AltitudeMeters>329.79998779296875</AltitudeMeters>
            <DistanceMeters>NAN</DistanceMeters>
          </Trackpoint>
          <Trackpoint>
            <Time>2022-09-23T09:09:33.000Z</Time>
            <Position>
              <LatitudeDegrees>49.51199079863727092742919921875</LatitudeDegrees>
              <LongitudeDegrees>20.65677096135914325714111328125</LongitudeDegrees>
            </Position>
            <AltitudeMeters>329.79998779296875</AltitudeMeters>
            <DistanceMeters>NAN</DistanceMeters>
          </Trackpoint>
          <Trackpoint>
            <Time>2022-09-23T09:09:40.000Z</Time>
            <Position>
              <LatitudeDegrees>49.51230931095778942108154296875</LatitudeDegrees>
              <LongitudeDegrees>20.65671513788402080535888671875</LongitudeDegrees>
            </Position>
            <AltitudeMeters>330</AltitudeMeters>
            <DistanceMeters>NAN</DistanceMeters>
          </Trackpoint>
          <Trackpoint>
            <Time>2022-09-23T09:09:41.000Z</Time>
            <Position>
              <LatitudeDegrees>49.51235868036746978759765625</LatitudeDegrees>
              <LongitudeDegrees>20.65671421587467193603515625</LongitudeDegrees>
            </Position>
            <AltitudeMeters>330</AltitudeMeters>
            <DistanceMeters>NAN</DistanceMeters>
          </Trackpoint>
          <Trackpoint>
            <Time>2022-09-23T09:09:43.000Z</Time>
            <Position>
              <LatitudeDegrees>49.51245264150202274322509765625</LatitudeDegrees>
              <LongitudeDegrees>20.65671966411173343658447265625</LongitudeDegrees>
            </Position>
            <AltitudeMeters>330</AltitudeMeters>
            <DistanceMeters>NAN</DistanceMeters>
          </Trackpoint>
          <Trackpoint>
            <Time>2022-09-23T09:09:45.000Z</Time>
            <Position>
              <LatitudeDegrees>49.5125482790172100067138671875</LatitudeDegrees>
              <LongitudeDegrees>20.6567401997745037078857421875</LongitudeDegrees>
            </Position>
            <AltitudeMeters>330</AltitudeMeters>
            <DistanceMeters>NAN</DistanceMeters>
          </Trackpoint>
          <Trackpoint>
            <Time>2022-09-23T09:09:48.000Z</Time>
            <Position>
              <LatitudeDegrees>49.5126870833337306976318359375</LatitudeDegrees>
              <LongitudeDegrees>20.6567472405731678009033203125</LongitudeDegrees>
            </Position>
            <AltitudeMeters>330.20001220703125</AltitudeMeters>
            <DistanceMeters>NAN</DistanceMeters>
          </Trackpoint>
          <Trackpoint>
            <Time>2022-09-23T09:09:57.000Z</Time>
            <Position>
              <LatitudeDegrees>49.513088576495647430419921875</LatitudeDegrees>
              <LongitudeDegrees>20.6567200832068920135498046875</LongitudeDegrees>
            </Position>
            <AltitudeMeters>330.79998779296875</AltitudeMeters>
            <DistanceMeters>NAN</DistanceMeters>
          </Trackpoint>
          <Trackpoint>
            <Time>2022-09-23T09:10:01.000Z</Time>
            <Position>
              <LatitudeDegrees>49.513262249529361724853515625</LatitudeDegrees>
              <LongitudeDegrees>20.6567261181771755218505859375</LongitudeDegrees>
            </Position>
            <AltitudeMeters>331</AltitudeMeters>
            <DistanceMeters>NAN</DistanceMeters>
          </Trackpoint>
          <Trackpoint>
            <Time>2022-09-23T09:10:04.000Z</Time>
            <Position>
              <LatitudeDegrees>49.51338621787726879119873046875</LatitudeDegrees>
              <LongitudeDegrees>20.6567492522299289703369140625</LongitudeDegrees>
            </Position>
            <AltitudeMeters>331</AltitudeMeters>
            <DistanceMeters>NAN</DistanceMeters>
          </Trackpoint>
          <Trackpoint>
            <Time>2022-09-23T09:10:11.000Z</Time>
            <Position>
              <LatitudeDegrees>49.51365150511264801025390625</LatitudeDegrees>
              <LongitudeDegrees>20.65677800215780735015869140625</LongitudeDegrees>
            </Position>
            <AltitudeMeters>331.20001220703125</AltitudeMeters>
            <DistanceMeters>NAN</DistanceMeters>
          </Trackpoint>
          <Trackpoint>
            <Time>2022-09-23T09:10:18.000Z</Time>
            <Position>
              <LatitudeDegrees>49.51389650814235210418701171875</LatitudeDegrees>
              <LongitudeDegrees>20.6567851267755031585693359375</LongitudeDegrees>
            </Position>
            <AltitudeMeters>331.20001220703125</AltitudeMeters>
            <DistanceMeters>NAN</DistanceMeters>
          </Trackpoint>
          <Trackpoint>
            <Time>2022-09-23T09:10:27.000Z</Time>
            <Position>
              <LatitudeDegrees>49.51421854086220264434814453125</LatitudeDegrees>
              <LongitudeDegrees>20.65678060054779052734375</LongitudeDegrees>
            </Position>
            <AltitudeMeters>330.79998779296875</AltitudeMeters>
            <DistanceMeters>NAN</DistanceMeters>
          </Trackpoint>
          <Trackpoint>
            <Time>2022-09-23T09:10:30.000Z</Time>
            <Position>
              <LatitudeDegrees>49.514337480068206787109375</LatitudeDegrees>
              <LongitudeDegrees>20.6567925028502941131591796875</LongitudeDegrees>
            </Position>
            <AltitudeMeters>330.79998779296875</AltitudeMeters>
            <DistanceMeters>NAN</DistanceMeters>
          </Trackpoint>
          <Trackpoint>
            <Time>2022-09-23T09:10:32.000Z</Time>
            <Position>
              <LatitudeDegrees>49.51441300101578235626220703125</LatitudeDegrees>
              <LongitudeDegrees>20.656788647174835205078125</LongitudeDegrees>
            </Position>
            <AltitudeMeters>330.79998779296875</AltitudeMeters>
            <DistanceMeters>NAN</DistanceMeters>
          </Trackpoint>
          <Trackpoint>
            <Time>2022-09-23T09:10:37.000Z</Time>
            <Position>
              <LatitudeDegrees>49.51459907926619052886962890625</LatitudeDegrees>
              <LongitudeDegrees>20.65677498467266559600830078125</LongitudeDegrees>
            </Position>
            <AltitudeMeters>330.600006103515625</AltitudeMeters>
            <DistanceMeters>NAN</DistanceMeters>
          </Trackpoint>
          <Trackpoint>
            <Time>2022-09-23T09:10:41.000Z</Time>
            <Position>
              <LatitudeDegrees>49.514734782278537750244140625</LatitudeDegrees>
              <LongitudeDegrees>20.65676811151206493377685546875</LongitudeDegrees>
            </Position>
            <AltitudeMeters>330.600006103515625</AltitudeMeters>
            <DistanceMeters>NAN</DistanceMeters>
          </Trackpoint>
          <Trackpoint>
            <Time>2022-09-23T09:10:42.000Z</Time>
            <Position>
              <LatitudeDegrees>49.5147664658725261688232421875</LatitudeDegrees>
              <LongitudeDegrees>20.65677146427333354949951171875</LongitudeDegrees>
            </Position>
            <AltitudeMeters>330.600006103515625</AltitudeMeters>
            <DistanceMeters>NAN</DistanceMeters>
          </Trackpoint>
          <Trackpoint>
            <Time>2022-09-23T09:10:43.000Z</Time>
            <Position>
              <LatitudeDegrees>49.51480217278003692626953125</LatitudeDegrees>
              <LongitudeDegrees>20.65677381120622158050537109375</LongitudeDegrees>
            </Position>
            <AltitudeMeters>330.79998779296875</AltitudeMeters>
            <DistanceMeters>NAN</DistanceMeters>
          </Trackpoint>
          <Trackpoint>
            <Time>2022-09-23T09:10:44.000Z</Time>
            <Position>
              <LatitudeDegrees>49.51482555828988552093505859375</LatitudeDegrees>
              <LongitudeDegrees>20.65677749924361705780029296875</LongitudeDegrees>
            </Position>
            <AltitudeMeters>330.79998779296875</AltitudeMeters>
            <DistanceMeters>NAN</DistanceMeters>
          </Trackpoint>
          <Trackpoint>
            <Time>2022-09-23T09:10:46.000Z</Time>
            <Position>
              <LatitudeDegrees>49.51485841535031795501708984375</LatitudeDegrees>
              <LongitudeDegrees>20.65679225139319896697998046875</LongitudeDegrees>
            </Position>
            <AltitudeMeters>330.79998779296875</AltitudeMeters>
            <DistanceMeters>NAN</DistanceMeters>
          </Trackpoint>
          <Trackpoint>
            <Time>2022-09-23T09:10:48.000Z</Time>
            <Position>
              <LatitudeDegrees>49.51485841535031795501708984375</LatitudeDegrees>
              <LongitudeDegrees>20.65679225139319896697998046875</LongitudeDegrees>
            </Position>
            <AltitudeMeters>331</AltitudeMeters>
            <DistanceMeters>NAN</DistanceMeters>
          </Trackpoint>
          <Trackpoint>
            <Time>2022-09-23T09:10:52.000Z</Time>
            <Position>
              <LatitudeDegrees>49.51485841535031795501708984375</LatitudeDegrees>
              <LongitudeDegrees>20.65679225139319896697998046875</LongitudeDegrees>
            </Position>
            <AltitudeMeters>331</AltitudeMeters>
            <DistanceMeters>NAN</DistanceMeters>
          </Trackpoint>
          <Trackpoint>
            <Time>2022-09-23T09:10:58.000Z</Time>
            <Position>
              <LatitudeDegrees>49.51485841535031795501708984375</LatitudeDegrees>
              <LongitudeDegrees>20.65679225139319896697998046875</LongitudeDegrees>
            </Position>
            <AltitudeMeters>331</AltitudeMeters>
            <DistanceMeters>NAN</DistanceMeters>
          </Trackpoint>
          <Trackpoint>
            <Time>2022-09-23T09:11:05.000Z</Time>
            <Position>
              <LatitudeDegrees>49.51485841535031795501708984375</LatitudeDegrees>
              <LongitudeDegrees>20.65679225139319896697998046875</LongitudeDegrees>
            </Position>
            <AltitudeMeters>331</AltitudeMeters>
            <DistanceMeters>NAN</DistanceMeters>
          </Trackpoint>
          <Trackpoint>
            <Time>2022-09-23T09:11:08.000Z</Time>
            <Position>
              <LatitudeDegrees>49.51485841535031795501708984375</LatitudeDegrees>
              <LongitudeDegrees>20.65679225139319896697998046875</LongitudeDegrees>
            </Position>
            <AltitudeMeters>331</AltitudeMeters>
            <DistanceMeters>NAN</DistanceMeters>
          </Trackpoint>
          <Trackpoint>
            <Time>2022-09-23T09:11:09.000Z</Time>
            <Position>
              <LatitudeDegrees>49.5148600079119205474853515625</LatitudeDegrees>
              <LongitudeDegrees>20.6567918322980403900146484375</LongitudeDegrees>
            </Position>
            <AltitudeMeters>331</AltitudeMeters>
            <DistanceMeters>NAN</DistanceMeters>
          </Trackpoint>
          <Trackpoint>
            <Time>2022-09-23T09:11:12.000Z</Time>
            <Position>
              <LatitudeDegrees>49.5149047672748565673828125</LatitudeDegrees>
              <LongitudeDegrees>20.65678370185196399688720703125</LongitudeDegrees>
            </Position>
            <AltitudeMeters>331</AltitudeMeters>
            <DistanceMeters>NAN</DistanceMeters>
          </Trackpoint>
          <Trackpoint>
            <Time>2022-09-23T09:11:18.000Z</Time>
            <Position>
              <LatitudeDegrees>49.5150692202150821685791015625</LatitudeDegrees>
              <LongitudeDegrees>20.65677062608301639556884765625</LongitudeDegrees>
            </Position>
            <AltitudeMeters>330.79998779296875</AltitudeMeters>
            <DistanceMeters>NAN</DistanceMeters>
          </Trackpoint>
          <Trackpoint>
            <Time>2022-09-23T09:11:25.000Z</Time>
            <Position>
              <LatitudeDegrees>49.51531581580638885498046875</LatitudeDegrees>
              <LongitudeDegrees>20.656778253614902496337890625</LongitudeDegrees>
            </Position>
            <AltitudeMeters>330.399993896484375</AltitudeMeters>
            <DistanceMeters>NAN</DistanceMeters>
          </Trackpoint>
          <Trackpoint>
            <Time>2022-09-23T09:11:29.000Z</Time>
            <Position>
              <LatitudeDegrees>49.51547549106180667877197265625</LatitudeDegrees>
              <LongitudeDegrees>20.65676115453243255615234375</LongitudeDegrees>
            </Position>
            <AltitudeMeters>330</AltitudeMeters>
            <DistanceMeters>NAN</DistanceMeters>
          </Trackpoint>
          <Trackpoint>
            <Time>2022-09-23T09:11:32.000Z</Time>
            <Position>
              <LatitudeDegrees>49.5156009681522846221923828125</LatitudeDegrees>
              <LongitudeDegrees>20.656767524778842926025390625</LongitudeDegrees>
            </Position>
            <AltitudeMeters>330</AltitudeMeters>
            <DistanceMeters>NAN</DistanceMeters>
          </Trackpoint>
          <Trackpoint>
            <Time>2022-09-23T09:11:33.000Z</Time>
            <Position>
              <LatitudeDegrees>49.51564371585845947265625</LatitudeDegrees>
              <LongitudeDegrees>20.65676660276949405670166015625</LongitudeDegrees>
            </Position>
            <AltitudeMeters>329.79998779296875</AltitudeMeters>
            <DistanceMeters>NAN</DistanceMeters>
          </Trackpoint>
          <Trackpoint>
            <Time>2022-09-23T09:11:37.000Z</Time>
            <Position>
              <LatitudeDegrees>49.5158215798437595367431640625</LatitudeDegrees>
              <LongitudeDegrees>20.6567596457898616790771484375</LongitudeDegrees>
            </Position>
            <AltitudeMeters>329.600006103515625</AltitudeMeters>
            <DistanceMeters>NAN</DistanceMeters>
          </Trackpoint>
          <Trackpoint>
            <Time>2022-09-23T09:11:40.000Z</Time>
            <Position>
              <LatitudeDegrees>49.515963904559612274169921875</LatitudeDegrees>
              <LongitudeDegrees>20.656758137047290802001953125</LongitudeDegrees>
            </Position>
            <AltitudeMeters>329.600006103515625</AltitudeMeters>
            <DistanceMeters>NAN</DistanceMeters>
          </Trackpoint>
          <Trackpoint>
            <Time>2022-09-23T09:11:42.000Z</Time>
            <Position>
              <LatitudeDegrees>49.51606373302638530731201171875</LatitudeDegrees>
              <LongitudeDegrees>20.6567631661891937255859375</LongitudeDegrees>
            </Position>
            <AltitudeMeters>329.600006103515625</AltitudeMeters>
            <DistanceMeters>NAN</DistanceMeters>
          </Trackpoint>
          <Trackpoint>
            <Time>2022-09-23T09:11:45.000Z</Time>
            <Position>
              <LatitudeDegrees>49.5162125118076801300048828125</LatitudeDegrees>
              <LongitudeDegrees>20.65676140598952770233154296875</LongitudeDegrees>
            </Position>
            <AltitudeMeters>329.20001220703125</AltitudeMeters>
            <DistanceMeters>NAN</DistanceMeters>
          </Trackpoint>
          <Trackpoint>
            <Time>2022-09-23T09:11:50.000Z</Time>
            <Position>
              <LatitudeDegrees>49.51644980348646640777587890625</LatitudeDegrees>
              <LongitudeDegrees>20.6567670218646526336669921875</LongitudeDegrees>
            </Position>
            <AltitudeMeters>329.20001220703125</AltitudeMeters>
            <DistanceMeters>NAN</DistanceMeters>
          </Trackpoint>
          <Trackpoint>
            <Time>2022-09-23T09:11:55.000Z</Time>
            <Position>
              <LatitudeDegrees>49.5166792161762714385986328125</LatitudeDegrees>
              <LongitudeDegrees>20.6567589752376079559326171875</LongitudeDegrees>
            </Position>
            <AltitudeMeters>329.20001220703125</AltitudeMeters>
            <DistanceMeters>NAN</DistanceMeters>
          </Trackpoint>
          <Trackpoint>
            <Time>2022-09-23T09:11:56.000Z</Time>
            <Position>
              <LatitudeDegrees>49.51672623865306377410888671875</LatitudeDegrees>
              <LongitudeDegrees>20.65675579011440277099609375</LongitudeDegrees>
            </Position>
            <AltitudeMeters>329.20001220703125</AltitudeMeters>
            <DistanceMeters>NAN</DistanceMeters>
          </Trackpoint>
          <Trackpoint>
            <Time>2022-09-23T09:12:03.000Z</Time>
            <Position>
              <LatitudeDegrees>49.51705665327608585357666015625</LatitudeDegrees>
              <LongitudeDegrees>20.65675570629537105560302734375</LongitudeDegrees>
            </Position>
            <AltitudeMeters>329.20001220703125</AltitudeMeters>
            <DistanceMeters>NAN</DistanceMeters>
          </Trackpoint>
          <Trackpoint>
            <Time>2022-09-23T09:12:04.000Z</Time>
            <Position>
              <LatitudeDegrees>49.5171046815812587738037109375</LatitudeDegrees>
              <LongitudeDegrees>20.6567532755434513092041015625</LongitudeDegrees>
            </Position>
            <AltitudeMeters>329.20001220703125</AltitudeMeters>
            <DistanceMeters>NAN</DistanceMeters>
          </Trackpoint>
          <Trackpoint>
            <Time>2022-09-23T09:12:13.000Z</Time>
            <Position>
              <LatitudeDegrees>49.51751749031245708465576171875</LatitudeDegrees>
              <LongitudeDegrees>20.65675285644829273223876953125</LongitudeDegrees>
            </Position>
            <AltitudeMeters>329</AltitudeMeters>
            <DistanceMeters>NAN</DistanceMeters>
          </Trackpoint>
          <Trackpoint>
            <Time>2022-09-23T09:12:22.000Z</Time>
            <Position>
              <LatitudeDegrees>49.51793742366135120391845703125</LatitudeDegrees>
              <LongitudeDegrees>20.65674279816448688507080078125</LongitudeDegrees>
            </Position>
            <AltitudeMeters>329.79998779296875</AltitudeMeters>
            <DistanceMeters>NAN</DistanceMeters>
          </Trackpoint>
          <Trackpoint>
            <Time>2022-09-23T09:12:25.000Z</Time>
            <Position>
              <LatitudeDegrees>49.51808611862361431121826171875</LatitudeDegrees>
              <LongitudeDegrees>20.6567417085170745849609375</LongitudeDegrees>
            </Position>
            <AltitudeMeters>330.399993896484375</AltitudeMeters>
            <DistanceMeters>NAN</DistanceMeters>
          </Trackpoint>
          <Trackpoint>
            <Time>2022-09-23T09:12:31.000Z</Time>
            <Position>
              <LatitudeDegrees>49.5183790661394596099853515625</LatitudeDegrees>
              <LongitudeDegrees>20.65673626028001308441162109375</LongitudeDegrees>
            </Position>
            <AltitudeMeters>329.79998779296875</AltitudeMeters>
            <DistanceMeters>NAN</DistanceMeters>
          </Trackpoint>
          <Trackpoint>
            <Time>2022-09-23T09:12:34.000Z</Time>
            <Position>
              <LatitudeDegrees>49.51853044331073760986328125</LatitudeDegrees>
              <LongitudeDegrees>20.65673575736582279205322265625</LongitudeDegrees>
            </Position>
            <AltitudeMeters>329.20001220703125</AltitudeMeters>
            <DistanceMeters>NAN</DistanceMeters>
          </Trackpoint>
          <Trackpoint>
            <Time>2022-09-23T09:12:38.000Z</Time>
            <Position>
              <LatitudeDegrees>49.51872515492141246795654296875</LatitudeDegrees>
              <LongitudeDegrees>20.656736679375171661376953125</LongitudeDegrees>
            </Position>
            <AltitudeMeters>329</AltitudeMeters>
            <DistanceMeters>NAN</DistanceMeters>
          </Trackpoint>
          <Trackpoint>
            <Time>2022-09-23T09:12:39.000Z</Time>
            <Position>
              <LatitudeDegrees>49.51877259649336338043212890625</LatitudeDegrees>
              <LongitudeDegrees>20.65673676319420337677001953125</LongitudeDegrees>
            </Position>
            <AltitudeMeters>329</AltitudeMeters>
            <DistanceMeters>NAN</DistanceMeters>
          </Trackpoint>
          <Trackpoint>
            <Time>2022-09-23T09:12:47.000Z</Time>
            <Position>
              <LatitudeDegrees>49.51912379823625087738037109375</LatitudeDegrees>
              <LongitudeDegrees>20.6567479111254215240478515625</LongitudeDegrees>
            </Position>
            <AltitudeMeters>328.79998779296875</AltitudeMeters>
            <DistanceMeters>NAN</DistanceMeters>
          </Trackpoint>
          <Trackpoint>
            <Time>2022-09-23T09:12:51.000Z</Time>
            <Position>
              <LatitudeDegrees>49.51929009519517421722412109375</LatitudeDegrees>
              <LongitudeDegrees>20.65674011595547199249267578125</LongitudeDegrees>
            </Position>
            <AltitudeMeters>328.20001220703125</AltitudeMeters>
            <DistanceMeters>NAN</DistanceMeters>
          </Trackpoint>
          <Trackpoint>
            <Time>2022-09-23T09:12:54.000Z</Time>
            <Position>
              <LatitudeDegrees>49.51942420564591884613037109375</LatitudeDegrees>
              <LongitudeDegrees>20.65673642791807651519775390625</LongitudeDegrees>
            </Position>
            <AltitudeMeters>328</AltitudeMeters>
            <DistanceMeters>NAN</DistanceMeters>
          </Trackpoint>
          <Trackpoint>
            <Time>2022-09-23T09:13:03.000Z</Time>
            <Position>
              <LatitudeDegrees>49.5198656804859638214111328125</LatitudeDegrees>
              <LongitudeDegrees>20.65673433244228363037109375</LongitudeDegrees>
            </Position>
            <AltitudeMeters>327.20001220703125</AltitudeMeters>
            <DistanceMeters>NAN</DistanceMeters>
          </Trackpoint>
          <Trackpoint>
            <Time>2022-09-23T09:13:06.000Z</Time>
            <Position>
              <LatitudeDegrees>49.52002887614071369171142578125</LatitudeDegrees>
              <LongitudeDegrees>20.65674497745931148529052734375</LongitudeDegrees>
            </Position>
            <AltitudeMeters>327.20001220703125</AltitudeMeters>
            <DistanceMeters>NAN</DistanceMeters>
          </Trackpoint>
          <Trackpoint>
            <Time>2022-09-23T09:13:10.000Z</Time>
            <Position>
              <LatitudeDegrees>49.520258121192455291748046875</LatitudeDegrees>
              <LongitudeDegrees>20.65674841403961181640625</LongitudeDegrees>
            </Position>
            <AltitudeMeters>326.20001220703125</AltitudeMeters>
            <DistanceMeters>NAN</DistanceMeters>
          </Trackpoint>
          <Trackpoint>
            <Time>2022-09-23T09:13:11.000Z</Time>
            <Position>
              <LatitudeDegrees>49.520315788686275482177734375</LatitudeDegrees>
              <LongitudeDegrees>20.6567489169538021087646484375</LongitudeDegrees>
            </Position>
            <AltitudeMeters>326</AltitudeMeters>
            <DistanceMeters>NAN</DistanceMeters>
          </Trackpoint>
          <Trackpoint>
            <Time>2022-09-23T09:13:21.000Z</Time>
            <Position>
              <LatitudeDegrees>49.5208755321800708770751953125</LatitudeDegrees>
              <LongitudeDegrees>20.6567458994686603546142578125</LongitudeDegrees>
            </Position>
            <AltitudeMeters>325.600006103515625</AltitudeMeters>
            <DistanceMeters>NAN</DistanceMeters>
          </Trackpoint>
          <Trackpoint>
            <Time>2022-09-23T09:13:24.000Z</Time>
            <Position>
              <LatitudeDegrees>49.5210461877286434173583984375</LatitudeDegrees>
              <LongitudeDegrees>20.65673969686031341552734375</LongitudeDegrees>
            </Position>
            <AltitudeMeters>325.399993896484375</AltitudeMeters>
            <DistanceMeters>NAN</DistanceMeters>
          </Trackpoint>
          <Trackpoint>
            <Time>2022-09-23T09:13:29.000Z</Time>
            <Position>
              <LatitudeDegrees>49.52131885103881359100341796875</LatitudeDegrees>
              <LongitudeDegrees>20.65673433244228363037109375</LongitudeDegrees>
            </Position>
            <AltitudeMeters>325.20001220703125</AltitudeMeters>
            <DistanceMeters>NAN</DistanceMeters>
          </Trackpoint>
          <Trackpoint>
            <Time>2022-09-23T09:13:34.000Z</Time>
            <Position>
              <LatitudeDegrees>49.52156511135399341583251953125</LatitudeDegrees>
              <LongitudeDegrees>20.656729973852634429931640625</LongitudeDegrees>
            </Position>
            <AltitudeMeters>325.20001220703125</AltitudeMeters>
            <DistanceMeters>NAN</DistanceMeters>
          </Trackpoint>
          <Trackpoint>
            <Time>2022-09-23T09:13:42.000Z</Time>
            <Position>
              <LatitudeDegrees>49.521947242319583892822265625</LatitudeDegrees>
              <LongitudeDegrees>20.65673123113811016082763671875</LongitudeDegrees>
            </Position>
            <AltitudeMeters>325.20001220703125</AltitudeMeters>
            <DistanceMeters>NAN</DistanceMeters>
          </Trackpoint>
          <Trackpoint>
            <Time>2022-09-23T09:13:48.000Z</Time>
            <Position>
              <LatitudeDegrees>49.52225846238434314727783203125</LatitudeDegrees>
              <LongitudeDegrees>20.65672636963427066802978515625</LongitudeDegrees>
            </Position>
            <AltitudeMeters>325.20001220703125</AltitudeMeters>
            <DistanceMeters>NAN</DistanceMeters>
          </Trackpoint>
          <Trackpoint>
            <Time>2022-09-23T09:13:50.000Z</Time>
            <Position>
              <LatitudeDegrees>49.5223557762801647186279296875</LatitudeDegrees>
              <LongitudeDegrees>20.65670893527567386627197265625</LongitudeDegrees>
            </Position>
            <AltitudeMeters>325.399993896484375</AltitudeMeters>
            <DistanceMeters>NAN</DistanceMeters>
          </Trackpoint>
          <Trackpoint>
            <Time>2022-09-23T09:13:52.000Z</Time>
            <Position>
              <LatitudeDegrees>49.5224499888718128204345703125</LatitudeDegrees>
              <LongitudeDegrees>20.65668781287968158721923828125</LongitudeDegrees>
            </Position>
            <AltitudeMeters>325.399993896484375</AltitudeMeters>
            <DistanceMeters>NAN</DistanceMeters>
          </Trackpoint>
          <Trackpoint>
            <Time>2022-09-23T09:13:59.000Z</Time>
            <Position>
              <LatitudeDegrees>49.5227688364684581756591796875</LatitudeDegrees>
              <LongitudeDegrees>20.656579434871673583984375</LongitudeDegrees>
            </Position>
            <AltitudeMeters>325.399993896484375</AltitudeMeters>
            <DistanceMeters>NAN</DistanceMeters>
          </Trackpoint>
          <Trackpoint>
            <Time>2022-09-23T09:14:03.000Z</Time>
            <Position>
              <LatitudeDegrees>49.52295147813856601715087890625</LatitudeDegrees>
              <LongitudeDegrees>20.65653392113745212554931640625</LongitudeDegrees>
            </Position>
            <AltitudeMeters>325.600006103515625</AltitudeMeters>
            <DistanceMeters>NAN</DistanceMeters>
          </Trackpoint>
          <Trackpoint>
            <Time>2022-09-23T09:14:04.000Z</Time>
            <Position>
              <LatitudeDegrees>49.522994644939899444580078125</LatitudeDegrees>
              <LongitudeDegrees>20.65652822144329547882080078125</LongitudeDegrees>
            </Position>
            <AltitudeMeters>325.600006103515625</AltitudeMeters>
            <DistanceMeters>NAN</DistanceMeters>
          </Trackpoint>
          <Trackpoint>
            <Time>2022-09-23T09:14:07.000Z</Time>
            <Position>
              <LatitudeDegrees>49.523117356002330780029296875</LatitudeDegrees>
              <LongitudeDegrees>20.6565319932997226715087890625</LongitudeDegrees>
            </Position>
            <AltitudeMeters>325.79998779296875</AltitudeMeters>
            <DistanceMeters>NAN</DistanceMeters>
          </Trackpoint>
          <Trackpoint>
            <Time>2022-09-23T09:14:08.000Z</Time>
            <Position>
              <LatitudeDegrees>49.5231567509472370147705078125</LatitudeDegrees>
              <LongitudeDegrees>20.6565386988222599029541015625</LongitudeDegrees>
            </Position>
            <AltitudeMeters>326</AltitudeMeters>
            <DistanceMeters>NAN</DistanceMeters>
          </Trackpoint>
          <Trackpoint>
            <Time>2022-09-23T09:14:12.000Z</Time>
            <Position>
              <LatitudeDegrees>49.52329413034021854400634765625</LatitudeDegrees>
              <LongitudeDegrees>20.65660265274345874786376953125</LongitudeDegrees>
            </Position>
            <AltitudeMeters>326.399993896484375</AltitudeMeters>
            <DistanceMeters>NAN</DistanceMeters>
          </Trackpoint>
          <Trackpoint>
            <Time>2022-09-23T09:14:13.000Z</Time>
            <Position>
              <LatitudeDegrees>49.523325897753238677978515625</LatitudeDegrees>
              <LongitudeDegrees>20.65662511624395847320556640625</LongitudeDegrees>
            </Position>
            <AltitudeMeters>326.399993896484375</AltitudeMeters>
            <DistanceMeters>NAN</DistanceMeters>
          </Trackpoint>
          <Trackpoint>
            <Time>2022-09-23T09:14:18.000Z</Time>
            <Position>
              <LatitudeDegrees>49.5234467647969722747802734375</LatitudeDegrees>
              <LongitudeDegrees>20.6567093543708324432373046875</LongitudeDegrees>
            </Position>
            <AltitudeMeters>327</AltitudeMeters>
            <DistanceMeters>NAN</DistanceMeters>
          </Trackpoint>
          <Trackpoint>
            <Time>2022-09-23T09:14:19.000Z</Time>
            <Position>
              <LatitudeDegrees>49.5234636962413787841796875</LatitudeDegrees>
              <LongitudeDegrees>20.6567231006920337677001953125</LongitudeDegrees>
            </Position>
            <AltitudeMeters>327.20001220703125</AltitudeMeters>
            <DistanceMeters>NAN</DistanceMeters>
          </Trackpoint>
          <Trackpoint>
            <Time>2022-09-23T09:14:24.000Z</Time>
            <Position>
              <LatitudeDegrees>49.52354709617793560028076171875</LatitudeDegrees>
              <LongitudeDegrees>20.65680683590471744537353515625</LongitudeDegrees>
            </Position>
            <AltitudeMeters>327.79998779296875</AltitudeMeters>
            <DistanceMeters>NAN</DistanceMeters>
          </Trackpoint>
          <Trackpoint>
            <Time>2022-09-23T09:14:27.000Z</Time>
            <Position>
              <LatitudeDegrees>49.52359847724437713623046875</LatitudeDegrees>
              <LongitudeDegrees>20.65685913898050785064697265625</LongitudeDegrees>
            </Position>
            <AltitudeMeters>328.20001220703125</AltitudeMeters>
            <DistanceMeters>NAN</DistanceMeters>
          </Trackpoint>
          <Trackpoint>
            <Time>2022-09-23T09:14:29.000Z</Time>
            <Position>
              <LatitudeDegrees>49.523635022342205047607421875</LatitudeDegrees>
              <LongitudeDegrees>20.6568796746432781219482421875</LongitudeDegrees>
            </Position>
            <AltitudeMeters>328.20001220703125</AltitudeMeters>
            <DistanceMeters>NAN</DistanceMeters>
          </Trackpoint>
          <Trackpoint>
            <Time>2022-09-23T09:14:31.000Z</Time>
            <Position>
              <LatitudeDegrees>49.5236760936677455902099609375</LatitudeDegrees>
              <LongitudeDegrees>20.65686634741723537445068359375</LongitudeDegrees>
            </Position>
            <AltitudeMeters>328.399993896484375</AltitudeMeters>
            <DistanceMeters>NAN</DistanceMeters>
          </Trackpoint>
          <Trackpoint>
            <Time>2022-09-23T09:14:38.000Z</Time>
            <Position>
              <LatitudeDegrees>49.5238011516630649566650390625</LatitudeDegrees>
              <LongitudeDegrees>20.65671144984662532806396484375</LongitudeDegrees>
            </Position>
            <AltitudeMeters>328.79998779296875</AltitudeMeters>
            <DistanceMeters>NAN</DistanceMeters>
          </Trackpoint>
          <Trackpoint>
            <Time>2022-09-23T09:14:45.000Z</Time>
            <Position>
              <LatitudeDegrees>49.52393517829477787017822265625</LatitudeDegrees>
              <LongitudeDegrees>20.65650098025798797607421875</LongitudeDegrees>
            </Position>
            <AltitudeMeters>329</AltitudeMeters>
            <DistanceMeters>NAN</DistanceMeters>
          </Trackpoint>
          <Trackpoint>
            <Time>2022-09-23T09:14:48.000Z</Time>
            <Position>
              <LatitudeDegrees>49.5239909179508686065673828125</LatitudeDegrees>
              <LongitudeDegrees>20.656410790979862213134765625</LongitudeDegrees>
            </Position>
            <AltitudeMeters>329</AltitudeMeters>
            <DistanceMeters>NAN</DistanceMeters>
          </Trackpoint>
          <Trackpoint>
            <Time>2022-09-23T09:14:51.000Z</Time>
            <Position>
              <LatitudeDegrees>49.52404045499861240386962890625</LatitudeDegrees>
              <LongitudeDegrees>20.65633057616651058197021484375</LongitudeDegrees>
            </Position>
            <AltitudeMeters>329.20001220703125</AltitudeMeters>
            <DistanceMeters>NAN</DistanceMeters>
          </Trackpoint>
          <Trackpoint>
            <Time>2022-09-23T09:14:57.000Z</Time>
            <Position>
              <LatitudeDegrees>49.52416241168975830078125</LatitudeDegrees>
              <LongitudeDegrees>20.6561538018286228179931640625</LongitudeDegrees>
            </Position>
            <AltitudeMeters>329.20001220703125</AltitudeMeters>
            <DistanceMeters>NAN</DistanceMeters>
          </Trackpoint>
          <Trackpoint>
            <Time>2022-09-23T09:15:07.000Z</Time>
            <Position>
              <LatitudeDegrees>49.5243815146386623382568359375</LatitudeDegrees>
              <LongitudeDegrees>20.655828081071376800537109375</LongitudeDegrees>
            </Position>
            <AltitudeMeters>329</AltitudeMeters>
            <DistanceMeters>NAN</DistanceMeters>
          </Trackpoint>
          <Trackpoint>
            <Time>2022-09-23T09:15:16.000Z</Time>
            <Position>
              <LatitudeDegrees>49.524555690586566925048828125</LatitudeDegrees>
              <LongitudeDegrees>20.65555818378925323486328125</LongitudeDegrees>
            </Position>
            <AltitudeMeters>329</AltitudeMeters>
            <DistanceMeters>NAN</DistanceMeters>
          </Trackpoint>
          <Trackpoint>
            <Time>2022-09-23T09:15:19.000Z</Time>
            <Position>
              <LatitudeDegrees>49.5246158726513385772705078125</LatitudeDegrees>
              <LongitudeDegrees>20.6554611213505268096923828125</LongitudeDegrees>
            </Position>
            <AltitudeMeters>329</AltitudeMeters>
            <DistanceMeters>NAN</DistanceMeters>
          </Trackpoint>
          <Trackpoint>
            <Time>2022-09-23T09:15:22.000Z</Time>
            <Position>
              <LatitudeDegrees>49.5246814191341400146484375</LatitudeDegrees>
              <LongitudeDegrees>20.65535970032215118408203125</LongitudeDegrees>
            </Position>
            <AltitudeMeters>329</AltitudeMeters>
            <DistanceMeters>NAN</DistanceMeters>
          </Trackpoint>
          <Trackpoint>
            <Time>2022-09-23T09:15:29.000Z</Time>
            <Position>
              <LatitudeDegrees>49.5247845165431499481201171875</LatitudeDegrees>
              <LongitudeDegrees>20.6551727838814258575439453125</LongitudeDegrees>
            </Position>
            <AltitudeMeters>328.399993896484375</AltitudeMeters>
            <DistanceMeters>NAN</DistanceMeters>
          </Trackpoint>
          <Trackpoint>
            <Time>2022-09-23T09:15:36.000Z</Time>
            <Position>
              <LatitudeDegrees>49.52491410076618194580078125</LatitudeDegrees>
              <LongitudeDegrees>20.65496809780597686767578125</LongitudeDegrees>
            </Position>
            <AltitudeMeters>328</AltitudeMeters>
            <DistanceMeters>NAN</DistanceMeters>
          </Trackpoint>
          <Trackpoint>
            <Time>2022-09-23T09:15:37.000Z</Time>
            <Position>
              <LatitudeDegrees>49.52493312768638134002685546875</LatitudeDegrees>
              <LongitudeDegrees>20.65493381582200527191162109375</LongitudeDegrees>
            </Position>
            <AltitudeMeters>328</AltitudeMeters>
            <DistanceMeters>NAN</DistanceMeters>
          </Trackpoint>
          <Trackpoint>
            <Time>2022-09-23T09:15:40.000Z</Time>
            <Position>
              <LatitudeDegrees>49.52498794533312320709228515625</LatitudeDegrees>
              <LongitudeDegrees>20.65482116304337978363037109375</LongitudeDegrees>
            </Position>
            <AltitudeMeters>327.79998779296875</AltitudeMeters>
            <DistanceMeters>NAN</DistanceMeters>
          </Trackpoint>
          <Trackpoint>
            <Time>2022-09-23T09:15:41.000Z</Time>
            <Position>
              <LatitudeDegrees>49.5250081457197666168212890625</LatitudeDegrees>
              <LongitudeDegrees>20.654780678451061248779296875</LongitudeDegrees>
            </Position>
            <AltitudeMeters>327.79998779296875</AltitudeMeters>
            <DistanceMeters>NAN</DistanceMeters>
          </Trackpoint>
          <Trackpoint>
            <Time>2022-09-23T09:15:43.000Z</Time>
            <Position>
              <LatitudeDegrees>49.52504418790340423583984375</LatitudeDegrees>
              <LongitudeDegrees>20.6546983681619167327880859375</LongitudeDegrees>
            </Position>
            <AltitudeMeters>327.79998779296875</AltitudeMeters>
            <DistanceMeters>NAN</DistanceMeters>
          </Trackpoint>
          <Trackpoint>
            <Time>2022-09-23T09:15:48.000Z</Time>
            <Position>
              <LatitudeDegrees>49.52514267526566982269287109375</LatitudeDegrees>
              <LongitudeDegrees>20.6544529460370540618896484375</LongitudeDegrees>
            </Position>
            <AltitudeMeters>327</AltitudeMeters>
            <DistanceMeters>NAN</DistanceMeters>
          </Trackpoint>
          <Trackpoint>
            <Time>2022-09-23T09:15:50.000Z</Time>
            <Position>
              <LatitudeDegrees>49.5251811482012271881103515625</LatitudeDegrees>
              <LongitudeDegrees>20.65435881726443767547607421875</LongitudeDegrees>
            </Position>
            <AltitudeMeters>326.79998779296875</AltitudeMeters>
            <DistanceMeters>NAN</DistanceMeters>
          </Trackpoint>
          <Trackpoint>
            <Time>2022-09-23T09:15:57.000Z</Time>
            <Position>
              <LatitudeDegrees>49.52528567053377628326416015625</LatitudeDegrees>
              <LongitudeDegrees>20.654047429561614990234375</LongitudeDegrees>
            </Position>
            <AltitudeMeters>326.79998779296875</AltitudeMeters>
            <DistanceMeters>NAN</DistanceMeters>
          </Trackpoint>
          <Trackpoint>
            <Time>2022-09-23T09:15:58.000Z</Time>
            <Position>
              <LatitudeDegrees>49.52529438771307468414306640625</LatitudeDegrees>
              <LongitudeDegrees>20.65400811843574047088623046875</LongitudeDegrees>
            </Position>
            <AltitudeMeters>326.79998779296875</AltitudeMeters>
            <DistanceMeters>NAN</DistanceMeters>
          </Trackpoint>
          <Trackpoint>
            <Time>2022-09-23T09:16:02.000Z</Time>
            <Position>
              <LatitudeDegrees>49.52531282790005207061767578125</LatitudeDegrees>
              <LongitudeDegrees>20.6538591720163822174072265625</LongitudeDegrees>
            </Position>
            <AltitudeMeters>327</AltitudeMeters>
            <DistanceMeters>NAN</DistanceMeters>
          </Trackpoint>
          <Trackpoint>
            <Time>2022-09-23T09:16:08.000Z</Time>
            <Position>
              <LatitudeDegrees>49.52532992698252201080322265625</LatitudeDegrees>
              <LongitudeDegrees>20.6536754406988620758056640625</LongitudeDegrees>
            </Position>
            <AltitudeMeters>327.20001220703125</AltitudeMeters>
            <DistanceMeters>NAN</DistanceMeters>
          </Trackpoint>
          <Trackpoint>
            <Time>2022-09-23T09:16:12.000Z</Time>
            <Position>
              <LatitudeDegrees>49.525328837335109710693359375</LatitudeDegrees>
              <LongitudeDegrees>20.6536452658474445343017578125</LongitudeDegrees>
            </Position>
            <AltitudeMeters>327.399993896484375</AltitudeMeters>
            <DistanceMeters>NAN</DistanceMeters>
          </Trackpoint>
          <Trackpoint>
            <Time>2022-09-23T09:16:22.000Z</Time>
            <Position>
              <LatitudeDegrees>49.525328837335109710693359375</LatitudeDegrees>
              <LongitudeDegrees>20.6536452658474445343017578125</LongitudeDegrees>
            </Position>
            <AltitudeMeters>327.399993896484375</AltitudeMeters>
            <DistanceMeters>NAN</DistanceMeters>
          </Trackpoint>
          <Trackpoint>
            <Time>2022-09-23T09:16:33.000Z</Time>
            <Position>
              <LatitudeDegrees>49.525328837335109710693359375</LatitudeDegrees>
              <LongitudeDegrees>20.6536452658474445343017578125</LongitudeDegrees>
            </Position>
            <AltitudeMeters>327.399993896484375</AltitudeMeters>
            <DistanceMeters>NAN</DistanceMeters>
          </Trackpoint>
          <Trackpoint>
            <Time>2022-09-23T09:16:34.000Z</Time>
            <Position>
              <LatitudeDegrees>49.525328837335109710693359375</LatitudeDegrees>
              <LongitudeDegrees>20.6536452658474445343017578125</LongitudeDegrees>
            </Position>
            <AltitudeMeters>327.399993896484375</AltitudeMeters>
            <DistanceMeters>NAN</DistanceMeters>
          </Trackpoint>
          <Trackpoint>
            <Time>2022-09-23T09:16:36.000Z</Time>
            <Position>
              <LatitudeDegrees>49.525328837335109710693359375</LatitudeDegrees>
              <LongitudeDegrees>20.6536452658474445343017578125</LongitudeDegrees>
            </Position>
            <AltitudeMeters>327.399993896484375</AltitudeMeters>
            <DistanceMeters>NAN</DistanceMeters>
          </Trackpoint>
          <Trackpoint>
            <Time>2022-09-23T09:16:37.000Z</Time>
            <Position>
              <LatitudeDegrees>49.525328837335109710693359375</LatitudeDegrees>
              <LongitudeDegrees>20.6536452658474445343017578125</LongitudeDegrees>
            </Position>
            <AltitudeMeters>327.399993896484375</AltitudeMeters>
            <DistanceMeters>NAN</DistanceMeters>
          </Trackpoint>
          <Trackpoint>
            <Time>2022-09-23T09:16:38.000Z</Time>
            <Position>
              <LatitudeDegrees>49.525328837335109710693359375</LatitudeDegrees>
              <LongitudeDegrees>20.6536452658474445343017578125</LongitudeDegrees>
            </Position>
            <AltitudeMeters>327.399993896484375</AltitudeMeters>
            <DistanceMeters>NAN</DistanceMeters>
          </Trackpoint>
          <Trackpoint>
            <Time>2022-09-23T09:16:56.000Z</Time>
            <Position>
              <LatitudeDegrees>49.525328837335109710693359375</LatitudeDegrees>
              <LongitudeDegrees>20.6536452658474445343017578125</LongitudeDegrees>
            </Position>
            <AltitudeMeters>327.399993896484375</AltitudeMeters>
            <DistanceMeters>NAN</DistanceMeters>
          </Trackpoint>
          <Trackpoint>
            <Time>2022-09-23T09:17:08.000Z</Time>
            <Position>
              <LatitudeDegrees>49.525328837335109710693359375</LatitudeDegrees>
              <LongitudeDegrees>20.6536452658474445343017578125</LongitudeDegrees>
            </Position>
            <AltitudeMeters>327.20001220703125</AltitudeMeters>
            <DistanceMeters>NAN</DistanceMeters>
          </Trackpoint>
          <Trackpoint>
            <Time>2022-09-23T09:17:25.000Z</Time>
            <Position>
              <LatitudeDegrees>49.525328837335109710693359375</LatitudeDegrees>
              <LongitudeDegrees>20.6536452658474445343017578125</LongitudeDegrees>
            </Position>
            <AltitudeMeters>327</AltitudeMeters>
            <DistanceMeters>NAN</DistanceMeters>
          </Trackpoint>
          <Trackpoint>
            <Time>2022-09-23T09:17:32.000Z</Time>
            <Position>
              <LatitudeDegrees>49.5253278315067291259765625</LatitudeDegrees>
              <LongitudeDegrees>20.65364400856196880340576171875</LongitudeDegrees>
            </Position>
            <AltitudeMeters>327</AltitudeMeters>
            <DistanceMeters>NAN</DistanceMeters>
          </Trackpoint>
          <Trackpoint>
            <Time>2022-09-23T09:17:35.000Z</Time>
            <Position>
              <LatitudeDegrees>49.5253072120249271392822265625</LatitudeDegrees>
              <LongitudeDegrees>20.6536673940718173980712890625</LongitudeDegrees>
            </Position>
            <AltitudeMeters>327</AltitudeMeters>
            <DistanceMeters>NAN</DistanceMeters>
          </Trackpoint>
          <Trackpoint>
            <Time>2022-09-23T09:17:42.000Z</Time>
            <Position>
              <LatitudeDegrees>49.52529069967567920684814453125</LatitudeDegrees>
              <LongitudeDegrees>20.65386177040636539459228515625</LongitudeDegrees>
            </Position>
            <AltitudeMeters>327.20001220703125</AltitudeMeters>
            <DistanceMeters>NAN</DistanceMeters>
          </Trackpoint>
          <Trackpoint>
            <Time>2022-09-23T09:17:50.000Z</Time>
            <Position>
              <LatitudeDegrees>49.52523303218185901641845703125</LatitudeDegrees>
              <LongitudeDegrees>20.65413099713623523712158203125</LongitudeDegrees>
            </Position>
            <AltitudeMeters>326.79998779296875</AltitudeMeters>
            <DistanceMeters>NAN</DistanceMeters>
          </Trackpoint>
          <Trackpoint>
            <Time>2022-09-23T09:17:55.000Z</Time>
            <Position>
              <LatitudeDegrees>49.52516178600490093231201171875</LatitudeDegrees>
              <LongitudeDegrees>20.6543409638106822967529296875</LongitudeDegrees>
            </Position>
            <AltitudeMeters>326.79998779296875</AltitudeMeters>
            <DistanceMeters>NAN</DistanceMeters>
          </Trackpoint>
          <Trackpoint>
            <Time>2022-09-23T09:17:56.000Z</Time>
            <Position>
              <LatitudeDegrees>49.52514954842627048492431640625</LatitudeDegrees>
              <LongitudeDegrees>20.6543788500130176544189453125</LongitudeDegrees>
            </Position>
            <AltitudeMeters>326.79998779296875</AltitudeMeters>
            <DistanceMeters>NAN</DistanceMeters>
          </Trackpoint>
          <Trackpoint>
            <Time>2022-09-23T09:18:05.000Z</Time>
            <Position>
              <LatitudeDegrees>49.525028765201568603515625</LatitudeDegrees>
              <LongitudeDegrees>20.6546789221465587615966796875</LongitudeDegrees>
            </Position>
            <AltitudeMeters>327</AltitudeMeters>
            <DistanceMeters>NAN</DistanceMeters>
          </Trackpoint>
          <Trackpoint>
            <Time>2022-09-23T09:18:10.000Z</Time>
            <Position>
              <LatitudeDegrees>49.52495793811976909637451171875</LatitudeDegrees>
              <LongitudeDegrees>20.65482770092785358428955078125</LongitudeDegrees>
            </Position>
            <AltitudeMeters>327.20001220703125</AltitudeMeters>
            <DistanceMeters>NAN</DistanceMeters>
          </Trackpoint>
          <Trackpoint>
            <Time>2022-09-23T09:18:13.000Z</Time>
            <Position>
              <LatitudeDegrees>49.524919129908084869384765625</LatitudeDegrees>
              <LongitudeDegrees>20.654888637363910675048828125</LongitudeDegrees>
            </Position>
            <AltitudeMeters>327.600006103515625</AltitudeMeters>
            <DistanceMeters>NAN</DistanceMeters>
          </Trackpoint>
          <Trackpoint>
            <Time>2022-09-23T09:18:16.000Z</Time>
            <Position>
              <LatitudeDegrees>49.524884261190891265869140625</LatitudeDegrees>
              <LongitudeDegrees>20.65491353161633014678955078125</LongitudeDegrees>
            </Position>
            <AltitudeMeters>327.79998779296875</AltitudeMeters>
            <DistanceMeters>NAN</DistanceMeters>
          </Trackpoint>
          <Trackpoint>
            <Time>2022-09-23T09:18:19.000Z</Time>
            <Position>
              <LatitudeDegrees>49.52484578825533390045166015625</LatitudeDegrees>
              <LongitudeDegrees>20.65489710308611392974853515625</LongitudeDegrees>
            </Position>
            <AltitudeMeters>328</AltitudeMeters>
            <DistanceMeters>NAN</DistanceMeters>
          </Trackpoint>
          <Trackpoint>
            <Time>2022-09-23T09:18:21.000Z</Time>
            <Position>
              <LatitudeDegrees>49.52482692897319793701171875</LatitudeDegrees>
              <LongitudeDegrees>20.65487983636558055877685546875</LongitudeDegrees>
            </Position>
            <AltitudeMeters>327.79998779296875</AltitudeMeters>
            <DistanceMeters>NAN</DistanceMeters>
          </Trackpoint>
          <Trackpoint>
            <Time>2022-09-23T09:18:23.000Z</Time>
            <Position>
              <LatitudeDegrees>49.5248073153197765350341796875</LatitudeDegrees>
              <LongitudeDegrees>20.6548841111361980438232421875</LongitudeDegrees>
            </Position>
            <AltitudeMeters>327.79998779296875</AltitudeMeters>
            <DistanceMeters>NAN</DistanceMeters>
          </Trackpoint>
          <Trackpoint>
            <Time>2022-09-23T09:18:25.000Z</Time>
            <Position>
              <LatitudeDegrees>49.5247885398566722869873046875</LatitudeDegrees>
              <LongitudeDegrees>20.65489559434354305267333984375</LongitudeDegrees>
            </Position>
            <AltitudeMeters>328</AltitudeMeters>
            <DistanceMeters>NAN</DistanceMeters>
          </Trackpoint>
          <Trackpoint>
            <Time>2022-09-23T09:18:27.000Z</Time>
            <Position>
              <LatitudeDegrees>49.5247855223715305328369140625</LatitudeDegrees>
              <LongitudeDegrees>20.65489492379128932952880859375</LongitudeDegrees>
            </Position>
            <AltitudeMeters>328</AltitudeMeters>
            <DistanceMeters>NAN</DistanceMeters>
          </Trackpoint>
          <Trackpoint>
            <Time>2022-09-23T09:18:30.000Z</Time>
            <Position>
              <LatitudeDegrees>49.5247855223715305328369140625</LatitudeDegrees>
              <LongitudeDegrees>20.65489492379128932952880859375</LongitudeDegrees>
            </Position>
            <AltitudeMeters>328</AltitudeMeters>
            <DistanceMeters>NAN</DistanceMeters>
          </Trackpoint>
          <Trackpoint>
            <Time>2022-09-23T09:18:41.000Z</Time>
            <Position>
              <LatitudeDegrees>49.5247855223715305328369140625</LatitudeDegrees>
              <LongitudeDegrees>20.65489492379128932952880859375</LongitudeDegrees>
            </Position>
            <AltitudeMeters>327.79998779296875</AltitudeMeters>
            <DistanceMeters>NAN</DistanceMeters>
          </Trackpoint>
          <Trackpoint>
            <Time>2022-09-23T09:18:48.000Z</Time>
            <Position>
              <LatitudeDegrees>49.5247835107147693634033203125</LatitudeDegrees>
              <LongitudeDegrees>20.6548976898193359375</LongitudeDegrees>
            </Position>
            <AltitudeMeters>328</AltitudeMeters>
            <DistanceMeters>NAN</DistanceMeters>
          </Trackpoint>
          <Trackpoint>
            <Time>2022-09-23T09:18:51.000Z</Time>
            <Position>
              <LatitudeDegrees>49.5247345604002475738525390625</LatitudeDegrees>
              <LongitudeDegrees>20.65497186966240406036376953125</LongitudeDegrees>
            </Position>
            <AltitudeMeters>327.79998779296875</AltitudeMeters>
            <DistanceMeters>NAN</DistanceMeters>
          </Trackpoint>
          <Trackpoint>
            <Time>2022-09-23T09:18:55.000Z</Time>
            <Position>
              <LatitudeDegrees>49.52463406138122081756591796875</LatitudeDegrees>
              <LongitudeDegrees>20.655091814696788787841796875</LongitudeDegrees>
            </Position>
            <AltitudeMeters>327.600006103515625</AltitudeMeters>
            <DistanceMeters>NAN</DistanceMeters>
          </Trackpoint>
          <Trackpoint>
            <Time>2022-09-23T09:18:56.000Z</Time>
            <Position>
              <LatitudeDegrees>49.52460790984332561492919921875</LatitudeDegrees>
              <LongitudeDegrees>20.6550996936857700347900390625</LongitudeDegrees>
            </Position>
            <AltitudeMeters>327.399993896484375</AltitudeMeters>
            <DistanceMeters>NAN</DistanceMeters>
          </Trackpoint>
          <Trackpoint>
            <Time>2022-09-23T09:19:01.000Z</Time>
            <Position>
              <LatitudeDegrees>49.5244854502379894256591796875</LatitudeDegrees>
              <LongitudeDegrees>20.65505635924637317657470703125</LongitudeDegrees>
            </Position>
            <AltitudeMeters>327</AltitudeMeters>
            <DistanceMeters>NAN</DistanceMeters>
          </Trackpoint>
          <Trackpoint>
            <Time>2022-09-23T09:19:02.000Z</Time>
            <Position>
              <LatitudeDegrees>49.524469189345836639404296875</LatitudeDegrees>
              <LongitudeDegrees>20.6550599634647369384765625</LongitudeDegrees>
            </Position>
            <AltitudeMeters>327</AltitudeMeters>
            <DistanceMeters>NAN</DistanceMeters>
          </Trackpoint>
          <Trackpoint>
            <Time>2022-09-23T09:19:03.000Z</Time>
            <Position>
              <LatitudeDegrees>49.52445485629141330718994140625</LatitudeDegrees>
              <LongitudeDegrees>20.6550802476704120635986328125</LongitudeDegrees>
            </Position>
            <AltitudeMeters>327</AltitudeMeters>
            <DistanceMeters>NAN</DistanceMeters>
          </Trackpoint>
          <Trackpoint>
            <Time>2022-09-23T09:19:05.000Z</Time>
            <Position>
              <LatitudeDegrees>49.5244381763041019439697265625</LatitudeDegrees>
              <LongitudeDegrees>20.65513062290847301483154296875</LongitudeDegrees>
            </Position>
            <AltitudeMeters>327</AltitudeMeters>
            <DistanceMeters>NAN</DistanceMeters>
          </Trackpoint>
          <Trackpoint>
            <Time>2022-09-23T09:19:08.000Z</Time>
            <Position>
              <LatitudeDegrees>49.524437002837657928466796875</LatitudeDegrees>
              <LongitudeDegrees>20.65525249578058719635009765625</LongitudeDegrees>
            </Position>
            <AltitudeMeters>326.79998779296875</AltitudeMeters>
            <DistanceMeters>NAN</DistanceMeters>
          </Trackpoint>
          <Trackpoint>
            <Time>2022-09-23T09:19:09.000Z</Time>
            <Position>
              <LatitudeDegrees>49.52444731257855892181396484375</LatitudeDegrees>
              <LongitudeDegrees>20.655314438045024871826171875</LongitudeDegrees>
            </Position>
            <AltitudeMeters>326.79998779296875</AltitudeMeters>
            <DistanceMeters>NAN</DistanceMeters>
          </Trackpoint>
          <Trackpoint>
            <Time>2022-09-23T09:19:10.000Z</Time>
            <Position>
              <LatitudeDegrees>49.5244633220136165618896484375</LatitudeDegrees>
              <LongitudeDegrees>20.65538979135453701019287109375</LongitudeDegrees>
            </Position>
            <AltitudeMeters>326.20001220703125</AltitudeMeters>
            <DistanceMeters>NAN</DistanceMeters>
          </Trackpoint>
          <Trackpoint>
            <Time>2022-09-23T09:19:11.000Z</Time>
            <Position>
              <LatitudeDegrees>49.5244800858199596405029296875</LatitudeDegrees>
              <LongitudeDegrees>20.65546640194952487945556640625</LongitudeDegrees>
            </Position>
            <AltitudeMeters>325.79998779296875</AltitudeMeters>
            <DistanceMeters>NAN</DistanceMeters>
          </Trackpoint>
          <Trackpoint>
            <Time>2022-09-23T09:19:13.000Z</Time>
            <Position>
              <LatitudeDegrees>49.524542950093746185302734375</LatitudeDegrees>
              <LongitudeDegrees>20.65562096424400806427001953125</LongitudeDegrees>
            </Position>
            <AltitudeMeters>324.79998779296875</AltitudeMeters>
            <DistanceMeters>NAN</DistanceMeters>
          </Trackpoint>
          <Trackpoint>
            <Time>2022-09-23T09:19:14.000Z</Time>
            <Position>
              <LatitudeDegrees>49.52459198422729969024658203125</LatitudeDegrees>
              <LongitudeDegrees>20.65567217767238616943359375</LongitudeDegrees>
            </Position>
            <AltitudeMeters>324.399993896484375</AltitudeMeters>
            <DistanceMeters>NAN</DistanceMeters>
          </Trackpoint>
          <Trackpoint>
            <Time>2022-09-23T09:19:15.000Z</Time>
            <Position>
              <LatitudeDegrees>49.52464294619858264923095703125</LatitudeDegrees>
              <LongitudeDegrees>20.65569623373448848724365234375</LongitudeDegrees>
            </Position>
            <AltitudeMeters>324.399993896484375</AltitudeMeters>
            <DistanceMeters>NAN</DistanceMeters>
          </Trackpoint>
          <Trackpoint>
            <Time>2022-09-23T09:19:17.000Z</Time>
            <Position>
              <LatitudeDegrees>49.52471670694649219512939453125</LatitudeDegrees>
              <LongitudeDegrees>20.65569606609642505645751953125</LongitudeDegrees>
            </Position>
            <AltitudeMeters>324.399993896484375</AltitudeMeters>
            <DistanceMeters>NAN</DistanceMeters>
          </Trackpoint>
          <Trackpoint>
            <Time>2022-09-23T09:19:21.000Z</Time>
            <Position>
              <LatitudeDegrees>49.52481963671743869781494140625</LatitudeDegrees>
              <LongitudeDegrees>20.65575557760894298553466796875</LongitudeDegrees>
            </Position>
            <AltitudeMeters>325.20001220703125</AltitudeMeters>
            <DistanceMeters>NAN</DistanceMeters>
          </Trackpoint>
          <Trackpoint>
            <Time>2022-09-23T09:19:30.000Z</Time>
            <Position>
              <LatitudeDegrees>49.525067321956157684326171875</LatitudeDegrees>
              <LongitudeDegrees>20.65612010657787322998046875</LongitudeDegrees>
            </Position>
            <AltitudeMeters>324.20001220703125</AltitudeMeters>
            <DistanceMeters>NAN</DistanceMeters>
          </Trackpoint>
          <Trackpoint>
            <Time>2022-09-23T09:19:36.000Z</Time>
            <Position>
              <LatitudeDegrees>49.5252404920756816864013671875</LatitudeDegrees>
              <LongitudeDegrees>20.65630291588604450225830078125</LongitudeDegrees>
            </Position>
            <AltitudeMeters>324.399993896484375</AltitudeMeters>
            <DistanceMeters>NAN</DistanceMeters>
          </Trackpoint>
          <Trackpoint>
            <Time>2022-09-23T09:19:44.000Z</Time>
            <Position>
              <LatitudeDegrees>49.52538742683827877044677734375</LatitudeDegrees>
              <LongitudeDegrees>20.65656325779855251312255859375</LongitudeDegrees>
            </Position>
            <AltitudeMeters>324.600006103515625</AltitudeMeters>
            <DistanceMeters>NAN</DistanceMeters>
          </Trackpoint>
          <Trackpoint>
            <Time>2022-09-23T09:19:48.000Z</Time>
            <Position>
              <LatitudeDegrees>49.525397904217243194580078125</LatitudeDegrees>
              <LongitudeDegrees>20.65660701133310794830322265625</LongitudeDegrees>
            </Position>
            <AltitudeMeters>324.79998779296875</AltitudeMeters>
            <DistanceMeters>NAN</DistanceMeters>
          </Trackpoint>
          <Trackpoint>
            <Time>2022-09-23T09:19:54.000Z</Time>
            <Position>
              <LatitudeDegrees>49.525397904217243194580078125</LatitudeDegrees>
              <LongitudeDegrees>20.65660701133310794830322265625</LongitudeDegrees>
            </Position>
            <AltitudeMeters>325</AltitudeMeters>
            <DistanceMeters>NAN</DistanceMeters>
          </Trackpoint>
          <Trackpoint>
            <Time>2022-09-23T09:19:59.000Z</Time>
            <Position>
              <LatitudeDegrees>49.525397904217243194580078125</LatitudeDegrees>
              <LongitudeDegrees>20.65660701133310794830322265625</LongitudeDegrees>
            </Position>
            <AltitudeMeters>325</AltitudeMeters>
            <DistanceMeters>NAN</DistanceMeters>
          </Trackpoint>
          <Trackpoint>
            <Time>2022-09-23T09:20:03.000Z</Time>
            <Position>
              <LatitudeDegrees>49.525397904217243194580078125</LatitudeDegrees>
              <LongitudeDegrees>20.65660701133310794830322265625</LongitudeDegrees>
            </Position>
            <AltitudeMeters>325</AltitudeMeters>
            <DistanceMeters>NAN</DistanceMeters>
          </Trackpoint>
          <Trackpoint>
            <Time>2022-09-23T09:20:13.000Z</Time>
            <Position>
              <LatitudeDegrees>49.525397904217243194580078125</LatitudeDegrees>
              <LongitudeDegrees>20.65660701133310794830322265625</LongitudeDegrees>
            </Position>
            <AltitudeMeters>324.79998779296875</AltitudeMeters>
            <DistanceMeters>NAN</DistanceMeters>
          </Trackpoint>
          <Trackpoint>
            <Time>2022-09-23T09:20:20.000Z</Time>
            <Position>
              <LatitudeDegrees>49.525397904217243194580078125</LatitudeDegrees>
              <LongitudeDegrees>20.65660701133310794830322265625</LongitudeDegrees>
            </Position>
            <AltitudeMeters>324.79998779296875</AltitudeMeters>
            <DistanceMeters>NAN</DistanceMeters>
          </Trackpoint>
          <Trackpoint>
            <Time>2022-09-23T09:20:25.000Z</Time>
            <Position>
              <LatitudeDegrees>49.52539865858852863311767578125</LatitudeDegrees>
              <LongitudeDegrees>20.65660432912409305572509765625</LongitudeDegrees>
            </Position>
            <AltitudeMeters>324.79998779296875</AltitudeMeters>
            <DistanceMeters>NAN</DistanceMeters>
          </Trackpoint>
          <Trackpoint>
            <Time>2022-09-23T09:20:43.000Z</Time>
            <Position>
              <LatitudeDegrees>49.5254014246165752410888671875</LatitudeDegrees>
              <LongitudeDegrees>20.65660248510539531707763671875</LongitudeDegrees>
            </Position>
            <AltitudeMeters>324.79998779296875</AltitudeMeters>
            <DistanceMeters>NAN</DistanceMeters>
          </Trackpoint>
          <Trackpoint>
            <Time>2022-09-23T09:20:59.000Z</Time>
            <Position>
              <LatitudeDegrees>49.5254014246165752410888671875</LatitudeDegrees>
              <LongitudeDegrees>20.65660248510539531707763671875</LongitudeDegrees>
            </Position>
            <AltitudeMeters>324.79998779296875</AltitudeMeters>
            <DistanceMeters>NAN</DistanceMeters>
          </Trackpoint>
          <Trackpoint>
            <Time>2022-09-23T09:21:14.000Z</Time>
            <Position>
              <LatitudeDegrees>49.5254014246165752410888671875</LatitudeDegrees>
              <LongitudeDegrees>20.65660248510539531707763671875</LongitudeDegrees>
            </Position>
            <AltitudeMeters>324.79998779296875</AltitudeMeters>
            <DistanceMeters>NAN</DistanceMeters>
          </Trackpoint>
          <Trackpoint>
            <Time>2022-09-23T09:21:42.000Z</Time>
            <Position>
              <LatitudeDegrees>49.5254014246165752410888671875</LatitudeDegrees>
              <LongitudeDegrees>20.65660248510539531707763671875</LongitudeDegrees>
            </Position>
            <AltitudeMeters>324.79998779296875</AltitudeMeters>
            <DistanceMeters>NAN</DistanceMeters>
          </Trackpoint>
          <Trackpoint>
            <Time>2022-09-23T09:21:52.000Z</Time>
            <Position>
              <LatitudeDegrees>49.52541441656649112701416015625</LatitudeDegrees>
              <LongitudeDegrees>20.65662763081490993499755859375</LongitudeDegrees>
            </Position>
            <AltitudeMeters>324.79998779296875</AltitudeMeters>
            <DistanceMeters>NAN</DistanceMeters>
          </Trackpoint>
          <Trackpoint>
            <Time>2022-09-23T09:21:53.000Z</Time>
            <Position>
              <LatitudeDegrees>49.52542749233543872833251953125</LatitudeDegrees>
              <LongitudeDegrees>20.6566580571234226226806640625</LongitudeDegrees>
            </Position>
            <AltitudeMeters>324.79998779296875</AltitudeMeters>
            <DistanceMeters>NAN</DistanceMeters>
          </Trackpoint>
          <Trackpoint>
            <Time>2022-09-23T09:21:56.000Z</Time>
            <Position>
              <LatitudeDegrees>49.52548943459987640380859375</LatitudeDegrees>
              <LongitudeDegrees>20.65677196718752384185791015625</LongitudeDegrees>
            </Position>
            <AltitudeMeters>324.79998779296875</AltitudeMeters>
            <DistanceMeters>NAN</DistanceMeters>
          </Trackpoint>
          <Trackpoint>
            <Time>2022-09-23T09:21:58.000Z</Time>
            <Position>
              <LatitudeDegrees>49.52553100883960723876953125</LatitudeDegrees>
              <LongitudeDegrees>20.6568555347621440887451171875</LongitudeDegrees>
            </Position>
            <AltitudeMeters>324.79998779296875</AltitudeMeters>
            <DistanceMeters>NAN</DistanceMeters>
          </Trackpoint>
          <Trackpoint>
            <Time>2022-09-23T09:22:08.000Z</Time>
            <Position>
              <LatitudeDegrees>49.525722451508045196533203125</LatitudeDegrees>
              <LongitudeDegrees>20.65722291357815265655517578125</LongitudeDegrees>
            </Position>
            <AltitudeMeters>324.79998779296875</AltitudeMeters>
            <DistanceMeters>NAN</DistanceMeters>
          </Trackpoint>
          <Trackpoint>
            <Time>2022-09-23T09:22:12.000Z</Time>
            <Position>
              <LatitudeDegrees>49.52580803073942661285400390625</LatitudeDegrees>
              <LongitudeDegrees>20.657401867210865020751953125</LongitudeDegrees>
            </Position>
            <AltitudeMeters>324.600006103515625</AltitudeMeters>
            <DistanceMeters>NAN</DistanceMeters>
          </Trackpoint>
          <Trackpoint>
            <Time>2022-09-23T09:22:14.000Z</Time>
            <Position>
              <LatitudeDegrees>49.5258527062833309173583984375</LatitudeDegrees>
              <LongitudeDegrees>20.657492391765117645263671875</LongitudeDegrees>
            </Position>
            <AltitudeMeters>324.600006103515625</AltitudeMeters>
            <DistanceMeters>NAN</DistanceMeters>
          </Trackpoint>
          <Trackpoint>
            <Time>2022-09-23T09:22:21.000Z</Time>
            <Position>
              <LatitudeDegrees>49.52602294273674488067626953125</LatitudeDegrees>
              <LongitudeDegrees>20.65781098790466785430908203125</LongitudeDegrees>
            </Position>
            <AltitudeMeters>324.399993896484375</AltitudeMeters>
            <DistanceMeters>NAN</DistanceMeters>
          </Trackpoint>
          <Trackpoint>
            <Time>2022-09-23T09:22:23.000Z</Time>
            <Position>
              <LatitudeDegrees>49.52607415616512298583984375</LatitudeDegrees>
              <LongitudeDegrees>20.6578861735761165618896484375</LongitudeDegrees>
            </Position>
            <AltitudeMeters>324.399993896484375</AltitudeMeters>
            <DistanceMeters>NAN</DistanceMeters>
          </Trackpoint>
          <Trackpoint>
            <Time>2022-09-23T09:22:24.000Z</Time>
            <Position>
              <LatitudeDegrees>49.52610827051103115081787109375</LatitudeDegrees>
              <LongitudeDegrees>20.657926909625530242919921875</LongitudeDegrees>
            </Position>
            <AltitudeMeters>324.399993896484375</AltitudeMeters>
            <DistanceMeters>NAN</DistanceMeters>
          </Trackpoint>
          <Trackpoint>
            <Time>2022-09-23T09:22:25.000Z</Time>
            <Position>
              <LatitudeDegrees>49.5261386968195438385009765625</LatitudeDegrees>
              <LongitudeDegrees>20.65796001814305782318115234375</LongitudeDegrees>
            </Position>
            <AltitudeMeters>324.399993896484375</AltitudeMeters>
            <DistanceMeters>NAN</DistanceMeters>
          </Trackpoint>
          <Trackpoint>
            <Time>2022-09-23T09:22:32.000Z</Time>
            <Position>
              <LatitudeDegrees>49.52635033987462520599365234375</LatitudeDegrees>
              <LongitudeDegrees>20.65825045108795166015625</LongitudeDegrees>
            </Position>
            <AltitudeMeters>324.399993896484375</AltitudeMeters>
            <DistanceMeters>NAN</DistanceMeters>
          </Trackpoint>
          <Trackpoint>
            <Time>2022-09-23T09:22:40.000Z</Time>
            <Position>
              <LatitudeDegrees>49.52659852802753448486328125</LatitudeDegrees>
              <LongitudeDegrees>20.6585674546658992767333984375</LongitudeDegrees>
            </Position>
            <AltitudeMeters>324.600006103515625</AltitudeMeters>
            <DistanceMeters>NAN</DistanceMeters>
          </Trackpoint>
          <Trackpoint>
            <Time>2022-09-23T09:22:41.000Z</Time>
            <Position>
              <LatitudeDegrees>49.52663314528763294219970703125</LatitudeDegrees>
              <LongitudeDegrees>20.658602826297283172607421875</LongitudeDegrees>
            </Position>
            <AltitudeMeters>324.600006103515625</AltitudeMeters>
            <DistanceMeters>NAN</DistanceMeters>
          </Trackpoint>
          <Trackpoint>
            <Time>2022-09-23T09:22:49.000Z</Time>
            <Position>
              <LatitudeDegrees>49.52689549885690212249755859375</LatitudeDegrees>
              <LongitudeDegrees>20.65888470970094203948974609375</LongitudeDegrees>
            </Position>
            <AltitudeMeters>324.399993896484375</AltitudeMeters>
            <DistanceMeters>NAN</DistanceMeters>
          </Trackpoint>
          <Trackpoint>
            <Time>2022-09-23T09:22:52.000Z</Time>
            <Position>
              <LatitudeDegrees>49.52699490822851657867431640625</LatitudeDegrees>
              <LongitudeDegrees>20.65899434499442577362060546875</LongitudeDegrees>
            </Position>
            <AltitudeMeters>324</AltitudeMeters>
            <DistanceMeters>NAN</DistanceMeters>
          </Trackpoint>
          <Trackpoint>
            <Time>2022-09-23T09:22:54.000Z</Time>
            <Position>
              <LatitudeDegrees>49.52706917189061641693115234375</LatitudeDegrees>
              <LongitudeDegrees>20.6590908206999301910400390625</LongitudeDegrees>
            </Position>
            <AltitudeMeters>323.600006103515625</AltitudeMeters>
            <DistanceMeters>NAN</DistanceMeters>
          </Trackpoint>
          <Trackpoint>
            <Time>2022-09-23T09:22:56.000Z</Time>
            <Position>
              <LatitudeDegrees>49.52714159153401851654052734375</LatitudeDegrees>
              <LongitudeDegrees>20.65917237661778926849365234375</LongitudeDegrees>
            </Position>
            <AltitudeMeters>323.399993896484375</AltitudeMeters>
            <DistanceMeters>NAN</DistanceMeters>
          </Trackpoint>
          <Trackpoint>
            <Time>2022-09-23T09:23:00.000Z</Time>
            <Position>
              <LatitudeDegrees>49.5272987522184848785400390625</LatitudeDegrees>
              <LongitudeDegrees>20.65940304659307003021240234375</LongitudeDegrees>
            </Position>
            <AltitudeMeters>322.600006103515625</AltitudeMeters>
            <DistanceMeters>NAN</DistanceMeters>
          </Trackpoint>
          <Trackpoint>
            <Time>2022-09-23T09:23:01.000Z</Time>
            <Position>
              <LatitudeDegrees>49.52730855904519557952880859375</LatitudeDegrees>
              <LongitudeDegrees>20.65946054644882678985595703125</LongitudeDegrees>
            </Position>
            <AltitudeMeters>322.600006103515625</AltitudeMeters>
            <DistanceMeters>NAN</DistanceMeters>
          </Trackpoint>
          <Trackpoint>
            <Time>2022-09-23T09:23:02.000Z</Time>
            <Position>
              <LatitudeDegrees>49.52731668949127197265625</LatitudeDegrees>
              <LongitudeDegrees>20.65954604186117649078369140625</LongitudeDegrees>
            </Position>
            <AltitudeMeters>322.600006103515625</AltitudeMeters>
            <DistanceMeters>NAN</DistanceMeters>
          </Trackpoint>
          <Trackpoint>
            <Time>2022-09-23T09:23:04.000Z</Time>
            <Position>
              <LatitudeDegrees>49.5273609459400177001953125</LatitudeDegrees>
              <LongitudeDegrees>20.65965928137302398681640625</LongitudeDegrees>
            </Position>
            <AltitudeMeters>322.79998779296875</AltitudeMeters>
            <DistanceMeters>NAN</DistanceMeters>
          </Trackpoint>
          <Trackpoint>
            <Time>2022-09-23T09:23:06.000Z</Time>
            <Position>
              <LatitudeDegrees>49.527435712516307830810546875</LatitudeDegrees>
              <LongitudeDegrees>20.659715272486209869384765625</LongitudeDegrees>
            </Position>
            <AltitudeMeters>322.79998779296875</AltitudeMeters>
            <DistanceMeters>NAN</DistanceMeters>
          </Trackpoint>
          <Trackpoint>
            <Time>2022-09-23T09:23:08.000Z</Time>
            <Position>
              <LatitudeDegrees>49.52750687487423419952392578125</LatitudeDegrees>
              <LongitudeDegrees>20.65974838100373744964599609375</LongitudeDegrees>
            </Position>
            <AltitudeMeters>322.79998779296875</AltitudeMeters>
            <DistanceMeters>NAN</DistanceMeters>
          </Trackpoint>
          <Trackpoint>
            <Time>2022-09-23T09:23:13.000Z</Time>
            <Position>
              <LatitudeDegrees>49.527718015015125274658203125</LatitudeDegrees>
              <LongitudeDegrees>20.6597898714244365692138671875</LongitudeDegrees>
            </Position>
            <AltitudeMeters>322.79998779296875</AltitudeMeters>
            <DistanceMeters>NAN</DistanceMeters>
          </Trackpoint>
          <Trackpoint>
            <Time>2022-09-23T09:23:14.000Z</Time>
            <Position>
              <LatitudeDegrees>49.52776269055902957916259765625</LatitudeDegrees>
              <LongitudeDegrees>20.6597928889095783233642578125</LongitudeDegrees>
            </Position>
            <AltitudeMeters>322.79998779296875</AltitudeMeters>
            <DistanceMeters>NAN</DistanceMeters>
          </Trackpoint>
          <Trackpoint>
            <Time>2022-09-23T09:23:15.000Z</Time>
            <Position>
              <LatitudeDegrees>49.527804851531982421875</LatitudeDegrees>
              <LongitudeDegrees>20.6597935594618320465087890625</LongitudeDegrees>
            </Position>
            <AltitudeMeters>322.79998779296875</AltitudeMeters>
            <DistanceMeters>NAN</DistanceMeters>
          </Trackpoint>
          <Trackpoint>
            <Time>2022-09-23T09:23:20.000Z</Time>
            <Position>
              <LatitudeDegrees>49.52799922786653041839599609375</LatitudeDegrees>
              <LongitudeDegrees>20.65979414619505405426025390625</LongitudeDegrees>
            </Position>
            <AltitudeMeters>322.79998779296875</AltitudeMeters>
            <DistanceMeters>NAN</DistanceMeters>
          </Trackpoint>
          <Trackpoint>
            <Time>2022-09-23T09:23:21.000Z</Time>
            <Position>
              <LatitudeDegrees>49.5280383713543415069580078125</LatitudeDegrees>
              <LongitudeDegrees>20.6597989238798618316650390625</LongitudeDegrees>
            </Position>
            <AltitudeMeters>322.79998779296875</AltitudeMeters>
            <DistanceMeters>NAN</DistanceMeters>
          </Trackpoint>
          <Trackpoint>
            <Time>2022-09-23T09:23:22.000Z</Time>
            <Position>
              <LatitudeDegrees>49.528074748814105987548828125</LatitudeDegrees>
              <LongitudeDegrees>20.6598012708127498626708984375</LongitudeDegrees>
            </Position>
            <AltitudeMeters>322.79998779296875</AltitudeMeters>
            <DistanceMeters>NAN</DistanceMeters>
          </Trackpoint>
          <Trackpoint>
            <Time>2022-09-23T09:23:25.000Z</Time>
            <Position>
              <LatitudeDegrees>49.528191089630126953125</LatitudeDegrees>
              <LongitudeDegrees>20.65980537794530391693115234375</LongitudeDegrees>
            </Position>
            <AltitudeMeters>322.79998779296875</AltitudeMeters>
            <DistanceMeters>NAN</DistanceMeters>
          </Trackpoint>
          <Trackpoint>
            <Time>2022-09-23T09:23:27.000Z</Time>
            <Position>
              <LatitudeDegrees>49.52827398665249347686767578125</LatitudeDegrees>
              <LongitudeDegrees>20.6598069705069065093994140625</LongitudeDegrees>
            </Position>
            <AltitudeMeters>322.600006103515625</AltitudeMeters>
            <DistanceMeters>NAN</DistanceMeters>
          </Trackpoint>
          <Trackpoint>
            <Time>2022-09-23T09:23:30.000Z</Time>
            <Position>
              <LatitudeDegrees>49.52840994112193584442138671875</LatitudeDegrees>
              <LongitudeDegrees>20.6598093174397945404052734375</LongitudeDegrees>
            </Position>
            <AltitudeMeters>322.79998779296875</AltitudeMeters>
            <DistanceMeters>NAN</DistanceMeters>
          </Trackpoint>
          <Trackpoint>
            <Time>2022-09-23T09:23:32.000Z</Time>
            <Position>
              <LatitudeDegrees>49.52850214205682277679443359375</LatitudeDegrees>
              <LongitudeDegrees>20.6598086468875408172607421875</LongitudeDegrees>
            </Position>
            <AltitudeMeters>322.79998779296875</AltitudeMeters>
            <DistanceMeters>NAN</DistanceMeters>
          </Trackpoint>
          <Trackpoint>
            <Time>2022-09-23T09:23:38.000Z</Time>
            <Position>
              <LatitudeDegrees>49.52878830023109912872314453125</LatitudeDegrees>
              <LongitudeDegrees>20.659844018518924713134765625</LongitudeDegrees>
            </Position>
            <AltitudeMeters>322.79998779296875</AltitudeMeters>
            <DistanceMeters>NAN</DistanceMeters>
          </Trackpoint>
          <Trackpoint>
            <Time>2022-09-23T09:23:39.000Z</Time>
            <Position>
              <LatitudeDegrees>49.52883020974695682525634765625</LatitudeDegrees>
              <LongitudeDegrees>20.6598572619259357452392578125</LongitudeDegrees>
            </Position>
            <AltitudeMeters>323</AltitudeMeters>
            <DistanceMeters>NAN</DistanceMeters>
          </Trackpoint>
          <Trackpoint>
            <Time>2022-09-23T09:23:44.000Z</Time>
            <Position>
              <LatitudeDegrees>49.52898778952658176422119140625</LatitudeDegrees>
              <LongitudeDegrees>20.65988735295832157135009765625</LongitudeDegrees>
            </Position>
            <AltitudeMeters>323.600006103515625</AltitudeMeters>
            <DistanceMeters>NAN</DistanceMeters>
          </Trackpoint>
          <Trackpoint>
            <Time>2022-09-23T09:23:49.000Z</Time>
            <Position>
              <LatitudeDegrees>49.52915241010487079620361328125</LatitudeDegrees>
              <LongitudeDegrees>20.65994619391858577728271484375</LongitudeDegrees>
            </Position>
            <AltitudeMeters>323.79998779296875</AltitudeMeters>
            <DistanceMeters>NAN</DistanceMeters>
          </Trackpoint>
          <Trackpoint>
            <Time>2022-09-23T09:23:50.000Z</Time>
            <Position>
              <LatitudeDegrees>49.5291883684694766998291015625</LatitudeDegrees>
              <LongitudeDegrees>20.659957341849803924560546875</LongitudeDegrees>
            </Position>
            <AltitudeMeters>323.79998779296875</AltitudeMeters>
            <DistanceMeters>NAN</DistanceMeters>
          </Trackpoint>
          <Trackpoint>
            <Time>2022-09-23T09:23:54.000Z</Time>
            <Position>
              <LatitudeDegrees>49.529339410364627838134765625</LatitudeDegrees>
              <LongitudeDegrees>20.65999682061374187469482421875</LongitudeDegrees>
            </Position>
            <AltitudeMeters>323.79998779296875</AltitudeMeters>
            <DistanceMeters>NAN</DistanceMeters>
          </Trackpoint>
          <Trackpoint>
            <Time>2022-09-23T09:24:00.000Z</Time>
            <Position>
              <LatitudeDegrees>49.5295611955225467681884765625</LatitudeDegrees>
              <LongitudeDegrees>20.66007695160806179046630859375</LongitudeDegrees>
            </Position>
            <AltitudeMeters>323.79998779296875</AltitudeMeters>
            <DistanceMeters>NAN</DistanceMeters>
          </Trackpoint>
          <Trackpoint>
            <Time>2022-09-23T09:24:06.000Z</Time>
            <Position>
              <LatitudeDegrees>49.52975138090550899505615234375</LatitudeDegrees>
              <LongitudeDegrees>20.660214833915233612060546875</LongitudeDegrees>
            </Position>
            <AltitudeMeters>323.600006103515625</AltitudeMeters>
            <DistanceMeters>NAN</DistanceMeters>
          </Trackpoint>
          <Trackpoint>
            <Time>2022-09-23T09:24:09.000Z</Time>
            <Position>
              <LatitudeDegrees>49.52984534204006195068359375</LatitudeDegrees>
              <LongitudeDegrees>20.6602984853088855743408203125</LongitudeDegrees>
            </Position>
            <AltitudeMeters>323.600006103515625</AltitudeMeters>
            <DistanceMeters>NAN</DistanceMeters>
          </Trackpoint>
          <Trackpoint>
            <Time>2022-09-23T09:24:14.000Z</Time>
            <Position>
              <LatitudeDegrees>49.53000769950449466705322265625</LatitudeDegrees>
              <LongitudeDegrees>20.66046805121004581451416015625</LongitudeDegrees>
            </Position>
            <AltitudeMeters>323.600006103515625</AltitudeMeters>
            <DistanceMeters>NAN</DistanceMeters>
          </Trackpoint>
          <Trackpoint>
            <Time>2022-09-23T09:24:15.000Z</Time>
            <Position>
              <LatitudeDegrees>49.5300460048019886016845703125</LatitudeDegrees>
              <LongitudeDegrees>20.66049722023308277130126953125</LongitudeDegrees>
            </Position>
            <AltitudeMeters>323.600006103515625</AltitudeMeters>
            <DistanceMeters>NAN</DistanceMeters>
          </Trackpoint>
          <Trackpoint>
            <Time>2022-09-23T09:24:17.000Z</Time>
            <Position>
              <LatitudeDegrees>49.53013611026108264923095703125</LatitudeDegrees>
              <LongitudeDegrees>20.66057517193257808685302734375</LongitudeDegrees>
            </Position>
            <AltitudeMeters>323.600006103515625</AltitudeMeters>
            <DistanceMeters>NAN</DistanceMeters>
          </Trackpoint>
          <Trackpoint>
            <Time>2022-09-23T09:24:20.000Z</Time>
            <Position>
              <LatitudeDegrees>49.53023836947977542877197265625</LatitudeDegrees>
              <LongitudeDegrees>20.6606894172728061676025390625</LongitudeDegrees>
            </Position>
            <AltitudeMeters>323.600006103515625</AltitudeMeters>
            <DistanceMeters>NAN</DistanceMeters>
          </Trackpoint>
          <Trackpoint>
            <Time>2022-09-23T09:24:27.000Z</Time>
            <Position>
              <LatitudeDegrees>49.53047239221632480621337890625</LatitudeDegrees>
              <LongitudeDegrees>20.6608842127025127410888671875</LongitudeDegrees>
            </Position>
            <AltitudeMeters>323.399993896484375</AltitudeMeters>
            <DistanceMeters>NAN</DistanceMeters>
          </Trackpoint>
          <Trackpoint>
            <Time>2022-09-23T09:24:34.000Z</Time>
            <Position>
              <LatitudeDegrees>49.530797861516475677490234375</LatitudeDegrees>
              <LongitudeDegrees>20.66099233925342559814453125</LongitudeDegrees>
            </Position>
            <AltitudeMeters>323.20001220703125</AltitudeMeters>
            <DistanceMeters>NAN</DistanceMeters>
          </Trackpoint>
          <Trackpoint>
            <Time>2022-09-23T09:24:41.000Z</Time>
            <Position>
              <LatitudeDegrees>49.531108997762203216552734375</LatitudeDegrees>
              <LongitudeDegrees>20.66107490099966526031494140625</LongitudeDegrees>
            </Position>
            <AltitudeMeters>323</AltitudeMeters>
            <DistanceMeters>NAN</DistanceMeters>
          </Trackpoint>
          <Trackpoint>
            <Time>2022-09-23T09:24:48.000Z</Time>
            <Position>
              <LatitudeDegrees>49.53137663193047046661376953125</LatitudeDegrees>
              <LongitudeDegrees>20.66118185408413410186767578125</LongitudeDegrees>
            </Position>
            <AltitudeMeters>322.79998779296875</AltitudeMeters>
            <DistanceMeters>NAN</DistanceMeters>
          </Trackpoint>
          <Trackpoint>
            <Time>2022-09-23T09:24:50.000Z</Time>
            <Position>
              <LatitudeDegrees>49.5314719341695308685302734375</LatitudeDegrees>
              <LongitudeDegrees>20.6612094305455684661865234375</LongitudeDegrees>
            </Position>
            <AltitudeMeters>322.79998779296875</AltitudeMeters>
            <DistanceMeters>NAN</DistanceMeters>
          </Trackpoint>
          <Trackpoint>
            <Time>2022-09-23T09:24:52.000Z</Time>
            <Position>
              <LatitudeDegrees>49.53156388364732265472412109375</LatitudeDegrees>
              <LongitudeDegrees>20.66122761927545070648193359375</LongitudeDegrees>
            </Position>
            <AltitudeMeters>322.600006103515625</AltitudeMeters>
            <DistanceMeters>NAN</DistanceMeters>
          </Trackpoint>
          <Trackpoint>
            <Time>2022-09-23T09:24:56.000Z</Time>
            <Position>
              <LatitudeDegrees>49.531758092343807220458984375</LatitudeDegrees>
              <LongitudeDegrees>20.66122292540967464447021484375</LongitudeDegrees>
            </Position>
            <AltitudeMeters>322.20001220703125</AltitudeMeters>
            <DistanceMeters>NAN</DistanceMeters>
          </Trackpoint>
          <Trackpoint>
            <Time>2022-09-23T09:24:57.000Z</Time>
            <Position>
              <LatitudeDegrees>49.5317994989454746246337890625</LatitudeDegrees>
              <LongitudeDegrees>20.66121764481067657470703125</LongitudeDegrees>
            </Position>
            <AltitudeMeters>322.20001220703125</AltitudeMeters>
            <DistanceMeters>NAN</DistanceMeters>
          </Trackpoint>
          <Trackpoint>
            <Time>2022-09-23T09:25:01.000Z</Time>
            <Position>
              <LatitudeDegrees>49.53201080672442913055419921875</LatitudeDegrees>
              <LongitudeDegrees>20.66119484603404998779296875</LongitudeDegrees>
            </Position>
            <AltitudeMeters>322</AltitudeMeters>
            <DistanceMeters>NAN</DistanceMeters>
          </Trackpoint>
          <Trackpoint>
            <Time>2022-09-23T09:25:04.000Z</Time>
            <Position>
              <LatitudeDegrees>49.5321723259985446929931640625</LatitudeDegrees>
              <LongitudeDegrees>20.661227703094482421875</LongitudeDegrees>
            </Position>
            <AltitudeMeters>323</AltitudeMeters>
            <DistanceMeters>NAN</DistanceMeters>
          </Trackpoint>
          <Trackpoint>
            <Time>2022-09-23T09:25:07.000Z</Time>
            <Position>
              <LatitudeDegrees>49.5323198474943637847900390625</LatitudeDegrees>
              <LongitudeDegrees>20.6612691096961498260498046875</LongitudeDegrees>
            </Position>
            <AltitudeMeters>323.20001220703125</AltitudeMeters>
            <DistanceMeters>NAN</DistanceMeters>
          </Trackpoint>
          <Trackpoint>
            <Time>2022-09-23T09:25:10.000Z</Time>
            <Position>
              <LatitudeDegrees>49.53246460296213626861572265625</LatitudeDegrees>
              <LongitudeDegrees>20.6612825207412242889404296875</LongitudeDegrees>
            </Position>
            <AltitudeMeters>323.20001220703125</AltitudeMeters>
            <DistanceMeters>NAN</DistanceMeters>
          </Trackpoint>
          <Trackpoint>
            <Time>2022-09-23T09:25:11.000Z</Time>
            <Position>
              <LatitudeDegrees>49.53251271508634090423583984375</LatitudeDegrees>
              <LongitudeDegrees>20.6612741388380527496337890625</LongitudeDegrees>
            </Position>
            <AltitudeMeters>323.20001220703125</AltitudeMeters>
            <DistanceMeters>NAN</DistanceMeters>
          </Trackpoint>
          <Trackpoint>
            <Time>2022-09-23T09:25:17.000Z</Time>
            <Position>
              <LatitudeDegrees>49.5327785052359104156494140625</LatitudeDegrees>
              <LongitudeDegrees>20.66118403337895870208740234375</LongitudeDegrees>
            </Position>
            <AltitudeMeters>323</AltitudeMeters>
            <DistanceMeters>NAN</DistanceMeters>
          </Trackpoint>
          <Trackpoint>
            <Time>2022-09-23T09:25:20.000Z</Time>
            <Position>
              <LatitudeDegrees>49.532900042831897735595703125</LatitudeDegrees>
              <LongitudeDegrees>20.66114866174757480621337890625</LongitudeDegrees>
            </Position>
            <AltitudeMeters>322.79998779296875</AltitudeMeters>
            <DistanceMeters>NAN</DistanceMeters>
          </Trackpoint>
          <Trackpoint>
            <Time>2022-09-23T09:25:24.000Z</Time>
            <Position>
              <LatitudeDegrees>49.53308234922587871551513671875</LatitudeDegrees>
              <LongitudeDegrees>20.66108311526477336883544921875</LongitudeDegrees>
            </Position>
            <AltitudeMeters>321.399993896484375</AltitudeMeters>
            <DistanceMeters>NAN</DistanceMeters>
          </Trackpoint>
          <Trackpoint>
            <Time>2022-09-23T09:25:29.000Z</Time>
            <Position>
              <LatitudeDegrees>49.53331754542887210845947265625</LatitudeDegrees>
              <LongitudeDegrees>20.66098974086344242095947265625</LongitudeDegrees>
            </Position>
            <AltitudeMeters>320.79998779296875</AltitudeMeters>
            <DistanceMeters>NAN</DistanceMeters>
          </Trackpoint>
          <Trackpoint>
            <Time>2022-09-23T09:25:34.000Z</Time>
            <Position>
              <LatitudeDegrees>49.53355559147894382476806640625</LatitudeDegrees>
              <LongitudeDegrees>20.6609049998223781585693359375</LongitudeDegrees>
            </Position>
            <AltitudeMeters>320.399993896484375</AltitudeMeters>
            <DistanceMeters>NAN</DistanceMeters>
          </Trackpoint>
          <Trackpoint>
            <Time>2022-09-23T09:25:38.000Z</Time>
            <Position>
              <LatitudeDegrees>49.53374552540481090545654296875</LatitudeDegrees>
              <LongitudeDegrees>20.660849846899509429931640625</LongitudeDegrees>
            </Position>
            <AltitudeMeters>320</AltitudeMeters>
            <DistanceMeters>NAN</DistanceMeters>
          </Trackpoint>
          <Trackpoint>
            <Time>2022-09-23T09:25:40.000Z</Time>
            <Position>
              <LatitudeDegrees>49.5338384807109832763671875</LatitudeDegrees>
              <LongitudeDegrees>20.660816989839076995849609375</LongitudeDegrees>
            </Position>
            <AltitudeMeters>320</AltitudeMeters>
            <DistanceMeters>NAN</DistanceMeters>
          </Trackpoint>
          <Trackpoint>
            <Time>2022-09-23T09:25:42.000Z</Time>
            <Position>
              <LatitudeDegrees>49.53391400165855884552001953125</LatitudeDegrees>
              <LongitudeDegrees>20.6607594899833202362060546875</LongitudeDegrees>
            </Position>
            <AltitudeMeters>320</AltitudeMeters>
            <DistanceMeters>NAN</DistanceMeters>
          </Trackpoint>
          <Trackpoint>
            <Time>2022-09-23T09:25:43.000Z</Time>
            <Position>
              <LatitudeDegrees>49.53395809046924114227294921875</LatitudeDegrees>
              <LongitudeDegrees>20.660709701478481292724609375</LongitudeDegrees>
            </Position>
            <AltitudeMeters>320</AltitudeMeters>
            <DistanceMeters>NAN</DistanceMeters>
          </Trackpoint>
          <Trackpoint>
            <Time>2022-09-23T09:25:47.000Z</Time>
            <Position>
              <LatitudeDegrees>49.53407476656138896942138671875</LatitudeDegrees>
              <LongitudeDegrees>20.66049386747181415557861328125</LongitudeDegrees>
            </Position>
            <AltitudeMeters>320</AltitudeMeters>
            <DistanceMeters>NAN</DistanceMeters>
          </Trackpoint>
          <Trackpoint>
            <Time>2022-09-23T09:25:49.000Z</Time>
            <Position>
              <LatitudeDegrees>49.534119777381420135498046875</LatitudeDegrees>
              <LongitudeDegrees>20.66036964766681194305419921875</LongitudeDegrees>
            </Position>
            <AltitudeMeters>320</AltitudeMeters>
            <DistanceMeters>NAN</DistanceMeters>
          </Trackpoint>
          <Trackpoint>
            <Time>2022-09-23T09:25:56.000Z</Time>
            <Position>
              <LatitudeDegrees>49.534237794578075408935546875</LatitudeDegrees>
              <LongitudeDegrees>20.66000998020172119140625</LongitudeDegrees>
            </Position>
            <AltitudeMeters>320</AltitudeMeters>
            <DistanceMeters>NAN</DistanceMeters>
          </Trackpoint>
          <Trackpoint>
            <Time>2022-09-23T09:26:01.000Z</Time>
            <Position>
              <LatitudeDegrees>49.5342865772545337677001953125</LatitudeDegrees>
              <LongitudeDegrees>20.6598777137696743011474609375</LongitudeDegrees>
            </Position>
            <AltitudeMeters>320.79998779296875</AltitudeMeters>
            <DistanceMeters>NAN</DistanceMeters>
          </Trackpoint>
          <Trackpoint>
            <Time>2022-09-23T09:26:06.000Z</Time>
            <Position>
              <LatitudeDegrees>49.534414149820804595947265625</LatitudeDegrees>
              <LongitudeDegrees>20.6598871015012264251708984375</LongitudeDegrees>
            </Position>
            <AltitudeMeters>320.79998779296875</AltitudeMeters>
            <DistanceMeters>NAN</DistanceMeters>
          </Trackpoint>
          <Trackpoint>
            <Time>2022-09-23T09:26:13.000Z</Time>
            <Position>
              <LatitudeDegrees>49.5346942730247974395751953125</LatitudeDegrees>
              <LongitudeDegrees>20.6599266640841960906982421875</LongitudeDegrees>
            </Position>
            <AltitudeMeters>319.600006103515625</AltitudeMeters>
            <DistanceMeters>NAN</DistanceMeters>
          </Trackpoint>
          <Trackpoint>
            <Time>2022-09-23T09:26:23.000Z</Time>
            <Position>
              <LatitudeDegrees>49.53506751917302608489990234375</LatitudeDegrees>
              <LongitudeDegrees>20.65993278287351131439208984375</LongitudeDegrees>
            </Position>
            <AltitudeMeters>319.600006103515625</AltitudeMeters>
            <DistanceMeters>NAN</DistanceMeters>
          </Trackpoint>
          <Trackpoint>
            <Time>2022-09-23T09:26:25.000Z</Time>
            <Position>
              <LatitudeDegrees>49.53516273759305477142333984375</LatitudeDegrees>
              <LongitudeDegrees>20.65989271737635135650634765625</LongitudeDegrees>
            </Position>
            <AltitudeMeters>319.399993896484375</AltitudeMeters>
            <DistanceMeters>NAN</DistanceMeters>
          </Trackpoint>
          <Trackpoint>
            <Time>2022-09-23T09:26:29.000Z</Time>
            <Position>
              <LatitudeDegrees>49.53534244559705257415771484375</LatitudeDegrees>
              <LongitudeDegrees>20.65981225110590457916259765625</LongitudeDegrees>
            </Position>
            <AltitudeMeters>319.20001220703125</AltitudeMeters>
            <DistanceMeters>NAN</DistanceMeters>
          </Trackpoint>
          <Trackpoint>
            <Time>2022-09-23T09:26:37.000Z</Time>
            <Position>
              <LatitudeDegrees>49.535691551864147186279296875</LatitudeDegrees>
              <LongitudeDegrees>20.6596316210925579071044921875</LongitudeDegrees>
            </Position>
            <AltitudeMeters>318.79998779296875</AltitudeMeters>
            <DistanceMeters>NAN</DistanceMeters>
          </Trackpoint>
          <Trackpoint>
            <Time>2022-09-23T09:26:42.000Z</Time>
            <Position>
              <LatitudeDegrees>49.5359005965292453765869140625</LatitudeDegrees>
              <LongitudeDegrees>20.6595312058925628662109375</LongitudeDegrees>
            </Position>
            <AltitudeMeters>318.600006103515625</AltitudeMeters>
            <DistanceMeters>NAN</DistanceMeters>
          </Trackpoint>
          <Trackpoint>
            <Time>2022-09-23T09:26:44.000Z</Time>
            <Position>
              <LatitudeDegrees>49.53597645275294780731201171875</LatitudeDegrees>
              <LongitudeDegrees>20.6594599597156047821044921875</LongitudeDegrees>
            </Position>
            <AltitudeMeters>318.600006103515625</AltitudeMeters>
            <DistanceMeters>NAN</DistanceMeters>
          </Trackpoint>
          <Trackpoint>
            <Time>2022-09-23T09:26:48.000Z</Time>
            <Position>
              <LatitudeDegrees>49.536111988127231597900390625</LatitudeDegrees>
              <LongitudeDegrees>20.65929575823247432708740234375</LongitudeDegrees>
            </Position>
            <AltitudeMeters>318.600006103515625</AltitudeMeters>
            <DistanceMeters>NAN</DistanceMeters>
          </Trackpoint>
          <Trackpoint>
            <Time>2022-09-23T09:26:52.000Z</Time>
            <Position>
              <LatitudeDegrees>49.53628088347613811492919921875</LatitudeDegrees>
              <LongitudeDegrees>20.65912610851228237152099609375</LongitudeDegrees>
            </Position>
            <AltitudeMeters>318.600006103515625</AltitudeMeters>
            <DistanceMeters>NAN</DistanceMeters>
          </Trackpoint>
          <Trackpoint>
            <Time>2022-09-23T09:26:56.000Z</Time>
            <Position>
              <LatitudeDegrees>49.536431171000003814697265625</LatitudeDegrees>
              <LongitudeDegrees>20.65892142243683338165283203125</LongitudeDegrees>
            </Position>
            <AltitudeMeters>318.79998779296875</AltitudeMeters>
            <DistanceMeters>NAN</DistanceMeters>
          </Trackpoint>
          <Trackpoint>
            <Time>2022-09-23T09:26:58.000Z</Time>
            <Position>
              <LatitudeDegrees>49.53648607246577739715576171875</LatitudeDegrees>
              <LongitudeDegrees>20.65883944742381572723388671875</LongitudeDegrees>
            </Position>
            <AltitudeMeters>318.79998779296875</AltitudeMeters>
            <DistanceMeters>NAN</DistanceMeters>
          </Trackpoint>
          <Trackpoint>
            <Time>2022-09-23T09:26:59.000Z</Time>
            <Position>
              <LatitudeDegrees>49.5365232042968273162841796875</LatitudeDegrees>
              <LongitudeDegrees>20.65879669971764087677001953125</LongitudeDegrees>
            </Position>
            <AltitudeMeters>318.79998779296875</AltitudeMeters>
            <DistanceMeters>NAN</DistanceMeters>
          </Trackpoint>
          <Trackpoint>
            <Time>2022-09-23T09:27:03.000Z</Time>
            <Position>
              <LatitudeDegrees>49.5366868190467357635498046875</LatitudeDegrees>
              <LongitudeDegrees>20.65864347852766513824462890625</LongitudeDegrees>
            </Position>
            <AltitudeMeters>318.600006103515625</AltitudeMeters>
            <DistanceMeters>NAN</DistanceMeters>
          </Trackpoint>
          <Trackpoint>
            <Time>2022-09-23T09:27:05.000Z</Time>
            <Position>
              <LatitudeDegrees>49.536772482097148895263671875</LatitudeDegrees>
              <LongitudeDegrees>20.6585413031280040740966796875</LongitudeDegrees>
            </Position>
            <AltitudeMeters>318.600006103515625</AltitudeMeters>
            <DistanceMeters>NAN</DistanceMeters>
          </Trackpoint>
          <Trackpoint>
            <Time>2022-09-23T09:27:09.000Z</Time>
            <Position>
              <LatitudeDegrees>49.5369148068130016326904296875</LatitudeDegrees>
              <LongitudeDegrees>20.65836503170430660247802734375</LongitudeDegrees>
            </Position>
            <AltitudeMeters>318.600006103515625</AltitudeMeters>
            <DistanceMeters>NAN</DistanceMeters>
          </Trackpoint>
          <Trackpoint>
            <Time>2022-09-23T09:27:11.000Z</Time>
            <Position>
              <LatitudeDegrees>49.53700407408177852630615234375</LatitudeDegrees>
              <LongitudeDegrees>20.6583277322351932525634765625</LongitudeDegrees>
            </Position>
            <AltitudeMeters>318.600006103515625</AltitudeMeters>
            <DistanceMeters>NAN</DistanceMeters>
          </Trackpoint>
          <Trackpoint>
            <Time>2022-09-23T09:27:18.000Z</Time>
            <Position>
              <LatitudeDegrees>49.537311606109142303466796875</LatitudeDegrees>
              <LongitudeDegrees>20.6582640297710895538330078125</LongitudeDegrees>
            </Position>
            <AltitudeMeters>318.600006103515625</AltitudeMeters>
            <DistanceMeters>NAN</DistanceMeters>
          </Trackpoint>
          <Trackpoint>
            <Time>2022-09-23T09:27:20.000Z</Time>
            <Position>
              <LatitudeDegrees>49.53739039599895477294921875</LatitudeDegrees>
              <LongitudeDegrees>20.65824382938444614410400390625</LongitudeDegrees>
            </Position>
            <AltitudeMeters>318.600006103515625</AltitudeMeters>
            <DistanceMeters>NAN</DistanceMeters>
          </Trackpoint>
          <Trackpoint>
            <Time>2022-09-23T09:27:23.000Z</Time>
            <Position>
              <LatitudeDegrees>49.53751302324235439300537109375</LatitudeDegrees>
              <LongitudeDegrees>20.65821449272334575653076171875</LongitudeDegrees>
            </Position>
            <AltitudeMeters>318.399993896484375</AltitudeMeters>
            <DistanceMeters>NAN</DistanceMeters>
          </Trackpoint>
          <Trackpoint>
            <Time>2022-09-23T09:27:31.000Z</Time>
            <Position>
              <LatitudeDegrees>49.53784427605569362640380859375</LatitudeDegrees>
              <LongitudeDegrees>20.65814861096441745758056640625</LongitudeDegrees>
            </Position>
            <AltitudeMeters>318.399993896484375</AltitudeMeters>
            <DistanceMeters>NAN</DistanceMeters>
          </Trackpoint>
          <Trackpoint>
            <Time>2022-09-23T09:27:32.000Z</Time>
            <Position>
              <LatitudeDegrees>49.53788928687572479248046875</LatitudeDegrees>
              <LongitudeDegrees>20.65814316272735595703125</LongitudeDegrees>
            </Position>
            <AltitudeMeters>318.20001220703125</AltitudeMeters>
            <DistanceMeters>NAN</DistanceMeters>
          </Trackpoint>
          <Trackpoint>
            <Time>2022-09-23T09:27:37.000Z</Time>
            <Position>
              <LatitudeDegrees>49.538112245500087738037109375</LatitudeDegrees>
              <LongitudeDegrees>20.65808105282485485076904296875</LongitudeDegrees>
            </Position>
            <AltitudeMeters>318</AltitudeMeters>
            <DistanceMeters>NAN</DistanceMeters>
          </Trackpoint>
          <Trackpoint>
            <Time>2022-09-23T09:27:40.000Z</Time>
            <Position>
              <LatitudeDegrees>49.53825465403497219085693359375</LatitudeDegrees>
              <LongitudeDegrees>20.65804651938378810882568359375</LongitudeDegrees>
            </Position>
            <AltitudeMeters>318</AltitudeMeters>
            <DistanceMeters>NAN</DistanceMeters>
          </Trackpoint>
          <Trackpoint>
            <Time>2022-09-23T09:27:44.000Z</Time>
            <Position>
              <LatitudeDegrees>49.53842095099389553070068359375</LatitudeDegrees>
              <LongitudeDegrees>20.65798700787127017974853515625</LongitudeDegrees>
            </Position>
            <AltitudeMeters>317.79998779296875</AltitudeMeters>
            <DistanceMeters>NAN</DistanceMeters>
          </Trackpoint>
          <Trackpoint>
            <Time>2022-09-23T09:27:47.000Z</Time>
            <Position>
              <LatitudeDegrees>49.5385355316102504730224609375</LatitudeDegrees>
              <LongitudeDegrees>20.65793956629931926727294921875</LongitudeDegrees>
            </Position>
            <AltitudeMeters>317.600006103515625</AltitudeMeters>
            <DistanceMeters>NAN</DistanceMeters>
          </Trackpoint>
          <Trackpoint>
            <Time>2022-09-23T09:27:53.000Z</Time>
            <Position>
              <LatitudeDegrees>49.538821019232273101806640625</LatitudeDegrees>
              <LongitudeDegrees>20.6578016839921474456787109375</LongitudeDegrees>
            </Position>
            <AltitudeMeters>318.399993896484375</AltitudeMeters>
            <DistanceMeters>NAN</DistanceMeters>
          </Trackpoint>
          <Trackpoint>
            <Time>2022-09-23T09:27:56.000Z</Time>
            <Position>
              <LatitudeDegrees>49.5389438979327678680419921875</LatitudeDegrees>
              <LongitudeDegrees>20.65774527378380298614501953125</LongitudeDegrees>
            </Position>
            <AltitudeMeters>319</AltitudeMeters>
            <DistanceMeters>NAN</DistanceMeters>
          </Trackpoint>
          <Trackpoint>
            <Time>2022-09-23T09:27:59.000Z</Time>
            <Position>
              <LatitudeDegrees>49.53908312134444713592529296875</LatitudeDegrees>
              <LongitudeDegrees>20.6576858460903167724609375</LongitudeDegrees>
            </Position>
            <AltitudeMeters>319</AltitudeMeters>
            <DistanceMeters>NAN</DistanceMeters>
          </Trackpoint>
          <Trackpoint>
            <Time>2022-09-23T09:28:00.000Z</Time>
            <Position>
              <LatitudeDegrees>49.53912519849836826324462890625</LatitudeDegrees>
              <LongitudeDegrees>20.65766832791268825531005859375</LongitudeDegrees>
            </Position>
            <AltitudeMeters>319</AltitudeMeters>
            <DistanceMeters>NAN</DistanceMeters>
          </Trackpoint>
          <Trackpoint>
            <Time>2022-09-23T09:28:05.000Z</Time>
            <Position>
              <LatitudeDegrees>49.53933005221188068389892578125</LatitudeDegrees>
              <LongitudeDegrees>20.6575810723006725311279296875</LongitudeDegrees>
            </Position>
            <AltitudeMeters>318.79998779296875</AltitudeMeters>
            <DistanceMeters>NAN</DistanceMeters>
          </Trackpoint>
          <Trackpoint>
            <Time>2022-09-23T09:28:07.000Z</Time>
            <Position>
              <LatitudeDegrees>49.5394052378833293914794921875</LatitudeDegrees>
              <LongitudeDegrees>20.65754762850701808929443359375</LongitudeDegrees>
            </Position>
            <AltitudeMeters>318.600006103515625</AltitudeMeters>
            <DistanceMeters>NAN</DistanceMeters>
          </Trackpoint>
          <Trackpoint>
            <Time>2022-09-23T09:28:14.000Z</Time>
            <Position>
              <LatitudeDegrees>49.53966449014842510223388671875</LatitudeDegrees>
              <LongitudeDegrees>20.657403878867626190185546875</LongitudeDegrees>
            </Position>
            <AltitudeMeters>318.399993896484375</AltitudeMeters>
            <DistanceMeters>NAN</DistanceMeters>
          </Trackpoint>
          <Trackpoint>
            <Time>2022-09-23T09:28:22.000Z</Time>
            <Position>
              <LatitudeDegrees>49.53990823589265346527099609375</LatitudeDegrees>
              <LongitudeDegrees>20.65723230130970478057861328125</LongitudeDegrees>
            </Position>
            <AltitudeMeters>317.600006103515625</AltitudeMeters>
            <DistanceMeters>NAN</DistanceMeters>
          </Trackpoint>
          <Trackpoint>
            <Time>2022-09-23T09:28:23.000Z</Time>
            <Position>
              <LatitudeDegrees>49.53993983566761016845703125</LatitudeDegrees>
              <LongitudeDegrees>20.6571911461651325225830078125</LongitudeDegrees>
            </Position>
            <AltitudeMeters>317.399993896484375</AltitudeMeters>
            <DistanceMeters>NAN</DistanceMeters>
          </Trackpoint>
          <Trackpoint>
            <Time>2022-09-23T09:28:26.000Z</Time>
            <Position>
              <LatitudeDegrees>49.5399859361350536346435546875</LatitudeDegrees>
              <LongitudeDegrees>20.65705929882824420928955078125</LongitudeDegrees>
            </Position>
            <AltitudeMeters>317.399993896484375</AltitudeMeters>
            <DistanceMeters>NAN</DistanceMeters>
          </Trackpoint>
          <Trackpoint>
            <Time>2022-09-23T09:28:30.000Z</Time>
            <Position>
              <LatitudeDegrees>49.540119878947734832763671875</LatitudeDegrees>
              <LongitudeDegrees>20.65693910233676433563232421875</LongitudeDegrees>
            </Position>
            <AltitudeMeters>317.600006103515625</AltitudeMeters>
            <DistanceMeters>NAN</DistanceMeters>
          </Trackpoint>
          <Trackpoint>
            <Time>2022-09-23T09:28:36.000Z</Time>
            <Position>
              <LatitudeDegrees>49.54033956862986087799072265625</LatitudeDegrees>
              <LongitudeDegrees>20.65692208707332611083984375</LongitudeDegrees>
            </Position>
            <AltitudeMeters>317.600006103515625</AltitudeMeters>
            <DistanceMeters>NAN</DistanceMeters>
          </Trackpoint>
          <Trackpoint>
            <Time>2022-09-23T09:28:39.000Z</Time>
            <Position>
              <LatitudeDegrees>49.540437050163745880126953125</LatitudeDegrees>
              <LongitudeDegrees>20.6568753160536289215087890625</LongitudeDegrees>
            </Position>
            <AltitudeMeters>317.600006103515625</AltitudeMeters>
            <DistanceMeters>NAN</DistanceMeters>
          </Trackpoint>
          <Trackpoint>
            <Time>2022-09-23T09:28:43.000Z</Time>
            <Position>
              <LatitudeDegrees>49.54058029688894748687744140625</LatitudeDegrees>
              <LongitudeDegrees>20.656792335212230682373046875</LongitudeDegrees>
            </Position>
            <AltitudeMeters>317.600006103515625</AltitudeMeters>
            <DistanceMeters>NAN</DistanceMeters>
          </Trackpoint>
          <Trackpoint>
            <Time>2022-09-23T09:28:45.000Z</Time>
            <Position>
              <LatitudeDegrees>49.54066897742450237274169921875</LatitudeDegrees>
              <LongitudeDegrees>20.65673592500388622283935546875</LongitudeDegrees>
            </Position>
            <AltitudeMeters>317.399993896484375</AltitudeMeters>
            <DistanceMeters>NAN</DistanceMeters>
          </Trackpoint>
          <Trackpoint>
            <Time>2022-09-23T09:28:49.000Z</Time>
            <Position>
              <LatitudeDegrees>49.54085270874202251434326171875</LatitudeDegrees>
              <LongitudeDegrees>20.6566533632576465606689453125</LongitudeDegrees>
            </Position>
            <AltitudeMeters>317.399993896484375</AltitudeMeters>
            <DistanceMeters>NAN</DistanceMeters>
          </Trackpoint>
          <Trackpoint>
            <Time>2022-09-23T09:28:54.000Z</Time>
            <Position>
              <LatitudeDegrees>49.5410789363086223602294921875</LatitudeDegrees>
              <LongitudeDegrees>20.656553618609905242919921875</LongitudeDegrees>
            </Position>
            <AltitudeMeters>317.399993896484375</AltitudeMeters>
            <DistanceMeters>NAN</DistanceMeters>
          </Trackpoint>
          <Trackpoint>
            <Time>2022-09-23T09:28:56.000Z</Time>
            <Position>
              <LatitudeDegrees>49.541160576045513153076171875</LatitudeDegrees>
              <LongitudeDegrees>20.6565172411501407623291015625</LongitudeDegrees>
            </Position>
            <AltitudeMeters>317.399993896484375</AltitudeMeters>
            <DistanceMeters>NAN</DistanceMeters>
          </Trackpoint>
          <Trackpoint>
            <Time>2022-09-23T09:28:58.000Z</Time>
            <Position>
              <LatitudeDegrees>49.54123961739242076873779296875</LatitudeDegrees>
              <LongitudeDegrees>20.65648128278553485870361328125</LongitudeDegrees>
            </Position>
            <AltitudeMeters>317.20001220703125</AltitudeMeters>
            <DistanceMeters>NAN</DistanceMeters>
          </Trackpoint>
          <Trackpoint>
            <Time>2022-09-23T09:29:04.000Z</Time>
            <Position>
              <LatitudeDegrees>49.54147933982312679290771484375</LatitudeDegrees>
              <LongitudeDegrees>20.65634717233479022979736328125</LongitudeDegrees>
            </Position>
            <AltitudeMeters>317.20001220703125</AltitudeMeters>
            <DistanceMeters>NAN</DistanceMeters>
          </Trackpoint>
          <Trackpoint>
            <Time>2022-09-23T09:29:07.000Z</Time>
            <Position>
              <LatitudeDegrees>49.5416103489696979522705078125</LatitudeDegrees>
              <LongitudeDegrees>20.65627123229205608367919921875</LongitudeDegrees>
            </Position>
            <AltitudeMeters>316.79998779296875</AltitudeMeters>
            <DistanceMeters>NAN</DistanceMeters>
          </Trackpoint>
          <Trackpoint>
            <Time>2022-09-23T09:29:13.000Z</Time>
            <Position>
              <LatitudeDegrees>49.54182869754731655120849609375</LatitudeDegrees>
              <LongitudeDegrees>20.65613762475550174713134765625</LongitudeDegrees>
            </Position>
            <AltitudeMeters>316.79998779296875</AltitudeMeters>
            <DistanceMeters>NAN</DistanceMeters>
          </Trackpoint>
          <Trackpoint>
            <Time>2022-09-23T09:29:14.000Z</Time>
            <Position>
              <LatitudeDegrees>49.54186658374965190887451171875</LatitudeDegrees>
              <LongitudeDegrees>20.656107701361179351806640625</LongitudeDegrees>
            </Position>
            <AltitudeMeters>316.79998779296875</AltitudeMeters>
            <DistanceMeters>NAN</DistanceMeters>
          </Trackpoint>
          <Trackpoint>
            <Time>2022-09-23T09:29:18.000Z</Time>
            <Position>
              <LatitudeDegrees>49.54200371168553829193115234375</LatitudeDegrees>
              <LongitudeDegrees>20.655978284776210784912109375</LongitudeDegrees>
            </Position>
            <AltitudeMeters>316.600006103515625</AltitudeMeters>
            <DistanceMeters>NAN</DistanceMeters>
          </Trackpoint>
          <Trackpoint>
            <Time>2022-09-23T09:29:19.000Z</Time>
            <Position>
              <LatitudeDegrees>49.54202525317668914794921875</LatitudeDegrees>
              <LongitudeDegrees>20.6559305079281330108642578125</LongitudeDegrees>
            </Position>
            <AltitudeMeters>316.600006103515625</AltitudeMeters>
            <DistanceMeters>NAN</DistanceMeters>
          </Trackpoint>
          <Trackpoint>
            <Time>2022-09-23T09:29:23.000Z</Time>
            <Position>
              <LatitudeDegrees>49.54206288792192935943603515625</LatitudeDegrees>
              <LongitudeDegrees>20.6557001732289791107177734375</LongitudeDegrees>
            </Position>
            <AltitudeMeters>316.79998779296875</AltitudeMeters>
            <DistanceMeters>NAN</DistanceMeters>
          </Trackpoint>
          <Trackpoint>
            <Time>2022-09-23T09:29:26.000Z</Time>
            <Position>
              <LatitudeDegrees>49.54207261092960834503173828125</LatitudeDegrees>
              <LongitudeDegrees>20.6555157713592052459716796875</LongitudeDegrees>
            </Position>
            <AltitudeMeters>317.20001220703125</AltitudeMeters>
            <DistanceMeters>NAN</DistanceMeters>
          </Trackpoint>
          <Trackpoint>
            <Time>2022-09-23T09:29:29.000Z</Time>
            <Position>
              <LatitudeDegrees>49.5420545898377895355224609375</LatitudeDegrees>
              <LongitudeDegrees>20.65535609610378742218017578125</LongitudeDegrees>
            </Position>
            <AltitudeMeters>317.20001220703125</AltitudeMeters>
            <DistanceMeters>NAN</DistanceMeters>
          </Trackpoint>
          <Trackpoint>
            <Time>2022-09-23T09:29:36.000Z</Time>
            <Position>
              <LatitudeDegrees>49.5420207269489765167236328125</LatitudeDegrees>
              <LongitudeDegrees>20.6550373323261737823486328125</LongitudeDegrees>
            </Position>
            <AltitudeMeters>317.79998779296875</AltitudeMeters>
            <DistanceMeters>NAN</DistanceMeters>
          </Trackpoint>
          <Trackpoint>
            <Time>2022-09-23T09:29:38.000Z</Time>
            <Position>
              <LatitudeDegrees>49.54204997979104518890380859375</LatitudeDegrees>
              <LongitudeDegrees>20.65501897595822811126708984375</LongitudeDegrees>
            </Position>
            <AltitudeMeters>318.20001220703125</AltitudeMeters>
            <DistanceMeters>NAN</DistanceMeters>
          </Trackpoint>
          <Trackpoint>
            <Time>2022-09-23T09:29:39.000Z</Time>
            <Position>
              <LatitudeDegrees>49.54206406138837337493896484375</LatitudeDegrees>
              <LongitudeDegrees>20.65502467565238475799560546875</LongitudeDegrees>
            </Position>
            <AltitudeMeters>318.20001220703125</AltitudeMeters>
            <DistanceMeters>NAN</DistanceMeters>
          </Trackpoint>
          <Trackpoint>
            <Time>2022-09-23T09:29:41.000Z</Time>
            <Position>
              <LatitudeDegrees>49.54208518378436565399169921875</LatitudeDegrees>
              <LongitudeDegrees>20.65503255464136600494384765625</LongitudeDegrees>
            </Position>
            <AltitudeMeters>318.399993896484375</AltitudeMeters>
            <DistanceMeters>NAN</DistanceMeters>
          </Trackpoint>
          <Trackpoint>
            <Time>2022-09-23T09:29:44.000Z</Time>
            <Position>
              <LatitudeDegrees>49.54212457872927188873291015625</LatitudeDegrees>
              <LongitudeDegrees>20.6550088338553905487060546875</LongitudeDegrees>
            </Position>
            <AltitudeMeters>318.600006103515625</AltitudeMeters>
            <DistanceMeters>NAN</DistanceMeters>
          </Trackpoint>
          <Trackpoint>
            <Time>2022-09-23T09:29:46.000Z</Time>
            <Position>
              <LatitudeDegrees>49.5421575196087360382080078125</LatitudeDegrees>
              <LongitudeDegrees>20.655001290142536163330078125</LongitudeDegrees>
            </Position>
            <AltitudeMeters>318.79998779296875</AltitudeMeters>
            <DistanceMeters>NAN</DistanceMeters>
          </Trackpoint>
          <Trackpoint>
            <Time>2022-09-23T09:29:50.000Z</Time>
            <Position>
              <LatitudeDegrees>49.54221434891223907470703125</LatitudeDegrees>
              <LongitudeDegrees>20.65503389574587345123291015625</LongitudeDegrees>
            </Position>
            <AltitudeMeters>318.79998779296875</AltitudeMeters>
            <DistanceMeters>NAN</DistanceMeters>
          </Trackpoint>
          <Trackpoint>
            <Time>2022-09-23T09:29:56.000Z</Time>
            <Position>
              <LatitudeDegrees>49.542323984205722808837890625</LatitudeDegrees>
              <LongitudeDegrees>20.655064992606639862060546875</LongitudeDegrees>
            </Position>
            <AltitudeMeters>318.600006103515625</AltitudeMeters>
            <DistanceMeters>NAN</DistanceMeters>
          </Trackpoint>
          <Trackpoint>
            <Time>2022-09-23T09:29:57.000Z</Time>
            <Position>
              <LatitudeDegrees>49.54233580268919467926025390625</LatitudeDegrees>
              <LongitudeDegrees>20.6550772301852703094482421875</LongitudeDegrees>
            </Position>
            <AltitudeMeters>318.600006103515625</AltitudeMeters>
            <DistanceMeters>NAN</DistanceMeters>
          </Trackpoint>
          <Trackpoint>
            <Time>2022-09-23T09:30:03.000Z</Time>
            <Position>
              <LatitudeDegrees>49.54248533584177494049072265625</LatitudeDegrees>
              <LongitudeDegrees>20.65513045527040958404541015625</LongitudeDegrees>
            </Position>
            <AltitudeMeters>317.79998779296875</AltitudeMeters>
            <DistanceMeters>NAN</DistanceMeters>
          </Trackpoint>
          <Trackpoint>
            <Time>2022-09-23T09:30:08.000Z</Time>
            <Position>
              <LatitudeDegrees>49.54256982542574405670166015625</LatitudeDegrees>
              <LongitudeDegrees>20.6551302038133144378662109375</LongitudeDegrees>
            </Position>
            <AltitudeMeters>317.600006103515625</AltitudeMeters>
            <DistanceMeters>NAN</DistanceMeters>
          </Trackpoint>
          <Trackpoint>
            <Time>2022-09-23T09:30:10.000Z</Time>
            <Position>
              <LatitudeDegrees>49.54256982542574405670166015625</LatitudeDegrees>
              <LongitudeDegrees>20.6551302038133144378662109375</LongitudeDegrees>
            </Position>
            <AltitudeMeters>317.600006103515625</AltitudeMeters>
            <DistanceMeters>NAN</DistanceMeters>
          </Trackpoint>
          <Trackpoint>
            <Time>2022-09-23T09:30:14.000Z</Time>
            <Position>
              <LatitudeDegrees>49.54256982542574405670166015625</LatitudeDegrees>
              <LongitudeDegrees>20.6551302038133144378662109375</LongitudeDegrees>
            </Position>
            <AltitudeMeters>317.600006103515625</AltitudeMeters>
            <DistanceMeters>NAN</DistanceMeters>
          </Trackpoint>
          <Trackpoint>
            <Time>2022-09-23T09:30:21.000Z</Time>
            <Position>
              <LatitudeDegrees>49.54256982542574405670166015625</LatitudeDegrees>
              <LongitudeDegrees>20.6551302038133144378662109375</LongitudeDegrees>
            </Position>
            <AltitudeMeters>317.600006103515625</AltitudeMeters>
            <DistanceMeters>NAN</DistanceMeters>
          </Trackpoint>
          <Trackpoint>
            <Time>2022-09-23T09:30:23.000Z</Time>
            <Position>
              <LatitudeDegrees>49.54256982542574405670166015625</LatitudeDegrees>
              <LongitudeDegrees>20.6551302038133144378662109375</LongitudeDegrees>
            </Position>
            <AltitudeMeters>317.600006103515625</AltitudeMeters>
            <DistanceMeters>NAN</DistanceMeters>
          </Trackpoint>
          <Trackpoint>
            <Time>2022-09-23T09:30:26.000Z</Time>
            <Position>
              <LatitudeDegrees>49.54256982542574405670166015625</LatitudeDegrees>
              <LongitudeDegrees>20.6551302038133144378662109375</LongitudeDegrees>
            </Position>
            <AltitudeMeters>317.600006103515625</AltitudeMeters>
            <DistanceMeters>NAN</DistanceMeters>
          </Trackpoint>
          <Trackpoint>
            <Time>2022-09-23T09:30:31.000Z</Time>
            <Position>
              <LatitudeDegrees>49.54256982542574405670166015625</LatitudeDegrees>
              <LongitudeDegrees>20.6551302038133144378662109375</LongitudeDegrees>
            </Position>
            <AltitudeMeters>317.399993896484375</AltitudeMeters>
            <DistanceMeters>NAN</DistanceMeters>
          </Trackpoint>
          <Trackpoint>
            <Time>2022-09-23T09:30:38.000Z</Time>
            <Position>
              <LatitudeDegrees>49.54256982542574405670166015625</LatitudeDegrees>
              <LongitudeDegrees>20.6551302038133144378662109375</LongitudeDegrees>
            </Position>
            <AltitudeMeters>317.399993896484375</AltitudeMeters>
            <DistanceMeters>NAN</DistanceMeters>
          </Trackpoint>
          <Trackpoint>
            <Time>2022-09-23T09:30:41.000Z</Time>
            <Position>
              <LatitudeDegrees>49.54256982542574405670166015625</LatitudeDegrees>
              <LongitudeDegrees>20.6551302038133144378662109375</LongitudeDegrees>
            </Position>
            <AltitudeMeters>317.399993896484375</AltitudeMeters>
            <DistanceMeters>NAN</DistanceMeters>
          </Trackpoint>
          <Trackpoint>
            <Time>2022-09-23T09:30:45.000Z</Time>
            <Position>
              <LatitudeDegrees>49.54256982542574405670166015625</LatitudeDegrees>
              <LongitudeDegrees>20.6551302038133144378662109375</LongitudeDegrees>
            </Position>
            <AltitudeMeters>317.399993896484375</AltitudeMeters>
            <DistanceMeters>NAN</DistanceMeters>
          </Trackpoint>
          <Trackpoint>
            <Time>2022-09-23T09:30:49.000Z</Time>
            <Position>
              <LatitudeDegrees>49.54256982542574405670166015625</LatitudeDegrees>
              <LongitudeDegrees>20.6551302038133144378662109375</LongitudeDegrees>
            </Position>
            <AltitudeMeters>317.399993896484375</AltitudeMeters>
            <DistanceMeters>NAN</DistanceMeters>
          </Trackpoint>
          <Trackpoint>
            <Time>2022-09-23T09:30:56.000Z</Time>
            <Position>
              <LatitudeDegrees>49.54256982542574405670166015625</LatitudeDegrees>
              <LongitudeDegrees>20.6551302038133144378662109375</LongitudeDegrees>
            </Position>
            <AltitudeMeters>317.20001220703125</AltitudeMeters>
            <DistanceMeters>NAN</DistanceMeters>
          </Trackpoint>
          <Trackpoint>
            <Time>2022-09-23T09:31:02.000Z</Time>
            <Position>
              <LatitudeDegrees>49.54256982542574405670166015625</LatitudeDegrees>
              <LongitudeDegrees>20.6551302038133144378662109375</LongitudeDegrees>
            </Position>
            <AltitudeMeters>317.20001220703125</AltitudeMeters>
            <DistanceMeters>NAN</DistanceMeters>
          </Trackpoint>
          <Trackpoint>
            <Time>2022-09-23T09:31:09.000Z</Time>
            <Position>
              <LatitudeDegrees>49.54256982542574405670166015625</LatitudeDegrees>
              <LongitudeDegrees>20.6551302038133144378662109375</LongitudeDegrees>
            </Position>
            <AltitudeMeters>317.20001220703125</AltitudeMeters>
            <DistanceMeters>NAN</DistanceMeters>
          </Trackpoint>
          <Trackpoint>
            <Time>2022-09-23T09:31:20.000Z</Time>
            <Position>
              <LatitudeDegrees>49.5425709150731563568115234375</LatitudeDegrees>
              <LongitudeDegrees>20.65512894652783870697021484375</LongitudeDegrees>
            </Position>
            <AltitudeMeters>317</AltitudeMeters>
            <DistanceMeters>NAN</DistanceMeters>
          </Trackpoint>
          <Trackpoint>
            <Time>2022-09-23T09:31:22.000Z</Time>
            <Position>
              <LatitudeDegrees>49.54259363003075122833251953125</LatitudeDegrees>
              <LongitudeDegrees>20.65510296262800693511962890625</LongitudeDegrees>
            </Position>
            <AltitudeMeters>317</AltitudeMeters>
            <DistanceMeters>NAN</DistanceMeters>
          </Trackpoint>
          <Trackpoint>
            <Time>2022-09-23T09:31:23.000Z</Time>
            <Position>
              <LatitudeDegrees>49.54262061975896358489990234375</LatitudeDegrees>
              <LongitudeDegrees>20.655091144144535064697265625</LongitudeDegrees>
            </Position>
            <AltitudeMeters>317</AltitudeMeters>
            <DistanceMeters>NAN</DistanceMeters>
          </Trackpoint>
          <Trackpoint>
            <Time>2022-09-23T09:31:26.000Z</Time>
            <Position>
              <LatitudeDegrees>49.54270510934293270111083984375</LatitudeDegrees>
              <LongitudeDegrees>20.655066333711147308349609375</LongitudeDegrees>
            </Position>
            <AltitudeMeters>316.79998779296875</AltitudeMeters>
            <DistanceMeters>NAN</DistanceMeters>
          </Trackpoint>
          <Trackpoint>
            <Time>2022-09-23T09:31:28.000Z</Time>
            <Position>
              <LatitudeDegrees>49.5427921973168849945068359375</LatitudeDegrees>
              <LongitudeDegrees>20.6550618074834346771240234375</LongitudeDegrees>
            </Position>
            <AltitudeMeters>316.600006103515625</AltitudeMeters>
            <DistanceMeters>NAN</DistanceMeters>
          </Trackpoint>
          <Trackpoint>
            <Time>2022-09-23T09:31:31.000Z</Time>
            <Position>
              <LatitudeDegrees>49.54291901551187038421630859375</LatitudeDegrees>
              <LongitudeDegrees>20.65505392849445343017578125</LongitudeDegrees>
            </Position>
            <AltitudeMeters>316.399993896484375</AltitudeMeters>
            <DistanceMeters>NAN</DistanceMeters>
          </Trackpoint>
          <Trackpoint>
            <Time>2022-09-23T09:31:36.000Z</Time>
            <Position>
              <LatitudeDegrees>49.54311867244541645050048828125</LatitudeDegrees>
              <LongitudeDegrees>20.65504177473485469818115234375</LongitudeDegrees>
            </Position>
            <AltitudeMeters>316.20001220703125</AltitudeMeters>
            <DistanceMeters>NAN</DistanceMeters>
          </Trackpoint>
          <Trackpoint>
            <Time>2022-09-23T09:31:43.000Z</Time>
            <Position>
              <LatitudeDegrees>49.54341053031384944915771484375</LatitudeDegrees>
              <LongitudeDegrees>20.65498544834554195404052734375</LongitudeDegrees>
            </Position>
            <AltitudeMeters>316.399993896484375</AltitudeMeters>
            <DistanceMeters>NAN</DistanceMeters>
          </Trackpoint>
          <Trackpoint>
            <Time>2022-09-23T09:31:45.000Z</Time>
            <Position>
              <LatitudeDegrees>49.54347942955791950225830078125</LatitudeDegrees>
              <LongitudeDegrees>20.65496600233018398284912109375</LongitudeDegrees>
            </Position>
            <AltitudeMeters>316.20001220703125</AltitudeMeters>
            <DistanceMeters>NAN</DistanceMeters>
          </Trackpoint>
          <Trackpoint>
            <Time>2022-09-23T09:31:55.000Z</Time>
            <Position>
              <LatitudeDegrees>49.54387002624571323394775390625</LatitudeDegrees>
              <LongitudeDegrees>20.65475611947476863861083984375</LongitudeDegrees>
            </Position>
            <AltitudeMeters>315.600006103515625</AltitudeMeters>
            <DistanceMeters>NAN</DistanceMeters>
          </Trackpoint>
          <Trackpoint>
            <Time>2022-09-23T09:31:58.000Z</Time>
            <Position>
              <LatitudeDegrees>49.5439656637609004974365234375</LatitudeDegrees>
              <LongitudeDegrees>20.65469644032418727874755859375</LongitudeDegrees>
            </Position>
            <AltitudeMeters>315.600006103515625</AltitudeMeters>
            <DistanceMeters>NAN</DistanceMeters>
          </Trackpoint>
          <Trackpoint>
            <Time>2022-09-23T09:32:03.000Z</Time>
            <Position>
              <LatitudeDegrees>49.54411393962800502777099609375</LatitudeDegrees>
              <LongitudeDegrees>20.6546182371675968170166015625</LongitudeDegrees>
            </Position>
            <AltitudeMeters>315.79998779296875</AltitudeMeters>
            <DistanceMeters>NAN</DistanceMeters>
          </Trackpoint>
          <Trackpoint>
            <Time>2022-09-23T09:32:08.000Z</Time>
            <Position>
              <LatitudeDegrees>49.5442883670330047607421875</LatitudeDegrees>
              <LongitudeDegrees>20.65453651361167430877685546875</LongitudeDegrees>
            </Position>
            <AltitudeMeters>315.399993896484375</AltitudeMeters>
            <DistanceMeters>NAN</DistanceMeters>
          </Trackpoint>
          <Trackpoint>
            <Time>2022-09-23T09:32:09.000Z</Time>
            <Position>
              <LatitudeDegrees>49.54433974809944629669189453125</LatitudeDegrees>
              <LongitudeDegrees>20.65451212227344512939453125</LongitudeDegrees>
            </Position>
            <AltitudeMeters>315.399993896484375</AltitudeMeters>
            <DistanceMeters>NAN</DistanceMeters>
          </Trackpoint>
          <Trackpoint>
            <Time>2022-09-23T09:32:14.000Z</Time>
            <Position>
              <LatitudeDegrees>49.5445363037288188934326171875</LatitudeDegrees>
              <LongitudeDegrees>20.65444045700132846832275390625</LongitudeDegrees>
            </Position>
            <AltitudeMeters>315.20001220703125</AltitudeMeters>
            <DistanceMeters>NAN</DistanceMeters>
          </Trackpoint>
          <Trackpoint>
            <Time>2022-09-23T09:32:18.000Z</Time>
            <Position>
              <LatitudeDegrees>49.54468960873782634735107421875</LatitudeDegrees>
              <LongitudeDegrees>20.6543719768524169921875</LongitudeDegrees>
            </Position>
            <AltitudeMeters>315.20001220703125</AltitudeMeters>
            <DistanceMeters>NAN</DistanceMeters>
          </Trackpoint>
          <Trackpoint>
            <Time>2022-09-23T09:32:19.000Z</Time>
            <Position>
              <LatitudeDegrees>49.544730596244335174560546875</LatitudeDegrees>
              <LongitudeDegrees>20.65435026772320270538330078125</LongitudeDegrees>
            </Position>
            <AltitudeMeters>315.20001220703125</AltitudeMeters>
            <DistanceMeters>NAN</DistanceMeters>
          </Trackpoint>
          <Trackpoint>
            <Time>2022-09-23T09:32:26.000Z</Time>
            <Position>
              <LatitudeDegrees>49.5449577458202838897705078125</LatitudeDegrees>
              <LongitudeDegrees>20.654281117022037506103515625</LongitudeDegrees>
            </Position>
            <AltitudeMeters>315</AltitudeMeters>
            <DistanceMeters>NAN</DistanceMeters>
          </Trackpoint>
          <Trackpoint>
            <Time>2022-09-23T09:32:28.000Z</Time>
            <Position>
              <LatitudeDegrees>49.5450125634670257568359375</LatitudeDegrees>
              <LongitudeDegrees>20.6543215177953243255615234375</LongitudeDegrees>
            </Position>
            <AltitudeMeters>315</AltitudeMeters>
            <DistanceMeters>NAN</DistanceMeters>
          </Trackpoint>
          <Trackpoint>
            <Time>2022-09-23T09:32:32.000Z</Time>
            <Position>
              <LatitudeDegrees>49.545153714716434478759765625</LatitudeDegrees>
              <LongitudeDegrees>20.654355548322200775146484375</LongitudeDegrees>
            </Position>
            <AltitudeMeters>314.79998779296875</AltitudeMeters>
            <DistanceMeters>NAN</DistanceMeters>
          </Trackpoint>
          <Trackpoint>
            <Time>2022-09-23T09:32:36.000Z</Time>
            <Position>
              <LatitudeDegrees>49.5453158207237720489501953125</LatitudeDegrees>
              <LongitudeDegrees>20.6543101184070110321044921875</LongitudeDegrees>
            </Position>
            <AltitudeMeters>314.20001220703125</AltitudeMeters>
            <DistanceMeters>NAN</DistanceMeters>
          </Trackpoint>
          <Trackpoint>
            <Time>2022-09-23T09:32:38.000Z</Time>
            <Position>
              <LatitudeDegrees>49.54541129060089588165283203125</LatitudeDegrees>
              <LongitudeDegrees>20.65426561050117015838623046875</LongitudeDegrees>
            </Position>
            <AltitudeMeters>313.79998779296875</AltitudeMeters>
            <DistanceMeters>NAN</DistanceMeters>
          </Trackpoint>
          <Trackpoint>
            <Time>2022-09-23T09:32:44.000Z</Time>
            <Position>
              <LatitudeDegrees>49.54569761641323566436767578125</LatitudeDegrees>
              <LongitudeDegrees>20.65412345342338085174560546875</LongitudeDegrees>
            </Position>
            <AltitudeMeters>313.20001220703125</AltitudeMeters>
            <DistanceMeters>NAN</DistanceMeters>
          </Trackpoint>
          <Trackpoint>
            <Time>2022-09-23T09:32:45.000Z</Time>
            <Position>
              <LatitudeDegrees>49.545734412968158721923828125</LatitudeDegrees>
              <LongitudeDegrees>20.654106438159942626953125</LongitudeDegrees>
            </Position>
            <AltitudeMeters>313.20001220703125</AltitudeMeters>
            <DistanceMeters>NAN</DistanceMeters>
          </Trackpoint>
          <Trackpoint>
            <Time>2022-09-23T09:32:46.000Z</Time>
            <Position>
              <LatitudeDegrees>49.54578914679586887359619140625</LatitudeDegrees>
              <LongitudeDegrees>20.6540831364691257476806640625</LongitudeDegrees>
            </Position>
            <AltitudeMeters>313</AltitudeMeters>
            <DistanceMeters>NAN</DistanceMeters>
          </Trackpoint>
          <Trackpoint>
            <Time>2022-09-23T09:32:54.000Z</Time>
            <Position>
              <LatitudeDegrees>49.54612274654209613800048828125</LatitudeDegrees>
              <LongitudeDegrees>20.6539178453385829925537109375</LongitudeDegrees>
            </Position>
            <AltitudeMeters>312.79998779296875</AltitudeMeters>
            <DistanceMeters>NAN</DistanceMeters>
          </Trackpoint>
          <Trackpoint>
            <Time>2022-09-23T09:32:59.000Z</Time>
            <Position>
              <LatitudeDegrees>49.54630446620285511016845703125</LatitudeDegrees>
              <LongitudeDegrees>20.65383276902139186859130859375</LongitudeDegrees>
            </Position>
            <AltitudeMeters>313</AltitudeMeters>
            <DistanceMeters>NAN</DistanceMeters>
          </Trackpoint>
          <Trackpoint>
            <Time>2022-09-23T09:33:05.000Z</Time>
            <Position>
              <LatitudeDegrees>49.5465529896318912506103515625</LatitudeDegrees>
              <LongitudeDegrees>20.6537049449980258941650390625</LongitudeDegrees>
            </Position>
            <AltitudeMeters>313</AltitudeMeters>
            <DistanceMeters>NAN</DistanceMeters>
          </Trackpoint>
          <Trackpoint>
            <Time>2022-09-23T09:33:09.000Z</Time>
            <Position>
              <LatitudeDegrees>49.54672314226627349853515625</LatitudeDegrees>
              <LongitudeDegrees>20.653644092381000518798828125</LongitudeDegrees>
            </Position>
            <AltitudeMeters>313.20001220703125</AltitudeMeters>
            <DistanceMeters>NAN</DistanceMeters>
          </Trackpoint>
          <Trackpoint>
            <Time>2022-09-23T09:33:11.000Z</Time>
            <Position>
              <LatitudeDegrees>49.5468057878315448760986328125</LatitudeDegrees>
              <LongitudeDegrees>20.65361685119569301605224609375</LongitudeDegrees>
            </Position>
            <AltitudeMeters>313.399993896484375</AltitudeMeters>
            <DistanceMeters>NAN</DistanceMeters>
          </Trackpoint>
          <Trackpoint>
            <Time>2022-09-23T09:33:13.000Z</Time>
            <Position>
              <LatitudeDegrees>49.54688139259815216064453125</LatitudeDegrees>
              <LongitudeDegrees>20.65357779152691364288330078125</LongitudeDegrees>
            </Position>
            <AltitudeMeters>313.399993896484375</AltitudeMeters>
            <DistanceMeters>NAN</DistanceMeters>
          </Trackpoint>
          <Trackpoint>
            <Time>2022-09-23T09:33:14.000Z</Time>
            <Position>
              <LatitudeDegrees>49.5469207875430583953857421875</LatitudeDegrees>
              <LongitudeDegrees>20.65356253646314144134521484375</LongitudeDegrees>
            </Position>
            <AltitudeMeters>313.399993896484375</AltitudeMeters>
            <DistanceMeters>NAN</DistanceMeters>
          </Trackpoint>
          <Trackpoint>
            <Time>2022-09-23T09:33:20.000Z</Time>
            <Position>
              <LatitudeDegrees>49.547148607671260833740234375</LatitudeDegrees>
              <LongitudeDegrees>20.6534846685826778411865234375</LongitudeDegrees>
            </Position>
            <AltitudeMeters>313.20001220703125</AltitudeMeters>
            <DistanceMeters>NAN</DistanceMeters>
          </Trackpoint>
          <Trackpoint>
            <Time>2022-09-23T09:33:26.000Z</Time>
            <Position>
              <LatitudeDegrees>49.547375254333019256591796875</LatitudeDegrees>
              <LongitudeDegrees>20.65345801413059234619140625</LongitudeDegrees>
            </Position>
            <AltitudeMeters>313.20001220703125</AltitudeMeters>
            <DistanceMeters>NAN</DistanceMeters>
          </Trackpoint>
          <Trackpoint>
            <Time>2022-09-23T09:33:36.000Z</Time>
            <Position>
              <LatitudeDegrees>49.54778772778809070587158203125</LatitudeDegrees>
              <LongitudeDegrees>20.6534399092197418212890625</LongitudeDegrees>
            </Position>
            <AltitudeMeters>312.600006103515625</AltitudeMeters>
            <DistanceMeters>NAN</DistanceMeters>
          </Trackpoint>
          <Trackpoint>
            <Time>2022-09-23T09:33:40.000Z</Time>
            <Position>
              <LatitudeDegrees>49.5479871332645416259765625</LatitudeDegrees>
              <LongitudeDegrees>20.6534424237906932830810546875</LongitudeDegrees>
            </Position>
            <AltitudeMeters>312.399993896484375</AltitudeMeters>
            <DistanceMeters>NAN</DistanceMeters>
          </Trackpoint>
          <Trackpoint>
            <Time>2022-09-23T09:33:42.000Z</Time>
            <Position>
              <LatitudeDegrees>49.5481026358902454376220703125</LatitudeDegrees>
              <LongitudeDegrees>20.65345323644578456878662109375</LongitudeDegrees>
            </Position>
            <AltitudeMeters>312.20001220703125</AltitudeMeters>
            <DistanceMeters>NAN</DistanceMeters>
          </Trackpoint>
          <Trackpoint>
            <Time>2022-09-23T09:33:44.000Z</Time>
            <Position>
              <LatitudeDegrees>49.54819592647254467010498046875</LatitudeDegrees>
              <LongitudeDegrees>20.6534739397466182708740234375</LongitudeDegrees>
            </Position>
            <AltitudeMeters>312</AltitudeMeters>
            <DistanceMeters>NAN</DistanceMeters>
          </Trackpoint>
          <Trackpoint>
            <Time>2022-09-23T09:33:49.000Z</Time>
            <Position>
              <LatitudeDegrees>49.54843715764582157135009765625</LatitudeDegrees>
              <LongitudeDegrees>20.65351677127182483673095703125</LongitudeDegrees>
            </Position>
            <AltitudeMeters>311.79998779296875</AltitudeMeters>
            <DistanceMeters>NAN</DistanceMeters>
          </Trackpoint>
          <Trackpoint>
            <Time>2022-09-23T09:33:55.000Z</Time>
            <Position>
              <LatitudeDegrees>49.548707306385040283203125</LatitudeDegrees>
              <LongitudeDegrees>20.65356790088117122650146484375</LongitudeDegrees>
            </Position>
            <AltitudeMeters>312</AltitudeMeters>
            <DistanceMeters>NAN</DistanceMeters>
          </Trackpoint>
          <Trackpoint>
            <Time>2022-09-23T09:33:57.000Z</Time>
            <Position>
              <LatitudeDegrees>49.548784084618091583251953125</LatitudeDegrees>
              <LongitudeDegrees>20.6535795517265796661376953125</LongitudeDegrees>
            </Position>
            <AltitudeMeters>312</AltitudeMeters>
            <DistanceMeters>NAN</DistanceMeters>
          </Trackpoint>
          <Trackpoint>
            <Time>2022-09-23T09:34:01.000Z</Time>
            <Position>
              <LatitudeDegrees>49.5489790476858615875244140625</LatitudeDegrees>
              <LongitudeDegrees>20.65362355671823024749755859375</LongitudeDegrees>
            </Position>
            <AltitudeMeters>312.20001220703125</AltitudeMeters>
            <DistanceMeters>NAN</DistanceMeters>
          </Trackpoint>
          <Trackpoint>
            <Time>2022-09-23T09:34:03.000Z</Time>
            <Position>
              <LatitudeDegrees>49.54906865023076534271240234375</LatitudeDegrees>
              <LongitudeDegrees>20.65364970825612545013427734375</LongitudeDegrees>
            </Position>
            <AltitudeMeters>312.399993896484375</AltitudeMeters>
            <DistanceMeters>NAN</DistanceMeters>
          </Trackpoint>
          <Trackpoint>
            <Time>2022-09-23T09:34:06.000Z</Time>
            <Position>
              <LatitudeDegrees>49.54920711927115917205810546875</LatitudeDegrees>
              <LongitudeDegrees>20.653687678277492523193359375</LongitudeDegrees>
            </Position>
            <AltitudeMeters>312.79998779296875</AltitudeMeters>
            <DistanceMeters>NAN</DistanceMeters>
          </Trackpoint>
          <Trackpoint>
            <Time>2022-09-23T09:34:14.000Z</Time>
            <Position>
              <LatitudeDegrees>49.54957391135394573211669921875</LatitudeDegrees>
              <LongitudeDegrees>20.653824470937252044677734375</LongitudeDegrees>
            </Position>
            <AltitudeMeters>312.399993896484375</AltitudeMeters>
            <DistanceMeters>NAN</DistanceMeters>
          </Trackpoint>
          <Trackpoint>
            <Time>2022-09-23T09:34:15.000Z</Time>
            <Position>
              <LatitudeDegrees>49.549616910517215728759765625</LatitudeDegrees>
              <LongitudeDegrees>20.6538481079041957855224609375</LongitudeDegrees>
            </Position>
            <AltitudeMeters>312.399993896484375</AltitudeMeters>
            <DistanceMeters>NAN</DistanceMeters>
          </Trackpoint>
          <Trackpoint>
            <Time>2022-09-23T09:34:25.000Z</Time>
            <Position>
              <LatitudeDegrees>49.550047405064105987548828125</LatitudeDegrees>
              <LongitudeDegrees>20.65406830050051212310791015625</LongitudeDegrees>
            </Position>
            <AltitudeMeters>312.399993896484375</AltitudeMeters>
            <DistanceMeters>NAN</DistanceMeters>
          </Trackpoint>
          <Trackpoint>
            <Time>2022-09-23T09:34:26.000Z</Time>
            <Position>
              <LatitudeDegrees>49.55009258352220058441162109375</LatitudeDegrees>
              <LongitudeDegrees>20.65408187918365001678466796875</LongitudeDegrees>
            </Position>
            <AltitudeMeters>312.20001220703125</AltitudeMeters>
            <DistanceMeters>NAN</DistanceMeters>
          </Trackpoint>
          <Trackpoint>
            <Time>2022-09-23T09:34:36.000Z</Time>
            <Position>
              <LatitudeDegrees>49.55050061456859111785888671875</LatitudeDegrees>
              <LongitudeDegrees>20.6542145647108554840087890625</LongitudeDegrees>
            </Position>
            <AltitudeMeters>312</AltitudeMeters>
            <DistanceMeters>NAN</DistanceMeters>
          </Trackpoint>
          <Trackpoint>
            <Time>2022-09-23T09:34:40.000Z</Time>
            <Position>
              <LatitudeDegrees>49.55066473223268985748291015625</LatitudeDegrees>
              <LongitudeDegrees>20.6542749144136905670166015625</LongitudeDegrees>
            </Position>
            <AltitudeMeters>312</AltitudeMeters>
            <DistanceMeters>NAN</DistanceMeters>
          </Trackpoint>
          <Trackpoint>
            <Time>2022-09-23T09:34:43.000Z</Time>
            <Position>
              <LatitudeDegrees>49.5507801510393619537353515625</LatitudeDegrees>
              <LongitudeDegrees>20.6543399579823017120361328125</LongitudeDegrees>
            </Position>
            <AltitudeMeters>312.20001220703125</AltitudeMeters>
            <DistanceMeters>NAN</DistanceMeters>
          </Trackpoint>
          <Trackpoint>
            <Time>2022-09-23T09:34:44.000Z</Time>
            <Position>
              <LatitudeDegrees>49.55082465894520282745361328125</LatitudeDegrees>
              <LongitudeDegrees>20.65437273122370243072509765625</LongitudeDegrees>
            </Position>
            <AltitudeMeters>312.20001220703125</AltitudeMeters>
            <DistanceMeters>NAN</DistanceMeters>
          </Trackpoint>
          <Trackpoint>
            <Time>2022-09-23T09:34:47.000Z</Time>
            <Position>
              <LatitudeDegrees>49.55095357261598110198974609375</LatitudeDegrees>
              <LongitudeDegrees>20.65445839427411556243896484375</LongitudeDegrees>
            </Position>
            <AltitudeMeters>312.399993896484375</AltitudeMeters>
            <DistanceMeters>NAN</DistanceMeters>
          </Trackpoint>
          <Trackpoint>
            <Time>2022-09-23T09:34:48.000Z</Time>
            <Position>
              <LatitudeDegrees>49.5510041154921054840087890625</LatitudeDegrees>
              <LongitudeDegrees>20.6544898264110088348388671875</LongitudeDegrees>
            </Position>
            <AltitudeMeters>312.399993896484375</AltitudeMeters>
            <DistanceMeters>NAN</DistanceMeters>
          </Trackpoint>
          <Trackpoint>
            <Time>2022-09-23T09:34:52.000Z</Time>
            <Position>
              <LatitudeDegrees>49.55117384903132915496826171875</LatitudeDegrees>
              <LongitudeDegrees>20.65456333570182323455810546875</LongitudeDegrees>
            </Position>
            <AltitudeMeters>312.399993896484375</AltitudeMeters>
            <DistanceMeters>NAN</DistanceMeters>
          </Trackpoint>
          <Trackpoint>
            <Time>2022-09-23T09:34:58.000Z</Time>
            <Position>
              <LatitudeDegrees>49.55142312683165073394775390625</LatitudeDegrees>
              <LongitudeDegrees>20.65472024492919445037841796875</LongitudeDegrees>
            </Position>
            <AltitudeMeters>312</AltitudeMeters>
            <DistanceMeters>NAN</DistanceMeters>
          </Trackpoint>
          <Trackpoint>
            <Time>2022-09-23T09:35:00.000Z</Time>
            <Position>
              <LatitudeDegrees>49.55151264555752277374267578125</LatitudeDegrees>
              <LongitudeDegrees>20.65475829876959323883056640625</LongitudeDegrees>
            </Position>
            <AltitudeMeters>311.79998779296875</AltitudeMeters>
            <DistanceMeters>NAN</DistanceMeters>
          </Trackpoint>
          <Trackpoint>
            <Time>2022-09-23T09:35:08.000Z</Time>
            <Position>
              <LatitudeDegrees>49.55184507183730602264404296875</LatitudeDegrees>
              <LongitudeDegrees>20.65483088605105876922607421875</LongitudeDegrees>
            </Position>
            <AltitudeMeters>311.79998779296875</AltitudeMeters>
            <DistanceMeters>NAN</DistanceMeters>
          </Trackpoint>
          <Trackpoint>
            <Time>2022-09-23T09:35:09.000Z</Time>
            <Position>
              <LatitudeDegrees>49.55188664607703685760498046875</LatitudeDegrees>
              <LongitudeDegrees>20.65482954494655132293701171875</LongitudeDegrees>
            </Position>
            <AltitudeMeters>311.79998779296875</AltitudeMeters>
            <DistanceMeters>NAN</DistanceMeters>
          </Trackpoint>
          <Trackpoint>
            <Time>2022-09-23T09:35:16.000Z</Time>
            <Position>
              <LatitudeDegrees>49.55215134657919406890869140625</LatitudeDegrees>
              <LongitudeDegrees>20.65476701594889163970947265625</LongitudeDegrees>
            </Position>
            <AltitudeMeters>312</AltitudeMeters>
            <DistanceMeters>NAN</DistanceMeters>
          </Trackpoint>
          <Trackpoint>
            <Time>2022-09-23T09:35:20.000Z</Time>
            <Position>
              <LatitudeDegrees>49.55229115672409534454345703125</LatitudeDegrees>
              <LongitudeDegrees>20.65479702316224575042724609375</LongitudeDegrees>
            </Position>
            <AltitudeMeters>313.399993896484375</AltitudeMeters>
            <DistanceMeters>NAN</DistanceMeters>
          </Trackpoint>
          <Trackpoint>
            <Time>2022-09-23T09:35:25.000Z</Time>
            <Position>
              <LatitudeDegrees>49.5524595491588115692138671875</LatitudeDegrees>
              <LongitudeDegrees>20.65483474172651767730712890625</LongitudeDegrees>
            </Position>
            <AltitudeMeters>314.20001220703125</AltitudeMeters>
            <DistanceMeters>NAN</DistanceMeters>
          </Trackpoint>
          <Trackpoint>
            <Time>2022-09-23T09:35:32.000Z</Time>
            <Position>
              <LatitudeDegrees>49.55265275202691555023193359375</LatitudeDegrees>
              <LongitudeDegrees>20.654789395630359649658203125</LongitudeDegrees>
            </Position>
            <AltitudeMeters>314.20001220703125</AltitudeMeters>
            <DistanceMeters>NAN</DistanceMeters>
          </Trackpoint>
          <Trackpoint>
            <Time>2022-09-23T09:35:39.000Z</Time>
            <Position>
              <LatitudeDegrees>49.5528893731534481048583984375</LatitudeDegrees>
              <LongitudeDegrees>20.6548056565225124359130859375</LongitudeDegrees>
            </Position>
            <AltitudeMeters>313.600006103515625</AltitudeMeters>
            <DistanceMeters>NAN</DistanceMeters>
          </Trackpoint>
          <Trackpoint>
            <Time>2022-09-23T09:35:43.000Z</Time>
            <Position>
              <LatitudeDegrees>49.5530050434172153472900390625</LatitudeDegrees>
              <LongitudeDegrees>20.654965080320835113525390625</LongitudeDegrees>
            </Position>
            <AltitudeMeters>312.399993896484375</AltitudeMeters>
            <DistanceMeters>NAN</DistanceMeters>
          </Trackpoint>
          <Trackpoint>
            <Time>2022-09-23T09:35:46.000Z</Time>
            <Position>
              <LatitudeDegrees>49.55305106006562709808349609375</LatitudeDegrees>
              <LongitudeDegrees>20.655132718384265899658203125</LongitudeDegrees>
            </Position>
            <AltitudeMeters>312</AltitudeMeters>
            <DistanceMeters>NAN</DistanceMeters>
          </Trackpoint>
          <Trackpoint>
            <Time>2022-09-23T09:35:49.000Z</Time>
            <Position>
              <LatitudeDegrees>49.553117193281650543212890625</LatitudeDegrees>
              <LongitudeDegrees>20.655311085283756256103515625</LongitudeDegrees>
            </Position>
            <AltitudeMeters>311.79998779296875</AltitudeMeters>
            <DistanceMeters>NAN</DistanceMeters>
          </Trackpoint>
          <Trackpoint>
            <Time>2022-09-23T09:35:55.000Z</Time>
            <Position>
              <LatitudeDegrees>49.55326630733907222747802734375</LatitudeDegrees>
              <LongitudeDegrees>20.65558634698390960693359375</LongitudeDegrees>
            </Position>
            <AltitudeMeters>312</AltitudeMeters>
            <DistanceMeters>NAN</DistanceMeters>
          </Trackpoint>
          <Trackpoint>
            <Time>2022-09-23T09:36:02.000Z</Time>
            <Position>
              <LatitudeDegrees>49.55349513329565525054931640625</LatitudeDegrees>
              <LongitudeDegrees>20.65586705692112445831298828125</LongitudeDegrees>
            </Position>
            <AltitudeMeters>311.600006103515625</AltitudeMeters>
            <DistanceMeters>NAN</DistanceMeters>
          </Trackpoint>
          <Trackpoint>
            <Time>2022-09-23T09:36:09.000Z</Time>
            <Position>
              <LatitudeDegrees>49.553719349205493927001953125</LatitudeDegrees>
              <LongitudeDegrees>20.65623007714748382568359375</LongitudeDegrees>
            </Position>
            <AltitudeMeters>311.399993896484375</AltitudeMeters>
            <DistanceMeters>NAN</DistanceMeters>
          </Trackpoint>
          <Trackpoint>
            <Time>2022-09-23T09:36:10.000Z</Time>
            <Position>
              <LatitudeDegrees>49.55374625511467456817626953125</LatitudeDegrees>
              <LongitudeDegrees>20.65628229640424251556396484375</LongitudeDegrees>
            </Position>
            <AltitudeMeters>311.399993896484375</AltitudeMeters>
            <DistanceMeters>NAN</DistanceMeters>
          </Trackpoint>
          <Trackpoint>
            <Time>2022-09-23T09:36:15.000Z</Time>
            <Position>
              <LatitudeDegrees>49.55387583933770656585693359375</LatitudeDegrees>
              <LongitudeDegrees>20.65651782788336277008056640625</LongitudeDegrees>
            </Position>
            <AltitudeMeters>311.399993896484375</AltitudeMeters>
            <DistanceMeters>NAN</DistanceMeters>
          </Trackpoint>
          <Trackpoint>
            <Time>2022-09-23T09:36:16.000Z</Time>
            <Position>
              <LatitudeDegrees>49.55390366725623607635498046875</LatitudeDegrees>
              <LongitudeDegrees>20.6565557979047298431396484375</LongitudeDegrees>
            </Position>
            <AltitudeMeters>311.600006103515625</AltitudeMeters>
            <DistanceMeters>NAN</DistanceMeters>
          </Trackpoint>
          <Trackpoint>
            <Time>2022-09-23T09:36:20.000Z</Time>
            <Position>
              <LatitudeDegrees>49.5540326647460460662841796875</LatitudeDegrees>
              <LongitudeDegrees>20.65671010874211788177490234375</LongitudeDegrees>
            </Position>
            <AltitudeMeters>311.600006103515625</AltitudeMeters>
            <DistanceMeters>NAN</DistanceMeters>
          </Trackpoint>
          <Trackpoint>
            <Time>2022-09-23T09:36:21.000Z</Time>
            <Position>
              <LatitudeDegrees>49.5540628395974636077880859375</LatitudeDegrees>
              <LongitudeDegrees>20.65675386227667331695556640625</LongitudeDegrees>
            </Position>
            <AltitudeMeters>311.399993896484375</AltitudeMeters>
            <DistanceMeters>NAN</DistanceMeters>
          </Trackpoint>
          <Trackpoint>
            <Time>2022-09-23T09:36:22.000Z</Time>
            <Position>
              <LatitudeDegrees>49.55409393645823001861572265625</LatitudeDegrees>
              <LongitudeDegrees>20.65680381841957569122314453125</LongitudeDegrees>
            </Position>
            <AltitudeMeters>311.399993896484375</AltitudeMeters>
            <DistanceMeters>NAN</DistanceMeters>
          </Trackpoint>
          <Trackpoint>
            <Time>2022-09-23T09:36:23.000Z</Time>
            <Position>
              <LatitudeDegrees>49.55412394367158412933349609375</LatitudeDegrees>
              <LongitudeDegrees>20.6568588875234127044677734375</LongitudeDegrees>
            </Position>
            <AltitudeMeters>311.399993896484375</AltitudeMeters>
            <DistanceMeters>NAN</DistanceMeters>
          </Trackpoint>
          <Trackpoint>
            <Time>2022-09-23T09:36:27.000Z</Time>
            <Position>
              <LatitudeDegrees>49.5542339980602264404296875</LatitudeDegrees>
              <LongitudeDegrees>20.65707790665328502655029296875</LongitudeDegrees>
            </Position>
            <AltitudeMeters>311.20001220703125</AltitudeMeters>
            <DistanceMeters>NAN</DistanceMeters>
          </Trackpoint>
          <Trackpoint>
            <Time>2022-09-23T09:36:34.000Z</Time>
            <Position>
              <LatitudeDegrees>49.5544296316802501678466796875</LatitudeDegrees>
              <LongitudeDegrees>20.6573959998786449432373046875</LongitudeDegrees>
            </Position>
            <AltitudeMeters>310.79998779296875</AltitudeMeters>
            <DistanceMeters>NAN</DistanceMeters>
          </Trackpoint>
          <Trackpoint>
            <Time>2022-09-23T09:36:36.000Z</Time>
            <Position>
              <LatitudeDegrees>49.55449040047824382781982421875</LatitudeDegrees>
              <LongitudeDegrees>20.65750001929700374603271484375</LongitudeDegrees>
            </Position>
            <AltitudeMeters>310.79998779296875</AltitudeMeters>
            <DistanceMeters>NAN</DistanceMeters>
          </Trackpoint>
          <Trackpoint>
            <Time>2022-09-23T09:36:39.000Z</Time>
            <Position>
              <LatitudeDegrees>49.55459349788725376129150390625</LatitudeDegrees>
              <LongitudeDegrees>20.65764888189733028411865234375</LongitudeDegrees>
            </Position>
            <AltitudeMeters>310.79998779296875</AltitudeMeters>
            <DistanceMeters>NAN</DistanceMeters>
          </Trackpoint>
          <Trackpoint>
            <Time>2022-09-23T09:36:40.000Z</Time>
            <Position>
              <LatitudeDegrees>49.55461948178708553314208984375</LatitudeDegrees>
              <LongitudeDegrees>20.65769028849899768829345703125</LongitudeDegrees>
            </Position>
            <AltitudeMeters>310.79998779296875</AltitudeMeters>
            <DistanceMeters>NAN</DistanceMeters>
          </Trackpoint>
          <Trackpoint>
            <Time>2022-09-23T09:36:45.000Z</Time>
            <Position>
              <LatitudeDegrees>49.55478175543248653411865234375</LatitudeDegrees>
              <LongitudeDegrees>20.65795934759080410003662109375</LongitudeDegrees>
            </Position>
            <AltitudeMeters>310.79998779296875</AltitudeMeters>
            <DistanceMeters>NAN</DistanceMeters>
          </Trackpoint>
          <Trackpoint>
            <Time>2022-09-23T09:36:48.000Z</Time>
            <Position>
              <LatitudeDegrees>49.55486389808356761932373046875</LatitudeDegrees>
              <LongitudeDegrees>20.65810049884021282196044921875</LongitudeDegrees>
            </Position>
            <AltitudeMeters>311</AltitudeMeters>
            <DistanceMeters>NAN</DistanceMeters>
          </Trackpoint>
          <Trackpoint>
            <Time>2022-09-23T09:36:51.000Z</Time>
            <Position>
              <LatitudeDegrees>49.5549503155052661895751953125</LatitudeDegrees>
              <LongitudeDegrees>20.6582536362111568450927734375</LongitudeDegrees>
            </Position>
            <AltitudeMeters>310.79998779296875</AltitudeMeters>
            <DistanceMeters>NAN</DistanceMeters>
          </Trackpoint>
          <Trackpoint>
            <Time>2022-09-23T09:36:54.000Z</Time>
            <Position>
              <LatitudeDegrees>49.5550421811640262603759765625</LatitudeDegrees>
              <LongitudeDegrees>20.65840358845889568328857421875</LongitudeDegrees>
            </Position>
            <AltitudeMeters>311</AltitudeMeters>
            <DistanceMeters>NAN</DistanceMeters>
          </Trackpoint>
          <Trackpoint>
            <Time>2022-09-23T09:37:05.000Z</Time>
            <Position>
              <LatitudeDegrees>49.555376954376697540283203125</LatitudeDegrees>
              <LongitudeDegrees>20.65886911936104297637939453125</LongitudeDegrees>
            </Position>
            <AltitudeMeters>311.399993896484375</AltitudeMeters>
            <DistanceMeters>NAN</DistanceMeters>
          </Trackpoint>
          <Trackpoint>
            <Time>2022-09-23T09:37:10.000Z</Time>
            <Position>
              <LatitudeDegrees>49.55549891106784343719482421875</LatitudeDegrees>
              <LongitudeDegrees>20.65904329530894756317138671875</LongitudeDegrees>
            </Position>
            <AltitudeMeters>311</AltitudeMeters>
            <DistanceMeters>NAN</DistanceMeters>
          </Trackpoint>
          <Trackpoint>
            <Time>2022-09-23T09:37:12.000Z</Time>
            <Position>
              <LatitudeDegrees>49.55554048530757427215576171875</LatitudeDegrees>
              <LongitudeDegrees>20.65911672078073024749755859375</LongitudeDegrees>
            </Position>
            <AltitudeMeters>311</AltitudeMeters>
            <DistanceMeters>NAN</DistanceMeters>
          </Trackpoint>
          <Trackpoint>
            <Time>2022-09-23T09:37:17.000Z</Time>
            <Position>
              <LatitudeDegrees>49.55566219054162502288818359375</LatitudeDegrees>
              <LongitudeDegrees>20.65928754396736621856689453125</LongitudeDegrees>
            </Position>
            <AltitudeMeters>310.399993896484375</AltitudeMeters>
            <DistanceMeters>NAN</DistanceMeters>
          </Trackpoint>
          <Trackpoint>
            <Time>2022-09-23T09:37:19.000Z</Time>
            <Position>
              <LatitudeDegrees>49.55572220496833324432373046875</LatitudeDegrees>
              <LongitudeDegrees>20.6593634001910686492919921875</LongitudeDegrees>
            </Position>
            <AltitudeMeters>310</AltitudeMeters>
            <DistanceMeters>NAN</DistanceMeters>
          </Trackpoint>
          <Trackpoint>
            <Time>2022-09-23T09:37:28.000Z</Time>
            <Position>
              <LatitudeDegrees>49.55596159212291240692138671875</LatitudeDegrees>
              <LongitudeDegrees>20.6596785597503185272216796875</LongitudeDegrees>
            </Position>
            <AltitudeMeters>309.399993896484375</AltitudeMeters>
            <DistanceMeters>NAN</DistanceMeters>
          </Trackpoint>
          <Trackpoint>
            <Time>2022-09-23T09:37:36.000Z</Time>
            <Position>
              <LatitudeDegrees>49.5561804436147212982177734375</LatitudeDegrees>
              <LongitudeDegrees>20.65994493663311004638671875</LongitudeDegrees>
            </Position>
            <AltitudeMeters>309.600006103515625</AltitudeMeters>
            <DistanceMeters>NAN</DistanceMeters>
          </Trackpoint>
          <Trackpoint>
            <Time>2022-09-23T09:37:41.000Z</Time>
            <Position>
              <LatitudeDegrees>49.55638387240469455718994140625</LatitudeDegrees>
              <LongitudeDegrees>20.6599709205329418182373046875</LongitudeDegrees>
            </Position>
            <AltitudeMeters>309.399993896484375</AltitudeMeters>
            <DistanceMeters>NAN</DistanceMeters>
          </Trackpoint>
          <Trackpoint>
            <Time>2022-09-23T09:37:50.000Z</Time>
            <Position>
              <LatitudeDegrees>49.5567215792834758758544921875</LatitudeDegrees>
              <LongitudeDegrees>20.6599457748234272003173828125</LongitudeDegrees>
            </Position>
            <AltitudeMeters>309.399993896484375</AltitudeMeters>
            <DistanceMeters>NAN</DistanceMeters>
          </Trackpoint>
          <Trackpoint>
            <Time>2022-09-23T09:37:52.000Z</Time>
            <Position>
              <LatitudeDegrees>49.55678134225308895111083984375</LatitudeDegrees>
              <LongitudeDegrees>20.65992188639938831329345703125</LongitudeDegrees>
            </Position>
            <AltitudeMeters>309.399993896484375</AltitudeMeters>
            <DistanceMeters>NAN</DistanceMeters>
          </Trackpoint>
          <Trackpoint>
            <Time>2022-09-23T09:37:56.000Z</Time>
            <Position>
              <LatitudeDegrees>49.55691763199865818023681640625</LatitudeDegrees>
              <LongitudeDegrees>20.6598331220448017120361328125</LongitudeDegrees>
            </Position>
            <AltitudeMeters>309.399993896484375</AltitudeMeters>
            <DistanceMeters>NAN</DistanceMeters>
          </Trackpoint>
          <Trackpoint>
            <Time>2022-09-23T09:38:03.000Z</Time>
            <Position>
              <LatitudeDegrees>49.557174034416675567626953125</LatitudeDegrees>
              <LongitudeDegrees>20.65963656641542911529541015625</LongitudeDegrees>
            </Position>
            <AltitudeMeters>310.20001220703125</AltitudeMeters>
            <DistanceMeters>NAN</DistanceMeters>
          </Trackpoint>
          <Trackpoint>
            <Time>2022-09-23T09:38:09.000Z</Time>
            <Position>
              <LatitudeDegrees>49.55736723728477954864501953125</LatitudeDegrees>
              <LongitudeDegrees>20.65963874571025371551513671875</LongitudeDegrees>
            </Position>
            <AltitudeMeters>310.600006103515625</AltitudeMeters>
            <DistanceMeters>NAN</DistanceMeters>
          </Trackpoint>
          <Trackpoint>
            <Time>2022-09-23T09:38:15.000Z</Time>
            <Position>
              <LatitudeDegrees>49.5575312711298465728759765625</LatitudeDegrees>
              <LongitudeDegrees>20.65973882563412189483642578125</LongitudeDegrees>
            </Position>
            <AltitudeMeters>310.399993896484375</AltitudeMeters>
            <DistanceMeters>NAN</DistanceMeters>
          </Trackpoint>
          <Trackpoint>
            <Time>2022-09-23T09:38:21.000Z</Time>
            <Position>
              <LatitudeDegrees>49.5577086322009563446044921875</LatitudeDegrees>
              <LongitudeDegrees>20.6599549949169158935546875</LongitudeDegrees>
            </Position>
            <AltitudeMeters>309.399993896484375</AltitudeMeters>
            <DistanceMeters>NAN</DistanceMeters>
          </Trackpoint>
          <Trackpoint>
            <Time>2022-09-23T09:38:22.000Z</Time>
            <Position>
              <LatitudeDegrees>49.5577369630336761474609375</LatitudeDegrees>
              <LongitudeDegrees>20.66000721417367458343505859375</LongitudeDegrees>
            </Position>
            <AltitudeMeters>309.20001220703125</AltitudeMeters>
            <DistanceMeters>NAN</DistanceMeters>
          </Trackpoint>
          <Trackpoint>
            <Time>2022-09-23T09:38:28.000Z</Time>
            <Position>
              <LatitudeDegrees>49.5579144917428493499755859375</LatitudeDegrees>
              <LongitudeDegrees>20.66032438538968563079833984375</LongitudeDegrees>
            </Position>
            <AltitudeMeters>308.79998779296875</AltitudeMeters>
            <DistanceMeters>NAN</DistanceMeters>
          </Trackpoint>
          <Trackpoint>
            <Time>2022-09-23T09:38:34.000Z</Time>
            <Position>
              <LatitudeDegrees>49.558069892227649688720703125</LatitudeDegrees>
              <LongitudeDegrees>20.660521946847438812255859375</LongitudeDegrees>
            </Position>
            <AltitudeMeters>309</AltitudeMeters>
            <DistanceMeters>NAN</DistanceMeters>
          </Trackpoint>
          <Trackpoint>
            <Time>2022-09-23T09:38:39.000Z</Time>
            <Position>
              <LatitudeDegrees>49.55821598879992961883544921875</LatitudeDegrees>
              <LongitudeDegrees>20.6605683825910091400146484375</LongitudeDegrees>
            </Position>
            <AltitudeMeters>309.399993896484375</AltitudeMeters>
            <DistanceMeters>NAN</DistanceMeters>
          </Trackpoint>
          <Trackpoint>
            <Time>2022-09-23T09:38:45.000Z</Time>
            <Position>
              <LatitudeDegrees>49.55842536874115467071533203125</LatitudeDegrees>
              <LongitudeDegrees>20.6605754233896732330322265625</LongitudeDegrees>
            </Position>
            <AltitudeMeters>309.79998779296875</AltitudeMeters>
            <DistanceMeters>NAN</DistanceMeters>
          </Trackpoint>
          <Trackpoint>
            <Time>2022-09-23T09:38:46.000Z</Time>
            <Position>
              <LatitudeDegrees>49.558468870818614959716796875</LatitudeDegrees>
              <LongitudeDegrees>20.66057601012289524078369140625</LongitudeDegrees>
            </Position>
            <AltitudeMeters>310</AltitudeMeters>
            <DistanceMeters>NAN</DistanceMeters>
          </Trackpoint>
          <Trackpoint>
            <Time>2022-09-23T09:38:48.000Z</Time>
            <Position>
              <LatitudeDegrees>49.55857305787503719329833984375</LatitudeDegrees>
              <LongitudeDegrees>20.66055187024176120758056640625</LongitudeDegrees>
            </Position>
            <AltitudeMeters>310</AltitudeMeters>
            <DistanceMeters>NAN</DistanceMeters>
          </Trackpoint>
          <Trackpoint>
            <Time>2022-09-23T09:38:49.000Z</Time>
            <Position>
              <LatitudeDegrees>49.55861563794314861297607421875</LatitudeDegrees>
              <LongitudeDegrees>20.66054851748049259185791015625</LongitudeDegrees>
            </Position>
            <AltitudeMeters>310.20001220703125</AltitudeMeters>
            <DistanceMeters>NAN</DistanceMeters>
          </Trackpoint>
          <Trackpoint>
            <Time>2022-09-23T09:38:50.000Z</Time>
            <Position>
              <LatitudeDegrees>49.5586675219237804412841796875</LatitudeDegrees>
              <LongitudeDegrees>20.66054281778633594512939453125</LongitudeDegrees>
            </Position>
            <AltitudeMeters>310.20001220703125</AltitudeMeters>
            <DistanceMeters>NAN</DistanceMeters>
          </Trackpoint>
          <Trackpoint>
            <Time>2022-09-23T09:38:58.000Z</Time>
            <Position>
              <LatitudeDegrees>49.55906742252409458160400390625</LatitudeDegrees>
              <LongitudeDegrees>20.66053074784576892852783203125</LongitudeDegrees>
            </Position>
            <AltitudeMeters>310.20001220703125</AltitudeMeters>
            <DistanceMeters>NAN</DistanceMeters>
          </Trackpoint>
          <Trackpoint>
            <Time>2022-09-23T09:39:04.000Z</Time>
            <Position>
              <LatitudeDegrees>49.55930982716381549835205078125</LatitudeDegrees>
              <LongitudeDegrees>20.66052027046680450439453125</LongitudeDegrees>
            </Position>
            <AltitudeMeters>310.20001220703125</AltitudeMeters>
            <DistanceMeters>NAN</DistanceMeters>
          </Trackpoint>
          <Trackpoint>
            <Time>2022-09-23T09:39:06.000Z</Time>
            <Position>
              <LatitudeDegrees>49.5593853481113910675048828125</LatitudeDegrees>
              <LongitudeDegrees>20.6605053506791591644287109375</LongitudeDegrees>
            </Position>
            <AltitudeMeters>310</AltitudeMeters>
            <DistanceMeters>NAN</DistanceMeters>
          </Trackpoint>
          <Trackpoint>
            <Time>2022-09-23T09:39:12.000Z</Time>
            <Position>
              <LatitudeDegrees>49.55960604362189769744873046875</LatitudeDegrees>
              <LongitudeDegrees>20.66047911532223224639892578125</LongitudeDegrees>
            </Position>
            <AltitudeMeters>309.79998779296875</AltitudeMeters>
            <DistanceMeters>NAN</DistanceMeters>
          </Trackpoint>
          <Trackpoint>
            <Time>2022-09-23T09:39:17.000Z</Time>
            <Position>
              <LatitudeDegrees>49.55977720208466053009033203125</LatitudeDegrees>
              <LongitudeDegrees>20.660361349582672119140625</LongitudeDegrees>
            </Position>
            <AltitudeMeters>309.399993896484375</AltitudeMeters>
            <DistanceMeters>NAN</DistanceMeters>
          </Trackpoint>
          <Trackpoint>
            <Time>2022-09-23T09:39:21.000Z</Time>
            <Position>
              <LatitudeDegrees>49.5599080435931682586669921875</LatitudeDegrees>
              <LongitudeDegrees>20.66026453860104084014892578125</LongitudeDegrees>
            </Position>
            <AltitudeMeters>309.20001220703125</AltitudeMeters>
            <DistanceMeters>NAN</DistanceMeters>
          </Trackpoint>
          <Trackpoint>
            <Time>2022-09-23T09:39:28.000Z</Time>
            <Position>
              <LatitudeDegrees>49.560109041631221771240234375</LatitudeDegrees>
              <LongitudeDegrees>20.66008566878736019134521484375</LongitudeDegrees>
            </Position>
            <AltitudeMeters>309</AltitudeMeters>
            <DistanceMeters>NAN</DistanceMeters>
          </Trackpoint>
          <Trackpoint>
            <Time>2022-09-23T09:39:34.000Z</Time>
            <Position>
              <LatitudeDegrees>49.560314230620861053466796875</LatitudeDegrees>
              <LongitudeDegrees>20.65993278287351131439208984375</LongitudeDegrees>
            </Position>
            <AltitudeMeters>308.399993896484375</AltitudeMeters>
            <DistanceMeters>NAN</DistanceMeters>
          </Trackpoint>
          <Trackpoint>
            <Time>2022-09-23T09:39:36.000Z</Time>
            <Position>
              <LatitudeDegrees>49.560394026339054107666015625</LatitudeDegrees>
              <LongitudeDegrees>20.65987645648419857025146484375</LongitudeDegrees>
            </Position>
            <AltitudeMeters>308.399993896484375</AltitudeMeters>
            <DistanceMeters>NAN</DistanceMeters>
          </Trackpoint>
          <Trackpoint>
            <Time>2022-09-23T09:39:39.000Z</Time>
            <Position>
              <LatitudeDegrees>49.5605132170021533966064453125</LatitudeDegrees>
              <LongitudeDegrees>20.65980135463178157806396484375</LongitudeDegrees>
            </Position>
            <AltitudeMeters>308.20001220703125</AltitudeMeters>
            <DistanceMeters>NAN</DistanceMeters>
          </Trackpoint>
          <Trackpoint>
            <Time>2022-09-23T09:39:41.000Z</Time>
            <Position>
              <LatitudeDegrees>49.56059443764388561248779296875</LatitudeDegrees>
              <LongitudeDegrees>20.65976313315331935882568359375</LongitudeDegrees>
            </Position>
            <AltitudeMeters>308</AltitudeMeters>
            <DistanceMeters>NAN</DistanceMeters>
          </Trackpoint>
          <Trackpoint>
            <Time>2022-09-23T09:39:43.000Z</Time>
            <Position>
              <LatitudeDegrees>49.5606751553714275360107421875</LatitudeDegrees>
              <LongitudeDegrees>20.65974016673862934112548828125</LongitudeDegrees>
            </Position>
            <AltitudeMeters>308</AltitudeMeters>
            <DistanceMeters>NAN</DistanceMeters>
          </Trackpoint>
          <Trackpoint>
            <Time>2022-09-23T09:39:44.000Z</Time>
            <Position>
              <LatitudeDegrees>49.56071488559246063232421875</LatitudeDegrees>
              <LongitudeDegrees>20.6597325392067432403564453125</LongitudeDegrees>
            </Position>
            <AltitudeMeters>308.20001220703125</AltitudeMeters>
            <DistanceMeters>NAN</DistanceMeters>
          </Trackpoint>
          <Trackpoint>
            <Time>2022-09-23T09:39:47.000Z</Time>
            <Position>
              <LatitudeDegrees>49.56082711927592754364013671875</LatitudeDegrees>
              <LongitudeDegrees>20.6597003526985645294189453125</LongitudeDegrees>
            </Position>
            <AltitudeMeters>308</AltitudeMeters>
            <DistanceMeters>NAN</DistanceMeters>
          </Trackpoint>
          <Trackpoint>
            <Time>2022-09-23T09:39:49.000Z</Time>
            <Position>
              <LatitudeDegrees>49.56088813953101634979248046875</LatitudeDegrees>
              <LongitudeDegrees>20.65962768159806728363037109375</LongitudeDegrees>
            </Position>
            <AltitudeMeters>308</AltitudeMeters>
            <DistanceMeters>NAN</DistanceMeters>
          </Trackpoint>
          <Trackpoint>
            <Time>2022-09-23T09:39:53.000Z</Time>
            <Position>
              <LatitudeDegrees>49.56094027496874332427978515625</LatitudeDegrees>
              <LongitudeDegrees>20.659370608627796173095703125</LongitudeDegrees>
            </Position>
            <AltitudeMeters>308</AltitudeMeters>
            <DistanceMeters>NAN</DistanceMeters>
          </Trackpoint>
          <Trackpoint>
            <Time>2022-09-23T09:39:56.000Z</Time>
            <Position>
              <LatitudeDegrees>49.560951255261898040771484375</LatitudeDegrees>
              <LongitudeDegrees>20.6591484881937503814697265625</LongitudeDegrees>
            </Position>
            <AltitudeMeters>308</AltitudeMeters>
            <DistanceMeters>NAN</DistanceMeters>
          </Trackpoint>
          <Trackpoint>
            <Time>2022-09-23T09:40:00.000Z</Time>
            <Position>
              <LatitudeDegrees>49.56098671071231365203857421875</LatitudeDegrees>
              <LongitudeDegrees>20.65886995755136013031005859375</LongitudeDegrees>
            </Position>
            <AltitudeMeters>308.20001220703125</AltitudeMeters>
            <DistanceMeters>NAN</DistanceMeters>
          </Trackpoint>
          <Trackpoint>
            <Time>2022-09-23T09:40:02.000Z</Time>
            <Position>
              <LatitudeDegrees>49.56100263632833957672119140625</LatitudeDegrees>
              <LongitudeDegrees>20.658730231225490570068359375</LongitudeDegrees>
            </Position>
            <AltitudeMeters>308.399993896484375</AltitudeMeters>
            <DistanceMeters>NAN</DistanceMeters>
          </Trackpoint>
          <Trackpoint>
            <Time>2022-09-23T09:40:07.000Z</Time>
            <Position>
              <LatitudeDegrees>49.56102065742015838623046875</LatitudeDegrees>
              <LongitudeDegrees>20.6584261357784271240234375</LongitudeDegrees>
            </Position>
            <AltitudeMeters>308.20001220703125</AltitudeMeters>
            <DistanceMeters>NAN</DistanceMeters>
          </Trackpoint>
          <Trackpoint>
            <Time>2022-09-23T09:40:14.000Z</Time>
            <Position>
              <LatitudeDegrees>49.5610362477600574493408203125</LatitudeDegrees>
              <LongitudeDegrees>20.65807946026325225830078125</LongitudeDegrees>
            </Position>
            <AltitudeMeters>308.399993896484375</AltitudeMeters>
            <DistanceMeters>NAN</DistanceMeters>
          </Trackpoint>
          <Trackpoint>
            <Time>2022-09-23T09:40:21.000Z</Time>
            <Position>
              <LatitudeDegrees>49.5610560290515422821044921875</LatitudeDegrees>
              <LongitudeDegrees>20.65768207423388957977294921875</LongitudeDegrees>
            </Position>
            <AltitudeMeters>308.20001220703125</AltitudeMeters>
            <DistanceMeters>NAN</DistanceMeters>
          </Trackpoint>
          <Trackpoint>
            <Time>2022-09-23T09:40:27.000Z</Time>
            <Position>
              <LatitudeDegrees>49.56108863465487957000732421875</LatitudeDegrees>
              <LongitudeDegrees>20.6573145277798175811767578125</LongitudeDegrees>
            </Position>
            <AltitudeMeters>308.20001220703125</AltitudeMeters>
            <DistanceMeters>NAN</DistanceMeters>
          </Trackpoint>
          <Trackpoint>
            <Time>2022-09-23T09:40:33.000Z</Time>
            <Position>
              <LatitudeDegrees>49.5610945858061313629150390625</LatitudeDegrees>
              <LongitudeDegrees>20.6569705344736576080322265625</LongitudeDegrees>
            </Position>
            <AltitudeMeters>308.20001220703125</AltitudeMeters>
            <DistanceMeters>NAN</DistanceMeters>
          </Trackpoint>
          <Trackpoint>
            <Time>2022-09-23T09:40:37.000Z</Time>
            <Position>
              <LatitudeDegrees>49.561099447309970855712890625</LatitudeDegrees>
              <LongitudeDegrees>20.656725950539112091064453125</LongitudeDegrees>
            </Position>
            <AltitudeMeters>308.20001220703125</AltitudeMeters>
            <DistanceMeters>NAN</DistanceMeters>
          </Trackpoint>
          <Trackpoint>
            <Time>2022-09-23T09:40:39.000Z</Time>
            <Position>
              <LatitudeDegrees>49.56110187806189060211181640625</LatitudeDegrees>
              <LongitudeDegrees>20.65660893917083740234375</LongitudeDegrees>
            </Position>
            <AltitudeMeters>308.399993896484375</AltitudeMeters>
            <DistanceMeters>NAN</DistanceMeters>
          </Trackpoint>
          <Trackpoint>
            <Time>2022-09-23T09:40:42.000Z</Time>
            <Position>
              <LatitudeDegrees>49.561106152832508087158203125</LatitudeDegrees>
              <LongitudeDegrees>20.65644172020256519317626953125</LongitudeDegrees>
            </Position>
            <AltitudeMeters>308.399993896484375</AltitudeMeters>
            <DistanceMeters>NAN</DistanceMeters>
          </Trackpoint>
          <Trackpoint>
            <Time>2022-09-23T09:40:46.000Z</Time>
            <Position>
              <LatitudeDegrees>49.561113528907299041748046875</LatitudeDegrees>
              <LongitudeDegrees>20.6562537141144275665283203125</LongitudeDegrees>
            </Position>
            <AltitudeMeters>308.600006103515625</AltitudeMeters>
            <DistanceMeters>NAN</DistanceMeters>
          </Trackpoint>
          <Trackpoint>
            <Time>2022-09-23T09:40:55.000Z</Time>
            <Position>
              <LatitudeDegrees>49.56114864908158779144287109375</LatitudeDegrees>
              <LongitudeDegrees>20.65590293146669864654541015625</LongitudeDegrees>
            </Position>
            <AltitudeMeters>308.79998779296875</AltitudeMeters>
            <DistanceMeters>NAN</DistanceMeters>
          </Trackpoint>
          <Trackpoint>
            <Time>2022-09-23T09:40:57.000Z</Time>
            <Position>
              <LatitudeDegrees>49.56115552224218845367431640625</LatitudeDegrees>
              <LongitudeDegrees>20.6558604352176189422607421875</LongitudeDegrees>
            </Position>
            <AltitudeMeters>309</AltitudeMeters>
            <DistanceMeters>NAN</DistanceMeters>
          </Trackpoint>
          <Trackpoint>
            <Time>2022-09-23T09:41:00.000Z</Time>
            <Position>
              <LatitudeDegrees>49.561162479221820831298828125</LatitudeDegrees>
              <LongitudeDegrees>20.655849874019622802734375</LongitudeDegrees>
            </Position>
            <AltitudeMeters>309.20001220703125</AltitudeMeters>
            <DistanceMeters>NAN</DistanceMeters>
          </Trackpoint>
          <Trackpoint>
            <Time>2022-09-23T09:41:06.000Z</Time>
            <Position>
              <LatitudeDegrees>49.5611602999269962310791015625</LatitudeDegrees>
              <LongitudeDegrees>20.6558228842914104461669921875</LongitudeDegrees>
            </Position>
            <AltitudeMeters>309.20001220703125</AltitudeMeters>
            <DistanceMeters>NAN</DistanceMeters>
          </Trackpoint>
          <Trackpoint>
            <Time>2022-09-23T09:41:07.000Z</Time>
            <Position>
              <LatitudeDegrees>49.56115870736539363861083984375</LatitudeDegrees>
              <LongitudeDegrees>20.6558057852089405059814453125</LongitudeDegrees>
            </Position>
            <AltitudeMeters>309.20001220703125</AltitudeMeters>
            <DistanceMeters>NAN</DistanceMeters>
          </Trackpoint>
          <Trackpoint>
            <Time>2022-09-23T09:41:08.000Z</Time>
            <Position>
              <LatitudeDegrees>49.56115837208926677703857421875</LatitudeDegrees>
              <LongitudeDegrees>20.65577385015785694122314453125</LongitudeDegrees>
            </Position>
            <AltitudeMeters>309.399993896484375</AltitudeMeters>
            <DistanceMeters>NAN</DistanceMeters>
          </Trackpoint>
          <Trackpoint>
            <Time>2022-09-23T09:41:15.000Z</Time>
            <Position>
              <LatitudeDegrees>49.56117379479110240936279296875</LatitudeDegrees>
              <LongitudeDegrees>20.65553949214518070220947265625</LongitudeDegrees>
            </Position>
            <AltitudeMeters>309.79998779296875</AltitudeMeters>
            <DistanceMeters>NAN</DistanceMeters>
          </Trackpoint>
          <Trackpoint>
            <Time>2022-09-23T09:41:19.000Z</Time>
            <Position>
              <LatitudeDegrees>49.5611851103603839874267578125</LatitudeDegrees>
              <LongitudeDegrees>20.655328519642353057861328125</LongitudeDegrees>
            </Position>
            <AltitudeMeters>309.20001220703125</AltitudeMeters>
            <DistanceMeters>NAN</DistanceMeters>
          </Trackpoint>
          <Trackpoint>
            <Time>2022-09-23T09:41:21.000Z</Time>
            <Position>
              <LatitudeDegrees>49.56117798574268817901611328125</LatitudeDegrees>
              <LongitudeDegrees>20.65520823933184146881103515625</LongitudeDegrees>
            </Position>
            <AltitudeMeters>309</AltitudeMeters>
            <DistanceMeters>NAN</DistanceMeters>
          </Trackpoint>
          <Trackpoint>
            <Time>2022-09-23T09:41:29.000Z</Time>
            <Position>
              <LatitudeDegrees>49.561169184744358062744140625</LatitudeDegrees>
              <LongitudeDegrees>20.6548105180263519287109375</LongitudeDegrees>
            </Position>
            <AltitudeMeters>309</AltitudeMeters>
            <DistanceMeters>NAN</DistanceMeters>
          </Trackpoint>
          <Trackpoint>
            <Time>2022-09-23T09:41:33.000Z</Time>
            <Position>
              <LatitudeDegrees>49.56118754111230373382568359375</LatitudeDegrees>
              <LongitudeDegrees>20.65460222773253917694091796875</LongitudeDegrees>
            </Position>
            <AltitudeMeters>309.20001220703125</AltitudeMeters>
            <DistanceMeters>NAN</DistanceMeters>
          </Trackpoint>
          <Trackpoint>
            <Time>2022-09-23T09:41:36.000Z</Time>
            <Position>
              <LatitudeDegrees>49.56120145507156848907470703125</LatitudeDegrees>
              <LongitudeDegrees>20.65444649197161197662353515625</LongitudeDegrees>
            </Position>
            <AltitudeMeters>309.399993896484375</AltitudeMeters>
            <DistanceMeters>NAN</DistanceMeters>
          </Trackpoint>
          <Trackpoint>
            <Time>2022-09-23T09:41:43.000Z</Time>
            <Position>
              <LatitudeDegrees>49.56123364157974720001220703125</LatitudeDegrees>
              <LongitudeDegrees>20.6540680490434169769287109375</LongitudeDegrees>
            </Position>
            <AltitudeMeters>309.600006103515625</AltitudeMeters>
            <DistanceMeters>NAN</DistanceMeters>
          </Trackpoint>
          <Trackpoint>
            <Time>2022-09-23T09:41:45.000Z</Time>
            <Position>
              <LatitudeDegrees>49.561243951320648193359375</LatitudeDegrees>
              <LongitudeDegrees>20.6539574079215526580810546875</LongitudeDegrees>
            </Position>
            <AltitudeMeters>309.399993896484375</AltitudeMeters>
            <DistanceMeters>NAN</DistanceMeters>
          </Trackpoint>
          <Trackpoint>
            <Time>2022-09-23T09:41:51.000Z</Time>
            <Position>
              <LatitudeDegrees>49.56126549281179904937744140625</LatitudeDegrees>
              <LongitudeDegrees>20.653566308319568634033203125</LongitudeDegrees>
            </Position>
            <AltitudeMeters>309.399993896484375</AltitudeMeters>
            <DistanceMeters>NAN</DistanceMeters>
          </Trackpoint>
          <Trackpoint>
            <Time>2022-09-23T09:41:59.000Z</Time>
            <Position>
              <LatitudeDegrees>49.56130404956638813018798828125</LatitudeDegrees>
              <LongitudeDegrees>20.6531232409179210662841796875</LongitudeDegrees>
            </Position>
            <AltitudeMeters>309.600006103515625</AltitudeMeters>
            <DistanceMeters>NAN</DistanceMeters>
          </Trackpoint>
          <Trackpoint>
            <Time>2022-09-23T09:42:00.000Z</Time>
            <Position>
              <LatitudeDegrees>49.561305977404117584228515625</LatitudeDegrees>
              <LongitudeDegrees>20.65308895893394947052001953125</LongitudeDegrees>
            </Position>
            <AltitudeMeters>309.600006103515625</AltitudeMeters>
            <DistanceMeters>NAN</DistanceMeters>
          </Trackpoint>
          <Trackpoint>
            <Time>2022-09-23T09:42:05.000Z</Time>
            <Position>
              <LatitudeDegrees>49.56131980754435062408447265625</LatitudeDegrees>
              <LongitudeDegrees>20.65285175107419490814208984375</LongitudeDegrees>
            </Position>
            <AltitudeMeters>310</AltitudeMeters>
            <DistanceMeters>NAN</DistanceMeters>
          </Trackpoint>
          <Trackpoint>
            <Time>2022-09-23T09:42:06.000Z</Time>
            <Position>
              <LatitudeDegrees>49.56132374703884124755859375</LatitudeDegrees>
              <LongitudeDegrees>20.65279073081910610198974609375</LongitudeDegrees>
            </Position>
            <AltitudeMeters>310</AltitudeMeters>
            <DistanceMeters>NAN</DistanceMeters>
          </Trackpoint>
          <Trackpoint>
            <Time>2022-09-23T09:42:10.000Z</Time>
            <Position>
              <LatitudeDegrees>49.5613369904458522796630859375</LatitudeDegrees>
              <LongitudeDegrees>20.6525762379169464111328125</LongitudeDegrees>
            </Position>
            <AltitudeMeters>309.79998779296875</AltitudeMeters>
            <DistanceMeters>NAN</DistanceMeters>
          </Trackpoint>
          <Trackpoint>
            <Time>2022-09-23T09:42:15.000Z</Time>
            <Position>
              <LatitudeDegrees>49.56136289052665233612060546875</LatitudeDegrees>
              <LongitudeDegrees>20.6522897444665431976318359375</LongitudeDegrees>
            </Position>
            <AltitudeMeters>309.79998779296875</AltitudeMeters>
            <DistanceMeters>NAN</DistanceMeters>
          </Trackpoint>
          <Trackpoint>
            <Time>2022-09-23T09:42:21.000Z</Time>
            <Position>
              <LatitudeDegrees>49.56138501875102519989013671875</LatitudeDegrees>
              <LongitudeDegrees>20.6519512832164764404296875</LongitudeDegrees>
            </Position>
            <AltitudeMeters>309.600006103515625</AltitudeMeters>
            <DistanceMeters>NAN</DistanceMeters>
          </Trackpoint>
          <Trackpoint>
            <Time>2022-09-23T09:42:23.000Z</Time>
            <Position>
              <LatitudeDegrees>49.5613913051784038543701171875</LatitudeDegrees>
              <LongitudeDegrees>20.65182815305888652801513671875</LongitudeDegrees>
            </Position>
            <AltitudeMeters>309.600006103515625</AltitudeMeters>
            <DistanceMeters>NAN</DistanceMeters>
          </Trackpoint>
          <Trackpoint>
            <Time>2022-09-23T09:42:32.000Z</Time>
            <Position>
              <LatitudeDegrees>49.5614214800298213958740234375</LatitudeDegrees>
              <LongitudeDegrees>20.65128299407660961151123046875</LongitudeDegrees>
            </Position>
            <AltitudeMeters>310</AltitudeMeters>
            <DistanceMeters>NAN</DistanceMeters>
          </Trackpoint>
          <Trackpoint>
            <Time>2022-09-23T09:42:33.000Z</Time>
            <Position>
              <LatitudeDegrees>49.5614248327910900115966796875</LatitudeDegrees>
              <LongitudeDegrees>20.65122767351567745208740234375</LongitudeDegrees>
            </Position>
            <AltitudeMeters>310</AltitudeMeters>
            <DistanceMeters>NAN</DistanceMeters>
          </Trackpoint>
          <Trackpoint>
            <Time>2022-09-23T09:42:44.000Z</Time>
            <Position>
              <LatitudeDegrees>49.5614705979824066162109375</LatitudeDegrees>
              <LongitudeDegrees>20.6506220810115337371826171875</LongitudeDegrees>
            </Position>
            <AltitudeMeters>309.399993896484375</AltitudeMeters>
            <DistanceMeters>NAN</DistanceMeters>
          </Trackpoint>
          <Trackpoint>
            <Time>2022-09-23T09:42:48.000Z</Time>
            <Position>
              <LatitudeDegrees>49.56149683333933353424072265625</LatitudeDegrees>
              <LongitudeDegrees>20.6503806822001934051513671875</LongitudeDegrees>
            </Position>
            <AltitudeMeters>309.20001220703125</AltitudeMeters>
            <DistanceMeters>NAN</DistanceMeters>
          </Trackpoint>
          <Trackpoint>
            <Time>2022-09-23T09:42:50.000Z</Time>
            <Position>
              <LatitudeDegrees>49.56150504760444164276123046875</LatitudeDegrees>
              <LongitudeDegrees>20.65024682320654392242431640625</LongitudeDegrees>
            </Position>
            <AltitudeMeters>309</AltitudeMeters>
            <DistanceMeters>NAN</DistanceMeters>
          </Trackpoint>
          <Trackpoint>
            <Time>2022-09-23T09:42:53.000Z</Time>
            <Position>
              <LatitudeDegrees>49.56151912920176982879638671875</LatitudeDegrees>
              <LongitudeDegrees>20.6500417180359363555908203125</LongitudeDegrees>
            </Position>
            <AltitudeMeters>309.20001220703125</AltitudeMeters>
            <DistanceMeters>NAN</DistanceMeters>
          </Trackpoint>
          <Trackpoint>
            <Time>2022-09-23T09:42:57.000Z</Time>
            <Position>
              <LatitudeDegrees>49.561544023454189300537109375</LatitudeDegrees>
              <LongitudeDegrees>20.64980576746165752410888671875</LongitudeDegrees>
            </Position>
            <AltitudeMeters>310.20001220703125</AltitudeMeters>
            <DistanceMeters>NAN</DistanceMeters>
          </Trackpoint>
          <Trackpoint>
            <Time>2022-09-23T09:42:58.000Z</Time>
            <Position>
              <LatitudeDegrees>49.5615456998348236083984375</LatitudeDegrees>
              <LongitudeDegrees>20.64974910579621791839599609375</LongitudeDegrees>
            </Position>
            <AltitudeMeters>310.20001220703125</AltitudeMeters>
            <DistanceMeters>NAN</DistanceMeters>
          </Trackpoint>
          <Trackpoint>
            <Time>2022-09-23T09:43:02.000Z</Time>
            <Position>
              <LatitudeDegrees>49.56156372092664241790771484375</LatitudeDegrees>
              <LongitudeDegrees>20.64954056404531002044677734375</LongitudeDegrees>
            </Position>
            <AltitudeMeters>310.20001220703125</AltitudeMeters>
            <DistanceMeters>NAN</DistanceMeters>
          </Trackpoint>
          <Trackpoint>
            <Time>2022-09-23T09:43:08.000Z</Time>
            <Position>
              <LatitudeDegrees>49.56157864071428775787353515625</LatitudeDegrees>
              <LongitudeDegrees>20.649258010089397430419921875</LongitudeDegrees>
            </Position>
            <AltitudeMeters>310</AltitudeMeters>
            <DistanceMeters>NAN</DistanceMeters>
          </Trackpoint>
          <Trackpoint>
            <Time>2022-09-23T09:43:10.000Z</Time>
            <Position>
              <LatitudeDegrees>49.5615850947797298431396484375</LatitudeDegrees>
              <LongitudeDegrees>20.6491750292479991912841796875</LongitudeDegrees>
            </Position>
            <AltitudeMeters>309.79998779296875</AltitudeMeters>
            <DistanceMeters>NAN</DistanceMeters>
          </Trackpoint>
          <Trackpoint>
            <Time>2022-09-23T09:43:16.000Z</Time>
            <Position>
              <LatitudeDegrees>49.5616008527576923370361328125</LatitudeDegrees>
              <LongitudeDegrees>20.64892751164734363555908203125</LongitudeDegrees>
            </Position>
            <AltitudeMeters>309.79998779296875</AltitudeMeters>
            <DistanceMeters>NAN</DistanceMeters>
          </Trackpoint>
          <Trackpoint>
            <Time>2022-09-23T09:43:17.000Z</Time>
            <Position>
              <LatitudeDegrees>49.56160227768123149871826171875</LatitudeDegrees>
              <LongitudeDegrees>20.6488883681595325469970703125</LongitudeDegrees>
            </Position>
            <AltitudeMeters>309.79998779296875</AltitudeMeters>
            <DistanceMeters>NAN</DistanceMeters>
          </Trackpoint>
          <Trackpoint>
            <Time>2022-09-23T09:43:24.000Z</Time>
            <Position>
              <LatitudeDegrees>49.56162172369658946990966796875</LatitudeDegrees>
              <LongitudeDegrees>20.64850238151848316192626953125</LongitudeDegrees>
            </Position>
            <AltitudeMeters>309.79998779296875</AltitudeMeters>
            <DistanceMeters>NAN</DistanceMeters>
          </Trackpoint>
          <Trackpoint>
            <Time>2022-09-23T09:43:25.000Z</Time>
            <Position>
              <LatitudeDegrees>49.5616249926388263702392578125</LatitudeDegrees>
              <LongitudeDegrees>20.6484390981495380401611328125</LongitudeDegrees>
            </Position>
            <AltitudeMeters>309.79998779296875</AltitudeMeters>
            <DistanceMeters>NAN</DistanceMeters>
          </Trackpoint>
          <Trackpoint>
            <Time>2022-09-23T09:43:30.000Z</Time>
            <Position>
              <LatitudeDegrees>49.56164653412997722625732421875</LatitudeDegrees>
              <LongitudeDegrees>20.6481551192700862884521484375</LongitudeDegrees>
            </Position>
            <AltitudeMeters>309.79998779296875</AltitudeMeters>
            <DistanceMeters>NAN</DistanceMeters>
          </Trackpoint>
          <Trackpoint>
            <Time>2022-09-23T09:43:33.000Z</Time>
            <Position>
              <LatitudeDegrees>49.56165977753698825836181640625</LatitudeDegrees>
              <LongitudeDegrees>20.64797130413353443145751953125</LongitudeDegrees>
            </Position>
            <AltitudeMeters>309.79998779296875</AltitudeMeters>
            <DistanceMeters>NAN</DistanceMeters>
          </Trackpoint>
          <Trackpoint>
            <Time>2022-09-23T09:43:41.000Z</Time>
            <Position>
              <LatitudeDegrees>49.56170034594833850860595703125</LatitudeDegrees>
              <LongitudeDegrees>20.64753795973956584930419921875</LongitudeDegrees>
            </Position>
            <AltitudeMeters>310</AltitudeMeters>
            <DistanceMeters>NAN</DistanceMeters>
          </Trackpoint>
          <Trackpoint>
            <Time>2022-09-23T09:43:42.000Z</Time>
            <Position>
              <LatitudeDegrees>49.56170218996703624725341796875</LatitudeDegrees>
              <LongitudeDegrees>20.6474999897181987762451171875</LongitudeDegrees>
            </Position>
            <AltitudeMeters>309.79998779296875</AltitudeMeters>
            <DistanceMeters>NAN</DistanceMeters>
          </Trackpoint>
          <Trackpoint>
            <Time>2022-09-23T09:43:44.000Z</Time>
            <Position>
              <LatitudeDegrees>49.5617084763944149017333984375</LatitudeDegrees>
              <LongitudeDegrees>20.64738591201603412628173828125</LongitudeDegrees>
            </Position>
            <AltitudeMeters>309.79998779296875</AltitudeMeters>
            <DistanceMeters>NAN</DistanceMeters>
          </Trackpoint>
          <Trackpoint>
            <Time>2022-09-23T09:43:45.000Z</Time>
            <Position>
              <LatitudeDegrees>49.56171132624149322509765625</LatitudeDegrees>
              <LongitudeDegrees>20.64734232611954212188720703125</LongitudeDegrees>
            </Position>
            <AltitudeMeters>309.79998779296875</AltitudeMeters>
            <DistanceMeters>NAN</DistanceMeters>
          </Trackpoint>
          <Trackpoint>
            <Time>2022-09-23T09:43:48.000Z</Time>
            <Position>
              <LatitudeDegrees>49.56172331236302852630615234375</LatitudeDegrees>
              <LongitudeDegrees>20.64716965891420841217041015625</LongitudeDegrees>
            </Position>
            <AltitudeMeters>309.600006103515625</AltitudeMeters>
            <DistanceMeters>NAN</DistanceMeters>
          </Trackpoint>
          <Trackpoint>
            <Time>2022-09-23T09:43:50.000Z</Time>
            <Position>
              <LatitudeDegrees>49.56172876060009002685546875</LatitudeDegrees>
              <LongitudeDegrees>20.64706069417297840118408203125</LongitudeDegrees>
            </Position>
            <AltitudeMeters>309.600006103515625</AltitudeMeters>
            <DistanceMeters>NAN</DistanceMeters>
          </Trackpoint>
          <Trackpoint>
            <Time>2022-09-23T09:43:55.000Z</Time>
            <Position>
              <LatitudeDegrees>49.56175851635634899139404296875</LatitudeDegrees>
              <LongitudeDegrees>20.64674855209887027740478515625</LongitudeDegrees>
            </Position>
            <AltitudeMeters>309.600006103515625</AltitudeMeters>
            <DistanceMeters>NAN</DistanceMeters>
          </Trackpoint>
          <Trackpoint>
            <Time>2022-09-23T09:43:57.000Z</Time>
            <Position>
              <LatitudeDegrees>49.56177771091461181640625</LatitudeDegrees>
              <LongitudeDegrees>20.646623075008392333984375</LongitudeDegrees>
            </Position>
            <AltitudeMeters>309.600006103515625</AltitudeMeters>
            <DistanceMeters>NAN</DistanceMeters>
          </Trackpoint>
          <Trackpoint>
            <Time>2022-09-23T09:44:07.000Z</Time>
            <Position>
              <LatitudeDegrees>49.56183202564716339111328125</LatitudeDegrees>
              <LongitudeDegrees>20.64602695405483245849609375</LongitudeDegrees>
            </Position>
            <AltitudeMeters>309.399993896484375</AltitudeMeters>
            <DistanceMeters>NAN</DistanceMeters>
          </Trackpoint>
          <Trackpoint>
            <Time>2022-09-23T09:44:08.000Z</Time>
            <Position>
              <LatitudeDegrees>49.56183831207454204559326171875</LatitudeDegrees>
              <LongitudeDegrees>20.64596216194331645965576171875</LongitudeDegrees>
            </Position>
            <AltitudeMeters>309.20001220703125</AltitudeMeters>
            <DistanceMeters>NAN</DistanceMeters>
          </Trackpoint>
          <Trackpoint>
            <Time>2022-09-23T09:44:15.000Z</Time>
            <Position>
              <LatitudeDegrees>49.561867229640483856201171875</LatitudeDegrees>
              <LongitudeDegrees>20.64552278257906436920166015625</LongitudeDegrees>
            </Position>
            <AltitudeMeters>308.79998779296875</AltitudeMeters>
            <DistanceMeters>NAN</DistanceMeters>
          </Trackpoint>
          <Trackpoint>
            <Time>2022-09-23T09:44:20.000Z</Time>
            <Position>
              <LatitudeDegrees>49.56188910640776157379150390625</LatitudeDegrees>
              <LongitudeDegrees>20.64523058943450450897216796875</LongitudeDegrees>
            </Position>
            <AltitudeMeters>309</AltitudeMeters>
            <DistanceMeters>NAN</DistanceMeters>
          </Trackpoint>
          <Trackpoint>
            <Time>2022-09-23T09:44:24.000Z</Time>
            <Position>
              <LatitudeDegrees>49.561904110014438629150390625</LatitudeDegrees>
              <LongitudeDegrees>20.6450204551219940185546875</LongitudeDegrees>
            </Position>
            <AltitudeMeters>309.20001220703125</AltitudeMeters>
            <DistanceMeters>NAN</DistanceMeters>
          </Trackpoint>
          <Trackpoint>
            <Time>2022-09-23T09:44:32.000Z</Time>
            <Position>
              <LatitudeDegrees>49.5619381405413150787353515625</LatitudeDegrees>
              <LongitudeDegrees>20.64458115957677364349365234375</LongitudeDegrees>
            </Position>
            <AltitudeMeters>309.600006103515625</AltitudeMeters>
            <DistanceMeters>NAN</DistanceMeters>
          </Trackpoint>
          <Trackpoint>
            <Time>2022-09-23T09:44:41.000Z</Time>
            <Position>
              <LatitudeDegrees>49.56196521408855915069580078125</LatitudeDegrees>
              <LongitudeDegrees>20.64411244355142116546630859375</LongitudeDegrees>
            </Position>
            <AltitudeMeters>309.79998779296875</AltitudeMeters>
            <DistanceMeters>NAN</DistanceMeters>
          </Trackpoint>
          <Trackpoint>
            <Time>2022-09-23T09:44:48.000Z</Time>
            <Position>
              <LatitudeDegrees>49.56197510473430156707763671875</LatitudeDegrees>
              <LongitudeDegrees>20.6438260339200496673583984375</LongitudeDegrees>
            </Position>
            <AltitudeMeters>310</AltitudeMeters>
            <DistanceMeters>NAN</DistanceMeters>
          </Trackpoint>
          <Trackpoint>
            <Time>2022-09-23T09:44:57.000Z</Time>
            <Position>
              <LatitudeDegrees>49.56197627820074558258056640625</LatitudeDegrees>
              <LongitudeDegrees>20.6434253789484500885009765625</LongitudeDegrees>
            </Position>
            <AltitudeMeters>310.20001220703125</AltitudeMeters>
            <DistanceMeters>NAN</DistanceMeters>
          </Trackpoint>
          <Trackpoint>
            <Time>2022-09-23T09:45:01.000Z</Time>
            <Position>
              <LatitudeDegrees>49.56203076057136058807373046875</LatitudeDegrees>
              <LongitudeDegrees>20.6433199346065521240234375</LongitudeDegrees>
            </Position>
            <AltitudeMeters>310.20001220703125</AltitudeMeters>
            <DistanceMeters>NAN</DistanceMeters>
          </Trackpoint>
          <Trackpoint>
            <Time>2022-09-23T09:45:02.000Z</Time>
            <Position>
              <LatitudeDegrees>49.56203377805650234222412109375</LatitudeDegrees>
              <LongitudeDegrees>20.643307529389858245849609375</LongitudeDegrees>
            </Position>
            <AltitudeMeters>310.399993896484375</AltitudeMeters>
            <DistanceMeters>NAN</DistanceMeters>
          </Trackpoint>
          <Trackpoint>
            <Time>2022-09-23T09:45:06.000Z</Time>
            <Position>
              <LatitudeDegrees>49.5620373822748661041259765625</LatitudeDegrees>
              <LongitudeDegrees>20.64329780638217926025390625</LongitudeDegrees>
            </Position>
            <AltitudeMeters>310.600006103515625</AltitudeMeters>
            <DistanceMeters>NAN</DistanceMeters>
          </Trackpoint>
          <Trackpoint>
            <Time>2022-09-23T09:45:15.000Z</Time>
            <Position>
              <LatitudeDegrees>49.5620373822748661041259765625</LatitudeDegrees>
              <LongitudeDegrees>20.64329780638217926025390625</LongitudeDegrees>
            </Position>
            <AltitudeMeters>310.600006103515625</AltitudeMeters>
            <DistanceMeters>NAN</DistanceMeters>
          </Trackpoint>
          <Trackpoint>
            <Time>2022-09-23T09:45:16.000Z</Time>
            <Position>
              <LatitudeDegrees>49.5620373822748661041259765625</LatitudeDegrees>
              <LongitudeDegrees>20.64329780638217926025390625</LongitudeDegrees>
            </Position>
            <AltitudeMeters>310.600006103515625</AltitudeMeters>
            <DistanceMeters>NAN</DistanceMeters>
          </Trackpoint>
          <Trackpoint>
            <Time>2022-09-23T09:45:18.000Z</Time>
            <Position>
              <LatitudeDegrees>49.5620373822748661041259765625</LatitudeDegrees>
              <LongitudeDegrees>20.64329780638217926025390625</LongitudeDegrees>
            </Position>
            <AltitudeMeters>310.600006103515625</AltitudeMeters>
            <DistanceMeters>NAN</DistanceMeters>
          </Trackpoint>
          <Trackpoint>
            <Time>2022-09-23T09:45:19.000Z</Time>
            <Position>
              <LatitudeDegrees>49.5620373822748661041259765625</LatitudeDegrees>
              <LongitudeDegrees>20.64329780638217926025390625</LongitudeDegrees>
            </Position>
            <AltitudeMeters>310.600006103515625</AltitudeMeters>
            <DistanceMeters>NAN</DistanceMeters>
          </Trackpoint>
          <Trackpoint>
            <Time>2022-09-23T09:45:20.000Z</Time>
            <Position>
              <LatitudeDegrees>49.5620373822748661041259765625</LatitudeDegrees>
              <LongitudeDegrees>20.64329780638217926025390625</LongitudeDegrees>
            </Position>
            <AltitudeMeters>310.600006103515625</AltitudeMeters>
            <DistanceMeters>NAN</DistanceMeters>
          </Trackpoint>
          <Trackpoint>
            <Time>2022-09-23T09:45:26.000Z</Time>
            <Position>
              <LatitudeDegrees>49.56204584799706935882568359375</LatitudeDegrees>
              <LongitudeDegrees>20.6432936154305934906005859375</LongitudeDegrees>
            </Position>
            <AltitudeMeters>310.600006103515625</AltitudeMeters>
            <DistanceMeters>NAN</DistanceMeters>
          </Trackpoint>
          <Trackpoint>
            <Time>2022-09-23T09:45:35.000Z</Time>
            <Position>
              <LatitudeDegrees>49.56204668618738651275634765625</LatitudeDegrees>
              <LongitudeDegrees>20.64329378306865692138671875</LongitudeDegrees>
            </Position>
            <AltitudeMeters>310.399993896484375</AltitudeMeters>
            <DistanceMeters>NAN</DistanceMeters>
          </Trackpoint>
          <Trackpoint>
            <Time>2022-09-23T09:45:36.000Z</Time>
            <Position>
              <LatitudeDegrees>49.56204668618738651275634765625</LatitudeDegrees>
              <LongitudeDegrees>20.64329378306865692138671875</LongitudeDegrees>
            </Position>
            <AltitudeMeters>310.399993896484375</AltitudeMeters>
            <DistanceMeters>NAN</DistanceMeters>
          </Trackpoint>
          <Trackpoint>
            <Time>2022-09-23T09:45:46.000Z</Time>
            <Position>
              <LatitudeDegrees>49.5620551519095897674560546875</LatitudeDegrees>
              <LongitudeDegrees>20.64329369924962520599365234375</LongitudeDegrees>
            </Position>
            <AltitudeMeters>310.399993896484375</AltitudeMeters>
            <DistanceMeters>NAN</DistanceMeters>
          </Trackpoint>
          <Trackpoint>
            <Time>2022-09-23T09:45:48.000Z</Time>
            <Position>
              <LatitudeDegrees>49.56207719631493091583251953125</LatitudeDegrees>
              <LongitudeDegrees>20.64325933344662189483642578125</LongitudeDegrees>
            </Position>
            <AltitudeMeters>310.399993896484375</AltitudeMeters>
            <DistanceMeters>NAN</DistanceMeters>
          </Trackpoint>
          <Trackpoint>
            <Time>2022-09-23T09:45:49.000Z</Time>
            <Position>
              <LatitudeDegrees>49.562082476913928985595703125</LatitudeDegrees>
              <LongitudeDegrees>20.6432225368916988372802734375</LongitudeDegrees>
            </Position>
            <AltitudeMeters>310.399993896484375</AltitudeMeters>
            <DistanceMeters>NAN</DistanceMeters>
          </Trackpoint>
          <Trackpoint>
            <Time>2022-09-23T09:45:55.000Z</Time>
            <Position>
              <LatitudeDegrees>49.56212413497269153594970703125</LatitudeDegrees>
              <LongitudeDegrees>20.643025897443294525146484375</LongitudeDegrees>
            </Position>
            <AltitudeMeters>310.600006103515625</AltitudeMeters>
            <DistanceMeters>NAN</DistanceMeters>
          </Trackpoint>
          <Trackpoint>
            <Time>2022-09-23T09:45:57.000Z</Time>
            <Position>
              <LatitudeDegrees>49.56212882883846759796142578125</LatitudeDegrees>
              <LongitudeDegrees>20.64295926131308078765869140625</LongitudeDegrees>
            </Position>
            <AltitudeMeters>311</AltitudeMeters>
            <DistanceMeters>NAN</DistanceMeters>
          </Trackpoint>
          <Trackpoint>
            <Time>2022-09-23T09:45:58.000Z</Time>
            <Position>
              <LatitudeDegrees>49.56213084049522876739501953125</LatitudeDegrees>
              <LongitudeDegrees>20.6429224647581577301025390625</LongitudeDegrees>
            </Position>
            <AltitudeMeters>311</AltitudeMeters>
            <DistanceMeters>NAN</DistanceMeters>
          </Trackpoint>
          <Trackpoint>
            <Time>2022-09-23T09:46:02.000Z</Time>
            <Position>
              <LatitudeDegrees>49.5621470175683498382568359375</LatitudeDegrees>
              <LongitudeDegrees>20.64276413060724735260009765625</LongitudeDegrees>
            </Position>
            <AltitudeMeters>311.20001220703125</AltitudeMeters>
            <DistanceMeters>NAN</DistanceMeters>
          </Trackpoint>
          <Trackpoint>
            <Time>2022-09-23T09:46:08.000Z</Time>
            <Position>
              <LatitudeDegrees>49.56216068007051944732666015625</LatitudeDegrees>
              <LongitudeDegrees>20.6424755416810512542724609375</LongitudeDegrees>
            </Position>
            <AltitudeMeters>310.399993896484375</AltitudeMeters>
            <DistanceMeters>NAN</DistanceMeters>
          </Trackpoint>
          <Trackpoint>
            <Time>2022-09-23T09:46:15.000Z</Time>
            <Position>
              <LatitudeDegrees>49.562141485512256622314453125</LatitudeDegrees>
              <LongitudeDegrees>20.64214906655251979827880859375</LongitudeDegrees>
            </Position>
            <AltitudeMeters>310</AltitudeMeters>
            <DistanceMeters>NAN</DistanceMeters>
          </Trackpoint>
          <Trackpoint>
            <Time>2022-09-23T09:46:18.000Z</Time>
            <Position>
              <LatitudeDegrees>49.5621352829039096832275390625</LatitudeDegrees>
              <LongitudeDegrees>20.64202233217656612396240234375</LongitudeDegrees>
            </Position>
            <AltitudeMeters>310</AltitudeMeters>
            <DistanceMeters>NAN</DistanceMeters>
          </Trackpoint>
          <Trackpoint>
            <Time>2022-09-23T09:46:19.000Z</Time>
            <Position>
              <LatitudeDegrees>49.562133438885211944580078125</LatitudeDegrees>
              <LongitudeDegrees>20.6419806741178035736083984375</LongitudeDegrees>
            </Position>
            <AltitudeMeters>310</AltitudeMeters>
            <DistanceMeters>NAN</DistanceMeters>
          </Trackpoint>
          <Trackpoint>
            <Time>2022-09-23T09:46:22.000Z</Time>
            <Position>
              <LatitudeDegrees>49.5621295832097530364990234375</LatitudeDegrees>
              <LongitudeDegrees>20.64185905270278453826904296875</LongitudeDegrees>
            </Position>
            <AltitudeMeters>310</AltitudeMeters>
            <DistanceMeters>NAN</DistanceMeters>
          </Trackpoint>
          <Trackpoint>
            <Time>2022-09-23T09:46:25.000Z</Time>
            <Position>
              <LatitudeDegrees>49.56213167868554592132568359375</LatitudeDegrees>
              <LongitudeDegrees>20.64174908213317394256591796875</LongitudeDegrees>
            </Position>
            <AltitudeMeters>310.20001220703125</AltitudeMeters>
            <DistanceMeters>NAN</DistanceMeters>
          </Trackpoint>
          <Trackpoint>
            <Time>2022-09-23T09:46:30.000Z</Time>
            <Position>
              <LatitudeDegrees>49.56213318742811679840087890625</LatitudeDegrees>
              <LongitudeDegrees>20.64154691062867641448974609375</LongitudeDegrees>
            </Position>
            <AltitudeMeters>310.20001220703125</AltitudeMeters>
            <DistanceMeters>NAN</DistanceMeters>
          </Trackpoint>
          <Trackpoint>
            <Time>2022-09-23T09:46:31.000Z</Time>
            <Position>
              <LatitudeDegrees>49.562134444713592529296875</LatitudeDegrees>
              <LongitudeDegrees>20.6415096111595630645751953125</LongitudeDegrees>
            </Position>
            <AltitudeMeters>310</AltitudeMeters>
            <DistanceMeters>NAN</DistanceMeters>
          </Trackpoint>
          <Trackpoint>
            <Time>2022-09-23T09:46:36.000Z</Time>
            <Position>
              <LatitudeDegrees>49.56212916411459445953369140625</LatitudeDegrees>
              <LongitudeDegrees>20.64123560674488544464111328125</LongitudeDegrees>
            </Position>
            <AltitudeMeters>310</AltitudeMeters>
            <DistanceMeters>NAN</DistanceMeters>
          </Trackpoint>
          <Trackpoint>
            <Time>2022-09-23T09:46:44.000Z</Time>
            <Position>
              <LatitudeDegrees>49.5621262304484844207763671875</LatitudeDegrees>
              <LongitudeDegrees>20.6408652104437351226806640625</LongitudeDegrees>
            </Position>
            <AltitudeMeters>310</AltitudeMeters>
            <DistanceMeters>NAN</DistanceMeters>
          </Trackpoint>
          <Trackpoint>
            <Time>2022-09-23T09:46:47.000Z</Time>
            <Position>
              <LatitudeDegrees>49.562123380601406097412109375</LatitudeDegrees>
              <LongitudeDegrees>20.6407324410974979400634765625</LongitudeDegrees>
            </Position>
            <AltitudeMeters>310</AltitudeMeters>
            <DistanceMeters>NAN</DistanceMeters>
          </Trackpoint>
          <Trackpoint>
            <Time>2022-09-23T09:46:51.000Z</Time>
            <Position>
              <LatitudeDegrees>49.5621191896498203277587890625</LatitudeDegrees>
              <LongitudeDegrees>20.64055549912154674530029296875</LongitudeDegrees>
            </Position>
            <AltitudeMeters>310</AltitudeMeters>
            <DistanceMeters>NAN</DistanceMeters>
          </Trackpoint>
          <Trackpoint>
            <Time>2022-09-23T09:46:54.000Z</Time>
            <Position>
              <LatitudeDegrees>49.56209613941609859466552734375</LatitudeDegrees>
              <LongitudeDegrees>20.64041920937597751617431640625</LongitudeDegrees>
            </Position>
            <AltitudeMeters>310</AltitudeMeters>
            <DistanceMeters>NAN</DistanceMeters>
          </Trackpoint>
          <Trackpoint>
            <Time>2022-09-23T09:46:56.000Z</Time>
            <Position>
              <LatitudeDegrees>49.5620740950107574462890625</LatitudeDegrees>
              <LongitudeDegrees>20.640323571860790252685546875</LongitudeDegrees>
            </Position>
            <AltitudeMeters>310</AltitudeMeters>
            <DistanceMeters>NAN</DistanceMeters>
          </Trackpoint>
          <Trackpoint>
            <Time>2022-09-23T09:46:57.000Z</Time>
            <Position>
              <LatitudeDegrees>49.5620648749172687530517578125</LatitudeDegrees>
              <LongitudeDegrees>20.64027889631688594818115234375</LongitudeDegrees>
            </Position>
            <AltitudeMeters>310</AltitudeMeters>
            <DistanceMeters>NAN</DistanceMeters>
          </Trackpoint>
          <Trackpoint>
            <Time>2022-09-23T09:47:05.000Z</Time>
            <Position>
              <LatitudeDegrees>49.56195649690926074981689453125</LatitudeDegrees>
              <LongitudeDegrees>20.63997044228017330169677734375</LongitudeDegrees>
            </Position>
            <AltitudeMeters>310.399993896484375</AltitudeMeters>
            <DistanceMeters>NAN</DistanceMeters>
          </Trackpoint>
          <Trackpoint>
            <Time>2022-09-23T09:47:10.000Z</Time>
            <Position>
              <LatitudeDegrees>49.5619378052651882171630859375</LatitudeDegrees>
              <LongitudeDegrees>20.639820657670497894287109375</LongitudeDegrees>
            </Position>
            <AltitudeMeters>310.399993896484375</AltitudeMeters>
            <DistanceMeters>NAN</DistanceMeters>
          </Trackpoint>
          <Trackpoint>
            <Time>2022-09-23T09:47:15.000Z</Time>
            <Position>
              <LatitudeDegrees>49.56199295818805694580078125</LatitudeDegrees>
              <LongitudeDegrees>20.63977732323110103607177734375</LongitudeDegrees>
            </Position>
            <AltitudeMeters>310.79998779296875</AltitudeMeters>
            <DistanceMeters>NAN</DistanceMeters>
          </Trackpoint>
          <Trackpoint>
            <Time>2022-09-23T09:47:22.000Z</Time>
            <Position>
              <LatitudeDegrees>49.56209278665482997894287109375</LatitudeDegrees>
              <LongitudeDegrees>20.6397581286728382110595703125</LongitudeDegrees>
            </Position>
            <AltitudeMeters>311.20001220703125</AltitudeMeters>
            <DistanceMeters>NAN</DistanceMeters>
          </Trackpoint>
          <Trackpoint>
            <Time>2022-09-23T09:47:23.000Z</Time>
            <Position>
              <LatitudeDegrees>49.5621051080524921417236328125</LatitudeDegrees>
              <LongitudeDegrees>20.63974656164646148681640625</LongitudeDegrees>
            </Position>
            <AltitudeMeters>311.399993896484375</AltitudeMeters>
            <DistanceMeters>NAN</DistanceMeters>
          </Trackpoint>
          <Trackpoint>
            <Time>2022-09-23T09:47:24.000Z</Time>
            <Position>
              <LatitudeDegrees>49.56211390905082225799560546875</LatitudeDegrees>
              <LongitudeDegrees>20.63973776064813137054443359375</LongitudeDegrees>
            </Position>
            <AltitudeMeters>311.20001220703125</AltitudeMeters>
            <DistanceMeters>NAN</DistanceMeters>
          </Trackpoint>
          <Trackpoint>
            <Time>2022-09-23T09:47:26.000Z</Time>
            <Position>
              <LatitudeDegrees>49.56211843527853488922119140625</LatitudeDegrees>
              <LongitudeDegrees>20.63973625190556049346923828125</LongitudeDegrees>
            </Position>
            <AltitudeMeters>311.20001220703125</AltitudeMeters>
            <DistanceMeters>NAN</DistanceMeters>
          </Trackpoint>
          <Trackpoint>
            <Time>2022-09-23T09:47:30.000Z</Time>
            <Position>
              <LatitudeDegrees>49.5620883442461490631103515625</LatitudeDegrees>
              <LongitudeDegrees>20.63975821249186992645263671875</LongitudeDegrees>
            </Position>
            <AltitudeMeters>311</AltitudeMeters>
            <DistanceMeters>NAN</DistanceMeters>
          </Trackpoint>
          <Trackpoint>
            <Time>2022-09-23T09:47:31.000Z</Time>
            <Position>
              <LatitudeDegrees>49.56207610666751861572265625</LatitudeDegrees>
              <LongitudeDegrees>20.63976558856666088104248046875</LongitudeDegrees>
            </Position>
            <AltitudeMeters>311</AltitudeMeters>
            <DistanceMeters>NAN</DistanceMeters>
          </Trackpoint>
          <Trackpoint>
            <Time>2022-09-23T09:47:34.000Z</Time>
            <Position>
              <LatitudeDegrees>49.56202841363847255706787109375</LatitudeDegrees>
              <LongitudeDegrees>20.639772713184356689453125</LongitudeDegrees>
            </Position>
            <AltitudeMeters>311</AltitudeMeters>
            <DistanceMeters>NAN</DistanceMeters>
          </Trackpoint>
          <Trackpoint>
            <Time>2022-09-23T09:47:35.000Z</Time>
            <Position>
              <LatitudeDegrees>49.5620122365653514862060546875</LatitudeDegrees>
              <LongitudeDegrees>20.6397685222327709197998046875</LongitudeDegrees>
            </Position>
            <AltitudeMeters>311</AltitudeMeters>
            <DistanceMeters>NAN</DistanceMeters>
          </Trackpoint>
          <Trackpoint>
            <Time>2022-09-23T09:47:37.000Z</Time>
            <Position>
              <LatitudeDegrees>49.561979882419109344482421875</LatitudeDegrees>
              <LongitudeDegrees>20.63977279700338840484619140625</LongitudeDegrees>
            </Position>
            <AltitudeMeters>311</AltitudeMeters>
            <DistanceMeters>NAN</DistanceMeters>
          </Trackpoint>
          <Trackpoint>
            <Time>2022-09-23T09:47:42.000Z</Time>
            <Position>
              <LatitudeDegrees>49.5619103126227855682373046875</LatitudeDegrees>
              <LongitudeDegrees>20.639813952147960662841796875</LongitudeDegrees>
            </Position>
            <AltitudeMeters>311</AltitudeMeters>
            <DistanceMeters>NAN</DistanceMeters>
          </Trackpoint>
          <Trackpoint>
            <Time>2022-09-23T09:47:43.000Z</Time>
            <Position>
              <LatitudeDegrees>49.5619103126227855682373046875</LatitudeDegrees>
              <LongitudeDegrees>20.639813952147960662841796875</LongitudeDegrees>
            </Position>
            <AltitudeMeters>310.79998779296875</AltitudeMeters>
            <DistanceMeters>NAN</DistanceMeters>
          </Trackpoint>
          <Trackpoint>
            <Time>2022-09-23T09:47:51.000Z</Time>
            <Position>
              <LatitudeDegrees>49.5619103126227855682373046875</LatitudeDegrees>
              <LongitudeDegrees>20.639813952147960662841796875</LongitudeDegrees>
            </Position>
            <AltitudeMeters>310.600006103515625</AltitudeMeters>
            <DistanceMeters>NAN</DistanceMeters>
          </Trackpoint>
          <Trackpoint>
            <Time>2022-09-23T09:47:55.000Z</Time>
            <Position>
              <LatitudeDegrees>49.5619103126227855682373046875</LatitudeDegrees>
              <LongitudeDegrees>20.639813952147960662841796875</LongitudeDegrees>
            </Position>
            <AltitudeMeters>310.399993896484375</AltitudeMeters>
            <DistanceMeters>NAN</DistanceMeters>
          </Trackpoint>
          <Trackpoint>
            <Time>2022-09-23T09:48:05.000Z</Time>
            <Position>
              <LatitudeDegrees>49.5619103126227855682373046875</LatitudeDegrees>
              <LongitudeDegrees>20.639813952147960662841796875</LongitudeDegrees>
            </Position>
            <AltitudeMeters>310.399993896484375</AltitudeMeters>
            <DistanceMeters>NAN</DistanceMeters>
          </Trackpoint>
          <Trackpoint>
            <Time>2022-09-23T09:48:06.000Z</Time>
            <Position>
              <LatitudeDegrees>49.5619103126227855682373046875</LatitudeDegrees>
              <LongitudeDegrees>20.639813952147960662841796875</LongitudeDegrees>
            </Position>
            <AltitudeMeters>310.399993896484375</AltitudeMeters>
            <DistanceMeters>NAN</DistanceMeters>
          </Trackpoint>
          <Trackpoint>
            <Time>2022-09-23T09:48:07.000Z</Time>
            <Position>
              <LatitudeDegrees>49.5619103126227855682373046875</LatitudeDegrees>
              <LongitudeDegrees>20.639813952147960662841796875</LongitudeDegrees>
            </Position>
            <AltitudeMeters>310.20001220703125</AltitudeMeters>
            <DistanceMeters>NAN</DistanceMeters>
          </Trackpoint>
          <Trackpoint>
            <Time>2022-09-23T09:48:12.000Z</Time>
            <Position>
              <LatitudeDegrees>49.5619103126227855682373046875</LatitudeDegrees>
              <LongitudeDegrees>20.639813952147960662841796875</LongitudeDegrees>
            </Position>
            <AltitudeMeters>310.20001220703125</AltitudeMeters>
            <DistanceMeters>NAN</DistanceMeters>
          </Trackpoint>
          <Trackpoint>
            <Time>2022-09-23T09:48:15.000Z</Time>
            <Position>
              <LatitudeDegrees>49.5619103126227855682373046875</LatitudeDegrees>
              <LongitudeDegrees>20.639813952147960662841796875</LongitudeDegrees>
            </Position>
            <AltitudeMeters>310.20001220703125</AltitudeMeters>
            <DistanceMeters>NAN</DistanceMeters>
          </Trackpoint>
          <Trackpoint>
            <Time>2022-09-23T09:48:17.000Z</Time>
            <Position>
              <LatitudeDegrees>49.5619103126227855682373046875</LatitudeDegrees>
              <LongitudeDegrees>20.639813952147960662841796875</LongitudeDegrees>
            </Position>
            <AltitudeMeters>310.20001220703125</AltitudeMeters>
            <DistanceMeters>NAN</DistanceMeters>
          </Trackpoint>
          <Trackpoint>
            <Time>2022-09-23T09:48:27.000Z</Time>
            <Position>
              <LatitudeDegrees>49.56191056407988071441650390625</LatitudeDegrees>
              <LongitudeDegrees>20.63981235958635807037353515625</LongitudeDegrees>
            </Position>
            <AltitudeMeters>310</AltitudeMeters>
            <DistanceMeters>NAN</DistanceMeters>
          </Trackpoint>
          <Trackpoint>
            <Time>2022-09-23T09:48:30.000Z</Time>
            <Position>
              <LatitudeDegrees>49.56191056407988071441650390625</LatitudeDegrees>
              <LongitudeDegrees>20.63981235958635807037353515625</LongitudeDegrees>
            </Position>
            <AltitudeMeters>310</AltitudeMeters>
            <DistanceMeters>NAN</DistanceMeters>
          </Trackpoint>
          <Trackpoint>
            <Time>2022-09-23T09:48:48.000Z</Time>
            <Position>
              <LatitudeDegrees>49.56191249191761016845703125</LatitudeDegrees>
              <LongitudeDegrees>20.63979911617934703826904296875</LongitudeDegrees>
            </Position>
            <AltitudeMeters>309.399993896484375</AltitudeMeters>
            <DistanceMeters>NAN</DistanceMeters>
          </Trackpoint>
          <Trackpoint>
            <Time>2022-09-23T09:48:51.000Z</Time>
            <Position>
              <LatitudeDegrees>49.56188307143747806549072265625</LatitudeDegrees>
              <LongitudeDegrees>20.6398191489279270172119140625</LongitudeDegrees>
            </Position>
            <AltitudeMeters>309.399993896484375</AltitudeMeters>
            <DistanceMeters>NAN</DistanceMeters>
          </Trackpoint>
          <Trackpoint>
            <Time>2022-09-23T09:48:57.000Z</Time>
            <Position>
              <LatitudeDegrees>49.56176270730793476104736328125</LatitudeDegrees>
              <LongitudeDegrees>20.6398878805339336395263671875</LongitudeDegrees>
            </Position>
            <AltitudeMeters>309.399993896484375</AltitudeMeters>
            <DistanceMeters>NAN</DistanceMeters>
          </Trackpoint>
          <Trackpoint>
            <Time>2022-09-23T09:48:58.000Z</Time>
            <Position>
              <LatitudeDegrees>49.5617342926561832427978515625</LatitudeDegrees>
              <LongitudeDegrees>20.63990003429353237152099609375</LongitudeDegrees>
            </Position>
            <AltitudeMeters>309.20001220703125</AltitudeMeters>
            <DistanceMeters>NAN</DistanceMeters>
          </Trackpoint>
          <Trackpoint>
            <Time>2022-09-23T09:49:04.000Z</Time>
            <Position>
              <LatitudeDegrees>49.5615505613386631011962890625</LatitudeDegrees>
              <LongitudeDegrees>20.6399968452751636505126953125</LongitudeDegrees>
            </Position>
            <AltitudeMeters>308.600006103515625</AltitudeMeters>
            <DistanceMeters>NAN</DistanceMeters>
          </Trackpoint>
          <Trackpoint>
            <Time>2022-09-23T09:49:10.000Z</Time>
            <Position>
              <LatitudeDegrees>49.56137211062014102935791015625</LatitudeDegrees>
              <LongitudeDegrees>20.6400571949779987335205078125</LongitudeDegrees>
            </Position>
            <AltitudeMeters>308.600006103515625</AltitudeMeters>
            <DistanceMeters>NAN</DistanceMeters>
          </Trackpoint>
          <Trackpoint>
            <Time>2022-09-23T09:49:19.000Z</Time>
            <Position>
              <LatitudeDegrees>49.5611418597400188446044921875</LatitudeDegrees>
              <LongitudeDegrees>20.64016490243375301361083984375</LongitudeDegrees>
            </Position>
            <AltitudeMeters>308.600006103515625</AltitudeMeters>
            <DistanceMeters>NAN</DistanceMeters>
          </Trackpoint>
          <Trackpoint>
            <Time>2022-09-23T09:49:20.000Z</Time>
            <Position>
              <LatitudeDegrees>49.5611364953219890594482421875</LatitudeDegrees>
              <LongitudeDegrees>20.6401669979095458984375</LongitudeDegrees>
            </Position>
            <AltitudeMeters>308.600006103515625</AltitudeMeters>
            <DistanceMeters>NAN</DistanceMeters>
          </Trackpoint>
          <Trackpoint>
            <Time>2022-09-23T09:49:23.000Z</Time>
            <Position>
              <LatitudeDegrees>49.5611364953219890594482421875</LatitudeDegrees>
              <LongitudeDegrees>20.6401669979095458984375</LongitudeDegrees>
            </Position>
            <AltitudeMeters>308.600006103515625</AltitudeMeters>
            <DistanceMeters>NAN</DistanceMeters>
          </Trackpoint>
          <Trackpoint>
            <Time>2022-09-23T09:49:30.000Z</Time>
            <Position>
              <LatitudeDegrees>49.5611364953219890594482421875</LatitudeDegrees>
              <LongitudeDegrees>20.6401669979095458984375</LongitudeDegrees>
            </Position>
            <AltitudeMeters>308.79998779296875</AltitudeMeters>
            <DistanceMeters>NAN</DistanceMeters>
          </Trackpoint>
          <Trackpoint>
            <Time>2022-09-23T09:49:42.000Z</Time>
            <Position>
              <LatitudeDegrees>49.5611364953219890594482421875</LatitudeDegrees>
              <LongitudeDegrees>20.6401669979095458984375</LongitudeDegrees>
            </Position>
            <AltitudeMeters>308.79998779296875</AltitudeMeters>
            <DistanceMeters>NAN</DistanceMeters>
          </Trackpoint>
          <Trackpoint>
            <Time>2022-09-23T09:49:44.000Z</Time>
            <Position>
              <LatitudeDegrees>49.5611354894936084747314453125</LatitudeDegrees>
              <LongitudeDegrees>20.6401708535850048065185546875</LongitudeDegrees>
            </Position>
            <AltitudeMeters>308.600006103515625</AltitudeMeters>
            <DistanceMeters>NAN</DistanceMeters>
          </Trackpoint>
          <Trackpoint>
            <Time>2022-09-23T09:49:45.000Z</Time>
            <Position>
              <LatitudeDegrees>49.5611445419490337371826171875</LatitudeDegrees>
              <LongitudeDegrees>20.640176720917224884033203125</LongitudeDegrees>
            </Position>
            <AltitudeMeters>308.600006103515625</AltitudeMeters>
            <DistanceMeters>NAN</DistanceMeters>
          </Trackpoint>
          <Trackpoint>
            <Time>2022-09-23T09:49:47.000Z</Time>
            <Position>
              <LatitudeDegrees>49.561168849468231201171875</LatitudeDegrees>
              <LongitudeDegrees>20.64016590826213359832763671875</LongitudeDegrees>
            </Position>
            <AltitudeMeters>308.79998779296875</AltitudeMeters>
            <DistanceMeters>NAN</DistanceMeters>
          </Trackpoint>
          <Trackpoint>
            <Time>2022-09-23T09:49:53.000Z</Time>
            <Position>
              <LatitudeDegrees>49.56128963269293308258056640625</LatitudeDegrees>
              <LongitudeDegrees>20.6401252560317516326904296875</LongitudeDegrees>
            </Position>
            <AltitudeMeters>308.79998779296875</AltitudeMeters>
            <DistanceMeters>NAN</DistanceMeters>
          </Trackpoint>
          <Trackpoint>
            <Time>2022-09-23T09:49:59.000Z</Time>
            <Position>
              <LatitudeDegrees>49.56143732182681560516357421875</LatitudeDegrees>
              <LongitudeDegrees>20.64006314612925052642822265625</LongitudeDegrees>
            </Position>
            <AltitudeMeters>308.79998779296875</AltitudeMeters>
            <DistanceMeters>NAN</DistanceMeters>
          </Trackpoint>
          <Trackpoint>
            <Time>2022-09-23T09:50:07.000Z</Time>
            <Position>
              <LatitudeDegrees>49.5616243220865726470947265625</LatitudeDegrees>
              <LongitudeDegrees>20.63995703123509883880615234375</LongitudeDegrees>
            </Position>
            <AltitudeMeters>308.600006103515625</AltitudeMeters>
            <DistanceMeters>NAN</DistanceMeters>
          </Trackpoint>
          <Trackpoint>
            <Time>2022-09-23T09:50:12.000Z</Time>
            <Position>
              <LatitudeDegrees>49.56176094710826873779296875</LatitudeDegrees>
              <LongitudeDegrees>20.63987706787884235382080078125</LongitudeDegrees>
            </Position>
            <AltitudeMeters>309</AltitudeMeters>
            <DistanceMeters>NAN</DistanceMeters>
          </Trackpoint>
          <Trackpoint>
            <Time>2022-09-23T09:50:16.000Z</Time>
            <Position>
              <LatitudeDegrees>49.56180092878639698028564453125</LatitudeDegrees>
              <LongitudeDegrees>20.6398516707122325897216796875</LongitudeDegrees>
            </Position>
            <AltitudeMeters>309.600006103515625</AltitudeMeters>
            <DistanceMeters>NAN</DistanceMeters>
          </Trackpoint>
          <Trackpoint>
            <Time>2022-09-23T09:50:22.000Z</Time>
            <Position>
              <LatitudeDegrees>49.5618031919002532958984375</LatitudeDegrees>
              <LongitudeDegrees>20.63981856219470500946044921875</LongitudeDegrees>
            </Position>
            <AltitudeMeters>309.600006103515625</AltitudeMeters>
            <DistanceMeters>NAN</DistanceMeters>
          </Trackpoint>
          <Trackpoint>
            <Time>2022-09-23T09:50:23.000Z</Time>
            <Position>
              <LatitudeDegrees>49.561808891594409942626953125</LatitudeDegrees>
              <LongitudeDegrees>20.63981252722442150115966796875</LongitudeDegrees>
            </Position>
            <AltitudeMeters>309.600006103515625</AltitudeMeters>
            <DistanceMeters>NAN</DistanceMeters>
          </Trackpoint>
          <Trackpoint>
            <Time>2022-09-23T09:50:32.000Z</Time>
            <Position>
              <LatitudeDegrees>49.56182305701076984405517578125</LatitudeDegrees>
              <LongitudeDegrees>20.639773719012737274169921875</LongitudeDegrees>
            </Position>
            <AltitudeMeters>309.600006103515625</AltitudeMeters>
            <DistanceMeters>NAN</DistanceMeters>
          </Trackpoint>
          <Trackpoint>
            <Time>2022-09-23T09:50:40.000Z</Time>
            <Position>
              <LatitudeDegrees>49.56181350164115428924560546875</LatitudeDegrees>
              <LongitudeDegrees>20.63962519168853759765625</LongitudeDegrees>
            </Position>
            <AltitudeMeters>310</AltitudeMeters>
            <DistanceMeters>NAN</DistanceMeters>
          </Trackpoint>
          <Trackpoint>
            <Time>2022-09-23T09:50:41.000Z</Time>
            <Position>
              <LatitudeDegrees>49.5618100650608539581298828125</LatitudeDegrees>
              <LongitudeDegrees>20.6396042369306087493896484375</LongitudeDegrees>
            </Position>
            <AltitudeMeters>310.20001220703125</AltitudeMeters>
            <DistanceMeters>NAN</DistanceMeters>
          </Trackpoint>
          <Trackpoint>
            <Time>2022-09-23T09:50:43.000Z</Time>
            <Position>
              <LatitudeDegrees>49.5618050359189510345458984375</LatitudeDegrees>
              <LongitudeDegrees>20.639579258859157562255859375</LongitudeDegrees>
            </Position>
            <AltitudeMeters>310.399993896484375</AltitudeMeters>
            <DistanceMeters>NAN</DistanceMeters>
          </Trackpoint>
          <Trackpoint>
            <Time>2022-09-23T09:50:49.000Z</Time>
            <Position>
              <LatitudeDegrees>49.56177829764783382415771484375</LatitudeDegrees>
              <LongitudeDegrees>20.6394922547042369842529296875</LongitudeDegrees>
            </Position>
            <AltitudeMeters>311</AltitudeMeters>
            <DistanceMeters>NAN</DistanceMeters>
          </Trackpoint>
          <Trackpoint>
            <Time>2022-09-23T09:50:56.000Z</Time>
            <Position>
              <LatitudeDegrees>49.561754576861858367919921875</LatitudeDegrees>
              <LongitudeDegrees>20.63938840292394161224365234375</LongitudeDegrees>
            </Position>
            <AltitudeMeters>311.399993896484375</AltitudeMeters>
            <DistanceMeters>NAN</DistanceMeters>
          </Trackpoint>
          <Trackpoint>
            <Time>2022-09-23T09:50:57.000Z</Time>
            <Position>
              <LatitudeDegrees>49.561751224100589752197265625</LatitudeDegrees>
              <LongitudeDegrees>20.6393735669553279876708984375</LongitudeDegrees>
            </Position>
            <AltitudeMeters>311.600006103515625</AltitudeMeters>
            <DistanceMeters>NAN</DistanceMeters>
          </Trackpoint>
          <Trackpoint>
            <Time>2022-09-23T09:50:58.000Z</Time>
            <Position>
              <LatitudeDegrees>49.56174544058740139007568359375</LatitudeDegrees>
              <LongitudeDegrees>20.63935822807252407073974609375</LongitudeDegrees>
            </Position>
            <AltitudeMeters>311.600006103515625</AltitudeMeters>
            <DistanceMeters>NAN</DistanceMeters>
          </Trackpoint>
          <Trackpoint>
            <Time>2022-09-23T09:51:01.000Z</Time>
            <Position>
              <LatitudeDegrees>49.561739154160022735595703125</LatitudeDegrees>
              <LongitudeDegrees>20.63932889141142368316650390625</LongitudeDegrees>
            </Position>
            <AltitudeMeters>312</AltitudeMeters>
            <DistanceMeters>NAN</DistanceMeters>
          </Trackpoint>
          <Trackpoint>
            <Time>2022-09-23T09:51:04.000Z</Time>
            <Position>
              <LatitudeDegrees>49.56173068843781948089599609375</LatitudeDegrees>
              <LongitudeDegrees>20.63929016701877117156982421875</LongitudeDegrees>
            </Position>
            <AltitudeMeters>312.20001220703125</AltitudeMeters>
            <DistanceMeters>NAN</DistanceMeters>
          </Trackpoint>
          <Trackpoint>
            <Time>2022-09-23T09:51:06.000Z</Time>
            <Position>
              <LatitudeDegrees>49.56172800622880458831787109375</LatitudeDegrees>
              <LongitudeDegrees>20.63926585949957370758056640625</LongitudeDegrees>
            </Position>
            <AltitudeMeters>312.600006103515625</AltitudeMeters>
            <DistanceMeters>NAN</DistanceMeters>
          </Trackpoint>
          <Trackpoint>
            <Time>2022-09-23T09:51:08.000Z</Time>
            <Position>
              <LatitudeDegrees>49.56172473728656768798828125</LatitudeDegrees>
              <LongitudeDegrees>20.63924968242645263671875</LongitudeDegrees>
            </Position>
            <AltitudeMeters>312.600006103515625</AltitudeMeters>
            <DistanceMeters>NAN</DistanceMeters>
          </Trackpoint>
          <Trackpoint>
            <Time>2022-09-23T09:51:12.000Z</Time>
            <Position>
              <LatitudeDegrees>49.56171291880309581756591796875</LatitudeDegrees>
              <LongitudeDegrees>20.6392421387135982513427734375</LongitudeDegrees>
            </Position>
            <AltitudeMeters>313.20001220703125</AltitudeMeters>
            <DistanceMeters>NAN</DistanceMeters>
          </Trackpoint>
          <Trackpoint>
            <Time>2022-09-23T09:51:16.000Z</Time>
            <Position>
              <LatitudeDegrees>49.5616974122822284698486328125</LatitudeDegrees>
              <LongitudeDegrees>20.63921372406184673309326171875</LongitudeDegrees>
            </Position>
            <AltitudeMeters>313.600006103515625</AltitudeMeters>
            <DistanceMeters>NAN</DistanceMeters>
          </Trackpoint>
          <Trackpoint>
            <Time>2022-09-23T09:51:19.000Z</Time>
            <Position>
              <LatitudeDegrees>49.5616974122822284698486328125</LatitudeDegrees>
              <LongitudeDegrees>20.63921372406184673309326171875</LongitudeDegrees>
            </Position>
            <AltitudeMeters>313.79998779296875</AltitudeMeters>
            <DistanceMeters>NAN</DistanceMeters>
          </Trackpoint>
          <Trackpoint>
            <Time>2022-09-23T09:51:26.000Z</Time>
            <Position>
              <LatitudeDegrees>49.5616967417299747467041015625</LatitudeDegrees>
              <LongitudeDegrees>20.63921204768121242523193359375</LongitudeDegrees>
            </Position>
            <AltitudeMeters>314</AltitudeMeters>
            <DistanceMeters>NAN</DistanceMeters>
          </Trackpoint>
          <Trackpoint>
            <Time>2022-09-23T09:51:33.000Z</Time>
            <Position>
              <LatitudeDegrees>49.561692886054515838623046875</LatitudeDegrees>
              <LongitudeDegrees>20.639204084873199462890625</LongitudeDegrees>
            </Position>
            <AltitudeMeters>314.600006103515625</AltitudeMeters>
            <DistanceMeters>NAN</DistanceMeters>
          </Trackpoint>
          <Trackpoint>
            <Time>2022-09-23T09:51:39.000Z</Time>
            <Position>
              <LatitudeDegrees>49.561657346785068511962890625</LatitudeDegrees>
              <LongitudeDegrees>20.63910844735801219940185546875</LongitudeDegrees>
            </Position>
            <AltitudeMeters>315.399993896484375</AltitudeMeters>
            <DistanceMeters>NAN</DistanceMeters>
          </Trackpoint>
          <Trackpoint>
            <Time>2022-09-23T09:51:41.000Z</Time>
            <Position>
              <LatitudeDegrees>49.561643265187740325927734375</LatitudeDegrees>
              <LongitudeDegrees>20.63908564858138561248779296875</LongitudeDegrees>
            </Position>
            <AltitudeMeters>315.600006103515625</AltitudeMeters>
            <DistanceMeters>NAN</DistanceMeters>
          </Trackpoint>
          <Trackpoint>
            <Time>2022-09-23T09:51:42.000Z</Time>
            <Position>
              <LatitudeDegrees>49.5616387389600276947021484375</LatitudeDegrees>
              <LongitudeDegrees>20.639072991907596588134765625</LongitudeDegrees>
            </Position>
            <AltitudeMeters>315.600006103515625</AltitudeMeters>
            <DistanceMeters>NAN</DistanceMeters>
          </Trackpoint>
          <Trackpoint>
            <Time>2022-09-23T09:51:47.000Z</Time>
            <Position>
              <LatitudeDegrees>49.5616303570568561553955078125</LatitudeDegrees>
              <LongitudeDegrees>20.63905999995768070220947265625</LongitudeDegrees>
            </Position>
            <AltitudeMeters>316.20001220703125</AltitudeMeters>
            <DistanceMeters>NAN</DistanceMeters>
          </Trackpoint>
          <Trackpoint>
            <Time>2022-09-23T09:51:50.000Z</Time>
            <Position>
              <LatitudeDegrees>49.56159221939742565155029296875</LatitudeDegrees>
              <LongitudeDegrees>20.63899545930325984954833984375</LongitudeDegrees>
            </Position>
            <AltitudeMeters>316.399993896484375</AltitudeMeters>
            <DistanceMeters>NAN</DistanceMeters>
          </Trackpoint>
          <Trackpoint>
            <Time>2022-09-23T09:51:52.000Z</Time>
            <Position>
              <LatitudeDegrees>49.561579562723636627197265625</LatitudeDegrees>
              <LongitudeDegrees>20.63897215761244297027587890625</LongitudeDegrees>
            </Position>
            <AltitudeMeters>316.79998779296875</AltitudeMeters>
            <DistanceMeters>NAN</DistanceMeters>
          </Trackpoint>
          <Trackpoint>
            <Time>2022-09-23T09:51:59.000Z</Time>
            <Position>
              <LatitudeDegrees>49.56157319247722625732421875</LatitudeDegrees>
              <LongitudeDegrees>20.638869814574718475341796875</LongitudeDegrees>
            </Position>
            <AltitudeMeters>317.399993896484375</AltitudeMeters>
            <DistanceMeters>NAN</DistanceMeters>
          </Trackpoint>
          <Trackpoint>
            <Time>2022-09-23T09:52:01.000Z</Time>
            <Position>
              <LatitudeDegrees>49.5615599490702152252197265625</LatitudeDegrees>
              <LongitudeDegrees>20.63884106464684009552001953125</LongitudeDegrees>
            </Position>
            <AltitudeMeters>317.79998779296875</AltitudeMeters>
            <DistanceMeters>NAN</DistanceMeters>
          </Trackpoint>
          <Trackpoint>
            <Time>2022-09-23T09:52:07.000Z</Time>
            <Position>
              <LatitudeDegrees>49.56153991632163524627685546875</LatitudeDegrees>
              <LongitudeDegrees>20.63870796002447605133056640625</LongitudeDegrees>
            </Position>
            <AltitudeMeters>318.20001220703125</AltitudeMeters>
            <DistanceMeters>NAN</DistanceMeters>
          </Trackpoint>
          <Trackpoint>
            <Time>2022-09-23T09:52:12.000Z</Time>
            <Position>
              <LatitudeDegrees>49.5615458674728870391845703125</LatitudeDegrees>
              <LongitudeDegrees>20.63862539827823638916015625</LongitudeDegrees>
            </Position>
            <AltitudeMeters>318.79998779296875</AltitudeMeters>
            <DistanceMeters>NAN</DistanceMeters>
          </Trackpoint>
          <Trackpoint>
            <Time>2022-09-23T09:52:14.000Z</Time>
            <Position>
              <LatitudeDegrees>49.56154645420610904693603515625</LatitudeDegrees>
              <LongitudeDegrees>20.6386074610054492950439453125</LongitudeDegrees>
            </Position>
            <AltitudeMeters>319.20001220703125</AltitudeMeters>
            <DistanceMeters>NAN</DistanceMeters>
          </Trackpoint>
          <Trackpoint>
            <Time>2022-09-23T09:52:19.000Z</Time>
            <Position>
              <LatitudeDegrees>49.56155165098607540130615234375</LatitudeDegrees>
              <LongitudeDegrees>20.63856773078441619873046875</LongitudeDegrees>
            </Position>
            <AltitudeMeters>319.600006103515625</AltitudeMeters>
            <DistanceMeters>NAN</DistanceMeters>
          </Trackpoint>
          <Trackpoint>
            <Time>2022-09-23T09:52:22.000Z</Time>
            <Position>
              <LatitudeDegrees>49.56156137399375438690185546875</LatitudeDegrees>
              <LongitudeDegrees>20.638541914522647857666015625</LongitudeDegrees>
            </Position>
            <AltitudeMeters>319.79998779296875</AltitudeMeters>
            <DistanceMeters>NAN</DistanceMeters>
          </Trackpoint>
          <Trackpoint>
            <Time>2022-09-23T09:52:23.000Z</Time>
            <Position>
              <LatitudeDegrees>49.561566151678562164306640625</LatitudeDegrees>
              <LongitudeDegrees>20.6385377235710620880126953125</LongitudeDegrees>
            </Position>
            <AltitudeMeters>320</AltitudeMeters>
            <DistanceMeters>NAN</DistanceMeters>
          </Trackpoint>
          <Trackpoint>
            <Time>2022-09-23T09:52:26.000Z</Time>
            <Position>
              <LatitudeDegrees>49.5615832507610321044921875</LatitudeDegrees>
              <LongitudeDegrees>20.63850863836705684661865234375</LongitudeDegrees>
            </Position>
            <AltitudeMeters>320.20001220703125</AltitudeMeters>
            <DistanceMeters>NAN</DistanceMeters>
          </Trackpoint>
          <Trackpoint>
            <Time>2022-09-23T09:52:34.000Z</Time>
            <Position>
              <LatitudeDegrees>49.56158953718841075897216796875</LatitudeDegrees>
              <LongitudeDegrees>20.63844577409327030181884765625</LongitudeDegrees>
            </Position>
            <AltitudeMeters>320.79998779296875</AltitudeMeters>
            <DistanceMeters>NAN</DistanceMeters>
          </Trackpoint>
          <Trackpoint>
            <Time>2022-09-23T09:52:37.000Z</Time>
            <Position>
              <LatitudeDegrees>49.56158953718841075897216796875</LatitudeDegrees>
              <LongitudeDegrees>20.63844577409327030181884765625</LongitudeDegrees>
            </Position>
            <AltitudeMeters>321</AltitudeMeters>
            <DistanceMeters>NAN</DistanceMeters>
          </Trackpoint>
          <Trackpoint>
            <Time>2022-09-23T09:52:41.000Z</Time>
            <Position>
              <LatitudeDegrees>49.56159976311028003692626953125</LatitudeDegrees>
              <LongitudeDegrees>20.6384181976318359375</LongitudeDegrees>
            </Position>
            <AltitudeMeters>320.79998779296875</AltitudeMeters>
            <DistanceMeters>NAN</DistanceMeters>
          </Trackpoint>
          <Trackpoint>
            <Time>2022-09-23T09:52:43.000Z</Time>
            <Position>
              <LatitudeDegrees>49.56161719746887683868408203125</LatitudeDegrees>
              <LongitudeDegrees>20.63838508911430835723876953125</LongitudeDegrees>
            </Position>
            <AltitudeMeters>320.79998779296875</AltitudeMeters>
            <DistanceMeters>NAN</DistanceMeters>
          </Trackpoint>
          <Trackpoint>
            <Time>2022-09-23T09:52:48.000Z</Time>
            <Position>
              <LatitudeDegrees>49.5616886951029300689697265625</LatitudeDegrees>
              <LongitudeDegrees>20.6382532417774200439453125</LongitudeDegrees>
            </Position>
            <AltitudeMeters>321</AltitudeMeters>
            <DistanceMeters>NAN</DistanceMeters>
          </Trackpoint>
          <Trackpoint>
            <Time>2022-09-23T09:52:51.000Z</Time>
            <Position>
              <LatitudeDegrees>49.5617255754768848419189453125</LatitudeDegrees>
              <LongitudeDegrees>20.63818878494203090667724609375</LongitudeDegrees>
            </Position>
            <AltitudeMeters>321</AltitudeMeters>
            <DistanceMeters>NAN</DistanceMeters>
          </Trackpoint>
          <Trackpoint>
            <Time>2022-09-23T09:52:54.000Z</Time>
            <Position>
              <LatitudeDegrees>49.56177494488656520843505859375</LatitudeDegrees>
              <LongitudeDegrees>20.63813631422817707061767578125</LongitudeDegrees>
            </Position>
            <AltitudeMeters>321</AltitudeMeters>
            <DistanceMeters>NAN</DistanceMeters>
          </Trackpoint>
          <Trackpoint>
            <Time>2022-09-23T09:52:55.000Z</Time>
            <Position>
              <LatitudeDegrees>49.561796486377716064453125</LatitudeDegrees>
              <LongitudeDegrees>20.638120472431182861328125</LongitudeDegrees>
            </Position>
            <AltitudeMeters>321</AltitudeMeters>
            <DistanceMeters>NAN</DistanceMeters>
          </Trackpoint>
          <Trackpoint>
            <Time>2022-09-23T09:52:58.000Z</Time>
            <Position>
              <LatitudeDegrees>49.56186312250792980194091796875</LatitudeDegrees>
              <LongitudeDegrees>20.6381057202816009521484375</LongitudeDegrees>
            </Position>
            <AltitudeMeters>321</AltitudeMeters>
            <DistanceMeters>NAN</DistanceMeters>
          </Trackpoint>
          <Trackpoint>
            <Time>2022-09-23T09:53:03.000Z</Time>
            <Position>
              <LatitudeDegrees>49.56200234591960906982421875</LatitudeDegrees>
              <LongitudeDegrees>20.638028942048549652099609375</LongitudeDegrees>
            </Position>
            <AltitudeMeters>321</AltitudeMeters>
            <DistanceMeters>NAN</DistanceMeters>
          </Trackpoint>
          <Trackpoint>
            <Time>2022-09-23T09:53:09.000Z</Time>
            <Position>
              <LatitudeDegrees>49.56215967424213886260986328125</LatitudeDegrees>
              <LongitudeDegrees>20.6379536725580692291259765625</LongitudeDegrees>
            </Position>
            <AltitudeMeters>320.600006103515625</AltitudeMeters>
            <DistanceMeters>NAN</DistanceMeters>
          </Trackpoint>
          <Trackpoint>
            <Time>2022-09-23T09:53:15.000Z</Time>
            <Position>
              <LatitudeDegrees>49.56230887211859226226806640625</LatitudeDegrees>
              <LongitudeDegrees>20.63787278719246387481689453125</LongitudeDegrees>
            </Position>
            <AltitudeMeters>320.399993896484375</AltitudeMeters>
            <DistanceMeters>NAN</DistanceMeters>
          </Trackpoint>
          <Trackpoint>
            <Time>2022-09-23T09:53:16.000Z</Time>
            <Position>
              <LatitudeDegrees>49.56234273500740528106689453125</LatitudeDegrees>
              <LongitudeDegrees>20.63786407001316547393798828125</LongitudeDegrees>
            </Position>
            <AltitudeMeters>320.399993896484375</AltitudeMeters>
            <DistanceMeters>NAN</DistanceMeters>
          </Trackpoint>
          <Trackpoint>
            <Time>2022-09-23T09:53:19.000Z</Time>
            <Position>
              <LatitudeDegrees>49.5624353550374507904052734375</LatitudeDegrees>
              <LongitudeDegrees>20.6377865374088287353515625</LongitudeDegrees>
            </Position>
            <AltitudeMeters>320.20001220703125</AltitudeMeters>
            <DistanceMeters>NAN</DistanceMeters>
          </Trackpoint>
          <Trackpoint>
            <Time>2022-09-23T09:53:22.000Z</Time>
            <Position>
              <LatitudeDegrees>49.56251456402242183685302734375</LatitudeDegrees>
              <LongitudeDegrees>20.6376980245113372802734375</LongitudeDegrees>
            </Position>
            <AltitudeMeters>319.79998779296875</AltitudeMeters>
            <DistanceMeters>NAN</DistanceMeters>
          </Trackpoint>
          <Trackpoint>
            <Time>2022-09-23T09:53:25.000Z</Time>
            <Position>
              <LatitudeDegrees>49.5625684596598148345947265625</LatitudeDegrees>
              <LongitudeDegrees>20.63761261291801929473876953125</LongitudeDegrees>
            </Position>
            <AltitudeMeters>319.600006103515625</AltitudeMeters>
            <DistanceMeters>NAN</DistanceMeters>
          </Trackpoint>
          <Trackpoint>
            <Time>2022-09-23T09:53:30.000Z</Time>
            <Position>
              <LatitudeDegrees>49.562659822404384613037109375</LatitudeDegrees>
              <LongitudeDegrees>20.6375536881387233734130859375</LongitudeDegrees>
            </Position>
            <AltitudeMeters>319.399993896484375</AltitudeMeters>
            <DistanceMeters>NAN</DistanceMeters>
          </Trackpoint>
          <Trackpoint>
            <Time>2022-09-23T09:53:31.000Z</Time>
            <Position>
              <LatitudeDegrees>49.5626791007816791534423828125</LatitudeDegrees>
              <LongitudeDegrees>20.63755796290934085845947265625</LongitudeDegrees>
            </Position>
            <AltitudeMeters>319.399993896484375</AltitudeMeters>
            <DistanceMeters>NAN</DistanceMeters>
          </Trackpoint>
          <Trackpoint>
            <Time>2022-09-23T09:53:33.000Z</Time>
            <Position>
              <LatitudeDegrees>49.5627062581479549407958984375</LatitudeDegrees>
              <LongitudeDegrees>20.63761956989765167236328125</LongitudeDegrees>
            </Position>
            <AltitudeMeters>319.399993896484375</AltitudeMeters>
            <DistanceMeters>NAN</DistanceMeters>
          </Trackpoint>
          <Trackpoint>
            <Time>2022-09-23T09:53:40.000Z</Time>
            <Position>
              <LatitudeDegrees>49.56275738775730133056640625</LatitudeDegrees>
              <LongitudeDegrees>20.637788884341716766357421875</LongitudeDegrees>
            </Position>
            <AltitudeMeters>319.399993896484375</AltitudeMeters>
            <DistanceMeters>NAN</DistanceMeters>
          </Trackpoint>
          <Trackpoint>
            <Time>2022-09-23T09:53:45.000Z</Time>
            <Position>
              <LatitudeDegrees>49.5627568848431110382080078125</LatitudeDegrees>
              <LongitudeDegrees>20.63779299147427082061767578125</LongitudeDegrees>
            </Position>
            <AltitudeMeters>319.600006103515625</AltitudeMeters>
            <DistanceMeters>NAN</DistanceMeters>
          </Trackpoint>
          <Trackpoint>
            <Time>2022-09-23T09:53:54.000Z</Time>
            <Position>
              <LatitudeDegrees>49.5627568848431110382080078125</LatitudeDegrees>
              <LongitudeDegrees>20.63779299147427082061767578125</LongitudeDegrees>
            </Position>
            <AltitudeMeters>319.79998779296875</AltitudeMeters>
            <DistanceMeters>NAN</DistanceMeters>
          </Trackpoint>
          <Trackpoint>
            <Time>2022-09-23T09:54:13.000Z</Time>
            <Position>
              <LatitudeDegrees>49.5627568848431110382080078125</LatitudeDegrees>
              <LongitudeDegrees>20.63779299147427082061767578125</LongitudeDegrees>
            </Position>
            <AltitudeMeters>319.79998779296875</AltitudeMeters>
            <DistanceMeters>NAN</DistanceMeters>
          </Trackpoint>
          <Trackpoint>
            <Time>2022-09-23T09:54:32.000Z</Time>
            <Position>
              <LatitudeDegrees>49.5627568848431110382080078125</LatitudeDegrees>
              <LongitudeDegrees>20.63779299147427082061767578125</LongitudeDegrees>
            </Position>
            <AltitudeMeters>319.600006103515625</AltitudeMeters>
            <DistanceMeters>NAN</DistanceMeters>
          </Trackpoint>
          <Trackpoint>
            <Time>2022-09-23T09:54:33.000Z</Time>
            <Position>
              <LatitudeDegrees>49.5627568848431110382080078125</LatitudeDegrees>
              <LongitudeDegrees>20.63779299147427082061767578125</LongitudeDegrees>
            </Position>
            <AltitudeMeters>319.79998779296875</AltitudeMeters>
            <DistanceMeters>NAN</DistanceMeters>
          </Trackpoint>
          <Trackpoint>
            <Time>2022-09-23T09:54:37.000Z</Time>
            <Position>
              <LatitudeDegrees>49.562757723033428192138671875</LatitudeDegrees>
              <LongitudeDegrees>20.6377947516739368438720703125</LongitudeDegrees>
            </Position>
            <AltitudeMeters>319.600006103515625</AltitudeMeters>
            <DistanceMeters>NAN</DistanceMeters>
          </Trackpoint>
          <Trackpoint>
            <Time>2022-09-23T09:54:39.000Z</Time>
            <Position>
              <LatitudeDegrees>49.5627599023282527923583984375</LatitudeDegrees>
              <LongitudeDegrees>20.6378359906375408172607421875</LongitudeDegrees>
            </Position>
            <AltitudeMeters>319.600006103515625</AltitudeMeters>
            <DistanceMeters>NAN</DistanceMeters>
          </Trackpoint>
          <Trackpoint>
            <Time>2022-09-23T09:54:40.000Z</Time>
            <Position>
              <LatitudeDegrees>49.56276183016598224639892578125</LatitudeDegrees>
              <LongitudeDegrees>20.63786189071834087371826171875</LongitudeDegrees>
            </Position>
            <AltitudeMeters>319.600006103515625</AltitudeMeters>
            <DistanceMeters>NAN</DistanceMeters>
          </Trackpoint>
          <Trackpoint>
            <Time>2022-09-23T09:54:46.000Z</Time>
            <Position>
              <LatitudeDegrees>49.56276518292725086212158203125</LatitudeDegrees>
              <LongitudeDegrees>20.6380448676645755767822265625</LongitudeDegrees>
            </Position>
            <AltitudeMeters>319.600006103515625</AltitudeMeters>
            <DistanceMeters>NAN</DistanceMeters>
          </Trackpoint>
          <Trackpoint>
            <Time>2022-09-23T09:54:49.000Z</Time>
            <Position>
              <LatitudeDegrees>49.56279695034027099609375</LatitudeDegrees>
              <LongitudeDegrees>20.63814570195972919464111328125</LongitudeDegrees>
            </Position>
            <AltitudeMeters>319.79998779296875</AltitudeMeters>
            <DistanceMeters>NAN</DistanceMeters>
          </Trackpoint>
          <Trackpoint>
            <Time>2022-09-23T09:54:51.000Z</Time>
            <Position>
              <LatitudeDegrees>49.56279871053993701934814453125</LatitudeDegrees>
              <LongitudeDegrees>20.6382103264331817626953125</LongitudeDegrees>
            </Position>
            <AltitudeMeters>320</AltitudeMeters>
            <DistanceMeters>NAN</DistanceMeters>
          </Trackpoint>
          <Trackpoint>
            <Time>2022-09-23T09:54:54.000Z</Time>
            <Position>
              <LatitudeDegrees>49.5628071762621402740478515625</LatitudeDegrees>
              <LongitudeDegrees>20.63828869722783565521240234375</LongitudeDegrees>
            </Position>
            <AltitudeMeters>320.20001220703125</AltitudeMeters>
            <DistanceMeters>NAN</DistanceMeters>
          </Trackpoint>
          <Trackpoint>
            <Time>2022-09-23T09:54:56.000Z</Time>
            <Position>
              <LatitudeDegrees>49.5628061704337596893310546875</LatitudeDegrees>
              <LongitudeDegrees>20.638297498226165771484375</LongitudeDegrees>
            </Position>
            <AltitudeMeters>320.20001220703125</AltitudeMeters>
            <DistanceMeters>NAN</DistanceMeters>
          </Trackpoint>
          <Trackpoint>
            <Time>2022-09-23T09:55:05.000Z</Time>
            <Position>
              <LatitudeDegrees>49.562810361385345458984375</LatitudeDegrees>
              <LongitudeDegrees>20.63833463005721569061279296875</LongitudeDegrees>
            </Position>
            <AltitudeMeters>320</AltitudeMeters>
            <DistanceMeters>NAN</DistanceMeters>
          </Trackpoint>
          <Trackpoint>
            <Time>2022-09-23T09:55:12.000Z</Time>
            <Position>
              <LatitudeDegrees>49.56281061284244060516357421875</LatitudeDegrees>
              <LongitudeDegrees>20.63834938220679759979248046875</LongitudeDegrees>
            </Position>
            <AltitudeMeters>320</AltitudeMeters>
            <DistanceMeters>NAN</DistanceMeters>
          </Trackpoint>
          <Trackpoint>
            <Time>2022-09-23T09:56:46.000Z</Time>
            <Position>
              <LatitudeDegrees>49.56294069997966289520263671875</LatitudeDegrees>
              <LongitudeDegrees>20.63879035413265228271484375</LongitudeDegrees>
            </Position>
            <AltitudeMeters>320</AltitudeMeters>
            <DistanceMeters>NAN</DistanceMeters>
          </Trackpoint>
          <Trackpoint>
            <Time>2022-09-23T09:56:47.000Z</Time>
            <Position>
              <LatitudeDegrees>49.562897197902202606201171875</LatitudeDegrees>
              <LongitudeDegrees>20.6387992389500141143798828125</LongitudeDegrees>
            </Position>
            <AltitudeMeters>320</AltitudeMeters>
            <DistanceMeters>NAN</DistanceMeters>
          </Trackpoint>
          <Trackpoint>
            <Time>2022-09-23T09:56:53.000Z</Time>
            <Position>
              <LatitudeDegrees>49.5628420449793338775634765625</LatitudeDegrees>
              <LongitudeDegrees>20.6388046033680438995361328125</LongitudeDegrees>
            </Position>
            <AltitudeMeters>320</AltitudeMeters>
            <DistanceMeters>NAN</DistanceMeters>
          </Trackpoint>
          <Trackpoint>
            <Time>2022-09-23T09:57:11.000Z</Time>
            <Position>
              <LatitudeDegrees>49.56283257342875003814697265625</LatitudeDegrees>
              <LongitudeDegrees>20.637976638972759246826171875</LongitudeDegrees>
            </Position>
            <AltitudeMeters>320</AltitudeMeters>
            <DistanceMeters>NAN</DistanceMeters>
          </Trackpoint>
          <Trackpoint>
            <Time>2022-09-23T09:57:14.000Z</Time>
            <Position>
              <LatitudeDegrees>49.562769122421741485595703125</LatitudeDegrees>
              <LongitudeDegrees>20.63803506083786487579345703125</LongitudeDegrees>
            </Position>
            <AltitudeMeters>320</AltitudeMeters>
            <DistanceMeters>NAN</DistanceMeters>
          </Trackpoint>
          <Trackpoint>
            <Time>2022-09-23T09:57:15.000Z</Time>
            <Position>
              <LatitudeDegrees>49.5627902448177337646484375</LatitudeDegrees>
              <LongitudeDegrees>20.6381156109273433685302734375</LongitudeDegrees>
            </Position>
            <AltitudeMeters>320</AltitudeMeters>
            <DistanceMeters>NAN</DistanceMeters>
          </Trackpoint>
          <Trackpoint>
            <Time>2022-09-23T09:57:16.000Z</Time>
            <Position>
              <LatitudeDegrees>49.5628212578594684600830078125</LatitudeDegrees>
              <LongitudeDegrees>20.63822315074503421783447265625</LongitudeDegrees>
            </Position>
            <AltitudeMeters>320</AltitudeMeters>
            <DistanceMeters>NAN</DistanceMeters>
          </Trackpoint>
          <Trackpoint>
            <Time>2022-09-23T09:57:17.000Z</Time>
            <Position>
              <LatitudeDegrees>49.5628417097032070159912109375</LatitudeDegrees>
              <LongitudeDegrees>20.638295821845531463623046875</LongitudeDegrees>
            </Position>
            <AltitudeMeters>320</AltitudeMeters>
            <DistanceMeters>NAN</DistanceMeters>
          </Trackpoint>
          <Trackpoint>
            <Time>2022-09-23T09:57:19.000Z</Time>
            <Position>
              <LatitudeDegrees>49.56288504414260387420654296875</LatitudeDegrees>
              <LongitudeDegrees>20.6384150125086307525634765625</LongitudeDegrees>
            </Position>
            <AltitudeMeters>320</AltitudeMeters>
            <DistanceMeters>NAN</DistanceMeters>
          </Trackpoint>
          <Trackpoint>
            <Time>2022-09-23T09:57:20.000Z</Time>
            <Position>
              <LatitudeDegrees>49.56289258785545825958251953125</LatitudeDegrees>
              <LongitudeDegrees>20.638419203460216522216796875</LongitudeDegrees>
            </Position>
            <AltitudeMeters>320</AltitudeMeters>
            <DistanceMeters>NAN</DistanceMeters>
          </Trackpoint>
          <Trackpoint>
            <Time>2022-09-23T09:57:21.000Z</Time>
            <Position>
              <LatitudeDegrees>49.5628745667636394500732421875</LatitudeDegrees>
              <LongitudeDegrees>20.63839766196906566619873046875</LongitudeDegrees>
            </Position>
            <AltitudeMeters>320.20001220703125</AltitudeMeters>
            <DistanceMeters>NAN</DistanceMeters>
          </Trackpoint>
          <Trackpoint>
            <Time>2022-09-23T09:57:30.000Z</Time>
            <Position>
              <LatitudeDegrees>49.5627954415977001190185546875</LatitudeDegrees>
              <LongitudeDegrees>20.6385055370628833770751953125</LongitudeDegrees>
            </Position>
            <AltitudeMeters>320.20001220703125</AltitudeMeters>
            <DistanceMeters>NAN</DistanceMeters>
          </Trackpoint>
          <Trackpoint>
            <Time>2022-09-23T09:57:33.000Z</Time>
            <Position>
              <LatitudeDegrees>49.56288370303809642791748046875</LatitudeDegrees>
              <LongitudeDegrees>20.63870343379676342010498046875</LongitudeDegrees>
            </Position>
            <AltitudeMeters>320.20001220703125</AltitudeMeters>
            <DistanceMeters>NAN</DistanceMeters>
          </Trackpoint>
          <Trackpoint>
            <Time>2022-09-23T09:57:34.000Z</Time>
            <Position>
              <LatitudeDegrees>49.56286442466080188751220703125</LatitudeDegrees>
              <LongitudeDegrees>20.63870544545352458953857421875</LongitudeDegrees>
            </Position>
            <AltitudeMeters>320.20001220703125</AltitudeMeters>
            <DistanceMeters>NAN</DistanceMeters>
          </Trackpoint>
          <Trackpoint>
            <Time>2022-09-23T09:57:39.000Z</Time>
            <Position>
              <LatitudeDegrees>49.56279896199703216552734375</LatitudeDegrees>
              <LongitudeDegrees>20.63848198391497135162353515625</LongitudeDegrees>
            </Position>
            <AltitudeMeters>320.20001220703125</AltitudeMeters>
            <DistanceMeters>NAN</DistanceMeters>
          </Trackpoint>
          <Trackpoint>
            <Time>2022-09-23T09:57:42.000Z</Time>
            <Position>
              <LatitudeDegrees>49.56276250071823596954345703125</LatitudeDegrees>
              <LongitudeDegrees>20.63839531503617763519287109375</LongitudeDegrees>
            </Position>
            <AltitudeMeters>320.20001220703125</AltitudeMeters>
            <DistanceMeters>NAN</DistanceMeters>
          </Trackpoint>
          <Trackpoint>
            <Time>2022-09-23T09:57:47.000Z</Time>
            <Position>
              <LatitudeDegrees>49.56278496421873569488525390625</LatitudeDegrees>
              <LongitudeDegrees>20.638527162373065948486328125</LongitudeDegrees>
            </Position>
            <AltitudeMeters>320.20001220703125</AltitudeMeters>
            <DistanceMeters>NAN</DistanceMeters>
          </Trackpoint>
          <Trackpoint>
            <Time>2022-09-23T09:57:53.000Z</Time>
            <Position>
              <LatitudeDegrees>49.5628571324050426483154296875</LatitudeDegrees>
              <LongitudeDegrees>20.6386507116258144378662109375</LongitudeDegrees>
            </Position>
            <AltitudeMeters>320.20001220703125</AltitudeMeters>
            <DistanceMeters>NAN</DistanceMeters>
          </Trackpoint>
          <Trackpoint>
            <Time>2022-09-23T09:57:59.000Z</Time>
            <Position>
              <LatitudeDegrees>49.5628940127789974212646484375</LatitudeDegrees>
              <LongitudeDegrees>20.63873897306621074676513671875</LongitudeDegrees>
            </Position>
            <AltitudeMeters>320.20001220703125</AltitudeMeters>
            <DistanceMeters>NAN</DistanceMeters>
          </Trackpoint>
          <Trackpoint>
            <Time>2022-09-23T09:58:11.000Z</Time>
            <Position>
              <LatitudeDegrees>49.56286065280437469482421875</LatitudeDegrees>
              <LongitudeDegrees>20.63860385678708553314208984375</LongitudeDegrees>
            </Position>
            <AltitudeMeters>320.399993896484375</AltitudeMeters>
            <DistanceMeters>NAN</DistanceMeters>
          </Trackpoint>
          <Trackpoint>
            <Time>2022-09-23T09:58:12.000Z</Time>
            <Position>
              <LatitudeDegrees>49.5628588087856769561767578125</LatitudeDegrees>
              <LongitudeDegrees>20.638601593673229217529296875</LongitudeDegrees>
            </Position>
            <AltitudeMeters>320.20001220703125</AltitudeMeters>
            <DistanceMeters>NAN</DistanceMeters>
          </Trackpoint>
          <Trackpoint>
            <Time>2022-09-23T09:58:18.000Z</Time>
            <Position>
              <LatitudeDegrees>49.5629013888537883758544921875</LatitudeDegrees>
              <LongitudeDegrees>20.63850327394902706146240234375</LongitudeDegrees>
            </Position>
            <AltitudeMeters>320.399993896484375</AltitudeMeters>
            <DistanceMeters>NAN</DistanceMeters>
          </Trackpoint>
          <Trackpoint>
            <Time>2022-09-23T09:58:21.000Z</Time>
            <Position>
              <LatitudeDegrees>49.56289426423609256744384765625</LatitudeDegrees>
              <LongitudeDegrees>20.6384840793907642364501953125</LongitudeDegrees>
            </Position>
            <AltitudeMeters>320.399993896484375</AltitudeMeters>
            <DistanceMeters>NAN</DistanceMeters>
          </Trackpoint>
          <Trackpoint>
            <Time>2022-09-23T09:58:26.000Z</Time>
            <Position>
              <LatitudeDegrees>49.56294019706547260284423828125</LatitudeDegrees>
              <LongitudeDegrees>20.638374947011470794677734375</LongitudeDegrees>
            </Position>
            <AltitudeMeters>320.399993896484375</AltitudeMeters>
            <DistanceMeters>NAN</DistanceMeters>
          </Trackpoint>
          <Trackpoint>
            <Time>2022-09-23T09:58:27.000Z</Time>
            <Position>
              <LatitudeDegrees>49.56292930059134960174560546875</LatitudeDegrees>
              <LongitudeDegrees>20.63838140107691287994384765625</LongitudeDegrees>
            </Position>
            <AltitudeMeters>320.399993896484375</AltitudeMeters>
            <DistanceMeters>NAN</DistanceMeters>
          </Trackpoint>
          <Trackpoint>
            <Time>2022-09-23T09:58:29.000Z</Time>
            <Position>
              <LatitudeDegrees>49.56292779184877872467041015625</LatitudeDegrees>
              <LongitudeDegrees>20.63843219541013240814208984375</LongitudeDegrees>
            </Position>
            <AltitudeMeters>320.399993896484375</AltitudeMeters>
            <DistanceMeters>NAN</DistanceMeters>
          </Trackpoint>
          <Trackpoint>
            <Time>2022-09-23T09:58:30.000Z</Time>
            <Position>
              <LatitudeDegrees>49.56292745657265186309814453125</LatitudeDegrees>
              <LongitudeDegrees>20.63847108744084835052490234375</LongitudeDegrees>
            </Position>
            <AltitudeMeters>320.20001220703125</AltitudeMeters>
            <DistanceMeters>NAN</DistanceMeters>
          </Trackpoint>
          <Trackpoint>
            <Time>2022-09-23T09:58:31.000Z</Time>
            <Position>
              <LatitudeDegrees>49.5628733932971954345703125</LatitudeDegrees>
              <LongitudeDegrees>20.63848919235169887542724609375</LongitudeDegrees>
            </Position>
            <AltitudeMeters>320.20001220703125</AltitudeMeters>
            <DistanceMeters>NAN</DistanceMeters>
          </Trackpoint>
          <Trackpoint>
            <Time>2022-09-23T09:58:33.000Z</Time>
            <Position>
              <LatitudeDegrees>49.5628601498901844024658203125</LatitudeDegrees>
              <LongitudeDegrees>20.6385477818548679351806640625</LongitudeDegrees>
            </Position>
            <AltitudeMeters>320.20001220703125</AltitudeMeters>
            <DistanceMeters>NAN</DistanceMeters>
          </Trackpoint>
          <Trackpoint>
            <Time>2022-09-23T09:58:38.000Z</Time>
            <Position>
              <LatitudeDegrees>49.56282435916364192962646484375</LatitudeDegrees>
              <LongitudeDegrees>20.63857376575469970703125</LongitudeDegrees>
            </Position>
            <AltitudeMeters>320.20001220703125</AltitudeMeters>
            <DistanceMeters>NAN</DistanceMeters>
          </Trackpoint>
          <Trackpoint>
            <Time>2022-09-23T09:58:46.000Z</Time>
            <Position>
              <LatitudeDegrees>49.56288755871355533599853515625</LatitudeDegrees>
              <LongitudeDegrees>20.63862782903015613555908203125</LongitudeDegrees>
            </Position>
            <AltitudeMeters>320.20001220703125</AltitudeMeters>
            <DistanceMeters>NAN</DistanceMeters>
          </Trackpoint>
          <Trackpoint>
            <Time>2022-09-23T09:58:49.000Z</Time>
            <Position>
              <LatitudeDegrees>49.56290851347148418426513671875</LatitudeDegrees>
              <LongitudeDegrees>20.638801753520965576171875</LongitudeDegrees>
            </Position>
            <AltitudeMeters>320.20001220703125</AltitudeMeters>
            <DistanceMeters>NAN</DistanceMeters>
          </Trackpoint>
          <Trackpoint>
            <Time>2022-09-23T09:58:50.000Z</Time>
            <Position>
              <LatitudeDegrees>49.56287213601171970367431640625</LatitudeDegrees>
              <LongitudeDegrees>20.63871148042380809783935546875</LongitudeDegrees>
            </Position>
            <AltitudeMeters>320</AltitudeMeters>
            <DistanceMeters>NAN</DistanceMeters>
          </Trackpoint>
          <Trackpoint>
            <Time>2022-09-23T09:58:51.000Z</Time>
            <Position>
              <LatitudeDegrees>49.56283609382808208465576171875</LatitudeDegrees>
              <LongitudeDegrees>20.638679377734661102294921875</LongitudeDegrees>
            </Position>
            <AltitudeMeters>320</AltitudeMeters>
            <DistanceMeters>NAN</DistanceMeters>
          </Trackpoint>
          <Trackpoint>
            <Time>2022-09-23T09:58:58.000Z</Time>
            <Position>
              <LatitudeDegrees>49.562759064137935638427734375</LatitudeDegrees>
              <LongitudeDegrees>20.6385080516338348388671875</LongitudeDegrees>
            </Position>
            <AltitudeMeters>320.20001220703125</AltitudeMeters>
            <DistanceMeters>NAN</DistanceMeters>
          </Trackpoint>
          <Trackpoint>
            <Time>2022-09-23T09:59:01.000Z</Time>
            <Position>
              <LatitudeDegrees>49.5627585612237453460693359375</LatitudeDegrees>
              <LongitudeDegrees>20.6383405812084674835205078125</LongitudeDegrees>
            </Position>
            <AltitudeMeters>320.20001220703125</AltitudeMeters>
            <DistanceMeters>NAN</DistanceMeters>
          </Trackpoint>
          <Trackpoint>
            <Time>2022-09-23T09:59:05.000Z</Time>
            <Position>
              <LatitudeDegrees>49.56275663338601589202880859375</LatitudeDegrees>
              <LongitudeDegrees>20.638171099126338958740234375</LongitudeDegrees>
            </Position>
            <AltitudeMeters>320</AltitudeMeters>
            <DistanceMeters>NAN</DistanceMeters>
          </Trackpoint>
          <Trackpoint>
            <Time>2022-09-23T09:59:07.000Z</Time>
            <Position>
              <LatitudeDegrees>49.56274825148284435272216796875</LatitudeDegrees>
              <LongitudeDegrees>20.63808518461883068084716796875</LongitudeDegrees>
            </Position>
            <AltitudeMeters>319.79998779296875</AltitudeMeters>
            <DistanceMeters>NAN</DistanceMeters>
          </Trackpoint>
          <Trackpoint>
            <Time>2022-09-23T09:59:11.000Z</Time>
            <Position>
              <LatitudeDegrees>49.56273685209453105926513671875</LatitudeDegrees>
              <LongitudeDegrees>20.63792475499212741851806640625</LongitudeDegrees>
            </Position>
            <AltitudeMeters>319.399993896484375</AltitudeMeters>
            <DistanceMeters>NAN</DistanceMeters>
          </Trackpoint>
          <Trackpoint>
            <Time>2022-09-23T09:59:12.000Z</Time>
            <Position>
              <LatitudeDegrees>49.56273484043776988983154296875</LatitudeDegrees>
              <LongitudeDegrees>20.637884438037872314453125</LongitudeDegrees>
            </Position>
            <AltitudeMeters>319.20001220703125</AltitudeMeters>
            <DistanceMeters>NAN</DistanceMeters>
          </Trackpoint>
          <Trackpoint>
            <Time>2022-09-23T09:59:15.000Z</Time>
            <Position>
              <LatitudeDegrees>49.5627186633646488189697265625</LatitudeDegrees>
              <LongitudeDegrees>20.63776164315640926361083984375</LongitudeDegrees>
            </Position>
            <AltitudeMeters>319</AltitudeMeters>
            <DistanceMeters>NAN</DistanceMeters>
          </Trackpoint>
          <Trackpoint>
            <Time>2022-09-23T09:59:20.000Z</Time>
            <Position>
              <LatitudeDegrees>49.56269075162708759307861328125</LatitudeDegrees>
              <LongitudeDegrees>20.6375258602201938629150390625</LongitudeDegrees>
            </Position>
            <AltitudeMeters>319</AltitudeMeters>
            <DistanceMeters>NAN</DistanceMeters>
          </Trackpoint>
          <Trackpoint>
            <Time>2022-09-23T09:59:21.000Z</Time>
            <Position>
              <LatitudeDegrees>49.56269343383610248565673828125</LatitudeDegrees>
              <LongitudeDegrees>20.6374802626669406890869140625</LongitudeDegrees>
            </Position>
            <AltitudeMeters>318.79998779296875</AltitudeMeters>
            <DistanceMeters>NAN</DistanceMeters>
          </Trackpoint>
          <Trackpoint>
            <Time>2022-09-23T09:59:25.000Z</Time>
            <Position>
              <LatitudeDegrees>49.56269946880638599395751953125</LatitudeDegrees>
              <LongitudeDegrees>20.63738563098013401031494140625</LongitudeDegrees>
            </Position>
            <AltitudeMeters>319</AltitudeMeters>
            <DistanceMeters>NAN</DistanceMeters>
          </Trackpoint>
          <Trackpoint>
            <Time>2022-09-23T09:59:26.000Z</Time>
            <Position>
              <LatitudeDegrees>49.56270516850054264068603515625</LatitudeDegrees>
              <LongitudeDegrees>20.63737205229699611663818359375</LongitudeDegrees>
            </Position>
            <AltitudeMeters>319</AltitudeMeters>
            <DistanceMeters>NAN</DistanceMeters>
          </Trackpoint>
          <Trackpoint>
            <Time>2022-09-23T09:59:28.000Z</Time>
            <Position>
              <LatitudeDegrees>49.56271556206047534942626953125</LatitudeDegrees>
              <LongitudeDegrees>20.63733818940818309783935546875</LongitudeDegrees>
            </Position>
            <AltitudeMeters>319</AltitudeMeters>
            <DistanceMeters>NAN</DistanceMeters>
          </Trackpoint>
          <Trackpoint>
            <Time>2022-09-23T09:59:29.000Z</Time>
            <Position>
              <LatitudeDegrees>49.56270902417600154876708984375</LatitudeDegrees>
              <LongitudeDegrees>20.63731354661285877227783203125</LongitudeDegrees>
            </Position>
            <AltitudeMeters>319</AltitudeMeters>
            <DistanceMeters>NAN</DistanceMeters>
          </Trackpoint>
          <Trackpoint>
            <Time>2022-09-23T09:59:30.000Z</Time>
            <Position>
              <LatitudeDegrees>49.5627002231776714324951171875</LatitudeDegrees>
              <LongitudeDegrees>20.63729929737746715545654296875</LongitudeDegrees>
            </Position>
            <AltitudeMeters>319</AltitudeMeters>
            <DistanceMeters>NAN</DistanceMeters>
          </Trackpoint>
          <Trackpoint>
            <Time>2022-09-23T09:59:32.000Z</Time>
            <Position>
              <LatitudeDegrees>49.562674574553966522216796875</LatitudeDegrees>
              <LongitudeDegrees>20.63729343004524707794189453125</LongitudeDegrees>
            </Position>
            <AltitudeMeters>319.20001220703125</AltitudeMeters>
            <DistanceMeters>NAN</DistanceMeters>
          </Trackpoint>
          <Trackpoint>
            <Time>2022-09-23T09:59:34.000Z</Time>
            <Position>
              <LatitudeDegrees>49.56264314241707324981689453125</LatitudeDegrees>
              <LongitudeDegrees>20.63730935566127300262451171875</LongitudeDegrees>
            </Position>
            <AltitudeMeters>319.20001220703125</AltitudeMeters>
            <DistanceMeters>NAN</DistanceMeters>
          </Trackpoint>
          <Trackpoint>
            <Time>2022-09-23T09:59:36.000Z</Time>
            <Position>
              <LatitudeDegrees>49.56262118183076381683349609375</LatitudeDegrees>
              <LongitudeDegrees>20.6373273767530918121337890625</LongitudeDegrees>
            </Position>
            <AltitudeMeters>319.20001220703125</AltitudeMeters>
            <DistanceMeters>NAN</DistanceMeters>
          </Trackpoint>
          <Trackpoint>
            <Time>2022-09-23T09:59:39.000Z</Time>
            <Position>
              <LatitudeDegrees>49.56257633864879608154296875</LatitudeDegrees>
              <LongitudeDegrees>20.637351013720035552978515625</LongitudeDegrees>
            </Position>
            <AltitudeMeters>319.20001220703125</AltitudeMeters>
            <DistanceMeters>NAN</DistanceMeters>
          </Trackpoint>
          <Trackpoint>
            <Time>2022-09-23T09:59:40.000Z</Time>
            <Position>
              <LatitudeDegrees>49.5625624246895313262939453125</LatitudeDegrees>
              <LongitudeDegrees>20.63737255521118640899658203125</LongitudeDegrees>
            </Position>
            <AltitudeMeters>319.20001220703125</AltitudeMeters>
            <DistanceMeters>NAN</DistanceMeters>
          </Trackpoint>
          <Trackpoint>
            <Time>2022-09-23T09:59:43.000Z</Time>
            <Position>
              <LatitudeDegrees>49.56251808442175388336181640625</LatitudeDegrees>
              <LongitudeDegrees>20.63741999678313732147216796875</LongitudeDegrees>
            </Position>
            <AltitudeMeters>319.20001220703125</AltitudeMeters>
            <DistanceMeters>NAN</DistanceMeters>
          </Trackpoint>
          <Trackpoint>
            <Time>2022-09-23T09:59:45.000Z</Time>
            <Position>
              <LatitudeDegrees>49.562477767467498779296875</LatitudeDegrees>
              <LongitudeDegrees>20.63744111917912960052490234375</LongitudeDegrees>
            </Position>
            <AltitudeMeters>319.20001220703125</AltitudeMeters>
            <DistanceMeters>NAN</DistanceMeters>
          </Trackpoint>
          <Trackpoint>
            <Time>2022-09-23T09:59:47.000Z</Time>
            <Position>
              <LatitudeDegrees>49.56243258900940418243408203125</LatitudeDegrees>
              <LongitudeDegrees>20.63742938451468944549560546875</LongitudeDegrees>
            </Position>
            <AltitudeMeters>319.399993896484375</AltitudeMeters>
            <DistanceMeters>NAN</DistanceMeters>
          </Trackpoint>
          <Trackpoint>
            <Time>2022-09-23T09:59:48.000Z</Time>
            <Position>
              <LatitudeDegrees>49.56240744329988956451416015625</LatitudeDegrees>
              <LongitudeDegrees>20.6374088488519191741943359375</LongitudeDegrees>
            </Position>
            <AltitudeMeters>319.399993896484375</AltitudeMeters>
            <DistanceMeters>NAN</DistanceMeters>
          </Trackpoint>
          <Trackpoint>
            <Time>2022-09-23T09:59:51.000Z</Time>
            <Position>
              <LatitudeDegrees>49.5623361133038997650146484375</LatitudeDegrees>
              <LongitudeDegrees>20.6373666040599346160888671875</LongitudeDegrees>
            </Position>
            <AltitudeMeters>319.20001220703125</AltitudeMeters>
            <DistanceMeters>NAN</DistanceMeters>
          </Trackpoint>
          <Trackpoint>
            <Time>2022-09-23T09:59:54.000Z</Time>
            <Position>
              <LatitudeDegrees>49.5622606761753559112548828125</LatitudeDegrees>
              <LongitudeDegrees>20.6373008899390697479248046875</LongitudeDegrees>
            </Position>
            <AltitudeMeters>319</AltitudeMeters>
            <DistanceMeters>NAN</DistanceMeters>
          </Trackpoint>
          <Trackpoint>
            <Time>2022-09-23T09:59:55.000Z</Time>
            <Position>
              <LatitudeDegrees>49.56223905086517333984375</LatitudeDegrees>
              <LongitudeDegrees>20.63728555105626583099365234375</LongitudeDegrees>
            </Position>
            <AltitudeMeters>318.79998779296875</AltitudeMeters>
            <DistanceMeters>NAN</DistanceMeters>
          </Trackpoint>
          <Trackpoint>
            <Time>2022-09-23T09:59:59.000Z</Time>
            <Position>
              <LatitudeDegrees>49.5621473528444766998291015625</LatitudeDegrees>
              <LongitudeDegrees>20.637190081179141998291015625</LongitudeDegrees>
            </Position>
            <AltitudeMeters>318.79998779296875</AltitudeMeters>
            <DistanceMeters>NAN</DistanceMeters>
          </Trackpoint>
          <Trackpoint>
            <Time>2022-09-23T10:00:01.000Z</Time>
            <Position>
              <LatitudeDegrees>49.5621131546795368194580078125</LatitudeDegrees>
              <LongitudeDegrees>20.63713015057146549224853515625</LongitudeDegrees>
            </Position>
            <AltitudeMeters>319</AltitudeMeters>
            <DistanceMeters>NAN</DistanceMeters>
          </Trackpoint>
          <Trackpoint>
            <Time>2022-09-23T10:00:03.000Z</Time>
            <Position>
              <LatitudeDegrees>49.5620883442461490631103515625</LatitudeDegrees>
              <LongitudeDegrees>20.6370554678142070770263671875</LongitudeDegrees>
            </Position>
            <AltitudeMeters>319</AltitudeMeters>
            <DistanceMeters>NAN</DistanceMeters>
          </Trackpoint>
          <Trackpoint>
            <Time>2022-09-23T10:00:08.000Z</Time>
            <Position>
              <LatitudeDegrees>49.5620484463870525360107421875</LatitudeDegrees>
              <LongitudeDegrees>20.63683359883725643157958984375</LongitudeDegrees>
            </Position>
            <AltitudeMeters>319.20001220703125</AltitudeMeters>
            <DistanceMeters>NAN</DistanceMeters>
          </Trackpoint>
          <Trackpoint>
            <Time>2022-09-23T10:00:14.000Z</Time>
            <Position>
              <LatitudeDegrees>49.5620202831923961639404296875</LatitudeDegrees>
              <LongitudeDegrees>20.63666814006865024566650390625</LongitudeDegrees>
            </Position>
            <AltitudeMeters>319.600006103515625</AltitudeMeters>
            <DistanceMeters>NAN</DistanceMeters>
          </Trackpoint>
          <Trackpoint>
            <Time>2022-09-23T10:00:18.000Z</Time>
            <Position>
              <LatitudeDegrees>49.56202522851526737213134765625</LatitudeDegrees>
              <LongitudeDegrees>20.63663788139820098876953125</LongitudeDegrees>
            </Position>
            <AltitudeMeters>319.79998779296875</AltitudeMeters>
            <DistanceMeters>NAN</DistanceMeters>
          </Trackpoint>
          <Trackpoint>
            <Time>2022-09-23T10:00:21.000Z</Time>
            <Position>
              <LatitudeDegrees>49.56201852299273014068603515625</LatitudeDegrees>
              <LongitudeDegrees>20.63662187196314334869384765625</LongitudeDegrees>
            </Position>
            <AltitudeMeters>320</AltitudeMeters>
            <DistanceMeters>NAN</DistanceMeters>
          </Trackpoint>
          <Trackpoint>
            <Time>2022-09-23T10:00:22.000Z</Time>
            <Position>
              <LatitudeDegrees>49.5620122365653514862060546875</LatitudeDegrees>
              <LongitudeDegrees>20.63660209067165851593017578125</LongitudeDegrees>
            </Position>
            <AltitudeMeters>320</AltitudeMeters>
            <DistanceMeters>NAN</DistanceMeters>
          </Trackpoint>
          <Trackpoint>
            <Time>2022-09-23T10:00:24.000Z</Time>
            <Position>
              <LatitudeDegrees>49.5620048604905605316162109375</LatitudeDegrees>
              <LongitudeDegrees>20.63655766658484935760498046875</LongitudeDegrees>
            </Position>
            <AltitudeMeters>320</AltitudeMeters>
            <DistanceMeters>NAN</DistanceMeters>
          </Trackpoint>
          <Trackpoint>
            <Time>2022-09-23T10:00:31.000Z</Time>
            <Position>
              <LatitudeDegrees>49.561969153583049774169921875</LatitudeDegrees>
              <LongitudeDegrees>20.63633688725531101226806640625</LongitudeDegrees>
            </Position>
            <AltitudeMeters>320</AltitudeMeters>
            <DistanceMeters>NAN</DistanceMeters>
          </Trackpoint>
          <Trackpoint>
            <Time>2022-09-23T10:00:33.000Z</Time>
            <Position>
              <LatitudeDegrees>49.56196035258471965789794921875</LatitudeDegrees>
              <LongitudeDegrees>20.63627041876316070556640625</LongitudeDegrees>
            </Position>
            <AltitudeMeters>320</AltitudeMeters>
            <DistanceMeters>NAN</DistanceMeters>
          </Trackpoint>
          <Trackpoint>
            <Time>2022-09-23T10:00:34.000Z</Time>
            <Position>
              <LatitudeDegrees>49.5619555748999118804931640625</LatitudeDegrees>
              <LongitudeDegrees>20.63623596914112567901611328125</LongitudeDegrees>
            </Position>
            <AltitudeMeters>320</AltitudeMeters>
            <DistanceMeters>NAN</DistanceMeters>
          </Trackpoint>
          <Trackpoint>
            <Time>2022-09-23T10:00:39.000Z</Time>
            <Position>
              <LatitudeDegrees>49.56192380748689174652099609375</LatitudeDegrees>
              <LongitudeDegrees>20.6360593624413013458251953125</LongitudeDegrees>
            </Position>
            <AltitudeMeters>320</AltitudeMeters>
            <DistanceMeters>NAN</DistanceMeters>
          </Trackpoint>
          <Trackpoint>
            <Time>2022-09-23T10:00:46.000Z</Time>
            <Position>
              <LatitudeDegrees>49.56187670119106769561767578125</LatitudeDegrees>
              <LongitudeDegrees>20.6358488090336322784423828125</LongitudeDegrees>
            </Position>
            <AltitudeMeters>320</AltitudeMeters>
            <DistanceMeters>NAN</DistanceMeters>
          </Trackpoint>
          <Trackpoint>
            <Time>2022-09-23T10:00:49.000Z</Time>
            <Position>
              <LatitudeDegrees>49.56187452189624309539794921875</LatitudeDegrees>
              <LongitudeDegrees>20.63578317873179912567138671875</LongitudeDegrees>
            </Position>
            <AltitudeMeters>320.399993896484375</AltitudeMeters>
            <DistanceMeters>NAN</DistanceMeters>
          </Trackpoint>
          <Trackpoint>
            <Time>2022-09-23T10:00:51.000Z</Time>
            <Position>
              <LatitudeDegrees>49.561861865222454071044921875</LatitudeDegrees>
              <LongitudeDegrees>20.63573406077921390533447265625</LongitudeDegrees>
            </Position>
            <AltitudeMeters>320.399993896484375</AltitudeMeters>
            <DistanceMeters>NAN</DistanceMeters>
          </Trackpoint>
          <Trackpoint>
            <Time>2022-09-23T10:00:54.000Z</Time>
            <Position>
              <LatitudeDegrees>49.56183713860809803009033203125</LatitudeDegrees>
              <LongitudeDegrees>20.6356630660593509674072265625</LongitudeDegrees>
            </Position>
            <AltitudeMeters>320.600006103515625</AltitudeMeters>
            <DistanceMeters>NAN</DistanceMeters>
          </Trackpoint>
          <Trackpoint>
            <Time>2022-09-23T10:00:56.000Z</Time>
            <Position>
              <LatitudeDegrees>49.5618472807109355926513671875</LatitudeDegrees>
              <LongitudeDegrees>20.63560112379491329193115234375</LongitudeDegrees>
            </Position>
            <AltitudeMeters>320.600006103515625</AltitudeMeters>
            <DistanceMeters>NAN</DistanceMeters>
          </Trackpoint>
          <Trackpoint>
            <Time>2022-09-23T10:00:58.000Z</Time>
            <Position>
              <LatitudeDegrees>49.56185842864215373992919921875</LatitudeDegrees>
              <LongitudeDegrees>20.6355386786162853240966796875</LongitudeDegrees>
            </Position>
            <AltitudeMeters>320.600006103515625</AltitudeMeters>
            <DistanceMeters>NAN</DistanceMeters>
          </Trackpoint>
          <Trackpoint>
            <Time>2022-09-23T10:01:01.000Z</Time>
            <Position>
              <LatitudeDegrees>49.56190335564315319061279296875</LatitudeDegrees>
              <LongitudeDegrees>20.63549903221428394317626953125</LongitudeDegrees>
            </Position>
            <AltitudeMeters>320.79998779296875</AltitudeMeters>
            <DistanceMeters>NAN</DistanceMeters>
          </Trackpoint>
          <Trackpoint>
            <Time>2022-09-23T10:01:08.000Z</Time>
            <Position>
              <LatitudeDegrees>49.561983905732631683349609375</LatitudeDegrees>
              <LongitudeDegrees>20.635429210960865020751953125</LongitudeDegrees>
            </Position>
            <AltitudeMeters>320.600006103515625</AltitudeMeters>
            <DistanceMeters>NAN</DistanceMeters>
          </Trackpoint>
          <Trackpoint>
            <Time>2022-09-23T10:01:14.000Z</Time>
            <Position>
              <LatitudeDegrees>49.56210561096668243408203125</LatitudeDegrees>
              <LongitudeDegrees>20.63540004193782806396484375</LongitudeDegrees>
            </Position>
            <AltitudeMeters>320.600006103515625</AltitudeMeters>
            <DistanceMeters>NAN</DistanceMeters>
          </Trackpoint>
          <Trackpoint>
            <Time>2022-09-23T10:01:19.000Z</Time>
            <Position>
              <LatitudeDegrees>49.56224785186350345611572265625</LatitudeDegrees>
              <LongitudeDegrees>20.63537766225636005401611328125</LongitudeDegrees>
            </Position>
            <AltitudeMeters>320.600006103515625</AltitudeMeters>
            <DistanceMeters>NAN</DistanceMeters>
          </Trackpoint>
          <Trackpoint>
            <Time>2022-09-23T10:01:27.000Z</Time>
            <Position>
              <LatitudeDegrees>49.56245404668152332305908203125</LatitudeDegrees>
              <LongitudeDegrees>20.635320581495761871337890625</LongitudeDegrees>
            </Position>
            <AltitudeMeters>320.600006103515625</AltitudeMeters>
            <DistanceMeters>NAN</DistanceMeters>
          </Trackpoint>
          <Trackpoint>
            <Time>2022-09-23T10:01:34.000Z</Time>
            <Position>
              <LatitudeDegrees>49.5625929348170757293701171875</LatitudeDegrees>
              <LongitudeDegrees>20.6352989561855792999267578125</LongitudeDegrees>
            </Position>
            <AltitudeMeters>320.399993896484375</AltitudeMeters>
            <DistanceMeters>NAN</DistanceMeters>
          </Trackpoint>
          <Trackpoint>
            <Time>2022-09-23T10:01:35.000Z</Time>
            <Position>
              <LatitudeDegrees>49.56260106526315212249755859375</LatitudeDegrees>
              <LongitudeDegrees>20.63530188985168933868408203125</LongitudeDegrees>
            </Position>
            <AltitudeMeters>320.399993896484375</AltitudeMeters>
            <DistanceMeters>NAN</DistanceMeters>
          </Trackpoint>
          <Trackpoint>
            <Time>2022-09-23T10:01:37.000Z</Time>
            <Position>
              <LatitudeDegrees>49.562622606754302978515625</LatitudeDegrees>
              <LongitudeDegrees>20.635297112166881561279296875</LongitudeDegrees>
            </Position>
            <AltitudeMeters>320.600006103515625</AltitudeMeters>
            <DistanceMeters>NAN</DistanceMeters>
          </Trackpoint>
          <Trackpoint>
            <Time>2022-09-23T10:01:39.000Z</Time>
            <Position>
              <LatitudeDegrees>49.56265688873827457427978515625</LatitudeDegrees>
              <LongitudeDegrees>20.63528512604534626007080078125</LongitudeDegrees>
            </Position>
            <AltitudeMeters>320.600006103515625</AltitudeMeters>
            <DistanceMeters>NAN</DistanceMeters>
          </Trackpoint>
          <Trackpoint>
            <Time>2022-09-23T10:01:43.000Z</Time>
            <Position>
              <LatitudeDegrees>49.5627421326935291290283203125</LatitudeDegrees>
              <LongitudeDegrees>20.63525386154651641845703125</LongitudeDegrees>
            </Position>
            <AltitudeMeters>320.600006103515625</AltitudeMeters>
            <DistanceMeters>NAN</DistanceMeters>
          </Trackpoint>
          <Trackpoint>
            <Time>2022-09-23T10:01:46.000Z</Time>
            <Position>
              <LatitudeDegrees>49.56281782127916812896728515625</LatitudeDegrees>
              <LongitudeDegrees>20.6352315656840801239013671875</LongitudeDegrees>
            </Position>
            <AltitudeMeters>320.600006103515625</AltitudeMeters>
            <DistanceMeters>NAN</DistanceMeters>
          </Trackpoint>
          <Trackpoint>
            <Time>2022-09-23T10:01:48.000Z</Time>
            <Position>
              <LatitudeDegrees>49.56286995671689510345458984375</LatitudeDegrees>
              <LongitudeDegrees>20.6352124549448490142822265625</LongitudeDegrees>
            </Position>
            <AltitudeMeters>320.79998779296875</AltitudeMeters>
            <DistanceMeters>NAN</DistanceMeters>
          </Trackpoint>
          <Trackpoint>
            <Time>2022-09-23T10:01:53.000Z</Time>
            <Position>
              <LatitudeDegrees>49.5629768259823322296142578125</LatitudeDegrees>
              <LongitudeDegrees>20.6351816095411777496337890625</LongitudeDegrees>
            </Position>
            <AltitudeMeters>321</AltitudeMeters>
            <DistanceMeters>NAN</DistanceMeters>
          </Trackpoint>
          <Trackpoint>
            <Time>2022-09-23T10:01:59.000Z</Time>
            <Position>
              <LatitudeDegrees>49.56310314126312732696533203125</LatitudeDegrees>
              <LongitudeDegrees>20.6351360119879245758056640625</LongitudeDegrees>
            </Position>
            <AltitudeMeters>321</AltitudeMeters>
            <DistanceMeters>NAN</DistanceMeters>
          </Trackpoint>
          <Trackpoint>
            <Time>2022-09-23T10:02:05.000Z</Time>
            <Position>
              <LatitudeDegrees>49.56317522563040256500244140625</LatitudeDegrees>
              <LongitudeDegrees>20.6351380236446857452392578125</LongitudeDegrees>
            </Position>
            <AltitudeMeters>320.79998779296875</AltitudeMeters>
            <DistanceMeters>NAN</DistanceMeters>
          </Trackpoint>
          <Trackpoint>
            <Time>2022-09-23T10:02:06.000Z</Time>
            <Position>
              <LatitudeDegrees>49.5631853677332401275634765625</LatitudeDegrees>
              <LongitudeDegrees>20.63514799810945987701416015625</LongitudeDegrees>
            </Position>
            <AltitudeMeters>320.79998779296875</AltitudeMeters>
            <DistanceMeters>NAN</DistanceMeters>
          </Trackpoint>
          <Trackpoint>
            <Time>2022-09-23T10:02:09.000Z</Time>
            <Position>
              <LatitudeDegrees>49.5631997846066951751708984375</LatitudeDegrees>
              <LongitudeDegrees>20.63518370501697063446044921875</LongitudeDegrees>
            </Position>
            <AltitudeMeters>320.79998779296875</AltitudeMeters>
            <DistanceMeters>NAN</DistanceMeters>
          </Trackpoint>
          <Trackpoint>
            <Time>2022-09-23T10:02:17.000Z</Time>
            <Position>
              <LatitudeDegrees>49.56318561919033527374267578125</LatitudeDegrees>
              <LongitudeDegrees>20.6352104432880878448486328125</LongitudeDegrees>
            </Position>
            <AltitudeMeters>320.79998779296875</AltitudeMeters>
            <DistanceMeters>NAN</DistanceMeters>
          </Trackpoint>
          <Trackpoint>
            <Time>2022-09-23T10:02:26.000Z</Time>
            <Position>
              <LatitudeDegrees>49.5631836913526058197021484375</LatitudeDegrees>
              <LongitudeDegrees>20.6352127902209758758544921875</LongitudeDegrees>
            </Position>
            <AltitudeMeters>321</AltitudeMeters>
            <DistanceMeters>NAN</DistanceMeters>
          </Trackpoint>
          <Trackpoint>
            <Time>2022-09-23T10:02:31.000Z</Time>
            <Position>
              <LatitudeDegrees>49.5631836913526058197021484375</LatitudeDegrees>
              <LongitudeDegrees>20.6352127902209758758544921875</LongitudeDegrees>
            </Position>
            <AltitudeMeters>320.79998779296875</AltitudeMeters>
            <DistanceMeters>NAN</DistanceMeters>
          </Trackpoint>
          <Trackpoint>
            <Time>2022-09-23T10:02:39.000Z</Time>
            <Position>
              <LatitudeDegrees>49.5631786622107028961181640625</LatitudeDegrees>
              <LongitudeDegrees>20.63522913493216037750244140625</LongitudeDegrees>
            </Position>
            <AltitudeMeters>321</AltitudeMeters>
            <DistanceMeters>NAN</DistanceMeters>
          </Trackpoint>
          <Trackpoint>
            <Time>2022-09-23T10:02:42.000Z</Time>
            <Position>
              <LatitudeDegrees>49.563177488744258880615234375</LatitudeDegrees>
              <LongitudeDegrees>20.6352436356246471405029296875</LongitudeDegrees>
            </Position>
            <AltitudeMeters>321</AltitudeMeters>
            <DistanceMeters>NAN</DistanceMeters>
          </Trackpoint>
          <Trackpoint>
            <Time>2022-09-23T10:02:45.000Z</Time>
            <Position>
              <LatitudeDegrees>49.56317740492522716522216796875</LatitudeDegrees>
              <LongitudeDegrees>20.63525109551846981048583984375</LongitudeDegrees>
            </Position>
            <AltitudeMeters>321</AltitudeMeters>
            <DistanceMeters>NAN</DistanceMeters>
          </Trackpoint>
          <Trackpoint>
            <Time>2022-09-23T10:02:54.000Z</Time>
            <Position>
              <LatitudeDegrees>49.56317723728716373443603515625</LatitudeDegrees>
              <LongitudeDegrees>20.63525226898491382598876953125</LongitudeDegrees>
            </Position>
            <AltitudeMeters>321.20001220703125</AltitudeMeters>
            <DistanceMeters>NAN</DistanceMeters>
          </Trackpoint>
          <Trackpoint>
            <Time>2022-09-23T10:03:02.000Z</Time>
            <Position>
              <LatitudeDegrees>49.56318025477230548858642578125</LatitudeDegrees>
              <LongitudeDegrees>20.63525117933750152587890625</LongitudeDegrees>
            </Position>
            <AltitudeMeters>321.20001220703125</AltitudeMeters>
            <DistanceMeters>NAN</DistanceMeters>
          </Trackpoint>
          <Trackpoint>
            <Time>2022-09-23T10:03:21.000Z</Time>
            <Position>
              <LatitudeDegrees>49.56322677433490753173828125</LatitudeDegrees>
              <LongitudeDegrees>20.63520030118525028228759765625</LongitudeDegrees>
            </Position>
            <AltitudeMeters>321.20001220703125</AltitudeMeters>
            <DistanceMeters>NAN</DistanceMeters>
          </Trackpoint>
          <Trackpoint>
            <Time>2022-09-23T10:03:23.000Z</Time>
            <Position>
              <LatitudeDegrees>49.56323456950485706329345703125</LatitudeDegrees>
              <LongitudeDegrees>20.63519711606204509735107421875</LongitudeDegrees>
            </Position>
            <AltitudeMeters>321.20001220703125</AltitudeMeters>
            <DistanceMeters>NAN</DistanceMeters>
          </Trackpoint>
          <Trackpoint>
            <Time>2022-09-23T10:03:24.000Z</Time>
            <Position>
              <LatitudeDegrees>49.56324546597898006439208984375</LatitudeDegrees>
              <LongitudeDegrees>20.6351836211979389190673828125</LongitudeDegrees>
            </Position>
            <AltitudeMeters>321.20001220703125</AltitudeMeters>
            <DistanceMeters>NAN</DistanceMeters>
          </Trackpoint>
          <Trackpoint>
            <Time>2022-09-23T10:03:26.000Z</Time>
            <Position>
              <LatitudeDegrees>49.563276059925556182861328125</LatitudeDegrees>
              <LongitudeDegrees>20.63514263369143009185791015625</LongitudeDegrees>
            </Position>
            <AltitudeMeters>321.20001220703125</AltitudeMeters>
            <DistanceMeters>NAN</DistanceMeters>
          </Trackpoint>
          <Trackpoint>
            <Time>2022-09-23T10:03:27.000Z</Time>
            <Position>
              <LatitudeDegrees>49.56329307518899440765380859375</LatitudeDegrees>
              <LongitudeDegrees>20.63514263369143009185791015625</LongitudeDegrees>
            </Position>
            <AltitudeMeters>321.20001220703125</AltitudeMeters>
            <DistanceMeters>NAN</DistanceMeters>
          </Trackpoint>
          <Trackpoint>
            <Time>2022-09-23T10:03:28.000Z</Time>
            <Position>
              <LatitudeDegrees>49.5633100904524326324462890625</LatitudeDegrees>
              <LongitudeDegrees>20.63514095731079578399658203125</LongitudeDegrees>
            </Position>
            <AltitudeMeters>321.20001220703125</AltitudeMeters>
            <DistanceMeters>NAN</DistanceMeters>
          </Trackpoint>
          <Trackpoint>
            <Time>2022-09-23T10:03:32.000Z</Time>
            <Position>
              <LatitudeDegrees>49.56334789283573627471923828125</LatitudeDegrees>
              <LongitudeDegrees>20.635176412761211395263671875</LongitudeDegrees>
            </Position>
            <AltitudeMeters>321.20001220703125</AltitudeMeters>
            <DistanceMeters>NAN</DistanceMeters>
          </Trackpoint>
          <Trackpoint>
            <Time>2022-09-23T10:03:36.000Z</Time>
            <Position>
              <LatitudeDegrees>49.56336616538465023040771484375</LatitudeDegrees>
              <LongitudeDegrees>20.63522377051413059234619140625</LongitudeDegrees>
            </Position>
            <AltitudeMeters>321.399993896484375</AltitudeMeters>
            <DistanceMeters>NAN</DistanceMeters>
          </Trackpoint>
          <Trackpoint>
            <Time>2022-09-23T10:03:40.000Z</Time>
            <Position>
              <LatitudeDegrees>49.5634351484477519989013671875</LatitudeDegrees>
              <LongitudeDegrees>20.63523667864501476287841796875</LongitudeDegrees>
            </Position>
            <AltitudeMeters>321.399993896484375</AltitudeMeters>
            <DistanceMeters>NAN</DistanceMeters>
          </Trackpoint>
          <Trackpoint>
            <Time>2022-09-23T10:03:42.000Z</Time>
            <Position>
              <LatitudeDegrees>49.56346322782337665557861328125</LatitudeDegrees>
              <LongitudeDegrees>20.6351901590824127197265625</LongitudeDegrees>
            </Position>
            <AltitudeMeters>321.20001220703125</AltitudeMeters>
            <DistanceMeters>NAN</DistanceMeters>
          </Trackpoint>
          <Trackpoint>
            <Time>2022-09-23T10:03:44.000Z</Time>
            <Position>
              <LatitudeDegrees>49.56348753534257411956787109375</LatitudeDegrees>
              <LongitudeDegrees>20.63517230562865734100341796875</LongitudeDegrees>
            </Position>
            <AltitudeMeters>321.20001220703125</AltitudeMeters>
            <DistanceMeters>NAN</DistanceMeters>
          </Trackpoint>
          <Trackpoint>
            <Time>2022-09-23T10:03:46.000Z</Time>
            <Position>
              <LatitudeDegrees>49.56349440850317478179931640625</LatitudeDegrees>
              <LongitudeDegrees>20.6351940147578716278076171875</LongitudeDegrees>
            </Position>
            <AltitudeMeters>321.20001220703125</AltitudeMeters>
            <DistanceMeters>NAN</DistanceMeters>
          </Trackpoint>
          <Trackpoint>
            <Time>2022-09-23T10:03:48.000Z</Time>
            <Position>
              <LatitudeDegrees>49.56348435021936893463134765625</LatitudeDegrees>
              <LongitudeDegrees>20.6351772509515285491943359375</LongitudeDegrees>
            </Position>
            <AltitudeMeters>321.20001220703125</AltitudeMeters>
            <DistanceMeters>NAN</DistanceMeters>
          </Trackpoint>
          <Trackpoint>
            <Time>2022-09-23T10:03:49.000Z</Time>
            <Position>
              <LatitudeDegrees>49.56350413151085376739501953125</LatitudeDegrees>
              <LongitudeDegrees>20.6351591460406780242919921875</LongitudeDegrees>
            </Position>
            <AltitudeMeters>321.20001220703125</AltitudeMeters>
            <DistanceMeters>NAN</DistanceMeters>
          </Trackpoint>
          <Trackpoint>
            <Time>2022-09-23T10:03:50.000Z</Time>
            <Position>
              <LatitudeDegrees>49.56352441571652889251708984375</LatitudeDegrees>
              <LongitudeDegrees>20.6351566314697265625</LongitudeDegrees>
            </Position>
            <AltitudeMeters>321.20001220703125</AltitudeMeters>
            <DistanceMeters>NAN</DistanceMeters>
          </Trackpoint>
          <Trackpoint>
            <Time>2022-09-23T10:03:53.000Z</Time>
            <Position>
              <LatitudeDegrees>49.56356213428080081939697265625</LatitudeDegrees>
              <LongitudeDegrees>20.63514783047139644622802734375</LongitudeDegrees>
            </Position>
            <AltitudeMeters>321</AltitudeMeters>
            <DistanceMeters>NAN</DistanceMeters>
          </Trackpoint>
          <Trackpoint>
            <Time>2022-09-23T10:03:55.000Z</Time>
            <Position>
              <LatitudeDegrees>49.5635759644210338592529296875</LatitudeDegrees>
              <LongitudeDegrees>20.635169036686420440673828125</LongitudeDegrees>
            </Position>
            <AltitudeMeters>321</AltitudeMeters>
            <DistanceMeters>NAN</DistanceMeters>
          </Trackpoint>
          <Trackpoint>
            <Time>2022-09-23T10:03:58.000Z</Time>
            <Position>
              <LatitudeDegrees>49.5636051334440708160400390625</LatitudeDegrees>
              <LongitudeDegrees>20.63518538139760494232177734375</LongitudeDegrees>
            </Position>
            <AltitudeMeters>321</AltitudeMeters>
            <DistanceMeters>NAN</DistanceMeters>
          </Trackpoint>
          <Trackpoint>
            <Time>2022-09-23T10:04:03.000Z</Time>
            <Position>
              <LatitudeDegrees>49.56362734548747539520263671875</LatitudeDegrees>
              <LongitudeDegrees>20.63521086238324642181396484375</LongitudeDegrees>
            </Position>
            <AltitudeMeters>320.79998779296875</AltitudeMeters>
            <DistanceMeters>NAN</DistanceMeters>
          </Trackpoint>
          <Trackpoint>
            <Time>2022-09-23T10:04:06.000Z</Time>
            <Position>
              <LatitudeDegrees>49.56362701021134853363037109375</LatitudeDegrees>
              <LongitudeDegrees>20.63522175885736942291259765625</LongitudeDegrees>
            </Position>
            <AltitudeMeters>320.600006103515625</AltitudeMeters>
            <DistanceMeters>NAN</DistanceMeters>
          </Trackpoint>
          <Trackpoint>
            <Time>2022-09-23T10:04:10.000Z</Time>
            <Position>
              <LatitudeDegrees>49.5636386610567569732666015625</LatitudeDegrees>
              <LongitudeDegrees>20.63516576774418354034423828125</LongitudeDegrees>
            </Position>
            <AltitudeMeters>320.600006103515625</AltitudeMeters>
            <DistanceMeters>NAN</DistanceMeters>
          </Trackpoint>
          <Trackpoint>
            <Time>2022-09-23T10:04:15.000Z</Time>
            <Position>
              <LatitudeDegrees>49.56367931328713893890380859375</LatitudeDegrees>
              <LongitudeDegrees>20.6351591460406780242919921875</LongitudeDegrees>
            </Position>
            <AltitudeMeters>320.600006103515625</AltitudeMeters>
            <DistanceMeters>NAN</DistanceMeters>
          </Trackpoint>
          <Trackpoint>
            <Time>2022-09-23T10:04:19.000Z</Time>
            <Position>
              <LatitudeDegrees>49.56370546482503414154052734375</LatitudeDegrees>
              <LongitudeDegrees>20.6351567991077899932861328125</LongitudeDegrees>
            </Position>
            <AltitudeMeters>320.399993896484375</AltitudeMeters>
            <DistanceMeters>NAN</DistanceMeters>
          </Trackpoint>
          <Trackpoint>
            <Time>2022-09-23T10:04:24.000Z</Time>
            <Position>
              <LatitudeDegrees>49.56373379565775394439697265625</LatitudeDegrees>
              <LongitudeDegrees>20.6351635046303272247314453125</LongitudeDegrees>
            </Position>
            <AltitudeMeters>320.20001220703125</AltitudeMeters>
            <DistanceMeters>NAN</DistanceMeters>
          </Trackpoint>
          <Trackpoint>
            <Time>2022-09-23T10:04:25.000Z</Time>
            <Position>
              <LatitudeDegrees>49.56374385394155979156494140625</LatitudeDegrees>
              <LongitudeDegrees>20.6351658515632152557373046875</LongitudeDegrees>
            </Position>
            <AltitudeMeters>320.20001220703125</AltitudeMeters>
            <DistanceMeters>NAN</DistanceMeters>
          </Trackpoint>
          <Trackpoint>
            <Time>2022-09-23T10:04:26.000Z</Time>
            <Position>
              <LatitudeDegrees>49.563754163682460784912109375</LatitudeDegrees>
              <LongitudeDegrees>20.63516308553516864776611328125</LongitudeDegrees>
            </Position>
            <AltitudeMeters>320.20001220703125</AltitudeMeters>
            <DistanceMeters>NAN</DistanceMeters>
          </Trackpoint>
          <Trackpoint>
            <Time>2022-09-23T10:04:30.000Z</Time>
            <Position>
              <LatitudeDegrees>49.56379230134189128875732421875</LatitudeDegrees>
              <LongitudeDegrees>20.6351936794817447662353515625</LongitudeDegrees>
            </Position>
            <AltitudeMeters>320.20001220703125</AltitudeMeters>
            <DistanceMeters>NAN</DistanceMeters>
          </Trackpoint>
          <Trackpoint>
            <Time>2022-09-23T10:04:34.000Z</Time>
            <Position>
              <LatitudeDegrees>49.563878886401653289794921875</LatitudeDegrees>
              <LongitudeDegrees>20.63508362509310245513916015625</LongitudeDegrees>
            </Position>
            <AltitudeMeters>320.20001220703125</AltitudeMeters>
            <DistanceMeters>NAN</DistanceMeters>
          </Trackpoint>
          <Trackpoint>
            <Time>2022-09-23T10:04:35.000Z</Time>
            <Position>
              <LatitudeDegrees>49.56389472819864749908447265625</LatitudeDegrees>
              <LongitudeDegrees>20.6350816972553730010986328125</LongitudeDegrees>
            </Position>
            <AltitudeMeters>320.20001220703125</AltitudeMeters>
            <DistanceMeters>NAN</DistanceMeters>
          </Trackpoint>
          <Trackpoint>
            <Time>2022-09-23T10:04:39.000Z</Time>
            <Position>
              <LatitudeDegrees>49.56392792053520679473876953125</LatitudeDegrees>
              <LongitudeDegrees>20.635089911520481109619140625</LongitudeDegrees>
            </Position>
            <AltitudeMeters>320.20001220703125</AltitudeMeters>
            <DistanceMeters>NAN</DistanceMeters>
          </Trackpoint>
          <Trackpoint>
            <Time>2022-09-23T10:04:41.000Z</Time>
            <Position>
              <LatitudeDegrees>49.56395289860665798187255859375</LatitudeDegrees>
              <LongitudeDegrees>20.6350672803819179534912109375</LongitudeDegrees>
            </Position>
            <AltitudeMeters>320.20001220703125</AltitudeMeters>
            <DistanceMeters>NAN</DistanceMeters>
          </Trackpoint>
          <Trackpoint>
            <Time>2022-09-23T10:04:45.000Z</Time>
            <Position>
              <LatitudeDegrees>49.56398810259997844696044921875</LatitudeDegrees>
              <LongitudeDegrees>20.63508144579827785491943359375</LongitudeDegrees>
            </Position>
            <AltitudeMeters>320.20001220703125</AltitudeMeters>
            <DistanceMeters>NAN</DistanceMeters>
          </Trackpoint>
          <Trackpoint>
            <Time>2022-09-23T10:04:48.000Z</Time>
            <Position>
              <LatitudeDegrees>49.564013667404651641845703125</LatitudeDegrees>
              <LongitudeDegrees>20.635079182684421539306640625</LongitudeDegrees>
            </Position>
            <AltitudeMeters>320.20001220703125</AltitudeMeters>
            <DistanceMeters>NAN</DistanceMeters>
          </Trackpoint>
          <Trackpoint>
            <Time>2022-09-23T10:04:51.000Z</Time>
            <Position>
              <LatitudeDegrees>49.5640557445585727691650390625</LatitudeDegrees>
              <LongitudeDegrees>20.63506401143968105316162109375</LongitudeDegrees>
            </Position>
            <AltitudeMeters>320</AltitudeMeters>
            <DistanceMeters>NAN</DistanceMeters>
          </Trackpoint>
          <Trackpoint>
            <Time>2022-09-23T10:04:56.000Z</Time>
            <Position>
              <LatitudeDegrees>49.564097821712493896484375</LatitudeDegrees>
              <LongitudeDegrees>20.634987987577915191650390625</LongitudeDegrees>
            </Position>
            <AltitudeMeters>320</AltitudeMeters>
            <DistanceMeters>NAN</DistanceMeters>
          </Trackpoint>
          <Trackpoint>
            <Time>2022-09-23T10:04:57.000Z</Time>
            <Position>
              <LatitudeDegrees>49.564098156988620758056640625</LatitudeDegrees>
              <LongitudeDegrees>20.63496108166873455047607421875</LongitudeDegrees>
            </Position>
            <AltitudeMeters>320</AltitudeMeters>
            <DistanceMeters>NAN</DistanceMeters>
          </Trackpoint>
          <Trackpoint>
            <Time>2022-09-23T10:05:01.000Z</Time>
            <Position>
              <LatitudeDegrees>49.56410947255790233612060546875</LatitudeDegrees>
              <LongitudeDegrees>20.63492126762866973876953125</LongitudeDegrees>
            </Position>
            <AltitudeMeters>320</AltitudeMeters>
            <DistanceMeters>NAN</DistanceMeters>
          </Trackpoint>
          <Trackpoint>
            <Time>2022-09-23T10:05:06.000Z</Time>
            <Position>
              <LatitudeDegrees>49.5641516335308551788330078125</LatitudeDegrees>
              <LongitudeDegrees>20.63488639891147613525390625</LongitudeDegrees>
            </Position>
            <AltitudeMeters>320</AltitudeMeters>
            <DistanceMeters>NAN</DistanceMeters>
          </Trackpoint>
          <Trackpoint>
            <Time>2022-09-23T10:05:12.000Z</Time>
            <Position>
              <LatitudeDegrees>49.5641576685011386871337890625</LatitudeDegrees>
              <LongitudeDegrees>20.6348527036607265472412109375</LongitudeDegrees>
            </Position>
            <AltitudeMeters>320</AltitudeMeters>
            <DistanceMeters>NAN</DistanceMeters>
          </Trackpoint>
          <Trackpoint>
            <Time>2022-09-23T10:05:20.000Z</Time>
            <Position>
              <LatitudeDegrees>49.5641662180423736572265625</LatitudeDegrees>
              <LongitudeDegrees>20.63484826125204563140869140625</LongitudeDegrees>
            </Position>
            <AltitudeMeters>320</AltitudeMeters>
            <DistanceMeters>NAN</DistanceMeters>
          </Trackpoint>
          <Trackpoint>
            <Time>2022-09-23T10:05:21.000Z</Time>
            <Position>
              <LatitudeDegrees>49.56416814588010311126708984375</LatitudeDegrees>
              <LongitudeDegrees>20.63485144637525081634521484375</LongitudeDegrees>
            </Position>
            <AltitudeMeters>320</AltitudeMeters>
            <DistanceMeters>NAN</DistanceMeters>
          </Trackpoint>
          <Trackpoint>
            <Time>2022-09-23T10:05:27.000Z</Time>
            <Position>
              <LatitudeDegrees>49.5641616918146610260009765625</LatitudeDegrees>
              <LongitudeDegrees>20.63487223349511623382568359375</LongitudeDegrees>
            </Position>
            <AltitudeMeters>320</AltitudeMeters>
            <DistanceMeters>NAN</DistanceMeters>
          </Trackpoint>
          <Trackpoint>
            <Time>2022-09-23T10:05:33.000Z</Time>
            <Position>
              <LatitudeDegrees>49.56414601765573024749755859375</LatitudeDegrees>
              <LongitudeDegrees>20.634924285113811492919921875</LongitudeDegrees>
            </Position>
            <AltitudeMeters>320</AltitudeMeters>
            <DistanceMeters>NAN</DistanceMeters>
          </Trackpoint>
          <Trackpoint>
            <Time>2022-09-23T10:05:40.000Z</Time>
            <Position>
              <LatitudeDegrees>49.564158506691455841064453125</LatitudeDegrees>
              <LongitudeDegrees>20.63498857431113719940185546875</LongitudeDegrees>
            </Position>
            <AltitudeMeters>320</AltitudeMeters>
            <DistanceMeters>NAN</DistanceMeters>
          </Trackpoint>
          <Trackpoint>
            <Time>2022-09-23T10:05:46.000Z</Time>
            <Position>
              <LatitudeDegrees>49.56420083530247211456298828125</LatitudeDegrees>
              <LongitudeDegrees>20.63504674471914768218994140625</LongitudeDegrees>
            </Position>
            <AltitudeMeters>319.79998779296875</AltitudeMeters>
            <DistanceMeters>NAN</DistanceMeters>
          </Trackpoint>
          <Trackpoint>
            <Time>2022-09-23T10:05:52.000Z</Time>
            <Position>
              <LatitudeDegrees>49.56408717669546604156494140625</LatitudeDegrees>
              <LongitudeDegrees>20.63501791097223758697509765625</LongitudeDegrees>
            </Position>
            <AltitudeMeters>320</AltitudeMeters>
            <DistanceMeters>NAN</DistanceMeters>
          </Trackpoint>
          <Trackpoint>
            <Time>2022-09-23T10:05:56.000Z</Time>
            <Position>
              <LatitudeDegrees>49.56409321166574954986572265625</LatitudeDegrees>
              <LongitudeDegrees>20.6350407935678958892822265625</LongitudeDegrees>
            </Position>
            <AltitudeMeters>320</AltitudeMeters>
            <DistanceMeters>NAN</DistanceMeters>
          </Trackpoint>
          <Trackpoint>
            <Time>2022-09-23T10:05:57.000Z</Time>
            <Position>
              <LatitudeDegrees>49.5640911161899566650390625</LatitudeDegrees>
              <LongitudeDegrees>20.63505244441330432891845703125</LongitudeDegrees>
            </Position>
            <AltitudeMeters>320</AltitudeMeters>
            <DistanceMeters>NAN</DistanceMeters>
          </Trackpoint>
          <Trackpoint>
            <Time>2022-09-23T10:05:59.000Z</Time>
            <Position>
              <LatitudeDegrees>49.56417149864137172698974609375</LatitudeDegrees>
              <LongitudeDegrees>20.63506904058158397674560546875</LongitudeDegrees>
            </Position>
            <AltitudeMeters>320</AltitudeMeters>
            <DistanceMeters>NAN</DistanceMeters>
          </Trackpoint>
          <Trackpoint>
            <Time>2022-09-23T10:06:00.000Z</Time>
            <Position>
              <LatitudeDegrees>49.5642455108463764190673828125</LatitudeDegrees>
              <LongitudeDegrees>20.63509603030979633331298828125</LongitudeDegrees>
            </Position>
            <AltitudeMeters>320</AltitudeMeters>
            <DistanceMeters>NAN</DistanceMeters>
          </Trackpoint>
          <Trackpoint>
            <Time>2022-09-23T10:06:01.000Z</Time>
            <Position>
              <LatitudeDegrees>49.56428867764770984649658203125</LatitudeDegrees>
              <LongitudeDegrees>20.63510793261229991912841796875</LongitudeDegrees>
            </Position>
            <AltitudeMeters>320</AltitudeMeters>
            <DistanceMeters>NAN</DistanceMeters>
          </Trackpoint>
          <Trackpoint>
            <Time>2022-09-23T10:09:49.000Z</Time>
            <Position>
              <LatitudeDegrees>49.56413201987743377685546875</LatitudeDegrees>
              <LongitudeDegrees>20.6351058371365070343017578125</LongitudeDegrees>
            </Position>
            <AltitudeMeters>320</AltitudeMeters>
            <DistanceMeters>NAN</DistanceMeters>
          </Trackpoint>
          <Trackpoint>
            <Time>2022-09-23T10:09:51.000Z</Time>
            <Position>
              <LatitudeDegrees>49.564133696258068084716796875</LatitudeDegrees>
              <LongitudeDegrees>20.6347242929041385650634765625</LongitudeDegrees>
            </Position>
            <AltitudeMeters>320</AltitudeMeters>
            <DistanceMeters>NAN</DistanceMeters>
          </Trackpoint>
          <Trackpoint>
            <Time>2022-09-23T10:09:55.000Z</Time>
            <Position>
              <LatitudeDegrees>49.564384482800960540771484375</LatitudeDegrees>
              <LongitudeDegrees>20.63493895344436168670654296875</LongitudeDegrees>
            </Position>
            <AltitudeMeters>320</AltitudeMeters>
            <DistanceMeters>NAN</DistanceMeters>
          </Trackpoint>
          <Trackpoint>
            <Time>2022-09-23T10:09:56.000Z</Time>
            <Position>
              <LatitudeDegrees>49.56437584944069385528564453125</LatitudeDegrees>
              <LongitudeDegrees>20.63494130037724971771240234375</LongitudeDegrees>
            </Position>
            <AltitudeMeters>320</AltitudeMeters>
            <DistanceMeters>NAN</DistanceMeters>
          </Trackpoint>
          <Trackpoint>
            <Time>2022-09-23T10:10:00.000Z</Time>
            <Position>
              <LatitudeDegrees>49.56434014253318309783935546875</LatitudeDegrees>
              <LongitudeDegrees>20.63496292568743228912353515625</LongitudeDegrees>
            </Position>
            <AltitudeMeters>320</AltitudeMeters>
            <DistanceMeters>NAN</DistanceMeters>
          </Trackpoint>
          <Trackpoint>
            <Time>2022-09-23T10:10:01.000Z</Time>
            <Position>
              <LatitudeDegrees>49.5643383823335170745849609375</LatitudeDegrees>
              <LongitudeDegrees>20.63495613634586334228515625</LongitudeDegrees>
            </Position>
            <AltitudeMeters>320</AltitudeMeters>
            <DistanceMeters>NAN</DistanceMeters>
          </Trackpoint>
          <Trackpoint>
            <Time>2022-09-23T10:10:04.000Z</Time>
            <Position>
              <LatitudeDegrees>49.56433645449578762054443359375</LatitudeDegrees>
              <LongitudeDegrees>20.634949766099452972412109375</LongitudeDegrees>
            </Position>
            <AltitudeMeters>320</AltitudeMeters>
            <DistanceMeters>NAN</DistanceMeters>
          </Trackpoint>
          <Trackpoint>
            <Time>2022-09-23T10:10:06.000Z</Time>
            <Position>
              <LatitudeDegrees>49.56428515724837779998779296875</LatitudeDegrees>
              <LongitudeDegrees>20.63496577553451061248779296875</LongitudeDegrees>
            </Position>
            <AltitudeMeters>320</AltitudeMeters>
            <DistanceMeters>NAN</DistanceMeters>
          </Trackpoint>
          <Trackpoint>
            <Time>2022-09-23T10:10:10.000Z</Time>
            <Position>
              <LatitudeDegrees>49.56424961797893047332763671875</LatitudeDegrees>
              <LongitudeDegrees>20.63494951464235782623291015625</LongitudeDegrees>
            </Position>
            <AltitudeMeters>320</AltitudeMeters>
            <DistanceMeters>NAN</DistanceMeters>
          </Trackpoint>
          <Trackpoint>
            <Time>2022-09-23T10:10:13.000Z</Time>
            <Position>
              <LatitudeDegrees>49.564226232469081878662109375</LatitudeDegrees>
              <LongitudeDegrees>20.63502662815153598785400390625</LongitudeDegrees>
            </Position>
            <AltitudeMeters>320</AltitudeMeters>
            <DistanceMeters>NAN</DistanceMeters>
          </Trackpoint>
          <Trackpoint>
            <Time>2022-09-23T10:10:16.000Z</Time>
            <Position>
              <LatitudeDegrees>49.56426034681499004364013671875</LatitudeDegrees>
              <LongitudeDegrees>20.6350538693368434906005859375</LongitudeDegrees>
            </Position>
            <AltitudeMeters>320</AltitudeMeters>
            <DistanceMeters>NAN</DistanceMeters>
          </Trackpoint>
          <Trackpoint>
            <Time>2022-09-23T10:10:21.000Z</Time>
            <Position>
              <LatitudeDegrees>49.5642515458166599273681640625</LatitudeDegrees>
              <LongitudeDegrees>20.63499100506305694580078125</LongitudeDegrees>
            </Position>
            <AltitudeMeters>320</AltitudeMeters>
            <DistanceMeters>NAN</DistanceMeters>
          </Trackpoint>
          <Trackpoint>
            <Time>2022-09-23T10:10:28.000Z</Time>
            <Position>
              <LatitudeDegrees>49.56420502625405788421630859375</LatitudeDegrees>
              <LongitudeDegrees>20.63499310053884983062744140625</LongitudeDegrees>
            </Position>
            <AltitudeMeters>320.20001220703125</AltitudeMeters>
            <DistanceMeters>NAN</DistanceMeters>
          </Trackpoint>
          <Trackpoint>
            <Time>2022-09-23T10:10:34.000Z</Time>
            <Position>
              <LatitudeDegrees>49.56416345201432704925537109375</LatitudeDegrees>
              <LongitudeDegrees>20.63493057154119014739990234375</LongitudeDegrees>
            </Position>
            <AltitudeMeters>320.20001220703125</AltitudeMeters>
            <DistanceMeters>NAN</DistanceMeters>
          </Trackpoint>
          <Trackpoint>
            <Time>2022-09-23T10:10:38.000Z</Time>
            <Position>
              <LatitudeDegrees>49.5641197822988033294677734375</LatitudeDegrees>
              <LongitudeDegrees>20.63491229899227619171142578125</LongitudeDegrees>
            </Position>
            <AltitudeMeters>320.20001220703125</AltitudeMeters>
            <DistanceMeters>NAN</DistanceMeters>
          </Trackpoint>
          <Trackpoint>
            <Time>2022-09-23T10:10:40.000Z</Time>
            <Position>
              <LatitudeDegrees>49.564113579690456390380859375</LatitudeDegrees>
              <LongitudeDegrees>20.6349219381809234619140625</LongitudeDegrees>
            </Position>
            <AltitudeMeters>320.20001220703125</AltitudeMeters>
            <DistanceMeters>NAN</DistanceMeters>
          </Trackpoint>
          <Trackpoint>
            <Time>2022-09-23T10:10:44.000Z</Time>
            <Position>
              <LatitudeDegrees>49.5641474425792694091796875</LatitudeDegrees>
              <LongitudeDegrees>20.6349442340433597564697265625</LongitudeDegrees>
            </Position>
            <AltitudeMeters>320</AltitudeMeters>
            <DistanceMeters>NAN</DistanceMeters>
          </Trackpoint>
          <Trackpoint>
            <Time>2022-09-23T10:10:49.000Z</Time>
            <Position>
              <LatitudeDegrees>49.5641098916530609130859375</LatitudeDegrees>
              <LongitudeDegrees>20.63494197092950344085693359375</LongitudeDegrees>
            </Position>
            <AltitudeMeters>320.20001220703125</AltitudeMeters>
            <DistanceMeters>NAN</DistanceMeters>
          </Trackpoint>
          <Trackpoint>
            <Time>2022-09-23T10:10:52.000Z</Time>
            <Position>
              <LatitudeDegrees>49.5640996657311916351318359375</LatitudeDegrees>
              <LongitudeDegrees>20.63493560068309307098388671875</LongitudeDegrees>
            </Position>
            <AltitudeMeters>320.20001220703125</AltitudeMeters>
            <DistanceMeters>NAN</DistanceMeters>
          </Trackpoint>
          <Trackpoint>
            <Time>2022-09-23T10:10:53.000Z</Time>
            <Position>
              <LatitudeDegrees>49.56407560966908931732177734375</LatitudeDegrees>
              <LongitudeDegrees>20.63492822460830211639404296875</LongitudeDegrees>
            </Position>
            <AltitudeMeters>320.20001220703125</AltitudeMeters>
            <DistanceMeters>NAN</DistanceMeters>
          </Trackpoint>
          <Trackpoint>
            <Time>2022-09-23T10:10:59.000Z</Time>
            <Position>
              <LatitudeDegrees>49.56407292746007442474365234375</LatitudeDegrees>
              <LongitudeDegrees>20.63491816632449626922607421875</LongitudeDegrees>
            </Position>
            <AltitudeMeters>320.20001220703125</AltitudeMeters>
            <DistanceMeters>NAN</DistanceMeters>
          </Trackpoint>
          <Trackpoint>
            <Time>2022-09-23T10:11:06.000Z</Time>
            <Position>
              <LatitudeDegrees>49.56410276703536510467529296875</LatitudeDegrees>
              <LongitudeDegrees>20.6349311582744121551513671875</LongitudeDegrees>
            </Position>
            <AltitudeMeters>320</AltitudeMeters>
            <DistanceMeters>NAN</DistanceMeters>
          </Trackpoint>
          <Trackpoint>
            <Time>2022-09-23T10:11:09.000Z</Time>
            <Position>
              <LatitudeDegrees>49.56410528160631656646728515625</LatitudeDegrees>
              <LongitudeDegrees>20.6349331699311733245849609375</LongitudeDegrees>
            </Position>
            <AltitudeMeters>320</AltitudeMeters>
            <DistanceMeters>NAN</DistanceMeters>
          </Trackpoint>
          <Trackpoint>
            <Time>2022-09-23T10:11:11.000Z</Time>
            <Position>
              <LatitudeDegrees>49.56411098130047321319580078125</LatitudeDegrees>
              <LongitudeDegrees>20.63493442721664905548095703125</LongitudeDegrees>
            </Position>
            <AltitudeMeters>320</AltitudeMeters>
            <DistanceMeters>NAN</DistanceMeters>
          </Trackpoint>
          <Trackpoint>
            <Time>2022-09-23T10:11:16.000Z</Time>
            <Position>
              <LatitudeDegrees>49.56410243175923824310302734375</LatitudeDegrees>
              <LongitudeDegrees>20.6349271349608898162841796875</LongitudeDegrees>
            </Position>
            <AltitudeMeters>319.79998779296875</AltitudeMeters>
            <DistanceMeters>NAN</DistanceMeters>
          </Trackpoint>
          <Trackpoint>
            <Time>2022-09-23T10:11:18.000Z</Time>
            <Position>
              <LatitudeDegrees>49.564111232757568359375</LatitudeDegrees>
              <LongitudeDegrees>20.63492068089544773101806640625</LongitudeDegrees>
            </Position>
            <AltitudeMeters>319.79998779296875</AltitudeMeters>
            <DistanceMeters>NAN</DistanceMeters>
          </Trackpoint>
          <Trackpoint>
            <Time>2022-09-23T10:11:19.000Z</Time>
            <Position>
              <LatitudeDegrees>49.564111232757568359375</LatitudeDegrees>
              <LongitudeDegrees>20.63492068089544773101806640625</LongitudeDegrees>
            </Position>
            <AltitudeMeters>319.79998779296875</AltitudeMeters>
            <DistanceMeters>NAN</DistanceMeters>
          </Trackpoint>
          <Trackpoint>
            <Time>2022-09-23T10:11:21.000Z</Time>
            <Position>
              <LatitudeDegrees>49.564111232757568359375</LatitudeDegrees>
              <LongitudeDegrees>20.63492068089544773101806640625</LongitudeDegrees>
            </Position>
            <AltitudeMeters>319.399993896484375</AltitudeMeters>
            <DistanceMeters>NAN</DistanceMeters>
          </Trackpoint>
          <Trackpoint>
            <Time>2022-09-23T10:11:26.000Z</Time>
            <Position>
              <LatitudeDegrees>49.5641254819929599761962890625</LatitudeDegrees>
              <LongitudeDegrees>20.63490995205938816070556640625</LongitudeDegrees>
            </Position>
            <AltitudeMeters>319.399993896484375</AltitudeMeters>
            <DistanceMeters>NAN</DistanceMeters>
          </Trackpoint>
          <Trackpoint>
            <Time>2022-09-23T10:11:30.000Z</Time>
            <Position>
              <LatitudeDegrees>49.56415079534053802490234375</LatitudeDegrees>
              <LongitudeDegrees>20.63489888794720172882080078125</LongitudeDegrees>
            </Position>
            <AltitudeMeters>319.399993896484375</AltitudeMeters>
            <DistanceMeters>NAN</DistanceMeters>
          </Trackpoint>
          <Trackpoint>
            <Time>2022-09-23T10:11:35.000Z</Time>
            <Position>
              <LatitudeDegrees>49.56416361965239048004150390625</LatitudeDegrees>
              <LongitudeDegrees>20.6349029950797557830810546875</LongitudeDegrees>
            </Position>
            <AltitudeMeters>319.399993896484375</AltitudeMeters>
            <DistanceMeters>NAN</DistanceMeters>
          </Trackpoint>
          <Trackpoint>
            <Time>2022-09-23T10:11:36.000Z</Time>
            <Position>
              <LatitudeDegrees>49.56415590830147266387939453125</LatitudeDegrees>
              <LongitudeDegrees>20.634907186031341552734375</LongitudeDegrees>
            </Position>
            <AltitudeMeters>319.399993896484375</AltitudeMeters>
            <DistanceMeters>NAN</DistanceMeters>
          </Trackpoint>
          <Trackpoint>
            <Time>2022-09-23T10:11:40.000Z</Time>
            <Position>
              <LatitudeDegrees>49.564140401780605316162109375</LatitudeDegrees>
              <LongitudeDegrees>20.6349231116473674774169921875</LongitudeDegrees>
            </Position>
            <AltitudeMeters>319.399993896484375</AltitudeMeters>
            <DistanceMeters>NAN</DistanceMeters>
          </Trackpoint>
          <Trackpoint>
            <Time>2022-09-23T10:11:45.000Z</Time>
            <Position>
              <LatitudeDegrees>49.564152471721172332763671875</LatitudeDegrees>
              <LongitudeDegrees>20.6350357644259929656982421875</LongitudeDegrees>
            </Position>
            <AltitudeMeters>319.600006103515625</AltitudeMeters>
            <DistanceMeters>NAN</DistanceMeters>
          </Trackpoint>
          <Trackpoint>
            <Time>2022-09-23T10:11:48.000Z</Time>
            <Position>
              <LatitudeDegrees>49.56416060216724872589111328125</LatitudeDegrees>
              <LongitudeDegrees>20.63511866144835948944091796875</LongitudeDegrees>
            </Position>
            <AltitudeMeters>319.79998779296875</AltitudeMeters>
            <DistanceMeters>NAN</DistanceMeters>
          </Trackpoint>
          <Trackpoint>
            <Time>2022-09-23T10:11:50.000Z</Time>
            <Position>
              <LatitudeDegrees>49.5641600154340267181396484375</LatitudeDegrees>
              <LongitudeDegrees>20.6351517699658870697021484375</LongitudeDegrees>
            </Position>
            <AltitudeMeters>319.79998779296875</AltitudeMeters>
            <DistanceMeters>NAN</DistanceMeters>
          </Trackpoint>
          <Trackpoint>
            <Time>2022-09-23T10:11:53.000Z</Time>
            <Position>
              <LatitudeDegrees>49.56418993882834911346435546875</LatitudeDegrees>
              <LongitudeDegrees>20.6351955235004425048828125</LongitudeDegrees>
            </Position>
            <AltitudeMeters>320</AltitudeMeters>
            <DistanceMeters>NAN</DistanceMeters>
          </Trackpoint>
          <Trackpoint>
            <Time>2022-09-23T10:12:00.000Z</Time>
            <Position>
              <LatitudeDegrees>49.56418826244771480560302734375</LatitudeDegrees>
              <LongitudeDegrees>20.6353428773581981658935546875</LongitudeDegrees>
            </Position>
            <AltitudeMeters>320.399993896484375</AltitudeMeters>
            <DistanceMeters>NAN</DistanceMeters>
          </Trackpoint>
          <Trackpoint>
            <Time>2022-09-23T10:12:04.000Z</Time>
            <Position>
              <LatitudeDegrees>49.5642118155956268310546875</LatitudeDegrees>
              <LongitudeDegrees>20.63538654707372188568115234375</LongitudeDegrees>
            </Position>
            <AltitudeMeters>320.600006103515625</AltitudeMeters>
            <DistanceMeters>NAN</DistanceMeters>
          </Trackpoint>
          <Trackpoint>
            <Time>2022-09-23T10:12:06.000Z</Time>
            <Position>
              <LatitudeDegrees>49.56425012089312076568603515625</LatitudeDegrees>
              <LongitudeDegrees>20.6353626586496829986572265625</LongitudeDegrees>
            </Position>
            <AltitudeMeters>320.600006103515625</AltitudeMeters>
            <DistanceMeters>NAN</DistanceMeters>
          </Trackpoint>
          <Trackpoint>
            <Time>2022-09-23T10:12:08.000Z</Time>
            <Position>
              <LatitudeDegrees>49.56425674259662628173828125</LatitudeDegrees>
              <LongitudeDegrees>20.63534773886203765869140625</LongitudeDegrees>
            </Position>
            <AltitudeMeters>320.79998779296875</AltitudeMeters>
            <DistanceMeters>NAN</DistanceMeters>
          </Trackpoint>
          <Trackpoint>
            <Time>2022-09-23T10:12:10.000Z</Time>
            <Position>
              <LatitudeDegrees>49.56425531767308712005615234375</LatitudeDegrees>
              <LongitudeDegrees>20.635350085794925689697265625</LongitudeDegrees>
            </Position>
            <AltitudeMeters>320.79998779296875</AltitudeMeters>
            <DistanceMeters>NAN</DistanceMeters>
          </Trackpoint>
          <Trackpoint>
            <Time>2022-09-23T10:12:12.000Z</Time>
            <Position>
              <LatitudeDegrees>49.56423587165772914886474609375</LatitudeDegrees>
              <LongitudeDegrees>20.6353618204593658447265625</LongitudeDegrees>
            </Position>
            <AltitudeMeters>321</AltitudeMeters>
            <DistanceMeters>NAN</DistanceMeters>
          </Trackpoint>
          <Trackpoint>
            <Time>2022-09-23T10:12:17.000Z</Time>
            <Position>
              <LatitudeDegrees>49.56420485861599445343017578125</LatitudeDegrees>
              <LongitudeDegrees>20.635373890399932861328125</LongitudeDegrees>
            </Position>
            <AltitudeMeters>321</AltitudeMeters>
            <DistanceMeters>NAN</DistanceMeters>
          </Trackpoint>
          <Trackpoint>
            <Time>2022-09-23T10:12:23.000Z</Time>
            <Position>
              <LatitudeDegrees>49.5641767792403697967529296875</LatitudeDegrees>
              <LongitudeDegrees>20.63535385765135288238525390625</LongitudeDegrees>
            </Position>
            <AltitudeMeters>321.20001220703125</AltitudeMeters>
            <DistanceMeters>NAN</DistanceMeters>
          </Trackpoint>
          <Trackpoint>
            <Time>2022-09-23T10:12:29.000Z</Time>
            <Position>
              <LatitudeDegrees>49.5640669763088226318359375</LatitudeDegrees>
              <LongitudeDegrees>20.63532552681863307952880859375</LongitudeDegrees>
            </Position>
            <AltitudeMeters>321.20001220703125</AltitudeMeters>
            <DistanceMeters>NAN</DistanceMeters>
          </Trackpoint>
          <Trackpoint>
            <Time>2022-09-23T10:12:30.000Z</Time>
            <Position>
              <LatitudeDegrees>49.56405951641499996185302734375</LatitudeDegrees>
              <LongitudeDegrees>20.63533441163599491119384765625</LongitudeDegrees>
            </Position>
            <AltitudeMeters>321.20001220703125</AltitudeMeters>
            <DistanceMeters>NAN</DistanceMeters>
          </Trackpoint>
          <Trackpoint>
            <Time>2022-09-23T10:12:33.000Z</Time>
            <Position>
              <LatitudeDegrees>49.56402112729847431182861328125</LatitudeDegrees>
              <LongitudeDegrees>20.635319240391254425048828125</LongitudeDegrees>
            </Position>
            <AltitudeMeters>321.399993896484375</AltitudeMeters>
            <DistanceMeters>NAN</DistanceMeters>
          </Trackpoint>
          <Trackpoint>
            <Time>2022-09-23T10:12:35.000Z</Time>
            <Position>
              <LatitudeDegrees>49.563942588865756988525390625</LatitudeDegrees>
              <LongitudeDegrees>20.63531496562063694000244140625</LongitudeDegrees>
            </Position>
            <AltitudeMeters>321.600006103515625</AltitudeMeters>
            <DistanceMeters>NAN</DistanceMeters>
          </Trackpoint>
          <Trackpoint>
            <Time>2022-09-23T10:12:37.000Z</Time>
            <Position>
              <LatitudeDegrees>49.5639457739889621734619140625</LatitudeDegrees>
              <LongitudeDegrees>20.63529551960527896881103515625</LongitudeDegrees>
            </Position>
            <AltitudeMeters>321.79998779296875</AltitudeMeters>
            <DistanceMeters>NAN</DistanceMeters>
          </Trackpoint>
          <Trackpoint>
            <Time>2022-09-23T10:15:07.000Z</Time>
            <Position>
              <LatitudeDegrees>49.56467256881296634674072265625</LatitudeDegrees>
              <LongitudeDegrees>20.63519678078591823577880859375</LongitudeDegrees>
            </Position>
            <AltitudeMeters>322</AltitudeMeters>
            <DistanceMeters>NAN</DistanceMeters>
          </Trackpoint>
          <Trackpoint>
            <Time>2022-09-23T10:15:11.000Z</Time>
            <Position>
              <LatitudeDegrees>49.56396698020398616790771484375</LatitudeDegrees>
              <LongitudeDegrees>20.63543382100760936737060546875</LongitudeDegrees>
            </Position>
            <AltitudeMeters>322</AltitudeMeters>
            <DistanceMeters>NAN</DistanceMeters>
          </Trackpoint>
          <Trackpoint>
            <Time>2022-09-23T10:15:19.000Z</Time>
            <Position>
              <LatitudeDegrees>49.564566202461719512939453125</LatitudeDegrees>
              <LongitudeDegrees>20.6353562884032726287841796875</LongitudeDegrees>
            </Position>
            <AltitudeMeters>322</AltitudeMeters>
            <DistanceMeters>NAN</DistanceMeters>
          </Trackpoint>
          <Trackpoint>
            <Time>2022-09-23T10:15:25.000Z</Time>
            <Position>
              <LatitudeDegrees>49.5645656995475292205810546875</LatitudeDegrees>
              <LongitudeDegrees>20.63542812131345272064208984375</LongitudeDegrees>
            </Position>
            <AltitudeMeters>322</AltitudeMeters>
            <DistanceMeters>NAN</DistanceMeters>
          </Trackpoint>
          <Trackpoint>
            <Time>2022-09-23T10:15:26.000Z</Time>
            <Position>
              <LatitudeDegrees>49.5642025955021381378173828125</LatitudeDegrees>
              <LongitudeDegrees>20.635346733033657073974609375</LongitudeDegrees>
            </Position>
            <AltitudeMeters>322</AltitudeMeters>
            <DistanceMeters>NAN</DistanceMeters>
          </Trackpoint>
          <Trackpoint>
            <Time>2022-09-23T10:15:30.000Z</Time>
            <Position>
              <LatitudeDegrees>49.56423503346741199493408203125</LatitudeDegrees>
              <LongitudeDegrees>20.63534044660627841949462890625</LongitudeDegrees>
            </Position>
            <AltitudeMeters>322</AltitudeMeters>
            <DistanceMeters>NAN</DistanceMeters>
          </Trackpoint>
          <Trackpoint>
            <Time>2022-09-23T10:15:36.000Z</Time>
            <Position>
              <LatitudeDegrees>49.56431415863335132598876953125</LatitudeDegrees>
              <LongitudeDegrees>20.63539559952914714813232421875</LongitudeDegrees>
            </Position>
            <AltitudeMeters>322</AltitudeMeters>
            <DistanceMeters>NAN</DistanceMeters>
          </Trackpoint>
          <Trackpoint>
            <Time>2022-09-23T10:15:42.000Z</Time>
            <Position>
              <LatitudeDegrees>49.56422732211649417877197265625</LatitudeDegrees>
              <LongitudeDegrees>20.63529216684401035308837890625</LongitudeDegrees>
            </Position>
            <AltitudeMeters>322</AltitudeMeters>
            <DistanceMeters>NAN</DistanceMeters>
          </Trackpoint>
          <Trackpoint>
            <Time>2022-09-23T10:15:47.000Z</Time>
            <Position>
              <LatitudeDegrees>49.56421424634754657745361328125</LatitudeDegrees>
              <LongitudeDegrees>20.6353053264319896697998046875</LongitudeDegrees>
            </Position>
            <AltitudeMeters>322</AltitudeMeters>
            <DistanceMeters>NAN</DistanceMeters>
          </Trackpoint>
          <Trackpoint>
            <Time>2022-09-23T10:15:54.000Z</Time>
            <Position>
              <LatitudeDegrees>49.5642284117639064788818359375</LatitudeDegrees>
              <LongitudeDegrees>20.63531815074384212493896484375</LongitudeDegrees>
            </Position>
            <AltitudeMeters>322</AltitudeMeters>
            <DistanceMeters>NAN</DistanceMeters>
          </Trackpoint>
          <Trackpoint>
            <Time>2022-09-23T10:16:00.000Z</Time>
            <Position>
              <LatitudeDegrees>49.5642448402941226959228515625</LatitudeDegrees>
              <LongitudeDegrees>20.63539601862430572509765625</LongitudeDegrees>
            </Position>
            <AltitudeMeters>322</AltitudeMeters>
            <DistanceMeters>NAN</DistanceMeters>
          </Trackpoint>
          <Trackpoint>
            <Time>2022-09-23T10:16:05.000Z</Time>
            <Position>
              <LatitudeDegrees>49.56422078423202037811279296875</LatitudeDegrees>
              <LongitudeDegrees>20.63553549349308013916015625</LongitudeDegrees>
            </Position>
            <AltitudeMeters>322</AltitudeMeters>
            <DistanceMeters>NAN</DistanceMeters>
          </Trackpoint>
          <Trackpoint>
            <Time>2022-09-23T10:16:10.000Z</Time>
            <Position>
              <LatitudeDegrees>49.5642478577792644500732421875</LatitudeDegrees>
              <LongitudeDegrees>20.635612942278385162353515625</LongitudeDegrees>
            </Position>
            <AltitudeMeters>322</AltitudeMeters>
            <DistanceMeters>NAN</DistanceMeters>
          </Trackpoint>
          <Trackpoint>
            <Time>2022-09-23T10:16:14.000Z</Time>
            <Position>
              <LatitudeDegrees>49.56424425356090068817138671875</LatitudeDegrees>
              <LongitudeDegrees>20.635669268667697906494140625</LongitudeDegrees>
            </Position>
            <AltitudeMeters>322</AltitudeMeters>
            <DistanceMeters>NAN</DistanceMeters>
          </Trackpoint>
          <Trackpoint>
            <Time>2022-09-23T10:16:15.000Z</Time>
            <Position>
              <LatitudeDegrees>49.56424123607575893402099609375</LatitudeDegrees>
              <LongitudeDegrees>20.63568343408405780792236328125</LongitudeDegrees>
            </Position>
            <AltitudeMeters>322</AltitudeMeters>
            <DistanceMeters>NAN</DistanceMeters>
          </Trackpoint>
          <Trackpoint>
            <Time>2022-09-23T10:16:20.000Z</Time>
            <Position>
              <LatitudeDegrees>49.564243666827678680419921875</LatitudeDegrees>
              <LongitudeDegrees>20.6357274390757083892822265625</LongitudeDegrees>
            </Position>
            <AltitudeMeters>322</AltitudeMeters>
            <DistanceMeters>NAN</DistanceMeters>
          </Trackpoint>
          <Trackpoint>
            <Time>2022-09-23T10:16:27.000Z</Time>
            <Position>
              <LatitudeDegrees>49.5642404817044734954833984375</LatitudeDegrees>
              <LongitudeDegrees>20.63577496446669101715087890625</LongitudeDegrees>
            </Position>
            <AltitudeMeters>322</AltitudeMeters>
            <DistanceMeters>NAN</DistanceMeters>
          </Trackpoint>
          <Trackpoint>
            <Time>2022-09-23T10:16:34.000Z</Time>
            <Position>
              <LatitudeDegrees>49.56424911506474018096923828125</LatitudeDegrees>
              <LongitudeDegrees>20.635772533714771270751953125</LongitudeDegrees>
            </Position>
            <AltitudeMeters>322</AltitudeMeters>
            <DistanceMeters>NAN</DistanceMeters>
          </Trackpoint>
          <Trackpoint>
            <Time>2022-09-23T10:16:40.000Z</Time>
            <Position>
              <LatitudeDegrees>49.56424777396023273468017578125</LatitudeDegrees>
              <LongitudeDegrees>20.63584201969206333160400390625</LongitudeDegrees>
            </Position>
            <AltitudeMeters>322</AltitudeMeters>
            <DistanceMeters>NAN</DistanceMeters>
          </Trackpoint>
          <Trackpoint>
            <Time>2022-09-23T10:16:46.000Z</Time>
            <Position>
              <LatitudeDegrees>49.56424064934253692626953125</LatitudeDegrees>
              <LongitudeDegrees>20.635906644165515899658203125</LongitudeDegrees>
            </Position>
            <AltitudeMeters>322</AltitudeMeters>
            <DistanceMeters>NAN</DistanceMeters>
          </Trackpoint>
          <Trackpoint>
            <Time>2022-09-23T10:16:52.000Z</Time>
            <Position>
              <LatitudeDegrees>49.56424023024737834930419921875</LatitudeDegrees>
              <LongitudeDegrees>20.63595400191843509674072265625</LongitudeDegrees>
            </Position>
            <AltitudeMeters>322</AltitudeMeters>
            <DistanceMeters>NAN</DistanceMeters>
          </Trackpoint>
          <Trackpoint>
            <Time>2022-09-23T10:16:53.000Z</Time>
            <Position>
              <LatitudeDegrees>49.564235620200634002685546875</LatitudeDegrees>
              <LongitudeDegrees>20.635972358286380767822265625</LongitudeDegrees>
            </Position>
            <AltitudeMeters>322</AltitudeMeters>
            <DistanceMeters>NAN</DistanceMeters>
          </Trackpoint>
          <Trackpoint>
            <Time>2022-09-23T10:16:58.000Z</Time>
            <Position>
              <LatitudeDegrees>49.56426235847175121307373046875</LatitudeDegrees>
              <LongitudeDegrees>20.63601066358387470245361328125</LongitudeDegrees>
            </Position>
            <AltitudeMeters>322</AltitudeMeters>
            <DistanceMeters>NAN</DistanceMeters>
          </Trackpoint>
          <Trackpoint>
            <Time>2022-09-23T10:17:02.000Z</Time>
            <Position>
              <LatitudeDegrees>49.56426336430013179779052734375</LatitudeDegrees>
              <LongitudeDegrees>20.6360794790089130401611328125</LongitudeDegrees>
            </Position>
            <AltitudeMeters>322</AltitudeMeters>
            <DistanceMeters>NAN</DistanceMeters>
          </Trackpoint>
          <Trackpoint>
            <Time>2022-09-23T10:17:05.000Z</Time>
            <Position>
              <LatitudeDegrees>49.56424425356090068817138671875</LatitudeDegrees>
              <LongitudeDegrees>20.63612448982894420623779296875</LongitudeDegrees>
            </Position>
            <AltitudeMeters>322</AltitudeMeters>
            <DistanceMeters>NAN</DistanceMeters>
          </Trackpoint>
          <Trackpoint>
            <Time>2022-09-23T10:17:10.000Z</Time>
            <Position>
              <LatitudeDegrees>49.56422816030681133270263671875</LatitudeDegrees>
              <LongitudeDegrees>20.63614577986299991607666015625</LongitudeDegrees>
            </Position>
            <AltitudeMeters>322</AltitudeMeters>
            <DistanceMeters>NAN</DistanceMeters>
          </Trackpoint>
          <Trackpoint>
            <Time>2022-09-23T10:17:12.000Z</Time>
            <Position>
              <LatitudeDegrees>49.56422849558293819427490234375</LatitudeDegrees>
              <LongitudeDegrees>20.6361535750329494476318359375</LongitudeDegrees>
            </Position>
            <AltitudeMeters>322</AltitudeMeters>
            <DistanceMeters>NAN</DistanceMeters>
          </Trackpoint>
          <Trackpoint>
            <Time>2022-09-23T10:17:16.000Z</Time>
            <Position>
              <LatitudeDegrees>49.5642331056296825408935546875</LatitudeDegrees>
              <LongitudeDegrees>20.63617779873311519622802734375</LongitudeDegrees>
            </Position>
            <AltitudeMeters>322</AltitudeMeters>
            <DistanceMeters>NAN</DistanceMeters>
          </Trackpoint>
          <Trackpoint>
            <Time>2022-09-23T10:17:23.000Z</Time>
            <Position>
              <LatitudeDegrees>49.56424199044704437255859375</LatitudeDegrees>
              <LongitudeDegrees>20.6362337060272693634033203125</LongitudeDegrees>
            </Position>
            <AltitudeMeters>322</AltitudeMeters>
            <DistanceMeters>NAN</DistanceMeters>
          </Trackpoint>
          <Trackpoint>
            <Time>2022-09-23T10:17:30.000Z</Time>
            <Position>
              <LatitudeDegrees>49.5642649568617343902587890625</LatitudeDegrees>
              <LongitudeDegrees>20.6362442672252655029296875</LongitudeDegrees>
            </Position>
            <AltitudeMeters>322</AltitudeMeters>
            <DistanceMeters>NAN</DistanceMeters>
          </Trackpoint>
          <Trackpoint>
            <Time>2022-09-23T10:17:31.000Z</Time>
            <Position>
              <LatitudeDegrees>49.56426973454654216766357421875</LatitudeDegrees>
              <LongitudeDegrees>20.63626077957451343536376953125</LongitudeDegrees>
            </Position>
            <AltitudeMeters>322</AltitudeMeters>
            <DistanceMeters>NAN</DistanceMeters>
          </Trackpoint>
          <Trackpoint>
            <Time>2022-09-23T10:17:32.000Z</Time>
            <Position>
              <LatitudeDegrees>49.5642709918320178985595703125</LatitudeDegrees>
              <LongitudeDegrees>20.63626916147768497467041015625</LongitudeDegrees>
            </Position>
            <AltitudeMeters>322</AltitudeMeters>
            <DistanceMeters>NAN</DistanceMeters>
          </Trackpoint>
          <Trackpoint>
            <Time>2022-09-23T10:17:34.000Z</Time>
            <Position>
              <LatitudeDegrees>49.56426889635622501373291015625</LatitudeDegrees>
              <LongitudeDegrees>20.6362658925354480743408203125</LongitudeDegrees>
            </Position>
            <AltitudeMeters>322</AltitudeMeters>
            <DistanceMeters>NAN</DistanceMeters>
          </Trackpoint>
          <Trackpoint>
            <Time>2022-09-23T10:17:40.000Z</Time>
            <Position>
              <LatitudeDegrees>49.56426738761365413665771484375</LatitudeDegrees>
              <LongitudeDegrees>20.63620344735682010650634765625</LongitudeDegrees>
            </Position>
            <AltitudeMeters>322</AltitudeMeters>
            <DistanceMeters>NAN</DistanceMeters>
          </Trackpoint>
          <Trackpoint>
            <Time>2022-09-23T10:17:46.000Z</Time>
            <Position>
              <LatitudeDegrees>49.564275853335857391357421875</LatitudeDegrees>
              <LongitudeDegrees>20.6361691653728485107421875</LongitudeDegrees>
            </Position>
            <AltitudeMeters>322.399993896484375</AltitudeMeters>
            <DistanceMeters>NAN</DistanceMeters>
          </Trackpoint>
          <Trackpoint>
            <Time>2022-09-23T10:17:48.000Z</Time>
            <Position>
              <LatitudeDegrees>49.5642532221972942352294921875</LatitudeDegrees>
              <LongitudeDegrees>20.6361763738095760345458984375</LongitudeDegrees>
            </Position>
            <AltitudeMeters>322.399993896484375</AltitudeMeters>
            <DistanceMeters>NAN</DistanceMeters>
          </Trackpoint>
          <Trackpoint>
            <Time>2022-09-23T10:17:50.000Z</Time>
            <Position>
              <LatitudeDegrees>49.5642277412116527557373046875</LatitudeDegrees>
              <LongitudeDegrees>20.6361803971230983734130859375</LongitudeDegrees>
            </Position>
            <AltitudeMeters>322.399993896484375</AltitudeMeters>
            <DistanceMeters>NAN</DistanceMeters>
          </Trackpoint>
          <Trackpoint>
            <Time>2022-09-23T10:17:51.000Z</Time>
            <Position>
              <LatitudeDegrees>49.5642144978046417236328125</LatitudeDegrees>
              <LongitudeDegrees>20.63617813400924205780029296875</LongitudeDegrees>
            </Position>
            <AltitudeMeters>322.399993896484375</AltitudeMeters>
            <DistanceMeters>NAN</DistanceMeters>
          </Trackpoint>
          <Trackpoint>
            <Time>2022-09-23T10:17:53.000Z</Time>
            <Position>
              <LatitudeDegrees>49.56420242786407470703125</LatitudeDegrees>
              <LongitudeDegrees>20.63616505824029445648193359375</LongitudeDegrees>
            </Position>
            <AltitudeMeters>322.20001220703125</AltitudeMeters>
            <DistanceMeters>NAN</DistanceMeters>
          </Trackpoint>
          <Trackpoint>
            <Time>2022-09-23T10:17:55.000Z</Time>
            <Position>
              <LatitudeDegrees>49.56419899128377437591552734375</LatitudeDegrees>
              <LongitudeDegrees>20.6361391581594944000244140625</LongitudeDegrees>
            </Position>
            <AltitudeMeters>322.20001220703125</AltitudeMeters>
            <DistanceMeters>NAN</DistanceMeters>
          </Trackpoint>
          <Trackpoint>
            <Time>2022-09-23T10:17:57.000Z</Time>
            <Position>
              <LatitudeDegrees>49.56420066766440868377685546875</LatitudeDegrees>
              <LongitudeDegrees>20.636105127632617950439453125</LongitudeDegrees>
            </Position>
            <AltitudeMeters>322</AltitudeMeters>
            <DistanceMeters>NAN</DistanceMeters>
          </Trackpoint>
          <Trackpoint>
            <Time>2022-09-23T10:17:59.000Z</Time>
            <Position>
              <LatitudeDegrees>49.56419278867542743682861328125</LatitudeDegrees>
              <LongitudeDegrees>20.63608056865632534027099609375</LongitudeDegrees>
            </Position>
            <AltitudeMeters>322.20001220703125</AltitudeMeters>
            <DistanceMeters>NAN</DistanceMeters>
          </Trackpoint>
          <Trackpoint>
            <Time>2022-09-23T10:18:01.000Z</Time>
            <Position>
              <LatitudeDegrees>49.56418004818260669708251953125</LatitudeDegrees>
              <LongitudeDegrees>20.63607587479054927825927734375</LongitudeDegrees>
            </Position>
            <AltitudeMeters>322.399993896484375</AltitudeMeters>
            <DistanceMeters>NAN</DistanceMeters>
          </Trackpoint>
          <Trackpoint>
            <Time>2022-09-23T10:18:08.000Z</Time>
            <Position>
              <LatitudeDegrees>49.564100839197635650634765625</LatitudeDegrees>
              <LongitudeDegrees>20.63608224503695964813232421875</LongitudeDegrees>
            </Position>
            <AltitudeMeters>322.600006103515625</AltitudeMeters>
            <DistanceMeters>NAN</DistanceMeters>
          </Trackpoint>
          <Trackpoint>
            <Time>2022-09-23T10:18:13.000Z</Time>
            <Position>
              <LatitudeDegrees>49.564032442867755889892578125</LatitudeDegrees>
              <LongitudeDegrees>20.6360714323818683624267578125</LongitudeDegrees>
            </Position>
            <AltitudeMeters>322.79998779296875</AltitudeMeters>
            <DistanceMeters>NAN</DistanceMeters>
          </Trackpoint>
          <Trackpoint>
            <Time>2022-09-23T10:18:14.000Z</Time>
            <Position>
              <LatitudeDegrees>49.56401878036558628082275390625</LatitudeDegrees>
              <LongitudeDegrees>20.63606749288737773895263671875</LongitudeDegrees>
            </Position>
            <AltitudeMeters>322.79998779296875</AltitudeMeters>
            <DistanceMeters>NAN</DistanceMeters>
          </Trackpoint>
          <Trackpoint>
            <Time>2022-09-23T10:18:19.000Z</Time>
            <Position>
              <LatitudeDegrees>49.56396547146141529083251953125</LatitudeDegrees>
              <LongitudeDegrees>20.6360523216426372528076171875</LongitudeDegrees>
            </Position>
            <AltitudeMeters>323</AltitudeMeters>
            <DistanceMeters>NAN</DistanceMeters>
          </Trackpoint>
          <Trackpoint>
            <Time>2022-09-23T10:18:24.000Z</Time>
            <Position>
              <LatitudeDegrees>49.56390763632953166961669921875</LatitudeDegrees>
              <LongitudeDegrees>20.63607201911509037017822265625</LongitudeDegrees>
            </Position>
            <AltitudeMeters>323</AltitudeMeters>
            <DistanceMeters>NAN</DistanceMeters>
          </Trackpoint>
          <Trackpoint>
            <Time>2022-09-23T10:18:26.000Z</Time>
            <Position>
              <LatitudeDegrees>49.56389523111283779144287109375</LatitudeDegrees>
              <LongitudeDegrees>20.6360798142850399017333984375</LongitudeDegrees>
            </Position>
            <AltitudeMeters>323</AltitudeMeters>
            <DistanceMeters>NAN</DistanceMeters>
          </Trackpoint>
          <Trackpoint>
            <Time>2022-09-23T10:18:30.000Z</Time>
            <Position>
              <LatitudeDegrees>49.56386555917561054229736328125</LatitudeDegrees>
              <LongitudeDegrees>20.6360754556953907012939453125</LongitudeDegrees>
            </Position>
            <AltitudeMeters>323</AltitudeMeters>
            <DistanceMeters>NAN</DistanceMeters>
          </Trackpoint>
          <Trackpoint>
            <Time>2022-09-23T10:18:35.000Z</Time>
            <Position>
              <LatitudeDegrees>49.56383186392486095428466796875</LatitudeDegrees>
              <LongitudeDegrees>20.63603782095015048980712890625</LongitudeDegrees>
            </Position>
            <AltitudeMeters>323.399993896484375</AltitudeMeters>
            <DistanceMeters>NAN</DistanceMeters>
          </Trackpoint>
          <Trackpoint>
            <Time>2022-09-23T10:18:38.000Z</Time>
            <Position>
              <LatitudeDegrees>49.56383429467678070068359375</LatitudeDegrees>
              <LongitudeDegrees>20.63601485453546047210693359375</LongitudeDegrees>
            </Position>
            <AltitudeMeters>323.399993896484375</AltitudeMeters>
            <DistanceMeters>NAN</DistanceMeters>
          </Trackpoint>
          <Trackpoint>
            <Time>2022-09-23T10:18:40.000Z</Time>
            <Position>
              <LatitudeDegrees>49.563848040997982025146484375</LatitudeDegrees>
              <LongitudeDegrees>20.63601669855415821075439453125</LongitudeDegrees>
            </Position>
            <AltitudeMeters>323.600006103515625</AltitudeMeters>
            <DistanceMeters>NAN</DistanceMeters>
          </Trackpoint>
          <Trackpoint>
            <Time>2022-09-23T10:18:45.000Z</Time>
            <Position>
              <LatitudeDegrees>49.5638854242861270904541015625</LatitudeDegrees>
              <LongitudeDegrees>20.63603170216083526611328125</LongitudeDegrees>
            </Position>
            <AltitudeMeters>323.399993896484375</AltitudeMeters>
            <DistanceMeters>NAN</DistanceMeters>
          </Trackpoint>
          <Trackpoint>
            <Time>2022-09-23T10:18:50.000Z</Time>
            <Position>
              <LatitudeDegrees>49.5639290101826190948486328125</LatitudeDegrees>
              <LongitudeDegrees>20.63605659641325473785400390625</LongitudeDegrees>
            </Position>
            <AltitudeMeters>323.399993896484375</AltitudeMeters>
            <DistanceMeters>NAN</DistanceMeters>
          </Trackpoint>
          <Trackpoint>
            <Time>2022-09-23T10:18:51.000Z</Time>
            <Position>
              <LatitudeDegrees>49.56394099630415439605712890625</LatitudeDegrees>
              <LongitudeDegrees>20.63605584204196929931640625</LongitudeDegrees>
            </Position>
            <AltitudeMeters>323.399993896484375</AltitudeMeters>
            <DistanceMeters>NAN</DistanceMeters>
          </Trackpoint>
          <Trackpoint>
            <Time>2022-09-23T10:18:56.000Z</Time>
            <Position>
              <LatitudeDegrees>49.563996903598308563232421875</LatitudeDegrees>
              <LongitudeDegrees>20.6360395811498165130615234375</LongitudeDegrees>
            </Position>
            <AltitudeMeters>323.20001220703125</AltitudeMeters>
            <DistanceMeters>NAN</DistanceMeters>
          </Trackpoint>
          <Trackpoint>
            <Time>2022-09-23T10:18:58.000Z</Time>
            <Position>
              <LatitudeDegrees>49.56401878036558628082275390625</LatitudeDegrees>
              <LongitudeDegrees>20.63604838214814662933349609375</LongitudeDegrees>
            </Position>
            <AltitudeMeters>323.20001220703125</AltitudeMeters>
            <DistanceMeters>NAN</DistanceMeters>
          </Trackpoint>
          <Trackpoint>
            <Time>2022-09-23T10:19:04.000Z</Time>
            <Position>
              <LatitudeDegrees>49.564074687659740447998046875</LatitudeDegrees>
              <LongitudeDegrees>20.63604318536818027496337890625</LongitudeDegrees>
            </Position>
            <AltitudeMeters>322.79998779296875</AltitudeMeters>
            <DistanceMeters>NAN</DistanceMeters>
          </Trackpoint>
          <Trackpoint>
            <Time>2022-09-23T10:19:10.000Z</Time>
            <Position>
              <LatitudeDegrees>49.5641673915088176727294921875</LatitudeDegrees>
              <LongitudeDegrees>20.63606011681258678436279296875</LongitudeDegrees>
            </Position>
            <AltitudeMeters>322.79998779296875</AltitudeMeters>
            <DistanceMeters>NAN</DistanceMeters>
          </Trackpoint>
          <Trackpoint>
            <Time>2022-09-23T10:19:12.000Z</Time>
            <Position>
              <LatitudeDegrees>49.5641863346099853515625</LatitudeDegrees>
              <LongitudeDegrees>20.63609196804463863372802734375</LongitudeDegrees>
            </Position>
            <AltitudeMeters>322.79998779296875</AltitudeMeters>
            <DistanceMeters>NAN</DistanceMeters>
          </Trackpoint>
          <Trackpoint>
            <Time>2022-09-23T10:19:15.000Z</Time>
            <Position>
              <LatitudeDegrees>49.5642267353832721710205078125</LatitudeDegrees>
              <LongitudeDegrees>20.63615231774747371673583984375</LongitudeDegrees>
            </Position>
            <AltitudeMeters>322.600006103515625</AltitudeMeters>
            <DistanceMeters>NAN</DistanceMeters>
          </Trackpoint>
          <Trackpoint>
            <Time>2022-09-23T10:19:18.000Z</Time>
            <Position>
              <LatitudeDegrees>49.5642441697418689727783203125</LatitudeDegrees>
              <LongitudeDegrees>20.6361800618469715118408203125</LongitudeDegrees>
            </Position>
            <AltitudeMeters>322.20001220703125</AltitudeMeters>
            <DistanceMeters>NAN</DistanceMeters>
          </Trackpoint>
          <Trackpoint>
            <Time>2022-09-23T10:19:22.000Z</Time>
            <Position>
              <LatitudeDegrees>49.5642354525625705718994140625</LatitudeDegrees>
              <LongitudeDegrees>20.63616472296416759490966796875</LongitudeDegrees>
            </Position>
            <AltitudeMeters>322</AltitudeMeters>
            <DistanceMeters>NAN</DistanceMeters>
          </Trackpoint>
          <Trackpoint>
            <Time>2022-09-23T10:19:23.000Z</Time>
            <Position>
              <LatitudeDegrees>49.56424559466540813446044921875</LatitudeDegrees>
              <LongitudeDegrees>20.63616472296416759490966796875</LongitudeDegrees>
            </Position>
            <AltitudeMeters>322.20001220703125</AltitudeMeters>
            <DistanceMeters>NAN</DistanceMeters>
          </Trackpoint>
          <Trackpoint>
            <Time>2022-09-23T10:19:28.000Z</Time>
            <Position>
              <LatitudeDegrees>49.56428046338260173797607421875</LatitudeDegrees>
              <LongitudeDegrees>20.63612851314246654510498046875</LongitudeDegrees>
            </Position>
            <AltitudeMeters>322.600006103515625</AltitudeMeters>
            <DistanceMeters>NAN</DistanceMeters>
          </Trackpoint>
          <Trackpoint>
            <Time>2022-09-23T10:19:33.000Z</Time>
            <Position>
              <LatitudeDegrees>49.5643001608550548553466796875</LatitudeDegrees>
              <LongitudeDegrees>20.63610034994781017303466796875</LongitudeDegrees>
            </Position>
            <AltitudeMeters>322.600006103515625</AltitudeMeters>
            <DistanceMeters>NAN</DistanceMeters>
          </Trackpoint>
          <Trackpoint>
            <Time>2022-09-23T10:19:41.000Z</Time>
            <Position>
              <LatitudeDegrees>49.564308710396289825439453125</LatitudeDegrees>
              <LongitudeDegrees>20.63608559779822826385498046875</LongitudeDegrees>
            </Position>
            <AltitudeMeters>322.600006103515625</AltitudeMeters>
            <DistanceMeters>NAN</DistanceMeters>
          </Trackpoint>
          <Trackpoint>
            <Time>2022-09-23T10:19:50.000Z</Time>
            <Position>
              <LatitudeDegrees>49.56430728547275066375732421875</LatitudeDegrees>
              <LongitudeDegrees>20.63607637770473957061767578125</LongitudeDegrees>
            </Position>
            <AltitudeMeters>322.600006103515625</AltitudeMeters>
            <DistanceMeters>NAN</DistanceMeters>
          </Trackpoint>
          <Trackpoint>
            <Time>2022-09-23T10:20:01.000Z</Time>
            <Position>
              <LatitudeDegrees>49.56439219415187835693359375</LatitudeDegrees>
              <LongitudeDegrees>20.63605408184230327606201171875</LongitudeDegrees>
            </Position>
            <AltitudeMeters>322.600006103515625</AltitudeMeters>
            <DistanceMeters>NAN</DistanceMeters>
          </Trackpoint>
          <Trackpoint>
            <Time>2022-09-23T10:20:07.000Z</Time>
            <Position>
              <LatitudeDegrees>49.5644795335829257965087890625</LatitudeDegrees>
              <LongitudeDegrees>20.6360120885074138641357421875</LongitudeDegrees>
            </Position>
            <AltitudeMeters>322.399993896484375</AltitudeMeters>
            <DistanceMeters>NAN</DistanceMeters>
          </Trackpoint>
          <Trackpoint>
            <Time>2022-09-23T10:20:08.000Z</Time>
            <Position>
              <LatitudeDegrees>49.5644922740757465362548828125</LatitudeDegrees>
              <LongitudeDegrees>20.6360110826790332794189453125</LongitudeDegrees>
            </Position>
            <AltitudeMeters>322.399993896484375</AltitudeMeters>
            <DistanceMeters>NAN</DistanceMeters>
          </Trackpoint>
          <Trackpoint>
            <Time>2022-09-23T10:20:09.000Z</Time>
            <Position>
              <LatitudeDegrees>49.564507193863391876220703125</LatitudeDegrees>
              <LongitudeDegrees>20.63600529916584491729736328125</LongitudeDegrees>
            </Position>
            <AltitudeMeters>322.399993896484375</AltitudeMeters>
            <DistanceMeters>NAN</DistanceMeters>
          </Trackpoint>
          <Trackpoint>
            <Time>2022-09-23T10:20:11.000Z</Time>
            <Position>
              <LatitudeDegrees>49.56453032791614532470703125</LatitudeDegrees>
              <LongitudeDegrees>20.63600488007068634033203125</LongitudeDegrees>
            </Position>
            <AltitudeMeters>322.399993896484375</AltitudeMeters>
            <DistanceMeters>NAN</DistanceMeters>
          </Trackpoint>
          <Trackpoint>
            <Time>2022-09-23T10:20:13.000Z</Time>
            <Position>
              <LatitudeDegrees>49.56453443504869937896728515625</LatitudeDegrees>
              <LongitudeDegrees>20.63599658198654651641845703125</LongitudeDegrees>
            </Position>
            <AltitudeMeters>322.20001220703125</AltitudeMeters>
            <DistanceMeters>NAN</DistanceMeters>
          </Trackpoint>
          <Trackpoint>
            <Time>2022-09-23T10:20:16.000Z</Time>
            <Position>
              <LatitudeDegrees>49.56456980668008327484130859375</LatitudeDegrees>
              <LongitudeDegrees>20.63597545959055423736572265625</LongitudeDegrees>
            </Position>
            <AltitudeMeters>322.20001220703125</AltitudeMeters>
            <DistanceMeters>NAN</DistanceMeters>
          </Trackpoint>
          <Trackpoint>
            <Time>2022-09-23T10:20:21.000Z</Time>
            <Position>
              <LatitudeDegrees>49.56464842893183231353759765625</LatitudeDegrees>
              <LongitudeDegrees>20.635947883129119873046875</LongitudeDegrees>
            </Position>
            <AltitudeMeters>322</AltitudeMeters>
            <DistanceMeters>NAN</DistanceMeters>
          </Trackpoint>
          <Trackpoint>
            <Time>2022-09-23T10:20:23.000Z</Time>
            <Position>
              <LatitudeDegrees>49.5646798610687255859375</LatitudeDegrees>
              <LongitudeDegrees>20.63595400191843509674072265625</LongitudeDegrees>
            </Position>
            <AltitudeMeters>322</AltitudeMeters>
            <DistanceMeters>NAN</DistanceMeters>
          </Trackpoint>
          <Trackpoint>
            <Time>2022-09-23T10:20:29.000Z</Time>
            <Position>
              <LatitudeDegrees>49.56474683247506618499755859375</LatitudeDegrees>
              <LongitudeDegrees>20.63605475239455699920654296875</LongitudeDegrees>
            </Position>
            <AltitudeMeters>322</AltitudeMeters>
            <DistanceMeters>NAN</DistanceMeters>
          </Trackpoint>
          <Trackpoint>
            <Time>2022-09-23T10:20:32.000Z</Time>
            <Position>
              <LatitudeDegrees>49.5647682063281536102294921875</LatitudeDegrees>
              <LongitudeDegrees>20.63606414012610912322998046875</LongitudeDegrees>
            </Position>
            <AltitudeMeters>322</AltitudeMeters>
            <DistanceMeters>NAN</DistanceMeters>
          </Trackpoint>
          <Trackpoint>
            <Time>2022-09-23T10:20:33.000Z</Time>
            <Position>
              <LatitudeDegrees>49.56477700732648372650146484375</LatitudeDegrees>
              <LongitudeDegrees>20.6360623799264430999755859375</LongitudeDegrees>
            </Position>
            <AltitudeMeters>321.79998779296875</AltitudeMeters>
            <DistanceMeters>NAN</DistanceMeters>
          </Trackpoint>
          <Trackpoint>
            <Time>2022-09-23T10:20:34.000Z</Time>
            <Position>
              <LatitudeDegrees>49.5647873170673847198486328125</LatitudeDegrees>
              <LongitudeDegrees>20.63605525530874729156494140625</LongitudeDegrees>
            </Position>
            <AltitudeMeters>321.79998779296875</AltitudeMeters>
            <DistanceMeters>NAN</DistanceMeters>
          </Trackpoint>
          <Trackpoint>
            <Time>2022-09-23T10:20:35.000Z</Time>
            <Position>
              <LatitudeDegrees>49.56479863263666629791259765625</LatitudeDegrees>
              <LongitudeDegrees>20.6360484659671783447265625</LongitudeDegrees>
            </Position>
            <AltitudeMeters>321.79998779296875</AltitudeMeters>
            <DistanceMeters>NAN</DistanceMeters>
          </Trackpoint>
          <Trackpoint>
            <Time>2022-09-23T10:20:37.000Z</Time>
            <Position>
              <LatitudeDegrees>49.56481606699526309967041015625</LatitudeDegrees>
              <LongitudeDegrees>20.6360228173434734344482421875</LongitudeDegrees>
            </Position>
            <AltitudeMeters>321.79998779296875</AltitudeMeters>
            <DistanceMeters>NAN</DistanceMeters>
          </Trackpoint>
          <Trackpoint>
            <Time>2022-09-23T10:20:40.000Z</Time>
            <Position>
              <LatitudeDegrees>49.56484942696988582611083984375</LatitudeDegrees>
              <LongitudeDegrees>20.6360254995524883270263671875</LongitudeDegrees>
            </Position>
            <AltitudeMeters>321.600006103515625</AltitudeMeters>
            <DistanceMeters>NAN</DistanceMeters>
          </Trackpoint>
          <Trackpoint>
            <Time>2022-09-23T10:20:43.000Z</Time>
            <Position>
              <LatitudeDegrees>49.5648577250540256500244140625</LatitudeDegrees>
              <LongitudeDegrees>20.6360077299177646636962890625</LongitudeDegrees>
            </Position>
            <AltitudeMeters>321.600006103515625</AltitudeMeters>
            <DistanceMeters>NAN</DistanceMeters>
          </Trackpoint>
          <Trackpoint>
            <Time>2022-09-23T10:20:48.000Z</Time>
            <Position>
              <LatitudeDegrees>49.56485764123499393463134765625</LatitudeDegrees>
              <LongitudeDegrees>20.636003203690052032470703125</LongitudeDegrees>
            </Position>
            <AltitudeMeters>321.79998779296875</AltitudeMeters>
            <DistanceMeters>NAN</DistanceMeters>
          </Trackpoint>
          <Trackpoint>
            <Time>2022-09-23T10:20:51.000Z</Time>
            <Position>
              <LatitudeDegrees>49.564893431961536407470703125</LatitudeDegrees>
              <LongitudeDegrees>20.635985098779201507568359375</LongitudeDegrees>
            </Position>
            <AltitudeMeters>321.600006103515625</AltitudeMeters>
            <DistanceMeters>NAN</DistanceMeters>
          </Trackpoint>
          <Trackpoint>
            <Time>2022-09-23T10:20:53.000Z</Time>
            <Position>
              <LatitudeDegrees>49.5649348385632038116455078125</LatitudeDegrees>
              <LongitudeDegrees>20.63597998581826686859130859375</LongitudeDegrees>
            </Position>
            <AltitudeMeters>321.600006103515625</AltitudeMeters>
            <DistanceMeters>NAN</DistanceMeters>
          </Trackpoint>
          <Trackpoint>
            <Time>2022-09-23T10:20:59.000Z</Time>
            <Position>
              <LatitudeDegrees>49.5650847069919109344482421875</LatitudeDegrees>
              <LongitudeDegrees>20.63596758060157299041748046875</LongitudeDegrees>
            </Position>
            <AltitudeMeters>321.399993896484375</AltitudeMeters>
            <DistanceMeters>NAN</DistanceMeters>
          </Trackpoint>
          <Trackpoint>
            <Time>2022-09-23T10:21:00.000Z</Time>
            <Position>
              <LatitudeDegrees>49.56511504948139190673828125</LatitudeDegrees>
              <LongitudeDegrees>20.63596506603062152862548828125</LongitudeDegrees>
            </Position>
            <AltitudeMeters>321.399993896484375</AltitudeMeters>
            <DistanceMeters>NAN</DistanceMeters>
          </Trackpoint>
          <Trackpoint>
            <Time>2022-09-23T10:21:09.000Z</Time>
            <Position>
              <LatitudeDegrees>49.56534530036151409149169921875</LatitudeDegrees>
              <LongitudeDegrees>20.63594209961593151092529296875</LongitudeDegrees>
            </Position>
            <AltitudeMeters>321.600006103515625</AltitudeMeters>
            <DistanceMeters>NAN</DistanceMeters>
          </Trackpoint>
          <Trackpoint>
            <Time>2022-09-23T10:21:15.000Z</Time>
            <Position>
              <LatitudeDegrees>49.56555300392210483551025390625</LatitudeDegrees>
              <LongitudeDegrees>20.63593891449272632598876953125</LongitudeDegrees>
            </Position>
            <AltitudeMeters>322</AltitudeMeters>
            <DistanceMeters>NAN</DistanceMeters>
          </Trackpoint>
          <Trackpoint>
            <Time>2022-09-23T10:21:19.000Z</Time>
            <Position>
              <LatitudeDegrees>49.56567294895648956298828125</LatitudeDegrees>
              <LongitudeDegrees>20.6359202228486537933349609375</LongitudeDegrees>
            </Position>
            <AltitudeMeters>322.399993896484375</AltitudeMeters>
            <DistanceMeters>NAN</DistanceMeters>
          </Trackpoint>
          <Trackpoint>
            <Time>2022-09-23T10:21:22.000Z</Time>
            <Position>
              <LatitudeDegrees>49.565768502652645111083984375</LatitudeDegrees>
              <LongitudeDegrees>20.6358937360346317291259765625</LongitudeDegrees>
            </Position>
            <AltitudeMeters>322.399993896484375</AltitudeMeters>
            <DistanceMeters>NAN</DistanceMeters>
          </Trackpoint>
          <Trackpoint>
            <Time>2022-09-23T10:21:25.000Z</Time>
            <Position>
              <LatitudeDegrees>49.5658494718372821807861328125</LatitudeDegrees>
              <LongitudeDegrees>20.6358716078102588653564453125</LongitudeDegrees>
            </Position>
            <AltitudeMeters>322.79998779296875</AltitudeMeters>
            <DistanceMeters>NAN</DistanceMeters>
          </Trackpoint>
          <Trackpoint>
            <Time>2022-09-23T10:21:28.000Z</Time>
            <Position>
              <LatitudeDegrees>49.56592029891908168792724609375</LatitudeDegrees>
              <LongitudeDegrees>20.63587152399122714996337890625</LongitudeDegrees>
            </Position>
            <AltitudeMeters>323</AltitudeMeters>
            <DistanceMeters>NAN</DistanceMeters>
          </Trackpoint>
          <Trackpoint>
            <Time>2022-09-23T10:21:35.000Z</Time>
            <Position>
              <LatitudeDegrees>49.56605784595012664794921875</LatitudeDegrees>
              <LongitudeDegrees>20.63587672077119350433349609375</LongitudeDegrees>
            </Position>
            <AltitudeMeters>323</AltitudeMeters>
            <DistanceMeters>NAN</DistanceMeters>
          </Trackpoint>
          <Trackpoint>
            <Time>2022-09-23T10:21:41.000Z</Time>
            <Position>
              <LatitudeDegrees>49.5662176050245761871337890625</LatitudeDegrees>
              <LongitudeDegrees>20.635842941701412200927734375</LongitudeDegrees>
            </Position>
            <AltitudeMeters>322.79998779296875</AltitudeMeters>
            <DistanceMeters>NAN</DistanceMeters>
          </Trackpoint>
          <Trackpoint>
            <Time>2022-09-23T10:21:50.000Z</Time>
            <Position>
              <LatitudeDegrees>49.566493369638919830322265625</LatitudeDegrees>
              <LongitudeDegrees>20.63579876907169818878173828125</LongitudeDegrees>
            </Position>
            <AltitudeMeters>322.20001220703125</AltitudeMeters>
            <DistanceMeters>NAN</DistanceMeters>
          </Trackpoint>
          <Trackpoint>
            <Time>2022-09-23T10:21:54.000Z</Time>
            <Position>
              <LatitudeDegrees>49.5666326768696308135986328125</LatitudeDegrees>
              <LongitudeDegrees>20.6358065642416477203369140625</LongitudeDegrees>
            </Position>
            <AltitudeMeters>321.79998779296875</AltitudeMeters>
            <DistanceMeters>NAN</DistanceMeters>
          </Trackpoint>
          <Trackpoint>
            <Time>2022-09-23T10:21:57.000Z</Time>
            <Position>
              <LatitudeDegrees>49.5667397975921630859375</LatitudeDegrees>
              <LongitudeDegrees>20.635805390775203704833984375</LongitudeDegrees>
            </Position>
            <AltitudeMeters>321.399993896484375</AltitudeMeters>
            <DistanceMeters>NAN</DistanceMeters>
          </Trackpoint>
          <Trackpoint>
            <Time>2022-09-23T10:22:01.000Z</Time>
            <Position>
              <LatitudeDegrees>49.5668754167854785919189453125</LatitudeDegrees>
              <LongitudeDegrees>20.6358085758984088897705078125</LongitudeDegrees>
            </Position>
            <AltitudeMeters>320.79998779296875</AltitudeMeters>
            <DistanceMeters>NAN</DistanceMeters>
          </Trackpoint>
          <Trackpoint>
            <Time>2022-09-23T10:22:02.000Z</Time>
            <Position>
              <LatitudeDegrees>49.5669025741517543792724609375</LatitudeDegrees>
              <LongitudeDegrees>20.63580597750842571258544921875</LongitudeDegrees>
            </Position>
            <AltitudeMeters>320.79998779296875</AltitudeMeters>
            <DistanceMeters>NAN</DistanceMeters>
          </Trackpoint>
          <Trackpoint>
            <Time>2022-09-23T10:22:05.000Z</Time>
            <Position>
              <LatitudeDegrees>49.5669664442539215087890625</LatitudeDegrees>
              <LongitudeDegrees>20.63579558394849300384521484375</LongitudeDegrees>
            </Position>
            <AltitudeMeters>320.600006103515625</AltitudeMeters>
            <DistanceMeters>NAN</DistanceMeters>
          </Trackpoint>
          <Trackpoint>
            <Time>2022-09-23T10:22:06.000Z</Time>
            <Position>
              <LatitudeDegrees>49.5669867284595966339111328125</LatitudeDegrees>
              <LongitudeDegrees>20.6357928179204463958740234375</LongitudeDegrees>
            </Position>
            <AltitudeMeters>320.600006103515625</AltitudeMeters>
            <DistanceMeters>NAN</DistanceMeters>
          </Trackpoint>
          <Trackpoint>
            <Time>2022-09-23T10:22:09.000Z</Time>
            <Position>
              <LatitudeDegrees>49.56705571152269840240478515625</LatitudeDegrees>
              <LongitudeDegrees>20.63580446876585483551025390625</LongitudeDegrees>
            </Position>
            <AltitudeMeters>320.20001220703125</AltitudeMeters>
            <DistanceMeters>NAN</DistanceMeters>
          </Trackpoint>
          <Trackpoint>
            <Time>2022-09-23T10:22:12.000Z</Time>
            <Position>
              <LatitudeDegrees>49.56714053638279438018798828125</LatitudeDegrees>
              <LongitudeDegrees>20.6358152814209461212158203125</LongitudeDegrees>
            </Position>
            <AltitudeMeters>319.79998779296875</AltitudeMeters>
            <DistanceMeters>NAN</DistanceMeters>
          </Trackpoint>
          <Trackpoint>
            <Time>2022-09-23T10:22:14.000Z</Time>
            <Position>
              <LatitudeDegrees>49.56720859743654727935791015625</LatitudeDegrees>
              <LongitudeDegrees>20.63581368885934352874755859375</LongitudeDegrees>
            </Position>
            <AltitudeMeters>319.600006103515625</AltitudeMeters>
            <DistanceMeters>NAN</DistanceMeters>
          </Trackpoint>
          <Trackpoint>
            <Time>2022-09-23T10:22:17.000Z</Time>
            <Position>
              <LatitudeDegrees>49.5673075877130031585693359375</LatitudeDegrees>
              <LongitudeDegrees>20.6357670016586780548095703125</LongitudeDegrees>
            </Position>
            <AltitudeMeters>319</AltitudeMeters>
            <DistanceMeters>NAN</DistanceMeters>
          </Trackpoint>
          <Trackpoint>
            <Time>2022-09-23T10:22:19.000Z</Time>
            <Position>
              <LatitudeDegrees>49.5673796720802783966064453125</LatitudeDegrees>
              <LongitudeDegrees>20.63574093393981456756591796875</LongitudeDegrees>
            </Position>
            <AltitudeMeters>318.600006103515625</AltitudeMeters>
            <DistanceMeters>NAN</DistanceMeters>
          </Trackpoint>
          <Trackpoint>
            <Time>2022-09-23T10:22:22.000Z</Time>
            <Position>
              <LatitudeDegrees>49.56749542616307735443115234375</LatitudeDegrees>
              <LongitudeDegrees>20.6356997787952423095703125</LongitudeDegrees>
            </Position>
            <AltitudeMeters>317.79998779296875</AltitudeMeters>
            <DistanceMeters>NAN</DistanceMeters>
          </Trackpoint>
          <Trackpoint>
            <Time>2022-09-23T10:22:23.000Z</Time>
            <Position>
              <LatitudeDegrees>49.5675295405089855194091796875</LatitudeDegrees>
              <LongitudeDegrees>20.63568796031177043914794921875</LongitudeDegrees>
            </Position>
            <AltitudeMeters>317.399993896484375</AltitudeMeters>
            <DistanceMeters>NAN</DistanceMeters>
          </Trackpoint>
          <Trackpoint>
            <Time>2022-09-23T10:22:25.000Z</Time>
            <Position>
              <LatitudeDegrees>49.567580334842205047607421875</LatitudeDegrees>
              <LongitudeDegrees>20.635657869279384613037109375</LongitudeDegrees>
            </Position>
            <AltitudeMeters>317.20001220703125</AltitudeMeters>
            <DistanceMeters>NAN</DistanceMeters>
          </Trackpoint>
          <Trackpoint>
            <Time>2022-09-23T10:22:28.000Z</Time>
            <Position>
              <LatitudeDegrees>49.56766541115939617156982421875</LatitudeDegrees>
              <LongitudeDegrees>20.63563339412212371826171875</LongitudeDegrees>
            </Position>
            <AltitudeMeters>316.600006103515625</AltitudeMeters>
            <DistanceMeters>NAN</DistanceMeters>
          </Trackpoint>
          <Trackpoint>
            <Time>2022-09-23T10:22:29.000Z</Time>
            <Position>
              <LatitudeDegrees>49.5676986873149871826171875</LatitudeDegrees>
              <LongitudeDegrees>20.63561604358255863189697265625</LongitudeDegrees>
            </Position>
            <AltitudeMeters>316.399993896484375</AltitudeMeters>
            <DistanceMeters>NAN</DistanceMeters>
          </Trackpoint>
          <Trackpoint>
            <Time>2022-09-23T10:22:31.000Z</Time>
            <Position>
              <LatitudeDegrees>49.56777772866189479827880859375</LatitudeDegrees>
              <LongitudeDegrees>20.63559408299624919891357421875</LongitudeDegrees>
            </Position>
            <AltitudeMeters>315.79998779296875</AltitudeMeters>
            <DistanceMeters>NAN</DistanceMeters>
          </Trackpoint>
          <Trackpoint>
            <Time>2022-09-23T10:22:33.000Z</Time>
            <Position>
              <LatitudeDegrees>49.56785970367491245269775390625</LatitudeDegrees>
              <LongitudeDegrees>20.635604225099086761474609375</LongitudeDegrees>
            </Position>
            <AltitudeMeters>315.399993896484375</AltitudeMeters>
            <DistanceMeters>NAN</DistanceMeters>
          </Trackpoint>
          <Trackpoint>
            <Time>2022-09-23T10:22:35.000Z</Time>
            <Position>
              <LatitudeDegrees>49.5679580233991146087646484375</LatitudeDegrees>
              <LongitudeDegrees>20.63568041659891605377197265625</LongitudeDegrees>
            </Position>
            <AltitudeMeters>314.79998779296875</AltitudeMeters>
            <DistanceMeters>NAN</DistanceMeters>
          </Trackpoint>
          <Trackpoint>
            <Time>2022-09-23T10:22:37.000Z</Time>
            <Position>
              <LatitudeDegrees>49.5680612884461879730224609375</LatitudeDegrees>
              <LongitudeDegrees>20.635778568685054779052734375</LongitudeDegrees>
            </Position>
            <AltitudeMeters>314.20001220703125</AltitudeMeters>
            <DistanceMeters>NAN</DistanceMeters>
          </Trackpoint>
          <Trackpoint>
            <Time>2022-09-23T10:22:40.000Z</Time>
            <Position>
              <LatitudeDegrees>49.56820989958941936492919921875</LatitudeDegrees>
              <LongitudeDegrees>20.63589516095817089080810546875</LongitudeDegrees>
            </Position>
            <AltitudeMeters>313.20001220703125</AltitudeMeters>
            <DistanceMeters>NAN</DistanceMeters>
          </Trackpoint>
          <Trackpoint>
            <Time>2022-09-23T10:22:41.000Z</Time>
            <Position>
              <LatitudeDegrees>49.568256251513957977294921875</LatitudeDegrees>
              <LongitudeDegrees>20.63592097721993923187255859375</LongitudeDegrees>
            </Position>
            <AltitudeMeters>312.79998779296875</AltitudeMeters>
            <DistanceMeters>NAN</DistanceMeters>
          </Trackpoint>
          <Trackpoint>
            <Time>2022-09-23T10:22:42.000Z</Time>
            <Position>
              <LatitudeDegrees>49.56829539500176906585693359375</LatitudeDegrees>
              <LongitudeDegrees>20.63593355007469654083251953125</LongitudeDegrees>
            </Position>
            <AltitudeMeters>312.79998779296875</AltitudeMeters>
            <DistanceMeters>NAN</DistanceMeters>
          </Trackpoint>
          <Trackpoint>
            <Time>2022-09-23T10:22:45.000Z</Time>
            <Position>
              <LatitudeDegrees>49.568357169628143310546875</LatitudeDegrees>
              <LongitudeDegrees>20.635977722704410552978515625</LongitudeDegrees>
            </Position>
            <AltitudeMeters>312.79998779296875</AltitudeMeters>
            <DistanceMeters>NAN</DistanceMeters>
          </Trackpoint>
          <Trackpoint>
            <Time>2022-09-23T10:22:49.000Z</Time>
            <Position>
              <LatitudeDegrees>49.56835842691361904144287109375</LatitudeDegrees>
              <LongitudeDegrees>20.63602725975215435028076171875</LongitudeDegrees>
            </Position>
            <AltitudeMeters>313</AltitudeMeters>
            <DistanceMeters>NAN</DistanceMeters>
          </Trackpoint>
          <Trackpoint>
            <Time>2022-09-23T10:22:50.000Z</Time>
            <Position>
              <LatitudeDegrees>49.56835842691361904144287109375</LatitudeDegrees>
              <LongitudeDegrees>20.63602725975215435028076171875</LongitudeDegrees>
            </Position>
            <AltitudeMeters>313</AltitudeMeters>
            <DistanceMeters>NAN</DistanceMeters>
          </Trackpoint>
          <Trackpoint>
            <Time>2022-09-23T10:22:53.000Z</Time>
            <Position>
              <LatitudeDegrees>49.56835842691361904144287109375</LatitudeDegrees>
              <LongitudeDegrees>20.63602725975215435028076171875</LongitudeDegrees>
            </Position>
            <AltitudeMeters>313</AltitudeMeters>
            <DistanceMeters>NAN</DistanceMeters>
          </Trackpoint>
          <Trackpoint>
            <Time>2022-09-23T10:22:59.000Z</Time>
            <Position>
              <LatitudeDegrees>49.56835842691361904144287109375</LatitudeDegrees>
              <LongitudeDegrees>20.63602725975215435028076171875</LongitudeDegrees>
            </Position>
            <AltitudeMeters>313</AltitudeMeters>
            <DistanceMeters>NAN</DistanceMeters>
          </Trackpoint>
          <Trackpoint>
            <Time>2022-09-23T10:23:14.000Z</Time>
            <Position>
              <LatitudeDegrees>49.56835842691361904144287109375</LatitudeDegrees>
              <LongitudeDegrees>20.63602725975215435028076171875</LongitudeDegrees>
            </Position>
            <AltitudeMeters>313</AltitudeMeters>
            <DistanceMeters>NAN</DistanceMeters>
          </Trackpoint>
          <Trackpoint>
            <Time>2022-09-23T10:23:15.000Z</Time>
            <Position>
              <LatitudeDegrees>49.56835842691361904144287109375</LatitudeDegrees>
              <LongitudeDegrees>20.63602725975215435028076171875</LongitudeDegrees>
            </Position>
            <AltitudeMeters>313</AltitudeMeters>
            <DistanceMeters>NAN</DistanceMeters>
          </Trackpoint>
          <Trackpoint>
            <Time>2022-09-23T10:23:16.000Z</Time>
            <Position>
              <LatitudeDegrees>49.56835842691361904144287109375</LatitudeDegrees>
              <LongitudeDegrees>20.63602725975215435028076171875</LongitudeDegrees>
            </Position>
            <AltitudeMeters>313</AltitudeMeters>
            <DistanceMeters>NAN</DistanceMeters>
          </Trackpoint>
          <Trackpoint>
            <Time>2022-09-23T10:23:22.000Z</Time>
            <Position>
              <LatitudeDegrees>49.56834585405886173248291015625</LatitudeDegrees>
              <LongitudeDegrees>20.6360167823731899261474609375</LongitudeDegrees>
            </Position>
            <AltitudeMeters>313.20001220703125</AltitudeMeters>
            <DistanceMeters>NAN</DistanceMeters>
          </Trackpoint>
          <Trackpoint>
            <Time>2022-09-23T10:23:24.000Z</Time>
            <Position>
              <LatitudeDegrees>49.56834585405886173248291015625</LatitudeDegrees>
              <LongitudeDegrees>20.6360167823731899261474609375</LongitudeDegrees>
            </Position>
            <AltitudeMeters>313.20001220703125</AltitudeMeters>
            <DistanceMeters>NAN</DistanceMeters>
          </Trackpoint>
          <Trackpoint>
            <Time>2022-09-23T10:23:25.000Z</Time>
            <Position>
              <LatitudeDegrees>49.56834350712597370147705078125</LatitudeDegrees>
              <LongitudeDegrees>20.63601292669773101806640625</LongitudeDegrees>
            </Position>
            <AltitudeMeters>313.20001220703125</AltitudeMeters>
            <DistanceMeters>NAN</DistanceMeters>
          </Trackpoint>
          <Trackpoint>
            <Time>2022-09-23T10:23:27.000Z</Time>
            <Position>
              <LatitudeDegrees>49.5683405734598636627197265625</LatitudeDegrees>
              <LongitudeDegrees>20.63596858642995357513427734375</LongitudeDegrees>
            </Position>
            <AltitudeMeters>313.20001220703125</AltitudeMeters>
            <DistanceMeters>NAN</DistanceMeters>
          </Trackpoint>
          <Trackpoint>
            <Time>2022-09-23T10:23:28.000Z</Time>
            <Position>
              <LatitudeDegrees>49.56833294592797756195068359375</LatitudeDegrees>
              <LongitudeDegrees>20.63594545237720012664794921875</LongitudeDegrees>
            </Position>
            <AltitudeMeters>313.20001220703125</AltitudeMeters>
            <DistanceMeters>NAN</DistanceMeters>
          </Trackpoint>
          <Trackpoint>
            <Time>2022-09-23T10:23:29.000Z</Time>
            <Position>
              <LatitudeDegrees>49.56832825206220149993896484375</LatitudeDegrees>
              <LongitudeDegrees>20.63592215068638324737548828125</LongitudeDegrees>
            </Position>
            <AltitudeMeters>313.20001220703125</AltitudeMeters>
            <DistanceMeters>NAN</DistanceMeters>
          </Trackpoint>
          <Trackpoint>
            <Time>2022-09-23T10:23:36.000Z</Time>
            <Position>
              <LatitudeDegrees>49.568311236798763275146484375</LatitudeDegrees>
              <LongitudeDegrees>20.6358290277421474456787109375</LongitudeDegrees>
            </Position>
            <AltitudeMeters>313.20001220703125</AltitudeMeters>
            <DistanceMeters>NAN</DistanceMeters>
          </Trackpoint>
          <Trackpoint>
            <Time>2022-09-23T10:23:37.000Z</Time>
            <Position>
              <LatitudeDegrees>49.56830025650560855865478515625</LatitudeDegrees>
              <LongitudeDegrees>20.63580480404198169708251953125</LongitudeDegrees>
            </Position>
            <AltitudeMeters>313.20001220703125</AltitudeMeters>
            <DistanceMeters>NAN</DistanceMeters>
          </Trackpoint>
          <Trackpoint>
            <Time>2022-09-23T10:23:42.000Z</Time>
            <Position>
              <LatitudeDegrees>49.56826438196003437042236328125</LatitudeDegrees>
              <LongitudeDegrees>20.63572458922863006591796875</LongitudeDegrees>
            </Position>
            <AltitudeMeters>313</AltitudeMeters>
            <DistanceMeters>NAN</DistanceMeters>
          </Trackpoint>
          <Trackpoint>
            <Time>2022-09-23T10:23:44.000Z</Time>
            <Position>
              <LatitudeDegrees>49.5682614482939243316650390625</LatitudeDegrees>
              <LongitudeDegrees>20.63568863086402416229248046875</LongitudeDegrees>
            </Position>
            <AltitudeMeters>313</AltitudeMeters>
            <DistanceMeters>NAN</DistanceMeters>
          </Trackpoint>
          <Trackpoint>
            <Time>2022-09-23T10:23:45.000Z</Time>
            <Position>
              <LatitudeDegrees>49.5682673156261444091796875</LatitudeDegrees>
              <LongitudeDegrees>20.6356687657535076141357421875</LongitudeDegrees>
            </Position>
            <AltitudeMeters>313</AltitudeMeters>
            <DistanceMeters>NAN</DistanceMeters>
          </Trackpoint>
          <Trackpoint>
            <Time>2022-09-23T10:23:46.000Z</Time>
            <Position>
              <LatitudeDegrees>49.5682765357196331024169921875</LatitudeDegrees>
              <LongitudeDegrees>20.6356523372232913970947265625</LongitudeDegrees>
            </Position>
            <AltitudeMeters>313</AltitudeMeters>
            <DistanceMeters>NAN</DistanceMeters>
          </Trackpoint>
          <Trackpoint>
            <Time>2022-09-23T10:23:49.000Z</Time>
            <Position>
              <LatitudeDegrees>49.5683211274445056915283203125</LatitudeDegrees>
              <LongitudeDegrees>20.635626353323459625244140625</LongitudeDegrees>
            </Position>
            <AltitudeMeters>313</AltitudeMeters>
            <DistanceMeters>NAN</DistanceMeters>
          </Trackpoint>
          <Trackpoint>
            <Time>2022-09-23T10:23:56.000Z</Time>
            <Position>
              <LatitudeDegrees>49.56840804778039455413818359375</LatitudeDegrees>
              <LongitudeDegrees>20.63571243546903133392333984375</LongitudeDegrees>
            </Position>
            <AltitudeMeters>313</AltitudeMeters>
            <DistanceMeters>NAN</DistanceMeters>
          </Trackpoint>
          <Trackpoint>
            <Time>2022-09-23T10:23:57.000Z</Time>
            <Position>
              <LatitudeDegrees>49.56842414103448390960693359375</LatitudeDegrees>
              <LongitudeDegrees>20.6357078254222869873046875</LongitudeDegrees>
            </Position>
            <AltitudeMeters>312.79998779296875</AltitudeMeters>
            <DistanceMeters>NAN</DistanceMeters>
          </Trackpoint>
          <Trackpoint>
            <Time>2022-09-23T10:24:03.000Z</Time>
            <Position>
              <LatitudeDegrees>49.56855364143848419189453125</LatitudeDegrees>
              <LongitudeDegrees>20.6356124393641948699951171875</LongitudeDegrees>
            </Position>
            <AltitudeMeters>312.600006103515625</AltitudeMeters>
            <DistanceMeters>NAN</DistanceMeters>
          </Trackpoint>
          <Trackpoint>
            <Time>2022-09-23T10:24:08.000Z</Time>
            <Position>
              <LatitudeDegrees>49.5686812140047550201416015625</LatitudeDegrees>
              <LongitudeDegrees>20.63551613129675388336181640625</LongitudeDegrees>
            </Position>
            <AltitudeMeters>312.600006103515625</AltitudeMeters>
            <DistanceMeters>NAN</DistanceMeters>
          </Trackpoint>
          <Trackpoint>
            <Time>2022-09-23T10:24:13.000Z</Time>
            <Position>
              <LatitudeDegrees>49.5688052661716938018798828125</LatitudeDegrees>
              <LongitudeDegrees>20.63541420735418796539306640625</LongitudeDegrees>
            </Position>
            <AltitudeMeters>312.600006103515625</AltitudeMeters>
            <DistanceMeters>NAN</DistanceMeters>
          </Trackpoint>
          <Trackpoint>
            <Time>2022-09-23T10:24:17.000Z</Time>
            <Position>
              <LatitudeDegrees>49.56889562308788299560546875</LatitudeDegrees>
              <LongitudeDegrees>20.63535955734550952911376953125</LongitudeDegrees>
            </Position>
            <AltitudeMeters>312.600006103515625</AltitudeMeters>
            <DistanceMeters>NAN</DistanceMeters>
          </Trackpoint>
          <Trackpoint>
            <Time>2022-09-23T10:24:19.000Z</Time>
            <Position>
              <LatitudeDegrees>49.56893543712794780731201171875</LatitudeDegrees>
              <LongitudeDegrees>20.635373555123805999755859375</LongitudeDegrees>
            </Position>
            <AltitudeMeters>312.600006103515625</AltitudeMeters>
            <DistanceMeters>NAN</DistanceMeters>
          </Trackpoint>
          <Trackpoint>
            <Time>2022-09-23T10:24:20.000Z</Time>
            <Position>
              <LatitudeDegrees>49.56895597279071807861328125</LatitudeDegrees>
              <LongitudeDegrees>20.635368525981903076171875</LongitudeDegrees>
            </Position>
            <AltitudeMeters>312.600006103515625</AltitudeMeters>
            <DistanceMeters>NAN</DistanceMeters>
          </Trackpoint>
          <Trackpoint>
            <Time>2022-09-23T10:24:23.000Z</Time>
            <Position>
              <LatitudeDegrees>49.56903082318603992462158203125</LatitudeDegrees>
              <LongitudeDegrees>20.63531463034451007843017578125</LongitudeDegrees>
            </Position>
            <AltitudeMeters>312.20001220703125</AltitudeMeters>
            <DistanceMeters>NAN</DistanceMeters>
          </Trackpoint>
          <Trackpoint>
            <Time>2022-09-23T10:24:27.000Z</Time>
            <Position>
              <LatitudeDegrees>49.56914247013628482818603515625</LatitudeDegrees>
              <LongitudeDegrees>20.63521572388708591461181640625</LongitudeDegrees>
            </Position>
            <AltitudeMeters>312.20001220703125</AltitudeMeters>
            <DistanceMeters>NAN</DistanceMeters>
          </Trackpoint>
          <Trackpoint>
            <Time>2022-09-23T10:24:29.000Z</Time>
            <Position>
              <LatitudeDegrees>49.5691921748220920562744140625</LatitudeDegrees>
              <LongitudeDegrees>20.63515168614685535430908203125</LongitudeDegrees>
            </Position>
            <AltitudeMeters>312</AltitudeMeters>
            <DistanceMeters>NAN</DistanceMeters>
          </Trackpoint>
          <Trackpoint>
            <Time>2022-09-23T10:24:33.000Z</Time>
            <Position>
              <LatitudeDegrees>49.56924741156399250030517578125</LatitudeDegrees>
              <LongitudeDegrees>20.63498388044536113739013671875</LongitudeDegrees>
            </Position>
            <AltitudeMeters>312</AltitudeMeters>
            <DistanceMeters>NAN</DistanceMeters>
          </Trackpoint>
          <Trackpoint>
            <Time>2022-09-23T10:24:35.000Z</Time>
            <Position>
              <LatitudeDegrees>49.56925864331424236297607421875</LatitudeDegrees>
              <LongitudeDegrees>20.63490559346973896026611328125</LongitudeDegrees>
            </Position>
            <AltitudeMeters>312.20001220703125</AltitudeMeters>
            <DistanceMeters>NAN</DistanceMeters>
          </Trackpoint>
          <Trackpoint>
            <Time>2022-09-23T10:24:36.000Z</Time>
            <Position>
              <LatitudeDegrees>49.56926266662776470184326171875</LatitudeDegrees>
              <LongitudeDegrees>20.63486083410680294036865234375</LongitudeDegrees>
            </Position>
            <AltitudeMeters>312.20001220703125</AltitudeMeters>
            <DistanceMeters>NAN</DistanceMeters>
          </Trackpoint>
          <Trackpoint>
            <Time>2022-09-23T10:24:37.000Z</Time>
            <Position>
              <LatitudeDegrees>49.56926400773227214813232421875</LatitudeDegrees>
              <LongitudeDegrees>20.634812302887439727783203125</LongitudeDegrees>
            </Position>
            <AltitudeMeters>312.20001220703125</AltitudeMeters>
            <DistanceMeters>NAN</DistanceMeters>
          </Trackpoint>
          <Trackpoint>
            <Time>2022-09-23T10:24:38.000Z</Time>
            <Position>
              <LatitudeDegrees>49.569266103208065032958984375</LatitudeDegrees>
              <LongitudeDegrees>20.634762011468410491943359375</LongitudeDegrees>
            </Position>
            <AltitudeMeters>312.20001220703125</AltitudeMeters>
            <DistanceMeters>NAN</DistanceMeters>
          </Trackpoint>
          <Trackpoint>
            <Time>2022-09-23T10:24:42.000Z</Time>
            <Position>
              <LatitudeDegrees>49.56926752813160419464111328125</LatitudeDegrees>
              <LongitudeDegrees>20.63455087132751941680908203125</LongitudeDegrees>
            </Position>
            <AltitudeMeters>312.20001220703125</AltitudeMeters>
            <DistanceMeters>NAN</DistanceMeters>
          </Trackpoint>
          <Trackpoint>
            <Time>2022-09-23T10:24:49.000Z</Time>
            <Position>
              <LatitudeDegrees>49.5692354254424571990966796875</LatitudeDegrees>
              <LongitudeDegrees>20.63414652831852436065673828125</LongitudeDegrees>
            </Position>
            <AltitudeMeters>312.600006103515625</AltitudeMeters>
            <DistanceMeters>NAN</DistanceMeters>
          </Trackpoint>
          <Trackpoint>
            <Time>2022-09-23T10:24:54.000Z</Time>
            <Position>
              <LatitudeDegrees>49.56922058947384357452392578125</LatitudeDegrees>
              <LongitudeDegrees>20.633864142000675201416015625</LongitudeDegrees>
            </Position>
            <AltitudeMeters>312.79998779296875</AltitudeMeters>
            <DistanceMeters>NAN</DistanceMeters>
          </Trackpoint>
          <Trackpoint>
            <Time>2022-09-23T10:24:56.000Z</Time>
            <Position>
              <LatitudeDegrees>49.56921405158936977386474609375</LatitudeDegrees>
              <LongitudeDegrees>20.63376515172421932220458984375</LongitudeDegrees>
            </Position>
            <AltitudeMeters>313</AltitudeMeters>
            <DistanceMeters>NAN</DistanceMeters>
          </Trackpoint>
          <Trackpoint>
            <Time>2022-09-23T10:24:58.000Z</Time>
            <Position>
              <LatitudeDegrees>49.56921338103711605072021484375</LatitudeDegrees>
              <LongitudeDegrees>20.63367345370352268218994140625</LongitudeDegrees>
            </Position>
            <AltitudeMeters>313.20001220703125</AltitudeMeters>
            <DistanceMeters>NAN</DistanceMeters>
          </Trackpoint>
          <Trackpoint>
            <Time>2022-09-23T10:25:04.000Z</Time>
            <Position>
              <LatitudeDegrees>49.5692039094865322113037109375</LatitudeDegrees>
              <LongitudeDegrees>20.6333868764340877532958984375</LongitudeDegrees>
            </Position>
            <AltitudeMeters>313</AltitudeMeters>
            <DistanceMeters>NAN</DistanceMeters>
          </Trackpoint>
          <Trackpoint>
            <Time>2022-09-23T10:25:05.000Z</Time>
            <Position>
              <LatitudeDegrees>49.56919871270656585693359375</LatitudeDegrees>
              <LongitudeDegrees>20.63333298079669475555419921875</LongitudeDegrees>
            </Position>
            <AltitudeMeters>313</AltitudeMeters>
            <DistanceMeters>NAN</DistanceMeters>
          </Trackpoint>
          <Trackpoint>
            <Time>2022-09-23T10:25:13.000Z</Time>
            <Position>
              <LatitudeDegrees>49.5691685378551483154296875</LatitudeDegrees>
              <LongitudeDegrees>20.6328618340194225311279296875</LongitudeDegrees>
            </Position>
            <AltitudeMeters>313.399993896484375</AltitudeMeters>
            <DistanceMeters>NAN</DistanceMeters>
          </Trackpoint>
          <Trackpoint>
            <Time>2022-09-23T10:25:18.000Z</Time>
            <Position>
              <LatitudeDegrees>49.569155462086200714111328125</LatitudeDegrees>
              <LongitudeDegrees>20.63258481211960315704345703125</LongitudeDegrees>
            </Position>
            <AltitudeMeters>313.79998779296875</AltitudeMeters>
            <DistanceMeters>NAN</DistanceMeters>
          </Trackpoint>
          <Trackpoint>
            <Time>2022-09-23T10:25:24.000Z</Time>
            <Position>
              <LatitudeDegrees>49.569131322205066680908203125</LatitudeDegrees>
              <LongitudeDegrees>20.6323035992681980133056640625</LongitudeDegrees>
            </Position>
            <AltitudeMeters>314</AltitudeMeters>
            <DistanceMeters>NAN</DistanceMeters>
          </Trackpoint>
          <Trackpoint>
            <Time>2022-09-23T10:25:25.000Z</Time>
            <Position>
              <LatitudeDegrees>49.5691267959773540496826171875</LatitudeDegrees>
              <LongitudeDegrees>20.63226143829524517059326171875</LongitudeDegrees>
            </Position>
            <AltitudeMeters>314.20001220703125</AltitudeMeters>
            <DistanceMeters>NAN</DistanceMeters>
          </Trackpoint>
          <Trackpoint>
            <Time>2022-09-23T10:25:26.000Z</Time>
            <Position>
              <LatitudeDegrees>49.5691254548728466033935546875</LatitudeDegrees>
              <LongitudeDegrees>20.63221349380910396575927734375</LongitudeDegrees>
            </Position>
            <AltitudeMeters>314.20001220703125</AltitudeMeters>
            <DistanceMeters>NAN</DistanceMeters>
          </Trackpoint>
          <Trackpoint>
            <Time>2022-09-23T10:25:29.000Z</Time>
            <Position>
              <LatitudeDegrees>49.56912084482610225677490234375</LatitudeDegrees>
              <LongitudeDegrees>20.6320668943226337432861328125</LongitudeDegrees>
            </Position>
            <AltitudeMeters>314.20001220703125</AltitudeMeters>
            <DistanceMeters>NAN</DistanceMeters>
          </Trackpoint>
          <Trackpoint>
            <Time>2022-09-23T10:25:31.000Z</Time>
            <Position>
              <LatitudeDegrees>49.56911413930356502532958984375</LatitudeDegrees>
              <LongitudeDegrees>20.6319565884768962860107421875</LongitudeDegrees>
            </Position>
            <AltitudeMeters>314.20001220703125</AltitudeMeters>
            <DistanceMeters>NAN</DistanceMeters>
          </Trackpoint>
          <Trackpoint>
            <Time>2022-09-23T10:25:32.000Z</Time>
            <Position>
              <LatitudeDegrees>49.56911095418035984039306640625</LatitudeDegrees>
              <LongitudeDegrees>20.63190252520143985748291015625</LongitudeDegrees>
            </Position>
            <AltitudeMeters>314</AltitudeMeters>
            <DistanceMeters>NAN</DistanceMeters>
          </Trackpoint>
          <Trackpoint>
            <Time>2022-09-23T10:25:40.000Z</Time>
            <Position>
              <LatitudeDegrees>49.5690946094691753387451171875</LatitudeDegrees>
              <LongitudeDegrees>20.631509833037853240966796875</LongitudeDegrees>
            </Position>
            <AltitudeMeters>314.20001220703125</AltitudeMeters>
            <DistanceMeters>NAN</DistanceMeters>
          </Trackpoint>
          <Trackpoint>
            <Time>2022-09-23T10:25:47.000Z</Time>
            <Position>
              <LatitudeDegrees>49.56908530555665493011474609375</LatitudeDegrees>
              <LongitudeDegrees>20.6311539374291896820068359375</LongitudeDegrees>
            </Position>
            <AltitudeMeters>314.20001220703125</AltitudeMeters>
            <DistanceMeters>NAN</DistanceMeters>
          </Trackpoint>
          <Trackpoint>
            <Time>2022-09-23T10:25:53.000Z</Time>
            <Position>
              <LatitudeDegrees>49.56906770355999469757080078125</LatitudeDegrees>
              <LongitudeDegrees>20.6308210082352161407470703125</LongitudeDegrees>
            </Position>
            <AltitudeMeters>314.20001220703125</AltitudeMeters>
            <DistanceMeters>NAN</DistanceMeters>
          </Trackpoint>
          <Trackpoint>
            <Time>2022-09-23T10:25:59.000Z</Time>
            <Position>
              <LatitudeDegrees>49.56904926337301731109619140625</LatitudeDegrees>
              <LongitudeDegrees>20.63051699660718441009521484375</LongitudeDegrees>
            </Position>
            <AltitudeMeters>314.20001220703125</AltitudeMeters>
            <DistanceMeters>NAN</DistanceMeters>
          </Trackpoint>
          <Trackpoint>
            <Time>2022-09-23T10:26:00.000Z</Time>
            <Position>
              <LatitudeDegrees>49.5690397918224334716796875</LatitudeDegrees>
              <LongitudeDegrees>20.63046477735042572021484375</LongitudeDegrees>
            </Position>
            <AltitudeMeters>314.399993896484375</AltitudeMeters>
            <DistanceMeters>NAN</DistanceMeters>
          </Trackpoint>
          <Trackpoint>
            <Time>2022-09-23T10:26:02.000Z</Time>
            <Position>
              <LatitudeDegrees>49.56901573576033115386962890625</LatitudeDegrees>
              <LongitudeDegrees>20.6303702294826507568359375</LongitudeDegrees>
            </Position>
            <AltitudeMeters>314.399993896484375</AltitudeMeters>
            <DistanceMeters>NAN</DistanceMeters>
          </Trackpoint>
          <Trackpoint>
            <Time>2022-09-23T10:26:07.000Z</Time>
            <Position>
              <LatitudeDegrees>49.568966366350650787353515625</LatitudeDegrees>
              <LongitudeDegrees>20.6302128173410892486572265625</LongitudeDegrees>
            </Position>
            <AltitudeMeters>314.600006103515625</AltitudeMeters>
            <DistanceMeters>NAN</DistanceMeters>
          </Trackpoint>
          <Trackpoint>
            <Time>2022-09-23T10:26:14.000Z</Time>
            <Position>
              <LatitudeDegrees>49.56890492700040340423583984375</LatitudeDegrees>
              <LongitudeDegrees>20.630057416856288909912109375</LongitudeDegrees>
            </Position>
            <AltitudeMeters>314.79998779296875</AltitudeMeters>
            <DistanceMeters>NAN</DistanceMeters>
          </Trackpoint>
          <Trackpoint>
            <Time>2022-09-23T10:26:17.000Z</Time>
            <Position>
              <LatitudeDegrees>49.5688827149569988250732421875</LatitudeDegrees>
              <LongitudeDegrees>20.62997267581522464752197265625</LongitudeDegrees>
            </Position>
            <AltitudeMeters>314.79998779296875</AltitudeMeters>
            <DistanceMeters>NAN</DistanceMeters>
          </Trackpoint>
          <Trackpoint>
            <Time>2022-09-23T10:26:18.000Z</Time>
            <Position>
              <LatitudeDegrees>49.568871147930622100830078125</LatitudeDegrees>
              <LongitudeDegrees>20.6299419142305850982666015625</LongitudeDegrees>
            </Position>
            <AltitudeMeters>315</AltitudeMeters>
            <DistanceMeters>NAN</DistanceMeters>
          </Trackpoint>
          <Trackpoint>
            <Time>2022-09-23T10:26:22.000Z</Time>
            <Position>
              <LatitudeDegrees>49.5688216947019100189208984375</LatitudeDegrees>
              <LongitudeDegrees>20.62980755232274532318115234375</LongitudeDegrees>
            </Position>
            <AltitudeMeters>314.79998779296875</AltitudeMeters>
            <DistanceMeters>NAN</DistanceMeters>
          </Trackpoint>
          <Trackpoint>
            <Time>2022-09-23T10:26:25.000Z</Time>
            <Position>
              <LatitudeDegrees>49.5687841437757015228271484375</LatitudeDegrees>
              <LongitudeDegrees>20.62969557009637355804443359375</LongitudeDegrees>
            </Position>
            <AltitudeMeters>315</AltitudeMeters>
            <DistanceMeters>NAN</DistanceMeters>
          </Trackpoint>
          <Trackpoint>
            <Time>2022-09-23T10:26:29.000Z</Time>
            <Position>
              <LatitudeDegrees>49.5687420666217803955078125</LatitudeDegrees>
              <LongitudeDegrees>20.62952734529972076416015625</LongitudeDegrees>
            </Position>
            <AltitudeMeters>314.79998779296875</AltitudeMeters>
            <DistanceMeters>NAN</DistanceMeters>
          </Trackpoint>
          <Trackpoint>
            <Time>2022-09-23T10:26:36.000Z</Time>
            <Position>
              <LatitudeDegrees>49.56869035027921199798583984375</LatitudeDegrees>
              <LongitudeDegrees>20.6292053125798702239990234375</LongitudeDegrees>
            </Position>
            <AltitudeMeters>314.79998779296875</AltitudeMeters>
            <DistanceMeters>NAN</DistanceMeters>
          </Trackpoint>
          <Trackpoint>
            <Time>2022-09-23T10:26:39.000Z</Time>
            <Position>
              <LatitudeDegrees>49.56866495311260223388671875</LatitudeDegrees>
              <LongitudeDegrees>20.629052929580211639404296875</LongitudeDegrees>
            </Position>
            <AltitudeMeters>314.79998779296875</AltitudeMeters>
            <DistanceMeters>NAN</DistanceMeters>
          </Trackpoint>
          <Trackpoint>
            <Time>2022-09-23T10:26:44.000Z</Time>
            <Position>
              <LatitudeDegrees>49.56863486208021640777587890625</LatitudeDegrees>
              <LongitudeDegrees>20.6288157217204570770263671875</LongitudeDegrees>
            </Position>
            <AltitudeMeters>314.600006103515625</AltitudeMeters>
            <DistanceMeters>NAN</DistanceMeters>
          </Trackpoint>
          <Trackpoint>
            <Time>2022-09-23T10:26:46.000Z</Time>
            <Position>
              <LatitudeDegrees>49.56861273385584354400634765625</LatitudeDegrees>
              <LongitudeDegrees>20.6287305615842342376708984375</LongitudeDegrees>
            </Position>
            <AltitudeMeters>314.79998779296875</AltitudeMeters>
            <DistanceMeters>NAN</DistanceMeters>
          </Trackpoint>
          <Trackpoint>
            <Time>2022-09-23T10:26:52.000Z</Time>
            <Position>
              <LatitudeDegrees>49.5685514621436595916748046875</LatitudeDegrees>
              <LongitudeDegrees>20.62848136760294437408447265625</LongitudeDegrees>
            </Position>
            <AltitudeMeters>315.20001220703125</AltitudeMeters>
            <DistanceMeters>NAN</DistanceMeters>
          </Trackpoint>
          <Trackpoint>
            <Time>2022-09-23T10:26:53.000Z</Time>
            <Position>
              <LatitudeDegrees>49.5685422420501708984375</LatitudeDegrees>
              <LongitudeDegrees>20.62844775617122650146484375</LongitudeDegrees>
            </Position>
            <AltitudeMeters>315.20001220703125</AltitudeMeters>
            <DistanceMeters>NAN</DistanceMeters>
          </Trackpoint>
          <Trackpoint>
            <Time>2022-09-23T10:26:56.000Z</Time>
            <Position>
              <LatitudeDegrees>49.56852413713932037353515625</LatitudeDegrees>
              <LongitudeDegrees>20.62838061712682247161865234375</LongitudeDegrees>
            </Position>
            <AltitudeMeters>315.600006103515625</AltitudeMeters>
            <DistanceMeters>NAN</DistanceMeters>
          </Trackpoint>
          <Trackpoint>
            <Time>2022-09-23T10:26:57.000Z</Time>
            <Position>
              <LatitudeDegrees>49.568524472415447235107421875</LatitudeDegrees>
              <LongitudeDegrees>20.628361590206623077392578125</LongitudeDegrees>
            </Position>
            <AltitudeMeters>315.79998779296875</AltitudeMeters>
            <DistanceMeters>NAN</DistanceMeters>
          </Trackpoint>
          <Trackpoint>
            <Time>2022-09-23T10:27:02.000Z</Time>
            <Position>
              <LatitudeDegrees>49.5685236342251300811767578125</LatitudeDegrees>
              <LongitudeDegrees>20.628356225788593292236328125</LongitudeDegrees>
            </Position>
            <AltitudeMeters>316</AltitudeMeters>
            <DistanceMeters>NAN</DistanceMeters>
          </Trackpoint>
          <Trackpoint>
            <Time>2022-09-23T10:27:08.000Z</Time>
            <Position>
              <LatitudeDegrees>49.5685236342251300811767578125</LatitudeDegrees>
              <LongitudeDegrees>20.628356225788593292236328125</LongitudeDegrees>
            </Position>
            <AltitudeMeters>316</AltitudeMeters>
            <DistanceMeters>NAN</DistanceMeters>
          </Trackpoint>
          <Trackpoint>
            <Time>2022-09-23T10:27:13.000Z</Time>
            <Position>
              <LatitudeDegrees>49.5685236342251300811767578125</LatitudeDegrees>
              <LongitudeDegrees>20.628356225788593292236328125</LongitudeDegrees>
            </Position>
            <AltitudeMeters>316</AltitudeMeters>
            <DistanceMeters>NAN</DistanceMeters>
          </Trackpoint>
          <Trackpoint>
            <Time>2022-09-23T10:27:23.000Z</Time>
            <Position>
              <LatitudeDegrees>49.5685236342251300811767578125</LatitudeDegrees>
              <LongitudeDegrees>20.628356225788593292236328125</LongitudeDegrees>
            </Position>
            <AltitudeMeters>316.20001220703125</AltitudeMeters>
            <DistanceMeters>NAN</DistanceMeters>
          </Trackpoint>
          <Trackpoint>
            <Time>2022-09-23T10:27:31.000Z</Time>
            <Position>
              <LatitudeDegrees>49.5685236342251300811767578125</LatitudeDegrees>
              <LongitudeDegrees>20.628356225788593292236328125</LongitudeDegrees>
            </Position>
            <AltitudeMeters>316</AltitudeMeters>
            <DistanceMeters>NAN</DistanceMeters>
          </Trackpoint>
          <Trackpoint>
            <Time>2022-09-23T10:27:35.000Z</Time>
            <Position>
              <LatitudeDegrees>49.5685236342251300811767578125</LatitudeDegrees>
              <LongitudeDegrees>20.628356225788593292236328125</LongitudeDegrees>
            </Position>
            <AltitudeMeters>316.20001220703125</AltitudeMeters>
            <DistanceMeters>NAN</DistanceMeters>
          </Trackpoint>
          <Trackpoint>
            <Time>2022-09-23T10:27:46.000Z</Time>
            <Position>
              <LatitudeDegrees>49.5685236342251300811767578125</LatitudeDegrees>
              <LongitudeDegrees>20.628356225788593292236328125</LongitudeDegrees>
            </Position>
            <AltitudeMeters>316.20001220703125</AltitudeMeters>
            <DistanceMeters>NAN</DistanceMeters>
          </Trackpoint>
          <Trackpoint>
            <Time>2022-09-23T10:27:56.000Z</Time>
            <Position>
              <LatitudeDegrees>49.5685236342251300811767578125</LatitudeDegrees>
              <LongitudeDegrees>20.628356225788593292236328125</LongitudeDegrees>
            </Position>
            <AltitudeMeters>316.399993896484375</AltitudeMeters>
            <DistanceMeters>NAN</DistanceMeters>
          </Trackpoint>
          <Trackpoint>
            <Time>2022-09-23T10:28:10.000Z</Time>
            <Position>
              <LatitudeDegrees>49.5685236342251300811767578125</LatitudeDegrees>
              <LongitudeDegrees>20.628356225788593292236328125</LongitudeDegrees>
            </Position>
            <AltitudeMeters>316.20001220703125</AltitudeMeters>
            <DistanceMeters>NAN</DistanceMeters>
          </Trackpoint>
          <Trackpoint>
            <Time>2022-09-23T10:28:14.000Z</Time>
            <Position>
              <LatitudeDegrees>49.568523801863193511962890625</LatitudeDegrees>
              <LongitudeDegrees>20.62836326658725738525390625</LongitudeDegrees>
            </Position>
            <AltitudeMeters>316.20001220703125</AltitudeMeters>
            <DistanceMeters>NAN</DistanceMeters>
          </Trackpoint>
          <Trackpoint>
            <Time>2022-09-23T10:28:16.000Z</Time>
            <Position>
              <LatitudeDegrees>49.56851533614099025726318359375</LatitudeDegrees>
              <LongitudeDegrees>20.62844012863934040069580078125</LongitudeDegrees>
            </Position>
            <AltitudeMeters>316.20001220703125</AltitudeMeters>
            <DistanceMeters>NAN</DistanceMeters>
          </Trackpoint>
          <Trackpoint>
            <Time>2022-09-23T10:28:17.000Z</Time>
            <Position>
              <LatitudeDegrees>49.56851667724549770355224609375</LatitudeDegrees>
              <LongitudeDegrees>20.62847902067005634307861328125</LongitudeDegrees>
            </Position>
            <AltitudeMeters>316.20001220703125</AltitudeMeters>
            <DistanceMeters>NAN</DistanceMeters>
          </Trackpoint>
          <Trackpoint>
            <Time>2022-09-23T10:28:22.000Z</Time>
            <Position>
              <LatitudeDegrees>49.5685668848454952239990234375</LatitudeDegrees>
              <LongitudeDegrees>20.62873232178390026092529296875</LongitudeDegrees>
            </Position>
            <AltitudeMeters>316</AltitudeMeters>
            <DistanceMeters>NAN</DistanceMeters>
          </Trackpoint>
          <Trackpoint>
            <Time>2022-09-23T10:28:27.000Z</Time>
            <Position>
              <LatitudeDegrees>49.5685702376067638397216796875</LatitudeDegrees>
              <LongitudeDegrees>20.6289250217378139495849609375</LongitudeDegrees>
            </Position>
            <AltitudeMeters>315.600006103515625</AltitudeMeters>
            <DistanceMeters>NAN</DistanceMeters>
          </Trackpoint>
          <Trackpoint>
            <Time>2022-09-23T10:28:29.000Z</Time>
            <Position>
              <LatitudeDegrees>49.56853126175701618194580078125</LatitudeDegrees>
              <LongitudeDegrees>20.62896869145333766937255859375</LongitudeDegrees>
            </Position>
            <AltitudeMeters>315.600006103515625</AltitudeMeters>
            <DistanceMeters>NAN</DistanceMeters>
          </Trackpoint>
          <Trackpoint>
            <Time>2022-09-23T10:28:33.000Z</Time>
            <Position>
              <LatitudeDegrees>49.5684512145817279815673828125</LatitudeDegrees>
              <LongitudeDegrees>20.629038177430629730224609375</LongitudeDegrees>
            </Position>
            <AltitudeMeters>315.399993896484375</AltitudeMeters>
            <DistanceMeters>NAN</DistanceMeters>
          </Trackpoint>
          <Trackpoint>
            <Time>2022-09-23T10:28:36.000Z</Time>
            <Position>
              <LatitudeDegrees>49.5683979056775569915771484375</LatitudeDegrees>
              <LongitudeDegrees>20.62908419407904148101806640625</LongitudeDegrees>
            </Position>
            <AltitudeMeters>315.600006103515625</AltitudeMeters>
            <DistanceMeters>NAN</DistanceMeters>
          </Trackpoint>
          <Trackpoint>
            <Time>2022-09-23T10:28:39.000Z</Time>
            <Position>
              <LatitudeDegrees>49.56833797506988048553466796875</LatitudeDegrees>
              <LongitudeDegrees>20.62914152629673480987548828125</LongitudeDegrees>
            </Position>
            <AltitudeMeters>315.600006103515625</AltitudeMeters>
            <DistanceMeters>NAN</DistanceMeters>
          </Trackpoint>
          <Trackpoint>
            <Time>2022-09-23T10:28:44.000Z</Time>
            <Position>
              <LatitudeDegrees>49.56822129897773265838623046875</LatitudeDegrees>
              <LongitudeDegrees>20.62923657707870006561279296875</LongitudeDegrees>
            </Position>
            <AltitudeMeters>315.600006103515625</AltitudeMeters>
            <DistanceMeters>NAN</DistanceMeters>
          </Trackpoint>
          <Trackpoint>
            <Time>2022-09-23T10:28:50.000Z</Time>
            <Position>
              <LatitudeDegrees>49.568078555166721343994140625</LatitudeDegrees>
              <LongitudeDegrees>20.629365742206573486328125</LongitudeDegrees>
            </Position>
            <AltitudeMeters>315.600006103515625</AltitudeMeters>
            <DistanceMeters>NAN</DistanceMeters>
          </Trackpoint>
          <Trackpoint>
            <Time>2022-09-23T10:28:54.000Z</Time>
            <Position>
              <LatitudeDegrees>49.567972607910633087158203125</LatitudeDegrees>
              <LongitudeDegrees>20.62943958677351474761962890625</LongitudeDegrees>
            </Position>
            <AltitudeMeters>315.600006103515625</AltitudeMeters>
            <DistanceMeters>NAN</DistanceMeters>
          </Trackpoint>
          <Trackpoint>
            <Time>2022-09-23T10:28:57.000Z</Time>
            <Position>
              <LatitudeDegrees>49.56790479831397533416748046875</LatitudeDegrees>
              <LongitudeDegrees>20.6295130960643291473388671875</LongitudeDegrees>
            </Position>
            <AltitudeMeters>315.79998779296875</AltitudeMeters>
            <DistanceMeters>NAN</DistanceMeters>
          </Trackpoint>
          <Trackpoint>
            <Time>2022-09-23T10:29:00.000Z</Time>
            <Position>
              <LatitudeDegrees>49.56782567314803600311279296875</LatitudeDegrees>
              <LongitudeDegrees>20.6295814923942089080810546875</LongitudeDegrees>
            </Position>
            <AltitudeMeters>315.79998779296875</AltitudeMeters>
            <DistanceMeters>NAN</DistanceMeters>
          </Trackpoint>
          <Trackpoint>
            <Time>2022-09-23T10:29:03.000Z</Time>
            <Position>
              <LatitudeDegrees>49.567767418920993804931640625</LatitudeDegrees>
              <LongitudeDegrees>20.62965072691440582275390625</LongitudeDegrees>
            </Position>
            <AltitudeMeters>316</AltitudeMeters>
            <DistanceMeters>NAN</DistanceMeters>
          </Trackpoint>
          <Trackpoint>
            <Time>2022-09-23T10:29:06.000Z</Time>
            <Position>
              <LatitudeDegrees>49.567707739770412445068359375</LatitudeDegrees>
              <LongitudeDegrees>20.62973261810839176177978515625</LongitudeDegrees>
            </Position>
            <AltitudeMeters>316.20001220703125</AltitudeMeters>
            <DistanceMeters>NAN</DistanceMeters>
          </Trackpoint>
          <Trackpoint>
            <Time>2022-09-23T10:29:08.000Z</Time>
            <Position>
              <LatitudeDegrees>49.5677045546472072601318359375</LatitudeDegrees>
              <LongitudeDegrees>20.62980185262858867645263671875</LongitudeDegrees>
            </Position>
            <AltitudeMeters>316.20001220703125</AltitudeMeters>
            <DistanceMeters>NAN</DistanceMeters>
          </Trackpoint>
          <Trackpoint>
            <Time>2022-09-23T10:29:14.000Z</Time>
            <Position>
              <LatitudeDegrees>49.567709080874919891357421875</LatitudeDegrees>
              <LongitudeDegrees>20.6300347857177257537841796875</LongitudeDegrees>
            </Position>
            <AltitudeMeters>316.399993896484375</AltitudeMeters>
            <DistanceMeters>NAN</DistanceMeters>
          </Trackpoint>
          <Trackpoint>
            <Time>2022-09-23T10:29:19.000Z</Time>
            <Position>
              <LatitudeDegrees>49.56763490103185176849365234375</LatitudeDegrees>
              <LongitudeDegrees>20.63017266802489757537841796875</LongitudeDegrees>
            </Position>
            <AltitudeMeters>316.399993896484375</AltitudeMeters>
            <DistanceMeters>NAN</DistanceMeters>
          </Trackpoint>
          <Trackpoint>
            <Time>2022-09-23T10:29:24.000Z</Time>
            <Position>
              <LatitudeDegrees>49.5675134472548961639404296875</LatitudeDegrees>
              <LongitudeDegrees>20.63012153841555118560791015625</LongitudeDegrees>
            </Position>
            <AltitudeMeters>316.600006103515625</AltitudeMeters>
            <DistanceMeters>NAN</DistanceMeters>
          </Trackpoint>
          <Trackpoint>
            <Time>2022-09-23T10:29:27.000Z</Time>
            <Position>
              <LatitudeDegrees>49.5674437098205089569091796875</LatitudeDegrees>
              <LongitudeDegrees>20.630084909498691558837890625</LongitudeDegrees>
            </Position>
            <AltitudeMeters>316.600006103515625</AltitudeMeters>
            <DistanceMeters>NAN</DistanceMeters>
          </Trackpoint>
          <Trackpoint>
            <Time>2022-09-23T10:29:29.000Z</Time>
            <Position>
              <LatitudeDegrees>49.567401297390460968017578125</LatitudeDegrees>
              <LongitudeDegrees>20.63005750067532062530517578125</LongitudeDegrees>
            </Position>
            <AltitudeMeters>316.79998779296875</AltitudeMeters>
            <DistanceMeters>NAN</DistanceMeters>
          </Trackpoint>
          <Trackpoint>
            <Time>2022-09-23T10:29:31.000Z</Time>
            <Position>
              <LatitudeDegrees>49.56737204454839229583740234375</LatitudeDegrees>
              <LongitudeDegrees>20.6300341151654720306396484375</LongitudeDegrees>
            </Position>
            <AltitudeMeters>316.79998779296875</AltitudeMeters>
            <DistanceMeters>NAN</DistanceMeters>
          </Trackpoint>
          <Trackpoint>
            <Time>2022-09-23T10:29:35.000Z</Time>
            <Position>
              <LatitudeDegrees>49.5673696137964725494384765625</LatitudeDegrees>
              <LongitudeDegrees>20.630028583109378814697265625</LongitudeDegrees>
            </Position>
            <AltitudeMeters>317.20001220703125</AltitudeMeters>
            <DistanceMeters>NAN</DistanceMeters>
          </Trackpoint>
          <Trackpoint>
            <Time>2022-09-23T10:29:51.000Z</Time>
            <Position>
              <LatitudeDegrees>49.5673696137964725494384765625</LatitudeDegrees>
              <LongitudeDegrees>20.630028583109378814697265625</LongitudeDegrees>
            </Position>
            <AltitudeMeters>317.20001220703125</AltitudeMeters>
            <DistanceMeters>NAN</DistanceMeters>
          </Trackpoint>
          <Trackpoint>
            <Time>2022-09-23T10:29:58.000Z</Time>
            <Position>
              <LatitudeDegrees>49.5673696137964725494384765625</LatitudeDegrees>
              <LongitudeDegrees>20.630028583109378814697265625</LongitudeDegrees>
            </Position>
            <AltitudeMeters>317</AltitudeMeters>
            <DistanceMeters>NAN</DistanceMeters>
          </Trackpoint>
          <Trackpoint>
            <Time>2022-09-23T10:30:04.000Z</Time>
            <Position>
              <LatitudeDegrees>49.56736818887293338775634765625</LatitudeDegrees>
              <LongitudeDegrees>20.630029253661632537841796875</LongitudeDegrees>
            </Position>
            <AltitudeMeters>317</AltitudeMeters>
            <DistanceMeters>NAN</DistanceMeters>
          </Trackpoint>
          <Trackpoint>
            <Time>2022-09-23T10:30:07.000Z</Time>
            <Position>
              <LatitudeDegrees>49.56732141785323619842529296875</LatitudeDegrees>
              <LongitudeDegrees>20.6300133280456066131591796875</LongitudeDegrees>
            </Position>
            <AltitudeMeters>317</AltitudeMeters>
            <DistanceMeters>NAN</DistanceMeters>
          </Trackpoint>
          <Trackpoint>
            <Time>2022-09-23T10:30:12.000Z</Time>
            <Position>
              <LatitudeDegrees>49.56721412949264049530029296875</LatitudeDegrees>
              <LongitudeDegrees>20.629977621138095855712890625</LongitudeDegrees>
            </Position>
            <AltitudeMeters>317</AltitudeMeters>
            <DistanceMeters>NAN</DistanceMeters>
          </Trackpoint>
          <Trackpoint>
            <Time>2022-09-23T10:30:14.000Z</Time>
            <Position>
              <LatitudeDegrees>49.56716534681618213653564453125</LatitudeDegrees>
              <LongitudeDegrees>20.6299571692943572998046875</LongitudeDegrees>
            </Position>
            <AltitudeMeters>317</AltitudeMeters>
            <DistanceMeters>NAN</DistanceMeters>
          </Trackpoint>
          <Trackpoint>
            <Time>2022-09-23T10:30:17.000Z</Time>
            <Position>
              <LatitudeDegrees>49.56708420999348163604736328125</LatitudeDegrees>
              <LongitudeDegrees>20.62992037273943424224853515625</LongitudeDegrees>
            </Position>
            <AltitudeMeters>317</AltitudeMeters>
            <DistanceMeters>NAN</DistanceMeters>
          </Trackpoint>
          <Trackpoint>
            <Time>2022-09-23T10:30:18.000Z</Time>
            <Position>
              <LatitudeDegrees>49.56706308759748935699462890625</LatitudeDegrees>
              <LongitudeDegrees>20.62991601414978504180908203125</LongitudeDegrees>
            </Position>
            <AltitudeMeters>317</AltitudeMeters>
            <DistanceMeters>NAN</DistanceMeters>
          </Trackpoint>
          <Trackpoint>
            <Time>2022-09-23T10:30:22.000Z</Time>
            <Position>
              <LatitudeDegrees>49.56695563159883022308349609375</LatitudeDegrees>
              <LongitudeDegrees>20.62986320815980434417724609375</LongitudeDegrees>
            </Position>
            <AltitudeMeters>317.399993896484375</AltitudeMeters>
            <DistanceMeters>NAN</DistanceMeters>
          </Trackpoint>
          <Trackpoint>
            <Time>2022-09-23T10:30:25.000Z</Time>
            <Position>
              <LatitudeDegrees>49.5668832957744598388671875</LatitudeDegrees>
              <LongitudeDegrees>20.6298203766345977783203125</LongitudeDegrees>
            </Position>
            <AltitudeMeters>317.399993896484375</AltitudeMeters>
            <DistanceMeters>NAN</DistanceMeters>
          </Trackpoint>
          <Trackpoint>
            <Time>2022-09-23T10:30:27.000Z</Time>
            <Position>
              <LatitudeDegrees>49.566826634109020233154296875</LatitudeDegrees>
              <LongitudeDegrees>20.62979531474411487579345703125</LongitudeDegrees>
            </Position>
            <AltitudeMeters>317.600006103515625</AltitudeMeters>
            <DistanceMeters>NAN</DistanceMeters>
          </Trackpoint>
          <Trackpoint>
            <Time>2022-09-23T10:30:29.000Z</Time>
            <Position>
              <LatitudeDegrees>49.56676703877747058868408203125</LatitudeDegrees>
              <LongitudeDegrees>20.62977888621389865875244140625</LongitudeDegrees>
            </Position>
            <AltitudeMeters>317.79998779296875</AltitudeMeters>
            <DistanceMeters>NAN</DistanceMeters>
          </Trackpoint>
          <Trackpoint>
            <Time>2022-09-23T10:30:31.000Z</Time>
            <Position>
              <LatitudeDegrees>49.56669948063790798187255859375</LatitudeDegrees>
              <LongitudeDegrees>20.6297695823013782501220703125</LongitudeDegrees>
            </Position>
            <AltitudeMeters>317.79998779296875</AltitudeMeters>
            <DistanceMeters>NAN</DistanceMeters>
          </Trackpoint>
          <Trackpoint>
            <Time>2022-09-23T10:30:33.000Z</Time>
            <Position>
              <LatitudeDegrees>49.56664499826729297637939453125</LatitudeDegrees>
              <LongitudeDegrees>20.62978525646030902862548828125</LongitudeDegrees>
            </Position>
            <AltitudeMeters>318</AltitudeMeters>
            <DistanceMeters>NAN</DistanceMeters>
          </Trackpoint>
          <Trackpoint>
            <Time>2022-09-23T10:30:34.000Z</Time>
            <Position>
              <LatitudeDegrees>49.5666202716529369354248046875</LatitudeDegrees>
              <LongitudeDegrees>20.6297940574586391448974609375</LongitudeDegrees>
            </Position>
            <AltitudeMeters>318</AltitudeMeters>
            <DistanceMeters>NAN</DistanceMeters>
          </Trackpoint>
          <Trackpoint>
            <Time>2022-09-23T10:30:36.000Z</Time>
            <Position>
              <LatitudeDegrees>49.56656855531036853790283203125</LatitudeDegrees>
              <LongitudeDegrees>20.629813671112060546875</LongitudeDegrees>
            </Position>
            <AltitudeMeters>318</AltitudeMeters>
            <DistanceMeters>NAN</DistanceMeters>
          </Trackpoint>
          <Trackpoint>
            <Time>2022-09-23T10:30:41.000Z</Time>
            <Position>
              <LatitudeDegrees>49.56645204685628414154052734375</LatitudeDegrees>
              <LongitudeDegrees>20.62986404635012149810791015625</LongitudeDegrees>
            </Position>
            <AltitudeMeters>318.20001220703125</AltitudeMeters>
            <DistanceMeters>NAN</DistanceMeters>
          </Trackpoint>
          <Trackpoint>
            <Time>2022-09-23T10:30:47.000Z</Time>
            <Position>
              <LatitudeDegrees>49.56634861417114734649658203125</LatitudeDegrees>
              <LongitudeDegrees>20.62997602857649326324462890625</LongitudeDegrees>
            </Position>
            <AltitudeMeters>318.20001220703125</AltitudeMeters>
            <DistanceMeters>NAN</DistanceMeters>
          </Trackpoint>
          <Trackpoint>
            <Time>2022-09-23T10:30:52.000Z</Time>
            <Position>
              <LatitudeDegrees>49.5662491209805011749267578125</LatitudeDegrees>
              <LongitudeDegrees>20.6300290860235691070556640625</LongitudeDegrees>
            </Position>
            <AltitudeMeters>318.399993896484375</AltitudeMeters>
            <DistanceMeters>NAN</DistanceMeters>
          </Trackpoint>
          <Trackpoint>
            <Time>2022-09-23T10:30:55.000Z</Time>
            <Position>
              <LatitudeDegrees>49.56620545126497745513916015625</LatitudeDegrees>
              <LongitudeDegrees>20.63005062751471996307373046875</LongitudeDegrees>
            </Position>
            <AltitudeMeters>318.600006103515625</AltitudeMeters>
            <DistanceMeters>NAN</DistanceMeters>
          </Trackpoint>
          <Trackpoint>
            <Time>2022-09-23T10:31:01.000Z</Time>
            <Position>
              <LatitudeDegrees>49.56619061529636383056640625</LatitudeDegrees>
              <LongitudeDegrees>20.6300864182412624359130859375</LongitudeDegrees>
            </Position>
            <AltitudeMeters>318.600006103515625</AltitudeMeters>
            <DistanceMeters>NAN</DistanceMeters>
          </Trackpoint>
          <Trackpoint>
            <Time>2022-09-23T10:31:06.000Z</Time>
            <Position>
              <LatitudeDegrees>49.56615247763693332672119140625</LatitudeDegrees>
              <LongitudeDegrees>20.63012740574777126312255859375</LongitudeDegrees>
            </Position>
            <AltitudeMeters>318.600006103515625</AltitudeMeters>
            <DistanceMeters>NAN</DistanceMeters>
          </Trackpoint>
          <Trackpoint>
            <Time>2022-09-23T10:31:11.000Z</Time>
            <Position>
              <LatitudeDegrees>49.5661349594593048095703125</LatitudeDegrees>
              <LongitudeDegrees>20.63015456311404705047607421875</LongitudeDegrees>
            </Position>
            <AltitudeMeters>318.600006103515625</AltitudeMeters>
            <DistanceMeters>NAN</DistanceMeters>
          </Trackpoint>
          <Trackpoint>
            <Time>2022-09-23T10:31:15.000Z</Time>
            <Position>
              <LatitudeDegrees>49.5661349594593048095703125</LatitudeDegrees>
              <LongitudeDegrees>20.63015456311404705047607421875</LongitudeDegrees>
            </Position>
            <AltitudeMeters>318.600006103515625</AltitudeMeters>
            <DistanceMeters>NAN</DistanceMeters>
          </Trackpoint>
          <Trackpoint>
            <Time>2022-09-23T10:31:22.000Z</Time>
            <Position>
              <LatitudeDegrees>49.566134624183177947998046875</LatitudeDegrees>
              <LongitudeDegrees>20.630155317485332489013671875</LongitudeDegrees>
            </Position>
            <AltitudeMeters>318.79998779296875</AltitudeMeters>
            <DistanceMeters>NAN</DistanceMeters>
          </Trackpoint>
          <Trackpoint>
            <Time>2022-09-23T10:31:27.000Z</Time>
            <Position>
              <LatitudeDegrees>49.56612699665129184722900390625</LatitudeDegrees>
              <LongitudeDegrees>20.63015774823725223541259765625</LongitudeDegrees>
            </Position>
            <AltitudeMeters>319</AltitudeMeters>
            <DistanceMeters>NAN</DistanceMeters>
          </Trackpoint>
          <Trackpoint>
            <Time>2022-09-23T10:31:34.000Z</Time>
            <Position>
              <LatitudeDegrees>49.56612699665129184722900390625</LatitudeDegrees>
              <LongitudeDegrees>20.63015774823725223541259765625</LongitudeDegrees>
            </Position>
            <AltitudeMeters>319.399993896484375</AltitudeMeters>
            <DistanceMeters>NAN</DistanceMeters>
          </Trackpoint>
          <Trackpoint>
            <Time>2022-09-23T10:31:45.000Z</Time>
            <Position>
              <LatitudeDegrees>49.56602540798485279083251953125</LatitudeDegrees>
              <LongitudeDegrees>20.6303318403661251068115234375</LongitudeDegrees>
            </Position>
            <AltitudeMeters>320.20001220703125</AltitudeMeters>
            <DistanceMeters>NAN</DistanceMeters>
          </Trackpoint>
          <Trackpoint>
            <Time>2022-09-23T10:31:47.000Z</Time>
            <Position>
              <LatitudeDegrees>49.56599724479019641876220703125</LatitudeDegrees>
              <LongitudeDegrees>20.63039059750735759735107421875</LongitudeDegrees>
            </Position>
            <AltitudeMeters>320.399993896484375</AltitudeMeters>
            <DistanceMeters>NAN</DistanceMeters>
          </Trackpoint>
          <Trackpoint>
            <Time>2022-09-23T10:31:49.000Z</Time>
            <Position>
              <LatitudeDegrees>49.565971679985523223876953125</LatitudeDegrees>
              <LongitudeDegrees>20.63044122420251369476318359375</LongitudeDegrees>
            </Position>
            <AltitudeMeters>320.600006103515625</AltitudeMeters>
            <DistanceMeters>NAN</DistanceMeters>
          </Trackpoint>
          <Trackpoint>
            <Time>2022-09-23T10:31:52.000Z</Time>
            <Position>
              <LatitudeDegrees>49.56595952622592449188232421875</LatitudeDegrees>
              <LongitudeDegrees>20.6304642744362354278564453125</LongitudeDegrees>
            </Position>
            <AltitudeMeters>320.600006103515625</AltitudeMeters>
            <DistanceMeters>NAN</DistanceMeters>
          </Trackpoint>
          <Trackpoint>
            <Time>2022-09-23T10:32:00.000Z</Time>
            <Position>
              <LatitudeDegrees>49.56593236885964870452880859375</LatitudeDegrees>
              <LongitudeDegrees>20.63050978817045688629150390625</LongitudeDegrees>
            </Position>
            <AltitudeMeters>321.399993896484375</AltitudeMeters>
            <DistanceMeters>NAN</DistanceMeters>
          </Trackpoint>
          <Trackpoint>
            <Time>2022-09-23T10:32:04.000Z</Time>
            <Position>
              <LatitudeDegrees>49.56593236885964870452880859375</LatitudeDegrees>
              <LongitudeDegrees>20.63050978817045688629150390625</LongitudeDegrees>
            </Position>
            <AltitudeMeters>321.399993896484375</AltitudeMeters>
            <DistanceMeters>NAN</DistanceMeters>
          </Trackpoint>
          <Trackpoint>
            <Time>2022-09-23T10:32:07.000Z</Time>
            <Position>
              <LatitudeDegrees>49.56593236885964870452880859375</LatitudeDegrees>
              <LongitudeDegrees>20.63050978817045688629150390625</LongitudeDegrees>
            </Position>
            <AltitudeMeters>321.399993896484375</AltitudeMeters>
            <DistanceMeters>NAN</DistanceMeters>
          </Trackpoint>
          <Trackpoint>
            <Time>2022-09-23T10:32:13.000Z</Time>
            <Position>
              <LatitudeDegrees>49.56593236885964870452880859375</LatitudeDegrees>
              <LongitudeDegrees>20.63050978817045688629150390625</LongitudeDegrees>
            </Position>
            <AltitudeMeters>321.399993896484375</AltitudeMeters>
            <DistanceMeters>NAN</DistanceMeters>
          </Trackpoint>
          <Trackpoint>
            <Time>2022-09-23T10:32:15.000Z</Time>
            <Position>
              <LatitudeDegrees>49.56591879017651081085205078125</LatitudeDegrees>
              <LongitudeDegrees>20.630537532269954681396484375</LongitudeDegrees>
            </Position>
            <AltitudeMeters>321.399993896484375</AltitudeMeters>
            <DistanceMeters>NAN</DistanceMeters>
          </Trackpoint>
          <Trackpoint>
            <Time>2022-09-23T10:32:17.000Z</Time>
            <Position>
              <LatitudeDegrees>49.56589716486632823944091796875</LatitudeDegrees>
              <LongitudeDegrees>20.630589164793491363525390625</LongitudeDegrees>
            </Position>
            <AltitudeMeters>321.600006103515625</AltitudeMeters>
            <DistanceMeters>NAN</DistanceMeters>
          </Trackpoint>
          <Trackpoint>
            <Time>2022-09-23T10:32:20.000Z</Time>
            <Position>
              <LatitudeDegrees>49.5658692531287670135498046875</LatitudeDegrees>
              <LongitudeDegrees>20.63066418282687664031982421875</LongitudeDegrees>
            </Position>
            <AltitudeMeters>321.79998779296875</AltitudeMeters>
            <DistanceMeters>NAN</DistanceMeters>
          </Trackpoint>
          <Trackpoint>
            <Time>2022-09-23T10:32:24.000Z</Time>
            <Position>
              <LatitudeDegrees>49.56583765335381031036376953125</LatitudeDegrees>
              <LongitudeDegrees>20.63076141290366649627685546875</LongitudeDegrees>
            </Position>
            <AltitudeMeters>322.20001220703125</AltitudeMeters>
            <DistanceMeters>NAN</DistanceMeters>
          </Trackpoint>
          <Trackpoint>
            <Time>2022-09-23T10:32:25.000Z</Time>
            <Position>
              <LatitudeDegrees>49.56582373939454555511474609375</LatitudeDegrees>
              <LongitudeDegrees>20.63078119419515132904052734375</LongitudeDegrees>
            </Position>
            <AltitudeMeters>322.20001220703125</AltitudeMeters>
            <DistanceMeters>NAN</DistanceMeters>
          </Trackpoint>
          <Trackpoint>
            <Time>2022-09-23T10:32:29.000Z</Time>
            <Position>
              <LatitudeDegrees>49.56580840051174163818359375</LatitudeDegrees>
              <LongitudeDegrees>20.63082327134907245635986328125</LongitudeDegrees>
            </Position>
            <AltitudeMeters>322.600006103515625</AltitudeMeters>
            <DistanceMeters>NAN</DistanceMeters>
          </Trackpoint>
          <Trackpoint>
            <Time>2022-09-23T10:32:34.000Z</Time>
            <Position>
              <LatitudeDegrees>49.56578920595347881317138671875</LatitudeDegrees>
              <LongitudeDegrees>20.6308739818632602691650390625</LongitudeDegrees>
            </Position>
            <AltitudeMeters>322.79998779296875</AltitudeMeters>
            <DistanceMeters>NAN</DistanceMeters>
          </Trackpoint>
          <Trackpoint>
            <Time>2022-09-23T10:32:41.000Z</Time>
            <Position>
              <LatitudeDegrees>49.56578920595347881317138671875</LatitudeDegrees>
              <LongitudeDegrees>20.6308739818632602691650390625</LongitudeDegrees>
            </Position>
            <AltitudeMeters>323</AltitudeMeters>
            <DistanceMeters>NAN</DistanceMeters>
          </Trackpoint>
          <Trackpoint>
            <Time>2022-09-23T10:32:47.000Z</Time>
            <Position>
              <LatitudeDegrees>49.5657706819474697113037109375</LatitudeDegrees>
              <LongitudeDegrees>20.63104203902184963226318359375</LongitudeDegrees>
            </Position>
            <AltitudeMeters>323</AltitudeMeters>
            <DistanceMeters>NAN</DistanceMeters>
          </Trackpoint>
          <Trackpoint>
            <Time>2022-09-23T10:32:54.000Z</Time>
            <Position>
              <LatitudeDegrees>49.56573757342994213104248046875</LatitudeDegrees>
              <LongitudeDegrees>20.63133825547993183135986328125</LongitudeDegrees>
            </Position>
            <AltitudeMeters>323.20001220703125</AltitudeMeters>
            <DistanceMeters>NAN</DistanceMeters>
          </Trackpoint>
          <Trackpoint>
            <Time>2022-09-23T10:32:55.000Z</Time>
            <Position>
              <LatitudeDegrees>49.565738327801227569580078125</LatitudeDegrees>
              <LongitudeDegrees>20.6313654966652393341064453125</LongitudeDegrees>
            </Position>
            <AltitudeMeters>323.20001220703125</AltitudeMeters>
            <DistanceMeters>NAN</DistanceMeters>
          </Trackpoint>
          <Trackpoint>
            <Time>2022-09-23T10:32:58.000Z</Time>
            <Position>
              <LatitudeDegrees>49.56572315655648708343505859375</LatitudeDegrees>
              <LongitudeDegrees>20.63146498985588550567626953125</LongitudeDegrees>
            </Position>
            <AltitudeMeters>323.20001220703125</AltitudeMeters>
            <DistanceMeters>NAN</DistanceMeters>
          </Trackpoint>
          <Trackpoint>
            <Time>2022-09-23T10:33:00.000Z</Time>
            <Position>
              <LatitudeDegrees>49.5657058060169219970703125</LatitudeDegrees>
              <LongitudeDegrees>20.631515197455883026123046875</LongitudeDegrees>
            </Position>
            <AltitudeMeters>323.399993896484375</AltitudeMeters>
            <DistanceMeters>NAN</DistanceMeters>
          </Trackpoint>
          <Trackpoint>
            <Time>2022-09-23T10:33:03.000Z</Time>
            <Position>
              <LatitudeDegrees>49.565682671964168548583984375</LatitudeDegrees>
              <LongitudeDegrees>20.63162080943584442138671875</LongitudeDegrees>
            </Position>
            <AltitudeMeters>323.399993896484375</AltitudeMeters>
            <DistanceMeters>NAN</DistanceMeters>
          </Trackpoint>
          <Trackpoint>
            <Time>2022-09-23T10:33:04.000Z</Time>
            <Position>
              <LatitudeDegrees>49.5656818337738513946533203125</LatitudeDegrees>
              <LongitudeDegrees>20.6316498108208179473876953125</LongitudeDegrees>
            </Position>
            <AltitudeMeters>323.20001220703125</AltitudeMeters>
            <DistanceMeters>NAN</DistanceMeters>
          </Trackpoint>
          <Trackpoint>
            <Time>2022-09-23T10:33:07.000Z</Time>
            <Position>
              <LatitudeDegrees>49.565702117979526519775390625</LatitudeDegrees>
              <LongitudeDegrees>20.63176975585520267486572265625</LongitudeDegrees>
            </Position>
            <AltitudeMeters>323.20001220703125</AltitudeMeters>
            <DistanceMeters>NAN</DistanceMeters>
          </Trackpoint>
          <Trackpoint>
            <Time>2022-09-23T10:33:12.000Z</Time>
            <Position>
              <LatitudeDegrees>49.565710835158824920654296875</LatitudeDegrees>
              <LongitudeDegrees>20.6319653056561946868896484375</LongitudeDegrees>
            </Position>
            <AltitudeMeters>323.399993896484375</AltitudeMeters>
            <DistanceMeters>NAN</DistanceMeters>
          </Trackpoint>
          <Trackpoint>
            <Time>2022-09-23T10:33:13.000Z</Time>
            <Position>
              <LatitudeDegrees>49.56569868139922618865966796875</LatitudeDegrees>
              <LongitudeDegrees>20.63199455849826335906982421875</LongitudeDegrees>
            </Position>
            <AltitudeMeters>323.399993896484375</AltitudeMeters>
            <DistanceMeters>NAN</DistanceMeters>
          </Trackpoint>
          <Trackpoint>
            <Time>2022-09-23T10:33:18.000Z</Time>
            <Position>
              <LatitudeDegrees>49.56567806191742420196533203125</LatitudeDegrees>
              <LongitudeDegrees>20.6321024335920810699462890625</LongitudeDegrees>
            </Position>
            <AltitudeMeters>323.399993896484375</AltitudeMeters>
            <DistanceMeters>NAN</DistanceMeters>
          </Trackpoint>
          <Trackpoint>
            <Time>2022-09-23T10:33:19.000Z</Time>
            <Position>
              <LatitudeDegrees>49.5656576938927173614501953125</LatitudeDegrees>
              <LongitudeDegrees>20.63213520683348178863525390625</LongitudeDegrees>
            </Position>
            <AltitudeMeters>323.399993896484375</AltitudeMeters>
            <DistanceMeters>NAN</DistanceMeters>
          </Trackpoint>
          <Trackpoint>
            <Time>2022-09-23T10:33:23.000Z</Time>
            <Position>
              <LatitudeDegrees>49.5656053908169269561767578125</LatitudeDegrees>
              <LongitudeDegrees>20.63218331895768642425537109375</LongitudeDegrees>
            </Position>
            <AltitudeMeters>323.399993896484375</AltitudeMeters>
            <DistanceMeters>NAN</DistanceMeters>
          </Trackpoint>
          <Trackpoint>
            <Time>2022-09-23T10:33:32.000Z</Time>
            <Position>
              <LatitudeDegrees>49.5655966736376285552978515625</LatitudeDegrees>
              <LongitudeDegrees>20.63219153322279453277587890625</LongitudeDegrees>
            </Position>
            <AltitudeMeters>323.399993896484375</AltitudeMeters>
            <DistanceMeters>NAN</DistanceMeters>
          </Trackpoint>
          <Trackpoint>
            <Time>2022-09-23T10:33:33.000Z</Time>
            <Position>
              <LatitudeDegrees>49.5655966736376285552978515625</LatitudeDegrees>
              <LongitudeDegrees>20.63219153322279453277587890625</LongitudeDegrees>
            </Position>
            <AltitudeMeters>323.600006103515625</AltitudeMeters>
            <DistanceMeters>NAN</DistanceMeters>
          </Trackpoint>
          <Trackpoint>
            <Time>2022-09-23T10:33:40.000Z</Time>
            <Position>
              <LatitudeDegrees>49.5655966736376285552978515625</LatitudeDegrees>
              <LongitudeDegrees>20.63219153322279453277587890625</LongitudeDegrees>
            </Position>
            <AltitudeMeters>323.600006103515625</AltitudeMeters>
            <DistanceMeters>NAN</DistanceMeters>
          </Trackpoint>
          <Trackpoint>
            <Time>2022-09-23T10:33:43.000Z</Time>
            <Position>
              <LatitudeDegrees>49.5655966736376285552978515625</LatitudeDegrees>
              <LongitudeDegrees>20.63219153322279453277587890625</LongitudeDegrees>
            </Position>
            <AltitudeMeters>323.600006103515625</AltitudeMeters>
            <DistanceMeters>NAN</DistanceMeters>
          </Trackpoint>
          <Trackpoint>
            <Time>2022-09-23T10:33:44.000Z</Time>
            <Position>
              <LatitudeDegrees>49.5655966736376285552978515625</LatitudeDegrees>
              <LongitudeDegrees>20.63219153322279453277587890625</LongitudeDegrees>
            </Position>
            <AltitudeMeters>323.600006103515625</AltitudeMeters>
            <DistanceMeters>NAN</DistanceMeters>
          </Trackpoint>
          <Trackpoint>
            <Time>2022-09-23T10:33:47.000Z</Time>
            <Position>
              <LatitudeDegrees>49.5655966736376285552978515625</LatitudeDegrees>
              <LongitudeDegrees>20.63219153322279453277587890625</LongitudeDegrees>
            </Position>
            <AltitudeMeters>323.600006103515625</AltitudeMeters>
            <DistanceMeters>NAN</DistanceMeters>
          </Trackpoint>
          <Trackpoint>
            <Time>2022-09-23T10:33:55.000Z</Time>
            <Position>
              <LatitudeDegrees>49.5655966736376285552978515625</LatitudeDegrees>
              <LongitudeDegrees>20.63219153322279453277587890625</LongitudeDegrees>
            </Position>
            <AltitudeMeters>323.600006103515625</AltitudeMeters>
            <DistanceMeters>NAN</DistanceMeters>
          </Trackpoint>
          <Trackpoint>
            <Time>2022-09-23T10:34:08.000Z</Time>
            <Position>
              <LatitudeDegrees>49.565535485744476318359375</LatitudeDegrees>
              <LongitudeDegrees>20.6322335265576839447021484375</LongitudeDegrees>
            </Position>
            <AltitudeMeters>323.79998779296875</AltitudeMeters>
            <DistanceMeters>NAN</DistanceMeters>
          </Trackpoint>
          <Trackpoint>
            <Time>2022-09-23T10:34:14.000Z</Time>
            <Position>
              <LatitudeDegrees>49.56542476080358028411865234375</LatitudeDegrees>
              <LongitudeDegrees>20.63231139443814754486083984375</LongitudeDegrees>
            </Position>
            <AltitudeMeters>324</AltitudeMeters>
            <DistanceMeters>NAN</DistanceMeters>
          </Trackpoint>
          <Trackpoint>
            <Time>2022-09-23T10:34:20.000Z</Time>
            <Position>
              <LatitudeDegrees>49.56534144468605518341064453125</LatitudeDegrees>
              <LongitudeDegrees>20.63232128508388996124267578125</LongitudeDegrees>
            </Position>
            <AltitudeMeters>323.79998779296875</AltitudeMeters>
            <DistanceMeters>NAN</DistanceMeters>
          </Trackpoint>
          <Trackpoint>
            <Time>2022-09-23T10:34:26.000Z</Time>
            <Position>
              <LatitudeDegrees>49.56518973223865032196044921875</LatitudeDegrees>
              <LongitudeDegrees>20.63237191177904605865478515625</LongitudeDegrees>
            </Position>
            <AltitudeMeters>323.600006103515625</AltitudeMeters>
            <DistanceMeters>NAN</DistanceMeters>
          </Trackpoint>
          <Trackpoint>
            <Time>2022-09-23T10:34:31.000Z</Time>
            <Position>
              <LatitudeDegrees>49.56502963788807392120361328125</LatitudeDegrees>
              <LongitudeDegrees>20.63254742883145809173583984375</LongitudeDegrees>
            </Position>
            <AltitudeMeters>323.399993896484375</AltitudeMeters>
            <DistanceMeters>NAN</DistanceMeters>
          </Trackpoint>
          <Trackpoint>
            <Time>2022-09-23T10:34:37.000Z</Time>
            <Position>
              <LatitudeDegrees>49.56482327543199062347412109375</LatitudeDegrees>
              <LongitudeDegrees>20.63274599611759185791015625</LongitudeDegrees>
            </Position>
            <AltitudeMeters>323.20001220703125</AltitudeMeters>
            <DistanceMeters>NAN</DistanceMeters>
          </Trackpoint>
          <Trackpoint>
            <Time>2022-09-23T10:34:41.000Z</Time>
            <Position>
              <LatitudeDegrees>49.56470291130244731903076171875</LatitudeDegrees>
              <LongitudeDegrees>20.63283928669989109039306640625</LongitudeDegrees>
            </Position>
            <AltitudeMeters>323.20001220703125</AltitudeMeters>
            <DistanceMeters>NAN</DistanceMeters>
          </Trackpoint>
          <Trackpoint>
            <Time>2022-09-23T10:34:42.000Z</Time>
            <Position>
              <LatitudeDegrees>49.5646704733371734619140625</LatitudeDegrees>
              <LongitudeDegrees>20.63286040909588336944580078125</LongitudeDegrees>
            </Position>
            <AltitudeMeters>323.20001220703125</AltitudeMeters>
            <DistanceMeters>NAN</DistanceMeters>
          </Trackpoint>
          <Trackpoint>
            <Time>2022-09-23T10:34:47.000Z</Time>
            <Position>
              <LatitudeDegrees>49.5645261369645595550537109375</LatitudeDegrees>
              <LongitudeDegrees>20.6329827010631561279296875</LongitudeDegrees>
            </Position>
            <AltitudeMeters>323.600006103515625</AltitudeMeters>
            <DistanceMeters>NAN</DistanceMeters>
          </Trackpoint>
          <Trackpoint>
            <Time>2022-09-23T10:34:52.000Z</Time>
            <Position>
              <LatitudeDegrees>49.56437786109745502471923828125</LatitudeDegrees>
              <LongitudeDegrees>20.6330402009189128875732421875</LongitudeDegrees>
            </Position>
            <AltitudeMeters>324</AltitudeMeters>
            <DistanceMeters>NAN</DistanceMeters>
          </Trackpoint>
          <Trackpoint>
            <Time>2022-09-23T10:34:58.000Z</Time>
            <Position>
              <LatitudeDegrees>49.56420217640697956085205078125</LatitudeDegrees>
              <LongitudeDegrees>20.63309074379503726959228515625</LongitudeDegrees>
            </Position>
            <AltitudeMeters>323.79998779296875</AltitudeMeters>
            <DistanceMeters>NAN</DistanceMeters>
          </Trackpoint>
          <Trackpoint>
            <Time>2022-09-23T10:35:04.000Z</Time>
            <Position>
              <LatitudeDegrees>49.56404107622802257537841796875</LatitudeDegrees>
              <LongitudeDegrees>20.63313600607216358184814453125</LongitudeDegrees>
            </Position>
            <AltitudeMeters>324</AltitudeMeters>
            <DistanceMeters>NAN</DistanceMeters>
          </Trackpoint>
          <Trackpoint>
            <Time>2022-09-23T10:35:05.000Z</Time>
            <Position>
              <LatitudeDegrees>49.56403504125773906707763671875</LatitudeDegrees>
              <LongitudeDegrees>20.63314497470855712890625</LongitudeDegrees>
            </Position>
            <AltitudeMeters>324</AltitudeMeters>
            <DistanceMeters>NAN</DistanceMeters>
          </Trackpoint>
          <Trackpoint>
            <Time>2022-09-23T10:35:11.000Z</Time>
            <Position>
              <LatitudeDegrees>49.564038813114166259765625</LatitudeDegrees>
              <LongitudeDegrees>20.6331515125930309295654296875</LongitudeDegrees>
            </Position>
            <AltitudeMeters>324.399993896484375</AltitudeMeters>
            <DistanceMeters>NAN</DistanceMeters>
          </Trackpoint>
          <Trackpoint>
            <Time>2022-09-23T10:35:21.000Z</Time>
            <Position>
              <LatitudeDegrees>49.564038813114166259765625</LatitudeDegrees>
              <LongitudeDegrees>20.6331515125930309295654296875</LongitudeDegrees>
            </Position>
            <AltitudeMeters>324.399993896484375</AltitudeMeters>
            <DistanceMeters>NAN</DistanceMeters>
          </Trackpoint>
          <Trackpoint>
            <Time>2022-09-23T10:35:26.000Z</Time>
            <Position>
              <LatitudeDegrees>49.5640369690954685211181640625</LatitudeDegrees>
              <LongitudeDegrees>20.63315226696431636810302734375</LongitudeDegrees>
            </Position>
            <AltitudeMeters>324.399993896484375</AltitudeMeters>
            <DistanceMeters>NAN</DistanceMeters>
          </Trackpoint>
          <Trackpoint>
            <Time>2022-09-23T10:35:27.000Z</Time>
            <Position>
              <LatitudeDegrees>49.56401777453720569610595703125</LatitudeDegrees>
              <LongitudeDegrees>20.633154697716236114501953125</LongitudeDegrees>
            </Position>
            <AltitudeMeters>324.399993896484375</AltitudeMeters>
            <DistanceMeters>NAN</DistanceMeters>
          </Trackpoint>
          <Trackpoint>
            <Time>2022-09-23T10:35:29.000Z</Time>
            <Position>
              <LatitudeDegrees>49.5639823190867900848388671875</LatitudeDegrees>
              <LongitudeDegrees>20.633158385753631591796875</LongitudeDegrees>
            </Position>
            <AltitudeMeters>324.399993896484375</AltitudeMeters>
            <DistanceMeters>NAN</DistanceMeters>
          </Trackpoint>
          <Trackpoint>
            <Time>2022-09-23T10:35:31.000Z</Time>
            <Position>
              <LatitudeDegrees>49.5639417506754398345947265625</LatitudeDegrees>
              <LongitudeDegrees>20.633150674402713775634765625</LongitudeDegrees>
            </Position>
            <AltitudeMeters>324.399993896484375</AltitudeMeters>
            <DistanceMeters>NAN</DistanceMeters>
          </Trackpoint>
          <Trackpoint>
            <Time>2022-09-23T10:35:33.000Z</Time>
            <Position>
              <LatitudeDegrees>49.563887603580951690673828125</LatitudeDegrees>
              <LongitudeDegrees>20.63316416926681995391845703125</LongitudeDegrees>
            </Position>
            <AltitudeMeters>324.399993896484375</AltitudeMeters>
            <DistanceMeters>NAN</DistanceMeters>
          </Trackpoint>
          <Trackpoint>
            <Time>2022-09-23T10:35:36.000Z</Time>
            <Position>
              <LatitudeDegrees>49.56381794996559619903564453125</LatitudeDegrees>
              <LongitudeDegrees>20.63318260945379734039306640625</LongitudeDegrees>
            </Position>
            <AltitudeMeters>324.600006103515625</AltitudeMeters>
            <DistanceMeters>NAN</DistanceMeters>
          </Trackpoint>
          <Trackpoint>
            <Time>2022-09-23T10:35:38.000Z</Time>
            <Position>
              <LatitudeDegrees>49.56376589834690093994140625</LatitudeDegrees>
              <LongitudeDegrees>20.633200965821743011474609375</LongitudeDegrees>
            </Position>
            <AltitudeMeters>324.79998779296875</AltitudeMeters>
            <DistanceMeters>NAN</DistanceMeters>
          </Trackpoint>
          <Trackpoint>
            <Time>2022-09-23T10:35:40.000Z</Time>
            <Position>
              <LatitudeDegrees>49.56370948813855648040771484375</LatitudeDegrees>
              <LongitudeDegrees>20.6332128681242465972900390625</LongitudeDegrees>
            </Position>
            <AltitudeMeters>324.79998779296875</AltitudeMeters>
            <DistanceMeters>NAN</DistanceMeters>
          </Trackpoint>
          <Trackpoint>
            <Time>2022-09-23T10:35:47.000Z</Time>
            <Position>
              <LatitudeDegrees>49.5634968392550945281982421875</LatitudeDegrees>
              <LongitudeDegrees>20.63327833078801631927490234375</LongitudeDegrees>
            </Position>
            <AltitudeMeters>325.20001220703125</AltitudeMeters>
            <DistanceMeters>NAN</DistanceMeters>
          </Trackpoint>
          <Trackpoint>
            <Time>2022-09-23T10:35:49.000Z</Time>
            <Position>
              <LatitudeDegrees>49.5634366571903228759765625</LatitudeDegrees>
              <LongitudeDegrees>20.633282773196697235107421875</LongitudeDegrees>
            </Position>
            <AltitudeMeters>325.20001220703125</AltitudeMeters>
            <DistanceMeters>NAN</DistanceMeters>
          </Trackpoint>
          <Trackpoint>
            <Time>2022-09-23T10:35:54.000Z</Time>
            <Position>
              <LatitudeDegrees>49.56327949650585651397705078125</LatitudeDegrees>
              <LongitudeDegrees>20.63332241959869861602783203125</LongitudeDegrees>
            </Position>
            <AltitudeMeters>325.20001220703125</AltitudeMeters>
            <DistanceMeters>NAN</DistanceMeters>
          </Trackpoint>
          <Trackpoint>
            <Time>2022-09-23T10:36:01.000Z</Time>
            <Position>
              <LatitudeDegrees>49.5630750618875026702880859375</LatitudeDegrees>
              <LongitudeDegrees>20.6333863735198974609375</LongitudeDegrees>
            </Position>
            <AltitudeMeters>325</AltitudeMeters>
            <DistanceMeters>NAN</DistanceMeters>
          </Trackpoint>
          <Trackpoint>
            <Time>2022-09-23T10:36:06.000Z</Time>
            <Position>
              <LatitudeDegrees>49.56300255842506885528564453125</LatitudeDegrees>
              <LongitudeDegrees>20.6334039755165576934814453125</LongitudeDegrees>
            </Position>
            <AltitudeMeters>324.79998779296875</AltitudeMeters>
            <DistanceMeters>NAN</DistanceMeters>
          </Trackpoint>
          <Trackpoint>
            <Time>2022-09-23T10:36:12.000Z</Time>
            <Position>
              <LatitudeDegrees>49.5628920011222362518310546875</LatitudeDegrees>
              <LongitudeDegrees>20.6334582902491092681884765625</LongitudeDegrees>
            </Position>
            <AltitudeMeters>324.600006103515625</AltitudeMeters>
            <DistanceMeters>NAN</DistanceMeters>
          </Trackpoint>
          <Trackpoint>
            <Time>2022-09-23T10:36:17.000Z</Time>
            <Position>
              <LatitudeDegrees>49.56279602833092212677001953125</LatitudeDegrees>
              <LongitudeDegrees>20.6334831006824970245361328125</LongitudeDegrees>
            </Position>
            <AltitudeMeters>324.600006103515625</AltitudeMeters>
            <DistanceMeters>NAN</DistanceMeters>
          </Trackpoint>
          <Trackpoint>
            <Time>2022-09-23T10:36:22.000Z</Time>
            <Position>
              <LatitudeDegrees>49.562764428555965423583984375</LatitudeDegrees>
              <LongitudeDegrees>20.633502043783664703369140625</LongitudeDegrees>
            </Position>
            <AltitudeMeters>325</AltitudeMeters>
            <DistanceMeters>NAN</DistanceMeters>
          </Trackpoint>
          <Trackpoint>
            <Time>2022-09-23T10:36:27.000Z</Time>
            <Position>
              <LatitudeDegrees>49.56272142939269542694091796875</LatitudeDegrees>
              <LongitudeDegrees>20.6335337273776531219482421875</LongitudeDegrees>
            </Position>
            <AltitudeMeters>325</AltitudeMeters>
            <DistanceMeters>NAN</DistanceMeters>
          </Trackpoint>
          <Trackpoint>
            <Time>2022-09-23T10:36:31.000Z</Time>
            <Position>
              <LatitudeDegrees>49.56265806220471858978271484375</LatitudeDegrees>
              <LongitudeDegrees>20.63354906626045703887939453125</LongitudeDegrees>
            </Position>
            <AltitudeMeters>325</AltitudeMeters>
            <DistanceMeters>NAN</DistanceMeters>
          </Trackpoint>
          <Trackpoint>
            <Time>2022-09-23T10:36:33.000Z</Time>
            <Position>
              <LatitudeDegrees>49.56261028535664081573486328125</LatitudeDegrees>
              <LongitudeDegrees>20.63356415368616580963134765625</LongitudeDegrees>
            </Position>
            <AltitudeMeters>325</AltitudeMeters>
            <DistanceMeters>NAN</DistanceMeters>
          </Trackpoint>
          <Trackpoint>
            <Time>2022-09-23T10:36:39.000Z</Time>
            <Position>
              <LatitudeDegrees>49.56246460787951946258544921875</LatitudeDegrees>
              <LongitudeDegrees>20.633616708219051361083984375</LongitudeDegrees>
            </Position>
            <AltitudeMeters>325</AltitudeMeters>
            <DistanceMeters>NAN</DistanceMeters>
          </Trackpoint>
          <Trackpoint>
            <Time>2022-09-23T10:36:44.000Z</Time>
            <Position>
              <LatitudeDegrees>49.56234122626483440399169921875</LatitudeDegrees>
              <LongitudeDegrees>20.63364210538566112518310546875</LongitudeDegrees>
            </Position>
            <AltitudeMeters>325</AltitudeMeters>
            <DistanceMeters>NAN</DistanceMeters>
          </Trackpoint>
          <Trackpoint>
            <Time>2022-09-23T10:36:49.000Z</Time>
            <Position>
              <LatitudeDegrees>49.5621922798454761505126953125</LatitudeDegrees>
              <LongitudeDegrees>20.63368652947247028350830078125</LongitudeDegrees>
            </Position>
            <AltitudeMeters>325.20001220703125</AltitudeMeters>
            <DistanceMeters>NAN</DistanceMeters>
          </Trackpoint>
          <Trackpoint>
            <Time>2022-09-23T10:36:53.000Z</Time>
            <Position>
              <LatitudeDegrees>49.56207635812461376190185546875</LatitudeDegrees>
              <LongitudeDegrees>20.6337389163672924041748046875</LongitudeDegrees>
            </Position>
            <AltitudeMeters>325.399993896484375</AltitudeMeters>
            <DistanceMeters>NAN</DistanceMeters>
          </Trackpoint>
          <Trackpoint>
            <Time>2022-09-23T10:36:55.000Z</Time>
            <Position>
              <LatitudeDegrees>49.56200796179473400115966796875</LatitudeDegrees>
              <LongitudeDegrees>20.63374805264174938201904296875</LongitudeDegrees>
            </Position>
            <AltitudeMeters>325.600006103515625</AltitudeMeters>
            <DistanceMeters>NAN</DistanceMeters>
          </Trackpoint>
          <Trackpoint>
            <Time>2022-09-23T10:36:56.000Z</Time>
            <Position>
              <LatitudeDegrees>49.5619756914675235748291015625</LatitudeDegrees>
              <LongitudeDegrees>20.63374989666044712066650390625</LongitudeDegrees>
            </Position>
            <AltitudeMeters>325.600006103515625</AltitudeMeters>
            <DistanceMeters>NAN</DistanceMeters>
          </Trackpoint>
          <Trackpoint>
            <Time>2022-09-23T10:37:00.000Z</Time>
            <Position>
              <LatitudeDegrees>49.561834372580051422119140625</LatitudeDegrees>
              <LongitudeDegrees>20.6337871961295604705810546875</LongitudeDegrees>
            </Position>
            <AltitudeMeters>325.600006103515625</AltitudeMeters>
            <DistanceMeters>NAN</DistanceMeters>
          </Trackpoint>
          <Trackpoint>
            <Time>2022-09-23T10:37:06.000Z</Time>
            <Position>
              <LatitudeDegrees>49.56160227768123149871826171875</LatitudeDegrees>
              <LongitudeDegrees>20.6338463723659515380859375</LongitudeDegrees>
            </Position>
            <AltitudeMeters>325</AltitudeMeters>
            <DistanceMeters>NAN</DistanceMeters>
          </Trackpoint>
          <Trackpoint>
            <Time>2022-09-23T10:37:10.000Z</Time>
            <Position>
              <LatitudeDegrees>49.5614429377019405364990234375</LatitudeDegrees>
              <LongitudeDegrees>20.63388601876795291900634765625</LongitudeDegrees>
            </Position>
            <AltitudeMeters>324.600006103515625</AltitudeMeters>
            <DistanceMeters>NAN</DistanceMeters>
          </Trackpoint>
          <Trackpoint>
            <Time>2022-09-23T10:37:11.000Z</Time>
            <Position>
              <LatitudeDegrees>49.56141737289726734161376953125</LatitudeDegrees>
              <LongitudeDegrees>20.63388920389115810394287109375</LongitudeDegrees>
            </Position>
            <AltitudeMeters>324.399993896484375</AltitudeMeters>
            <DistanceMeters>NAN</DistanceMeters>
          </Trackpoint>
          <Trackpoint>
            <Time>2022-09-23T10:37:14.000Z</Time>
            <Position>
              <LatitudeDegrees>49.5613621361553668975830078125</LatitudeDegrees>
              <LongitudeDegrees>20.63393061049282550811767578125</LongitudeDegrees>
            </Position>
            <AltitudeMeters>324.399993896484375</AltitudeMeters>
            <DistanceMeters>NAN</DistanceMeters>
          </Trackpoint>
          <Trackpoint>
            <Time>2022-09-23T10:37:16.000Z</Time>
            <Position>
              <LatitudeDegrees>49.5613390021026134490966796875</LatitudeDegrees>
              <LongitudeDegrees>20.63398811034858226776123046875</LongitudeDegrees>
            </Position>
            <AltitudeMeters>324.399993896484375</AltitudeMeters>
            <DistanceMeters>NAN</DistanceMeters>
          </Trackpoint>
          <Trackpoint>
            <Time>2022-09-23T10:37:21.000Z</Time>
            <Position>
              <LatitudeDegrees>49.561397172510623931884765625</LatitudeDegrees>
              <LongitudeDegrees>20.6341784633696079254150390625</LongitudeDegrees>
            </Position>
            <AltitudeMeters>324.399993896484375</AltitudeMeters>
            <DistanceMeters>NAN</DistanceMeters>
          </Trackpoint>
          <Trackpoint>
            <Time>2022-09-23T10:37:27.000Z</Time>
            <Position>
              <LatitudeDegrees>49.561477638781070709228515625</LatitudeDegrees>
              <LongitudeDegrees>20.63442313112318515777587890625</LongitudeDegrees>
            </Position>
            <AltitudeMeters>325</AltitudeMeters>
            <DistanceMeters>NAN</DistanceMeters>
          </Trackpoint>
          <Trackpoint>
            <Time>2022-09-23T10:37:31.000Z</Time>
            <Position>
              <LatitudeDegrees>49.56153673119843006134033203125</LatitudeDegrees>
              <LongitudeDegrees>20.6345759332180023193359375</LongitudeDegrees>
            </Position>
            <AltitudeMeters>325.600006103515625</AltitudeMeters>
            <DistanceMeters>NAN</DistanceMeters>
          </Trackpoint>
          <Trackpoint>
            <Time>2022-09-23T10:37:32.000Z</Time>
            <Position>
              <LatitudeDegrees>49.5615564286708831787109375</LatitudeDegrees>
              <LongitudeDegrees>20.63460820354521274566650390625</LongitudeDegrees>
            </Position>
            <AltitudeMeters>325.600006103515625</AltitudeMeters>
            <DistanceMeters>NAN</DistanceMeters>
          </Trackpoint>
          <Trackpoint>
            <Time>2022-09-23T10:37:38.000Z</Time>
            <Position>
              <LatitudeDegrees>49.5616373978555202484130859375</LatitudeDegrees>
              <LongitudeDegrees>20.634794868528842926025390625</LongitudeDegrees>
            </Position>
            <AltitudeMeters>326</AltitudeMeters>
            <DistanceMeters>NAN</DistanceMeters>
          </Trackpoint>
          <Trackpoint>
            <Time>2022-09-23T10:37:40.000Z</Time>
            <Position>
              <LatitudeDegrees>49.5616618730127811431884765625</LatitudeDegrees>
              <LongitudeDegrees>20.63482898287475109100341796875</LongitudeDegrees>
            </Position>
            <AltitudeMeters>326</AltitudeMeters>
            <DistanceMeters>NAN</DistanceMeters>
          </Trackpoint>
          <Trackpoint>
            <Time>2022-09-23T10:37:42.000Z</Time>
            <Position>
              <LatitudeDegrees>49.561645276844501495361328125</LatitudeDegrees>
              <LongitudeDegrees>20.63487189821898937225341796875</LongitudeDegrees>
            </Position>
            <AltitudeMeters>326.20001220703125</AltitudeMeters>
            <DistanceMeters>NAN</DistanceMeters>
          </Trackpoint>
          <Trackpoint>
            <Time>2022-09-23T10:37:49.000Z</Time>
            <Position>
              <LatitudeDegrees>49.5616286806762218475341796875</LatitudeDegrees>
              <LongitudeDegrees>20.635082535445690155029296875</LongitudeDegrees>
            </Position>
            <AltitudeMeters>326.600006103515625</AltitudeMeters>
            <DistanceMeters>NAN</DistanceMeters>
          </Trackpoint>
          <Trackpoint>
            <Time>2022-09-23T10:37:50.000Z</Time>
            <Position>
              <LatitudeDegrees>49.561635553836822509765625</LatitudeDegrees>
              <LongitudeDegrees>20.6351135484874248504638671875</LongitudeDegrees>
            </Position>
            <AltitudeMeters>326.600006103515625</AltitudeMeters>
            <DistanceMeters>NAN</DistanceMeters>
          </Trackpoint>
          <Trackpoint>
            <Time>2022-09-23T10:37:56.000Z</Time>
            <Position>
              <LatitudeDegrees>49.561673104763031005859375</LatitudeDegrees>
              <LongitudeDegrees>20.63531680963933467864990234375</LongitudeDegrees>
            </Position>
            <AltitudeMeters>326.79998779296875</AltitudeMeters>
            <DistanceMeters>NAN</DistanceMeters>
          </Trackpoint>
          <Trackpoint>
            <Time>2022-09-23T10:38:03.000Z</Time>
            <Position>
              <LatitudeDegrees>49.56172700040042400360107421875</LatitudeDegrees>
              <LongitudeDegrees>20.6355299614369869232177734375</LongitudeDegrees>
            </Position>
            <AltitudeMeters>327</AltitudeMeters>
            <DistanceMeters>NAN</DistanceMeters>
          </Trackpoint>
          <Trackpoint>
            <Time>2022-09-23T10:38:07.000Z</Time>
            <Position>
              <LatitudeDegrees>49.56174275837838649749755859375</LatitudeDegrees>
              <LongitudeDegrees>20.63562844879925251007080078125</LongitudeDegrees>
            </Position>
            <AltitudeMeters>327.20001220703125</AltitudeMeters>
            <DistanceMeters>NAN</DistanceMeters>
          </Trackpoint>
          <Trackpoint>
            <Time>2022-09-23T10:38:08.000Z</Time>
            <Position>
              <LatitudeDegrees>49.56174007616937160491943359375</LatitudeDegrees>
              <LongitudeDegrees>20.63565409742295742034912109375</LongitudeDegrees>
            </Position>
            <AltitudeMeters>327.20001220703125</AltitudeMeters>
            <DistanceMeters>NAN</DistanceMeters>
          </Trackpoint>
          <Trackpoint>
            <Time>2022-09-23T10:38:12.000Z</Time>
            <Position>
              <LatitudeDegrees>49.5617363043129444122314453125</LatitudeDegrees>
              <LongitudeDegrees>20.63577379100024700164794921875</LongitudeDegrees>
            </Position>
            <AltitudeMeters>327.20001220703125</AltitudeMeters>
            <DistanceMeters>NAN</DistanceMeters>
          </Trackpoint>
          <Trackpoint>
            <Time>2022-09-23T10:38:14.000Z</Time>
            <Position>
              <LatitudeDegrees>49.5617171935737133026123046875</LatitudeDegrees>
              <LongitudeDegrees>20.635810755193233489990234375</LongitudeDegrees>
            </Position>
            <AltitudeMeters>327</AltitudeMeters>
            <DistanceMeters>NAN</DistanceMeters>
          </Trackpoint>
          <Trackpoint>
            <Time>2022-09-23T10:38:18.000Z</Time>
            <Position>
              <LatitudeDegrees>49.56165407784283161163330078125</LatitudeDegrees>
              <LongitudeDegrees>20.63582492060959339141845703125</LongitudeDegrees>
            </Position>
            <AltitudeMeters>327</AltitudeMeters>
            <DistanceMeters>NAN</DistanceMeters>
          </Trackpoint>
          <Trackpoint>
            <Time>2022-09-23T10:38:20.000Z</Time>
            <Position>
              <LatitudeDegrees>49.5616276748478412628173828125</LatitudeDegrees>
              <LongitudeDegrees>20.635846294462680816650390625</LongitudeDegrees>
            </Position>
            <AltitudeMeters>327</AltitudeMeters>
            <DistanceMeters>NAN</DistanceMeters>
          </Trackpoint>
          <Trackpoint>
            <Time>2022-09-23T10:38:21.000Z</Time>
            <Position>
              <LatitudeDegrees>49.5616156049072742462158203125</LatitudeDegrees>
              <LongitudeDegrees>20.63586548902094364166259765625</LongitudeDegrees>
            </Position>
            <AltitudeMeters>327</AltitudeMeters>
            <DistanceMeters>NAN</DistanceMeters>
          </Trackpoint>
          <Trackpoint>
            <Time>2022-09-23T10:38:22.000Z</Time>
            <Position>
              <LatitudeDegrees>49.56160672008991241455078125</LatitudeDegrees>
              <LongitudeDegrees>20.63588627614080905914306640625</LongitudeDegrees>
            </Position>
            <AltitudeMeters>327</AltitudeMeters>
            <DistanceMeters>NAN</DistanceMeters>
          </Trackpoint>
          <Trackpoint>
            <Time>2022-09-23T10:38:26.000Z</Time>
            <Position>
              <LatitudeDegrees>49.56153430044651031494140625</LatitudeDegrees>
              <LongitudeDegrees>20.63596473075449466705322265625</LongitudeDegrees>
            </Position>
            <AltitudeMeters>326.79998779296875</AltitudeMeters>
            <DistanceMeters>NAN</DistanceMeters>
          </Trackpoint>
          <Trackpoint>
            <Time>2022-09-23T10:38:33.000Z</Time>
            <Position>
              <LatitudeDegrees>49.56139482557773590087890625</LatitudeDegrees>
              <LongitudeDegrees>20.63605391420423984527587890625</LongitudeDegrees>
            </Position>
            <AltitudeMeters>326.79998779296875</AltitudeMeters>
            <DistanceMeters>NAN</DistanceMeters>
          </Trackpoint>
          <Trackpoint>
            <Time>2022-09-23T10:38:41.000Z</Time>
            <Position>
              <LatitudeDegrees>49.561230875551700592041015625</LatitudeDegrees>
              <LongitudeDegrees>20.636178553104400634765625</LongitudeDegrees>
            </Position>
            <AltitudeMeters>326.79998779296875</AltitudeMeters>
            <DistanceMeters>NAN</DistanceMeters>
          </Trackpoint>
          <Trackpoint>
            <Time>2022-09-23T10:38:45.000Z</Time>
            <Position>
              <LatitudeDegrees>49.56121134571731090545654296875</LatitudeDegrees>
              <LongitudeDegrees>20.63620462082326412200927734375</LongitudeDegrees>
            </Position>
            <AltitudeMeters>326.600006103515625</AltitudeMeters>
            <DistanceMeters>NAN</DistanceMeters>
          </Trackpoint>
          <Trackpoint>
            <Time>2022-09-23T10:38:52.000Z</Time>
            <Position>
              <LatitudeDegrees>49.56121134571731090545654296875</LatitudeDegrees>
              <LongitudeDegrees>20.63620462082326412200927734375</LongitudeDegrees>
            </Position>
            <AltitudeMeters>326.399993896484375</AltitudeMeters>
            <DistanceMeters>NAN</DistanceMeters>
          </Trackpoint>
          <Trackpoint>
            <Time>2022-09-23T10:38:57.000Z</Time>
            <Position>
              <LatitudeDegrees>49.56121134571731090545654296875</LatitudeDegrees>
              <LongitudeDegrees>20.63620462082326412200927734375</LongitudeDegrees>
            </Position>
            <AltitudeMeters>326.399993896484375</AltitudeMeters>
            <DistanceMeters>NAN</DistanceMeters>
          </Trackpoint>
          <Trackpoint>
            <Time>2022-09-23T10:39:03.000Z</Time>
            <Position>
              <LatitudeDegrees>49.56121134571731090545654296875</LatitudeDegrees>
              <LongitudeDegrees>20.63620462082326412200927734375</LongitudeDegrees>
            </Position>
            <AltitudeMeters>326.399993896484375</AltitudeMeters>
            <DistanceMeters>NAN</DistanceMeters>
          </Trackpoint>
          <Trackpoint>
            <Time>2022-09-23T10:39:05.000Z</Time>
            <Position>
              <LatitudeDegrees>49.56121134571731090545654296875</LatitudeDegrees>
              <LongitudeDegrees>20.63620462082326412200927734375</LongitudeDegrees>
            </Position>
            <AltitudeMeters>326.399993896484375</AltitudeMeters>
            <DistanceMeters>NAN</DistanceMeters>
          </Trackpoint>
          <Trackpoint>
            <Time>2022-09-23T10:39:19.000Z</Time>
            <Position>
              <LatitudeDegrees>49.5612112618982791900634765625</LatitudeDegrees>
              <LongitudeDegrees>20.636205710470676422119140625</LongitudeDegrees>
            </Position>
            <AltitudeMeters>326.399993896484375</AltitudeMeters>
            <DistanceMeters>NAN</DistanceMeters>
          </Trackpoint>
          <Trackpoint>
            <Time>2022-09-23T10:39:28.000Z</Time>
            <Position>
              <LatitudeDegrees>49.56121084280312061309814453125</LatitudeDegrees>
              <LongitudeDegrees>20.636215768754482269287109375</LongitudeDegrees>
            </Position>
            <AltitudeMeters>326.20001220703125</AltitudeMeters>
            <DistanceMeters>NAN</DistanceMeters>
          </Trackpoint>
          <Trackpoint>
            <Time>2022-09-23T10:39:38.000Z</Time>
            <Position>
              <LatitudeDegrees>49.56121084280312061309814453125</LatitudeDegrees>
              <LongitudeDegrees>20.636215768754482269287109375</LongitudeDegrees>
            </Position>
            <AltitudeMeters>326.20001220703125</AltitudeMeters>
            <DistanceMeters>NAN</DistanceMeters>
          </Trackpoint>
          <Trackpoint>
            <Time>2022-09-23T10:40:47.000Z</Time>
            <Position>
              <LatitudeDegrees>49.56121084280312061309814453125</LatitudeDegrees>
              <LongitudeDegrees>20.636215768754482269287109375</LongitudeDegrees>
            </Position>
            <AltitudeMeters>326.79998779296875</AltitudeMeters>
            <DistanceMeters>NAN</DistanceMeters>
          </Trackpoint>
          <Trackpoint>
            <Time>2022-09-23T10:40:50.000Z</Time>
            <Position>
              <LatitudeDegrees>49.56121084280312061309814453125</LatitudeDegrees>
              <LongitudeDegrees>20.636215768754482269287109375</LongitudeDegrees>
            </Position>
            <AltitudeMeters>326.79998779296875</AltitudeMeters>
            <DistanceMeters>NAN</DistanceMeters>
          </Trackpoint>
          <Trackpoint>
            <Time>2022-09-23T10:40:53.000Z</Time>
            <Position>
              <LatitudeDegrees>49.56121084280312061309814453125</LatitudeDegrees>
              <LongitudeDegrees>20.636215768754482269287109375</LongitudeDegrees>
            </Position>
            <AltitudeMeters>326.79998779296875</AltitudeMeters>
            <DistanceMeters>NAN</DistanceMeters>
          </Trackpoint>
          <Trackpoint>
            <Time>2022-09-23T10:40:57.000Z</Time>
            <Position>
              <LatitudeDegrees>49.56123079173266887664794921875</LatitudeDegrees>
              <LongitudeDegrees>20.63616740517318248748779296875</LongitudeDegrees>
            </Position>
            <AltitudeMeters>326.79998779296875</AltitudeMeters>
            <DistanceMeters>NAN</DistanceMeters>
          </Trackpoint>
          <Trackpoint>
            <Time>2022-09-23T10:40:58.000Z</Time>
            <Position>
              <LatitudeDegrees>49.5612461306154727935791015625</LatitudeDegrees>
              <LongitudeDegrees>20.6361492164433002471923828125</LongitudeDegrees>
            </Position>
            <AltitudeMeters>326.79998779296875</AltitudeMeters>
            <DistanceMeters>NAN</DistanceMeters>
          </Trackpoint>
          <Trackpoint>
            <Time>2022-09-23T10:41:05.000Z</Time>
            <Position>
              <LatitudeDegrees>49.56133305095136165618896484375</LatitudeDegrees>
              <LongitudeDegrees>20.63611007295548915863037109375</LongitudeDegrees>
            </Position>
            <AltitudeMeters>326.79998779296875</AltitudeMeters>
            <DistanceMeters>NAN</DistanceMeters>
          </Trackpoint>
          <Trackpoint>
            <Time>2022-09-23T10:41:13.000Z</Time>
            <Position>
              <LatitudeDegrees>49.56144486553966999053955078125</LatitudeDegrees>
              <LongitudeDegrees>20.63604502938687801361083984375</LongitudeDegrees>
            </Position>
            <AltitudeMeters>326.399993896484375</AltitudeMeters>
            <DistanceMeters>NAN</DistanceMeters>
          </Trackpoint>
          <Trackpoint>
            <Time>2022-09-23T10:41:16.000Z</Time>
            <Position>
              <LatitudeDegrees>49.56149850971996784210205078125</LatitudeDegrees>
              <LongitudeDegrees>20.63601116649806499481201171875</LongitudeDegrees>
            </Position>
            <AltitudeMeters>326.600006103515625</AltitudeMeters>
            <DistanceMeters>NAN</DistanceMeters>
          </Trackpoint>
          <Trackpoint>
            <Time>2022-09-23T10:41:22.000Z</Time>
            <Position>
              <LatitudeDegrees>49.56161015667021274566650390625</LatitudeDegrees>
              <LongitudeDegrees>20.63590538688004016876220703125</LongitudeDegrees>
            </Position>
            <AltitudeMeters>326.20001220703125</AltitudeMeters>
            <DistanceMeters>NAN</DistanceMeters>
          </Trackpoint>
          <Trackpoint>
            <Time>2022-09-23T10:41:27.000Z</Time>
            <Position>
              <LatitudeDegrees>49.56167687661945819854736328125</LatitudeDegrees>
              <LongitudeDegrees>20.63582693226635456085205078125</LongitudeDegrees>
            </Position>
            <AltitudeMeters>326.399993896484375</AltitudeMeters>
            <DistanceMeters>NAN</DistanceMeters>
          </Trackpoint>
          <Trackpoint>
            <Time>2022-09-23T10:41:28.000Z</Time>
            <Position>
              <LatitudeDegrees>49.56168710254132747650146484375</LatitudeDegrees>
              <LongitudeDegrees>20.6358062289655208587646484375</LongitudeDegrees>
            </Position>
            <AltitudeMeters>326.399993896484375</AltitudeMeters>
            <DistanceMeters>NAN</DistanceMeters>
          </Trackpoint>
          <Trackpoint>
            <Time>2022-09-23T10:41:29.000Z</Time>
            <Position>
              <LatitudeDegrees>49.5616923831403255462646484375</LatitudeDegrees>
              <LongitudeDegrees>20.63578099943697452545166015625</LongitudeDegrees>
            </Position>
            <AltitudeMeters>326.399993896484375</AltitudeMeters>
            <DistanceMeters>NAN</DistanceMeters>
          </Trackpoint>
          <Trackpoint>
            <Time>2022-09-23T10:41:32.000Z</Time>
            <Position>
              <LatitudeDegrees>49.561704285442829132080078125</LatitudeDegrees>
              <LongitudeDegrees>20.63571863807737827301025390625</LongitudeDegrees>
            </Position>
            <AltitudeMeters>326.399993896484375</AltitudeMeters>
            <DistanceMeters>NAN</DistanceMeters>
          </Trackpoint>
          <Trackpoint>
            <Time>2022-09-23T10:41:33.000Z</Time>
            <Position>
              <LatitudeDegrees>49.561708979308605194091796875</LatitudeDegrees>
              <LongitudeDegrees>20.6356841884553432464599609375</LongitudeDegrees>
            </Position>
            <AltitudeMeters>326.20001220703125</AltitudeMeters>
            <DistanceMeters>NAN</DistanceMeters>
          </Trackpoint>
          <Trackpoint>
            <Time>2022-09-23T10:41:35.000Z</Time>
            <Position>
              <LatitudeDegrees>49.5617165230214595794677734375</LatitudeDegrees>
              <LongitudeDegrees>20.635635741055011749267578125</LongitudeDegrees>
            </Position>
            <AltitudeMeters>326.399993896484375</AltitudeMeters>
            <DistanceMeters>NAN</DistanceMeters>
          </Trackpoint>
          <Trackpoint>
            <Time>2022-09-23T10:41:36.000Z</Time>
            <Position>
              <LatitudeDegrees>49.561717025935649871826171875</LatitudeDegrees>
              <LongitudeDegrees>20.6356201507151126861572265625</LongitudeDegrees>
            </Position>
            <AltitudeMeters>326.399993896484375</AltitudeMeters>
            <DistanceMeters>NAN</DistanceMeters>
          </Trackpoint>
          <Trackpoint>
            <Time>2022-09-23T10:41:37.000Z</Time>
            <Position>
              <LatitudeDegrees>49.56172582693397998809814453125</LatitudeDegrees>
              <LongitudeDegrees>20.6356005370616912841796875</LongitudeDegrees>
            </Position>
            <AltitudeMeters>326.399993896484375</AltitudeMeters>
            <DistanceMeters>NAN</DistanceMeters>
          </Trackpoint>
          <Trackpoint>
            <Time>2022-09-23T10:41:41.000Z</Time>
            <Position>
              <LatitudeDegrees>49.56173068843781948089599609375</LatitudeDegrees>
              <LongitudeDegrees>20.63559827394783496856689453125</LongitudeDegrees>
            </Position>
            <AltitudeMeters>326.600006103515625</AltitudeMeters>
            <DistanceMeters>NAN</DistanceMeters>
          </Trackpoint>
          <Trackpoint>
            <Time>2022-09-23T10:41:45.000Z</Time>
            <Position>
              <LatitudeDegrees>49.561742506921291351318359375</LatitudeDegrees>
              <LongitudeDegrees>20.6355893053114414215087890625</LongitudeDegrees>
            </Position>
            <AltitudeMeters>326.600006103515625</AltitudeMeters>
            <DistanceMeters>NAN</DistanceMeters>
          </Trackpoint>
          <Trackpoint>
            <Time>2022-09-23T10:41:49.000Z</Time>
            <Position>
              <LatitudeDegrees>49.56177704036235809326171875</LatitudeDegrees>
              <LongitudeDegrees>20.6355644948780536651611328125</LongitudeDegrees>
            </Position>
            <AltitudeMeters>326.600006103515625</AltitudeMeters>
            <DistanceMeters>NAN</DistanceMeters>
          </Trackpoint>
          <Trackpoint>
            <Time>2022-09-23T10:41:56.000Z</Time>
            <Position>
              <LatitudeDegrees>49.56187251023948192596435546875</LatitudeDegrees>
              <LongitudeDegrees>20.635524429380893707275390625</LongitudeDegrees>
            </Position>
            <AltitudeMeters>326.600006103515625</AltitudeMeters>
            <DistanceMeters>NAN</DistanceMeters>
          </Trackpoint>
          <Trackpoint>
            <Time>2022-09-23T10:42:02.000Z</Time>
            <Position>
              <LatitudeDegrees>49.56203528679907321929931640625</LatitudeDegrees>
              <LongitudeDegrees>20.63548310659825801849365234375</LongitudeDegrees>
            </Position>
            <AltitudeMeters>326.600006103515625</AltitudeMeters>
            <DistanceMeters>NAN</DistanceMeters>
          </Trackpoint>
          <Trackpoint>
            <Time>2022-09-23T10:42:03.000Z</Time>
            <Position>
              <LatitudeDegrees>49.56206177361309528350830078125</LatitudeDegrees>
              <LongitudeDegrees>20.63547472469508647918701171875</LongitudeDegrees>
            </Position>
            <AltitudeMeters>326.600006103515625</AltitudeMeters>
            <DistanceMeters>NAN</DistanceMeters>
          </Trackpoint>
          <Trackpoint>
            <Time>2022-09-23T10:42:09.000Z</Time>
            <Position>
              <LatitudeDegrees>49.562235362827777862548828125</LatitudeDegrees>
              <LongitudeDegrees>20.63542761839926242828369140625</LongitudeDegrees>
            </Position>
            <AltitudeMeters>326.600006103515625</AltitudeMeters>
            <DistanceMeters>NAN</DistanceMeters>
          </Trackpoint>
          <Trackpoint>
            <Time>2022-09-23T10:42:11.000Z</Time>
            <Position>
              <LatitudeDegrees>49.56228733062744140625</LatitudeDegrees>
              <LongitudeDegrees>20.6354102678596973419189453125</LongitudeDegrees>
            </Position>
            <AltitudeMeters>326.600006103515625</AltitudeMeters>
            <DistanceMeters>NAN</DistanceMeters>
          </Trackpoint>
          <Trackpoint>
            <Time>2022-09-23T10:42:17.000Z</Time>
            <Position>
              <LatitudeDegrees>49.56245438195765018463134765625</LatitudeDegrees>
              <LongitudeDegrees>20.635366179049015045166015625</LongitudeDegrees>
            </Position>
            <AltitudeMeters>326.600006103515625</AltitudeMeters>
            <DistanceMeters>NAN</DistanceMeters>
          </Trackpoint>
          <Trackpoint>
            <Time>2022-09-23T10:42:24.000Z</Time>
            <Position>
              <LatitudeDegrees>49.56258748658001422882080078125</LatitudeDegrees>
              <LongitudeDegrees>20.6353026442229747772216796875</LongitudeDegrees>
            </Position>
            <AltitudeMeters>326.600006103515625</AltitudeMeters>
            <DistanceMeters>NAN</DistanceMeters>
          </Trackpoint>
          <Trackpoint>
            <Time>2022-09-23T10:42:31.000Z</Time>
            <Position>
              <LatitudeDegrees>49.56273249350488185882568359375</LatitudeDegrees>
              <LongitudeDegrees>20.63524103723466396331787109375</LongitudeDegrees>
            </Position>
            <AltitudeMeters>326.600006103515625</AltitudeMeters>
            <DistanceMeters>NAN</DistanceMeters>
          </Trackpoint>
          <Trackpoint>
            <Time>2022-09-23T10:42:36.000Z</Time>
            <Position>
              <LatitudeDegrees>49.56284053623676300048828125</LatitudeDegrees>
              <LongitudeDegrees>20.63521052710711956024169921875</LongitudeDegrees>
            </Position>
            <AltitudeMeters>326.600006103515625</AltitudeMeters>
            <DistanceMeters>NAN</DistanceMeters>
          </Trackpoint>
          <Trackpoint>
            <Time>2022-09-23T10:42:39.000Z</Time>
            <Position>
              <LatitudeDegrees>49.562893174588680267333984375</LatitudeDegrees>
              <LongitudeDegrees>20.6351899914443492889404296875</LongitudeDegrees>
            </Position>
            <AltitudeMeters>326.600006103515625</AltitudeMeters>
            <DistanceMeters>NAN</DistanceMeters>
          </Trackpoint>
          <Trackpoint>
            <Time>2022-09-23T10:42:46.000Z</Time>
            <Position>
              <LatitudeDegrees>49.56303474493324756622314453125</LatitudeDegrees>
              <LongitudeDegrees>20.63515822403132915496826171875</LongitudeDegrees>
            </Position>
            <AltitudeMeters>326.600006103515625</AltitudeMeters>
            <DistanceMeters>NAN</DistanceMeters>
          </Trackpoint>
          <Trackpoint>
            <Time>2022-09-23T10:42:49.000Z</Time>
            <Position>
              <LatitudeDegrees>49.56309643574059009552001953125</LatitudeDegrees>
              <LongitudeDegrees>20.63514078967273235321044921875</LongitudeDegrees>
            </Position>
            <AltitudeMeters>326.600006103515625</AltitudeMeters>
            <DistanceMeters>NAN</DistanceMeters>
          </Trackpoint>
          <Trackpoint>
            <Time>2022-09-23T10:42:51.000Z</Time>
            <Position>
              <LatitudeDegrees>49.56313717179000377655029296875</LatitudeDegrees>
              <LongitudeDegrees>20.6351390294730663299560546875</LongitudeDegrees>
            </Position>
            <AltitudeMeters>326.600006103515625</AltitudeMeters>
            <DistanceMeters>NAN</DistanceMeters>
          </Trackpoint>
          <Trackpoint>
            <Time>2022-09-23T10:42:52.000Z</Time>
            <Position>
              <LatitudeDegrees>49.56315292976796627044677734375</LatitudeDegrees>
              <LongitudeDegrees>20.63514431007206439971923828125</LongitudeDegrees>
            </Position>
            <AltitudeMeters>326.600006103515625</AltitudeMeters>
            <DistanceMeters>NAN</DistanceMeters>
          </Trackpoint>
          <Trackpoint>
            <Time>2022-09-23T10:42:54.000Z</Time>
            <Position>
              <LatitudeDegrees>49.563186876475811004638671875</LatitudeDegrees>
              <LongitudeDegrees>20.63515998423099517822265625</LongitudeDegrees>
            </Position>
            <AltitudeMeters>326.600006103515625</AltitudeMeters>
            <DistanceMeters>NAN</DistanceMeters>
          </Trackpoint>
          <Trackpoint>
            <Time>2022-09-23T10:42:56.000Z</Time>
            <Position>
              <LatitudeDegrees>49.5632091723382472991943359375</LatitudeDegrees>
              <LongitudeDegrees>20.63519812189042568206787109375</LongitudeDegrees>
            </Position>
            <AltitudeMeters>326.600006103515625</AltitudeMeters>
            <DistanceMeters>NAN</DistanceMeters>
          </Trackpoint>
          <Trackpoint>
            <Time>2022-09-23T10:42:57.000Z</Time>
            <Position>
              <LatitudeDegrees>49.5632172189652919769287109375</LatitudeDegrees>
              <LongitudeDegrees>20.63522209413349628448486328125</LongitudeDegrees>
            </Position>
            <AltitudeMeters>326.600006103515625</AltitudeMeters>
            <DistanceMeters>NAN</DistanceMeters>
          </Trackpoint>
          <Trackpoint>
            <Time>2022-09-23T10:43:04.000Z</Time>
            <Position>
              <LatitudeDegrees>49.563251249492168426513671875</LatitudeDegrees>
              <LongitudeDegrees>20.63547003082931041717529296875</LongitudeDegrees>
            </Position>
            <AltitudeMeters>326.600006103515625</AltitudeMeters>
            <DistanceMeters>NAN</DistanceMeters>
          </Trackpoint>
          <Trackpoint>
            <Time>2022-09-23T10:43:09.000Z</Time>
            <Position>
              <LatitudeDegrees>49.5632641576230525970458984375</LatitudeDegrees>
              <LongitudeDegrees>20.6356469728052616119384765625</LongitudeDegrees>
            </Position>
            <AltitudeMeters>326.20001220703125</AltitudeMeters>
            <DistanceMeters>NAN</DistanceMeters>
          </Trackpoint>
          <Trackpoint>
            <Time>2022-09-23T10:43:11.000Z</Time>
            <Position>
              <LatitudeDegrees>49.56326407380402088165283203125</LatitudeDegrees>
              <LongitudeDegrees>20.6357173807919025421142578125</LongitudeDegrees>
            </Position>
            <AltitudeMeters>326.399993896484375</AltitudeMeters>
            <DistanceMeters>NAN</DistanceMeters>
          </Trackpoint>
          <Trackpoint>
            <Time>2022-09-23T10:43:15.000Z</Time>
            <Position>
              <LatitudeDegrees>49.56329776905477046966552734375</LatitudeDegrees>
              <LongitudeDegrees>20.635819472372531890869140625</LongitudeDegrees>
            </Position>
            <AltitudeMeters>326.399993896484375</AltitudeMeters>
            <DistanceMeters>NAN</DistanceMeters>
          </Trackpoint>
          <Trackpoint>
            <Time>2022-09-23T10:43:16.000Z</Time>
            <Position>
              <LatitudeDegrees>49.56331067718565464019775390625</LatitudeDegrees>
              <LongitudeDegrees>20.63584285788238048553466796875</LongitudeDegrees>
            </Position>
            <AltitudeMeters>326.399993896484375</AltitudeMeters>
            <DistanceMeters>NAN</DistanceMeters>
          </Trackpoint>
          <Trackpoint>
            <Time>2022-09-23T10:43:21.000Z</Time>
            <Position>
              <LatitudeDegrees>49.56336759030818939208984375</LatitudeDegrees>
              <LongitudeDegrees>20.63598115928471088409423828125</LongitudeDegrees>
            </Position>
            <AltitudeMeters>326</AltitudeMeters>
            <DistanceMeters>NAN</DistanceMeters>
          </Trackpoint>
          <Trackpoint>
            <Time>2022-09-23T10:43:23.000Z</Time>
            <Position>
              <LatitudeDegrees>49.56340606324374675750732421875</LatitudeDegrees>
              <LongitudeDegrees>20.63599255867302417755126953125</LongitudeDegrees>
            </Position>
            <AltitudeMeters>325.79998779296875</AltitudeMeters>
            <DistanceMeters>NAN</DistanceMeters>
          </Trackpoint>
          <Trackpoint>
            <Time>2022-09-23T10:43:29.000Z</Time>
            <Position>
              <LatitudeDegrees>49.5634529180824756622314453125</LatitudeDegrees>
              <LongitudeDegrees>20.636061541736125946044921875</LongitudeDegrees>
            </Position>
            <AltitudeMeters>325.600006103515625</AltitudeMeters>
            <DistanceMeters>NAN</DistanceMeters>
          </Trackpoint>
          <Trackpoint>
            <Time>2022-09-23T10:43:30.000Z</Time>
            <Position>
              <LatitudeDegrees>49.5634636469185352325439453125</LatitudeDegrees>
              <LongitudeDegrees>20.63607193529605865478515625</LongitudeDegrees>
            </Position>
            <AltitudeMeters>325.600006103515625</AltitudeMeters>
            <DistanceMeters>NAN</DistanceMeters>
          </Trackpoint>
          <Trackpoint>
            <Time>2022-09-23T10:43:33.000Z</Time>
            <Position>
              <LatitudeDegrees>49.56350547261536121368408203125</LatitudeDegrees>
              <LongitudeDegrees>20.63607788644731044769287109375</LongitudeDegrees>
            </Position>
            <AltitudeMeters>325.600006103515625</AltitudeMeters>
            <DistanceMeters>NAN</DistanceMeters>
          </Trackpoint>
          <Trackpoint>
            <Time>2022-09-23T10:43:34.000Z</Time>
            <Position>
              <LatitudeDegrees>49.56351779401302337646484375</LatitudeDegrees>
              <LongitudeDegrees>20.6360726058483123779296875</LongitudeDegrees>
            </Position>
            <AltitudeMeters>325.399993896484375</AltitudeMeters>
            <DistanceMeters>NAN</DistanceMeters>
          </Trackpoint>
          <Trackpoint>
            <Time>2022-09-23T10:43:37.000Z</Time>
            <Position>
              <LatitudeDegrees>49.56353791058063507080078125</LatitudeDegrees>
              <LongitudeDegrees>20.63606388866901397705078125</LongitudeDegrees>
            </Position>
            <AltitudeMeters>325.399993896484375</AltitudeMeters>
            <DistanceMeters>NAN</DistanceMeters>
          </Trackpoint>
          <Trackpoint>
            <Time>2022-09-23T10:43:39.000Z</Time>
            <Position>
              <LatitudeDegrees>49.56353883258998394012451171875</LatitudeDegrees>
              <LongitudeDegrees>20.6360660679638385772705078125</LongitudeDegrees>
            </Position>
            <AltitudeMeters>325.600006103515625</AltitudeMeters>
            <DistanceMeters>NAN</DistanceMeters>
          </Trackpoint>
          <Trackpoint>
            <Time>2022-09-23T10:43:48.000Z</Time>
            <Position>
              <LatitudeDegrees>49.56353883258998394012451171875</LatitudeDegrees>
              <LongitudeDegrees>20.6360660679638385772705078125</LongitudeDegrees>
            </Position>
            <AltitudeMeters>325.79998779296875</AltitudeMeters>
            <DistanceMeters>NAN</DistanceMeters>
          </Trackpoint>
          <Trackpoint>
            <Time>2022-09-23T10:43:58.000Z</Time>
            <Position>
              <LatitudeDegrees>49.56353883258998394012451171875</LatitudeDegrees>
              <LongitudeDegrees>20.6360660679638385772705078125</LongitudeDegrees>
            </Position>
            <AltitudeMeters>325.79998779296875</AltitudeMeters>
            <DistanceMeters>NAN</DistanceMeters>
          </Trackpoint>
          <Trackpoint>
            <Time>2022-09-23T10:44:05.000Z</Time>
            <Position>
              <LatitudeDegrees>49.56353883258998394012451171875</LatitudeDegrees>
              <LongitudeDegrees>20.6360660679638385772705078125</LongitudeDegrees>
            </Position>
            <AltitudeMeters>325.79998779296875</AltitudeMeters>
            <DistanceMeters>NAN</DistanceMeters>
          </Trackpoint>
          <Trackpoint>
            <Time>2022-09-23T10:44:08.000Z</Time>
            <Position>
              <LatitudeDegrees>49.56353883258998394012451171875</LatitudeDegrees>
              <LongitudeDegrees>20.6360660679638385772705078125</LongitudeDegrees>
            </Position>
            <AltitudeMeters>325.79998779296875</AltitudeMeters>
            <DistanceMeters>NAN</DistanceMeters>
          </Trackpoint>
          <Trackpoint>
            <Time>2022-09-23T10:44:20.000Z</Time>
            <Position>
              <LatitudeDegrees>49.56355928443372249603271484375</LatitudeDegrees>
              <LongitudeDegrees>20.63605894334614276885986328125</LongitudeDegrees>
            </Position>
            <AltitudeMeters>325.79998779296875</AltitudeMeters>
            <DistanceMeters>NAN</DistanceMeters>
          </Trackpoint>
          <Trackpoint>
            <Time>2022-09-23T10:44:23.000Z</Time>
            <Position>
              <LatitudeDegrees>49.56359532661736011505126953125</LatitudeDegrees>
              <LongitudeDegrees>20.63604377210140228271484375</LongitudeDegrees>
            </Position>
            <AltitudeMeters>325.79998779296875</AltitudeMeters>
            <DistanceMeters>NAN</DistanceMeters>
          </Trackpoint>
          <Trackpoint>
            <Time>2022-09-23T10:44:32.000Z</Time>
            <Position>
              <LatitudeDegrees>49.56370077095925807952880859375</LatitudeDegrees>
              <LongitudeDegrees>20.63600513152778148651123046875</LongitudeDegrees>
            </Position>
            <AltitudeMeters>325.79998779296875</AltitudeMeters>
            <DistanceMeters>NAN</DistanceMeters>
          </Trackpoint>
          <Trackpoint>
            <Time>2022-09-23T10:44:35.000Z</Time>
            <Position>
              <LatitudeDegrees>49.563738070428371429443359375</LatitudeDegrees>
              <LongitudeDegrees>20.6359896250069141387939453125</LongitudeDegrees>
            </Position>
            <AltitudeMeters>326.20001220703125</AltitudeMeters>
            <DistanceMeters>NAN</DistanceMeters>
          </Trackpoint>
          <Trackpoint>
            <Time>2022-09-23T10:44:42.000Z</Time>
            <Position>
              <LatitudeDegrees>49.5638217218220233917236328125</LatitudeDegrees>
              <LongitudeDegrees>20.63596556894481182098388671875</LongitudeDegrees>
            </Position>
            <AltitudeMeters>325.600006103515625</AltitudeMeters>
            <DistanceMeters>NAN</DistanceMeters>
          </Trackpoint>
          <Trackpoint>
            <Time>2022-09-23T10:44:48.000Z</Time>
            <Position>
              <LatitudeDegrees>49.5638926327228546142578125</LatitudeDegrees>
              <LongitudeDegrees>20.6359648145735263824462890625</LongitudeDegrees>
            </Position>
            <AltitudeMeters>325.600006103515625</AltitudeMeters>
            <DistanceMeters>NAN</DistanceMeters>
          </Trackpoint>
          <Trackpoint>
            <Time>2022-09-23T10:44:52.000Z</Time>
            <Position>
              <LatitudeDegrees>49.563939236104488372802734375</LatitudeDegrees>
              <LongitudeDegrees>20.63597202301025390625</LongitudeDegrees>
            </Position>
            <AltitudeMeters>325.600006103515625</AltitudeMeters>
            <DistanceMeters>NAN</DistanceMeters>
          </Trackpoint>
          <Trackpoint>
            <Time>2022-09-23T10:45:02.000Z</Time>
            <Position>
              <LatitudeDegrees>49.5640433393418788909912109375</LatitudeDegrees>
              <LongitudeDegrees>20.635966323316097259521484375</LongitudeDegrees>
            </Position>
            <AltitudeMeters>325.399993896484375</AltitudeMeters>
            <DistanceMeters>NAN</DistanceMeters>
          </Trackpoint>
          <Trackpoint>
            <Time>2022-09-23T10:45:03.000Z</Time>
            <Position>
              <LatitudeDegrees>49.56405649892985820770263671875</LatitudeDegrees>
              <LongitudeDegrees>20.63598208129405975341796875</LongitudeDegrees>
            </Position>
            <AltitudeMeters>325.399993896484375</AltitudeMeters>
            <DistanceMeters>NAN</DistanceMeters>
          </Trackpoint>
          <Trackpoint>
            <Time>2022-09-23T10:45:05.000Z</Time>
            <Position>
              <LatitudeDegrees>49.56406806595623493194580078125</LatitudeDegrees>
              <LongitudeDegrees>20.636015944182872772216796875</LongitudeDegrees>
            </Position>
            <AltitudeMeters>325.399993896484375</AltitudeMeters>
            <DistanceMeters>NAN</DistanceMeters>
          </Trackpoint>
          <Trackpoint>
            <Time>2022-09-23T10:45:07.000Z</Time>
            <Position>
              <LatitudeDegrees>49.5640658028423786163330078125</LatitudeDegrees>
              <LongitudeDegrees>20.63605240546166896820068359375</LongitudeDegrees>
            </Position>
            <AltitudeMeters>325.399993896484375</AltitudeMeters>
            <DistanceMeters>NAN</DistanceMeters>
          </Trackpoint>
          <Trackpoint>
            <Time>2022-09-23T10:45:12.000Z</Time>
            <Position>
              <LatitudeDegrees>49.564047195017337799072265625</LatitudeDegrees>
              <LongitudeDegrees>20.6360731087625026702880859375</LongitudeDegrees>
            </Position>
            <AltitudeMeters>325.20001220703125</AltitudeMeters>
            <DistanceMeters>NAN</DistanceMeters>
          </Trackpoint>
          <Trackpoint>
            <Time>2022-09-23T10:45:15.000Z</Time>
            <Position>
              <LatitudeDegrees>49.56406119279563426971435546875</LatitudeDegrees>
              <LongitudeDegrees>20.63607637770473957061767578125</LongitudeDegrees>
            </Position>
            <AltitudeMeters>325.20001220703125</AltitudeMeters>
            <DistanceMeters>NAN</DistanceMeters>
          </Trackpoint>
          <Trackpoint>
            <Time>2022-09-23T10:45:16.000Z</Time>
            <Position>
              <LatitudeDegrees>49.56407158635556697845458984375</LatitudeDegrees>
              <LongitudeDegrees>20.63607553951442241668701171875</LongitudeDegrees>
            </Position>
            <AltitudeMeters>325.20001220703125</AltitudeMeters>
            <DistanceMeters>NAN</DistanceMeters>
          </Trackpoint>
          <Trackpoint>
            <Time>2022-09-23T10:45:19.000Z</Time>
            <Position>
              <LatitudeDegrees>49.56408650614321231842041015625</LatitudeDegrees>
              <LongitudeDegrees>20.63606816343963146209716796875</LongitudeDegrees>
            </Position>
            <AltitudeMeters>325.20001220703125</AltitudeMeters>
            <DistanceMeters>NAN</DistanceMeters>
          </Trackpoint>
          <Trackpoint>
            <Time>2022-09-23T10:45:22.000Z</Time>
            <Position>
              <LatitudeDegrees>49.56411919556558132171630859375</LatitudeDegrees>
              <LongitudeDegrees>20.63608534634113311767578125</LongitudeDegrees>
            </Position>
            <AltitudeMeters>325.20001220703125</AltitudeMeters>
            <DistanceMeters>NAN</DistanceMeters>
          </Trackpoint>
          <Trackpoint>
            <Time>2022-09-23T10:45:27.000Z</Time>
            <Position>
              <LatitudeDegrees>49.564121626317501068115234375</LatitudeDegrees>
              <LongitudeDegrees>20.6360928900539875030517578125</LongitudeDegrees>
            </Position>
            <AltitudeMeters>325.20001220703125</AltitudeMeters>
            <DistanceMeters>NAN</DistanceMeters>
          </Trackpoint>
          <Trackpoint>
            <Time>2022-09-23T10:45:32.000Z</Time>
            <Position>
              <LatitudeDegrees>49.56412531435489654541015625</LatitudeDegrees>
              <LongitudeDegrees>20.636100433766841888427734375</LongitudeDegrees>
            </Position>
            <AltitudeMeters>324.79998779296875</AltitudeMeters>
            <DistanceMeters>NAN</DistanceMeters>
          </Trackpoint>
          <Trackpoint>
            <Time>2022-09-23T10:45:36.000Z</Time>
            <Position>
              <LatitudeDegrees>49.5641707442700862884521484375</LatitudeDegrees>
              <LongitudeDegrees>20.63610454089939594268798828125</LongitudeDegrees>
            </Position>
            <AltitudeMeters>324.399993896484375</AltitudeMeters>
            <DistanceMeters>NAN</DistanceMeters>
          </Trackpoint>
          <Trackpoint>
            <Time>2022-09-23T10:45:38.000Z</Time>
            <Position>
              <LatitudeDegrees>49.56418490968644618988037109375</LatitudeDegrees>
              <LongitudeDegrees>20.63610252924263477325439453125</LongitudeDegrees>
            </Position>
            <AltitudeMeters>324.600006103515625</AltitudeMeters>
            <DistanceMeters>NAN</DistanceMeters>
          </Trackpoint>
          <Trackpoint>
            <Time>2022-09-23T10:45:46.000Z</Time>
            <Position>
              <LatitudeDegrees>49.564198069274425506591796875</LatitudeDegrees>
              <LongitudeDegrees>20.63610219396650791168212890625</LongitudeDegrees>
            </Position>
            <AltitudeMeters>324.79998779296875</AltitudeMeters>
            <DistanceMeters>NAN</DistanceMeters>
          </Trackpoint>
          <Trackpoint>
            <Time>2022-09-23T10:45:54.000Z</Time>
            <Position>
              <LatitudeDegrees>49.56421022303402423858642578125</LatitudeDegrees>
              <LongitudeDegrees>20.6361136771738529205322265625</LongitudeDegrees>
            </Position>
            <AltitudeMeters>325</AltitudeMeters>
            <DistanceMeters>NAN</DistanceMeters>
          </Trackpoint>
          <Trackpoint>
            <Time>2022-09-23T10:45:56.000Z</Time>
            <Position>
              <LatitudeDegrees>49.56421273760497570037841796875</LatitudeDegrees>
              <LongitudeDegrees>20.6361136771738529205322265625</LongitudeDegrees>
            </Position>
            <AltitudeMeters>325</AltitudeMeters>
            <DistanceMeters>NAN</DistanceMeters>
          </Trackpoint>
          <Trackpoint>
            <Time>2022-09-23T10:46:08.000Z</Time>
            <Position>
              <LatitudeDegrees>49.5642958022654056549072265625</LatitudeDegrees>
              <LongitudeDegrees>20.63609205186367034912109375</LongitudeDegrees>
            </Position>
            <AltitudeMeters>324.79998779296875</AltitudeMeters>
            <DistanceMeters>NAN</DistanceMeters>
          </Trackpoint>
          <Trackpoint>
            <Time>2022-09-23T10:46:12.000Z</Time>
            <Position>
              <LatitudeDegrees>49.564467631280422210693359375</LatitudeDegrees>
              <LongitudeDegrees>20.6360640563070774078369140625</LongitudeDegrees>
            </Position>
            <AltitudeMeters>324.399993896484375</AltitudeMeters>
            <DistanceMeters>NAN</DistanceMeters>
          </Trackpoint>
          <Trackpoint>
            <Time>2022-09-23T10:46:15.000Z</Time>
            <Position>
              <LatitudeDegrees>49.56458858214318752288818359375</LatitudeDegrees>
              <LongitudeDegrees>20.6360714323818683624267578125</LongitudeDegrees>
            </Position>
            <AltitudeMeters>324</AltitudeMeters>
            <DistanceMeters>NAN</DistanceMeters>
          </Trackpoint>
          <Trackpoint>
            <Time>2022-09-23T10:46:20.000Z</Time>
            <Position>
              <LatitudeDegrees>49.564784131944179534912109375</LatitudeDegrees>
              <LongitudeDegrees>20.6360570155084133148193359375</LongitudeDegrees>
            </Position>
            <AltitudeMeters>323.600006103515625</AltitudeMeters>
            <DistanceMeters>NAN</DistanceMeters>
          </Trackpoint>
          <Trackpoint>
            <Time>2022-09-23T10:46:26.000Z</Time>
            <Position>
              <LatitudeDegrees>49.565008096396923065185546875</LatitudeDegrees>
              <LongitudeDegrees>20.63599758781492710113525390625</LongitudeDegrees>
            </Position>
            <AltitudeMeters>323.399993896484375</AltitudeMeters>
            <DistanceMeters>NAN</DistanceMeters>
          </Trackpoint>
          <Trackpoint>
            <Time>2022-09-23T10:46:33.000Z</Time>
            <Position>
              <LatitudeDegrees>49.5652469806373119354248046875</LatitudeDegrees>
              <LongitudeDegrees>20.6359668262302875518798828125</LongitudeDegrees>
            </Position>
            <AltitudeMeters>323.399993896484375</AltitudeMeters>
            <DistanceMeters>NAN</DistanceMeters>
          </Trackpoint>
          <Trackpoint>
            <Time>2022-09-23T10:46:36.000Z</Time>
            <Position>
              <LatitudeDegrees>49.565364159643650054931640625</LatitudeDegrees>
              <LongitudeDegrees>20.63596473075449466705322265625</LongitudeDegrees>
            </Position>
            <AltitudeMeters>323.399993896484375</AltitudeMeters>
            <DistanceMeters>NAN</DistanceMeters>
          </Trackpoint>
          <Trackpoint>
            <Time>2022-09-23T10:46:38.000Z</Time>
            <Position>
              <LatitudeDegrees>49.56543012522161006927490234375</LatitudeDegrees>
              <LongitudeDegrees>20.63596439547836780548095703125</LongitudeDegrees>
            </Position>
            <AltitudeMeters>323.600006103515625</AltitudeMeters>
            <DistanceMeters>NAN</DistanceMeters>
          </Trackpoint>
          <Trackpoint>
            <Time>2022-09-23T10:46:43.000Z</Time>
            <Position>
              <LatitudeDegrees>49.56558636389672756195068359375</LatitudeDegrees>
              <LongitudeDegrees>20.63594092614948749542236328125</LongitudeDegrees>
            </Position>
            <AltitudeMeters>323.79998779296875</AltitudeMeters>
            <DistanceMeters>NAN</DistanceMeters>
          </Trackpoint>
          <Trackpoint>
            <Time>2022-09-23T10:46:49.000Z</Time>
            <Position>
              <LatitudeDegrees>49.56576758064329624176025390625</LatitudeDegrees>
              <LongitudeDegrees>20.6358957476913928985595703125</LongitudeDegrees>
            </Position>
            <AltitudeMeters>324</AltitudeMeters>
            <DistanceMeters>NAN</DistanceMeters>
          </Trackpoint>
          <Trackpoint>
            <Time>2022-09-23T10:46:54.000Z</Time>
            <Position>
              <LatitudeDegrees>49.56588693894445896148681640625</LatitudeDegrees>
              <LongitudeDegrees>20.6358917243778705596923828125</LongitudeDegrees>
            </Position>
            <AltitudeMeters>324.399993896484375</AltitudeMeters>
            <DistanceMeters>NAN</DistanceMeters>
          </Trackpoint>
          <Trackpoint>
            <Time>2022-09-23T10:46:56.000Z</Time>
            <Position>
              <LatitudeDegrees>49.56592851318418979644775390625</LatitudeDegrees>
              <LongitudeDegrees>20.63589180819690227508544921875</LongitudeDegrees>
            </Position>
            <AltitudeMeters>324.600006103515625</AltitudeMeters>
            <DistanceMeters>NAN</DistanceMeters>
          </Trackpoint>
          <Trackpoint>
            <Time>2022-09-23T10:47:02.000Z</Time>
            <Position>
              <LatitudeDegrees>49.56608860753476619720458984375</LatitudeDegrees>
              <LongitudeDegrees>20.63586967997252941131591796875</LongitudeDegrees>
            </Position>
            <AltitudeMeters>324.600006103515625</AltitudeMeters>
            <DistanceMeters>NAN</DistanceMeters>
          </Trackpoint>
          <Trackpoint>
            <Time>2022-09-23T10:47:04.000Z</Time>
            <Position>
              <LatitudeDegrees>49.56614543683826923370361328125</LatitudeDegrees>
              <LongitudeDegrees>20.6358575262129306793212890625</LongitudeDegrees>
            </Position>
            <AltitudeMeters>324.399993896484375</AltitudeMeters>
            <DistanceMeters>NAN</DistanceMeters>
          </Trackpoint>
          <Trackpoint>
            <Time>2022-09-23T10:47:07.000Z</Time>
            <Position>
              <LatitudeDegrees>49.566237889230251312255859375</LatitudeDegrees>
              <LongitudeDegrees>20.63583699055016040802001953125</LongitudeDegrees>
            </Position>
            <AltitudeMeters>324.20001220703125</AltitudeMeters>
            <DistanceMeters>NAN</DistanceMeters>
          </Trackpoint>
          <Trackpoint>
            <Time>2022-09-23T10:47:09.000Z</Time>
            <Position>
              <LatitudeDegrees>49.56630502827465534210205078125</LatitudeDegrees>
              <LongitudeDegrees>20.635821819305419921875</LongitudeDegrees>
            </Position>
            <AltitudeMeters>323.79998779296875</AltitudeMeters>
            <DistanceMeters>NAN</DistanceMeters>
          </Trackpoint>
          <Trackpoint>
            <Time>2022-09-23T10:47:10.000Z</Time>
            <Position>
              <LatitudeDegrees>49.56634140573441982269287109375</LatitudeDegrees>
              <LongitudeDegrees>20.6358152814209461212158203125</LongitudeDegrees>
            </Position>
            <AltitudeMeters>323.79998779296875</AltitudeMeters>
            <DistanceMeters>NAN</DistanceMeters>
          </Trackpoint>
          <Trackpoint>
            <Time>2022-09-23T10:47:11.000Z</Time>
            <Position>
              <LatitudeDegrees>49.56637845374643802642822265625</LatitudeDegrees>
              <LongitudeDegrees>20.63581218011677265167236328125</LongitudeDegrees>
            </Position>
            <AltitudeMeters>323.600006103515625</AltitudeMeters>
            <DistanceMeters>NAN</DistanceMeters>
          </Trackpoint>
          <Trackpoint>
            <Time>2022-09-23T10:47:12.000Z</Time>
            <Position>
              <LatitudeDegrees>49.566409885883331298828125</LatitudeDegrees>
              <LongitudeDegrees>20.635814778506755828857421875</LongitudeDegrees>
            </Position>
            <AltitudeMeters>322.399993896484375</AltitudeMeters>
            <DistanceMeters>NAN</DistanceMeters>
          </Trackpoint>
          <Trackpoint>
            <Time>2022-09-23T10:47:14.000Z</Time>
            <Position>
              <LatitudeDegrees>49.566501416265964508056640625</LatitudeDegrees>
              <LongitudeDegrees>20.63581846654415130615234375</LongitudeDegrees>
            </Position>
            <AltitudeMeters>322.399993896484375</AltitudeMeters>
            <DistanceMeters>NAN</DistanceMeters>
          </Trackpoint>
          <Trackpoint>
            <Time>2022-09-23T10:47:16.000Z</Time>
            <Position>
              <LatitudeDegrees>49.56658883951604366302490234375</LatitudeDegrees>
              <LongitudeDegrees>20.63581586815416812896728515625</LongitudeDegrees>
            </Position>
            <AltitudeMeters>322.399993896484375</AltitudeMeters>
            <DistanceMeters>NAN</DistanceMeters>
          </Trackpoint>
          <Trackpoint>
            <Time>2022-09-23T10:47:18.000Z</Time>
            <Position>
              <LatitudeDegrees>49.56669981591403484344482421875</LatitudeDegrees>
              <LongitudeDegrees>20.63581754453480243682861328125</LongitudeDegrees>
            </Position>
            <AltitudeMeters>322.20001220703125</AltitudeMeters>
            <DistanceMeters>NAN</DistanceMeters>
          </Trackpoint>
          <Trackpoint>
            <Time>2022-09-23T10:47:19.000Z</Time>
            <Position>
              <LatitudeDegrees>49.56675278954207897186279296875</LatitudeDegrees>
              <LongitudeDegrees>20.63581737689673900604248046875</LongitudeDegrees>
            </Position>
            <AltitudeMeters>322</AltitudeMeters>
            <DistanceMeters>NAN</DistanceMeters>
          </Trackpoint>
          <Trackpoint>
            <Time>2022-09-23T10:47:20.000Z</Time>
            <Position>
              <LatitudeDegrees>49.56679939292371273040771484375</LatitudeDegrees>
              <LongitudeDegrees>20.63581570051610469818115234375</LongitudeDegrees>
            </Position>
            <AltitudeMeters>321.600006103515625</AltitudeMeters>
            <DistanceMeters>NAN</DistanceMeters>
          </Trackpoint>
          <Trackpoint>
            <Time>2022-09-23T10:47:21.000Z</Time>
            <Position>
              <LatitudeDegrees>49.5668569765985012054443359375</LatitudeDegrees>
              <LongitudeDegrees>20.6358146108686923980712890625</LongitudeDegrees>
            </Position>
            <AltitudeMeters>321.399993896484375</AltitudeMeters>
            <DistanceMeters>NAN</DistanceMeters>
          </Trackpoint>
          <Trackpoint>
            <Time>2022-09-23T10:47:22.000Z</Time>
            <Position>
              <LatitudeDegrees>49.5669263787567615509033203125</LatitudeDegrees>
              <LongitudeDegrees>20.63580773770809173583984375</LongitudeDegrees>
            </Position>
            <AltitudeMeters>321.20001220703125</AltitudeMeters>
            <DistanceMeters>NAN</DistanceMeters>
          </Trackpoint>
          <Trackpoint>
            <Time>2022-09-23T10:47:27.000Z</Time>
            <Position>
              <LatitudeDegrees>49.5671932585537433624267578125</LatitudeDegrees>
              <LongitudeDegrees>20.63580916263163089752197265625</LongitudeDegrees>
            </Position>
            <AltitudeMeters>320.399993896484375</AltitudeMeters>
            <DistanceMeters>NAN</DistanceMeters>
          </Trackpoint>
          <Trackpoint>
            <Time>2022-09-23T10:47:28.000Z</Time>
            <Position>
              <LatitudeDegrees>49.56724866293370723724365234375</LatitudeDegrees>
              <LongitudeDegrees>20.63579508103430271148681640625</LongitudeDegrees>
            </Position>
            <AltitudeMeters>320</AltitudeMeters>
            <DistanceMeters>NAN</DistanceMeters>
          </Trackpoint>
          <Trackpoint>
            <Time>2022-09-23T10:47:32.000Z</Time>
            <Position>
              <LatitudeDegrees>49.567473046481609344482421875</LatitudeDegrees>
              <LongitudeDegrees>20.63571126200258731842041015625</LongitudeDegrees>
            </Position>
            <AltitudeMeters>318.600006103515625</AltitudeMeters>
            <DistanceMeters>NAN</DistanceMeters>
          </Trackpoint>
          <Trackpoint>
            <Time>2022-09-23T10:47:35.000Z</Time>
            <Position>
              <LatitudeDegrees>49.56760279834270477294921875</LatitudeDegrees>
              <LongitudeDegrees>20.635663233697414398193359375</LongitudeDegrees>
            </Position>
            <AltitudeMeters>317.79998779296875</AltitudeMeters>
            <DistanceMeters>NAN</DistanceMeters>
          </Trackpoint>
          <Trackpoint>
            <Time>2022-09-23T10:47:36.000Z</Time>
            <Position>
              <LatitudeDegrees>49.56762752495706081390380859375</LatitudeDegrees>
              <LongitudeDegrees>20.63565460033714771270751953125</LongitudeDegrees>
            </Position>
            <AltitudeMeters>317.600006103515625</AltitudeMeters>
            <DistanceMeters>NAN</DistanceMeters>
          </Trackpoint>
          <Trackpoint>
            <Time>2022-09-23T10:47:42.000Z</Time>
            <Position>
              <LatitudeDegrees>49.56782215274870395660400390625</LatitudeDegrees>
              <LongitudeDegrees>20.6356231682002544403076171875</LongitudeDegrees>
            </Position>
            <AltitudeMeters>316.600006103515625</AltitudeMeters>
            <DistanceMeters>NAN</DistanceMeters>
          </Trackpoint>
          <Trackpoint>
            <Time>2022-09-23T10:47:46.000Z</Time>
            <Position>
              <LatitudeDegrees>49.56796933896839618682861328125</LatitudeDegrees>
              <LongitudeDegrees>20.6356929056346416473388671875</LongitudeDegrees>
            </Position>
            <AltitudeMeters>315.600006103515625</AltitudeMeters>
            <DistanceMeters>NAN</DistanceMeters>
          </Trackpoint>
          <Trackpoint>
            <Time>2022-09-23T10:47:49.000Z</Time>
            <Position>
              <LatitudeDegrees>49.5680857636034488677978515625</LatitudeDegrees>
              <LongitudeDegrees>20.63579625450074672698974609375</LongitudeDegrees>
            </Position>
            <AltitudeMeters>315</AltitudeMeters>
            <DistanceMeters>NAN</DistanceMeters>
          </Trackpoint>
          <Trackpoint>
            <Time>2022-09-23T10:47:52.000Z</Time>
            <Position>
              <LatitudeDegrees>49.56818374805152416229248046875</LatitudeDegrees>
              <LongitudeDegrees>20.63588283956050872802734375</LongitudeDegrees>
            </Position>
            <AltitudeMeters>314.399993896484375</AltitudeMeters>
            <DistanceMeters>NAN</DistanceMeters>
          </Trackpoint>
          <Trackpoint>
            <Time>2022-09-23T10:47:55.000Z</Time>
            <Position>
              <LatitudeDegrees>49.5683021843433380126953125</LatitudeDegrees>
              <LongitudeDegrees>20.6359366513788700103759765625</LongitudeDegrees>
            </Position>
            <AltitudeMeters>313.600006103515625</AltitudeMeters>
            <DistanceMeters>NAN</DistanceMeters>
          </Trackpoint>
          <Trackpoint>
            <Time>2022-09-23T10:47:56.000Z</Time>
            <Position>
              <LatitudeDegrees>49.5683392323553562164306640625</LatitudeDegrees>
              <LongitudeDegrees>20.6359331309795379638671875</LongitudeDegrees>
            </Position>
            <AltitudeMeters>313.399993896484375</AltitudeMeters>
            <DistanceMeters>NAN</DistanceMeters>
          </Trackpoint>
          <Trackpoint>
            <Time>2022-09-23T10:47:59.000Z</Time>
            <Position>
              <LatitudeDegrees>49.56844811327755451202392578125</LatitudeDegrees>
              <LongitudeDegrees>20.63595433719456195831298828125</LongitudeDegrees>
            </Position>
            <AltitudeMeters>313.20001220703125</AltitudeMeters>
            <DistanceMeters>NAN</DistanceMeters>
          </Trackpoint>
          <Trackpoint>
            <Time>2022-09-23T10:48:05.000Z</Time>
            <Position>
              <LatitudeDegrees>49.56860753707587718963623046875</LatitudeDegrees>
              <LongitudeDegrees>20.63614167273044586181640625</LongitudeDegrees>
            </Position>
            <AltitudeMeters>313.399993896484375</AltitudeMeters>
            <DistanceMeters>NAN</DistanceMeters>
          </Trackpoint>
          <Trackpoint>
            <Time>2022-09-23T10:48:11.000Z</Time>
            <Position>
              <LatitudeDegrees>49.5688045956194400787353515625</LatitudeDegrees>
              <LongitudeDegrees>20.636249296367168426513671875</LongitudeDegrees>
            </Position>
            <AltitudeMeters>313.20001220703125</AltitudeMeters>
            <DistanceMeters>NAN</DistanceMeters>
          </Trackpoint>
          <Trackpoint>
            <Time>2022-09-23T10:48:17.000Z</Time>
            <Position>
              <LatitudeDegrees>49.5690389536321163177490234375</LatitudeDegrees>
              <LongitudeDegrees>20.6363208778202533721923828125</LongitudeDegrees>
            </Position>
            <AltitudeMeters>313</AltitudeMeters>
            <DistanceMeters>NAN</DistanceMeters>
          </Trackpoint>
          <Trackpoint>
            <Time>2022-09-23T10:48:18.000Z</Time>
            <Position>
              <LatitudeDegrees>49.56907122395932674407958984375</LatitudeDegrees>
              <LongitudeDegrees>20.63633621670305728912353515625</LongitudeDegrees>
            </Position>
            <AltitudeMeters>313</AltitudeMeters>
            <DistanceMeters>NAN</DistanceMeters>
          </Trackpoint>
          <Trackpoint>
            <Time>2022-09-23T10:48:20.000Z</Time>
            <Position>
              <LatitudeDegrees>49.5691321603953838348388671875</LatitudeDegrees>
              <LongitudeDegrees>20.63636295497417449951171875</LongitudeDegrees>
            </Position>
            <AltitudeMeters>312.79998779296875</AltitudeMeters>
            <DistanceMeters>NAN</DistanceMeters>
          </Trackpoint>
          <Trackpoint>
            <Time>2022-09-23T10:48:22.000Z</Time>
            <Position>
              <LatitudeDegrees>49.5692007243633270263671875</LatitudeDegrees>
              <LongitudeDegrees>20.63637795858085155487060546875</LongitudeDegrees>
            </Position>
            <AltitudeMeters>312.79998779296875</AltitudeMeters>
            <DistanceMeters>NAN</DistanceMeters>
          </Trackpoint>
          <Trackpoint>
            <Time>2022-09-23T10:48:29.000Z</Time>
            <Position>
              <LatitudeDegrees>49.569431059062480926513671875</LatitudeDegrees>
              <LongitudeDegrees>20.6364533118903636932373046875</LongitudeDegrees>
            </Position>
            <AltitudeMeters>312.79998779296875</AltitudeMeters>
            <DistanceMeters>NAN</DistanceMeters>
          </Trackpoint>
          <Trackpoint>
            <Time>2022-09-23T10:48:30.000Z</Time>
            <Position>
              <LatitudeDegrees>49.569462239742279052734375</LatitudeDegrees>
              <LongitudeDegrees>20.63646194525063037872314453125</LongitudeDegrees>
            </Position>
            <AltitudeMeters>312.600006103515625</AltitudeMeters>
            <DistanceMeters>NAN</DistanceMeters>
          </Trackpoint>
          <Trackpoint>
            <Time>2022-09-23T10:48:36.000Z</Time>
            <Position>
              <LatitudeDegrees>49.56968687474727630615234375</LatitudeDegrees>
              <LongitudeDegrees>20.63650469295680522918701171875</LongitudeDegrees>
            </Position>
            <AltitudeMeters>312.399993896484375</AltitudeMeters>
            <DistanceMeters>NAN</DistanceMeters>
          </Trackpoint>
          <Trackpoint>
            <Time>2022-09-23T10:48:37.000Z</Time>
            <Position>
              <LatitudeDegrees>49.5697302930057048797607421875</LatitudeDegrees>
              <LongitudeDegrees>20.63651324249804019927978515625</LongitudeDegrees>
            </Position>
            <AltitudeMeters>312.600006103515625</AltitudeMeters>
            <DistanceMeters>NAN</DistanceMeters>
          </Trackpoint>
          <Trackpoint>
            <Time>2022-09-23T10:48:38.000Z</Time>
            <Position>
              <LatitudeDegrees>49.56976457498967647552490234375</LatitudeDegrees>
              <LongitudeDegrees>20.63651776872575283050537109375</LongitudeDegrees>
            </Position>
            <AltitudeMeters>312.600006103515625</AltitudeMeters>
            <DistanceMeters>NAN</DistanceMeters>
          </Trackpoint>
          <Trackpoint>
            <Time>2022-09-23T10:48:39.000Z</Time>
            <Position>
              <LatitudeDegrees>49.5698074065148830413818359375</LatitudeDegrees>
              <LongitudeDegrees>20.6365213729441165924072265625</LongitudeDegrees>
            </Position>
            <AltitudeMeters>312.79998779296875</AltitudeMeters>
            <DistanceMeters>NAN</DistanceMeters>
          </Trackpoint>
          <Trackpoint>
            <Time>2022-09-23T10:48:42.000Z</Time>
            <Position>
              <LatitudeDegrees>49.56994243897497653961181640625</LatitudeDegrees>
              <LongitudeDegrees>20.6365240551531314849853515625</LongitudeDegrees>
            </Position>
            <AltitudeMeters>312.79998779296875</AltitudeMeters>
            <DistanceMeters>NAN</DistanceMeters>
          </Trackpoint>
          <Trackpoint>
            <Time>2022-09-23T10:48:44.000Z</Time>
            <Position>
              <LatitudeDegrees>49.570021815598011016845703125</LatitudeDegrees>
              <LongitudeDegrees>20.6365220434963703155517578125</LongitudeDegrees>
            </Position>
            <AltitudeMeters>312.79998779296875</AltitudeMeters>
            <DistanceMeters>NAN</DistanceMeters>
          </Trackpoint>
          <Trackpoint>
            <Time>2022-09-23T10:48:45.000Z</Time>
            <Position>
              <LatitudeDegrees>49.5700598694384098052978515625</LatitudeDegrees>
              <LongitudeDegrees>20.63651718199253082275390625</LongitudeDegrees>
            </Position>
            <AltitudeMeters>312.79998779296875</AltitudeMeters>
            <DistanceMeters>NAN</DistanceMeters>
          </Trackpoint>
          <Trackpoint>
            <Time>2022-09-23T10:48:56.000Z</Time>
            <Position>
              <LatitudeDegrees>49.57055632956326007843017578125</LatitudeDegrees>
              <LongitudeDegrees>20.6364740990102291107177734375</LongitudeDegrees>
            </Position>
            <AltitudeMeters>311.600006103515625</AltitudeMeters>
            <DistanceMeters>NAN</DistanceMeters>
          </Trackpoint>
          <Trackpoint>
            <Time>2022-09-23T10:49:02.000Z</Time>
            <Position>
              <LatitudeDegrees>49.5708154141902923583984375</LatitudeDegrees>
              <LongitudeDegrees>20.63647954724729061126708984375</LongitudeDegrees>
            </Position>
            <AltitudeMeters>311.399993896484375</AltitudeMeters>
            <DistanceMeters>NAN</DistanceMeters>
          </Trackpoint>
          <Trackpoint>
            <Time>2022-09-23T10:49:03.000Z</Time>
            <Position>
              <LatitudeDegrees>49.570859335362911224365234375</LatitudeDegrees>
              <LongitudeDegrees>20.63648809678852558135986328125</LongitudeDegrees>
            </Position>
            <AltitudeMeters>311.20001220703125</AltitudeMeters>
            <DistanceMeters>NAN</DistanceMeters>
          </Trackpoint>
          <Trackpoint>
            <Time>2022-09-23T10:49:12.000Z</Time>
            <Position>
              <LatitudeDegrees>49.57124792039394378662109375</LatitudeDegrees>
              <LongitudeDegrees>20.6364856660366058349609375</LongitudeDegrees>
            </Position>
            <AltitudeMeters>312.20001220703125</AltitudeMeters>
            <DistanceMeters>NAN</DistanceMeters>
          </Trackpoint>
          <Trackpoint>
            <Time>2022-09-23T10:49:13.000Z</Time>
            <Position>
              <LatitudeDegrees>49.5712963677942752838134765625</LatitudeDegrees>
              <LongitudeDegrees>20.63648507930338382720947265625</LongitudeDegrees>
            </Position>
            <AltitudeMeters>312.399993896484375</AltitudeMeters>
            <DistanceMeters>NAN</DistanceMeters>
          </Trackpoint>
          <Trackpoint>
            <Time>2022-09-23T10:49:21.000Z</Time>
            <Position>
              <LatitudeDegrees>49.57160222344100475311279296875</LatitudeDegrees>
              <LongitudeDegrees>20.63648340292274951934814453125</LongitudeDegrees>
            </Position>
            <AltitudeMeters>311.79998779296875</AltitudeMeters>
            <DistanceMeters>NAN</DistanceMeters>
          </Trackpoint>
          <Trackpoint>
            <Time>2022-09-23T10:49:25.000Z</Time>
            <Position>
              <LatitudeDegrees>49.57177455537021160125732421875</LatitudeDegrees>
              <LongitudeDegrees>20.6364791281521320343017578125</LongitudeDegrees>
            </Position>
            <AltitudeMeters>311.399993896484375</AltitudeMeters>
            <DistanceMeters>NAN</DistanceMeters>
          </Trackpoint>
          <Trackpoint>
            <Time>2022-09-23T10:49:27.000Z</Time>
            <Position>
              <LatitudeDegrees>49.571854770183563232421875</LatitudeDegrees>
              <LongitudeDegrees>20.63647367991507053375244140625</LongitudeDegrees>
            </Position>
            <AltitudeMeters>311.399993896484375</AltitudeMeters>
            <DistanceMeters>NAN</DistanceMeters>
          </Trackpoint>
          <Trackpoint>
            <Time>2022-09-23T10:49:30.000Z</Time>
            <Position>
              <LatitudeDegrees>49.5719692669808864593505859375</LatitudeDegrees>
              <LongitudeDegrees>20.63645993359386920928955078125</LongitudeDegrees>
            </Position>
            <AltitudeMeters>310.600006103515625</AltitudeMeters>
            <DistanceMeters>NAN</DistanceMeters>
          </Trackpoint>
          <Trackpoint>
            <Time>2022-09-23T10:49:31.000Z</Time>
            <Position>
              <LatitudeDegrees>49.57200698554515838623046875</LatitudeDegrees>
              <LongitudeDegrees>20.6364569999277591705322265625</LongitudeDegrees>
            </Position>
            <AltitudeMeters>310.399993896484375</AltitudeMeters>
            <DistanceMeters>NAN</DistanceMeters>
          </Trackpoint>
          <Trackpoint>
            <Time>2022-09-23T10:49:35.000Z</Time>
            <Position>
              <LatitudeDegrees>49.57214939408004283905029296875</LatitudeDegrees>
              <LongitudeDegrees>20.6364546529948711395263671875</LongitudeDegrees>
            </Position>
            <AltitudeMeters>310.600006103515625</AltitudeMeters>
            <DistanceMeters>NAN</DistanceMeters>
          </Trackpoint>
          <Trackpoint>
            <Time>2022-09-23T10:49:39.000Z</Time>
            <Position>
              <LatitudeDegrees>49.57228870131075382232666015625</LatitudeDegrees>
              <LongitudeDegrees>20.63645339570939540863037109375</LongitudeDegrees>
            </Position>
            <AltitudeMeters>310.600006103515625</AltitudeMeters>
            <DistanceMeters>NAN</DistanceMeters>
          </Trackpoint>
          <Trackpoint>
            <Time>2022-09-23T10:49:48.000Z</Time>
            <Position>
              <LatitudeDegrees>49.57263437099754810333251953125</LatitudeDegrees>
              <LongitudeDegrees>20.63640360720455646514892578125</LongitudeDegrees>
            </Position>
            <AltitudeMeters>310.79998779296875</AltitudeMeters>
            <DistanceMeters>NAN</DistanceMeters>
          </Trackpoint>
          <Trackpoint>
            <Time>2022-09-23T10:49:52.000Z</Time>
            <Position>
              <LatitudeDegrees>49.57277200184762477874755859375</LatitudeDegrees>
              <LongitudeDegrees>20.636374019086360931396484375</LongitudeDegrees>
            </Position>
            <AltitudeMeters>310.600006103515625</AltitudeMeters>
            <DistanceMeters>NAN</DistanceMeters>
          </Trackpoint>
          <Trackpoint>
            <Time>2022-09-23T10:49:57.000Z</Time>
            <Position>
              <LatitudeDegrees>49.57295439206063747406005859375</LatitudeDegrees>
              <LongitudeDegrees>20.63634661026298999786376953125</LongitudeDegrees>
            </Position>
            <AltitudeMeters>310.399993896484375</AltitudeMeters>
            <DistanceMeters>NAN</DistanceMeters>
          </Trackpoint>
          <Trackpoint>
            <Time>2022-09-23T10:49:58.000Z</Time>
            <Position>
              <LatitudeDegrees>49.5729905180633068084716796875</LatitudeDegrees>
              <LongitudeDegrees>20.63634728081524372100830078125</LongitudeDegrees>
            </Position>
            <AltitudeMeters>310.20001220703125</AltitudeMeters>
            <DistanceMeters>NAN</DistanceMeters>
          </Trackpoint>
          <Trackpoint>
            <Time>2022-09-23T10:50:01.000Z</Time>
            <Position>
              <LatitudeDegrees>49.5731011591851711273193359375</LatitudeDegrees>
              <LongitudeDegrees>20.6363517232239246368408203125</LongitudeDegrees>
            </Position>
            <AltitudeMeters>310.20001220703125</AltitudeMeters>
            <DistanceMeters>NAN</DistanceMeters>
          </Trackpoint>
          <Trackpoint>
            <Time>2022-09-23T10:50:07.000Z</Time>
            <Position>
              <LatitudeDegrees>49.57330073229968547821044921875</LatitudeDegrees>
              <LongitudeDegrees>20.63631744123995304107666015625</LongitudeDegrees>
            </Position>
            <AltitudeMeters>309.600006103515625</AltitudeMeters>
            <DistanceMeters>NAN</DistanceMeters>
          </Trackpoint>
          <Trackpoint>
            <Time>2022-09-23T10:50:15.000Z</Time>
            <Position>
              <LatitudeDegrees>49.57356761209666728973388671875</LatitudeDegrees>
              <LongitudeDegrees>20.6362603604793548583984375</LongitudeDegrees>
            </Position>
            <AltitudeMeters>309.79998779296875</AltitudeMeters>
            <DistanceMeters>NAN</DistanceMeters>
          </Trackpoint>
          <Trackpoint>
            <Time>2022-09-23T10:50:20.000Z</Time>
            <Position>
              <LatitudeDegrees>49.5737475715577602386474609375</LatitudeDegrees>
              <LongitudeDegrees>20.63620260916650295257568359375</LongitudeDegrees>
            </Position>
            <AltitudeMeters>309.399993896484375</AltitudeMeters>
            <DistanceMeters>NAN</DistanceMeters>
          </Trackpoint>
          <Trackpoint>
            <Time>2022-09-23T10:50:23.000Z</Time>
            <Position>
              <LatitudeDegrees>49.57386164925992488861083984375</LatitudeDegrees>
              <LongitudeDegrees>20.636176206171512603759765625</LongitudeDegrees>
            </Position>
            <AltitudeMeters>308.79998779296875</AltitudeMeters>
            <DistanceMeters>NAN</DistanceMeters>
          </Trackpoint>
          <Trackpoint>
            <Time>2022-09-23T10:50:28.000Z</Time>
            <Position>
              <LatitudeDegrees>49.574058540165424346923828125</LatitudeDegrees>
              <LongitudeDegrees>20.6361522339284420013427734375</LongitudeDegrees>
            </Position>
            <AltitudeMeters>308.600006103515625</AltitudeMeters>
            <DistanceMeters>NAN</DistanceMeters>
          </Trackpoint>
          <Trackpoint>
            <Time>2022-09-23T10:50:30.000Z</Time>
            <Position>
              <LatitudeDegrees>49.574157781898975372314453125</LatitudeDegrees>
              <LongitudeDegrees>20.6361351348459720611572265625</LongitudeDegrees>
            </Position>
            <AltitudeMeters>309</AltitudeMeters>
            <DistanceMeters>NAN</DistanceMeters>
          </Trackpoint>
          <Trackpoint>
            <Time>2022-09-23T10:50:32.000Z</Time>
            <Position>
              <LatitudeDegrees>49.574252665042877197265625</LatitudeDegrees>
              <LongitudeDegrees>20.63613899052143096923828125</LongitudeDegrees>
            </Position>
            <AltitudeMeters>309</AltitudeMeters>
            <DistanceMeters>NAN</DistanceMeters>
          </Trackpoint>
          <Trackpoint>
            <Time>2022-09-23T10:50:35.000Z</Time>
            <Position>
              <LatitudeDegrees>49.57438149489462375640869140625</LatitudeDegrees>
              <LongitudeDegrees>20.63616044819355010986328125</LongitudeDegrees>
            </Position>
            <AltitudeMeters>308.79998779296875</AltitudeMeters>
            <DistanceMeters>NAN</DistanceMeters>
          </Trackpoint>
          <Trackpoint>
            <Time>2022-09-23T10:50:38.000Z</Time>
            <Position>
              <LatitudeDegrees>49.57451979629695415496826171875</LatitudeDegrees>
              <LongitudeDegrees>20.63617092557251453399658203125</LongitudeDegrees>
            </Position>
            <AltitudeMeters>308.79998779296875</AltitudeMeters>
            <DistanceMeters>NAN</DistanceMeters>
          </Trackpoint>
          <Trackpoint>
            <Time>2022-09-23T10:50:40.000Z</Time>
            <Position>
              <LatitudeDegrees>49.57460336387157440185546875</LatitudeDegrees>
              <LongitudeDegrees>20.63617796637117862701416015625</LongitudeDegrees>
            </Position>
            <AltitudeMeters>308.79998779296875</AltitudeMeters>
            <DistanceMeters>NAN</DistanceMeters>
          </Trackpoint>
          <Trackpoint>
            <Time>2022-09-23T10:50:42.000Z</Time>
            <Position>
              <LatitudeDegrees>49.57469933666288852691650390625</LatitudeDegrees>
              <LongitudeDegrees>20.63618701882660388946533203125</LongitudeDegrees>
            </Position>
            <AltitudeMeters>309</AltitudeMeters>
            <DistanceMeters>NAN</DistanceMeters>
          </Trackpoint>
          <Trackpoint>
            <Time>2022-09-23T10:50:48.000Z</Time>
            <Position>
              <LatitudeDegrees>49.57500745542347431182861328125</LatitudeDegrees>
              <LongitudeDegrees>20.63619892112910747528076171875</LongitudeDegrees>
            </Position>
            <AltitudeMeters>308.600006103515625</AltitudeMeters>
            <DistanceMeters>NAN</DistanceMeters>
          </Trackpoint>
          <Trackpoint>
            <Time>2022-09-23T10:50:52.000Z</Time>
            <Position>
              <LatitudeDegrees>49.57520895637571811676025390625</LatitudeDegrees>
              <LongitudeDegrees>20.63623311929404735565185546875</LongitudeDegrees>
            </Position>
            <AltitudeMeters>308.600006103515625</AltitudeMeters>
            <DistanceMeters>NAN</DistanceMeters>
          </Trackpoint>
          <Trackpoint>
            <Time>2022-09-23T10:50:58.000Z</Time>
            <Position>
              <LatitudeDegrees>49.57548924721777439117431640625</LatitudeDegrees>
              <LongitudeDegrees>20.636267401278018951416015625</LongitudeDegrees>
            </Position>
            <AltitudeMeters>308.399993896484375</AltitudeMeters>
            <DistanceMeters>NAN</DistanceMeters>
          </Trackpoint>
          <Trackpoint>
            <Time>2022-09-23T10:50:59.000Z</Time>
            <Position>
              <LatitudeDegrees>49.5755226910114288330078125</LatitudeDegrees>
              <LongitudeDegrees>20.63626832328736782073974609375</LongitudeDegrees>
            </Position>
            <AltitudeMeters>308.399993896484375</AltitudeMeters>
            <DistanceMeters>NAN</DistanceMeters>
          </Trackpoint>
          <Trackpoint>
            <Time>2022-09-23T10:51:01.000Z</Time>
            <Position>
              <LatitudeDegrees>49.57562486641108989715576171875</LatitudeDegrees>
              <LongitudeDegrees>20.63628106378018856048583984375</LongitudeDegrees>
            </Position>
            <AltitudeMeters>308.399993896484375</AltitudeMeters>
            <DistanceMeters>NAN</DistanceMeters>
          </Trackpoint>
          <Trackpoint>
            <Time>2022-09-23T10:51:05.000Z</Time>
            <Position>
              <LatitudeDegrees>49.5758108608424663543701171875</LatitudeDegrees>
              <LongitudeDegrees>20.63630151562392711639404296875</LongitudeDegrees>
            </Position>
            <AltitudeMeters>308.399993896484375</AltitudeMeters>
            <DistanceMeters>NAN</DistanceMeters>
          </Trackpoint>
          <Trackpoint>
            <Time>2022-09-23T10:51:06.000Z</Time>
            <Position>
              <LatitudeDegrees>49.57586534321308135986328125</LatitudeDegrees>
              <LongitudeDegrees>20.6363088078796863555908203125</LongitudeDegrees>
            </Position>
            <AltitudeMeters>308.20001220703125</AltitudeMeters>
            <DistanceMeters>NAN</DistanceMeters>
          </Trackpoint>
          <Trackpoint>
            <Time>2022-09-23T10:51:13.000Z</Time>
            <Position>
              <LatitudeDegrees>49.57617916166782379150390625</LatitudeDegrees>
              <LongitudeDegrees>20.6363574229180812835693359375</LongitudeDegrees>
            </Position>
            <AltitudeMeters>307.79998779296875</AltitudeMeters>
            <DistanceMeters>NAN</DistanceMeters>
          </Trackpoint>
          <Trackpoint>
            <Time>2022-09-23T10:51:22.000Z</Time>
            <Position>
              <LatitudeDegrees>49.5765347220003604888916015625</LatitudeDegrees>
              <LongitudeDegrees>20.6364197842776775360107421875</LongitudeDegrees>
            </Position>
            <AltitudeMeters>307.600006103515625</AltitudeMeters>
            <DistanceMeters>NAN</DistanceMeters>
          </Trackpoint>
          <Trackpoint>
            <Time>2022-09-23T10:51:26.000Z</Time>
            <Position>
              <LatitudeDegrees>49.576683081686496734619140625</LatitudeDegrees>
              <LongitudeDegrees>20.6364238075911998748779296875</LongitudeDegrees>
            </Position>
            <AltitudeMeters>307.79998779296875</AltitudeMeters>
            <DistanceMeters>NAN</DistanceMeters>
          </Trackpoint>
          <Trackpoint>
            <Time>2022-09-23T10:51:31.000Z</Time>
            <Position>
              <LatitudeDegrees>49.57688449881970882415771484375</LatitudeDegrees>
              <LongitudeDegrees>20.63645415008068084716796875</LongitudeDegrees>
            </Position>
            <AltitudeMeters>307.79998779296875</AltitudeMeters>
            <DistanceMeters>NAN</DistanceMeters>
          </Trackpoint>
          <Trackpoint>
            <Time>2022-09-23T10:51:35.000Z</Time>
            <Position>
              <LatitudeDegrees>49.57702967338263988494873046875</LatitudeDegrees>
              <LongitudeDegrees>20.63647770322859287261962890625</LongitudeDegrees>
            </Position>
            <AltitudeMeters>307.79998779296875</AltitudeMeters>
            <DistanceMeters>NAN</DistanceMeters>
          </Trackpoint>
          <Trackpoint>
            <Time>2022-09-23T10:51:38.000Z</Time>
            <Position>
              <LatitudeDegrees>49.5771455951035022735595703125</LatitudeDegrees>
              <LongitudeDegrees>20.636505447328090667724609375</LongitudeDegrees>
            </Position>
            <AltitudeMeters>307.600006103515625</AltitudeMeters>
            <DistanceMeters>NAN</DistanceMeters>
          </Trackpoint>
          <Trackpoint>
            <Time>2022-09-23T10:51:47.000Z</Time>
            <Position>
              <LatitudeDegrees>49.57751984708011150360107421875</LatitudeDegrees>
              <LongitudeDegrees>20.6366330198943614959716796875</LongitudeDegrees>
            </Position>
            <AltitudeMeters>307.20001220703125</AltitudeMeters>
            <DistanceMeters>NAN</DistanceMeters>
          </Trackpoint>
          <Trackpoint>
            <Time>2022-09-23T10:51:51.000Z</Time>
            <Position>
              <LatitudeDegrees>49.57767725922167301177978515625</LatitudeDegrees>
              <LongitudeDegrees>20.6367054395377635955810546875</LongitudeDegrees>
            </Position>
            <AltitudeMeters>307</AltitudeMeters>
            <DistanceMeters>NAN</DistanceMeters>
          </Trackpoint>
          <Trackpoint>
            <Time>2022-09-23T10:51:55.000Z</Time>
            <Position>
              <LatitudeDegrees>49.57783006131649017333984375</LatitudeDegrees>
              <LongitudeDegrees>20.63675078563392162322998046875</LongitudeDegrees>
            </Position>
            <AltitudeMeters>307.20001220703125</AltitudeMeters>
            <DistanceMeters>NAN</DistanceMeters>
          </Trackpoint>
          <Trackpoint>
            <Time>2022-09-23T10:52:02.000Z</Time>
            <Position>
              <LatitudeDegrees>49.57815603353083133697509765625</LatitudeDegrees>
              <LongitudeDegrees>20.63688707537949085235595703125</LongitudeDegrees>
            </Position>
            <AltitudeMeters>306.600006103515625</AltitudeMeters>
            <DistanceMeters>NAN</DistanceMeters>
          </Trackpoint>
          <Trackpoint>
            <Time>2022-09-23T10:52:06.000Z</Time>
            <Position>
              <LatitudeDegrees>49.57835770212113857269287109375</LatitudeDegrees>
              <LongitudeDegrees>20.6369582377374172210693359375</LongitudeDegrees>
            </Position>
            <AltitudeMeters>306.20001220703125</AltitudeMeters>
            <DistanceMeters>NAN</DistanceMeters>
          </Trackpoint>
          <Trackpoint>
            <Time>2022-09-23T10:52:10.000Z</Time>
            <Position>
              <LatitudeDegrees>49.5785507373511791229248046875</LatitudeDegrees>
              <LongitudeDegrees>20.63702956773340702056884765625</LongitudeDegrees>
            </Position>
            <AltitudeMeters>305.20001220703125</AltitudeMeters>
            <DistanceMeters>NAN</DistanceMeters>
          </Trackpoint>
          <Trackpoint>
            <Time>2022-09-23T10:52:11.000Z</Time>
            <Position>
              <LatitudeDegrees>49.57859843038022518157958984375</LatitudeDegrees>
              <LongitudeDegrees>20.6370490975677967071533203125</LongitudeDegrees>
            </Position>
            <AltitudeMeters>305.20001220703125</AltitudeMeters>
            <DistanceMeters>NAN</DistanceMeters>
          </Trackpoint>
          <Trackpoint>
            <Time>2022-09-23T10:52:12.000Z</Time>
            <Position>
              <LatitudeDegrees>49.57864369265735149383544921875</LatitudeDegrees>
              <LongitudeDegrees>20.63706829212605953216552734375</LongitudeDegrees>
            </Position>
            <AltitudeMeters>305.20001220703125</AltitudeMeters>
            <DistanceMeters>NAN</DistanceMeters>
          </Trackpoint>
          <Trackpoint>
            <Time>2022-09-23T10:52:18.000Z</Time>
            <Position>
              <LatitudeDegrees>49.5789101533591747283935546875</LatitudeDegrees>
              <LongitudeDegrees>20.6371884047985076904296875</LongitudeDegrees>
            </Position>
            <AltitudeMeters>305</AltitudeMeters>
            <DistanceMeters>NAN</DistanceMeters>
          </Trackpoint>
          <Trackpoint>
            <Time>2022-09-23T10:52:19.000Z</Time>
            <Position>
              <LatitudeDegrees>49.57895130850374698638916015625</LatitudeDegrees>
              <LongitudeDegrees>20.63720357604324817657470703125</LongitudeDegrees>
            </Position>
            <AltitudeMeters>305</AltitudeMeters>
            <DistanceMeters>NAN</DistanceMeters>
          </Trackpoint>
          <Trackpoint>
            <Time>2022-09-23T10:52:24.000Z</Time>
            <Position>
              <LatitudeDegrees>49.57914895378053188323974609375</LatitudeDegrees>
              <LongitudeDegrees>20.63721883110702037811279296875</LongitudeDegrees>
            </Position>
            <AltitudeMeters>305</AltitudeMeters>
            <DistanceMeters>NAN</DistanceMeters>
          </Trackpoint>
          <Trackpoint>
            <Time>2022-09-23T10:52:29.000Z</Time>
            <Position>
              <LatitudeDegrees>49.57930753938853740692138671875</LatitudeDegrees>
              <LongitudeDegrees>20.63723978586494922637939453125</LongitudeDegrees>
            </Position>
            <AltitudeMeters>305.399993896484375</AltitudeMeters>
            <DistanceMeters>NAN</DistanceMeters>
          </Trackpoint>
          <Trackpoint>
            <Time>2022-09-23T10:52:35.000Z</Time>
            <Position>
              <LatitudeDegrees>49.57951457239687442779541015625</LatitudeDegrees>
              <LongitudeDegrees>20.637184716761112213134765625</LongitudeDegrees>
            </Position>
            <AltitudeMeters>305.20001220703125</AltitudeMeters>
            <DistanceMeters>NAN</DistanceMeters>
          </Trackpoint>
          <Trackpoint>
            <Time>2022-09-23T10:52:43.000Z</Time>
            <Position>
              <LatitudeDegrees>49.57978145219385623931884765625</LatitudeDegrees>
              <LongitudeDegrees>20.6370856426656246185302734375</LongitudeDegrees>
            </Position>
            <AltitudeMeters>304.399993896484375</AltitudeMeters>
            <DistanceMeters>NAN</DistanceMeters>
          </Trackpoint>
          <Trackpoint>
            <Time>2022-09-23T10:52:51.000Z</Time>
            <Position>
              <LatitudeDegrees>49.58001698367297649383544921875</LatitudeDegrees>
              <LongitudeDegrees>20.63700526021420955657958984375</LongitudeDegrees>
            </Position>
            <AltitudeMeters>304.79998779296875</AltitudeMeters>
            <DistanceMeters>NAN</DistanceMeters>
          </Trackpoint>
          <Trackpoint>
            <Time>2022-09-23T10:52:56.000Z</Time>
            <Position>
              <LatitudeDegrees>49.58016165532171726226806640625</LatitudeDegrees>
              <LongitudeDegrees>20.63693770207464694976806640625</LongitudeDegrees>
            </Position>
            <AltitudeMeters>304.79998779296875</AltitudeMeters>
            <DistanceMeters>NAN</DistanceMeters>
          </Trackpoint>
          <Trackpoint>
            <Time>2022-09-23T10:53:02.000Z</Time>
            <Position>
              <LatitudeDegrees>49.58035879768431186676025390625</LatitudeDegrees>
              <LongitudeDegrees>20.63687123358249664306640625</LongitudeDegrees>
            </Position>
            <AltitudeMeters>304.79998779296875</AltitudeMeters>
            <DistanceMeters>NAN</DistanceMeters>
          </Trackpoint>
          <Trackpoint>
            <Time>2022-09-23T10:53:09.000Z</Time>
            <Position>
              <LatitudeDegrees>49.5805992744863033294677734375</LatitudeDegrees>
              <LongitudeDegrees>20.6367842294275760650634765625</LongitudeDegrees>
            </Position>
            <AltitudeMeters>304.20001220703125</AltitudeMeters>
            <DistanceMeters>NAN</DistanceMeters>
          </Trackpoint>
          <Trackpoint>
            <Time>2022-09-23T10:53:17.000Z</Time>
            <Position>
              <LatitudeDegrees>49.58084511570632457733154296875</LatitudeDegrees>
              <LongitudeDegrees>20.63671968877315521240234375</LongitudeDegrees>
            </Position>
            <AltitudeMeters>303.79998779296875</AltitudeMeters>
            <DistanceMeters>NAN</DistanceMeters>
          </Trackpoint>
          <Trackpoint>
            <Time>2022-09-23T10:53:23.000Z</Time>
            <Position>
              <LatitudeDegrees>49.58099582232534885406494140625</LatitudeDegrees>
              <LongitudeDegrees>20.636788420379161834716796875</LongitudeDegrees>
            </Position>
            <AltitudeMeters>304</AltitudeMeters>
            <DistanceMeters>NAN</DistanceMeters>
          </Trackpoint>
          <Trackpoint>
            <Time>2022-09-23T10:53:24.000Z</Time>
            <Position>
              <LatitudeDegrees>49.581012167036533355712890625</LatitudeDegrees>
              <LongitudeDegrees>20.63681063242256641387939453125</LongitudeDegrees>
            </Position>
            <AltitudeMeters>304.20001220703125</AltitudeMeters>
            <DistanceMeters>NAN</DistanceMeters>
          </Trackpoint>
          <Trackpoint>
            <Time>2022-09-23T10:53:28.000Z</Time>
            <Position>
              <LatitudeDegrees>49.5810730196535587310791015625</LatitudeDegrees>
              <LongitudeDegrees>20.63691272400319576263427734375</LongitudeDegrees>
            </Position>
            <AltitudeMeters>304.20001220703125</AltitudeMeters>
            <DistanceMeters>NAN</DistanceMeters>
          </Trackpoint>
          <Trackpoint>
            <Time>2022-09-23T10:53:29.000Z</Time>
            <Position>
              <LatitudeDegrees>49.58108265884220600128173828125</LatitudeDegrees>
              <LongitudeDegrees>20.63691280782222747802734375</LongitudeDegrees>
            </Position>
            <AltitudeMeters>304.399993896484375</AltitudeMeters>
            <DistanceMeters>NAN</DistanceMeters>
          </Trackpoint>
          <Trackpoint>
            <Time>2022-09-23T10:53:32.000Z</Time>
            <Position>
              <LatitudeDegrees>49.58108902908861637115478515625</LatitudeDegrees>
              <LongitudeDegrees>20.63691004179418087005615234375</LongitudeDegrees>
            </Position>
            <AltitudeMeters>304.399993896484375</AltitudeMeters>
            <DistanceMeters>NAN</DistanceMeters>
          </Trackpoint>
          <Trackpoint>
            <Time>2022-09-23T10:53:34.000Z</Time>
            <Position>
              <LatitudeDegrees>49.58108902908861637115478515625</LatitudeDegrees>
              <LongitudeDegrees>20.63691004179418087005615234375</LongitudeDegrees>
            </Position>
            <AltitudeMeters>304.399993896484375</AltitudeMeters>
            <DistanceMeters>NAN</DistanceMeters>
          </Trackpoint>
          <Trackpoint>
            <Time>2022-09-23T10:53:37.000Z</Time>
            <Position>
              <LatitudeDegrees>49.58111451007425785064697265625</LatitudeDegrees>
              <LongitudeDegrees>20.63688288442790508270263671875</LongitudeDegrees>
            </Position>
            <AltitudeMeters>304.399993896484375</AltitudeMeters>
            <DistanceMeters>NAN</DistanceMeters>
          </Trackpoint>
          <Trackpoint>
            <Time>2022-09-23T10:53:38.000Z</Time>
            <Position>
              <LatitudeDegrees>49.5811253227293491363525390625</LatitudeDegrees>
              <LongitudeDegrees>20.6368854828178882598876953125</LongitudeDegrees>
            </Position>
            <AltitudeMeters>304.399993896484375</AltitudeMeters>
            <DistanceMeters>NAN</DistanceMeters>
          </Trackpoint>
          <Trackpoint>
            <Time>2022-09-23T10:53:45.000Z</Time>
            <Position>
              <LatitudeDegrees>49.58122028969228267669677734375</LatitudeDegrees>
              <LongitudeDegrees>20.6369146518409252166748046875</LongitudeDegrees>
            </Position>
            <AltitudeMeters>305</AltitudeMeters>
            <DistanceMeters>NAN</DistanceMeters>
          </Trackpoint>
          <Trackpoint>
            <Time>2022-09-23T10:53:46.000Z</Time>
            <Position>
              <LatitudeDegrees>49.5812356285750865936279296875</LatitudeDegrees>
              <LongitudeDegrees>20.6369169987738132476806640625</LongitudeDegrees>
            </Position>
            <AltitudeMeters>305</AltitudeMeters>
            <DistanceMeters>NAN</DistanceMeters>
          </Trackpoint>
          <Trackpoint>
            <Time>2022-09-23T10:53:48.000Z</Time>
            <Position>
              <LatitudeDegrees>49.58127628080546855926513671875</LatitudeDegrees>
              <LongitudeDegrees>20.6369255483150482177734375</LongitudeDegrees>
            </Position>
            <AltitudeMeters>305.20001220703125</AltitudeMeters>
            <DistanceMeters>NAN</DistanceMeters>
          </Trackpoint>
          <Trackpoint>
            <Time>2022-09-23T10:53:49.000Z</Time>
            <Position>
              <LatitudeDegrees>49.58129488863050937652587890625</LatitudeDegrees>
              <LongitudeDegrees>20.63692864961922168731689453125</LongitudeDegrees>
            </Position>
            <AltitudeMeters>305.20001220703125</AltitudeMeters>
            <DistanceMeters>NAN</DistanceMeters>
          </Trackpoint>
          <Trackpoint>
            <Time>2022-09-23T10:53:55.000Z</Time>
            <Position>
              <LatitudeDegrees>49.581476189196109771728515625</LatitudeDegrees>
              <LongitudeDegrees>20.63693317584693431854248046875</LongitudeDegrees>
            </Position>
            <AltitudeMeters>304.399993896484375</AltitudeMeters>
            <DistanceMeters>NAN</DistanceMeters>
          </Trackpoint>
          <Trackpoint>
            <Time>2022-09-23T10:54:01.000Z</Time>
            <Position>
              <LatitudeDegrees>49.58164751529693603515625</LatitudeDegrees>
              <LongitudeDegrees>20.63685053028166294097900390625</LongitudeDegrees>
            </Position>
            <AltitudeMeters>304.399993896484375</AltitudeMeters>
            <DistanceMeters>NAN</DistanceMeters>
          </Trackpoint>
          <Trackpoint>
            <Time>2022-09-23T10:54:02.000Z</Time>
            <Position>
              <LatitudeDegrees>49.58168573677539825439453125</LatitudeDegrees>
              <LongitudeDegrees>20.6368418969213962554931640625</LongitudeDegrees>
            </Position>
            <AltitudeMeters>304.399993896484375</AltitudeMeters>
            <DistanceMeters>NAN</DistanceMeters>
          </Trackpoint>
          <Trackpoint>
            <Time>2022-09-23T10:54:06.000Z</Time>
            <Position>
              <LatitudeDegrees>49.581795372068881988525390625</LatitudeDegrees>
              <LongitudeDegrees>20.636902749538421630859375</LongitudeDegrees>
            </Position>
            <AltitudeMeters>304.399993896484375</AltitudeMeters>
            <DistanceMeters>NAN</DistanceMeters>
          </Trackpoint>
          <Trackpoint>
            <Time>2022-09-23T10:54:11.000Z</Time>
            <Position>
              <LatitudeDegrees>49.58192185498774051666259765625</LatitudeDegrees>
              <LongitudeDegrees>20.63685245811939239501953125</LongitudeDegrees>
            </Position>
            <AltitudeMeters>305</AltitudeMeters>
            <DistanceMeters>NAN</DistanceMeters>
          </Trackpoint>
          <Trackpoint>
            <Time>2022-09-23T10:54:12.000Z</Time>
            <Position>
              <LatitudeDegrees>49.58194817416369915008544921875</LatitudeDegrees>
              <LongitudeDegrees>20.6368410587310791015625</LongitudeDegrees>
            </Position>
            <AltitudeMeters>305.20001220703125</AltitudeMeters>
            <DistanceMeters>NAN</DistanceMeters>
          </Trackpoint>
          <Trackpoint>
            <Time>2022-09-23T10:54:13.000Z</Time>
            <Position>
              <LatitudeDegrees>49.58197399042546749114990234375</LatitudeDegrees>
              <LongitudeDegrees>20.63683032989501953125</LongitudeDegrees>
            </Position>
            <AltitudeMeters>305.399993896484375</AltitudeMeters>
            <DistanceMeters>NAN</DistanceMeters>
          </Trackpoint>
          <Trackpoint>
            <Time>2022-09-23T10:54:16.000Z</Time>
            <Position>
              <LatitudeDegrees>49.5820592343807220458984375</LatitudeDegrees>
              <LongitudeDegrees>20.6367882527410984039306640625</LongitudeDegrees>
            </Position>
            <AltitudeMeters>305.600006103515625</AltitudeMeters>
            <DistanceMeters>NAN</DistanceMeters>
          </Trackpoint>
          <Trackpoint>
            <Time>2022-09-23T10:54:21.000Z</Time>
            <Position>
              <LatitudeDegrees>49.5821965299546718597412109375</LatitudeDegrees>
              <LongitudeDegrees>20.63671977259218692779541015625</LongitudeDegrees>
            </Position>
            <AltitudeMeters>306.20001220703125</AltitudeMeters>
            <DistanceMeters>NAN</DistanceMeters>
          </Trackpoint>
          <Trackpoint>
            <Time>2022-09-23T10:54:27.000Z</Time>
            <Position>
              <LatitudeDegrees>49.58233240060508251190185546875</LatitudeDegrees>
              <LongitudeDegrees>20.63663846813142299652099609375</LongitudeDegrees>
            </Position>
            <AltitudeMeters>306.600006103515625</AltitudeMeters>
            <DistanceMeters>NAN</DistanceMeters>
          </Trackpoint>
          <Trackpoint>
            <Time>2022-09-23T10:54:28.000Z</Time>
            <Position>
              <LatitudeDegrees>49.58234966732561588287353515625</LatitudeDegrees>
              <LongitudeDegrees>20.63662857748568058013916015625</LongitudeDegrees>
            </Position>
            <AltitudeMeters>306.79998779296875</AltitudeMeters>
            <DistanceMeters>NAN</DistanceMeters>
          </Trackpoint>
          <Trackpoint>
            <Time>2022-09-23T10:54:29.000Z</Time>
            <Position>
              <LatitudeDegrees>49.58235897123813629150390625</LatitudeDegrees>
              <LongitudeDegrees>20.63662455417215824127197265625</LongitudeDegrees>
            </Position>
            <AltitudeMeters>307</AltitudeMeters>
            <DistanceMeters>NAN</DistanceMeters>
          </Trackpoint>
          <Trackpoint>
            <Time>2022-09-23T10:54:31.000Z</Time>
            <Position>
              <LatitudeDegrees>49.58236374892294406890869140625</LatitudeDegrees>
              <LongitudeDegrees>20.63662505708634853363037109375</LongitudeDegrees>
            </Position>
            <AltitudeMeters>307.20001220703125</AltitudeMeters>
            <DistanceMeters>NAN</DistanceMeters>
          </Trackpoint>
          <Trackpoint>
            <Time>2022-09-23T10:54:32.000Z</Time>
            <Position>
              <LatitudeDegrees>49.58236374892294406890869140625</LatitudeDegrees>
              <LongitudeDegrees>20.63662505708634853363037109375</LongitudeDegrees>
            </Position>
            <AltitudeMeters>307.20001220703125</AltitudeMeters>
            <DistanceMeters>NAN</DistanceMeters>
          </Trackpoint>
          <Trackpoint>
            <Time>2022-09-23T10:54:36.000Z</Time>
            <Position>
              <LatitudeDegrees>49.58236374892294406890869140625</LatitudeDegrees>
              <LongitudeDegrees>20.63662505708634853363037109375</LongitudeDegrees>
            </Position>
            <AltitudeMeters>307.399993896484375</AltitudeMeters>
            <DistanceMeters>NAN</DistanceMeters>
          </Trackpoint>
          <Trackpoint>
            <Time>2022-09-23T10:54:42.000Z</Time>
            <Position>
              <LatitudeDegrees>49.58236374892294406890869140625</LatitudeDegrees>
              <LongitudeDegrees>20.63662505708634853363037109375</LongitudeDegrees>
            </Position>
            <AltitudeMeters>307.399993896484375</AltitudeMeters>
            <DistanceMeters>NAN</DistanceMeters>
          </Trackpoint>
          <Trackpoint>
            <Time>2022-09-23T10:55:06.000Z</Time>
            <Position>
              <LatitudeDegrees>49.58236374892294406890869140625</LatitudeDegrees>
              <LongitudeDegrees>20.63662505708634853363037109375</LongitudeDegrees>
            </Position>
            <AltitudeMeters>307.600006103515625</AltitudeMeters>
            <DistanceMeters>NAN</DistanceMeters>
          </Trackpoint>
          <Trackpoint>
            <Time>2022-09-23T10:55:13.000Z</Time>
            <Position>
              <LatitudeDegrees>49.58236374892294406890869140625</LatitudeDegrees>
              <LongitudeDegrees>20.63662505708634853363037109375</LongitudeDegrees>
            </Position>
            <AltitudeMeters>307.600006103515625</AltitudeMeters>
            <DistanceMeters>NAN</DistanceMeters>
          </Trackpoint>
          <Trackpoint>
            <Time>2022-09-23T10:55:17.000Z</Time>
            <Position>
              <LatitudeDegrees>49.5823769085109233856201171875</LatitudeDegrees>
              <LongitudeDegrees>20.63661768101155757904052734375</LongitudeDegrees>
            </Position>
            <AltitudeMeters>307.600006103515625</AltitudeMeters>
            <DistanceMeters>NAN</DistanceMeters>
          </Trackpoint>
          <Trackpoint>
            <Time>2022-09-23T10:55:19.000Z</Time>
            <Position>
              <LatitudeDegrees>49.58241085521876811981201171875</LatitudeDegrees>
              <LongitudeDegrees>20.6365890987217426300048828125</LongitudeDegrees>
            </Position>
            <AltitudeMeters>307.600006103515625</AltitudeMeters>
            <DistanceMeters>NAN</DistanceMeters>
          </Trackpoint>
          <Trackpoint>
            <Time>2022-09-23T10:55:26.000Z</Time>
            <Position>
              <LatitudeDegrees>49.582504145801067352294921875</LatitudeDegrees>
              <LongitudeDegrees>20.63652883283793926239013671875</LongitudeDegrees>
            </Position>
            <AltitudeMeters>307.79998779296875</AltitudeMeters>
            <DistanceMeters>NAN</DistanceMeters>
          </Trackpoint>
          <Trackpoint>
            <Time>2022-09-23T10:55:31.000Z</Time>
            <Position>
              <LatitudeDegrees>49.58255552686750888824462890625</LatitudeDegrees>
              <LongitudeDegrees>20.63649765215814113616943359375</LongitudeDegrees>
            </Position>
            <AltitudeMeters>308.399993896484375</AltitudeMeters>
            <DistanceMeters>NAN</DistanceMeters>
          </Trackpoint>
          <Trackpoint>
            <Time>2022-09-23T10:55:34.000Z</Time>
            <Position>
              <LatitudeDegrees>49.58257891237735748291015625</LatitudeDegrees>
              <LongitudeDegrees>20.63648373819887638092041015625</LongitudeDegrees>
            </Position>
            <AltitudeMeters>308.600006103515625</AltitudeMeters>
            <DistanceMeters>NAN</DistanceMeters>
          </Trackpoint>
          <Trackpoint>
            <Time>2022-09-23T10:55:36.000Z</Time>
            <Position>
              <LatitudeDegrees>49.582599364221096038818359375</LatitudeDegrees>
              <LongitudeDegrees>20.63647803850471973419189453125</LongitudeDegrees>
            </Position>
            <AltitudeMeters>308.600006103515625</AltitudeMeters>
            <DistanceMeters>NAN</DistanceMeters>
          </Trackpoint>
          <Trackpoint>
            <Time>2022-09-23T10:55:38.000Z</Time>
            <Position>
              <LatitudeDegrees>49.5826136134564876556396484375</LatitudeDegrees>
              <LongitudeDegrees>20.6365032680332660675048828125</LongitudeDegrees>
            </Position>
            <AltitudeMeters>308.600006103515625</AltitudeMeters>
            <DistanceMeters>NAN</DistanceMeters>
          </Trackpoint>
          <Trackpoint>
            <Time>2022-09-23T10:55:39.000Z</Time>
            <Position>
              <LatitudeDegrees>49.58261872641742229461669921875</LatitudeDegrees>
              <LongitudeDegrees>20.63652179203927516937255859375</LongitudeDegrees>
            </Position>
            <AltitudeMeters>308.600006103515625</AltitudeMeters>
            <DistanceMeters>NAN</DistanceMeters>
          </Trackpoint>
          <Trackpoint>
            <Time>2022-09-23T10:55:43.000Z</Time>
            <Position>
              <LatitudeDegrees>49.582631550729274749755859375</LatitudeDegrees>
              <LongitudeDegrees>20.6366197764873504638671875</LongitudeDegrees>
            </Position>
            <AltitudeMeters>308.79998779296875</AltitudeMeters>
            <DistanceMeters>NAN</DistanceMeters>
          </Trackpoint>
          <Trackpoint>
            <Time>2022-09-23T10:55:44.000Z</Time>
            <Position>
              <LatitudeDegrees>49.58261805586516857147216796875</LatitudeDegrees>
              <LongitudeDegrees>20.63663922250270843505859375</LongitudeDegrees>
            </Position>
            <AltitudeMeters>308.79998779296875</AltitudeMeters>
            <DistanceMeters>NAN</DistanceMeters>
          </Trackpoint>
          <Trackpoint>
            <Time>2022-09-23T10:55:49.000Z</Time>
            <Position>
              <LatitudeDegrees>49.58248394541442394256591796875</LatitudeDegrees>
              <LongitudeDegrees>20.63674114644527435302734375</LongitudeDegrees>
            </Position>
            <AltitudeMeters>308.399993896484375</AltitudeMeters>
            <DistanceMeters>NAN</DistanceMeters>
          </Trackpoint>
          <Trackpoint>
            <Time>2022-09-23T10:55:54.000Z</Time>
            <Position>
              <LatitudeDegrees>49.58231278695166110992431640625</LatitudeDegrees>
              <LongitudeDegrees>20.636847428977489471435546875</LongitudeDegrees>
            </Position>
            <AltitudeMeters>307.79998779296875</AltitudeMeters>
            <DistanceMeters>NAN</DistanceMeters>
          </Trackpoint>
          <Trackpoint>
            <Time>2022-09-23T10:55:56.000Z</Time>
            <Position>
              <LatitudeDegrees>49.5822354219853878021240234375</LatitudeDegrees>
              <LongitudeDegrees>20.63689311034977436065673828125</LongitudeDegrees>
            </Position>
            <AltitudeMeters>307.600006103515625</AltitudeMeters>
            <DistanceMeters>NAN</DistanceMeters>
          </Trackpoint>
          <Trackpoint>
            <Time>2022-09-23T10:55:57.000Z</Time>
            <Position>
              <LatitudeDegrees>49.5821955241262912750244140625</LatitudeDegrees>
              <LongitudeDegrees>20.63691507093608379364013671875</LongitudeDegrees>
            </Position>
            <AltitudeMeters>307.399993896484375</AltitudeMeters>
            <DistanceMeters>NAN</DistanceMeters>
          </Trackpoint>
          <Trackpoint>
            <Time>2022-09-23T10:55:59.000Z</Time>
            <Position>
              <LatitudeDegrees>49.582117237150669097900390625</LatitudeDegrees>
              <LongitudeDegrees>20.63696133904159069061279296875</LongitudeDegrees>
            </Position>
            <AltitudeMeters>306.79998779296875</AltitudeMeters>
            <DistanceMeters>NAN</DistanceMeters>
          </Trackpoint>
          <Trackpoint>
            <Time>2022-09-23T10:56:04.000Z</Time>
            <Position>
              <LatitudeDegrees>49.58192068152129650115966796875</LatitudeDegrees>
              <LongitudeDegrees>20.63707147724926471710205078125</LongitudeDegrees>
            </Position>
            <AltitudeMeters>306.399993896484375</AltitudeMeters>
            <DistanceMeters>NAN</DistanceMeters>
          </Trackpoint>
          <Trackpoint>
            <Time>2022-09-23T10:56:06.000Z</Time>
            <Position>
              <LatitudeDegrees>49.581848345696926116943359375</LatitudeDegrees>
              <LongitudeDegrees>20.6371198408305644989013671875</LongitudeDegrees>
            </Position>
            <AltitudeMeters>306.20001220703125</AltitudeMeters>
            <DistanceMeters>NAN</DistanceMeters>
          </Trackpoint>
          <Trackpoint>
            <Time>2022-09-23T10:56:08.000Z</Time>
            <Position>
              <LatitudeDegrees>49.58180333487689495086669921875</LatitudeDegrees>
              <LongitudeDegrees>20.6371805258095264434814453125</LongitudeDegrees>
            </Position>
            <AltitudeMeters>306</AltitudeMeters>
            <DistanceMeters>NAN</DistanceMeters>
          </Trackpoint>
          <Trackpoint>
            <Time>2022-09-23T10:56:09.000Z</Time>
            <Position>
              <LatitudeDegrees>49.58179512061178684234619140625</LatitudeDegrees>
              <LongitudeDegrees>20.63722184859216213226318359375</LongitudeDegrees>
            </Position>
            <AltitudeMeters>305.600006103515625</AltitudeMeters>
            <DistanceMeters>NAN</DistanceMeters>
          </Trackpoint>
          <Trackpoint>
            <Time>2022-09-23T10:56:10.000Z</Time>
            <Position>
              <LatitudeDegrees>49.5817844755947589874267578125</LatitudeDegrees>
              <LongitudeDegrees>20.6372653506696224212646484375</LongitudeDegrees>
            </Position>
            <AltitudeMeters>305.20001220703125</AltitudeMeters>
            <DistanceMeters>NAN</DistanceMeters>
          </Trackpoint>
          <Trackpoint>
            <Time>2022-09-23T10:56:12.000Z</Time>
            <Position>
              <LatitudeDegrees>49.58173041231930255889892578125</LatitudeDegrees>
              <LongitudeDegrees>20.637308098375797271728515625</LongitudeDegrees>
            </Position>
            <AltitudeMeters>304.79998779296875</AltitudeMeters>
            <DistanceMeters>NAN</DistanceMeters>
          </Trackpoint>
          <Trackpoint>
            <Time>2022-09-23T10:56:15.000Z</Time>
            <Position>
              <LatitudeDegrees>49.58164894022047519683837890625</LatitudeDegrees>
              <LongitudeDegrees>20.63732813112437725067138671875</LongitudeDegrees>
            </Position>
            <AltitudeMeters>304.79998779296875</AltitudeMeters>
            <DistanceMeters>NAN</DistanceMeters>
          </Trackpoint>
          <Trackpoint>
            <Time>2022-09-23T10:56:17.000Z</Time>
            <Position>
              <LatitudeDegrees>49.58157652057707309722900390625</LatitudeDegrees>
              <LongitudeDegrees>20.6373743154108524322509765625</LongitudeDegrees>
            </Position>
            <AltitudeMeters>304.79998779296875</AltitudeMeters>
            <DistanceMeters>NAN</DistanceMeters>
          </Trackpoint>
          <Trackpoint>
            <Time>2022-09-23T10:56:20.000Z</Time>
            <Position>
              <LatitudeDegrees>49.5814807154238224029541015625</LatitudeDegrees>
              <LongitudeDegrees>20.6374671868979930877685546875</LongitudeDegrees>
            </Position>
            <AltitudeMeters>304.600006103515625</AltitudeMeters>
            <DistanceMeters>NAN</DistanceMeters>
          </Trackpoint>
          <Trackpoint>
            <Time>2022-09-23T10:56:21.000Z</Time>
            <Position>
              <LatitudeDegrees>49.58145246841013431549072265625</LatitudeDegrees>
              <LongitudeDegrees>20.6375178135931491851806640625</LongitudeDegrees>
            </Position>
            <AltitudeMeters>304.600006103515625</AltitudeMeters>
            <DistanceMeters>NAN</DistanceMeters>
          </Trackpoint>
          <Trackpoint>
            <Time>2022-09-23T10:56:24.000Z</Time>
            <Position>
              <LatitudeDegrees>49.58142422139644622802734375</LatitudeDegrees>
              <LongitudeDegrees>20.63767321407794952392578125</LongitudeDegrees>
            </Position>
            <AltitudeMeters>304.20001220703125</AltitudeMeters>
            <DistanceMeters>NAN</DistanceMeters>
          </Trackpoint>
          <Trackpoint>
            <Time>2022-09-23T10:56:26.000Z</Time>
            <Position>
              <LatitudeDegrees>49.58144031465053558349609375</LatitudeDegrees>
              <LongitudeDegrees>20.6377853639423847198486328125</LongitudeDegrees>
            </Position>
            <AltitudeMeters>304.20001220703125</AltitudeMeters>
            <DistanceMeters>NAN</DistanceMeters>
          </Trackpoint>
          <Trackpoint>
            <Time>2022-09-23T10:56:28.000Z</Time>
            <Position>
              <LatitudeDegrees>49.5814860798418521881103515625</LatitudeDegrees>
              <LongitudeDegrees>20.637873373925685882568359375</LongitudeDegrees>
            </Position>
            <AltitudeMeters>304</AltitudeMeters>
            <DistanceMeters>NAN</DistanceMeters>
          </Trackpoint>
          <Trackpoint>
            <Time>2022-09-23T10:56:33.000Z</Time>
            <Position>
              <LatitudeDegrees>49.581616334617137908935546875</LatitudeDegrees>
              <LongitudeDegrees>20.638039670884609222412109375</LongitudeDegrees>
            </Position>
            <AltitudeMeters>304</AltitudeMeters>
            <DistanceMeters>NAN</DistanceMeters>
          </Trackpoint>
          <Trackpoint>
            <Time>2022-09-23T10:56:38.000Z</Time>
            <Position>
              <LatitudeDegrees>49.5817197673022747039794921875</LatitudeDegrees>
              <LongitudeDegrees>20.63821502029895782470703125</LongitudeDegrees>
            </Position>
            <AltitudeMeters>304.20001220703125</AltitudeMeters>
            <DistanceMeters>NAN</DistanceMeters>
          </Trackpoint>
          <Trackpoint>
            <Time>2022-09-23T10:56:40.000Z</Time>
            <Position>
              <LatitudeDegrees>49.58179009146988391876220703125</LatitudeDegrees>
              <LongitudeDegrees>20.63825449906289577484130859375</LongitudeDegrees>
            </Position>
            <AltitudeMeters>304.20001220703125</AltitudeMeters>
            <DistanceMeters>NAN</DistanceMeters>
          </Trackpoint>
          <Trackpoint>
            <Time>2022-09-23T10:56:45.000Z</Time>
            <Position>
              <LatitudeDegrees>49.58197667263448238372802734375</LatitudeDegrees>
              <LongitudeDegrees>20.63833295367658138275146484375</LongitudeDegrees>
            </Position>
            <AltitudeMeters>303.399993896484375</AltitudeMeters>
            <DistanceMeters>NAN</DistanceMeters>
          </Trackpoint>
          <Trackpoint>
            <Time>2022-09-23T10:56:51.000Z</Time>
            <Position>
              <LatitudeDegrees>49.58218588493764400482177734375</LatitudeDegrees>
              <LongitudeDegrees>20.63840788789093494415283203125</LongitudeDegrees>
            </Position>
            <AltitudeMeters>303.79998779296875</AltitudeMeters>
            <DistanceMeters>NAN</DistanceMeters>
          </Trackpoint>
          <Trackpoint>
            <Time>2022-09-23T10:56:58.000Z</Time>
            <Position>
              <LatitudeDegrees>49.582427702844142913818359375</LatitudeDegrees>
              <LongitudeDegrees>20.63850427977740764617919921875</LongitudeDegrees>
            </Position>
            <AltitudeMeters>303.79998779296875</AltitudeMeters>
            <DistanceMeters>NAN</DistanceMeters>
          </Trackpoint>
          <Trackpoint>
            <Time>2022-09-23T10:57:04.000Z</Time>
            <Position>
              <LatitudeDegrees>49.58266013301908969879150390625</LatitudeDegrees>
              <LongitudeDegrees>20.63859798945486545562744140625</LongitudeDegrees>
            </Position>
            <AltitudeMeters>303.600006103515625</AltitudeMeters>
            <DistanceMeters>NAN</DistanceMeters>
          </Trackpoint>
          <Trackpoint>
            <Time>2022-09-23T10:57:07.000Z</Time>
            <Position>
              <LatitudeDegrees>49.582771696150302886962890625</LatitudeDegrees>
              <LongitudeDegrees>20.63864576630294322967529296875</LongitudeDegrees>
            </Position>
            <AltitudeMeters>303.399993896484375</AltitudeMeters>
            <DistanceMeters>NAN</DistanceMeters>
          </Trackpoint>
          <Trackpoint>
            <Time>2022-09-23T10:57:15.000Z</Time>
            <Position>
              <LatitudeDegrees>49.5830343849956989288330078125</LatitudeDegrees>
              <LongitudeDegrees>20.638800077140331268310546875</LongitudeDegrees>
            </Position>
            <AltitudeMeters>303.600006103515625</AltitudeMeters>
            <DistanceMeters>NAN</DistanceMeters>
          </Trackpoint>
          <Trackpoint>
            <Time>2022-09-23T10:57:19.000Z</Time>
            <Position>
              <LatitudeDegrees>49.58314376883208751678466796875</LatitudeDegrees>
              <LongitudeDegrees>20.6388542242348194122314453125</LongitudeDegrees>
            </Position>
            <AltitudeMeters>303.600006103515625</AltitudeMeters>
            <DistanceMeters>NAN</DistanceMeters>
          </Trackpoint>
          <Trackpoint>
            <Time>2022-09-23T10:57:23.000Z</Time>
            <Position>
              <LatitudeDegrees>49.58326547406613826751708984375</LatitudeDegrees>
              <LongitudeDegrees>20.63887408934533596038818359375</LongitudeDegrees>
            </Position>
            <AltitudeMeters>303.20001220703125</AltitudeMeters>
            <DistanceMeters>NAN</DistanceMeters>
          </Trackpoint>
          <Trackpoint>
            <Time>2022-09-23T10:57:25.000Z</Time>
            <Position>
              <LatitudeDegrees>49.583338983356952667236328125</LatitudeDegrees>
              <LongitudeDegrees>20.6388823874294757843017578125</LongitudeDegrees>
            </Position>
            <AltitudeMeters>303.20001220703125</AltitudeMeters>
            <DistanceMeters>NAN</DistanceMeters>
          </Trackpoint>
          <Trackpoint>
            <Time>2022-09-23T10:57:26.000Z</Time>
            <Position>
              <LatitudeDegrees>49.583375193178653717041015625</LatitudeDegrees>
              <LongitudeDegrees>20.63889152370393276214599609375</LongitudeDegrees>
            </Position>
            <AltitudeMeters>303.20001220703125</AltitudeMeters>
            <DistanceMeters>NAN</DistanceMeters>
          </Trackpoint>
          <Trackpoint>
            <Time>2022-09-23T10:57:30.000Z</Time>
            <Position>
              <LatitudeDegrees>49.58354123868048191070556640625</LatitudeDegrees>
              <LongitudeDegrees>20.6389303319156169891357421875</LongitudeDegrees>
            </Position>
            <AltitudeMeters>302.600006103515625</AltitudeMeters>
            <DistanceMeters>NAN</DistanceMeters>
          </Trackpoint>
          <Trackpoint>
            <Time>2022-09-23T10:57:36.000Z</Time>
            <Position>
              <LatitudeDegrees>49.5837729983031749725341796875</LatitudeDegrees>
              <LongitudeDegrees>20.6390436552464962005615234375</LongitudeDegrees>
            </Position>
            <AltitudeMeters>302.399993896484375</AltitudeMeters>
            <DistanceMeters>NAN</DistanceMeters>
          </Trackpoint>
          <Trackpoint>
            <Time>2022-09-23T10:57:37.000Z</Time>
            <Position>
              <LatitudeDegrees>49.58380912430584430694580078125</LatitudeDegrees>
              <LongitudeDegrees>20.63907056115567684173583984375</LongitudeDegrees>
            </Position>
            <AltitudeMeters>302.399993896484375</AltitudeMeters>
            <DistanceMeters>NAN</DistanceMeters>
          </Trackpoint>
          <Trackpoint>
            <Time>2022-09-23T10:57:43.000Z</Time>
            <Position>
              <LatitudeDegrees>49.58397877402603626251220703125</LatitudeDegrees>
              <LongitudeDegrees>20.6392555497586727142333984375</LongitudeDegrees>
            </Position>
            <AltitudeMeters>302.399993896484375</AltitudeMeters>
            <DistanceMeters>NAN</DistanceMeters>
          </Trackpoint>
          <Trackpoint>
            <Time>2022-09-23T10:57:48.000Z</Time>
            <Position>
              <LatitudeDegrees>49.58412864245474338531494140625</LatitudeDegrees>
              <LongitudeDegrees>20.639461576938629150390625</LongitudeDegrees>
            </Position>
            <AltitudeMeters>302.20001220703125</AltitudeMeters>
            <DistanceMeters>NAN</DistanceMeters>
          </Trackpoint>
          <Trackpoint>
            <Time>2022-09-23T10:57:49.000Z</Time>
            <Position>
              <LatitudeDegrees>49.58416099660098552703857421875</LatitudeDegrees>
              <LongitudeDegrees>20.63948278315365314483642578125</LongitudeDegrees>
            </Position>
            <AltitudeMeters>302</AltitudeMeters>
            <DistanceMeters>NAN</DistanceMeters>
          </Trackpoint>
          <Trackpoint>
            <Time>2022-09-23T10:57:52.000Z</Time>
            <Position>
              <LatitudeDegrees>49.58424163050949573516845703125</LatitudeDegrees>
              <LongitudeDegrees>20.63961538486182689666748046875</LongitudeDegrees>
            </Position>
            <AltitudeMeters>302</AltitudeMeters>
            <DistanceMeters>NAN</DistanceMeters>
          </Trackpoint>
          <Trackpoint>
            <Time>2022-09-23T10:57:56.000Z</Time>
            <Position>
              <LatitudeDegrees>49.58431002683937549591064453125</LatitudeDegrees>
              <LongitudeDegrees>20.6398362480103969573974609375</LongitudeDegrees>
            </Position>
            <AltitudeMeters>302</AltitudeMeters>
            <DistanceMeters>NAN</DistanceMeters>
          </Trackpoint>
          <Trackpoint>
            <Time>2022-09-23T10:57:59.000Z</Time>
            <Position>
              <LatitudeDegrees>49.58434422500431537628173828125</LatitudeDegrees>
              <LongitudeDegrees>20.6399753876030445098876953125</LongitudeDegrees>
            </Position>
            <AltitudeMeters>302.399993896484375</AltitudeMeters>
            <DistanceMeters>NAN</DistanceMeters>
          </Trackpoint>
          <Trackpoint>
            <Time>2022-09-23T10:58:01.000Z</Time>
            <Position>
              <LatitudeDegrees>49.5843513496220111846923828125</LatitudeDegrees>
              <LongitudeDegrees>20.64005367457866668701171875</LongitudeDegrees>
            </Position>
            <AltitudeMeters>302.600006103515625</AltitudeMeters>
            <DistanceMeters>NAN</DistanceMeters>
          </Trackpoint>
          <Trackpoint>
            <Time>2022-09-23T10:58:03.000Z</Time>
            <Position>
              <LatitudeDegrees>49.58437205292284488677978515625</LatitudeDegrees>
              <LongitudeDegrees>20.640145875513553619384765625</LongitudeDegrees>
            </Position>
            <AltitudeMeters>302.600006103515625</AltitudeMeters>
            <DistanceMeters>NAN</DistanceMeters>
          </Trackpoint>
          <Trackpoint>
            <Time>2022-09-23T10:58:09.000Z</Time>
            <Position>
              <LatitudeDegrees>49.58442502655088901519775390625</LatitudeDegrees>
              <LongitudeDegrees>20.64039724878966808319091796875</LongitudeDegrees>
            </Position>
            <AltitudeMeters>302.79998779296875</AltitudeMeters>
            <DistanceMeters>NAN</DistanceMeters>
          </Trackpoint>
          <Trackpoint>
            <Time>2022-09-23T10:58:11.000Z</Time>
            <Position>
              <LatitudeDegrees>49.58445754833519458770751953125</LatitudeDegrees>
              <LongitudeDegrees>20.64047436229884624481201171875</LongitudeDegrees>
            </Position>
            <AltitudeMeters>302.600006103515625</AltitudeMeters>
            <DistanceMeters>NAN</DistanceMeters>
          </Trackpoint>
          <Trackpoint>
            <Time>2022-09-23T10:58:16.000Z</Time>
            <Position>
              <LatitudeDegrees>49.58458696492016315460205078125</LatitudeDegrees>
              <LongitudeDegrees>20.64069011248648166656494140625</LongitudeDegrees>
            </Position>
            <AltitudeMeters>302.399993896484375</AltitudeMeters>
            <DistanceMeters>NAN</DistanceMeters>
          </Trackpoint>
          <Trackpoint>
            <Time>2022-09-23T10:58:21.000Z</Time>
            <Position>
              <LatitudeDegrees>49.58479282446205615997314453125</LatitudeDegrees>
              <LongitudeDegrees>20.64084685407578945159912109375</LongitudeDegrees>
            </Position>
            <AltitudeMeters>302</AltitudeMeters>
            <DistanceMeters>NAN</DistanceMeters>
          </Trackpoint>
          <Trackpoint>
            <Time>2022-09-23T10:58:28.000Z</Time>
            <Position>
              <LatitudeDegrees>49.585046879947185516357421875</LatitudeDegrees>
              <LongitudeDegrees>20.6411354430019855499267578125</LongitudeDegrees>
            </Position>
            <AltitudeMeters>301.399993896484375</AltitudeMeters>
            <DistanceMeters>NAN</DistanceMeters>
          </Trackpoint>
          <Trackpoint>
            <Time>2022-09-23T10:58:35.000Z</Time>
            <Position>
              <LatitudeDegrees>49.58516213111579418182373046875</LatitudeDegrees>
              <LongitudeDegrees>20.64157792367041110992431640625</LongitudeDegrees>
            </Position>
            <AltitudeMeters>301.399993896484375</AltitudeMeters>
            <DistanceMeters>NAN</DistanceMeters>
          </Trackpoint>
          <Trackpoint>
            <Time>2022-09-23T10:58:40.000Z</Time>
            <Position>
              <LatitudeDegrees>49.58518526516854763031005859375</LatitudeDegrees>
              <LongitudeDegrees>20.64191135577857494354248046875</LongitudeDegrees>
            </Position>
            <AltitudeMeters>301.399993896484375</AltitudeMeters>
            <DistanceMeters>NAN</DistanceMeters>
          </Trackpoint>
          <Trackpoint>
            <Time>2022-09-23T10:58:42.000Z</Time>
            <Position>
              <LatitudeDegrees>49.58518073894083499908447265625</LatitudeDegrees>
              <LongitudeDegrees>20.6420490704476833343505859375</LongitudeDegrees>
            </Position>
            <AltitudeMeters>301.399993896484375</AltitudeMeters>
            <DistanceMeters>NAN</DistanceMeters>
          </Trackpoint>
          <Trackpoint>
            <Time>2022-09-23T10:58:46.000Z</Time>
            <Position>
              <LatitudeDegrees>49.5851181261241436004638671875</LatitudeDegrees>
              <LongitudeDegrees>20.64228367991745471954345703125</LongitudeDegrees>
            </Position>
            <AltitudeMeters>301.399993896484375</AltitudeMeters>
            <DistanceMeters>NAN</DistanceMeters>
          </Trackpoint>
          <Trackpoint>
            <Time>2022-09-23T10:58:49.000Z</Time>
            <Position>
              <LatitudeDegrees>49.5850390009582042694091796875</LatitudeDegrees>
              <LongitudeDegrees>20.6424252502620220184326171875</LongitudeDegrees>
            </Position>
            <AltitudeMeters>301.399993896484375</AltitudeMeters>
            <DistanceMeters>NAN</DistanceMeters>
          </Trackpoint>
          <Trackpoint>
            <Time>2022-09-23T10:58:52.000Z</Time>
            <Position>
              <LatitudeDegrees>49.58492157049477100372314453125</LatitudeDegrees>
              <LongitudeDegrees>20.64254284836351871490478515625</LongitudeDegrees>
            </Position>
            <AltitudeMeters>301.20001220703125</AltitudeMeters>
            <DistanceMeters>NAN</DistanceMeters>
          </Trackpoint>
          <Trackpoint>
            <Time>2022-09-23T10:58:53.000Z</Time>
            <Position>
              <LatitudeDegrees>49.5848753862082958221435546875</LatitudeDegrees>
              <LongitudeDegrees>20.6425885297358036041259765625</LongitudeDegrees>
            </Position>
            <AltitudeMeters>301</AltitudeMeters>
            <DistanceMeters>NAN</DistanceMeters>
          </Trackpoint>
          <Trackpoint>
            <Time>2022-09-23T10:58:54.000Z</Time>
            <Position>
              <LatitudeDegrees>49.58483473397791385650634765625</LatitudeDegrees>
              <LongitudeDegrees>20.6426358036696910858154296875</LongitudeDegrees>
            </Position>
            <AltitudeMeters>300.600006103515625</AltitudeMeters>
            <DistanceMeters>NAN</DistanceMeters>
          </Trackpoint>
          <Trackpoint>
            <Time>2022-09-23T10:58:57.000Z</Time>
            <Position>
              <LatitudeDegrees>49.58472358994185924530029296875</LatitudeDegrees>
              <LongitudeDegrees>20.6427923776209354400634765625</LongitudeDegrees>
            </Position>
            <AltitudeMeters>300</AltitudeMeters>
            <DistanceMeters>NAN</DistanceMeters>
          </Trackpoint>
          <Trackpoint>
            <Time>2022-09-23T10:58:58.000Z</Time>
            <Position>
              <LatitudeDegrees>49.58468754775822162628173828125</LatitudeDegrees>
              <LongitudeDegrees>20.64285314641892910003662109375</LongitudeDegrees>
            </Position>
            <AltitudeMeters>299.79998779296875</AltitudeMeters>
            <DistanceMeters>NAN</DistanceMeters>
          </Trackpoint>
          <Trackpoint>
            <Time>2022-09-23T10:59:03.000Z</Time>
            <Position>
              <LatitudeDegrees>49.58454052917659282684326171875</LatitudeDegrees>
              <LongitudeDegrees>20.6431625224649906158447265625</LongitudeDegrees>
            </Position>
            <AltitudeMeters>299.600006103515625</AltitudeMeters>
            <DistanceMeters>NAN</DistanceMeters>
          </Trackpoint>
          <Trackpoint>
            <Time>2022-09-23T10:59:09.000Z</Time>
            <Position>
              <LatitudeDegrees>49.58439619280397891998291015625</LatitudeDegrees>
              <LongitudeDegrees>20.643502660095691680908203125</LongitudeDegrees>
            </Position>
            <AltitudeMeters>300</AltitudeMeters>
            <DistanceMeters>NAN</DistanceMeters>
          </Trackpoint>
          <Trackpoint>
            <Time>2022-09-23T10:59:14.000Z</Time>
            <Position>
              <LatitudeDegrees>49.58427800796926021575927734375</LatitudeDegrees>
              <LongitudeDegrees>20.64370558597147464752197265625</LongitudeDegrees>
            </Position>
            <AltitudeMeters>300.20001220703125</AltitudeMeters>
            <DistanceMeters>NAN</DistanceMeters>
          </Trackpoint>
          <Trackpoint>
            <Time>2022-09-23T10:59:20.000Z</Time>
            <Position>
              <LatitudeDegrees>49.584090001881122589111328125</LatitudeDegrees>
              <LongitudeDegrees>20.6439943425357341766357421875</LongitudeDegrees>
            </Position>
            <AltitudeMeters>300.20001220703125</AltitudeMeters>
            <DistanceMeters>NAN</DistanceMeters>
          </Trackpoint>
          <Trackpoint>
            <Time>2022-09-23T10:59:26.000Z</Time>
            <Position>
              <LatitudeDegrees>49.583986066281795501708984375</LatitudeDegrees>
              <LongitudeDegrees>20.64425812102854251861572265625</LongitudeDegrees>
            </Position>
            <AltitudeMeters>300.20001220703125</AltitudeMeters>
            <DistanceMeters>NAN</DistanceMeters>
          </Trackpoint>
          <Trackpoint>
            <Time>2022-09-23T10:59:32.000Z</Time>
            <Position>
              <LatitudeDegrees>49.58381767384707927703857421875</LatitudeDegrees>
              <LongitudeDegrees>20.6444633938372135162353515625</LongitudeDegrees>
            </Position>
            <AltitudeMeters>300</AltitudeMeters>
            <DistanceMeters>NAN</DistanceMeters>
          </Trackpoint>
          <Trackpoint>
            <Time>2022-09-23T10:59:40.000Z</Time>
            <Position>
              <LatitudeDegrees>49.58351475186645984649658203125</LatitudeDegrees>
              <LongitudeDegrees>20.644697248935699462890625</LongitudeDegrees>
            </Position>
            <AltitudeMeters>299.79998779296875</AltitudeMeters>
            <DistanceMeters>NAN</DistanceMeters>
          </Trackpoint>
          <Trackpoint>
            <Time>2022-09-23T10:59:47.000Z</Time>
            <Position>
              <LatitudeDegrees>49.58328944630920886993408203125</LatitudeDegrees>
              <LongitudeDegrees>20.64490570686757564544677734375</LongitudeDegrees>
            </Position>
            <AltitudeMeters>299.79998779296875</AltitudeMeters>
            <DistanceMeters>NAN</DistanceMeters>
          </Trackpoint>
          <Trackpoint>
            <Time>2022-09-23T10:59:49.000Z</Time>
            <Position>
              <LatitudeDegrees>49.5832181163132190704345703125</LatitudeDegrees>
              <LongitudeDegrees>20.64497678540647029876708984375</LongitudeDegrees>
            </Position>
            <AltitudeMeters>299.79998779296875</AltitudeMeters>
            <DistanceMeters>NAN</DistanceMeters>
          </Trackpoint>
          <Trackpoint>
            <Time>2022-09-23T10:59:55.000Z</Time>
            <Position>
              <LatitudeDegrees>49.582994319498538970947265625</LatitudeDegrees>
              <LongitudeDegrees>20.64513889141380786895751953125</LongitudeDegrees>
            </Position>
            <AltitudeMeters>299.79998779296875</AltitudeMeters>
            <DistanceMeters>NAN</DistanceMeters>
          </Trackpoint>
          <Trackpoint>
            <Time>2022-09-23T10:59:58.000Z</Time>
            <Position>
              <LatitudeDegrees>49.58288242109119892120361328125</LatitudeDegrees>
              <LongitudeDegrees>20.64524173736572265625</LongitudeDegrees>
            </Position>
            <AltitudeMeters>299.79998779296875</AltitudeMeters>
            <DistanceMeters>NAN</DistanceMeters>
          </Trackpoint>
          <Trackpoint>
            <Time>2022-09-23T11:00:03.000Z</Time>
            <Position>
              <LatitudeDegrees>49.582680165767669677734375</LatitudeDegrees>
              <LongitudeDegrees>20.64539655111730098724365234375</LongitudeDegrees>
            </Position>
            <AltitudeMeters>300</AltitudeMeters>
            <DistanceMeters>NAN</DistanceMeters>
          </Trackpoint>
          <Trackpoint>
            <Time>2022-09-23T11:00:09.000Z</Time>
            <Position>
              <LatitudeDegrees>49.5824050717055797576904296875</LatitudeDegrees>
              <LongitudeDegrees>20.645531080663204193115234375</LongitudeDegrees>
            </Position>
            <AltitudeMeters>300.399993896484375</AltitudeMeters>
            <DistanceMeters>NAN</DistanceMeters>
          </Trackpoint>
          <Trackpoint>
            <Time>2022-09-23T11:00:10.000Z</Time>
            <Position>
              <LatitudeDegrees>49.5823470689356327056884765625</LatitudeDegrees>
              <LongitudeDegrees>20.64556402154266834259033203125</LongitudeDegrees>
            </Position>
            <AltitudeMeters>300.399993896484375</AltitudeMeters>
            <DistanceMeters>NAN</DistanceMeters>
          </Trackpoint>
          <Trackpoint>
            <Time>2022-09-23T11:00:11.000Z</Time>
            <Position>
              <LatitudeDegrees>49.5823031477630138397216796875</LatitudeDegrees>
              <LongitudeDegrees>20.64559838734567165374755859375</LongitudeDegrees>
            </Position>
            <AltitudeMeters>300.600006103515625</AltitudeMeters>
            <DistanceMeters>NAN</DistanceMeters>
          </Trackpoint>
          <Trackpoint>
            <Time>2022-09-23T11:00:14.000Z</Time>
            <Position>
              <LatitudeDegrees>49.5821799337863922119140625</LatitudeDegrees>
              <LongitudeDegrees>20.64568975009024143218994140625</LongitudeDegrees>
            </Position>
            <AltitudeMeters>301.20001220703125</AltitudeMeters>
            <DistanceMeters>NAN</DistanceMeters>
          </Trackpoint>
          <Trackpoint>
            <Time>2022-09-23T11:00:15.000Z</Time>
            <Position>
              <LatitudeDegrees>49.5821475796401500701904296875</LatitudeDegrees>
              <LongitudeDegrees>20.64571841619908809661865234375</LongitudeDegrees>
            </Position>
            <AltitudeMeters>301.600006103515625</AltitudeMeters>
            <DistanceMeters>NAN</DistanceMeters>
          </Trackpoint>
          <Trackpoint>
            <Time>2022-09-23T11:00:16.000Z</Time>
            <Position>
              <LatitudeDegrees>49.58211799152195453643798828125</LatitudeDegrees>
              <LongitudeDegrees>20.6457451544702053070068359375</LongitudeDegrees>
            </Position>
            <AltitudeMeters>301.79998779296875</AltitudeMeters>
            <DistanceMeters>NAN</DistanceMeters>
          </Trackpoint>
          <Trackpoint>
            <Time>2022-09-23T11:00:18.000Z</Time>
            <Position>
              <LatitudeDegrees>49.58206954412162303924560546875</LatitudeDegrees>
              <LongitudeDegrees>20.6458009779453277587890625</LongitudeDegrees>
            </Position>
            <AltitudeMeters>302</AltitudeMeters>
            <DistanceMeters>NAN</DistanceMeters>
          </Trackpoint>
          <Trackpoint>
            <Time>2022-09-23T11:00:20.000Z</Time>
            <Position>
              <LatitudeDegrees>49.5820329152047634124755859375</LatitudeDegrees>
              <LongitudeDegrees>20.645851604640483856201171875</LongitudeDegrees>
            </Position>
            <AltitudeMeters>302.399993896484375</AltitudeMeters>
            <DistanceMeters>NAN</DistanceMeters>
          </Trackpoint>
          <Trackpoint>
            <Time>2022-09-23T11:00:25.000Z</Time>
            <Position>
              <LatitudeDegrees>49.5819373615086078643798828125</LatitudeDegrees>
              <LongitudeDegrees>20.6460036523640155792236328125</LongitudeDegrees>
            </Position>
            <AltitudeMeters>302.79998779296875</AltitudeMeters>
            <DistanceMeters>NAN</DistanceMeters>
          </Trackpoint>
          <Trackpoint>
            <Time>2022-09-23T11:00:28.000Z</Time>
            <Position>
              <LatitudeDegrees>49.5818676240742206573486328125</LatitudeDegrees>
              <LongitudeDegrees>20.64608437009155750274658203125</LongitudeDegrees>
            </Position>
            <AltitudeMeters>302.79998779296875</AltitudeMeters>
            <DistanceMeters>NAN</DistanceMeters>
          </Trackpoint>
          <Trackpoint>
            <Time>2022-09-23T11:00:33.000Z</Time>
            <Position>
              <LatitudeDegrees>49.58176410757005214691162109375</LatitudeDegrees>
              <LongitudeDegrees>20.646178163588047027587890625</LongitudeDegrees>
            </Position>
            <AltitudeMeters>302.79998779296875</AltitudeMeters>
            <DistanceMeters>NAN</DistanceMeters>
          </Trackpoint>
          <Trackpoint>
            <Time>2022-09-23T11:00:40.000Z</Time>
            <Position>
              <LatitudeDegrees>49.58160334266722202301025390625</LatitudeDegrees>
              <LongitudeDegrees>20.64618654549121856689453125</LongitudeDegrees>
            </Position>
            <AltitudeMeters>303</AltitudeMeters>
            <DistanceMeters>NAN</DistanceMeters>
          </Trackpoint>
          <Trackpoint>
            <Time>2022-09-23T11:00:42.000Z</Time>
            <Position>
              <LatitudeDegrees>49.5815524645149707794189453125</LatitudeDegrees>
              <LongitudeDegrees>20.6461380980908870697021484375</LongitudeDegrees>
            </Position>
            <AltitudeMeters>303</AltitudeMeters>
            <DistanceMeters>NAN</DistanceMeters>
          </Trackpoint>
          <Trackpoint>
            <Time>2022-09-23T11:00:44.000Z</Time>
            <Position>
              <LatitudeDegrees>49.5815031789243221282958984375</LatitudeDegrees>
              <LongitudeDegrees>20.6460676901042461395263671875</LongitudeDegrees>
            </Position>
            <AltitudeMeters>302.79998779296875</AltitudeMeters>
            <DistanceMeters>NAN</DistanceMeters>
          </Trackpoint>
          <Trackpoint>
            <Time>2022-09-23T11:00:46.000Z</Time>
            <Position>
              <LatitudeDegrees>49.581456743180751800537109375</LatitudeDegrees>
              <LongitudeDegrees>20.64596920274198055267333984375</LongitudeDegrees>
            </Position>
            <AltitudeMeters>302.79998779296875</AltitudeMeters>
            <DistanceMeters>NAN</DistanceMeters>
          </Trackpoint>
          <Trackpoint>
            <Time>2022-09-23T11:00:52.000Z</Time>
            <Position>
              <LatitudeDegrees>49.58131751976907253265380859375</LatitudeDegrees>
              <LongitudeDegrees>20.64573467709124088287353515625</LongitudeDegrees>
            </Position>
            <AltitudeMeters>302.79998779296875</AltitudeMeters>
            <DistanceMeters>NAN</DistanceMeters>
          </Trackpoint>
          <Trackpoint>
            <Time>2022-09-23T11:00:57.000Z</Time>
            <Position>
              <LatitudeDegrees>49.58113730885088443756103515625</LatitudeDegrees>
              <LongitudeDegrees>20.64560308121144771575927734375</LongitudeDegrees>
            </Position>
            <AltitudeMeters>303</AltitudeMeters>
            <DistanceMeters>NAN</DistanceMeters>
          </Trackpoint>
          <Trackpoint>
            <Time>2022-09-23T11:01:03.000Z</Time>
            <Position>
              <LatitudeDegrees>49.58091669715940952301025390625</LatitudeDegrees>
              <LongitudeDegrees>20.64564700238406658172607421875</LongitudeDegrees>
            </Position>
            <AltitudeMeters>303</AltitudeMeters>
            <DistanceMeters>NAN</DistanceMeters>
          </Trackpoint>
          <Trackpoint>
            <Time>2022-09-23T11:01:06.000Z</Time>
            <Position>
              <LatitudeDegrees>49.58084913901984691619873046875</LatitudeDegrees>
              <LongitudeDegrees>20.645749010145664215087890625</LongitudeDegrees>
            </Position>
            <AltitudeMeters>303.399993896484375</AltitudeMeters>
            <DistanceMeters>NAN</DistanceMeters>
          </Trackpoint>
          <Trackpoint>
            <Time>2022-09-23T11:01:09.000Z</Time>
            <Position>
              <LatitudeDegrees>49.580788202583789825439453125</LatitudeDegrees>
              <LongitudeDegrees>20.64587515778839588165283203125</LongitudeDegrees>
            </Position>
            <AltitudeMeters>303.399993896484375</AltitudeMeters>
            <DistanceMeters>NAN</DistanceMeters>
          </Trackpoint>
          <Trackpoint>
            <Time>2022-09-23T11:01:10.000Z</Time>
            <Position>
              <LatitudeDegrees>49.58076381124556064605712890625</LatitudeDegrees>
              <LongitudeDegrees>20.6459144689142704010009765625</LongitudeDegrees>
            </Position>
            <AltitudeMeters>303.600006103515625</AltitudeMeters>
            <DistanceMeters>NAN</DistanceMeters>
          </Trackpoint>
          <Trackpoint>
            <Time>2022-09-23T11:01:13.000Z</Time>
            <Position>
              <LatitudeDegrees>49.5807028748095035552978515625</LatitudeDegrees>
              <LongitudeDegrees>20.64603843726217746734619140625</LongitudeDegrees>
            </Position>
            <AltitudeMeters>303.600006103515625</AltitudeMeters>
            <DistanceMeters>NAN</DistanceMeters>
          </Trackpoint>
          <Trackpoint>
            <Time>2022-09-23T11:01:18.000Z</Time>
            <Position>
              <LatitudeDegrees>49.58056264556944370269775390625</LatitudeDegrees>
              <LongitudeDegrees>20.64621630124747753143310546875</LongitudeDegrees>
            </Position>
            <AltitudeMeters>303.79998779296875</AltitudeMeters>
            <DistanceMeters>NAN</DistanceMeters>
          </Trackpoint>
          <Trackpoint>
            <Time>2022-09-23T11:01:24.000Z</Time>
            <Position>
              <LatitudeDegrees>49.5803930796682834625244140625</LatitudeDegrees>
              <LongitudeDegrees>20.646489299833774566650390625</LongitudeDegrees>
            </Position>
            <AltitudeMeters>303.600006103515625</AltitudeMeters>
            <DistanceMeters>NAN</DistanceMeters>
          </Trackpoint>
          <Trackpoint>
            <Time>2022-09-23T11:01:28.000Z</Time>
            <Position>
              <LatitudeDegrees>49.58031202666461467742919921875</LatitudeDegrees>
              <LongitudeDegrees>20.6467821635305881500244140625</LongitudeDegrees>
            </Position>
            <AltitudeMeters>302.600006103515625</AltitudeMeters>
            <DistanceMeters>NAN</DistanceMeters>
          </Trackpoint>
          <Trackpoint>
            <Time>2022-09-23T11:01:29.000Z</Time>
            <Position>
              <LatitudeDegrees>49.58031118847429752349853515625</LatitudeDegrees>
              <LongitudeDegrees>20.6468720175325870513916015625</LongitudeDegrees>
            </Position>
            <AltitudeMeters>302.20001220703125</AltitudeMeters>
            <DistanceMeters>NAN</DistanceMeters>
          </Trackpoint>
          <Trackpoint>
            <Time>2022-09-23T11:01:30.000Z</Time>
            <Position>
              <LatitudeDegrees>49.58030465058982372283935546875</LatitudeDegrees>
              <LongitudeDegrees>20.64696899615228176116943359375</LongitudeDegrees>
            </Position>
            <AltitudeMeters>301.79998779296875</AltitudeMeters>
            <DistanceMeters>NAN</DistanceMeters>
          </Trackpoint>
          <Trackpoint>
            <Time>2022-09-23T11:01:31.000Z</Time>
            <Position>
              <LatitudeDegrees>49.58027732558548450469970703125</LatitudeDegrees>
              <LongitudeDegrees>20.64705734141170978546142578125</LongitudeDegrees>
            </Position>
            <AltitudeMeters>301.20001220703125</AltitudeMeters>
            <DistanceMeters>NAN</DistanceMeters>
          </Trackpoint>
          <Trackpoint>
            <Time>2022-09-23T11:01:32.000Z</Time>
            <Position>
              <LatitudeDegrees>49.580237679183483123779296875</LatitudeDegrees>
              <LongitudeDegrees>20.647124312818050384521484375</LongitudeDegrees>
            </Position>
            <AltitudeMeters>301</AltitudeMeters>
            <DistanceMeters>NAN</DistanceMeters>
          </Trackpoint>
          <Trackpoint>
            <Time>2022-09-23T11:01:34.000Z</Time>
            <Position>
              <LatitudeDegrees>49.58013650961220264434814453125</LatitudeDegrees>
              <LongitudeDegrees>20.6472240574657917022705078125</LongitudeDegrees>
            </Position>
            <AltitudeMeters>300.79998779296875</AltitudeMeters>
            <DistanceMeters>NAN</DistanceMeters>
          </Trackpoint>
          <Trackpoint>
            <Time>2022-09-23T11:01:37.000Z</Time>
            <Position>
              <LatitudeDegrees>49.580013044178485870361328125</LatitudeDegrees>
              <LongitudeDegrees>20.64737803302705287933349609375</LongitudeDegrees>
            </Position>
            <AltitudeMeters>300.79998779296875</AltitudeMeters>
            <DistanceMeters>NAN</DistanceMeters>
          </Trackpoint>
          <Trackpoint>
            <Time>2022-09-23T11:01:40.000Z</Time>
            <Position>
              <LatitudeDegrees>49.5799039117991924285888671875</LatitudeDegrees>
              <LongitudeDegrees>20.64752857200801372528076171875</LongitudeDegrees>
            </Position>
            <AltitudeMeters>301</AltitudeMeters>
            <DistanceMeters>NAN</DistanceMeters>
          </Trackpoint>
          <Trackpoint>
            <Time>2022-09-23T11:01:45.000Z</Time>
            <Position>
              <LatitudeDegrees>49.57975094206631183624267578125</LatitudeDegrees>
              <LongitudeDegrees>20.64775052480399608612060546875</LongitudeDegrees>
            </Position>
            <AltitudeMeters>301.79998779296875</AltitudeMeters>
            <DistanceMeters>NAN</DistanceMeters>
          </Trackpoint>
          <Trackpoint>
            <Time>2022-09-23T11:01:52.000Z</Time>
            <Position>
              <LatitudeDegrees>49.57961834035813808441162109375</LatitudeDegrees>
              <LongitudeDegrees>20.6480692885816097259521484375</LongitudeDegrees>
            </Position>
            <AltitudeMeters>302</AltitudeMeters>
            <DistanceMeters>NAN</DistanceMeters>
          </Trackpoint>
          <Trackpoint>
            <Time>2022-09-23T11:01:53.000Z</Time>
            <Position>
              <LatitudeDegrees>49.579596631228923797607421875</LatitudeDegrees>
              <LongitudeDegrees>20.6481024809181690216064453125</LongitudeDegrees>
            </Position>
            <AltitudeMeters>302</AltitudeMeters>
            <DistanceMeters>NAN</DistanceMeters>
          </Trackpoint>
          <Trackpoint>
            <Time>2022-09-23T11:01:58.000Z</Time>
            <Position>
              <LatitudeDegrees>49.579455815255641937255859375</LatitudeDegrees>
              <LongitudeDegrees>20.64824824221432209014892578125</LongitudeDegrees>
            </Position>
            <AltitudeMeters>302.20001220703125</AltitudeMeters>
            <DistanceMeters>NAN</DistanceMeters>
          </Trackpoint>
          <Trackpoint>
            <Time>2022-09-23T11:02:01.000Z</Time>
            <Position>
              <LatitudeDegrees>49.579371325671672821044921875</LatitudeDegrees>
              <LongitudeDegrees>20.64831554889678955078125</LongitudeDegrees>
            </Position>
            <AltitudeMeters>302.399993896484375</AltitudeMeters>
            <DistanceMeters>NAN</DistanceMeters>
          </Trackpoint>
          <Trackpoint>
            <Time>2022-09-23T11:02:05.000Z</Time>
            <Position>
              <LatitudeDegrees>49.5792517997324466705322265625</LatitudeDegrees>
              <LongitudeDegrees>20.6484028883278369903564453125</LongitudeDegrees>
            </Position>
            <AltitudeMeters>303</AltitudeMeters>
            <DistanceMeters>NAN</DistanceMeters>
          </Trackpoint>
          <Trackpoint>
            <Time>2022-09-23T11:02:06.000Z</Time>
            <Position>
              <LatitudeDegrees>49.57922288216650485992431640625</LatitudeDegrees>
              <LongitudeDegrees>20.6484290398657321929931640625</LongitudeDegrees>
            </Position>
            <AltitudeMeters>303.20001220703125</AltitudeMeters>
            <DistanceMeters>NAN</DistanceMeters>
          </Trackpoint>
          <Trackpoint>
            <Time>2022-09-23T11:02:14.000Z</Time>
            <Position>
              <LatitudeDegrees>49.5790036953985691070556640625</LatitudeDegrees>
              <LongitudeDegrees>20.64865090884268283843994140625</LongitudeDegrees>
            </Position>
            <AltitudeMeters>304</AltitudeMeters>
            <DistanceMeters>NAN</DistanceMeters>
          </Trackpoint>
          <Trackpoint>
            <Time>2022-09-23T11:02:15.000Z</Time>
            <Position>
              <LatitudeDegrees>49.5789745263755321502685546875</LatitudeDegrees>
              <LongitudeDegrees>20.64867974258959293365478515625</LongitudeDegrees>
            </Position>
            <AltitudeMeters>304</AltitudeMeters>
            <DistanceMeters>NAN</DistanceMeters>
          </Trackpoint>
          <Trackpoint>
            <Time>2022-09-23T11:02:16.000Z</Time>
            <Position>
              <LatitudeDegrees>49.578946195542812347412109375</LatitudeDegrees>
              <LongitudeDegrees>20.6487093307077884674072265625</LongitudeDegrees>
            </Position>
            <AltitudeMeters>304</AltitudeMeters>
            <DistanceMeters>NAN</DistanceMeters>
          </Trackpoint>
          <Trackpoint>
            <Time>2022-09-23T11:02:22.000Z</Time>
            <Position>
              <LatitudeDegrees>49.57876958884298801422119140625</LatitudeDegrees>
              <LongitudeDegrees>20.6488588638603687286376953125</LongitudeDegrees>
            </Position>
            <AltitudeMeters>304.399993896484375</AltitudeMeters>
            <DistanceMeters>NAN</DistanceMeters>
          </Trackpoint>
          <Trackpoint>
            <Time>2022-09-23T11:02:28.000Z</Time>
            <Position>
              <LatitudeDegrees>49.57856766879558563232421875</LatitudeDegrees>
              <LongitudeDegrees>20.648982413113117218017578125</LongitudeDegrees>
            </Position>
            <AltitudeMeters>304.600006103515625</AltitudeMeters>
            <DistanceMeters>NAN</DistanceMeters>
          </Trackpoint>
          <Trackpoint>
            <Time>2022-09-23T11:02:34.000Z</Time>
            <Position>
              <LatitudeDegrees>49.57834881730377674102783203125</LatitudeDegrees>
              <LongitudeDegrees>20.64916673116385936737060546875</LongitudeDegrees>
            </Position>
            <AltitudeMeters>304.600006103515625</AltitudeMeters>
            <DistanceMeters>NAN</DistanceMeters>
          </Trackpoint>
          <Trackpoint>
            <Time>2022-09-23T11:02:38.000Z</Time>
            <Position>
              <LatitudeDegrees>49.57818704657256603240966796875</LatitudeDegrees>
              <LongitudeDegrees>20.64923713915050029754638671875</LongitudeDegrees>
            </Position>
            <AltitudeMeters>304.600006103515625</AltitudeMeters>
            <DistanceMeters>NAN</DistanceMeters>
          </Trackpoint>
          <Trackpoint>
            <Time>2022-09-23T11:02:40.000Z</Time>
            <Position>
              <LatitudeDegrees>49.57811848260462284088134765625</LatitudeDegrees>
              <LongitudeDegrees>20.64928173087537288665771484375</LongitudeDegrees>
            </Position>
            <AltitudeMeters>304.79998779296875</AltitudeMeters>
            <DistanceMeters>NAN</DistanceMeters>
          </Trackpoint>
          <Trackpoint>
            <Time>2022-09-23T11:02:41.000Z</Time>
            <Position>
              <LatitudeDegrees>49.57808478735387325286865234375</LatitudeDegrees>
              <LongitudeDegrees>20.64929396845400333404541015625</LongitudeDegrees>
            </Position>
            <AltitudeMeters>304.79998779296875</AltitudeMeters>
            <DistanceMeters>NAN</DistanceMeters>
          </Trackpoint>
          <Trackpoint>
            <Time>2022-09-23T11:02:45.000Z</Time>
            <Position>
              <LatitudeDegrees>49.57795210182666778564453125</LatitudeDegrees>
              <LongitudeDegrees>20.6493530608713626861572265625</LongitudeDegrees>
            </Position>
            <AltitudeMeters>304.79998779296875</AltitudeMeters>
            <DistanceMeters>NAN</DistanceMeters>
          </Trackpoint>
          <Trackpoint>
            <Time>2022-09-23T11:02:46.000Z</Time>
            <Position>
              <LatitudeDegrees>49.577924273908138275146484375</LatitudeDegrees>
              <LongitudeDegrees>20.6493671424686908721923828125</LongitudeDegrees>
            </Position>
            <AltitudeMeters>304.79998779296875</AltitudeMeters>
            <DistanceMeters>NAN</DistanceMeters>
          </Trackpoint>
          <Trackpoint>
            <Time>2022-09-23T11:02:51.000Z</Time>
            <Position>
              <LatitudeDegrees>49.577751271426677703857421875</LatitudeDegrees>
              <LongitudeDegrees>20.6494740955531597137451171875</LongitudeDegrees>
            </Position>
            <AltitudeMeters>304.79998779296875</AltitudeMeters>
            <DistanceMeters>NAN</DistanceMeters>
          </Trackpoint>
          <Trackpoint>
            <Time>2022-09-23T11:02:59.000Z</Time>
            <Position>
              <LatitudeDegrees>49.5774577371776103973388671875</LatitudeDegrees>
              <LongitudeDegrees>20.64964097924530506134033203125</LongitudeDegrees>
            </Position>
            <AltitudeMeters>305</AltitudeMeters>
            <DistanceMeters>NAN</DistanceMeters>
          </Trackpoint>
          <Trackpoint>
            <Time>2022-09-23T11:03:06.000Z</Time>
            <Position>
              <LatitudeDegrees>49.5772017538547515869140625</LatitudeDegrees>
              <LongitudeDegrees>20.6497845612466335296630859375</LongitudeDegrees>
            </Position>
            <AltitudeMeters>305</AltitudeMeters>
            <DistanceMeters>NAN</DistanceMeters>
          </Trackpoint>
          <Trackpoint>
            <Time>2022-09-23T11:03:07.000Z</Time>
            <Position>
              <LatitudeDegrees>49.5771754346787929534912109375</LatitudeDegrees>
              <LongitudeDegrees>20.64979277551174163818359375</LongitudeDegrees>
            </Position>
            <AltitudeMeters>305.20001220703125</AltitudeMeters>
            <DistanceMeters>NAN</DistanceMeters>
          </Trackpoint>
          <Trackpoint>
            <Time>2022-09-23T11:03:12.000Z</Time>
            <Position>
              <LatitudeDegrees>49.577004946768283843994140625</LatitudeDegrees>
              <LongitudeDegrees>20.64988153986632823944091796875</LongitudeDegrees>
            </Position>
            <AltitudeMeters>305.600006103515625</AltitudeMeters>
            <DistanceMeters>NAN</DistanceMeters>
          </Trackpoint>
          <Trackpoint>
            <Time>2022-09-23T11:03:15.000Z</Time>
            <Position>
              <LatitudeDegrees>49.5769246481359004974365234375</LatitudeDegrees>
              <LongitudeDegrees>20.64994423650205135345458984375</LongitudeDegrees>
            </Position>
            <AltitudeMeters>305.600006103515625</AltitudeMeters>
            <DistanceMeters>NAN</DistanceMeters>
          </Trackpoint>
          <Trackpoint>
            <Time>2022-09-23T11:03:16.000Z</Time>
            <Position>
              <LatitudeDegrees>49.57691567949950695037841796875</LatitudeDegrees>
              <LongitudeDegrees>20.64998799003660678863525390625</LongitudeDegrees>
            </Position>
            <AltitudeMeters>305.20001220703125</AltitudeMeters>
            <DistanceMeters>NAN</DistanceMeters>
          </Trackpoint>
          <Trackpoint>
            <Time>2022-09-23T11:03:20.000Z</Time>
            <Position>
              <LatitudeDegrees>49.5769367180764675140380859375</LatitudeDegrees>
              <LongitudeDegrees>20.65019602887332439422607421875</LongitudeDegrees>
            </Position>
            <AltitudeMeters>304.79998779296875</AltitudeMeters>
            <DistanceMeters>NAN</DistanceMeters>
          </Trackpoint>
          <Trackpoint>
            <Time>2022-09-23T11:03:22.000Z</Time>
            <Position>
              <LatitudeDegrees>49.5769702456891536712646484375</LatitudeDegrees>
              <LongitudeDegrees>20.650305412709712982177734375</LongitudeDegrees>
            </Position>
            <AltitudeMeters>304.79998779296875</AltitudeMeters>
            <DistanceMeters>NAN</DistanceMeters>
          </Trackpoint>
          <Trackpoint>
            <Time>2022-09-23T11:03:27.000Z</Time>
            <Position>
              <LatitudeDegrees>49.57704794593155384063720703125</LatitudeDegrees>
              <LongitudeDegrees>20.65049794502556324005126953125</LongitudeDegrees>
            </Position>
            <AltitudeMeters>305.20001220703125</AltitudeMeters>
            <DistanceMeters>NAN</DistanceMeters>
          </Trackpoint>
          <Trackpoint>
            <Time>2022-09-23T11:03:29.000Z</Time>
            <Position>
              <LatitudeDegrees>49.5770627819001674652099609375</LatitudeDegrees>
              <LongitudeDegrees>20.65054840408265590667724609375</LongitudeDegrees>
            </Position>
            <AltitudeMeters>305.20001220703125</AltitudeMeters>
            <DistanceMeters>NAN</DistanceMeters>
          </Trackpoint>
          <Trackpoint>
            <Time>2022-09-23T11:03:31.000Z</Time>
            <Position>
              <LatitudeDegrees>49.5770631171762943267822265625</LatitudeDegrees>
              <LongitudeDegrees>20.65055410377681255340576171875</LongitudeDegrees>
            </Position>
            <AltitudeMeters>305</AltitudeMeters>
            <DistanceMeters>NAN</DistanceMeters>
          </Trackpoint>
          <Trackpoint>
            <Time>2022-09-23T11:03:35.000Z</Time>
            <Position>
              <LatitudeDegrees>49.5770631171762943267822265625</LatitudeDegrees>
              <LongitudeDegrees>20.65055410377681255340576171875</LongitudeDegrees>
            </Position>
            <AltitudeMeters>305</AltitudeMeters>
            <DistanceMeters>NAN</DistanceMeters>
          </Trackpoint>
          <Trackpoint>
            <Time>2022-09-23T11:03:40.000Z</Time>
            <Position>
              <LatitudeDegrees>49.5770631171762943267822265625</LatitudeDegrees>
              <LongitudeDegrees>20.65055410377681255340576171875</LongitudeDegrees>
            </Position>
            <AltitudeMeters>305</AltitudeMeters>
            <DistanceMeters>NAN</DistanceMeters>
          </Trackpoint>
          <Trackpoint>
            <Time>2022-09-23T11:04:01.000Z</Time>
            <Position>
              <LatitudeDegrees>49.5770631171762943267822265625</LatitudeDegrees>
              <LongitudeDegrees>20.65055410377681255340576171875</LongitudeDegrees>
            </Position>
            <AltitudeMeters>305</AltitudeMeters>
            <DistanceMeters>NAN</DistanceMeters>
          </Trackpoint>
          <Trackpoint>
            <Time>2022-09-23T11:04:08.000Z</Time>
            <Position>
              <LatitudeDegrees>49.5770651288330554962158203125</LatitudeDegrees>
              <LongitudeDegrees>20.65055779181420803070068359375</LongitudeDegrees>
            </Position>
            <AltitudeMeters>305</AltitudeMeters>
            <DistanceMeters>NAN</DistanceMeters>
          </Trackpoint>
          <Trackpoint>
            <Time>2022-09-23T11:04:11.000Z</Time>
            <Position>
              <LatitudeDegrees>49.577107541263103485107421875</LatitudeDegrees>
              <LongitudeDegrees>20.65065720118582248687744140625</LongitudeDegrees>
            </Position>
            <AltitudeMeters>305</AltitudeMeters>
            <DistanceMeters>NAN</DistanceMeters>
          </Trackpoint>
          <Trackpoint>
            <Time>2022-09-23T11:04:17.000Z</Time>
            <Position>
              <LatitudeDegrees>49.57721390761435031890869140625</LatitudeDegrees>
              <LongitudeDegrees>20.65090614371001720428466796875</LongitudeDegrees>
            </Position>
            <AltitudeMeters>305.20001220703125</AltitudeMeters>
            <DistanceMeters>NAN</DistanceMeters>
          </Trackpoint>
          <Trackpoint>
            <Time>2022-09-23T11:04:23.000Z</Time>
            <Position>
              <LatitudeDegrees>49.57734550349414348602294921875</LatitudeDegrees>
              <LongitudeDegrees>20.6511975824832916259765625</LongitudeDegrees>
            </Position>
            <AltitudeMeters>305.20001220703125</AltitudeMeters>
            <DistanceMeters>NAN</DistanceMeters>
          </Trackpoint>
          <Trackpoint>
            <Time>2022-09-23T11:04:30.000Z</Time>
            <Position>
              <LatitudeDegrees>49.57754951901733875274658203125</LatitudeDegrees>
              <LongitudeDegrees>20.6514797173440456390380859375</LongitudeDegrees>
            </Position>
            <AltitudeMeters>304.79998779296875</AltitudeMeters>
            <DistanceMeters>NAN</DistanceMeters>
          </Trackpoint>
          <Trackpoint>
            <Time>2022-09-23T11:04:36.000Z</Time>
            <Position>
              <LatitudeDegrees>49.57776040770113468170166015625</LatitudeDegrees>
              <LongitudeDegrees>20.651527829468250274658203125</LongitudeDegrees>
            </Position>
            <AltitudeMeters>304.20001220703125</AltitudeMeters>
            <DistanceMeters>NAN</DistanceMeters>
          </Trackpoint>
          <Trackpoint>
            <Time>2022-09-23T11:04:40.000Z</Time>
            <Position>
              <LatitudeDegrees>49.57781455479562282562255859375</LatitudeDegrees>
              <LongitudeDegrees>20.6514228880405426025390625</LongitudeDegrees>
            </Position>
            <AltitudeMeters>304.600006103515625</AltitudeMeters>
            <DistanceMeters>NAN</DistanceMeters>
          </Trackpoint>
          <Trackpoint>
            <Time>2022-09-23T11:04:48.000Z</Time>
            <Position>
              <LatitudeDegrees>49.57798889838159084320068359375</LatitudeDegrees>
              <LongitudeDegrees>20.65120219253003597259521484375</LongitudeDegrees>
            </Position>
            <AltitudeMeters>305</AltitudeMeters>
            <DistanceMeters>NAN</DistanceMeters>
          </Trackpoint>
          <Trackpoint>
            <Time>2022-09-23T11:04:52.000Z</Time>
            <Position>
              <LatitudeDegrees>49.57808244042098522186279296875</LatitudeDegrees>
              <LongitudeDegrees>20.651234798133373260498046875</LongitudeDegrees>
            </Position>
            <AltitudeMeters>305.600006103515625</AltitudeMeters>
            <DistanceMeters>NAN</DistanceMeters>
          </Trackpoint>
          <Trackpoint>
            <Time>2022-09-23T11:04:55.000Z</Time>
            <Position>
              <LatitudeDegrees>49.5781484059989452362060546875</LatitudeDegrees>
              <LongitudeDegrees>20.651293806731700897216796875</LongitudeDegrees>
            </Position>
            <AltitudeMeters>306.20001220703125</AltitudeMeters>
            <DistanceMeters>NAN</DistanceMeters>
          </Trackpoint>
          <Trackpoint>
            <Time>2022-09-23T11:04:57.000Z</Time>
            <Position>
              <LatitudeDegrees>49.57819039933383464813232421875</LatitudeDegrees>
              <LongitudeDegrees>20.65133630298078060150146484375</LongitudeDegrees>
            </Position>
            <AltitudeMeters>306.600006103515625</AltitudeMeters>
            <DistanceMeters>NAN</DistanceMeters>
          </Trackpoint>
          <Trackpoint>
            <Time>2022-09-23T11:04:59.000Z</Time>
            <Position>
              <LatitudeDegrees>49.5782396011054515838623046875</LatitudeDegrees>
              <LongitudeDegrees>20.65139195881783962249755859375</LongitudeDegrees>
            </Position>
            <AltitudeMeters>306.79998779296875</AltitudeMeters>
            <DistanceMeters>NAN</DistanceMeters>
          </Trackpoint>
          <Trackpoint>
            <Time>2022-09-23T11:05:03.000Z</Time>
            <Position>
              <LatitudeDegrees>49.57834278233349323272705078125</LatitudeDegrees>
              <LongitudeDegrees>20.65149170346558094024658203125</LongitudeDegrees>
            </Position>
            <AltitudeMeters>307.399993896484375</AltitudeMeters>
            <DistanceMeters>NAN</DistanceMeters>
          </Trackpoint>
          <Trackpoint>
            <Time>2022-09-23T11:05:04.000Z</Time>
            <Position>
              <LatitudeDegrees>49.57837178371846675872802734375</LatitudeDegrees>
              <LongitudeDegrees>20.6515181064605712890625</LongitudeDegrees>
            </Position>
            <AltitudeMeters>307.79998779296875</AltitudeMeters>
            <DistanceMeters>NAN</DistanceMeters>
          </Trackpoint>
          <Trackpoint>
            <Time>2022-09-23T11:05:07.000Z</Time>
            <Position>
              <LatitudeDegrees>49.57845862023532390594482421875</LatitudeDegrees>
              <LongitudeDegrees>20.65158826299011707305908203125</LongitudeDegrees>
            </Position>
            <AltitudeMeters>308.399993896484375</AltitudeMeters>
            <DistanceMeters>NAN</DistanceMeters>
          </Trackpoint>
          <Trackpoint>
            <Time>2022-09-23T11:05:08.000Z</Time>
            <Position>
              <LatitudeDegrees>49.578492231667041778564453125</LatitudeDegrees>
              <LongitudeDegrees>20.651617012917995452880859375</LongitudeDegrees>
            </Position>
            <AltitudeMeters>308.600006103515625</AltitudeMeters>
            <DistanceMeters>NAN</DistanceMeters>
          </Trackpoint>
          <Trackpoint>
            <Time>2022-09-23T11:05:12.000Z</Time>
            <Position>
              <LatitudeDegrees>49.578587114810943603515625</LatitudeDegrees>
              <LongitudeDegrees>20.651697479188442230224609375</LongitudeDegrees>
            </Position>
            <AltitudeMeters>309</AltitudeMeters>
            <DistanceMeters>NAN</DistanceMeters>
          </Trackpoint>
          <Trackpoint>
            <Time>2022-09-23T11:05:19.000Z</Time>
            <Position>
              <LatitudeDegrees>49.57874326966702938079833984375</LatitudeDegrees>
              <LongitudeDegrees>20.651837624609470367431640625</LongitudeDegrees>
            </Position>
            <AltitudeMeters>309.399993896484375</AltitudeMeters>
            <DistanceMeters>NAN</DistanceMeters>
          </Trackpoint>
          <Trackpoint>
            <Time>2022-09-23T11:05:26.000Z</Time>
            <Position>
              <LatitudeDegrees>49.57892599515616893768310546875</LatitudeDegrees>
              <LongitudeDegrees>20.65198321826756000518798828125</LongitudeDegrees>
            </Position>
            <AltitudeMeters>309</AltitudeMeters>
            <DistanceMeters>NAN</DistanceMeters>
          </Trackpoint>
          <Trackpoint>
            <Time>2022-09-23T11:05:32.000Z</Time>
            <Position>
              <LatitudeDegrees>49.579157419502735137939453125</LatitudeDegrees>
              <LongitudeDegrees>20.652198381721973419189453125</LongitudeDegrees>
            </Position>
            <AltitudeMeters>308.20001220703125</AltitudeMeters>
            <DistanceMeters>NAN</DistanceMeters>
          </Trackpoint>
          <Trackpoint>
            <Time>2022-09-23T11:05:35.000Z</Time>
            <Position>
              <LatitudeDegrees>49.57929848693311214447021484375</LatitudeDegrees>
              <LongitudeDegrees>20.652325116097927093505859375</LongitudeDegrees>
            </Position>
            <AltitudeMeters>307.20001220703125</AltitudeMeters>
            <DistanceMeters>NAN</DistanceMeters>
          </Trackpoint>
          <Trackpoint>
            <Time>2022-09-23T11:05:38.000Z</Time>
            <Position>
              <LatitudeDegrees>49.57944299094378948211669921875</LatitudeDegrees>
              <LongitudeDegrees>20.6524501740932464599609375</LongitudeDegrees>
            </Position>
            <AltitudeMeters>306</AltitudeMeters>
            <DistanceMeters>NAN</DistanceMeters>
          </Trackpoint>
          <Trackpoint>
            <Time>2022-09-23T11:05:40.000Z</Time>
            <Position>
              <LatitudeDegrees>49.579568468034267425537109375</LatitudeDegrees>
              <LongitudeDegrees>20.65249484963715076446533203125</LongitudeDegrees>
            </Position>
            <AltitudeMeters>305.600006103515625</AltitudeMeters>
            <DistanceMeters>NAN</DistanceMeters>
          </Trackpoint>
          <Trackpoint>
            <Time>2022-09-23T11:05:41.000Z</Time>
            <Position>
              <LatitudeDegrees>49.5796149037778377532958984375</LatitudeDegrees>
              <LongitudeDegrees>20.6525412015616893768310546875</LongitudeDegrees>
            </Position>
            <AltitudeMeters>305.399993896484375</AltitudeMeters>
            <DistanceMeters>NAN</DistanceMeters>
          </Trackpoint>
          <Trackpoint>
            <Time>2022-09-23T11:05:42.000Z</Time>
            <Position>
              <LatitudeDegrees>49.57964767701923847198486328125</LatitudeDegrees>
              <LongitudeDegrees>20.65260934643447399139404296875</LongitudeDegrees>
            </Position>
            <AltitudeMeters>305</AltitudeMeters>
            <DistanceMeters>NAN</DistanceMeters>
          </Trackpoint>
          <Trackpoint>
            <Time>2022-09-23T11:05:44.000Z</Time>
            <Position>
              <LatitudeDegrees>49.5796993933618068695068359375</LatitudeDegrees>
              <LongitudeDegrees>20.65275435335934162139892578125</LongitudeDegrees>
            </Position>
            <AltitudeMeters>304.600006103515625</AltitudeMeters>
            <DistanceMeters>NAN</DistanceMeters>
          </Trackpoint>
          <Trackpoint>
            <Time>2022-09-23T11:05:46.000Z</Time>
            <Position>
              <LatitudeDegrees>49.5797496847808361053466796875</LatitudeDegrees>
              <LongitudeDegrees>20.65288611687719821929931640625</LongitudeDegrees>
            </Position>
            <AltitudeMeters>304.399993896484375</AltitudeMeters>
            <DistanceMeters>NAN</DistanceMeters>
          </Trackpoint>
          <Trackpoint>
            <Time>2022-09-23T11:05:49.000Z</Time>
            <Position>
              <LatitudeDegrees>49.5798271335661411285400390625</LatitudeDegrees>
              <LongitudeDegrees>20.653063394129276275634765625</LongitudeDegrees>
            </Position>
            <AltitudeMeters>304.399993896484375</AltitudeMeters>
            <DistanceMeters>NAN</DistanceMeters>
          </Trackpoint>
          <Trackpoint>
            <Time>2022-09-23T11:05:52.000Z</Time>
            <Position>
              <LatitudeDegrees>49.579905755817890167236328125</LatitudeDegrees>
              <LongitudeDegrees>20.65322105772793292999267578125</LongitudeDegrees>
            </Position>
            <AltitudeMeters>304.399993896484375</AltitudeMeters>
            <DistanceMeters>NAN</DistanceMeters>
          </Trackpoint>
          <Trackpoint>
            <Time>2022-09-23T11:05:57.000Z</Time>
            <Position>
              <LatitudeDegrees>49.58003777079284191131591796875</LatitudeDegrees>
              <LongitudeDegrees>20.65348684787750244140625</LongitudeDegrees>
            </Position>
            <AltitudeMeters>304.600006103515625</AltitudeMeters>
            <DistanceMeters>NAN</DistanceMeters>
          </Trackpoint>
          <Trackpoint>
            <Time>2022-09-23T11:05:58.000Z</Time>
            <Position>
              <LatitudeDegrees>49.580066017806529998779296875</LatitudeDegrees>
              <LongitudeDegrees>20.653533451259136199951171875</LongitudeDegrees>
            </Position>
            <AltitudeMeters>304.79998779296875</AltitudeMeters>
            <DistanceMeters>NAN</DistanceMeters>
          </Trackpoint>
          <Trackpoint>
            <Time>2022-09-23T11:06:03.000Z</Time>
            <Position>
              <LatitudeDegrees>49.5801763236522674560546875</LatitudeDegrees>
              <LongitudeDegrees>20.65368792973458766937255859375</LongitudeDegrees>
            </Position>
            <AltitudeMeters>306</AltitudeMeters>
            <DistanceMeters>NAN</DistanceMeters>
          </Trackpoint>
          <Trackpoint>
            <Time>2022-09-23T11:06:04.000Z</Time>
            <Position>
              <LatitudeDegrees>49.58019015379250049591064453125</LatitudeDegrees>
              <LongitudeDegrees>20.65371139906346797943115234375</LongitudeDegrees>
            </Position>
            <AltitudeMeters>306.20001220703125</AltitudeMeters>
            <DistanceMeters>NAN</DistanceMeters>
          </Trackpoint>
          <Trackpoint>
            <Time>2022-09-23T11:06:09.000Z</Time>
            <Position>
              <LatitudeDegrees>49.58029911853373050689697265625</LatitudeDegrees>
              <LongitudeDegrees>20.6538286618888378143310546875</LongitudeDegrees>
            </Position>
            <AltitudeMeters>307</AltitudeMeters>
            <DistanceMeters>NAN</DistanceMeters>
          </Trackpoint>
          <Trackpoint>
            <Time>2022-09-23T11:06:14.000Z</Time>
            <Position>
              <LatitudeDegrees>49.5804648287594318389892578125</LatitudeDegrees>
              <LongitudeDegrees>20.653822459280490875244140625</LongitudeDegrees>
            </Position>
            <AltitudeMeters>307</AltitudeMeters>
            <DistanceMeters>NAN</DistanceMeters>
          </Trackpoint>
          <Trackpoint>
            <Time>2022-09-23T11:06:18.000Z</Time>
            <Position>
              <LatitudeDegrees>49.58061226643621921539306640625</LatitudeDegrees>
              <LongitudeDegrees>20.6537904404103755950927734375</LongitudeDegrees>
            </Position>
            <AltitudeMeters>306.600006103515625</AltitudeMeters>
            <DistanceMeters>NAN</DistanceMeters>
          </Trackpoint>
          <Trackpoint>
            <Time>2022-09-23T11:06:21.000Z</Time>
            <Position>
              <LatitudeDegrees>49.5807342231273651123046875</LatitudeDegrees>
              <LongitudeDegrees>20.65378566272556781768798828125</LongitudeDegrees>
            </Position>
            <AltitudeMeters>306.600006103515625</AltitudeMeters>
            <DistanceMeters>NAN</DistanceMeters>
          </Trackpoint>
          <Trackpoint>
            <Time>2022-09-23T11:06:30.000Z</Time>
            <Position>
              <LatitudeDegrees>49.58110445179045200347900390625</LatitudeDegrees>
              <LongitudeDegrees>20.653735958039760589599609375</LongitudeDegrees>
            </Position>
            <AltitudeMeters>306.600006103515625</AltitudeMeters>
            <DistanceMeters>NAN</DistanceMeters>
          </Trackpoint>
          <Trackpoint>
            <Time>2022-09-23T11:06:35.000Z</Time>
            <Position>
              <LatitudeDegrees>49.58130360580980777740478515625</LatitudeDegrees>
              <LongitudeDegrees>20.6537116505205631256103515625</LongitudeDegrees>
            </Position>
            <AltitudeMeters>307</AltitudeMeters>
            <DistanceMeters>NAN</DistanceMeters>
          </Trackpoint>
          <Trackpoint>
            <Time>2022-09-23T11:06:37.000Z</Time>
            <Position>
              <LatitudeDegrees>49.58137786947190761566162109375</LatitudeDegrees>
              <LongitudeDegrees>20.65370352007448673248291015625</LongitudeDegrees>
            </Position>
            <AltitudeMeters>307</AltitudeMeters>
            <DistanceMeters>NAN</DistanceMeters>
          </Trackpoint>
          <Trackpoint>
            <Time>2022-09-23T11:06:44.000Z</Time>
            <Position>
              <LatitudeDegrees>49.5816354453563690185546875</LatitudeDegrees>
              <LongitudeDegrees>20.6536704115569591522216796875</LongitudeDegrees>
            </Position>
            <AltitudeMeters>306.600006103515625</AltitudeMeters>
            <DistanceMeters>NAN</DistanceMeters>
          </Trackpoint>
          <Trackpoint>
            <Time>2022-09-23T11:06:46.000Z</Time>
            <Position>
              <LatitudeDegrees>49.58172856830060482025146484375</LatitudeDegrees>
              <LongitudeDegrees>20.6536667235195636749267578125</LongitudeDegrees>
            </Position>
            <AltitudeMeters>306.600006103515625</AltitudeMeters>
            <DistanceMeters>NAN</DistanceMeters>
          </Trackpoint>
          <Trackpoint>
            <Time>2022-09-23T11:06:49.000Z</Time>
            <Position>
              <LatitudeDegrees>49.58188346587121486663818359375</LatitudeDegrees>
              <LongitudeDegrees>20.65370184369385242462158203125</LongitudeDegrees>
            </Position>
            <AltitudeMeters>306.399993896484375</AltitudeMeters>
            <DistanceMeters>NAN</DistanceMeters>
          </Trackpoint>
          <Trackpoint>
            <Time>2022-09-23T11:06:50.000Z</Time>
            <Position>
              <LatitudeDegrees>49.58193694241344928741455078125</LatitudeDegrees>
              <LongitudeDegrees>20.65370888449251651763916015625</LongitudeDegrees>
            </Position>
            <AltitudeMeters>306</AltitudeMeters>
            <DistanceMeters>NAN</DistanceMeters>
          </Trackpoint>
          <Trackpoint>
            <Time>2022-09-23T11:06:53.000Z</Time>
            <Position>
              <LatitudeDegrees>49.58208463154733180999755859375</LatitudeDegrees>
              <LongitudeDegrees>20.6537364609539508819580078125</LongitudeDegrees>
            </Position>
            <AltitudeMeters>305.79998779296875</AltitudeMeters>
            <DistanceMeters>NAN</DistanceMeters>
          </Trackpoint>
          <Trackpoint>
            <Time>2022-09-23T11:06:55.000Z</Time>
            <Position>
              <LatitudeDegrees>49.58217767067253589630126953125</LatitudeDegrees>
              <LongitudeDegrees>20.65376252867281436920166015625</LongitudeDegrees>
            </Position>
            <AltitudeMeters>305.79998779296875</AltitudeMeters>
            <DistanceMeters>NAN</DistanceMeters>
          </Trackpoint>
          <Trackpoint>
            <Time>2022-09-23T11:06:56.000Z</Time>
            <Position>
              <LatitudeDegrees>49.58222595043480396270751953125</LatitudeDegrees>
              <LongitudeDegrees>20.653778873383998870849609375</LongitudeDegrees>
            </Position>
            <AltitudeMeters>305.79998779296875</AltitudeMeters>
            <DistanceMeters>NAN</DistanceMeters>
          </Trackpoint>
          <Trackpoint>
            <Time>2022-09-23T11:06:57.000Z</Time>
            <Position>
              <LatitudeDegrees>49.58227154798805713653564453125</LatitudeDegrees>
              <LongitudeDegrees>20.65378851257264614105224609375</LongitudeDegrees>
            </Position>
            <AltitudeMeters>305.79998779296875</AltitudeMeters>
            <DistanceMeters>NAN</DistanceMeters>
          </Trackpoint>
          <Trackpoint>
            <Time>2022-09-23T11:07:00.000Z</Time>
            <Position>
              <LatitudeDegrees>49.5824003778398036956787109375</LatitudeDegrees>
              <LongitudeDegrees>20.6538118980824947357177734375</LongitudeDegrees>
            </Position>
            <AltitudeMeters>305.79998779296875</AltitudeMeters>
            <DistanceMeters>NAN</DistanceMeters>
          </Trackpoint>
          <Trackpoint>
            <Time>2022-09-23T11:07:04.000Z</Time>
            <Position>
              <LatitudeDegrees>49.58258025348186492919921875</LatitudeDegrees>
              <LongitudeDegrees>20.653857327997684478759765625</LongitudeDegrees>
            </Position>
            <AltitudeMeters>305.399993896484375</AltitudeMeters>
            <DistanceMeters>NAN</DistanceMeters>
          </Trackpoint>
          <Trackpoint>
            <Time>2022-09-23T11:07:11.000Z</Time>
            <Position>
              <LatitudeDegrees>49.582940675318241119384765625</LatitudeDegrees>
              <LongitudeDegrees>20.65394123084843158721923828125</LongitudeDegrees>
            </Position>
            <AltitudeMeters>305.399993896484375</AltitudeMeters>
            <DistanceMeters>NAN</DistanceMeters>
          </Trackpoint>
          <Trackpoint>
            <Time>2022-09-23T11:07:12.000Z</Time>
            <Position>
              <LatitudeDegrees>49.58298987708985805511474609375</LatitudeDegrees>
              <LongitudeDegrees>20.65395011566579341888427734375</LongitudeDegrees>
            </Position>
            <AltitudeMeters>305.399993896484375</AltitudeMeters>
            <DistanceMeters>NAN</DistanceMeters>
          </Trackpoint>
          <Trackpoint>
            <Time>2022-09-23T11:07:17.000Z</Time>
            <Position>
              <LatitudeDegrees>49.583236388862133026123046875</LatitudeDegrees>
              <LongitudeDegrees>20.654004514217376708984375</LongitudeDegrees>
            </Position>
            <AltitudeMeters>305.600006103515625</AltitudeMeters>
            <DistanceMeters>NAN</DistanceMeters>
          </Trackpoint>
          <Trackpoint>
            <Time>2022-09-23T11:07:20.000Z</Time>
            <Position>
              <LatitudeDegrees>49.58339069969952106475830078125</LatitudeDegrees>
              <LongitudeDegrees>20.6540328450500965118408203125</LongitudeDegrees>
            </Position>
            <AltitudeMeters>305.600006103515625</AltitudeMeters>
            <DistanceMeters>NAN</DistanceMeters>
          </Trackpoint>
          <Trackpoint>
            <Time>2022-09-23T11:07:21.000Z</Time>
            <Position>
              <LatitudeDegrees>49.583441577851772308349609375</LatitudeDegrees>
              <LongitudeDegrees>20.65404030494391918182373046875</LongitudeDegrees>
            </Position>
            <AltitudeMeters>305.600006103515625</AltitudeMeters>
            <DistanceMeters>NAN</DistanceMeters>
          </Trackpoint>
          <Trackpoint>
            <Time>2022-09-23T11:07:22.000Z</Time>
            <Position>
              <LatitudeDegrees>49.5834886841475963592529296875</LatitudeDegrees>
              <LongitudeDegrees>20.65405120141804218292236328125</LongitudeDegrees>
            </Position>
            <AltitudeMeters>305.399993896484375</AltitudeMeters>
            <DistanceMeters>NAN</DistanceMeters>
          </Trackpoint>
          <Trackpoint>
            <Time>2022-09-23T11:07:25.000Z</Time>
            <Position>
              <LatitudeDegrees>49.58362941630184650421142578125</LatitudeDegrees>
              <LongitudeDegrees>20.6540881656110286712646484375</LongitudeDegrees>
            </Position>
            <AltitudeMeters>305.399993896484375</AltitudeMeters>
            <DistanceMeters>NAN</DistanceMeters>
          </Trackpoint>
          <Trackpoint>
            <Time>2022-09-23T11:07:26.000Z</Time>
            <Position>
              <LatitudeDegrees>49.58367283456027507781982421875</LatitudeDegrees>
              <LongitudeDegrees>20.65409646369516849517822265625</LongitudeDegrees>
            </Position>
            <AltitudeMeters>305.399993896484375</AltitudeMeters>
            <DistanceMeters>NAN</DistanceMeters>
          </Trackpoint>
          <Trackpoint>
            <Time>2022-09-23T11:07:27.000Z</Time>
            <Position>
              <LatitudeDegrees>49.58371658809483051300048828125</LatitudeDegrees>
              <LongitudeDegrees>20.65410098992288112640380859375</LongitudeDegrees>
            </Position>
            <AltitudeMeters>305.399993896484375</AltitudeMeters>
            <DistanceMeters>NAN</DistanceMeters>
          </Trackpoint>
          <Trackpoint>
            <Time>2022-09-23T11:07:30.000Z</Time>
            <Position>
              <LatitudeDegrees>49.58384064026176929473876953125</LatitudeDegrees>
              <LongitudeDegrees>20.6541238725185394287109375</LongitudeDegrees>
            </Position>
            <AltitudeMeters>305.600006103515625</AltitudeMeters>
            <DistanceMeters>NAN</DistanceMeters>
          </Trackpoint>
          <Trackpoint>
            <Time>2022-09-23T11:07:32.000Z</Time>
            <Position>
              <LatitudeDegrees>49.58391775377094745635986328125</LatitudeDegrees>
              <LongitudeDegrees>20.65413661301136016845703125</LongitudeDegrees>
            </Position>
            <AltitudeMeters>305.399993896484375</AltitudeMeters>
            <DistanceMeters>NAN</DistanceMeters>
          </Trackpoint>
          <Trackpoint>
            <Time>2022-09-23T11:07:35.000Z</Time>
            <Position>
              <LatitudeDegrees>49.58404532633721828460693359375</LatitudeDegrees>
              <LongitudeDegrees>20.654150359332561492919921875</LongitudeDegrees>
            </Position>
            <AltitudeMeters>305.399993896484375</AltitudeMeters>
            <DistanceMeters>NAN</DistanceMeters>
          </Trackpoint>
          <Trackpoint>
            <Time>2022-09-23T11:07:36.000Z</Time>
            <Position>
              <LatitudeDegrees>49.5840898342430591583251953125</LatitudeDegrees>
              <LongitudeDegrees>20.65415932796895503997802734375</LongitudeDegrees>
            </Position>
            <AltitudeMeters>305.399993896484375</AltitudeMeters>
            <DistanceMeters>NAN</DistanceMeters>
          </Trackpoint>
          <Trackpoint>
            <Time>2022-09-23T11:07:37.000Z</Time>
            <Position>
              <LatitudeDegrees>49.5841377787292003631591796875</LatitudeDegrees>
              <LongitudeDegrees>20.6541696377098560333251953125</LongitudeDegrees>
            </Position>
            <AltitudeMeters>305.20001220703125</AltitudeMeters>
            <DistanceMeters>NAN</DistanceMeters>
          </Trackpoint>
          <Trackpoint>
            <Time>2022-09-23T11:07:45.000Z</Time>
            <Position>
              <LatitudeDegrees>49.58449065685272216796875</LatitudeDegrees>
              <LongitudeDegrees>20.654245913028717041015625</LongitudeDegrees>
            </Position>
            <AltitudeMeters>305.399993896484375</AltitudeMeters>
            <DistanceMeters>NAN</DistanceMeters>
          </Trackpoint>
          <Trackpoint>
            <Time>2022-09-23T11:07:49.000Z</Time>
            <Position>
              <LatitudeDegrees>49.5846775732934474945068359375</LatitudeDegrees>
              <LongitudeDegrees>20.65425588749349117279052734375</LongitudeDegrees>
            </Position>
            <AltitudeMeters>305.399993896484375</AltitudeMeters>
            <DistanceMeters>NAN</DistanceMeters>
          </Trackpoint>
          <Trackpoint>
            <Time>2022-09-23T11:07:51.000Z</Time>
            <Position>
              <LatitudeDegrees>49.58477497100830078125</LatitudeDegrees>
              <LongitudeDegrees>20.65426745451986789703369140625</LongitudeDegrees>
            </Position>
            <AltitudeMeters>305.399993896484375</AltitudeMeters>
            <DistanceMeters>NAN</DistanceMeters>
          </Trackpoint>
          <Trackpoint>
            <Time>2022-09-23T11:07:53.000Z</Time>
            <Position>
              <LatitudeDegrees>49.58486943505704402923583984375</LatitudeDegrees>
              <LongitudeDegrees>20.65428304485976696014404296875</LongitudeDegrees>
            </Position>
            <AltitudeMeters>305.399993896484375</AltitudeMeters>
            <DistanceMeters>NAN</DistanceMeters>
          </Trackpoint>
          <Trackpoint>
            <Time>2022-09-23T11:08:01.000Z</Time>
            <Position>
              <LatitudeDegrees>49.58520613610744476318359375</LatitudeDegrees>
              <LongitudeDegrees>20.6542923487722873687744140625</LongitudeDegrees>
            </Position>
            <AltitudeMeters>305.399993896484375</AltitudeMeters>
            <DistanceMeters>NAN</DistanceMeters>
          </Trackpoint>
          <Trackpoint>
            <Time>2022-09-23T11:08:02.000Z</Time>
            <Position>
              <LatitudeDegrees>49.5852448605000972747802734375</LatitudeDegrees>
              <LongitudeDegrees>20.6543014012277126312255859375</LongitudeDegrees>
            </Position>
            <AltitudeMeters>305.399993896484375</AltitudeMeters>
            <DistanceMeters>NAN</DistanceMeters>
          </Trackpoint>
          <Trackpoint>
            <Time>2022-09-23T11:08:04.000Z</Time>
            <Position>
              <LatitudeDegrees>49.58531635813415050506591796875</LatitudeDegrees>
              <LongitudeDegrees>20.6543067656457424163818359375</LongitudeDegrees>
            </Position>
            <AltitudeMeters>305.399993896484375</AltitudeMeters>
            <DistanceMeters>NAN</DistanceMeters>
          </Trackpoint>
          <Trackpoint>
            <Time>2022-09-23T11:08:13.000Z</Time>
            <Position>
              <LatitudeDegrees>49.58576462231576442718505859375</LatitudeDegrees>
              <LongitudeDegrees>20.6543054245412349700927734375</LongitudeDegrees>
            </Position>
            <AltitudeMeters>305.20001220703125</AltitudeMeters>
            <DistanceMeters>NAN</DistanceMeters>
          </Trackpoint>
          <Trackpoint>
            <Time>2022-09-23T11:08:19.000Z</Time>
            <Position>
              <LatitudeDegrees>49.58603602834045886993408203125</LatitudeDegrees>
              <LongitudeDegrees>20.654294528067111968994140625</LongitudeDegrees>
            </Position>
            <AltitudeMeters>305.399993896484375</AltitudeMeters>
            <DistanceMeters>NAN</DistanceMeters>
          </Trackpoint>
          <Trackpoint>
            <Time>2022-09-23T11:08:21.000Z</Time>
            <Position>
              <LatitudeDegrees>49.58612219430506229400634765625</LatitudeDegrees>
              <LongitudeDegrees>20.654299557209014892578125</LongitudeDegrees>
            </Position>
            <AltitudeMeters>305.20001220703125</AltitudeMeters>
            <DistanceMeters>NAN</DistanceMeters>
          </Trackpoint>
          <Trackpoint>
            <Time>2022-09-23T11:08:25.000Z</Time>
            <Position>
              <LatitudeDegrees>49.5863133855164051055908203125</LatitudeDegrees>
              <LongitudeDegrees>20.65429352223873138427734375</LongitudeDegrees>
            </Position>
            <AltitudeMeters>305</AltitudeMeters>
            <DistanceMeters>NAN</DistanceMeters>
          </Trackpoint>
          <Trackpoint>
            <Time>2022-09-23T11:08:30.000Z</Time>
            <Position>
              <LatitudeDegrees>49.58657247014343738555908203125</LatitudeDegrees>
              <LongitudeDegrees>20.65429042093455791473388671875</LongitudeDegrees>
            </Position>
            <AltitudeMeters>304.79998779296875</AltitudeMeters>
            <DistanceMeters>NAN</DistanceMeters>
          </Trackpoint>
          <Trackpoint>
            <Time>2022-09-23T11:08:40.000Z</Time>
            <Position>
              <LatitudeDegrees>49.5870293676853179931640625</LatitudeDegrees>
              <LongitudeDegrees>20.654298551380634307861328125</LongitudeDegrees>
            </Position>
            <AltitudeMeters>304.79998779296875</AltitudeMeters>
            <DistanceMeters>NAN</DistanceMeters>
          </Trackpoint>
          <Trackpoint>
            <Time>2022-09-23T11:08:51.000Z</Time>
            <Position>
              <LatitudeDegrees>49.5875270850956439971923828125</LatitudeDegrees>
              <LongitudeDegrees>20.654287822544574737548828125</LongitudeDegrees>
            </Position>
            <AltitudeMeters>304.79998779296875</AltitudeMeters>
            <DistanceMeters>NAN</DistanceMeters>
          </Trackpoint>
          <Trackpoint>
            <Time>2022-09-23T11:09:00.000Z</Time>
            <Position>
              <LatitudeDegrees>49.58788390271365642547607421875</LatitudeDegrees>
              <LongitudeDegrees>20.65426594577729701995849609375</LongitudeDegrees>
            </Position>
            <AltitudeMeters>305.79998779296875</AltitudeMeters>
            <DistanceMeters>NAN</DistanceMeters>
          </Trackpoint>
          <Trackpoint>
            <Time>2022-09-23T11:09:02.000Z</Time>
            <Position>
              <LatitudeDegrees>49.5879461802542209625244140625</LatitudeDegrees>
              <LongitudeDegrees>20.6542638503015041351318359375</LongitudeDegrees>
            </Position>
            <AltitudeMeters>305.79998779296875</AltitudeMeters>
            <DistanceMeters>NAN</DistanceMeters>
          </Trackpoint>
          <Trackpoint>
            <Time>2022-09-23T11:09:08.000Z</Time>
            <Position>
              <LatitudeDegrees>49.588135443627834320068359375</LatitudeDegrees>
              <LongitudeDegrees>20.654242224991321563720703125</LongitudeDegrees>
            </Position>
            <AltitudeMeters>305.399993896484375</AltitudeMeters>
            <DistanceMeters>NAN</DistanceMeters>
          </Trackpoint>
          <Trackpoint>
            <Time>2022-09-23T11:09:11.000Z</Time>
            <Position>
              <LatitudeDegrees>49.58821599371731281280517578125</LatitudeDegrees>
              <LongitudeDegrees>20.65423929132521152496337890625</LongitudeDegrees>
            </Position>
            <AltitudeMeters>305.399993896484375</AltitudeMeters>
            <DistanceMeters>NAN</DistanceMeters>
          </Trackpoint>
          <Trackpoint>
            <Time>2022-09-23T11:09:15.000Z</Time>
            <Position>
              <LatitudeDegrees>49.5883471705019474029541015625</LatitudeDegrees>
              <LongitudeDegrees>20.65420039929449558258056640625</LongitudeDegrees>
            </Position>
            <AltitudeMeters>305.20001220703125</AltitudeMeters>
            <DistanceMeters>NAN</DistanceMeters>
          </Trackpoint>
          <Trackpoint>
            <Time>2022-09-23T11:09:20.000Z</Time>
            <Position>
              <LatitudeDegrees>49.588553868234157562255859375</LatitudeDegrees>
              <LongitudeDegrees>20.6541565619409084320068359375</LongitudeDegrees>
            </Position>
            <AltitudeMeters>304.79998779296875</AltitudeMeters>
            <DistanceMeters>NAN</DistanceMeters>
          </Trackpoint>
          <Trackpoint>
            <Time>2022-09-23T11:09:22.000Z</Time>
            <Position>
              <LatitudeDegrees>49.5886365137994289398193359375</LatitudeDegrees>
              <LongitudeDegrees>20.65415077842772006988525390625</LongitudeDegrees>
            </Position>
            <AltitudeMeters>304.79998779296875</AltitudeMeters>
            <DistanceMeters>NAN</DistanceMeters>
          </Trackpoint>
          <Trackpoint>
            <Time>2022-09-23T11:09:24.000Z</Time>
            <Position>
              <LatitudeDegrees>49.5887263678014278411865234375</LatitudeDegrees>
              <LongitudeDegrees>20.65414625220000743865966796875</LongitudeDegrees>
            </Position>
            <AltitudeMeters>304.79998779296875</AltitudeMeters>
            <DistanceMeters>NAN</DistanceMeters>
          </Trackpoint>
          <Trackpoint>
            <Time>2022-09-23T11:09:27.000Z</Time>
            <Position>
              <LatitudeDegrees>49.58883172832429409027099609375</LatitudeDegrees>
              <LongitudeDegrees>20.65410979092121124267578125</LongitudeDegrees>
            </Position>
            <AltitudeMeters>304.399993896484375</AltitudeMeters>
            <DistanceMeters>NAN</DistanceMeters>
          </Trackpoint>
          <Trackpoint>
            <Time>2022-09-23T11:09:32.000Z</Time>
            <Position>
              <LatitudeDegrees>49.58905619569122791290283203125</LatitudeDegrees>
              <LongitudeDegrees>20.6540499441325664520263671875</LongitudeDegrees>
            </Position>
            <AltitudeMeters>304.20001220703125</AltitudeMeters>
            <DistanceMeters>NAN</DistanceMeters>
          </Trackpoint>
          <Trackpoint>
            <Time>2022-09-23T11:09:36.000Z</Time>
            <Position>
              <LatitudeDegrees>49.58923481404781341552734375</LatitudeDegrees>
              <LongitudeDegrees>20.6540070287883281707763671875</LongitudeDegrees>
            </Position>
            <AltitudeMeters>304.20001220703125</AltitudeMeters>
            <DistanceMeters>NAN</DistanceMeters>
          </Trackpoint>
          <Trackpoint>
            <Time>2022-09-23T11:09:45.000Z</Time>
            <Position>
              <LatitudeDegrees>49.58961945958435535430908203125</LatitudeDegrees>
              <LongitudeDegrees>20.6539414823055267333984375</LongitudeDegrees>
            </Position>
            <AltitudeMeters>304.20001220703125</AltitudeMeters>
            <DistanceMeters>NAN</DistanceMeters>
          </Trackpoint>
          <Trackpoint>
            <Time>2022-09-23T11:09:49.000Z</Time>
            <Position>
              <LatitudeDegrees>49.589815847575664520263671875</LatitudeDegrees>
              <LongitudeDegrees>20.65392027609050273895263671875</LongitudeDegrees>
            </Position>
            <AltitudeMeters>304.20001220703125</AltitudeMeters>
            <DistanceMeters>NAN</DistanceMeters>
          </Trackpoint>
          <Trackpoint>
            <Time>2022-09-23T11:09:51.000Z</Time>
            <Position>
              <LatitudeDegrees>49.5899098925292491912841796875</LatitudeDegrees>
              <LongitudeDegrees>20.65392765216529369354248046875</LongitudeDegrees>
            </Position>
            <AltitudeMeters>304.20001220703125</AltitudeMeters>
            <DistanceMeters>NAN</DistanceMeters>
          </Trackpoint>
          <Trackpoint>
            <Time>2022-09-23T11:09:58.000Z</Time>
            <Position>
              <LatitudeDegrees>49.590213485062122344970703125</LatitudeDegrees>
              <LongitudeDegrees>20.65392144955694675445556640625</LongitudeDegrees>
            </Position>
            <AltitudeMeters>304.399993896484375</AltitudeMeters>
            <DistanceMeters>NAN</DistanceMeters>
          </Trackpoint>
          <Trackpoint>
            <Time>2022-09-23T11:10:07.000Z</Time>
            <Position>
              <LatitudeDegrees>49.59060567431151866912841796875</LatitudeDegrees>
              <LongitudeDegrees>20.653965957462787628173828125</LongitudeDegrees>
            </Position>
            <AltitudeMeters>304.20001220703125</AltitudeMeters>
            <DistanceMeters>NAN</DistanceMeters>
          </Trackpoint>
          <Trackpoint>
            <Time>2022-09-23T11:10:13.000Z</Time>
            <Position>
              <LatitudeDegrees>49.5908791758120059967041015625</LatitudeDegrees>
              <LongitudeDegrees>20.6540568172931671142578125</LongitudeDegrees>
            </Position>
            <AltitudeMeters>304</AltitudeMeters>
            <DistanceMeters>NAN</DistanceMeters>
          </Trackpoint>
          <Trackpoint>
            <Time>2022-09-23T11:10:15.000Z</Time>
            <Position>
              <LatitudeDegrees>49.59096441976726055145263671875</LatitudeDegrees>
              <LongitudeDegrees>20.65409478731453418731689453125</LongitudeDegrees>
            </Position>
            <AltitudeMeters>304</AltitudeMeters>
            <DistanceMeters>NAN</DistanceMeters>
          </Trackpoint>
          <Trackpoint>
            <Time>2022-09-23T11:10:22.000Z</Time>
            <Position>
              <LatitudeDegrees>49.59125778637826442718505859375</LatitudeDegrees>
              <LongitudeDegrees>20.65423342399299144744873046875</LongitudeDegrees>
            </Position>
            <AltitudeMeters>304.20001220703125</AltitudeMeters>
            <DistanceMeters>NAN</DistanceMeters>
          </Trackpoint>
          <Trackpoint>
            <Time>2022-09-23T11:10:32.000Z</Time>
            <Position>
              <LatitudeDegrees>49.5916238240897655487060546875</LatitudeDegrees>
              <LongitudeDegrees>20.6544110365211963653564453125</LongitudeDegrees>
            </Position>
            <AltitudeMeters>304.20001220703125</AltitudeMeters>
            <DistanceMeters>NAN</DistanceMeters>
          </Trackpoint>
          <Trackpoint>
            <Time>2022-09-23T11:10:37.000Z</Time>
            <Position>
              <LatitudeDegrees>49.59179230034351348876953125</LatitudeDegrees>
              <LongitudeDegrees>20.654487311840057373046875</LongitudeDegrees>
            </Position>
            <AltitudeMeters>304</AltitudeMeters>
            <DistanceMeters>NAN</DistanceMeters>
          </Trackpoint>
          <Trackpoint>
            <Time>2022-09-23T11:10:42.000Z</Time>
            <Position>
              <LatitudeDegrees>49.5919865928590297698974609375</LatitudeDegrees>
              <LongitudeDegrees>20.65458144061267375946044921875</LongitudeDegrees>
            </Position>
            <AltitudeMeters>304</AltitudeMeters>
            <DistanceMeters>NAN</DistanceMeters>
          </Trackpoint>
          <Trackpoint>
            <Time>2022-09-23T11:10:49.000Z</Time>
            <Position>
              <LatitudeDegrees>49.5922621898353099822998046875</LatitudeDegrees>
              <LongitudeDegrees>20.65470398403704166412353515625</LongitudeDegrees>
            </Position>
            <AltitudeMeters>304.20001220703125</AltitudeMeters>
            <DistanceMeters>NAN</DistanceMeters>
          </Trackpoint>
          <Trackpoint>
            <Time>2022-09-23T11:10:59.000Z</Time>
            <Position>
              <LatitudeDegrees>49.59263124503195285797119140625</LatitudeDegrees>
              <LongitudeDegrees>20.6548763997852802276611328125</LongitudeDegrees>
            </Position>
            <AltitudeMeters>304</AltitudeMeters>
            <DistanceMeters>NAN</DistanceMeters>
          </Trackpoint>
          <Trackpoint>
            <Time>2022-09-23T11:11:03.000Z</Time>
            <Position>
              <LatitudeDegrees>49.59278362803161144256591796875</LatitudeDegrees>
              <LongitudeDegrees>20.6549538485705852508544921875</LongitudeDegrees>
            </Position>
            <AltitudeMeters>303.79998779296875</AltitudeMeters>
            <DistanceMeters>NAN</DistanceMeters>
          </Trackpoint>
          <Trackpoint>
            <Time>2022-09-23T11:11:04.000Z</Time>
            <Position>
              <LatitudeDegrees>49.59282469935715198516845703125</LatitudeDegrees>
              <LongitudeDegrees>20.654972456395626068115234375</LongitudeDegrees>
            </Position>
            <AltitudeMeters>303.79998779296875</AltitudeMeters>
            <DistanceMeters>NAN</DistanceMeters>
          </Trackpoint>
          <Trackpoint>
            <Time>2022-09-23T11:11:08.000Z</Time>
            <Position>
              <LatitudeDegrees>49.59300340153276920318603515625</LatitudeDegrees>
              <LongitudeDegrees>20.65504395402967929840087890625</LongitudeDegrees>
            </Position>
            <AltitudeMeters>303.399993896484375</AltitudeMeters>
            <DistanceMeters>NAN</DistanceMeters>
          </Trackpoint>
          <Trackpoint>
            <Time>2022-09-23T11:11:09.000Z</Time>
            <Position>
              <LatitudeDegrees>49.5930509269237518310546875</LatitudeDegrees>
              <LongitudeDegrees>20.6550634838640689849853515625</LongitudeDegrees>
            </Position>
            <AltitudeMeters>303.20001220703125</AltitudeMeters>
            <DistanceMeters>NAN</DistanceMeters>
          </Trackpoint>
          <Trackpoint>
            <Time>2022-09-23T11:11:15.000Z</Time>
            <Position>
              <LatitudeDegrees>49.59332518279552459716796875</LatitudeDegrees>
              <LongitudeDegrees>20.6552056409418582916259765625</LongitudeDegrees>
            </Position>
            <AltitudeMeters>303</AltitudeMeters>
            <DistanceMeters>NAN</DistanceMeters>
          </Trackpoint>
          <Trackpoint>
            <Time>2022-09-23T11:11:21.000Z</Time>
            <Position>
              <LatitudeDegrees>49.59358108229935169219970703125</LatitudeDegrees>
              <LongitudeDegrees>20.65533153712749481201171875</LongitudeDegrees>
            </Position>
            <AltitudeMeters>303.20001220703125</AltitudeMeters>
            <DistanceMeters>NAN</DistanceMeters>
          </Trackpoint>
          <Trackpoint>
            <Time>2022-09-23T11:11:25.000Z</Time>
            <Position>
              <LatitudeDegrees>49.59375794045627117156982421875</LatitudeDegrees>
              <LongitudeDegrees>20.655410997569561004638671875</LongitudeDegrees>
            </Position>
            <AltitudeMeters>303.399993896484375</AltitudeMeters>
            <DistanceMeters>NAN</DistanceMeters>
          </Trackpoint>
          <Trackpoint>
            <Time>2022-09-23T11:11:33.000Z</Time>
            <Position>
              <LatitudeDegrees>49.59408022463321685791015625</LatitudeDegrees>
              <LongitudeDegrees>20.6555834971368312835693359375</LongitudeDegrees>
            </Position>
            <AltitudeMeters>303.399993896484375</AltitudeMeters>
            <DistanceMeters>NAN</DistanceMeters>
          </Trackpoint>
          <Trackpoint>
            <Time>2022-09-23T11:11:38.000Z</Time>
            <Position>
              <LatitudeDegrees>49.59428482688963413238525390625</LatitudeDegrees>
              <LongitudeDegrees>20.6556795537471771240234375</LongitudeDegrees>
            </Position>
            <AltitudeMeters>303.20001220703125</AltitudeMeters>
            <DistanceMeters>NAN</DistanceMeters>
          </Trackpoint>
          <Trackpoint>
            <Time>2022-09-23T11:11:46.000Z</Time>
            <Position>
              <LatitudeDegrees>49.59464072249829769134521484375</LatitudeDegrees>
              <LongitudeDegrees>20.655905865132808685302734375</LongitudeDegrees>
            </Position>
            <AltitudeMeters>303</AltitudeMeters>
            <DistanceMeters>NAN</DistanceMeters>
          </Trackpoint>
          <Trackpoint>
            <Time>2022-09-23T11:11:47.000Z</Time>
            <Position>
              <LatitudeDegrees>49.5946817100048065185546875</LatitudeDegrees>
              <LongitudeDegrees>20.65594618208706378936767578125</LongitudeDegrees>
            </Position>
            <AltitudeMeters>303</AltitudeMeters>
            <DistanceMeters>NAN</DistanceMeters>
          </Trackpoint>
          <Trackpoint>
            <Time>2022-09-23T11:11:51.000Z</Time>
            <Position>
              <LatitudeDegrees>49.5948131382465362548828125</LatitudeDegrees>
              <LongitudeDegrees>20.65609420649707317352294921875</LongitudeDegrees>
            </Position>
            <AltitudeMeters>304</AltitudeMeters>
            <DistanceMeters>NAN</DistanceMeters>
          </Trackpoint>
          <Trackpoint>
            <Time>2022-09-23T11:11:54.000Z</Time>
            <Position>
              <LatitudeDegrees>49.5949075184762477874755859375</LatitudeDegrees>
              <LongitudeDegrees>20.65623099915683269500732421875</LongitudeDegrees>
            </Position>
            <AltitudeMeters>304.20001220703125</AltitudeMeters>
            <DistanceMeters>NAN</DistanceMeters>
          </Trackpoint>
          <Trackpoint>
            <Time>2022-09-23T11:12:01.000Z</Time>
            <Position>
              <LatitudeDegrees>49.59508999250829219818115234375</LatitudeDegrees>
              <LongitudeDegrees>20.6565132178366184234619140625</LongitudeDegrees>
            </Position>
            <AltitudeMeters>304</AltitudeMeters>
            <DistanceMeters>NAN</DistanceMeters>
          </Trackpoint>
          <Trackpoint>
            <Time>2022-09-23T11:12:08.000Z</Time>
            <Position>
              <LatitudeDegrees>49.59524271078407764434814453125</LatitudeDegrees>
              <LongitudeDegrees>20.6567690335214138031005859375</LongitudeDegrees>
            </Position>
            <AltitudeMeters>303.79998779296875</AltitudeMeters>
            <DistanceMeters>NAN</DistanceMeters>
          </Trackpoint>
          <Trackpoint>
            <Time>2022-09-23T11:12:15.000Z</Time>
            <Position>
              <LatitudeDegrees>49.59542124532163143157958984375</LatitudeDegrees>
              <LongitudeDegrees>20.65707304514944553375244140625</LongitudeDegrees>
            </Position>
            <AltitudeMeters>303.399993896484375</AltitudeMeters>
            <DistanceMeters>NAN</DistanceMeters>
          </Trackpoint>
          <Trackpoint>
            <Time>2022-09-23T11:12:22.000Z</Time>
            <Position>
              <LatitudeDegrees>49.5956151187419891357421875</LatitudeDegrees>
              <LongitudeDegrees>20.65738703124225139617919921875</LongitudeDegrees>
            </Position>
            <AltitudeMeters>303.399993896484375</AltitudeMeters>
            <DistanceMeters>NAN</DistanceMeters>
          </Trackpoint>
          <Trackpoint>
            <Time>2022-09-23T11:12:32.000Z</Time>
            <Position>
              <LatitudeDegrees>49.59590253420174121856689453125</LatitudeDegrees>
              <LongitudeDegrees>20.65791123546659946441650390625</LongitudeDegrees>
            </Position>
            <AltitudeMeters>303</AltitudeMeters>
            <DistanceMeters>NAN</DistanceMeters>
          </Trackpoint>
          <Trackpoint>
            <Time>2022-09-23T11:12:41.000Z</Time>
            <Position>
              <LatitudeDegrees>49.59613102488219738006591796875</LatitudeDegrees>
              <LongitudeDegrees>20.65836251713335514068603515625</LongitudeDegrees>
            </Position>
            <AltitudeMeters>302.79998779296875</AltitudeMeters>
            <DistanceMeters>NAN</DistanceMeters>
          </Trackpoint>
          <Trackpoint>
            <Time>2022-09-23T11:12:47.000Z</Time>
            <Position>
              <LatitudeDegrees>49.59627770818769931793212890625</LatitudeDegrees>
              <LongitudeDegrees>20.65872578881680965423583984375</LongitudeDegrees>
            </Position>
            <AltitudeMeters>302.399993896484375</AltitudeMeters>
            <DistanceMeters>NAN</DistanceMeters>
          </Trackpoint>
          <Trackpoint>
            <Time>2022-09-23T11:12:48.000Z</Time>
            <Position>
              <LatitudeDegrees>49.59629983641207218170166015625</LatitudeDegrees>
              <LongitudeDegrees>20.658783204853534698486328125</LongitudeDegrees>
            </Position>
            <AltitudeMeters>302.399993896484375</AltitudeMeters>
            <DistanceMeters>NAN</DistanceMeters>
          </Trackpoint>
          <Trackpoint>
            <Time>2022-09-23T11:12:56.000Z</Time>
            <Position>
              <LatitudeDegrees>49.5964417420327663421630859375</LatitudeDegrees>
              <LongitudeDegrees>20.65921210683882236480712890625</LongitudeDegrees>
            </Position>
            <AltitudeMeters>302.79998779296875</AltitudeMeters>
            <DistanceMeters>NAN</DistanceMeters>
          </Trackpoint>
          <Trackpoint>
            <Time>2022-09-23T11:12:59.000Z</Time>
            <Position>
              <LatitudeDegrees>49.59650066681206226348876953125</LatitudeDegrees>
              <LongitudeDegrees>20.6594056449830532073974609375</LongitudeDegrees>
            </Position>
            <AltitudeMeters>302.79998779296875</AltitudeMeters>
            <DistanceMeters>NAN</DistanceMeters>
          </Trackpoint>
          <Trackpoint>
            <Time>2022-09-23T11:13:04.000Z</Time>
            <Position>
              <LatitudeDegrees>49.59659219719469547271728515625</LatitudeDegrees>
              <LongitudeDegrees>20.6597298569977283477783203125</LongitudeDegrees>
            </Position>
            <AltitudeMeters>302.600006103515625</AltitudeMeters>
            <DistanceMeters>NAN</DistanceMeters>
          </Trackpoint>
          <Trackpoint>
            <Time>2022-09-23T11:13:06.000Z</Time>
            <Position>
              <LatitudeDegrees>49.59662840701639652252197265625</LatitudeDegrees>
              <LongitudeDegrees>20.65986002795398235321044921875</LongitudeDegrees>
            </Position>
            <AltitudeMeters>302.20001220703125</AltitudeMeters>
            <DistanceMeters>NAN</DistanceMeters>
          </Trackpoint>
          <Trackpoint>
            <Time>2022-09-23T11:13:13.000Z</Time>
            <Position>
              <LatitudeDegrees>49.59674608893692493438720703125</LatitudeDegrees>
              <LongitudeDegrees>20.6603115610778331756591796875</LongitudeDegrees>
            </Position>
            <AltitudeMeters>301.79998779296875</AltitudeMeters>
            <DistanceMeters>NAN</DistanceMeters>
          </Trackpoint>
          <Trackpoint>
            <Time>2022-09-23T11:13:15.000Z</Time>
            <Position>
              <LatitudeDegrees>49.596774838864803314208984375</LatitudeDegrees>
              <LongitudeDegrees>20.6604262255132198333740234375</LongitudeDegrees>
            </Position>
            <AltitudeMeters>302.20001220703125</AltitudeMeters>
            <DistanceMeters>NAN</DistanceMeters>
          </Trackpoint>
          <Trackpoint>
            <Time>2022-09-23T11:13:19.000Z</Time>
            <Position>
              <LatitudeDegrees>49.59684113971889019012451171875</LatitudeDegrees>
              <LongitudeDegrees>20.66064390353858470916748046875</LongitudeDegrees>
            </Position>
            <AltitudeMeters>302.399993896484375</AltitudeMeters>
            <DistanceMeters>NAN</DistanceMeters>
          </Trackpoint>
          <Trackpoint>
            <Time>2022-09-23T11:13:27.000Z</Time>
            <Position>
              <LatitudeDegrees>49.59694893099367618560791015625</LatitudeDegrees>
              <LongitudeDegrees>20.6610655970871448516845703125</LongitudeDegrees>
            </Position>
            <AltitudeMeters>302.600006103515625</AltitudeMeters>
            <DistanceMeters>NAN</DistanceMeters>
          </Trackpoint>
          <Trackpoint>
            <Time>2022-09-23T11:13:30.000Z</Time>
            <Position>
              <LatitudeDegrees>49.5970040000975131988525390625</LatitudeDegrees>
              <LongitudeDegrees>20.6612506695091724395751953125</LongitudeDegrees>
            </Position>
            <AltitudeMeters>302.399993896484375</AltitudeMeters>
            <DistanceMeters>NAN</DistanceMeters>
          </Trackpoint>
          <Trackpoint>
            <Time>2022-09-23T11:13:32.000Z</Time>
            <Position>
              <LatitudeDegrees>49.597035013139247894287109375</LatitudeDegrees>
              <LongitudeDegrees>20.661384947597980499267578125</LongitudeDegrees>
            </Position>
            <AltitudeMeters>302.399993896484375</AltitudeMeters>
            <DistanceMeters>NAN</DistanceMeters>
          </Trackpoint>
          <Trackpoint>
            <Time>2022-09-23T11:13:39.000Z</Time>
            <Position>
              <LatitudeDegrees>49.5971681177616119384765625</LatitudeDegrees>
              <LongitudeDegrees>20.6618494726717472076416015625</LongitudeDegrees>
            </Position>
            <AltitudeMeters>302</AltitudeMeters>
            <DistanceMeters>NAN</DistanceMeters>
          </Trackpoint>
          <Trackpoint>
            <Time>2022-09-23T11:13:43.000Z</Time>
            <Position>
              <LatitudeDegrees>49.59723123349249362945556640625</LatitudeDegrees>
              <LongitudeDegrees>20.662089698016643524169921875</LongitudeDegrees>
            </Position>
            <AltitudeMeters>302.20001220703125</AltitudeMeters>
            <DistanceMeters>NAN</DistanceMeters>
          </Trackpoint>
          <Trackpoint>
            <Time>2022-09-23T11:13:48.000Z</Time>
            <Position>
              <LatitudeDegrees>49.597313292324542999267578125</LatitudeDegrees>
              <LongitudeDegrees>20.662394128739833831787109375</LongitudeDegrees>
            </Position>
            <AltitudeMeters>302.20001220703125</AltitudeMeters>
            <DistanceMeters>NAN</DistanceMeters>
          </Trackpoint>
          <Trackpoint>
            <Time>2022-09-23T11:13:55.000Z</Time>
            <Position>
              <LatitudeDegrees>49.59745083935558795928955078125</LatitudeDegrees>
              <LongitudeDegrees>20.66290475428104400634765625</LongitudeDegrees>
            </Position>
            <AltitudeMeters>302.399993896484375</AltitudeMeters>
            <DistanceMeters>NAN</DistanceMeters>
          </Trackpoint>
          <Trackpoint>
            <Time>2022-09-23T11:13:56.000Z</Time>
            <Position>
              <LatitudeDegrees>49.597466848790645599365234375</LatitudeDegrees>
              <LongitudeDegrees>20.66296242177486419677734375</LongitudeDegrees>
            </Position>
            <AltitudeMeters>302.399993896484375</AltitudeMeters>
            <DistanceMeters>NAN</DistanceMeters>
          </Trackpoint>
          <Trackpoint>
            <Time>2022-09-23T11:13:57.000Z</Time>
            <Position>
              <LatitudeDegrees>49.5974901504814624786376953125</LatitudeDegrees>
              <LongitudeDegrees>20.66304749809205532073974609375</LongitudeDegrees>
            </Position>
            <AltitudeMeters>302.20001220703125</AltitudeMeters>
            <DistanceMeters>NAN</DistanceMeters>
          </Trackpoint>
          <Trackpoint>
            <Time>2022-09-23T11:14:05.000Z</Time>
            <Position>
              <LatitudeDegrees>49.597633145749568939208984375</LatitudeDegrees>
              <LongitudeDegrees>20.66356751136481761932373046875</LongitudeDegrees>
            </Position>
            <AltitudeMeters>302.20001220703125</AltitudeMeters>
            <DistanceMeters>NAN</DistanceMeters>
          </Trackpoint>
          <Trackpoint>
            <Time>2022-09-23T11:14:06.000Z</Time>
            <Position>
              <LatitudeDegrees>49.59765334613621234893798828125</LatitudeDegrees>
              <LongitudeDegrees>20.6636398471891880035400390625</LongitudeDegrees>
            </Position>
            <AltitudeMeters>302.20001220703125</AltitudeMeters>
            <DistanceMeters>NAN</DistanceMeters>
          </Trackpoint>
          <Trackpoint>
            <Time>2022-09-23T11:14:15.000Z</Time>
            <Position>
              <LatitudeDegrees>49.59780824370682239532470703125</LatitudeDegrees>
              <LongitudeDegrees>20.664187185466289520263671875</LongitudeDegrees>
            </Position>
            <AltitudeMeters>302</AltitudeMeters>
            <DistanceMeters>NAN</DistanceMeters>
          </Trackpoint>
          <Trackpoint>
            <Time>2022-09-23T11:14:24.000Z</Time>
            <Position>
              <LatitudeDegrees>49.59796314127743244171142578125</LatitudeDegrees>
              <LongitudeDegrees>20.6647266447544097900390625</LongitudeDegrees>
            </Position>
            <AltitudeMeters>302</AltitudeMeters>
            <DistanceMeters>NAN</DistanceMeters>
          </Trackpoint>
          <Trackpoint>
            <Time>2022-09-23T11:14:29.000Z</Time>
            <Position>
              <LatitudeDegrees>49.59804897196590900421142578125</LatitudeDegrees>
              <LongitudeDegrees>20.664993189275264739990234375</LongitudeDegrees>
            </Position>
            <AltitudeMeters>302</AltitudeMeters>
            <DistanceMeters>NAN</DistanceMeters>
          </Trackpoint>
          <Trackpoint>
            <Time>2022-09-23T11:14:31.000Z</Time>
            <Position>
              <LatitudeDegrees>49.59808400832116603851318359375</LatitudeDegrees>
              <LongitudeDegrees>20.6651130504906177520751953125</LongitudeDegrees>
            </Position>
            <AltitudeMeters>301.79998779296875</AltitudeMeters>
            <DistanceMeters>NAN</DistanceMeters>
          </Trackpoint>
          <Trackpoint>
            <Time>2022-09-23T11:14:40.000Z</Time>
            <Position>
              <LatitudeDegrees>49.59826656617224216461181640625</LatitudeDegrees>
              <LongitudeDegrees>20.6656300462782382965087890625</LongitudeDegrees>
            </Position>
            <AltitudeMeters>301.79998779296875</AltitudeMeters>
            <DistanceMeters>NAN</DistanceMeters>
          </Trackpoint>
          <Trackpoint>
            <Time>2022-09-23T11:14:47.000Z</Time>
            <Position>
              <LatitudeDegrees>49.5984148420393466949462890625</LatitudeDegrees>
              <LongitudeDegrees>20.66600278951227664947509765625</LongitudeDegrees>
            </Position>
            <AltitudeMeters>301.79998779296875</AltitudeMeters>
            <DistanceMeters>NAN</DistanceMeters>
          </Trackpoint>
          <Trackpoint>
            <Time>2022-09-23T11:14:55.000Z</Time>
            <Position>
              <LatitudeDegrees>49.59861625917255878448486328125</LatitudeDegrees>
              <LongitudeDegrees>20.66640730015933513641357421875</LongitudeDegrees>
            </Position>
            <AltitudeMeters>301.20001220703125</AltitudeMeters>
            <DistanceMeters>NAN</DistanceMeters>
          </Trackpoint>
          <Trackpoint>
            <Time>2022-09-23T11:14:56.000Z</Time>
            <Position>
              <LatitudeDegrees>49.59864257834851741790771484375</LatitudeDegrees>
              <LongitudeDegrees>20.6664538197219371795654296875</LongitudeDegrees>
            </Position>
            <AltitudeMeters>301.20001220703125</AltitudeMeters>
            <DistanceMeters>NAN</DistanceMeters>
          </Trackpoint>
          <Trackpoint>
            <Time>2022-09-23T11:15:04.000Z</Time>
            <Position>
              <LatitudeDegrees>49.59886738099157810211181640625</LatitudeDegrees>
              <LongitudeDegrees>20.66682689823210239410400390625</LongitudeDegrees>
            </Position>
            <AltitudeMeters>301.79998779296875</AltitudeMeters>
            <DistanceMeters>NAN</DistanceMeters>
          </Trackpoint>
          <Trackpoint>
            <Time>2022-09-23T11:15:12.000Z</Time>
            <Position>
              <LatitudeDegrees>49.5990656130015850067138671875</LatitudeDegrees>
              <LongitudeDegrees>20.66713593900203704833984375</LongitudeDegrees>
            </Position>
            <AltitudeMeters>301.600006103515625</AltitudeMeters>
            <DistanceMeters>NAN</DistanceMeters>
          </Trackpoint>
          <Trackpoint>
            <Time>2022-09-23T11:15:20.000Z</Time>
            <Position>
              <LatitudeDegrees>49.5992386154830455780029296875</LatitudeDegrees>
              <LongitudeDegrees>20.66739100031554698944091796875</LongitudeDegrees>
            </Position>
            <AltitudeMeters>301.79998779296875</AltitudeMeters>
            <DistanceMeters>NAN</DistanceMeters>
          </Trackpoint>
          <Trackpoint>
            <Time>2022-09-23T11:15:24.000Z</Time>
            <Position>
              <LatitudeDegrees>49.599307514727115631103515625</LatitudeDegrees>
              <LongitudeDegrees>20.66751471720635890960693359375</LongitudeDegrees>
            </Position>
            <AltitudeMeters>301.79998779296875</AltitudeMeters>
            <DistanceMeters>NAN</DistanceMeters>
          </Trackpoint>
          <Trackpoint>
            <Time>2022-09-23T11:15:27.000Z</Time>
            <Position>
              <LatitudeDegrees>49.599371887743473052978515625</LatitudeDegrees>
              <LongitudeDegrees>20.6676018051803112030029296875</LongitudeDegrees>
            </Position>
            <AltitudeMeters>301.79998779296875</AltitudeMeters>
            <DistanceMeters>NAN</DistanceMeters>
          </Trackpoint>
          <Trackpoint>
            <Time>2022-09-23T11:15:34.000Z</Time>
            <Position>
              <LatitudeDegrees>49.5995544455945491790771484375</LatitudeDegrees>
              <LongitudeDegrees>20.6678918190300464630126953125</LongitudeDegrees>
            </Position>
            <AltitudeMeters>301.20001220703125</AltitudeMeters>
            <DistanceMeters>NAN</DistanceMeters>
          </Trackpoint>
          <Trackpoint>
            <Time>2022-09-23T11:15:42.000Z</Time>
            <Position>
              <LatitudeDegrees>49.5997827686369419097900390625</LatitudeDegrees>
              <LongitudeDegrees>20.668242014944553375244140625</LongitudeDegrees>
            </Position>
            <AltitudeMeters>301.20001220703125</AltitudeMeters>
            <DistanceMeters>NAN</DistanceMeters>
          </Trackpoint>
          <Trackpoint>
            <Time>2022-09-23T11:15:46.000Z</Time>
            <Position>
              <LatitudeDegrees>49.59988963790237903594970703125</LatitudeDegrees>
              <LongitudeDegrees>20.668394900858402252197265625</LongitudeDegrees>
            </Position>
            <AltitudeMeters>301.399993896484375</AltitudeMeters>
            <DistanceMeters>NAN</DistanceMeters>
          </Trackpoint>
          <Trackpoint>
            <Time>2022-09-23T11:15:51.000Z</Time>
            <Position>
              <LatitudeDegrees>49.60003204643726348876953125</LatitudeDegrees>
              <LongitudeDegrees>20.66860034130513668060302734375</LongitudeDegrees>
            </Position>
            <AltitudeMeters>301.399993896484375</AltitudeMeters>
            <DistanceMeters>NAN</DistanceMeters>
          </Trackpoint>
          <Trackpoint>
            <Time>2022-09-23T11:16:00.000Z</Time>
            <Position>
              <LatitudeDegrees>49.600275456905364990234375</LatitudeDegrees>
              <LongitudeDegrees>20.6689298339188098907470703125</LongitudeDegrees>
            </Position>
            <AltitudeMeters>300.79998779296875</AltitudeMeters>
            <DistanceMeters>NAN</DistanceMeters>
          </Trackpoint>
          <Trackpoint>
            <Time>2022-09-23T11:16:09.000Z</Time>
            <Position>
              <LatitudeDegrees>49.60053470917046070098876953125</LatitudeDegrees>
              <LongitudeDegrees>20.6692701391875743865966796875</LongitudeDegrees>
            </Position>
            <AltitudeMeters>300.600006103515625</AltitudeMeters>
            <DistanceMeters>NAN</DistanceMeters>
          </Trackpoint>
          <Trackpoint>
            <Time>2022-09-23T11:16:16.000Z</Time>
            <Position>
              <LatitudeDegrees>49.60080712102353572845458984375</LatitudeDegrees>
              <LongitudeDegrees>20.6695437245070934295654296875</LongitudeDegrees>
            </Position>
            <AltitudeMeters>300.600006103515625</AltitudeMeters>
            <DistanceMeters>NAN</DistanceMeters>
          </Trackpoint>
          <Trackpoint>
            <Time>2022-09-23T11:16:25.000Z</Time>
            <Position>
              <LatitudeDegrees>49.6011245436966419219970703125</LatitudeDegrees>
              <LongitudeDegrees>20.66982560791075229644775390625</LongitudeDegrees>
            </Position>
            <AltitudeMeters>300.399993896484375</AltitudeMeters>
            <DistanceMeters>NAN</DistanceMeters>
          </Trackpoint>
          <Trackpoint>
            <Time>2022-09-23T11:16:33.000Z</Time>
            <Position>
              <LatitudeDegrees>49.60140793584287166595458984375</LatitudeDegrees>
              <LongitudeDegrees>20.67006893455982208251953125</LongitudeDegrees>
            </Position>
            <AltitudeMeters>300.399993896484375</AltitudeMeters>
            <DistanceMeters>NAN</DistanceMeters>
          </Trackpoint>
          <Trackpoint>
            <Time>2022-09-23T11:16:34.000Z</Time>
            <Position>
              <LatitudeDegrees>49.60144833661615848541259765625</LatitudeDegrees>
              <LongitudeDegrees>20.67009885795414447784423828125</LongitudeDegrees>
            </Position>
            <AltitudeMeters>300.20001220703125</AltitudeMeters>
            <DistanceMeters>NAN</DistanceMeters>
          </Trackpoint>
          <Trackpoint>
            <Time>2022-09-23T11:16:37.000Z</Time>
            <Position>
              <LatitudeDegrees>49.60157037712633609771728515625</LatitudeDegrees>
              <LongitudeDegrees>20.6701884604990482330322265625</LongitudeDegrees>
            </Position>
            <AltitudeMeters>300.399993896484375</AltitudeMeters>
            <DistanceMeters>NAN</DistanceMeters>
          </Trackpoint>
          <Trackpoint>
            <Time>2022-09-23T11:16:39.000Z</Time>
            <Position>
              <LatitudeDegrees>49.6016412042081356048583984375</LatitudeDegrees>
              <LongitudeDegrees>20.670247636735439300537109375</LongitudeDegrees>
            </Position>
            <AltitudeMeters>300.20001220703125</AltitudeMeters>
            <DistanceMeters>NAN</DistanceMeters>
          </Trackpoint>
          <Trackpoint>
            <Time>2022-09-23T11:16:40.000Z</Time>
            <Position>
              <LatitudeDegrees>49.60167598910629749298095703125</LatitudeDegrees>
              <LongitudeDegrees>20.67027336917817592620849609375</LongitudeDegrees>
            </Position>
            <AltitudeMeters>300.20001220703125</AltitudeMeters>
            <DistanceMeters>NAN</DistanceMeters>
          </Trackpoint>
          <Trackpoint>
            <Time>2022-09-23T11:16:42.000Z</Time>
            <Position>
              <LatitudeDegrees>49.6017412841320037841796875</LatitudeDegrees>
              <LongitudeDegrees>20.6703108362853527069091796875</LongitudeDegrees>
            </Position>
            <AltitudeMeters>300.399993896484375</AltitudeMeters>
            <DistanceMeters>NAN</DistanceMeters>
          </Trackpoint>
          <Trackpoint>
            <Time>2022-09-23T11:16:44.000Z</Time>
            <Position>
              <LatitudeDegrees>49.60180004127323627471923828125</LatitudeDegrees>
              <LongitudeDegrees>20.67034796811640262603759765625</LongitudeDegrees>
            </Position>
            <AltitudeMeters>300.600006103515625</AltitudeMeters>
            <DistanceMeters>NAN</DistanceMeters>
          </Trackpoint>
          <Trackpoint>
            <Time>2022-09-23T11:16:46.000Z</Time>
            <Position>
              <LatitudeDegrees>49.60186022333800792694091796875</LatitudeDegrees>
              <LongitudeDegrees>20.67038970999419689178466796875</LongitudeDegrees>
            </Position>
            <AltitudeMeters>300.600006103515625</AltitudeMeters>
            <DistanceMeters>NAN</DistanceMeters>
          </Trackpoint>
          <Trackpoint>
            <Time>2022-09-23T11:16:47.000Z</Time>
            <Position>
              <LatitudeDegrees>49.60189458914101123809814453125</LatitudeDegrees>
              <LongitudeDegrees>20.67040664143860340118408203125</LongitudeDegrees>
            </Position>
            <AltitudeMeters>300.79998779296875</AltitudeMeters>
            <DistanceMeters>NAN</DistanceMeters>
          </Trackpoint>
          <Trackpoint>
            <Time>2022-09-23T11:16:57.000Z</Time>
            <Position>
              <LatitudeDegrees>49.60225517861545085906982421875</LatitudeDegrees>
              <LongitudeDegrees>20.670604705810546875</LongitudeDegrees>
            </Position>
            <AltitudeMeters>301.20001220703125</AltitudeMeters>
            <DistanceMeters>NAN</DistanceMeters>
          </Trackpoint>
          <Trackpoint>
            <Time>2022-09-23T11:17:01.000Z</Time>
            <Position>
              <LatitudeDegrees>49.60238912142813205718994140625</LatitudeDegrees>
              <LongitudeDegrees>20.6706757843494415283203125</LongitudeDegrees>
            </Position>
            <AltitudeMeters>301.399993896484375</AltitudeMeters>
            <DistanceMeters>NAN</DistanceMeters>
          </Trackpoint>
          <Trackpoint>
            <Time>2022-09-23T11:17:06.000Z</Time>
            <Position>
              <LatitudeDegrees>49.602552987635135650634765625</LatitudeDegrees>
              <LongitudeDegrees>20.6707443483173847198486328125</LongitudeDegrees>
            </Position>
            <AltitudeMeters>301.399993896484375</AltitudeMeters>
            <DistanceMeters>NAN</DistanceMeters>
          </Trackpoint>
          <Trackpoint>
            <Time>2022-09-23T11:17:14.000Z</Time>
            <Position>
              <LatitudeDegrees>49.60277728736400604248046875</LatitudeDegrees>
              <LongitudeDegrees>20.67083093337714672088623046875</LongitudeDegrees>
            </Position>
            <AltitudeMeters>301</AltitudeMeters>
            <DistanceMeters>NAN</DistanceMeters>
          </Trackpoint>
          <Trackpoint>
            <Time>2022-09-23T11:17:21.000Z</Time>
            <Position>
              <LatitudeDegrees>49.60296043194830417633056640625</LatitudeDegrees>
              <LongitudeDegrees>20.6709064543247222900390625</LongitudeDegrees>
            </Position>
            <AltitudeMeters>300.600006103515625</AltitudeMeters>
            <DistanceMeters>NAN</DistanceMeters>
          </Trackpoint>
          <Trackpoint>
            <Time>2022-09-23T11:17:31.000Z</Time>
            <Position>
              <LatitudeDegrees>49.6032059378921985626220703125</LatitudeDegrees>
              <LongitudeDegrees>20.670978538691997528076171875</LongitudeDegrees>
            </Position>
            <AltitudeMeters>300.79998779296875</AltitudeMeters>
            <DistanceMeters>NAN</DistanceMeters>
          </Trackpoint>
          <Trackpoint>
            <Time>2022-09-23T11:17:36.000Z</Time>
            <Position>
              <LatitudeDegrees>49.6033004857599735260009765625</LatitudeDegrees>
              <LongitudeDegrees>20.67101064138114452362060546875</LongitudeDegrees>
            </Position>
            <AltitudeMeters>300.79998779296875</AltitudeMeters>
            <DistanceMeters>NAN</DistanceMeters>
          </Trackpoint>
          <Trackpoint>
            <Time>2022-09-23T11:17:37.000Z</Time>
            <Position>
              <LatitudeDegrees>49.60332018323242664337158203125</LatitudeDegrees>
              <LongitudeDegrees>20.6710217893123626708984375</LongitudeDegrees>
            </Position>
            <AltitudeMeters>300.79998779296875</AltitudeMeters>
            <DistanceMeters>NAN</DistanceMeters>
          </Trackpoint>
          <Trackpoint>
            <Time>2022-09-23T11:17:38.000Z</Time>
            <Position>
              <LatitudeDegrees>49.6033465862274169921875</LatitudeDegrees>
              <LongitudeDegrees>20.67102941684424877166748046875</LongitudeDegrees>
            </Position>
            <AltitudeMeters>300.79998779296875</AltitudeMeters>
            <DistanceMeters>NAN</DistanceMeters>
          </Trackpoint>
          <Trackpoint>
            <Time>2022-09-23T11:17:43.000Z</Time>
            <Position>
              <LatitudeDegrees>49.6035113744437694549560546875</LatitudeDegrees>
              <LongitudeDegrees>20.67108674906194210052490234375</LongitudeDegrees>
            </Position>
            <AltitudeMeters>300.600006103515625</AltitudeMeters>
            <DistanceMeters>NAN</DistanceMeters>
          </Trackpoint>
          <Trackpoint>
            <Time>2022-09-23T11:17:50.000Z</Time>
            <Position>
              <LatitudeDegrees>49.6037319861352443695068359375</LatitudeDegrees>
              <LongitudeDegrees>20.671166963875293731689453125</LongitudeDegrees>
            </Position>
            <AltitudeMeters>300.399993896484375</AltitudeMeters>
            <DistanceMeters>NAN</DistanceMeters>
          </Trackpoint>
          <Trackpoint>
            <Time>2022-09-23T11:17:53.000Z</Time>
            <Position>
              <LatitudeDegrees>49.60375989787280559539794921875</LatitudeDegrees>
              <LongitudeDegrees>20.67118749953806400299072265625</LongitudeDegrees>
            </Position>
            <AltitudeMeters>300.600006103515625</AltitudeMeters>
            <DistanceMeters>NAN</DistanceMeters>
          </Trackpoint>
          <Trackpoint>
            <Time>2022-09-23T11:17:54.000Z</Time>
            <Position>
              <LatitudeDegrees>49.60375989787280559539794921875</LatitudeDegrees>
              <LongitudeDegrees>20.67118749953806400299072265625</LongitudeDegrees>
            </Position>
            <AltitudeMeters>300.600006103515625</AltitudeMeters>
            <DistanceMeters>NAN</DistanceMeters>
          </Trackpoint>
          <Trackpoint>
            <Time>2022-09-23T11:17:56.000Z</Time>
            <Position>
              <LatitudeDegrees>49.60375989787280559539794921875</LatitudeDegrees>
              <LongitudeDegrees>20.67118749953806400299072265625</LongitudeDegrees>
            </Position>
            <AltitudeMeters>300.600006103515625</AltitudeMeters>
            <DistanceMeters>NAN</DistanceMeters>
          </Trackpoint>
          <Trackpoint>
            <Time>2022-09-23T11:18:03.000Z</Time>
            <Position>
              <LatitudeDegrees>49.60375989787280559539794921875</LatitudeDegrees>
              <LongitudeDegrees>20.67118749953806400299072265625</LongitudeDegrees>
            </Position>
            <AltitudeMeters>300.79998779296875</AltitudeMeters>
            <DistanceMeters>NAN</DistanceMeters>
          </Trackpoint>
          <Trackpoint>
            <Time>2022-09-23T11:18:10.000Z</Time>
            <Position>
              <LatitudeDegrees>49.60375989787280559539794921875</LatitudeDegrees>
              <LongitudeDegrees>20.67118749953806400299072265625</LongitudeDegrees>
            </Position>
            <AltitudeMeters>300.600006103515625</AltitudeMeters>
            <DistanceMeters>NAN</DistanceMeters>
          </Trackpoint>
          <Trackpoint>
            <Time>2022-09-23T11:18:17.000Z</Time>
            <Position>
              <LatitudeDegrees>49.60375989787280559539794921875</LatitudeDegrees>
              <LongitudeDegrees>20.67118749953806400299072265625</LongitudeDegrees>
            </Position>
            <AltitudeMeters>300.79998779296875</AltitudeMeters>
            <DistanceMeters>NAN</DistanceMeters>
          </Trackpoint>
          <Trackpoint>
            <Time>2022-09-23T11:18:31.000Z</Time>
            <Position>
              <LatitudeDegrees>49.60376425646245479583740234375</LatitudeDegrees>
              <LongitudeDegrees>20.67118850536644458770751953125</LongitudeDegrees>
            </Position>
            <AltitudeMeters>301</AltitudeMeters>
            <DistanceMeters>NAN</DistanceMeters>
          </Trackpoint>
          <Trackpoint>
            <Time>2022-09-23T11:18:37.000Z</Time>
            <Position>
              <LatitudeDegrees>49.60376425646245479583740234375</LatitudeDegrees>
              <LongitudeDegrees>20.67118850536644458770751953125</LongitudeDegrees>
            </Position>
            <AltitudeMeters>300.79998779296875</AltitudeMeters>
            <DistanceMeters>NAN</DistanceMeters>
          </Trackpoint>
          <Trackpoint>
            <Time>2022-09-23T11:18:44.000Z</Time>
            <Position>
              <LatitudeDegrees>49.60376425646245479583740234375</LatitudeDegrees>
              <LongitudeDegrees>20.67118850536644458770751953125</LongitudeDegrees>
            </Position>
            <AltitudeMeters>300.600006103515625</AltitudeMeters>
            <DistanceMeters>NAN</DistanceMeters>
          </Trackpoint>
          <Trackpoint>
            <Time>2022-09-23T11:18:46.000Z</Time>
            <Position>
              <LatitudeDegrees>49.60376425646245479583740234375</LatitudeDegrees>
              <LongitudeDegrees>20.67118850536644458770751953125</LongitudeDegrees>
            </Position>
            <AltitudeMeters>300.600006103515625</AltitudeMeters>
            <DistanceMeters>NAN</DistanceMeters>
          </Trackpoint>
          <Trackpoint>
            <Time>2022-09-23T11:18:54.000Z</Time>
            <Position>
              <LatitudeDegrees>49.60377062670886516571044921875</LatitudeDegrees>
              <LongitudeDegrees>20.67118875682353973388671875</LongitudeDegrees>
            </Position>
            <AltitudeMeters>300.399993896484375</AltitudeMeters>
            <DistanceMeters>NAN</DistanceMeters>
          </Trackpoint>
          <Trackpoint>
            <Time>2022-09-23T11:18:57.000Z</Time>
            <Position>
              <LatitudeDegrees>49.60383231751620769500732421875</LatitudeDegrees>
              <LongitudeDegrees>20.67121557891368865966796875</LongitudeDegrees>
            </Position>
            <AltitudeMeters>300.399993896484375</AltitudeMeters>
            <DistanceMeters>NAN</DistanceMeters>
          </Trackpoint>
          <Trackpoint>
            <Time>2022-09-23T11:19:00.000Z</Time>
            <Position>
              <LatitudeDegrees>49.6039259433746337890625</LatitudeDegrees>
              <LongitudeDegrees>20.67124843597412109375</LongitudeDegrees>
            </Position>
            <AltitudeMeters>300</AltitudeMeters>
            <DistanceMeters>NAN</DistanceMeters>
          </Trackpoint>
          <Trackpoint>
            <Time>2022-09-23T11:19:02.000Z</Time>
            <Position>
              <LatitudeDegrees>49.6039995364844799041748046875</LatitudeDegrees>
              <LongitudeDegrees>20.67127458751201629638671875</LongitudeDegrees>
            </Position>
            <AltitudeMeters>299.79998779296875</AltitudeMeters>
            <DistanceMeters>NAN</DistanceMeters>
          </Trackpoint>
          <Trackpoint>
            <Time>2022-09-23T11:19:11.000Z</Time>
            <Position>
              <LatitudeDegrees>49.6043602935969829559326171875</LatitudeDegrees>
              <LongitudeDegrees>20.67138799466192722320556640625</LongitudeDegrees>
            </Position>
            <AltitudeMeters>299.600006103515625</AltitudeMeters>
            <DistanceMeters>NAN</DistanceMeters>
          </Trackpoint>
          <Trackpoint>
            <Time>2022-09-23T11:19:18.000Z</Time>
            <Position>
              <LatitudeDegrees>49.604630358517169952392578125</LatitudeDegrees>
              <LongitudeDegrees>20.67149193026125431060791015625</LongitudeDegrees>
            </Position>
            <AltitudeMeters>299.399993896484375</AltitudeMeters>
            <DistanceMeters>NAN</DistanceMeters>
          </Trackpoint>
          <Trackpoint>
            <Time>2022-09-23T11:19:27.000Z</Time>
            <Position>
              <LatitudeDegrees>49.60497133433818817138671875</LatitudeDegrees>
              <LongitudeDegrees>20.67161682061851024627685546875</LongitudeDegrees>
            </Position>
            <AltitudeMeters>299.600006103515625</AltitudeMeters>
            <DistanceMeters>NAN</DistanceMeters>
          </Trackpoint>
          <Trackpoint>
            <Time>2022-09-23T11:19:34.000Z</Time>
            <Position>
              <LatitudeDegrees>49.60524282418191432952880859375</LatitudeDegrees>
              <LongitudeDegrees>20.67176601849496364593505859375</LongitudeDegrees>
            </Position>
            <AltitudeMeters>301.20001220703125</AltitudeMeters>
            <DistanceMeters>NAN</DistanceMeters>
          </Trackpoint>
          <Trackpoint>
            <Time>2022-09-23T11:19:42.000Z</Time>
            <Position>
              <LatitudeDegrees>49.60551205091178417205810546875</LatitudeDegrees>
              <LongitudeDegrees>20.671909935772418975830078125</LongitudeDegrees>
            </Position>
            <AltitudeMeters>301</AltitudeMeters>
            <DistanceMeters>NAN</DistanceMeters>
          </Trackpoint>
          <Trackpoint>
            <Time>2022-09-23T11:19:51.000Z</Time>
            <Position>
              <LatitudeDegrees>49.60576535202562808990478515625</LatitudeDegrees>
              <LongitudeDegrees>20.6720656715333461761474609375</LongitudeDegrees>
            </Position>
            <AltitudeMeters>300.600006103515625</AltitudeMeters>
            <DistanceMeters>NAN</DistanceMeters>
          </Trackpoint>
          <Trackpoint>
            <Time>2022-09-23T11:19:58.000Z</Time>
            <Position>
              <LatitudeDegrees>49.60594438947737216949462890625</LatitudeDegrees>
              <LongitudeDegrees>20.67220397293567657470703125</LongitudeDegrees>
            </Position>
            <AltitudeMeters>300.20001220703125</AltitudeMeters>
            <DistanceMeters>NAN</DistanceMeters>
          </Trackpoint>
          <Trackpoint>
            <Time>2022-09-23T11:20:00.000Z</Time>
            <Position>
              <LatitudeDegrees>49.60599166341125965118408203125</LatitudeDegrees>
              <LongitudeDegrees>20.67223708145320415496826171875</LongitudeDegrees>
            </Position>
            <AltitudeMeters>300.20001220703125</AltitudeMeters>
            <DistanceMeters>NAN</DistanceMeters>
          </Trackpoint>
          <Trackpoint>
            <Time>2022-09-23T11:20:07.000Z</Time>
            <Position>
              <LatitudeDegrees>49.60616081021726131439208984375</LatitudeDegrees>
              <LongitudeDegrees>20.672361217439174652099609375</LongitudeDegrees>
            </Position>
            <AltitudeMeters>299.79998779296875</AltitudeMeters>
            <DistanceMeters>NAN</DistanceMeters>
          </Trackpoint>
          <Trackpoint>
            <Time>2022-09-23T11:20:14.000Z</Time>
            <Position>
              <LatitudeDegrees>49.60632794536650180816650390625</LatitudeDegrees>
              <LongitudeDegrees>20.6725112535059452056884765625</LongitudeDegrees>
            </Position>
            <AltitudeMeters>299.399993896484375</AltitudeMeters>
            <DistanceMeters>NAN</DistanceMeters>
          </Trackpoint>
          <Trackpoint>
            <Time>2022-09-23T11:20:19.000Z</Time>
            <Position>
              <LatitudeDegrees>49.60645518265664577484130859375</LatitudeDegrees>
              <LongitudeDegrees>20.6726292707026004791259765625</LongitudeDegrees>
            </Position>
            <AltitudeMeters>299</AltitudeMeters>
            <DistanceMeters>NAN</DistanceMeters>
          </Trackpoint>
          <Trackpoint>
            <Time>2022-09-23T11:20:23.000Z</Time>
            <Position>
              <LatitudeDegrees>49.6065692603588104248046875</LatitudeDegrees>
              <LongitudeDegrees>20.67271619103848934173583984375</LongitudeDegrees>
            </Position>
            <AltitudeMeters>298.79998779296875</AltitudeMeters>
            <DistanceMeters>NAN</DistanceMeters>
          </Trackpoint>
          <Trackpoint>
            <Time>2022-09-23T11:20:31.000Z</Time>
            <Position>
              <LatitudeDegrees>49.6067491360008716583251953125</LatitudeDegrees>
              <LongitudeDegrees>20.672860443592071533203125</LongitudeDegrees>
            </Position>
            <AltitudeMeters>298.79998779296875</AltitudeMeters>
            <DistanceMeters>NAN</DistanceMeters>
          </Trackpoint>
          <Trackpoint>
            <Time>2022-09-23T11:20:36.000Z</Time>
            <Position>
              <LatitudeDegrees>49.60683890618383884429931640625</LatitudeDegrees>
              <LongitudeDegrees>20.67295658402144908905029296875</LongitudeDegrees>
            </Position>
            <AltitudeMeters>299.20001220703125</AltitudeMeters>
            <DistanceMeters>NAN</DistanceMeters>
          </Trackpoint>
          <Trackpoint>
            <Time>2022-09-23T11:20:38.000Z</Time>
            <Position>
              <LatitudeDegrees>49.6068658120930194854736328125</LatitudeDegrees>
              <LongitudeDegrees>20.67298717796802520751953125</LongitudeDegrees>
            </Position>
            <AltitudeMeters>299.20001220703125</AltitudeMeters>
            <DistanceMeters>NAN</DistanceMeters>
          </Trackpoint>
          <Trackpoint>
            <Time>2022-09-23T11:20:46.000Z</Time>
            <Position>
              <LatitudeDegrees>49.60697234608232975006103515625</LatitudeDegrees>
              <LongitudeDegrees>20.67310762591660022735595703125</LongitudeDegrees>
            </Position>
            <AltitudeMeters>299.399993896484375</AltitudeMeters>
            <DistanceMeters>NAN</DistanceMeters>
          </Trackpoint>
          <Trackpoint>
            <Time>2022-09-23T11:20:47.000Z</Time>
            <Position>
              <LatitudeDegrees>49.6069824881851673126220703125</LatitudeDegrees>
              <LongitudeDegrees>20.6731191091239452362060546875</LongitudeDegrees>
            </Position>
            <AltitudeMeters>299.399993896484375</AltitudeMeters>
            <DistanceMeters>NAN</DistanceMeters>
          </Trackpoint>
          <Trackpoint>
            <Time>2022-09-23T11:20:50.000Z</Time>
            <Position>
              <LatitudeDegrees>49.60700503550469875335693359375</LatitudeDegrees>
              <LongitudeDegrees>20.673160515725612640380859375</LongitudeDegrees>
            </Position>
            <AltitudeMeters>299.600006103515625</AltitudeMeters>
            <DistanceMeters>NAN</DistanceMeters>
          </Trackpoint>
          <Trackpoint>
            <Time>2022-09-23T11:20:53.000Z</Time>
            <Position>
              <LatitudeDegrees>49.606980979442596435546875</LatitudeDegrees>
              <LongitudeDegrees>20.673221535980701446533203125</LongitudeDegrees>
            </Position>
            <AltitudeMeters>299.600006103515625</AltitudeMeters>
            <DistanceMeters>NAN</DistanceMeters>
          </Trackpoint>
          <Trackpoint>
            <Time>2022-09-23T11:20:58.000Z</Time>
            <Position>
              <LatitudeDegrees>49.606913588941097259521484375</LatitudeDegrees>
              <LongitudeDegrees>20.673361681401729583740234375</LongitudeDegrees>
            </Position>
            <AltitudeMeters>298.79998779296875</AltitudeMeters>
            <DistanceMeters>NAN</DistanceMeters>
          </Trackpoint>
          <Trackpoint>
            <Time>2022-09-23T11:21:00.000Z</Time>
            <Position>
              <LatitudeDegrees>49.60688374936580657958984375</LatitudeDegrees>
              <LongitudeDegrees>20.673425383865833282470703125</LongitudeDegrees>
            </Position>
            <AltitudeMeters>298</AltitudeMeters>
            <DistanceMeters>NAN</DistanceMeters>
          </Trackpoint>
          <Trackpoint>
            <Time>2022-09-23T11:21:03.000Z</Time>
            <Position>
              <LatitudeDegrees>49.60688902996480464935302734375</LatitudeDegrees>
              <LongitudeDegrees>20.67354616709053516387939453125</LongitudeDegrees>
            </Position>
            <AltitudeMeters>296.79998779296875</AltitudeMeters>
            <DistanceMeters>NAN</DistanceMeters>
          </Trackpoint>
          <Trackpoint>
            <Time>2022-09-23T11:21:06.000Z</Time>
            <Position>
              <LatitudeDegrees>49.60695541463792324066162109375</LatitudeDegrees>
              <LongitudeDegrees>20.6735336780548095703125</LongitudeDegrees>
            </Position>
            <AltitudeMeters>295.600006103515625</AltitudeMeters>
            <DistanceMeters>NAN</DistanceMeters>
          </Trackpoint>
          <Trackpoint>
            <Time>2022-09-23T11:21:07.000Z</Time>
            <Position>
              <LatitudeDegrees>49.6069828234612941741943359375</LatitudeDegrees>
              <LongitudeDegrees>20.6735117174685001373291015625</LongitudeDegrees>
            </Position>
            <AltitudeMeters>295.399993896484375</AltitudeMeters>
            <DistanceMeters>NAN</DistanceMeters>
          </Trackpoint>
          <Trackpoint>
            <Time>2022-09-23T11:21:12.000Z</Time>
            <Position>
              <LatitudeDegrees>49.6071477793157100677490234375</LatitudeDegrees>
              <LongitudeDegrees>20.6734929420053958892822265625</LongitudeDegrees>
            </Position>
            <AltitudeMeters>295.20001220703125</AltitudeMeters>
            <DistanceMeters>NAN</DistanceMeters>
          </Trackpoint>
          <Trackpoint>
            <Time>2022-09-23T11:21:17.000Z</Time>
            <Position>
              <LatitudeDegrees>49.6073134057223796844482421875</LatitudeDegrees>
              <LongitudeDegrees>20.67365798167884349822998046875</LongitudeDegrees>
            </Position>
            <AltitudeMeters>295.600006103515625</AltitudeMeters>
            <DistanceMeters>NAN</DistanceMeters>
          </Trackpoint>
          <Trackpoint>
            <Time>2022-09-23T11:21:20.000Z</Time>
            <Position>
              <LatitudeDegrees>49.60743083618581295013427734375</LatitudeDegrees>
              <LongitudeDegrees>20.6737960316240787506103515625</LongitudeDegrees>
            </Position>
            <AltitudeMeters>295.600006103515625</AltitudeMeters>
            <DistanceMeters>NAN</DistanceMeters>
          </Trackpoint>
          <Trackpoint>
            <Time>2022-09-23T11:21:22.000Z</Time>
            <Position>
              <LatitudeDegrees>49.60751214064657688140869140625</LatitudeDegrees>
              <LongitudeDegrees>20.67390851676464080810546875</LongitudeDegrees>
            </Position>
            <AltitudeMeters>295.399993896484375</AltitudeMeters>
            <DistanceMeters>NAN</DistanceMeters>
          </Trackpoint>
          <Trackpoint>
            <Time>2022-09-23T11:21:28.000Z</Time>
            <Position>
              <LatitudeDegrees>49.60773878730833530426025390625</LatitudeDegrees>
              <LongitudeDegrees>20.67419953644275665283203125</LongitudeDegrees>
            </Position>
            <AltitudeMeters>294.79998779296875</AltitudeMeters>
            <DistanceMeters>NAN</DistanceMeters>
          </Trackpoint>
          <Trackpoint>
            <Time>2022-09-23T11:21:35.000Z</Time>
            <Position>
              <LatitudeDegrees>49.6079692058265209197998046875</LatitudeDegrees>
              <LongitudeDegrees>20.6745175458490848541259765625</LongitudeDegrees>
            </Position>
            <AltitudeMeters>295</AltitudeMeters>
            <DistanceMeters>NAN</DistanceMeters>
          </Trackpoint>
          <Trackpoint>
            <Time>2022-09-23T11:21:38.000Z</Time>
            <Position>
              <LatitudeDegrees>49.60806928575038909912109375</LatitudeDegrees>
              <LongitudeDegrees>20.6746566854417324066162109375</LongitudeDegrees>
            </Position>
            <AltitudeMeters>295</AltitudeMeters>
            <DistanceMeters>NAN</DistanceMeters>
          </Trackpoint>
          <Trackpoint>
            <Time>2022-09-23T11:21:42.000Z</Time>
            <Position>
              <LatitudeDegrees>49.60817447863519191741943359375</LatitudeDegrees>
              <LongitudeDegrees>20.67482423968613147735595703125</LongitudeDegrees>
            </Position>
            <AltitudeMeters>295.20001220703125</AltitudeMeters>
            <DistanceMeters>NAN</DistanceMeters>
          </Trackpoint>
          <Trackpoint>
            <Time>2022-09-23T11:21:49.000Z</Time>
            <Position>
              <LatitudeDegrees>49.6083953417837619781494140625</LatitudeDegrees>
              <LongitudeDegrees>20.67514560185372829437255859375</LongitudeDegrees>
            </Position>
            <AltitudeMeters>295.20001220703125</AltitudeMeters>
            <DistanceMeters>NAN</DistanceMeters>
          </Trackpoint>
          <Trackpoint>
            <Time>2022-09-23T11:21:50.000Z</Time>
            <Position>
              <LatitudeDegrees>49.6084288693964481353759765625</LatitudeDegrees>
              <LongitudeDegrees>20.67519555799663066864013671875</LongitudeDegrees>
            </Position>
            <AltitudeMeters>295.20001220703125</AltitudeMeters>
            <DistanceMeters>NAN</DistanceMeters>
          </Trackpoint>
          <Trackpoint>
            <Time>2022-09-23T11:21:55.000Z</Time>
            <Position>
              <LatitudeDegrees>49.6085864491760730743408203125</LatitudeDegrees>
              <LongitudeDegrees>20.67546327598392963409423828125</LongitudeDegrees>
            </Position>
            <AltitudeMeters>294.600006103515625</AltitudeMeters>
            <DistanceMeters>NAN</DistanceMeters>
          </Trackpoint>
          <Trackpoint>
            <Time>2022-09-23T11:22:00.000Z</Time>
            <Position>
              <LatitudeDegrees>49.60873715579509735107421875</LatitudeDegrees>
              <LongitudeDegrees>20.67568707279860973358154296875</LongitudeDegrees>
            </Position>
            <AltitudeMeters>294.79998779296875</AltitudeMeters>
            <DistanceMeters>NAN</DistanceMeters>
          </Trackpoint>
          <Trackpoint>
            <Time>2022-09-23T11:22:07.000Z</Time>
            <Position>
              <LatitudeDegrees>49.60891108028590679168701171875</LatitudeDegrees>
              <LongitudeDegrees>20.675966441631317138671875</LongitudeDegrees>
            </Position>
            <AltitudeMeters>295.399993896484375</AltitudeMeters>
            <DistanceMeters>NAN</DistanceMeters>
          </Trackpoint>
          <Trackpoint>
            <Time>2022-09-23T11:22:11.000Z</Time>
            <Position>
              <LatitudeDegrees>49.60902021266520023345947265625</LatitudeDegrees>
              <LongitudeDegrees>20.67613835446536540985107421875</LongitudeDegrees>
            </Position>
            <AltitudeMeters>295.399993896484375</AltitudeMeters>
            <DistanceMeters>NAN</DistanceMeters>
          </Trackpoint>
          <Trackpoint>
            <Time>2022-09-23T11:22:15.000Z</Time>
            <Position>
              <LatitudeDegrees>49.60912230424582958221435546875</LatitudeDegrees>
              <LongitudeDegrees>20.67630884237587451934814453125</LongitudeDegrees>
            </Position>
            <AltitudeMeters>295.399993896484375</AltitudeMeters>
            <DistanceMeters>NAN</DistanceMeters>
          </Trackpoint>
          <Trackpoint>
            <Time>2022-09-23T11:22:26.000Z</Time>
            <Position>
              <LatitudeDegrees>49.60941466502845287322998046875</LatitudeDegrees>
              <LongitudeDegrees>20.67677604965865612030029296875</LongitudeDegrees>
            </Position>
            <AltitudeMeters>295.399993896484375</AltitudeMeters>
            <DistanceMeters>NAN</DistanceMeters>
          </Trackpoint>
          <Trackpoint>
            <Time>2022-09-23T11:22:29.000Z</Time>
            <Position>
              <LatitudeDegrees>49.60948004387319087982177734375</LatitudeDegrees>
              <LongitudeDegrees>20.6768996827304363250732421875</LongitudeDegrees>
            </Position>
            <AltitudeMeters>295.399993896484375</AltitudeMeters>
            <DistanceMeters>NAN</DistanceMeters>
          </Trackpoint>
          <Trackpoint>
            <Time>2022-09-23T11:22:32.000Z</Time>
            <Position>
              <LatitudeDegrees>49.609520025551319122314453125</LatitudeDegrees>
              <LongitudeDegrees>20.6770394928753376007080078125</LongitudeDegrees>
            </Position>
            <AltitudeMeters>295.399993896484375</AltitudeMeters>
            <DistanceMeters>NAN</DistanceMeters>
          </Trackpoint>
          <Trackpoint>
            <Time>2022-09-23T11:22:33.000Z</Time>
            <Position>
              <LatitudeDegrees>49.60952530615031719207763671875</LatitudeDegrees>
              <LongitudeDegrees>20.67709020338952541351318359375</LongitudeDegrees>
            </Position>
            <AltitudeMeters>295.399993896484375</AltitudeMeters>
            <DistanceMeters>NAN</DistanceMeters>
          </Trackpoint>
          <Trackpoint>
            <Time>2022-09-23T11:22:37.000Z</Time>
            <Position>
              <LatitudeDegrees>49.60949622094631195068359375</LatitudeDegrees>
              <LongitudeDegrees>20.67728801630437374114990234375</LongitudeDegrees>
            </Position>
            <AltitudeMeters>295.399993896484375</AltitudeMeters>
            <DistanceMeters>NAN</DistanceMeters>
          </Trackpoint>
          <Trackpoint>
            <Time>2022-09-23T11:22:38.000Z</Time>
            <Position>
              <LatitudeDegrees>49.60947887040674686431884765625</LatitudeDegrees>
              <LongitudeDegrees>20.67732959054410457611083984375</LongitudeDegrees>
            </Position>
            <AltitudeMeters>295.399993896484375</AltitudeMeters>
            <DistanceMeters>NAN</DistanceMeters>
          </Trackpoint>
          <Trackpoint>
            <Time>2022-09-23T11:22:43.000Z</Time>
            <Position>
              <LatitudeDegrees>49.609345011413097381591796875</LatitudeDegrees>
              <LongitudeDegrees>20.67748658359050750732421875</LongitudeDegrees>
            </Position>
            <AltitudeMeters>295.399993896484375</AltitudeMeters>
            <DistanceMeters>NAN</DistanceMeters>
          </Trackpoint>
          <Trackpoint>
            <Time>2022-09-23T11:22:47.000Z</Time>
            <Position>
              <LatitudeDegrees>49.609202854335308074951171875</LatitudeDegrees>
              <LongitudeDegrees>20.6775548122823238372802734375</LongitudeDegrees>
            </Position>
            <AltitudeMeters>295.399993896484375</AltitudeMeters>
            <DistanceMeters>NAN</DistanceMeters>
          </Trackpoint>
          <Trackpoint>
            <Time>2022-09-23T11:22:48.000Z</Time>
            <Position>
              <LatitudeDegrees>49.60916488431394100189208984375</LatitudeDegrees>
              <LongitudeDegrees>20.6775725819170475006103515625</LongitudeDegrees>
            </Position>
            <AltitudeMeters>295.399993896484375</AltitudeMeters>
            <DistanceMeters>NAN</DistanceMeters>
          </Trackpoint>
          <Trackpoint>
            <Time>2022-09-23T11:22:49.000Z</Time>
            <Position>
              <LatitudeDegrees>49.6091332845389842987060546875</LatitudeDegrees>
              <LongitudeDegrees>20.67758716642856597900390625</LongitudeDegrees>
            </Position>
            <AltitudeMeters>295.399993896484375</AltitudeMeters>
            <DistanceMeters>NAN</DistanceMeters>
          </Trackpoint>
          <Trackpoint>
            <Time>2022-09-23T11:22:53.000Z</Time>
            <Position>
              <LatitudeDegrees>49.60896891541779041290283203125</LatitudeDegrees>
              <LongitudeDegrees>20.677642822265625</LongitudeDegrees>
            </Position>
            <AltitudeMeters>295.600006103515625</AltitudeMeters>
            <DistanceMeters>NAN</DistanceMeters>
          </Trackpoint>
          <Trackpoint>
            <Time>2022-09-23T11:22:54.000Z</Time>
            <Position>
              <LatitudeDegrees>49.6089378185570240020751953125</LatitudeDegrees>
              <LongitudeDegrees>20.67764927633106708526611328125</LongitudeDegrees>
            </Position>
            <AltitudeMeters>295.600006103515625</AltitudeMeters>
            <DistanceMeters>NAN</DistanceMeters>
          </Trackpoint>
          <Trackpoint>
            <Time>2022-09-23T11:22:57.000Z</Time>
            <Position>
              <LatitudeDegrees>49.60880530066788196563720703125</LatitudeDegrees>
              <LongitudeDegrees>20.67768230102956295013427734375</LongitudeDegrees>
            </Position>
            <AltitudeMeters>295.399993896484375</AltitudeMeters>
            <DistanceMeters>NAN</DistanceMeters>
          </Trackpoint>
          <Trackpoint>
            <Time>2022-09-23T11:22:58.000Z</Time>
            <Position>
              <LatitudeDegrees>49.608763642609119415283203125</LatitudeDegrees>
              <LongitudeDegrees>20.67768867127597332000732421875</LongitudeDegrees>
            </Position>
            <AltitudeMeters>295.399993896484375</AltitudeMeters>
            <DistanceMeters>NAN</DistanceMeters>
          </Trackpoint>
          <Trackpoint>
            <Time>2022-09-23T11:23:06.000Z</Time>
            <Position>
              <LatitudeDegrees>49.60840632207691669464111328125</LatitudeDegrees>
              <LongitudeDegrees>20.6776683032512664794921875</LongitudeDegrees>
            </Position>
            <AltitudeMeters>294.79998779296875</AltitudeMeters>
            <DistanceMeters>NAN</DistanceMeters>
          </Trackpoint>
          <Trackpoint>
            <Time>2022-09-23T11:23:09.000Z</Time>
            <Position>
              <LatitudeDegrees>49.608269445598125457763671875</LatitudeDegrees>
              <LongitudeDegrees>20.6776543892920017242431640625</LongitudeDegrees>
            </Position>
            <AltitudeMeters>295.399993896484375</AltitudeMeters>
            <DistanceMeters>NAN</DistanceMeters>
          </Trackpoint>
          <Trackpoint>
            <Time>2022-09-23T11:23:11.000Z</Time>
            <Position>
              <LatitudeDegrees>49.60818059742450714111328125</LatitudeDegrees>
              <LongitudeDegrees>20.677642822265625</LongitudeDegrees>
            </Position>
            <AltitudeMeters>295.600006103515625</AltitudeMeters>
            <DistanceMeters>NAN</DistanceMeters>
          </Trackpoint>
          <Trackpoint>
            <Time>2022-09-23T11:23:14.000Z</Time>
            <Position>
              <LatitudeDegrees>49.60804782807826995849609375</LatitudeDegrees>
              <LongitudeDegrees>20.67764751613140106201171875</LongitudeDegrees>
            </Position>
            <AltitudeMeters>295.79998779296875</AltitudeMeters>
            <DistanceMeters>NAN</DistanceMeters>
          </Trackpoint>
          <Trackpoint>
            <Time>2022-09-23T11:23:16.000Z</Time>
            <Position>
              <LatitudeDegrees>49.60796928964555263519287109375</LatitudeDegrees>
              <LongitudeDegrees>20.6776443310081958770751953125</LongitudeDegrees>
            </Position>
            <AltitudeMeters>296.20001220703125</AltitudeMeters>
            <DistanceMeters>NAN</DistanceMeters>
          </Trackpoint>
          <Trackpoint>
            <Time>2022-09-23T11:23:19.000Z</Time>
            <Position>
              <LatitudeDegrees>49.60786200128495693206787109375</LatitudeDegrees>
              <LongitudeDegrees>20.6776463426649570465087890625</LongitudeDegrees>
            </Position>
            <AltitudeMeters>296.399993896484375</AltitudeMeters>
            <DistanceMeters>NAN</DistanceMeters>
          </Trackpoint>
          <Trackpoint>
            <Time>2022-09-23T11:23:21.000Z</Time>
            <Position>
              <LatitudeDegrees>49.60779712535440921783447265625</LatitudeDegrees>
              <LongitudeDegrees>20.67764441482722759246826171875</LongitudeDegrees>
            </Position>
            <AltitudeMeters>296.600006103515625</AltitudeMeters>
            <DistanceMeters>NAN</DistanceMeters>
          </Trackpoint>
          <Trackpoint>
            <Time>2022-09-23T11:23:26.000Z</Time>
            <Position>
              <LatitudeDegrees>49.6076423116028308868408203125</LatitudeDegrees>
              <LongitudeDegrees>20.67765916697680950164794921875</LongitudeDegrees>
            </Position>
            <AltitudeMeters>296.600006103515625</AltitudeMeters>
            <DistanceMeters>NAN</DistanceMeters>
          </Trackpoint>
          <Trackpoint>
            <Time>2022-09-23T11:23:36.000Z</Time>
            <Position>
              <LatitudeDegrees>49.60729680955410003662109375</LatitudeDegrees>
              <LongitudeDegrees>20.67775840871036052703857421875</LongitudeDegrees>
            </Position>
            <AltitudeMeters>296.20001220703125</AltitudeMeters>
            <DistanceMeters>NAN</DistanceMeters>
          </Trackpoint>
          <Trackpoint>
            <Time>2022-09-23T11:23:40.000Z</Time>
            <Position>
              <LatitudeDegrees>49.607150293886661529541015625</LatitudeDegrees>
              <LongitudeDegrees>20.6778126396238803863525390625</LongitudeDegrees>
            </Position>
            <AltitudeMeters>296.20001220703125</AltitudeMeters>
            <DistanceMeters>NAN</DistanceMeters>
          </Trackpoint>
          <Trackpoint>
            <Time>2022-09-23T11:23:43.000Z</Time>
            <Position>
              <LatitudeDegrees>49.60705633275210857391357421875</LatitudeDegrees>
              <LongitudeDegrees>20.67788614891469478607177734375</LongitudeDegrees>
            </Position>
            <AltitudeMeters>297</AltitudeMeters>
            <DistanceMeters>NAN</DistanceMeters>
          </Trackpoint>
          <Trackpoint>
            <Time>2022-09-23T11:23:49.000Z</Time>
            <Position>
              <LatitudeDegrees>49.606878049671649932861328125</LatitudeDegrees>
              <LongitudeDegrees>20.6779993884265422821044921875</LongitudeDegrees>
            </Position>
            <AltitudeMeters>297.20001220703125</AltitudeMeters>
            <DistanceMeters>NAN</DistanceMeters>
          </Trackpoint>
          <Trackpoint>
            <Time>2022-09-23T11:23:56.000Z</Time>
            <Position>
              <LatitudeDegrees>49.60673413239419460296630859375</LatitudeDegrees>
              <LongitudeDegrees>20.67812184803187847137451171875</LongitudeDegrees>
            </Position>
            <AltitudeMeters>296.600006103515625</AltitudeMeters>
            <DistanceMeters>NAN</DistanceMeters>
          </Trackpoint>
          <Trackpoint>
            <Time>2022-09-23T11:24:00.000Z</Time>
            <Position>
              <LatitudeDegrees>49.60664092563092708587646484375</LatitudeDegrees>
              <LongitudeDegrees>20.67821891047060489654541015625</LongitudeDegrees>
            </Position>
            <AltitudeMeters>296.399993896484375</AltitudeMeters>
            <DistanceMeters>NAN</DistanceMeters>
          </Trackpoint>
          <Trackpoint>
            <Time>2022-09-23T11:24:04.000Z</Time>
            <Position>
              <LatitudeDegrees>49.60653279908001422882080078125</LatitudeDegrees>
              <LongitudeDegrees>20.67833407782018184661865234375</LongitudeDegrees>
            </Position>
            <AltitudeMeters>296.399993896484375</AltitudeMeters>
            <DistanceMeters>NAN</DistanceMeters>
          </Trackpoint>
          <Trackpoint>
            <Time>2022-09-23T11:24:12.000Z</Time>
            <Position>
              <LatitudeDegrees>49.6063734591007232666015625</LatitudeDegrees>
              <LongitudeDegrees>20.67861906252801418304443359375</LongitudeDegrees>
            </Position>
            <AltitudeMeters>296.399993896484375</AltitudeMeters>
            <DistanceMeters>NAN</DistanceMeters>
          </Trackpoint>
          <Trackpoint>
            <Time>2022-09-23T11:24:13.000Z</Time>
            <Position>
              <LatitudeDegrees>49.606363736093044281005859375</LatitudeDegrees>
              <LongitudeDegrees>20.67865543998777866363525390625</LongitudeDegrees>
            </Position>
            <AltitudeMeters>296.79998779296875</AltitudeMeters>
            <DistanceMeters>NAN</DistanceMeters>
          </Trackpoint>
          <Trackpoint>
            <Time>2022-09-23T11:24:16.000Z</Time>
            <Position>
              <LatitudeDegrees>49.6063457988202571868896484375</LatitudeDegrees>
              <LongitudeDegrees>20.6787250936031341552734375</LongitudeDegrees>
            </Position>
            <AltitudeMeters>297.399993896484375</AltitudeMeters>
            <DistanceMeters>NAN</DistanceMeters>
          </Trackpoint>
          <Trackpoint>
            <Time>2022-09-23T11:24:17.000Z</Time>
            <Position>
              <LatitudeDegrees>49.60634051822125911712646484375</LatitudeDegrees>
              <LongitudeDegrees>20.67874479107558727264404296875</LongitudeDegrees>
            </Position>
            <AltitudeMeters>297.600006103515625</AltitudeMeters>
            <DistanceMeters>NAN</DistanceMeters>
          </Trackpoint>
          <Trackpoint>
            <Time>2022-09-23T11:24:24.000Z</Time>
            <Position>
              <LatitudeDegrees>49.606267847120761871337890625</LatitudeDegrees>
              <LongitudeDegrees>20.67888812161982059478759765625</LongitudeDegrees>
            </Position>
            <AltitudeMeters>298</AltitudeMeters>
            <DistanceMeters>NAN</DistanceMeters>
          </Trackpoint>
          <Trackpoint>
            <Time>2022-09-23T11:24:34.000Z</Time>
            <Position>
              <LatitudeDegrees>49.606155864894390106201171875</LatitudeDegrees>
              <LongitudeDegrees>20.679075457155704498291015625</LongitudeDegrees>
            </Position>
            <AltitudeMeters>298</AltitudeMeters>
            <DistanceMeters>NAN</DistanceMeters>
          </Trackpoint>
          <Trackpoint>
            <Time>2022-09-23T11:24:36.000Z</Time>
            <Position>
              <LatitudeDegrees>49.60613071918487548828125</LatitudeDegrees>
              <LongitudeDegrees>20.67911594174802303314208984375</LongitudeDegrees>
            </Position>
            <AltitudeMeters>298</AltitudeMeters>
            <DistanceMeters>NAN</DistanceMeters>
          </Trackpoint>
          <Trackpoint>
            <Time>2022-09-23T11:24:38.000Z</Time>
            <Position>
              <LatitudeDegrees>49.60610850714147090911865234375</LatitudeDegrees>
              <LongitudeDegrees>20.67915366031229496002197265625</LongitudeDegrees>
            </Position>
            <AltitudeMeters>297.79998779296875</AltitudeMeters>
            <DistanceMeters>NAN</DistanceMeters>
          </Trackpoint>
          <Trackpoint>
            <Time>2022-09-23T11:24:40.000Z</Time>
            <Position>
              <LatitudeDegrees>49.60607967339456081390380859375</LatitudeDegrees>
              <LongitudeDegrees>20.6791936419904232025146484375</LongitudeDegrees>
            </Position>
            <AltitudeMeters>297.79998779296875</AltitudeMeters>
            <DistanceMeters>NAN</DistanceMeters>
          </Trackpoint>
          <Trackpoint>
            <Time>2022-09-23T11:24:42.000Z</Time>
            <Position>
              <LatitudeDegrees>49.606059305369853973388671875</LatitudeDegrees>
              <LongitudeDegrees>20.67923865281045436859130859375</LongitudeDegrees>
            </Position>
            <AltitudeMeters>297.79998779296875</AltitudeMeters>
            <DistanceMeters>NAN</DistanceMeters>
          </Trackpoint>
          <Trackpoint>
            <Time>2022-09-23T11:24:46.000Z</Time>
            <Position>
              <LatitudeDegrees>49.6060541085898876190185546875</LatitudeDegrees>
              <LongitudeDegrees>20.679365135729312896728515625</LongitudeDegrees>
            </Position>
            <AltitudeMeters>297.79998779296875</AltitudeMeters>
            <DistanceMeters>NAN</DistanceMeters>
          </Trackpoint>
          <Trackpoint>
            <Time>2022-09-23T11:24:47.000Z</Time>
            <Position>
              <LatitudeDegrees>49.6060648374259471893310546875</LatitudeDegrees>
              <LongitudeDegrees>20.67938583903014659881591796875</LongitudeDegrees>
            </Position>
            <AltitudeMeters>297.79998779296875</AltitudeMeters>
            <DistanceMeters>NAN</DistanceMeters>
          </Trackpoint>
          <Trackpoint>
            <Time>2022-09-23T11:24:51.000Z</Time>
            <Position>
              <LatitudeDegrees>49.6061298809945583343505859375</LatitudeDegrees>
              <LongitudeDegrees>20.6794585101306438446044921875</LongitudeDegrees>
            </Position>
            <AltitudeMeters>297.79998779296875</AltitudeMeters>
            <DistanceMeters>NAN</DistanceMeters>
          </Trackpoint>
          <Trackpoint>
            <Time>2022-09-23T11:24:55.000Z</Time>
            <Position>
              <LatitudeDegrees>49.60615527816116809844970703125</LatitudeDegrees>
              <LongitudeDegrees>20.67948482930660247802734375</LongitudeDegrees>
            </Position>
            <AltitudeMeters>297.79998779296875</AltitudeMeters>
            <DistanceMeters>NAN</DistanceMeters>
          </Trackpoint>
          <Trackpoint>
            <Time>2022-09-23T11:24:56.000Z</Time>
            <Position>
              <LatitudeDegrees>49.6061674319207668304443359375</LatitudeDegrees>
              <LongitudeDegrees>20.67949161864817142486572265625</LongitudeDegrees>
            </Position>
            <AltitudeMeters>297.79998779296875</AltitudeMeters>
            <DistanceMeters>NAN</DistanceMeters>
          </Trackpoint>
          <Trackpoint>
            <Time>2022-09-23T11:25:01.000Z</Time>
            <Position>
              <LatitudeDegrees>49.6062455512583255767822265625</LatitudeDegrees>
              <LongitudeDegrees>20.67958809435367584228515625</LongitudeDegrees>
            </Position>
            <AltitudeMeters>298</AltitudeMeters>
            <DistanceMeters>NAN</DistanceMeters>
          </Trackpoint>
          <Trackpoint>
            <Time>2022-09-23T11:25:07.000Z</Time>
            <Position>
              <LatitudeDegrees>49.60642634890973567962646484375</LatitudeDegrees>
              <LongitudeDegrees>20.67978532053530216217041015625</LongitudeDegrees>
            </Position>
            <AltitudeMeters>296.79998779296875</AltitudeMeters>
            <DistanceMeters>NAN</DistanceMeters>
          </Trackpoint>
          <Trackpoint>
            <Time>2022-09-23T11:25:08.000Z</Time>
            <Position>
              <LatitudeDegrees>49.60646490566432476043701171875</LatitudeDegrees>
              <LongitudeDegrees>20.679831840097904205322265625</LongitudeDegrees>
            </Position>
            <AltitudeMeters>296.20001220703125</AltitudeMeters>
            <DistanceMeters>NAN</DistanceMeters>
          </Trackpoint>
          <Trackpoint>
            <Time>2022-09-23T11:25:12.000Z</Time>
            <Position>
              <LatitudeDegrees>49.60663706995546817779541015625</LatitudeDegrees>
              <LongitudeDegrees>20.67999939434230327606201171875</LongitudeDegrees>
            </Position>
            <AltitudeMeters>295.399993896484375</AltitudeMeters>
            <DistanceMeters>NAN</DistanceMeters>
          </Trackpoint>
          <Trackpoint>
            <Time>2022-09-23T11:25:14.000Z</Time>
            <Position>
              <LatitudeDegrees>49.6067203022539615631103515625</LatitudeDegrees>
              <LongitudeDegrees>20.68007349036633968353271484375</LongitudeDegrees>
            </Position>
            <AltitudeMeters>295.399993896484375</AltitudeMeters>
            <DistanceMeters>NAN</DistanceMeters>
          </Trackpoint>
          <Trackpoint>
            <Time>2022-09-23T11:25:17.000Z</Time>
            <Position>
              <LatitudeDegrees>49.60684712044894695281982421875</LatitudeDegrees>
              <LongitudeDegrees>20.6801803596317768096923828125</LongitudeDegrees>
            </Position>
            <AltitudeMeters>295.399993896484375</AltitudeMeters>
            <DistanceMeters>NAN</DistanceMeters>
          </Trackpoint>
          <Trackpoint>
            <Time>2022-09-23T11:25:23.000Z</Time>
            <Position>
              <LatitudeDegrees>49.6070683188736438751220703125</LatitudeDegrees>
              <LongitudeDegrees>20.68037456832826137542724609375</LongitudeDegrees>
            </Position>
            <AltitudeMeters>295.20001220703125</AltitudeMeters>
            <DistanceMeters>NAN</DistanceMeters>
          </Trackpoint>
          <Trackpoint>
            <Time>2022-09-23T11:25:27.000Z</Time>
            <Position>
              <LatitudeDegrees>49.6071752719581127166748046875</LatitudeDegrees>
              <LongitudeDegrees>20.680492334067821502685546875</LongitudeDegrees>
            </Position>
            <AltitudeMeters>295.399993896484375</AltitudeMeters>
            <DistanceMeters>NAN</DistanceMeters>
          </Trackpoint>
          <Trackpoint>
            <Time>2022-09-23T11:25:32.000Z</Time>
            <Position>
              <LatitudeDegrees>49.6072564087808132171630859375</LatitudeDegrees>
              <LongitudeDegrees>20.6805974431335926055908203125</LongitudeDegrees>
            </Position>
            <AltitudeMeters>295.399993896484375</AltitudeMeters>
            <DistanceMeters>NAN</DistanceMeters>
          </Trackpoint>
          <Trackpoint>
            <Time>2022-09-23T11:25:37.000Z</Time>
            <Position>
              <LatitudeDegrees>49.6074086241424083709716796875</LatitudeDegrees>
              <LongitudeDegrees>20.6805722974240779876708984375</LongitudeDegrees>
            </Position>
            <AltitudeMeters>295.399993896484375</AltitudeMeters>
            <DistanceMeters>NAN</DistanceMeters>
          </Trackpoint>
          <Trackpoint>
            <Time>2022-09-23T11:25:41.000Z</Time>
            <Position>
              <LatitudeDegrees>49.607549943029880523681640625</LatitudeDegrees>
              <LongitudeDegrees>20.6805893965065479278564453125</LongitudeDegrees>
            </Position>
            <AltitudeMeters>295.399993896484375</AltitudeMeters>
            <DistanceMeters>NAN</DistanceMeters>
          </Trackpoint>
          <Trackpoint>
            <Time>2022-09-23T11:25:44.000Z</Time>
            <Position>
              <LatitudeDegrees>49.60765262134373188018798828125</LatitudeDegrees>
              <LongitudeDegrees>20.68060607649385929107666015625</LongitudeDegrees>
            </Position>
            <AltitudeMeters>295.20001220703125</AltitudeMeters>
            <DistanceMeters>NAN</DistanceMeters>
          </Trackpoint>
          <Trackpoint>
            <Time>2022-09-23T11:25:52.000Z</Time>
            <Position>
              <LatitudeDegrees>49.60794749669730663299560546875</LatitudeDegrees>
              <LongitudeDegrees>20.68064463324844837188720703125</LongitudeDegrees>
            </Position>
            <AltitudeMeters>295.20001220703125</AltitudeMeters>
            <DistanceMeters>NAN</DistanceMeters>
          </Trackpoint>
          <Trackpoint>
            <Time>2022-09-23T11:25:55.000Z</Time>
            <Position>
              <LatitudeDegrees>49.608079679310321807861328125</LatitudeDegrees>
              <LongitudeDegrees>20.6806661747395992279052734375</LongitudeDegrees>
            </Position>
            <AltitudeMeters>295.20001220703125</AltitudeMeters>
            <DistanceMeters>NAN</DistanceMeters>
          </Trackpoint>
          <Trackpoint>
            <Time>2022-09-23T11:25:58.000Z</Time>
            <Position>
              <LatitudeDegrees>49.60822477005422115325927734375</LatitudeDegrees>
              <LongitudeDegrees>20.680692158639430999755859375</LongitudeDegrees>
            </Position>
            <AltitudeMeters>295.20001220703125</AltitudeMeters>
            <DistanceMeters>NAN</DistanceMeters>
          </Trackpoint>
          <Trackpoint>
            <Time>2022-09-23T11:26:06.000Z</Time>
            <Position>
              <LatitudeDegrees>49.6085901372134685516357421875</LatitudeDegrees>
              <LongitudeDegrees>20.6807603873312473297119140625</LongitudeDegrees>
            </Position>
            <AltitudeMeters>295.20001220703125</AltitudeMeters>
            <DistanceMeters>NAN</DistanceMeters>
          </Trackpoint>
          <Trackpoint>
            <Time>2022-09-23T11:26:14.000Z</Time>
            <Position>
              <LatitudeDegrees>49.60890856571495532989501953125</LatitudeDegrees>
              <LongitudeDegrees>20.68080405704677104949951171875</LongitudeDegrees>
            </Position>
            <AltitudeMeters>295.20001220703125</AltitudeMeters>
            <DistanceMeters>NAN</DistanceMeters>
          </Trackpoint>
          <Trackpoint>
            <Time>2022-09-23T11:26:19.000Z</Time>
            <Position>
              <LatitudeDegrees>49.609089195728302001953125</LatitudeDegrees>
              <LongitudeDegrees>20.68083171732723712921142578125</LongitudeDegrees>
            </Position>
            <AltitudeMeters>295.20001220703125</AltitudeMeters>
            <DistanceMeters>NAN</DistanceMeters>
          </Trackpoint>
          <Trackpoint>
            <Time>2022-09-23T11:26:23.000Z</Time>
            <Position>
              <LatitudeDegrees>49.6092271618545055389404296875</LatitudeDegrees>
              <LongitudeDegrees>20.680845044553279876708984375</LongitudeDegrees>
            </Position>
            <AltitudeMeters>295.20001220703125</AltitudeMeters>
            <DistanceMeters>NAN</DistanceMeters>
          </Trackpoint>
          <Trackpoint>
            <Time>2022-09-23T11:26:28.000Z</Time>
            <Position>
              <LatitudeDegrees>49.6093901060521602630615234375</LatitudeDegrees>
              <LongitudeDegrees>20.680861137807369232177734375</LongitudeDegrees>
            </Position>
            <AltitudeMeters>295.20001220703125</AltitudeMeters>
            <DistanceMeters>NAN</DistanceMeters>
          </Trackpoint>
          <Trackpoint>
            <Time>2022-09-23T11:26:29.000Z</Time>
            <Position>
              <LatitudeDegrees>49.60942447185516357421875</LatitudeDegrees>
              <LongitudeDegrees>20.68086775951087474822998046875</LongitudeDegrees>
            </Position>
            <AltitudeMeters>295.20001220703125</AltitudeMeters>
            <DistanceMeters>NAN</DistanceMeters>
          </Trackpoint>
          <Trackpoint>
            <Time>2022-09-23T11:26:30.000Z</Time>
            <Position>
              <LatitudeDegrees>49.6094687283039093017578125</LatitudeDegrees>
              <LongitudeDegrees>20.68087999708950519561767578125</LongitudeDegrees>
            </Position>
            <AltitudeMeters>295.20001220703125</AltitudeMeters>
            <DistanceMeters>NAN</DistanceMeters>
          </Trackpoint>
          <Trackpoint>
            <Time>2022-09-23T11:26:32.000Z</Time>
            <Position>
              <LatitudeDegrees>49.60954005829989910125732421875</LatitudeDegrees>
              <LongitudeDegrees>20.68090162239968776702880859375</LongitudeDegrees>
            </Position>
            <AltitudeMeters>295.20001220703125</AltitudeMeters>
            <DistanceMeters>NAN</DistanceMeters>
          </Trackpoint>
          <Trackpoint>
            <Time>2022-09-23T11:26:35.000Z</Time>
            <Position>
              <LatitudeDegrees>49.609663188457489013671875</LatitudeDegrees>
              <LongitudeDegrees>20.68093146197497844696044921875</LongitudeDegrees>
            </Position>
            <AltitudeMeters>295.399993896484375</AltitudeMeters>
            <DistanceMeters>NAN</DistanceMeters>
          </Trackpoint>
          <Trackpoint>
            <Time>2022-09-23T11:26:37.000Z</Time>
            <Position>
              <LatitudeDegrees>49.60974172689020633697509765625</LatitudeDegrees>
              <LongitudeDegrees>20.68094839341938495635986328125</LongitudeDegrees>
            </Position>
            <AltitudeMeters>295.399993896484375</AltitudeMeters>
            <DistanceMeters>NAN</DistanceMeters>
          </Trackpoint>
          <Trackpoint>
            <Time>2022-09-23T11:26:41.000Z</Time>
            <Position>
              <LatitudeDegrees>49.60988874547183513641357421875</LatitudeDegrees>
              <LongitudeDegrees>20.6809742935001850128173828125</LongitudeDegrees>
            </Position>
            <AltitudeMeters>295.399993896484375</AltitudeMeters>
            <DistanceMeters>NAN</DistanceMeters>
          </Trackpoint>
          <Trackpoint>
            <Time>2022-09-23T11:26:43.000Z</Time>
            <Position>
              <LatitudeDegrees>49.6099701337516307830810546875</LatitudeDegrees>
              <LongitudeDegrees>20.6809850223362445831298828125</LongitudeDegrees>
            </Position>
            <AltitudeMeters>295.399993896484375</AltitudeMeters>
            <DistanceMeters>NAN</DistanceMeters>
          </Trackpoint>
          <Trackpoint>
            <Time>2022-09-23T11:26:45.000Z</Time>
            <Position>
              <LatitudeDegrees>49.61004280485212802886962890625</LatitudeDegrees>
              <LongitudeDegrees>20.68100170232355594635009765625</LongitudeDegrees>
            </Position>
            <AltitudeMeters>295.399993896484375</AltitudeMeters>
            <DistanceMeters>NAN</DistanceMeters>
          </Trackpoint>
          <Trackpoint>
            <Time>2022-09-23T11:26:54.000Z</Time>
            <Position>
              <LatitudeDegrees>49.61039149202406406402587890625</LatitudeDegrees>
              <LongitudeDegrees>20.68106138147413730621337890625</LongitudeDegrees>
            </Position>
            <AltitudeMeters>295.20001220703125</AltitudeMeters>
            <DistanceMeters>NAN</DistanceMeters>
          </Trackpoint>
          <Trackpoint>
            <Time>2022-09-23T11:27:01.000Z</Time>
            <Position>
              <LatitudeDegrees>49.61063347756862640380859375</LatitudeDegrees>
              <LongitudeDegrees>20.681083090603351593017578125</LongitudeDegrees>
            </Position>
            <AltitudeMeters>295.20001220703125</AltitudeMeters>
            <DistanceMeters>NAN</DistanceMeters>
          </Trackpoint>
          <Trackpoint>
            <Time>2022-09-23T11:27:05.000Z</Time>
            <Position>
              <LatitudeDegrees>49.6107509918510913848876953125</LatitudeDegrees>
              <LongitudeDegrees>20.68109440617263317108154296875</LongitudeDegrees>
            </Position>
            <AltitudeMeters>295.399993896484375</AltitudeMeters>
            <DistanceMeters>NAN</DistanceMeters>
          </Trackpoint>
          <Trackpoint>
            <Time>2022-09-23T11:27:07.000Z</Time>
            <Position>
              <LatitudeDegrees>49.61080203764140605926513671875</LatitudeDegrees>
              <LongitudeDegrees>20.68111066706478595733642578125</LongitudeDegrees>
            </Position>
            <AltitudeMeters>295.399993896484375</AltitudeMeters>
            <DistanceMeters>NAN</DistanceMeters>
          </Trackpoint>
          <Trackpoint>
            <Time>2022-09-23T11:27:08.000Z</Time>
            <Position>
              <LatitudeDegrees>49.61082433350384235382080078125</LatitudeDegrees>
              <LongitudeDegrees>20.68112290464341640472412109375</LongitudeDegrees>
            </Position>
            <AltitudeMeters>295.399993896484375</AltitudeMeters>
            <DistanceMeters>NAN</DistanceMeters>
          </Trackpoint>
          <Trackpoint>
            <Time>2022-09-23T11:27:09.000Z</Time>
            <Position>
              <LatitudeDegrees>49.61084964685142040252685546875</LatitudeDegrees>
              <LongitudeDegrees>20.68113111890852451324462890625</LongitudeDegrees>
            </Position>
            <AltitudeMeters>295.399993896484375</AltitudeMeters>
            <DistanceMeters>NAN</DistanceMeters>
          </Trackpoint>
          <Trackpoint>
            <Time>2022-09-23T11:27:10.000Z</Time>
            <Position>
              <LatitudeDegrees>49.61087445728480815887451171875</LatitudeDegrees>
              <LongitudeDegrees>20.68113782443106174468994140625</LongitudeDegrees>
            </Position>
            <AltitudeMeters>295.399993896484375</AltitudeMeters>
            <DistanceMeters>NAN</DistanceMeters>
          </Trackpoint>
          <Trackpoint>
            <Time>2022-09-23T11:27:14.000Z</Time>
            <Position>
              <LatitudeDegrees>49.610973782837390899658203125</LatitudeDegrees>
              <LongitudeDegrees>20.68118979223072528839111328125</LongitudeDegrees>
            </Position>
            <AltitudeMeters>295.600006103515625</AltitudeMeters>
            <DistanceMeters>NAN</DistanceMeters>
          </Trackpoint>
          <Trackpoint>
            <Time>2022-09-23T11:27:16.000Z</Time>
            <Position>
              <LatitudeDegrees>49.611014686524868011474609375</LatitudeDegrees>
              <LongitudeDegrees>20.6812019459903240203857421875</LongitudeDegrees>
            </Position>
            <AltitudeMeters>295.600006103515625</AltitudeMeters>
            <DistanceMeters>NAN</DistanceMeters>
          </Trackpoint>
          <Trackpoint>
            <Time>2022-09-23T11:27:17.000Z</Time>
            <Position>
              <LatitudeDegrees>49.6110351383686065673828125</LatitudeDegrees>
              <LongitudeDegrees>20.68119398318231105804443359375</LongitudeDegrees>
            </Position>
            <AltitudeMeters>295.600006103515625</AltitudeMeters>
            <DistanceMeters>NAN</DistanceMeters>
          </Trackpoint>
          <Trackpoint>
            <Time>2022-09-23T11:27:19.000Z</Time>
            <Position>
              <LatitudeDegrees>49.6110715158283710479736328125</LatitudeDegrees>
              <LongitudeDegrees>20.68118132650852203369140625</LongitudeDegrees>
            </Position>
            <AltitudeMeters>295.600006103515625</AltitudeMeters>
            <DistanceMeters>NAN</DistanceMeters>
          </Trackpoint>
          <Trackpoint>
            <Time>2022-09-23T11:27:23.000Z</Time>
            <Position>
              <LatitudeDegrees>49.61109758354723453521728515625</LatitudeDegrees>
              <LongitudeDegrees>20.6810773909091949462890625</LongitudeDegrees>
            </Position>
            <AltitudeMeters>295.600006103515625</AltitudeMeters>
            <DistanceMeters>NAN</DistanceMeters>
          </Trackpoint>
          <Trackpoint>
            <Time>2022-09-23T11:27:29.000Z</Time>
            <Position>
              <LatitudeDegrees>49.61112457327544689178466796875</LatitudeDegrees>
              <LongitudeDegrees>20.68085485137999057769775390625</LongitudeDegrees>
            </Position>
            <AltitudeMeters>295.399993896484375</AltitudeMeters>
            <DistanceMeters>NAN</DistanceMeters>
          </Trackpoint>
          <Trackpoint>
            <Time>2022-09-23T11:27:34.000Z</Time>
            <Position>
              <LatitudeDegrees>49.61115994490683078765869140625</LatitudeDegrees>
              <LongitudeDegrees>20.68062870763242244720458984375</LongitudeDegrees>
            </Position>
            <AltitudeMeters>294.79998779296875</AltitudeMeters>
            <DistanceMeters>NAN</DistanceMeters>
          </Trackpoint>
          <Trackpoint>
            <Time>2022-09-23T11:27:40.000Z</Time>
            <Position>
              <LatitudeDegrees>49.61117017082870006561279296875</LatitudeDegrees>
              <LongitudeDegrees>20.68028655834496021270751953125</LongitudeDegrees>
            </Position>
            <AltitudeMeters>294.600006103515625</AltitudeMeters>
            <DistanceMeters>NAN</DistanceMeters>
          </Trackpoint>
          <Trackpoint>
            <Time>2022-09-23T11:27:42.000Z</Time>
            <Position>
              <LatitudeDegrees>49.611186683177947998046875</LatitudeDegrees>
              <LongitudeDegrees>20.68012210540473461151123046875</LongitudeDegrees>
            </Position>
            <AltitudeMeters>294</AltitudeMeters>
            <DistanceMeters>NAN</DistanceMeters>
          </Trackpoint>
          <Trackpoint>
            <Time>2022-09-23T11:27:44.000Z</Time>
            <Position>
              <LatitudeDegrees>49.61123940534889698028564453125</LatitudeDegrees>
              <LongitudeDegrees>20.67996720783412456512451171875</LongitudeDegrees>
            </Position>
            <AltitudeMeters>293.79998779296875</AltitudeMeters>
            <DistanceMeters>NAN</DistanceMeters>
          </Trackpoint>
          <Trackpoint>
            <Time>2022-09-23T11:27:47.000Z</Time>
            <Position>
              <LatitudeDegrees>49.61133110336959362030029296875</LatitudeDegrees>
              <LongitudeDegrees>20.67977744154632091522216796875</LongitudeDegrees>
            </Position>
            <AltitudeMeters>294.20001220703125</AltitudeMeters>
            <DistanceMeters>NAN</DistanceMeters>
          </Trackpoint>
          <Trackpoint>
            <Time>2022-09-23T11:27:49.000Z</Time>
            <Position>
              <LatitudeDegrees>49.61138558574020862579345703125</LatitudeDegrees>
              <LongitudeDegrees>20.6797015853226184844970703125</LongitudeDegrees>
            </Position>
            <AltitudeMeters>295.600006103515625</AltitudeMeters>
            <DistanceMeters>NAN</DistanceMeters>
          </Trackpoint>
          <Trackpoint>
            <Time>2022-09-23T11:27:51.000Z</Time>
            <Position>
              <LatitudeDegrees>49.61144241504371166229248046875</LatitudeDegrees>
              <LongitudeDegrees>20.67969848401844501495361328125</LongitudeDegrees>
            </Position>
            <AltitudeMeters>297</AltitudeMeters>
            <DistanceMeters>NAN</DistanceMeters>
          </Trackpoint>
          <Trackpoint>
            <Time>2022-09-23T11:27:52.000Z</Time>
            <Position>
              <LatitudeDegrees>49.61146253161132335662841796875</LatitudeDegrees>
              <LongitudeDegrees>20.67971684038639068603515625</LongitudeDegrees>
            </Position>
            <AltitudeMeters>297.399993896484375</AltitudeMeters>
            <DistanceMeters>NAN</DistanceMeters>
          </Trackpoint>
          <Trackpoint>
            <Time>2022-09-23T11:27:54.000Z</Time>
            <Position>
              <LatitudeDegrees>49.61150125600397586822509765625</LatitudeDegrees>
              <LongitudeDegrees>20.679769814014434814453125</LongitudeDegrees>
            </Position>
            <AltitudeMeters>298.20001220703125</AltitudeMeters>
            <DistanceMeters>NAN</DistanceMeters>
          </Trackpoint>
          <Trackpoint>
            <Time>2022-09-23T11:27:58.000Z</Time>
            <Position>
              <LatitudeDegrees>49.6115864999592304229736328125</LatitudeDegrees>
              <LongitudeDegrees>20.6798963807523250579833984375</LongitudeDegrees>
            </Position>
            <AltitudeMeters>298.399993896484375</AltitudeMeters>
            <DistanceMeters>NAN</DistanceMeters>
          </Trackpoint>
          <Trackpoint>
            <Time>2022-09-23T11:28:05.000Z</Time>
            <Position>
              <LatitudeDegrees>49.6117688901722431182861328125</LatitudeDegrees>
              <LongitudeDegrees>20.68013132549822330474853515625</LongitudeDegrees>
            </Position>
            <AltitudeMeters>298.600006103515625</AltitudeMeters>
            <DistanceMeters>NAN</DistanceMeters>
          </Trackpoint>
          <Trackpoint>
            <Time>2022-09-23T11:28:13.000Z</Time>
            <Position>
              <LatitudeDegrees>49.61199897341430187225341796875</LatitudeDegrees>
              <LongitudeDegrees>20.68038730882108211517333984375</LongitudeDegrees>
            </Position>
            <AltitudeMeters>298.600006103515625</AltitudeMeters>
            <DistanceMeters>NAN</DistanceMeters>
          </Trackpoint>
          <Trackpoint>
            <Time>2022-09-23T11:28:22.000Z</Time>
            <Position>
              <LatitudeDegrees>49.61222059093415737152099609375</LatitudeDegrees>
              <LongitudeDegrees>20.68064094521105289459228515625</LongitudeDegrees>
            </Position>
            <AltitudeMeters>298.79998779296875</AltitudeMeters>
            <DistanceMeters>NAN</DistanceMeters>
          </Trackpoint>
          <Trackpoint>
            <Time>2022-09-23T11:28:28.000Z</Time>
            <Position>
              <LatitudeDegrees>49.612416140735149383544921875</LatitudeDegrees>
              <LongitudeDegrees>20.6808333098888397216796875</LongitudeDegrees>
            </Position>
            <AltitudeMeters>298.399993896484375</AltitudeMeters>
            <DistanceMeters>NAN</DistanceMeters>
          </Trackpoint>
          <Trackpoint>
            <Time>2022-09-23T11:28:36.000Z</Time>
            <Position>
              <LatitudeDegrees>49.612683691084384918212890625</LatitudeDegrees>
              <LongitudeDegrees>20.68107848055660724639892578125</LongitudeDegrees>
            </Position>
            <AltitudeMeters>299</AltitudeMeters>
            <DistanceMeters>NAN</DistanceMeters>
          </Trackpoint>
          <Trackpoint>
            <Time>2022-09-23T11:28:38.000Z</Time>
            <Position>
              <LatitudeDegrees>49.6127418614923954010009765625</LatitudeDegrees>
              <LongitudeDegrees>20.68113346584141254425048828125</LongitudeDegrees>
            </Position>
            <AltitudeMeters>299.20001220703125</AltitudeMeters>
            <DistanceMeters>NAN</DistanceMeters>
          </Trackpoint>
          <Trackpoint>
            <Time>2022-09-23T11:28:42.000Z</Time>
            <Position>
              <LatitudeDegrees>49.61286499164998531341552734375</LatitudeDegrees>
              <LongitudeDegrees>20.68125131540000438690185546875</LongitudeDegrees>
            </Position>
            <AltitudeMeters>298.600006103515625</AltitudeMeters>
            <DistanceMeters>NAN</DistanceMeters>
          </Trackpoint>
          <Trackpoint>
            <Time>2022-09-23T11:28:50.000Z</Time>
            <Position>
              <LatitudeDegrees>49.6130711026489734649658203125</LatitudeDegrees>
              <LongitudeDegrees>20.68144275806844234466552734375</LongitudeDegrees>
            </Position>
            <AltitudeMeters>298.600006103515625</AltitudeMeters>
            <DistanceMeters>NAN</DistanceMeters>
          </Trackpoint>
          <Trackpoint>
            <Time>2022-09-23T11:28:57.000Z</Time>
            <Position>
              <LatitudeDegrees>49.613273106515407562255859375</LatitudeDegrees>
              <LongitudeDegrees>20.6816156767308712005615234375</LongitudeDegrees>
            </Position>
            <AltitudeMeters>298.600006103515625</AltitudeMeters>
            <DistanceMeters>NAN</DistanceMeters>
          </Trackpoint>
          <Trackpoint>
            <Time>2022-09-23T11:29:03.000Z</Time>
            <Position>
              <LatitudeDegrees>49.6134791336953639984130859375</LatitudeDegrees>
              <LongitudeDegrees>20.68179110996425151824951171875</LongitudeDegrees>
            </Position>
            <AltitudeMeters>298.20001220703125</AltitudeMeters>
            <DistanceMeters>NAN</DistanceMeters>
          </Trackpoint>
          <Trackpoint>
            <Time>2022-09-23T11:29:04.000Z</Time>
            <Position>
              <LatitudeDegrees>49.61351894773542881011962890625</LatitudeDegrees>
              <LongitudeDegrees>20.68182497285306453704833984375</LongitudeDegrees>
            </Position>
            <AltitudeMeters>298.20001220703125</AltitudeMeters>
            <DistanceMeters>NAN</DistanceMeters>
          </Trackpoint>
          <Trackpoint>
            <Time>2022-09-23T11:29:05.000Z</Time>
            <Position>
              <LatitudeDegrees>49.61354660801589488983154296875</LatitudeDegrees>
              <LongitudeDegrees>20.68184508942067623138427734375</LongitudeDegrees>
            </Position>
            <AltitudeMeters>298.20001220703125</AltitudeMeters>
            <DistanceMeters>NAN</DistanceMeters>
          </Trackpoint>
          <Trackpoint>
            <Time>2022-09-23T11:29:11.000Z</Time>
            <Position>
              <LatitudeDegrees>49.61375598795711994171142578125</LatitudeDegrees>
              <LongitudeDegrees>20.68200669251382350921630859375</LongitudeDegrees>
            </Position>
            <AltitudeMeters>298</AltitudeMeters>
            <DistanceMeters>NAN</DistanceMeters>
          </Trackpoint>
          <Trackpoint>
            <Time>2022-09-23T11:29:18.000Z</Time>
            <Position>
              <LatitudeDegrees>49.614006690680980682373046875</LatitudeDegrees>
              <LongitudeDegrees>20.682199560105800628662109375</LongitudeDegrees>
            </Position>
            <AltitudeMeters>298</AltitudeMeters>
            <DistanceMeters>NAN</DistanceMeters>
          </Trackpoint>
          <Trackpoint>
            <Time>2022-09-23T11:29:20.000Z</Time>
            <Position>
              <LatitudeDegrees>49.6140722371637821197509765625</LatitudeDegrees>
              <LongitudeDegrees>20.68224356509745121002197265625</LongitudeDegrees>
            </Position>
            <AltitudeMeters>298</AltitudeMeters>
            <DistanceMeters>NAN</DistanceMeters>
          </Trackpoint>
          <Trackpoint>
            <Time>2022-09-23T11:29:27.000Z</Time>
            <Position>
              <LatitudeDegrees>49.6142968721687793731689453125</LatitudeDegrees>
              <LongitudeDegrees>20.6823982112109661102294921875</LongitudeDegrees>
            </Position>
            <AltitudeMeters>298</AltitudeMeters>
            <DistanceMeters>NAN</DistanceMeters>
          </Trackpoint>
          <Trackpoint>
            <Time>2022-09-23T11:29:32.000Z</Time>
            <Position>
              <LatitudeDegrees>49.61447465233504772186279296875</LatitudeDegrees>
              <LongitudeDegrees>20.68251128308475017547607421875</LongitudeDegrees>
            </Position>
            <AltitudeMeters>297.79998779296875</AltitudeMeters>
            <DistanceMeters>NAN</DistanceMeters>
          </Trackpoint>
          <Trackpoint>
            <Time>2022-09-23T11:29:35.000Z</Time>
            <Position>
              <LatitudeDegrees>49.6145845390856266021728515625</LatitudeDegrees>
              <LongitudeDegrees>20.6825896538794040679931640625</LongitudeDegrees>
            </Position>
            <AltitudeMeters>297.600006103515625</AltitudeMeters>
            <DistanceMeters>NAN</DistanceMeters>
          </Trackpoint>
          <Trackpoint>
            <Time>2022-09-23T11:29:41.000Z</Time>
            <Position>
              <LatitudeDegrees>49.61477288044989109039306640625</LatitudeDegrees>
              <LongitudeDegrees>20.682690404355525970458984375</LongitudeDegrees>
            </Position>
            <AltitudeMeters>297.79998779296875</AltitudeMeters>
            <DistanceMeters>NAN</DistanceMeters>
          </Trackpoint>
          <Trackpoint>
            <Time>2022-09-23T11:29:48.000Z</Time>
            <Position>
              <LatitudeDegrees>49.615014530718326568603515625</LatitudeDegrees>
              <LongitudeDegrees>20.6828397698700428009033203125</LongitudeDegrees>
            </Position>
            <AltitudeMeters>297.79998779296875</AltitudeMeters>
            <DistanceMeters>NAN</DistanceMeters>
          </Trackpoint>
          <Trackpoint>
            <Time>2022-09-23T11:29:55.000Z</Time>
            <Position>
              <LatitudeDegrees>49.6152772195637226104736328125</LatitudeDegrees>
              <LongitudeDegrees>20.68298913538455963134765625</LongitudeDegrees>
            </Position>
            <AltitudeMeters>297.79998779296875</AltitudeMeters>
            <DistanceMeters>NAN</DistanceMeters>
          </Trackpoint>
          <Trackpoint>
            <Time>2022-09-23T11:30:01.000Z</Time>
            <Position>
              <LatitudeDegrees>49.6154787205159664154052734375</LatitudeDegrees>
              <LongitudeDegrees>20.68309483118355274200439453125</LongitudeDegrees>
            </Position>
            <AltitudeMeters>298.20001220703125</AltitudeMeters>
            <DistanceMeters>NAN</DistanceMeters>
          </Trackpoint>
          <Trackpoint>
            <Time>2022-09-23T11:30:06.000Z</Time>
            <Position>
              <LatitudeDegrees>49.6156373061239719390869140625</LatitudeDegrees>
              <LongitudeDegrees>20.683154761791229248046875</LongitudeDegrees>
            </Position>
            <AltitudeMeters>298.20001220703125</AltitudeMeters>
            <DistanceMeters>NAN</DistanceMeters>
          </Trackpoint>
          <Trackpoint>
            <Time>2022-09-23T11:30:09.000Z</Time>
            <Position>
              <LatitudeDegrees>49.6157248131930828094482421875</LatitudeDegrees>
              <LongitudeDegrees>20.68320714868605136871337890625</LongitudeDegrees>
            </Position>
            <AltitudeMeters>298.399993896484375</AltitudeMeters>
            <DistanceMeters>NAN</DistanceMeters>
          </Trackpoint>
          <Trackpoint>
            <Time>2022-09-23T11:30:12.000Z</Time>
            <Position>
              <LatitudeDegrees>49.615816511213779449462890625</LatitudeDegrees>
              <LongitudeDegrees>20.68325341679155826568603515625</LongitudeDegrees>
            </Position>
            <AltitudeMeters>298.399993896484375</AltitudeMeters>
            <DistanceMeters>NAN</DistanceMeters>
          </Trackpoint>
          <Trackpoint>
            <Time>2022-09-23T11:30:18.000Z</Time>
            <Position>
              <LatitudeDegrees>49.61598205380141735076904296875</LatitudeDegrees>
              <LongitudeDegrees>20.68332600407302379608154296875</LongitudeDegrees>
            </Position>
            <AltitudeMeters>298.79998779296875</AltitudeMeters>
            <DistanceMeters>NAN</DistanceMeters>
          </Trackpoint>
          <Trackpoint>
            <Time>2022-09-23T11:30:26.000Z</Time>
            <Position>
              <LatitudeDegrees>49.61615874432027339935302734375</LatitudeDegrees>
              <LongitudeDegrees>20.68339414894580841064453125</LongitudeDegrees>
            </Position>
            <AltitudeMeters>298.600006103515625</AltitudeMeters>
            <DistanceMeters>NAN</DistanceMeters>
          </Trackpoint>
          <Trackpoint>
            <Time>2022-09-23T11:30:35.000Z</Time>
            <Position>
              <LatitudeDegrees>49.61633275263011455535888671875</LatitudeDegrees>
              <LongitudeDegrees>20.683464892208576202392578125</LongitudeDegrees>
            </Position>
            <AltitudeMeters>298.399993896484375</AltitudeMeters>
            <DistanceMeters>NAN</DistanceMeters>
          </Trackpoint>
          <Trackpoint>
            <Time>2022-09-23T11:30:39.000Z</Time>
            <Position>
              <LatitudeDegrees>49.61645730771124362945556640625</LatitudeDegrees>
              <LongitudeDegrees>20.68352649919688701629638671875</LongitudeDegrees>
            </Position>
            <AltitudeMeters>298</AltitudeMeters>
            <DistanceMeters>NAN</DistanceMeters>
          </Trackpoint>
          <Trackpoint>
            <Time>2022-09-23T11:30:45.000Z</Time>
            <Position>
              <LatitudeDegrees>49.61667574010789394378662109375</LatitudeDegrees>
              <LongitudeDegrees>20.68361283279955387115478515625</LongitudeDegrees>
            </Position>
            <AltitudeMeters>297.79998779296875</AltitudeMeters>
            <DistanceMeters>NAN</DistanceMeters>
          </Trackpoint>
          <Trackpoint>
            <Time>2022-09-23T11:30:54.000Z</Time>
            <Position>
              <LatitudeDegrees>49.6169680170714855194091796875</LatitudeDegrees>
              <LongitudeDegrees>20.683723054826259613037109375</LongitudeDegrees>
            </Position>
            <AltitudeMeters>298</AltitudeMeters>
            <DistanceMeters>NAN</DistanceMeters>
          </Trackpoint>
          <Trackpoint>
            <Time>2022-09-23T11:31:00.000Z</Time>
            <Position>
              <LatitudeDegrees>49.61720664985477924346923828125</LatitudeDegrees>
              <LongitudeDegrees>20.68383294157683849334716796875</LongitudeDegrees>
            </Position>
            <AltitudeMeters>298</AltitudeMeters>
            <DistanceMeters>NAN</DistanceMeters>
          </Trackpoint>
          <Trackpoint>
            <Time>2022-09-23T11:31:05.000Z</Time>
            <Position>
              <LatitudeDegrees>49.6174038760364055633544921875</LatitudeDegrees>
              <LongitudeDegrees>20.683920867741107940673828125</LongitudeDegrees>
            </Position>
            <AltitudeMeters>297.79998779296875</AltitudeMeters>
            <DistanceMeters>NAN</DistanceMeters>
          </Trackpoint>
          <Trackpoint>
            <Time>2022-09-23T11:31:10.000Z</Time>
            <Position>
              <LatitudeDegrees>49.61759305559098720550537109375</LatitudeDegrees>
              <LongitudeDegrees>20.683985911309719085693359375</LongitudeDegrees>
            </Position>
            <AltitudeMeters>297.79998779296875</AltitudeMeters>
            <DistanceMeters>NAN</DistanceMeters>
          </Trackpoint>
          <Trackpoint>
            <Time>2022-09-23T11:31:15.000Z</Time>
            <Position>
              <LatitudeDegrees>49.61778349243104457855224609375</LatitudeDegrees>
              <LongitudeDegrees>20.68407903425395488739013671875</LongitudeDegrees>
            </Position>
            <AltitudeMeters>297.79998779296875</AltitudeMeters>
            <DistanceMeters>NAN</DistanceMeters>
          </Trackpoint>
          <Trackpoint>
            <Time>2022-09-23T11:31:20.000Z</Time>
            <Position>
              <LatitudeDegrees>49.61797057650983333587646484375</LatitudeDegrees>
              <LongitudeDegrees>20.6841614283621311187744140625</LongitudeDegrees>
            </Position>
            <AltitudeMeters>298.20001220703125</AltitudeMeters>
            <DistanceMeters>NAN</DistanceMeters>
          </Trackpoint>
          <Trackpoint>
            <Time>2022-09-23T11:31:27.000Z</Time>
            <Position>
              <LatitudeDegrees>49.61821130476891994476318359375</LatitudeDegrees>
              <LongitudeDegrees>20.6842804513871669769287109375</LongitudeDegrees>
            </Position>
            <AltitudeMeters>298</AltitudeMeters>
            <DistanceMeters>NAN</DistanceMeters>
          </Trackpoint>
          <Trackpoint>
            <Time>2022-09-23T11:31:33.000Z</Time>
            <Position>
              <LatitudeDegrees>49.61838304996490478515625</LatitudeDegrees>
              <LongitudeDegrees>20.68435303866863250732421875</LongitudeDegrees>
            </Position>
            <AltitudeMeters>298</AltitudeMeters>
            <DistanceMeters>NAN</DistanceMeters>
          </Trackpoint>
          <Trackpoint>
            <Time>2022-09-23T11:31:41.000Z</Time>
            <Position>
              <LatitudeDegrees>49.61865202523767948150634765625</LatitudeDegrees>
              <LongitudeDegrees>20.68448639474809169769287109375</LongitudeDegrees>
            </Position>
            <AltitudeMeters>297.79998779296875</AltitudeMeters>
            <DistanceMeters>NAN</DistanceMeters>
          </Trackpoint>
          <Trackpoint>
            <Time>2022-09-23T11:31:44.000Z</Time>
            <Position>
              <LatitudeDegrees>49.6187637560069561004638671875</LatitudeDegrees>
              <LongitudeDegrees>20.68454054184257984161376953125</LongitudeDegrees>
            </Position>
            <AltitudeMeters>297.79998779296875</AltitudeMeters>
            <DistanceMeters>NAN</DistanceMeters>
          </Trackpoint>
          <Trackpoint>
            <Time>2022-09-23T11:31:53.000Z</Time>
            <Position>
              <LatitudeDegrees>49.61906609125435352325439453125</LatitudeDegrees>
              <LongitudeDegrees>20.684696026146411895751953125</LongitudeDegrees>
            </Position>
            <AltitudeMeters>297.399993896484375</AltitudeMeters>
            <DistanceMeters>NAN</DistanceMeters>
          </Trackpoint>
          <Trackpoint>
            <Time>2022-09-23T11:31:59.000Z</Time>
            <Position>
              <LatitudeDegrees>49.6192874573171138763427734375</LatitudeDegrees>
              <LongitudeDegrees>20.6848115287721157073974609375</LongitudeDegrees>
            </Position>
            <AltitudeMeters>297.20001220703125</AltitudeMeters>
            <DistanceMeters>NAN</DistanceMeters>
          </Trackpoint>
          <Trackpoint>
            <Time>2022-09-23T11:32:01.000Z</Time>
            <Position>
              <LatitudeDegrees>49.61935677565634250640869140625</LatitudeDegrees>
              <LongitudeDegrees>20.68484530784189701080322265625</LongitudeDegrees>
            </Position>
            <AltitudeMeters>297.399993896484375</AltitudeMeters>
            <DistanceMeters>NAN</DistanceMeters>
          </Trackpoint>
          <Trackpoint>
            <Time>2022-09-23T11:32:07.000Z</Time>
            <Position>
              <LatitudeDegrees>49.61954453028738498687744140625</LatitudeDegrees>
              <LongitudeDegrees>20.68494723178446292877197265625</LongitudeDegrees>
            </Position>
            <AltitudeMeters>297.600006103515625</AltitudeMeters>
            <DistanceMeters>NAN</DistanceMeters>
          </Trackpoint>
          <Trackpoint>
            <Time>2022-09-23T11:32:12.000Z</Time>
            <Position>
              <LatitudeDegrees>49.61970294825732707977294921875</LatitudeDegrees>
              <LongitudeDegrees>20.68502132780849933624267578125</LongitudeDegrees>
            </Position>
            <AltitudeMeters>297</AltitudeMeters>
            <DistanceMeters>NAN</DistanceMeters>
          </Trackpoint>
          <Trackpoint>
            <Time>2022-09-23T11:32:13.000Z</Time>
            <Position>
              <LatitudeDegrees>49.61974167264997959136962890625</LatitudeDegrees>
              <LongitudeDegrees>20.6850364990532398223876953125</LongitudeDegrees>
            </Position>
            <AltitudeMeters>297</AltitudeMeters>
            <DistanceMeters>NAN</DistanceMeters>
          </Trackpoint>
          <Trackpoint>
            <Time>2022-09-23T11:32:20.000Z</Time>
            <Position>
              <LatitudeDegrees>49.6199668943881988525390625</LatitudeDegrees>
              <LongitudeDegrees>20.68513414822518825531005859375</LongitudeDegrees>
            </Position>
            <AltitudeMeters>297.20001220703125</AltitudeMeters>
            <DistanceMeters>NAN</DistanceMeters>
          </Trackpoint>
          <Trackpoint>
            <Time>2022-09-23T11:32:21.000Z</Time>
            <Position>
              <LatitudeDegrees>49.61999849416315555572509765625</LatitudeDegrees>
              <LongitudeDegrees>20.68514957092702388763427734375</LongitudeDegrees>
            </Position>
            <AltitudeMeters>297.20001220703125</AltitudeMeters>
            <DistanceMeters>NAN</DistanceMeters>
          </Trackpoint>
          <Trackpoint>
            <Time>2022-09-23T11:32:28.000Z</Time>
            <Position>
              <LatitudeDegrees>49.62021441198885440826416015625</LatitudeDegrees>
              <LongitudeDegrees>20.68524059839546680450439453125</LongitudeDegrees>
            </Position>
            <AltitudeMeters>297.399993896484375</AltitudeMeters>
            <DistanceMeters>NAN</DistanceMeters>
          </Trackpoint>
          <Trackpoint>
            <Time>2022-09-23T11:32:35.000Z</Time>
            <Position>
              <LatitudeDegrees>49.62047584354877471923828125</LatitudeDegrees>
              <LongitudeDegrees>20.6853555142879486083984375</LongitudeDegrees>
            </Position>
            <AltitudeMeters>297</AltitudeMeters>
            <DistanceMeters>NAN</DistanceMeters>
          </Trackpoint>
          <Trackpoint>
            <Time>2022-09-23T11:32:42.000Z</Time>
            <Position>
              <LatitudeDegrees>49.6207378618419170379638671875</LatitudeDegrees>
              <LongitudeDegrees>20.685487277805805206298828125</LongitudeDegrees>
            </Position>
            <AltitudeMeters>297.20001220703125</AltitudeMeters>
            <DistanceMeters>NAN</DistanceMeters>
          </Trackpoint>
          <Trackpoint>
            <Time>2022-09-23T11:32:44.000Z</Time>
            <Position>
              <LatitudeDegrees>49.6208022348582744598388671875</LatitudeDegrees>
              <LongitudeDegrees>20.68551803939044475555419921875</LongitudeDegrees>
            </Position>
            <AltitudeMeters>297.399993896484375</AltitudeMeters>
            <DistanceMeters>NAN</DistanceMeters>
          </Trackpoint>
          <Trackpoint>
            <Time>2022-09-23T11:32:46.000Z</Time>
            <Position>
              <LatitudeDegrees>49.62086283601820468902587890625</LatitudeDegrees>
              <LongitudeDegrees>20.6855370663106441497802734375</LongitudeDegrees>
            </Position>
            <AltitudeMeters>297.399993896484375</AltitudeMeters>
            <DistanceMeters>NAN</DistanceMeters>
          </Trackpoint>
          <Trackpoint>
            <Time>2022-09-23T11:32:53.000Z</Time>
            <Position>
              <LatitudeDegrees>49.62106861174106597900390625</LatitudeDegrees>
              <LongitudeDegrees>20.6856011040508747100830078125</LongitudeDegrees>
            </Position>
            <AltitudeMeters>297.399993896484375</AltitudeMeters>
            <DistanceMeters>NAN</DistanceMeters>
          </Trackpoint>
          <Trackpoint>
            <Time>2022-09-23T11:32:57.000Z</Time>
            <Position>
              <LatitudeDegrees>49.621195681393146514892578125</LatitudeDegrees>
              <LongitudeDegrees>20.685632117092609405517578125</LongitudeDegrees>
            </Position>
            <AltitudeMeters>297.399993896484375</AltitudeMeters>
            <DistanceMeters>NAN</DistanceMeters>
          </Trackpoint>
          <Trackpoint>
            <Time>2022-09-23T11:32:59.000Z</Time>
            <Position>
              <LatitudeDegrees>49.621249325573444366455078125</LatitudeDegrees>
              <LongitudeDegrees>20.6856473721563816070556640625</LongitudeDegrees>
            </Position>
            <AltitudeMeters>297.399993896484375</AltitudeMeters>
            <DistanceMeters>NAN</DistanceMeters>
          </Trackpoint>
          <Trackpoint>
            <Time>2022-09-23T11:33:06.000Z</Time>
            <Position>
              <LatitudeDegrees>49.62144504301249980926513671875</LatitudeDegrees>
              <LongitudeDegrees>20.68567327223718166351318359375</LongitudeDegrees>
            </Position>
            <AltitudeMeters>297.399993896484375</AltitudeMeters>
            <DistanceMeters>NAN</DistanceMeters>
          </Trackpoint>
          <Trackpoint>
            <Time>2022-09-23T11:33:12.000Z</Time>
            <Position>
              <LatitudeDegrees>49.6216038800776004791259765625</LatitudeDegrees>
              <LongitudeDegrees>20.68568383343517780303955078125</LongitudeDegrees>
            </Position>
            <AltitudeMeters>297.20001220703125</AltitudeMeters>
            <DistanceMeters>NAN</DistanceMeters>
          </Trackpoint>
          <Trackpoint>
            <Time>2022-09-23T11:33:18.000Z</Time>
            <Position>
              <LatitudeDegrees>49.62177344597876071929931640625</LatitudeDegrees>
              <LongitudeDegrees>20.6857660599052906036376953125</LongitudeDegrees>
            </Position>
            <AltitudeMeters>297.20001220703125</AltitudeMeters>
            <DistanceMeters>NAN</DistanceMeters>
          </Trackpoint>
          <Trackpoint>
            <Time>2022-09-23T11:33:25.000Z</Time>
            <Position>
              <LatitudeDegrees>49.62191945873200893402099609375</LatitudeDegrees>
              <LongitudeDegrees>20.68582599051296710968017578125</LongitudeDegrees>
            </Position>
            <AltitudeMeters>297.399993896484375</AltitudeMeters>
            <DistanceMeters>NAN</DistanceMeters>
          </Trackpoint>
          <Trackpoint>
            <Time>2022-09-23T11:33:28.000Z</Time>
            <Position>
              <LatitudeDegrees>49.62192968465387821197509765625</LatitudeDegrees>
              <LongitudeDegrees>20.68576564081013202667236328125</LongitudeDegrees>
            </Position>
            <AltitudeMeters>297.20001220703125</AltitudeMeters>
            <DistanceMeters>NAN</DistanceMeters>
          </Trackpoint>
          <Trackpoint>
            <Time>2022-09-23T11:33:29.000Z</Time>
            <Position>
              <LatitudeDegrees>49.6219140104949474334716796875</LatitudeDegrees>
              <LongitudeDegrees>20.6857543252408504486083984375</LongitudeDegrees>
            </Position>
            <AltitudeMeters>297.20001220703125</AltitudeMeters>
            <DistanceMeters>NAN</DistanceMeters>
          </Trackpoint>
          <Trackpoint>
            <Time>2022-09-23T11:33:31.000Z</Time>
            <Position>
              <LatitudeDegrees>49.62185181677341461181640625</LatitudeDegrees>
              <LongitudeDegrees>20.6857390701770782470703125</LongitudeDegrees>
            </Position>
            <AltitudeMeters>297</AltitudeMeters>
            <DistanceMeters>NAN</DistanceMeters>
          </Trackpoint>
          <Trackpoint>
            <Time>2022-09-23T11:33:33.000Z</Time>
            <Position>
              <LatitudeDegrees>49.6217795647680759429931640625</LatitudeDegrees>
              <LongitudeDegrees>20.685680396854877471923828125</LongitudeDegrees>
            </Position>
            <AltitudeMeters>296.79998779296875</AltitudeMeters>
            <DistanceMeters>NAN</DistanceMeters>
          </Trackpoint>
          <Trackpoint>
            <Time>2022-09-23T11:33:35.000Z</Time>
            <Position>
              <LatitudeDegrees>49.62169365026056766510009765625</LatitudeDegrees>
              <LongitudeDegrees>20.6855856813490390777587890625</LongitudeDegrees>
            </Position>
            <AltitudeMeters>296</AltitudeMeters>
            <DistanceMeters>NAN</DistanceMeters>
          </Trackpoint>
          <Trackpoint>
            <Time>2022-09-23T11:33:36.000Z</Time>
            <Position>
              <LatitudeDegrees>49.6216499805450439453125</LatitudeDegrees>
              <LongitudeDegrees>20.6855253316462039947509765625</LongitudeDegrees>
            </Position>
            <AltitudeMeters>295.79998779296875</AltitudeMeters>
            <DistanceMeters>NAN</DistanceMeters>
          </Trackpoint>
          <Trackpoint>
            <Time>2022-09-23T11:33:37.000Z</Time>
            <Position>
              <LatitudeDegrees>49.62161050178110599517822265625</LatitudeDegrees>
              <LongitudeDegrees>20.6854542531073093414306640625</LongitudeDegrees>
            </Position>
            <AltitudeMeters>295.600006103515625</AltitudeMeters>
            <DistanceMeters>NAN</DistanceMeters>
          </Trackpoint>
          <Trackpoint>
            <Time>2022-09-23T11:33:38.000Z</Time>
            <Position>
              <LatitudeDegrees>49.621577225625514984130859375</LatitudeDegrees>
              <LongitudeDegrees>20.6853808276355266571044921875</LongitudeDegrees>
            </Position>
            <AltitudeMeters>294.79998779296875</AltitudeMeters>
            <DistanceMeters>NAN</DistanceMeters>
          </Trackpoint>
          <Trackpoint>
            <Time>2022-09-23T11:33:39.000Z</Time>
            <Position>
              <LatitudeDegrees>49.62154948152601718902587890625</LatitudeDegrees>
              <LongitudeDegrees>20.68530363030731678009033203125</LongitudeDegrees>
            </Position>
            <AltitudeMeters>294.399993896484375</AltitudeMeters>
            <DistanceMeters>NAN</DistanceMeters>
          </Trackpoint>
          <Trackpoint>
            <Time>2022-09-23T11:33:40.000Z</Time>
            <Position>
              <LatitudeDegrees>49.6215274371206760406494140625</LatitudeDegrees>
              <LongitudeDegrees>20.6852380000054836273193359375</LongitudeDegrees>
            </Position>
            <AltitudeMeters>294.20001220703125</AltitudeMeters>
            <DistanceMeters>NAN</DistanceMeters>
          </Trackpoint>
          <Trackpoint>
            <Time>2022-09-23T11:33:41.000Z</Time>
            <Position>
              <LatitudeDegrees>49.62150321342051029205322265625</LatitudeDegrees>
              <LongitudeDegrees>20.68516440689563751220703125</LongitudeDegrees>
            </Position>
            <AltitudeMeters>294</AltitudeMeters>
            <DistanceMeters>NAN</DistanceMeters>
          </Trackpoint>
          <Trackpoint>
            <Time>2022-09-23T11:33:43.000Z</Time>
            <Position>
              <LatitudeDegrees>49.62152592837810516357421875</LatitudeDegrees>
              <LongitudeDegrees>20.685052759945392608642578125</LongitudeDegrees>
            </Position>
            <AltitudeMeters>293.79998779296875</AltitudeMeters>
            <DistanceMeters>NAN</DistanceMeters>
          </Trackpoint>
          <Trackpoint>
            <Time>2022-09-23T11:33:48.000Z</Time>
            <Position>
              <LatitudeDegrees>49.621740169823169708251953125</LatitudeDegrees>
              <LongitudeDegrees>20.68486592732369899749755859375</LongitudeDegrees>
            </Position>
            <AltitudeMeters>293.600006103515625</AltitudeMeters>
            <DistanceMeters>NAN</DistanceMeters>
          </Trackpoint>
          <Trackpoint>
            <Time>2022-09-23T11:33:50.000Z</Time>
            <Position>
              <LatitudeDegrees>49.62181803770363330841064453125</LatitudeDegrees>
              <LongitudeDegrees>20.6848232634365558624267578125</LongitudeDegrees>
            </Position>
            <AltitudeMeters>293.600006103515625</AltitudeMeters>
            <DistanceMeters>NAN</DistanceMeters>
          </Trackpoint>
          <Trackpoint>
            <Time>2022-09-23T11:33:52.000Z</Time>
            <Position>
              <LatitudeDegrees>49.62190210819244384765625</LatitudeDegrees>
              <LongitudeDegrees>20.68482267670333385467529296875</LongitudeDegrees>
            </Position>
            <AltitudeMeters>293.79998779296875</AltitudeMeters>
            <DistanceMeters>NAN</DistanceMeters>
          </Trackpoint>
          <Trackpoint>
            <Time>2022-09-23T11:33:53.000Z</Time>
            <Position>
              <LatitudeDegrees>49.6219465322792530059814453125</LatitudeDegrees>
              <LongitudeDegrees>20.68482913076877593994140625</LongitudeDegrees>
            </Position>
            <AltitudeMeters>293.79998779296875</AltitudeMeters>
            <DistanceMeters>NAN</DistanceMeters>
          </Trackpoint>
          <Trackpoint>
            <Time>2022-09-23T11:33:54.000Z</Time>
            <Position>
              <LatitudeDegrees>49.621999673545360565185546875</LatitudeDegrees>
              <LongitudeDegrees>20.68485067225992679595947265625</LongitudeDegrees>
            </Position>
            <AltitudeMeters>294</AltitudeMeters>
            <DistanceMeters>NAN</DistanceMeters>
          </Trackpoint>
          <Trackpoint>
            <Time>2022-09-23T11:33:59.000Z</Time>
            <Position>
              <LatitudeDegrees>49.6222124062478542327880859375</LatitudeDegrees>
              <LongitudeDegrees>20.6849828548729419708251953125</LongitudeDegrees>
            </Position>
            <AltitudeMeters>294</AltitudeMeters>
            <DistanceMeters>NAN</DistanceMeters>
          </Trackpoint>
          <Trackpoint>
            <Time>2022-09-23T11:34:02.000Z</Time>
            <Position>
              <LatitudeDegrees>49.6223334409296512603759765625</LatitudeDegrees>
              <LongitudeDegrees>20.68507430143654346466064453125</LongitudeDegrees>
            </Position>
            <AltitudeMeters>293.79998779296875</AltitudeMeters>
            <DistanceMeters>NAN</DistanceMeters>
          </Trackpoint>
          <Trackpoint>
            <Time>2022-09-23T11:34:05.000Z</Time>
            <Position>
              <LatitudeDegrees>49.6224533021450042724609375</LatitudeDegrees>
              <LongitudeDegrees>20.6851431168615818023681640625</LongitudeDegrees>
            </Position>
            <AltitudeMeters>293.79998779296875</AltitudeMeters>
            <DistanceMeters>NAN</DistanceMeters>
          </Trackpoint>
          <Trackpoint>
            <Time>2022-09-23T11:34:06.000Z</Time>
            <Position>
              <LatitudeDegrees>49.62248758412897586822509765625</LatitudeDegrees>
              <LongitudeDegrees>20.68516951985657215118408203125</LongitudeDegrees>
            </Position>
            <AltitudeMeters>293.79998779296875</AltitudeMeters>
            <DistanceMeters>NAN</DistanceMeters>
          </Trackpoint>
          <Trackpoint>
            <Time>2022-09-23T11:34:07.000Z</Time>
            <Position>
              <LatitudeDegrees>49.622523374855518341064453125</LatitudeDegrees>
              <LongitudeDegrees>20.68518963642418384552001953125</LongitudeDegrees>
            </Position>
            <AltitudeMeters>293.79998779296875</AltitudeMeters>
            <DistanceMeters>NAN</DistanceMeters>
          </Trackpoint>
          <Trackpoint>
            <Time>2022-09-23T11:34:08.000Z</Time>
            <Position>
              <LatitudeDegrees>49.6225590817630290985107421875</LatitudeDegrees>
              <LongitudeDegrees>20.68521025590598583221435546875</LongitudeDegrees>
            </Position>
            <AltitudeMeters>293.79998779296875</AltitudeMeters>
            <DistanceMeters>NAN</DistanceMeters>
          </Trackpoint>
          <Trackpoint>
            <Time>2022-09-23T11:34:11.000Z</Time>
            <Position>
              <LatitudeDegrees>49.62265002541244029998779296875</LatitudeDegrees>
              <LongitudeDegrees>20.68526390008628368377685546875</LongitudeDegrees>
            </Position>
            <AltitudeMeters>293.79998779296875</AltitudeMeters>
            <DistanceMeters>NAN</DistanceMeters>
          </Trackpoint>
          <Trackpoint>
            <Time>2022-09-23T11:34:17.000Z</Time>
            <Position>
              <LatitudeDegrees>49.62285923771560192108154296875</LatitudeDegrees>
              <LongitudeDegrees>20.68535828031599521636962890625</LongitudeDegrees>
            </Position>
            <AltitudeMeters>293.600006103515625</AltitudeMeters>
            <DistanceMeters>NAN</DistanceMeters>
          </Trackpoint>
          <Trackpoint>
            <Time>2022-09-23T11:34:24.000Z</Time>
            <Position>
              <LatitudeDegrees>49.62311438284814357757568359375</LatitudeDegrees>
              <LongitudeDegrees>20.68547043018043041229248046875</LongitudeDegrees>
            </Position>
            <AltitudeMeters>293.600006103515625</AltitudeMeters>
            <DistanceMeters>NAN</DistanceMeters>
          </Trackpoint>
          <Trackpoint>
            <Time>2022-09-23T11:34:31.000Z</Time>
            <Position>
              <LatitudeDegrees>49.62337992154061794281005859375</LatitudeDegrees>
              <LongitudeDegrees>20.68558978848159313201904296875</LongitudeDegrees>
            </Position>
            <AltitudeMeters>293.399993896484375</AltitudeMeters>
            <DistanceMeters>NAN</DistanceMeters>
          </Trackpoint>
          <Trackpoint>
            <Time>2022-09-23T11:34:41.000Z</Time>
            <Position>
              <LatitudeDegrees>49.623712264001369476318359375</LatitudeDegrees>
              <LongitudeDegrees>20.68576832301914691925048828125</LongitudeDegrees>
            </Position>
            <AltitudeMeters>293.79998779296875</AltitudeMeters>
            <DistanceMeters>NAN</DistanceMeters>
          </Trackpoint>
          <Trackpoint>
            <Time>2022-09-23T11:34:48.000Z</Time>
            <Position>
              <LatitudeDegrees>49.623927175998687744140625</LatitudeDegrees>
              <LongitudeDegrees>20.685858763754367828369140625</LongitudeDegrees>
            </Position>
            <AltitudeMeters>293.79998779296875</AltitudeMeters>
            <DistanceMeters>NAN</DistanceMeters>
          </Trackpoint>
          <Trackpoint>
            <Time>2022-09-23T11:34:54.000Z</Time>
            <Position>
              <LatitudeDegrees>49.624121300876140594482421875</LatitudeDegrees>
              <LongitudeDegrees>20.6861020065844058990478515625</LongitudeDegrees>
            </Position>
            <AltitudeMeters>293.600006103515625</AltitudeMeters>
            <DistanceMeters>NAN</DistanceMeters>
          </Trackpoint>
          <Trackpoint>
            <Time>2022-09-23T11:34:59.000Z</Time>
            <Position>
              <LatitudeDegrees>49.624274857342243194580078125</LatitudeDegrees>
              <LongitudeDegrees>20.6862146593630313873291015625</LongitudeDegrees>
            </Position>
            <AltitudeMeters>293.79998779296875</AltitudeMeters>
            <DistanceMeters>NAN</DistanceMeters>
          </Trackpoint>
          <Trackpoint>
            <Time>2022-09-23T11:35:02.000Z</Time>
            <Position>
              <LatitudeDegrees>49.62427812628448009490966796875</LatitudeDegrees>
              <LongitudeDegrees>20.6862176768481731414794921875</LongitudeDegrees>
            </Position>
            <AltitudeMeters>294.20001220703125</AltitudeMeters>
            <DistanceMeters>NAN</DistanceMeters>
          </Trackpoint>
          <Trackpoint>
            <Time>2022-09-23T11:35:12.000Z</Time>
            <Position>
              <LatitudeDegrees>49.624267481267452239990234375</LatitudeDegrees>
              <LongitudeDegrees>20.68621709011495113372802734375</LongitudeDegrees>
            </Position>
            <AltitudeMeters>294</AltitudeMeters>
            <DistanceMeters>NAN</DistanceMeters>
          </Trackpoint>
          <Trackpoint>
            <Time>2022-09-23T11:35:14.000Z</Time>
            <Position>
              <LatitudeDegrees>49.62425532750785350799560546875</LatitudeDegrees>
              <LongitudeDegrees>20.68621315062046051025390625</LongitudeDegrees>
            </Position>
            <AltitudeMeters>294</AltitudeMeters>
            <DistanceMeters>NAN</DistanceMeters>
          </Trackpoint>
          <Trackpoint>
            <Time>2022-09-23T11:35:15.000Z</Time>
            <Position>
              <LatitudeDegrees>49.6242471970617771148681640625</LatitudeDegrees>
              <LongitudeDegrees>20.686208121478557586669921875</LongitudeDegrees>
            </Position>
            <AltitudeMeters>294</AltitudeMeters>
            <DistanceMeters>NAN</DistanceMeters>
          </Trackpoint>
          <Trackpoint>
            <Time>2022-09-23T11:35:21.000Z</Time>
            <Position>
              <LatitudeDegrees>49.62419128976762294769287109375</LatitudeDegrees>
              <LongitudeDegrees>20.68617937155067920684814453125</LongitudeDegrees>
            </Position>
            <AltitudeMeters>294</AltitudeMeters>
            <DistanceMeters>NAN</DistanceMeters>
          </Trackpoint>
          <Trackpoint>
            <Time>2022-09-23T11:35:29.000Z</Time>
            <Position>
              <LatitudeDegrees>49.62411451153457164764404296875</LatitudeDegrees>
              <LongitudeDegrees>20.68614768795669078826904296875</LongitudeDegrees>
            </Position>
            <AltitudeMeters>294</AltitudeMeters>
            <DistanceMeters>NAN</DistanceMeters>
          </Trackpoint>
          <Trackpoint>
            <Time>2022-09-23T11:35:31.000Z</Time>
            <Position>
              <LatitudeDegrees>49.624094478785991668701171875</LatitudeDegrees>
              <LongitudeDegrees>20.6861526332795619964599609375</LongitudeDegrees>
            </Position>
            <AltitudeMeters>294.20001220703125</AltitudeMeters>
            <DistanceMeters>NAN</DistanceMeters>
          </Trackpoint>
          <Trackpoint>
            <Time>2022-09-23T11:35:33.000Z</Time>
            <Position>
              <LatitudeDegrees>49.62407712824642658233642578125</LatitudeDegrees>
              <LongitudeDegrees>20.68615757860243320465087890625</LongitudeDegrees>
            </Position>
            <AltitudeMeters>294.20001220703125</AltitudeMeters>
            <DistanceMeters>NAN</DistanceMeters>
          </Trackpoint>
          <Trackpoint>
            <Time>2022-09-23T11:35:35.000Z</Time>
            <Position>
              <LatitudeDegrees>49.62406505830585956573486328125</LatitudeDegrees>
              <LongitudeDegrees>20.68616294302046298980712890625</LongitudeDegrees>
            </Position>
            <AltitudeMeters>294.20001220703125</AltitudeMeters>
            <DistanceMeters>NAN</DistanceMeters>
          </Trackpoint>
          <Trackpoint>
            <Time>2022-09-23T11:35:38.000Z</Time>
            <Position>
              <LatitudeDegrees>49.62403513491153717041015625</LatitudeDegrees>
              <LongitudeDegrees>20.686171241104602813720703125</LongitudeDegrees>
            </Position>
            <AltitudeMeters>294</AltitudeMeters>
            <DistanceMeters>NAN</DistanceMeters>
          </Trackpoint>
          <Trackpoint>
            <Time>2022-09-23T11:35:40.000Z</Time>
            <Position>
              <LatitudeDegrees>49.62401577271521091461181640625</LatitudeDegrees>
              <LongitudeDegrees>20.6861677207052707672119140625</LongitudeDegrees>
            </Position>
            <AltitudeMeters>294</AltitudeMeters>
            <DistanceMeters>NAN</DistanceMeters>
          </Trackpoint>
          <Trackpoint>
            <Time>2022-09-23T11:35:42.000Z</Time>
            <Position>
              <LatitudeDegrees>49.62401292286813259124755859375</LatitudeDegrees>
              <LongitudeDegrees>20.6861650384962558746337890625</LongitudeDegrees>
            </Position>
            <AltitudeMeters>294</AltitudeMeters>
            <DistanceMeters>NAN</DistanceMeters>
          </Trackpoint>
          <Trackpoint>
            <Time>2022-09-23T11:35:48.000Z</Time>
            <Position>
              <LatitudeDegrees>49.62399146519601345062255859375</LatitudeDegrees>
              <LongitudeDegrees>20.68616688251495361328125</LongitudeDegrees>
            </Position>
            <AltitudeMeters>294.20001220703125</AltitudeMeters>
            <DistanceMeters>NAN</DistanceMeters>
          </Trackpoint>
          <Trackpoint>
            <Time>2022-09-23T11:35:56.000Z</Time>
            <Position>
              <LatitudeDegrees>49.623972438275814056396484375</LatitudeDegrees>
              <LongitudeDegrees>20.68616478703916072845458984375</LongitudeDegrees>
            </Position>
            <AltitudeMeters>294.20001220703125</AltitudeMeters>
            <DistanceMeters>NAN</DistanceMeters>
          </Trackpoint>
          <Trackpoint>
            <Time>2022-09-23T11:36:00.000Z</Time>
            <Position>
              <LatitudeDegrees>49.623972438275814056396484375</LatitudeDegrees>
              <LongitudeDegrees>20.68616478703916072845458984375</LongitudeDegrees>
            </Position>
            <AltitudeMeters>294.20001220703125</AltitudeMeters>
            <DistanceMeters>NAN</DistanceMeters>
          </Trackpoint>
          <Trackpoint>
            <Time>2022-09-23T11:36:25.000Z</Time>
            <Position>
              <LatitudeDegrees>49.623972438275814056396484375</LatitudeDegrees>
              <LongitudeDegrees>20.68616478703916072845458984375</LongitudeDegrees>
            </Position>
            <AltitudeMeters>294.20001220703125</AltitudeMeters>
            <DistanceMeters>NAN</DistanceMeters>
          </Trackpoint>
          <Trackpoint>
            <Time>2022-09-23T11:36:43.000Z</Time>
            <Position>
              <LatitudeDegrees>49.623972438275814056396484375</LatitudeDegrees>
              <LongitudeDegrees>20.68616478703916072845458984375</LongitudeDegrees>
            </Position>
            <AltitudeMeters>294</AltitudeMeters>
            <DistanceMeters>NAN</DistanceMeters>
          </Trackpoint>
          <Trackpoint>
            <Time>2022-09-23T11:36:45.000Z</Time>
            <Position>
              <LatitudeDegrees>49.623972438275814056396484375</LatitudeDegrees>
              <LongitudeDegrees>20.68616478703916072845458984375</LongitudeDegrees>
            </Position>
            <AltitudeMeters>294</AltitudeMeters>
            <DistanceMeters>NAN</DistanceMeters>
          </Trackpoint>
          <Trackpoint>
            <Time>2022-09-23T11:36:49.000Z</Time>
            <Position>
              <LatitudeDegrees>49.623972438275814056396484375</LatitudeDegrees>
              <LongitudeDegrees>20.68616478703916072845458984375</LongitudeDegrees>
            </Position>
            <AltitudeMeters>294</AltitudeMeters>
            <DistanceMeters>NAN</DistanceMeters>
          </Trackpoint>
          <Trackpoint>
            <Time>2022-09-23T11:36:51.000Z</Time>
            <Position>
              <LatitudeDegrees>49.6239749528467655181884765625</LatitudeDegrees>
              <LongitudeDegrees>20.686164535582065582275390625</LongitudeDegrees>
            </Position>
            <AltitudeMeters>294</AltitudeMeters>
            <DistanceMeters>NAN</DistanceMeters>
          </Trackpoint>
          <Trackpoint>
            <Time>2022-09-23T11:36:54.000Z</Time>
            <Position>
              <LatitudeDegrees>49.62398895062506198883056640625</LatitudeDegrees>
              <LongitudeDegrees>20.68617300130426883697509765625</LongitudeDegrees>
            </Position>
            <AltitudeMeters>294</AltitudeMeters>
            <DistanceMeters>NAN</DistanceMeters>
          </Trackpoint>
          <Trackpoint>
            <Time>2022-09-23T11:36:59.000Z</Time>
            <Position>
              <LatitudeDegrees>49.62398727424442768096923828125</LatitudeDegrees>
              <LongitudeDegrees>20.68621641956269741058349609375</LongitudeDegrees>
            </Position>
            <AltitudeMeters>294</AltitudeMeters>
            <DistanceMeters>NAN</DistanceMeters>
          </Trackpoint>
          <Trackpoint>
            <Time>2022-09-23T11:37:28.000Z</Time>
            <Position>
              <LatitudeDegrees>49.62400621734559535980224609375</LatitudeDegrees>
              <LongitudeDegrees>20.686222203075885772705078125</LongitudeDegrees>
            </Position>
            <AltitudeMeters>294</AltitudeMeters>
            <DistanceMeters>NAN</DistanceMeters>
          </Trackpoint>
          <Trackpoint>
            <Time>2022-09-23T11:37:29.000Z</Time>
            <Position>
              <LatitudeDegrees>49.6240151859819889068603515625</LatitudeDegrees>
              <LongitudeDegrees>20.686212480068206787109375</LongitudeDegrees>
            </Position>
            <AltitudeMeters>294</AltitudeMeters>
            <DistanceMeters>NAN</DistanceMeters>
          </Trackpoint>
          <Trackpoint>
            <Time>2022-09-23T11:37:31.000Z</Time>
            <Position>
              <LatitudeDegrees>49.624016024172306060791015625</LatitudeDegrees>
              <LongitudeDegrees>20.68618305958807468414306640625</LongitudeDegrees>
            </Position>
            <AltitudeMeters>294</AltitudeMeters>
            <DistanceMeters>NAN</DistanceMeters>
          </Trackpoint>
          <Trackpoint>
            <Time>2022-09-23T11:37:33.000Z</Time>
            <Position>
              <LatitudeDegrees>49.62402113713324069976806640625</LatitudeDegrees>
              <LongitudeDegrees>20.68616059608757495880126953125</LongitudeDegrees>
            </Position>
            <AltitudeMeters>294</AltitudeMeters>
            <DistanceMeters>NAN</DistanceMeters>
          </Trackpoint>
          <Trackpoint>
            <Time>2022-09-23T11:37:37.000Z</Time>
            <Position>
              <LatitudeDegrees>49.62402113713324069976806640625</LatitudeDegrees>
              <LongitudeDegrees>20.68616059608757495880126953125</LongitudeDegrees>
            </Position>
            <AltitudeMeters>294</AltitudeMeters>
            <DistanceMeters>NAN</DistanceMeters>
          </Trackpoint>
          <Trackpoint>
            <Time>2022-09-23T11:37:41.000Z</Time>
            <Position>
              <LatitudeDegrees>49.62402113713324069976806640625</LatitudeDegrees>
              <LongitudeDegrees>20.68616059608757495880126953125</LongitudeDegrees>
            </Position>
            <AltitudeMeters>294</AltitudeMeters>
            <DistanceMeters>NAN</DistanceMeters>
          </Trackpoint>
          <Trackpoint>
            <Time>2022-09-23T11:37:42.000Z</Time>
            <Position>
              <LatitudeDegrees>49.62402113713324069976806640625</LatitudeDegrees>
              <LongitudeDegrees>20.68616059608757495880126953125</LongitudeDegrees>
            </Position>
            <AltitudeMeters>294</AltitudeMeters>
            <DistanceMeters>NAN</DistanceMeters>
          </Trackpoint>
          <Trackpoint>
            <Time>2022-09-23T11:37:47.000Z</Time>
            <Position>
              <LatitudeDegrees>49.62402164004743099212646484375</LatitudeDegrees>
              <LongitudeDegrees>20.68616059608757495880126953125</LongitudeDegrees>
            </Position>
            <AltitudeMeters>294</AltitudeMeters>
            <DistanceMeters>NAN</DistanceMeters>
          </Trackpoint>
          <Trackpoint>
            <Time>2022-09-23T11:37:53.000Z</Time>
            <Position>
              <LatitudeDegrees>49.624022059142589569091796875</LatitudeDegrees>
              <LongitudeDegrees>20.686149112880229949951171875</LongitudeDegrees>
            </Position>
            <AltitudeMeters>294</AltitudeMeters>
            <DistanceMeters>NAN</DistanceMeters>
          </Trackpoint>
          <Trackpoint>
            <Time>2022-09-23T11:38:12.000Z</Time>
            <Position>
              <LatitudeDegrees>49.624022059142589569091796875</LatitudeDegrees>
              <LongitudeDegrees>20.686149112880229949951171875</LongitudeDegrees>
            </Position>
            <AltitudeMeters>294</AltitudeMeters>
            <DistanceMeters>NAN</DistanceMeters>
          </Trackpoint>
          <Trackpoint>
            <Time>2022-09-23T11:38:18.000Z</Time>
            <Position>
              <LatitudeDegrees>49.624022059142589569091796875</LatitudeDegrees>
              <LongitudeDegrees>20.686149112880229949951171875</LongitudeDegrees>
            </Position>
            <AltitudeMeters>294</AltitudeMeters>
            <DistanceMeters>NAN</DistanceMeters>
          </Trackpoint>
          <Trackpoint>
            <Time>2022-09-23T11:38:26.000Z</Time>
            <Position>
              <LatitudeDegrees>49.624022059142589569091796875</LatitudeDegrees>
              <LongitudeDegrees>20.686149112880229949951171875</LongitudeDegrees>
            </Position>
            <AltitudeMeters>294</AltitudeMeters>
            <DistanceMeters>NAN</DistanceMeters>
          </Trackpoint>
          <Trackpoint>
            <Time>2022-09-23T11:38:34.000Z</Time>
            <Position>
              <LatitudeDegrees>49.624020047485828399658203125</LatitudeDegrees>
              <LongitudeDegrees>20.686145089566707611083984375</LongitudeDegrees>
            </Position>
            <AltitudeMeters>294.20001220703125</AltitudeMeters>
            <DistanceMeters>NAN</DistanceMeters>
          </Trackpoint>
          <Trackpoint>
            <Time>2022-09-23T11:38:40.000Z</Time>
            <Position>
              <LatitudeDegrees>49.6240188740193843841552734375</LatitudeDegrees>
              <LongitudeDegrees>20.686145089566707611083984375</LongitudeDegrees>
            </Position>
            <AltitudeMeters>293.79998779296875</AltitudeMeters>
            <DistanceMeters>NAN</DistanceMeters>
          </Trackpoint>
          <Trackpoint>
            <Time>2022-09-23T11:38:47.000Z</Time>
            <Position>
              <LatitudeDegrees>49.6240101568400859832763671875</LatitudeDegrees>
              <LongitudeDegrees>20.68611516617238521575927734375</LongitudeDegrees>
            </Position>
            <AltitudeMeters>293.79998779296875</AltitudeMeters>
            <DistanceMeters>NAN</DistanceMeters>
          </Trackpoint>
          <Trackpoint>
            <Time>2022-09-23T11:38:58.000Z</Time>
            <Position>
              <LatitudeDegrees>49.6240101568400859832763671875</LatitudeDegrees>
              <LongitudeDegrees>20.6861150823533535003662109375</LongitudeDegrees>
            </Position>
            <AltitudeMeters>293.79998779296875</AltitudeMeters>
            <DistanceMeters>NAN</DistanceMeters>
          </Trackpoint>
          <Trackpoint>
            <Time>2022-09-23T11:39:05.000Z</Time>
            <Position>
              <LatitudeDegrees>49.62401191703975200653076171875</LatitudeDegrees>
              <LongitudeDegrees>20.6861150823533535003662109375</LongitudeDegrees>
            </Position>
            <AltitudeMeters>293.79998779296875</AltitudeMeters>
            <DistanceMeters>NAN</DistanceMeters>
          </Trackpoint>
          <Trackpoint>
            <Time>2022-09-23T11:39:11.000Z</Time>
            <Position>
              <LatitudeDegrees>49.62402080185711383819580078125</LatitudeDegrees>
              <LongitudeDegrees>20.686126314103603363037109375</LongitudeDegrees>
            </Position>
            <AltitudeMeters>293.79998779296875</AltitudeMeters>
            <DistanceMeters>NAN</DistanceMeters>
          </Trackpoint>
          <Trackpoint>
            <Time>2022-09-23T11:39:19.000Z</Time>
            <Position>
              <LatitudeDegrees>49.624052233994007110595703125</LatitudeDegrees>
              <LongitudeDegrees>20.68607057444751262664794921875</LongitudeDegrees>
            </Position>
            <AltitudeMeters>293.79998779296875</AltitudeMeters>
            <DistanceMeters>NAN</DistanceMeters>
          </Trackpoint>
          <Trackpoint>
            <Time>2022-09-23T11:39:20.000Z</Time>
            <Position>
              <LatitudeDegrees>49.6240631304681301116943359375</LatitudeDegrees>
              <LongitudeDegrees>20.68605883978307247161865234375</LongitudeDegrees>
            </Position>
            <AltitudeMeters>293.79998779296875</AltitudeMeters>
            <DistanceMeters>NAN</DistanceMeters>
          </Trackpoint>
          <Trackpoint>
            <Time>2022-09-23T11:39:26.000Z</Time>
            <Position>
              <LatitudeDegrees>49.62410361506044864654541015625</LatitudeDegrees>
              <LongitudeDegrees>20.68606839515268802642822265625</LongitudeDegrees>
            </Position>
            <AltitudeMeters>293.79998779296875</AltitudeMeters>
            <DistanceMeters>NAN</DistanceMeters>
          </Trackpoint>
          <Trackpoint>
            <Time>2022-09-23T11:39:31.000Z</Time>
            <Position>
              <LatitudeDegrees>49.62412976659834384918212890625</LatitudeDegrees>
              <LongitudeDegrees>20.6860823929309844970703125</LongitudeDegrees>
            </Position>
            <AltitudeMeters>293.79998779296875</AltitudeMeters>
            <DistanceMeters>NAN</DistanceMeters>
          </Trackpoint>
          <Trackpoint>
            <Time>2022-09-23T11:39:32.000Z</Time>
            <Position>
              <LatitudeDegrees>49.62414468638598918914794921875</LatitudeDegrees>
              <LongitudeDegrees>20.68609018810093402862548828125</LongitudeDegrees>
            </Position>
            <AltitudeMeters>293.79998779296875</AltitudeMeters>
            <DistanceMeters>NAN</DistanceMeters>
          </Trackpoint>
          <Trackpoint>
            <Time>2022-09-23T11:39:36.000Z</Time>
            <Position>
              <LatitudeDegrees>49.624223224818706512451171875</LatitudeDegrees>
              <LongitudeDegrees>20.68616143427789211273193359375</LongitudeDegrees>
            </Position>
            <AltitudeMeters>293.600006103515625</AltitudeMeters>
            <DistanceMeters>NAN</DistanceMeters>
          </Trackpoint>
          <Trackpoint>
            <Time>2022-09-23T11:39:37.000Z</Time>
            <Position>
              <LatitudeDegrees>49.62425105273723602294921875</LatitudeDegrees>
              <LongitudeDegrees>20.68617484532296657562255859375</LongitudeDegrees>
            </Position>
            <AltitudeMeters>293.600006103515625</AltitudeMeters>
            <DistanceMeters>NAN</DistanceMeters>
          </Trackpoint>
          <Trackpoint>
            <Time>2022-09-23T11:39:38.000Z</Time>
            <Position>
              <LatitudeDegrees>49.62427963502705097198486328125</LatitudeDegrees>
              <LongitudeDegrees>20.6861937046051025390625</LongitudeDegrees>
            </Position>
            <AltitudeMeters>293.399993896484375</AltitudeMeters>
            <DistanceMeters>NAN</DistanceMeters>
          </Trackpoint>
          <Trackpoint>
            <Time>2022-09-23T11:39:43.000Z</Time>
            <Position>
              <LatitudeDegrees>49.6244346164166927337646484375</LatitudeDegrees>
              <LongitudeDegrees>20.6862914375960826873779296875</LongitudeDegrees>
            </Position>
            <AltitudeMeters>293.399993896484375</AltitudeMeters>
            <DistanceMeters>NAN</DistanceMeters>
          </Trackpoint>
          <Trackpoint>
            <Time>2022-09-23T11:39:49.000Z</Time>
            <Position>
              <LatitudeDegrees>49.6245861612260341644287109375</LatitudeDegrees>
              <LongitudeDegrees>20.6864191778004169464111328125</LongitudeDegrees>
            </Position>
            <AltitudeMeters>293.20001220703125</AltitudeMeters>
            <DistanceMeters>NAN</DistanceMeters>
          </Trackpoint>
          <Trackpoint>
            <Time>2022-09-23T11:39:55.000Z</Time>
            <Position>
              <LatitudeDegrees>49.62478590197861194610595703125</LatitudeDegrees>
              <LongitudeDegrees>20.68650308065116405487060546875</LongitudeDegrees>
            </Position>
            <AltitudeMeters>293.20001220703125</AltitudeMeters>
            <DistanceMeters>NAN</DistanceMeters>
          </Trackpoint>
          <Trackpoint>
            <Time>2022-09-23T11:40:03.000Z</Time>
            <Position>
              <LatitudeDegrees>49.6250190027058124542236328125</LatitudeDegrees>
              <LongitudeDegrees>20.6866210140287876129150390625</LongitudeDegrees>
            </Position>
            <AltitudeMeters>293.399993896484375</AltitudeMeters>
            <DistanceMeters>NAN</DistanceMeters>
          </Trackpoint>
          <Trackpoint>
            <Time>2022-09-23T11:40:09.000Z</Time>
            <Position>
              <LatitudeDegrees>49.62522192858159542083740234375</LatitudeDegrees>
              <LongitudeDegrees>20.68676275201141834259033203125</LongitudeDegrees>
            </Position>
            <AltitudeMeters>293.399993896484375</AltitudeMeters>
            <DistanceMeters>NAN</DistanceMeters>
          </Trackpoint>
          <Trackpoint>
            <Time>2022-09-23T11:40:12.000Z</Time>
            <Position>
              <LatitudeDegrees>49.6253197453916072845458984375</LatitudeDegrees>
              <LongitudeDegrees>20.68680650554597377777099609375</LongitudeDegrees>
            </Position>
            <AltitudeMeters>293.399993896484375</AltitudeMeters>
            <DistanceMeters>NAN</DistanceMeters>
          </Trackpoint>
          <Trackpoint>
            <Time>2022-09-23T11:40:14.000Z</Time>
            <Position>
              <LatitudeDegrees>49.6253836154937744140625</LatitudeDegrees>
              <LongitudeDegrees>20.6868372671306133270263671875</LongitudeDegrees>
            </Position>
            <AltitudeMeters>293.399993896484375</AltitudeMeters>
            <DistanceMeters>NAN</DistanceMeters>
          </Trackpoint>
          <Trackpoint>
            <Time>2022-09-23T11:40:16.000Z</Time>
            <Position>
              <LatitudeDegrees>49.62544622831046581268310546875</LatitudeDegrees>
              <LongitudeDegrees>20.68684958852827548980712890625</LongitudeDegrees>
            </Position>
            <AltitudeMeters>293.399993896484375</AltitudeMeters>
            <DistanceMeters>NAN</DistanceMeters>
          </Trackpoint>
          <Trackpoint>
            <Time>2022-09-23T11:40:18.000Z</Time>
            <Position>
              <LatitudeDegrees>49.6255029737949371337890625</LatitudeDegrees>
              <LongitudeDegrees>20.68686425685882568359375</LongitudeDegrees>
            </Position>
            <AltitudeMeters>293.399993896484375</AltitudeMeters>
            <DistanceMeters>NAN</DistanceMeters>
          </Trackpoint>
          <Trackpoint>
            <Time>2022-09-23T11:40:26.000Z</Time>
            <Position>
              <LatitudeDegrees>49.62574613280594348907470703125</LatitudeDegrees>
              <LongitudeDegrees>20.6869938410818576812744140625</LongitudeDegrees>
            </Position>
            <AltitudeMeters>293.600006103515625</AltitudeMeters>
            <DistanceMeters>NAN</DistanceMeters>
          </Trackpoint>
          <Trackpoint>
            <Time>2022-09-23T11:40:30.000Z</Time>
            <Position>
              <LatitudeDegrees>49.62584252469241619110107421875</LatitudeDegrees>
              <LongitudeDegrees>20.6870709545910358428955078125</LongitudeDegrees>
            </Position>
            <AltitudeMeters>293.79998779296875</AltitudeMeters>
            <DistanceMeters>NAN</DistanceMeters>
          </Trackpoint>
          <Trackpoint>
            <Time>2022-09-23T11:40:33.000Z</Time>
            <Position>
              <LatitudeDegrees>49.62589616887271404266357421875</LatitudeDegrees>
              <LongitudeDegrees>20.687123425304889678955078125</LongitudeDegrees>
            </Position>
            <AltitudeMeters>294</AltitudeMeters>
            <DistanceMeters>NAN</DistanceMeters>
          </Trackpoint>
          <Trackpoint>
            <Time>2022-09-23T11:40:40.000Z</Time>
            <Position>
              <LatitudeDegrees>49.62609197013080120086669921875</LatitudeDegrees>
              <LongitudeDegrees>20.68725116550922393798828125</LongitudeDegrees>
            </Position>
            <AltitudeMeters>294</AltitudeMeters>
            <DistanceMeters>NAN</DistanceMeters>
          </Trackpoint>
          <Trackpoint>
            <Time>2022-09-23T11:40:41.000Z</Time>
            <Position>
              <LatitudeDegrees>49.62612214498221874237060546875</LatitudeDegrees>
              <LongitudeDegrees>20.6872654147446155548095703125</LongitudeDegrees>
            </Position>
            <AltitudeMeters>294</AltitudeMeters>
            <DistanceMeters>NAN</DistanceMeters>
          </Trackpoint>
          <Trackpoint>
            <Time>2022-09-23T11:40:46.000Z</Time>
            <Position>
              <LatitudeDegrees>49.62631258182227611541748046875</LatitudeDegrees>
              <LongitudeDegrees>20.68737530149519443511962890625</LongitudeDegrees>
            </Position>
            <AltitudeMeters>294.20001220703125</AltitudeMeters>
            <DistanceMeters>NAN</DistanceMeters>
          </Trackpoint>
          <Trackpoint>
            <Time>2022-09-23T11:40:53.000Z</Time>
            <Position>
              <LatitudeDegrees>49.6265532262623310089111328125</LatitudeDegrees>
              <LongitudeDegrees>20.68753656931221485137939453125</LongitudeDegrees>
            </Position>
            <AltitudeMeters>294</AltitudeMeters>
            <DistanceMeters>NAN</DistanceMeters>
          </Trackpoint>
          <Trackpoint>
            <Time>2022-09-23T11:40:59.000Z</Time>
            <Position>
              <LatitudeDegrees>49.626737125217914581298828125</LatitudeDegrees>
              <LongitudeDegrees>20.68765643052756786346435546875</LongitudeDegrees>
            </Position>
            <AltitudeMeters>293.600006103515625</AltitudeMeters>
            <DistanceMeters>NAN</DistanceMeters>
          </Trackpoint>
          <Trackpoint>
            <Time>2022-09-23T11:41:05.000Z</Time>
            <Position>
              <LatitudeDegrees>49.62690635584294795989990234375</LatitudeDegrees>
              <LongitudeDegrees>20.68774812854826450347900390625</LongitudeDegrees>
            </Position>
            <AltitudeMeters>293.20001220703125</AltitudeMeters>
            <DistanceMeters>NAN</DistanceMeters>
          </Trackpoint>
          <Trackpoint>
            <Time>2022-09-23T11:41:12.000Z</Time>
            <Position>
              <LatitudeDegrees>49.6271176636219024658203125</LatitudeDegrees>
              <LongitudeDegrees>20.68784569390118122100830078125</LongitudeDegrees>
            </Position>
            <AltitudeMeters>293.20001220703125</AltitudeMeters>
            <DistanceMeters>NAN</DistanceMeters>
          </Trackpoint>
          <Trackpoint>
            <Time>2022-09-23T11:41:19.000Z</Time>
            <Position>
              <LatitudeDegrees>49.62732243351638317108154296875</LatitudeDegrees>
              <LongitudeDegrees>20.6879088096320629119873046875</LongitudeDegrees>
            </Position>
            <AltitudeMeters>293.399993896484375</AltitudeMeters>
            <DistanceMeters>NAN</DistanceMeters>
          </Trackpoint>
          <Trackpoint>
            <Time>2022-09-23T11:41:21.000Z</Time>
            <Position>
              <LatitudeDegrees>49.62739183567464351654052734375</LatitudeDegrees>
              <LongitudeDegrees>20.68791643716394901275634765625</LongitudeDegrees>
            </Position>
            <AltitudeMeters>293.20001220703125</AltitudeMeters>
            <DistanceMeters>NAN</DistanceMeters>
          </Trackpoint>
          <Trackpoint>
            <Time>2022-09-23T11:41:25.000Z</Time>
            <Position>
              <LatitudeDegrees>49.62752376683056354522705078125</LatitudeDegrees>
              <LongitudeDegrees>20.68793353624641895294189453125</LongitudeDegrees>
            </Position>
            <AltitudeMeters>292.79998779296875</AltitudeMeters>
            <DistanceMeters>NAN</DistanceMeters>
          </Trackpoint>
          <Trackpoint>
            <Time>2022-09-23T11:41:28.000Z</Time>
            <Position>
              <LatitudeDegrees>49.627632312476634979248046875</LatitudeDegrees>
              <LongitudeDegrees>20.6879319436848163604736328125</LongitudeDegrees>
            </Position>
            <AltitudeMeters>292.399993896484375</AltitudeMeters>
            <DistanceMeters>NAN</DistanceMeters>
          </Trackpoint>
          <Trackpoint>
            <Time>2022-09-23T11:41:34.000Z</Time>
            <Position>
              <LatitudeDegrees>49.62782367132604122161865234375</LatitudeDegrees>
              <LongitudeDegrees>20.68791124038398265838623046875</LongitudeDegrees>
            </Position>
            <AltitudeMeters>292.399993896484375</AltitudeMeters>
            <DistanceMeters>NAN</DistanceMeters>
          </Trackpoint>
          <Trackpoint>
            <Time>2022-09-23T11:41:39.000Z</Time>
            <Position>
              <LatitudeDegrees>49.62800170294940471649169921875</LatitudeDegrees>
              <LongitudeDegrees>20.68794644437730312347412109375</LongitudeDegrees>
            </Position>
            <AltitudeMeters>292.399993896484375</AltitudeMeters>
            <DistanceMeters>NAN</DistanceMeters>
          </Trackpoint>
          <Trackpoint>
            <Time>2022-09-23T11:41:44.000Z</Time>
            <Position>
              <LatitudeDegrees>49.6281709335744380950927734375</LatitudeDegrees>
              <LongitudeDegrees>20.68793378770351409912109375</LongitudeDegrees>
            </Position>
            <AltitudeMeters>292.399993896484375</AltitudeMeters>
            <DistanceMeters>NAN</DistanceMeters>
          </Trackpoint>
          <Trackpoint>
            <Time>2022-09-23T11:41:48.000Z</Time>
            <Position>
              <LatitudeDegrees>49.62831082753837108612060546875</LatitudeDegrees>
              <LongitudeDegrees>20.68792163394391536712646484375</LongitudeDegrees>
            </Position>
            <AltitudeMeters>292.399993896484375</AltitudeMeters>
            <DistanceMeters>NAN</DistanceMeters>
          </Trackpoint>
          <Trackpoint>
            <Time>2022-09-23T11:41:49.000Z</Time>
            <Position>
              <LatitudeDegrees>49.62833873927593231201171875</LatitudeDegrees>
              <LongitudeDegrees>20.6879490427672863006591796875</LongitudeDegrees>
            </Position>
            <AltitudeMeters>292.399993896484375</AltitudeMeters>
            <DistanceMeters>NAN</DistanceMeters>
          </Trackpoint>
          <Trackpoint>
            <Time>2022-09-23T11:41:55.000Z</Time>
            <Position>
              <LatitudeDegrees>49.62853177450597286224365234375</LatitudeDegrees>
              <LongitudeDegrees>20.68803495727479457855224609375</LongitudeDegrees>
            </Position>
            <AltitudeMeters>292.600006103515625</AltitudeMeters>
            <DistanceMeters>NAN</DistanceMeters>
          </Trackpoint>
          <Trackpoint>
            <Time>2022-09-23T11:42:01.000Z</Time>
            <Position>
              <LatitudeDegrees>49.6286627836525440216064453125</LatitudeDegrees>
              <LongitudeDegrees>20.6881689839065074920654296875</LongitudeDegrees>
            </Position>
            <AltitudeMeters>293.399993896484375</AltitudeMeters>
            <DistanceMeters>NAN</DistanceMeters>
          </Trackpoint>
          <Trackpoint>
            <Time>2022-09-23T11:42:04.000Z</Time>
            <Position>
              <LatitudeDegrees>49.62871500290930271148681640625</LatitudeDegrees>
              <LongitudeDegrees>20.68821282126009464263916015625</LongitudeDegrees>
            </Position>
            <AltitudeMeters>293.79998779296875</AltitudeMeters>
            <DistanceMeters>NAN</DistanceMeters>
          </Trackpoint>
          <Trackpoint>
            <Time>2022-09-23T11:42:06.000Z</Time>
            <Position>
              <LatitudeDegrees>49.62874718941748142242431640625</LatitudeDegrees>
              <LongitudeDegrees>20.688201002776622772216796875</LongitudeDegrees>
            </Position>
            <AltitudeMeters>293.79998779296875</AltitudeMeters>
            <DistanceMeters>NAN</DistanceMeters>
          </Trackpoint>
          <Trackpoint>
            <Time>2022-09-23T11:42:07.000Z</Time>
            <Position>
              <LatitudeDegrees>49.62876160629093647003173828125</LatitudeDegrees>
              <LongitudeDegrees>20.68817828781902790069580078125</LongitudeDegrees>
            </Position>
            <AltitudeMeters>294</AltitudeMeters>
            <DistanceMeters>NAN</DistanceMeters>
          </Trackpoint>
          <Trackpoint>
            <Time>2022-09-23T11:42:11.000Z</Time>
            <Position>
              <LatitudeDegrees>49.628867469727993011474609375</LatitudeDegrees>
              <LongitudeDegrees>20.68804384209215641021728515625</LongitudeDegrees>
            </Position>
            <AltitudeMeters>293.20001220703125</AltitudeMeters>
            <DistanceMeters>NAN</DistanceMeters>
          </Trackpoint>
          <Trackpoint>
            <Time>2022-09-23T11:42:15.000Z</Time>
            <Position>
              <LatitudeDegrees>49.6290047653019428253173828125</LatitudeDegrees>
              <LongitudeDegrees>20.6880127452313899993896484375</LongitudeDegrees>
            </Position>
            <AltitudeMeters>292.79998779296875</AltitudeMeters>
            <DistanceMeters>NAN</DistanceMeters>
          </Trackpoint>
          <Trackpoint>
            <Time>2022-09-23T11:42:20.000Z</Time>
            <Position>
              <LatitudeDegrees>49.629178605973720550537109375</LatitudeDegrees>
              <LongitudeDegrees>20.6879869289696216583251953125</LongitudeDegrees>
            </Position>
            <AltitudeMeters>292.79998779296875</AltitudeMeters>
            <DistanceMeters>NAN</DistanceMeters>
          </Trackpoint>
          <Trackpoint>
            <Time>2022-09-23T11:42:24.000Z</Time>
            <Position>
              <LatitudeDegrees>49.62932235561311244964599609375</LatitudeDegrees>
              <LongitudeDegrees>20.68797041662037372589111328125</LongitudeDegrees>
            </Position>
            <AltitudeMeters>292.600006103515625</AltitudeMeters>
            <DistanceMeters>NAN</DistanceMeters>
          </Trackpoint>
          <Trackpoint>
            <Time>2022-09-23T11:42:26.000Z</Time>
            <Position>
              <LatitudeDegrees>49.62938589043915271759033203125</LatitudeDegrees>
              <LongitudeDegrees>20.6879611127078533172607421875</LongitudeDegrees>
            </Position>
            <AltitudeMeters>292.600006103515625</AltitudeMeters>
            <DistanceMeters>NAN</DistanceMeters>
          </Trackpoint>
          <Trackpoint>
            <Time>2022-09-23T11:42:30.000Z</Time>
            <Position>
              <LatitudeDegrees>49.6295103617012500762939453125</LatitudeDegrees>
              <LongitudeDegrees>20.6879631243646144866943359375</LongitudeDegrees>
            </Position>
            <AltitudeMeters>292.600006103515625</AltitudeMeters>
            <DistanceMeters>NAN</DistanceMeters>
          </Trackpoint>
          <Trackpoint>
            <Time>2022-09-23T11:42:35.000Z</Time>
            <Position>
              <LatitudeDegrees>49.629658050835132598876953125</LatitudeDegrees>
              <LongitudeDegrees>20.68794585764408111572265625</LongitudeDegrees>
            </Position>
            <AltitudeMeters>292.20001220703125</AltitudeMeters>
            <DistanceMeters>NAN</DistanceMeters>
          </Trackpoint>
          <Trackpoint>
            <Time>2022-09-23T11:42:39.000Z</Time>
            <Position>
              <LatitudeDegrees>49.6297457255423069000244140625</LatitudeDegrees>
              <LongitudeDegrees>20.6878648884594440460205078125</LongitudeDegrees>
            </Position>
            <AltitudeMeters>292.20001220703125</AltitudeMeters>
            <DistanceMeters>NAN</DistanceMeters>
          </Trackpoint>
          <Trackpoint>
            <Time>2022-09-23T11:42:40.000Z</Time>
            <Position>
              <LatitudeDegrees>49.6297569572925567626953125</LatitudeDegrees>
              <LongitudeDegrees>20.68787050433456897735595703125</LongitudeDegrees>
            </Position>
            <AltitudeMeters>292.20001220703125</AltitudeMeters>
            <DistanceMeters>NAN</DistanceMeters>
          </Trackpoint>
          <Trackpoint>
            <Time>2022-09-23T11:42:42.000Z</Time>
            <Position>
              <LatitudeDegrees>49.62973809801042079925537109375</LatitudeDegrees>
              <LongitudeDegrees>20.68789757788181304931640625</LongitudeDegrees>
            </Position>
            <AltitudeMeters>292</AltitudeMeters>
            <DistanceMeters>NAN</DistanceMeters>
          </Trackpoint>
          <Trackpoint>
            <Time>2022-09-23T11:42:47.000Z</Time>
            <Position>
              <LatitudeDegrees>49.62974027730524539947509765625</LatitudeDegrees>
              <LongitudeDegrees>20.68788693286478519439697265625</LongitudeDegrees>
            </Position>
            <AltitudeMeters>292</AltitudeMeters>
            <DistanceMeters>NAN</DistanceMeters>
          </Trackpoint>
          <Trackpoint>
            <Time>2022-09-23T11:42:52.000Z</Time>
            <Position>
              <LatitudeDegrees>49.62974027730524539947509765625</LatitudeDegrees>
              <LongitudeDegrees>20.68788693286478519439697265625</LongitudeDegrees>
            </Position>
            <AltitudeMeters>292.20001220703125</AltitudeMeters>
            <DistanceMeters>NAN</DistanceMeters>
          </Trackpoint>
          <Trackpoint>
            <Time>2022-09-23T11:42:55.000Z</Time>
            <Position>
              <LatitudeDegrees>49.62974027730524539947509765625</LatitudeDegrees>
              <LongitudeDegrees>20.68788693286478519439697265625</LongitudeDegrees>
            </Position>
            <AltitudeMeters>292.20001220703125</AltitudeMeters>
            <DistanceMeters>NAN</DistanceMeters>
          </Trackpoint>
          <Trackpoint>
            <Time>2022-09-23T11:42:59.000Z</Time>
            <Position>
              <LatitudeDegrees>49.62974027730524539947509765625</LatitudeDegrees>
              <LongitudeDegrees>20.68788693286478519439697265625</LongitudeDegrees>
            </Position>
            <AltitudeMeters>292.20001220703125</AltitudeMeters>
            <DistanceMeters>NAN</DistanceMeters>
          </Trackpoint>
          <Trackpoint>
            <Time>2022-09-23T11:43:03.000Z</Time>
            <Position>
              <LatitudeDegrees>49.62974027730524539947509765625</LatitudeDegrees>
              <LongitudeDegrees>20.68788693286478519439697265625</LongitudeDegrees>
            </Position>
            <AltitudeMeters>292.20001220703125</AltitudeMeters>
            <DistanceMeters>NAN</DistanceMeters>
          </Trackpoint>
          <Trackpoint>
            <Time>2022-09-23T11:43:08.000Z</Time>
            <Position>
              <LatitudeDegrees>49.62974027730524539947509765625</LatitudeDegrees>
              <LongitudeDegrees>20.68788693286478519439697265625</LongitudeDegrees>
            </Position>
            <AltitudeMeters>292</AltitudeMeters>
            <DistanceMeters>NAN</DistanceMeters>
          </Trackpoint>
          <Trackpoint>
            <Time>2022-09-23T11:43:25.000Z</Time>
            <Position>
              <LatitudeDegrees>49.62974027730524539947509765625</LatitudeDegrees>
              <LongitudeDegrees>20.68788693286478519439697265625</LongitudeDegrees>
            </Position>
            <AltitudeMeters>292.20001220703125</AltitudeMeters>
            <DistanceMeters>NAN</DistanceMeters>
          </Trackpoint>
          <Trackpoint>
            <Time>2022-09-23T11:43:48.000Z</Time>
            <Position>
              <LatitudeDegrees>49.62974027730524539947509765625</LatitudeDegrees>
              <LongitudeDegrees>20.68788693286478519439697265625</LongitudeDegrees>
            </Position>
            <AltitudeMeters>292</AltitudeMeters>
            <DistanceMeters>NAN</DistanceMeters>
          </Trackpoint>
          <Trackpoint>
            <Time>2022-09-23T11:43:53.000Z</Time>
            <Position>
              <LatitudeDegrees>49.62974027730524539947509765625</LatitudeDegrees>
              <LongitudeDegrees>20.68788693286478519439697265625</LongitudeDegrees>
            </Position>
            <AltitudeMeters>292</AltitudeMeters>
            <DistanceMeters>NAN</DistanceMeters>
          </Trackpoint>
          <Trackpoint>
            <Time>2022-09-23T11:43:58.000Z</Time>
            <Position>
              <LatitudeDegrees>49.62974027730524539947509765625</LatitudeDegrees>
              <LongitudeDegrees>20.68788693286478519439697265625</LongitudeDegrees>
            </Position>
            <AltitudeMeters>292</AltitudeMeters>
            <DistanceMeters>NAN</DistanceMeters>
          </Trackpoint>
          <Trackpoint>
            <Time>2022-09-23T11:44:09.000Z</Time>
            <Position>
              <LatitudeDegrees>49.62974027730524539947509765625</LatitudeDegrees>
              <LongitudeDegrees>20.68788693286478519439697265625</LongitudeDegrees>
            </Position>
            <AltitudeMeters>292</AltitudeMeters>
            <DistanceMeters>NAN</DistanceMeters>
          </Trackpoint>
          <Trackpoint>
            <Time>2022-09-23T11:44:19.000Z</Time>
            <Position>
              <LatitudeDegrees>49.62974027730524539947509765625</LatitudeDegrees>
              <LongitudeDegrees>20.68788693286478519439697265625</LongitudeDegrees>
            </Position>
            <AltitudeMeters>292</AltitudeMeters>
            <DistanceMeters>NAN</DistanceMeters>
          </Trackpoint>
          <Trackpoint>
            <Time>2022-09-23T11:44:40.000Z</Time>
            <Position>
              <LatitudeDegrees>49.62974027730524539947509765625</LatitudeDegrees>
              <LongitudeDegrees>20.68788693286478519439697265625</LongitudeDegrees>
            </Position>
            <AltitudeMeters>292</AltitudeMeters>
            <DistanceMeters>NAN</DistanceMeters>
          </Trackpoint>
          <Trackpoint>
            <Time>2022-09-23T11:44:46.000Z</Time>
            <Position>
              <LatitudeDegrees>49.62974027730524539947509765625</LatitudeDegrees>
              <LongitudeDegrees>20.68788693286478519439697265625</LongitudeDegrees>
            </Position>
            <AltitudeMeters>292</AltitudeMeters>
            <DistanceMeters>NAN</DistanceMeters>
          </Trackpoint>
          <Trackpoint>
            <Time>2022-09-23T11:44:55.000Z</Time>
            <Position>
              <LatitudeDegrees>49.62974949739873409271240234375</LatitudeDegrees>
              <LongitudeDegrees>20.6879668124020099639892578125</LongitudeDegrees>
            </Position>
            <AltitudeMeters>292</AltitudeMeters>
            <DistanceMeters>NAN</DistanceMeters>
          </Trackpoint>
          <Trackpoint>
            <Time>2022-09-23T11:44:59.000Z</Time>
            <Position>
              <LatitudeDegrees>49.62975804693996906280517578125</LatitudeDegrees>
              <LongitudeDegrees>20.68801014684140682220458984375</LongitudeDegrees>
            </Position>
            <AltitudeMeters>292</AltitudeMeters>
            <DistanceMeters>NAN</DistanceMeters>
          </Trackpoint>
          <Trackpoint>
            <Time>2022-09-23T11:45:04.000Z</Time>
            <Position>
              <LatitudeDegrees>49.6298198215663433074951171875</LatitudeDegrees>
              <LongitudeDegrees>20.68800997920334339141845703125</LongitudeDegrees>
            </Position>
            <AltitudeMeters>292</AltitudeMeters>
            <DistanceMeters>NAN</DistanceMeters>
          </Trackpoint>
          <Trackpoint>
            <Time>2022-09-23T11:45:09.000Z</Time>
            <Position>
              <LatitudeDegrees>49.6299556083977222442626953125</LatitudeDegrees>
              <LongitudeDegrees>20.68801232613623142242431640625</LongitudeDegrees>
            </Position>
            <AltitudeMeters>292</AltitudeMeters>
            <DistanceMeters>NAN</DistanceMeters>
          </Trackpoint>
          <Trackpoint>
            <Time>2022-09-23T11:45:15.000Z</Time>
            <Position>
              <LatitudeDegrees>49.63016507215797901153564453125</LatitudeDegrees>
              <LongitudeDegrees>20.687998495995998382568359375</LongitudeDegrees>
            </Position>
            <AltitudeMeters>291.79998779296875</AltitudeMeters>
            <DistanceMeters>NAN</DistanceMeters>
          </Trackpoint>
          <Trackpoint>
            <Time>2022-09-23T11:45:19.000Z</Time>
            <Position>
              <LatitudeDegrees>49.630302451550960540771484375</LatitudeDegrees>
              <LongitudeDegrees>20.68803395144641399383544921875</LongitudeDegrees>
            </Position>
            <AltitudeMeters>291.79998779296875</AltitudeMeters>
            <DistanceMeters>NAN</DistanceMeters>
          </Trackpoint>
          <Trackpoint>
            <Time>2022-09-23T11:45:20.000Z</Time>
            <Position>
              <LatitudeDegrees>49.6303264237940311431884765625</LatitudeDegrees>
              <LongitudeDegrees>20.6880791299045085906982421875</LongitudeDegrees>
            </Position>
            <AltitudeMeters>291.79998779296875</AltitudeMeters>
            <DistanceMeters>NAN</DistanceMeters>
          </Trackpoint>
          <Trackpoint>
            <Time>2022-09-23T11:45:24.000Z</Time>
            <Position>
              <LatitudeDegrees>49.63034410960972309112548828125</LatitudeDegrees>
              <LongitudeDegrees>20.68825104273855686187744140625</LongitudeDegrees>
            </Position>
            <AltitudeMeters>292.79998779296875</AltitudeMeters>
            <DistanceMeters>NAN</DistanceMeters>
          </Trackpoint>
          <Trackpoint>
            <Time>2022-09-23T11:45:26.000Z</Time>
            <Position>
              <LatitudeDegrees>49.63034109212458133697509765625</LatitudeDegrees>
              <LongitudeDegrees>20.68827954120934009552001953125</LongitudeDegrees>
            </Position>
            <AltitudeMeters>293.79998779296875</AltitudeMeters>
            <DistanceMeters>NAN</DistanceMeters>
          </Trackpoint>
          <Trackpoint>
            <Time>2022-09-23T11:45:28.000Z</Time>
            <Position>
              <LatitudeDegrees>49.63035064749419689178466796875</LatitudeDegrees>
              <LongitudeDegrees>20.6882870011031627655029296875</LongitudeDegrees>
            </Position>
            <AltitudeMeters>294.20001220703125</AltitudeMeters>
            <DistanceMeters>NAN</DistanceMeters>
          </Trackpoint>
          <Trackpoint>
            <Time>2022-09-23T11:45:34.000Z</Time>
            <Position>
              <LatitudeDegrees>49.63035634718835353851318359375</LatitudeDegrees>
              <LongitudeDegrees>20.68832270801067352294921875</LongitudeDegrees>
            </Position>
            <AltitudeMeters>294.600006103515625</AltitudeMeters>
            <DistanceMeters>NAN</DistanceMeters>
          </Trackpoint>
          <Trackpoint>
            <Time>2022-09-23T11:45:37.000Z</Time>
            <Position>
              <LatitudeDegrees>49.630368165671825408935546875</LatitudeDegrees>
              <LongitudeDegrees>20.68835757672786712646484375</LongitudeDegrees>
            </Position>
            <AltitudeMeters>294.79998779296875</AltitudeMeters>
            <DistanceMeters>NAN</DistanceMeters>
          </Trackpoint>
          <Trackpoint>
            <Time>2022-09-23T11:45:38.000Z</Time>
            <Position>
              <LatitudeDegrees>49.6303770504891872406005859375</LatitudeDegrees>
              <LongitudeDegrees>20.68836688064038753509521484375</LongitudeDegrees>
            </Position>
            <AltitudeMeters>294.79998779296875</AltitudeMeters>
            <DistanceMeters>NAN</DistanceMeters>
          </Trackpoint>
          <Trackpoint>
            <Time>2022-09-23T11:45:39.000Z</Time>
            <Position>
              <LatitudeDegrees>49.63038451038300991058349609375</LatitudeDegrees>
              <LongitudeDegrees>20.68837274797260761260986328125</LongitudeDegrees>
            </Position>
            <AltitudeMeters>294.79998779296875</AltitudeMeters>
            <DistanceMeters>NAN</DistanceMeters>
          </Trackpoint>
          <Trackpoint>
            <Time>2022-09-23T11:45:44.000Z</Time>
            <Position>
              <LatitudeDegrees>49.6304853446781635284423828125</LatitudeDegrees>
              <LongitudeDegrees>20.6883564032614231109619140625</LongitudeDegrees>
            </Position>
            <AltitudeMeters>294.79998779296875</AltitudeMeters>
            <DistanceMeters>NAN</DistanceMeters>
          </Trackpoint>
          <Trackpoint>
            <Time>2022-09-23T11:45:50.000Z</Time>
            <Position>
              <LatitudeDegrees>49.63063278235495090484619140625</LatitudeDegrees>
              <LongitudeDegrees>20.68835849873721599578857421875</LongitudeDegrees>
            </Position>
            <AltitudeMeters>294.600006103515625</AltitudeMeters>
            <DistanceMeters>NAN</DistanceMeters>
          </Trackpoint>
          <Trackpoint>
            <Time>2022-09-23T11:45:56.000Z</Time>
            <Position>
              <LatitudeDegrees>49.63077560998499393463134765625</LatitudeDegrees>
              <LongitudeDegrees>20.68838230334222316741943359375</LongitudeDegrees>
            </Position>
            <AltitudeMeters>294.79998779296875</AltitudeMeters>
            <DistanceMeters>NAN</DistanceMeters>
          </Trackpoint>
          <Trackpoint>
            <Time>2022-09-23T11:46:03.000Z</Time>
            <Position>
              <LatitudeDegrees>49.63094207458198070526123046875</LatitudeDegrees>
              <LongitudeDegrees>20.6884556449949741363525390625</LongitudeDegrees>
            </Position>
            <AltitudeMeters>294.399993896484375</AltitudeMeters>
            <DistanceMeters>NAN</DistanceMeters>
          </Trackpoint>
          <Trackpoint>
            <Time>2022-09-23T11:46:08.000Z</Time>
            <Position>
              <LatitudeDegrees>49.63104232214391231536865234375</LatitudeDegrees>
              <LongitudeDegrees>20.68860023282468318939208984375</LongitudeDegrees>
            </Position>
            <AltitudeMeters>294.399993896484375</AltitudeMeters>
            <DistanceMeters>NAN</DistanceMeters>
          </Trackpoint>
          <Trackpoint>
            <Time>2022-09-23T11:46:14.000Z</Time>
            <Position>
              <LatitudeDegrees>49.63118179701268672943115234375</LatitudeDegrees>
              <LongitudeDegrees>20.6887084431946277618408203125</LongitudeDegrees>
            </Position>
            <AltitudeMeters>294.79998779296875</AltitudeMeters>
            <DistanceMeters>NAN</DistanceMeters>
          </Trackpoint>
          <Trackpoint>
            <Time>2022-09-23T11:46:19.000Z</Time>
            <Position>
              <LatitudeDegrees>49.631270729005336761474609375</LatitudeDegrees>
              <LongitudeDegrees>20.6887627579271793365478515625</LongitudeDegrees>
            </Position>
            <AltitudeMeters>295.20001220703125</AltitudeMeters>
            <DistanceMeters>NAN</DistanceMeters>
          </Trackpoint>
          <Trackpoint>
            <Time>2022-09-23T11:46:23.000Z</Time>
            <Position>
              <LatitudeDegrees>49.631346501410007476806640625</LatitudeDegrees>
              <LongitudeDegrees>20.6888128817081451416015625</LongitudeDegrees>
            </Position>
            <AltitudeMeters>295.399993896484375</AltitudeMeters>
            <DistanceMeters>NAN</DistanceMeters>
          </Trackpoint>
          <Trackpoint>
            <Time>2022-09-23T11:46:25.000Z</Time>
            <Position>
              <LatitudeDegrees>49.6313852258026599884033203125</LatitudeDegrees>
              <LongitudeDegrees>20.68883442319929599761962890625</LongitudeDegrees>
            </Position>
            <AltitudeMeters>295.399993896484375</AltitudeMeters>
            <DistanceMeters>NAN</DistanceMeters>
          </Trackpoint>
          <Trackpoint>
            <Time>2022-09-23T11:46:27.000Z</Time>
            <Position>
              <LatitudeDegrees>49.63142520748078823089599609375</LatitudeDegrees>
              <LongitudeDegrees>20.6888670288026332855224609375</LongitudeDegrees>
            </Position>
            <AltitudeMeters>295.399993896484375</AltitudeMeters>
            <DistanceMeters>NAN</DistanceMeters>
          </Trackpoint>
          <Trackpoint>
            <Time>2022-09-23T11:46:30.000Z</Time>
            <Position>
              <LatitudeDegrees>49.6314848028123378753662109375</LatitudeDegrees>
              <LongitudeDegrees>20.688919164240360260009765625</LongitudeDegrees>
            </Position>
            <AltitudeMeters>295.399993896484375</AltitudeMeters>
            <DistanceMeters>NAN</DistanceMeters>
          </Trackpoint>
          <Trackpoint>
            <Time>2022-09-23T11:46:34.000Z</Time>
            <Position>
              <LatitudeDegrees>49.63157239370048046112060546875</LatitudeDegrees>
              <LongitudeDegrees>20.6889790110290050506591796875</LongitudeDegrees>
            </Position>
            <AltitudeMeters>295.399993896484375</AltitudeMeters>
            <DistanceMeters>NAN</DistanceMeters>
          </Trackpoint>
          <Trackpoint>
            <Time>2022-09-23T11:46:36.000Z</Time>
            <Position>
              <LatitudeDegrees>49.6316049993038177490234375</LatitudeDegrees>
              <LongitudeDegrees>20.68901748396456241607666015625</LongitudeDegrees>
            </Position>
            <AltitudeMeters>295.399993896484375</AltitudeMeters>
            <DistanceMeters>NAN</DistanceMeters>
          </Trackpoint>
          <Trackpoint>
            <Time>2022-09-23T11:46:39.000Z</Time>
            <Position>
              <LatitudeDegrees>49.6316571347415447235107421875</LatitudeDegrees>
              <LongitudeDegrees>20.68906626664102077484130859375</LongitudeDegrees>
            </Position>
            <AltitudeMeters>295.20001220703125</AltitudeMeters>
            <DistanceMeters>NAN</DistanceMeters>
          </Trackpoint>
          <Trackpoint>
            <Time>2022-09-23T11:46:46.000Z</Time>
            <Position>
              <LatitudeDegrees>49.6317644231021404266357421875</LatitudeDegrees>
              <LongitudeDegrees>20.68913944065570831298828125</LongitudeDegrees>
            </Position>
            <AltitudeMeters>295.20001220703125</AltitudeMeters>
            <DistanceMeters>NAN</DistanceMeters>
          </Trackpoint>
          <Trackpoint>
            <Time>2022-09-23T11:46:51.000Z</Time>
            <Position>
              <LatitudeDegrees>49.63187095709145069122314453125</LatitudeDegrees>
              <LongitudeDegrees>20.689233653247356414794921875</LongitudeDegrees>
            </Position>
            <AltitudeMeters>294</AltitudeMeters>
            <DistanceMeters>NAN</DistanceMeters>
          </Trackpoint>
          <Trackpoint>
            <Time>2022-09-23T11:46:52.000Z</Time>
            <Position>
              <LatitudeDegrees>49.6319005452096462249755859375</LatitudeDegrees>
              <LongitudeDegrees>20.6892257742583751678466796875</LongitudeDegrees>
            </Position>
            <AltitudeMeters>293.79998779296875</AltitudeMeters>
            <DistanceMeters>NAN</DistanceMeters>
          </Trackpoint>
          <Trackpoint>
            <Time>2022-09-23T11:46:53.000Z</Time>
            <Position>
              <LatitudeDegrees>49.631928540766239166259765625</LatitudeDegrees>
              <LongitudeDegrees>20.6892029754817485809326171875</LongitudeDegrees>
            </Position>
            <AltitudeMeters>293.600006103515625</AltitudeMeters>
            <DistanceMeters>NAN</DistanceMeters>
          </Trackpoint>
          <Trackpoint>
            <Time>2022-09-23T11:46:54.000Z</Time>
            <Position>
              <LatitudeDegrees>49.6319427900016307830810546875</LatitudeDegrees>
              <LongitudeDegrees>20.68917967379093170166015625</LongitudeDegrees>
            </Position>
            <AltitudeMeters>293.399993896484375</AltitudeMeters>
            <DistanceMeters>NAN</DistanceMeters>
          </Trackpoint>
          <Trackpoint>
            <Time>2022-09-23T11:46:57.000Z</Time>
            <Position>
              <LatitudeDegrees>49.6319644153118133544921875</LatitudeDegrees>
              <LongitudeDegrees>20.68911236710846424102783203125</LongitudeDegrees>
            </Position>
            <AltitudeMeters>293.20001220703125</AltitudeMeters>
            <DistanceMeters>NAN</DistanceMeters>
          </Trackpoint>
          <Trackpoint>
            <Time>2022-09-23T11:46:59.000Z</Time>
            <Position>
              <LatitudeDegrees>49.63197254575788974761962890625</LatitudeDegrees>
              <LongitudeDegrees>20.689100883901119232177734375</LongitudeDegrees>
            </Position>
            <AltitudeMeters>293.20001220703125</AltitudeMeters>
            <DistanceMeters>NAN</DistanceMeters>
          </Trackpoint>
          <Trackpoint>
            <Time>2022-09-23T11:47:05.000Z</Time>
            <Position>
              <LatitudeDegrees>49.63197254575788974761962890625</LatitudeDegrees>
              <LongitudeDegrees>20.689100883901119232177734375</LongitudeDegrees>
            </Position>
            <AltitudeMeters>293</AltitudeMeters>
            <DistanceMeters>NAN</DistanceMeters>
          </Trackpoint>
          <Trackpoint>
            <Time>2022-09-23T11:47:14.000Z</Time>
            <Position>
              <LatitudeDegrees>49.63197254575788974761962890625</LatitudeDegrees>
              <LongitudeDegrees>20.689100883901119232177734375</LongitudeDegrees>
            </Position>
            <AltitudeMeters>293</AltitudeMeters>
            <DistanceMeters>NAN</DistanceMeters>
          </Trackpoint>
          <Trackpoint>
            <Time>2022-09-23T11:47:16.000Z</Time>
            <Position>
              <LatitudeDegrees>49.63197254575788974761962890625</LatitudeDegrees>
              <LongitudeDegrees>20.689100883901119232177734375</LongitudeDegrees>
            </Position>
            <AltitudeMeters>293</AltitudeMeters>
            <DistanceMeters>NAN</DistanceMeters>
          </Trackpoint>
          <Trackpoint>
            <Time>2022-09-23T11:47:29.000Z</Time>
            <Position>
              <LatitudeDegrees>49.63197254575788974761962890625</LatitudeDegrees>
              <LongitudeDegrees>20.689100883901119232177734375</LongitudeDegrees>
            </Position>
            <AltitudeMeters>293</AltitudeMeters>
            <DistanceMeters>NAN</DistanceMeters>
          </Trackpoint>
          <Trackpoint>
            <Time>2022-09-23T11:48:09.000Z</Time>
            <Position>
              <LatitudeDegrees>49.63197254575788974761962890625</LatitudeDegrees>
              <LongitudeDegrees>20.689100883901119232177734375</LongitudeDegrees>
            </Position>
            <AltitudeMeters>293</AltitudeMeters>
            <DistanceMeters>NAN</DistanceMeters>
          </Trackpoint>
          <Trackpoint>
            <Time>2022-09-23T11:48:14.000Z</Time>
            <Position>
              <LatitudeDegrees>49.63197254575788974761962890625</LatitudeDegrees>
              <LongitudeDegrees>20.689100883901119232177734375</LongitudeDegrees>
            </Position>
            <AltitudeMeters>293</AltitudeMeters>
            <DistanceMeters>NAN</DistanceMeters>
          </Trackpoint>
          <Trackpoint>
            <Time>2022-09-23T11:48:23.000Z</Time>
            <Position>
              <LatitudeDegrees>49.63197254575788974761962890625</LatitudeDegrees>
              <LongitudeDegrees>20.689100883901119232177734375</LongitudeDegrees>
            </Position>
            <AltitudeMeters>293</AltitudeMeters>
            <DistanceMeters>NAN</DistanceMeters>
          </Trackpoint>
          <Trackpoint>
            <Time>2022-09-23T11:48:48.000Z</Time>
            <Position>
              <LatitudeDegrees>49.63197254575788974761962890625</LatitudeDegrees>
              <LongitudeDegrees>20.689100883901119232177734375</LongitudeDegrees>
            </Position>
            <AltitudeMeters>293</AltitudeMeters>
            <DistanceMeters>NAN</DistanceMeters>
          </Trackpoint>
          <Trackpoint>
            <Time>2022-09-23T11:48:54.000Z</Time>
            <Position>
              <LatitudeDegrees>49.63197254575788974761962890625</LatitudeDegrees>
              <LongitudeDegrees>20.689100883901119232177734375</LongitudeDegrees>
            </Position>
            <AltitudeMeters>293</AltitudeMeters>
            <DistanceMeters>NAN</DistanceMeters>
          </Trackpoint>
          <Trackpoint>
            <Time>2022-09-23T11:49:00.000Z</Time>
            <Position>
              <LatitudeDegrees>49.63197254575788974761962890625</LatitudeDegrees>
              <LongitudeDegrees>20.689100883901119232177734375</LongitudeDegrees>
            </Position>
            <AltitudeMeters>293</AltitudeMeters>
            <DistanceMeters>NAN</DistanceMeters>
          </Trackpoint>
          <Trackpoint>
            <Time>2022-09-23T11:49:02.000Z</Time>
            <Position>
              <LatitudeDegrees>49.63197254575788974761962890625</LatitudeDegrees>
              <LongitudeDegrees>20.689100883901119232177734375</LongitudeDegrees>
            </Position>
            <AltitudeMeters>293</AltitudeMeters>
            <DistanceMeters>NAN</DistanceMeters>
          </Trackpoint>
          <Trackpoint>
            <Time>2022-09-23T11:49:04.000Z</Time>
            <Position>
              <LatitudeDegrees>49.63197254575788974761962890625</LatitudeDegrees>
              <LongitudeDegrees>20.689100883901119232177734375</LongitudeDegrees>
            </Position>
            <AltitudeMeters>293</AltitudeMeters>
            <DistanceMeters>NAN</DistanceMeters>
          </Trackpoint>
          <Trackpoint>
            <Time>2022-09-23T11:49:09.000Z</Time>
            <Position>
              <LatitudeDegrees>49.63197254575788974761962890625</LatitudeDegrees>
              <LongitudeDegrees>20.689100883901119232177734375</LongitudeDegrees>
            </Position>
            <AltitudeMeters>293</AltitudeMeters>
            <DistanceMeters>NAN</DistanceMeters>
          </Trackpoint>
          <Trackpoint>
            <Time>2022-09-23T11:49:24.000Z</Time>
            <Position>
              <LatitudeDegrees>49.63197254575788974761962890625</LatitudeDegrees>
              <LongitudeDegrees>20.689100883901119232177734375</LongitudeDegrees>
            </Position>
            <AltitudeMeters>293</AltitudeMeters>
            <DistanceMeters>NAN</DistanceMeters>
          </Trackpoint>
          <Trackpoint>
            <Time>2022-09-23T11:49:35.000Z</Time>
            <Position>
              <LatitudeDegrees>49.63197254575788974761962890625</LatitudeDegrees>
              <LongitudeDegrees>20.689100883901119232177734375</LongitudeDegrees>
            </Position>
            <AltitudeMeters>293</AltitudeMeters>
            <DistanceMeters>NAN</DistanceMeters>
          </Trackpoint>
          <Trackpoint>
            <Time>2022-09-23T11:49:43.000Z</Time>
            <Position>
              <LatitudeDegrees>49.63197254575788974761962890625</LatitudeDegrees>
              <LongitudeDegrees>20.689100883901119232177734375</LongitudeDegrees>
            </Position>
            <AltitudeMeters>293</AltitudeMeters>
            <DistanceMeters>NAN</DistanceMeters>
          </Trackpoint>
          <Trackpoint>
            <Time>2022-09-23T11:49:49.000Z</Time>
            <Position>
              <LatitudeDegrees>49.63201898150146007537841796875</LatitudeDegrees>
              <LongitudeDegrees>20.68913969211280345916748046875</LongitudeDegrees>
            </Position>
            <AltitudeMeters>293</AltitudeMeters>
            <DistanceMeters>NAN</DistanceMeters>
          </Trackpoint>
          <Trackpoint>
            <Time>2022-09-23T11:49:59.000Z</Time>
            <Position>
              <LatitudeDegrees>49.63202686049044132232666015625</LatitudeDegrees>
              <LongitudeDegrees>20.68915913812816143035888671875</LongitudeDegrees>
            </Position>
            <AltitudeMeters>293</AltitudeMeters>
            <DistanceMeters>NAN</DistanceMeters>
          </Trackpoint>
          <Trackpoint>
            <Time>2022-09-23T11:50:06.000Z</Time>
            <Position>
              <LatitudeDegrees>49.6320269443094730377197265625</LatitudeDegrees>
              <LongitudeDegrees>20.68915821611881256103515625</LongitudeDegrees>
            </Position>
            <AltitudeMeters>293</AltitudeMeters>
            <DistanceMeters>NAN</DistanceMeters>
          </Trackpoint>
          <Trackpoint>
            <Time>2022-09-23T11:50:09.000Z</Time>
            <Position>
              <LatitudeDegrees>49.6320269443094730377197265625</LatitudeDegrees>
              <LongitudeDegrees>20.68915821611881256103515625</LongitudeDegrees>
            </Position>
            <AltitudeMeters>293</AltitudeMeters>
            <DistanceMeters>NAN</DistanceMeters>
          </Trackpoint>
          <Trackpoint>
            <Time>2022-09-23T11:50:12.000Z</Time>
            <Position>
              <LatitudeDegrees>49.6320269443094730377197265625</LatitudeDegrees>
              <LongitudeDegrees>20.68915821611881256103515625</LongitudeDegrees>
            </Position>
            <AltitudeMeters>293</AltitudeMeters>
            <DistanceMeters>NAN</DistanceMeters>
          </Trackpoint>
          <Trackpoint>
            <Time>2022-09-23T11:50:17.000Z</Time>
            <Position>
              <LatitudeDegrees>49.63202635757625102996826171875</LatitudeDegrees>
              <LongitudeDegrees>20.6891577132046222686767578125</LongitudeDegrees>
            </Position>
            <AltitudeMeters>293</AltitudeMeters>
            <DistanceMeters>NAN</DistanceMeters>
          </Trackpoint>
          <Trackpoint>
            <Time>2022-09-23T11:50:25.000Z</Time>
            <Position>
              <LatitudeDegrees>49.63202635757625102996826171875</LatitudeDegrees>
              <LongitudeDegrees>20.68915687501430511474609375</LongitudeDegrees>
            </Position>
            <AltitudeMeters>293</AltitudeMeters>
            <DistanceMeters>NAN</DistanceMeters>
          </Trackpoint>
          <Trackpoint>
            <Time>2022-09-23T11:50:56.000Z</Time>
            <Position>
              <LatitudeDegrees>49.63202870450913906097412109375</LatitudeDegrees>
              <LongitudeDegrees>20.6891580484807491302490234375</LongitudeDegrees>
            </Position>
            <AltitudeMeters>293</AltitudeMeters>
            <DistanceMeters>NAN</DistanceMeters>
          </Trackpoint>
          <Trackpoint>
            <Time>2022-09-23T11:51:04.000Z</Time>
            <Position>
              <LatitudeDegrees>49.63203339837491512298583984375</LatitudeDegrees>
              <LongitudeDegrees>20.68915276788175106048583984375</LongitudeDegrees>
            </Position>
            <AltitudeMeters>293</AltitudeMeters>
            <DistanceMeters>NAN</DistanceMeters>
          </Trackpoint>
          <Trackpoint>
            <Time>2022-09-23T11:51:07.000Z</Time>
            <Position>
              <LatitudeDegrees>49.63203339837491512298583984375</LatitudeDegrees>
              <LongitudeDegrees>20.68915276788175106048583984375</LongitudeDegrees>
            </Position>
            <AltitudeMeters>293</AltitudeMeters>
            <DistanceMeters>NAN</DistanceMeters>
          </Trackpoint>
          <Trackpoint>
            <Time>2022-09-23T11:51:08.000Z</Time>
            <Position>
              <LatitudeDegrees>49.63203339837491512298583984375</LatitudeDegrees>
              <LongitudeDegrees>20.68915276788175106048583984375</LongitudeDegrees>
            </Position>
            <AltitudeMeters>293</AltitudeMeters>
            <DistanceMeters>NAN</DistanceMeters>
          </Trackpoint>
          <Trackpoint>
            <Time>2022-09-23T11:51:28.000Z</Time>
            <Position>
              <LatitudeDegrees>49.63203339837491512298583984375</LatitudeDegrees>
              <LongitudeDegrees>20.68915276788175106048583984375</LongitudeDegrees>
            </Position>
            <AltitudeMeters>293</AltitudeMeters>
            <DistanceMeters>NAN</DistanceMeters>
          </Trackpoint>
          <Trackpoint>
            <Time>2022-09-23T11:51:35.000Z</Time>
            <Position>
              <LatitudeDegrees>49.63203339837491512298583984375</LatitudeDegrees>
              <LongitudeDegrees>20.68915276788175106048583984375</LongitudeDegrees>
            </Position>
            <AltitudeMeters>293</AltitudeMeters>
            <DistanceMeters>NAN</DistanceMeters>
          </Trackpoint>
          <Trackpoint>
            <Time>2022-09-23T11:51:42.000Z</Time>
            <Position>
              <LatitudeDegrees>49.63203339837491512298583984375</LatitudeDegrees>
              <LongitudeDegrees>20.68915276788175106048583984375</LongitudeDegrees>
            </Position>
            <AltitudeMeters>293</AltitudeMeters>
            <DistanceMeters>NAN</DistanceMeters>
          </Trackpoint>
          <Trackpoint>
            <Time>2022-09-23T11:51:45.000Z</Time>
            <Position>
              <LatitudeDegrees>49.63203339837491512298583984375</LatitudeDegrees>
              <LongitudeDegrees>20.68915276788175106048583984375</LongitudeDegrees>
            </Position>
            <AltitudeMeters>293</AltitudeMeters>
            <DistanceMeters>NAN</DistanceMeters>
          </Trackpoint>
          <Trackpoint>
            <Time>2022-09-23T11:51:46.000Z</Time>
            <Position>
              <LatitudeDegrees>49.63203339837491512298583984375</LatitudeDegrees>
              <LongitudeDegrees>20.68915276788175106048583984375</LongitudeDegrees>
            </Position>
            <AltitudeMeters>293</AltitudeMeters>
            <DistanceMeters>NAN</DistanceMeters>
          </Trackpoint>
          <Trackpoint>
            <Time>2022-09-23T11:51:56.000Z</Time>
            <Position>
              <LatitudeDegrees>49.63203339837491512298583984375</LatitudeDegrees>
              <LongitudeDegrees>20.68915276788175106048583984375</LongitudeDegrees>
            </Position>
            <AltitudeMeters>293</AltitudeMeters>
            <DistanceMeters>NAN</DistanceMeters>
          </Trackpoint>
        </Track>
      </Lap>
    </Activity>
  </Activities>
</TrainingCenterDatabase>
